<?xml version="1.0" encoding="UTF-8"?>
<gpx version="1.1" creator="https://www.youtrack.es" xsi:schemaLocation="http://www.topografix.com/GPX/1/1 http://www.topografix.com/GPX/1/1/gpx.xsd http://www.garmin.com/xmlschemas/GpxExtensions/v3 http://www.garmin.com/xmlschemas/GpxExtensionsv3.xsd http://www.garmin.com/xmlschemas/TrackPointExtension/v1 http://www.garmin.com/xmlschemas/TrackPointExtensionv1.xsd" xmlns:gpxtpx="http://www.garmin.com/xmlschemas/TrackPointExtension/v1" xmlns:gpxx="http://www.garmin.com/xmlschemas/GpxExtensions/v3" xmlns:xsi="http://www.w3.org/2001/XMLSchema-instance">
  <metadata>
    <link href="https://www.youtrack.es">
      <text>YouTrack.es</text>
    </link>
    <time>2026-05-07T18:29:17Z</time>
  </metadata>
  <trk>
    <src>https://www.youtrack.es</src>
    <link href="https://www.youtrack.es/ruta/26130-via-verde-ojos-negros">
      <text>YouTrack.es</text>
    </link>
    <trkseg>
      <trkpt lat="40.73808982037007808685302734375" lon="-1.49759732186794281005859375">
        <ele>1138</ele>
        <time>2021-09-25T06:43:15.000Z</time>
      </trkpt>
      <trkpt lat="40.73808982037007808685302734375" lon="-1.49759732186794281005859375">
        <ele>1138</ele>
        <time>2021-09-25T06:43:16.000Z</time>
      </trkpt>
      <trkpt lat="40.73810599744319915771484375" lon="-1.4976554922759532928466796875">
        <ele>1138.199951171875</ele>
        <time>2021-09-25T06:44:04.000Z</time>
      </trkpt>
      <trkpt lat="40.73812217451632022857666015625" lon="-1.49766563437879085540771484375">
        <ele>1138.199951171875</ele>
        <time>2021-09-25T06:44:05.000Z</time>
      </trkpt>
      <trkpt lat="40.7381393574178218841552734375" lon="-1.4976789616048336029052734375">
        <ele>1138.199951171875</ele>
        <time>2021-09-25T06:44:06.000Z</time>
      </trkpt>
      <trkpt lat="40.73815419338643550872802734375" lon="-1.49769815616309642791748046875">
        <ele>1138.199951171875</ele>
        <time>2021-09-25T06:44:07.000Z</time>
      </trkpt>
      <trkpt lat="40.7381628267467021942138671875" lon="-1.4977441728115081787109375">
        <ele>1138.4000244140625</ele>
        <time>2021-09-25T06:44:09.000Z</time>
      </trkpt>
      <trkpt lat="40.73814698494970798492431640625" lon="-1.49778549559414386749267578125">
        <ele>1138.800048828125</ele>
        <time>2021-09-25T06:44:11.000Z</time>
      </trkpt>
      <trkpt lat="40.73813860304653644561767578125" lon="-1.497829668223857879638671875">
        <ele>1139.199951171875</ele>
        <time>2021-09-25T06:44:13.000Z</time>
      </trkpt>
      <trkpt lat="40.73814715258777141571044921875" lon="-1.49787451140582561492919921875">
        <ele>1139.4000244140625</ele>
        <time>2021-09-25T06:44:15.000Z</time>
      </trkpt>
      <trkpt lat="40.73815586976706981658935546875" lon="-1.497887670993804931640625">
        <ele>1139.4000244140625</ele>
        <time>2021-09-25T06:44:16.000Z</time>
      </trkpt>
      <trkpt lat="40.73816274292767047882080078125" lon="-1.49789781309664249420166015625">
        <ele>1139.4000244140625</ele>
        <time>2021-09-25T06:44:17.000Z</time>
      </trkpt>
      <trkpt lat="40.7381772436201572418212890625" lon="-1.4979253895580768585205078125">
        <ele>1139.4000244140625</ele>
        <time>2021-09-25T06:44:19.000Z</time>
      </trkpt>
      <trkpt lat="40.73815427720546722412109375" lon="-1.497934274375438690185546875">
        <ele>1139.800048828125</ele>
        <time>2021-09-25T06:44:21.000Z</time>
      </trkpt>
      <trkpt lat="40.73814681731164455413818359375" lon="-1.4979126490652561187744140625">
        <ele>1139.800048828125</ele>
        <time>2021-09-25T06:44:23.000Z</time>
      </trkpt>
      <trkpt lat="40.7381494157016277313232421875" lon="-1.497896723449230194091796875">
        <ele>1139.5999755859375</ele>
        <time>2021-09-25T06:44:25.000Z</time>
      </trkpt>
      <trkpt lat="40.7381457276642322540283203125" lon="-1.49787400849163532257080078125">
        <ele>1139.4000244140625</ele>
        <time>2021-09-25T06:45:39.000Z</time>
      </trkpt>
      <trkpt lat="40.73814430274069309234619140625" lon="-1.49784165434539318084716796875">
        <ele>1139.199951171875</ele>
        <time>2021-09-25T06:45:40.000Z</time>
      </trkpt>
      <trkpt lat="40.7381437160074710845947265625" lon="-1.49780452251434326171875">
        <ele>1139</ele>
        <time>2021-09-25T06:45:41.000Z</time>
      </trkpt>
      <trkpt lat="40.7381457276642322540283203125" lon="-1.4977624453604221343994140625">
        <ele>1138.5999755859375</ele>
        <time>2021-09-25T06:45:42.000Z</time>
      </trkpt>
      <trkpt lat="40.73814229108393192291259765625" lon="-1.49771709926426410675048828125">
        <ele>1138.4000244140625</ele>
        <time>2021-09-25T06:45:43.000Z</time>
      </trkpt>
      <trkpt lat="40.73813441209495067596435546875" lon="-1.49766982533037662506103515625">
        <ele>1138.199951171875</ele>
        <time>2021-09-25T06:45:44.000Z</time>
      </trkpt>
      <trkpt lat="40.73812636546790599822998046875" lon="-1.4976261556148529052734375">
        <ele>1137.800048828125</ele>
        <time>2021-09-25T06:45:45.000Z</time>
      </trkpt>
      <trkpt lat="40.7381148822605609893798828125" lon="-1.4975837431848049163818359375">
        <ele>1137.5999755859375</ele>
        <time>2021-09-25T06:45:46.000Z</time>
      </trkpt>
      <trkpt lat="40.7381028123199939727783203125" lon="-1.49754258804023265838623046875">
        <ele>1137.4000244140625</ele>
        <time>2021-09-25T06:45:47.000Z</time>
      </trkpt>
      <trkpt lat="40.73807423003017902374267578125" lon="-1.497466899454593658447265625">
        <ele>1137.199951171875</ele>
        <time>2021-09-25T06:45:49.000Z</time>
      </trkpt>
      <trkpt lat="40.73804656974971294403076171875" lon="-1.49744535796344280242919921875">
        <ele>1137.4000244140625</ele>
        <time>2021-09-25T06:45:50.000Z</time>
      </trkpt>
      <trkpt lat="40.73801337741315364837646484375" lon="-1.49744166992604732513427734375">
        <ele>1137.5999755859375</ele>
        <time>2021-09-25T06:45:51.000Z</time>
      </trkpt>
      <trkpt lat="40.7379754073917865753173828125" lon="-1.4974489621818065643310546875">
        <ele>1137.800048828125</ele>
        <time>2021-09-25T06:45:52.000Z</time>
      </trkpt>
      <trkpt lat="40.737940035760402679443359375" lon="-1.4974583499133586883544921875">
        <ele>1138.199951171875</ele>
        <time>2021-09-25T06:45:53.000Z</time>
      </trkpt>
      <trkpt lat="40.7378711365163326263427734375" lon="-1.4974757842719554901123046875">
        <ele>1138.800048828125</ele>
        <time>2021-09-25T06:45:55.000Z</time>
      </trkpt>
      <trkpt lat="40.73784372769296169281005859375" lon="-1.49747888557612895965576171875">
        <ele>1139</ele>
        <time>2021-09-25T06:45:56.000Z</time>
      </trkpt>
      <trkpt lat="40.7378161512315273284912109375" lon="-1.49747972376644611358642578125">
        <ele>1139.4000244140625</ele>
        <time>2021-09-25T06:45:57.000Z</time>
      </trkpt>
      <trkpt lat="40.73778958059847354888916015625" lon="-1.49748466908931732177734375">
        <ele>1139.800048828125</ele>
        <time>2021-09-25T06:45:58.000Z</time>
      </trkpt>
      <trkpt lat="40.7377615012228488922119140625" lon="-1.49749481119215488433837890625">
        <ele>1140.199951171875</ele>
        <time>2021-09-25T06:45:59.000Z</time>
      </trkpt>
      <trkpt lat="40.73770240880548954010009765625" lon="-1.49752548895776271820068359375">
        <ele>1141</ele>
        <time>2021-09-25T06:46:01.000Z</time>
      </trkpt>
      <trkpt lat="40.737673826515674591064453125" lon="-1.4975331164896488189697265625">
        <ele>1141.4000244140625</ele>
        <time>2021-09-25T06:46:02.000Z</time>
      </trkpt>
      <trkpt lat="40.73764725588262081146240234375" lon="-1.497539989650249481201171875">
        <ele>1141.5999755859375</ele>
        <time>2021-09-25T06:46:03.000Z</time>
      </trkpt>
      <trkpt lat="40.737589336931705474853515625" lon="-1.49755884893238544464111328125">
        <ele>1142.4000244140625</ele>
        <time>2021-09-25T06:46:05.000Z</time>
      </trkpt>
      <trkpt lat="40.73753426782786846160888671875" lon="-1.49757963605225086212158203125">
        <ele>1143</ele>
        <time>2021-09-25T06:46:07.000Z</time>
      </trkpt>
      <trkpt lat="40.7375097088515758514404296875" lon="-1.49759329855442047119140625">
        <ele>1143</ele>
        <time>2021-09-25T06:46:08.000Z</time>
      </trkpt>
      <trkpt lat="40.737482048571109771728515625" lon="-1.49760402739048004150390625">
        <ele>1143.199951171875</ele>
        <time>2021-09-25T06:46:09.000Z</time>
      </trkpt>
      <trkpt lat="40.737437792122364044189453125" lon="-1.49763244204223155975341796875">
        <ele>1143.4000244140625</ele>
        <time>2021-09-25T06:46:11.000Z</time>
      </trkpt>
      <trkpt lat="40.73741675354540348052978515625" lon="-1.49765691719949245452880859375">
        <ele>1143.5999755859375</ele>
        <time>2021-09-25T06:46:12.000Z</time>
      </trkpt>
      <trkpt lat="40.73740434832870960235595703125" lon="-1.49769413284957408905029296875">
        <ele>1143.4000244140625</ele>
        <time>2021-09-25T06:46:13.000Z</time>
      </trkpt>
      <trkpt lat="40.73739110492169857025146484375" lon="-1.4977777004241943359375">
        <ele>1143.199951171875</ele>
        <time>2021-09-25T06:46:15.000Z</time>
      </trkpt>
      <trkpt lat="40.7373846508562564849853515625" lon="-1.49781935848295688629150390625">
        <ele>1143.199951171875</ele>
        <time>2021-09-25T06:46:16.000Z</time>
      </trkpt>
      <trkpt lat="40.73737685568630695343017578125" lon="-1.4978603459894657135009765625">
        <ele>1143</ele>
        <time>2021-09-25T06:46:17.000Z</time>
      </trkpt>
      <trkpt lat="40.73736478574573993682861328125" lon="-1.49794676341116428375244140625">
        <ele>1142.800048828125</ele>
        <time>2021-09-25T06:46:19.000Z</time>
      </trkpt>
      <trkpt lat="40.7373578287661075592041015625" lon="-1.49801180697977542877197265625">
        <ele>1142.800048828125</ele>
        <time>2021-09-25T06:46:21.000Z</time>
      </trkpt>
      <trkpt lat="40.73735271580517292022705078125" lon="-1.49804801680147647857666015625">
        <ele>1142.800048828125</ele>
        <time>2021-09-25T06:46:22.000Z</time>
      </trkpt>
      <trkpt lat="40.7373400591313838958740234375" lon="-1.4980883337557315826416015625">
        <ele>1143</ele>
        <time>2021-09-25T06:46:23.000Z</time>
      </trkpt>
      <trkpt lat="40.73732069693505764007568359375" lon="-1.498170979321002960205078125">
        <ele>1143.4000244140625</ele>
        <time>2021-09-25T06:46:25.000Z</time>
      </trkpt>
      <trkpt lat="40.73730695061385631561279296875" lon="-1.49825178086757659912109375">
        <ele>1143.5999755859375</ele>
        <time>2021-09-25T06:46:27.000Z</time>
      </trkpt>
      <trkpt lat="40.737299658358097076416015625" lon="-1.49829578585922718048095703125">
        <ele>1143.800048828125</ele>
        <time>2021-09-25T06:46:28.000Z</time>
      </trkpt>
      <trkpt lat="40.7372934557497501373291015625" lon="-1.49834121577441692352294921875">
        <ele>1144</ele>
        <time>2021-09-25T06:46:29.000Z</time>
      </trkpt>
      <trkpt lat="40.73727426119148731231689453125" lon="-1.49843090213835239410400390625">
        <ele>1144.4000244140625</ele>
        <time>2021-09-25T06:46:31.000Z</time>
      </trkpt>
      <trkpt lat="40.73724408634006977081298828125" lon="-1.49851572699844837188720703125">
        <ele>1144.5999755859375</ele>
        <time>2021-09-25T06:46:33.000Z</time>
      </trkpt>
      <trkpt lat="40.7372307591140270233154296875" lon="-1.4985557086765766143798828125">
        <ele>1144.800048828125</ele>
        <time>2021-09-25T06:46:34.000Z</time>
      </trkpt>
      <trkpt lat="40.7372153364121913909912109375" lon="-1.49859602563083171844482421875">
        <ele>1145</ele>
        <time>2021-09-25T06:46:35.000Z</time>
      </trkpt>
      <trkpt lat="40.7371747680008411407470703125" lon="-1.49867246858775615692138671875">
        <ele>1145.199951171875</ele>
        <time>2021-09-25T06:46:37.000Z</time>
      </trkpt>
      <trkpt lat="40.7371466048061847686767578125" lon="-1.49875611998140811920166015625">
        <ele>1145.5999755859375</ele>
        <time>2021-09-25T06:46:39.000Z</time>
      </trkpt>
      <trkpt lat="40.73711450211703777313232421875" lon="-1.49883591569960117340087890625">
        <ele>1145.800048828125</ele>
        <time>2021-09-25T06:46:41.000Z</time>
      </trkpt>
      <trkpt lat="40.7370922900736331939697265625" lon="-1.4989017136394977569580078125">
        <ele>1146</ele>
        <time>2021-09-25T06:46:43.000Z</time>
      </trkpt>
      <trkpt lat="40.73705649934709072113037109375" lon="-1.498981676995754241943359375">
        <ele>1146.4000244140625</ele>
        <time>2021-09-25T06:46:45.000Z</time>
      </trkpt>
      <trkpt lat="40.737024731934070587158203125" lon="-1.49906541220843791961669921875">
        <ele>1146.5999755859375</ele>
        <time>2021-09-25T06:46:47.000Z</time>
      </trkpt>
      <trkpt lat="40.736993886530399322509765625" lon="-1.499147973954677581787109375">
        <ele>1147</ele>
        <time>2021-09-25T06:46:49.000Z</time>
      </trkpt>
      <trkpt lat="40.73697485961019992828369140625" lon="-1.49923439137637615203857421875">
        <ele>1147.199951171875</ele>
        <time>2021-09-25T06:46:51.000Z</time>
      </trkpt>
      <trkpt lat="40.736956335604190826416015625" lon="-1.49932256899774074554443359375">
        <ele>1147.5999755859375</ele>
        <time>2021-09-25T06:46:53.000Z</time>
      </trkpt>
      <trkpt lat="40.736951641738414764404296875" lon="-1.49936464615166187286376953125">
        <ele>1147.800048828125</ele>
        <time>2021-09-25T06:46:54.000Z</time>
      </trkpt>
      <trkpt lat="40.7369494624435901641845703125" lon="-1.49940923787653446197509765625">
        <ele>1147.800048828125</ele>
        <time>2021-09-25T06:46:55.000Z</time>
      </trkpt>
      <trkpt lat="40.736944265663623809814453125" lon="-1.49950428865849971771240234375">
        <ele>1148</ele>
        <time>2021-09-25T06:46:57.000Z</time>
      </trkpt>
      <trkpt lat="40.7369239814579486846923828125" lon="-1.4995886944234371185302734375">
        <ele>1148</ele>
        <time>2021-09-25T06:46:59.000Z</time>
      </trkpt>
      <trkpt lat="40.73692825622856616973876953125" lon="-1.4996741898357868194580078125">
        <ele>1148</ele>
        <time>2021-09-25T06:47:01.000Z</time>
      </trkpt>
      <trkpt lat="40.73693730868399143218994140625" lon="-1.499750800430774688720703125">
        <ele>1147.800048828125</ele>
        <time>2021-09-25T06:47:03.000Z</time>
      </trkpt>
      <trkpt lat="40.7369546592235565185546875" lon="-1.49980838410556316375732421875">
        <ele>1147.800048828125</ele>
        <time>2021-09-25T06:47:05.000Z</time>
      </trkpt>
      <trkpt lat="40.73700067587196826934814453125" lon="-1.49983118288218975067138671875">
        <ele>1148</ele>
        <time>2021-09-25T06:47:07.000Z</time>
      </trkpt>
      <trkpt lat="40.73703286238014698028564453125" lon="-1.499820537865161895751953125">
        <ele>1148</ele>
        <time>2021-09-25T06:47:08.000Z</time>
      </trkpt>
      <trkpt lat="40.737065635621547698974609375" lon="-1.49980746209621429443359375">
        <ele>1148</ele>
        <time>2021-09-25T06:47:09.000Z</time>
      </trkpt>
      <trkpt lat="40.73712791316211223602294921875" lon="-1.499775946140289306640625">
        <ele>1148</ele>
        <time>2021-09-25T06:47:11.000Z</time>
      </trkpt>
      <trkpt lat="40.7371844910085201263427734375" lon="-1.49974040687084197998046875">
        <ele>1148</ele>
        <time>2021-09-25T06:47:13.000Z</time>
      </trkpt>
      <trkpt lat="40.7372086308896541595458984375" lon="-1.49972498416900634765625">
        <ele>1148</ele>
        <time>2021-09-25T06:47:14.000Z</time>
      </trkpt>
      <trkpt lat="40.73723034001886844635009765625" lon="-1.499714590609073638916015625">
        <ele>1148</ele>
        <time>2021-09-25T06:47:15.000Z</time>
      </trkpt>
      <trkpt lat="40.7372716628015041351318359375" lon="-1.4996808953583240509033203125">
        <ele>1148</ele>
        <time>2021-09-25T06:47:17.000Z</time>
      </trkpt>
      <trkpt lat="40.73730292730033397674560546875" lon="-1.49963957257568836212158203125">
        <ele>1148</ele>
        <time>2021-09-25T06:47:19.000Z</time>
      </trkpt>
      <trkpt lat="40.73734818957746028900146484375" lon="-1.499615013599395751953125">
        <ele>1148</ele>
        <time>2021-09-25T06:47:21.000Z</time>
      </trkpt>
      <trkpt lat="40.7373893447220325469970703125" lon="-1.49959824979305267333984375">
        <ele>1148</ele>
        <time>2021-09-25T06:47:23.000Z</time>
      </trkpt>
      <trkpt lat="40.73741289786994457244873046875" lon="-1.499589197337627410888671875">
        <ele>1148</ele>
        <time>2021-09-25T06:47:24.000Z</time>
      </trkpt>
      <trkpt lat="40.73743821121752262115478515625" lon="-1.49958240799605846405029296875">
        <ele>1148</ele>
        <time>2021-09-25T06:47:25.000Z</time>
      </trkpt>
      <trkpt lat="40.73749286122620105743408203125" lon="-1.49958391673862934112548828125">
        <ele>1148.199951171875</ele>
        <time>2021-09-25T06:47:27.000Z</time>
      </trkpt>
      <trkpt lat="40.7375258021056652069091796875" lon="-1.499586515128612518310546875">
        <ele>1148.4000244140625</ele>
        <time>2021-09-25T06:47:29.000Z</time>
      </trkpt>
      <trkpt lat="40.737551786005496978759765625" lon="-1.499593220651149749755859375">
        <ele>1148.4000244140625</ele>
        <time>2021-09-25T06:47:31.000Z</time>
      </trkpt>
      <trkpt lat="40.73757701553404331207275390625" lon="-1.4996306039392948150634765625">
        <ele>1148.800048828125</ele>
        <time>2021-09-25T06:47:33.000Z</time>
      </trkpt>
      <trkpt lat="40.7375945337116718292236328125" lon="-1.4996497146785259246826171875">
        <ele>1148.800048828125</ele>
        <time>2021-09-25T06:47:34.000Z</time>
      </trkpt>
      <trkpt lat="40.73760853148996829986572265625" lon="-1.499662958085536956787109375">
        <ele>1149</ele>
        <time>2021-09-25T06:47:35.000Z</time>
      </trkpt>
      <trkpt lat="40.73762479238212108612060546875" lon="-1.499686427414417266845703125">
        <ele>1149</ele>
        <time>2021-09-25T06:47:37.000Z</time>
      </trkpt>
      <trkpt lat="40.73763434775173664093017578125" lon="-1.49970008991658687591552734375">
        <ele>1149.199951171875</ele>
        <time>2021-09-25T06:47:38.000Z</time>
      </trkpt>
      <trkpt lat="40.73764507658779621124267578125" lon="-1.49971702136099338531494140625">
        <ele>1149.199951171875</ele>
        <time>2021-09-25T06:47:39.000Z</time>
      </trkpt>
      <trkpt lat="40.73767642490565776824951171875" lon="-1.4997627027332782745361328125">
        <ele>1149.5999755859375</ele>
        <time>2021-09-25T06:47:41.000Z</time>
      </trkpt>
      <trkpt lat="40.737704671919345855712890625" lon="-1.49979933165013790130615234375">
        <ele>1149.800048828125</ele>
        <time>2021-09-25T06:47:43.000Z</time>
      </trkpt>
      <trkpt lat="40.737720094621181488037109375" lon="-1.49981022812426090240478515625">
        <ele>1149.800048828125</ele>
        <time>2021-09-25T06:47:44.000Z</time>
      </trkpt>
      <trkpt lat="40.73774817399680614471435546875" lon="-1.49983671493828296661376953125">
        <ele>1150.199951171875</ele>
        <time>2021-09-25T06:47:46.000Z</time>
      </trkpt>
      <trkpt lat="40.73776409961283206939697265625" lon="-1.49984325282275676727294921875">
        <ele>1150.199951171875</ele>
        <time>2021-09-25T06:47:47.000Z</time>
      </trkpt>
      <trkpt lat="40.73777650482952594757080078125" lon="-1.49985213764011859893798828125">
        <ele>1150.4000244140625</ele>
        <time>2021-09-25T06:47:48.000Z</time>
      </trkpt>
      <trkpt lat="40.7377524487674236297607421875" lon="-1.49979136884212493896484375">
        <ele>1150</ele>
        <time>2021-09-25T06:47:57.000Z</time>
      </trkpt>
      <trkpt lat="40.737704336643218994140625" lon="-1.4997236430644989013671875">
        <ele>1149.5999755859375</ele>
        <time>2021-09-25T06:47:59.000Z</time>
      </trkpt>
      <trkpt lat="40.7376676239073276519775390625" lon="-1.49967025034129619598388671875">
        <ele>1149.199951171875</ele>
        <time>2021-09-25T06:48:01.000Z</time>
      </trkpt>
      <trkpt lat="40.73766368441283702850341796875" lon="-1.49966103024780750274658203125">
        <ele>1149.199951171875</ele>
        <time>2021-09-25T06:48:02.000Z</time>
      </trkpt>
      <trkpt lat="40.73766083456575870513916015625" lon="-1.4996592700481414794921875">
        <ele>1149.199951171875</ele>
        <time>2021-09-25T06:48:03.000Z</time>
      </trkpt>
      <trkpt lat="40.73765270411968231201171875" lon="-1.49966672994196414947509765625">
        <ele>1149.199951171875</ele>
        <time>2021-09-25T06:48:04.000Z</time>
      </trkpt>
      <trkpt lat="40.73760853148996829986572265625" lon="-1.49964250624179840087890625">
        <ele>1148.800048828125</ele>
        <time>2021-09-25T06:48:21.000Z</time>
      </trkpt>
      <trkpt lat="40.737571902573108673095703125" lon="-1.4996326155960559844970703125">
        <ele>1148.5999755859375</ele>
        <time>2021-09-25T06:48:22.000Z</time>
      </trkpt>
      <trkpt lat="40.73752655647695064544677734375" lon="-1.49963286705315113067626953125">
        <ele>1148.5999755859375</ele>
        <time>2021-09-25T06:48:23.000Z</time>
      </trkpt>
      <trkpt lat="40.737438462674617767333984375" lon="-1.49964996613562107086181640625">
        <ele>1148.199951171875</ele>
        <time>2021-09-25T06:48:25.000Z</time>
      </trkpt>
      <trkpt lat="40.73740049265325069427490234375" lon="-1.49967293255031108856201171875">
        <ele>1148.199951171875</ele>
        <time>2021-09-25T06:48:26.000Z</time>
      </trkpt>
      <trkpt lat="40.737366378307342529296875" lon="-1.4997026883065700531005859375">
        <ele>1148.199951171875</ele>
        <time>2021-09-25T06:48:27.000Z</time>
      </trkpt>
      <trkpt lat="40.7373323477804660797119140625" lon="-1.49972439743578433990478515625">
        <ele>1148.199951171875</ele>
        <time>2021-09-25T06:48:28.000Z</time>
      </trkpt>
      <trkpt lat="40.73729689233005046844482421875" lon="-1.4997368864715099334716796875">
        <ele>1148</ele>
        <time>2021-09-25T06:48:29.000Z</time>
      </trkpt>
      <trkpt lat="40.73725841939449310302734375" lon="-1.49974233470857143402099609375">
        <ele>1148</ele>
        <time>2021-09-25T06:48:30.000Z</time>
      </trkpt>
      <trkpt lat="40.73721324093639850616455078125" lon="-1.49974484927952289581298828125">
        <ele>1148</ele>
        <time>2021-09-25T06:48:31.000Z</time>
      </trkpt>
      <trkpt lat="40.7371134124696254730224609375" lon="-1.49977703578770160675048828125">
        <ele>1148</ele>
        <time>2021-09-25T06:48:33.000Z</time>
      </trkpt>
      <trkpt lat="40.737064294517040252685546875" lon="-1.499801762402057647705078125">
        <ele>1148</ele>
        <time>2021-09-25T06:48:34.000Z</time>
      </trkpt>
      <trkpt lat="40.73701660148799419403076171875" lon="-1.499825902283191680908203125">
        <ele>1148</ele>
        <time>2021-09-25T06:48:35.000Z</time>
      </trkpt>
      <trkpt lat="40.73697133921086788177490234375" lon="-1.4998589269816875457763671875">
        <ele>1147.800048828125</ele>
        <time>2021-09-25T06:48:36.000Z</time>
      </trkpt>
      <trkpt lat="40.73692624457180500030517578125" lon="-1.49987745098769664764404296875">
        <ele>1147.5999755859375</ele>
        <time>2021-09-25T06:48:37.000Z</time>
      </trkpt>
      <trkpt lat="40.73688047938048839569091796875" lon="-1.4998805522918701171875">
        <ele>1147.5999755859375</ele>
        <time>2021-09-25T06:48:38.000Z</time>
      </trkpt>
      <trkpt lat="40.73683404363691806793212890625" lon="-1.4998787082731723785400390625">
        <ele>1147.4000244140625</ele>
        <time>2021-09-25T06:48:39.000Z</time>
      </trkpt>
      <trkpt lat="40.73678769171237945556640625" lon="-1.4998696558177471160888671875">
        <ele>1147.4000244140625</ele>
        <time>2021-09-25T06:48:40.000Z</time>
      </trkpt>
      <trkpt lat="40.73673899285495281219482421875" lon="-1.4998488686978816986083984375">
        <ele>1147.5999755859375</ele>
        <time>2021-09-25T06:48:41.000Z</time>
      </trkpt>
      <trkpt lat="40.73668920435011386871337890625" lon="-1.4998228847980499267578125">
        <ele>1148.199951171875</ele>
        <time>2021-09-25T06:48:42.000Z</time>
      </trkpt>
      <trkpt lat="40.7366435229778289794921875" lon="-1.4997905306518077850341796875">
        <ele>1148.5999755859375</ele>
        <time>2021-09-25T06:48:43.000Z</time>
      </trkpt>
      <trkpt lat="40.7365712709724903106689453125" lon="-1.4997102320194244384765625">
        <ele>1149.199951171875</ele>
        <time>2021-09-25T06:48:45.000Z</time>
      </trkpt>
      <trkpt lat="40.73654151521623134613037109375" lon="-1.4996607787907123565673828125">
        <ele>1149.4000244140625</ele>
        <time>2021-09-25T06:48:46.000Z</time>
      </trkpt>
      <trkpt lat="40.73651100508868694305419921875" lon="-1.4996114932000637054443359375">
        <ele>1149.5999755859375</ele>
        <time>2021-09-25T06:48:47.000Z</time>
      </trkpt>
      <trkpt lat="40.7364592887461185455322265625" lon="-1.49951585568487644195556640625">
        <ele>1150</ele>
        <time>2021-09-25T06:48:49.000Z</time>
      </trkpt>
      <trkpt lat="40.73642701841890811920166015625" lon="-1.49947361089289188385009765625">
        <ele>1150.199951171875</ele>
        <time>2021-09-25T06:48:50.000Z</time>
      </trkpt>
      <trkpt lat="40.7363979332149028778076171875" lon="-1.4994339644908905029296875">
        <ele>1150.5999755859375</ele>
        <time>2021-09-25T06:48:51.000Z</time>
      </trkpt>
      <trkpt lat="40.7363667525351047515869140625" lon="-1.49939549155533313751220703125">
        <ele>1150.800048828125</ele>
        <time>2021-09-25T06:48:52.000Z</time>
      </trkpt>
      <trkpt lat="40.7363342307507991790771484375" lon="-1.49935911409556865692138671875">
        <ele>1151</ele>
        <time>2021-09-25T06:48:53.000Z</time>
      </trkpt>
      <trkpt lat="40.7362745516002178192138671875" lon="-1.499290131032466888427734375">
        <ele>1151.199951171875</ele>
        <time>2021-09-25T06:48:55.000Z</time>
      </trkpt>
      <trkpt lat="40.73622845113277435302734375" lon="-1.49921846576035022735595703125">
        <ele>1151</ele>
        <time>2021-09-25T06:48:57.000Z</time>
      </trkpt>
      <trkpt lat="40.73620623908936977386474609375" lon="-1.49918384850025177001953125">
        <ele>1151</ele>
        <time>2021-09-25T06:48:58.000Z</time>
      </trkpt>
      <trkpt lat="40.73618494905531406402587890625" lon="-1.49915057234466075897216796875">
        <ele>1150.800048828125</ele>
        <time>2021-09-25T06:48:59.000Z</time>
      </trkpt>
      <trkpt lat="40.7361526787281036376953125" lon="-1.49908284656703472137451171875">
        <ele>1151</ele>
        <time>2021-09-25T06:49:01.000Z</time>
      </trkpt>
      <trkpt lat="40.73613482527434825897216796875" lon="-1.4990220777690410614013671875">
        <ele>1151</ele>
        <time>2021-09-25T06:49:03.000Z</time>
      </trkpt>
      <trkpt lat="40.736122839152812957763671875" lon="-1.49899835698306560516357421875">
        <ele>1151</ele>
        <time>2021-09-25T06:49:04.000Z</time>
      </trkpt>
      <trkpt lat="40.73609895072877407073974609375" lon="-1.49897958151996135711669921875">
        <ele>1151.199951171875</ele>
        <time>2021-09-25T06:49:05.000Z</time>
      </trkpt>
      <trkpt lat="40.73603332042694091796875" lon="-1.4989493228495121002197265625">
        <ele>1151.800048828125</ele>
        <time>2021-09-25T06:49:07.000Z</time>
      </trkpt>
      <trkpt lat="40.73599166236817836761474609375" lon="-1.49893985129892826080322265625">
        <ele>1152.199951171875</ele>
        <time>2021-09-25T06:49:08.000Z</time>
      </trkpt>
      <trkpt lat="40.73595042340457439422607421875" lon="-1.49892359040677547454833984375">
        <ele>1152.5999755859375</ele>
        <time>2021-09-25T06:49:09.000Z</time>
      </trkpt>
      <trkpt lat="40.73587968014180660247802734375" lon="-1.49887614883482456207275390625">
        <ele>1153.199951171875</ele>
        <time>2021-09-25T06:49:11.000Z</time>
      </trkpt>
      <trkpt lat="40.73584447614848613739013671875" lon="-1.49884731508791446685791015625">
        <ele>1153.4000244140625</ele>
        <time>2021-09-25T06:49:12.000Z</time>
      </trkpt>
      <trkpt lat="40.73581061325967311859130859375" lon="-1.49881931953132152557373046875">
        <ele>1153.5999755859375</ele>
        <time>2021-09-25T06:49:13.000Z</time>
      </trkpt>
      <trkpt lat="40.73575294576585292816162109375" lon="-1.49875662289559841156005859375">
        <ele>1154</ele>
        <time>2021-09-25T06:49:15.000Z</time>
      </trkpt>
      <trkpt lat="40.73570148088037967681884765625" lon="-1.4986958540976047515869140625">
        <ele>1154.4000244140625</ele>
        <time>2021-09-25T06:49:17.000Z</time>
      </trkpt>
      <trkpt lat="40.73564867489039897918701171875" lon="-1.49863190017640590667724609375">
        <ele>1154.800048828125</ele>
        <time>2021-09-25T06:49:19.000Z</time>
      </trkpt>
      <trkpt lat="40.735590420663356781005859375" lon="-1.49856702424585819244384765625">
        <ele>1155.199951171875</ele>
        <time>2021-09-25T06:49:21.000Z</time>
      </trkpt>
      <trkpt lat="40.73553820140659809112548828125" lon="-1.49849661625921726226806640625">
        <ele>1155.199951171875</ele>
        <time>2021-09-25T06:49:23.000Z</time>
      </trkpt>
      <trkpt lat="40.73551355861127376556396484375" lon="-1.49845805950462818145751953125">
        <ele>1155.4000244140625</ele>
        <time>2021-09-25T06:49:24.000Z</time>
      </trkpt>
      <trkpt lat="40.73548975400626659393310546875" lon="-1.4984227716922760009765625">
        <ele>1155.4000244140625</ele>
        <time>2021-09-25T06:49:25.000Z</time>
      </trkpt>
      <trkpt lat="40.73544348590075969696044921875" lon="-1.498354710638523101806640625">
        <ele>1155.5999755859375</ele>
        <time>2021-09-25T06:49:27.000Z</time>
      </trkpt>
      <trkpt lat="40.73539135046303272247314453125" lon="-1.4982915110886096954345703125">
        <ele>1155.800048828125</ele>
        <time>2021-09-25T06:49:29.000Z</time>
      </trkpt>
      <trkpt lat="40.7353565655648708343505859375" lon="-1.4982672035694122314453125">
        <ele>1155.800048828125</ele>
        <time>2021-09-25T06:49:30.000Z</time>
      </trkpt>
      <trkpt lat="40.73531909845769405364990234375" lon="-1.49824867956340312957763671875">
        <ele>1155.5999755859375</ele>
        <time>2021-09-25T06:49:31.000Z</time>
      </trkpt>
      <trkpt lat="40.7352398894727230072021484375" lon="-1.49821959435939788818359375">
        <ele>1155.199951171875</ele>
        <time>2021-09-25T06:49:33.000Z</time>
      </trkpt>
      <trkpt lat="40.73515766300261020660400390625" lon="-1.4981818757951259613037109375">
        <ele>1154.4000244140625</ele>
        <time>2021-09-25T06:49:35.000Z</time>
      </trkpt>
      <trkpt lat="40.73511189781129360198974609375" lon="-1.49815983138978481292724609375">
        <ele>1153.5999755859375</ele>
        <time>2021-09-25T06:49:36.000Z</time>
      </trkpt>
      <trkpt lat="40.73506160639226436614990234375" lon="-1.49813703261315822601318359375">
        <ele>1152.800048828125</ele>
        <time>2021-09-25T06:49:37.000Z</time>
      </trkpt>
      <trkpt lat="40.73496001772582530975341796875" lon="-1.4980923570692539215087890625">
        <ele>1150.5999755859375</ele>
        <time>2021-09-25T06:49:39.000Z</time>
      </trkpt>
      <trkpt lat="40.73491559363901615142822265625" lon="-1.4980776049196720123291015625">
        <ele>1149.5999755859375</ele>
        <time>2021-09-25T06:49:40.000Z</time>
      </trkpt>
      <trkpt lat="40.73487460613250732421875" lon="-1.49807282723486423492431640625">
        <ele>1148.800048828125</ele>
        <time>2021-09-25T06:49:41.000Z</time>
      </trkpt>
      <trkpt lat="40.73482473380863666534423828125" lon="-1.4980660378932952880859375">
        <ele>1147.800048828125</ele>
        <time>2021-09-25T06:49:43.000Z</time>
      </trkpt>
      <trkpt lat="40.73481132276356220245361328125" lon="-1.49806260131299495697021484375">
        <ele>1147.5999755859375</ele>
        <time>2021-09-25T06:49:44.000Z</time>
      </trkpt>
      <trkpt lat="40.73480151593685150146484375" lon="-1.49805991910398006439208984375">
        <ele>1147.4000244140625</ele>
        <time>2021-09-25T06:49:45.000Z</time>
      </trkpt>
      <trkpt lat="40.7347949780523777008056640625" lon="-1.49805941618978977203369140625">
        <ele>1147.199951171875</ele>
        <time>2021-09-25T06:49:46.000Z</time>
      </trkpt>
      <trkpt lat="40.73479170911014080047607421875" lon="-1.49806763045489788055419921875">
        <ele>1147.199951171875</ele>
        <time>2021-09-25T06:49:47.000Z</time>
      </trkpt>
      <trkpt lat="40.734793134033679962158203125" lon="-1.49807131849229335784912109375">
        <ele>1147.199951171875</ele>
        <time>2021-09-25T06:49:48.000Z</time>
      </trkpt>
      <trkpt lat="40.734793134033679962158203125" lon="-1.49807131849229335784912109375">
        <ele>1147.199951171875</ele>
        <time>2021-09-25T06:49:49.000Z</time>
      </trkpt>
      <trkpt lat="40.734753571450710296630859375" lon="-1.4980792813003063201904296875">
        <ele>1146.5999755859375</ele>
        <time>2021-09-25T06:51:23.000Z</time>
      </trkpt>
      <trkpt lat="40.73471166193485260009765625" lon="-1.49812395684421062469482421875">
        <ele>1146.4000244140625</ele>
        <time>2021-09-25T06:51:25.000Z</time>
      </trkpt>
      <trkpt lat="40.73468274436891078948974609375" lon="-1.49815631099045276641845703125">
        <ele>1146.199951171875</ele>
        <time>2021-09-25T06:51:26.000Z</time>
      </trkpt>
      <trkpt lat="40.73464804328978061676025390625" lon="-1.49819620884954929351806640625">
        <ele>1146</ele>
        <time>2021-09-25T06:51:27.000Z</time>
      </trkpt>
      <trkpt lat="40.7345472089946269989013671875" lon="-1.49828824214637279510498046875">
        <ele>1145.199951171875</ele>
        <time>2021-09-25T06:51:29.000Z</time>
      </trkpt>
      <trkpt lat="40.73449431918561458587646484375" lon="-1.49833216331899166107177734375">
        <ele>1144.800048828125</ele>
        <time>2021-09-25T06:51:30.000Z</time>
      </trkpt>
      <trkpt lat="40.7344462908804416656494140625" lon="-1.498372815549373626708984375">
        <ele>1144.5999755859375</ele>
        <time>2021-09-25T06:51:31.000Z</time>
      </trkpt>
      <trkpt lat="40.73433456011116504669189453125" lon="-1.498464010655879974365234375">
        <ele>1144.199951171875</ele>
        <time>2021-09-25T06:51:33.000Z</time>
      </trkpt>
      <trkpt lat="40.73421813547611236572265625" lon="-1.49856048636138439178466796875">
        <ele>1143.800048828125</ele>
        <time>2021-09-25T06:51:35.000Z</time>
      </trkpt>
      <trkpt lat="40.734154768288135528564453125" lon="-1.49859904311597347259521484375">
        <ele>1143.199951171875</ele>
        <time>2021-09-25T06:51:36.000Z</time>
      </trkpt>
      <trkpt lat="40.73409165255725383758544921875" lon="-1.49862905032932758331298828125">
        <ele>1142.4000244140625</ele>
        <time>2021-09-25T06:51:37.000Z</time>
      </trkpt>
      <trkpt lat="40.73397547937929630279541015625" lon="-1.498683951795101165771484375">
        <ele>1140.800048828125</ele>
        <time>2021-09-25T06:51:39.000Z</time>
      </trkpt>
      <trkpt lat="40.733842290937900543212890625" lon="-1.49875964038074016571044921875">
        <ele>1139.5999755859375</ele>
        <time>2021-09-25T06:51:41.000Z</time>
      </trkpt>
      <trkpt lat="40.7337096892297267913818359375" lon="-1.49886994622647762298583984375">
        <ele>1139.199951171875</ele>
        <time>2021-09-25T06:51:43.000Z</time>
      </trkpt>
      <trkpt lat="40.73364154435694217681884765625" lon="-1.49893381632864475250244140625">
        <ele>1139.199951171875</ele>
        <time>2021-09-25T06:51:44.000Z</time>
      </trkpt>
      <trkpt lat="40.73357298038899898529052734375" lon="-1.4990046434104442596435546875">
        <ele>1139.199951171875</ele>
        <time>2021-09-25T06:51:45.000Z</time>
      </trkpt>
      <trkpt lat="40.73344993405044078826904296875" lon="-1.49915409274399280548095703125">
        <ele>1139.5999755859375</ele>
        <time>2021-09-25T06:51:47.000Z</time>
      </trkpt>
      <trkpt lat="40.7333214394748210906982421875" lon="-1.49928216822445392608642578125">
        <ele>1139.800048828125</ele>
        <time>2021-09-25T06:51:49.000Z</time>
      </trkpt>
      <trkpt lat="40.733184814453125" lon="-1.49936799891293048858642578125">
        <ele>1139.5999755859375</ele>
        <time>2021-09-25T06:51:51.000Z</time>
      </trkpt>
      <trkpt lat="40.73304089717566967010498046875" lon="-1.49941912852227687835693359375">
        <ele>1138.800048828125</ele>
        <time>2021-09-25T06:51:53.000Z</time>
      </trkpt>
      <trkpt lat="40.732897818088531494140625" lon="-1.4994743652641773223876953125">
        <ele>1138</ele>
        <time>2021-09-25T06:51:55.000Z</time>
      </trkpt>
      <trkpt lat="40.7327575050294399261474609375" lon="-1.49955038912594318389892578125">
        <ele>1137.4000244140625</ele>
        <time>2021-09-25T06:51:57.000Z</time>
      </trkpt>
      <trkpt lat="40.73262414894998073577880859375" lon="-1.49965030141174793243408203125">
        <ele>1136.800048828125</ele>
        <time>2021-09-25T06:51:59.000Z</time>
      </trkpt>
      <trkpt lat="40.73249481618404388427734375" lon="-1.49977083317935466766357421875">
        <ele>1136</ele>
        <time>2021-09-25T06:52:01.000Z</time>
      </trkpt>
      <trkpt lat="40.73236875236034393310546875" lon="-1.49990796111524105072021484375">
        <ele>1134.800048828125</ele>
        <time>2021-09-25T06:52:03.000Z</time>
      </trkpt>
      <trkpt lat="40.73231100104749202728271484375" lon="-1.4999863319098949432373046875">
        <ele>1134.4000244140625</ele>
        <time>2021-09-25T06:52:04.000Z</time>
      </trkpt>
      <trkpt lat="40.73225769214332103729248046875" lon="-1.50006906129419803619384765625">
        <ele>1134.199951171875</ele>
        <time>2021-09-25T06:52:05.000Z</time>
      </trkpt>
      <trkpt lat="40.7322126813232898712158203125" lon="-1.50015455670654773712158203125">
        <ele>1134.4000244140625</ele>
        <time>2021-09-25T06:52:06.000Z</time>
      </trkpt>
      <trkpt lat="40.73217202909290790557861328125" lon="-1.50024776346981525421142578125">
        <ele>1134.5999755859375</ele>
        <time>2021-09-25T06:52:07.000Z</time>
      </trkpt>
      <trkpt lat="40.73213732801377773284912109375" lon="-1.50034482590854167938232421875">
        <ele>1134.4000244140625</ele>
        <time>2021-09-25T06:52:08.000Z</time>
      </trkpt>
      <trkpt lat="40.7321077398955821990966796875" lon="-1.5004406310617923736572265625">
        <ele>1134</ele>
        <time>2021-09-25T06:52:09.000Z</time>
      </trkpt>
      <trkpt lat="40.7320569455623626708984375" lon="-1.5006355941295623779296875">
        <ele>1134.4000244140625</ele>
        <time>2021-09-25T06:52:11.000Z</time>
      </trkpt>
      <trkpt lat="40.731989555060863494873046875" lon="-1.50081731379032135009765625">
        <ele>1134.4000244140625</ele>
        <time>2021-09-25T06:52:13.000Z</time>
      </trkpt>
      <trkpt lat="40.73195703327655792236328125" lon="-1.50090909563004970550537109375">
        <ele>1134.199951171875</ele>
        <time>2021-09-25T06:52:14.000Z</time>
      </trkpt>
      <trkpt lat="40.73193180374801158905029296875" lon="-1.50100347585976123809814453125">
        <ele>1134</ele>
        <time>2021-09-25T06:52:15.000Z</time>
      </trkpt>
      <trkpt lat="40.73191336356103420257568359375" lon="-1.50109835900366306304931640625">
        <ele>1133.800048828125</ele>
        <time>2021-09-25T06:52:16.000Z</time>
      </trkpt>
      <trkpt lat="40.73189928196370601654052734375" lon="-1.5011933259665966033935546875">
        <ele>1134.199951171875</ele>
        <time>2021-09-25T06:52:17.000Z</time>
      </trkpt>
      <trkpt lat="40.7318941690027713775634765625" lon="-1.50129139423370361328125">
        <ele>1134.4000244140625</ele>
        <time>2021-09-25T06:52:18.000Z</time>
      </trkpt>
      <trkpt lat="40.731900036334991455078125" lon="-1.50138770230114459991455078125">
        <ele>1134.4000244140625</ele>
        <time>2021-09-25T06:52:19.000Z</time>
      </trkpt>
      <trkpt lat="40.73191571049392223358154296875" lon="-1.50158300064504146575927734375">
        <ele>1135</ele>
        <time>2021-09-25T06:52:21.000Z</time>
      </trkpt>
      <trkpt lat="40.731918811798095703125" lon="-1.50167972780764102935791015625">
        <ele>1135.4000244140625</ele>
        <time>2021-09-25T06:52:22.000Z</time>
      </trkpt>
      <trkpt lat="40.7319139502942562103271484375" lon="-1.501776538789272308349609375">
        <ele>1136.199951171875</ele>
        <time>2021-09-25T06:52:23.000Z</time>
      </trkpt>
      <trkpt lat="40.73189609684050083160400390625" lon="-1.5019604377448558807373046875">
        <ele>1137.5999755859375</ele>
        <time>2021-09-25T06:52:25.000Z</time>
      </trkpt>
      <trkpt lat="40.73187748901546001434326171875" lon="-1.50213293731212615966796875">
        <ele>1138</ele>
        <time>2021-09-25T06:52:27.000Z</time>
      </trkpt>
      <trkpt lat="40.7318638265132904052734375" lon="-1.50230183266103267669677734375">
        <ele>1138.5999755859375</ele>
        <time>2021-09-25T06:52:29.000Z</time>
      </trkpt>
      <trkpt lat="40.7318556122481822967529296875" lon="-1.502379365265369415283203125">
        <ele>1138.5999755859375</ele>
        <time>2021-09-25T06:52:30.000Z</time>
      </trkpt>
      <trkpt lat="40.73184245266020298004150390625" lon="-1.50244935415685176849365234375">
        <ele>1138.4000244140625</ele>
        <time>2021-09-25T06:52:31.000Z</time>
      </trkpt>
      <trkpt lat="40.73178243823349475860595703125" lon="-1.50256653316318988800048828125">
        <ele>1137.199951171875</ele>
        <time>2021-09-25T06:52:33.000Z</time>
      </trkpt>
      <trkpt lat="40.7317047379910945892333984375" lon="-1.502658315002918243408203125">
        <ele>1135.800048828125</ele>
        <time>2021-09-25T06:52:35.000Z</time>
      </trkpt>
      <trkpt lat="40.73161647655069828033447265625" lon="-1.50273534469306468963623046875">
        <ele>1135.199951171875</ele>
        <time>2021-09-25T06:52:37.000Z</time>
      </trkpt>
      <trkpt lat="40.731575489044189453125" lon="-1.50277256034314632415771484375">
        <ele>1134.800048828125</ele>
        <time>2021-09-25T06:52:38.000Z</time>
      </trkpt>
      <trkpt lat="40.73152679018676280975341796875" lon="-1.502814553678035736083984375">
        <ele>1134.5999755859375</ele>
        <time>2021-09-25T06:52:39.000Z</time>
      </trkpt>
      <trkpt lat="40.73143509216606616973876953125" lon="-1.502895690500736236572265625">
        <ele>1134.199951171875</ele>
        <time>2021-09-25T06:52:41.000Z</time>
      </trkpt>
      <trkpt lat="40.73135127313435077667236328125" lon="-1.50296634994447231292724609375">
        <ele>1134</ele>
        <time>2021-09-25T06:52:43.000Z</time>
      </trkpt>
      <trkpt lat="40.7313134707510471343994140625" lon="-1.50300465524196624755859375">
        <ele>1133.800048828125</ele>
        <time>2021-09-25T06:52:44.000Z</time>
      </trkpt>
      <trkpt lat="40.73127306997776031494140625" lon="-1.503042541444301605224609375">
        <ele>1133.5999755859375</ele>
        <time>2021-09-25T06:52:45.000Z</time>
      </trkpt>
      <trkpt lat="40.73118464089930057525634765625" lon="-1.50312493555247783660888671875">
        <ele>1133.800048828125</ele>
        <time>2021-09-25T06:52:47.000Z</time>
      </trkpt>
      <trkpt lat="40.731097720563411712646484375" lon="-1.50321043096482753753662109375">
        <ele>1134.4000244140625</ele>
        <time>2021-09-25T06:52:49.000Z</time>
      </trkpt>
      <trkpt lat="40.7310123927891254425048828125" lon="-1.50330112315714359283447265625">
        <ele>1135</ele>
        <time>2021-09-25T06:52:51.000Z</time>
      </trkpt>
      <trkpt lat="40.73093553073704242706298828125" lon="-1.50339265353977680206298828125">
        <ele>1135.800048828125</ele>
        <time>2021-09-25T06:52:53.000Z</time>
      </trkpt>
      <trkpt lat="40.7308504544198513031005859375" lon="-1.5034825913608074188232421875">
        <ele>1136.5999755859375</ele>
        <time>2021-09-25T06:52:55.000Z</time>
      </trkpt>
      <trkpt lat="40.7307696528732776641845703125" lon="-1.5035757981240749359130859375">
        <ele>1137.5999755859375</ele>
        <time>2021-09-25T06:52:57.000Z</time>
      </trkpt>
      <trkpt lat="40.7306891866028308868408203125" lon="-1.5036745369434356689453125">
        <ele>1138.4000244140625</ele>
        <time>2021-09-25T06:52:59.000Z</time>
      </trkpt>
      <trkpt lat="40.73061936534941196441650390625" lon="-1.5037833340466022491455078125">
        <ele>1139.199951171875</ele>
        <time>2021-09-25T06:53:01.000Z</time>
      </trkpt>
      <trkpt lat="40.73058550246059894561767578125" lon="-1.5038403309881687164306640625">
        <ele>1139.199951171875</ele>
        <time>2021-09-25T06:53:02.000Z</time>
      </trkpt>
      <trkpt lat="40.730553232133388519287109375" lon="-1.50389674119651317596435546875">
        <ele>1139.4000244140625</ele>
        <time>2021-09-25T06:53:03.000Z</time>
      </trkpt>
      <trkpt lat="40.7304910384118556976318359375" lon="-1.5040123276412487030029296875">
        <ele>1139</ele>
        <time>2021-09-25T06:53:05.000Z</time>
      </trkpt>
      <trkpt lat="40.73043747805058956146240234375" lon="-1.5041249804198741912841796875">
        <ele>1138.800048828125</ele>
        <time>2021-09-25T06:53:07.000Z</time>
      </trkpt>
      <trkpt lat="40.73038366623222827911376953125" lon="-1.5042352862656116485595703125">
        <ele>1138.5999755859375</ele>
        <time>2021-09-25T06:53:09.000Z</time>
      </trkpt>
      <trkpt lat="40.73033337481319904327392578125" lon="-1.504344083368778228759765625">
        <ele>1138.5999755859375</ele>
        <time>2021-09-25T06:53:11.000Z</time>
      </trkpt>
      <trkpt lat="40.73028945364058017730712890625" lon="-1.504460759460926055908203125">
        <ele>1138.4000244140625</ele>
        <time>2021-09-25T06:53:13.000Z</time>
      </trkpt>
      <trkpt lat="40.73024469427764415740966796875" lon="-1.50457081384956836700439453125">
        <ele>1138.5999755859375</ele>
        <time>2021-09-25T06:53:15.000Z</time>
      </trkpt>
      <trkpt lat="40.73021099902689456939697265625" lon="-1.5046828798949718475341796875">
        <ele>1138.800048828125</ele>
        <time>2021-09-25T06:53:17.000Z</time>
      </trkpt>
      <trkpt lat="40.73017981834709644317626953125" lon="-1.504787988960742950439453125">
        <ele>1138.5999755859375</ele>
        <time>2021-09-25T06:53:19.000Z</time>
      </trkpt>
      <trkpt lat="40.730154253542423248291015625" lon="-1.504896618425846099853515625">
        <ele>1138.4000244140625</ele>
        <time>2021-09-25T06:53:21.000Z</time>
      </trkpt>
      <trkpt lat="40.730128102004528045654296875" lon="-1.505007930099964141845703125">
        <ele>1138.5999755859375</ele>
        <time>2021-09-25T06:53:23.000Z</time>
      </trkpt>
      <trkpt lat="40.73010538704693317413330078125" lon="-1.50511094368994235992431640625">
        <ele>1139.199951171875</ele>
        <time>2021-09-25T06:53:25.000Z</time>
      </trkpt>
      <trkpt lat="40.73009583167731761932373046875" lon="-1.50516592897474765777587890625">
        <ele>1139.5999755859375</ele>
        <time>2021-09-25T06:53:26.000Z</time>
      </trkpt>
      <trkpt lat="40.73008527047932147979736328125" lon="-1.505224518477916717529296875">
        <ele>1140</ele>
        <time>2021-09-25T06:53:27.000Z</time>
      </trkpt>
      <trkpt lat="40.73006247170269489288330078125" lon="-1.50533951818943023681640625">
        <ele>1140.4000244140625</ele>
        <time>2021-09-25T06:53:29.000Z</time>
      </trkpt>
      <trkpt lat="40.73003799654543399810791015625" lon="-1.505449153482913970947265625">
        <ele>1140.800048828125</ele>
        <time>2021-09-25T06:53:31.000Z</time>
      </trkpt>
      <trkpt lat="40.730022490024566650390625" lon="-1.5055656619369983673095703125">
        <ele>1141.4000244140625</ele>
        <time>2021-09-25T06:53:33.000Z</time>
      </trkpt>
      <trkpt lat="40.73000111617147922515869140625" lon="-1.50567479431629180908203125">
        <ele>1142.199951171875</ele>
        <time>2021-09-25T06:53:35.000Z</time>
      </trkpt>
      <trkpt lat="40.72997211478650569915771484375" lon="-1.5057772211730480194091796875">
        <ele>1142.800048828125</ele>
        <time>2021-09-25T06:53:37.000Z</time>
      </trkpt>
      <trkpt lat="40.72993741370737552642822265625" lon="-1.505886353552341461181640625">
        <ele>1143</ele>
        <time>2021-09-25T06:53:39.000Z</time>
      </trkpt>
      <trkpt lat="40.7299056462943553924560546875" lon="-1.50598634965717792510986328125">
        <ele>1143.199951171875</ele>
        <time>2021-09-25T06:53:41.000Z</time>
      </trkpt>
      <trkpt lat="40.7298748008906841278076171875" lon="-1.50608919560909271240234375">
        <ele>1143.5999755859375</ele>
        <time>2021-09-25T06:53:43.000Z</time>
      </trkpt>
      <trkpt lat="40.729856193065643310546875" lon="-1.50613873265683650970458984375">
        <ele>1143.800048828125</ele>
        <time>2021-09-25T06:53:44.000Z</time>
      </trkpt>
      <trkpt lat="40.72983783669769763946533203125" lon="-1.506190113723278045654296875">
        <ele>1144</ele>
        <time>2021-09-25T06:53:45.000Z</time>
      </trkpt>
      <trkpt lat="40.7298023812472820281982421875" lon="-1.5062925405800342559814453125">
        <ele>1144.199951171875</ele>
        <time>2021-09-25T06:53:47.000Z</time>
      </trkpt>
      <trkpt lat="40.7297701947391033172607421875" lon="-1.5063901059329509735107421875">
        <ele>1144.5999755859375</ele>
        <time>2021-09-25T06:53:49.000Z</time>
      </trkpt>
      <trkpt lat="40.72973549365997314453125" lon="-1.50648440234363079071044921875">
        <ele>1145</ele>
        <time>2021-09-25T06:53:51.000Z</time>
      </trkpt>
      <trkpt lat="40.729702971875667572021484375" lon="-1.50657978840172290802001953125">
        <ele>1145.199951171875</ele>
        <time>2021-09-25T06:53:53.000Z</time>
      </trkpt>
      <trkpt lat="40.72968528605997562408447265625" lon="-1.5066318400204181671142578125">
        <ele>1145.4000244140625</ele>
        <time>2021-09-25T06:53:54.000Z</time>
      </trkpt>
      <trkpt lat="40.7296652533113956451416015625" lon="-1.50668087415397167205810546875">
        <ele>1145.5999755859375</ele>
        <time>2021-09-25T06:53:55.000Z</time>
      </trkpt>
      <trkpt lat="40.72962510399520397186279296875" lon="-1.5067783556878566741943359375">
        <ele>1145.800048828125</ele>
        <time>2021-09-25T06:53:57.000Z</time>
      </trkpt>
      <trkpt lat="40.72958319447934627532958984375" lon="-1.5068735741078853607177734375">
        <ele>1145.800048828125</ele>
        <time>2021-09-25T06:53:59.000Z</time>
      </trkpt>
      <trkpt lat="40.72952938266098499298095703125" lon="-1.50695412419736385345458984375">
        <ele>1145.4000244140625</ele>
        <time>2021-09-25T06:54:01.000Z</time>
      </trkpt>
      <trkpt lat="40.72948462329804897308349609375" lon="-1.5070294775068759918212890625">
        <ele>1145.5999755859375</ele>
        <time>2021-09-25T06:54:03.000Z</time>
      </trkpt>
      <trkpt lat="40.72943818755447864532470703125" lon="-1.5071079321205615997314453125">
        <ele>1145.800048828125</ele>
        <time>2021-09-25T06:54:05.000Z</time>
      </trkpt>
      <trkpt lat="40.7293909974396228790283203125" lon="-1.50718278251588344573974609375">
        <ele>1145.800048828125</ele>
        <time>2021-09-25T06:54:07.000Z</time>
      </trkpt>
      <trkpt lat="40.72933576069772243499755859375" lon="-1.50726073421537876129150390625">
        <ele>1146</ele>
        <time>2021-09-25T06:54:09.000Z</time>
      </trkpt>
      <trkpt lat="40.72927222587168216705322265625" lon="-1.5073312260210514068603515625">
        <ele>1146.199951171875</ele>
        <time>2021-09-25T06:54:11.000Z</time>
      </trkpt>
      <trkpt lat="40.729204080998897552490234375" lon="-1.5074012987315654754638671875">
        <ele>1146.4000244140625</ele>
        <time>2021-09-25T06:54:13.000Z</time>
      </trkpt>
      <trkpt lat="40.729167871177196502685546875" lon="-1.5074365027248859405517578125">
        <ele>1146.5999755859375</ele>
        <time>2021-09-25T06:54:14.000Z</time>
      </trkpt>
      <trkpt lat="40.72912772186100482940673828125" lon="-1.507467515766620635986328125">
        <ele>1146.800048828125</ele>
        <time>2021-09-25T06:54:15.000Z</time>
      </trkpt>
      <trkpt lat="40.72904423810541629791259765625" lon="-1.507516466081142425537109375">
        <ele>1146.800048828125</ele>
        <time>2021-09-25T06:54:17.000Z</time>
      </trkpt>
      <trkpt lat="40.728955976665019989013671875" lon="-1.50756130926311016082763671875">
        <ele>1146.800048828125</ele>
        <time>2021-09-25T06:54:19.000Z</time>
      </trkpt>
      <trkpt lat="40.7288693077862262725830078125" lon="-1.507602296769618988037109375">
        <ele>1147.199951171875</ele>
        <time>2021-09-25T06:54:21.000Z</time>
      </trkpt>
      <trkpt lat="40.72882479988038539886474609375" lon="-1.507624424993991851806640625">
        <ele>1147.4000244140625</ele>
        <time>2021-09-25T06:54:22.000Z</time>
      </trkpt>
      <trkpt lat="40.72877987287938594818115234375" lon="-1.507643200457096099853515625">
        <ele>1147.5999755859375</ele>
        <time>2021-09-25T06:54:23.000Z</time>
      </trkpt>
      <trkpt lat="40.7286919467151165008544921875" lon="-1.50769055821001529693603515625">
        <ele>1148</ele>
        <time>2021-09-25T06:54:25.000Z</time>
      </trkpt>
      <trkpt lat="40.72860821150243282318115234375" lon="-1.50773766450583934783935546875">
        <ele>1148.4000244140625</ele>
        <time>2021-09-25T06:54:27.000Z</time>
      </trkpt>
      <trkpt lat="40.72852321900427341461181640625" lon="-1.50777773000299930572509765625">
        <ele>1148.4000244140625</ele>
        <time>2021-09-25T06:54:29.000Z</time>
      </trkpt>
      <trkpt lat="40.72844174690544605255126953125" lon="-1.50782047770917415618896484375">
        <ele>1148.800048828125</ele>
        <time>2021-09-25T06:54:31.000Z</time>
      </trkpt>
      <trkpt lat="40.72835708968341350555419921875" lon="-1.5078656561672687530517578125">
        <ele>1149</ele>
        <time>2021-09-25T06:54:33.000Z</time>
      </trkpt>
      <trkpt lat="40.72827561758458614349365234375" lon="-1.50790815241634845733642578125">
        <ele>1149</ele>
        <time>2021-09-25T06:54:35.000Z</time>
      </trkpt>
      <trkpt lat="40.7281945645809173583984375" lon="-1.50795173831284046173095703125">
        <ele>1149.4000244140625</ele>
        <time>2021-09-25T06:54:37.000Z</time>
      </trkpt>
      <trkpt lat="40.72815290652215480804443359375" lon="-1.50797269307076930999755859375">
        <ele>1149.5999755859375</ele>
        <time>2021-09-25T06:54:38.000Z</time>
      </trkpt>
      <trkpt lat="40.7281132601201534271240234375" lon="-1.5079950727522373199462890625">
        <ele>1149.800048828125</ele>
        <time>2021-09-25T06:54:39.000Z</time>
      </trkpt>
      <trkpt lat="40.7280354760587215423583984375" lon="-1.508031785488128662109375">
        <ele>1149.4000244140625</ele>
        <time>2021-09-25T06:54:41.000Z</time>
      </trkpt>
      <trkpt lat="40.72795760817825794219970703125" lon="-1.50807277299463748931884765625">
        <ele>1148.800048828125</ele>
        <time>2021-09-25T06:54:43.000Z</time>
      </trkpt>
      <trkpt lat="40.7278805784881114959716796875" lon="-1.50811426341533660888671875">
        <ele>1148.4000244140625</ele>
        <time>2021-09-25T06:54:45.000Z</time>
      </trkpt>
      <trkpt lat="40.727842189371585845947265625" lon="-1.50813664309680461883544921875">
        <ele>1148.199951171875</ele>
        <time>2021-09-25T06:54:46.000Z</time>
      </trkpt>
      <trkpt lat="40.727805308997631072998046875" lon="-1.5081593580543994903564453125">
        <ele>1148.199951171875</ele>
        <time>2021-09-25T06:54:47.000Z</time>
      </trkpt>
      <trkpt lat="40.72773163206875324249267578125" lon="-1.50820554234087467193603515625">
        <ele>1147.800048828125</ele>
        <time>2021-09-25T06:54:49.000Z</time>
      </trkpt>
      <trkpt lat="40.7276639901101589202880859375" lon="-1.5082559175789356231689453125">
        <ele>1147.4000244140625</ele>
        <time>2021-09-25T06:54:51.000Z</time>
      </trkpt>
      <trkpt lat="40.72760456241667270660400390625" lon="-1.50832339189946651458740234375">
        <ele>1147.199951171875</ele>
        <time>2021-09-25T06:54:53.000Z</time>
      </trkpt>
      <trkpt lat="40.72757455520331859588623046875" lon="-1.50836060754954814910888671875">
        <ele>1147</ele>
        <time>2021-09-25T06:54:54.000Z</time>
      </trkpt>
      <trkpt lat="40.72754773311316967010498046875" lon="-1.50839983485639095306396484375">
        <ele>1147</ele>
        <time>2021-09-25T06:54:55.000Z</time>
      </trkpt>
      <trkpt lat="40.7274983637034893035888671875" lon="-1.5084837377071380615234375">
        <ele>1147</ele>
        <time>2021-09-25T06:54:57.000Z</time>
      </trkpt>
      <trkpt lat="40.72746165096759796142578125" lon="-1.5085720829665660858154296875">
        <ele>1147</ele>
        <time>2021-09-25T06:54:59.000Z</time>
      </trkpt>
      <trkpt lat="40.72744865901768207550048828125" lon="-1.50861960835754871368408203125">
        <ele>1147</ele>
        <time>2021-09-25T06:55:00.000Z</time>
      </trkpt>
      <trkpt lat="40.72744161821901798248291015625" lon="-1.50866872631013393402099609375">
        <ele>1146.800048828125</ele>
        <time>2021-09-25T06:55:01.000Z</time>
      </trkpt>
      <trkpt lat="40.72743457742035388946533203125" lon="-1.50877282954752445220947265625">
        <ele>1146.800048828125</ele>
        <time>2021-09-25T06:55:03.000Z</time>
      </trkpt>
      <trkpt lat="40.72743751108646392822265625" lon="-1.50888632051646709442138671875">
        <ele>1147.5999755859375</ele>
        <time>2021-09-25T06:55:05.000Z</time>
      </trkpt>
      <trkpt lat="40.7274381816387176513671875" lon="-1.50894097052514553070068359375">
        <ele>1148</ele>
        <time>2021-09-25T06:55:06.000Z</time>
      </trkpt>
      <trkpt lat="40.72743809781968593597412109375" lon="-1.50899126194417476654052734375">
        <ele>1148.4000244140625</ele>
        <time>2021-09-25T06:55:07.000Z</time>
      </trkpt>
      <trkpt lat="40.72743977420032024383544921875" lon="-1.50910676456987857818603515625">
        <ele>1149.800048828125</ele>
        <time>2021-09-25T06:55:09.000Z</time>
      </trkpt>
      <trkpt lat="40.72744329459965229034423828125" lon="-1.50920751504600048065185546875">
        <ele>1151.4000244140625</ele>
        <time>2021-09-25T06:55:11.000Z</time>
      </trkpt>
      <trkpt lat="40.7274406962096691131591796875" lon="-1.5093073435127735137939453125">
        <ele>1152.800048828125</ele>
        <time>2021-09-25T06:55:13.000Z</time>
      </trkpt>
      <trkpt lat="40.7274420373141765594482421875" lon="-1.50935805402696132659912109375">
        <ele>1154</ele>
        <time>2021-09-25T06:55:14.000Z</time>
      </trkpt>
      <trkpt lat="40.72744178585708141326904296875" lon="-1.50940767489373683929443359375">
        <ele>1155</ele>
        <time>2021-09-25T06:55:15.000Z</time>
      </trkpt>
      <trkpt lat="40.72743482887744903564453125" lon="-1.50949602015316486358642578125">
        <ele>1156.199951171875</ele>
        <time>2021-09-25T06:55:17.000Z</time>
      </trkpt>
      <trkpt lat="40.727434493601322174072265625" lon="-1.5096010453999042510986328125">
        <ele>1157.199951171875</ele>
        <time>2021-09-25T06:55:19.000Z</time>
      </trkpt>
      <trkpt lat="40.72742946445941925048828125" lon="-1.50970347225666046142578125">
        <ele>1157.5999755859375</ele>
        <time>2021-09-25T06:55:21.000Z</time>
      </trkpt>
      <trkpt lat="40.7274229265749454498291015625" lon="-1.50980296544730663299560546875">
        <ele>1157.4000244140625</ele>
        <time>2021-09-25T06:55:23.000Z</time>
      </trkpt>
      <trkpt lat="40.72741362266242504119873046875" lon="-1.50990086607635021209716796875">
        <ele>1157.199951171875</ele>
        <time>2021-09-25T06:55:25.000Z</time>
      </trkpt>
      <trkpt lat="40.72740389965474605560302734375" lon="-1.5099956654012203216552734375">
        <ele>1156.800048828125</ele>
        <time>2021-09-25T06:55:27.000Z</time>
      </trkpt>
      <trkpt lat="40.72739115916192531585693359375" lon="-1.510040424764156341552734375">
        <ele>1156.199951171875</ele>
        <time>2021-09-25T06:55:28.000Z</time>
      </trkpt>
      <trkpt lat="40.72737582027912139892578125" lon="-1.51008543558418750762939453125">
        <ele>1155.800048828125</ele>
        <time>2021-09-25T06:55:29.000Z</time>
      </trkpt>
      <trkpt lat="40.72733952663838863372802734375" lon="-1.5101760439574718475341796875">
        <ele>1154.5999755859375</ele>
        <time>2021-09-25T06:55:31.000Z</time>
      </trkpt>
      <trkpt lat="40.72731739841401576995849609375" lon="-1.5102290175855159759521484375">
        <ele>1153.800048828125</ele>
        <time>2021-09-25T06:55:32.000Z</time>
      </trkpt>
      <trkpt lat="40.72729225270450115203857421875" lon="-1.510280482470989227294921875">
        <ele>1153.199951171875</ele>
        <time>2021-09-25T06:55:33.000Z</time>
      </trkpt>
      <trkpt lat="40.72726559825241565704345703125" lon="-1.51032574474811553955078125">
        <ele>1153.199951171875</ele>
        <time>2021-09-25T06:55:34.000Z</time>
      </trkpt>
      <trkpt lat="40.72724246419966220855712890625" lon="-1.510370671749114990234375">
        <ele>1153.4000244140625</ele>
        <time>2021-09-25T06:55:35.000Z</time>
      </trkpt>
      <trkpt lat="40.727195106446743011474609375" lon="-1.5104516409337520599365234375">
        <ele>1153.5999755859375</ele>
        <time>2021-09-25T06:55:37.000Z</time>
      </trkpt>
      <trkpt lat="40.72715110145509243011474609375" lon="-1.5105210430920124053955078125">
        <ele>1154</ele>
        <time>2021-09-25T06:55:39.000Z</time>
      </trkpt>
      <trkpt lat="40.72711237706243991851806640625" lon="-1.510581560432910919189453125">
        <ele>1154.199951171875</ele>
        <time>2021-09-25T06:55:41.000Z</time>
      </trkpt>
      <trkpt lat="40.7270923443138599395751953125" lon="-1.510611064732074737548828125">
        <ele>1154.199951171875</ele>
        <time>2021-09-25T06:55:42.000Z</time>
      </trkpt>
      <trkpt lat="40.727075077593326568603515625" lon="-1.51063956320285797119140625">
        <ele>1154.199951171875</ele>
        <time>2021-09-25T06:55:43.000Z</time>
      </trkpt>
      <trkpt lat="40.7270286418497562408447265625" lon="-1.5106970630586147308349609375">
        <ele>1154.4000244140625</ele>
        <time>2021-09-25T06:55:45.000Z</time>
      </trkpt>
      <trkpt lat="40.72697977535426616668701171875" lon="-1.51075623929500579833984375">
        <ele>1154.5999755859375</ele>
        <time>2021-09-25T06:55:47.000Z</time>
      </trkpt>
      <trkpt lat="40.726957730948925018310546875" lon="-1.51078549213707447052001953125">
        <ele>1154.800048828125</ele>
        <time>2021-09-25T06:55:48.000Z</time>
      </trkpt>
      <trkpt lat="40.72693333961069583892822265625" lon="-1.5108167566359043121337890625">
        <ele>1154.800048828125</ele>
        <time>2021-09-25T06:55:49.000Z</time>
      </trkpt>
      <trkpt lat="40.7268844731152057647705078125" lon="-1.51086914353072643280029296875">
        <ele>1155.4000244140625</ele>
        <time>2021-09-25T06:55:51.000Z</time>
      </trkpt>
      <trkpt lat="40.7268284820020198822021484375" lon="-1.51089965365827083587646484375">
        <ele>1156</ele>
        <time>2021-09-25T06:55:53.000Z</time>
      </trkpt>
      <trkpt lat="40.72679436765611171722412109375" lon="-1.51090065948665142059326171875">
        <ele>1156.4000244140625</ele>
        <time>2021-09-25T06:55:54.000Z</time>
      </trkpt>
      <trkpt lat="40.7267584092915058135986328125" lon="-1.51089395396411418914794921875">
        <ele>1156.5999755859375</ele>
        <time>2021-09-25T06:55:55.000Z</time>
      </trkpt>
      <trkpt lat="40.72667886503040790557861328125" lon="-1.510874927043914794921875">
        <ele>1157.4000244140625</ele>
        <time>2021-09-25T06:55:57.000Z</time>
      </trkpt>
      <trkpt lat="40.7265994884073734283447265625" lon="-1.51085774414241313934326171875">
        <ele>1158</ele>
        <time>2021-09-25T06:55:59.000Z</time>
      </trkpt>
      <trkpt lat="40.72652195580303668975830078125" lon="-1.51084232144057750701904296875">
        <ele>1158.4000244140625</ele>
        <time>2021-09-25T06:56:01.000Z</time>
      </trkpt>
      <trkpt lat="40.72643972933292388916015625" lon="-1.51082874275743961334228515625">
        <ele>1159.199951171875</ele>
        <time>2021-09-25T06:56:03.000Z</time>
      </trkpt>
      <trkpt lat="40.72635783813893795013427734375" lon="-1.51081516407430171966552734375">
        <ele>1159.5999755859375</ele>
        <time>2021-09-25T06:56:05.000Z</time>
      </trkpt>
      <trkpt lat="40.72627821005880832672119140625" lon="-1.510813571512699127197265625">
        <ele>1160</ele>
        <time>2021-09-25T06:56:07.000Z</time>
      </trkpt>
      <trkpt lat="40.726238898932933807373046875" lon="-1.51081851683557033538818359375">
        <ele>1160</ele>
        <time>2021-09-25T06:56:08.000Z</time>
      </trkpt>
      <trkpt lat="40.72619740851223468780517578125" lon="-1.51082463562488555908203125">
        <ele>1160</ele>
        <time>2021-09-25T06:56:09.000Z</time>
      </trkpt>
      <trkpt lat="40.7261185348033905029296875" lon="-1.51085020042955875396728515625">
        <ele>1160</ele>
        <time>2021-09-25T06:56:11.000Z</time>
      </trkpt>
      <trkpt lat="40.72604217566549777984619140625" lon="-1.51088875718414783477783203125">
        <ele>1159.800048828125</ele>
        <time>2021-09-25T06:56:13.000Z</time>
      </trkpt>
      <trkpt lat="40.72600529529154300689697265625" lon="-1.51090887375175952911376953125">
        <ele>1159.800048828125</ele>
        <time>2021-09-25T06:56:14.000Z</time>
      </trkpt>
      <trkpt lat="40.72596824727952480316162109375" lon="-1.51092882268130779266357421875">
        <ele>1159.5999755859375</ele>
        <time>2021-09-25T06:56:15.000Z</time>
      </trkpt>
      <trkpt lat="40.72589515708386898040771484375" lon="-1.51096838526427745819091796875">
        <ele>1159.5999755859375</ele>
        <time>2021-09-25T06:56:17.000Z</time>
      </trkpt>
      <trkpt lat="40.7258234918117523193359375" lon="-1.51099671609699726104736328125">
        <ele>1159.4000244140625</ele>
        <time>2021-09-25T06:56:19.000Z</time>
      </trkpt>
      <trkpt lat="40.7257512398064136505126953125" lon="-1.5110068581998348236083984375">
        <ele>1159.4000244140625</ele>
        <time>2021-09-25T06:56:21.000Z</time>
      </trkpt>
      <trkpt lat="40.725672952830791473388671875" lon="-1.51100342161953449249267578125">
        <ele>1159.800048828125</ele>
        <time>2021-09-25T06:56:23.000Z</time>
      </trkpt>
      <trkpt lat="40.72559642605483531951904296875" lon="-1.5109862387180328369140625">
        <ele>1160.5999755859375</ele>
        <time>2021-09-25T06:56:25.000Z</time>
      </trkpt>
      <trkpt lat="40.72551579214632511138916015625" lon="-1.51095983572304248809814453125">
        <ele>1161.4000244140625</ele>
        <time>2021-09-25T06:56:27.000Z</time>
      </trkpt>
      <trkpt lat="40.7254387624561786651611328125" lon="-1.5109325945377349853515625">
        <ele>1163.199951171875</ele>
        <time>2021-09-25T06:56:29.000Z</time>
      </trkpt>
      <trkpt lat="40.72536441497504711151123046875" lon="-1.51091448962688446044921875">
        <ele>1164.800048828125</ele>
        <time>2021-09-25T06:56:31.000Z</time>
      </trkpt>
      <trkpt lat="40.72528503835201263427734375" lon="-1.51090485043823719024658203125">
        <ele>1166.5999755859375</ele>
        <time>2021-09-25T06:56:33.000Z</time>
      </trkpt>
      <trkpt lat="40.725246481597423553466796875" lon="-1.51090837083756923675537109375">
        <ele>1167</ele>
        <time>2021-09-25T06:56:34.000Z</time>
      </trkpt>
      <trkpt lat="40.725209601223468780517578125" lon="-1.5109186805784702301025390625">
        <ele>1167.4000244140625</ele>
        <time>2021-09-25T06:56:35.000Z</time>
      </trkpt>
      <trkpt lat="40.7251400314271450042724609375" lon="-1.51094810105860233306884765625">
        <ele>1167.800048828125</ele>
        <time>2021-09-25T06:56:37.000Z</time>
      </trkpt>
      <trkpt lat="40.725073479115962982177734375" lon="-1.5109884180128574371337890625">
        <ele>1168.199951171875</ele>
        <time>2021-09-25T06:56:39.000Z</time>
      </trkpt>
      <trkpt lat="40.72504405863583087921142578125" lon="-1.51101373136043548583984375">
        <ele>1168.4000244140625</ele>
        <time>2021-09-25T06:56:40.000Z</time>
      </trkpt>
      <trkpt lat="40.7250156439840793609619140625" lon="-1.51104734279215335845947265625">
        <ele>1168.5999755859375</ele>
        <time>2021-09-25T06:56:41.000Z</time>
      </trkpt>
      <trkpt lat="40.72496593929827213287353515625" lon="-1.51111833751201629638671875">
        <ele>1168.800048828125</ele>
        <time>2021-09-25T06:56:43.000Z</time>
      </trkpt>
      <trkpt lat="40.7249278016388416290283203125" lon="-1.51120944879949092864990234375">
        <ele>1168.800048828125</ele>
        <time>2021-09-25T06:56:45.000Z</time>
      </trkpt>
      <trkpt lat="40.72491397149860858917236328125" lon="-1.5112546272575855255126953125">
        <ele>1168.800048828125</ele>
        <time>2021-09-25T06:56:46.000Z</time>
      </trkpt>
      <trkpt lat="40.7249033264815807342529296875" lon="-1.511304415762424468994140625">
        <ele>1168.5999755859375</ele>
        <time>2021-09-25T06:56:47.000Z</time>
      </trkpt>
      <trkpt lat="40.724897794425487518310546875" lon="-1.511356718838214874267578125">
        <ele>1168.199951171875</ele>
        <time>2021-09-25T06:56:48.000Z</time>
      </trkpt>
      <trkpt lat="40.72489603422582149505615234375" lon="-1.51141329668462276458740234375">
        <ele>1167.800048828125</ele>
        <time>2021-09-25T06:56:49.000Z</time>
      </trkpt>
      <trkpt lat="40.7248979620635509490966796875" lon="-1.5114685334265232086181640625">
        <ele>1167.800048828125</ele>
        <time>2021-09-25T06:56:50.000Z</time>
      </trkpt>
      <trkpt lat="40.72490022517740726470947265625" lon="-1.51152209378778934478759765625">
        <ele>1167.5999755859375</ele>
        <time>2021-09-25T06:56:51.000Z</time>
      </trkpt>
      <trkpt lat="40.72490709833800792694091796875" lon="-1.51157121174037456512451171875">
        <ele>1167.4000244140625</ele>
        <time>2021-09-25T06:56:52.000Z</time>
      </trkpt>
      <trkpt lat="40.72491698898375034332275390625" lon="-1.511621586978435516357421875">
        <ele>1166.800048828125</ele>
        <time>2021-09-25T06:56:53.000Z</time>
      </trkpt>
      <trkpt lat="40.724934674799442291259765625" lon="-1.51172258891165256500244140625">
        <ele>1166.199951171875</ele>
        <time>2021-09-25T06:56:55.000Z</time>
      </trkpt>
      <trkpt lat="40.72495202533900737762451171875" lon="-1.51181713677942752838134765625">
        <ele>1165.5999755859375</ele>
        <time>2021-09-25T06:56:57.000Z</time>
      </trkpt>
      <trkpt lat="40.72496493346989154815673828125" lon="-1.5119080804288387298583984375">
        <ele>1165.199951171875</ele>
        <time>2021-09-25T06:56:59.000Z</time>
      </trkpt>
      <trkpt lat="40.7249717228114604949951171875" lon="-1.51200271211564540863037109375">
        <ele>1164.5999755859375</ele>
        <time>2021-09-25T06:57:01.000Z</time>
      </trkpt>
      <trkpt lat="40.7249640114605426788330078125" lon="-1.51209608651697635650634765625">
        <ele>1164.4000244140625</ele>
        <time>2021-09-25T06:57:03.000Z</time>
      </trkpt>
      <trkpt lat="40.72495738975703716278076171875" lon="-1.512140929698944091796875">
        <ele>1164.4000244140625</ele>
        <time>2021-09-25T06:57:04.000Z</time>
      </trkpt>
      <trkpt lat="40.72494766674935817718505859375" lon="-1.51218208484351634979248046875">
        <ele>1164.4000244140625</ele>
        <time>2021-09-25T06:57:05.000Z</time>
      </trkpt>
      <trkpt lat="40.72492604143917560577392578125" lon="-1.51226221583783626556396484375">
        <ele>1164.4000244140625</ele>
        <time>2021-09-25T06:57:07.000Z</time>
      </trkpt>
      <trkpt lat="40.72489972226321697235107421875" lon="-1.51232893578708171844482421875">
        <ele>1164.199951171875</ele>
        <time>2021-09-25T06:57:09.000Z</time>
      </trkpt>
      <trkpt lat="40.72487524710595607757568359375" lon="-1.512390039861202239990234375">
        <ele>1164</ele>
        <time>2021-09-25T06:57:11.000Z</time>
      </trkpt>
      <trkpt lat="40.724847503006458282470703125" lon="-1.51244645006954669952392578125">
        <ele>1164</ele>
        <time>2021-09-25T06:57:13.000Z</time>
      </trkpt>
      <trkpt lat="40.7248228602111339569091796875" lon="-1.5125043690204620361328125">
        <ele>1164.4000244140625</ele>
        <time>2021-09-25T06:57:15.000Z</time>
      </trkpt>
      <trkpt lat="40.724793858826160430908203125" lon="-1.5125553309917449951171875">
        <ele>1164.199951171875</ele>
        <time>2021-09-25T06:57:17.000Z</time>
      </trkpt>
      <trkpt lat="40.72476192377507686614990234375" lon="-1.51260302402079105377197265625">
        <ele>1164.4000244140625</ele>
        <time>2021-09-25T06:57:19.000Z</time>
      </trkpt>
      <trkpt lat="40.72472454048693180084228515625" lon="-1.5126470290124416351318359375">
        <ele>1165</ele>
        <time>2021-09-25T06:57:21.000Z</time>
      </trkpt>
      <trkpt lat="40.72468430735170841217041015625" lon="-1.51268382556736469268798828125">
        <ele>1165.5999755859375</ele>
        <time>2021-09-25T06:57:23.000Z</time>
      </trkpt>
      <trkpt lat="40.724645666778087615966796875" lon="-1.5127140842378139495849609375">
        <ele>1166.199951171875</ele>
        <time>2021-09-25T06:57:25.000Z</time>
      </trkpt>
      <trkpt lat="40.72460166178643703460693359375" lon="-1.51274300180375576019287109375">
        <ele>1167</ele>
        <time>2021-09-25T06:57:27.000Z</time>
      </trkpt>
      <trkpt lat="40.724559836089611053466796875" lon="-1.51277585886418819427490234375">
        <ele>1167.800048828125</ele>
        <time>2021-09-25T06:57:29.000Z</time>
      </trkpt>
      <trkpt lat="40.72452102787792682647705078125" lon="-1.51280502788722515106201171875">
        <ele>1168.4000244140625</ele>
        <time>2021-09-25T06:57:31.000Z</time>
      </trkpt>
      <trkpt lat="40.72447844780981540679931640625" lon="-1.51283101178705692291259765625">
        <ele>1169</ele>
        <time>2021-09-25T06:57:33.000Z</time>
      </trkpt>
      <trkpt lat="40.7244329340755939483642578125" lon="-1.51285531930625438690185546875">
        <ele>1169.5999755859375</ele>
        <time>2021-09-25T06:57:35.000Z</time>
      </trkpt>
      <trkpt lat="40.7243886776268482208251953125" lon="-1.5128756873309612274169921875">
        <ele>1170.199951171875</ele>
        <time>2021-09-25T06:57:37.000Z</time>
      </trkpt>
      <trkpt lat="40.7243434153497219085693359375" lon="-1.51289018802344799041748046875">
        <ele>1171</ele>
        <time>2021-09-25T06:57:39.000Z</time>
      </trkpt>
      <trkpt lat="40.7243209518492221832275390625" lon="-1.51289463043212890625">
        <ele>1171.4000244140625</ele>
        <time>2021-09-25T06:57:40.000Z</time>
      </trkpt>
      <trkpt lat="40.7242988236248493194580078125" lon="-1.5129004977643489837646484375">
        <ele>1171.800048828125</ele>
        <time>2021-09-25T06:57:41.000Z</time>
      </trkpt>
      <trkpt lat="40.7242528907954692840576171875" lon="-1.51291382499039173126220703125">
        <ele>1172.5999755859375</ele>
        <time>2021-09-25T06:57:43.000Z</time>
      </trkpt>
      <trkpt lat="40.7242062874138355255126953125" lon="-1.5129196085035800933837890625">
        <ele>1173.199951171875</ele>
        <time>2021-09-25T06:57:45.000Z</time>
      </trkpt>
      <trkpt lat="40.7241573370993137359619140625" lon="-1.51292840950191020965576171875">
        <ele>1173.4000244140625</ele>
        <time>2021-09-25T06:57:47.000Z</time>
      </trkpt>
      <trkpt lat="40.72411157190799713134765625" lon="-1.512933187186717987060546875">
        <ele>1173.5999755859375</ele>
        <time>2021-09-25T06:57:49.000Z</time>
      </trkpt>
      <trkpt lat="40.72406597435474395751953125" lon="-1.51294249109923839569091796875">
        <ele>1173.800048828125</ele>
        <time>2021-09-25T06:57:51.000Z</time>
      </trkpt>
      <trkpt lat="40.72402129881083965301513671875" lon="-1.51294634677469730377197265625">
        <ele>1174.4000244140625</ele>
        <time>2021-09-25T06:57:53.000Z</time>
      </trkpt>
      <trkpt lat="40.72397603653371334075927734375" lon="-1.51294492185115814208984375">
        <ele>1175.199951171875</ele>
        <time>2021-09-25T06:57:55.000Z</time>
      </trkpt>
      <trkpt lat="40.72393194772303104400634765625" lon="-1.5129501186311244964599609375">
        <ele>1175.5999755859375</ele>
        <time>2021-09-25T06:57:57.000Z</time>
      </trkpt>
      <trkpt lat="40.7238881103694438934326171875" lon="-1.51295573450624942779541015625">
        <ele>1176</ele>
        <time>2021-09-25T06:57:59.000Z</time>
      </trkpt>
      <trkpt lat="40.72384536266326904296875" lon="-1.512961350381374359130859375">
        <ele>1176.199951171875</ele>
        <time>2021-09-25T06:58:01.000Z</time>
      </trkpt>
      <trkpt lat="40.72379716672003269195556640625" lon="-1.512964703142642974853515625">
        <ele>1176.800048828125</ele>
        <time>2021-09-25T06:58:03.000Z</time>
      </trkpt>
      <trkpt lat="40.72375441901385784149169921875" lon="-1.5129595063626766204833984375">
        <ele>1177.199951171875</ele>
        <time>2021-09-25T06:58:05.000Z</time>
      </trkpt>
      <trkpt lat="40.72370982728898525238037109375" lon="-1.51295724324882030487060546875">
        <ele>1177.5999755859375</ele>
        <time>2021-09-25T06:58:07.000Z</time>
      </trkpt>
      <trkpt lat="40.7236671634018421173095703125" lon="-1.5129514597356319427490234375">
        <ele>1178</ele>
        <time>2021-09-25T06:58:09.000Z</time>
      </trkpt>
      <trkpt lat="40.72362198494374752044677734375" lon="-1.512943916022777557373046875">
        <ele>1178.199951171875</ele>
        <time>2021-09-25T06:58:11.000Z</time>
      </trkpt>
      <trkpt lat="40.72357387281954288482666015625" lon="-1.51293846778571605682373046875">
        <ele>1178.5999755859375</ele>
        <time>2021-09-25T06:58:13.000Z</time>
      </trkpt>
      <trkpt lat="40.7235286943614482879638671875" lon="-1.51293243281543254852294921875">
        <ele>1178.800048828125</ele>
        <time>2021-09-25T06:58:15.000Z</time>
      </trkpt>
      <trkpt lat="40.7234780676662921905517578125" lon="-1.5129232965409755706787109375">
        <ele>1179</ele>
        <time>2021-09-25T06:58:17.000Z</time>
      </trkpt>
      <trkpt lat="40.72343171574175357818603515625" lon="-1.51291273534297943115234375">
        <ele>1179.199951171875</ele>
        <time>2021-09-25T06:58:19.000Z</time>
      </trkpt>
      <trkpt lat="40.72339181788265705108642578125" lon="-1.5129021741449832916259765625">
        <ele>1179.199951171875</ele>
        <time>2021-09-25T06:58:21.000Z</time>
      </trkpt>
      <trkpt lat="40.72334739379584789276123046875" lon="-1.51289085857570171356201171875">
        <ele>1179.199951171875</ele>
        <time>2021-09-25T06:58:23.000Z</time>
      </trkpt>
      <trkpt lat="40.7232995331287384033203125" lon="-1.51287493295967578887939453125">
        <ele>1179.199951171875</ele>
        <time>2021-09-25T06:58:25.000Z</time>
      </trkpt>
      <trkpt lat="40.72325737215578556060791015625" lon="-1.51285699568688869476318359375">
        <ele>1179.199951171875</ele>
        <time>2021-09-25T06:58:27.000Z</time>
      </trkpt>
      <trkpt lat="40.7232366688549518585205078125" lon="-1.5128512121737003326416015625">
        <ele>1179.199951171875</ele>
        <time>2021-09-25T06:58:28.000Z</time>
      </trkpt>
      <trkpt lat="40.7232128642499446868896484375" lon="-1.5128423273563385009765625">
        <ele>1179</ele>
        <time>2021-09-25T06:58:29.000Z</time>
      </trkpt>
      <trkpt lat="40.72316332720220088958740234375" lon="-1.51283034123480319976806640625">
        <ele>1178.800048828125</ele>
        <time>2021-09-25T06:58:31.000Z</time>
      </trkpt>
      <trkpt lat="40.72312292642891407012939453125" lon="-1.51281609199941158294677734375">
        <ele>1178.5999755859375</ele>
        <time>2021-09-25T06:58:33.000Z</time>
      </trkpt>
      <trkpt lat="40.72307900525629520416259765625" lon="-1.51280670426785945892333984375">
        <ele>1178.800048828125</ele>
        <time>2021-09-25T06:58:35.000Z</time>
      </trkpt>
      <trkpt lat="40.72303491644561290740966796875" lon="-1.512790359556674957275390625">
        <ele>1179</ele>
        <time>2021-09-25T06:58:37.000Z</time>
      </trkpt>
      <trkpt lat="40.722989402711391448974609375" lon="-1.51277787052094936370849609375">
        <ele>1179</ele>
        <time>2021-09-25T06:58:39.000Z</time>
      </trkpt>
      <trkpt lat="40.7229369319975376129150390625" lon="-1.51276965625584125518798828125">
        <ele>1179.199951171875</ele>
        <time>2021-09-25T06:58:41.000Z</time>
      </trkpt>
      <trkpt lat="40.72289041243493556976318359375" lon="-1.51275574229657649993896484375">
        <ele>1179.5999755859375</ele>
        <time>2021-09-25T06:58:43.000Z</time>
      </trkpt>
      <trkpt lat="40.7228435575962066650390625" lon="-1.51273696683347225189208984375">
        <ele>1179.5999755859375</ele>
        <time>2021-09-25T06:58:45.000Z</time>
      </trkpt>
      <trkpt lat="40.7227930985391139984130859375" lon="-1.51273495517671108245849609375">
        <ele>1179.800048828125</ele>
        <time>2021-09-25T06:58:47.000Z</time>
      </trkpt>
      <trkpt lat="40.72274255566298961639404296875" lon="-1.512737385928630828857421875">
        <ele>1180</ele>
        <time>2021-09-25T06:58:49.000Z</time>
      </trkpt>
      <trkpt lat="40.722715817391872406005859375" lon="-1.51273612864315509796142578125">
        <ele>1180</ele>
        <time>2021-09-25T06:58:50.000Z</time>
      </trkpt>
      <trkpt lat="40.7226891629397869110107421875" lon="-1.512738727033138275146484375">
        <ele>1180.199951171875</ele>
        <time>2021-09-25T06:58:51.000Z</time>
      </trkpt>
      <trkpt lat="40.72263635694980621337890625" lon="-1.51274316944181919097900390625">
        <ele>1180.199951171875</ele>
        <time>2021-09-25T06:58:53.000Z</time>
      </trkpt>
      <trkpt lat="40.72258514352142810821533203125" lon="-1.51274367235600948333740234375">
        <ele>1180.4000244140625</ele>
        <time>2021-09-25T06:58:55.000Z</time>
      </trkpt>
      <trkpt lat="40.72253652848303318023681640625" lon="-1.51274518109858036041259765625">
        <ele>1180.4000244140625</ele>
        <time>2021-09-25T06:58:57.000Z</time>
      </trkpt>
      <trkpt lat="40.72249017655849456787109375" lon="-1.51274249888956546783447265625">
        <ele>1180.4000244140625</ele>
        <time>2021-09-25T06:58:59.000Z</time>
      </trkpt>
      <trkpt lat="40.72246511466801166534423828125" lon="-1.51274417527019977569580078125">
        <ele>1180.4000244140625</ele>
        <time>2021-09-25T06:59:00.000Z</time>
      </trkpt>
      <trkpt lat="40.72244265116751194000244140625" lon="-1.51274417527019977569580078125">
        <ele>1180.4000244140625</ele>
        <time>2021-09-25T06:59:01.000Z</time>
      </trkpt>
      <trkpt lat="40.72239353321492671966552734375" lon="-1.5127419121563434600830078125">
        <ele>1180.4000244140625</ele>
        <time>2021-09-25T06:59:03.000Z</time>
      </trkpt>
      <trkpt lat="40.72234575636684894561767578125" lon="-1.51274467818439006805419921875">
        <ele>1180.4000244140625</ele>
        <time>2021-09-25T06:59:05.000Z</time>
      </trkpt>
      <trkpt lat="40.72229546494781970977783203125" lon="-1.5127476118505001068115234375">
        <ele>1180.4000244140625</ele>
        <time>2021-09-25T06:59:07.000Z</time>
      </trkpt>
      <trkpt lat="40.72227266617119312286376953125" lon="-1.51274912059307098388671875">
        <ele>1180.5999755859375</ele>
        <time>2021-09-25T06:59:08.000Z</time>
      </trkpt>
      <trkpt lat="40.72224743664264678955078125" lon="-1.512750796973705291748046875">
        <ele>1180.800048828125</ele>
        <time>2021-09-25T06:59:09.000Z</time>
      </trkpt>
      <trkpt lat="40.722199492156505584716796875" lon="-1.512749455869197845458984375">
        <ele>1181</ele>
        <time>2021-09-25T06:59:11.000Z</time>
      </trkpt>
      <trkpt lat="40.72215129621326923370361328125" lon="-1.5127429179847240447998046875">
        <ele>1181.5999755859375</ele>
        <time>2021-09-25T06:59:13.000Z</time>
      </trkpt>
      <trkpt lat="40.72210184298455715179443359375" lon="-1.51273881085216999053955078125">
        <ele>1182</ele>
        <time>2021-09-25T06:59:15.000Z</time>
      </trkpt>
      <trkpt lat="40.72204769589006900787353515625" lon="-1.51272858493030071258544921875">
        <ele>1182.4000244140625</ele>
        <time>2021-09-25T06:59:17.000Z</time>
      </trkpt>
      <trkpt lat="40.7219927944242954254150390625" lon="-1.51271827518939971923828125">
        <ele>1182.800048828125</ele>
        <time>2021-09-25T06:59:19.000Z</time>
      </trkpt>
      <trkpt lat="40.7219391502439975738525390625" lon="-1.51270846836268901824951171875">
        <ele>1183</ele>
        <time>2021-09-25T06:59:21.000Z</time>
      </trkpt>
      <trkpt lat="40.72188123129308223724365234375" lon="-1.51270159520208835601806640625">
        <ele>1183.4000244140625</ele>
        <time>2021-09-25T06:59:23.000Z</time>
      </trkpt>
      <trkpt lat="40.72182775475084781646728515625" lon="-1.5126894414424896240234375">
        <ele>1183.5999755859375</ele>
        <time>2021-09-25T06:59:25.000Z</time>
      </trkpt>
      <trkpt lat="40.72179774753749370574951171875" lon="-1.51268365792930126190185546875">
        <ele>1183.4000244140625</ele>
        <time>2021-09-25T06:59:26.000Z</time>
      </trkpt>
      <trkpt lat="40.7217664830386638641357421875" lon="-1.5126788802444934844970703125">
        <ele>1183</ele>
        <time>2021-09-25T06:59:27.000Z</time>
      </trkpt>
      <trkpt lat="40.72170353494584560394287109375" lon="-1.51266035623848438262939453125">
        <ele>1182.4000244140625</ele>
        <time>2021-09-25T06:59:29.000Z</time>
      </trkpt>
      <trkpt lat="40.72163329459726810455322265625" lon="-1.51264585554599761962890625">
        <ele>1182.199951171875</ele>
        <time>2021-09-25T06:59:31.000Z</time>
      </trkpt>
      <trkpt lat="40.72155517525970935821533203125" lon="-1.512629427015781402587890625">
        <ele>1181.5999755859375</ele>
        <time>2021-09-25T06:59:33.000Z</time>
      </trkpt>
      <trkpt lat="40.72147085331380367279052734375" lon="-1.5126118250191211700439453125">
        <ele>1181</ele>
        <time>2021-09-25T06:59:35.000Z</time>
      </trkpt>
      <trkpt lat="40.7213898003101348876953125" lon="-1.512596569955348968505859375">
        <ele>1180.199951171875</ele>
        <time>2021-09-25T06:59:37.000Z</time>
      </trkpt>
      <trkpt lat="40.721310675144195556640625" lon="-1.51258223690092563629150390625">
        <ele>1179.5999755859375</ele>
        <time>2021-09-25T06:59:39.000Z</time>
      </trkpt>
      <trkpt lat="40.72122828103601932525634765625" lon="-1.51256916113197803497314453125">
        <ele>1178.800048828125</ele>
        <time>2021-09-25T06:59:41.000Z</time>
      </trkpt>
      <trkpt lat="40.721185617148876190185546875" lon="-1.51255977340042591094970703125">
        <ele>1178.4000244140625</ele>
        <time>2021-09-25T06:59:42.000Z</time>
      </trkpt>
      <trkpt lat="40.7211430370807647705078125" lon="-1.51255507953464984893798828125">
        <ele>1178.4000244140625</ele>
        <time>2021-09-25T06:59:43.000Z</time>
      </trkpt>
      <trkpt lat="40.7210543565452098846435546875" lon="-1.51254099793732166290283203125">
        <ele>1178.4000244140625</ele>
        <time>2021-09-25T06:59:45.000Z</time>
      </trkpt>
      <trkpt lat="40.72097296826541423797607421875" lon="-1.5125310234725475311279296875">
        <ele>1178.199951171875</ele>
        <time>2021-09-25T06:59:47.000Z</time>
      </trkpt>
      <trkpt lat="40.7208954356610774993896484375" lon="-1.51252071373164653778076171875">
        <ele>1178.199951171875</ele>
        <time>2021-09-25T06:59:49.000Z</time>
      </trkpt>
      <trkpt lat="40.72081857360899448394775390625" lon="-1.5125092305243015289306640625">
        <ele>1178.4000244140625</ele>
        <time>2021-09-25T06:59:51.000Z</time>
      </trkpt>
      <trkpt lat="40.72073559276759624481201171875" lon="-1.512505374848842620849609375">
        <ele>1178.5999755859375</ele>
        <time>2021-09-25T06:59:53.000Z</time>
      </trkpt>
      <trkpt lat="40.7206610776484012603759765625" lon="-1.5124941430985927581787109375">
        <ele>1178.800048828125</ele>
        <time>2021-09-25T06:59:55.000Z</time>
      </trkpt>
      <trkpt lat="40.72058455087244510650634765625" lon="-1.51248450390994548797607421875">
        <ele>1179.199951171875</ele>
        <time>2021-09-25T06:59:57.000Z</time>
      </trkpt>
      <trkpt lat="40.72051246650516986846923828125" lon="-1.51247687637805938720703125">
        <ele>1180</ele>
        <time>2021-09-25T06:59:59.000Z</time>
      </trkpt>
      <trkpt lat="40.72047877125442028045654296875" lon="-1.5124673210084438323974609375">
        <ele>1180.4000244140625</ele>
        <time>2021-09-25T07:00:00.000Z</time>
      </trkpt>
      <trkpt lat="40.72044767439365386962890625" lon="-1.51245231740176677703857421875">
        <ele>1180.5999755859375</ele>
        <time>2021-09-25T07:00:01.000Z</time>
      </trkpt>
      <trkpt lat="40.72038522921502590179443359375" lon="-1.512432955205440521240234375">
        <ele>1181</ele>
        <time>2021-09-25T07:00:03.000Z</time>
      </trkpt>
      <trkpt lat="40.720319263637065887451171875" lon="-1.512409485876560211181640625">
        <ele>1181.199951171875</ele>
        <time>2021-09-25T07:00:05.000Z</time>
      </trkpt>
      <trkpt lat="40.7202793657779693603515625" lon="-1.512396745383739471435546875">
        <ele>1181.800048828125</ele>
        <time>2021-09-25T07:00:06.000Z</time>
      </trkpt>
      <trkpt lat="40.72024055756628513336181640625" lon="-1.5123809874057769775390625">
        <ele>1182</ele>
        <time>2021-09-25T07:00:07.000Z</time>
      </trkpt>
      <trkpt lat="40.720169059932231903076171875" lon="-1.51234637014567852020263671875">
        <ele>1183</ele>
        <time>2021-09-25T07:00:09.000Z</time>
      </trkpt>
      <trkpt lat="40.72009571827948093414306640625" lon="-1.51231351308524608612060546875">
        <ele>1184</ele>
        <time>2021-09-25T07:00:11.000Z</time>
      </trkpt>
      <trkpt lat="40.72002388536930084228515625" lon="-1.5122819133102893829345703125">
        <ele>1185</ele>
        <time>2021-09-25T07:00:13.000Z</time>
      </trkpt>
      <trkpt lat="40.71995791979134082794189453125" lon="-1.51224461384117603302001953125">
        <ele>1185</ele>
        <time>2021-09-25T07:00:15.000Z</time>
      </trkpt>
      <trkpt lat="40.7199261523783206939697265625" lon="-1.51222349144518375396728515625">
        <ele>1185</ele>
        <time>2021-09-25T07:00:16.000Z</time>
      </trkpt>
      <trkpt lat="40.7198932953178882598876953125" lon="-1.5122044645249843597412109375">
        <ele>1185.199951171875</ele>
        <time>2021-09-25T07:00:17.000Z</time>
      </trkpt>
      <trkpt lat="40.71982447989284992218017578125" lon="-1.51216842234134674072265625">
        <ele>1185.4000244140625</ele>
        <time>2021-09-25T07:00:19.000Z</time>
      </trkpt>
      <trkpt lat="40.7197538204491138458251953125" lon="-1.51213397271931171417236328125">
        <ele>1185.800048828125</ele>
        <time>2021-09-25T07:00:21.000Z</time>
      </trkpt>
      <trkpt lat="40.71968735195696353912353515625" lon="-1.51210346259176731109619140625">
        <ele>1186</ele>
        <time>2021-09-25T07:00:23.000Z</time>
      </trkpt>
      <trkpt lat="40.71961862035095691680908203125" lon="-1.5120770595967769622802734375">
        <ele>1186</ele>
        <time>2021-09-25T07:00:25.000Z</time>
      </trkpt>
      <trkpt lat="40.71958676911890506744384765625" lon="-1.5120646543800830841064453125">
        <ele>1186.199951171875</ele>
        <time>2021-09-25T07:00:26.000Z</time>
      </trkpt>
      <trkpt lat="40.71955558843910694122314453125" lon="-1.5120519138872623443603515625">
        <ele>1186.199951171875</ele>
        <time>2021-09-25T07:00:27.000Z</time>
      </trkpt>
      <trkpt lat="40.719495154917240142822265625" lon="-1.5120323002338409423828125">
        <ele>1186.4000244140625</ele>
        <time>2021-09-25T07:00:29.000Z</time>
      </trkpt>
      <trkpt lat="40.719438828527927398681640625" lon="-1.51202819310128688812255859375">
        <ele>1186.800048828125</ele>
        <time>2021-09-25T07:00:31.000Z</time>
      </trkpt>
      <trkpt lat="40.7194094918668270111083984375" lon="-1.5120234154164791107177734375">
        <ele>1187</ele>
        <time>2021-09-25T07:00:32.000Z</time>
      </trkpt>
      <trkpt lat="40.7193806581199169158935546875" lon="-1.51201746426522731781005859375">
        <ele>1187.199951171875</ele>
        <time>2021-09-25T07:00:33.000Z</time>
      </trkpt>
      <trkpt lat="40.71932542137801647186279296875" lon="-1.51201394386589527130126953125">
        <ele>1187.5999755859375</ele>
        <time>2021-09-25T07:00:35.000Z</time>
      </trkpt>
      <trkpt lat="40.7192669995129108428955078125" lon="-1.5120183862745761871337890625">
        <ele>1188</ele>
        <time>2021-09-25T07:00:37.000Z</time>
      </trkpt>
      <trkpt lat="40.7192391715943813323974609375" lon="-1.51201679371297359466552734375">
        <ele>1188.199951171875</ele>
        <time>2021-09-25T07:00:38.000Z</time>
      </trkpt>
      <trkpt lat="40.71921176277101039886474609375" lon="-1.512020565569400787353515625">
        <ele>1188.4000244140625</ele>
        <time>2021-09-25T07:00:39.000Z</time>
      </trkpt>
      <trkpt lat="40.71915543638169765472412109375" lon="-1.51203037239611148834228515625">
        <ele>1189</ele>
        <time>2021-09-25T07:00:41.000Z</time>
      </trkpt>
      <trkpt lat="40.71910263039171695709228515625" lon="-1.51204177178442478179931640625">
        <ele>1189.5999755859375</ele>
        <time>2021-09-25T07:00:43.000Z</time>
      </trkpt>
      <trkpt lat="40.719074718654155731201171875" lon="-1.5120415203273296356201171875">
        <ele>1190</ele>
        <time>2021-09-25T07:00:44.000Z</time>
      </trkpt>
      <trkpt lat="40.7190483994781970977783203125" lon="-1.51204395107924938201904296875">
        <ele>1190.199951171875</ele>
        <time>2021-09-25T07:00:45.000Z</time>
      </trkpt>
      <trkpt lat="40.71900037117302417755126953125" lon="-1.512049734592437744140625">
        <ele>1190.800048828125</ele>
        <time>2021-09-25T07:00:47.000Z</time>
      </trkpt>
      <trkpt lat="40.718948654830455780029296875" lon="-1.512050740420818328857421875">
        <ele>1191.4000244140625</ele>
        <time>2021-09-25T07:00:49.000Z</time>
      </trkpt>
      <trkpt lat="40.7189220003783702850341796875" lon="-1.5120576135814189910888671875">
        <ele>1191.4000244140625</ele>
        <time>2021-09-25T07:00:50.000Z</time>
      </trkpt>
      <trkpt lat="40.718897692859172821044921875" lon="-1.5120589546859264373779296875">
        <ele>1191.4000244140625</ele>
        <time>2021-09-25T07:00:51.000Z</time>
      </trkpt>
      <trkpt lat="40.7188425399363040924072265625" lon="-1.51204981841146945953369140625">
        <ele>1191.4000244140625</ele>
        <time>2021-09-25T07:00:53.000Z</time>
      </trkpt>
      <trkpt lat="40.7187919132411479949951171875" lon="-1.51204814203083515167236328125">
        <ele>1191.4000244140625</ele>
        <time>2021-09-25T07:00:55.000Z</time>
      </trkpt>
      <trkpt lat="40.71874287910759449005126953125" lon="-1.51203406043350696563720703125">
        <ele>1191.4000244140625</ele>
        <time>2021-09-25T07:00:57.000Z</time>
      </trkpt>
      <trkpt lat="40.71870666928589344024658203125" lon="-1.51201293803751468658447265625">
        <ele>1191.199951171875</ele>
        <time>2021-09-25T07:00:59.000Z</time>
      </trkpt>
      <trkpt lat="40.71870113722980022430419921875" lon="-1.5120083279907703399658203125">
        <ele>1191.199951171875</ele>
        <time>2021-09-25T07:01:00.000Z</time>
      </trkpt>
      <trkpt lat="40.71870113722980022430419921875" lon="-1.5120083279907703399658203125">
        <ele>1191.199951171875</ele>
        <time>2021-09-25T07:01:01.000Z</time>
      </trkpt>
      <trkpt lat="40.7186413742601871490478515625" lon="-1.51200874708592891693115234375">
        <ele>1191.199951171875</ele>
        <time>2021-09-25T07:02:12.000Z</time>
      </trkpt>
      <trkpt lat="40.71862016804516315460205078125" lon="-1.51201193220913410186767578125">
        <ele>1191.199951171875</ele>
        <time>2021-09-25T07:02:13.000Z</time>
      </trkpt>
      <trkpt lat="40.718557722866535186767578125" lon="-1.51201528497040271759033203125">
        <ele>1191</ele>
        <time>2021-09-25T07:02:15.000Z</time>
      </trkpt>
      <trkpt lat="40.7184827886521816253662109375" lon="-1.512025259435176849365234375">
        <ele>1190.800048828125</ele>
        <time>2021-09-25T07:02:17.000Z</time>
      </trkpt>
      <trkpt lat="40.718408860266208648681640625" lon="-1.51204277761280536651611328125">
        <ele>1190.800048828125</ele>
        <time>2021-09-25T07:02:19.000Z</time>
      </trkpt>
      <trkpt lat="40.7183231972157955169677734375" lon="-1.5120710246264934539794921875">
        <ele>1190.5999755859375</ele>
        <time>2021-09-25T07:02:21.000Z</time>
      </trkpt>
      <trkpt lat="40.71828153915703296661376953125" lon="-1.512084938585758209228515625">
        <ele>1190.5999755859375</ele>
        <time>2021-09-25T07:02:22.000Z</time>
      </trkpt>
      <trkpt lat="40.7182370312511920928955078125" lon="-1.51210195384919643402099609375">
        <ele>1190.5999755859375</ele>
        <time>2021-09-25T07:02:23.000Z</time>
      </trkpt>
      <trkpt lat="40.71814902126789093017578125" lon="-1.51214185170829296112060546875">
        <ele>1190.4000244140625</ele>
        <time>2021-09-25T07:02:25.000Z</time>
      </trkpt>
      <trkpt lat="40.71806495077908039093017578125" lon="-1.51218292303383350372314453125">
        <ele>1190</ele>
        <time>2021-09-25T07:02:27.000Z</time>
      </trkpt>
      <trkpt lat="40.71798004209995269775390625" lon="-1.51222617365419864654541015625">
        <ele>1189.5999755859375</ele>
        <time>2021-09-25T07:02:29.000Z</time>
      </trkpt>
      <trkpt lat="40.71794006042182445526123046875" lon="-1.5122509002685546875">
        <ele>1189.199951171875</ele>
        <time>2021-09-25T07:02:30.000Z</time>
      </trkpt>
      <trkpt lat="40.71790116839110851287841796875" lon="-1.5122839249670505523681640625">
        <ele>1189</ele>
        <time>2021-09-25T07:02:31.000Z</time>
      </trkpt>
      <trkpt lat="40.71782774291932582855224609375" lon="-1.51236330159008502960205078125">
        <ele>1189</ele>
        <time>2021-09-25T07:02:33.000Z</time>
      </trkpt>
      <trkpt lat="40.71776152588427066802978515625" lon="-1.51245483197271823883056640625">
        <ele>1189.4000244140625</ele>
        <time>2021-09-25T07:02:35.000Z</time>
      </trkpt>
      <trkpt lat="40.71769815869629383087158203125" lon="-1.5125491283833980560302734375">
        <ele>1189.800048828125</ele>
        <time>2021-09-25T07:02:37.000Z</time>
      </trkpt>
      <trkpt lat="40.717633031308650970458984375" lon="-1.51265013031661510467529296875">
        <ele>1190.4000244140625</ele>
        <time>2021-09-25T07:02:39.000Z</time>
      </trkpt>
      <trkpt lat="40.71756723336875438690185546875" lon="-1.5127482824027538299560546875">
        <ele>1190.800048828125</ele>
        <time>2021-09-25T07:02:41.000Z</time>
      </trkpt>
      <trkpt lat="40.717506296932697296142578125" lon="-1.51284827850759029388427734375">
        <ele>1191.4000244140625</ele>
        <time>2021-09-25T07:02:43.000Z</time>
      </trkpt>
      <trkpt lat="40.71747687645256519317626953125" lon="-1.51289806701242923736572265625">
        <ele>1191.800048828125</ele>
        <time>2021-09-25T07:02:44.000Z</time>
      </trkpt>
      <trkpt lat="40.7174467854201793670654296875" lon="-1.51294567622244358062744140625">
        <ele>1192.199951171875</ele>
        <time>2021-09-25T07:02:45.000Z</time>
      </trkpt>
      <trkpt lat="40.7174125872552394866943359375" lon="-1.5129963867366313934326171875">
        <ele>1192.4000244140625</ele>
        <time>2021-09-25T07:02:46.000Z</time>
      </trkpt>
      <trkpt lat="40.7173234038054943084716796875" lon="-1.51313829235732555389404296875">
        <ele>1193.199951171875</ele>
        <time>2021-09-25T07:02:49.000Z</time>
      </trkpt>
      <trkpt lat="40.71726196445524692535400390625" lon="-1.51324172504246234893798828125">
        <ele>1193.800048828125</ele>
        <time>2021-09-25T07:02:51.000Z</time>
      </trkpt>
      <trkpt lat="40.7172141037881374359130859375" lon="-1.51333794929087162017822265625">
        <ele>1194.5999755859375</ele>
        <time>2021-09-25T07:02:53.000Z</time>
      </trkpt>
      <trkpt lat="40.71715350262820720672607421875" lon="-1.51343869976699352264404296875">
        <ele>1194.800048828125</ele>
        <time>2021-09-25T07:02:55.000Z</time>
      </trkpt>
      <trkpt lat="40.71709063835442066192626953125" lon="-1.5135316550731658935546875">
        <ele>1195</ele>
        <time>2021-09-25T07:02:57.000Z</time>
      </trkpt>
      <trkpt lat="40.71702408604323863983154296875" lon="-1.51361857540905475616455078125">
        <ele>1195.199951171875</ele>
        <time>2021-09-25T07:02:59.000Z</time>
      </trkpt>
      <trkpt lat="40.71699374355375766754150390625" lon="-1.51365947909653186798095703125">
        <ele>1195.199951171875</ele>
        <time>2021-09-25T07:03:00.000Z</time>
      </trkpt>
      <trkpt lat="40.71696348488330841064453125" lon="-1.51369920931756496429443359375">
        <ele>1195.199951171875</ele>
        <time>2021-09-25T07:03:01.000Z</time>
      </trkpt>
      <trkpt lat="40.7169019617140293121337890625" lon="-1.513780094683170318603515625">
        <ele>1195</ele>
        <time>2021-09-25T07:03:03.000Z</time>
      </trkpt>
      <trkpt lat="40.71683767251670360565185546875" lon="-1.5138627402484416961669921875">
        <ele>1195</ele>
        <time>2021-09-25T07:03:05.000Z</time>
      </trkpt>
      <trkpt lat="40.71677145548164844512939453125" lon="-1.51393960230052471160888671875">
        <ele>1194.5999755859375</ele>
        <time>2021-09-25T07:03:07.000Z</time>
      </trkpt>
      <trkpt lat="40.71670641191303730010986328125" lon="-1.51401470415294170379638671875">
        <ele>1194.199951171875</ele>
        <time>2021-09-25T07:03:09.000Z</time>
      </trkpt>
      <trkpt lat="40.71664421819150447845458984375" lon="-1.51409290730953216552734375">
        <ele>1194.199951171875</ele>
        <time>2021-09-25T07:03:11.000Z</time>
      </trkpt>
      <trkpt lat="40.71659275330603122711181640625" lon="-1.514183096587657928466796875">
        <ele>1194</ele>
        <time>2021-09-25T07:03:13.000Z</time>
      </trkpt>
      <trkpt lat="40.716552771627902984619140625" lon="-1.51428929530084133148193359375">
        <ele>1194.199951171875</ele>
        <time>2021-09-25T07:03:15.000Z</time>
      </trkpt>
      <trkpt lat="40.71652628481388092041015625" lon="-1.51440496556460857391357421875">
        <ele>1194.5999755859375</ele>
        <time>2021-09-25T07:03:17.000Z</time>
      </trkpt>
      <trkpt lat="40.71650616824626922607421875" lon="-1.5145212225615978240966796875">
        <ele>1194.800048828125</ele>
        <time>2021-09-25T07:03:19.000Z</time>
      </trkpt>
      <trkpt lat="40.71649317629635334014892578125" lon="-1.5146358869969844818115234375">
        <ele>1195.199951171875</ele>
        <time>2021-09-25T07:03:21.000Z</time>
      </trkpt>
      <trkpt lat="40.71649267338216304779052734375" lon="-1.51475080288946628570556640625">
        <ele>1195.5999755859375</ele>
        <time>2021-09-25T07:03:23.000Z</time>
      </trkpt>
      <trkpt lat="40.7164972834289073944091796875" lon="-1.51486479677259922027587890625">
        <ele>1196</ele>
        <time>2021-09-25T07:03:25.000Z</time>
      </trkpt>
      <trkpt lat="40.7165063358843326568603515625" lon="-1.51498180814087390899658203125">
        <ele>1196.4000244140625</ele>
        <time>2021-09-25T07:03:27.000Z</time>
      </trkpt>
      <trkpt lat="40.71651949547231197357177734375" lon="-1.51509747840464115142822265625">
        <ele>1196.5999755859375</ele>
        <time>2021-09-25T07:03:29.000Z</time>
      </trkpt>
      <trkpt lat="40.71652972139418125152587890625" lon="-1.51520778425037860870361328125">
        <ele>1196.5999755859375</ele>
        <time>2021-09-25T07:03:31.000Z</time>
      </trkpt>
      <trkpt lat="40.7165375165641307830810546875" lon="-1.51531599462032318115234375">
        <ele>1196.5999755859375</ele>
        <time>2021-09-25T07:03:33.000Z</time>
      </trkpt>
      <trkpt lat="40.71654782630503177642822265625" lon="-1.5154237858951091766357421875">
        <ele>1196.800048828125</ele>
        <time>2021-09-25T07:03:35.000Z</time>
      </trkpt>
      <trkpt lat="40.71655939333140850067138671875" lon="-1.5155280567705631256103515625">
        <ele>1196.800048828125</ele>
        <time>2021-09-25T07:03:37.000Z</time>
      </trkpt>
      <trkpt lat="40.7165690325200557708740234375" lon="-1.5156236104667186737060546875">
        <ele>1196.5999755859375</ele>
        <time>2021-09-25T07:03:39.000Z</time>
      </trkpt>
      <trkpt lat="40.71657112799584865570068359375" lon="-1.51571555994451045989990234375">
        <ele>1196.4000244140625</ele>
        <time>2021-09-25T07:03:41.000Z</time>
      </trkpt>
      <trkpt lat="40.71657716296613216400146484375" lon="-1.515810526907444000244140625">
        <ele>1196.4000244140625</ele>
        <time>2021-09-25T07:03:43.000Z</time>
      </trkpt>
      <trkpt lat="40.71657934226095676422119140625" lon="-1.51585419662296772003173828125">
        <ele>1196.4000244140625</ele>
        <time>2021-09-25T07:03:44.000Z</time>
      </trkpt>
      <trkpt lat="40.71658135391771793365478515625" lon="-1.51589945890009403228759765625">
        <ele>1196.5999755859375</ele>
        <time>2021-09-25T07:03:45.000Z</time>
      </trkpt>
      <trkpt lat="40.7165851257741451263427734375" lon="-1.5159897319972515106201171875">
        <ele>1197</ele>
        <time>2021-09-25T07:03:47.000Z</time>
      </trkpt>
      <trkpt lat="40.71659409441053867340087890625" lon="-1.516074053943157196044921875">
        <ele>1197.4000244140625</ele>
        <time>2021-09-25T07:03:49.000Z</time>
      </trkpt>
      <trkpt lat="40.71659660898149013519287109375" lon="-1.516159214079380035400390625">
        <ele>1197.5999755859375</ele>
        <time>2021-09-25T07:03:51.000Z</time>
      </trkpt>
      <trkpt lat="40.7166002131998538970947265625" lon="-1.51619886048138141632080078125">
        <ele>1197.5999755859375</ele>
        <time>2021-09-25T07:03:52.000Z</time>
      </trkpt>
      <trkpt lat="40.71660499088466167449951171875" lon="-1.51623926125466823577880859375">
        <ele>1197.5999755859375</ele>
        <time>2021-09-25T07:03:53.000Z</time>
      </trkpt>
      <trkpt lat="40.7166142947971820831298828125" lon="-1.5163189731538295745849609375">
        <ele>1197.800048828125</ele>
        <time>2021-09-25T07:03:55.000Z</time>
      </trkpt>
      <trkpt lat="40.7166243530809879302978515625" lon="-1.5163994394242763519287109375">
        <ele>1197.800048828125</ele>
        <time>2021-09-25T07:03:57.000Z</time>
      </trkpt>
      <trkpt lat="40.71663298644125461578369140625" lon="-1.51647931896150112152099609375">
        <ele>1198</ele>
        <time>2021-09-25T07:03:59.000Z</time>
      </trkpt>
      <trkpt lat="40.716640613973140716552734375" lon="-1.51655743829905986785888671875">
        <ele>1198</ele>
        <time>2021-09-25T07:04:01.000Z</time>
      </trkpt>
      <trkpt lat="40.71665368974208831787109375" lon="-1.5166361443698406219482421875">
        <ele>1198.199951171875</ele>
        <time>2021-09-25T07:04:03.000Z</time>
      </trkpt>
      <trkpt lat="40.71666517294943332672119140625" lon="-1.5167156048119068145751953125">
        <ele>1198.4000244140625</ele>
        <time>2021-09-25T07:04:05.000Z</time>
      </trkpt>
      <trkpt lat="40.71667808108031749725341796875" lon="-1.51678877882659435272216796875">
        <ele>1198.800048828125</ele>
        <time>2021-09-25T07:04:07.000Z</time>
      </trkpt>
      <trkpt lat="40.7166905701160430908203125" lon="-1.5168617852032184600830078125">
        <ele>1199.199951171875</ele>
        <time>2021-09-25T07:04:09.000Z</time>
      </trkpt>
      <trkpt lat="40.716696269810199737548828125" lon="-1.5168983303010463714599609375">
        <ele>1199.4000244140625</ele>
        <time>2021-09-25T07:04:10.000Z</time>
      </trkpt>
      <trkpt lat="40.716704986989498138427734375" lon="-1.5169342048466205596923828125">
        <ele>1199.800048828125</ele>
        <time>2021-09-25T07:04:11.000Z</time>
      </trkpt>
      <trkpt lat="40.71671647019684314727783203125" lon="-1.51700536720454692840576171875">
        <ele>1200</ele>
        <time>2021-09-25T07:04:13.000Z</time>
      </trkpt>
      <trkpt lat="40.7167329825460910797119140625" lon="-1.51707577519118785858154296875">
        <ele>1200.5999755859375</ele>
        <time>2021-09-25T07:04:15.000Z</time>
      </trkpt>
      <trkpt lat="40.71674882434308528900146484375" lon="-1.51714500971138477325439453125">
        <ele>1201.199951171875</ele>
        <time>2021-09-25T07:04:17.000Z</time>
      </trkpt>
      <trkpt lat="40.7167651690542697906494140625" lon="-1.5172138251364231109619140625">
        <ele>1201.5999755859375</ele>
        <time>2021-09-25T07:04:19.000Z</time>
      </trkpt>
      <trkpt lat="40.7167728804051876068115234375" lon="-1.51724542491137981414794921875">
        <ele>1201.800048828125</ele>
        <time>2021-09-25T07:04:20.000Z</time>
      </trkpt>
      <trkpt lat="40.7167809270322322845458984375" lon="-1.51727744378149509429931640625">
        <ele>1202</ele>
        <time>2021-09-25T07:04:21.000Z</time>
      </trkpt>
      <trkpt lat="40.716798193752765655517578125" lon="-1.5173408947885036468505859375">
        <ele>1202.4000244140625</ele>
        <time>2021-09-25T07:04:23.000Z</time>
      </trkpt>
      <trkpt lat="40.71680984459817409515380859375" lon="-1.5174076147377490997314453125">
        <ele>1202.800048828125</ele>
        <time>2021-09-25T07:04:25.000Z</time>
      </trkpt>
      <trkpt lat="40.71681856177747249603271484375" lon="-1.5174783580005168914794921875">
        <ele>1203.199951171875</ele>
        <time>2021-09-25T07:04:27.000Z</time>
      </trkpt>
      <trkpt lat="40.7168355770409107208251953125" lon="-1.5175442397594451904296875">
        <ele>1203.800048828125</ele>
        <time>2021-09-25T07:04:29.000Z</time>
      </trkpt>
      <trkpt lat="40.716852843761444091796875" lon="-1.51761406101286411285400390625">
        <ele>1204.199951171875</ele>
        <time>2021-09-25T07:04:31.000Z</time>
      </trkpt>
      <trkpt lat="40.7168670929968357086181640625" lon="-1.51768027804791927337646484375">
        <ele>1204.5999755859375</ele>
        <time>2021-09-25T07:04:33.000Z</time>
      </trkpt>
      <trkpt lat="40.7168863713741302490234375" lon="-1.51774599216878414154052734375">
        <ele>1204.800048828125</ele>
        <time>2021-09-25T07:04:35.000Z</time>
      </trkpt>
      <trkpt lat="40.716893412172794342041015625" lon="-1.517782621085643768310546875">
        <ele>1204.800048828125</ele>
        <time>2021-09-25T07:04:36.000Z</time>
      </trkpt>
      <trkpt lat="40.71689802221953868865966796875" lon="-1.51781774125993251800537109375">
        <ele>1204.800048828125</ele>
        <time>2021-09-25T07:04:37.000Z</time>
      </trkpt>
      <trkpt lat="40.71691210381686687469482421875" lon="-1.5178944356739521026611328125">
        <ele>1204.5999755859375</ele>
        <time>2021-09-25T07:04:39.000Z</time>
      </trkpt>
      <trkpt lat="40.71692836470901966094970703125" lon="-1.5179626643657684326171875">
        <ele>1204.5999755859375</ele>
        <time>2021-09-25T07:04:41.000Z</time>
      </trkpt>
      <trkpt lat="40.71694848127663135528564453125" lon="-1.51803215034306049346923828125">
        <ele>1204.4000244140625</ele>
        <time>2021-09-25T07:04:43.000Z</time>
      </trkpt>
      <trkpt lat="40.71696474216878414154052734375" lon="-1.51810607872903347015380859375">
        <ele>1204.4000244140625</ele>
        <time>2021-09-25T07:04:45.000Z</time>
      </trkpt>
      <trkpt lat="40.7169735431671142578125" lon="-1.51814111508429050445556640625">
        <ele>1204.199951171875</ele>
        <time>2021-09-25T07:04:46.000Z</time>
      </trkpt>
      <trkpt lat="40.71697865612804889678955078125" lon="-1.5181767381727695465087890625">
        <ele>1204</ele>
        <time>2021-09-25T07:04:47.000Z</time>
      </trkpt>
      <trkpt lat="40.7169965095818042755126953125" lon="-1.51825108565390110015869140625">
        <ele>1203.5999755859375</ele>
        <time>2021-09-25T07:04:49.000Z</time>
      </trkpt>
      <trkpt lat="40.71700899861752986907958984375" lon="-1.51832937262952327728271484375">
        <ele>1203</ele>
        <time>2021-09-25T07:04:51.000Z</time>
      </trkpt>
      <trkpt lat="40.7170196436345577239990234375" lon="-1.518410257995128631591796875">
        <ele>1203.4000244140625</ele>
        <time>2021-09-25T07:04:53.000Z</time>
      </trkpt>
      <trkpt lat="40.7170266844332218170166015625" lon="-1.51845325715839862823486328125">
        <ele>1203.800048828125</ele>
        <time>2021-09-25T07:04:54.000Z</time>
      </trkpt>
      <trkpt lat="40.717031545937061309814453125" lon="-1.5184952504932880401611328125">
        <ele>1204</ele>
        <time>2021-09-25T07:04:55.000Z</time>
      </trkpt>
      <trkpt lat="40.7170350663363933563232421875" lon="-1.518579237163066864013671875">
        <ele>1204.4000244140625</ele>
        <time>2021-09-25T07:04:57.000Z</time>
      </trkpt>
      <trkpt lat="40.71702978573739528656005859375" lon="-1.518664062023162841796875">
        <ele>1204.199951171875</ele>
        <time>2021-09-25T07:04:59.000Z</time>
      </trkpt>
      <trkpt lat="40.71701888926327228546142578125" lon="-1.51874729432165622711181640625">
        <ele>1204.199951171875</ele>
        <time>2021-09-25T07:05:01.000Z</time>
      </trkpt>
      <trkpt lat="40.7170022092759609222412109375" lon="-1.51883027516305446624755859375">
        <ele>1204</ele>
        <time>2021-09-25T07:05:03.000Z</time>
      </trkpt>
      <trkpt lat="40.71697396226227283477783203125" lon="-1.51891141198575496673583984375">
        <ele>1204</ele>
        <time>2021-09-25T07:05:05.000Z</time>
      </trkpt>
      <trkpt lat="40.71695988066494464874267578125" lon="-1.518989615142345428466796875">
        <ele>1204</ele>
        <time>2021-09-25T07:05:07.000Z</time>
      </trkpt>
      <trkpt lat="40.71694831363856792449951171875" lon="-1.51906882412731647491455078125">
        <ele>1204</ele>
        <time>2021-09-25T07:05:09.000Z</time>
      </trkpt>
      <trkpt lat="40.7169281132519245147705078125" lon="-1.51914325542747974395751953125">
        <ele>1204</ele>
        <time>2021-09-25T07:05:11.000Z</time>
      </trkpt>
      <trkpt lat="40.7169093377888202667236328125" lon="-1.5192179381847381591796875">
        <ele>1204.199951171875</ele>
        <time>2021-09-25T07:05:13.000Z</time>
      </trkpt>
      <trkpt lat="40.71689232252538204193115234375" lon="-1.5192828141152858734130859375">
        <ele>1204.4000244140625</ele>
        <time>2021-09-25T07:05:15.000Z</time>
      </trkpt>
      <trkpt lat="40.71687522344291210174560546875" lon="-1.5193478576838970184326171875">
        <ele>1204.5999755859375</ele>
        <time>2021-09-25T07:05:17.000Z</time>
      </trkpt>
      <trkpt lat="40.71686156094074249267578125" lon="-1.51940636336803436279296875">
        <ele>1204.800048828125</ele>
        <time>2021-09-25T07:05:19.000Z</time>
      </trkpt>
      <trkpt lat="40.71685024537146091461181640625" lon="-1.5194655396044254302978515625">
        <ele>1205.199951171875</ele>
        <time>2021-09-25T07:05:21.000Z</time>
      </trkpt>
      <trkpt lat="40.7168302126228809356689453125" lon="-1.51953167282044887542724609375">
        <ele>1205.5999755859375</ele>
        <time>2021-09-25T07:05:23.000Z</time>
      </trkpt>
      <trkpt lat="40.716815292835235595703125" lon="-1.519604511559009552001953125">
        <ele>1206.199951171875</ele>
        <time>2021-09-25T07:05:25.000Z</time>
      </trkpt>
      <trkpt lat="40.716799199581146240234375" lon="-1.5196794457733631134033203125">
        <ele>1206.5999755859375</ele>
        <time>2021-09-25T07:05:27.000Z</time>
      </trkpt>
      <trkpt lat="40.71678285486996173858642578125" lon="-1.51975312270224094390869140625">
        <ele>1207</ele>
        <time>2021-09-25T07:05:29.000Z</time>
      </trkpt>
      <trkpt lat="40.71676827035844326019287109375" lon="-1.519825123250484466552734375">
        <ele>1207.4000244140625</ele>
        <time>2021-09-25T07:05:31.000Z</time>
      </trkpt>
      <trkpt lat="40.716761983931064605712890625" lon="-1.51986242271959781646728515625">
        <ele>1207.4000244140625</ele>
        <time>2021-09-25T07:05:32.000Z</time>
      </trkpt>
      <trkpt lat="40.716753937304019927978515625" lon="-1.51990097947418689727783203125">
        <ele>1207.5999755859375</ele>
        <time>2021-09-25T07:05:33.000Z</time>
      </trkpt>
      <trkpt lat="40.71673952043056488037109375" lon="-1.5199815295636653900146484375">
        <ele>1208</ele>
        <time>2021-09-25T07:05:35.000Z</time>
      </trkpt>
      <trkpt lat="40.71672904305160045623779296875" lon="-1.52005906216800212860107421875">
        <ele>1208.199951171875</ele>
        <time>2021-09-25T07:05:37.000Z</time>
      </trkpt>
      <trkpt lat="40.71670792065560817718505859375" lon="-1.5201297216117382049560546875">
        <ele>1208.4000244140625</ele>
        <time>2021-09-25T07:05:39.000Z</time>
      </trkpt>
      <trkpt lat="40.7166967727243900299072265625" lon="-1.5201655961573123931884765625">
        <ele>1208.4000244140625</ele>
        <time>2021-09-25T07:05:40.000Z</time>
      </trkpt>
      <trkpt lat="40.716686211526393890380859375" lon="-1.52020440436899662017822265625">
        <ele>1208.4000244140625</ele>
        <time>2021-09-25T07:05:41.000Z</time>
      </trkpt>
      <trkpt lat="40.7166783325374126434326171875" lon="-1.5202809311449527740478515625">
        <ele>1208.5999755859375</ele>
        <time>2021-09-25T07:05:43.000Z</time>
      </trkpt>
      <trkpt lat="40.71667573414742946624755859375" lon="-1.52036265470087528228759765625">
        <ele>1208.800048828125</ele>
        <time>2021-09-25T07:05:45.000Z</time>
      </trkpt>
      <trkpt lat="40.71667640469968318939208984375" lon="-1.52044228278100490570068359375">
        <ele>1208.800048828125</ele>
        <time>2021-09-25T07:05:47.000Z</time>
      </trkpt>
      <trkpt lat="40.71667104028165340423583984375" lon="-1.52052928693592548370361328125">
        <ele>1208.800048828125</ele>
        <time>2021-09-25T07:05:49.000Z</time>
      </trkpt>
      <trkpt lat="40.71666844189167022705078125" lon="-1.52061394415795803070068359375">
        <ele>1208.5999755859375</ele>
        <time>2021-09-25T07:05:51.000Z</time>
      </trkpt>
      <trkpt lat="40.7166686095297336578369140625" lon="-1.52069407515227794647216796875">
        <ele>1208.4000244140625</ele>
        <time>2021-09-25T07:05:53.000Z</time>
      </trkpt>
      <trkpt lat="40.71666869334876537322998046875" lon="-1.520778648555278778076171875">
        <ele>1208</ele>
        <time>2021-09-25T07:05:55.000Z</time>
      </trkpt>
      <trkpt lat="40.71666785515844821929931640625" lon="-1.5208218991756439208984375">
        <ele>1207.800048828125</ele>
        <time>2021-09-25T07:05:56.000Z</time>
      </trkpt>
      <trkpt lat="40.7166652567684650421142578125" lon="-1.52086657471954822540283203125">
        <ele>1207.5999755859375</ele>
        <time>2021-09-25T07:05:57.000Z</time>
      </trkpt>
      <trkpt lat="40.71666249074041843414306640625" lon="-1.52095676399767398834228515625">
        <ele>1207.199951171875</ele>
        <time>2021-09-25T07:05:59.000Z</time>
      </trkpt>
      <trkpt lat="40.71665964089334011077880859375" lon="-1.5210416726768016815185546875">
        <ele>1206.5999755859375</ele>
        <time>2021-09-25T07:06:01.000Z</time>
      </trkpt>
      <trkpt lat="40.7166525162756443023681640625" lon="-1.5211281739175319671630859375">
        <ele>1206</ele>
        <time>2021-09-25T07:06:03.000Z</time>
      </trkpt>
      <trkpt lat="40.71664958260953426361083984375" lon="-1.521223224699497222900390625">
        <ele>1206</ele>
        <time>2021-09-25T07:06:05.000Z</time>
      </trkpt>
      <trkpt lat="40.71664555929601192474365234375" lon="-1.52127142064273357391357421875">
        <ele>1206</ele>
        <time>2021-09-25T07:06:06.000Z</time>
      </trkpt>
      <trkpt lat="40.71664488874375820159912109375" lon="-1.521319448947906494140625">
        <ele>1206</ele>
        <time>2021-09-25T07:06:07.000Z</time>
      </trkpt>
      <trkpt lat="40.71663818322122097015380859375" lon="-1.52141475118696689605712890625">
        <ele>1206.199951171875</ele>
        <time>2021-09-25T07:06:09.000Z</time>
      </trkpt>
      <trkpt lat="40.7166203297674655914306640625" lon="-1.52151298709213733673095703125">
        <ele>1206.800048828125</ele>
        <time>2021-09-25T07:06:11.000Z</time>
      </trkpt>
      <trkpt lat="40.71659677661955356597900390625" lon="-1.52160837315022945404052734375">
        <ele>1207.199951171875</ele>
        <time>2021-09-25T07:06:13.000Z</time>
      </trkpt>
      <trkpt lat="40.71658403612673282623291015625" lon="-1.52165313251316547393798828125">
        <ele>1207.4000244140625</ele>
        <time>2021-09-25T07:06:14.000Z</time>
      </trkpt>
      <trkpt lat="40.71657045744359493255615234375" lon="-1.52169428765773773193359375">
        <ele>1207.800048828125</ele>
        <time>2021-09-25T07:06:15.000Z</time>
      </trkpt>
      <trkpt lat="40.71653625927865505218505859375" lon="-1.52177986688911914825439453125">
        <ele>1208.4000244140625</ele>
        <time>2021-09-25T07:06:17.000Z</time>
      </trkpt>
      <trkpt lat="40.71649619378149509429931640625" lon="-1.52186184190213680267333984375">
        <ele>1209.199951171875</ele>
        <time>2021-09-25T07:06:19.000Z</time>
      </trkpt>
      <trkpt lat="40.716458894312381744384765625" lon="-1.52194105088710784912109375">
        <ele>1209.800048828125</ele>
        <time>2021-09-25T07:06:21.000Z</time>
      </trkpt>
      <trkpt lat="40.716411955654621124267578125" lon="-1.5220257081091403961181640625">
        <ele>1209.800048828125</ele>
        <time>2021-09-25T07:06:23.000Z</time>
      </trkpt>
      <trkpt lat="40.71637214161455631256103515625" lon="-1.5221068449318408966064453125">
        <ele>1209.800048828125</ele>
        <time>2021-09-25T07:06:25.000Z</time>
      </trkpt>
      <trkpt lat="40.71632914245128631591796875" lon="-1.52219309471547603607177734375">
        <ele>1209.5999755859375</ele>
        <time>2021-09-25T07:06:27.000Z</time>
      </trkpt>
      <trkpt lat="40.71628597564995288848876953125" lon="-1.52227791957557201385498046875">
        <ele>1209.5999755859375</ele>
        <time>2021-09-25T07:06:29.000Z</time>
      </trkpt>
      <trkpt lat="40.7162404619157314300537109375" lon="-1.52236274443566799163818359375">
        <ele>1209.800048828125</ele>
        <time>2021-09-25T07:06:31.000Z</time>
      </trkpt>
      <trkpt lat="40.71621355600655078887939453125" lon="-1.522402055561542510986328125">
        <ele>1209.800048828125</ele>
        <time>2021-09-25T07:06:32.000Z</time>
      </trkpt>
      <trkpt lat="40.71618505753576755523681640625" lon="-1.5224424563348293304443359375">
        <ele>1209.800048828125</ele>
        <time>2021-09-25T07:06:33.000Z</time>
      </trkpt>
      <trkpt lat="40.7161568105220794677734375" lon="-1.5224830247461795806884765625">
        <ele>1210</ele>
        <time>2021-09-25T07:06:34.000Z</time>
      </trkpt>
      <trkpt lat="40.7161291502416133880615234375" lon="-1.522524096071720123291015625">
        <ele>1210.199951171875</ele>
        <time>2021-09-25T07:06:35.000Z</time>
      </trkpt>
      <trkpt lat="40.71607257239520549774169921875" lon="-1.52260623872280120849609375">
        <ele>1210.800048828125</ele>
        <time>2021-09-25T07:06:37.000Z</time>
      </trkpt>
      <trkpt lat="40.71601666510105133056640625" lon="-1.52268846519291400909423828125">
        <ele>1211.199951171875</ele>
        <time>2021-09-25T07:06:39.000Z</time>
      </trkpt>
      <trkpt lat="40.71596595458686351776123046875" lon="-1.5227676741778850555419921875">
        <ele>1211.4000244140625</ele>
        <time>2021-09-25T07:06:41.000Z</time>
      </trkpt>
      <trkpt lat="40.71591750718653202056884765625" lon="-1.5228467993438243865966796875">
        <ele>1211.5999755859375</ele>
        <time>2021-09-25T07:06:43.000Z</time>
      </trkpt>
      <trkpt lat="40.71586872451007366180419921875" lon="-1.5229247510433197021484375">
        <ele>1211.5999755859375</ele>
        <time>2021-09-25T07:06:45.000Z</time>
      </trkpt>
      <trkpt lat="40.71582195349037647247314453125" lon="-1.52300513349473476409912109375">
        <ele>1211.4000244140625</ele>
        <time>2021-09-25T07:06:47.000Z</time>
      </trkpt>
      <trkpt lat="40.71577065624296665191650390625" lon="-1.5230841748416423797607421875">
        <ele>1211.4000244140625</ele>
        <time>2021-09-25T07:06:49.000Z</time>
      </trkpt>
      <trkpt lat="40.71571986190974712371826171875" lon="-1.523158438503742218017578125">
        <ele>1211.5999755859375</ele>
        <time>2021-09-25T07:06:51.000Z</time>
      </trkpt>
      <trkpt lat="40.71567527018487453460693359375" lon="-1.52322876267135143280029296875">
        <ele>1211.800048828125</ele>
        <time>2021-09-25T07:06:53.000Z</time>
      </trkpt>
      <trkpt lat="40.71562581695616245269775390625" lon="-1.52330386452376842498779296875">
        <ele>1212</ele>
        <time>2021-09-25T07:06:55.000Z</time>
      </trkpt>
      <trkpt lat="40.7155769504606723785400390625" lon="-1.52337511070072650909423828125">
        <ele>1212.199951171875</ele>
        <time>2021-09-25T07:06:57.000Z</time>
      </trkpt>
      <trkpt lat="40.71553051471710205078125" lon="-1.52345054782927036285400390625">
        <ele>1212.4000244140625</ele>
        <time>2021-09-25T07:06:59.000Z</time>
      </trkpt>
      <trkpt lat="40.715484917163848876953125" lon="-1.52352715842425823211669921875">
        <ele>1212.4000244140625</ele>
        <time>2021-09-25T07:07:01.000Z</time>
      </trkpt>
      <trkpt lat="40.7154378108680248260498046875" lon="-1.52360628359019756317138671875">
        <ele>1212.5999755859375</ele>
        <time>2021-09-25T07:07:03.000Z</time>
      </trkpt>
      <trkpt lat="40.7154138386249542236328125" lon="-1.5236457623541355133056640625">
        <ele>1212.800048828125</ele>
        <time>2021-09-25T07:07:04.000Z</time>
      </trkpt>
      <trkpt lat="40.7153888605535030364990234375" lon="-1.52368222363293170928955078125">
        <ele>1212.800048828125</ele>
        <time>2021-09-25T07:07:05.000Z</time>
      </trkpt>
      <trkpt lat="40.715337060391902923583984375" lon="-1.52375497855246067047119140625">
        <ele>1213</ele>
        <time>2021-09-25T07:07:07.000Z</time>
      </trkpt>
      <trkpt lat="40.71528936736285686492919921875" lon="-1.52382169850170612335205078125">
        <ele>1213.4000244140625</ele>
        <time>2021-09-25T07:07:09.000Z</time>
      </trkpt>
      <trkpt lat="40.715242512524127960205078125" lon="-1.52388808317482471466064453125">
        <ele>1213.5999755859375</ele>
        <time>2021-09-25T07:07:11.000Z</time>
      </trkpt>
      <trkpt lat="40.715217031538486480712890625" lon="-1.52392261661589145660400390625">
        <ele>1213.800048828125</ele>
        <time>2021-09-25T07:07:12.000Z</time>
      </trkpt>
      <trkpt lat="40.71519381366670131683349609375" lon="-1.52395362965762615203857421875">
        <ele>1214</ele>
        <time>2021-09-25T07:07:13.000Z</time>
      </trkpt>
      <trkpt lat="40.71515307761728763580322265625" lon="-1.52402102015912532806396484375">
        <ele>1214.4000244140625</ele>
        <time>2021-09-25T07:07:15.000Z</time>
      </trkpt>
      <trkpt lat="40.7151112519204616546630859375" lon="-1.52409109286963939666748046875">
        <ele>1214.5999755859375</ele>
        <time>2021-09-25T07:07:17.000Z</time>
      </trkpt>
      <trkpt lat="40.71506557054817676544189453125" lon="-1.5241597406566143035888671875">
        <ele>1215</ele>
        <time>2021-09-25T07:07:19.000Z</time>
      </trkpt>
      <trkpt lat="40.71502617560327053070068359375" lon="-1.5242256224155426025390625">
        <ele>1215</ele>
        <time>2021-09-25T07:07:21.000Z</time>
      </trkpt>
      <trkpt lat="40.71498334407806396484375" lon="-1.5242998860776424407958984375">
        <ele>1215</ele>
        <time>2021-09-25T07:07:23.000Z</time>
      </trkpt>
      <trkpt lat="40.71493766270577907562255859375" lon="-1.5243692882359027862548828125">
        <ele>1215.199951171875</ele>
        <time>2021-09-25T07:07:25.000Z</time>
      </trkpt>
      <trkpt lat="40.7148909755051136016845703125" lon="-1.52443609200417995452880859375">
        <ele>1215.199951171875</ele>
        <time>2021-09-25T07:07:27.000Z</time>
      </trkpt>
      <trkpt lat="40.71484479121863842010498046875" lon="-1.52450683526694774627685546875">
        <ele>1215.4000244140625</ele>
        <time>2021-09-25T07:07:29.000Z</time>
      </trkpt>
      <trkpt lat="40.71480489335954189300537109375" lon="-1.52457204647362232208251953125">
        <ele>1215.4000244140625</ele>
        <time>2021-09-25T07:07:31.000Z</time>
      </trkpt>
      <trkpt lat="40.71478595025837421417236328125" lon="-1.52462133206427097320556640625">
        <ele>1215.4000244140625</ele>
        <time>2021-09-25T07:07:33.000Z</time>
      </trkpt>
      <trkpt lat="40.7147781550884246826171875" lon="-1.52464295737445354461669921875">
        <ele>1215.4000244140625</ele>
        <time>2021-09-25T07:07:34.000Z</time>
      </trkpt>
      <trkpt lat="40.7147789932787418365478515625" lon="-1.5246686898171901702880859375">
        <ele>1215.199951171875</ele>
        <time>2021-09-25T07:07:35.000Z</time>
      </trkpt>
      <trkpt lat="40.71479164995253086090087890625" lon="-1.52469274587929248809814453125">
        <ele>1215</ele>
        <time>2021-09-25T07:07:36.000Z</time>
      </trkpt>
      <trkpt lat="40.7148276083171367645263671875" lon="-1.52474387548863887786865234375">
        <ele>1214.800048828125</ele>
        <time>2021-09-25T07:07:38.000Z</time>
      </trkpt>
      <trkpt lat="40.71485568769276142120361328125" lon="-1.5247642435133457183837890625">
        <ele>1214.800048828125</ele>
        <time>2021-09-25T07:07:39.000Z</time>
      </trkpt>
      <trkpt lat="40.71491519920527935028076171875" lon="-1.52480833232402801513671875">
        <ele>1214.5999755859375</ele>
        <time>2021-09-25T07:07:41.000Z</time>
      </trkpt>
      <trkpt lat="40.71496984921395778656005859375" lon="-1.52485116384923458099365234375">
        <ele>1214.4000244140625</ele>
        <time>2021-09-25T07:07:43.000Z</time>
      </trkpt>
      <trkpt lat="40.714991725981235504150390625" lon="-1.52488016523420810699462890625">
        <ele>1214.199951171875</ele>
        <time>2021-09-25T07:07:44.000Z</time>
      </trkpt>
      <trkpt lat="40.715001113712787628173828125" lon="-1.5249127708375453948974609375">
        <ele>1214.199951171875</ele>
        <time>2021-09-25T07:07:45.000Z</time>
      </trkpt>
      <trkpt lat="40.71499868296086788177490234375" lon="-1.52498125098645687103271484375">
        <ele>1214.199951171875</ele>
        <time>2021-09-25T07:07:47.000Z</time>
      </trkpt>
      <trkpt lat="40.71498510427772998809814453125" lon="-1.5250143595039844512939453125">
        <ele>1214.199951171875</ele>
        <time>2021-09-25T07:07:48.000Z</time>
      </trkpt>
      <trkpt lat="40.71497370488941669464111328125" lon="-1.5250421874225139617919921875">
        <ele>1214.4000244140625</ele>
        <time>2021-09-25T07:07:49.000Z</time>
      </trkpt>
      <trkpt lat="40.71494487114250659942626953125" lon="-1.52510865591466426849365234375">
        <ele>1214.4000244140625</ele>
        <time>2021-09-25T07:07:51.000Z</time>
      </trkpt>
      <trkpt lat="40.71491754613816738128662109375" lon="-1.52516213245689868927001953125">
        <ele>1214.5999755859375</ele>
        <time>2021-09-25T07:07:53.000Z</time>
      </trkpt>
      <trkpt lat="40.7149095833301544189453125" lon="-1.52518845163285732269287109375">
        <ele>1214.5999755859375</ele>
        <time>2021-09-25T07:07:54.000Z</time>
      </trkpt>
      <trkpt lat="40.71489977650344371795654296875" lon="-1.5252165310084819793701171875">
        <ele>1214.800048828125</ele>
        <time>2021-09-25T07:07:55.000Z</time>
      </trkpt>
      <trkpt lat="40.71488753892481327056884765625" lon="-1.52525735087692737579345703125">
        <ele>1215</ele>
        <time>2021-09-25T07:07:57.000Z</time>
      </trkpt>
      <trkpt lat="40.71488334797322750091552734375" lon="-1.5252708457410335540771484375">
        <ele>1215</ele>
        <time>2021-09-25T07:07:58.000Z</time>
      </trkpt>
      <trkpt lat="40.7148906402289867401123046875" lon="-1.52533815242350101470947265625">
        <ele>1215.199951171875</ele>
        <time>2021-09-25T07:08:56.000Z</time>
      </trkpt>
      <trkpt lat="40.7148953340947628021240234375" lon="-1.52536086738109588623046875">
        <ele>1215.199951171875</ele>
        <time>2021-09-25T07:08:57.000Z</time>
      </trkpt>
      <trkpt lat="40.71488611400127410888671875" lon="-1.52538978494703769683837890625">
        <ele>1215.4000244140625</ele>
        <time>2021-09-25T07:08:59.000Z</time>
      </trkpt>
      <trkpt lat="40.71488611400127410888671875" lon="-1.52538978494703769683837890625">
        <ele>1215.4000244140625</ele>
        <time>2021-09-25T07:09:00.000Z</time>
      </trkpt>
      <trkpt lat="40.7148765586316585540771484375" lon="-1.5253539942204952239990234375">
        <ele>1215.199951171875</ele>
        <time>2021-09-25T07:09:44.000Z</time>
      </trkpt>
      <trkpt lat="40.7148728705942630767822265625" lon="-1.52533270418643951416015625">
        <ele>1215.199951171875</ele>
        <time>2021-09-25T07:09:45.000Z</time>
      </trkpt>
      <trkpt lat="40.7148547656834125518798828125" lon="-1.5253037028014659881591796875">
        <ele>1215</ele>
        <time>2021-09-25T07:09:47.000Z</time>
      </trkpt>
      <trkpt lat="40.71483523584902286529541015625" lon="-1.52530194260179996490478515625">
        <ele>1215</ele>
        <time>2021-09-25T07:09:49.000Z</time>
      </trkpt>
      <trkpt lat="40.71482467465102672576904296875" lon="-1.52531300671398639678955078125">
        <ele>1215.199951171875</ele>
        <time>2021-09-25T07:09:51.000Z</time>
      </trkpt>
      <trkpt lat="40.71481897495687007904052734375" lon="-1.52532490901648998260498046875">
        <ele>1215.199951171875</ele>
        <time>2021-09-25T07:09:52.000Z</time>
      </trkpt>
      <trkpt lat="40.71481109596788883209228515625" lon="-1.525341756641864776611328125">
        <ele>1215.199951171875</ele>
        <time>2021-09-25T07:09:53.000Z</time>
      </trkpt>
      <trkpt lat="40.71480154059827327728271484375" lon="-1.52535692788660526275634765625">
        <ele>1215.199951171875</ele>
        <time>2021-09-25T07:09:54.000Z</time>
      </trkpt>
      <trkpt lat="40.7147848606109619140625" lon="-1.52537335641682147979736328125">
        <ele>1215.4000244140625</ele>
        <time>2021-09-25T07:09:55.000Z</time>
      </trkpt>
      <trkpt lat="40.7147504948079586029052734375" lon="-1.52541057206690311431884765625">
        <ele>1215.5999755859375</ele>
        <time>2021-09-25T07:09:57.000Z</time>
      </trkpt>
      <trkpt lat="40.71470196358859539031982421875" lon="-1.5254575945436954498291015625">
        <ele>1216.199951171875</ele>
        <time>2021-09-25T07:09:59.000Z</time>
      </trkpt>
      <trkpt lat="40.71465921588242053985595703125" lon="-1.5255085565149784088134765625">
        <ele>1216.5999755859375</ele>
        <time>2021-09-25T07:10:01.000Z</time>
      </trkpt>
      <trkpt lat="40.71462032385170459747314453125" lon="-1.52555474080145359039306640625">
        <ele>1217.199951171875</ele>
        <time>2021-09-25T07:10:03.000Z</time>
      </trkpt>
      <trkpt lat="40.71460045874118804931640625" lon="-1.52557318098843097686767578125">
        <ele>1217.4000244140625</ele>
        <time>2021-09-25T07:10:04.000Z</time>
      </trkpt>
      <trkpt lat="40.71457992307841777801513671875" lon="-1.52558960951864719390869140625">
        <ele>1217.5999755859375</ele>
        <time>2021-09-25T07:10:05.000Z</time>
      </trkpt>
      <trkpt lat="40.71456634439527988433837890625" lon="-1.525609306991100311279296875">
        <ele>1217.800048828125</ele>
        <time>2021-09-25T07:10:06.000Z</time>
      </trkpt>
      <trkpt lat="40.71455888450145721435546875" lon="-1.5256373025476932525634765625">
        <ele>1218.199951171875</ele>
        <time>2021-09-25T07:10:07.000Z</time>
      </trkpt>
      <trkpt lat="40.71456047706305980682373046875" lon="-1.52566521428525447845458984375">
        <ele>1218.4000244140625</ele>
        <time>2021-09-25T07:10:08.000Z</time>
      </trkpt>
      <trkpt lat="40.7145969383418560028076171875" lon="-1.52571651153266429901123046875">
        <ele>1218.4000244140625</ele>
        <time>2021-09-25T07:10:10.000Z</time>
      </trkpt>
      <trkpt lat="40.7146220840513706207275390625" lon="-1.5257412381470203399658203125">
        <ele>1218.4000244140625</ele>
        <time>2021-09-25T07:10:11.000Z</time>
      </trkpt>
      <trkpt lat="40.7146440446376800537109375" lon="-1.525766216218471527099609375">
        <ele>1218.199951171875</ele>
        <time>2021-09-25T07:10:12.000Z</time>
      </trkpt>
      <trkpt lat="40.714666843414306640625" lon="-1.5257888473570346832275390625">
        <ele>1218</ele>
        <time>2021-09-25T07:10:13.000Z</time>
      </trkpt>
      <trkpt lat="40.71468905545771121978759765625" lon="-1.52581558562815189361572265625">
        <ele>1218</ele>
        <time>2021-09-25T07:10:14.000Z</time>
      </trkpt>
      <trkpt lat="40.71472861804068088531494140625" lon="-1.52586990036070346832275390625">
        <ele>1217.5999755859375</ele>
        <time>2021-09-25T07:10:16.000Z</time>
      </trkpt>
      <trkpt lat="40.71476264856755733489990234375" lon="-1.5259212814271450042724609375">
        <ele>1217.800048828125</ele>
        <time>2021-09-25T07:10:18.000Z</time>
      </trkpt>
      <trkpt lat="40.71477974765002727508544921875" lon="-1.525973416864871978759765625">
        <ele>1218</ele>
        <time>2021-09-25T07:10:20.000Z</time>
      </trkpt>
      <trkpt lat="40.71478192694485187530517578125" lon="-1.5259983949363231658935546875">
        <ele>1218.199951171875</ele>
        <time>2021-09-25T07:10:21.000Z</time>
      </trkpt>
      <trkpt lat="40.71475644595921039581298828125" lon="-1.52608011849224567413330078125">
        <ele>1219</ele>
        <time>2021-09-25T07:10:24.000Z</time>
      </trkpt>
      <trkpt lat="40.71474286727607250213623046875" lon="-1.52611314319074153900146484375">
        <ele>1219.199951171875</ele>
        <time>2021-09-25T07:10:25.000Z</time>
      </trkpt>
      <trkpt lat="40.71472593583166599273681640625" lon="-1.52614449150860309600830078125">
        <ele>1219.4000244140625</ele>
        <time>2021-09-25T07:10:26.000Z</time>
      </trkpt>
      <trkpt lat="40.7146965153515338897705078125" lon="-1.52620366774499416351318359375">
        <ele>1219.4000244140625</ele>
        <time>2021-09-25T07:10:28.000Z</time>
      </trkpt>
      <trkpt lat="40.71466592140495777130126953125" lon="-1.52626317925751209259033203125">
        <ele>1219.4000244140625</ele>
        <time>2021-09-25T07:10:30.000Z</time>
      </trkpt>
      <trkpt lat="40.7146401889622211456298828125" lon="-1.52632269077003002166748046875">
        <ele>1219.199951171875</ele>
        <time>2021-09-25T07:10:32.000Z</time>
      </trkpt>
      <trkpt lat="40.714628957211971282958984375" lon="-1.52635403908789157867431640625">
        <ele>1219.199951171875</ele>
        <time>2021-09-25T07:10:33.000Z</time>
      </trkpt>
      <trkpt lat="40.714620240032672882080078125" lon="-1.5263863094151020050048828125">
        <ele>1219.199951171875</ele>
        <time>2021-09-25T07:10:34.000Z</time>
      </trkpt>
      <trkpt lat="40.71459802798926830291748046875" lon="-1.52645529247820377349853515625">
        <ele>1219.199951171875</ele>
        <time>2021-09-25T07:10:36.000Z</time>
      </trkpt>
      <trkpt lat="40.7145855389535427093505859375" lon="-1.52652117423713207244873046875">
        <ele>1219</ele>
        <time>2021-09-25T07:10:38.000Z</time>
      </trkpt>
      <trkpt lat="40.714562237262725830078125" lon="-1.526587642729282379150390625">
        <ele>1218.800048828125</ele>
        <time>2021-09-25T07:10:40.000Z</time>
      </trkpt>
      <trkpt lat="40.71455159224569797515869140625" lon="-1.52661773376166820526123046875">
        <ele>1218.800048828125</ele>
        <time>2021-09-25T07:10:41.000Z</time>
      </trkpt>
      <trkpt lat="40.7145416177809238433837890625" lon="-1.526648662984371185302734375">
        <ele>1218.800048828125</ele>
        <time>2021-09-25T07:10:42.000Z</time>
      </trkpt>
      <trkpt lat="40.714512951672077178955078125" lon="-1.526713036000728607177734375">
        <ele>1218.800048828125</ele>
        <time>2021-09-25T07:10:44.000Z</time>
      </trkpt>
      <trkpt lat="40.7144859619438648223876953125" lon="-1.5267725475132465362548828125">
        <ele>1218.800048828125</ele>
        <time>2021-09-25T07:10:46.000Z</time>
      </trkpt>
      <trkpt lat="40.714451260864734649658203125" lon="-1.52683381922543048858642578125">
        <ele>1218.5999755859375</ele>
        <time>2021-09-25T07:10:48.000Z</time>
      </trkpt>
      <trkpt lat="40.71443961001932621002197265625" lon="-1.52686097659170627593994140625">
        <ele>1218.5999755859375</ele>
        <time>2021-09-25T07:10:49.000Z</time>
      </trkpt>
      <trkpt lat="40.71442603133618831634521484375" lon="-1.52688813395798206329345703125">
        <ele>1218.5999755859375</ele>
        <time>2021-09-25T07:10:50.000Z</time>
      </trkpt>
      <trkpt lat="40.7144065015017986297607421875" lon="-1.526927947998046875">
        <ele>1218.4000244140625</ele>
        <time>2021-09-25T07:10:52.000Z</time>
      </trkpt>
      <trkpt lat="40.714406669139862060546875" lon="-1.52693289332091808319091796875">
        <ele>1218.4000244140625</ele>
        <time>2021-09-25T07:10:53.000Z</time>
      </trkpt>
      <trkpt lat="40.714406669139862060546875" lon="-1.52693289332091808319091796875">
        <ele>1218.4000244140625</ele>
        <time>2021-09-25T07:10:54.000Z</time>
      </trkpt>
      <trkpt lat="40.71437942795455455780029296875" lon="-1.52697958052158355712890625">
        <ele>1218.5999755859375</ele>
        <time>2021-09-25T07:11:09.000Z</time>
      </trkpt>
      <trkpt lat="40.71436886675655841827392578125" lon="-1.5270035527646541595458984375">
        <ele>1218.5999755859375</ele>
        <time>2021-09-25T07:11:10.000Z</time>
      </trkpt>
      <trkpt lat="40.71435595862567424774169921875" lon="-1.52703012339770793914794921875">
        <ele>1218.800048828125</ele>
        <time>2021-09-25T07:11:11.000Z</time>
      </trkpt>
      <trkpt lat="40.7143302261829376220703125" lon="-1.5270902216434478759765625">
        <ele>1219.199951171875</ele>
        <time>2021-09-25T07:11:13.000Z</time>
      </trkpt>
      <trkpt lat="40.714306421577930450439453125" lon="-1.52715031988918781280517578125">
        <ele>1219.4000244140625</ele>
        <time>2021-09-25T07:11:15.000Z</time>
      </trkpt>
      <trkpt lat="40.7142784260213375091552734375" lon="-1.52721167542040348052978515625">
        <ele>1219.5999755859375</ele>
        <time>2021-09-25T07:11:17.000Z</time>
      </trkpt>
      <trkpt lat="40.71426174603402614593505859375" lon="-1.52724377810955047607421875">
        <ele>1219.800048828125</ele>
        <time>2021-09-25T07:11:18.000Z</time>
      </trkpt>
      <trkpt lat="40.7142459042370319366455078125" lon="-1.52727487497031688690185546875">
        <ele>1220.199951171875</ele>
        <time>2021-09-25T07:11:19.000Z</time>
      </trkpt>
      <trkpt lat="40.714219920337200164794921875" lon="-1.52733790688216686248779296875">
        <ele>1220.800048828125</ele>
        <time>2021-09-25T07:11:21.000Z</time>
      </trkpt>
      <trkpt lat="40.7141907513141632080078125" lon="-1.5274011902511119842529296875">
        <ele>1221.4000244140625</ele>
        <time>2021-09-25T07:11:23.000Z</time>
      </trkpt>
      <trkpt lat="40.714166946709156036376953125" lon="-1.5274608694016933441162109375">
        <ele>1222</ele>
        <time>2021-09-25T07:11:25.000Z</time>
      </trkpt>
      <trkpt lat="40.7141516916453838348388671875" lon="-1.52749456465244293212890625">
        <ele>1222.4000244140625</ele>
        <time>2021-09-25T07:11:26.000Z</time>
      </trkpt>
      <trkpt lat="40.714136101305484771728515625" lon="-1.5275289304554462432861328125">
        <ele>1222.800048828125</ele>
        <time>2021-09-25T07:11:27.000Z</time>
      </trkpt>
      <trkpt lat="40.714102573692798614501953125" lon="-1.527594812214374542236328125">
        <ele>1223.199951171875</ele>
        <time>2021-09-25T07:11:29.000Z</time>
      </trkpt>
      <trkpt lat="40.71407499723136425018310546875" lon="-1.52765993960201740264892578125">
        <ele>1223.5999755859375</ele>
        <time>2021-09-25T07:11:31.000Z</time>
      </trkpt>
      <trkpt lat="40.714045576751232147216796875" lon="-1.5277240611612796783447265625">
        <ele>1224</ele>
        <time>2021-09-25T07:11:33.000Z</time>
      </trkpt>
      <trkpt lat="40.7140152342617511749267578125" lon="-1.52778826653957366943359375">
        <ele>1224.5999755859375</ele>
        <time>2021-09-25T07:11:35.000Z</time>
      </trkpt>
      <trkpt lat="40.713985227048397064208984375" lon="-1.52784853242337703704833984375">
        <ele>1224.800048828125</ele>
        <time>2021-09-25T07:11:37.000Z</time>
      </trkpt>
      <trkpt lat="40.7139572314918041229248046875" lon="-1.527909971773624420166015625">
        <ele>1225</ele>
        <time>2021-09-25T07:11:39.000Z</time>
      </trkpt>
      <trkpt lat="40.7139267213642597198486328125" lon="-1.52797308750450611114501953125">
        <ele>1225</ele>
        <time>2021-09-25T07:11:41.000Z</time>
      </trkpt>
      <trkpt lat="40.71390182711184024810791015625" lon="-1.52803310193121433258056640625">
        <ele>1225</ele>
        <time>2021-09-25T07:11:43.000Z</time>
      </trkpt>
      <trkpt lat="40.71386377327144145965576171875" lon="-1.52809672057628631591796875">
        <ele>1225</ele>
        <time>2021-09-25T07:11:45.000Z</time>
      </trkpt>
      <trkpt lat="40.713831670582294464111328125" lon="-1.52815883047878742218017578125">
        <ele>1225</ele>
        <time>2021-09-25T07:11:47.000Z</time>
      </trkpt>
      <trkpt lat="40.713802166283130645751953125" lon="-1.5282195992767810821533203125">
        <ele>1225</ele>
        <time>2021-09-25T07:11:49.000Z</time>
      </trkpt>
      <trkpt lat="40.71377475745975971221923828125" lon="-1.52827802114188671112060546875">
        <ele>1225.199951171875</ele>
        <time>2021-09-25T07:11:51.000Z</time>
      </trkpt>
      <trkpt lat="40.71374206803739070892333984375" lon="-1.52834390290081501007080078125">
        <ele>1225.199951171875</ele>
        <time>2021-09-25T07:11:53.000Z</time>
      </trkpt>
      <trkpt lat="40.71371323429048061370849609375" lon="-1.52841188013553619384765625">
        <ele>1225.5999755859375</ele>
        <time>2021-09-25T07:11:55.000Z</time>
      </trkpt>
      <trkpt lat="40.7136883400380611419677734375" lon="-1.5284797735512256622314453125">
        <ele>1226</ele>
        <time>2021-09-25T07:11:57.000Z</time>
      </trkpt>
      <trkpt lat="40.71365858428180217742919921875" lon="-1.52854238636791706085205078125">
        <ele>1226.4000244140625</ele>
        <time>2021-09-25T07:11:59.000Z</time>
      </trkpt>
      <trkpt lat="40.7136306725442409515380859375" lon="-1.528604328632354736328125">
        <ele>1227</ele>
        <time>2021-09-25T07:12:01.000Z</time>
      </trkpt>
      <trkpt lat="40.71360326372087001800537109375" lon="-1.52866845019161701202392578125">
        <ele>1227.5999755859375</ele>
        <time>2021-09-25T07:12:03.000Z</time>
      </trkpt>
      <trkpt lat="40.71357250213623046875" lon="-1.5287298895418643951416015625">
        <ele>1228.199951171875</ele>
        <time>2021-09-25T07:12:05.000Z</time>
      </trkpt>
      <trkpt lat="40.71354366838932037353515625" lon="-1.5287956036627292633056640625">
        <ele>1229</ele>
        <time>2021-09-25T07:12:07.000Z</time>
      </trkpt>
      <trkpt lat="40.7135170139372348785400390625" lon="-1.52885369025170803070068359375">
        <ele>1229.5999755859375</ele>
        <time>2021-09-25T07:12:09.000Z</time>
      </trkpt>
      <trkpt lat="40.7135014235973358154296875" lon="-1.52888319455087184906005859375">
        <ele>1229.800048828125</ele>
        <time>2021-09-25T07:12:10.000Z</time>
      </trkpt>
      <trkpt lat="40.71348943747580051422119140625" lon="-1.528909765183925628662109375">
        <ele>1230.199951171875</ele>
        <time>2021-09-25T07:12:11.000Z</time>
      </trkpt>
      <trkpt lat="40.71345993317663669586181640625" lon="-1.528971455991268157958984375">
        <ele>1230.800048828125</ele>
        <time>2021-09-25T07:12:13.000Z</time>
      </trkpt>
      <trkpt lat="40.71343277581036090850830078125" lon="-1.52903079986572265625">
        <ele>1231.4000244140625</ele>
        <time>2021-09-25T07:12:15.000Z</time>
      </trkpt>
      <trkpt lat="40.71340109221637248992919921875" lon="-1.52909391559660434722900390625">
        <ele>1232.199951171875</ele>
        <time>2021-09-25T07:12:17.000Z</time>
      </trkpt>
      <trkpt lat="40.71337427012622356414794921875" lon="-1.5291501581668853759765625">
        <ele>1232.800048828125</ele>
        <time>2021-09-25T07:12:19.000Z</time>
      </trkpt>
      <trkpt lat="40.71334359236061573028564453125" lon="-1.52920371852815151214599609375">
        <ele>1233.199951171875</ele>
        <time>2021-09-25T07:12:21.000Z</time>
      </trkpt>
      <trkpt lat="40.7133269123733043670654296875" lon="-1.52923221699893474578857421875">
        <ele>1233.199951171875</ele>
        <time>2021-09-25T07:12:22.000Z</time>
      </trkpt>
      <trkpt lat="40.71331274695694446563720703125" lon="-1.52925820089876651763916015625">
        <ele>1233.4000244140625</ele>
        <time>2021-09-25T07:12:23.000Z</time>
      </trkpt>
      <trkpt lat="40.71328056044876575469970703125" lon="-1.52931804768741130828857421875">
        <ele>1233.5999755859375</ele>
        <time>2021-09-25T07:12:25.000Z</time>
      </trkpt>
      <trkpt lat="40.71325105614960193634033203125" lon="-1.529371775686740875244140625">
        <ele>1233.800048828125</ele>
        <time>2021-09-25T07:12:27.000Z</time>
      </trkpt>
      <trkpt lat="40.713224150240421295166015625" lon="-1.5294215641915798187255859375">
        <ele>1233.800048828125</ele>
        <time>2021-09-25T07:12:29.000Z</time>
      </trkpt>
      <trkpt lat="40.71319498121738433837890625" lon="-1.52946976013481616973876953125">
        <ele>1234</ele>
        <time>2021-09-25T07:12:31.000Z</time>
      </trkpt>
      <trkpt lat="40.71316807530820369720458984375" lon="-1.52952499687671661376953125">
        <ele>1234</ele>
        <time>2021-09-25T07:12:33.000Z</time>
      </trkpt>
      <trkpt lat="40.713134966790676116943359375" lon="-1.5295808203518390655517578125">
        <ele>1234</ele>
        <time>2021-09-25T07:12:35.000Z</time>
      </trkpt>
      <trkpt lat="40.71310169063508510589599609375" lon="-1.5296331234276294708251953125">
        <ele>1234</ele>
        <time>2021-09-25T07:12:37.000Z</time>
      </trkpt>
      <trkpt lat="40.71308626793324947357177734375" lon="-1.5296606160700321197509765625">
        <ele>1234.199951171875</ele>
        <time>2021-09-25T07:12:38.000Z</time>
      </trkpt>
      <trkpt lat="40.71307386271655559539794921875" lon="-1.529687941074371337890625">
        <ele>1234.199951171875</ele>
        <time>2021-09-25T07:12:39.000Z</time>
      </trkpt>
      <trkpt lat="40.7130482979118824005126953125" lon="-1.52975021861493587493896484375">
        <ele>1234.4000244140625</ele>
        <time>2021-09-25T07:12:41.000Z</time>
      </trkpt>
      <trkpt lat="40.71303547360002994537353515625" lon="-1.5298180282115936279296875">
        <ele>1234.5999755859375</ele>
        <time>2021-09-25T07:12:43.000Z</time>
      </trkpt>
      <trkpt lat="40.71303513832390308380126953125" lon="-1.529890112578868865966796875">
        <ele>1234.800048828125</ele>
        <time>2021-09-25T07:12:45.000Z</time>
      </trkpt>
      <trkpt lat="40.71305156685411930084228515625" lon="-1.5299575030803680419921875">
        <ele>1235</ele>
        <time>2021-09-25T07:12:47.000Z</time>
      </trkpt>
      <trkpt lat="40.7130888663232326507568359375" lon="-1.53001123107969760894775390625">
        <ele>1235</ele>
        <time>2021-09-25T07:12:49.000Z</time>
      </trkpt>
      <trkpt lat="40.71310956962406635284423828125" lon="-1.530040316283702850341796875">
        <ele>1235.199951171875</ele>
        <time>2021-09-25T07:12:50.000Z</time>
      </trkpt>
      <trkpt lat="40.71313320659101009368896484375" lon="-1.53006940148770809173583984375">
        <ele>1235.5999755859375</ele>
        <time>2021-09-25T07:12:51.000Z</time>
      </trkpt>
      <trkpt lat="40.7131864316761493682861328125" lon="-1.53011516667902469635009765625">
        <ele>1236</ele>
        <time>2021-09-25T07:12:53.000Z</time>
      </trkpt>
      <trkpt lat="40.71323789656162261962890625" lon="-1.5301595069468021392822265625">
        <ele>1236.5999755859375</ele>
        <time>2021-09-25T07:12:55.000Z</time>
      </trkpt>
      <trkpt lat="40.71328341029584407806396484375" lon="-1.530199237167835235595703125">
        <ele>1237</ele>
        <time>2021-09-25T07:12:57.000Z</time>
      </trkpt>
      <trkpt lat="40.7133232243359088897705078125" lon="-1.530244164168834686279296875">
        <ele>1237.4000244140625</ele>
        <time>2021-09-25T07:12:59.000Z</time>
      </trkpt>
      <trkpt lat="40.71336664259433746337890625" lon="-1.53028867207467555999755859375">
        <ele>1238</ele>
        <time>2021-09-25T07:13:01.000Z</time>
      </trkpt>
      <trkpt lat="40.71341031230986118316650390625" lon="-1.5303335152566432952880859375">
        <ele>1238.199951171875</ele>
        <time>2021-09-25T07:13:03.000Z</time>
      </trkpt>
      <trkpt lat="40.71343294344842433929443359375" lon="-1.5303549729287624359130859375">
        <ele>1238.199951171875</ele>
        <time>2021-09-25T07:13:04.000Z</time>
      </trkpt>
      <trkpt lat="40.7134544849395751953125" lon="-1.53037550859153270721435546875">
        <ele>1238.4000244140625</ele>
        <time>2021-09-25T07:13:05.000Z</time>
      </trkpt>
      <trkpt lat="40.71350553072988986968994140625" lon="-1.53040953911840915679931640625">
        <ele>1238.4000244140625</ele>
        <time>2021-09-25T07:13:07.000Z</time>
      </trkpt>
      <trkpt lat="40.7135549001395702362060546875" lon="-1.53044524602591991424560546875">
        <ele>1238.4000244140625</ele>
        <time>2021-09-25T07:13:09.000Z</time>
      </trkpt>
      <trkpt lat="40.71360359899699687957763671875" lon="-1.5304870717227458953857421875">
        <ele>1238.199951171875</ele>
        <time>2021-09-25T07:13:11.000Z</time>
      </trkpt>
      <trkpt lat="40.71364601142704486846923828125" lon="-1.5305326692759990692138671875">
        <ele>1238</ele>
        <time>2021-09-25T07:13:13.000Z</time>
      </trkpt>
      <trkpt lat="40.71369663812220096588134765625" lon="-1.5305745787918567657470703125">
        <ele>1238</ele>
        <time>2021-09-25T07:13:15.000Z</time>
      </trkpt>
      <trkpt lat="40.71374617516994476318359375" lon="-1.53062378056347370147705078125">
        <ele>1237.800048828125</ele>
        <time>2021-09-25T07:13:17.000Z</time>
      </trkpt>
      <trkpt lat="40.71380074135959148406982421875" lon="-1.530662588775157928466796875">
        <ele>1237.5999755859375</ele>
        <time>2021-09-25T07:13:19.000Z</time>
      </trkpt>
      <trkpt lat="40.71385824121534824371337890625" lon="-1.53070382773876190185546875">
        <ele>1237.5999755859375</ele>
        <time>2021-09-25T07:13:21.000Z</time>
      </trkpt>
      <trkpt lat="40.713906101882457733154296875" lon="-1.5307455696165561676025390625">
        <ele>1237.5999755859375</ele>
        <time>2021-09-25T07:13:23.000Z</time>
      </trkpt>
      <trkpt lat="40.713950358331203460693359375" lon="-1.53078161180019378662109375">
        <ele>1237.800048828125</ele>
        <time>2021-09-25T07:13:25.000Z</time>
      </trkpt>
      <trkpt lat="40.71399629116058349609375" lon="-1.53081337921321392059326171875">
        <ele>1238</ele>
        <time>2021-09-25T07:13:27.000Z</time>
      </trkpt>
      <trkpt lat="40.71404255926609039306640625" lon="-1.53085076250135898590087890625">
        <ele>1238.4000244140625</ele>
        <time>2021-09-25T07:13:29.000Z</time>
      </trkpt>
      <trkpt lat="40.7140900008380413055419921875" lon="-1.53088211081922054290771484375">
        <ele>1238.800048828125</ele>
        <time>2021-09-25T07:13:31.000Z</time>
      </trkpt>
      <trkpt lat="40.71413668803870677947998046875" lon="-1.53092284686863422393798828125">
        <ele>1239.199951171875</ele>
        <time>2021-09-25T07:13:33.000Z</time>
      </trkpt>
      <trkpt lat="40.7141855545341968536376953125" lon="-1.53096257708966732025146484375">
        <ele>1239.800048828125</ele>
        <time>2021-09-25T07:13:35.000Z</time>
      </trkpt>
      <trkpt lat="40.71423442102968692779541015625" lon="-1.53100490570068359375">
        <ele>1240.199951171875</ele>
        <time>2021-09-25T07:13:37.000Z</time>
      </trkpt>
      <trkpt lat="40.7142817787826061248779296875" lon="-1.53105125762522220611572265625">
        <ele>1240.5999755859375</ele>
        <time>2021-09-25T07:13:39.000Z</time>
      </trkpt>
      <trkpt lat="40.7143327407538890838623046875" lon="-1.53109953738749027252197265625">
        <ele>1241.199951171875</ele>
        <time>2021-09-25T07:13:41.000Z</time>
      </trkpt>
      <trkpt lat="40.7143873907625675201416015625" lon="-1.531150080263614654541015625">
        <ele>1242</ele>
        <time>2021-09-25T07:13:43.000Z</time>
      </trkpt>
      <trkpt lat="40.71443676017224788665771484375" lon="-1.531195677816867828369140625">
        <ele>1242.5999755859375</ele>
        <time>2021-09-25T07:13:45.000Z</time>
      </trkpt>
      <trkpt lat="40.71448168717324733734130859375" lon="-1.53124152682721614837646484375">
        <ele>1242.800048828125</ele>
        <time>2021-09-25T07:13:47.000Z</time>
      </trkpt>
      <trkpt lat="40.714531056582927703857421875" lon="-1.53128326870501041412353515625">
        <ele>1243</ele>
        <time>2021-09-25T07:13:49.000Z</time>
      </trkpt>
      <trkpt lat="40.71457757614552974700927734375" lon="-1.53132651932537555694580078125">
        <ele>1243.199951171875</ele>
        <time>2021-09-25T07:13:51.000Z</time>
      </trkpt>
      <trkpt lat="40.71462753228843212127685546875" lon="-1.5313668362796306610107421875">
        <ele>1243.5999755859375</ele>
        <time>2021-09-25T07:13:53.000Z</time>
      </trkpt>
      <trkpt lat="40.7146784104406833648681640625" lon="-1.5314107574522495269775390625">
        <ele>1244.199951171875</ele>
        <time>2021-09-25T07:13:55.000Z</time>
      </trkpt>
      <trkpt lat="40.71473197080194950103759765625" lon="-1.5314533375203609466552734375">
        <ele>1244.5999755859375</ele>
        <time>2021-09-25T07:13:57.000Z</time>
      </trkpt>
      <trkpt lat="40.71477890945971012115478515625" lon="-1.53149717487394809722900390625">
        <ele>1245.4000244140625</ele>
        <time>2021-09-25T07:13:59.000Z</time>
      </trkpt>
      <trkpt lat="40.71483138017356395721435546875" lon="-1.5315435267984867095947265625">
        <ele>1246</ele>
        <time>2021-09-25T07:14:01.000Z</time>
      </trkpt>
      <trkpt lat="40.7148839347064495086669921875" lon="-1.5315837599337100982666015625">
        <ele>1246.199951171875</ele>
        <time>2021-09-25T07:14:03.000Z</time>
      </trkpt>
      <trkpt lat="40.7149310410022735595703125" lon="-1.53162441216409206390380859375">
        <ele>1246</ele>
        <time>2021-09-25T07:14:05.000Z</time>
      </trkpt>
      <trkpt lat="40.71496414951980113983154296875" lon="-1.53167017735540866851806640625">
        <ele>1246</ele>
        <time>2021-09-25T07:14:07.000Z</time>
      </trkpt>
      <trkpt lat="40.714976973831653594970703125" lon="-1.53168828226625919342041015625">
        <ele>1246</ele>
        <time>2021-09-25T07:14:08.000Z</time>
      </trkpt>
      <trkpt lat="40.714989714324474334716796875" lon="-1.53170856647193431854248046875">
        <ele>1246.199951171875</ele>
        <time>2021-09-25T07:14:09.000Z</time>
      </trkpt>
      <trkpt lat="40.71502449922263622283935546875" lon="-1.5317386575043201446533203125">
        <ele>1246.199951171875</ele>
        <time>2021-09-25T07:14:11.000Z</time>
      </trkpt>
      <trkpt lat="40.7150455377995967864990234375" lon="-1.5317698381841182708740234375">
        <ele>1246.199951171875</ele>
        <time>2021-09-25T07:14:13.000Z</time>
      </trkpt>
      <trkpt lat="40.71504310704767704010009765625" lon="-1.5317909605801105499267578125">
        <ele>1246.4000244140625</ele>
        <time>2021-09-25T07:14:14.000Z</time>
      </trkpt>
      <trkpt lat="40.7150348089635372161865234375" lon="-1.53180160559713840484619140625">
        <ele>1246.800048828125</ele>
        <time>2021-09-25T07:14:15.000Z</time>
      </trkpt>
      <trkpt lat="40.7149954140186309814453125" lon="-1.531809233129024505615234375">
        <ele>1247.4000244140625</ele>
        <time>2021-09-25T07:14:17.000Z</time>
      </trkpt>
      <trkpt lat="40.714975297451019287109375" lon="-1.53180328197777271270751953125">
        <ele>1247.5999755859375</ele>
        <time>2021-09-25T07:14:18.000Z</time>
      </trkpt>
      <trkpt lat="40.71495291776955127716064453125" lon="-1.53179925866425037384033203125">
        <ele>1247.800048828125</ele>
        <time>2021-09-25T07:14:19.000Z</time>
      </trkpt>
      <trkpt lat="40.71490027941763401031494140625" lon="-1.53177796863019466400146484375">
        <ele>1248.199951171875</ele>
        <time>2021-09-25T07:14:21.000Z</time>
      </trkpt>
      <trkpt lat="40.71484412066638469696044921875" lon="-1.53176070190966129302978515625">
        <ele>1248.5999755859375</ele>
        <time>2021-09-25T07:14:23.000Z</time>
      </trkpt>
      <trkpt lat="40.71481595747172832489013671875" lon="-1.53175148181617259979248046875">
        <ele>1248.800048828125</ele>
        <time>2021-09-25T07:14:24.000Z</time>
      </trkpt>
      <trkpt lat="40.714787207543849945068359375" lon="-1.53174343518912792205810546875">
        <ele>1249</ele>
        <time>2021-09-25T07:14:25.000Z</time>
      </trkpt>
      <trkpt lat="40.71472518146038055419921875" lon="-1.5317249111831188201904296875">
        <ele>1248.5999755859375</ele>
        <time>2021-09-25T07:14:27.000Z</time>
      </trkpt>
      <trkpt lat="40.7146582938730716705322265625" lon="-1.53170923702418804168701171875">
        <ele>1248</ele>
        <time>2021-09-25T07:14:29.000Z</time>
      </trkpt>
      <trkpt lat="40.714594759047031402587890625" lon="-1.53169398196041584014892578125">
        <ele>1247.5999755859375</ele>
        <time>2021-09-25T07:14:31.000Z</time>
      </trkpt>
      <trkpt lat="40.714535079896450042724609375" lon="-1.53167612850666046142578125">
        <ele>1247.199951171875</ele>
        <time>2021-09-25T07:14:33.000Z</time>
      </trkpt>
      <trkpt lat="40.71447146125137805938720703125" lon="-1.53165911324322223663330078125">
        <ele>1246.800048828125</ele>
        <time>2021-09-25T07:14:35.000Z</time>
      </trkpt>
      <trkpt lat="40.71440893225371837615966796875" lon="-1.53164586983621120452880859375">
        <ele>1246.5999755859375</ele>
        <time>2021-09-25T07:14:37.000Z</time>
      </trkpt>
      <trkpt lat="40.7143431343138217926025390625" lon="-1.53162994422018527984619140625">
        <ele>1246.5999755859375</ele>
        <time>2021-09-25T07:14:39.000Z</time>
      </trkpt>
      <trkpt lat="40.71427096612751483917236328125" lon="-1.53161318041384220123291015625">
        <ele>1246.4000244140625</ele>
        <time>2021-09-25T07:14:41.000Z</time>
      </trkpt>
      <trkpt lat="40.71419687010347843170166015625" lon="-1.53159490786492824554443359375">
        <ele>1246.199951171875</ele>
        <time>2021-09-25T07:14:43.000Z</time>
      </trkpt>
      <trkpt lat="40.7141625881195068359375" lon="-1.53158627450466156005859375">
        <ele>1246.199951171875</ele>
        <time>2021-09-25T07:14:44.000Z</time>
      </trkpt>
      <trkpt lat="40.71412662975490093231201171875" lon="-1.53157529421150684356689453125">
        <ele>1246.199951171875</ele>
        <time>2021-09-25T07:14:45.000Z</time>
      </trkpt>
      <trkpt lat="40.71405085735023021697998046875" lon="-1.5315552614629268646240234375">
        <ele>1246.199951171875</ele>
        <time>2021-09-25T07:14:47.000Z</time>
      </trkpt>
      <trkpt lat="40.7139763422310352325439453125" lon="-1.5315364859998226165771484375">
        <ele>1245.5999755859375</ele>
        <time>2021-09-25T07:14:49.000Z</time>
      </trkpt>
      <trkpt lat="40.71389713324606418609619140625" lon="-1.5315158665180206298828125">
        <ele>1245.4000244140625</ele>
        <time>2021-09-25T07:14:51.000Z</time>
      </trkpt>
      <trkpt lat="40.713816918432712554931640625" lon="-1.53149700723588466644287109375">
        <ele>1245.5999755859375</ele>
        <time>2021-09-25T07:14:53.000Z</time>
      </trkpt>
      <trkpt lat="40.7137369550764560699462890625" lon="-1.53147630393505096435546875">
        <ele>1245.4000244140625</ele>
        <time>2021-09-25T07:14:55.000Z</time>
      </trkpt>
      <trkpt lat="40.71365456096827983856201171875" lon="-1.531457193195819854736328125">
        <ele>1245.4000244140625</ele>
        <time>2021-09-25T07:14:57.000Z</time>
      </trkpt>
      <trkpt lat="40.71357325650751590728759765625" lon="-1.53143548406660556793212890625">
        <ele>1245.5999755859375</ele>
        <time>2021-09-25T07:14:59.000Z</time>
      </trkpt>
      <trkpt lat="40.71348776109516620635986328125" lon="-1.53141385875642299652099609375">
        <ele>1245.5999755859375</ele>
        <time>2021-09-25T07:15:01.000Z</time>
      </trkpt>
      <trkpt lat="40.713444091379642486572265625" lon="-1.53140262700617313385009765625">
        <ele>1245.800048828125</ele>
        <time>2021-09-25T07:15:02.000Z</time>
      </trkpt>
      <trkpt lat="40.7134010083973407745361328125" lon="-1.53138804249465465545654296875">
        <ele>1245.800048828125</ele>
        <time>2021-09-25T07:15:03.000Z</time>
      </trkpt>
      <trkpt lat="40.71330964565277099609375" lon="-1.53136222623288631439208984375">
        <ele>1246.4000244140625</ele>
        <time>2021-09-25T07:15:05.000Z</time>
      </trkpt>
      <trkpt lat="40.713226832449436187744140625" lon="-1.53133925981819629669189453125">
        <ele>1247</ele>
        <time>2021-09-25T07:15:07.000Z</time>
      </trkpt>
      <trkpt lat="40.7131840847432613372802734375" lon="-1.53132584877312183380126953125">
        <ele>1247.199951171875</ele>
        <time>2021-09-25T07:15:08.000Z</time>
      </trkpt>
      <trkpt lat="40.713101439177989959716796875" lon="-1.53130137361586093902587890625">
        <ele>1247</ele>
        <time>2021-09-25T07:15:10.000Z</time>
      </trkpt>
      <trkpt lat="40.7130580209195613861083984375" lon="-1.5312863700091838836669921875">
        <ele>1247</ele>
        <time>2021-09-25T07:15:11.000Z</time>
      </trkpt>
      <trkpt lat="40.71297009475529193878173828125" lon="-1.531267426908016204833984375">
        <ele>1247.199951171875</ele>
        <time>2021-09-25T07:15:13.000Z</time>
      </trkpt>
      <trkpt lat="40.71288359351456165313720703125" lon="-1.53124161064624786376953125">
        <ele>1247</ele>
        <time>2021-09-25T07:15:15.000Z</time>
      </trkpt>
      <trkpt lat="40.71279575116932392120361328125" lon="-1.53121671639382839202880859375">
        <ele>1246.199951171875</ele>
        <time>2021-09-25T07:15:17.000Z</time>
      </trkpt>
      <trkpt lat="40.7126996107399463653564453125" lon="-1.5311971865594387054443359375">
        <ele>1245.800048828125</ele>
        <time>2021-09-25T07:15:19.000Z</time>
      </trkpt>
      <trkpt lat="40.7126516662538051605224609375" lon="-1.53118788264691829681396484375">
        <ele>1245.800048828125</ele>
        <time>2021-09-25T07:15:20.000Z</time>
      </trkpt>
      <trkpt lat="40.71260682307183742523193359375" lon="-1.531178243458271026611328125">
        <ele>1245.800048828125</ele>
        <time>2021-09-25T07:15:21.000Z</time>
      </trkpt>
      <trkpt lat="40.71251478977501392364501953125" lon="-1.53115737251937389373779296875">
        <ele>1245.800048828125</ele>
        <time>2021-09-25T07:15:23.000Z</time>
      </trkpt>
      <trkpt lat="40.71242493577301502227783203125" lon="-1.53113298118114471435546875">
        <ele>1245.800048828125</ele>
        <time>2021-09-25T07:15:25.000Z</time>
      </trkpt>
      <trkpt lat="40.71233223192393779754638671875" lon="-1.53111076913774013519287109375">
        <ele>1245.5999755859375</ele>
        <time>2021-09-25T07:15:27.000Z</time>
      </trkpt>
      <trkpt lat="40.71224019862711429595947265625" lon="-1.5310801751911640167236328125">
        <ele>1245.199951171875</ele>
        <time>2021-09-25T07:15:29.000Z</time>
      </trkpt>
      <trkpt lat="40.71214757859706878662109375" lon="-1.5310506708920001983642578125">
        <ele>1244.800048828125</ele>
        <time>2021-09-25T07:15:31.000Z</time>
      </trkpt>
      <trkpt lat="40.71206040680408477783203125" lon="-1.5310191549360752105712890625">
        <ele>1244.4000244140625</ele>
        <time>2021-09-25T07:15:33.000Z</time>
      </trkpt>
      <trkpt lat="40.71192822419106960296630859375" lon="-1.53096023015677928924560546875">
        <ele>1244.199951171875</ele>
        <time>2021-09-25T07:15:36.000Z</time>
      </trkpt>
      <trkpt lat="40.71183920837938785552978515625" lon="-1.53092049993574619293212890625">
        <ele>1244</ele>
        <time>2021-09-25T07:15:38.000Z</time>
      </trkpt>
      <trkpt lat="40.7117554731667041778564453125" lon="-1.530874483287334442138671875">
        <ele>1243.4000244140625</ele>
        <time>2021-09-25T07:15:40.000Z</time>
      </trkpt>
      <trkpt lat="40.711712054908275604248046875" lon="-1.53084992431104183197021484375">
        <ele>1243.199951171875</ele>
        <time>2021-09-25T07:15:41.000Z</time>
      </trkpt>
      <trkpt lat="40.71158272214233875274658203125" lon="-1.5307794325053691864013671875">
        <ele>1243.5999755859375</ele>
        <time>2021-09-25T07:15:44.000Z</time>
      </trkpt>
      <trkpt lat="40.711499154567718505859375" lon="-1.53072260320186614990234375">
        <ele>1243.5999755859375</ele>
        <time>2021-09-25T07:15:46.000Z</time>
      </trkpt>
      <trkpt lat="40.71141608990728855133056640625" lon="-1.53066937811672687530517578125">
        <ele>1243.800048828125</ele>
        <time>2021-09-25T07:15:48.000Z</time>
      </trkpt>
      <trkpt lat="40.71137510240077972412109375" lon="-1.530638448894023895263671875">
        <ele>1244.199951171875</ele>
        <time>2021-09-25T07:15:49.000Z</time>
      </trkpt>
      <trkpt lat="40.711332857608795166015625" lon="-1.5306094475090503692626953125">
        <ele>1244.4000244140625</ele>
        <time>2021-09-25T07:15:50.000Z</time>
      </trkpt>
      <trkpt lat="40.71124811656773090362548828125" lon="-1.53054683469235897064208984375">
        <ele>1244.800048828125</ele>
        <time>2021-09-25T07:15:52.000Z</time>
      </trkpt>
      <trkpt lat="40.71116412989795207977294921875" lon="-1.53047843836247920989990234375">
        <ele>1245.199951171875</ele>
        <time>2021-09-25T07:15:54.000Z</time>
      </trkpt>
      <trkpt lat="40.71108534000813961029052734375" lon="-1.530408449470996856689453125">
        <ele>1246.800048828125</ele>
        <time>2021-09-25T07:15:56.000Z</time>
      </trkpt>
      <trkpt lat="40.711008645594120025634765625" lon="-1.53033795766532421112060546875">
        <ele>1247</ele>
        <time>2021-09-25T07:15:58.000Z</time>
      </trkpt>
      <trkpt lat="40.71092876605689525604248046875" lon="-1.5302718244493007659912109375">
        <ele>1247.199951171875</ele>
        <time>2021-09-25T07:16:00.000Z</time>
      </trkpt>
      <trkpt lat="40.71085165254771709442138671875" lon="-1.5301994048058986663818359375">
        <ele>1247.4000244140625</ele>
        <time>2021-09-25T07:16:02.000Z</time>
      </trkpt>
      <trkpt lat="40.7107789814472198486328125" lon="-1.5301219560205936431884765625">
        <ele>1247.800048828125</ele>
        <time>2021-09-25T07:16:04.000Z</time>
      </trkpt>
      <trkpt lat="40.71070781908929347991943359375" lon="-1.53003855608403682708740234375">
        <ele>1247.5999755859375</ele>
        <time>2021-09-25T07:16:06.000Z</time>
      </trkpt>
      <trkpt lat="40.71063883602619171142578125" lon="-1.5299548208713531494140625">
        <ele>1247.5999755859375</ele>
        <time>2021-09-25T07:16:08.000Z</time>
      </trkpt>
      <trkpt lat="40.71060388348996639251708984375" lon="-1.52990855276584625244140625">
        <ele>1247</ele>
        <time>2021-09-25T07:16:09.000Z</time>
      </trkpt>
      <trkpt lat="40.710571110248565673828125" lon="-1.5298611111938953399658203125">
        <ele>1246.5999755859375</ele>
        <time>2021-09-25T07:16:10.000Z</time>
      </trkpt>
      <trkpt lat="40.7105072401463985443115234375" lon="-1.5297682397067546844482421875">
        <ele>1245.800048828125</ele>
        <time>2021-09-25T07:16:12.000Z</time>
      </trkpt>
      <trkpt lat="40.71044278331100940704345703125" lon="-1.52967025525867938995361328125">
        <ele>1245.5999755859375</ele>
        <time>2021-09-25T07:16:14.000Z</time>
      </trkpt>
      <trkpt lat="40.71034337393939495086669921875" lon="-1.52953295968472957611083984375">
        <ele>1245.800048828125</ele>
        <time>2021-09-25T07:16:17.000Z</time>
      </trkpt>
      <trkpt lat="40.7102787494659423828125" lon="-1.52944243513047695159912109375">
        <ele>1245.4000244140625</ele>
        <time>2021-09-25T07:16:19.000Z</time>
      </trkpt>
      <trkpt lat="40.71024589240550994873046875" lon="-1.52939356863498687744140625">
        <ele>1245</ele>
        <time>2021-09-25T07:16:20.000Z</time>
      </trkpt>
      <trkpt lat="40.71015067398548126220703125" lon="-1.52923992834985256195068359375">
        <ele>1244.4000244140625</ele>
        <time>2021-09-25T07:16:23.000Z</time>
      </trkpt>
      <trkpt lat="40.71009107865393161773681640625" lon="-1.5291359089314937591552734375">
        <ele>1244.4000244140625</ele>
        <time>2021-09-25T07:16:25.000Z</time>
      </trkpt>
      <trkpt lat="40.7100251130759716033935546875" lon="-1.529031135141849517822265625">
        <ele>1243.4000244140625</ele>
        <time>2021-09-25T07:16:27.000Z</time>
      </trkpt>
      <trkpt lat="40.7099902443587779998779296875" lon="-1.5289820171892642974853515625">
        <ele>1243</ele>
        <time>2021-09-25T07:16:28.000Z</time>
      </trkpt>
      <trkpt lat="40.7099582254886627197265625" lon="-1.528931558132171630859375">
        <ele>1242.5999755859375</ele>
        <time>2021-09-25T07:16:29.000Z</time>
      </trkpt>
      <trkpt lat="40.70989343337714672088623046875" lon="-1.528834663331508636474609375">
        <ele>1242.199951171875</ele>
        <time>2021-09-25T07:16:31.000Z</time>
      </trkpt>
      <trkpt lat="40.7098303176462650299072265625" lon="-1.52873919345438480377197265625">
        <ele>1241.5999755859375</ele>
        <time>2021-09-25T07:16:33.000Z</time>
      </trkpt>
      <trkpt lat="40.70976887829601764678955078125" lon="-1.52864699251949787139892578125">
        <ele>1241.199951171875</ele>
        <time>2021-09-25T07:16:35.000Z</time>
      </trkpt>
      <trkpt lat="40.70973434485495090484619140625" lon="-1.52860491536557674407958984375">
        <ele>1240.800048828125</ele>
        <time>2021-09-25T07:16:36.000Z</time>
      </trkpt>
      <trkpt lat="40.70966385304927825927734375" lon="-1.52851925231516361236572265625">
        <ele>1240.199951171875</ele>
        <time>2021-09-25T07:16:38.000Z</time>
      </trkpt>
      <trkpt lat="40.70959503762423992156982421875" lon="-1.5284335054457187652587890625">
        <ele>1240</ele>
        <time>2021-09-25T07:16:40.000Z</time>
      </trkpt>
      <trkpt lat="40.70952362380921840667724609375" lon="-1.5283503569662570953369140625">
        <ele>1240</ele>
        <time>2021-09-25T07:16:42.000Z</time>
      </trkpt>
      <trkpt lat="40.7094450853765010833740234375" lon="-1.52827047742903232574462890625">
        <ele>1240.4000244140625</ele>
        <time>2021-09-25T07:16:44.000Z</time>
      </trkpt>
      <trkpt lat="40.70940577425062656402587890625" lon="-1.5282323397696018218994140625">
        <ele>1240.5999755859375</ele>
        <time>2021-09-25T07:16:45.000Z</time>
      </trkpt>
      <trkpt lat="40.7093652896583080291748046875" lon="-1.52819520793855190277099609375">
        <ele>1241</ele>
        <time>2021-09-25T07:16:46.000Z</time>
      </trkpt>
      <trkpt lat="40.7092449255287647247314453125" lon="-1.52808691374957561492919921875">
        <ele>1241.800048828125</ele>
        <time>2021-09-25T07:16:49.000Z</time>
      </trkpt>
      <trkpt lat="40.70916638709604740142822265625" lon="-1.52801759541034698486328125">
        <ele>1242.4000244140625</ele>
        <time>2021-09-25T07:16:51.000Z</time>
      </trkpt>
      <trkpt lat="40.70908826775848865509033203125" lon="-1.527951546013355255126953125">
        <ele>1243</ele>
        <time>2021-09-25T07:16:53.000Z</time>
      </trkpt>
      <trkpt lat="40.70905004628002643585205078125" lon="-1.52791969478130340576171875">
        <ele>1243.199951171875</ele>
        <time>2021-09-25T07:16:54.000Z</time>
      </trkpt>
      <trkpt lat="40.70901115424931049346923828125" lon="-1.52788759209215641021728515625">
        <ele>1243.199951171875</ele>
        <time>2021-09-25T07:16:55.000Z</time>
      </trkpt>
      <trkpt lat="40.70892850868403911590576171875" lon="-1.52782741002738475799560546875">
        <ele>1243.199951171875</ele>
        <time>2021-09-25T07:16:57.000Z</time>
      </trkpt>
      <trkpt lat="40.70885122753679752349853515625" lon="-1.5277693234384059906005859375">
        <ele>1243.5999755859375</ele>
        <time>2021-09-25T07:16:59.000Z</time>
      </trkpt>
      <trkpt lat="40.70877294056117534637451171875" lon="-1.5277086384594440460205078125">
        <ele>1244.199951171875</ele>
        <time>2021-09-25T07:17:01.000Z</time>
      </trkpt>
      <trkpt lat="40.70873170159757137298583984375" lon="-1.52767871506512165069580078125">
        <ele>1244.4000244140625</ele>
        <time>2021-09-25T07:17:02.000Z</time>
      </trkpt>
      <trkpt lat="40.70869130082428455352783203125" lon="-1.52764837257564067840576171875">
        <ele>1244.4000244140625</ele>
        <time>2021-09-25T07:17:03.000Z</time>
      </trkpt>
      <trkpt lat="40.7086063921451568603515625" lon="-1.527584083378314971923828125">
        <ele>1244.5999755859375</ele>
        <time>2021-09-25T07:17:05.000Z</time>
      </trkpt>
      <trkpt lat="40.708520896732807159423828125" lon="-1.52751996181905269622802734375">
        <ele>1244</ele>
        <time>2021-09-25T07:17:07.000Z</time>
      </trkpt>
      <trkpt lat="40.7083966769278049468994140625" lon="-1.52742742560803890228271484375">
        <ele>1243.4000244140625</ele>
        <time>2021-09-25T07:17:10.000Z</time>
      </trkpt>
      <trkpt lat="40.70827312767505645751953125" lon="-1.52733405120670795440673828125">
        <ele>1242.800048828125</ele>
        <time>2021-09-25T07:17:13.000Z</time>
      </trkpt>
      <trkpt lat="40.70823021233081817626953125" lon="-1.5273047983646392822265625">
        <ele>1242.5999755859375</ele>
        <time>2021-09-25T07:17:14.000Z</time>
      </trkpt>
      <trkpt lat="40.70810607634484767913818359375" lon="-1.52721653692424297332763671875">
        <ele>1242</ele>
        <time>2021-09-25T07:17:17.000Z</time>
      </trkpt>
      <trkpt lat="40.70802577771246433258056640625" lon="-1.5271534211933612823486328125">
        <ele>1242</ele>
        <time>2021-09-25T07:17:19.000Z</time>
      </trkpt>
      <trkpt lat="40.70798537693917751312255859375" lon="-1.5271222405135631561279296875">
        <ele>1242</ele>
        <time>2021-09-25T07:17:20.000Z</time>
      </trkpt>
      <trkpt lat="40.7079048268496990203857421875" lon="-1.52705979533493518829345703125">
        <ele>1242.199951171875</ele>
        <time>2021-09-25T07:17:22.000Z</time>
      </trkpt>
      <trkpt lat="40.707863084971904754638671875" lon="-1.52702945284545421600341796875">
        <ele>1242.199951171875</ele>
        <time>2021-09-25T07:17:23.000Z</time>
      </trkpt>
      <trkpt lat="40.70782360620796680450439453125" lon="-1.52699969708919525146484375">
        <ele>1242.199951171875</ele>
        <time>2021-09-25T07:17:24.000Z</time>
      </trkpt>
      <trkpt lat="40.70770072750747203826904296875" lon="-1.52691042982041835784912109375">
        <ele>1241.800048828125</ele>
        <time>2021-09-25T07:17:27.000Z</time>
      </trkpt>
      <trkpt lat="40.70765747688710689544677734375" lon="-1.52688159607350826263427734375">
        <ele>1241.800048828125</ele>
        <time>2021-09-25T07:17:28.000Z</time>
      </trkpt>
      <trkpt lat="40.707533173263072967529296875" lon="-1.5267903171479701995849609375">
        <ele>1241.4000244140625</ele>
        <time>2021-09-25T07:17:31.000Z</time>
      </trkpt>
      <trkpt lat="40.707452706992626190185546875" lon="-1.52673206292092800140380859375">
        <ele>1241</ele>
        <time>2021-09-25T07:17:33.000Z</time>
      </trkpt>
      <trkpt lat="40.70732873864471912384033203125" lon="-1.52665100991725921630859375">
        <ele>1241</ele>
        <time>2021-09-25T07:17:36.000Z</time>
      </trkpt>
      <trkpt lat="40.70724223740398883819580078125" lon="-1.5265948511660099029541015625">
        <ele>1241.199951171875</ele>
        <time>2021-09-25T07:17:38.000Z</time>
      </trkpt>
      <trkpt lat="40.707110054790973663330078125" lon="-1.52652301825582981109619140625">
        <ele>1241.5999755859375</ele>
        <time>2021-09-25T07:17:41.000Z</time>
      </trkpt>
      <trkpt lat="40.7070669718086719512939453125" lon="-1.5264986269176006317138671875">
        <ele>1241.800048828125</ele>
        <time>2021-09-25T07:17:42.000Z</time>
      </trkpt>
      <trkpt lat="40.70698021911084651947021484375" lon="-1.5264545381069183349609375">
        <ele>1242</ele>
        <time>2021-09-25T07:17:44.000Z</time>
      </trkpt>
      <trkpt lat="40.70684443227946758270263671875" lon="-1.52639351785182952880859375">
        <ele>1242</ele>
        <time>2021-09-25T07:17:47.000Z</time>
      </trkpt>
      <trkpt lat="40.70675189606845378875732421875" lon="-1.5263621695339679718017578125">
        <ele>1241.800048828125</ele>
        <time>2021-09-25T07:17:49.000Z</time>
      </trkpt>
      <trkpt lat="40.70665977895259857177734375" lon="-1.52633224613964557647705078125">
        <ele>1242</ele>
        <time>2021-09-25T07:17:51.000Z</time>
      </trkpt>
      <trkpt lat="40.70661476813256740570068359375" lon="-1.526318751275539398193359375">
        <ele>1242.199951171875</ele>
        <time>2021-09-25T07:17:52.000Z</time>
      </trkpt>
      <trkpt lat="40.706568248569965362548828125" lon="-1.52630525641143321990966796875">
        <ele>1242.199951171875</ele>
        <time>2021-09-25T07:17:53.000Z</time>
      </trkpt>
      <trkpt lat="40.70647613145411014556884765625" lon="-1.52627927251160144805908203125">
        <ele>1242.199951171875</ele>
        <time>2021-09-25T07:17:55.000Z</time>
      </trkpt>
      <trkpt lat="40.70638124831020832061767578125" lon="-1.5262615866959095001220703125">
        <ele>1242</ele>
        <time>2021-09-25T07:17:57.000Z</time>
      </trkpt>
      <trkpt lat="40.7062874548137187957763671875" lon="-1.52624893002212047576904296875">
        <ele>1242</ele>
        <time>2021-09-25T07:17:59.000Z</time>
      </trkpt>
      <trkpt lat="40.706191398203372955322265625" lon="-1.52623769827187061309814453125">
        <ele>1241.800048828125</ele>
        <time>2021-09-25T07:18:01.000Z</time>
      </trkpt>
      <trkpt lat="40.70614504627883434295654296875" lon="-1.52623258531093597412109375">
        <ele>1242</ele>
        <time>2021-09-25T07:18:02.000Z</time>
      </trkpt>
      <trkpt lat="40.70609726943075656890869140625" lon="-1.52622814290225505828857421875">
        <ele>1242</ele>
        <time>2021-09-25T07:18:03.000Z</time>
      </trkpt>
      <trkpt lat="40.70600154809653759002685546875" lon="-1.526222191751003265380859375">
        <ele>1242.4000244140625</ele>
        <time>2021-09-25T07:18:05.000Z</time>
      </trkpt>
      <trkpt lat="40.7059054076671600341796875" lon="-1.5262176655232906341552734375">
        <ele>1242.5999755859375</ele>
        <time>2021-09-25T07:18:07.000Z</time>
      </trkpt>
      <trkpt lat="40.70580909959971904754638671875" lon="-1.526214815676212310791015625">
        <ele>1243</ele>
        <time>2021-09-25T07:18:09.000Z</time>
      </trkpt>
      <trkpt lat="40.70571119897067546844482421875" lon="-1.52621657587587833404541015625">
        <ele>1243.5999755859375</ele>
        <time>2021-09-25T07:18:11.000Z</time>
      </trkpt>
      <trkpt lat="40.70566141046583652496337890625" lon="-1.52621557004749774932861328125">
        <ele>1244</ele>
        <time>2021-09-25T07:18:12.000Z</time>
      </trkpt>
      <trkpt lat="40.7056128792464733123779296875" lon="-1.5262163244187831878662109375">
        <ele>1244.4000244140625</ele>
        <time>2021-09-25T07:18:13.000Z</time>
      </trkpt>
      <trkpt lat="40.705514140427112579345703125" lon="-1.52622051537036895751953125">
        <ele>1244.800048828125</ele>
        <time>2021-09-25T07:18:15.000Z</time>
      </trkpt>
      <trkpt lat="40.7054147310554981231689453125" lon="-1.5262238681316375732421875">
        <ele>1245</ele>
        <time>2021-09-25T07:18:17.000Z</time>
      </trkpt>
      <trkpt lat="40.7053198479115962982177734375" lon="-1.526227891445159912109375">
        <ele>1245.4000244140625</ele>
        <time>2021-09-25T07:18:19.000Z</time>
      </trkpt>
      <trkpt lat="40.7052229531109333038330078125" lon="-1.5262317471206188201904296875">
        <ele>1245.4000244140625</ele>
        <time>2021-09-25T07:18:21.000Z</time>
      </trkpt>
      <trkpt lat="40.70513091981410980224609375" lon="-1.526236943900585174560546875">
        <ele>1245.4000244140625</ele>
        <time>2021-09-25T07:18:23.000Z</time>
      </trkpt>
      <trkpt lat="40.7050363719463348388671875" lon="-1.52623887173831462860107421875">
        <ele>1245.4000244140625</ele>
        <time>2021-09-25T07:18:25.000Z</time>
      </trkpt>
      <trkpt lat="40.70494056679308414459228515625" lon="-1.526240296661853790283203125">
        <ele>1245</ele>
        <time>2021-09-25T07:18:27.000Z</time>
      </trkpt>
      <trkpt lat="40.70484350435435771942138671875" lon="-1.526243649423122406005859375">
        <ele>1244.5999755859375</ele>
        <time>2021-09-25T07:18:29.000Z</time>
      </trkpt>
      <trkpt lat="40.70474828593432903289794921875" lon="-1.526243984699249267578125">
        <ele>1244.4000244140625</ele>
        <time>2021-09-25T07:18:31.000Z</time>
      </trkpt>
      <trkpt lat="40.7046985812485218048095703125" lon="-1.52624356560409069061279296875">
        <ele>1244.199951171875</ele>
        <time>2021-09-25T07:18:32.000Z</time>
      </trkpt>
      <trkpt lat="40.70464954711496829986572265625" lon="-1.52624289505183696746826171875">
        <ele>1244</ele>
        <time>2021-09-25T07:18:33.000Z</time>
      </trkpt>
      <trkpt lat="40.704553909599781036376953125" lon="-1.5262401290237903594970703125">
        <ele>1243.199951171875</ele>
        <time>2021-09-25T07:18:35.000Z</time>
      </trkpt>
      <trkpt lat="40.7044578529894351959228515625" lon="-1.52623820118606090545654296875">
        <ele>1242.800048828125</ele>
        <time>2021-09-25T07:18:37.000Z</time>
      </trkpt>
      <trkpt lat="40.704361461102962493896484375" lon="-1.52623216621577739715576171875">
        <ele>1242.5999755859375</ele>
        <time>2021-09-25T07:18:39.000Z</time>
      </trkpt>
      <trkpt lat="40.70426196791231632232666015625" lon="-1.52622722089290618896484375">
        <ele>1242.800048828125</ele>
        <time>2021-09-25T07:18:41.000Z</time>
      </trkpt>
      <trkpt lat="40.7042117603123188018798828125" lon="-1.52622479014098644256591796875">
        <ele>1243</ele>
        <time>2021-09-25T07:18:42.000Z</time>
      </trkpt>
      <trkpt lat="40.7041624747216701507568359375" lon="-1.52622051537036895751953125">
        <ele>1243.199951171875</ele>
        <time>2021-09-25T07:18:43.000Z</time>
      </trkpt>
      <trkpt lat="40.70406432263553142547607421875" lon="-1.526208780705928802490234375">
        <ele>1243.5999755859375</ele>
        <time>2021-09-25T07:18:45.000Z</time>
      </trkpt>
      <trkpt lat="40.70396826602518558502197265625" lon="-1.5261915139853954315185546875">
        <ele>1244</ele>
        <time>2021-09-25T07:18:47.000Z</time>
      </trkpt>
      <trkpt lat="40.703870952129364013671875" lon="-1.5261675417423248291015625">
        <ele>1244.199951171875</ele>
        <time>2021-09-25T07:18:49.000Z</time>
      </trkpt>
      <trkpt lat="40.70377782918512821197509765625" lon="-1.526140384376049041748046875">
        <ele>1244.5999755859375</ele>
        <time>2021-09-25T07:18:51.000Z</time>
      </trkpt>
      <trkpt lat="40.70368797518312931060791015625" lon="-1.52611230500042438507080078125">
        <ele>1245</ele>
        <time>2021-09-25T07:18:53.000Z</time>
      </trkpt>
      <trkpt lat="40.70359803736209869384765625" lon="-1.5260832197964191436767578125">
        <ele>1244.199951171875</ele>
        <time>2021-09-25T07:18:55.000Z</time>
      </trkpt>
      <trkpt lat="40.7035101950168609619140625" lon="-1.52604860253632068634033203125">
        <ele>1243.4000244140625</ele>
        <time>2021-09-25T07:18:57.000Z</time>
      </trkpt>
      <trkpt lat="40.7034198381006717681884765625" lon="-1.52601524256169795989990234375">
        <ele>1242.800048828125</ele>
        <time>2021-09-25T07:18:59.000Z</time>
      </trkpt>
      <trkpt lat="40.70333157666027545928955078125" lon="-1.52597718872129917144775390625">
        <ele>1242.4000244140625</ele>
        <time>2021-09-25T07:19:01.000Z</time>
      </trkpt>
      <trkpt lat="40.703244321048259735107421875" lon="-1.5259353630244731903076171875">
        <ele>1242.4000244140625</ele>
        <time>2021-09-25T07:19:03.000Z</time>
      </trkpt>
      <trkpt lat="40.70315153338015079498291015625" lon="-1.525892280042171478271484375">
        <ele>1242.199951171875</ele>
        <time>2021-09-25T07:19:05.000Z</time>
      </trkpt>
      <trkpt lat="40.703061260282993316650390625" lon="-1.52584676630795001983642578125">
        <ele>1242.199951171875</ele>
        <time>2021-09-25T07:19:07.000Z</time>
      </trkpt>
      <trkpt lat="40.702973417937755584716796875" lon="-1.52579613961279392242431640625">
        <ele>1242.4000244140625</ele>
        <time>2021-09-25T07:19:09.000Z</time>
      </trkpt>
      <trkpt lat="40.7029299996793270111083984375" lon="-1.52577183209359645843505859375">
        <ele>1242.4000244140625</ele>
        <time>2021-09-25T07:19:10.000Z</time>
      </trkpt>
      <trkpt lat="40.702886916697025299072265625" lon="-1.52574383653700351715087890625">
        <ele>1242.4000244140625</ele>
        <time>2021-09-25T07:19:11.000Z</time>
      </trkpt>
      <trkpt lat="40.702801086008548736572265625" lon="-1.52568700723350048065185546875">
        <ele>1241.800048828125</ele>
        <time>2021-09-25T07:19:13.000Z</time>
      </trkpt>
      <trkpt lat="40.70271668024361133575439453125" lon="-1.52562799863517284393310546875">
        <ele>1241.199951171875</ele>
        <time>2021-09-25T07:19:15.000Z</time>
      </trkpt>
      <trkpt lat="40.702632106840610504150390625" lon="-1.5255653858184814453125">
        <ele>1241</ele>
        <time>2021-09-25T07:19:17.000Z</time>
      </trkpt>
      <trkpt lat="40.70254686288535594940185546875" lon="-1.5255010128021240234375">
        <ele>1240.800048828125</ele>
        <time>2021-09-25T07:19:19.000Z</time>
      </trkpt>
      <trkpt lat="40.7025015167891979217529296875" lon="-1.5254674851894378662109375">
        <ele>1240.5999755859375</ele>
        <time>2021-09-25T07:19:20.000Z</time>
      </trkpt>
      <trkpt lat="40.7024586014449596405029296875" lon="-1.5254341252148151397705078125">
        <ele>1240.5999755859375</ele>
        <time>2021-09-25T07:19:21.000Z</time>
      </trkpt>
      <trkpt lat="40.70237788371741771697998046875" lon="-1.52536329813301563262939453125">
        <ele>1240.199951171875</ele>
        <time>2021-09-25T07:19:23.000Z</time>
      </trkpt>
      <trkpt lat="40.70229389704763889312744140625" lon="-1.5252892859280109405517578125">
        <ele>1240</ele>
        <time>2021-09-25T07:19:25.000Z</time>
      </trkpt>
      <trkpt lat="40.70221527479588985443115234375" lon="-1.5252192132174968719482421875">
        <ele>1240.199951171875</ele>
        <time>2021-09-25T07:19:27.000Z</time>
      </trkpt>
      <trkpt lat="40.70214352570474147796630859375" lon="-1.52513824403285980224609375">
        <ele>1240.4000244140625</ele>
        <time>2021-09-25T07:19:29.000Z</time>
      </trkpt>
      <trkpt lat="40.70210538804531097412109375" lon="-1.52510127983987331390380859375">
        <ele>1240.5999755859375</ele>
        <time>2021-09-25T07:19:30.000Z</time>
      </trkpt>
      <trkpt lat="40.70207010023295879364013671875" lon="-1.525061130523681640625">
        <ele>1240.800048828125</ele>
        <time>2021-09-25T07:19:31.000Z</time>
      </trkpt>
      <trkpt lat="40.70199684239923954010009765625" lon="-1.52498728595674037933349609375">
        <ele>1241</ele>
        <time>2021-09-25T07:19:33.000Z</time>
      </trkpt>
      <trkpt lat="40.7019265182316303253173828125" lon="-1.524907909333705902099609375">
        <ele>1241.199951171875</ele>
        <time>2021-09-25T07:19:35.000Z</time>
      </trkpt>
      <trkpt lat="40.7018571160733699798583984375" lon="-1.52482350356876850128173828125">
        <ele>1241.5999755859375</ele>
        <time>2021-09-25T07:19:37.000Z</time>
      </trkpt>
      <trkpt lat="40.701787881553173065185546875" lon="-1.524739600718021392822265625">
        <ele>1241.800048828125</ele>
        <time>2021-09-25T07:19:39.000Z</time>
      </trkpt>
      <trkpt lat="40.7017260231077671051025390625" lon="-1.524651758372783660888671875">
        <ele>1242.199951171875</ele>
        <time>2021-09-25T07:19:41.000Z</time>
      </trkpt>
      <trkpt lat="40.70166676305234432220458984375" lon="-1.524563916027545928955078125">
        <ele>1243.199951171875</ele>
        <time>2021-09-25T07:19:43.000Z</time>
      </trkpt>
      <trkpt lat="40.70159954018890857696533203125" lon="-1.52448135428130626678466796875">
        <ele>1243.800048828125</ele>
        <time>2021-09-25T07:19:45.000Z</time>
      </trkpt>
      <trkpt lat="40.70154371671378612518310546875" lon="-1.524384878575801849365234375">
        <ele>1244.199951171875</ele>
        <time>2021-09-25T07:19:47.000Z</time>
      </trkpt>
      <trkpt lat="40.70148386992514133453369140625" lon="-1.52428538538515567779541015625">
        <ele>1244.800048828125</ele>
        <time>2021-09-25T07:19:49.000Z</time>
      </trkpt>
      <trkpt lat="40.70142603479325771331787109375" lon="-1.52418429963290691375732421875">
        <ele>1245.199951171875</ele>
        <time>2021-09-25T07:19:51.000Z</time>
      </trkpt>
      <trkpt lat="40.70136509835720062255859375" lon="-1.5240886621177196502685546875">
        <ele>1245.199951171875</ele>
        <time>2021-09-25T07:19:53.000Z</time>
      </trkpt>
      <trkpt lat="40.70130969397723674774169921875" lon="-1.52398682199418544769287109375">
        <ele>1245.4000244140625</ele>
        <time>2021-09-25T07:19:55.000Z</time>
      </trkpt>
      <trkpt lat="40.7012556307017803192138671875" lon="-1.52388523332774639129638671875">
        <ele>1245.5999755859375</ele>
        <time>2021-09-25T07:19:57.000Z</time>
      </trkpt>
      <trkpt lat="40.70120123215019702911376953125" lon="-1.52377928607165813446044921875">
        <ele>1245.800048828125</ele>
        <time>2021-09-25T07:19:59.000Z</time>
      </trkpt>
      <trkpt lat="40.70115043781697750091552734375" lon="-1.523674093186855316162109375">
        <ele>1246.199951171875</ele>
        <time>2021-09-25T07:20:01.000Z</time>
      </trkpt>
      <trkpt lat="40.70112504065036773681640625" lon="-1.52361935935914516448974609375">
        <ele>1246.199951171875</ele>
        <time>2021-09-25T07:20:02.000Z</time>
      </trkpt>
      <trkpt lat="40.70110098458826541900634765625" lon="-1.523565463721752166748046875">
        <ele>1246</ele>
        <time>2021-09-25T07:20:03.000Z</time>
      </trkpt>
      <trkpt lat="40.70105605758726596832275390625" lon="-1.5234539844095706939697265625">
        <ele>1245.800048828125</ele>
        <time>2021-09-25T07:20:05.000Z</time>
      </trkpt>
      <trkpt lat="40.7010128907859325408935546875" lon="-1.52334325946867465972900390625">
        <ele>1245.5999755859375</ele>
        <time>2021-09-25T07:20:07.000Z</time>
      </trkpt>
      <trkpt lat="40.70097173564136028289794921875" lon="-1.52323253452777862548828125">
        <ele>1245.5999755859375</ele>
        <time>2021-09-25T07:20:09.000Z</time>
      </trkpt>
      <trkpt lat="40.70092949084937572479248046875" lon="-1.523118875920772552490234375">
        <ele>1245.199951171875</ele>
        <time>2021-09-25T07:20:11.000Z</time>
      </trkpt>
      <trkpt lat="40.70088942535221576690673828125" lon="-1.52300655841827392578125">
        <ele>1245</ele>
        <time>2021-09-25T07:20:13.000Z</time>
      </trkpt>
      <trkpt lat="40.70086545310914516448974609375" lon="-1.52295048348605632781982421875">
        <ele>1245.199951171875</ele>
        <time>2021-09-25T07:20:14.000Z</time>
      </trkpt>
      <trkpt lat="40.700843743979930877685546875" lon="-1.5228944085538387298583984375">
        <ele>1245.4000244140625</ele>
        <time>2021-09-25T07:20:15.000Z</time>
      </trkpt>
      <trkpt lat="40.70080208592116832733154296875" lon="-1.5227790735661983489990234375">
        <ele>1245.5999755859375</ele>
        <time>2021-09-25T07:20:17.000Z</time>
      </trkpt>
      <trkpt lat="40.70076034404337406158447265625" lon="-1.52266792953014373779296875">
        <ele>1245.5999755859375</ele>
        <time>2021-09-25T07:20:19.000Z</time>
      </trkpt>
      <trkpt lat="40.70071742869913578033447265625" lon="-1.52256089262664318084716796875">
        <ele>1245.4000244140625</ele>
        <time>2021-09-25T07:20:21.000Z</time>
      </trkpt>
      <trkpt lat="40.70067216642200946807861328125" lon="-1.522456705570220947265625">
        <ele>1245.4000244140625</ele>
        <time>2021-09-25T07:20:23.000Z</time>
      </trkpt>
      <trkpt lat="40.70062355138361454010009765625" lon="-1.52235553599894046783447265625">
        <ele>1245.4000244140625</ele>
        <time>2021-09-25T07:20:25.000Z</time>
      </trkpt>
      <trkpt lat="40.7005753554403781890869140625" lon="-1.522254534065723419189453125">
        <ele>1245.4000244140625</ele>
        <time>2021-09-25T07:20:27.000Z</time>
      </trkpt>
      <trkpt lat="40.70052045397460460662841796875" lon="-1.522157303988933563232421875">
        <ele>1245.4000244140625</ele>
        <time>2021-09-25T07:20:29.000Z</time>
      </trkpt>
      <trkpt lat="40.7004658877849578857421875" lon="-1.52206200174987316131591796875">
        <ele>1245.4000244140625</ele>
        <time>2021-09-25T07:20:31.000Z</time>
      </trkpt>
      <trkpt lat="40.7004144228994846343994140625" lon="-1.52196007780730724334716796875">
        <ele>1244.800048828125</ele>
        <time>2021-09-25T07:20:33.000Z</time>
      </trkpt>
      <trkpt lat="40.70038332603871822357177734375" lon="-1.52191230095922946929931640625">
        <ele>1244.5999755859375</ele>
        <time>2021-09-25T07:20:34.000Z</time>
      </trkpt>
      <trkpt lat="40.7003527320921421051025390625" lon="-1.521863602101802825927734375">
        <ele>1244.5999755859375</ele>
        <time>2021-09-25T07:20:35.000Z</time>
      </trkpt>
      <trkpt lat="40.70029330439865589141845703125" lon="-1.5217685513198375701904296875">
        <ele>1244.4000244140625</ele>
        <time>2021-09-25T07:20:37.000Z</time>
      </trkpt>
      <trkpt lat="40.70023178122937679290771484375" lon="-1.521678864955902099609375">
        <ele>1244.4000244140625</ele>
        <time>2021-09-25T07:20:39.000Z</time>
      </trkpt>
      <trkpt lat="40.70016992278397083282470703125" lon="-1.521590016782283782958984375">
        <ele>1244.199951171875</ele>
        <time>2021-09-25T07:20:41.000Z</time>
      </trkpt>
      <trkpt lat="40.70011024363338947296142578125" lon="-1.52149957604706287384033203125">
        <ele>1244.199951171875</ele>
        <time>2021-09-25T07:20:43.000Z</time>
      </trkpt>
      <trkpt lat="40.70007897913455963134765625" lon="-1.521458923816680908203125">
        <ele>1244.199951171875</ele>
        <time>2021-09-25T07:20:44.000Z</time>
      </trkpt>
      <trkpt lat="40.70004754699766635894775390625" lon="-1.521417014300823211669921875">
        <ele>1244.199951171875</ele>
        <time>2021-09-25T07:20:45.000Z</time>
      </trkpt>
      <trkpt lat="40.699985437095165252685546875" lon="-1.52133160270750522613525390625">
        <ele>1244.199951171875</ele>
        <time>2021-09-25T07:20:47.000Z</time>
      </trkpt>
      <trkpt lat="40.69991813041269779205322265625" lon="-1.52124694548547267913818359375">
        <ele>1244.4000244140625</ele>
        <time>2021-09-25T07:20:49.000Z</time>
      </trkpt>
      <trkpt lat="40.699845962226390838623046875" lon="-1.521172262728214263916015625">
        <ele>1244.199951171875</ele>
        <time>2021-09-25T07:20:51.000Z</time>
      </trkpt>
      <trkpt lat="40.6997807510197162628173828125" lon="-1.52109749615192413330078125">
        <ele>1244</ele>
        <time>2021-09-25T07:20:53.000Z</time>
      </trkpt>
      <trkpt lat="40.69971445016562938690185546875" lon="-1.52102096937596797943115234375">
        <ele>1244.199951171875</ele>
        <time>2021-09-25T07:20:55.000Z</time>
      </trkpt>
      <trkpt lat="40.6996452994644641876220703125" lon="-1.52094804681837558746337890625">
        <ele>1244.4000244140625</ele>
        <time>2021-09-25T07:20:57.000Z</time>
      </trkpt>
      <trkpt lat="40.69957472383975982666015625" lon="-1.52087378315627574920654296875">
        <ele>1244.800048828125</ele>
        <time>2021-09-25T07:20:59.000Z</time>
      </trkpt>
      <trkpt lat="40.69950557313859462738037109375" lon="-1.520800776779651641845703125">
        <ele>1244.800048828125</ele>
        <time>2021-09-25T07:21:01.000Z</time>
      </trkpt>
      <trkpt lat="40.699433572590351104736328125" lon="-1.5207298658788204193115234375">
        <ele>1244.800048828125</ele>
        <time>2021-09-25T07:21:03.000Z</time>
      </trkpt>
      <trkpt lat="40.69939727894961833953857421875" lon="-1.5206960029900074005126953125">
        <ele>1244.800048828125</ele>
        <time>2021-09-25T07:21:04.000Z</time>
      </trkpt>
      <trkpt lat="40.6993613205850124359130859375" lon="-1.520659960806369781494140625">
        <ele>1244.800048828125</ele>
        <time>2021-09-25T07:21:05.000Z</time>
      </trkpt>
      <trkpt lat="40.6992912478744983673095703125" lon="-1.52059257030487060546875">
        <ele>1244.800048828125</ele>
        <time>2021-09-25T07:21:07.000Z</time>
      </trkpt>
      <trkpt lat="40.69922360591590404510498046875" lon="-1.52052409015595912933349609375">
        <ele>1244.800048828125</ele>
        <time>2021-09-25T07:21:09.000Z</time>
      </trkpt>
      <trkpt lat="40.69915319792926311492919921875" lon="-1.52045510709285736083984375">
        <ele>1244.800048828125</ele>
        <time>2021-09-25T07:21:11.000Z</time>
      </trkpt>
      <trkpt lat="40.69908161647617816925048828125" lon="-1.5203976072371006011962890625">
        <ele>1245</ele>
        <time>2021-09-25T07:21:13.000Z</time>
      </trkpt>
      <trkpt lat="40.699015147984027862548828125" lon="-1.52033507823944091796875">
        <ele>1245</ele>
        <time>2021-09-25T07:21:15.000Z</time>
      </trkpt>
      <trkpt lat="40.69894767366349697113037109375" lon="-1.52026877738535404205322265625">
        <ele>1245</ele>
        <time>2021-09-25T07:21:17.000Z</time>
      </trkpt>
      <trkpt lat="40.698891766369342803955078125" lon="-1.52020909823477268218994140625">
        <ele>1244.800048828125</ele>
        <time>2021-09-25T07:21:19.000Z</time>
      </trkpt>
      <trkpt lat="40.69883066229522228240966796875" lon="-1.52015495114028453826904296875">
        <ele>1244.5999755859375</ele>
        <time>2021-09-25T07:21:21.000Z</time>
      </trkpt>
      <trkpt lat="40.69877031259238719940185546875" lon="-1.52009359560906887054443359375">
        <ele>1244.5999755859375</ele>
        <time>2021-09-25T07:21:23.000Z</time>
      </trkpt>
      <trkpt lat="40.69870476610958576202392578125" lon="-1.5200294740498065948486328125">
        <ele>1244.800048828125</ele>
        <time>2021-09-25T07:21:25.000Z</time>
      </trkpt>
      <trkpt lat="40.6986377947032451629638671875" lon="-1.519963257014751434326171875">
        <ele>1245.4000244140625</ele>
        <time>2021-09-25T07:21:27.000Z</time>
      </trkpt>
      <trkpt lat="40.6986035965383052825927734375" lon="-1.5199309028685092926025390625">
        <ele>1245.800048828125</ele>
        <time>2021-09-25T07:21:28.000Z</time>
      </trkpt>
      <trkpt lat="40.6985680572688579559326171875" lon="-1.51990030892193317413330078125">
        <ele>1246</ele>
        <time>2021-09-25T07:21:29.000Z</time>
      </trkpt>
      <trkpt lat="40.6985365413129329681396484375" lon="-1.51986862532794475555419921875">
        <ele>1246.4000244140625</ele>
        <time>2021-09-25T07:21:30.000Z</time>
      </trkpt>
      <trkpt lat="40.69851122796535491943359375" lon="-1.519843898713588714599609375">
        <ele>1246.5999755859375</ele>
        <time>2021-09-25T07:21:31.000Z</time>
      </trkpt>
      <trkpt lat="40.69846990518271923065185546875" lon="-1.519812047481536865234375">
        <ele>1247.199951171875</ele>
        <time>2021-09-25T07:21:33.000Z</time>
      </trkpt>
      <trkpt lat="40.6984440051019191741943359375" lon="-1.51978321373462677001953125">
        <ele>1247.4000244140625</ele>
        <time>2021-09-25T07:21:35.000Z</time>
      </trkpt>
      <trkpt lat="40.69842078723013401031494140625" lon="-1.5197465009987354278564453125">
        <ele>1247.5999755859375</ele>
        <time>2021-09-25T07:21:37.000Z</time>
      </trkpt>
      <trkpt lat="40.69838675670325756072998046875" lon="-1.5197166614234447479248046875">
        <ele>1248</ele>
        <time>2021-09-25T07:21:39.000Z</time>
      </trkpt>
      <trkpt lat="40.6983705796301364898681640625" lon="-1.5197052620351314544677734375">
        <ele>1248.199951171875</ele>
        <time>2021-09-25T07:21:40.000Z</time>
      </trkpt>
      <trkpt lat="40.6983549892902374267578125" lon="-1.51969377882778644561767578125">
        <ele>1248.4000244140625</ele>
        <time>2021-09-25T07:21:41.000Z</time>
      </trkpt>
      <trkpt lat="40.69832322187721729278564453125" lon="-1.5196667052805423736572265625">
        <ele>1248.5999755859375</ele>
        <time>2021-09-25T07:21:43.000Z</time>
      </trkpt>
      <trkpt lat="40.6982921250164508819580078125" lon="-1.51963627897202968597412109375">
        <ele>1249</ele>
        <time>2021-09-25T07:21:45.000Z</time>
      </trkpt>
      <trkpt lat="40.69825918413698673248291015625" lon="-1.5196001529693603515625">
        <ele>1249.4000244140625</ele>
        <time>2021-09-25T07:21:47.000Z</time>
      </trkpt>
      <trkpt lat="40.6982156820595264434814453125" lon="-1.519565619528293609619140625">
        <ele>1249.5999755859375</ele>
        <time>2021-09-25T07:21:49.000Z</time>
      </trkpt>
      <trkpt lat="40.69817435927689075469970703125" lon="-1.51952982880175113677978515625">
        <ele>1249.800048828125</ele>
        <time>2021-09-25T07:21:51.000Z</time>
      </trkpt>
      <trkpt lat="40.69814753718674182891845703125" lon="-1.5194812975823879241943359375">
        <ele>1249.800048828125</ele>
        <time>2021-09-25T07:21:53.000Z</time>
      </trkpt>
      <trkpt lat="40.69811694324016571044921875" lon="-1.51945824734866619110107421875">
        <ele>1250</ele>
        <time>2021-09-25T07:21:55.000Z</time>
      </trkpt>
      <trkpt lat="40.6981082260608673095703125" lon="-1.51945221237838268280029296875">
        <ele>1250</ele>
        <time>2021-09-25T07:21:56.000Z</time>
      </trkpt>
      <trkpt lat="40.69809942506253719329833984375" lon="-1.51944852434098720550537109375">
        <ele>1250</ele>
        <time>2021-09-25T07:21:57.000Z</time>
      </trkpt>
      <trkpt lat="40.6981003470718860626220703125" lon="-1.51944818906486034393310546875">
        <ele>1250</ele>
        <time>2021-09-25T07:21:58.000Z</time>
      </trkpt>
      <trkpt lat="40.69807981140911579132080078125" lon="-1.51941834948956966400146484375">
        <ele>1249.800048828125</ele>
        <time>2021-09-25T07:22:21.000Z</time>
      </trkpt>
      <trkpt lat="40.6980617903172969818115234375" lon="-1.51939286850392818450927734375">
        <ele>1249.800048828125</ele>
        <time>2021-09-25T07:22:23.000Z</time>
      </trkpt>
      <trkpt lat="40.69803287275135517120361328125" lon="-1.51936805807054042816162109375">
        <ele>1249.800048828125</ele>
        <time>2021-09-25T07:22:25.000Z</time>
      </trkpt>
      <trkpt lat="40.6980089843273162841796875" lon="-1.519348360598087310791015625">
        <ele>1249.5999755859375</ele>
        <time>2021-09-25T07:22:27.000Z</time>
      </trkpt>
      <trkpt lat="40.6979887001216411590576171875" lon="-1.51933729648590087890625">
        <ele>1249.5999755859375</ele>
        <time>2021-09-25T07:22:28.000Z</time>
      </trkpt>
      <trkpt lat="40.69796883501112461090087890625" lon="-1.5193220414221286773681640625">
        <ele>1249.4000244140625</ele>
        <time>2021-09-25T07:22:29.000Z</time>
      </trkpt>
      <trkpt lat="40.6979290209710597991943359375" lon="-1.51929639279842376708984375">
        <ele>1249.199951171875</ele>
        <time>2021-09-25T07:22:31.000Z</time>
      </trkpt>
      <trkpt lat="40.69788627326488494873046875" lon="-1.5192576684057712554931640625">
        <ele>1248.5999755859375</ele>
        <time>2021-09-25T07:22:33.000Z</time>
      </trkpt>
      <trkpt lat="40.6978332996368408203125" lon="-1.5192125737667083740234375">
        <ele>1248.199951171875</ele>
        <time>2021-09-25T07:22:35.000Z</time>
      </trkpt>
      <trkpt lat="40.69780656136572360992431640625" lon="-1.5191845782101154327392578125">
        <ele>1248</ele>
        <time>2021-09-25T07:22:36.000Z</time>
      </trkpt>
      <trkpt lat="40.69777856580913066864013671875" lon="-1.51915566064417362213134765625">
        <ele>1247.800048828125</ele>
        <time>2021-09-25T07:22:37.000Z</time>
      </trkpt>
      <trkpt lat="40.697713606059551239013671875" lon="-1.51909162290394306182861328125">
        <ele>1247.5999755859375</ele>
        <time>2021-09-25T07:22:39.000Z</time>
      </trkpt>
      <trkpt lat="40.6976401805877685546875" lon="-1.51902557350695133209228515625">
        <ele>1246.800048828125</ele>
        <time>2021-09-25T07:22:41.000Z</time>
      </trkpt>
      <trkpt lat="40.69756952114403247833251953125" lon="-1.5189497172832489013671875">
        <ele>1245.5999755859375</ele>
        <time>2021-09-25T07:22:43.000Z</time>
      </trkpt>
      <trkpt lat="40.6975344009697437286376953125" lon="-1.5189096517860889434814453125">
        <ele>1245.199951171875</ele>
        <time>2021-09-25T07:22:44.000Z</time>
      </trkpt>
      <trkpt lat="40.69749626331031322479248046875" lon="-1.51886950246989727020263671875">
        <ele>1245</ele>
        <time>2021-09-25T07:22:45.000Z</time>
      </trkpt>
      <trkpt lat="40.69741998799145221710205078125" lon="-1.5187995135784149169921875">
        <ele>1244.5999755859375</ele>
        <time>2021-09-25T07:22:47.000Z</time>
      </trkpt>
      <trkpt lat="40.69737187586724758148193359375" lon="-1.51874645613133907318115234375">
        <ele>1244.4000244140625</ele>
        <time>2021-09-25T07:22:49.000Z</time>
      </trkpt>
      <trkpt lat="40.697354190051555633544921875" lon="-1.5187222324311733245849609375">
        <ele>1244.4000244140625</ele>
        <time>2021-09-25T07:22:51.000Z</time>
      </trkpt>
      <trkpt lat="40.697354190051555633544921875" lon="-1.5187222324311733245849609375">
        <ele>1244.4000244140625</ele>
        <time>2021-09-25T07:22:52.000Z</time>
      </trkpt>
      <trkpt lat="40.69743289612233638763427734375" lon="-1.51879657991230487823486328125">
        <ele>1244.5999755859375</ele>
        <time>2021-09-25T07:22:59.000Z</time>
      </trkpt>
      <trkpt lat="40.69745468907058238983154296875" lon="-1.5188147686421871185302734375">
        <ele>1244.800048828125</ele>
        <time>2021-09-25T07:23:00.000Z</time>
      </trkpt>
      <trkpt lat="40.69747581146657466888427734375" lon="-1.518832035362720489501953125">
        <ele>1244.800048828125</ele>
        <time>2021-09-25T07:23:01.000Z</time>
      </trkpt>
      <trkpt lat="40.69753247313201427459716796875" lon="-1.51888425461947917938232421875">
        <ele>1245</ele>
        <time>2021-09-25T07:23:03.000Z</time>
      </trkpt>
      <trkpt lat="40.69759533740580081939697265625" lon="-1.5189435146749019622802734375">
        <ele>1245.800048828125</ele>
        <time>2021-09-25T07:23:05.000Z</time>
      </trkpt>
      <trkpt lat="40.6976608000695705413818359375" lon="-1.5190092287957668304443359375">
        <ele>1247</ele>
        <time>2021-09-25T07:23:07.000Z</time>
      </trkpt>
      <trkpt lat="40.69772240705788135528564453125" lon="-1.5190756134688854217529296875">
        <ele>1247.5999755859375</ele>
        <time>2021-09-25T07:23:09.000Z</time>
      </trkpt>
      <trkpt lat="40.6977835111320018768310546875" lon="-1.519133783876895904541015625">
        <ele>1247.800048828125</ele>
        <time>2021-09-25T07:23:11.000Z</time>
      </trkpt>
      <trkpt lat="40.6978395022451877593994140625" lon="-1.5191922895610332489013671875">
        <ele>1248.199951171875</ele>
        <time>2021-09-25T07:23:13.000Z</time>
      </trkpt>
      <trkpt lat="40.69786238484084606170654296875" lon="-1.51921886019408702850341796875">
        <ele>1248.4000244140625</ele>
        <time>2021-09-25T07:23:14.000Z</time>
      </trkpt>
      <trkpt lat="40.6978810764849185943603515625" lon="-1.51923931203782558441162109375">
        <ele>1248.5999755859375</ele>
        <time>2021-09-25T07:23:15.000Z</time>
      </trkpt>
      <trkpt lat="40.69791435264050960540771484375" lon="-1.51927418075501918792724609375">
        <ele>1249</ele>
        <time>2021-09-25T07:23:17.000Z</time>
      </trkpt>
      <trkpt lat="40.697963722050189971923828125" lon="-1.51932455599308013916015625">
        <ele>1249.4000244140625</ele>
        <time>2021-09-25T07:23:19.000Z</time>
      </trkpt>
      <trkpt lat="40.69801845587790012359619140625" lon="-1.51938599534332752227783203125">
        <ele>1249.5999755859375</ele>
        <time>2021-09-25T07:23:21.000Z</time>
      </trkpt>
      <trkpt lat="40.6980679929256439208984375" lon="-1.519432850182056427001953125">
        <ele>1249.800048828125</ele>
        <time>2021-09-25T07:23:23.000Z</time>
      </trkpt>
      <trkpt lat="40.69809548556804656982421875" lon="-1.51944131590425968170166015625">
        <ele>1250</ele>
        <time>2021-09-25T07:23:24.000Z</time>
      </trkpt>
      <trkpt lat="40.69811535067856311798095703125" lon="-1.51943586766719818115234375">
        <ele>1250</ele>
        <time>2021-09-25T07:23:25.000Z</time>
      </trkpt>
      <trkpt lat="40.69813680835068225860595703125" lon="-1.5193917788565158843994140625">
        <ele>1250</ele>
        <time>2021-09-25T07:23:27.000Z</time>
      </trkpt>
      <trkpt lat="40.69813932292163372039794921875" lon="-1.51935799978673458099365234375">
        <ele>1250</ele>
        <time>2021-09-25T07:23:28.000Z</time>
      </trkpt>
      <trkpt lat="40.69813244976103305816650390625" lon="-1.51932396925985813140869140625">
        <ele>1250</ele>
        <time>2021-09-25T07:23:29.000Z</time>
      </trkpt>
      <trkpt lat="40.69809640757739543914794921875" lon="-1.51927149854600429534912109375">
        <ele>1250</ele>
        <time>2021-09-25T07:23:31.000Z</time>
      </trkpt>
      <trkpt lat="40.69804427213966846466064453125" lon="-1.51922338642179965972900390625">
        <ele>1249.800048828125</ele>
        <time>2021-09-25T07:23:33.000Z</time>
      </trkpt>
      <trkpt lat="40.69798417389392852783203125" lon="-1.51916001923382282257080078125">
        <ele>1249</ele>
        <time>2021-09-25T07:23:35.000Z</time>
      </trkpt>
      <trkpt lat="40.6979467906057834625244140625" lon="-1.5190870128571987152099609375">
        <ele>1248.199951171875</ele>
        <time>2021-09-25T07:23:37.000Z</time>
      </trkpt>
      <trkpt lat="40.69793547503650188446044921875" lon="-1.51904736645519733428955078125">
        <ele>1248</ele>
        <time>2021-09-25T07:23:38.000Z</time>
      </trkpt>
      <trkpt lat="40.697930194437503814697265625" lon="-1.51901744306087493896484375">
        <ele>1248</ele>
        <time>2021-09-25T07:23:39.000Z</time>
      </trkpt>
      <trkpt lat="40.69792516529560089111328125" lon="-1.518970839679241180419921875">
        <ele>1248</ele>
        <time>2021-09-25T07:23:41.000Z</time>
      </trkpt>
      <trkpt lat="40.697927176952362060546875" lon="-1.518945358693599700927734375">
        <ele>1248</ele>
        <time>2021-09-25T07:23:43.000Z</time>
      </trkpt>
      <trkpt lat="40.697927176952362060546875" lon="-1.518945358693599700927734375">
        <ele>1248</ele>
        <time>2021-09-25T07:23:44.000Z</time>
      </trkpt>
      <trkpt lat="40.6979239918291568756103515625" lon="-1.51890076696872711181640625">
        <ele>1248</ele>
        <time>2021-09-25T07:24:04.000Z</time>
      </trkpt>
      <trkpt lat="40.6979283504188060760498046875" lon="-1.51885961182415485382080078125">
        <ele>1247.800048828125</ele>
        <time>2021-09-25T07:24:05.000Z</time>
      </trkpt>
      <trkpt lat="40.697929859161376953125" lon="-1.51874830015003681182861328125">
        <ele>1246.800048828125</ele>
        <time>2021-09-25T07:24:07.000Z</time>
      </trkpt>
      <trkpt lat="40.697922818362712860107421875" lon="-1.51862718164920806884765625">
        <ele>1245.4000244140625</ele>
        <time>2021-09-25T07:24:09.000Z</time>
      </trkpt>
      <trkpt lat="40.69791535846889019012451171875" lon="-1.51849231682717800140380859375">
        <ele>1244.199951171875</ele>
        <time>2021-09-25T07:24:11.000Z</time>
      </trkpt>
      <trkpt lat="40.69790932349860668182373046875" lon="-1.51842073537409305572509765625">
        <ele>1243.5999755859375</ele>
        <time>2021-09-25T07:24:12.000Z</time>
      </trkpt>
      <trkpt lat="40.6979005225002765655517578125" lon="-1.51834798045456409454345703125">
        <ele>1243</ele>
        <time>2021-09-25T07:24:13.000Z</time>
      </trkpt>
      <trkpt lat="40.6978820823132991790771484375" lon="-1.51819526217877864837646484375">
        <ele>1241.5999755859375</ele>
        <time>2021-09-25T07:24:15.000Z</time>
      </trkpt>
      <trkpt lat="40.69786774925887584686279296875" lon="-1.51804556138813495635986328125">
        <ele>1240.5999755859375</ele>
        <time>2021-09-25T07:24:17.000Z</time>
      </trkpt>
      <trkpt lat="40.697849057614803314208984375" lon="-1.51790927164256572723388671875">
        <ele>1239.800048828125</ele>
        <time>2021-09-25T07:24:19.000Z</time>
      </trkpt>
      <trkpt lat="40.69784595631062984466552734375" lon="-1.51784573681652545928955078125">
        <ele>1239.4000244140625</ele>
        <time>2021-09-25T07:24:20.000Z</time>
      </trkpt>
      <trkpt lat="40.69785165600478649139404296875" lon="-1.517784632742404937744140625">
        <ele>1238.800048828125</ele>
        <time>2021-09-25T07:24:21.000Z</time>
      </trkpt>
      <trkpt lat="40.69786389358341693878173828125" lon="-1.51772185228765010833740234375">
        <ele>1238.5999755859375</ele>
        <time>2021-09-25T07:24:22.000Z</time>
      </trkpt>
      <trkpt lat="40.6978844292461872100830078125" lon="-1.517658233642578125">
        <ele>1238.199951171875</ele>
        <time>2021-09-25T07:24:23.000Z</time>
      </trkpt>
      <trkpt lat="40.69790982641279697418212890625" lon="-1.51759260334074497222900390625">
        <ele>1237.800048828125</ele>
        <time>2021-09-25T07:24:24.000Z</time>
      </trkpt>
      <trkpt lat="40.69794218055903911590576171875" lon="-1.517532505095005035400390625">
        <ele>1237.4000244140625</ele>
        <time>2021-09-25T07:24:25.000Z</time>
      </trkpt>
      <trkpt lat="40.6980054639279842376708984375" lon="-1.51743301190435886383056640625">
        <ele>1236.199951171875</ele>
        <time>2021-09-25T07:24:27.000Z</time>
      </trkpt>
      <trkpt lat="40.698067657649517059326171875" lon="-1.51733242906630039215087890625">
        <ele>1235</ele>
        <time>2021-09-25T07:24:29.000Z</time>
      </trkpt>
      <trkpt lat="40.69813010282814502716064453125" lon="-1.5172255598008632659912109375">
        <ele>1234</ele>
        <time>2021-09-25T07:24:31.000Z</time>
      </trkpt>
      <trkpt lat="40.6981913745403289794921875" lon="-1.51712338440120220184326171875">
        <ele>1233.4000244140625</ele>
        <time>2021-09-25T07:24:33.000Z</time>
      </trkpt>
      <trkpt lat="40.69824434816837310791015625" lon="-1.5170371346175670623779296875">
        <ele>1232.800048828125</ele>
        <time>2021-09-25T07:24:35.000Z</time>
      </trkpt>
      <trkpt lat="40.69827192462980747222900390625" lon="-1.516994722187519073486328125">
        <ele>1232.5999755859375</ele>
        <time>2021-09-25T07:24:36.000Z</time>
      </trkpt>
      <trkpt lat="40.698297657072544097900390625" lon="-1.51695348322391510009765625">
        <ele>1232.4000244140625</ele>
        <time>2021-09-25T07:24:37.000Z</time>
      </trkpt>
      <trkpt lat="40.69835725240409374237060546875" lon="-1.51687209494411945343017578125">
        <ele>1231.800048828125</ele>
        <time>2021-09-25T07:24:39.000Z</time>
      </trkpt>
      <trkpt lat="40.69843344390392303466796875" lon="-1.51678576134145259857177734375">
        <ele>1231.5999755859375</ele>
        <time>2021-09-25T07:24:41.000Z</time>
      </trkpt>
      <trkpt lat="40.698474347591400146484375" lon="-1.51673865504562854766845703125">
        <ele>1231.5999755859375</ele>
        <time>2021-09-25T07:24:42.000Z</time>
      </trkpt>
      <trkpt lat="40.69851114414632320404052734375" lon="-1.51668551377952098846435546875">
        <ele>1231.4000244140625</ele>
        <time>2021-09-25T07:24:43.000Z</time>
      </trkpt>
      <trkpt lat="40.69854601286351680755615234375" lon="-1.51662399061024188995361328125">
        <ele>1231.199951171875</ele>
        <time>2021-09-25T07:24:44.000Z</time>
      </trkpt>
      <trkpt lat="40.69857937283813953399658203125" lon="-1.5165540017187595367431640625">
        <ele>1230.800048828125</ele>
        <time>2021-09-25T07:24:45.000Z</time>
      </trkpt>
      <trkpt lat="40.69860770367085933685302734375" lon="-1.516479738056659698486328125">
        <ele>1230.4000244140625</ele>
        <time>2021-09-25T07:24:46.000Z</time>
      </trkpt>
      <trkpt lat="40.69863863289356231689453125" lon="-1.5164014510810375213623046875">
        <ele>1230</ele>
        <time>2021-09-25T07:24:47.000Z</time>
      </trkpt>
      <trkpt lat="40.6987008266150951385498046875" lon="-1.51624311693012714385986328125">
        <ele>1229.4000244140625</ele>
        <time>2021-09-25T07:24:49.000Z</time>
      </trkpt>
      <trkpt lat="40.69876729510724544525146484375" lon="-1.5160869620740413665771484375">
        <ele>1228.800048828125</ele>
        <time>2021-09-25T07:24:51.000Z</time>
      </trkpt>
      <trkpt lat="40.69884055294096469879150390625" lon="-1.5159322321414947509765625">
        <ele>1227.800048828125</ele>
        <time>2021-09-25T07:24:53.000Z</time>
      </trkpt>
      <trkpt lat="40.6989097036421298980712890625" lon="-1.5157686173915863037109375">
        <ele>1226.800048828125</ele>
        <time>2021-09-25T07:24:55.000Z</time>
      </trkpt>
      <trkpt lat="40.69897935725748538970947265625" lon="-1.5155837126076221466064453125">
        <ele>1225.5999755859375</ele>
        <time>2021-09-25T07:24:57.000Z</time>
      </trkpt>
      <trkpt lat="40.6990505196154117584228515625" lon="-1.51539905928075313568115234375">
        <ele>1224.4000244140625</ele>
        <time>2021-09-25T07:24:59.000Z</time>
      </trkpt>
      <trkpt lat="40.6990873999893665313720703125" lon="-1.515304930508136749267578125">
        <ele>1224</ele>
        <time>2021-09-25T07:25:00.000Z</time>
      </trkpt>
      <trkpt lat="40.69912838749587535858154296875" lon="-1.51521566323935985565185546875">
        <ele>1223.199951171875</ele>
        <time>2021-09-25T07:25:01.000Z</time>
      </trkpt>
      <trkpt lat="40.699212290346622467041015625" lon="-1.5150512941181659698486328125">
        <ele>1221.4000244140625</ele>
        <time>2021-09-25T07:25:03.000Z</time>
      </trkpt>
      <trkpt lat="40.69929703138768672943115234375" lon="-1.514877788722515106201171875">
        <ele>1220.4000244140625</ele>
        <time>2021-09-25T07:25:05.000Z</time>
      </trkpt>
      <trkpt lat="40.69935838691890239715576171875" lon="-1.51469774544239044189453125">
        <ele>1220.199951171875</ele>
        <time>2021-09-25T07:25:07.000Z</time>
      </trkpt>
      <trkpt lat="40.69938696920871734619140625" lon="-1.51453421451151371002197265625">
        <ele>1220.4000244140625</ele>
        <time>2021-09-25T07:25:09.000Z</time>
      </trkpt>
      <trkpt lat="40.699397362768650054931640625" lon="-1.51438803412020206451416015625">
        <ele>1220.4000244140625</ele>
        <time>2021-09-25T07:25:11.000Z</time>
      </trkpt>
      <trkpt lat="40.699394010007381439208984375" lon="-1.51424202136695384979248046875">
        <ele>1220.4000244140625</ele>
        <time>2021-09-25T07:25:13.000Z</time>
      </trkpt>
      <trkpt lat="40.69939057342708110809326171875" lon="-1.51417362503707408905029296875">
        <ele>1220.4000244140625</ele>
        <time>2021-09-25T07:25:14.000Z</time>
      </trkpt>
      <trkpt lat="40.69938294589519500732421875" lon="-1.51411696337163448333740234375">
        <ele>1220.4000244140625</ele>
        <time>2021-09-25T07:25:15.000Z</time>
      </trkpt>
      <trkpt lat="40.69936375133693218231201171875" lon="-1.51402241550385951995849609375">
        <ele>1220.4000244140625</ele>
        <time>2021-09-25T07:25:17.000Z</time>
      </trkpt>
      <trkpt lat="40.69934673607349395751953125" lon="-1.51398318819701671600341796875">
        <ele>1220.4000244140625</ele>
        <time>2021-09-25T07:25:18.000Z</time>
      </trkpt>
      <trkpt lat="40.69932167418301105499267578125" lon="-1.5139539353549480438232421875">
        <ele>1220.199951171875</ele>
        <time>2021-09-25T07:25:19.000Z</time>
      </trkpt>
      <trkpt lat="40.6992889009416103363037109375" lon="-1.51393222622573375701904296875">
        <ele>1220.199951171875</ele>
        <time>2021-09-25T07:25:20.000Z</time>
      </trkpt>
      <trkpt lat="40.699248500168323516845703125" lon="-1.5139096789062023162841796875">
        <ele>1220</ele>
        <time>2021-09-25T07:25:21.000Z</time>
      </trkpt>
      <trkpt lat="40.69920365698635578155517578125" lon="-1.51389014907181262969970703125">
        <ele>1220</ele>
        <time>2021-09-25T07:25:22.000Z</time>
      </trkpt>
      <trkpt lat="40.6991574726998805999755859375" lon="-1.51387154124677181243896484375">
        <ele>1220</ele>
        <time>2021-09-25T07:25:23.000Z</time>
      </trkpt>
      <trkpt lat="40.6990679539740085601806640625" lon="-1.51382594369351863861083984375">
        <ele>1219.800048828125</ele>
        <time>2021-09-25T07:25:25.000Z</time>
      </trkpt>
      <trkpt lat="40.6989770941436290740966796875" lon="-1.513781435787677764892578125">
        <ele>1219.4000244140625</ele>
        <time>2021-09-25T07:25:27.000Z</time>
      </trkpt>
      <trkpt lat="40.69889335893094539642333984375" lon="-1.51373994536697864532470703125">
        <ele>1219</ele>
        <time>2021-09-25T07:25:29.000Z</time>
      </trkpt>
      <trkpt lat="40.69881431758403778076171875" lon="-1.51369669474661350250244140625">
        <ele>1218.800048828125</ele>
        <time>2021-09-25T07:25:31.000Z</time>
      </trkpt>
      <trkpt lat="40.69873594678938388824462890625" lon="-1.5136550366878509521484375">
        <ele>1218.800048828125</ele>
        <time>2021-09-25T07:25:33.000Z</time>
      </trkpt>
      <trkpt lat="40.69865665398538112640380859375" lon="-1.51361388154327869415283203125">
        <ele>1219</ele>
        <time>2021-09-25T07:25:35.000Z</time>
      </trkpt>
      <trkpt lat="40.69857182912528514862060546875" lon="-1.51357063092291355133056640625">
        <ele>1219.199951171875</ele>
        <time>2021-09-25T07:25:37.000Z</time>
      </trkpt>
      <trkpt lat="40.6984835676848888397216796875" lon="-1.51352721266448497772216796875">
        <ele>1219.4000244140625</ele>
        <time>2021-09-25T07:25:39.000Z</time>
      </trkpt>
      <trkpt lat="40.69843822158873081207275390625" lon="-1.51350407861173152923583984375">
        <ele>1219.4000244140625</ele>
        <time>2021-09-25T07:25:40.000Z</time>
      </trkpt>
      <trkpt lat="40.69839295931160449981689453125" lon="-1.5134798549115657806396484375">
        <ele>1219.4000244140625</ele>
        <time>2021-09-25T07:25:41.000Z</time>
      </trkpt>
      <trkpt lat="40.6983098946511745452880859375" lon="-1.51342998258769512176513671875">
        <ele>1219.800048828125</ele>
        <time>2021-09-25T07:25:43.000Z</time>
      </trkpt>
      <trkpt lat="40.6982190348207950592041015625" lon="-1.51338153518736362457275390625">
        <ele>1220.4000244140625</ele>
        <time>2021-09-25T07:25:45.000Z</time>
      </trkpt>
      <trkpt lat="40.69813010282814502716064453125" lon="-1.513336189091205596923828125">
        <ele>1220.800048828125</ele>
        <time>2021-09-25T07:25:47.000Z</time>
      </trkpt>
      <trkpt lat="40.69804326631128787994384765625" lon="-1.513289250433444976806640625">
        <ele>1220.5999755859375</ele>
        <time>2021-09-25T07:25:49.000Z</time>
      </trkpt>
      <trkpt lat="40.69799850694835186004638671875" lon="-1.5132656134665012359619140625">
        <ele>1220.4000244140625</ele>
        <time>2021-09-25T07:25:50.000Z</time>
      </trkpt>
      <trkpt lat="40.697953999042510986328125" lon="-1.5132408030331134796142578125">
        <ele>1220.4000244140625</ele>
        <time>2021-09-25T07:25:51.000Z</time>
      </trkpt>
      <trkpt lat="40.69786305539309978485107421875" lon="-1.51319143362343311309814453125">
        <ele>1220</ele>
        <time>2021-09-25T07:25:53.000Z</time>
      </trkpt>
      <trkpt lat="40.69777202792465686798095703125" lon="-1.5131413936614990234375">
        <ele>1219.4000244140625</ele>
        <time>2021-09-25T07:25:55.000Z</time>
      </trkpt>
      <trkpt lat="40.697680413722991943359375" lon="-1.513090766966342926025390625">
        <ele>1219.199951171875</ele>
        <time>2021-09-25T07:25:57.000Z</time>
      </trkpt>
      <trkpt lat="40.69758628495037555694580078125" lon="-1.51304340921342372894287109375">
        <ele>1218.800048828125</ele>
        <time>2021-09-25T07:25:59.000Z</time>
      </trkpt>
      <trkpt lat="40.6974886357784271240234375" lon="-1.512996889650821685791015625">
        <ele>1219</ele>
        <time>2021-09-25T07:26:01.000Z</time>
      </trkpt>
      <trkpt lat="40.697395764291286468505859375" lon="-1.51294349692761898040771484375">
        <ele>1219.199951171875</ele>
        <time>2021-09-25T07:26:03.000Z</time>
      </trkpt>
      <trkpt lat="40.69730716757476329803466796875" lon="-1.51288859546184539794921875">
        <ele>1219.199951171875</ele>
        <time>2021-09-25T07:26:05.000Z</time>
      </trkpt>
      <trkpt lat="40.69721479900181293487548828125" lon="-1.5128369629383087158203125">
        <ele>1219.199951171875</ele>
        <time>2021-09-25T07:26:07.000Z</time>
      </trkpt>
      <trkpt lat="40.69717012345790863037109375" lon="-1.51280771009624004364013671875">
        <ele>1219</ele>
        <time>2021-09-25T07:26:08.000Z</time>
      </trkpt>
      <trkpt lat="40.69712528027594089508056640625" lon="-1.51277569122612476348876953125">
        <ele>1219</ele>
        <time>2021-09-25T07:26:09.000Z</time>
      </trkpt>
      <trkpt lat="40.69708052091300487518310546875" lon="-1.51274551637470722198486328125">
        <ele>1218.800048828125</ele>
        <time>2021-09-25T07:26:10.000Z</time>
      </trkpt>
      <trkpt lat="40.69703693501651287078857421875" lon="-1.51271198876202106475830078125">
        <ele>1218.800048828125</ele>
        <time>2021-09-25T07:26:11.000Z</time>
      </trkpt>
      <trkpt lat="40.6969490088522434234619140625" lon="-1.5126369707286357879638671875">
        <ele>1218.5999755859375</ele>
        <time>2021-09-25T07:26:13.000Z</time>
      </trkpt>
      <trkpt lat="40.696857310831546783447265625" lon="-1.512552313506603240966796875">
        <ele>1218.4000244140625</ele>
        <time>2021-09-25T07:26:15.000Z</time>
      </trkpt>
      <trkpt lat="40.69681263528764247894287109375" lon="-1.51250529102981090545654296875">
        <ele>1218</ele>
        <time>2021-09-25T07:26:16.000Z</time>
      </trkpt>
      <trkpt lat="40.69676871411502361297607421875" lon="-1.51245675981044769287109375">
        <ele>1217.5999755859375</ele>
        <time>2021-09-25T07:26:17.000Z</time>
      </trkpt>
      <trkpt lat="40.6966754235327243804931640625" lon="-1.51235642842948436737060546875">
        <ele>1216.4000244140625</ele>
        <time>2021-09-25T07:26:19.000Z</time>
      </trkpt>
      <trkpt lat="40.69658380933105945587158203125" lon="-1.512253247201442718505859375">
        <ele>1216</ele>
        <time>2021-09-25T07:26:21.000Z</time>
      </trkpt>
      <trkpt lat="40.6964916922152042388916015625" lon="-1.512149982154369354248046875">
        <ele>1216.800048828125</ele>
        <time>2021-09-25T07:26:23.000Z</time>
      </trkpt>
      <trkpt lat="40.69640326313674449920654296875" lon="-1.5120488964021205902099609375">
        <ele>1217.199951171875</ele>
        <time>2021-09-25T07:26:25.000Z</time>
      </trkpt>
      <trkpt lat="40.69636009633541107177734375" lon="-1.5120059810578823089599609375">
        <ele>1217.5999755859375</ele>
        <time>2021-09-25T07:26:26.000Z</time>
      </trkpt>
      <trkpt lat="40.69632028229534626007080078125" lon="-1.51196197606623172760009765625">
        <ele>1218.199951171875</ele>
        <time>2021-09-25T07:26:27.000Z</time>
      </trkpt>
      <trkpt lat="40.696239732205867767333984375" lon="-1.5118832699954509735107421875">
        <ele>1219.5999755859375</ele>
        <time>2021-09-25T07:26:29.000Z</time>
      </trkpt>
      <trkpt lat="40.69616404362022876739501953125" lon="-1.5118096768856048583984375">
        <ele>1220.5999755859375</ele>
        <time>2021-09-25T07:26:31.000Z</time>
      </trkpt>
      <trkpt lat="40.69612816907465457916259765625" lon="-1.51177279651165008544921875">
        <ele>1221</ele>
        <time>2021-09-25T07:26:32.000Z</time>
      </trkpt>
      <trkpt lat="40.6960947252810001373291015625" lon="-1.5117364190518856048583984375">
        <ele>1221.5999755859375</ele>
        <time>2021-09-25T07:26:33.000Z</time>
      </trkpt>
      <trkpt lat="40.6960290111601352691650390625" lon="-1.511671878397464752197265625">
        <ele>1222.4000244140625</ele>
        <time>2021-09-25T07:26:35.000Z</time>
      </trkpt>
      <trkpt lat="40.69596539251506328582763671875" lon="-1.5116056613624095916748046875">
        <ele>1223.4000244140625</ele>
        <time>2021-09-25T07:26:37.000Z</time>
      </trkpt>
      <trkpt lat="40.695900432765483856201171875" lon="-1.51154103688895702362060546875">
        <ele>1224.4000244140625</ele>
        <time>2021-09-25T07:26:39.000Z</time>
      </trkpt>
      <trkpt lat="40.69583580829203128814697265625" lon="-1.5114725567400455474853515625">
        <ele>1225</ele>
        <time>2021-09-25T07:26:41.000Z</time>
      </trkpt>
      <trkpt lat="40.69577126763761043548583984375" lon="-1.51140843518078327178955078125">
        <ele>1225.800048828125</ele>
        <time>2021-09-25T07:26:43.000Z</time>
      </trkpt>
      <trkpt lat="40.6957081519067287445068359375" lon="-1.51134230196475982666015625">
        <ele>1226.4000244140625</ele>
        <time>2021-09-25T07:26:45.000Z</time>
      </trkpt>
      <trkpt lat="40.6956400908529758453369140625" lon="-1.5112737379968166351318359375">
        <ele>1227.199951171875</ele>
        <time>2021-09-25T07:26:47.000Z</time>
      </trkpt>
      <trkpt lat="40.69556750357151031494140625" lon="-1.511198468506336212158203125">
        <ele>1228</ele>
        <time>2021-09-25T07:26:49.000Z</time>
      </trkpt>
      <trkpt lat="40.69549215026199817657470703125" lon="-1.511127389967441558837890625">
        <ele>1228.800048828125</ele>
        <time>2021-09-25T07:26:51.000Z</time>
      </trkpt>
      <trkpt lat="40.69541520439088344573974609375" lon="-1.51105069555342197418212890625">
        <ele>1229.5999755859375</ele>
        <time>2021-09-25T07:26:53.000Z</time>
      </trkpt>
      <trkpt lat="40.69533389993011951446533203125" lon="-1.5109753422439098358154296875">
        <ele>1230.4000244140625</ele>
        <time>2021-09-25T07:26:55.000Z</time>
      </trkpt>
      <trkpt lat="40.69525494240224361419677734375" lon="-1.5108972229063510894775390625">
        <ele>1231.5999755859375</ele>
        <time>2021-09-25T07:26:57.000Z</time>
      </trkpt>
      <trkpt lat="40.69521420635282993316650390625" lon="-1.51085816323757171630859375">
        <ele>1231.800048828125</ele>
        <time>2021-09-25T07:26:58.000Z</time>
      </trkpt>
      <trkpt lat="40.69517481140792369842529296875" lon="-1.51082019321620464324951171875">
        <ele>1232.199951171875</ele>
        <time>2021-09-25T07:26:59.000Z</time>
      </trkpt>
      <trkpt lat="40.69509736262261867523193359375" lon="-1.51074492372572422027587890625">
        <ele>1232.5999755859375</ele>
        <time>2021-09-25T07:27:01.000Z</time>
      </trkpt>
      <trkpt lat="40.695026032626628875732421875" lon="-1.51066579855978488922119140625">
        <ele>1232.4000244140625</ele>
        <time>2021-09-25T07:27:03.000Z</time>
      </trkpt>
      <trkpt lat="40.69495260715484619140625" lon="-1.51059036143124103546142578125">
        <ele>1232.199951171875</ele>
        <time>2021-09-25T07:27:05.000Z</time>
      </trkpt>
      <trkpt lat="40.694877840578556060791015625" lon="-1.51052196510136127471923828125">
        <ele>1232.199951171875</ele>
        <time>2021-09-25T07:27:07.000Z</time>
      </trkpt>
      <trkpt lat="40.69480114616453647613525390625" lon="-1.51045356877148151397705078125">
        <ele>1232</ele>
        <time>2021-09-25T07:27:09.000Z</time>
      </trkpt>
      <trkpt lat="40.6947231106460094451904296875" lon="-1.51038341224193572998046875">
        <ele>1231.5999755859375</ele>
        <time>2021-09-25T07:27:11.000Z</time>
      </trkpt>
      <trkpt lat="40.69464406929910182952880859375" lon="-1.51031560264527797698974609375">
        <ele>1231.4000244140625</ele>
        <time>2021-09-25T07:27:13.000Z</time>
      </trkpt>
      <trkpt lat="40.6945655308663845062255859375" lon="-1.51025022380053997039794921875">
        <ele>1231.4000244140625</ele>
        <time>2021-09-25T07:27:15.000Z</time>
      </trkpt>
      <trkpt lat="40.69452789612114429473876953125" lon="-1.5102164447307586669921875">
        <ele>1231.4000244140625</ele>
        <time>2021-09-25T07:27:16.000Z</time>
      </trkpt>
      <trkpt lat="40.6944899260997772216796875" lon="-1.51018090546131134033203125">
        <ele>1231.199951171875</ele>
        <time>2021-09-25T07:27:17.000Z</time>
      </trkpt>
      <trkpt lat="40.69441339932382106781005859375" lon="-1.51011041365563869476318359375">
        <ele>1231</ele>
        <time>2021-09-25T07:27:19.000Z</time>
      </trkpt>
      <trkpt lat="40.6943348608911037445068359375" lon="-1.5100375749170780181884765625">
        <ele>1230.5999755859375</ele>
        <time>2021-09-25T07:27:21.000Z</time>
      </trkpt>
      <trkpt lat="40.69425129331648349761962890625" lon="-1.50996037758886814117431640625">
        <ele>1230.4000244140625</ele>
        <time>2021-09-25T07:27:23.000Z</time>
      </trkpt>
      <trkpt lat="40.694163031876087188720703125" lon="-1.50988074950873851776123046875">
        <ele>1229.800048828125</ele>
        <time>2021-09-25T07:27:25.000Z</time>
      </trkpt>
      <trkpt lat="40.6940733455121517181396484375" lon="-1.50979910977184772491455078125">
        <ele>1229.199951171875</ele>
        <time>2021-09-25T07:27:27.000Z</time>
      </trkpt>
      <trkpt lat="40.69398608990013599395751953125" lon="-1.50971763767302036285400390625">
        <ele>1228.4000244140625</ele>
        <time>2021-09-25T07:27:29.000Z</time>
      </trkpt>
      <trkpt lat="40.69389958865940570831298828125" lon="-1.50963163934648036956787109375">
        <ele>1228.4000244140625</ele>
        <time>2021-09-25T07:27:31.000Z</time>
      </trkpt>
      <trkpt lat="40.693809650838375091552734375" lon="-1.50954564101994037628173828125">
        <ele>1228.800048828125</ele>
        <time>2021-09-25T07:27:33.000Z</time>
      </trkpt>
      <trkpt lat="40.69371543824672698974609375" lon="-1.509463079273700714111328125">
        <ele>1228.800048828125</ele>
        <time>2021-09-25T07:27:35.000Z</time>
      </trkpt>
      <trkpt lat="40.6936190463602542877197265625" lon="-1.509377248585224151611328125">
        <ele>1229.199951171875</ele>
        <time>2021-09-25T07:27:37.000Z</time>
      </trkpt>
      <trkpt lat="40.69352257065474987030029296875" lon="-1.50928848423063755035400390625">
        <ele>1229.4000244140625</ele>
        <time>2021-09-25T07:27:39.000Z</time>
      </trkpt>
      <trkpt lat="40.693421401083469390869140625" lon="-1.5091950260102748870849609375">
        <ele>1229.199951171875</ele>
        <time>2021-09-25T07:27:41.000Z</time>
      </trkpt>
      <trkpt lat="40.693317465484142303466796875" lon="-1.509101651608943939208984375">
        <ele>1228.199951171875</ele>
        <time>2021-09-25T07:27:43.000Z</time>
      </trkpt>
      <trkpt lat="40.69321361370384693145751953125" lon="-1.5090121328830718994140625">
        <ele>1227.4000244140625</ele>
        <time>2021-09-25T07:27:45.000Z</time>
      </trkpt>
      <trkpt lat="40.69310816936194896697998046875" lon="-1.5089164115488529205322265625">
        <ele>1227</ele>
        <time>2021-09-25T07:27:47.000Z</time>
      </trkpt>
      <trkpt lat="40.692997276782989501953125" lon="-1.50881490670144557952880859375">
        <ele>1226.199951171875</ele>
        <time>2021-09-25T07:27:49.000Z</time>
      </trkpt>
      <trkpt lat="40.6928861327469348907470703125" lon="-1.50871641933917999267578125">
        <ele>1225.800048828125</ele>
        <time>2021-09-25T07:27:51.000Z</time>
      </trkpt>
      <trkpt lat="40.69277591072022914886474609375" lon="-1.50861449539661407470703125">
        <ele>1226.199951171875</ele>
        <time>2021-09-25T07:27:53.000Z</time>
      </trkpt>
      <trkpt lat="40.69265638478100299835205078125" lon="-1.5085070393979549407958984375">
        <ele>1226.5999755859375</ele>
        <time>2021-09-25T07:27:55.000Z</time>
      </trkpt>
      <trkpt lat="40.69252814166247844696044921875" lon="-1.50839329697191715240478515625">
        <ele>1226.199951171875</ele>
        <time>2021-09-25T07:27:57.000Z</time>
      </trkpt>
      <trkpt lat="40.692394785583019256591796875" lon="-1.50827880017459392547607421875">
        <ele>1225.4000244140625</ele>
        <time>2021-09-25T07:27:59.000Z</time>
      </trkpt>
      <trkpt lat="40.69232664071023464202880859375" lon="-1.50821627117693424224853515625">
        <ele>1224.5999755859375</ele>
        <time>2021-09-25T07:28:00.000Z</time>
      </trkpt>
      <trkpt lat="40.6922558136284351348876953125" lon="-1.5081546641886234283447265625">
        <ele>1223.5999755859375</ele>
        <time>2021-09-25T07:28:01.000Z</time>
      </trkpt>
      <trkpt lat="40.69211038760840892791748046875" lon="-1.50802868418395519256591796875">
        <ele>1221.800048828125</ele>
        <time>2021-09-25T07:28:03.000Z</time>
      </trkpt>
      <trkpt lat="40.6919621117413043975830078125" lon="-1.50790329091250896453857421875">
        <ele>1220.4000244140625</ele>
        <time>2021-09-25T07:28:05.000Z</time>
      </trkpt>
      <trkpt lat="40.69181417115032672882080078125" lon="-1.5077717788517475128173828125">
        <ele>1220</ele>
        <time>2021-09-25T07:28:07.000Z</time>
      </trkpt>
      <trkpt lat="40.69173940457403659820556640625" lon="-1.50770782493054866790771484375">
        <ele>1220</ele>
        <time>2021-09-25T07:28:08.000Z</time>
      </trkpt>
      <trkpt lat="40.6916630454361438751220703125" lon="-1.50764378719031810760498046875">
        <ele>1220</ele>
        <time>2021-09-25T07:28:09.000Z</time>
      </trkpt>
      <trkpt lat="40.6915207207202911376953125" lon="-1.5075062401592731475830078125">
        <ele>1219.199951171875</ele>
        <time>2021-09-25T07:28:11.000Z</time>
      </trkpt>
      <trkpt lat="40.6913814134895801544189453125" lon="-1.50737556628882884979248046875">
        <ele>1219</ele>
        <time>2021-09-25T07:28:13.000Z</time>
      </trkpt>
      <trkpt lat="40.69123866967856884002685546875" lon="-1.50724933482706546783447265625">
        <ele>1219</ele>
        <time>2021-09-25T07:28:15.000Z</time>
      </trkpt>
      <trkpt lat="40.69110003300011157989501953125" lon="-1.50712427683174610137939453125">
        <ele>1218.5999755859375</ele>
        <time>2021-09-25T07:28:17.000Z</time>
      </trkpt>
      <trkpt lat="40.69096575491130352020263671875" lon="-1.5070009790360927581787109375">
        <ele>1218.800048828125</ele>
        <time>2021-09-25T07:28:19.000Z</time>
      </trkpt>
      <trkpt lat="40.69083550013601779937744140625" lon="-1.5068876557052135467529296875">
        <ele>1218.5999755859375</ele>
        <time>2021-09-25T07:28:21.000Z</time>
      </trkpt>
      <trkpt lat="40.69077263586223125457763671875" lon="-1.50682948529720306396484375">
        <ele>1218.199951171875</ele>
        <time>2021-09-25T07:28:22.000Z</time>
      </trkpt>
      <trkpt lat="40.69070926867425441741943359375" lon="-1.5067719854414463043212890625">
        <ele>1217.800048828125</ele>
        <time>2021-09-25T07:28:23.000Z</time>
      </trkpt>
      <trkpt lat="40.6905861385166645050048828125" lon="-1.50666494853794574737548828125">
        <ele>1217</ele>
        <time>2021-09-25T07:28:25.000Z</time>
      </trkpt>
      <trkpt lat="40.690468959510326385498046875" lon="-1.50656118057668209075927734375">
        <ele>1217</ele>
        <time>2021-09-25T07:28:27.000Z</time>
      </trkpt>
      <trkpt lat="40.69034784100949764251708984375" lon="-1.50646260939538478851318359375">
        <ele>1217</ele>
        <time>2021-09-25T07:28:29.000Z</time>
      </trkpt>
      <trkpt lat="40.69022596813738346099853515625" lon="-1.50635213591158390045166015625">
        <ele>1217.199951171875</ele>
        <time>2021-09-25T07:28:31.000Z</time>
      </trkpt>
      <trkpt lat="40.6901036761701107025146484375" lon="-1.50623805820941925048828125">
        <ele>1217.199951171875</ele>
        <time>2021-09-25T07:28:33.000Z</time>
      </trkpt>
      <trkpt lat="40.6899776123464107513427734375" lon="-1.50612465105950832366943359375">
        <ele>1216.800048828125</ele>
        <time>2021-09-25T07:28:35.000Z</time>
      </trkpt>
      <trkpt lat="40.6898604333400726318359375" lon="-1.50600043125450611114501953125">
        <ele>1216.5999755859375</ele>
        <time>2021-09-25T07:28:37.000Z</time>
      </trkpt>
      <trkpt lat="40.68980469368398189544677734375" lon="-1.5059344656765460968017578125">
        <ele>1216.199951171875</ele>
        <time>2021-09-25T07:28:38.000Z</time>
      </trkpt>
      <trkpt lat="40.6897516362369060516357421875" lon="-1.5058633871376514434814453125">
        <ele>1216</ele>
        <time>2021-09-25T07:28:39.000Z</time>
      </trkpt>
      <trkpt lat="40.68965314887464046478271484375" lon="-1.50570991449058055877685546875">
        <ele>1215.199951171875</ele>
        <time>2021-09-25T07:28:41.000Z</time>
      </trkpt>
      <trkpt lat="40.68956203758716583251953125" lon="-1.50554604828357696533203125">
        <ele>1214.4000244140625</ele>
        <time>2021-09-25T07:28:43.000Z</time>
      </trkpt>
      <trkpt lat="40.68951635621488094329833984375" lon="-1.50546197779476642608642578125">
        <ele>1214</ele>
        <time>2021-09-25T07:28:44.000Z</time>
      </trkpt>
      <trkpt lat="40.68946857936680316925048828125" lon="-1.505377404391765594482421875">
        <ele>1213.800048828125</ele>
        <time>2021-09-25T07:28:45.000Z</time>
      </trkpt>
      <trkpt lat="40.68937185220420360565185546875" lon="-1.50520943105220794677734375">
        <ele>1213.5999755859375</ele>
        <time>2021-09-25T07:28:47.000Z</time>
      </trkpt>
      <trkpt lat="40.68927763961255550384521484375" lon="-1.50504087097942829132080078125">
        <ele>1213.199951171875</ele>
        <time>2021-09-25T07:28:49.000Z</time>
      </trkpt>
      <trkpt lat="40.68923003040254116058349609375" lon="-1.50495654903352260589599609375">
        <ele>1212.800048828125</ele>
        <time>2021-09-25T07:28:50.000Z</time>
      </trkpt>
      <trkpt lat="40.689184851944446563720703125" lon="-1.50487507693469524383544921875">
        <ele>1212.4000244140625</ele>
        <time>2021-09-25T07:28:51.000Z</time>
      </trkpt>
      <trkpt lat="40.68909541703760623931884765625" lon="-1.504712887108325958251953125">
        <ele>1212</ele>
        <time>2021-09-25T07:28:53.000Z</time>
      </trkpt>
      <trkpt lat="40.6890504062175750732421875" lon="-1.50462797842919826507568359375">
        <ele>1212</ele>
        <time>2021-09-25T07:28:54.000Z</time>
      </trkpt>
      <trkpt lat="40.68900556303560733795166015625" lon="-1.50454248301684856414794921875">
        <ele>1212</ele>
        <time>2021-09-25T07:28:55.000Z</time>
      </trkpt>
      <trkpt lat="40.688903890550136566162109375" lon="-1.50436210446059703826904296875">
        <ele>1211.5999755859375</ele>
        <time>2021-09-25T07:28:57.000Z</time>
      </trkpt>
      <trkpt lat="40.68880037404596805572509765625" lon="-1.50418658740818500518798828125">
        <ele>1211</ele>
        <time>2021-09-25T07:28:59.000Z</time>
      </trkpt>
      <trkpt lat="40.6887032277882099151611328125" lon="-1.504011489450931549072265625">
        <ele>1211.199951171875</ele>
        <time>2021-09-25T07:29:01.000Z</time>
      </trkpt>
      <trkpt lat="40.68861379288136959075927734375" lon="-1.50384343229234218597412109375">
        <ele>1212.199951171875</ele>
        <time>2021-09-25T07:29:03.000Z</time>
      </trkpt>
      <trkpt lat="40.6885268725454807281494140625" lon="-1.503682918846607208251953125">
        <ele>1212.800048828125</ele>
        <time>2021-09-25T07:29:05.000Z</time>
      </trkpt>
      <trkpt lat="40.68848504684865474700927734375" lon="-1.50360739789903163909912109375">
        <ele>1213.199951171875</ele>
        <time>2021-09-25T07:29:06.000Z</time>
      </trkpt>
      <trkpt lat="40.68844380788505077362060546875" lon="-1.50353129021823406219482421875">
        <ele>1213.199951171875</ele>
        <time>2021-09-25T07:29:07.000Z</time>
      </trkpt>
      <trkpt lat="40.68835998885333538055419921875" lon="-1.50337756611406803131103515625">
        <ele>1213.199951171875</ele>
        <time>2021-09-25T07:29:09.000Z</time>
      </trkpt>
      <trkpt lat="40.68827583454549312591552734375" lon="-1.5032338164746761322021484375">
        <ele>1212.199951171875</ele>
        <time>2021-09-25T07:29:11.000Z</time>
      </trkpt>
      <trkpt lat="40.68818966858088970184326171875" lon="-1.50310113094747066497802734375">
        <ele>1211.800048828125</ele>
        <time>2021-09-25T07:29:13.000Z</time>
      </trkpt>
      <trkpt lat="40.688101239502429962158203125" lon="-1.50297657586634159088134765625">
        <ele>1211.4000244140625</ele>
        <time>2021-09-25T07:29:15.000Z</time>
      </trkpt>
      <trkpt lat="40.6880085356533527374267578125" lon="-1.50285772047936916351318359375">
        <ele>1210.5999755859375</ele>
        <time>2021-09-25T07:29:17.000Z</time>
      </trkpt>
      <trkpt lat="40.68790443241596221923828125" lon="-1.50275520980358123779296875">
        <ele>1210.5999755859375</ele>
        <time>2021-09-25T07:29:19.000Z</time>
      </trkpt>
      <trkpt lat="40.6878479383885860443115234375" lon="-1.502710618078708648681640625">
        <ele>1210.4000244140625</ele>
        <time>2021-09-25T07:29:20.000Z</time>
      </trkpt>
      <trkpt lat="40.6877919472754001617431640625" lon="-1.5026658587157726287841796875">
        <ele>1210.199951171875</ele>
        <time>2021-09-25T07:29:21.000Z</time>
      </trkpt>
      <trkpt lat="40.6876779533922672271728515625" lon="-1.50257608853280544281005859375">
        <ele>1209.5999755859375</ele>
        <time>2021-09-25T07:29:23.000Z</time>
      </trkpt>
      <trkpt lat="40.6875616125762462615966796875" lon="-1.50248858146369457244873046875">
        <ele>1208.800048828125</ele>
        <time>2021-09-25T07:29:25.000Z</time>
      </trkpt>
      <trkpt lat="40.687447451055049896240234375" lon="-1.502401828765869140625">
        <ele>1209.4000244140625</ele>
        <time>2021-09-25T07:29:27.000Z</time>
      </trkpt>
      <trkpt lat="40.6873332895338535308837890625" lon="-1.502314321696758270263671875">
        <ele>1210</ele>
        <time>2021-09-25T07:29:29.000Z</time>
      </trkpt>
      <trkpt lat="40.68727687932550907135009765625" lon="-1.50227375328540802001953125">
        <ele>1210.199951171875</ele>
        <time>2021-09-25T07:29:30.000Z</time>
      </trkpt>
      <trkpt lat="40.68722172640264034271240234375" lon="-1.5022316761314868927001953125">
        <ele>1210.199951171875</ele>
        <time>2021-09-25T07:29:31.000Z</time>
      </trkpt>
      <trkpt lat="40.68710982799530029296875" lon="-1.5021478570997714996337890625">
        <ele>1210.5999755859375</ele>
        <time>2021-09-25T07:29:33.000Z</time>
      </trkpt>
      <trkpt lat="40.6870023719966411590576171875" lon="-1.50206479243934154510498046875">
        <ele>1211.5999755859375</ele>
        <time>2021-09-25T07:29:35.000Z</time>
      </trkpt>
      <trkpt lat="40.6868987716734409332275390625" lon="-1.50198114104568958282470703125">
        <ele>1211.800048828125</ele>
        <time>2021-09-25T07:29:37.000Z</time>
      </trkpt>
      <trkpt lat="40.68679324351251125335693359375" lon="-1.50189958512783050537109375">
        <ele>1212.199951171875</ele>
        <time>2021-09-25T07:29:39.000Z</time>
      </trkpt>
      <trkpt lat="40.68668846972286701202392578125" lon="-1.5018184483051300048828125">
        <ele>1212.199951171875</ele>
        <time>2021-09-25T07:29:41.000Z</time>
      </trkpt>
      <trkpt lat="40.68659123964607715606689453125" lon="-1.50173664093017578125">
        <ele>1212.4000244140625</ele>
        <time>2021-09-25T07:29:43.000Z</time>
      </trkpt>
      <trkpt lat="40.68649216555058956146240234375" lon="-1.5016550011932849884033203125">
        <ele>1213</ele>
        <time>2021-09-25T07:29:45.000Z</time>
      </trkpt>
      <trkpt lat="40.686393678188323974609375" lon="-1.50158165954053401947021484375">
        <ele>1213.199951171875</ele>
        <time>2021-09-25T07:29:47.000Z</time>
      </trkpt>
      <trkpt lat="40.686307512223720550537109375" lon="-1.501509658992290496826171875">
        <ele>1213.4000244140625</ele>
        <time>2021-09-25T07:29:49.000Z</time>
      </trkpt>
      <trkpt lat="40.6862179934978485107421875" lon="-1.50144754908978939056396484375">
        <ele>1213.199951171875</ele>
        <time>2021-09-25T07:29:51.000Z</time>
      </trkpt>
      <trkpt lat="40.68612755276262760162353515625" lon="-1.50138954631984233856201171875">
        <ele>1213</ele>
        <time>2021-09-25T07:29:53.000Z</time>
      </trkpt>
      <trkpt lat="40.6860334239900112152099609375" lon="-1.50133707560598850250244140625">
        <ele>1212.5999755859375</ele>
        <time>2021-09-25T07:29:55.000Z</time>
      </trkpt>
      <trkpt lat="40.6859834678471088409423828125" lon="-1.50131754577159881591796875">
        <ele>1212.4000244140625</ele>
        <time>2021-09-25T07:29:56.000Z</time>
      </trkpt>
      <trkpt lat="40.68593208678066730499267578125" lon="-1.5013002790510654449462890625">
        <ele>1212.4000244140625</ele>
        <time>2021-09-25T07:29:57.000Z</time>
      </trkpt>
      <trkpt lat="40.68583183921873569488525390625" lon="-1.50127052329480648040771484375">
        <ele>1212.199951171875</ele>
        <time>2021-09-25T07:29:59.000Z</time>
      </trkpt>
      <trkpt lat="40.68579194135963916778564453125" lon="-1.50126012973487377166748046875">
        <ele>1212</ele>
        <time>2021-09-25T07:30:00.000Z</time>
      </trkpt>
      <trkpt lat="40.68575791083276271820068359375" lon="-1.5012509934604167938232421875">
        <ele>1212</ele>
        <time>2021-09-25T07:30:01.000Z</time>
      </trkpt>
      <trkpt lat="40.685676522552967071533203125" lon="-1.50122576393187046051025390625">
        <ele>1211.800048828125</ele>
        <time>2021-09-25T07:30:03.000Z</time>
      </trkpt>
      <trkpt lat="40.68557183258235454559326171875" lon="-1.5011950023472309112548828125">
        <ele>1211.4000244140625</ele>
        <time>2021-09-25T07:30:05.000Z</time>
      </trkpt>
      <trkpt lat="40.68545825779438018798828125" lon="-1.50115971453487873077392578125">
        <ele>1210.5999755859375</ele>
        <time>2021-09-25T07:30:07.000Z</time>
      </trkpt>
      <trkpt lat="40.68532959558069705963134765625" lon="-1.50113155134022235870361328125">
        <ele>1210</ele>
        <time>2021-09-25T07:30:09.000Z</time>
      </trkpt>
      <trkpt lat="40.68519850261509418487548828125" lon="-1.501107327640056610107421875">
        <ele>1209</ele>
        <time>2021-09-25T07:30:11.000Z</time>
      </trkpt>
      <trkpt lat="40.68505768664181232452392578125" lon="-1.50109215639531612396240234375">
        <ele>1208</ele>
        <time>2021-09-25T07:30:13.000Z</time>
      </trkpt>
      <trkpt lat="40.68491242825984954833984375" lon="-1.5010793320834636688232421875">
        <ele>1206.800048828125</ele>
        <time>2021-09-25T07:30:15.000Z</time>
      </trkpt>
      <trkpt lat="40.68476297892630100250244140625" lon="-1.501075811684131622314453125">
        <ele>1205.5999755859375</ele>
        <time>2021-09-25T07:30:17.000Z</time>
      </trkpt>
      <trkpt lat="40.68468620069324970245361328125" lon="-1.5010743029415607452392578125">
        <ele>1204.800048828125</ele>
        <time>2021-09-25T07:30:18.000Z</time>
      </trkpt>
      <trkpt lat="40.68460992537438869476318359375" lon="-1.50107556022703647613525390625">
        <ele>1204</ele>
        <time>2021-09-25T07:30:19.000Z</time>
      </trkpt>
      <trkpt lat="40.6844525970518589019775390625" lon="-1.5010649152100086212158203125">
        <ele>1202.800048828125</ele>
        <time>2021-09-25T07:30:21.000Z</time>
      </trkpt>
      <trkpt lat="40.68429627455770969390869140625" lon="-1.50105896405875682830810546875">
        <ele>1202.199951171875</ele>
        <time>2021-09-25T07:30:23.000Z</time>
      </trkpt>
      <trkpt lat="40.6841401197016239166259765625" lon="-1.50105594657361507415771484375">
        <ele>1201.800048828125</ele>
        <time>2021-09-25T07:30:25.000Z</time>
      </trkpt>
      <trkpt lat="40.68399687297642230987548828125" lon="-1.50104555301368236541748046875">
        <ele>1201.199951171875</ele>
        <time>2021-09-25T07:30:27.000Z</time>
      </trkpt>
      <trkpt lat="40.6839287281036376953125" lon="-1.50103046558797359466552734375">
        <ele>1201</ele>
        <time>2021-09-25T07:30:28.000Z</time>
      </trkpt>
      <trkpt lat="40.683864690363407135009765625" lon="-1.50100682862102985382080078125">
        <ele>1201</ele>
        <time>2021-09-25T07:30:29.000Z</time>
      </trkpt>
      <trkpt lat="40.68380358628928661346435546875" lon="-1.50097430683672428131103515625">
        <ele>1201</ele>
        <time>2021-09-25T07:30:30.000Z</time>
      </trkpt>
      <trkpt lat="40.68374441005289554595947265625" lon="-1.5009361691772937774658203125">
        <ele>1201</ele>
        <time>2021-09-25T07:30:31.000Z</time>
      </trkpt>
      <trkpt lat="40.683637373149394989013671875" lon="-1.500841118395328521728515625">
        <ele>1201.199951171875</ele>
        <time>2021-09-25T07:30:33.000Z</time>
      </trkpt>
      <trkpt lat="40.6835476867854595184326171875" lon="-1.500725112855434417724609375">
        <ele>1201.800048828125</ele>
        <time>2021-09-25T07:30:35.000Z</time>
      </trkpt>
      <trkpt lat="40.683509297668933868408203125" lon="-1.50066384114325046539306640625">
        <ele>1202</ele>
        <time>2021-09-25T07:30:36.000Z</time>
      </trkpt>
      <trkpt lat="40.68347610533237457275390625" lon="-1.50059812702238559722900390625">
        <ele>1202.4000244140625</ele>
        <time>2021-09-25T07:30:37.000Z</time>
      </trkpt>
      <trkpt lat="40.68344785831868648529052734375" lon="-1.50052771903574466705322265625">
        <ele>1202.5999755859375</ele>
        <time>2021-09-25T07:30:38.000Z</time>
      </trkpt>
      <trkpt lat="40.683421455323696136474609375" lon="-1.50045312009751796722412109375">
        <ele>1203</ele>
        <time>2021-09-25T07:30:39.000Z</time>
      </trkpt>
      <trkpt lat="40.683402009308338165283203125" lon="-1.50037516839802265167236328125">
        <ele>1203.4000244140625</ele>
        <time>2021-09-25T07:30:40.000Z</time>
      </trkpt>
      <trkpt lat="40.6833877600729465484619140625" lon="-1.5002994798123836517333984375">
        <ele>1203.800048828125</ele>
        <time>2021-09-25T07:30:41.000Z</time>
      </trkpt>
      <trkpt lat="40.68337284028530120849609375" lon="-1.50015288032591342926025390625">
        <ele>1204.5999755859375</ele>
        <time>2021-09-25T07:30:43.000Z</time>
      </trkpt>
      <trkpt lat="40.68336906842887401580810546875" lon="-1.5000052750110626220703125">
        <ele>1205.199951171875</ele>
        <time>2021-09-25T07:30:45.000Z</time>
      </trkpt>
      <trkpt lat="40.68336353637278079986572265625" lon="-1.4998579211533069610595703125">
        <ele>1205.800048828125</ele>
        <time>2021-09-25T07:30:47.000Z</time>
      </trkpt>
      <trkpt lat="40.68335800431668758392333984375" lon="-1.49971492588520050048828125">
        <ele>1206.4000244140625</ele>
        <time>2021-09-25T07:30:49.000Z</time>
      </trkpt>
      <trkpt lat="40.68335465155541896820068359375" lon="-1.4995766244828701019287109375">
        <ele>1206.5999755859375</ele>
        <time>2021-09-25T07:30:51.000Z</time>
      </trkpt>
      <trkpt lat="40.68334870040416717529296875" lon="-1.4994405023753643035888671875">
        <ele>1206.4000244140625</ele>
        <time>2021-09-25T07:30:53.000Z</time>
      </trkpt>
      <trkpt lat="40.683346688747406005859375" lon="-1.49937319569289684295654296875">
        <ele>1205.800048828125</ele>
        <time>2021-09-25T07:30:54.000Z</time>
      </trkpt>
      <trkpt lat="40.6833426654338836669921875" lon="-1.49931033141911029815673828125">
        <ele>1205.4000244140625</ele>
        <time>2021-09-25T07:30:55.000Z</time>
      </trkpt>
      <trkpt lat="40.68333269096910953521728515625" lon="-1.49918041191995143890380859375">
        <ele>1205</ele>
        <time>2021-09-25T07:30:57.000Z</time>
      </trkpt>
      <trkpt lat="40.68331458605825901031494140625" lon="-1.49905242025852203369140625">
        <ele>1205.199951171875</ele>
        <time>2021-09-25T07:30:59.000Z</time>
      </trkpt>
      <trkpt lat="40.68328172899782657623291015625" lon="-1.4989335648715496063232421875">
        <ele>1205.5999755859375</ele>
        <time>2021-09-25T07:31:01.000Z</time>
      </trkpt>
      <trkpt lat="40.683216266334056854248046875" lon="-1.49884345941245555877685546875">
        <ele>1206.4000244140625</ele>
        <time>2021-09-25T07:31:03.000Z</time>
      </trkpt>
      <trkpt lat="40.683140493929386138916015625" lon="-1.49877171032130718231201171875">
        <ele>1207.199951171875</ele>
        <time>2021-09-25T07:31:05.000Z</time>
      </trkpt>
      <trkpt lat="40.6830595247447490692138671875" lon="-1.49871136061847209930419921875">
        <ele>1208.199951171875</ele>
        <time>2021-09-25T07:31:07.000Z</time>
      </trkpt>
      <trkpt lat="40.6829783879220485687255859375" lon="-1.4986579678952693939208984375">
        <ele>1209.199951171875</ele>
        <time>2021-09-25T07:31:09.000Z</time>
      </trkpt>
      <trkpt lat="40.6829415075480937957763671875" lon="-1.49862729012966156005859375">
        <ele>1209.4000244140625</ele>
        <time>2021-09-25T07:31:10.000Z</time>
      </trkpt>
      <trkpt lat="40.68290336988866329193115234375" lon="-1.4985949359834194183349609375">
        <ele>1209.800048828125</ele>
        <time>2021-09-25T07:31:11.000Z</time>
      </trkpt>
      <trkpt lat="40.68286397494375705718994140625" lon="-1.4985671080648899078369140625">
        <ele>1210.199951171875</ele>
        <time>2021-09-25T07:31:12.000Z</time>
      </trkpt>
      <trkpt lat="40.6828255020081996917724609375" lon="-1.4985389448702335357666015625">
        <ele>1210</ele>
        <time>2021-09-25T07:31:13.000Z</time>
      </trkpt>
      <trkpt lat="40.68275115452706813812255859375" lon="-1.4984933473169803619384765625">
        <ele>1209.5999755859375</ele>
        <time>2021-09-25T07:31:15.000Z</time>
      </trkpt>
      <trkpt lat="40.68267337046563625335693359375" lon="-1.49845604784786701202392578125">
        <ele>1209.4000244140625</ele>
        <time>2021-09-25T07:31:17.000Z</time>
      </trkpt>
      <trkpt lat="40.682591311633586883544921875" lon="-1.49843559600412845611572265625">
        <ele>1209.4000244140625</ele>
        <time>2021-09-25T07:31:19.000Z</time>
      </trkpt>
      <trkpt lat="40.682555772364139556884765625" lon="-1.4984350092709064483642578125">
        <ele>1209.4000244140625</ele>
        <time>2021-09-25T07:31:20.000Z</time>
      </trkpt>
      <trkpt lat="40.68251746706664562225341796875" lon="-1.4984400384128093719482421875">
        <ele>1209.5999755859375</ele>
        <time>2021-09-25T07:31:21.000Z</time>
      </trkpt>
      <trkpt lat="40.682438425719738006591796875" lon="-1.4984618313610553741455078125">
        <ele>1209.800048828125</ele>
        <time>2021-09-25T07:31:23.000Z</time>
      </trkpt>
      <trkpt lat="40.6823976896703243255615234375" lon="-1.49847599677741527557373046875">
        <ele>1210</ele>
        <time>2021-09-25T07:31:24.000Z</time>
      </trkpt>
      <trkpt lat="40.682359971106052398681640625" lon="-1.49849225766956806182861328125">
        <ele>1210.4000244140625</ele>
        <time>2021-09-25T07:31:25.000Z</time>
      </trkpt>
      <trkpt lat="40.68228864111006259918212890625" lon="-1.4985208399593830108642578125">
        <ele>1211</ele>
        <time>2021-09-25T07:31:27.000Z</time>
      </trkpt>
      <trkpt lat="40.682220160961151123046875" lon="-1.4985488355159759521484375">
        <ele>1211.5999755859375</ele>
        <time>2021-09-25T07:31:29.000Z</time>
      </trkpt>
      <trkpt lat="40.68215939216315746307373046875" lon="-1.49857255630195140838623046875">
        <ele>1212</ele>
        <time>2021-09-25T07:31:31.000Z</time>
      </trkpt>
      <trkpt lat="40.68212603218853473663330078125" lon="-1.49858546443283557891845703125">
        <ele>1212.199951171875</ele>
        <time>2021-09-25T07:31:32.000Z</time>
      </trkpt>
      <trkpt lat="40.6820915825664997100830078125" lon="-1.498604156076908111572265625">
        <ele>1212.5999755859375</ele>
        <time>2021-09-25T07:31:33.000Z</time>
      </trkpt>
      <trkpt lat="40.682019330561161041259765625" lon="-1.49863131344318389892578125">
        <ele>1213</ele>
        <time>2021-09-25T07:31:35.000Z</time>
      </trkpt>
      <trkpt lat="40.68194632418453693389892578125" lon="-1.498653106391429901123046875">
        <ele>1213.4000244140625</ele>
        <time>2021-09-25T07:31:37.000Z</time>
      </trkpt>
      <trkpt lat="40.6818806938827037811279296875" lon="-1.49867330677807331085205078125">
        <ele>1213.5999755859375</ele>
        <time>2021-09-25T07:31:39.000Z</time>
      </trkpt>
      <trkpt lat="40.68182746879756450653076171875" lon="-1.49871739558875560760498046875">
        <ele>1214</ele>
        <time>2021-09-25T07:31:41.000Z</time>
      </trkpt>
      <trkpt lat="40.6817898340523242950439453125" lon="-1.498791910707950592041015625">
        <ele>1214.4000244140625</ele>
        <time>2021-09-25T07:31:43.000Z</time>
      </trkpt>
      <trkpt lat="40.6817650236189365386962890625" lon="-1.498881764709949493408203125">
        <ele>1214.800048828125</ele>
        <time>2021-09-25T07:31:45.000Z</time>
      </trkpt>
      <trkpt lat="40.681748427450656890869140625" lon="-1.49897069670259952545166015625">
        <ele>1214.800048828125</ele>
        <time>2021-09-25T07:31:47.000Z</time>
      </trkpt>
      <trkpt lat="40.68173241801559925079345703125" lon="-1.499058119952678680419921875">
        <ele>1215</ele>
        <time>2021-09-25T07:31:49.000Z</time>
      </trkpt>
      <trkpt lat="40.6817143969237804412841796875" lon="-1.4991354010999202728271484375">
        <ele>1215</ele>
        <time>2021-09-25T07:31:51.000Z</time>
      </trkpt>
      <trkpt lat="40.68170609883964061737060546875" lon="-1.499207653105258941650390625">
        <ele>1215</ele>
        <time>2021-09-25T07:31:53.000Z</time>
      </trkpt>
      <trkpt lat="40.68168279714882373809814453125" lon="-1.499282084405422210693359375">
        <ele>1215</ele>
        <time>2021-09-25T07:31:55.000Z</time>
      </trkpt>
      <trkpt lat="40.68166167475283145904541015625" lon="-1.4993607066571712493896484375">
        <ele>1215</ele>
        <time>2021-09-25T07:31:57.000Z</time>
      </trkpt>
      <trkpt lat="40.68165161646902561187744140625" lon="-1.4994257502257823944091796875">
        <ele>1215</ele>
        <time>2021-09-25T07:31:59.000Z</time>
      </trkpt>
      <trkpt lat="40.68164507858455181121826171875" lon="-1.49944695644080638885498046875">
        <ele>1215</ele>
        <time>2021-09-25T07:32:00.000Z</time>
      </trkpt>
      <trkpt lat="40.68163719959557056427001953125" lon="-1.49946304969489574432373046875">
        <ele>1215</ele>
        <time>2021-09-25T07:32:01.000Z</time>
      </trkpt>
      <trkpt lat="40.68163133226335048675537109375" lon="-1.49949875660240650177001953125">
        <ele>1215</ele>
        <time>2021-09-25T07:32:03.000Z</time>
      </trkpt>
      <trkpt lat="40.6816275604069232940673828125" lon="-1.49954234249889850616455078125">
        <ele>1215</ele>
        <time>2021-09-25T07:32:05.000Z</time>
      </trkpt>
      <trkpt lat="40.6816195137798786163330078125" lon="-1.49956447072327136993408203125">
        <ele>1215</ele>
        <time>2021-09-25T07:32:06.000Z</time>
      </trkpt>
      <trkpt lat="40.6815940327942371368408203125" lon="-1.499581821262836456298828125">
        <ele>1215</ele>
        <time>2021-09-25T07:32:07.000Z</time>
      </trkpt>
      <trkpt lat="40.68157852627336978912353515625" lon="-1.49959062226116657257080078125">
        <ele>1215</ele>
        <time>2021-09-25T07:32:08.000Z</time>
      </trkpt>
      <trkpt lat="40.681554973125457763671875" lon="-1.499588526785373687744140625">
        <ele>1215</ele>
        <time>2021-09-25T07:32:09.000Z</time>
      </trkpt>
      <trkpt lat="40.68149688653647899627685546875" lon="-1.49957620538771152496337890625">
        <ele>1215</ele>
        <time>2021-09-25T07:32:11.000Z</time>
      </trkpt>
      <trkpt lat="40.68142731674015522003173828125" lon="-1.49955935776233673095703125">
        <ele>1215</ele>
        <time>2021-09-25T07:32:13.000Z</time>
      </trkpt>
      <trkpt lat="40.68139881826937198638916015625" lon="-1.4995437674224376678466796875">
        <ele>1215</ele>
        <time>2021-09-25T07:32:14.000Z</time>
      </trkpt>
      <trkpt lat="40.68137065507471561431884765625" lon="-1.49952775798738002777099609375">
        <ele>1215</ele>
        <time>2021-09-25T07:32:15.000Z</time>
      </trkpt>
      <trkpt lat="40.68134131841361522674560546875" lon="-1.4995109103620052337646484375">
        <ele>1215.199951171875</ele>
        <time>2021-09-25T07:32:16.000Z</time>
      </trkpt>
      <trkpt lat="40.68131424486637115478515625" lon="-1.49949657730758190155029296875">
        <ele>1215.199951171875</ele>
        <time>2021-09-25T07:32:17.000Z</time>
      </trkpt>
      <trkpt lat="40.68125682882964611053466796875" lon="-1.49947327561676502227783203125">
        <ele>1215.5999755859375</ele>
        <time>2021-09-25T07:32:19.000Z</time>
      </trkpt>
      <trkpt lat="40.6811940483748912811279296875" lon="-1.4994485490024089813232421875">
        <ele>1215.800048828125</ele>
        <time>2021-09-25T07:32:21.000Z</time>
      </trkpt>
      <trkpt lat="40.681126825511455535888671875" lon="-1.49943052791059017181396484375">
        <ele>1216.199951171875</ele>
        <time>2021-09-25T07:32:23.000Z</time>
      </trkpt>
      <trkpt lat="40.6810612790286540985107421875" lon="-1.4994133450090885162353515625">
        <ele>1216.4000244140625</ele>
        <time>2021-09-25T07:32:25.000Z</time>
      </trkpt>
      <trkpt lat="40.68100201897323131561279296875" lon="-1.499389372766017913818359375">
        <ele>1216.800048828125</ele>
        <time>2021-09-25T07:32:27.000Z</time>
      </trkpt>
      <trkpt lat="40.6809528172016143798828125" lon="-1.4993479661643505096435546875">
        <ele>1217.199951171875</ele>
        <time>2021-09-25T07:32:29.000Z</time>
      </trkpt>
      <trkpt lat="40.68090445362031459808349609375" lon="-1.499300189316272735595703125">
        <ele>1217.800048828125</ele>
        <time>2021-09-25T07:32:31.000Z</time>
      </trkpt>
      <trkpt lat="40.6808554194867610931396484375" lon="-1.49924822151660919189453125">
        <ele>1218.5999755859375</ele>
        <time>2021-09-25T07:32:33.000Z</time>
      </trkpt>
      <trkpt lat="40.68081057630479335784912109375" lon="-1.4991979300975799560546875">
        <ele>1219</ele>
        <time>2021-09-25T07:32:35.000Z</time>
      </trkpt>
      <trkpt lat="40.68076564930379390716552734375" lon="-1.4991469681262969970703125">
        <ele>1219.4000244140625</ele>
        <time>2021-09-25T07:32:37.000Z</time>
      </trkpt>
      <trkpt lat="40.68074787966907024383544921875" lon="-1.49911670945584774017333984375">
        <ele>1219.5999755859375</ele>
        <time>2021-09-25T07:32:38.000Z</time>
      </trkpt>
      <trkpt lat="40.6807320378720760345458984375" lon="-1.4990852773189544677734375">
        <ele>1219.800048828125</ele>
        <time>2021-09-25T07:32:39.000Z</time>
      </trkpt>
      <trkpt lat="40.68069121800363063812255859375" lon="-1.4990289509296417236328125">
        <ele>1220.199951171875</ele>
        <time>2021-09-25T07:32:41.000Z</time>
      </trkpt>
      <trkpt lat="40.68064712919294834136962890625" lon="-1.4989741332828998565673828125">
        <ele>1220.5999755859375</ele>
        <time>2021-09-25T07:32:43.000Z</time>
      </trkpt>
      <trkpt lat="40.68059784360229969024658203125" lon="-1.4989359118044376373291015625">
        <ele>1220.800048828125</ele>
        <time>2021-09-25T07:32:45.000Z</time>
      </trkpt>
      <trkpt lat="40.68054855801165103912353515625" lon="-1.4988983608782291412353515625">
        <ele>1221.199951171875</ele>
        <time>2021-09-25T07:32:47.000Z</time>
      </trkpt>
      <trkpt lat="40.68052299320697784423828125" lon="-1.4988758973777294158935546875">
        <ele>1221.199951171875</ele>
        <time>2021-09-25T07:32:48.000Z</time>
      </trkpt>
      <trkpt lat="40.68049876950681209564208984375" lon="-1.4988520927727222442626953125">
        <ele>1221.4000244140625</ele>
        <time>2021-09-25T07:32:49.000Z</time>
      </trkpt>
      <trkpt lat="40.68044780753552913665771484375" lon="-1.498806662857532501220703125">
        <ele>1221.5999755859375</ele>
        <time>2021-09-25T07:32:51.000Z</time>
      </trkpt>
      <trkpt lat="40.68038376979529857635498046875" lon="-1.49876601062715053558349609375">
        <ele>1221.800048828125</ele>
        <time>2021-09-25T07:32:53.000Z</time>
      </trkpt>
      <trkpt lat="40.6803280301392078399658203125" lon="-1.498717479407787322998046875">
        <ele>1222</ele>
        <time>2021-09-25T07:32:55.000Z</time>
      </trkpt>
      <trkpt lat="40.6802978552877902984619140625" lon="-1.498693339526653289794921875">
        <ele>1222</ele>
        <time>2021-09-25T07:32:56.000Z</time>
      </trkpt>
      <trkpt lat="40.68026483058929443359375" lon="-1.4986646734178066253662109375">
        <ele>1222</ele>
        <time>2021-09-25T07:32:57.000Z</time>
      </trkpt>
      <trkpt lat="40.68019735626876354217529296875" lon="-1.49860926903784275054931640625">
        <ele>1222.4000244140625</ele>
        <time>2021-09-25T07:32:59.000Z</time>
      </trkpt>
      <trkpt lat="40.6801352463662624359130859375" lon="-1.49855813942849636077880859375">
        <ele>1222.4000244140625</ele>
        <time>2021-09-25T07:33:01.000Z</time>
      </trkpt>
      <trkpt lat="40.680072717368602752685546875" lon="-1.49850717745721340179443359375">
        <ele>1222.4000244140625</ele>
        <time>2021-09-25T07:33:03.000Z</time>
      </trkpt>
      <trkpt lat="40.68004346452653408050537109375" lon="-1.49848002009093761444091796875">
        <ele>1222.5999755859375</ele>
        <time>2021-09-25T07:33:04.000Z</time>
      </trkpt>
      <trkpt lat="40.680012367665767669677734375" lon="-1.4984571374952793121337890625">
        <ele>1222.4000244140625</ele>
        <time>2021-09-25T07:33:05.000Z</time>
      </trkpt>
      <trkpt lat="40.67994489334523677825927734375" lon="-1.498409695923328399658203125">
        <ele>1222</ele>
        <time>2021-09-25T07:33:07.000Z</time>
      </trkpt>
      <trkpt lat="40.6798730604350566864013671875" lon="-1.49837373755872249603271484375">
        <ele>1222</ele>
        <time>2021-09-25T07:33:09.000Z</time>
      </trkpt>
      <trkpt lat="40.67980374209582805633544921875" lon="-1.49834590964019298553466796875">
        <ele>1222</ele>
        <time>2021-09-25T07:33:11.000Z</time>
      </trkpt>
      <trkpt lat="40.679730065166950225830078125" lon="-1.49832797236740589141845703125">
        <ele>1221.5999755859375</ele>
        <time>2021-09-25T07:33:13.000Z</time>
      </trkpt>
      <trkpt lat="40.679651610553264617919921875" lon="-1.4983133040368556976318359375">
        <ele>1221</ele>
        <time>2021-09-25T07:33:15.000Z</time>
      </trkpt>
      <trkpt lat="40.6795696355402469635009765625" lon="-1.49829964153468608856201171875">
        <ele>1220.4000244140625</ele>
        <time>2021-09-25T07:33:17.000Z</time>
      </trkpt>
      <trkpt lat="40.67948807962238788604736328125" lon="-1.49829067289829254150390625">
        <ele>1219.5999755859375</ele>
        <time>2021-09-25T07:33:19.000Z</time>
      </trkpt>
      <trkpt lat="40.6794080324470996856689453125" lon="-1.49828086607158184051513671875">
        <ele>1219.5999755859375</ele>
        <time>2021-09-25T07:33:21.000Z</time>
      </trkpt>
      <trkpt lat="40.679325051605701446533203125" lon="-1.49827164597809314727783203125">
        <ele>1219.5999755859375</ele>
        <time>2021-09-25T07:33:23.000Z</time>
      </trkpt>
      <trkpt lat="40.67924248985946178436279296875" lon="-1.49826359935104846954345703125">
        <ele>1219.5999755859375</ele>
        <time>2021-09-25T07:33:25.000Z</time>
      </trkpt>
      <trkpt lat="40.67915816791355609893798828125" lon="-1.4982532896101474761962890625">
        <ele>1220</ele>
        <time>2021-09-25T07:33:27.000Z</time>
      </trkpt>
      <trkpt lat="40.679074265062808990478515625" lon="-1.49823409505188465118408203125">
        <ele>1220.800048828125</ele>
        <time>2021-09-25T07:33:29.000Z</time>
      </trkpt>
      <trkpt lat="40.67902841605246067047119140625" lon="-1.49822453968226909637451171875">
        <ele>1221.199951171875</ele>
        <time>2021-09-25T07:33:30.000Z</time>
      </trkpt>
      <trkpt lat="40.67898466251790523529052734375" lon="-1.49821481667459011077880859375">
        <ele>1221.5999755859375</ele>
        <time>2021-09-25T07:33:31.000Z</time>
      </trkpt>
      <trkpt lat="40.67889883182942867279052734375" lon="-1.4981922693550586700439453125">
        <ele>1222.199951171875</ele>
        <time>2021-09-25T07:33:33.000Z</time>
      </trkpt>
      <trkpt lat="40.67881668917834758758544921875" lon="-1.49816117249429225921630859375">
        <ele>1222.800048828125</ele>
        <time>2021-09-25T07:33:35.000Z</time>
      </trkpt>
      <trkpt lat="40.67873320542275905609130859375" lon="-1.49812647141516208648681640625">
        <ele>1224</ele>
        <time>2021-09-25T07:33:37.000Z</time>
      </trkpt>
      <trkpt lat="40.6786462850868701934814453125" lon="-1.49809126742184162139892578125">
        <ele>1225</ele>
        <time>2021-09-25T07:33:39.000Z</time>
      </trkpt>
      <trkpt lat="40.67856288515031337738037109375" lon="-1.4980601705610752105712890625">
        <ele>1225</ele>
        <time>2021-09-25T07:33:41.000Z</time>
      </trkpt>
      <trkpt lat="40.6785245798528194427490234375" lon="-1.4980437420308589935302734375">
        <ele>1224.800048828125</ele>
        <time>2021-09-25T07:33:42.000Z</time>
      </trkpt>
      <trkpt lat="40.67848627455532550811767578125" lon="-1.4980226196348667144775390625">
        <ele>1224.5999755859375</ele>
        <time>2021-09-25T07:33:43.000Z</time>
      </trkpt>
      <trkpt lat="40.6784082390367984771728515625" lon="-1.4979773573577404022216796875">
        <ele>1224.4000244140625</ele>
        <time>2021-09-25T07:33:45.000Z</time>
      </trkpt>
      <trkpt lat="40.67833405919373035430908203125" lon="-1.49792932905256748199462890625">
        <ele>1224.199951171875</ele>
        <time>2021-09-25T07:33:47.000Z</time>
      </trkpt>
      <trkpt lat="40.67825828678905963897705078125" lon="-1.49787266738712787628173828125">
        <ele>1224.199951171875</ele>
        <time>2021-09-25T07:33:49.000Z</time>
      </trkpt>
      <trkpt lat="40.67818486131727695465087890625" lon="-1.49780477397143840789794921875">
        <ele>1224.5999755859375</ele>
        <time>2021-09-25T07:33:51.000Z</time>
      </trkpt>
      <trkpt lat="40.6781472265720367431640625" lon="-1.49777191691100597381591796875">
        <ele>1224.5999755859375</ele>
        <time>2021-09-25T07:33:52.000Z</time>
      </trkpt>
      <trkpt lat="40.6781081669032573699951171875" lon="-1.49774140678346157073974609375">
        <ele>1224.800048828125</ele>
        <time>2021-09-25T07:33:53.000Z</time>
      </trkpt>
      <trkpt lat="40.67803935147821903228759765625" lon="-1.4976739324629306793212890625">
        <ele>1224.199951171875</ele>
        <time>2021-09-25T07:33:55.000Z</time>
      </trkpt>
      <trkpt lat="40.67797011695802211761474609375" lon="-1.49760846979916095733642578125">
        <ele>1223.800048828125</ele>
        <time>2021-09-25T07:33:57.000Z</time>
      </trkpt>
      <trkpt lat="40.677899457514286041259765625" lon="-1.497541330754756927490234375">
        <ele>1223.800048828125</ele>
        <time>2021-09-25T07:33:59.000Z</time>
      </trkpt>
      <trkpt lat="40.67786358296871185302734375" lon="-1.49750788696110248565673828125">
        <ele>1223.800048828125</ele>
        <time>2021-09-25T07:34:00.000Z</time>
      </trkpt>
      <trkpt lat="40.67782745696604251861572265625" lon="-1.497474275529384613037109375">
        <ele>1223.800048828125</ele>
        <time>2021-09-25T07:34:01.000Z</time>
      </trkpt>
      <trkpt lat="40.677756965160369873046875" lon="-1.49740822613239288330078125">
        <ele>1223.4000244140625</ele>
        <time>2021-09-25T07:34:03.000Z</time>
      </trkpt>
      <trkpt lat="40.67768613807857036590576171875" lon="-1.49734946899116039276123046875">
        <ele>1223</ele>
        <time>2021-09-25T07:34:05.000Z</time>
      </trkpt>
      <trkpt lat="40.6776201725006103515625" lon="-1.49728844873607158660888671875">
        <ele>1223</ele>
        <time>2021-09-25T07:34:07.000Z</time>
      </trkpt>
      <trkpt lat="40.67755035124719142913818359375" lon="-1.49723145179450511932373046875">
        <ele>1223</ele>
        <time>2021-09-25T07:34:09.000Z</time>
      </trkpt>
      <trkpt lat="40.67751598544418811798095703125" lon="-1.4972048811614513397216796875">
        <ele>1223.199951171875</ele>
        <time>2021-09-25T07:34:10.000Z</time>
      </trkpt>
      <trkpt lat="40.67748136818408966064453125" lon="-1.49717780761420726776123046875">
        <ele>1223.4000244140625</ele>
        <time>2021-09-25T07:34:11.000Z</time>
      </trkpt>
      <trkpt lat="40.6774091161787509918212890625" lon="-1.49712969549000263214111328125">
        <ele>1223.5999755859375</ele>
        <time>2021-09-25T07:34:13.000Z</time>
      </trkpt>
      <trkpt lat="40.67734231241047382354736328125" lon="-1.49707990698516368865966796875">
        <ele>1223.800048828125</ele>
        <time>2021-09-25T07:34:15.000Z</time>
      </trkpt>
      <trkpt lat="40.6772790290415287017822265625" lon="-1.4970333874225616455078125">
        <ele>1223.5999755859375</ele>
        <time>2021-09-25T07:34:17.000Z</time>
      </trkpt>
      <trkpt lat="40.67721172235906124114990234375" lon="-1.49698854424059391021728515625">
        <ele>1223.5999755859375</ele>
        <time>2021-09-25T07:34:19.000Z</time>
      </trkpt>
      <trkpt lat="40.6771442480385303497314453125" lon="-1.49694110266864299774169921875">
        <ele>1224</ele>
        <time>2021-09-25T07:34:21.000Z</time>
      </trkpt>
      <trkpt lat="40.677075684070587158203125" lon="-1.49689726531505584716796875">
        <ele>1224.4000244140625</ele>
        <time>2021-09-25T07:34:23.000Z</time>
      </trkpt>
      <trkpt lat="40.67701064050197601318359375" lon="-1.4968515001237392425537109375">
        <ele>1224.800048828125</ele>
        <time>2021-09-25T07:34:25.000Z</time>
      </trkpt>
      <trkpt lat="40.67697535268962383270263671875" lon="-1.49683230556547641754150390625">
        <ele>1225.199951171875</ele>
        <time>2021-09-25T07:34:26.000Z</time>
      </trkpt>
      <trkpt lat="40.6769370473921298980712890625" lon="-1.49681814014911651611328125">
        <ele>1225.4000244140625</ele>
        <time>2021-09-25T07:34:27.000Z</time>
      </trkpt>
      <trkpt lat="40.6768609397113323211669921875" lon="-1.49678151123225688934326171875">
        <ele>1226</ele>
        <time>2021-09-25T07:34:29.000Z</time>
      </trkpt>
      <trkpt lat="40.67678072489798069000244140625" lon="-1.49675100110471248626708984375">
        <ele>1226.5999755859375</ele>
        <time>2021-09-25T07:34:31.000Z</time>
      </trkpt>
      <trkpt lat="40.67670143209397792816162109375" lon="-1.49671730585396289825439453125">
        <ele>1227.199951171875</ele>
        <time>2021-09-25T07:34:33.000Z</time>
      </trkpt>
      <trkpt lat="40.67662146873772144317626953125" lon="-1.49668176658451557159423828125">
        <ele>1227.5999755859375</ele>
        <time>2021-09-25T07:34:35.000Z</time>
      </trkpt>
      <trkpt lat="40.676544606685638427734375" lon="-1.49663918651640415191650390625">
        <ele>1228.199951171875</ele>
        <time>2021-09-25T07:34:37.000Z</time>
      </trkpt>
      <trkpt lat="40.6764639727771282196044921875" lon="-1.4965933375060558319091796875">
        <ele>1228.5999755859375</ele>
        <time>2021-09-25T07:34:39.000Z</time>
      </trkpt>
      <trkpt lat="40.67638300359249114990234375" lon="-1.49654396809637546539306640625">
        <ele>1228.5999755859375</ele>
        <time>2021-09-25T07:34:41.000Z</time>
      </trkpt>
      <trkpt lat="40.676302202045917510986328125" lon="-1.4964967779815196990966796875">
        <ele>1228.4000244140625</ele>
        <time>2021-09-25T07:34:43.000Z</time>
      </trkpt>
      <trkpt lat="40.6762195564806461334228515625" lon="-1.49644338525831699371337890625">
        <ele>1228.800048828125</ele>
        <time>2021-09-25T07:34:45.000Z</time>
      </trkpt>
      <trkpt lat="40.676131881773471832275390625" lon="-1.49638873524963855743408203125">
        <ele>1228.800048828125</ele>
        <time>2021-09-25T07:34:47.000Z</time>
      </trkpt>
      <trkpt lat="40.67604848183691501617431640625" lon="-1.4963301457464694976806640625">
        <ele>1228.5999755859375</ele>
        <time>2021-09-25T07:34:49.000Z</time>
      </trkpt>
      <trkpt lat="40.6760046444833278656005859375" lon="-1.496300809085369110107421875">
        <ele>1228.4000244140625</ele>
        <time>2021-09-25T07:34:50.000Z</time>
      </trkpt>
      <trkpt lat="40.675957202911376953125" lon="-1.49627239443361759185791015625">
        <ele>1228.199951171875</ele>
        <time>2021-09-25T07:34:51.000Z</time>
      </trkpt>
      <trkpt lat="40.67586190067231655120849609375" lon="-1.49620835669338703155517578125">
        <ele>1228</ele>
        <time>2021-09-25T07:34:53.000Z</time>
      </trkpt>
      <trkpt lat="40.6757642515003681182861328125" lon="-1.4961501024663448333740234375">
        <ele>1227.800048828125</ele>
        <time>2021-09-25T07:34:55.000Z</time>
      </trkpt>
      <trkpt lat="40.6756688654422760009765625" lon="-1.49609017185866832733154296875">
        <ele>1227.199951171875</ele>
        <time>2021-09-25T07:34:57.000Z</time>
      </trkpt>
      <trkpt lat="40.675569958984851837158203125" lon="-1.496033929288387298583984375">
        <ele>1226</ele>
        <time>2021-09-25T07:34:59.000Z</time>
      </trkpt>
      <trkpt lat="40.675521008670330047607421875" lon="-1.49600719101727008819580078125">
        <ele>1225.4000244140625</ele>
        <time>2021-09-25T07:35:00.000Z</time>
      </trkpt>
      <trkpt lat="40.67547482438385486602783203125" lon="-1.4959764294326305389404296875">
        <ele>1224.5999755859375</ele>
        <time>2021-09-25T07:35:01.000Z</time>
      </trkpt>
      <trkpt lat="40.67537943832576274871826171875" lon="-1.4959122240543365478515625">
        <ele>1224.199951171875</ele>
        <time>2021-09-25T07:35:03.000Z</time>
      </trkpt>
      <trkpt lat="40.6752861477434635162353515625" lon="-1.49584877304732799530029296875">
        <ele>1224.199951171875</ele>
        <time>2021-09-25T07:35:05.000Z</time>
      </trkpt>
      <trkpt lat="40.675197131931781768798828125" lon="-1.49578037671744823455810546875">
        <ele>1225.199951171875</ele>
        <time>2021-09-25T07:35:07.000Z</time>
      </trkpt>
      <trkpt lat="40.67511071451008319854736328125" lon="-1.4957132376730442047119140625">
        <ele>1226.4000244140625</ele>
        <time>2021-09-25T07:35:09.000Z</time>
      </trkpt>
      <trkpt lat="40.6750276498496532440185546875" lon="-1.49564802646636962890625">
        <ele>1228.199951171875</ele>
        <time>2021-09-25T07:35:11.000Z</time>
      </trkpt>
      <trkpt lat="40.67494408227503299713134765625" lon="-1.49557937867939472198486328125">
        <ele>1230</ele>
        <time>2021-09-25T07:35:13.000Z</time>
      </trkpt>
      <trkpt lat="40.674863196909427642822265625" lon="-1.49550779722630977630615234375">
        <ele>1231.199951171875</ele>
        <time>2021-09-25T07:35:15.000Z</time>
      </trkpt>
      <trkpt lat="40.67482153885066509246826171875" lon="-1.4954748563468456268310546875">
        <ele>1231.5999755859375</ele>
        <time>2021-09-25T07:35:16.000Z</time>
      </trkpt>
      <trkpt lat="40.6747795455157756805419921875" lon="-1.4954423345625400543212890625">
        <ele>1232</ele>
        <time>2021-09-25T07:35:17.000Z</time>
      </trkpt>
      <trkpt lat="40.6746974028646945953369140625" lon="-1.49538307450711727142333984375">
        <ele>1232.199951171875</ele>
        <time>2021-09-25T07:35:19.000Z</time>
      </trkpt>
      <trkpt lat="40.67461785860359668731689453125" lon="-1.4953179471194744110107421875">
        <ele>1232.5999755859375</ele>
        <time>2021-09-25T07:35:21.000Z</time>
      </trkpt>
      <trkpt lat="40.6745448522269725799560546875" lon="-1.49525843560695648193359375">
        <ele>1232.800048828125</ele>
        <time>2021-09-25T07:35:23.000Z</time>
      </trkpt>
      <trkpt lat="40.67447134293615818023681640625" lon="-1.49520202539861202239990234375">
        <ele>1232.5999755859375</ele>
        <time>2021-09-25T07:35:25.000Z</time>
      </trkpt>
      <trkpt lat="40.67439657635986804962158203125" lon="-1.495150811970233917236328125">
        <ele>1232.199951171875</ele>
        <time>2021-09-25T07:35:27.000Z</time>
      </trkpt>
      <trkpt lat="40.6743215583264827728271484375" lon="-1.495101191103458404541015625">
        <ele>1232</ele>
        <time>2021-09-25T07:35:29.000Z</time>
      </trkpt>
      <trkpt lat="40.6742446124553680419921875" lon="-1.49505861103534698486328125">
        <ele>1232</ele>
        <time>2021-09-25T07:35:31.000Z</time>
      </trkpt>
      <trkpt lat="40.674205720424652099609375" lon="-1.49504025466740131378173828125">
        <ele>1232</ele>
        <time>2021-09-25T07:35:32.000Z</time>
      </trkpt>
      <trkpt lat="40.674164481461048126220703125" lon="-1.49502198211848735809326171875">
        <ele>1232</ele>
        <time>2021-09-25T07:35:33.000Z</time>
      </trkpt>
      <trkpt lat="40.67412600852549076080322265625" lon="-1.495002619922161102294921875">
        <ele>1232</ele>
        <time>2021-09-25T07:35:34.000Z</time>
      </trkpt>
      <trkpt lat="40.674088709056377410888671875" lon="-1.4949860237538814544677734375">
        <ele>1232</ele>
        <time>2021-09-25T07:35:35.000Z</time>
      </trkpt>
      <trkpt lat="40.674015618860721588134765625" lon="-1.49495040066540241241455078125">
        <ele>1232.199951171875</ele>
        <time>2021-09-25T07:35:37.000Z</time>
      </trkpt>
      <trkpt lat="40.67394160665571689605712890625" lon="-1.49491469375789165496826171875">
        <ele>1232.4000244140625</ele>
        <time>2021-09-25T07:35:39.000Z</time>
      </trkpt>
      <trkpt lat="40.673868767917156219482421875" lon="-1.49487714283168315887451171875">
        <ele>1232.199951171875</ele>
        <time>2021-09-25T07:35:41.000Z</time>
      </trkpt>
      <trkpt lat="40.6737958453595638275146484375" lon="-1.49483456276357173919677734375">
        <ele>1231.800048828125</ele>
        <time>2021-09-25T07:35:43.000Z</time>
      </trkpt>
      <trkpt lat="40.67371546290814876556396484375" lon="-1.4947939105331897735595703125">
        <ele>1230.800048828125</ele>
        <time>2021-09-25T07:35:45.000Z</time>
      </trkpt>
      <trkpt lat="40.6736399419605731964111328125" lon="-1.49474957026541233062744140625">
        <ele>1230</ele>
        <time>2021-09-25T07:35:47.000Z</time>
      </trkpt>
      <trkpt lat="40.67359845153987407684326171875" lon="-1.494722329080104827880859375">
        <ele>1229.800048828125</ele>
        <time>2021-09-25T07:35:48.000Z</time>
      </trkpt>
      <trkpt lat="40.6735534407198429107666015625" lon="-1.494690477848052978515625">
        <ele>1229.5999755859375</ele>
        <time>2021-09-25T07:35:49.000Z</time>
      </trkpt>
      <trkpt lat="40.6734572164714336395263671875" lon="-1.4946269430220127105712890625">
        <ele>1229</ele>
        <time>2021-09-25T07:35:51.000Z</time>
      </trkpt>
      <trkpt lat="40.67335051484405994415283203125" lon="-1.49457153864204883575439453125">
        <ele>1229.199951171875</ele>
        <time>2021-09-25T07:35:53.000Z</time>
      </trkpt>
      <trkpt lat="40.67329536192119121551513671875" lon="-1.49454270489513874053955078125">
        <ele>1229.4000244140625</ele>
        <time>2021-09-25T07:35:54.000Z</time>
      </trkpt>
      <trkpt lat="40.6732376106083393096923828125" lon="-1.4945132844150066375732421875">
        <ele>1229.5999755859375</ele>
        <time>2021-09-25T07:35:55.000Z</time>
      </trkpt>
      <trkpt lat="40.6731185875833034515380859375" lon="-1.49445511400699615478515625">
        <ele>1230</ele>
        <time>2021-09-25T07:35:57.000Z</time>
      </trkpt>
      <trkpt lat="40.6729945354163646697998046875" lon="-1.49439753033220767974853515625">
        <ele>1229.800048828125</ele>
        <time>2021-09-25T07:35:59.000Z</time>
      </trkpt>
      <trkpt lat="40.6728674657642841339111328125" lon="-1.49432376958429813385009765625">
        <ele>1229.4000244140625</ele>
        <time>2021-09-25T07:36:01.000Z</time>
      </trkpt>
      <trkpt lat="40.67273654043674468994140625" lon="-1.49423408322036266326904296875">
        <ele>1228.4000244140625</ele>
        <time>2021-09-25T07:36:03.000Z</time>
      </trkpt>
      <trkpt lat="40.67260150797665119171142578125" lon="-1.4941364340484142303466796875">
        <ele>1227.4000244140625</ele>
        <time>2021-09-25T07:36:05.000Z</time>
      </trkpt>
      <trkpt lat="40.67245683632791042327880859375" lon="-1.4940613321959972381591796875">
        <ele>1226.5999755859375</ele>
        <time>2021-09-25T07:36:07.000Z</time>
      </trkpt>
      <trkpt lat="40.6723038665950298309326171875" lon="-1.49402453564107418060302734375">
        <ele>1226.199951171875</ele>
        <time>2021-09-25T07:36:09.000Z</time>
      </trkpt>
      <trkpt lat="40.6721503101289272308349609375" lon="-1.4939912594854831695556640625">
        <ele>1226</ele>
        <time>2021-09-25T07:36:11.000Z</time>
      </trkpt>
      <trkpt lat="40.6720768846571445465087890625" lon="-1.49396519176661968231201171875">
        <ele>1225.5999755859375</ele>
        <time>2021-09-25T07:36:12.000Z</time>
      </trkpt>
      <trkpt lat="40.67201175726950168609619140625" lon="-1.49393065832555294036865234375">
        <ele>1225.199951171875</ele>
        <time>2021-09-25T07:36:13.000Z</time>
      </trkpt>
      <trkpt lat="40.6719553470611572265625" lon="-1.4938836358487606048583984375">
        <ele>1225.199951171875</ele>
        <time>2021-09-25T07:36:14.000Z</time>
      </trkpt>
      <trkpt lat="40.671902708709239959716796875" lon="-1.49383041076362133026123046875">
        <ele>1225.5999755859375</ele>
        <time>2021-09-25T07:36:15.000Z</time>
      </trkpt>
      <trkpt lat="40.6717892177402973175048828125" lon="-1.49371071718633174896240234375">
        <ele>1225.199951171875</ele>
        <time>2021-09-25T07:36:17.000Z</time>
      </trkpt>
      <trkpt lat="40.67167036235332489013671875" lon="-1.49358272552490234375">
        <ele>1223.800048828125</ele>
        <time>2021-09-25T07:36:19.000Z</time>
      </trkpt>
      <trkpt lat="40.6715463101863861083984375" lon="-1.49343813769519329071044921875">
        <ele>1222.800048828125</ele>
        <time>2021-09-25T07:36:21.000Z</time>
      </trkpt>
      <trkpt lat="40.67142502404749393463134765625" lon="-1.49328324012458324432373046875">
        <ele>1221.800048828125</ele>
        <time>2021-09-25T07:36:23.000Z</time>
      </trkpt>
      <trkpt lat="40.67132569849491119384765625" lon="-1.49308961816132068634033203125">
        <ele>1221.199951171875</ele>
        <time>2021-09-25T07:36:25.000Z</time>
      </trkpt>
      <trkpt lat="40.671254284679889678955078125" lon="-1.4928734488785266876220703125">
        <ele>1220.4000244140625</ele>
        <time>2021-09-25T07:36:27.000Z</time>
      </trkpt>
      <trkpt lat="40.67119334824383258819580078125" lon="-1.49266071617603302001953125">
        <ele>1219.5999755859375</ele>
        <time>2021-09-25T07:36:29.000Z</time>
      </trkpt>
      <trkpt lat="40.6711649335920810699462890625" lon="-1.49255200289189815521240234375">
        <ele>1219.199951171875</ele>
        <time>2021-09-25T07:36:30.000Z</time>
      </trkpt>
      <trkpt lat="40.67113987170159816741943359375" lon="-1.49244069121778011322021484375">
        <ele>1219.199951171875</ele>
        <time>2021-09-25T07:36:31.000Z</time>
      </trkpt>
      <trkpt lat="40.67108321003615856170654296875" lon="-1.49221991188824176788330078125">
        <ele>1219.199951171875</ele>
        <time>2021-09-25T07:36:33.000Z</time>
      </trkpt>
      <trkpt lat="40.67100609652698040008544921875" lon="-1.492005921900272369384765625">
        <ele>1218.4000244140625</ele>
        <time>2021-09-25T07:36:35.000Z</time>
      </trkpt>
      <trkpt lat="40.67095823585987091064453125" lon="-1.49190441705286502838134765625">
        <ele>1218</ele>
        <time>2021-09-25T07:36:36.000Z</time>
      </trkpt>
      <trkpt lat="40.67090551368892192840576171875" lon="-1.491807438433170318603515625">
        <ele>1217.5999755859375</ele>
        <time>2021-09-25T07:36:37.000Z</time>
      </trkpt>
      <trkpt lat="40.67078732885420322418212890625" lon="-1.4916188456118106842041015625">
        <ele>1216.5999755859375</ele>
        <time>2021-09-25T07:36:39.000Z</time>
      </trkpt>
      <trkpt lat="40.6706653721630573272705078125" lon="-1.4914382994174957275390625">
        <ele>1216.199951171875</ele>
        <time>2021-09-25T07:36:41.000Z</time>
      </trkpt>
      <trkpt lat="40.6705403141677379608154296875" lon="-1.49126890115439891815185546875">
        <ele>1215.800048828125</ele>
        <time>2021-09-25T07:36:43.000Z</time>
      </trkpt>
      <trkpt lat="40.670416094362735748291015625" lon="-1.49109539575874805450439453125">
        <ele>1215.199951171875</ele>
        <time>2021-09-25T07:36:45.000Z</time>
      </trkpt>
      <trkpt lat="40.67030168138444423675537109375" lon="-1.4909167774021625518798828125">
        <ele>1215</ele>
        <time>2021-09-25T07:36:47.000Z</time>
      </trkpt>
      <trkpt lat="40.67018399946391582489013671875" lon="-1.49073765613138675689697265625">
        <ele>1214.4000244140625</ele>
        <time>2021-09-25T07:36:49.000Z</time>
      </trkpt>
      <trkpt lat="40.67006103694438934326171875" lon="-1.4905741252005100250244140625">
        <ele>1213.199951171875</ele>
        <time>2021-09-25T07:36:51.000Z</time>
      </trkpt>
      <trkpt lat="40.66993639804422855377197265625" lon="-1.49040690623223781585693359375">
        <ele>1212.4000244140625</ele>
        <time>2021-09-25T07:36:53.000Z</time>
      </trkpt>
      <trkpt lat="40.66987638361752033233642578125" lon="-1.4903176389634609222412109375">
        <ele>1212.199951171875</ele>
        <time>2021-09-25T07:36:54.000Z</time>
      </trkpt>
      <trkpt lat="40.669814608991146087646484375" lon="-1.4902257733047008514404296875">
        <ele>1212</ele>
        <time>2021-09-25T07:36:55.000Z</time>
      </trkpt>
      <trkpt lat="40.66969089210033416748046875" lon="-1.49002988822758197784423828125">
        <ele>1211.199951171875</ele>
        <time>2021-09-25T07:36:57.000Z</time>
      </trkpt>
      <trkpt lat="40.66956373862922191619873046875" lon="-1.4898335002362728118896484375">
        <ele>1210.4000244140625</ele>
        <time>2021-09-25T07:36:59.000Z</time>
      </trkpt>
      <trkpt lat="40.66949777305126190185546875" lon="-1.48974155075848102569580078125">
        <ele>1210</ele>
        <time>2021-09-25T07:37:00.000Z</time>
      </trkpt>
      <trkpt lat="40.6694318912923336029052734375" lon="-1.48965186439454555511474609375">
        <ele>1210.4000244140625</ele>
        <time>2021-09-25T07:37:01.000Z</time>
      </trkpt>
      <trkpt lat="40.669294930994510650634765625" lon="-1.489479951560497283935546875">
        <ele>1210.800048828125</ele>
        <time>2021-09-25T07:37:03.000Z</time>
      </trkpt>
      <trkpt lat="40.6691485829651355743408203125" lon="-1.489329747855663299560546875">
        <ele>1210.4000244140625</ele>
        <time>2021-09-25T07:37:05.000Z</time>
      </trkpt>
      <trkpt lat="40.6690754927694797515869140625" lon="-1.4892621897161006927490234375">
        <ele>1210.4000244140625</ele>
        <time>2021-09-25T07:37:06.000Z</time>
      </trkpt>
      <trkpt lat="40.6690013967454433441162109375" lon="-1.489194296300411224365234375">
        <ele>1210.5999755859375</ele>
        <time>2021-09-25T07:37:07.000Z</time>
      </trkpt>
      <trkpt lat="40.66885848529636859893798828125" lon="-1.48906295187771320343017578125">
        <ele>1209.5999755859375</ele>
        <time>2021-09-25T07:37:09.000Z</time>
      </trkpt>
      <trkpt lat="40.6687138974666595458984375" lon="-1.48892632685601711273193359375">
        <ele>1208.199951171875</ele>
        <time>2021-09-25T07:37:11.000Z</time>
      </trkpt>
      <trkpt lat="40.668567717075347900390625" lon="-1.48880830965936183929443359375">
        <ele>1206.800048828125</ele>
        <time>2021-09-25T07:37:13.000Z</time>
      </trkpt>
      <trkpt lat="40.66849202848970890045166015625" lon="-1.488754414021968841552734375">
        <ele>1206</ele>
        <time>2021-09-25T07:37:14.000Z</time>
      </trkpt>
      <trkpt lat="40.66841684281826019287109375" lon="-1.48869884200394153594970703125">
        <ele>1205.4000244140625</ele>
        <time>2021-09-25T07:37:15.000Z</time>
      </trkpt>
      <trkpt lat="40.66827845759689807891845703125" lon="-1.488565988838672637939453125">
        <ele>1204.5999755859375</ele>
        <time>2021-09-25T07:37:17.000Z</time>
      </trkpt>
      <trkpt lat="40.668216012418270111083984375" lon="-1.48848745040595531463623046875">
        <ele>1204.4000244140625</ele>
        <time>2021-09-25T07:37:18.000Z</time>
      </trkpt>
      <trkpt lat="40.66815859638154506683349609375" lon="-1.4884032122790813446044921875">
        <ele>1204.199951171875</ele>
        <time>2021-09-25T07:37:19.000Z</time>
      </trkpt>
      <trkpt lat="40.66804527305066585540771484375" lon="-1.4882281981408596038818359375">
        <ele>1204.4000244140625</ele>
        <time>2021-09-25T07:37:21.000Z</time>
      </trkpt>
      <trkpt lat="40.6679288484156131744384765625" lon="-1.48805762641131877899169921875">
        <ele>1204.4000244140625</ele>
        <time>2021-09-25T07:37:23.000Z</time>
      </trkpt>
      <trkpt lat="40.667867995798587799072265625" lon="-1.48797850124537944793701171875">
        <ele>1204</ele>
        <time>2021-09-25T07:37:24.000Z</time>
      </trkpt>
      <trkpt lat="40.6678046286106109619140625" lon="-1.48790440522134304046630859375">
        <ele>1203.4000244140625</ele>
        <time>2021-09-25T07:37:25.000Z</time>
      </trkpt>
      <trkpt lat="40.6676683388650417327880859375" lon="-1.48776224814355373382568359375">
        <ele>1203</ele>
        <time>2021-09-25T07:37:27.000Z</time>
      </trkpt>
      <trkpt lat="40.6675338931381702423095703125" lon="-1.48763157427310943603515625">
        <ele>1203</ele>
        <time>2021-09-25T07:37:29.000Z</time>
      </trkpt>
      <trkpt lat="40.66746599972248077392578125" lon="-1.48756627924740314483642578125">
        <ele>1203.199951171875</ele>
        <time>2021-09-25T07:37:30.000Z</time>
      </trkpt>
      <trkpt lat="40.667400620877742767333984375" lon="-1.487501822412014007568359375">
        <ele>1203</ele>
        <time>2021-09-25T07:37:31.000Z</time>
      </trkpt>
      <trkpt lat="40.667269863188266754150390625" lon="-1.4873635210096836090087890625">
        <ele>1202.5999755859375</ele>
        <time>2021-09-25T07:37:33.000Z</time>
      </trkpt>
      <trkpt lat="40.66715058870613574981689453125" lon="-1.4872183464467525482177734375">
        <ele>1202</ele>
        <time>2021-09-25T07:37:35.000Z</time>
      </trkpt>
      <trkpt lat="40.66703625954687595367431640625" lon="-1.48706923238933086395263671875">
        <ele>1201.4000244140625</ele>
        <time>2021-09-25T07:37:37.000Z</time>
      </trkpt>
      <trkpt lat="40.66692662425339221954345703125" lon="-1.48691785521805286407470703125">
        <ele>1200.5999755859375</ele>
        <time>2021-09-25T07:37:39.000Z</time>
      </trkpt>
      <trkpt lat="40.6668241135776042938232421875" lon="-1.48677553050220012664794921875">
        <ele>1200</ele>
        <time>2021-09-25T07:37:41.000Z</time>
      </trkpt>
      <trkpt lat="40.66670961678028106689453125" lon="-1.4866433478891849517822265625">
        <ele>1200</ele>
        <time>2021-09-25T07:37:43.000Z</time>
      </trkpt>
      <trkpt lat="40.66665220074355602264404296875" lon="-1.4865767955780029296875">
        <ele>1199.199951171875</ele>
        <time>2021-09-25T07:37:44.000Z</time>
      </trkpt>
      <trkpt lat="40.6665931083261966705322265625" lon="-1.48650848306715488433837890625">
        <ele>1198.5999755859375</ele>
        <time>2021-09-25T07:37:45.000Z</time>
      </trkpt>
      <trkpt lat="40.666470564901828765869140625" lon="-1.4863721095025539398193359375">
        <ele>1198</ele>
        <time>2021-09-25T07:37:47.000Z</time>
      </trkpt>
      <trkpt lat="40.66634307615458965301513671875" lon="-1.486247219145298004150390625">
        <ele>1198</ele>
        <time>2021-09-25T07:37:49.000Z</time>
      </trkpt>
      <trkpt lat="40.66627216525375843048095703125" lon="-1.48618946783244609832763671875">
        <ele>1198</ele>
        <time>2021-09-25T07:37:50.000Z</time>
      </trkpt>
      <trkpt lat="40.6661988236010074615478515625" lon="-1.48613263852894306182861328125">
        <ele>1198</ele>
        <time>2021-09-25T07:37:51.000Z</time>
      </trkpt>
      <trkpt lat="40.66604183055460453033447265625" lon="-1.48603498935699462890625">
        <ele>1198.4000244140625</ele>
        <time>2021-09-25T07:37:53.000Z</time>
      </trkpt>
      <trkpt lat="40.665867067873477935791015625" lon="-1.4859593845903873443603515625">
        <ele>1198.4000244140625</ele>
        <time>2021-09-25T07:37:55.000Z</time>
      </trkpt>
      <trkpt lat="40.66568979062139987945556640625" lon="-1.48589107207953929901123046875">
        <ele>1198.199951171875</ele>
        <time>2021-09-25T07:37:57.000Z</time>
      </trkpt>
      <trkpt lat="40.66551662050187587738037109375" lon="-1.48582552559673786163330078125">
        <ele>1197.4000244140625</ele>
        <time>2021-09-25T07:37:59.000Z</time>
      </trkpt>
      <trkpt lat="40.66535317339003086090087890625" lon="-1.4857654273509979248046875">
        <ele>1195.800048828125</ele>
        <time>2021-09-25T07:38:01.000Z</time>
      </trkpt>
      <trkpt lat="40.6651960127055644989013671875" lon="-1.4857045747339725494384765625">
        <ele>1194.5999755859375</ele>
        <time>2021-09-25T07:38:03.000Z</time>
      </trkpt>
      <trkpt lat="40.66504128277301788330078125" lon="-1.48564883507788181304931640625">
        <ele>1194.4000244140625</ele>
        <time>2021-09-25T07:38:05.000Z</time>
      </trkpt>
      <trkpt lat="40.66488043405115604400634765625" lon="-1.4855952747166156768798828125">
        <ele>1194</ele>
        <time>2021-09-25T07:38:07.000Z</time>
      </trkpt>
      <trkpt lat="40.66479996778070926666259765625" lon="-1.48557297885417938232421875">
        <ele>1194</ele>
        <time>2021-09-25T07:38:08.000Z</time>
      </trkpt>
      <trkpt lat="40.664719752967357635498046875" lon="-1.48555227555334568023681640625">
        <ele>1194</ele>
        <time>2021-09-25T07:38:09.000Z</time>
      </trkpt>
      <trkpt lat="40.6645630113780498504638671875" lon="-1.48551874794065952301025390625">
        <ele>1194.199951171875</ele>
        <time>2021-09-25T07:38:11.000Z</time>
      </trkpt>
      <trkpt lat="40.66440920345485210418701171875" lon="-1.485480777919292449951171875">
        <ele>1194</ele>
        <time>2021-09-25T07:38:13.000Z</time>
      </trkpt>
      <trkpt lat="40.66425363533198833465576171875" lon="-1.4854259602725505828857421875">
        <ele>1193.199951171875</ele>
        <time>2021-09-25T07:38:15.000Z</time>
      </trkpt>
      <trkpt lat="40.6640963070094585418701171875" lon="-1.4853622578084468841552734375">
        <ele>1193</ele>
        <time>2021-09-25T07:38:17.000Z</time>
      </trkpt>
      <trkpt lat="40.664018355309963226318359375" lon="-1.48532755672931671142578125">
        <ele>1193</ele>
        <time>2021-09-25T07:38:18.000Z</time>
      </trkpt>
      <trkpt lat="40.6639417447149753570556640625" lon="-1.4852906763553619384765625">
        <ele>1193</ele>
        <time>2021-09-25T07:38:19.000Z</time>
      </trkpt>
      <trkpt lat="40.66379011608660221099853515625" lon="-1.48521398194134235382080078125">
        <ele>1193.4000244140625</ele>
        <time>2021-09-25T07:38:21.000Z</time>
      </trkpt>
      <trkpt lat="40.6636386550962924957275390625" lon="-1.48512664251029491424560546875">
        <ele>1194</ele>
        <time>2021-09-25T07:38:23.000Z</time>
      </trkpt>
      <trkpt lat="40.6634897924959659576416015625" lon="-1.4850356988608837127685546875">
        <ele>1193.800048828125</ele>
        <time>2021-09-25T07:38:25.000Z</time>
      </trkpt>
      <trkpt lat="40.66341586410999298095703125" lon="-1.484989933669567108154296875">
        <ele>1194</ele>
        <time>2021-09-25T07:38:26.000Z</time>
      </trkpt>
      <trkpt lat="40.6633422710001468658447265625" lon="-1.48494458757340908050537109375">
        <ele>1193.5999755859375</ele>
        <time>2021-09-25T07:38:27.000Z</time>
      </trkpt>
      <trkpt lat="40.66319516859948635101318359375" lon="-1.48485808633267879486083984375">
        <ele>1192.5999755859375</ele>
        <time>2021-09-25T07:38:29.000Z</time>
      </trkpt>
      <trkpt lat="40.663050077855587005615234375" lon="-1.48476705886423587799072265625">
        <ele>1192.199951171875</ele>
        <time>2021-09-25T07:38:31.000Z</time>
      </trkpt>
      <trkpt lat="40.66290222108364105224609375" lon="-1.4846823178231716156005859375">
        <ele>1191.800048828125</ele>
        <time>2021-09-25T07:38:33.000Z</time>
      </trkpt>
      <trkpt lat="40.662747323513031005859375" lon="-1.4845954813063144683837890625">
        <ele>1191.5999755859375</ele>
        <time>2021-09-25T07:38:35.000Z</time>
      </trkpt>
      <trkpt lat="40.6625902466475963592529296875" lon="-1.4845076389610767364501953125">
        <ele>1191.800048828125</ele>
        <time>2021-09-25T07:38:37.000Z</time>
      </trkpt>
      <trkpt lat="40.66243610344827175140380859375" lon="-1.48442440666258335113525390625">
        <ele>1191.199951171875</ele>
        <time>2021-09-25T07:38:39.000Z</time>
      </trkpt>
      <trkpt lat="40.66228942014276981353759765625" lon="-1.48434343747794628143310546875">
        <ele>1189.800048828125</ele>
        <time>2021-09-25T07:38:41.000Z</time>
      </trkpt>
      <trkpt lat="40.66215480677783489227294921875" lon="-1.48425559513270854949951171875">
        <ele>1189.199951171875</ele>
        <time>2021-09-25T07:38:43.000Z</time>
      </trkpt>
      <trkpt lat="40.66202203743159770965576171875" lon="-1.4841589517891407012939453125">
        <ele>1188.199951171875</ele>
        <time>2021-09-25T07:38:45.000Z</time>
      </trkpt>
      <trkpt lat="40.66188960336148738861083984375" lon="-1.48405350744724273681640625">
        <ele>1187.5999755859375</ele>
        <time>2021-09-25T07:38:47.000Z</time>
      </trkpt>
      <trkpt lat="40.66176353953778743743896484375" lon="-1.48394412361085414886474609375">
        <ele>1187.199951171875</ele>
        <time>2021-09-25T07:38:49.000Z</time>
      </trkpt>
      <trkpt lat="40.66164962947368621826171875" lon="-1.48383281193673610687255859375">
        <ele>1187</ele>
        <time>2021-09-25T07:38:51.000Z</time>
      </trkpt>
      <trkpt lat="40.66154611296951770782470703125" lon="-1.4837163873016834259033203125">
        <ele>1187</ele>
        <time>2021-09-25T07:38:53.000Z</time>
      </trkpt>
      <trkpt lat="40.66149699501693248748779296875" lon="-1.48365494795143604278564453125">
        <ele>1187</ele>
        <time>2021-09-25T07:38:54.000Z</time>
      </trkpt>
      <trkpt lat="40.6614543311297893524169921875" lon="-1.4835886470973491668701171875">
        <ele>1187</ele>
        <time>2021-09-25T07:38:55.000Z</time>
      </trkpt>
      <trkpt lat="40.66137143410742282867431640625" lon="-1.4834599010646343231201171875">
        <ele>1187.199951171875</ele>
        <time>2021-09-25T07:38:57.000Z</time>
      </trkpt>
      <trkpt lat="40.66128225065767765045166015625" lon="-1.48331782780587673187255859375">
        <ele>1188</ele>
        <time>2021-09-25T07:38:59.000Z</time>
      </trkpt>
      <trkpt lat="40.6611924804747104644775390625" lon="-1.48316971957683563232421875">
        <ele>1188.199951171875</ele>
        <time>2021-09-25T07:39:01.000Z</time>
      </trkpt>
      <trkpt lat="40.6610965915024280548095703125" lon="-1.483020521700382232666015625">
        <ele>1187.800048828125</ele>
        <time>2021-09-25T07:39:03.000Z</time>
      </trkpt>
      <trkpt lat="40.6610010378062725067138671875" lon="-1.48286771960556507110595703125">
        <ele>1186.800048828125</ele>
        <time>2021-09-25T07:39:05.000Z</time>
      </trkpt>
      <trkpt lat="40.66090908832848072052001953125" lon="-1.48271500132977962493896484375">
        <ele>1186.800048828125</ele>
        <time>2021-09-25T07:39:07.000Z</time>
      </trkpt>
      <trkpt lat="40.66082661040127277374267578125" lon="-1.48255088366568088531494140625">
        <ele>1186.800048828125</ele>
        <time>2021-09-25T07:39:09.000Z</time>
      </trkpt>
      <trkpt lat="40.66075100563466548919677734375" lon="-1.4823776297271251678466796875">
        <ele>1187</ele>
        <time>2021-09-25T07:39:11.000Z</time>
      </trkpt>
      <trkpt lat="40.6606721319258213043212890625" lon="-1.4822130091488361358642578125">
        <ele>1186.5999755859375</ele>
        <time>2021-09-25T07:39:13.000Z</time>
      </trkpt>
      <trkpt lat="40.6605826131999492645263671875" lon="-1.482064984738826751708984375">
        <ele>1185.800048828125</ele>
        <time>2021-09-25T07:39:15.000Z</time>
      </trkpt>
      <trkpt lat="40.66048211418092250823974609375" lon="-1.48193380795419216156005859375">
        <ele>1185.199951171875</ele>
        <time>2021-09-25T07:39:17.000Z</time>
      </trkpt>
      <trkpt lat="40.66042721271514892578125" lon="-1.48187412880361080169677734375">
        <ele>1184.5999755859375</ele>
        <time>2021-09-25T07:39:18.000Z</time>
      </trkpt>
      <trkpt lat="40.66037231124937534332275390625" lon="-1.4818197302520275115966796875">
        <ele>1184</ele>
        <time>2021-09-25T07:39:19.000Z</time>
      </trkpt>
      <trkpt lat="40.660254545509815216064453125" lon="-1.48172610439360141754150390625">
        <ele>1183</ele>
        <time>2021-09-25T07:39:21.000Z</time>
      </trkpt>
      <trkpt lat="40.6601242907345294952392578125" lon="-1.48168109357357025146484375">
        <ele>1183</ele>
        <time>2021-09-25T07:39:23.000Z</time>
      </trkpt>
      <trkpt lat="40.6599878333508968353271484375" lon="-1.481672041118144989013671875">
        <ele>1183</ele>
        <time>2021-09-25T07:39:25.000Z</time>
      </trkpt>
      <trkpt lat="40.6598446704447269439697265625" lon="-1.48165653459727764129638671875">
        <ele>1183</ele>
        <time>2021-09-25T07:39:27.000Z</time>
      </trkpt>
      <trkpt lat="40.6597732566297054290771484375" lon="-1.4816406928002834320068359375">
        <ele>1183</ele>
        <time>2021-09-25T07:39:28.000Z</time>
      </trkpt>
      <trkpt lat="40.6597011722624301910400390625" lon="-1.4816269464790821075439453125">
        <ele>1183.5999755859375</ele>
        <time>2021-09-25T07:39:29.000Z</time>
      </trkpt>
      <trkpt lat="40.65956010483205318450927734375" lon="-1.48159417323768138885498046875">
        <ele>1184.800048828125</ele>
        <time>2021-09-25T07:39:31.000Z</time>
      </trkpt>
      <trkpt lat="40.65942364744842052459716796875" lon="-1.48156617768108844757080078125">
        <ele>1184.4000244140625</ele>
        <time>2021-09-25T07:39:33.000Z</time>
      </trkpt>
      <trkpt lat="40.65929138101637363433837890625" lon="-1.48154170252382755279541015625">
        <ele>1184</ele>
        <time>2021-09-25T07:39:35.000Z</time>
      </trkpt>
      <trkpt lat="40.65916322171688079833984375" lon="-1.48151907138526439666748046875">
        <ele>1183.800048828125</ele>
        <time>2021-09-25T07:39:37.000Z</time>
      </trkpt>
      <trkpt lat="40.65903824754059314727783203125" lon="-1.48149325512349605560302734375">
        <ele>1183.4000244140625</ele>
        <time>2021-09-25T07:39:39.000Z</time>
      </trkpt>
      <trkpt lat="40.6589122675359249114990234375" lon="-1.48146308027207851409912109375">
        <ele>1182.800048828125</ele>
        <time>2021-09-25T07:39:41.000Z</time>
      </trkpt>
      <trkpt lat="40.65884697251021862030029296875" lon="-1.48144782520830631256103515625">
        <ele>1182.4000244140625</ele>
        <time>2021-09-25T07:39:42.000Z</time>
      </trkpt>
      <trkpt lat="40.65877941437065601348876953125" lon="-1.48143298923969268798828125">
        <ele>1181.800048828125</ele>
        <time>2021-09-25T07:39:43.000Z</time>
      </trkpt>
      <trkpt lat="40.65864781849086284637451171875" lon="-1.48140172474086284637451171875">
        <ele>1181</ele>
        <time>2021-09-25T07:39:45.000Z</time>
      </trkpt>
      <trkpt lat="40.65851840190589427947998046875" lon="-1.48136216215789318084716796875">
        <ele>1180.5999755859375</ele>
        <time>2021-09-25T07:39:47.000Z</time>
      </trkpt>
      <trkpt lat="40.6583932600915431976318359375" lon="-1.4813201688230037689208984375">
        <ele>1179.800048828125</ele>
        <time>2021-09-25T07:39:49.000Z</time>
      </trkpt>
      <trkpt lat="40.65828052349388599395751953125" lon="-1.481281109154224395751953125">
        <ele>1179.5999755859375</ele>
        <time>2021-09-25T07:39:51.000Z</time>
      </trkpt>
      <trkpt lat="40.65822419710457324981689453125" lon="-1.48125219158828258514404296875">
        <ele>1179.5999755859375</ele>
        <time>2021-09-25T07:39:52.000Z</time>
      </trkpt>
      <trkpt lat="40.658165775239467620849609375" lon="-1.48122017271816730499267578125">
        <ele>1179.4000244140625</ele>
        <time>2021-09-25T07:39:53.000Z</time>
      </trkpt>
      <trkpt lat="40.6581035815179347991943359375" lon="-1.481187231838703155517578125">
        <ele>1179.199951171875</ele>
        <time>2021-09-25T07:39:54.000Z</time>
      </trkpt>
      <trkpt lat="40.65804331563413143157958984375" lon="-1.48115328513085842132568359375">
        <ele>1179.199951171875</ele>
        <time>2021-09-25T07:39:55.000Z</time>
      </trkpt>
      <trkpt lat="40.6579265557229518890380859375" lon="-1.48108430206775665283203125">
        <ele>1179.5999755859375</ele>
        <time>2021-09-25T07:39:57.000Z</time>
      </trkpt>
      <trkpt lat="40.657805688679218292236328125" lon="-1.48101188242435455322265625">
        <ele>1180</ele>
        <time>2021-09-25T07:39:59.000Z</time>
      </trkpt>
      <trkpt lat="40.65767954103648662567138671875" lon="-1.4809454977512359619140625">
        <ele>1180.4000244140625</ele>
        <time>2021-09-25T07:40:01.000Z</time>
      </trkpt>
      <trkpt lat="40.65761634148657321929931640625" lon="-1.48091054521501064300537109375">
        <ele>1180.199951171875</ele>
        <time>2021-09-25T07:40:02.000Z</time>
      </trkpt>
      <trkpt lat="40.6575554050505161285400390625" lon="-1.48087785579264163970947265625">
        <ele>1180.199951171875</ele>
        <time>2021-09-25T07:40:03.000Z</time>
      </trkpt>
      <trkpt lat="40.65744367428123950958251953125" lon="-1.48079864680767059326171875">
        <ele>1179.800048828125</ele>
        <time>2021-09-25T07:40:05.000Z</time>
      </trkpt>
      <trkpt lat="40.65732657909393310546875" lon="-1.48072128184139728546142578125">
        <ele>1179.5999755859375</ele>
        <time>2021-09-25T07:40:07.000Z</time>
      </trkpt>
      <trkpt lat="40.65721166320145130157470703125" lon="-1.48064634762704372406005859375">
        <ele>1179.4000244140625</ele>
        <time>2021-09-25T07:40:09.000Z</time>
      </trkpt>
      <trkpt lat="40.65710135735571384429931640625" lon="-1.48056571371853351593017578125">
        <ele>1178.5999755859375</ele>
        <time>2021-09-25T07:40:11.000Z</time>
      </trkpt>
      <trkpt lat="40.656985603272914886474609375" lon="-1.4804814755916595458984375">
        <ele>1177.800048828125</ele>
        <time>2021-09-25T07:40:13.000Z</time>
      </trkpt>
      <trkpt lat="40.6568690948188304901123046875" lon="-1.48039774037897586822509765625">
        <ele>1177.4000244140625</ele>
        <time>2021-09-25T07:40:15.000Z</time>
      </trkpt>
      <trkpt lat="40.65675166435539722442626953125" lon="-1.4803089760243892669677734375">
        <ele>1177.199951171875</ele>
        <time>2021-09-25T07:40:17.000Z</time>
      </trkpt>
      <trkpt lat="40.65663448534905910491943359375" lon="-1.48022792302072048187255859375">
        <ele>1177.4000244140625</ele>
        <time>2021-09-25T07:40:19.000Z</time>
      </trkpt>
      <trkpt lat="40.65651965327560901641845703125" lon="-1.48014225997030735015869140625">
        <ele>1178</ele>
        <time>2021-09-25T07:40:21.000Z</time>
      </trkpt>
      <trkpt lat="40.656398199498653411865234375" lon="-1.48005391471087932586669921875">
        <ele>1178.4000244140625</ele>
        <time>2021-09-25T07:40:23.000Z</time>
      </trkpt>
      <trkpt lat="40.65627389587461948394775390625" lon="-1.4799680002033710479736328125">
        <ele>1179.199951171875</ele>
        <time>2021-09-25T07:40:25.000Z</time>
      </trkpt>
      <trkpt lat="40.65621069632470607757568359375" lon="-1.479927934706211090087890625">
        <ele>1179.800048828125</ele>
        <time>2021-09-25T07:40:26.000Z</time>
      </trkpt>
      <trkpt lat="40.6561479158699512481689453125" lon="-1.47988527081906795501708984375">
        <ele>1179.5999755859375</ele>
        <time>2021-09-25T07:40:27.000Z</time>
      </trkpt>
      <trkpt lat="40.65602730028331279754638671875" lon="-1.47979591973125934600830078125">
        <ele>1179.800048828125</ele>
        <time>2021-09-25T07:40:29.000Z</time>
      </trkpt>
      <trkpt lat="40.6559118814766407012939453125" lon="-1.479702629148960113525390625">
        <ele>1179.800048828125</ele>
        <time>2021-09-25T07:40:31.000Z</time>
      </trkpt>
      <trkpt lat="40.6558005698025226593017578125" lon="-1.47960506379604339599609375">
        <ele>1179.5999755859375</ele>
        <time>2021-09-25T07:40:33.000Z</time>
      </trkpt>
      <trkpt lat="40.65569336526095867156982421875" lon="-1.47950112819671630859375">
        <ele>1178.800048828125</ele>
        <time>2021-09-25T07:40:35.000Z</time>
      </trkpt>
      <trkpt lat="40.65558649599552154541015625" lon="-1.47939811460673809051513671875">
        <ele>1177.800048828125</ele>
        <time>2021-09-25T07:40:37.000Z</time>
      </trkpt>
      <trkpt lat="40.65548113547265529632568359375" lon="-1.4793013036251068115234375">
        <ele>1177</ele>
        <time>2021-09-25T07:40:39.000Z</time>
      </trkpt>
      <trkpt lat="40.65537719987332820892333984375" lon="-1.47920466028153896331787109375">
        <ele>1177</ele>
        <time>2021-09-25T07:40:41.000Z</time>
      </trkpt>
      <trkpt lat="40.6552728451788425445556640625" lon="-1.47912763059139251708984375">
        <ele>1177.5999755859375</ele>
        <time>2021-09-25T07:40:43.000Z</time>
      </trkpt>
      <trkpt lat="40.65517016686499118804931640625" lon="-1.479070968925952911376953125">
        <ele>1178.800048828125</ele>
        <time>2021-09-25T07:40:45.000Z</time>
      </trkpt>
      <trkpt lat="40.65512716770172119140625" lon="-1.47904691286385059356689453125">
        <ele>1179.199951171875</ele>
        <time>2021-09-25T07:40:46.000Z</time>
      </trkpt>
      <trkpt lat="40.65508735366165637969970703125" lon="-1.47902612574398517608642578125">
        <ele>1179.4000244140625</ele>
        <time>2021-09-25T07:40:47.000Z</time>
      </trkpt>
      <trkpt lat="40.65502415411174297332763671875" lon="-1.47898949682712554931640625">
        <ele>1179.800048828125</ele>
        <time>2021-09-25T07:40:49.000Z</time>
      </trkpt>
      <trkpt lat="40.65500571392476558685302734375" lon="-1.478977091610431671142578125">
        <ele>1180</ele>
        <time>2021-09-25T07:40:50.000Z</time>
      </trkpt>
      <trkpt lat="40.65499079413712024688720703125" lon="-1.47896929644048213958740234375">
        <ele>1180.199951171875</ele>
        <time>2021-09-25T07:40:51.000Z</time>
      </trkpt>
      <trkpt lat="40.6549613736569881439208984375" lon="-1.47894834168255329132080078125">
        <ele>1180.5999755859375</ele>
        <time>2021-09-25T07:40:53.000Z</time>
      </trkpt>
      <trkpt lat="40.65494385547935962677001953125" lon="-1.47894255816936492919921875">
        <ele>1180.800048828125</ele>
        <time>2021-09-25T07:40:54.000Z</time>
      </trkpt>
      <trkpt lat="40.6549278460443019866943359375" lon="-1.47894884459674358367919921875">
        <ele>1180.800048828125</ele>
        <time>2021-09-25T07:40:55.000Z</time>
      </trkpt>
      <trkpt lat="40.6549124233424663543701171875" lon="-1.47896644659340381622314453125">
        <ele>1181</ele>
        <time>2021-09-25T07:40:57.000Z</time>
      </trkpt>
      <trkpt lat="40.6549124233424663543701171875" lon="-1.47896644659340381622314453125">
        <ele>1181</ele>
        <time>2021-09-25T07:40:58.000Z</time>
      </trkpt>
      <trkpt lat="40.65484561957418918609619140625" lon="-1.4788783527910709381103515625">
        <ele>1181.4000244140625</ele>
        <time>2021-09-25T07:44:15.000Z</time>
      </trkpt>
      <trkpt lat="40.654808990657329559326171875" lon="-1.478855051100254058837890625">
        <ele>1181.5999755859375</ele>
        <time>2021-09-25T07:44:17.000Z</time>
      </trkpt>
      <trkpt lat="40.65478979609906673431396484375" lon="-1.47884063422679901123046875">
        <ele>1181.800048828125</ele>
        <time>2021-09-25T07:44:18.000Z</time>
      </trkpt>
      <trkpt lat="40.6547675840556621551513671875" lon="-1.478824205696582794189453125">
        <ele>1181.800048828125</ele>
        <time>2021-09-25T07:44:19.000Z</time>
      </trkpt>
      <trkpt lat="40.65474428236484527587890625" lon="-1.47880182601511478424072265625">
        <ele>1181.800048828125</ele>
        <time>2021-09-25T07:44:20.000Z</time>
      </trkpt>
      <trkpt lat="40.6547216512262821197509765625" lon="-1.4787777699530124664306640625">
        <ele>1181.5999755859375</ele>
        <time>2021-09-25T07:44:21.000Z</time>
      </trkpt>
      <trkpt lat="40.654697678983211517333984375" lon="-1.47875639609992504119873046875">
        <ele>1181.5999755859375</ele>
        <time>2021-09-25T07:44:22.000Z</time>
      </trkpt>
      <trkpt lat="40.6546770595014095306396484375" lon="-1.4787311665713787078857421875">
        <ele>1181.4000244140625</ele>
        <time>2021-09-25T07:44:23.000Z</time>
      </trkpt>
      <trkpt lat="40.6546291150152683258056640625" lon="-1.47868012078106403350830078125">
        <ele>1181.4000244140625</ele>
        <time>2021-09-25T07:44:25.000Z</time>
      </trkpt>
      <trkpt lat="40.65457790158689022064208984375" lon="-1.47861725650727748870849609375">
        <ele>1181.5999755859375</ele>
        <time>2021-09-25T07:44:27.000Z</time>
      </trkpt>
      <trkpt lat="40.6545218266546726226806640625" lon="-1.47854651324450969696044921875">
        <ele>1181.800048828125</ele>
        <time>2021-09-25T07:44:29.000Z</time>
      </trkpt>
      <trkpt lat="40.6544624827802181243896484375" lon="-1.47847627289593219757080078125">
        <ele>1181.5999755859375</ele>
        <time>2021-09-25T07:44:31.000Z</time>
      </trkpt>
      <trkpt lat="40.6543994508683681488037109375" lon="-1.47840821184217929840087890625">
        <ele>1181.4000244140625</ele>
        <time>2021-09-25T07:44:33.000Z</time>
      </trkpt>
      <trkpt lat="40.65434060990810394287109375" lon="-1.47833981551229953765869140625">
        <ele>1181.5999755859375</ele>
        <time>2021-09-25T07:44:35.000Z</time>
      </trkpt>
      <trkpt lat="40.65430968068540096282958984375" lon="-1.4783080480992794036865234375">
        <ele>1181.5999755859375</ele>
        <time>2021-09-25T07:44:36.000Z</time>
      </trkpt>
      <trkpt lat="40.654281266033649444580078125" lon="-1.47827443666756153106689453125">
        <ele>1181.800048828125</ele>
        <time>2021-09-25T07:44:37.000Z</time>
      </trkpt>
      <trkpt lat="40.65422317944467067718505859375" lon="-1.4782078005373477935791015625">
        <ele>1182</ele>
        <time>2021-09-25T07:44:39.000Z</time>
      </trkpt>
      <trkpt lat="40.65416215918958187103271484375" lon="-1.47814502008259296417236328125">
        <ele>1182.199951171875</ele>
        <time>2021-09-25T07:44:41.000Z</time>
      </trkpt>
      <trkpt lat="40.6540987081825733184814453125" lon="-1.478075869381427764892578125">
        <ele>1182</ele>
        <time>2021-09-25T07:44:43.000Z</time>
      </trkpt>
      <trkpt lat="40.654036514461040496826171875" lon="-1.47800755687057971954345703125">
        <ele>1182</ele>
        <time>2021-09-25T07:44:45.000Z</time>
      </trkpt>
      <trkpt lat="40.6539759971201419830322265625" lon="-1.47793672978878021240234375">
        <ele>1181.800048828125</ele>
        <time>2021-09-25T07:44:47.000Z</time>
      </trkpt>
      <trkpt lat="40.65391740761697292327880859375" lon="-1.47787461988627910614013671875">
        <ele>1181.4000244140625</ele>
        <time>2021-09-25T07:44:49.000Z</time>
      </trkpt>
      <trkpt lat="40.65385621972382068634033203125" lon="-1.47780957631766796112060546875">
        <ele>1181.199951171875</ele>
        <time>2021-09-25T07:44:51.000Z</time>
      </trkpt>
      <trkpt lat="40.65379704348742961883544921875" lon="-1.47773900069296360015869140625">
        <ele>1181</ele>
        <time>2021-09-25T07:44:53.000Z</time>
      </trkpt>
      <trkpt lat="40.65373334102332592010498046875" lon="-1.47766523994505405426025390625">
        <ele>1181</ele>
        <time>2021-09-25T07:44:55.000Z</time>
      </trkpt>
      <trkpt lat="40.653675086796283721923828125" lon="-1.4776036329567432403564453125">
        <ele>1181.5999755859375</ele>
        <time>2021-09-25T07:44:57.000Z</time>
      </trkpt>
      <trkpt lat="40.65361917950212955474853515625" lon="-1.4775362424552440643310546875">
        <ele>1182.199951171875</ele>
        <time>2021-09-25T07:44:59.000Z</time>
      </trkpt>
      <trkpt lat="40.6535612605512142181396484375" lon="-1.47747195325791835784912109375">
        <ele>1182.5999755859375</ele>
        <time>2021-09-25T07:45:01.000Z</time>
      </trkpt>
      <trkpt lat="40.6535062752664089202880859375" lon="-1.4774036407470703125">
        <ele>1183</ele>
        <time>2021-09-25T07:45:03.000Z</time>
      </trkpt>
      <trkpt lat="40.65347819589078426361083984375" lon="-1.47737187333405017852783203125">
        <ele>1183.199951171875</ele>
        <time>2021-09-25T07:45:04.000Z</time>
      </trkpt>
      <trkpt lat="40.653449781239032745361328125" lon="-1.477341949939727783203125">
        <ele>1183.4000244140625</ele>
        <time>2021-09-25T07:45:05.000Z</time>
      </trkpt>
      <trkpt lat="40.65339655615389347076416015625" lon="-1.47728268988430500030517578125">
        <ele>1183.800048828125</ele>
        <time>2021-09-25T07:45:07.000Z</time>
      </trkpt>
      <trkpt lat="40.6533419899642467498779296875" lon="-1.4772187359631061553955078125">
        <ele>1184.199951171875</ele>
        <time>2021-09-25T07:45:09.000Z</time>
      </trkpt>
      <trkpt lat="40.65328775905072689056396484375" lon="-1.4771528542041778564453125">
        <ele>1184.800048828125</ele>
        <time>2021-09-25T07:45:11.000Z</time>
      </trkpt>
      <trkpt lat="40.65323143266141414642333984375" lon="-1.4770859666168689727783203125">
        <ele>1185.5999755859375</ele>
        <time>2021-09-25T07:45:13.000Z</time>
      </trkpt>
      <trkpt lat="40.65317426808178424835205078125" lon="-1.47702343761920928955078125">
        <ele>1185.800048828125</ele>
        <time>2021-09-25T07:45:15.000Z</time>
      </trkpt>
      <trkpt lat="40.65314526669681072235107421875" lon="-1.4769917540252208709716796875">
        <ele>1185.800048828125</ele>
        <time>2021-09-25T07:45:16.000Z</time>
      </trkpt>
      <trkpt lat="40.65311425365507602691650390625" lon="-1.47696132771670818328857421875">
        <ele>1186</ele>
        <time>2021-09-25T07:45:17.000Z</time>
      </trkpt>
      <trkpt lat="40.653053820133209228515625" lon="-1.4768948592245578765869140625">
        <ele>1186.5999755859375</ele>
        <time>2021-09-25T07:45:19.000Z</time>
      </trkpt>
      <trkpt lat="40.65299506299197673797607421875" lon="-1.47682436741888523101806640625">
        <ele>1187.4000244140625</ele>
        <time>2021-09-25T07:45:21.000Z</time>
      </trkpt>
      <trkpt lat="40.6529332883656024932861328125" lon="-1.4767587371170520782470703125">
        <ele>1188.199951171875</ele>
        <time>2021-09-25T07:45:23.000Z</time>
      </trkpt>
      <trkpt lat="40.6529044546186923980712890625" lon="-1.4767221920192241668701171875">
        <ele>1188.4000244140625</ele>
        <time>2021-09-25T07:45:24.000Z</time>
      </trkpt>
      <trkpt lat="40.65287754870951175689697265625" lon="-1.47668556310236454010009765625">
        <ele>1188.4000244140625</ele>
        <time>2021-09-25T07:45:25.000Z</time>
      </trkpt>
      <trkpt lat="40.65282222814857959747314453125" lon="-1.476614736020565032958984375">
        <ele>1188.5999755859375</ele>
        <time>2021-09-25T07:45:27.000Z</time>
      </trkpt>
      <trkpt lat="40.65276657231152057647705078125" lon="-1.47654793225228786468505859375">
        <ele>1188.4000244140625</ele>
        <time>2021-09-25T07:45:29.000Z</time>
      </trkpt>
      <trkpt lat="40.652714185416698455810546875" lon="-1.47648188285529613494873046875">
        <ele>1188.199951171875</ele>
        <time>2021-09-25T07:45:31.000Z</time>
      </trkpt>
      <trkpt lat="40.6526858545839786529541015625" lon="-1.4764502830803394317626953125">
        <ele>1188.199951171875</ele>
        <time>2021-09-25T07:45:32.000Z</time>
      </trkpt>
      <trkpt lat="40.65265710465610027313232421875" lon="-1.47642270661890506744384765625">
        <ele>1188.4000244140625</ele>
        <time>2021-09-25T07:45:33.000Z</time>
      </trkpt>
      <trkpt lat="40.65260128118097782135009765625" lon="-1.4763580821454524993896484375">
        <ele>1188.5999755859375</ele>
        <time>2021-09-25T07:45:35.000Z</time>
      </trkpt>
      <trkpt lat="40.6525396741926670074462890625" lon="-1.4762896858155727386474609375">
        <ele>1188.5999755859375</ele>
        <time>2021-09-25T07:45:37.000Z</time>
      </trkpt>
      <trkpt lat="40.652509666979312896728515625" lon="-1.47625439800322055816650390625">
        <ele>1188.5999755859375</ele>
        <time>2021-09-25T07:45:38.000Z</time>
      </trkpt>
      <trkpt lat="40.65248007886111736297607421875" lon="-1.47621877491474151611328125">
        <ele>1188.5999755859375</ele>
        <time>2021-09-25T07:45:39.000Z</time>
      </trkpt>
      <trkpt lat="40.65242073498666286468505859375" lon="-1.47614794783294200897216796875">
        <ele>1188.800048828125</ele>
        <time>2021-09-25T07:45:41.000Z</time>
      </trkpt>
      <trkpt lat="40.65236105583608150482177734375" lon="-1.476084329187870025634765625">
        <ele>1189.4000244140625</ele>
        <time>2021-09-25T07:45:43.000Z</time>
      </trkpt>
      <trkpt lat="40.65230472944676876068115234375" lon="-1.476021967828273773193359375">
        <ele>1189.800048828125</ele>
        <time>2021-09-25T07:45:45.000Z</time>
      </trkpt>
      <trkpt lat="40.65224840305745601654052734375" lon="-1.475958935916423797607421875">
        <ele>1190.199951171875</ele>
        <time>2021-09-25T07:45:47.000Z</time>
      </trkpt>
      <trkpt lat="40.65218704752624034881591796875" lon="-1.47590403445065021514892578125">
        <ele>1190.5999755859375</ele>
        <time>2021-09-25T07:45:49.000Z</time>
      </trkpt>
      <trkpt lat="40.65212502144277095794677734375" lon="-1.4758417569100856781005859375">
        <ele>1190.5999755859375</ele>
        <time>2021-09-25T07:45:51.000Z</time>
      </trkpt>
      <trkpt lat="40.6520927511155605316162109375" lon="-1.47581250406801700592041015625">
        <ele>1190.5999755859375</ele>
        <time>2021-09-25T07:45:52.000Z</time>
      </trkpt>
      <trkpt lat="40.6520592235028743743896484375" lon="-1.47578484378755092620849609375">
        <ele>1190.5999755859375</ele>
        <time>2021-09-25T07:45:53.000Z</time>
      </trkpt>
      <trkpt lat="40.651994012296199798583984375" lon="-1.475734971463680267333984375">
        <ele>1191</ele>
        <time>2021-09-25T07:45:55.000Z</time>
      </trkpt>
      <trkpt lat="40.6519264541566371917724609375" lon="-1.47568166255950927734375">
        <ele>1191.199951171875</ele>
        <time>2021-09-25T07:45:57.000Z</time>
      </trkpt>
      <trkpt lat="40.65186132676899433135986328125" lon="-1.47562759928405284881591796875">
        <ele>1191.4000244140625</ele>
        <time>2021-09-25T07:45:59.000Z</time>
      </trkpt>
      <trkpt lat="40.6517953611910343170166015625" lon="-1.47557898424565792083740234375">
        <ele>1191.5999755859375</ele>
        <time>2021-09-25T07:46:01.000Z</time>
      </trkpt>
      <trkpt lat="40.6517628394067287445068359375" lon="-1.47555333562195301055908203125">
        <ele>1191.800048828125</ele>
        <time>2021-09-25T07:46:02.000Z</time>
      </trkpt>
      <trkpt lat="40.651728473603725433349609375" lon="-1.47553187794983386993408203125">
        <ele>1191.800048828125</ele>
        <time>2021-09-25T07:46:03.000Z</time>
      </trkpt>
      <trkpt lat="40.65166250802576541900634765625" lon="-1.47548074834048748016357421875">
        <ele>1192.4000244140625</ele>
        <time>2021-09-25T07:46:05.000Z</time>
      </trkpt>
      <trkpt lat="40.651597715914249420166015625" lon="-1.4754380844533443450927734375">
        <ele>1192.800048828125</ele>
        <time>2021-09-25T07:46:07.000Z</time>
      </trkpt>
      <trkpt lat="40.65152839757502079010009765625" lon="-1.47540564648807048797607421875">
        <ele>1193.199951171875</ele>
        <time>2021-09-25T07:46:09.000Z</time>
      </trkpt>
      <trkpt lat="40.65146368928253650665283203125" lon="-1.475370861589908599853515625">
        <ele>1193.800048828125</ele>
        <time>2021-09-25T07:46:11.000Z</time>
      </trkpt>
      <trkpt lat="40.65139688551425933837890625" lon="-1.47534445859491825103759765625">
        <ele>1194.4000244140625</ele>
        <time>2021-09-25T07:46:13.000Z</time>
      </trkpt>
      <trkpt lat="40.6513326801359653472900390625" lon="-1.4753128588199615478515625">
        <ele>1194.800048828125</ele>
        <time>2021-09-25T07:46:15.000Z</time>
      </trkpt>
      <trkpt lat="40.65126587636768817901611328125" lon="-1.475289724767208099365234375">
        <ele>1195.199951171875</ele>
        <time>2021-09-25T07:46:17.000Z</time>
      </trkpt>
      <trkpt lat="40.6512339413166046142578125" lon="-1.4752724580466747283935546875">
        <ele>1195.4000244140625</ele>
        <time>2021-09-25T07:46:18.000Z</time>
      </trkpt>
      <trkpt lat="40.65119865350425243377685546875" lon="-1.47526047192513942718505859375">
        <ele>1195.5999755859375</ele>
        <time>2021-09-25T07:46:19.000Z</time>
      </trkpt>
      <trkpt lat="40.65113067626953125" lon="-1.475228704512119293212890625">
        <ele>1196</ele>
        <time>2021-09-25T07:46:21.000Z</time>
      </trkpt>
      <trkpt lat="40.65106353722512722015380859375" lon="-1.47519643418490886688232421875">
        <ele>1196.4000244140625</ele>
        <time>2021-09-25T07:46:23.000Z</time>
      </trkpt>
      <trkpt lat="40.65099597908556461334228515625" lon="-1.4751698635518550872802734375">
        <ele>1196.800048828125</ele>
        <time>2021-09-25T07:46:25.000Z</time>
      </trkpt>
      <trkpt lat="40.650934539735317230224609375" lon="-1.4751413650810718536376953125">
        <ele>1196.800048828125</ele>
        <time>2021-09-25T07:46:27.000Z</time>
      </trkpt>
      <trkpt lat="40.650866813957691192626953125" lon="-1.47510834038257598876953125">
        <ele>1196.800048828125</ele>
        <time>2021-09-25T07:46:29.000Z</time>
      </trkpt>
      <trkpt lat="40.650797076523303985595703125" lon="-1.47507556714117527008056640625">
        <ele>1196.5999755859375</ele>
        <time>2021-09-25T07:46:31.000Z</time>
      </trkpt>
      <trkpt lat="40.65072909928858280181884765625" lon="-1.4750417880713939666748046875">
        <ele>1196.4000244140625</ele>
        <time>2021-09-25T07:46:33.000Z</time>
      </trkpt>
      <trkpt lat="40.65069590695202350616455078125" lon="-1.47502074949443340301513671875">
        <ele>1196.199951171875</ele>
        <time>2021-09-25T07:46:34.000Z</time>
      </trkpt>
      <trkpt lat="40.650663636624813079833984375" lon="-1.4750055782496929168701171875">
        <ele>1196</ele>
        <time>2021-09-25T07:46:35.000Z</time>
      </trkpt>
      <trkpt lat="40.65059884451329708099365234375" lon="-1.4749740622937679290771484375">
        <ele>1196</ele>
        <time>2021-09-25T07:46:37.000Z</time>
      </trkpt>
      <trkpt lat="40.650534890592098236083984375" lon="-1.47494464181363582611083984375">
        <ele>1196</ele>
        <time>2021-09-25T07:46:39.000Z</time>
      </trkpt>
      <trkpt lat="40.650469847023487091064453125" lon="-1.474922932684421539306640625">
        <ele>1196.199951171875</ele>
        <time>2021-09-25T07:46:41.000Z</time>
      </trkpt>
      <trkpt lat="40.650400780141353607177734375" lon="-1.474900133907794952392578125">
        <ele>1196.4000244140625</ele>
        <time>2021-09-25T07:46:43.000Z</time>
      </trkpt>
      <trkpt lat="40.65033607184886932373046875" lon="-1.47487859241664409637451171875">
        <ele>1196.5999755859375</ele>
        <time>2021-09-25T07:46:45.000Z</time>
      </trkpt>
      <trkpt lat="40.65027245320379734039306640625" lon="-1.47484338842332363128662109375">
        <ele>1196.800048828125</ele>
        <time>2021-09-25T07:46:47.000Z</time>
      </trkpt>
      <trkpt lat="40.65020489506423473358154296875" lon="-1.47481036372482776641845703125">
        <ele>1197.199951171875</ele>
        <time>2021-09-25T07:46:49.000Z</time>
      </trkpt>
      <trkpt lat="40.65013985149562358856201171875" lon="-1.474780105054378509521484375">
        <ele>1197.5999755859375</ele>
        <time>2021-09-25T07:46:51.000Z</time>
      </trkpt>
      <trkpt lat="40.65007589757442474365234375" lon="-1.47475537844002246856689453125">
        <ele>1197.800048828125</ele>
        <time>2021-09-25T07:46:53.000Z</time>
      </trkpt>
      <trkpt lat="40.65001110546290874481201171875" lon="-1.4747252874076366424560546875">
        <ele>1198.199951171875</ele>
        <time>2021-09-25T07:46:55.000Z</time>
      </trkpt>
      <trkpt lat="40.64994555898010730743408203125" lon="-1.4747004769742488861083984375">
        <ele>1198.199951171875</ele>
        <time>2021-09-25T07:46:57.000Z</time>
      </trkpt>
      <trkpt lat="40.64987607300281524658203125" lon="-1.474670134484767913818359375">
        <ele>1198.4000244140625</ele>
        <time>2021-09-25T07:46:59.000Z</time>
      </trkpt>
      <trkpt lat="40.64980306662619113922119140625" lon="-1.47463702596724033355712890625">
        <ele>1198.800048828125</ele>
        <time>2021-09-25T07:47:01.000Z</time>
      </trkpt>
      <trkpt lat="40.649732910096645355224609375" lon="-1.4746059291064739227294921875">
        <ele>1199</ele>
        <time>2021-09-25T07:47:03.000Z</time>
      </trkpt>
      <trkpt lat="40.6496636755764484405517578125" lon="-1.474578268826007843017578125">
        <ele>1199</ele>
        <time>2021-09-25T07:47:05.000Z</time>
      </trkpt>
      <trkpt lat="40.64959603361785411834716796875" lon="-1.47455287165939807891845703125">
        <ele>1199.199951171875</ele>
        <time>2021-09-25T07:47:07.000Z</time>
      </trkpt>
      <trkpt lat="40.6495292298495769500732421875" lon="-1.47452806122601032257080078125">
        <ele>1199.5999755859375</ele>
        <time>2021-09-25T07:47:09.000Z</time>
      </trkpt>
      <trkpt lat="40.649462677538394927978515625" lon="-1.47449922747910022735595703125">
        <ele>1199.800048828125</ele>
        <time>2021-09-25T07:47:11.000Z</time>
      </trkpt>
      <trkpt lat="40.6493964605033397674560546875" lon="-1.47447207011282444000244140625">
        <ele>1200.199951171875</ele>
        <time>2021-09-25T07:47:13.000Z</time>
      </trkpt>
      <trkpt lat="40.6493357755243778228759765625" lon="-1.47444390691816806793212890625">
        <ele>1200.5999755859375</ele>
        <time>2021-09-25T07:47:15.000Z</time>
      </trkpt>
      <trkpt lat="40.6492807902395725250244140625" lon="-1.4744097925722599029541015625">
        <ele>1200.800048828125</ele>
        <time>2021-09-25T07:47:17.000Z</time>
      </trkpt>
      <trkpt lat="40.64922320656478404998779296875" lon="-1.4743802882730960845947265625">
        <ele>1201</ele>
        <time>2021-09-25T07:47:19.000Z</time>
      </trkpt>
      <trkpt lat="40.6491647846996784210205078125" lon="-1.4743491075932979583740234375">
        <ele>1201</ele>
        <time>2021-09-25T07:47:21.000Z</time>
      </trkpt>
      <trkpt lat="40.64910368062555789947509765625" lon="-1.4743162505328655242919921875">
        <ele>1201</ele>
        <time>2021-09-25T07:47:23.000Z</time>
      </trkpt>
      <trkpt lat="40.6490407325327396392822265625" lon="-1.47428615950047969818115234375">
        <ele>1200.800048828125</ele>
        <time>2021-09-25T07:47:25.000Z</time>
      </trkpt>
      <trkpt lat="40.6489827297627925872802734375" lon="-1.47425263188779354095458984375">
        <ele>1200.5999755859375</ele>
        <time>2021-09-25T07:47:27.000Z</time>
      </trkpt>
      <trkpt lat="40.6489250622689723968505859375" lon="-1.47421273402869701385498046875">
        <ele>1200.199951171875</ele>
        <time>2021-09-25T07:47:29.000Z</time>
      </trkpt>
      <trkpt lat="40.64886915497481822967529296875" lon="-1.47417635656893253326416015625">
        <ele>1200.199951171875</ele>
        <time>2021-09-25T07:47:31.000Z</time>
      </trkpt>
      <trkpt lat="40.648841746151447296142578125" lon="-1.47415758110582828521728515625">
        <ele>1200.4000244140625</ele>
        <time>2021-09-25T07:47:32.000Z</time>
      </trkpt>
      <trkpt lat="40.6488147564232349395751953125" lon="-1.47413880564272403717041015625">
        <ele>1200.4000244140625</ele>
        <time>2021-09-25T07:47:33.000Z</time>
      </trkpt>
      <trkpt lat="40.648762620985507965087890625" lon="-1.4741030149161815643310546875">
        <ele>1200.800048828125</ele>
        <time>2021-09-25T07:47:35.000Z</time>
      </trkpt>
      <trkpt lat="40.6487111561000347137451171875" lon="-1.4740708284080028533935546875">
        <ele>1201</ele>
        <time>2021-09-25T07:47:37.000Z</time>
      </trkpt>
      <trkpt lat="40.64865692518651485443115234375" lon="-1.4740362949669361114501953125">
        <ele>1201</ele>
        <time>2021-09-25T07:47:39.000Z</time>
      </trkpt>
      <trkpt lat="40.648627169430255889892578125" lon="-1.4740141667425632476806640625">
        <ele>1201.199951171875</ele>
        <time>2021-09-25T07:47:40.000Z</time>
      </trkpt>
      <trkpt lat="40.64859657548367977142333984375" lon="-1.47399446927011013031005859375">
        <ele>1201.4000244140625</ele>
        <time>2021-09-25T07:47:41.000Z</time>
      </trkpt>
      <trkpt lat="40.64853538759052753448486328125" lon="-1.47396211512386798858642578125">
        <ele>1201.800048828125</ele>
        <time>2021-09-25T07:47:43.000Z</time>
      </trkpt>
      <trkpt lat="40.64847671426832675933837890625" lon="-1.4739296771585941314697265625">
        <ele>1202.199951171875</ele>
        <time>2021-09-25T07:47:45.000Z</time>
      </trkpt>
      <trkpt lat="40.64841452054679393768310546875" lon="-1.47389355115592479705810546875">
        <ele>1202.800048828125</ele>
        <time>2021-09-25T07:47:47.000Z</time>
      </trkpt>
      <trkpt lat="40.64834863878786563873291015625" lon="-1.47385616786777973175048828125">
        <ele>1203</ele>
        <time>2021-09-25T07:47:49.000Z</time>
      </trkpt>
      <trkpt lat="40.64828527159988880157470703125" lon="-1.47381685674190521240234375">
        <ele>1203</ele>
        <time>2021-09-25T07:47:51.000Z</time>
      </trkpt>
      <trkpt lat="40.64822257496416568756103515625" lon="-1.47377788089215755462646484375">
        <ele>1203.199951171875</ele>
        <time>2021-09-25T07:47:53.000Z</time>
      </trkpt>
      <trkpt lat="40.6481582857668399810791015625" lon="-1.473738066852092742919921875">
        <ele>1203.5999755859375</ele>
        <time>2021-09-25T07:47:55.000Z</time>
      </trkpt>
      <trkpt lat="40.648124925792217254638671875" lon="-1.47371753118932247161865234375">
        <ele>1203.800048828125</ele>
        <time>2021-09-25T07:47:56.000Z</time>
      </trkpt>
      <trkpt lat="40.648091733455657958984375" lon="-1.473695151507854461669921875">
        <ele>1204</ele>
        <time>2021-09-25T07:47:57.000Z</time>
      </trkpt>
      <trkpt lat="40.64802543260157108306884765625" lon="-1.4736564271152019500732421875">
        <ele>1204.199951171875</ele>
        <time>2021-09-25T07:47:59.000Z</time>
      </trkpt>
      <trkpt lat="40.64796441234648227691650390625" lon="-1.4736128412187099456787109375">
        <ele>1204</ele>
        <time>2021-09-25T07:48:01.000Z</time>
      </trkpt>
      <trkpt lat="40.64790104515850543975830078125" lon="-1.4735736139118671417236328125">
        <ele>1204</ele>
        <time>2021-09-25T07:48:03.000Z</time>
      </trkpt>
      <trkpt lat="40.64783616922795772552490234375" lon="-1.4735323749482631683349609375">
        <ele>1204</ele>
        <time>2021-09-25T07:48:05.000Z</time>
      </trkpt>
      <trkpt lat="40.6477680243551731109619140625" lon="-1.4734897948801517486572265625">
        <ele>1204.199951171875</ele>
        <time>2021-09-25T07:48:07.000Z</time>
      </trkpt>
      <trkpt lat="40.64770214259624481201171875" lon="-1.47345350123941898345947265625">
        <ele>1204.4000244140625</ele>
        <time>2021-09-25T07:48:09.000Z</time>
      </trkpt>
      <trkpt lat="40.64763517118990421295166015625" lon="-1.47341050207614898681640625">
        <ele>1204.4000244140625</ele>
        <time>2021-09-25T07:48:11.000Z</time>
      </trkpt>
      <trkpt lat="40.64757113344967365264892578125" lon="-1.47336423397064208984375">
        <ele>1204.199951171875</ele>
        <time>2021-09-25T07:48:13.000Z</time>
      </trkpt>
      <trkpt lat="40.64750692807137966156005859375" lon="-1.47332333028316497802734375">
        <ele>1204.4000244140625</ele>
        <time>2021-09-25T07:48:15.000Z</time>
      </trkpt>
      <trkpt lat="40.64744205214083194732666015625" lon="-1.473280079662799835205078125">
        <ele>1205</ele>
        <time>2021-09-25T07:48:17.000Z</time>
      </trkpt>
      <trkpt lat="40.64737784676253795623779296875" lon="-1.4732329733669757843017578125">
        <ele>1205.4000244140625</ele>
        <time>2021-09-25T07:48:19.000Z</time>
      </trkpt>
      <trkpt lat="40.64731121063232421875" lon="-1.4731867052614688873291015625">
        <ele>1206</ele>
        <time>2021-09-25T07:48:21.000Z</time>
      </trkpt>
      <trkpt lat="40.6472483463585376739501953125" lon="-1.4731421135365962982177734375">
        <ele>1206.4000244140625</ele>
        <time>2021-09-25T07:48:23.000Z</time>
      </trkpt>
      <trkpt lat="40.64718103967607021331787109375" lon="-1.4730938337743282318115234375">
        <ele>1206.4000244140625</ele>
        <time>2021-09-25T07:48:25.000Z</time>
      </trkpt>
      <trkpt lat="40.64711549319326877593994140625" lon="-1.47304010577499866485595703125">
        <ele>1206.5999755859375</ele>
        <time>2021-09-25T07:48:27.000Z</time>
      </trkpt>
      <trkpt lat="40.6470470130443572998046875" lon="-1.473002471029758453369140625">
        <ele>1206.5999755859375</ele>
        <time>2021-09-25T07:48:29.000Z</time>
      </trkpt>
      <trkpt lat="40.64701390452682971954345703125" lon="-1.47298327647149562835693359375">
        <ele>1206.5999755859375</ele>
        <time>2021-09-25T07:48:30.000Z</time>
      </trkpt>
      <trkpt lat="40.64698004163801670074462890625" lon="-1.47296366281807422637939453125">
        <ele>1206.5999755859375</ele>
        <time>2021-09-25T07:48:31.000Z</time>
      </trkpt>
      <trkpt lat="40.646907873451709747314453125" lon="-1.4729285426437854766845703125">
        <ele>1206.199951171875</ele>
        <time>2021-09-25T07:48:33.000Z</time>
      </trkpt>
      <trkpt lat="40.64684073440730571746826171875" lon="-1.47290934808552265167236328125">
        <ele>1206</ele>
        <time>2021-09-25T07:48:35.000Z</time>
      </trkpt>
      <trkpt lat="40.64677602611482143402099609375" lon="-1.47288219071924686431884765625">
        <ele>1206</ele>
        <time>2021-09-25T07:48:37.000Z</time>
      </trkpt>
      <trkpt lat="40.6467078812420368194580078125" lon="-1.47285972721874713897705078125">
        <ele>1206</ele>
        <time>2021-09-25T07:48:39.000Z</time>
      </trkpt>
      <trkpt lat="40.64664191566407680511474609375" lon="-1.47284480743110179901123046875">
        <ele>1206.199951171875</ele>
        <time>2021-09-25T07:48:41.000Z</time>
      </trkpt>
      <trkpt lat="40.64657771028578281402587890625" lon="-1.47282670252025127410888671875">
        <ele>1206.800048828125</ele>
        <time>2021-09-25T07:48:43.000Z</time>
      </trkpt>
      <trkpt lat="40.6465093977749347686767578125" lon="-1.47281295619904994964599609375">
        <ele>1207.199951171875</ele>
        <time>2021-09-25T07:48:45.000Z</time>
      </trkpt>
      <trkpt lat="40.64644192345440387725830078125" lon="-1.47279367782175540924072265625">
        <ele>1207.800048828125</ele>
        <time>2021-09-25T07:48:47.000Z</time>
      </trkpt>
      <trkpt lat="40.6463772989809513092041015625" lon="-1.47277389653027057647705078125">
        <ele>1208.199951171875</ele>
        <time>2021-09-25T07:48:49.000Z</time>
      </trkpt>
      <trkpt lat="40.64630999229848384857177734375" lon="-1.47274531424045562744140625">
        <ele>1208.4000244140625</ele>
        <time>2021-09-25T07:48:51.000Z</time>
      </trkpt>
      <trkpt lat="40.6462455354630947113037109375" lon="-1.4727146364748477935791015625">
        <ele>1208.5999755859375</ele>
        <time>2021-09-25T07:48:53.000Z</time>
      </trkpt>
      <trkpt lat="40.64618208445608615875244140625" lon="-1.47267499007284641265869140625">
        <ele>1208.5999755859375</ele>
        <time>2021-09-25T07:48:55.000Z</time>
      </trkpt>
      <trkpt lat="40.64611787907779216766357421875" lon="-1.47264129482209682464599609375">
        <ele>1208.800048828125</ele>
        <time>2021-09-25T07:48:57.000Z</time>
      </trkpt>
      <trkpt lat="40.64608586020767688751220703125" lon="-1.4726197533309459686279296875">
        <ele>1209</ele>
        <time>2021-09-25T07:48:58.000Z</time>
      </trkpt>
      <trkpt lat="40.64605501480400562286376953125" lon="-1.47259787656366825103759765625">
        <ele>1209</ele>
        <time>2021-09-25T07:48:59.000Z</time>
      </trkpt>
      <trkpt lat="40.64599047414958477020263671875" lon="-1.4725555479526519775390625">
        <ele>1209.4000244140625</ele>
        <time>2021-09-25T07:49:01.000Z</time>
      </trkpt>
      <trkpt lat="40.64593012444674968719482421875" lon="-1.4725164882838726043701171875">
        <ele>1209.5999755859375</ele>
        <time>2021-09-25T07:49:03.000Z</time>
      </trkpt>
      <trkpt lat="40.6458683498203754425048828125" lon="-1.472478769719600677490234375">
        <ele>1210</ele>
        <time>2021-09-25T07:49:05.000Z</time>
      </trkpt>
      <trkpt lat="40.6458046473562717437744140625" lon="-1.4724326692521572113037109375">
        <ele>1210.5999755859375</ele>
        <time>2021-09-25T07:49:07.000Z</time>
      </trkpt>
      <trkpt lat="40.64577455632388591766357421875" lon="-1.4724107086658477783203125">
        <ele>1210.800048828125</ele>
        <time>2021-09-25T07:49:08.000Z</time>
      </trkpt>
      <trkpt lat="40.64574253745377063751220703125" lon="-1.4723941124975681304931640625">
        <ele>1211</ele>
        <time>2021-09-25T07:49:09.000Z</time>
      </trkpt>
      <trkpt lat="40.64568721689283847808837890625" lon="-1.4723585732281208038330078125">
        <ele>1211.5999755859375</ele>
        <time>2021-09-25T07:49:11.000Z</time>
      </trkpt>
      <trkpt lat="40.64562988467514514923095703125" lon="-1.4723221957683563232421875">
        <ele>1212</ele>
        <time>2021-09-25T07:49:13.000Z</time>
      </trkpt>
      <trkpt lat="40.6455717980861663818359375" lon="-1.4722841419279575347900390625">
        <ele>1212.199951171875</ele>
        <time>2021-09-25T07:49:15.000Z</time>
      </trkpt>
      <trkpt lat="40.6455146335065364837646484375" lon="-1.47223762236535549163818359375">
        <ele>1212</ele>
        <time>2021-09-25T07:49:17.000Z</time>
      </trkpt>
      <trkpt lat="40.64545386470854282379150390625" lon="-1.47219680249691009521484375">
        <ele>1212</ele>
        <time>2021-09-25T07:49:19.000Z</time>
      </trkpt>
      <trkpt lat="40.6453899107873439788818359375" lon="-1.47215346805751323699951171875">
        <ele>1211.800048828125</ele>
        <time>2021-09-25T07:49:21.000Z</time>
      </trkpt>
      <trkpt lat="40.6453298963606357574462890625" lon="-1.472113989293575286865234375">
        <ele>1211.5999755859375</ele>
        <time>2021-09-25T07:49:23.000Z</time>
      </trkpt>
      <trkpt lat="40.645274408161640167236328125" lon="-1.47206746973097324371337890625">
        <ele>1211.4000244140625</ele>
        <time>2021-09-25T07:49:25.000Z</time>
      </trkpt>
      <trkpt lat="40.64521464519202709197998046875" lon="-1.47203025408089160919189453125">
        <ele>1211.4000244140625</ele>
        <time>2021-09-25T07:49:27.000Z</time>
      </trkpt>
      <trkpt lat="40.64515731297433376312255859375" lon="-1.47199689410626888275146484375">
        <ele>1211.5999755859375</ele>
        <time>2021-09-25T07:49:29.000Z</time>
      </trkpt>
      <trkpt lat="40.645103417336940765380859375" lon="-1.47195951081812381744384765625">
        <ele>1211.800048828125</ele>
        <time>2021-09-25T07:49:31.000Z</time>
      </trkpt>
      <trkpt lat="40.64504331909120082855224609375" lon="-1.47192682139575481414794921875">
        <ele>1212</ele>
        <time>2021-09-25T07:49:33.000Z</time>
      </trkpt>
      <trkpt lat="40.64498565159738063812255859375" lon="-1.47188968956470489501953125">
        <ele>1212.199951171875</ele>
        <time>2021-09-25T07:49:35.000Z</time>
      </trkpt>
      <trkpt lat="40.64492647536098957061767578125" lon="-1.4718556590378284454345703125">
        <ele>1212.5999755859375</ele>
        <time>2021-09-25T07:49:37.000Z</time>
      </trkpt>
      <trkpt lat="40.64489713869988918304443359375" lon="-1.47183260880410671234130859375">
        <ele>1212.5999755859375</ele>
        <time>2021-09-25T07:49:38.000Z</time>
      </trkpt>
      <trkpt lat="40.644867718219757080078125" lon="-1.4718134142458438873291015625">
        <ele>1212.800048828125</ele>
        <time>2021-09-25T07:49:39.000Z</time>
      </trkpt>
      <trkpt lat="40.64480694942176342010498046875" lon="-1.4717691577970981597900390625">
        <ele>1213.5999755859375</ele>
        <time>2021-09-25T07:49:41.000Z</time>
      </trkpt>
      <trkpt lat="40.6447508744895458221435546875" lon="-1.471720039844512939453125">
        <ele>1214</ele>
        <time>2021-09-25T07:49:43.000Z</time>
      </trkpt>
      <trkpt lat="40.64468323253095149993896484375" lon="-1.47167100571095943450927734375">
        <ele>1214.199951171875</ele>
        <time>2021-09-25T07:49:45.000Z</time>
      </trkpt>
      <trkpt lat="40.64464802853763103485107421875" lon="-1.47164569236338138580322265625">
        <ele>1214.4000244140625</ele>
        <time>2021-09-25T07:49:46.000Z</time>
      </trkpt>
      <trkpt lat="40.64461299218237400054931640625" lon="-1.47162188775837421417236328125">
        <ele>1214.5999755859375</ele>
        <time>2021-09-25T07:49:47.000Z</time>
      </trkpt>
      <trkpt lat="40.64454928971827030181884765625" lon="-1.4715773798525333404541015625">
        <ele>1214.800048828125</ele>
        <time>2021-09-25T07:49:49.000Z</time>
      </trkpt>
      <trkpt lat="40.64448592253029346466064453125" lon="-1.471525914967060089111328125">
        <ele>1215</ele>
        <time>2021-09-25T07:49:51.000Z</time>
      </trkpt>
      <trkpt lat="40.6444206275045871734619140625" lon="-1.4714826643466949462890625">
        <ele>1215.199951171875</ele>
        <time>2021-09-25T07:49:53.000Z</time>
      </trkpt>
      <trkpt lat="40.64439095556735992431640625" lon="-1.47145877592265605926513671875">
        <ele>1215.199951171875</ele>
        <time>2021-09-25T07:49:54.000Z</time>
      </trkpt>
      <trkpt lat="40.64436287619173526763916015625" lon="-1.4714425988495349884033203125">
        <ele>1215.199951171875</ele>
        <time>2021-09-25T07:49:55.000Z</time>
      </trkpt>
      <trkpt lat="40.64430369995534420013427734375" lon="-1.4713993482291698455810546875">
        <ele>1215</ele>
        <time>2021-09-25T07:49:57.000Z</time>
      </trkpt>
      <trkpt lat="40.64423899166285991668701171875" lon="-1.471357606351375579833984375">
        <ele>1215</ele>
        <time>2021-09-25T07:49:59.000Z</time>
      </trkpt>
      <trkpt lat="40.6441785581409931182861328125" lon="-1.471316032111644744873046875">
        <ele>1214.800048828125</ele>
        <time>2021-09-25T07:50:01.000Z</time>
      </trkpt>
      <trkpt lat="40.644122399389743804931640625" lon="-1.471270434558391571044921875">
        <ele>1214.5999755859375</ele>
        <time>2021-09-25T07:50:03.000Z</time>
      </trkpt>
      <trkpt lat="40.6440622173249721527099609375" lon="-1.4712293632328510284423828125">
        <ele>1214.4000244140625</ele>
        <time>2021-09-25T07:50:05.000Z</time>
      </trkpt>
      <trkpt lat="40.64399893395602703094482421875" lon="-1.4711938239634037017822265625">
        <ele>1214.4000244140625</ele>
        <time>2021-09-25T07:50:07.000Z</time>
      </trkpt>
      <trkpt lat="40.6439374946057796478271484375" lon="-1.47115367464721202850341796875">
        <ele>1214.199951171875</ele>
        <time>2021-09-25T07:50:09.000Z</time>
      </trkpt>
      <trkpt lat="40.643875300884246826171875" lon="-1.471113525331020355224609375">
        <ele>1214.199951171875</ele>
        <time>2021-09-25T07:50:11.000Z</time>
      </trkpt>
      <trkpt lat="40.6438117660582065582275390625" lon="-1.4710701070725917816162109375">
        <ele>1214.4000244140625</ele>
        <time>2021-09-25T07:50:13.000Z</time>
      </trkpt>
      <trkpt lat="40.64375049434602260589599609375" lon="-1.47102459333837032318115234375">
        <ele>1214.4000244140625</ele>
        <time>2021-09-25T07:50:15.000Z</time>
      </trkpt>
      <trkpt lat="40.64368863590061664581298828125" lon="-1.47098553366959095001220703125">
        <ele>1214.800048828125</ele>
        <time>2021-09-25T07:50:17.000Z</time>
      </trkpt>
      <trkpt lat="40.643627531826496124267578125" lon="-1.470944881439208984375">
        <ele>1215.199951171875</ele>
        <time>2021-09-25T07:50:19.000Z</time>
      </trkpt>
      <trkpt lat="40.6435730494558811187744140625" lon="-1.47090909071266651153564453125">
        <ele>1215.800048828125</ele>
        <time>2021-09-25T07:50:21.000Z</time>
      </trkpt>
      <trkpt lat="40.64354698173701763153076171875" lon="-1.4708912372589111328125">
        <ele>1215.800048828125</ele>
        <time>2021-09-25T07:50:22.000Z</time>
      </trkpt>
      <trkpt lat="40.64352233894169330596923828125" lon="-1.47087321616709232330322265625">
        <ele>1215.800048828125</ele>
        <time>2021-09-25T07:50:23.000Z</time>
      </trkpt>
      <trkpt lat="40.6434724666178226470947265625" lon="-1.4708397723734378814697265625">
        <ele>1215.800048828125</ele>
        <time>2021-09-25T07:50:25.000Z</time>
      </trkpt>
      <trkpt lat="40.64343013800680637359619140625" lon="-1.47080096416175365447998046875">
        <ele>1215.800048828125</ele>
        <time>2021-09-25T07:50:27.000Z</time>
      </trkpt>
      <trkpt lat="40.64338940195739269256591796875" lon="-1.47077397443354129791259765625">
        <ele>1215.800048828125</ele>
        <time>2021-09-25T07:50:29.000Z</time>
      </trkpt>
      <trkpt lat="40.64335268922150135040283203125" lon="-1.47075167857110500335693359375">
        <ele>1216.199951171875</ele>
        <time>2021-09-25T07:50:31.000Z</time>
      </trkpt>
      <trkpt lat="40.6433262862265110015869140625" lon="-1.47074212320148944854736328125">
        <ele>1216.4000244140625</ele>
        <time>2021-09-25T07:50:33.000Z</time>
      </trkpt>
      <trkpt lat="40.64329770393669605255126953125" lon="-1.47071563638746738433837890625">
        <ele>1216.5999755859375</ele>
        <time>2021-09-25T07:50:35.000Z</time>
      </trkpt>
      <trkpt lat="40.64327909611165523529052734375" lon="-1.4707066677510738372802734375">
        <ele>1216.5999755859375</ele>
        <time>2021-09-25T07:50:36.000Z</time>
      </trkpt>
      <trkpt lat="40.643259398639202117919921875" lon="-1.47068998776376247406005859375">
        <ele>1216.800048828125</ele>
        <time>2021-09-25T07:50:37.000Z</time>
      </trkpt>
      <trkpt lat="40.64322427846491336822509765625" lon="-1.470664925873279571533203125">
        <ele>1217</ele>
        <time>2021-09-25T07:50:39.000Z</time>
      </trkpt>
      <trkpt lat="40.643182285130023956298828125" lon="-1.470630057156085968017578125">
        <ele>1217</ele>
        <time>2021-09-25T07:50:41.000Z</time>
      </trkpt>
      <trkpt lat="40.643144063651561737060546875" lon="-1.47060482762753963470458984375">
        <ele>1217</ele>
        <time>2021-09-25T07:50:43.000Z</time>
      </trkpt>
      <trkpt lat="40.64310609363019466400146484375" lon="-1.47057699970901012420654296875">
        <ele>1217</ele>
        <time>2021-09-25T07:50:45.000Z</time>
      </trkpt>
      <trkpt lat="40.6430773437023162841796875" lon="-1.47055034525692462921142578125">
        <ele>1217</ele>
        <time>2021-09-25T07:50:47.000Z</time>
      </trkpt>
      <trkpt lat="40.64306234009563922882080078125" lon="-1.4705386944115161895751953125">
        <ele>1217</ele>
        <time>2021-09-25T07:50:48.000Z</time>
      </trkpt>
      <trkpt lat="40.64304876141250133514404296875" lon="-1.47052922286093235015869140625">
        <ele>1217.199951171875</ele>
        <time>2021-09-25T07:50:49.000Z</time>
      </trkpt>
      <trkpt lat="40.64302344806492328643798828125" lon="-1.4705088548362255096435546875">
        <ele>1217.199951171875</ele>
        <time>2021-09-25T07:50:51.000Z</time>
      </trkpt>
      <trkpt lat="40.64299344085156917572021484375" lon="-1.47048957645893096923828125">
        <ele>1217.199951171875</ele>
        <time>2021-09-25T07:50:53.000Z</time>
      </trkpt>
      <trkpt lat="40.642978437244892120361328125" lon="-1.47047759033739566802978515625">
        <ele>1217.199951171875</ele>
        <time>2021-09-25T07:50:54.000Z</time>
      </trkpt>
      <trkpt lat="40.6429621763527393341064453125" lon="-1.470463089644908905029296875">
        <ele>1217.199951171875</ele>
        <time>2021-09-25T07:50:55.000Z</time>
      </trkpt>
      <trkpt lat="40.64293057657778263092041015625" lon="-1.47043266333639621734619140625">
        <ele>1217.199951171875</ele>
        <time>2021-09-25T07:50:57.000Z</time>
      </trkpt>
      <trkpt lat="40.642920769751071929931640625" lon="-1.47041715681552886962890625">
        <ele>1217.199951171875</ele>
        <time>2021-09-25T07:50:58.000Z</time>
      </trkpt>
      <trkpt lat="40.64291163347661495208740234375" lon="-1.47040433250367641448974609375">
        <ele>1217.199951171875</ele>
        <time>2021-09-25T07:50:59.000Z</time>
      </trkpt>
      <trkpt lat="40.642889253795146942138671875" lon="-1.4703915081918239593505859375">
        <ele>1217.199951171875</ele>
        <time>2021-09-25T07:51:01.000Z</time>
      </trkpt>
      <trkpt lat="40.64286150969564914703369140625" lon="-1.4703757502138614654541015625">
        <ele>1217.199951171875</ele>
        <time>2021-09-25T07:51:03.000Z</time>
      </trkpt>
      <trkpt lat="40.64283451996743679046630859375" lon="-1.4703452400863170623779296875">
        <ele>1217.199951171875</ele>
        <time>2021-09-25T07:51:05.000Z</time>
      </trkpt>
      <trkpt lat="40.64279906451702117919921875" lon="-1.47032034583389759063720703125">
        <ele>1217.4000244140625</ele>
        <time>2021-09-25T07:51:07.000Z</time>
      </trkpt>
      <trkpt lat="40.6427724100649356842041015625" lon="-1.47030006162822246551513671875">
        <ele>1217.4000244140625</ele>
        <time>2021-09-25T07:51:09.000Z</time>
      </trkpt>
      <trkpt lat="40.64276394434273242950439453125" lon="-1.47028598003089427947998046875">
        <ele>1217.4000244140625</ele>
        <time>2021-09-25T07:51:10.000Z</time>
      </trkpt>
      <trkpt lat="40.64275614917278289794921875" lon="-1.47027499973773956298828125">
        <ele>1217.4000244140625</ele>
        <time>2021-09-25T07:51:11.000Z</time>
      </trkpt>
      <trkpt lat="40.64273175783455371856689453125" lon="-1.47025228478014469146728515625">
        <ele>1217.5999755859375</ele>
        <time>2021-09-25T07:51:13.000Z</time>
      </trkpt>
      <trkpt lat="40.64270175062119960784912109375" lon="-1.4702295698225498199462890625">
        <ele>1217.800048828125</ele>
        <time>2021-09-25T07:51:15.000Z</time>
      </trkpt>
      <trkpt lat="40.642669983208179473876953125" lon="-1.47020048461854457855224609375">
        <ele>1218</ele>
        <time>2021-09-25T07:51:17.000Z</time>
      </trkpt>
      <trkpt lat="40.64262874424457550048828125" lon="-1.47017399780452251434326171875">
        <ele>1218.4000244140625</ele>
        <time>2021-09-25T07:51:19.000Z</time>
      </trkpt>
      <trkpt lat="40.64259328879415988922119140625" lon="-1.4701397158205509185791015625">
        <ele>1218.5999755859375</ele>
        <time>2021-09-25T07:51:21.000Z</time>
      </trkpt>
      <trkpt lat="40.64254567958414554595947265625" lon="-1.47011381573975086212158203125">
        <ele>1219</ele>
        <time>2021-09-25T07:51:23.000Z</time>
      </trkpt>
      <trkpt lat="40.6425243057310581207275390625" lon="-1.470092944800853729248046875">
        <ele>1219</ele>
        <time>2021-09-25T07:51:24.000Z</time>
      </trkpt>
      <trkpt lat="40.64249857328832149505615234375" lon="-1.4700733311474323272705078125">
        <ele>1219.199951171875</ele>
        <time>2021-09-25T07:51:25.000Z</time>
      </trkpt>
      <trkpt lat="40.64245297573506832122802734375" lon="-1.47003636695444583892822265625">
        <ele>1219.4000244140625</ele>
        <time>2021-09-25T07:51:27.000Z</time>
      </trkpt>
      <trkpt lat="40.642430596053600311279296875" lon="-1.470013819634914398193359375">
        <ele>1219.4000244140625</ele>
        <time>2021-09-25T07:51:28.000Z</time>
      </trkpt>
      <trkpt lat="40.64240855164825916290283203125" lon="-1.46999068558216094970703125">
        <ele>1219.4000244140625</ele>
        <time>2021-09-25T07:51:29.000Z</time>
      </trkpt>
      <trkpt lat="40.64236010424792766571044921875" lon="-1.4699382148683071136474609375">
        <ele>1219.5999755859375</ele>
        <time>2021-09-25T07:51:31.000Z</time>
      </trkpt>
      <trkpt lat="40.64230729825794696807861328125" lon="-1.4698849059641361236572265625">
        <ele>1219.800048828125</ele>
        <time>2021-09-25T07:51:33.000Z</time>
      </trkpt>
      <trkpt lat="40.64225348643958568572998046875" lon="-1.46982966922223567962646484375">
        <ele>1220</ele>
        <time>2021-09-25T07:51:35.000Z</time>
      </trkpt>
      <trkpt lat="40.64218911342322826385498046875" lon="-1.46978817880153656005859375">
        <ele>1220</ele>
        <time>2021-09-25T07:51:37.000Z</time>
      </trkpt>
      <trkpt lat="40.64212256111204624176025390625" lon="-1.4697511307895183563232421875">
        <ele>1220</ele>
        <time>2021-09-25T07:51:39.000Z</time>
      </trkpt>
      <trkpt lat="40.642069838941097259521484375" lon="-1.46972187794744968414306640625">
        <ele>1220</ele>
        <time>2021-09-25T07:51:41.000Z</time>
      </trkpt>
      <trkpt lat="40.6420532427728176116943359375" lon="-1.46971433423459529876708984375">
        <ele>1220</ele>
        <time>2021-09-25T07:51:42.000Z</time>
      </trkpt>
      <trkpt lat="40.6420364789664745330810546875" lon="-1.4697082154452800750732421875">
        <ele>1220</ele>
        <time>2021-09-25T07:51:43.000Z</time>
      </trkpt>
      <trkpt lat="40.64200219698250293731689453125" lon="-1.469709388911724090576171875">
        <ele>1220</ele>
        <time>2021-09-25T07:51:45.000Z</time>
      </trkpt>
      <trkpt lat="40.64196967519819736480712890625" lon="-1.4697132445871829986572265625">
        <ele>1220</ele>
        <time>2021-09-25T07:51:47.000Z</time>
      </trkpt>
      <trkpt lat="40.64196967519819736480712890625" lon="-1.4697132445871829986572265625">
        <ele>1220</ele>
        <time>2021-09-25T07:51:48.000Z</time>
      </trkpt>
      <trkpt lat="40.64192743040621280670166015625" lon="-1.46965499036014080047607421875">
        <ele>1220.199951171875</ele>
        <time>2021-09-25T07:53:02.000Z</time>
      </trkpt>
      <trkpt lat="40.64190387725830078125" lon="-1.46963571198284626007080078125">
        <ele>1220.199951171875</ele>
        <time>2021-09-25T07:53:03.000Z</time>
      </trkpt>
      <trkpt lat="40.6418609619140625" lon="-1.46960201673209667205810546875">
        <ele>1220.4000244140625</ele>
        <time>2021-09-25T07:53:05.000Z</time>
      </trkpt>
      <trkpt lat="40.64184327609837055206298828125" lon="-1.46958759985864162445068359375">
        <ele>1220.5999755859375</ele>
        <time>2021-09-25T07:53:07.000Z</time>
      </trkpt>
      <trkpt lat="40.6418354809284210205078125" lon="-1.469575949013233184814453125">
        <ele>1220.5999755859375</ele>
        <time>2021-09-25T07:53:08.000Z</time>
      </trkpt>
      <trkpt lat="40.641825087368488311767578125" lon="-1.4695640467107295989990234375">
        <ele>1220.4000244140625</ele>
        <time>2021-09-25T07:53:09.000Z</time>
      </trkpt>
      <trkpt lat="40.6418021209537982940673828125" lon="-1.46953697316348552703857421875">
        <ele>1220.4000244140625</ele>
        <time>2021-09-25T07:53:11.000Z</time>
      </trkpt>
      <trkpt lat="40.6417669169604778289794921875" lon="-1.4695275016129016876220703125">
        <ele>1220.4000244140625</ele>
        <time>2021-09-25T07:53:13.000Z</time>
      </trkpt>
      <trkpt lat="40.64172827638685703277587890625" lon="-1.469504870474338531494140625">
        <ele>1220.199951171875</ele>
        <time>2021-09-25T07:53:15.000Z</time>
      </trkpt>
      <trkpt lat="40.6416931562125682830810546875" lon="-1.46947058849036693572998046875">
        <ele>1220.199951171875</ele>
        <time>2021-09-25T07:53:17.000Z</time>
      </trkpt>
      <trkpt lat="40.64165954478085041046142578125" lon="-1.46942666731774806976318359375">
        <ele>1220.199951171875</ele>
        <time>2021-09-25T07:53:19.000Z</time>
      </trkpt>
      <trkpt lat="40.64161763526499271392822265625" lon="-1.46938995458185672760009765625">
        <ele>1220.199951171875</ele>
        <time>2021-09-25T07:53:21.000Z</time>
      </trkpt>
      <trkpt lat="40.641581676900386810302734375" lon="-1.469343602657318115234375">
        <ele>1220.199951171875</ele>
        <time>2021-09-25T07:53:23.000Z</time>
      </trkpt>
      <trkpt lat="40.6415389291942119598388671875" lon="-1.46930697374045848846435546875">
        <ele>1220.199951171875</ele>
        <time>2021-09-25T07:53:25.000Z</time>
      </trkpt>
      <trkpt lat="40.64149391837418079376220703125" lon="-1.469273865222930908203125">
        <ele>1220.199951171875</ele>
        <time>2021-09-25T07:53:27.000Z</time>
      </trkpt>
      <trkpt lat="40.6414425373077392578125" lon="-1.46924645639955997467041015625">
        <ele>1220.199951171875</ele>
        <time>2021-09-25T07:53:29.000Z</time>
      </trkpt>
      <trkpt lat="40.6414118595421314239501953125" lon="-1.4692389965057373046875">
        <ele>1220.4000244140625</ele>
        <time>2021-09-25T07:53:30.000Z</time>
      </trkpt>
      <trkpt lat="40.64138411544263362884521484375" lon="-1.46923706866800785064697265625">
        <ele>1220.4000244140625</ele>
        <time>2021-09-25T07:53:31.000Z</time>
      </trkpt>
      <trkpt lat="40.64135259948670864105224609375" lon="-1.469235979020595550537109375">
        <ele>1220.5999755859375</ele>
        <time>2021-09-25T07:53:32.000Z</time>
      </trkpt>
      <trkpt lat="40.641316473484039306640625" lon="-1.4692358113825321197509765625">
        <ele>1220.5999755859375</ele>
        <time>2021-09-25T07:53:33.000Z</time>
      </trkpt>
      <trkpt lat="40.64128420315682888031005859375" lon="-1.46924042142927646636962890625">
        <ele>1220.800048828125</ele>
        <time>2021-09-25T07:53:34.000Z</time>
      </trkpt>
      <trkpt lat="40.64125277101993560791015625" lon="-1.46923975087702274322509765625">
        <ele>1221</ele>
        <time>2021-09-25T07:53:35.000Z</time>
      </trkpt>
      <trkpt lat="40.64120113849639892578125" lon="-1.46922918967902660369873046875">
        <ele>1221</ele>
        <time>2021-09-25T07:53:37.000Z</time>
      </trkpt>
      <trkpt lat="40.64115445129573345184326171875" lon="-1.469203792512416839599609375">
        <ele>1221.199951171875</ele>
        <time>2021-09-25T07:53:39.000Z</time>
      </trkpt>
      <trkpt lat="40.64113399945199489593505859375" lon="-1.4691885374486446380615234375">
        <ele>1221.199951171875</ele>
        <time>2021-09-25T07:53:40.000Z</time>
      </trkpt>
      <trkpt lat="40.64111807383596897125244140625" lon="-1.4691744558513164520263671875">
        <ele>1221.199951171875</ele>
        <time>2021-09-25T07:53:41.000Z</time>
      </trkpt>
      <trkpt lat="40.64110281877219676971435546875" lon="-1.469159536063671112060546875">
        <ele>1221.4000244140625</ele>
        <time>2021-09-25T07:53:42.000Z</time>
      </trkpt>
      <trkpt lat="40.64108915627002716064453125" lon="-1.46914151497185230255126953125">
        <ele>1221.4000244140625</ele>
        <time>2021-09-25T07:53:43.000Z</time>
      </trkpt>
      <trkpt lat="40.6410809420049190521240234375" lon="-1.46911418996751308441162109375">
        <ele>1221.4000244140625</ele>
        <time>2021-09-25T07:53:44.000Z</time>
      </trkpt>
      <trkpt lat="40.6410737335681915283203125" lon="-1.46908720023930072784423828125">
        <ele>1221.5999755859375</ele>
        <time>2021-09-25T07:53:45.000Z</time>
      </trkpt>
      <trkpt lat="40.64106577076017856597900390625" lon="-1.46902685053646564483642578125">
        <ele>1221.5999755859375</ele>
        <time>2021-09-25T07:53:47.000Z</time>
      </trkpt>
      <trkpt lat="40.64105420373380184173583984375" lon="-1.46896901540458202362060546875">
        <ele>1221.5999755859375</ele>
        <time>2021-09-25T07:53:49.000Z</time>
      </trkpt>
      <trkpt lat="40.6410442292690277099609375" lon="-1.4689404331147670745849609375">
        <ele>1221.800048828125</ele>
        <time>2021-09-25T07:53:50.000Z</time>
      </trkpt>
      <trkpt lat="40.64103174023330211639404296875" lon="-1.4689132757484912872314453125">
        <ele>1221.800048828125</ele>
        <time>2021-09-25T07:53:51.000Z</time>
      </trkpt>
      <trkpt lat="40.64100290648639202117919921875" lon="-1.46886088885366916656494140625">
        <ele>1222.199951171875</ele>
        <time>2021-09-25T07:53:53.000Z</time>
      </trkpt>
      <trkpt lat="40.6409760005772113800048828125" lon="-1.46880171261727809906005859375">
        <ele>1222.5999755859375</ele>
        <time>2021-09-25T07:53:55.000Z</time>
      </trkpt>
      <trkpt lat="40.64096602611243724822998046875" lon="-1.468731723725795745849609375">
        <ele>1222.800048828125</ele>
        <time>2021-09-25T07:53:57.000Z</time>
      </trkpt>
      <trkpt lat="40.6409411318600177764892578125" lon="-1.4686574600636959075927734375">
        <ele>1223.4000244140625</ele>
        <time>2021-09-25T07:53:59.000Z</time>
      </trkpt>
      <trkpt lat="40.64091615378856658935546875" lon="-1.46857070736587047576904296875">
        <ele>1223.800048828125</ele>
        <time>2021-09-25T07:54:01.000Z</time>
      </trkpt>
      <trkpt lat="40.64088388346135616302490234375" lon="-1.46847657859325408935546875">
        <ele>1224</ele>
        <time>2021-09-25T07:54:03.000Z</time>
      </trkpt>
      <trkpt lat="40.64086644910275936126708984375" lon="-1.4684271253645420074462890625">
        <ele>1224</ele>
        <time>2021-09-25T07:54:04.000Z</time>
      </trkpt>
      <trkpt lat="40.6408452428877353668212890625" lon="-1.46838027052581310272216796875">
        <ele>1224.199951171875</ele>
        <time>2021-09-25T07:54:05.000Z</time>
      </trkpt>
      <trkpt lat="40.6408076919615268707275390625" lon="-1.46828756667673587799072265625">
        <ele>1224.4000244140625</ele>
        <time>2021-09-25T07:54:07.000Z</time>
      </trkpt>
      <trkpt lat="40.6407718174159526824951171875" lon="-1.46820408292114734649658203125">
        <ele>1224.800048828125</ele>
        <time>2021-09-25T07:54:09.000Z</time>
      </trkpt>
      <trkpt lat="40.6407359428703784942626953125" lon="-1.4681280590593814849853515625">
        <ele>1225</ele>
        <time>2021-09-25T07:54:11.000Z</time>
      </trkpt>
      <trkpt lat="40.64071741886436939239501953125" lon="-1.4680911786854267120361328125">
        <ele>1225.199951171875</ele>
        <time>2021-09-25T07:54:12.000Z</time>
      </trkpt>
      <trkpt lat="40.640694200992584228515625" lon="-1.468056477606296539306640625">
        <ele>1225.199951171875</ele>
        <time>2021-09-25T07:54:13.000Z</time>
      </trkpt>
      <trkpt lat="40.6406486034393310546875" lon="-1.46798841655254364013671875">
        <ele>1225.5999755859375</ele>
        <time>2021-09-25T07:54:15.000Z</time>
      </trkpt>
      <trkpt lat="40.64060711301863193511962890625" lon="-1.46792270243167877197265625">
        <ele>1225.5999755859375</ele>
        <time>2021-09-25T07:54:17.000Z</time>
      </trkpt>
      <trkpt lat="40.64058221876621246337890625" lon="-1.467888839542865753173828125">
        <ele>1225.5999755859375</ele>
        <time>2021-09-25T07:54:18.000Z</time>
      </trkpt>
      <trkpt lat="40.64055539667606353759765625" lon="-1.46785832941532135009765625">
        <ele>1225.5999755859375</ele>
        <time>2021-09-25T07:54:19.000Z</time>
      </trkpt>
      <trkpt lat="40.64050200395286083221435546875" lon="-1.46779890172183513641357421875">
        <ele>1225.800048828125</ele>
        <time>2021-09-25T07:54:21.000Z</time>
      </trkpt>
      <trkpt lat="40.64044634811580181121826171875" lon="-1.4677344448864459991455078125">
        <ele>1226</ele>
        <time>2021-09-25T07:54:23.000Z</time>
      </trkpt>
      <trkpt lat="40.64039119519293308258056640625" lon="-1.46767484955489635467529296875">
        <ele>1226</ele>
        <time>2021-09-25T07:54:25.000Z</time>
      </trkpt>
      <trkpt lat="40.64033545553684234619140625" lon="-1.4676197804510593414306640625">
        <ele>1225.800048828125</ele>
        <time>2021-09-25T07:54:27.000Z</time>
      </trkpt>
      <trkpt lat="40.6403081305325031280517578125" lon="-1.46759413182735443115234375">
        <ele>1225.800048828125</ele>
        <time>2021-09-25T07:54:28.000Z</time>
      </trkpt>
      <trkpt lat="40.640276111662387847900390625" lon="-1.46756588481366634368896484375">
        <ele>1225.800048828125</ele>
        <time>2021-09-25T07:54:29.000Z</time>
      </trkpt>
      <trkpt lat="40.6402209587395191192626953125" lon="-1.467513330280780792236328125">
        <ele>1226.199951171875</ele>
        <time>2021-09-25T07:54:31.000Z</time>
      </trkpt>
      <trkpt lat="40.64015868119895458221435546875" lon="-1.46745742298662662506103515625">
        <ele>1226.800048828125</ele>
        <time>2021-09-25T07:54:33.000Z</time>
      </trkpt>
      <trkpt lat="40.64009799621999263763427734375" lon="-1.467403359711170196533203125">
        <ele>1227.199951171875</ele>
        <time>2021-09-25T07:54:35.000Z</time>
      </trkpt>
      <trkpt lat="40.64003496430814266204833984375" lon="-1.467349715530872344970703125">
        <ele>1227.5999755859375</ele>
        <time>2021-09-25T07:54:37.000Z</time>
      </trkpt>
      <trkpt lat="40.63997176475822925567626953125" lon="-1.46729347296059131622314453125">
        <ele>1227.5999755859375</ele>
        <time>2021-09-25T07:54:39.000Z</time>
      </trkpt>
      <trkpt lat="40.63990923576056957244873046875" lon="-1.46723463200032711029052734375">
        <ele>1227.5999755859375</ele>
        <time>2021-09-25T07:54:41.000Z</time>
      </trkpt>
      <trkpt lat="40.63985073007643222808837890625" lon="-1.46717696450650691986083984375">
        <ele>1227.5999755859375</ele>
        <time>2021-09-25T07:54:43.000Z</time>
      </trkpt>
      <trkpt lat="40.63978585414588451385498046875" lon="-1.46711393259465694427490234375">
        <ele>1227.5999755859375</ele>
        <time>2021-09-25T07:54:45.000Z</time>
      </trkpt>
      <trkpt lat="40.6397183798253536224365234375" lon="-1.4670516550540924072265625">
        <ele>1227.5999755859375</ele>
        <time>2021-09-25T07:54:47.000Z</time>
      </trkpt>
      <trkpt lat="40.6396489776670932769775390625" lon="-1.4669819176197052001953125">
        <ele>1227.4000244140625</ele>
        <time>2021-09-25T07:54:49.000Z</time>
      </trkpt>
      <trkpt lat="40.6395802460610866546630859375" lon="-1.46691159345209598541259765625">
        <ele>1227</ele>
        <time>2021-09-25T07:54:51.000Z</time>
      </trkpt>
      <trkpt lat="40.639514364302158355712890625" lon="-1.466843783855438232421875">
        <ele>1226.5999755859375</ele>
        <time>2021-09-25T07:54:53.000Z</time>
      </trkpt>
      <trkpt lat="40.6394456326961517333984375" lon="-1.46677211858332157135009765625">
        <ele>1225.800048828125</ele>
        <time>2021-09-25T07:54:55.000Z</time>
      </trkpt>
      <trkpt lat="40.6394107639789581298828125" lon="-1.46673775278031826019287109375">
        <ele>1225.5999755859375</ele>
        <time>2021-09-25T07:54:56.000Z</time>
      </trkpt>
      <trkpt lat="40.6393750570714473724365234375" lon="-1.46670439280569553375244140625">
        <ele>1225.5999755859375</ele>
        <time>2021-09-25T07:54:57.000Z</time>
      </trkpt>
      <trkpt lat="40.6393053196370601654052734375" lon="-1.46663163788616657257080078125">
        <ele>1225.5999755859375</ele>
        <time>2021-09-25T07:54:59.000Z</time>
      </trkpt>
      <trkpt lat="40.63923172652721405029296875" lon="-1.4665576256811618804931640625">
        <ele>1226</ele>
        <time>2021-09-25T07:55:01.000Z</time>
      </trkpt>
      <trkpt lat="40.63915528357028961181640625" lon="-1.4664798416197299957275390625">
        <ele>1226.4000244140625</ele>
        <time>2021-09-25T07:55:03.000Z</time>
      </trkpt>
      <trkpt lat="40.63911748118698596954345703125" lon="-1.46644287742674350738525390625">
        <ele>1226.5999755859375</ele>
        <time>2021-09-25T07:55:04.000Z</time>
      </trkpt>
      <trkpt lat="40.6390796788036823272705078125" lon="-1.4664050750434398651123046875">
        <ele>1227</ele>
        <time>2021-09-25T07:55:05.000Z</time>
      </trkpt>
      <trkpt lat="40.63900818116962909698486328125" lon="-1.4663232676684856414794921875">
        <ele>1227.4000244140625</ele>
        <time>2021-09-25T07:55:07.000Z</time>
      </trkpt>
      <trkpt lat="40.63894213177263736724853515625" lon="-1.4662458188831806182861328125">
        <ele>1227.800048828125</ele>
        <time>2021-09-25T07:55:09.000Z</time>
      </trkpt>
      <trkpt lat="40.63888111151754856109619140625" lon="-1.4661676995456218719482421875">
        <ele>1228.4000244140625</ele>
        <time>2021-09-25T07:55:11.000Z</time>
      </trkpt>
      <trkpt lat="40.63885211013257503509521484375" lon="-1.4661291427910327911376953125">
        <ele>1228.4000244140625</ele>
        <time>2021-09-25T07:55:12.000Z</time>
      </trkpt>
      <trkpt lat="40.63882394693791866302490234375" lon="-1.46608404815196990966796875">
        <ele>1228.4000244140625</ele>
        <time>2021-09-25T07:55:13.000Z</time>
      </trkpt>
      <trkpt lat="40.6387668661773204803466796875" lon="-1.46600467152893543243408203125">
        <ele>1228.199951171875</ele>
        <time>2021-09-25T07:55:15.000Z</time>
      </trkpt>
      <trkpt lat="40.63870894722640514373779296875" lon="-1.465925462543964385986328125">
        <ele>1228.199951171875</ele>
        <time>2021-09-25T07:55:17.000Z</time>
      </trkpt>
      <trkpt lat="40.63865731470286846160888671875" lon="-1.46583502180874347686767578125">
        <ele>1228</ele>
        <time>2021-09-25T07:55:19.000Z</time>
      </trkpt>
      <trkpt lat="40.6386035867035388946533203125" lon="-1.4657395519316196441650390625">
        <ele>1228</ele>
        <time>2021-09-25T07:55:21.000Z</time>
      </trkpt>
      <trkpt lat="40.6385506130754947662353515625" lon="-1.46564726717770099639892578125">
        <ele>1228</ele>
        <time>2021-09-25T07:55:23.000Z</time>
      </trkpt>
      <trkpt lat="40.6384959630668163299560546875" lon="-1.4655474387109279632568359375">
        <ele>1228.199951171875</ele>
        <time>2021-09-25T07:55:25.000Z</time>
      </trkpt>
      <trkpt lat="40.63844181597232818603515625" lon="-1.46545532159507274627685546875">
        <ele>1228.4000244140625</ele>
        <time>2021-09-25T07:55:27.000Z</time>
      </trkpt>
      <trkpt lat="40.6383942067623138427734375" lon="-1.46536387503147125244140625">
        <ele>1229.4000244140625</ele>
        <time>2021-09-25T07:55:29.000Z</time>
      </trkpt>
      <trkpt lat="40.6383437477052211761474609375" lon="-1.46527402102947235107421875">
        <ele>1230.199951171875</ele>
        <time>2021-09-25T07:55:31.000Z</time>
      </trkpt>
      <trkpt lat="40.63829488120973110198974609375" lon="-1.46517989225685596466064453125">
        <ele>1230.800048828125</ele>
        <time>2021-09-25T07:55:33.000Z</time>
      </trkpt>
      <trkpt lat="40.6382453441619873046875" lon="-1.46510143764317035675048828125">
        <ele>1231.4000244140625</ele>
        <time>2021-09-25T07:55:35.000Z</time>
      </trkpt>
      <trkpt lat="40.6381962262094020843505859375" lon="-1.46501828916370868682861328125">
        <ele>1231.5999755859375</ele>
        <time>2021-09-25T07:55:37.000Z</time>
      </trkpt>
      <trkpt lat="40.63814819790422916412353515625" lon="-1.46493698470294475555419921875">
        <ele>1231.800048828125</ele>
        <time>2021-09-25T07:55:39.000Z</time>
      </trkpt>
      <trkpt lat="40.6380993314087390899658203125" lon="-1.46485400386154651641845703125">
        <ele>1232</ele>
        <time>2021-09-25T07:55:41.000Z</time>
      </trkpt>
      <trkpt lat="40.63805365003645420074462890625" lon="-1.4647729508578777313232421875">
        <ele>1232.199951171875</ele>
        <time>2021-09-25T07:55:43.000Z</time>
      </trkpt>
      <trkpt lat="40.63800117932260036468505859375" lon="-1.46469910629093647003173828125">
        <ele>1232</ele>
        <time>2021-09-25T07:55:45.000Z</time>
      </trkpt>
      <trkpt lat="40.637944601476192474365234375" lon="-1.4646250940859317779541015625">
        <ele>1231.5999755859375</ele>
        <time>2021-09-25T07:55:47.000Z</time>
      </trkpt>
      <trkpt lat="40.63788953237235546112060546875" lon="-1.4645530097186565399169921875">
        <ele>1231.4000244140625</ele>
        <time>2021-09-25T07:55:49.000Z</time>
      </trkpt>
      <trkpt lat="40.63783387653529644012451171875" lon="-1.46448235027492046356201171875">
        <ele>1231.199951171875</ele>
        <time>2021-09-25T07:55:51.000Z</time>
      </trkpt>
      <trkpt lat="40.637798421084880828857421875" lon="-1.46445385180413722991943359375">
        <ele>1231.199951171875</ele>
        <time>2021-09-25T07:55:52.000Z</time>
      </trkpt>
      <trkpt lat="40.6377697549760341644287109375" lon="-1.4644158817827701568603515625">
        <ele>1231.199951171875</ele>
        <time>2021-09-25T07:55:53.000Z</time>
      </trkpt>
      <trkpt lat="40.637705884873867034912109375" lon="-1.46435729227960109710693359375">
        <ele>1231.4000244140625</ele>
        <time>2021-09-25T07:55:55.000Z</time>
      </trkpt>
      <trkpt lat="40.6376460380852222442626953125" lon="-1.4642904885113239288330078125">
        <ele>1231.5999755859375</ele>
        <time>2021-09-25T07:55:57.000Z</time>
      </trkpt>
      <trkpt lat="40.6375890411436557769775390625" lon="-1.46422670222818851470947265625">
        <ele>1231.800048828125</ele>
        <time>2021-09-25T07:55:59.000Z</time>
      </trkpt>
      <trkpt lat="40.637557022273540496826171875" lon="-1.46420113742351531982421875">
        <ele>1232</ele>
        <time>2021-09-25T07:56:00.000Z</time>
      </trkpt>
      <trkpt lat="40.6375229917466640472412109375" lon="-1.4641736447811126708984375">
        <ele>1232.199951171875</ele>
        <time>2021-09-25T07:56:01.000Z</time>
      </trkpt>
      <trkpt lat="40.63745954073965549468994140625" lon="-1.46411706693470478057861328125">
        <ele>1232.800048828125</ele>
        <time>2021-09-25T07:56:03.000Z</time>
      </trkpt>
      <trkpt lat="40.6373910605907440185546875" lon="-1.46407130174338817596435546875">
        <ele>1233.4000244140625</ele>
        <time>2021-09-25T07:56:05.000Z</time>
      </trkpt>
      <trkpt lat="40.63732962124049663543701171875" lon="-1.4640138857066631317138671875">
        <ele>1233.800048828125</ele>
        <time>2021-09-25T07:56:07.000Z</time>
      </trkpt>
      <trkpt lat="40.6372658349573612213134765625" lon="-1.4639602415263652801513671875">
        <ele>1234</ele>
        <time>2021-09-25T07:56:09.000Z</time>
      </trkpt>
      <trkpt lat="40.6372021324932575225830078125" lon="-1.463914476335048675537109375">
        <ele>1234.4000244140625</ele>
        <time>2021-09-25T07:56:11.000Z</time>
      </trkpt>
      <trkpt lat="40.63714086078107357025146484375" lon="-1.46386854350566864013671875">
        <ele>1234.800048828125</ele>
        <time>2021-09-25T07:56:13.000Z</time>
      </trkpt>
      <trkpt lat="40.637084953486919403076171875" lon="-1.46382562816143035888671875">
        <ele>1235</ele>
        <time>2021-09-25T07:56:15.000Z</time>
      </trkpt>
      <trkpt lat="40.63705771230161190032958984375" lon="-1.4638009853661060333251953125">
        <ele>1235.199951171875</ele>
        <time>2021-09-25T07:56:16.000Z</time>
      </trkpt>
      <trkpt lat="40.6370277889072895050048828125" lon="-1.46377592347562313079833984375">
        <ele>1235.4000244140625</ele>
        <time>2021-09-25T07:56:17.000Z</time>
      </trkpt>
      <trkpt lat="40.63696651719510555267333984375" lon="-1.4637339301407337188720703125">
        <ele>1235.5999755859375</ele>
        <time>2021-09-25T07:56:19.000Z</time>
      </trkpt>
      <trkpt lat="40.63690834678709506988525390625" lon="-1.46368858404457569122314453125">
        <ele>1235.800048828125</ele>
        <time>2021-09-25T07:56:21.000Z</time>
      </trkpt>
      <trkpt lat="40.63684665597975254058837890625" lon="-1.463641226291656494140625">
        <ele>1235.800048828125</ele>
        <time>2021-09-25T07:56:23.000Z</time>
      </trkpt>
      <trkpt lat="40.63677960075438022613525390625" lon="-1.46359604783356189727783203125">
        <ele>1235.5999755859375</ele>
        <time>2021-09-25T07:56:25.000Z</time>
      </trkpt>
      <trkpt lat="40.636720843613147735595703125" lon="-1.463549025356769561767578125">
        <ele>1235.800048828125</ele>
        <time>2021-09-25T07:56:27.000Z</time>
      </trkpt>
      <trkpt lat="40.63666175119578838348388671875" lon="-1.463502086699008941650390625">
        <ele>1236.4000244140625</ele>
        <time>2021-09-25T07:56:29.000Z</time>
      </trkpt>
      <trkpt lat="40.6365998089313507080078125" lon="-1.46345305256545543670654296875">
        <ele>1237.199951171875</ele>
        <time>2021-09-25T07:56:31.000Z</time>
      </trkpt>
      <trkpt lat="40.6365372799336910247802734375" lon="-1.4634025096893310546875">
        <ele>1237.199951171875</ele>
        <time>2021-09-25T07:56:33.000Z</time>
      </trkpt>
      <trkpt lat="40.63647818751633167266845703125" lon="-1.46335347555577754974365234375">
        <ele>1237</ele>
        <time>2021-09-25T07:56:35.000Z</time>
      </trkpt>
      <trkpt lat="40.63641113229095935821533203125" lon="-1.46331542171537876129150390625">
        <ele>1237</ele>
        <time>2021-09-25T07:56:37.000Z</time>
      </trkpt>
      <trkpt lat="40.63635229133069515228271484375" lon="-1.463274769484996795654296875">
        <ele>1236.800048828125</ele>
        <time>2021-09-25T07:56:39.000Z</time>
      </trkpt>
      <trkpt lat="40.63629428856074810028076171875" lon="-1.46322389133274555206298828125">
        <ele>1236.5999755859375</ele>
        <time>2021-09-25T07:56:41.000Z</time>
      </trkpt>
      <trkpt lat="40.63623209483921527862548828125" lon="-1.46318726241588592529296875">
        <ele>1236.5999755859375</ele>
        <time>2021-09-25T07:56:43.000Z</time>
      </trkpt>
      <trkpt lat="40.63616856001317501068115234375" lon="-1.46314526908099651336669921875">
        <ele>1236.4000244140625</ele>
        <time>2021-09-25T07:56:45.000Z</time>
      </trkpt>
      <trkpt lat="40.63610351644456386566162109375" lon="-1.4631032757461071014404296875">
        <ele>1236.4000244140625</ele>
        <time>2021-09-25T07:56:47.000Z</time>
      </trkpt>
      <trkpt lat="40.63607233576476573944091796875" lon="-1.46308994852006435394287109375">
        <ele>1236.4000244140625</ele>
        <time>2021-09-25T07:56:48.000Z</time>
      </trkpt>
      <trkpt lat="40.63604366965591907501220703125" lon="-1.46306161768734455108642578125">
        <ele>1236.199951171875</ele>
        <time>2021-09-25T07:56:49.000Z</time>
      </trkpt>
      <trkpt lat="40.63597896136343479156494140625" lon="-1.46300797350704669952392578125">
        <ele>1235.800048828125</ele>
        <time>2021-09-25T07:56:51.000Z</time>
      </trkpt>
      <trkpt lat="40.63590788282454013824462890625" lon="-1.46294477395713329315185546875">
        <ele>1235.5999755859375</ele>
        <time>2021-09-25T07:56:53.000Z</time>
      </trkpt>
      <trkpt lat="40.63587334938347339630126953125" lon="-1.4629114978015422821044921875">
        <ele>1235.5999755859375</ele>
        <time>2021-09-25T07:56:54.000Z</time>
      </trkpt>
      <trkpt lat="40.6358382292091846466064453125" lon="-1.46287973038852214813232421875">
        <ele>1235.800048828125</ele>
        <time>2021-09-25T07:56:55.000Z</time>
      </trkpt>
      <trkpt lat="40.63577570021152496337890625" lon="-1.4628065563738346099853515625">
        <ele>1236</ele>
        <time>2021-09-25T07:56:57.000Z</time>
      </trkpt>
      <trkpt lat="40.63572205603122711181640625" lon="-1.46273874677717685699462890625">
        <ele>1236</ele>
        <time>2021-09-25T07:56:59.000Z</time>
      </trkpt>
      <trkpt lat="40.63567620702087879180908203125" lon="-1.462675631046295166015625">
        <ele>1236.199951171875</ele>
        <time>2021-09-25T07:57:01.000Z</time>
      </trkpt>
      <trkpt lat="40.635625831782817840576171875" lon="-1.46260161884129047393798828125">
        <ele>1236.5999755859375</ele>
        <time>2021-09-25T07:57:03.000Z</time>
      </trkpt>
      <trkpt lat="40.63557746820151805877685546875" lon="-1.46252601407468318939208984375">
        <ele>1237.199951171875</ele>
        <time>2021-09-25T07:57:05.000Z</time>
      </trkpt>
      <trkpt lat="40.635530613362789154052734375" lon="-1.46244973875582218170166015625">
        <ele>1237.800048828125</ele>
        <time>2021-09-25T07:57:07.000Z</time>
      </trkpt>
      <trkpt lat="40.63547923229634761810302734375" lon="-1.4623807556927204132080078125">
        <ele>1238.199951171875</ele>
        <time>2021-09-25T07:57:09.000Z</time>
      </trkpt>
      <trkpt lat="40.63542969524860382080078125" lon="-1.4623103477060794830322265625">
        <ele>1238.800048828125</ele>
        <time>2021-09-25T07:57:11.000Z</time>
      </trkpt>
      <trkpt lat="40.6353748776018619537353515625" lon="-1.4622397720813751220703125">
        <ele>1239.199951171875</ele>
        <time>2021-09-25T07:57:13.000Z</time>
      </trkpt>
      <trkpt lat="40.63532232306897640228271484375" lon="-1.46217699162662029266357421875">
        <ele>1239.800048828125</ele>
        <time>2021-09-25T07:57:15.000Z</time>
      </trkpt>
      <trkpt lat="40.63526348210871219635009765625" lon="-1.4621098525822162628173828125">
        <ele>1240.199951171875</ele>
        <time>2021-09-25T07:57:17.000Z</time>
      </trkpt>
      <trkpt lat="40.6352313794195652008056640625" lon="-1.46208219230175018310546875">
        <ele>1240.4000244140625</ele>
        <time>2021-09-25T07:57:18.000Z</time>
      </trkpt>
      <trkpt lat="40.63520028255879878997802734375" lon="-1.46205310709774494171142578125">
        <ele>1240.5999755859375</ele>
        <time>2021-09-25T07:57:19.000Z</time>
      </trkpt>
      <trkpt lat="40.63514060340821743011474609375" lon="-1.4619951881468296051025390625">
        <ele>1241.199951171875</ele>
        <time>2021-09-25T07:57:21.000Z</time>
      </trkpt>
      <trkpt lat="40.63507874496281147003173828125" lon="-1.46193928085267543792724609375">
        <ele>1241.5999755859375</ele>
        <time>2021-09-25T07:57:23.000Z</time>
      </trkpt>
      <trkpt lat="40.63501420430839061737060546875" lon="-1.46188479848206043243408203125">
        <ele>1242</ele>
        <time>2021-09-25T07:57:25.000Z</time>
      </trkpt>
      <trkpt lat="40.634947232902050018310546875" lon="-1.46183450706303119659423828125">
        <ele>1242.199951171875</ele>
        <time>2021-09-25T07:57:27.000Z</time>
      </trkpt>
      <trkpt lat="40.63491529785096645355224609375" lon="-1.46180600859224796295166015625">
        <ele>1242.4000244140625</ele>
        <time>2021-09-25T07:57:28.000Z</time>
      </trkpt>
      <trkpt lat="40.6348830275237560272216796875" lon="-1.46178103052079677581787109375">
        <ele>1242.5999755859375</ele>
        <time>2021-09-25T07:57:29.000Z</time>
      </trkpt>
      <trkpt lat="40.634818486869335174560546875" lon="-1.4617299847304821014404296875">
        <ele>1242.800048828125</ele>
        <time>2021-09-25T07:57:31.000Z</time>
      </trkpt>
      <trkpt lat="40.63475470058619976043701171875" lon="-1.46167994476854801177978515625">
        <ele>1243.199951171875</ele>
        <time>2021-09-25T07:57:33.000Z</time>
      </trkpt>
      <trkpt lat="40.6346889026463031768798828125" lon="-1.46162479184567928314208984375">
        <ele>1243.199951171875</ele>
        <time>2021-09-25T07:57:35.000Z</time>
      </trkpt>
      <trkpt lat="40.6346262060105800628662109375" lon="-1.4615713991224765777587890625">
        <ele>1243.199951171875</ele>
        <time>2021-09-25T07:57:37.000Z</time>
      </trkpt>
      <trkpt lat="40.63456174917519092559814453125" lon="-1.4615247957408428192138671875">
        <ele>1243.199951171875</ele>
        <time>2021-09-25T07:57:39.000Z</time>
      </trkpt>
      <trkpt lat="40.6344942748546600341796875" lon="-1.46147073246538639068603515625">
        <ele>1243.199951171875</ele>
        <time>2021-09-25T07:57:41.000Z</time>
      </trkpt>
      <trkpt lat="40.63442663289606571197509765625" lon="-1.46141541190445423126220703125">
        <ele>1243.4000244140625</ele>
        <time>2021-09-25T07:57:43.000Z</time>
      </trkpt>
      <trkpt lat="40.63435890711843967437744140625" lon="-1.46136126480996608734130859375">
        <ele>1243.4000244140625</ele>
        <time>2021-09-25T07:57:45.000Z</time>
      </trkpt>
      <trkpt lat="40.634290762245655059814453125" lon="-1.46130125038325786590576171875">
        <ele>1243.4000244140625</ele>
        <time>2021-09-25T07:57:47.000Z</time>
      </trkpt>
      <trkpt lat="40.634219013154506683349609375" lon="-1.46124525927007198333740234375">
        <ele>1243</ele>
        <time>2021-09-25T07:57:49.000Z</time>
      </trkpt>
      <trkpt lat="40.63418607227504253387451171875" lon="-1.46121843717992305755615234375">
        <ele>1242.800048828125</ele>
        <time>2021-09-25T07:57:50.000Z</time>
      </trkpt>
      <trkpt lat="40.6341538019478321075439453125" lon="-1.4611875079572200775146484375">
        <ele>1242.5999755859375</ele>
        <time>2021-09-25T07:57:51.000Z</time>
      </trkpt>
      <trkpt lat="40.634090937674045562744140625" lon="-1.46112598478794097900390625">
        <ele>1242.800048828125</ele>
        <time>2021-09-25T07:57:53.000Z</time>
      </trkpt>
      <trkpt lat="40.63402798958122730255126953125" lon="-1.46106035448610782623291015625">
        <ele>1243.199951171875</ele>
        <time>2021-09-25T07:57:55.000Z</time>
      </trkpt>
      <trkpt lat="40.6339685618877410888671875" lon="-1.46099715493619441986083984375">
        <ele>1243.4000244140625</ele>
        <time>2021-09-25T07:57:57.000Z</time>
      </trkpt>
      <trkpt lat="40.63390930183231830596923828125" lon="-1.460935212671756744384765625">
        <ele>1243.5999755859375</ele>
        <time>2021-09-25T07:57:59.000Z</time>
      </trkpt>
      <trkpt lat="40.63385079614818096160888671875" lon="-1.46086958236992359161376953125">
        <ele>1243.800048828125</ele>
        <time>2021-09-25T07:58:01.000Z</time>
      </trkpt>
      <trkpt lat="40.6337969005107879638671875" lon="-1.46080546081066131591796875">
        <ele>1243.800048828125</ele>
        <time>2021-09-25T07:58:03.000Z</time>
      </trkpt>
      <trkpt lat="40.63374820165336132049560546875" lon="-1.46074502728879451751708984375">
        <ele>1243.800048828125</ele>
        <time>2021-09-25T07:58:05.000Z</time>
      </trkpt>
      <trkpt lat="40.6337003409862518310546875" lon="-1.46069557406008243560791015625">
        <ele>1243.800048828125</ele>
        <time>2021-09-25T07:58:07.000Z</time>
      </trkpt>
      <trkpt lat="40.633656084537506103515625" lon="-1.46063170395791530609130859375">
        <ele>1243.5999755859375</ele>
        <time>2021-09-25T07:58:09.000Z</time>
      </trkpt>
      <trkpt lat="40.6336066313087940216064453125" lon="-1.4605768024921417236328125">
        <ele>1243.5999755859375</ele>
        <time>2021-09-25T07:58:11.000Z</time>
      </trkpt>
      <trkpt lat="40.633549802005290985107421875" lon="-1.46052391268312931060791015625">
        <ele>1244</ele>
        <time>2021-09-25T07:58:13.000Z</time>
      </trkpt>
      <trkpt lat="40.63349590636789798736572265625" lon="-1.4604676701128482818603515625">
        <ele>1244.4000244140625</ele>
        <time>2021-09-25T07:58:15.000Z</time>
      </trkpt>
      <trkpt lat="40.63343455083668231964111328125" lon="-1.460414864122867584228515625">
        <ele>1244.5999755859375</ele>
        <time>2021-09-25T07:58:17.000Z</time>
      </trkpt>
      <trkpt lat="40.6333757936954498291015625" lon="-1.4603697694838047027587890625">
        <ele>1244.800048828125</ele>
        <time>2021-09-25T07:58:19.000Z</time>
      </trkpt>
      <trkpt lat="40.63331938348710536956787109375" lon="-1.460339091718196868896484375">
        <ele>1245</ele>
        <time>2021-09-25T07:58:21.000Z</time>
      </trkpt>
      <trkpt lat="40.6332524120807647705078125" lon="-1.4602996967732906341552734375">
        <ele>1245.5999755859375</ele>
        <time>2021-09-25T07:58:23.000Z</time>
      </trkpt>
      <trkpt lat="40.6331905536353588104248046875" lon="-1.46026759408414363861083984375">
        <ele>1246</ele>
        <time>2021-09-25T07:58:25.000Z</time>
      </trkpt>
      <trkpt lat="40.63313280232250690460205078125" lon="-1.4602276124060153961181640625">
        <ele>1246.199951171875</ele>
        <time>2021-09-25T07:58:27.000Z</time>
      </trkpt>
      <trkpt lat="40.63309676013886928558349609375" lon="-1.4602088369429111480712890625">
        <ele>1246.5999755859375</ele>
        <time>2021-09-25T07:58:28.000Z</time>
      </trkpt>
      <trkpt lat="40.633063651621341705322265625" lon="-1.46018427796661853790283203125">
        <ele>1246.5999755859375</ele>
        <time>2021-09-25T07:58:29.000Z</time>
      </trkpt>
      <trkpt lat="40.63299969770014286041259765625" lon="-1.46015368402004241943359375">
        <ele>1246.800048828125</ele>
        <time>2021-09-25T07:58:31.000Z</time>
      </trkpt>
      <trkpt lat="40.63293348066508769989013671875" lon="-1.46010716445744037628173828125">
        <ele>1247</ele>
        <time>2021-09-25T07:58:33.000Z</time>
      </trkpt>
      <trkpt lat="40.6328688561916351318359375" lon="-1.46006156690418720245361328125">
        <ele>1247.199951171875</ele>
        <time>2021-09-25T07:58:35.000Z</time>
      </trkpt>
      <trkpt lat="40.63280590809881687164306640625" lon="-1.46002233959734439849853515625">
        <ele>1247.4000244140625</ele>
        <time>2021-09-25T07:58:37.000Z</time>
      </trkpt>
      <trkpt lat="40.63275125809013843536376953125" lon="-1.4599778316915035247802734375">
        <ele>1247.199951171875</ele>
        <time>2021-09-25T07:58:39.000Z</time>
      </trkpt>
      <trkpt lat="40.632694847881793975830078125" lon="-1.459931395947933197021484375">
        <ele>1247</ele>
        <time>2021-09-25T07:58:41.000Z</time>
      </trkpt>
      <trkpt lat="40.632631815969944000244140625" lon="-1.45988252945244312286376953125">
        <ele>1246.800048828125</ele>
        <time>2021-09-25T07:58:43.000Z</time>
      </trkpt>
      <trkpt lat="40.63256886787712574005126953125" lon="-1.4598257839679718017578125">
        <ele>1246.800048828125</ele>
        <time>2021-09-25T07:58:45.000Z</time>
      </trkpt>
      <trkpt lat="40.63250281848013401031494140625" lon="-1.45977088250219821929931640625">
        <ele>1246.800048828125</ele>
        <time>2021-09-25T07:58:47.000Z</time>
      </trkpt>
      <trkpt lat="40.63243660144507884979248046875" lon="-1.45971405319869518280029296875">
        <ele>1247.199951171875</ele>
        <time>2021-09-25T07:58:49.000Z</time>
      </trkpt>
      <trkpt lat="40.63236770220100879669189453125" lon="-1.459659151732921600341796875">
        <ele>1247.4000244140625</ele>
        <time>2021-09-25T07:58:51.000Z</time>
      </trkpt>
      <trkpt lat="40.63229897059500217437744140625" lon="-1.4595972932875156402587890625">
        <ele>1247.800048828125</ele>
        <time>2021-09-25T07:58:53.000Z</time>
      </trkpt>
      <trkpt lat="40.63223225064575672149658203125" lon="-1.4595429785549640655517578125">
        <ele>1248</ele>
        <time>2021-09-25T07:58:55.000Z</time>
      </trkpt>
      <trkpt lat="40.63216469250619411468505859375" lon="-1.45948455668985843658447265625">
        <ele>1248</ele>
        <time>2021-09-25T07:58:57.000Z</time>
      </trkpt>
      <trkpt lat="40.63209327869117259979248046875" lon="-1.45942336879670619964599609375">
        <ele>1248</ele>
        <time>2021-09-25T07:58:59.000Z</time>
      </trkpt>
      <trkpt lat="40.63201633282005786895751953125" lon="-1.45935514010488986968994140625">
        <ele>1248</ele>
        <time>2021-09-25T07:59:01.000Z</time>
      </trkpt>
      <trkpt lat="40.63193704001605510711669921875" lon="-1.4592898450791835784912109375">
        <ele>1248.199951171875</ele>
        <time>2021-09-25T07:59:03.000Z</time>
      </trkpt>
      <trkpt lat="40.6318574957549571990966796875" lon="-1.45922320894896984100341796875">
        <ele>1248.4000244140625</ele>
        <time>2021-09-25T07:59:05.000Z</time>
      </trkpt>
      <trkpt lat="40.631780214607715606689453125" lon="-1.45915967412292957305908203125">
        <ele>1248.4000244140625</ele>
        <time>2021-09-25T07:59:07.000Z</time>
      </trkpt>
      <trkpt lat="40.63170150853693485260009765625" lon="-1.45908289588987827301025390625">
        <ele>1248.4000244140625</ele>
        <time>2021-09-25T07:59:09.000Z</time>
      </trkpt>
      <trkpt lat="40.6316207908093929290771484375" lon="-1.4589969813823699951171875">
        <ele>1248.800048828125</ele>
        <time>2021-09-25T07:59:11.000Z</time>
      </trkpt>
      <trkpt lat="40.63154258765280246734619140625" lon="-1.4589093066751956939697265625">
        <ele>1248.5999755859375</ele>
        <time>2021-09-25T07:59:13.000Z</time>
      </trkpt>
      <trkpt lat="40.63146564178168773651123046875" lon="-1.4588248170912265777587890625">
        <ele>1248.5999755859375</ele>
        <time>2021-09-25T07:59:15.000Z</time>
      </trkpt>
      <trkpt lat="40.63139355741441249847412109375" lon="-1.4587352983653545379638671875">
        <ele>1248.5999755859375</ele>
        <time>2021-09-25T07:59:17.000Z</time>
      </trkpt>
      <trkpt lat="40.63136019743978977203369140625" lon="-1.45868877880275249481201171875">
        <ele>1248.5999755859375</ele>
        <time>2021-09-25T07:59:18.000Z</time>
      </trkpt>
      <trkpt lat="40.63132666982710361480712890625" lon="-1.4586417563259601593017578125">
        <ele>1248.5999755859375</ele>
        <time>2021-09-25T07:59:19.000Z</time>
      </trkpt>
      <trkpt lat="40.63125927932560443878173828125" lon="-1.4585364796221256256103515625">
        <ele>1248.199951171875</ele>
        <time>2021-09-25T07:59:21.000Z</time>
      </trkpt>
      <trkpt lat="40.63119440339505672454833984375" lon="-1.45843313075602054595947265625">
        <ele>1247.5999755859375</ele>
        <time>2021-09-25T07:59:23.000Z</time>
      </trkpt>
      <trkpt lat="40.631165318191051483154296875" lon="-1.45838418044149875640869140625">
        <ele>1247.4000244140625</ele>
        <time>2021-09-25T07:59:24.000Z</time>
      </trkpt>
      <trkpt lat="40.63113640062510967254638671875" lon="-1.45833355374634265899658203125">
        <ele>1247</ele>
        <time>2021-09-25T07:59:25.000Z</time>
      </trkpt>
      <trkpt lat="40.63107018359005451202392578125" lon="-1.45823732949793338775634765625">
        <ele>1247</ele>
        <time>2021-09-25T07:59:27.000Z</time>
      </trkpt>
      <trkpt lat="40.631008408963680267333984375" lon="-1.458136327564716339111328125">
        <ele>1246.800048828125</ele>
        <time>2021-09-25T07:59:29.000Z</time>
      </trkpt>
      <trkpt lat="40.6309448741376399993896484375" lon="-1.45805141888558864593505859375">
        <ele>1246.800048828125</ele>
        <time>2021-09-25T07:59:31.000Z</time>
      </trkpt>
      <trkpt lat="40.6308748014271259307861328125" lon="-1.45796366035938262939453125">
        <ele>1247</ele>
        <time>2021-09-25T07:59:33.000Z</time>
      </trkpt>
      <trkpt lat="40.63080565072596073150634765625" lon="-1.4578776620328426361083984375">
        <ele>1247.4000244140625</ele>
        <time>2021-09-25T07:59:35.000Z</time>
      </trkpt>
      <trkpt lat="40.63073725439608097076416015625" lon="-1.457796357572078704833984375">
        <ele>1248</ele>
        <time>2021-09-25T07:59:37.000Z</time>
      </trkpt>
      <trkpt lat="40.630702637135982513427734375" lon="-1.45775788463652133941650390625">
        <ele>1248.199951171875</ele>
        <time>2021-09-25T07:59:38.000Z</time>
      </trkpt>
      <trkpt lat="40.63066986389458179473876953125" lon="-1.45771555602550506591796875">
        <ele>1248.4000244140625</ele>
        <time>2021-09-25T07:59:39.000Z</time>
      </trkpt>
      <trkpt lat="40.63059710897505283355712890625" lon="-1.4576339162886142730712890625">
        <ele>1249</ele>
        <time>2021-09-25T07:59:41.000Z</time>
      </trkpt>
      <trkpt lat="40.6305230967700481414794921875" lon="-1.45755403675138950347900390625">
        <ele>1249.4000244140625</ele>
        <time>2021-09-25T07:59:43.000Z</time>
      </trkpt>
      <trkpt lat="40.6304486654698848724365234375" lon="-1.4574692957103252410888671875">
        <ele>1249.4000244140625</ele>
        <time>2021-09-25T07:59:45.000Z</time>
      </trkpt>
      <trkpt lat="40.63040935434401035308837890625" lon="-1.45742948167026042938232421875">
        <ele>1249.4000244140625</ele>
        <time>2021-09-25T07:59:46.000Z</time>
      </trkpt>
      <trkpt lat="40.63037213869392871856689453125" lon="-1.45739109255373477935791015625">
        <ele>1249.4000244140625</ele>
        <time>2021-09-25T07:59:47.000Z</time>
      </trkpt>
      <trkpt lat="40.63030307181179523468017578125" lon="-1.45732571370899677276611328125">
        <ele>1249.4000244140625</ele>
        <time>2021-09-25T07:59:49.000Z</time>
      </trkpt>
      <trkpt lat="40.63023366965353488922119140625" lon="-1.4572517015039920806884765625">
        <ele>1249.199951171875</ele>
        <time>2021-09-25T07:59:51.000Z</time>
      </trkpt>
      <trkpt lat="40.63016929663717746734619140625" lon="-1.45718657411634922027587890625">
        <ele>1249</ele>
        <time>2021-09-25T07:59:53.000Z</time>
      </trkpt>
      <trkpt lat="40.63013459555804729461669921875" lon="-1.45715371705591678619384765625">
        <ele>1248.800048828125</ele>
        <time>2021-09-25T07:59:54.000Z</time>
      </trkpt>
      <trkpt lat="40.63009922392666339874267578125" lon="-1.45711499266326427459716796875">
        <ele>1248.5999755859375</ele>
        <time>2021-09-25T07:59:55.000Z</time>
      </trkpt>
      <trkpt lat="40.63003099523484706878662109375" lon="-1.4570545591413974761962890625">
        <ele>1248.4000244140625</ele>
        <time>2021-09-25T07:59:57.000Z</time>
      </trkpt>
      <trkpt lat="40.6299645267426967620849609375" lon="-1.45699563436210155487060546875">
        <ele>1248.800048828125</ele>
        <time>2021-09-25T07:59:59.000Z</time>
      </trkpt>
      <trkpt lat="40.62990090809762477874755859375" lon="-1.456927992403507232666015625">
        <ele>1248.4000244140625</ele>
        <time>2021-09-25T08:00:01.000Z</time>
      </trkpt>
      <trkpt lat="40.629834271967411041259765625" lon="-1.456867642700672149658203125">
        <ele>1248.4000244140625</ele>
        <time>2021-09-25T08:00:03.000Z</time>
      </trkpt>
      <trkpt lat="40.62976947985589504241943359375" lon="-1.4568031020462512969970703125">
        <ele>1249</ele>
        <time>2021-09-25T08:00:05.000Z</time>
      </trkpt>
      <trkpt lat="40.62970410101115703582763671875" lon="-1.45673881284892559051513671875">
        <ele>1249.800048828125</ele>
        <time>2021-09-25T08:00:07.000Z</time>
      </trkpt>
      <trkpt lat="40.6296429969370365142822265625" lon="-1.4566736854612827301025390625">
        <ele>1250.4000244140625</ele>
        <time>2021-09-25T08:00:09.000Z</time>
      </trkpt>
      <trkpt lat="40.6296118162572383880615234375" lon="-1.4566394872963428497314453125">
        <ele>1250.5999755859375</ele>
        <time>2021-09-25T08:00:10.000Z</time>
      </trkpt>
      <trkpt lat="40.629579462110996246337890625" lon="-1.45660654641687870025634765625">
        <ele>1251</ele>
        <time>2021-09-25T08:00:11.000Z</time>
      </trkpt>
      <trkpt lat="40.62951743602752685546875" lon="-1.4565449394285678863525390625">
        <ele>1251.5999755859375</ele>
        <time>2021-09-25T08:00:13.000Z</time>
      </trkpt>
      <trkpt lat="40.6294599361717700958251953125" lon="-1.4564812369644641876220703125">
        <ele>1252.199951171875</ele>
        <time>2021-09-25T08:00:15.000Z</time>
      </trkpt>
      <trkpt lat="40.62939849682152271270751953125" lon="-1.45642499439418315887451171875">
        <ele>1252.4000244140625</ele>
        <time>2021-09-25T08:00:17.000Z</time>
      </trkpt>
      <trkpt lat="40.62934133224189281463623046875" lon="-1.4563716016709804534912109375">
        <ele>1252.4000244140625</ele>
        <time>2021-09-25T08:00:19.000Z</time>
      </trkpt>
      <trkpt lat="40.62928718514740467071533203125" lon="-1.4563149400055408477783203125">
        <ele>1252.4000244140625</ele>
        <time>2021-09-25T08:00:21.000Z</time>
      </trkpt>
      <trkpt lat="40.62923018820583820343017578125" lon="-1.45625819452106952667236328125">
        <ele>1252.800048828125</ele>
        <time>2021-09-25T08:00:23.000Z</time>
      </trkpt>
      <trkpt lat="40.62917419709265232086181640625" lon="-1.456203125417232513427734375">
        <ele>1253.199951171875</ele>
        <time>2021-09-25T08:00:25.000Z</time>
      </trkpt>
      <trkpt lat="40.6291457824409008026123046875" lon="-1.45617957226932048797607421875">
        <ele>1253.199951171875</ele>
        <time>2021-09-25T08:00:26.000Z</time>
      </trkpt>
      <trkpt lat="40.6291169486939907073974609375" lon="-1.456152163445949554443359375">
        <ele>1253.4000244140625</ele>
        <time>2021-09-25T08:00:27.000Z</time>
      </trkpt>
      <trkpt lat="40.629062466323375701904296875" lon="-1.45608787424862384796142578125">
        <ele>1253.4000244140625</ele>
        <time>2021-09-25T08:00:29.000Z</time>
      </trkpt>
      <trkpt lat="40.62900085933506488800048828125" lon="-1.45602576434612274169921875">
        <ele>1253.4000244140625</ele>
        <time>2021-09-25T08:00:31.000Z</time>
      </trkpt>
      <trkpt lat="40.628967918455600738525390625" lon="-1.4559903927147388458251953125">
        <ele>1253.4000244140625</ele>
        <time>2021-09-25T08:00:32.000Z</time>
      </trkpt>
      <trkpt lat="40.62893849797546863555908203125" lon="-1.45595778711140155792236328125">
        <ele>1253.4000244140625</ele>
        <time>2021-09-25T08:00:33.000Z</time>
      </trkpt>
      <trkpt lat="40.62888468615710735321044921875" lon="-1.45589760504662990570068359375">
        <ele>1253.4000244140625</ele>
        <time>2021-09-25T08:00:35.000Z</time>
      </trkpt>
      <trkpt lat="40.62882718630135059356689453125" lon="-1.455834992229938507080078125">
        <ele>1253.800048828125</ele>
        <time>2021-09-25T08:00:37.000Z</time>
      </trkpt>
      <trkpt lat="40.6287766434252262115478515625" lon="-1.45577087067067623138427734375">
        <ele>1254</ele>
        <time>2021-09-25T08:00:39.000Z</time>
      </trkpt>
      <trkpt lat="40.62871956266462802886962890625" lon="-1.4557084254920482635498046875">
        <ele>1254.4000244140625</ele>
        <time>2021-09-25T08:00:41.000Z</time>
      </trkpt>
      <trkpt lat="40.62865703366696834564208984375" lon="-1.455643884837627410888671875">
        <ele>1254.4000244140625</ele>
        <time>2021-09-25T08:00:43.000Z</time>
      </trkpt>
      <trkpt lat="40.62862769700586795806884765625" lon="-1.45561211742460727691650390625">
        <ele>1254.4000244140625</ele>
        <time>2021-09-25T08:00:44.000Z</time>
      </trkpt>
      <trkpt lat="40.62859919853508472442626953125" lon="-1.45558311603963375091552734375">
        <ele>1254.4000244140625</ele>
        <time>2021-09-25T08:00:45.000Z</time>
      </trkpt>
      <trkpt lat="40.62853775918483734130859375" lon="-1.45552553236484527587890625">
        <ele>1254.800048828125</ele>
        <time>2021-09-25T08:00:47.000Z</time>
      </trkpt>
      <trkpt lat="40.6284728832542896270751953125" lon="-1.455464847385883331298828125">
        <ele>1255.5999755859375</ele>
        <time>2021-09-25T08:00:49.000Z</time>
      </trkpt>
      <trkpt lat="40.6284028105437755584716796875" lon="-1.4554143883287906646728515625">
        <ele>1255.800048828125</ele>
        <time>2021-09-25T08:00:51.000Z</time>
      </trkpt>
      <trkpt lat="40.62832854688167572021484375" lon="-1.455370970070362091064453125">
        <ele>1256.199951171875</ele>
        <time>2021-09-25T08:00:53.000Z</time>
      </trkpt>
      <trkpt lat="40.6282552890479564666748046875" lon="-1.455323696136474609375">
        <ele>1256.4000244140625</ele>
        <time>2021-09-25T08:00:55.000Z</time>
      </trkpt>
      <trkpt lat="40.6281835399568080902099609375" lon="-1.455285809934139251708984375">
        <ele>1256.5999755859375</ele>
        <time>2021-09-25T08:00:57.000Z</time>
      </trkpt>
      <trkpt lat="40.6281094439327716827392578125" lon="-1.4552467502653598785400390625">
        <ele>1257</ele>
        <time>2021-09-25T08:00:59.000Z</time>
      </trkpt>
      <trkpt lat="40.628039203584194183349609375" lon="-1.45520995371043682098388671875">
        <ele>1257.199951171875</ele>
        <time>2021-09-25T08:01:01.000Z</time>
      </trkpt>
      <trkpt lat="40.627966113388538360595703125" lon="-1.455173157155513763427734375">
        <ele>1257.4000244140625</ele>
        <time>2021-09-25T08:01:03.000Z</time>
      </trkpt>
      <trkpt lat="40.62789360992610454559326171875" lon="-1.4551346004009246826171875">
        <ele>1257.199951171875</ele>
        <time>2021-09-25T08:01:05.000Z</time>
      </trkpt>
      <trkpt lat="40.6278194300830364227294921875" lon="-1.45509512163698673248291015625">
        <ele>1257</ele>
        <time>2021-09-25T08:01:07.000Z</time>
      </trkpt>
      <trkpt lat="40.6277404725551605224609375" lon="-1.4550553075969219207763671875">
        <ele>1257.199951171875</ele>
        <time>2021-09-25T08:01:09.000Z</time>
      </trkpt>
      <trkpt lat="40.62765589915215969085693359375" lon="-1.4550174213945865631103515625">
        <ele>1257.5999755859375</ele>
        <time>2021-09-25T08:01:11.000Z</time>
      </trkpt>
      <trkpt lat="40.62757325358688831329345703125" lon="-1.45498012192547321319580078125">
        <ele>1258</ele>
        <time>2021-09-25T08:01:13.000Z</time>
      </trkpt>
      <trkpt lat="40.62748742289841175079345703125" lon="-1.454937122762203216552734375">
        <ele>1258.4000244140625</ele>
        <time>2021-09-25T08:01:15.000Z</time>
      </trkpt>
      <trkpt lat="40.6274422444403171539306640625" lon="-1.454917006194591522216796875">
        <ele>1258.5999755859375</ele>
        <time>2021-09-25T08:01:16.000Z</time>
      </trkpt>
      <trkpt lat="40.62739991582930088043212890625" lon="-1.45489630289375782012939453125">
        <ele>1258.800048828125</ele>
        <time>2021-09-25T08:01:17.000Z</time>
      </trkpt>
      <trkpt lat="40.62731106765568256378173828125" lon="-1.45485523156821727752685546875">
        <ele>1259</ele>
        <time>2021-09-25T08:01:19.000Z</time>
      </trkpt>
      <trkpt lat="40.62721886672079563140869140625" lon="-1.4548155851662158966064453125">
        <ele>1258.800048828125</ele>
        <time>2021-09-25T08:01:21.000Z</time>
      </trkpt>
      <trkpt lat="40.627120546996593475341796875" lon="-1.454768143594264984130859375">
        <ele>1258.199951171875</ele>
        <time>2021-09-25T08:01:23.000Z</time>
      </trkpt>
      <trkpt lat="40.627019293606281280517578125" lon="-1.4547307603061199188232421875">
        <ele>1257.4000244140625</ele>
        <time>2021-09-25T08:01:25.000Z</time>
      </trkpt>
      <trkpt lat="40.6269182078540325164794921875" lon="-1.45468742586672306060791015625">
        <ele>1256.5999755859375</ele>
        <time>2021-09-25T08:01:27.000Z</time>
      </trkpt>
      <trkpt lat="40.62681485898792743682861328125" lon="-1.4546422474086284637451171875">
        <ele>1256</ele>
        <time>2021-09-25T08:01:29.000Z</time>
      </trkpt>
      <trkpt lat="40.6267103366553783416748046875" lon="-1.45459455437958240509033203125">
        <ele>1255</ele>
        <time>2021-09-25T08:01:31.000Z</time>
      </trkpt>
      <trkpt lat="40.6266043893992900848388671875" lon="-1.45454476587474346160888671875">
        <ele>1255</ele>
        <time>2021-09-25T08:01:33.000Z</time>
      </trkpt>
      <trkpt lat="40.626496933400630950927734375" lon="-1.45449564792215824127197265625">
        <ele>1255</ele>
        <time>2021-09-25T08:01:35.000Z</time>
      </trkpt>
      <trkpt lat="40.62638671137392520904541015625" lon="-1.45444971509277820587158203125">
        <ele>1255.199951171875</ele>
        <time>2021-09-25T08:01:37.000Z</time>
      </trkpt>
      <trkpt lat="40.62627389095723628997802734375" lon="-1.45440034568309783935546875">
        <ele>1255.5999755859375</ele>
        <time>2021-09-25T08:01:39.000Z</time>
      </trkpt>
      <trkpt lat="40.62616056762635707855224609375" lon="-1.45435013808310031890869140625">
        <ele>1256</ele>
        <time>2021-09-25T08:01:41.000Z</time>
      </trkpt>
      <trkpt lat="40.62604355625808238983154296875" lon="-1.45429666154086589813232421875">
        <ele>1255.5999755859375</ele>
        <time>2021-09-25T08:01:43.000Z</time>
      </trkpt>
      <trkpt lat="40.62592453323304653167724609375" lon="-1.4542399160563945770263671875">
        <ele>1255.199951171875</ele>
        <time>2021-09-25T08:01:45.000Z</time>
      </trkpt>
      <trkpt lat="40.62580584548413753509521484375" lon="-1.454176716506481170654296875">
        <ele>1254.5999755859375</ele>
        <time>2021-09-25T08:01:47.000Z</time>
      </trkpt>
      <trkpt lat="40.6256859004497528076171875" lon="-1.45411309786140918731689453125">
        <ele>1253.800048828125</ele>
        <time>2021-09-25T08:01:49.000Z</time>
      </trkpt>
      <trkpt lat="40.62556855380535125732421875" lon="-1.45404160022735595703125">
        <ele>1252.5999755859375</ele>
        <time>2021-09-25T08:01:51.000Z</time>
      </trkpt>
      <trkpt lat="40.62545062042772769927978515625" lon="-1.453972868621349334716796875">
        <ele>1252.5999755859375</ele>
        <time>2021-09-25T08:01:53.000Z</time>
      </trkpt>
      <trkpt lat="40.6253363750874996185302734375" lon="-1.4538981020450592041015625">
        <ele>1253</ele>
        <time>2021-09-25T08:01:55.000Z</time>
      </trkpt>
      <trkpt lat="40.62522280029952526092529296875" lon="-1.45381629467010498046875">
        <ele>1253.199951171875</ele>
        <time>2021-09-25T08:01:57.000Z</time>
      </trkpt>
      <trkpt lat="40.62510897405445575714111328125" lon="-1.45373138599097728729248046875">
        <ele>1253.5999755859375</ele>
        <time>2021-09-25T08:01:59.000Z</time>
      </trkpt>
      <trkpt lat="40.6250528991222381591796875" lon="-1.4536867104470729827880859375">
        <ele>1253.5999755859375</ele>
        <time>2021-09-25T08:02:00.000Z</time>
      </trkpt>
      <trkpt lat="40.6249984167516231536865234375" lon="-1.45364253781735897064208984375">
        <ele>1253.800048828125</ele>
        <time>2021-09-25T08:02:01.000Z</time>
      </trkpt>
      <trkpt lat="40.62488861382007598876953125" lon="-1.45355134271085262298583984375">
        <ele>1253.800048828125</ele>
        <time>2021-09-25T08:02:03.000Z</time>
      </trkpt>
      <trkpt lat="40.62477998435497283935546875" lon="-1.4534567110240459442138671875">
        <ele>1253.5999755859375</ele>
        <time>2021-09-25T08:02:05.000Z</time>
      </trkpt>
      <trkpt lat="40.6246728636324405670166015625" lon="-1.45336233079433441162109375">
        <ele>1253.199951171875</ele>
        <time>2021-09-25T08:02:07.000Z</time>
      </trkpt>
      <trkpt lat="40.62457320280373096466064453125" lon="-1.4532706327736377716064453125">
        <ele>1252</ele>
        <time>2021-09-25T08:02:09.000Z</time>
      </trkpt>
      <trkpt lat="40.62448024749755859375" lon="-1.4531821198761463165283203125">
        <ele>1251</ele>
        <time>2021-09-25T08:02:11.000Z</time>
      </trkpt>
      <trkpt lat="40.6243932433426380157470703125" lon="-1.45309620536863803863525390625">
        <ele>1250.800048828125</ele>
        <time>2021-09-25T08:02:13.000Z</time>
      </trkpt>
      <trkpt lat="40.624348819255828857421875" lon="-1.45305454730987548828125">
        <ele>1250.5999755859375</ele>
        <time>2021-09-25T08:02:14.000Z</time>
      </trkpt>
      <trkpt lat="40.6243045628070831298828125" lon="-1.4530138112604618072509765625">
        <ele>1250.4000244140625</ele>
        <time>2021-09-25T08:02:15.000Z</time>
      </trkpt>
      <trkpt lat="40.6242644973099231719970703125" lon="-1.45297282375395298004150390625">
        <ele>1250.199951171875</ele>
        <time>2021-09-25T08:02:16.000Z</time>
      </trkpt>
      <trkpt lat="40.6242212466895580291748046875" lon="-1.4529296569526195526123046875">
        <ele>1250</ele>
        <time>2021-09-25T08:02:17.000Z</time>
      </trkpt>
      <trkpt lat="40.62414161860942840576171875" lon="-1.4528478495776653289794921875">
        <ele>1250</ele>
        <time>2021-09-25T08:02:19.000Z</time>
      </trkpt>
      <trkpt lat="40.6240700371563434600830078125" lon="-1.452778615057468414306640625">
        <ele>1250</ele>
        <time>2021-09-25T08:02:21.000Z</time>
      </trkpt>
      <trkpt lat="40.62400524504482746124267578125" lon="-1.452718935906887054443359375">
        <ele>1250.4000244140625</ele>
        <time>2021-09-25T08:02:23.000Z</time>
      </trkpt>
      <trkpt lat="40.62394774518907070159912109375" lon="-1.452663950622081756591796875">
        <ele>1250.199951171875</ele>
        <time>2021-09-25T08:02:25.000Z</time>
      </trkpt>
      <trkpt lat="40.6238930113613605499267578125" lon="-1.45261541940271854400634765625">
        <ele>1250</ele>
        <time>2021-09-25T08:02:27.000Z</time>
      </trkpt>
      <trkpt lat="40.62385856173932552337646484375" lon="-1.45258960314095020294189453125">
        <ele>1250</ele>
        <time>2021-09-25T08:02:28.000Z</time>
      </trkpt>
      <trkpt lat="40.623823441565036773681640625" lon="-1.45256009884178638458251953125">
        <ele>1250</ele>
        <time>2021-09-25T08:02:29.000Z</time>
      </trkpt>
      <trkpt lat="40.62374867498874664306640625" lon="-1.45248432643711566925048828125">
        <ele>1250</ele>
        <time>2021-09-25T08:02:31.000Z</time>
      </trkpt>
      <trkpt lat="40.62366510741412639617919921875" lon="-1.452402435243129730224609375">
        <ele>1250.5999755859375</ele>
        <time>2021-09-25T08:02:33.000Z</time>
      </trkpt>
      <trkpt lat="40.62356972135603427886962890625" lon="-1.452318616211414337158203125">
        <ele>1251.199951171875</ele>
        <time>2021-09-25T08:02:35.000Z</time>
      </trkpt>
      <trkpt lat="40.6234688870608806610107421875" lon="-1.452231444418430328369140625">
        <ele>1250.800048828125</ele>
        <time>2021-09-25T08:02:37.000Z</time>
      </trkpt>
      <trkpt lat="40.6233585812151432037353515625" lon="-1.45214720629155635833740234375">
        <ele>1250.199951171875</ele>
        <time>2021-09-25T08:02:39.000Z</time>
      </trkpt>
      <trkpt lat="40.62324852682650089263916015625" lon="-1.45204930566251277923583984375">
        <ele>1249.199951171875</ele>
        <time>2021-09-25T08:02:41.000Z</time>
      </trkpt>
      <trkpt lat="40.62313386239111423492431640625" lon="-1.45195123739540576934814453125">
        <ele>1247.5999755859375</ele>
        <time>2021-09-25T08:02:43.000Z</time>
      </trkpt>
      <trkpt lat="40.6230155937373638153076171875" lon="-1.45184495486319065093994140625">
        <ele>1246.800048828125</ele>
        <time>2021-09-25T08:02:45.000Z</time>
      </trkpt>
      <trkpt lat="40.622953064739704132080078125" lon="-1.45179064013063907623291015625">
        <ele>1246.5999755859375</ele>
        <time>2021-09-25T08:02:46.000Z</time>
      </trkpt>
      <trkpt lat="40.6228856742382049560546875" lon="-1.45173481665551662445068359375">
        <ele>1246.199951171875</ele>
        <time>2021-09-25T08:02:47.000Z</time>
      </trkpt>
      <trkpt lat="40.62274175696074962615966796875" lon="-1.451614536345005035400390625">
        <ele>1245.4000244140625</ele>
        <time>2021-09-25T08:02:49.000Z</time>
      </trkpt>
      <trkpt lat="40.62257596291601657867431640625" lon="-1.45151051692664623260498046875">
        <ele>1244</ele>
        <time>2021-09-25T08:02:51.000Z</time>
      </trkpt>
      <trkpt lat="40.62239172868430614471435546875" lon="-1.4514277875423431396484375">
        <ele>1242.4000244140625</ele>
        <time>2021-09-25T08:02:53.000Z</time>
      </trkpt>
      <trkpt lat="40.6222022138535976409912109375" lon="-1.45134891383349895477294921875">
        <ele>1240.800048828125</ele>
        <time>2021-09-25T08:02:55.000Z</time>
      </trkpt>
      <trkpt lat="40.62210381031036376953125" lon="-1.451306082308292388916015625">
        <ele>1240.5999755859375</ele>
        <time>2021-09-25T08:02:56.000Z</time>
      </trkpt>
      <trkpt lat="40.62200733460485935211181640625" lon="-1.45125989802181720733642578125">
        <ele>1239.5999755859375</ele>
        <time>2021-09-25T08:02:57.000Z</time>
      </trkpt>
      <trkpt lat="40.62180432491004467010498046875" lon="-1.45117172040045261383056640625">
        <ele>1237.800048828125</ele>
        <time>2021-09-25T08:02:59.000Z</time>
      </trkpt>
      <trkpt lat="40.62159192748367786407470703125" lon="-1.4511114545166492462158203125">
        <ele>1235.800048828125</ele>
        <time>2021-09-25T08:03:01.000Z</time>
      </trkpt>
      <trkpt lat="40.62137223780155181884765625" lon="-1.45102922804653644561767578125">
        <ele>1234</ele>
        <time>2021-09-25T08:03:03.000Z</time>
      </trkpt>
      <trkpt lat="40.62126268632709980010986328125" lon="-1.4509746618568897247314453125">
        <ele>1233.199951171875</ele>
        <time>2021-09-25T08:03:04.000Z</time>
      </trkpt>
      <trkpt lat="40.6211527995765209197998046875" lon="-1.45091372542083263397216796875">
        <ele>1232.4000244140625</ele>
        <time>2021-09-25T08:03:05.000Z</time>
      </trkpt>
      <trkpt lat="40.62093344517052173614501953125" lon="-1.45077391527593135833740234375">
        <ele>1231.199951171875</ele>
        <time>2021-09-25T08:03:07.000Z</time>
      </trkpt>
      <trkpt lat="40.620723478496074676513671875" lon="-1.45061214454472064971923828125">
        <ele>1230.199951171875</ele>
        <time>2021-09-25T08:03:09.000Z</time>
      </trkpt>
      <trkpt lat="40.6206163577735424041748046875" lon="-1.45051994360983371734619140625">
        <ele>1229.5999755859375</ele>
        <time>2021-09-25T08:03:10.000Z</time>
      </trkpt>
      <trkpt lat="40.6205065548419952392578125" lon="-1.45043008960783481597900390625">
        <ele>1229.4000244140625</ele>
        <time>2021-09-25T08:03:11.000Z</time>
      </trkpt>
      <trkpt lat="40.6202891282737255096435546875" lon="-1.45023613236844539642333984375">
        <ele>1228.5999755859375</ele>
        <time>2021-09-25T08:03:13.000Z</time>
      </trkpt>
      <trkpt lat="40.62018225900828838348388671875" lon="-1.4501307718455791473388671875">
        <ele>1227.5999755859375</ele>
        <time>2021-09-25T08:03:14.000Z</time>
      </trkpt>
      <trkpt lat="40.62007606029510498046875" lon="-1.45002624951303005218505859375">
        <ele>1226.4000244140625</ele>
        <time>2021-09-25T08:03:15.000Z</time>
      </trkpt>
      <trkpt lat="40.6199655868113040924072265625" lon="-1.449921391904354095458984375">
        <ele>1225.4000244140625</ele>
        <time>2021-09-25T08:03:16.000Z</time>
      </trkpt>
      <trkpt lat="40.6198529340326786041259765625" lon="-1.4498213119804859161376953125">
        <ele>1224.199951171875</ele>
        <time>2021-09-25T08:03:17.000Z</time>
      </trkpt>
      <trkpt lat="40.61962167732417583465576171875" lon="-1.4496521651744842529296875">
        <ele>1222.4000244140625</ele>
        <time>2021-09-25T08:03:19.000Z</time>
      </trkpt>
      <trkpt lat="40.6195018999278545379638671875" lon="-1.44959072582423686981201171875">
        <ele>1222.199951171875</ele>
        <time>2021-09-25T08:03:20.000Z</time>
      </trkpt>
      <trkpt lat="40.61937541700899600982666015625" lon="-1.4495437033474445343017578125">
        <ele>1222</ele>
        <time>2021-09-25T08:03:21.000Z</time>
      </trkpt>
      <trkpt lat="40.6192454136908054351806640625" lon="-1.449503637850284576416015625">
        <ele>1221.800048828125</ele>
        <time>2021-09-25T08:03:22.000Z</time>
      </trkpt>
      <trkpt lat="40.61911423690617084503173828125" lon="-1.4494679309427738189697265625">
        <ele>1221.4000244140625</ele>
        <time>2021-09-25T08:03:23.000Z</time>
      </trkpt>
      <trkpt lat="40.61898297630250453948974609375" lon="-1.4494303800165653228759765625">
        <ele>1221</ele>
        <time>2021-09-25T08:03:24.000Z</time>
      </trkpt>
      <trkpt lat="40.618855319917201995849609375" lon="-1.44940196536481380462646484375">
        <ele>1220.199951171875</ele>
        <time>2021-09-25T08:03:25.000Z</time>
      </trkpt>
      <trkpt lat="40.61860243789851665496826171875" lon="-1.44937665201723575592041015625">
        <ele>1219.199951171875</ele>
        <time>2021-09-25T08:03:27.000Z</time>
      </trkpt>
      <trkpt lat="40.6184793077409267425537109375" lon="-1.44938754849135875701904296875">
        <ele>1219.800048828125</ele>
        <time>2021-09-25T08:03:28.000Z</time>
      </trkpt>
      <trkpt lat="40.6183579377830028533935546875" lon="-1.44940934143960475921630859375">
        <ele>1220.199951171875</ele>
        <time>2021-09-25T08:03:29.000Z</time>
      </trkpt>
      <trkpt lat="40.6181188859045505523681640625" lon="-1.449468769133090972900390625">
        <ele>1218.199951171875</ele>
        <time>2021-09-25T08:03:31.000Z</time>
      </trkpt>
      <trkpt lat="40.61800162307918071746826171875" lon="-1.44948997534811496734619140625">
        <ele>1217.5999755859375</ele>
        <time>2021-09-25T08:03:32.000Z</time>
      </trkpt>
      <trkpt lat="40.6178860366344451904296875" lon="-1.449493579566478729248046875">
        <ele>1217.199951171875</ele>
        <time>2021-09-25T08:03:33.000Z</time>
      </trkpt>
      <trkpt lat="40.6176580488681793212890625" lon="-1.449440605938434600830078125">
        <ele>1216.5999755859375</ele>
        <time>2021-09-25T08:03:35.000Z</time>
      </trkpt>
      <trkpt lat="40.6174392811954021453857421875" lon="-1.449319906532764434814453125">
        <ele>1215</ele>
        <time>2021-09-25T08:03:37.000Z</time>
      </trkpt>
      <trkpt lat="40.61733358539640903472900390625" lon="-1.4492404460906982421875">
        <ele>1213.199951171875</ele>
        <time>2021-09-25T08:03:38.000Z</time>
      </trkpt>
      <trkpt lat="40.6172262132167816162109375" lon="-1.449160315096378326416015625">
        <ele>1211</ele>
        <time>2021-09-25T08:03:39.000Z</time>
      </trkpt>
      <trkpt lat="40.6170044280588626861572265625" lon="-1.44901287741959095001220703125">
        <ele>1208</ele>
        <time>2021-09-25T08:03:41.000Z</time>
      </trkpt>
      <trkpt lat="40.6167707405984401702880859375" lon="-1.44888010807335376739501953125">
        <ele>1206</ele>
        <time>2021-09-25T08:03:43.000Z</time>
      </trkpt>
      <trkpt lat="40.61653026379644870758056640625" lon="-1.4487467519938945770263671875">
        <ele>1205</ele>
        <time>2021-09-25T08:03:45.000Z</time>
      </trkpt>
      <trkpt lat="40.61628148891031742095947265625" lon="-1.44860484637320041656494140625">
        <ele>1202.5999755859375</ele>
        <time>2021-09-25T08:03:47.000Z</time>
      </trkpt>
      <trkpt lat="40.6160264275968074798583984375" lon="-1.44845983944833278656005859375">
        <ele>1200.5999755859375</ele>
        <time>2021-09-25T08:03:49.000Z</time>
      </trkpt>
      <trkpt lat="40.615775473415851593017578125" lon="-1.44829639233648777008056640625">
        <ele>1199.4000244140625</ele>
        <time>2021-09-25T08:03:51.000Z</time>
      </trkpt>
      <trkpt lat="40.6156559474766254425048828125" lon="-1.44820050336420536041259765625">
        <ele>1197.800048828125</ele>
        <time>2021-09-25T08:03:52.000Z</time>
      </trkpt>
      <trkpt lat="40.61554371379315853118896484375" lon="-1.4480855874717235565185546875">
        <ele>1195.4000244140625</ele>
        <time>2021-09-25T08:03:53.000Z</time>
      </trkpt>
      <trkpt lat="40.6154380179941654205322265625" lon="-1.44796011038124561309814453125">
        <ele>1193.5999755859375</ele>
        <time>2021-09-25T08:03:54.000Z</time>
      </trkpt>
      <trkpt lat="40.6153394468128681182861328125" lon="-1.447822563350200653076171875">
        <ele>1191</ele>
        <time>2021-09-25T08:03:55.000Z</time>
      </trkpt>
      <trkpt lat="40.61514825560152530670166015625" lon="-1.447537578642368316650390625">
        <ele>1189.800048828125</ele>
        <time>2021-09-25T08:03:57.000Z</time>
      </trkpt>
      <trkpt lat="40.6149597465991973876953125" lon="-1.4472584612667560577392578125">
        <ele>1191.4000244140625</ele>
        <time>2021-09-25T08:03:59.000Z</time>
      </trkpt>
      <trkpt lat="40.61476822011172771453857421875" lon="-1.44699501805007457733154296875">
        <ele>1192.199951171875</ele>
        <time>2021-09-25T08:04:01.000Z</time>
      </trkpt>
      <trkpt lat="40.614585243165493011474609375" lon="-1.44673400558531284332275390625">
        <ele>1189</ele>
        <time>2021-09-25T08:04:03.000Z</time>
      </trkpt>
      <trkpt lat="40.61441651545464992523193359375" lon="-1.44648070447146892547607421875">
        <ele>1185.4000244140625</ele>
        <time>2021-09-25T08:04:05.000Z</time>
      </trkpt>
      <trkpt lat="40.6142561696469783782958984375" lon="-1.4462405629456043243408203125">
        <ele>1183.800048828125</ele>
        <time>2021-09-25T08:04:07.000Z</time>
      </trkpt>
      <trkpt lat="40.614181570708751678466796875" lon="-1.4461171813309192657470703125">
        <ele>1183</ele>
        <time>2021-09-25T08:04:08.000Z</time>
      </trkpt>
      <trkpt lat="40.61411141417920589447021484375" lon="-1.44599430263042449951171875">
        <ele>1183.4000244140625</ele>
        <time>2021-09-25T08:04:09.000Z</time>
      </trkpt>
      <trkpt lat="40.61403966508805751800537109375" lon="-1.445872597396373748779296875">
        <ele>1183.4000244140625</ele>
        <time>2021-09-25T08:04:10.000Z</time>
      </trkpt>
      <trkpt lat="40.6139674969017505645751953125" lon="-1.44575198180973529815673828125">
        <ele>1183.4000244140625</ele>
        <time>2021-09-25T08:04:11.000Z</time>
      </trkpt>
      <trkpt lat="40.6138305366039276123046875" lon="-1.445511840283870697021484375">
        <ele>1182.4000244140625</ele>
        <time>2021-09-25T08:04:13.000Z</time>
      </trkpt>
      <trkpt lat="40.613692067563533782958984375" lon="-1.4452867023646831512451171875">
        <ele>1180.800048828125</ele>
        <time>2021-09-25T08:04:15.000Z</time>
      </trkpt>
      <trkpt lat="40.61355452053248882293701171875" lon="-1.44507237710058689117431640625">
        <ele>1180.4000244140625</ele>
        <time>2021-09-25T08:04:17.000Z</time>
      </trkpt>
      <trkpt lat="40.61341621913015842437744140625" lon="-1.444855369627475738525390625">
        <ele>1179</ele>
        <time>2021-09-25T08:04:19.000Z</time>
      </trkpt>
      <trkpt lat="40.61328764073550701141357421875" lon="-1.444629728794097900390625">
        <ele>1178.4000244140625</ele>
        <time>2021-09-25T08:04:21.000Z</time>
      </trkpt>
      <trkpt lat="40.61322310008108615875244140625" lon="-1.4445159025490283966064453125">
        <ele>1178.4000244140625</ele>
        <time>2021-09-25T08:04:22.000Z</time>
      </trkpt>
      <trkpt lat="40.6131574697792530059814453125" lon="-1.44440366886556148529052734375">
        <ele>1178.4000244140625</ele>
        <time>2021-09-25T08:04:23.000Z</time>
      </trkpt>
      <trkpt lat="40.6130200065672397613525390625" lon="-1.44419160671532154083251953125">
        <ele>1179.5999755859375</ele>
        <time>2021-09-25T08:04:25.000Z</time>
      </trkpt>
      <trkpt lat="40.6128761731088161468505859375" lon="-1.44399337470531463623046875">
        <ele>1178.5999755859375</ele>
        <time>2021-09-25T08:04:27.000Z</time>
      </trkpt>
      <trkpt lat="40.6127990595996379852294921875" lon="-1.4439097233116626739501953125">
        <ele>1177.5999755859375</ele>
        <time>2021-09-25T08:04:28.000Z</time>
      </trkpt>
      <trkpt lat="40.6127195991575717926025390625" lon="-1.44383110105991363525390625">
        <ele>1176.800048828125</ele>
        <time>2021-09-25T08:04:29.000Z</time>
      </trkpt>
      <trkpt lat="40.6125600077211856842041015625" lon="-1.4436864294111728668212890625">
        <ele>1174</ele>
        <time>2021-09-25T08:04:31.000Z</time>
      </trkpt>
      <trkpt lat="40.61241089366376399993896484375" lon="-1.4435523189604282379150390625">
        <ele>1172.800048828125</ele>
        <time>2021-09-25T08:04:33.000Z</time>
      </trkpt>
      <trkpt lat="40.6122740171849727630615234375" lon="-1.44341401755809783935546875">
        <ele>1172.800048828125</ele>
        <time>2021-09-25T08:04:35.000Z</time>
      </trkpt>
      <trkpt lat="40.61220956034958362579345703125" lon="-1.4433400891721248626708984375">
        <ele>1172.5999755859375</ele>
        <time>2021-09-25T08:04:36.000Z</time>
      </trkpt>
      <trkpt lat="40.612149126827716827392578125" lon="-1.443262808024883270263671875">
        <ele>1172.4000244140625</ele>
        <time>2021-09-25T08:04:37.000Z</time>
      </trkpt>
      <trkpt lat="40.612033791840076446533203125" lon="-1.443116962909698486328125">
        <ele>1172.199951171875</ele>
        <time>2021-09-25T08:04:39.000Z</time>
      </trkpt>
      <trkpt lat="40.6119303591549396514892578125" lon="-1.44296717830002307891845703125">
        <ele>1172</ele>
        <time>2021-09-25T08:04:41.000Z</time>
      </trkpt>
      <trkpt lat="40.61188266612589359283447265625" lon="-1.4428938366472721099853515625">
        <ele>1171.800048828125</ele>
        <time>2021-09-25T08:04:42.000Z</time>
      </trkpt>
      <trkpt lat="40.61183706857264041900634765625" lon="-1.44281965680420398712158203125">
        <ele>1172</ele>
        <time>2021-09-25T08:04:43.000Z</time>
      </trkpt>
      <trkpt lat="40.6117464601993560791015625" lon="-1.44267582334578037261962890625">
        <ele>1172.4000244140625</ele>
        <time>2021-09-25T08:04:45.000Z</time>
      </trkpt>
      <trkpt lat="40.61165350489318370819091796875" lon="-1.4425421319901943206787109375">
        <ele>1172.5999755859375</ele>
        <time>2021-09-25T08:04:47.000Z</time>
      </trkpt>
      <trkpt lat="40.6115635670721530914306640625" lon="-1.442418582737445831298828125">
        <ele>1172.800048828125</ele>
        <time>2021-09-25T08:04:49.000Z</time>
      </trkpt>
      <trkpt lat="40.6114841066300868988037109375" lon="-1.44230383448302745819091796875">
        <ele>1172.4000244140625</ele>
        <time>2021-09-25T08:04:51.000Z</time>
      </trkpt>
      <trkpt lat="40.61141193844377994537353515625" lon="-1.4421902596950531005859375">
        <ele>1171.800048828125</ele>
        <time>2021-09-25T08:04:53.000Z</time>
      </trkpt>
      <trkpt lat="40.611373297870159149169921875" lon="-1.44213921390473842620849609375">
        <ele>1171.199951171875</ele>
        <time>2021-09-25T08:04:54.000Z</time>
      </trkpt>
      <trkpt lat="40.61133817769587039947509765625" lon="-1.44208456389605998992919921875">
        <ele>1170.5999755859375</ele>
        <time>2021-09-25T08:04:55.000Z</time>
      </trkpt>
      <trkpt lat="40.611260645091533660888671875" lon="-1.44197006709873676300048828125">
        <ele>1170.199951171875</ele>
        <time>2021-09-25T08:04:57.000Z</time>
      </trkpt>
      <trkpt lat="40.61118361540138721466064453125" lon="-1.4418524689972400665283203125">
        <ele>1169.800048828125</ele>
        <time>2021-09-25T08:04:59.000Z</time>
      </trkpt>
      <trkpt lat="40.6111039035022258758544921875" lon="-1.44173369742929935455322265625">
        <ele>1169</ele>
        <time>2021-09-25T08:05:01.000Z</time>
      </trkpt>
      <trkpt lat="40.61105914413928985595703125" lon="-1.44166521728038787841796875">
        <ele>1168.800048828125</ele>
        <time>2021-09-25T08:05:02.000Z</time>
      </trkpt>
      <trkpt lat="40.61101446859538555145263671875" lon="-1.4416001737117767333984375">
        <ele>1168.4000244140625</ele>
        <time>2021-09-25T08:05:03.000Z</time>
      </trkpt>
      <trkpt lat="40.61093215830624103546142578125" lon="-1.44147251732647418975830078125">
        <ele>1168</ele>
        <time>2021-09-25T08:05:05.000Z</time>
      </trkpt>
      <trkpt lat="40.6108437292277812957763671875" lon="-1.441335976123809814453125">
        <ele>1168</ele>
        <time>2021-09-25T08:05:07.000Z</time>
      </trkpt>
      <trkpt lat="40.61076032929122447967529296875" lon="-1.44119708798825740814208984375">
        <ele>1168</ele>
        <time>2021-09-25T08:05:09.000Z</time>
      </trkpt>
      <trkpt lat="40.61072160489857196807861328125" lon="-1.4411229081451892852783203125">
        <ele>1168</ele>
        <time>2021-09-25T08:05:10.000Z</time>
      </trkpt>
      <trkpt lat="40.6106817908585071563720703125" lon="-1.441045962274074554443359375">
        <ele>1168</ele>
        <time>2021-09-25T08:05:11.000Z</time>
      </trkpt>
      <trkpt lat="40.61060979031026363372802734375" lon="-1.440905146300792694091796875">
        <ele>1168</ele>
        <time>2021-09-25T08:05:13.000Z</time>
      </trkpt>
      <trkpt lat="40.61054089106619358062744140625" lon="-1.440762989223003387451171875">
        <ele>1168.199951171875</ele>
        <time>2021-09-25T08:05:15.000Z</time>
      </trkpt>
      <trkpt lat="40.6104766018688678741455078125" lon="-1.440634913742542266845703125">
        <ele>1168.4000244140625</ele>
        <time>2021-09-25T08:05:17.000Z</time>
      </trkpt>
      <trkpt lat="40.61040711589157581329345703125" lon="-1.44050289876759052276611328125">
        <ele>1168.199951171875</ele>
        <time>2021-09-25T08:05:19.000Z</time>
      </trkpt>
      <trkpt lat="40.61036788858473300933837890625" lon="-1.440439112484455108642578125">
        <ele>1168.199951171875</ele>
        <time>2021-09-25T08:05:20.000Z</time>
      </trkpt>
      <trkpt lat="40.61032983474433422088623046875" lon="-1.4403839595615863800048828125">
        <ele>1168</ele>
        <time>2021-09-25T08:05:21.000Z</time>
      </trkpt>
      <trkpt lat="40.6102476082742214202880859375" lon="-1.44026116468012332916259765625">
        <ele>1167.800048828125</ele>
        <time>2021-09-25T08:05:23.000Z</time>
      </trkpt>
      <trkpt lat="40.61015549115836620330810546875" lon="-1.44015387631952762603759765625">
        <ele>1167.800048828125</ele>
        <time>2021-09-25T08:05:25.000Z</time>
      </trkpt>
      <trkpt lat="40.61006681062281131744384765625" lon="-1.44003988243639469146728515625">
        <ele>1167.199951171875</ele>
        <time>2021-09-25T08:05:27.000Z</time>
      </trkpt>
      <trkpt lat="40.60997544787824153900146484375" lon="-1.43993795849382877349853515625">
        <ele>1167.4000244140625</ele>
        <time>2021-09-25T08:05:29.000Z</time>
      </trkpt>
      <trkpt lat="40.6099317781627178192138671875" lon="-1.43988917581737041473388671875">
        <ele>1167.5999755859375</ele>
        <time>2021-09-25T08:05:30.000Z</time>
      </trkpt>
      <trkpt lat="40.6098871864378452301025390625" lon="-1.43983704037964344024658203125">
        <ele>1168</ele>
        <time>2021-09-25T08:05:31.000Z</time>
      </trkpt>
      <trkpt lat="40.6097986735403537750244140625" lon="-1.4397479407489299774169921875">
        <ele>1167.4000244140625</ele>
        <time>2021-09-25T08:05:33.000Z</time>
      </trkpt>
      <trkpt lat="40.60970722697675228118896484375" lon="-1.43966722302138805389404296875">
        <ele>1167.5999755859375</ele>
        <time>2021-09-25T08:05:35.000Z</time>
      </trkpt>
      <trkpt lat="40.60962273739278316497802734375" lon="-1.43956697545945644378662109375">
        <ele>1169</ele>
        <time>2021-09-25T08:05:37.000Z</time>
      </trkpt>
      <trkpt lat="40.6095408461987972259521484375" lon="-1.43946538679301738739013671875">
        <ele>1169</ele>
        <time>2021-09-25T08:05:39.000Z</time>
      </trkpt>
      <trkpt lat="40.60946666635572910308837890625" lon="-1.43934988416731357574462890625">
        <ele>1169.4000244140625</ele>
        <time>2021-09-25T08:05:41.000Z</time>
      </trkpt>
      <trkpt lat="40.609391815960407257080078125" lon="-1.439246870577335357666015625">
        <ele>1170</ele>
        <time>2021-09-25T08:05:43.000Z</time>
      </trkpt>
      <trkpt lat="40.609320066869258880615234375" lon="-1.439138241112232208251953125">
        <ele>1170</ele>
        <time>2021-09-25T08:05:45.000Z</time>
      </trkpt>
      <trkpt lat="40.60925024561583995819091796875" lon="-1.43902315758168697357177734375">
        <ele>1170</ele>
        <time>2021-09-25T08:05:47.000Z</time>
      </trkpt>
      <trkpt lat="40.60918151400983333587646484375" lon="-1.4389131031930446624755859375">
        <ele>1170</ele>
        <time>2021-09-25T08:05:49.000Z</time>
      </trkpt>
      <trkpt lat="40.6091093458235263824462890625" lon="-1.438801623880863189697265625">
        <ele>1169.5999755859375</ele>
        <time>2021-09-25T08:05:51.000Z</time>
      </trkpt>
      <trkpt lat="40.60903918929398059844970703125" lon="-1.43869240768253803253173828125">
        <ele>1169.4000244140625</ele>
        <time>2021-09-25T08:05:53.000Z</time>
      </trkpt>
      <trkpt lat="40.6089692004024982452392578125" lon="-1.4385826885700225830078125">
        <ele>1169.199951171875</ele>
        <time>2021-09-25T08:05:55.000Z</time>
      </trkpt>
      <trkpt lat="40.60890524648129940032958984375" lon="-1.438464336097240447998046875">
        <ele>1169.4000244140625</ele>
        <time>2021-09-25T08:05:57.000Z</time>
      </trkpt>
      <trkpt lat="40.60883961617946624755859375" lon="-1.4383525215089321136474609375">
        <ele>1169.800048828125</ele>
        <time>2021-09-25T08:05:59.000Z</time>
      </trkpt>
      <trkpt lat="40.60876962728798389434814453125" lon="-1.43826006911695003509521484375">
        <ele>1169.4000244140625</ele>
        <time>2021-09-25T08:06:01.000Z</time>
      </trkpt>
      <trkpt lat="40.6087160669267177581787109375" lon="-1.4381526969373226165771484375">
        <ele>1169.199951171875</ele>
        <time>2021-09-25T08:06:03.000Z</time>
      </trkpt>
      <trkpt lat="40.60869167558848857879638671875" lon="-1.43810181878507137298583984375">
        <ele>1169.199951171875</ele>
        <time>2021-09-25T08:06:04.000Z</time>
      </trkpt>
      <trkpt lat="40.60866937972605228424072265625" lon="-1.43806091509759426116943359375">
        <ele>1169.199951171875</ele>
        <time>2021-09-25T08:06:05.000Z</time>
      </trkpt>
      <trkpt lat="40.6086248718202114105224609375" lon="-1.4379897527396678924560546875">
        <ele>1169</ele>
        <time>2021-09-25T08:06:07.000Z</time>
      </trkpt>
      <trkpt lat="40.60858371667563915252685546875" lon="-1.43794222734868526458740234375">
        <ele>1169</ele>
        <time>2021-09-25T08:06:09.000Z</time>
      </trkpt>
      <trkpt lat="40.608562342822551727294921875" lon="-1.43791037611663341522216796875">
        <ele>1169</ele>
        <time>2021-09-25T08:06:11.000Z</time>
      </trkpt>
      <trkpt lat="40.60855773277580738067626953125" lon="-1.437917165458202362060546875">
        <ele>1169</ele>
        <time>2021-09-25T08:06:13.000Z</time>
      </trkpt>
      <trkpt lat="40.60852537862956523895263671875" lon="-1.43786586821079254150390625">
        <ele>1169</ele>
        <time>2021-09-25T08:07:35.000Z</time>
      </trkpt>
      <trkpt lat="40.6085175834596157073974609375" lon="-1.43784030340611934661865234375">
        <ele>1169</ele>
        <time>2021-09-25T08:07:36.000Z</time>
      </trkpt>
      <trkpt lat="40.60850526206195354461669921875" lon="-1.4378154091536998748779296875">
        <ele>1169</ele>
        <time>2021-09-25T08:07:37.000Z</time>
      </trkpt>
      <trkpt lat="40.6084921024739742279052734375" lon="-1.43778783269226551055908203125">
        <ele>1169</ele>
        <time>2021-09-25T08:07:38.000Z</time>
      </trkpt>
      <trkpt lat="40.6084743328392505645751953125" lon="-1.4377567358314990997314453125">
        <ele>1169</ele>
        <time>2021-09-25T08:07:39.000Z</time>
      </trkpt>
      <trkpt lat="40.60843518935143947601318359375" lon="-1.4376762695610523223876953125">
        <ele>1169.4000244140625</ele>
        <time>2021-09-25T08:07:41.000Z</time>
      </trkpt>
      <trkpt lat="40.60839730314910411834716796875" lon="-1.437619440257549285888671875">
        <ele>1169.5999755859375</ele>
        <time>2021-09-25T08:07:43.000Z</time>
      </trkpt>
      <trkpt lat="40.60835807584226131439208984375" lon="-1.437575519084930419921875">
        <ele>1169.5999755859375</ele>
        <time>2021-09-25T08:07:45.000Z</time>
      </trkpt>
      <trkpt lat="40.608314909040927886962890625" lon="-1.43751391209661960601806640625">
        <ele>1169.800048828125</ele>
        <time>2021-09-25T08:07:47.000Z</time>
      </trkpt>
      <trkpt lat="40.608264617621898651123046875" lon="-1.43745414912700653076171875">
        <ele>1169.800048828125</ele>
        <time>2021-09-25T08:07:49.000Z</time>
      </trkpt>
      <trkpt lat="40.60821809805929660797119140625" lon="-1.43738784827291965484619140625">
        <ele>1169.800048828125</ele>
        <time>2021-09-25T08:07:51.000Z</time>
      </trkpt>
      <trkpt lat="40.60817174613475799560546875" lon="-1.4373247325420379638671875">
        <ele>1169.800048828125</ele>
        <time>2021-09-25T08:07:53.000Z</time>
      </trkpt>
      <trkpt lat="40.608144588768482208251953125" lon="-1.437296234071254730224609375">
        <ele>1169.800048828125</ele>
        <time>2021-09-25T08:07:54.000Z</time>
      </trkpt>
      <trkpt lat="40.60811717994511127471923828125" lon="-1.4372655563056468963623046875">
        <ele>1169.800048828125</ele>
        <time>2021-09-25T08:07:55.000Z</time>
      </trkpt>
      <trkpt lat="40.60805900953710079193115234375" lon="-1.4372008480131626129150390625">
        <ele>1170</ele>
        <time>2021-09-25T08:07:57.000Z</time>
      </trkpt>
      <trkpt lat="40.60800335370004177093505859375" lon="-1.43714242614805698394775390625">
        <ele>1170.199951171875</ele>
        <time>2021-09-25T08:07:59.000Z</time>
      </trkpt>
      <trkpt lat="40.607949793338775634765625" lon="-1.43709473311901092529296875">
        <ele>1170.4000244140625</ele>
        <time>2021-09-25T08:08:01.000Z</time>
      </trkpt>
      <trkpt lat="40.60789623297750949859619140625" lon="-1.43703128211200237274169921875">
        <ele>1170.5999755859375</ele>
        <time>2021-09-25T08:08:03.000Z</time>
      </trkpt>
      <trkpt lat="40.60784451663494110107421875" lon="-1.436971686780452728271484375">
        <ele>1170.800048828125</ele>
        <time>2021-09-25T08:08:05.000Z</time>
      </trkpt>
      <trkpt lat="40.6077876873314380645751953125" lon="-1.436917372047901153564453125">
        <ele>1171.199951171875</ele>
        <time>2021-09-25T08:08:07.000Z</time>
      </trkpt>
      <trkpt lat="40.60773429460823535919189453125" lon="-1.43686247058212757110595703125">
        <ele>1171.4000244140625</ele>
        <time>2021-09-25T08:08:09.000Z</time>
      </trkpt>
      <trkpt lat="40.60767713002860546112060546875" lon="-1.43680715002119541168212890625">
        <ele>1172</ele>
        <time>2021-09-25T08:08:11.000Z</time>
      </trkpt>
      <trkpt lat="40.6076234020292758941650390625" lon="-1.436754763126373291015625">
        <ele>1172.199951171875</ele>
        <time>2021-09-25T08:08:13.000Z</time>
      </trkpt>
      <trkpt lat="40.6075677461922168731689453125" lon="-1.43669650889933109283447265625">
        <ele>1172.5999755859375</ele>
        <time>2021-09-25T08:08:15.000Z</time>
      </trkpt>
      <trkpt lat="40.6075104139745235443115234375" lon="-1.43663716502487659454345703125">
        <ele>1173.199951171875</ele>
        <time>2021-09-25T08:08:17.000Z</time>
      </trkpt>
      <trkpt lat="40.607451908290386199951171875" lon="-1.4365859515964984893798828125">
        <ele>1173.5999755859375</ele>
        <time>2021-09-25T08:08:19.000Z</time>
      </trkpt>
      <trkpt lat="40.607397593557834625244140625" lon="-1.43651512451469898223876953125">
        <ele>1174</ele>
        <time>2021-09-25T08:08:21.000Z</time>
      </trkpt>
      <trkpt lat="40.6073717772960662841796875" lon="-1.436484865844249725341796875">
        <ele>1174.4000244140625</ele>
        <time>2021-09-25T08:08:22.000Z</time>
      </trkpt>
      <trkpt lat="40.6073424406349658966064453125" lon="-1.4364565350115299224853515625">
        <ele>1174.800048828125</ele>
        <time>2021-09-25T08:08:23.000Z</time>
      </trkpt>
      <trkpt lat="40.60728728771209716796875" lon="-1.43640448339283466339111328125">
        <ele>1175.5999755859375</ele>
        <time>2021-09-25T08:08:25.000Z</time>
      </trkpt>
      <trkpt lat="40.6072341464459896087646484375" lon="-1.43634698353707790374755859375">
        <ele>1176</ele>
        <time>2021-09-25T08:08:27.000Z</time>
      </trkpt>
      <trkpt lat="40.60717798769474029541015625" lon="-1.4362905733287334442138671875">
        <ele>1175.800048828125</ele>
        <time>2021-09-25T08:08:29.000Z</time>
      </trkpt>
      <trkpt lat="40.6071251817047595977783203125" lon="-1.4362268708646297454833984375">
        <ele>1175.4000244140625</ele>
        <time>2021-09-25T08:08:31.000Z</time>
      </trkpt>
      <trkpt lat="40.6070691905915737152099609375" lon="-1.43617129884660243988037109375">
        <ele>1175.5999755859375</ele>
        <time>2021-09-25T08:08:33.000Z</time>
      </trkpt>
      <trkpt lat="40.60702166520059108734130859375" lon="-1.43611161969602108001708984375">
        <ele>1175.800048828125</ele>
        <time>2021-09-25T08:08:35.000Z</time>
      </trkpt>
      <trkpt lat="40.60697137378156185150146484375" lon="-1.43604909069836139678955078125">
        <ele>1176</ele>
        <time>2021-09-25T08:08:37.000Z</time>
      </trkpt>
      <trkpt lat="40.60691504739224910736083984375" lon="-1.43598522059619426727294921875">
        <ele>1176.4000244140625</ele>
        <time>2021-09-25T08:08:39.000Z</time>
      </trkpt>
      <trkpt lat="40.60685704462230205535888671875" lon="-1.43592503853142261505126953125">
        <ele>1176.800048828125</ele>
        <time>2021-09-25T08:08:41.000Z</time>
      </trkpt>
      <trkpt lat="40.60680306516587734222412109375" lon="-1.43586569465696811676025390625">
        <ele>1177.199951171875</ele>
        <time>2021-09-25T08:08:43.000Z</time>
      </trkpt>
      <trkpt lat="40.6067449785768985748291015625" lon="-1.43581238575279712677001953125">
        <ele>1177.5999755859375</ele>
        <time>2021-09-25T08:08:45.000Z</time>
      </trkpt>
      <trkpt lat="40.6067144684493541717529296875" lon="-1.43578606657683849334716796875">
        <ele>1178</ele>
        <time>2021-09-25T08:08:46.000Z</time>
      </trkpt>
      <trkpt lat="40.60668320395052433013916015625" lon="-1.43575790338218212127685546875">
        <ele>1178</ele>
        <time>2021-09-25T08:08:47.000Z</time>
      </trkpt>
      <trkpt lat="40.60662335716187953948974609375" lon="-1.4357041753828525543212890625">
        <ele>1178.199951171875</ele>
        <time>2021-09-25T08:08:49.000Z</time>
      </trkpt>
      <trkpt lat="40.606564767658710479736328125" lon="-1.43565178848803043365478515625">
        <ele>1178.4000244140625</ele>
        <time>2021-09-25T08:08:51.000Z</time>
      </trkpt>
      <trkpt lat="40.6065112911164760589599609375" lon="-1.43560568802058696746826171875">
        <ele>1178.5999755859375</ele>
        <time>2021-09-25T08:08:53.000Z</time>
      </trkpt>
      <trkpt lat="40.6064512766897678375244140625" lon="-1.4355576597154140472412109375">
        <ele>1178.800048828125</ele>
        <time>2021-09-25T08:08:55.000Z</time>
      </trkpt>
      <trkpt lat="40.60641892254352569580078125" lon="-1.4355358667671680450439453125">
        <ele>1179</ele>
        <time>2021-09-25T08:08:56.000Z</time>
      </trkpt>
      <trkpt lat="40.606387071311473846435546875" lon="-1.435515917837619781494140625">
        <ele>1179.199951171875</ele>
        <time>2021-09-25T08:08:57.000Z</time>
      </trkpt>
      <trkpt lat="40.606323368847370147705078125" lon="-1.43546990118920803070068359375">
        <ele>1179.4000244140625</ele>
        <time>2021-09-25T08:08:59.000Z</time>
      </trkpt>
      <trkpt lat="40.60626327060163021087646484375" lon="-1.43543117679655551910400390625">
        <ele>1179.5999755859375</ele>
        <time>2021-09-25T08:09:01.000Z</time>
      </trkpt>
      <trkpt lat="40.6062028370797634124755859375" lon="-1.43539932556450366973876953125">
        <ele>1179.800048828125</ele>
        <time>2021-09-25T08:09:03.000Z</time>
      </trkpt>
      <trkpt lat="40.60613921843469142913818359375" lon="-1.435356326401233673095703125">
        <ele>1180</ele>
        <time>2021-09-25T08:09:05.000Z</time>
      </trkpt>
      <trkpt lat="40.60608356259763240814208984375" lon="-1.435310058295726776123046875">
        <ele>1180.5999755859375</ele>
        <time>2021-09-25T08:09:07.000Z</time>
      </trkpt>
      <trkpt lat="40.60602539218962192535400390625" lon="-1.43527795560657978057861328125">
        <ele>1181.199951171875</ele>
        <time>2021-09-25T08:09:09.000Z</time>
      </trkpt>
      <trkpt lat="40.60597493313252925872802734375" lon="-1.43524040468037128448486328125">
        <ele>1181.800048828125</ele>
        <time>2021-09-25T08:09:11.000Z</time>
      </trkpt>
      <trkpt lat="40.60594995506107807159423828125" lon="-1.43522079102694988250732421875">
        <ele>1182.199951171875</ele>
        <time>2021-09-25T08:09:12.000Z</time>
      </trkpt>
      <trkpt lat="40.6059260666370391845703125" lon="-1.4352039434015750885009765625">
        <ele>1182.5999755859375</ele>
        <time>2021-09-25T08:09:13.000Z</time>
      </trkpt>
      <trkpt lat="40.60587585903704166412353515625" lon="-1.4351559989154338836669921875">
        <ele>1183</ele>
        <time>2021-09-25T08:09:15.000Z</time>
      </trkpt>
      <trkpt lat="40.60582137666642665863037109375" lon="-1.43512574024498462677001953125">
        <ele>1183.4000244140625</ele>
        <time>2021-09-25T08:09:17.000Z</time>
      </trkpt>
      <trkpt lat="40.605764798820018768310546875" lon="-1.435098834335803985595703125">
        <ele>1184</ele>
        <time>2021-09-25T08:09:19.000Z</time>
      </trkpt>
      <trkpt lat="40.60571241192519664764404296875" lon="-1.43507192842662334442138671875">
        <ele>1184.4000244140625</ele>
        <time>2021-09-25T08:09:21.000Z</time>
      </trkpt>
      <trkpt lat="40.60568441636860370635986328125" lon="-1.43505231477320194244384765625">
        <ele>1184.5999755859375</ele>
        <time>2021-09-25T08:09:22.000Z</time>
      </trkpt>
      <trkpt lat="40.605656839907169342041015625" lon="-1.43504016101360321044921875">
        <ele>1184.5999755859375</ele>
        <time>2021-09-25T08:09:23.000Z</time>
      </trkpt>
      <trkpt lat="40.6056077219545841217041015625" lon="-1.4350235648453235626220703125">
        <ele>1185</ele>
        <time>2021-09-25T08:09:25.000Z</time>
      </trkpt>
      <trkpt lat="40.6055547483265399932861328125" lon="-1.4350071363151073455810546875">
        <ele>1185.199951171875</ele>
        <time>2021-09-25T08:09:27.000Z</time>
      </trkpt>
      <trkpt lat="40.6055272556841373443603515625" lon="-1.4350054599344730377197265625">
        <ele>1185.199951171875</ele>
        <time>2021-09-25T08:09:28.000Z</time>
      </trkpt>
      <trkpt lat="40.60549900867044925689697265625" lon="-1.4350074715912342071533203125">
        <ele>1185.4000244140625</ele>
        <time>2021-09-25T08:09:29.000Z</time>
      </trkpt>
      <trkpt lat="40.6054424308240413665771484375" lon="-1.43502800725400447845458984375">
        <ele>1185.5999755859375</ele>
        <time>2021-09-25T08:09:31.000Z</time>
      </trkpt>
      <trkpt lat="40.60542021878063678741455078125" lon="-1.43504284322261810302734375">
        <ele>1185.800048828125</ele>
        <time>2021-09-25T08:09:32.000Z</time>
      </trkpt>
      <trkpt lat="40.60539842583239078521728515625" lon="-1.43506337888538837432861328125">
        <ele>1186</ele>
        <time>2021-09-25T08:09:33.000Z</time>
      </trkpt>
      <trkpt lat="40.60538367368280887603759765625" lon="-1.43508844077587127685546875">
        <ele>1186.199951171875</ele>
        <time>2021-09-25T08:09:34.000Z</time>
      </trkpt>
      <trkpt lat="40.6053733639419078826904296875" lon="-1.4351172745227813720703125">
        <ele>1186.199951171875</ele>
        <time>2021-09-25T08:09:35.000Z</time>
      </trkpt>
      <trkpt lat="40.605351068079471588134765625" lon="-1.43516781739890575408935546875">
        <ele>1186.5999755859375</ele>
        <time>2021-09-25T08:09:37.000Z</time>
      </trkpt>
      <trkpt lat="40.60534142889082431793212890625" lon="-1.43518659286201000213623046875">
        <ele>1186.5999755859375</ele>
        <time>2021-09-25T08:09:38.000Z</time>
      </trkpt>
      <trkpt lat="40.60533070005476474761962890625" lon="-1.43521048128604888916015625">
        <ele>1186.800048828125</ele>
        <time>2021-09-25T08:09:39.000Z</time>
      </trkpt>
      <trkpt lat="40.6053123436868190765380859375" lon="-1.435255743563175201416015625">
        <ele>1187</ele>
        <time>2021-09-25T08:09:41.000Z</time>
      </trkpt>
      <trkpt lat="40.60529147274792194366455078125" lon="-1.43529974855482578277587890625">
        <ele>1187.4000244140625</ele>
        <time>2021-09-25T08:09:43.000Z</time>
      </trkpt>
      <trkpt lat="40.60526900924742221832275390625" lon="-1.43534635193645954132080078125">
        <ele>1188</ele>
        <time>2021-09-25T08:09:45.000Z</time>
      </trkpt>
      <trkpt lat="40.6052529998123645782470703125" lon="-1.43538759090006351470947265625">
        <ele>1188.5999755859375</ele>
        <time>2021-09-25T08:09:47.000Z</time>
      </trkpt>
      <trkpt lat="40.60523548163473606109619140625" lon="-1.43543670885264873504638671875">
        <ele>1189.199951171875</ele>
        <time>2021-09-25T08:09:49.000Z</time>
      </trkpt>
      <trkpt lat="40.60521352104842662811279296875" lon="-1.43548850901424884796142578125">
        <ele>1189.800048828125</ele>
        <time>2021-09-25T08:09:51.000Z</time>
      </trkpt>
      <trkpt lat="40.6051929853856563568115234375" lon="-1.43553578294813632965087890625">
        <ele>1190.4000244140625</ele>
        <time>2021-09-25T08:09:53.000Z</time>
      </trkpt>
      <trkpt lat="40.60517747886478900909423828125" lon="-1.4355868287384510040283203125">
        <ele>1190.800048828125</ele>
        <time>2021-09-25T08:09:55.000Z</time>
      </trkpt>
      <trkpt lat="40.60515451245009899139404296875" lon="-1.4356377907097339630126953125">
        <ele>1191.199951171875</ele>
        <time>2021-09-25T08:09:57.000Z</time>
      </trkpt>
      <trkpt lat="40.60513439588248729705810546875" lon="-1.43568179570138454437255859375">
        <ele>1191.5999755859375</ele>
        <time>2021-09-25T08:09:59.000Z</time>
      </trkpt>
      <trkpt lat="40.6051125191152095794677734375" lon="-1.435729153454303741455078125">
        <ele>1192</ele>
        <time>2021-09-25T08:10:01.000Z</time>
      </trkpt>
      <trkpt lat="40.60509047470986843109130859375" lon="-1.43578187562525272369384765625">
        <ele>1192.5999755859375</ele>
        <time>2021-09-25T08:10:03.000Z</time>
      </trkpt>
      <trkpt lat="40.6050677597522735595703125" lon="-1.43583116121590137481689453125">
        <ele>1193</ele>
        <time>2021-09-25T08:10:05.000Z</time>
      </trkpt>
      <trkpt lat="40.6050548516213893890380859375" lon="-1.4358533732593059539794921875">
        <ele>1193.199951171875</ele>
        <time>2021-09-25T08:10:06.000Z</time>
      </trkpt>
      <trkpt lat="40.6050421111285686492919921875" lon="-1.43587826751172542572021484375">
        <ele>1193.4000244140625</ele>
        <time>2021-09-25T08:10:07.000Z</time>
      </trkpt>
      <trkpt lat="40.60502023436129093170166015625" lon="-1.43592939712107181549072265625">
        <ele>1194</ele>
        <time>2021-09-25T08:10:09.000Z</time>
      </trkpt>
      <trkpt lat="40.60500246472656726837158203125" lon="-1.4359755814075469970703125">
        <ele>1194.4000244140625</ele>
        <time>2021-09-25T08:10:11.000Z</time>
      </trkpt>
      <trkpt lat="40.60498394072055816650390625" lon="-1.43601774238049983978271484375">
        <ele>1195</ele>
        <time>2021-09-25T08:10:13.000Z</time>
      </trkpt>
      <trkpt lat="40.60495720244944095611572265625" lon="-1.4360558800399303436279296875">
        <ele>1195.5999755859375</ele>
        <time>2021-09-25T08:10:15.000Z</time>
      </trkpt>
      <trkpt lat="40.604945383965969085693359375" lon="-1.4360991306602954864501953125">
        <ele>1196</ele>
        <time>2021-09-25T08:10:17.000Z</time>
      </trkpt>
      <trkpt lat="40.604923926293849945068359375" lon="-1.43613927997648715972900390625">
        <ele>1196.4000244140625</ele>
        <time>2021-09-25T08:10:19.000Z</time>
      </trkpt>
      <trkpt lat="40.60490674339234828948974609375" lon="-1.43617951311171054840087890625">
        <ele>1196.5999755859375</ele>
        <time>2021-09-25T08:10:21.000Z</time>
      </trkpt>
      <trkpt lat="40.60488830320537090301513671875" lon="-1.43621823750436305999755859375">
        <ele>1197</ele>
        <time>2021-09-25T08:10:23.000Z</time>
      </trkpt>
      <trkpt lat="40.60486986301839351654052734375" lon="-1.43625645898282527923583984375">
        <ele>1197.4000244140625</ele>
        <time>2021-09-25T08:10:25.000Z</time>
      </trkpt>
      <trkpt lat="40.60485251247882843017578125" lon="-1.43629350699484348297119140625">
        <ele>1197.800048828125</ele>
        <time>2021-09-25T08:10:27.000Z</time>
      </trkpt>
      <trkpt lat="40.60482862405478954315185546875" lon="-1.4363308064639568328857421875">
        <ele>1198.199951171875</ele>
        <time>2021-09-25T08:10:29.000Z</time>
      </trkpt>
      <trkpt lat="40.6048027239739894866943359375" lon="-1.43635771237313747406005859375">
        <ele>1198.5999755859375</ele>
        <time>2021-09-25T08:10:31.000Z</time>
      </trkpt>
      <trkpt lat="40.60477196238934993743896484375" lon="-1.436380930244922637939453125">
        <ele>1199</ele>
        <time>2021-09-25T08:10:33.000Z</time>
      </trkpt>
      <trkpt lat="40.60475385747849941253662109375" lon="-1.43638570792973041534423828125">
        <ele>1199</ele>
        <time>2021-09-25T08:10:34.000Z</time>
      </trkpt>
      <trkpt lat="40.60473374091088771820068359375" lon="-1.4363857917487621307373046875">
        <ele>1199.800048828125</ele>
        <time>2021-09-25T08:10:35.000Z</time>
      </trkpt>
      <trkpt lat="40.60469434596598148345947265625" lon="-1.43637296743690967559814453125">
        <ele>1200.5999755859375</ele>
        <time>2021-09-25T08:10:37.000Z</time>
      </trkpt>
      <trkpt lat="40.604657717049121856689453125" lon="-1.43635201267898082733154296875">
        <ele>1201.5999755859375</ele>
        <time>2021-09-25T08:10:39.000Z</time>
      </trkpt>
      <trkpt lat="40.60463986359536647796630859375" lon="-1.43633809871971607208251953125">
        <ele>1202</ele>
        <time>2021-09-25T08:10:40.000Z</time>
      </trkpt>
      <trkpt lat="40.60462175868451595306396484375" lon="-1.43631714396178722381591796875">
        <ele>1202.5999755859375</ele>
        <time>2021-09-25T08:10:41.000Z</time>
      </trkpt>
      <trkpt lat="40.60458756051957607269287109375" lon="-1.43627171404659748077392578125">
        <ele>1203.4000244140625</ele>
        <time>2021-09-25T08:10:43.000Z</time>
      </trkpt>
      <trkpt lat="40.60455688275396823883056640625" lon="-1.43622159026563167572021484375">
        <ele>1203.4000244140625</ele>
        <time>2021-09-25T08:10:45.000Z</time>
      </trkpt>
      <trkpt lat="40.6045120395720005035400390625" lon="-1.43619216978549957275390625">
        <ele>1203.800048828125</ele>
        <time>2021-09-25T08:10:47.000Z</time>
      </trkpt>
      <trkpt lat="40.60449452139437198638916015625" lon="-1.4361728914082050323486328125">
        <ele>1203.800048828125</ele>
        <time>2021-09-25T08:10:48.000Z</time>
      </trkpt>
      <trkpt lat="40.604478009045124053955078125" lon="-1.43614598549902439117431640625">
        <ele>1203.5999755859375</ele>
        <time>2021-09-25T08:10:49.000Z</time>
      </trkpt>
      <trkpt lat="40.60443811118602752685546875" lon="-1.43610499799251556396484375">
        <ele>1203.5999755859375</ele>
        <time>2021-09-25T08:10:51.000Z</time>
      </trkpt>
      <trkpt lat="40.60439695604145526885986328125" lon="-1.4360622502863407135009765625">
        <ele>1203.199951171875</ele>
        <time>2021-09-25T08:10:53.000Z</time>
      </trkpt>
      <trkpt lat="40.60436275787651538848876953125" lon="-1.4360076002776622772216796875">
        <ele>1202.5999755859375</ele>
        <time>2021-09-25T08:10:55.000Z</time>
      </trkpt>
      <trkpt lat="40.60432135127484798431396484375" lon="-1.43597465939819812774658203125">
        <ele>1202.4000244140625</ele>
        <time>2021-09-25T08:10:57.000Z</time>
      </trkpt>
      <trkpt lat="40.60428321361541748046875" lon="-1.435928642749786376953125">
        <ele>1202.199951171875</ele>
        <time>2021-09-25T08:10:59.000Z</time>
      </trkpt>
      <trkpt lat="40.604242980480194091796875" lon="-1.4358744956552982330322265625">
        <ele>1202.199951171875</ele>
        <time>2021-09-25T08:11:01.000Z</time>
      </trkpt>
      <trkpt lat="40.60420651920139789581298828125" lon="-1.435821689665317535400390625">
        <ele>1202</ele>
        <time>2021-09-25T08:11:03.000Z</time>
      </trkpt>
      <trkpt lat="40.60418707318603992462158203125" lon="-1.43580266274511814117431640625">
        <ele>1202</ele>
        <time>2021-09-25T08:11:04.000Z</time>
      </trkpt>
      <trkpt lat="40.604167543351650238037109375" lon="-1.43577517010271549224853515625">
        <ele>1202.199951171875</ele>
        <time>2021-09-25T08:11:05.000Z</time>
      </trkpt>
      <trkpt lat="40.604136027395725250244140625" lon="-1.43571331165730953216552734375">
        <ele>1202.199951171875</ele>
        <time>2021-09-25T08:11:07.000Z</time>
      </trkpt>
      <trkpt lat="40.60411163605749607086181640625" lon="-1.43566067330539226531982421875">
        <ele>1202.199951171875</ele>
        <time>2021-09-25T08:11:09.000Z</time>
      </trkpt>
      <trkpt lat="40.60408665798604488372802734375" lon="-1.435615830123424530029296875">
        <ele>1202.4000244140625</ele>
        <time>2021-09-25T08:11:11.000Z</time>
      </trkpt>
      <trkpt lat="40.60405950061976909637451171875" lon="-1.43554450012743473052978515625">
        <ele>1202.4000244140625</ele>
        <time>2021-09-25T08:11:13.000Z</time>
      </trkpt>
      <trkpt lat="40.60403184033930301666259765625" lon="-1.43548381514847278594970703125">
        <ele>1203</ele>
        <time>2021-09-25T08:11:15.000Z</time>
      </trkpt>
      <trkpt lat="40.6040057726204395294189453125" lon="-1.43542363308370113372802734375">
        <ele>1203.199951171875</ele>
        <time>2021-09-25T08:11:17.000Z</time>
      </trkpt>
      <trkpt lat="40.60398540459573268890380859375" lon="-1.43535129725933074951171875">
        <ele>1202.800048828125</ele>
        <time>2021-09-25T08:11:19.000Z</time>
      </trkpt>
      <trkpt lat="40.60396579094231128692626953125" lon="-1.4352984912693500518798828125">
        <ele>1202.5999755859375</ele>
        <time>2021-09-25T08:11:21.000Z</time>
      </trkpt>
      <trkpt lat="40.6039581634104251861572265625" lon="-1.4352699927985668182373046875">
        <ele>1202.4000244140625</ele>
        <time>2021-09-25T08:11:22.000Z</time>
      </trkpt>
      <trkpt lat="40.60395397245883941650390625" lon="-1.435234956443309783935546875">
        <ele>1202.199951171875</ele>
        <time>2021-09-25T08:11:23.000Z</time>
      </trkpt>
      <trkpt lat="40.60394668020308017730712890625" lon="-1.4351623691618442535400390625">
        <ele>1201.800048828125</ele>
        <time>2021-09-25T08:11:25.000Z</time>
      </trkpt>
      <trkpt lat="40.60394450090825557708740234375" lon="-1.4351050369441509246826171875">
        <ele>1201.5999755859375</ele>
        <time>2021-09-25T08:11:27.000Z</time>
      </trkpt>
      <trkpt lat="40.603941567242145538330078125" lon="-1.43505281768739223480224609375">
        <ele>1201.199951171875</ele>
        <time>2021-09-25T08:11:29.000Z</time>
      </trkpt>
      <trkpt lat="40.60393595136702060699462890625" lon="-1.4350064657628536224365234375">
        <ele>1201</ele>
        <time>2021-09-25T08:11:31.000Z</time>
      </trkpt>
      <trkpt lat="40.60393251478672027587890625" lon="-1.434952653944492340087890625">
        <ele>1200.5999755859375</ele>
        <time>2021-09-25T08:11:33.000Z</time>
      </trkpt>
      <trkpt lat="40.6039249710738658905029296875" lon="-1.434898674488067626953125">
        <ele>1200.4000244140625</ele>
        <time>2021-09-25T08:11:35.000Z</time>
      </trkpt>
      <trkpt lat="40.60391776263713836669921875" lon="-1.43484980799257755279541015625">
        <ele>1200</ele>
        <time>2021-09-25T08:11:37.000Z</time>
      </trkpt>
      <trkpt lat="40.603914074599742889404296875" lon="-1.43481560982763767242431640625">
        <ele>1199.800048828125</ele>
        <time>2021-09-25T08:11:39.000Z</time>
      </trkpt>
      <trkpt lat="40.6039179302752017974853515625" lon="-1.43476548604667186737060546875">
        <ele>1199.4000244140625</ele>
        <time>2021-09-25T08:11:41.000Z</time>
      </trkpt>
      <trkpt lat="40.60391533188521862030029296875" lon="-1.43473438918590545654296875">
        <ele>1199.199951171875</ele>
        <time>2021-09-25T08:11:42.000Z</time>
      </trkpt>
      <trkpt lat="40.60390845872461795806884765625" lon="-1.434700526297092437744140625">
        <ele>1199</ele>
        <time>2021-09-25T08:11:43.000Z</time>
      </trkpt>
      <trkpt lat="40.60388918034732341766357421875" lon="-1.4346540905535221099853515625">
        <ele>1199</ele>
        <time>2021-09-25T08:11:45.000Z</time>
      </trkpt>
      <trkpt lat="40.6038716621696949005126953125" lon="-1.43457907252013683319091796875">
        <ele>1198.800048828125</ele>
        <time>2021-09-25T08:11:47.000Z</time>
      </trkpt>
      <trkpt lat="40.6038632802665233612060546875" lon="-1.434538252651691436767578125">
        <ele>1198.800048828125</ele>
        <time>2021-09-25T08:11:48.000Z</time>
      </trkpt>
      <trkpt lat="40.6038545630872249603271484375" lon="-1.434485614299774169921875">
        <ele>1198.5999755859375</ele>
        <time>2021-09-25T08:11:49.000Z</time>
      </trkpt>
      <trkpt lat="40.60383788309991359710693359375" lon="-1.43438570201396942138671875">
        <ele>1198.5999755859375</ele>
        <time>2021-09-25T08:11:51.000Z</time>
      </trkpt>
      <trkpt lat="40.6038163416087627410888671875" lon="-1.43427304923534393310546875">
        <ele>1198.800048828125</ele>
        <time>2021-09-25T08:11:53.000Z</time>
      </trkpt>
      <trkpt lat="40.60378926806151866912841796875" lon="-1.43416316248476505279541015625">
        <ele>1198.199951171875</ele>
        <time>2021-09-25T08:11:55.000Z</time>
      </trkpt>
      <trkpt lat="40.603760518133640289306640625" lon="-1.43404548056423664093017578125">
        <ele>1198</ele>
        <time>2021-09-25T08:11:57.000Z</time>
      </trkpt>
      <trkpt lat="40.60373210348188877105712890625" lon="-1.43392126075923442840576171875">
        <ele>1198</ele>
        <time>2021-09-25T08:11:59.000Z</time>
      </trkpt>
      <trkpt lat="40.60370176099240779876708984375" lon="-1.4338028244674205780029296875">
        <ele>1198.199951171875</ele>
        <time>2021-09-25T08:12:01.000Z</time>
      </trkpt>
      <trkpt lat="40.60368315316736698150634765625" lon="-1.433745659887790679931640625">
        <ele>1198.4000244140625</ele>
        <time>2021-09-25T08:12:02.000Z</time>
      </trkpt>
      <trkpt lat="40.60366421006619930267333984375" lon="-1.433692686259746551513671875">
        <ele>1198.5999755859375</ele>
        <time>2021-09-25T08:12:03.000Z</time>
      </trkpt>
      <trkpt lat="40.60364576987922191619873046875" lon="-1.43364004790782928466796875">
        <ele>1198.800048828125</ele>
        <time>2021-09-25T08:12:04.000Z</time>
      </trkpt>
      <trkpt lat="40.603629089891910552978515625" lon="-1.4335902594029903411865234375">
        <ele>1198.800048828125</ele>
        <time>2021-09-25T08:12:05.000Z</time>
      </trkpt>
      <trkpt lat="40.60359329916536808013916015625" lon="-1.4334918558597564697265625">
        <ele>1198.5999755859375</ele>
        <time>2021-09-25T08:12:07.000Z</time>
      </trkpt>
      <trkpt lat="40.6035541556775569915771484375" lon="-1.43338657915592193603515625">
        <ele>1198.5999755859375</ele>
        <time>2021-09-25T08:12:09.000Z</time>
      </trkpt>
      <trkpt lat="40.60351467691361904144287109375" lon="-1.4332826435565948486328125">
        <ele>1198.800048828125</ele>
        <time>2021-09-25T08:12:11.000Z</time>
      </trkpt>
      <trkpt lat="40.603492967784404754638671875" lon="-1.4332335256040096282958984375">
        <ele>1198.800048828125</ele>
        <time>2021-09-25T08:12:12.000Z</time>
      </trkpt>
      <trkpt lat="40.60347058810293674468994140625" lon="-1.43318273127079010009765625">
        <ele>1198.5999755859375</ele>
        <time>2021-09-25T08:12:13.000Z</time>
      </trkpt>
      <trkpt lat="40.60342289507389068603515625" lon="-1.4330819807946681976318359375">
        <ele>1198.4000244140625</ele>
        <time>2021-09-25T08:12:15.000Z</time>
      </trkpt>
      <trkpt lat="40.60336480848491191864013671875" lon="-1.4329894445836544036865234375">
        <ele>1198.199951171875</ele>
        <time>2021-09-25T08:12:17.000Z</time>
      </trkpt>
      <trkpt lat="40.60330688953399658203125" lon="-1.4328995905816555023193359375">
        <ele>1198</ele>
        <time>2021-09-25T08:12:19.000Z</time>
      </trkpt>
      <trkpt lat="40.6032815761864185333251953125" lon="-1.43285952508449554443359375">
        <ele>1198</ele>
        <time>2021-09-25T08:12:20.000Z</time>
      </trkpt>
      <trkpt lat="40.603252910077571868896484375" lon="-1.43281987868249416351318359375">
        <ele>1198</ele>
        <time>2021-09-25T08:12:21.000Z</time>
      </trkpt>
      <trkpt lat="40.60319398529827594757080078125" lon="-1.43274427391588687896728515625">
        <ele>1197.800048828125</ele>
        <time>2021-09-25T08:12:23.000Z</time>
      </trkpt>
      <trkpt lat="40.603165738284587860107421875" lon="-1.43270286731421947479248046875">
        <ele>1197.5999755859375</ele>
        <time>2021-09-25T08:12:24.000Z</time>
      </trkpt>
      <trkpt lat="40.6031390838325023651123046875" lon="-1.43265827558934688568115234375">
        <ele>1197.4000244140625</ele>
        <time>2021-09-25T08:12:25.000Z</time>
      </trkpt>
      <trkpt lat="40.60308401472866535186767578125" lon="-1.43257110379636287689208984375">
        <ele>1197</ele>
        <time>2021-09-25T08:12:27.000Z</time>
      </trkpt>
      <trkpt lat="40.6030556000769138336181640625" lon="-1.43253229558467864990234375">
        <ele>1196.5999755859375</ele>
        <time>2021-09-25T08:12:28.000Z</time>
      </trkpt>
      <trkpt lat="40.603024922311305999755859375" lon="-1.43248979933559894561767578125">
        <ele>1196.4000244140625</ele>
        <time>2021-09-25T08:12:29.000Z</time>
      </trkpt>
      <trkpt lat="40.60296935029327869415283203125" lon="-1.43240111880004405975341796875">
        <ele>1195.800048828125</ele>
        <time>2021-09-25T08:12:31.000Z</time>
      </trkpt>
      <trkpt lat="40.6029131077229976654052734375" lon="-1.43230875022709369659423828125">
        <ele>1195.199951171875</ele>
        <time>2021-09-25T08:12:33.000Z</time>
      </trkpt>
      <trkpt lat="40.60285183601081371307373046875" lon="-1.43222040496766567230224609375">
        <ele>1194.4000244140625</ele>
        <time>2021-09-25T08:12:35.000Z</time>
      </trkpt>
      <trkpt lat="40.60279098339378833770751953125" lon="-1.432127617299556732177734375">
        <ele>1194.4000244140625</ele>
        <time>2021-09-25T08:12:37.000Z</time>
      </trkpt>
      <trkpt lat="40.60276164673268795013427734375" lon="-1.432082355022430419921875">
        <ele>1194.5999755859375</ele>
        <time>2021-09-25T08:12:38.000Z</time>
      </trkpt>
      <trkpt lat="40.60273331589996814727783203125" lon="-1.43203600309789180755615234375">
        <ele>1194.5999755859375</ele>
        <time>2021-09-25T08:12:39.000Z</time>
      </trkpt>
      <trkpt lat="40.60267858207225799560546875" lon="-1.43194749020040035247802734375">
        <ele>1195.4000244140625</ele>
        <time>2021-09-25T08:12:41.000Z</time>
      </trkpt>
      <trkpt lat="40.60262720100581645965576171875" lon="-1.431867443025112152099609375">
        <ele>1196</ele>
        <time>2021-09-25T08:12:43.000Z</time>
      </trkpt>
      <trkpt lat="40.60257607139647006988525390625" lon="-1.43180181272327899932861328125">
        <ele>1196.199951171875</ele>
        <time>2021-09-25T08:12:45.000Z</time>
      </trkpt>
      <trkpt lat="40.60253265313804149627685546875" lon="-1.4317309856414794921875">
        <ele>1196.4000244140625</ele>
        <time>2021-09-25T08:12:47.000Z</time>
      </trkpt>
      <trkpt lat="40.6024893186986446380615234375" lon="-1.43166233785450458526611328125">
        <ele>1196.800048828125</ele>
        <time>2021-09-25T08:12:49.000Z</time>
      </trkpt>
      <trkpt lat="40.6024433858692646026611328125" lon="-1.4315980486571788787841796875">
        <ele>1197</ele>
        <time>2021-09-25T08:12:51.000Z</time>
      </trkpt>
      <trkpt lat="40.60242050327360630035400390625" lon="-1.43156963400542736053466796875">
        <ele>1197.199951171875</ele>
        <time>2021-09-25T08:12:52.000Z</time>
      </trkpt>
      <trkpt lat="40.60239703394472599029541015625" lon="-1.43153828568756580352783203125">
        <ele>1197.4000244140625</ele>
        <time>2021-09-25T08:12:53.000Z</time>
      </trkpt>
      <trkpt lat="40.602350346744060516357421875" lon="-1.431467123329639434814453125">
        <ele>1197.4000244140625</ele>
        <time>2021-09-25T08:12:55.000Z</time>
      </trkpt>
      <trkpt lat="40.60230047442018985748291015625" lon="-1.4313935302197933197021484375">
        <ele>1197.199951171875</ele>
        <time>2021-09-25T08:12:57.000Z</time>
      </trkpt>
      <trkpt lat="40.60225470922887325286865234375" lon="-1.43132102675735950469970703125">
        <ele>1197.199951171875</ele>
        <time>2021-09-25T08:12:59.000Z</time>
      </trkpt>
      <trkpt lat="40.602205507457256317138671875" lon="-1.43124676309525966644287109375">
        <ele>1197.199951171875</ele>
        <time>2021-09-25T08:13:01.000Z</time>
      </trkpt>
      <trkpt lat="40.6021550484001636505126953125" lon="-1.43117652274668216705322265625">
        <ele>1197</ele>
        <time>2021-09-25T08:13:03.000Z</time>
      </trkpt>
      <trkpt lat="40.6021081097424030303955078125" lon="-1.4310951344668865203857421875">
        <ele>1196</ele>
        <time>2021-09-25T08:13:05.000Z</time>
      </trkpt>
      <trkpt lat="40.6020583212375640869140625" lon="-1.43102380447089672088623046875">
        <ele>1195.199951171875</ele>
        <time>2021-09-25T08:13:07.000Z</time>
      </trkpt>
      <trkpt lat="40.6020068563520908355712890625" lon="-1.430950798094272613525390625">
        <ele>1194.800048828125</ele>
        <time>2021-09-25T08:13:09.000Z</time>
      </trkpt>
      <trkpt lat="40.60195975005626678466796875" lon="-1.43086924217641353607177734375">
        <ele>1194.800048828125</ele>
        <time>2021-09-25T08:13:11.000Z</time>
      </trkpt>
      <trkpt lat="40.60191155411303043365478515625" lon="-1.43079548142850399017333984375">
        <ele>1194.5999755859375</ele>
        <time>2021-09-25T08:13:13.000Z</time>
      </trkpt>
      <trkpt lat="40.601863525807857513427734375" lon="-1.4307166077196598052978515625">
        <ele>1194.5999755859375</ele>
        <time>2021-09-25T08:13:15.000Z</time>
      </trkpt>
      <trkpt lat="40.60181365348398685455322265625" lon="-1.43064460717141628265380859375">
        <ele>1194.4000244140625</ele>
        <time>2021-09-25T08:13:17.000Z</time>
      </trkpt>
      <trkpt lat="40.601764954626560211181640625" lon="-1.43057235516607761383056640625">
        <ele>1194.4000244140625</ele>
        <time>2021-09-25T08:13:19.000Z</time>
      </trkpt>
      <trkpt lat="40.60171172954142093658447265625" lon="-1.4304939843714237213134765625">
        <ele>1194.4000244140625</ele>
        <time>2021-09-25T08:13:21.000Z</time>
      </trkpt>
      <trkpt lat="40.60165188275277614593505859375" lon="-1.43041108734905719757080078125">
        <ele>1194.5999755859375</ele>
        <time>2021-09-25T08:13:23.000Z</time>
      </trkpt>
      <trkpt lat="40.60162254609167575836181640625" lon="-1.43036775290966033935546875">
        <ele>1194.5999755859375</ele>
        <time>2021-09-25T08:13:24.000Z</time>
      </trkpt>
      <trkpt lat="40.6015917845070362091064453125" lon="-1.4303214848041534423828125">
        <ele>1194.800048828125</ele>
        <time>2021-09-25T08:13:25.000Z</time>
      </trkpt>
      <trkpt lat="40.601528249680995941162109375" lon="-1.43023070879280567169189453125">
        <ele>1195</ele>
        <time>2021-09-25T08:13:27.000Z</time>
      </trkpt>
      <trkpt lat="40.60149304568767547607421875" lon="-1.4301848597824573516845703125">
        <ele>1195</ele>
        <time>2021-09-25T08:13:28.000Z</time>
      </trkpt>
      <trkpt lat="40.6014575064182281494140625" lon="-1.430137418210506439208984375">
        <ele>1195.199951171875</ele>
        <time>2021-09-25T08:13:29.000Z</time>
      </trkpt>
      <trkpt lat="40.60142221860587596893310546875" lon="-1.4300919882953166961669921875">
        <ele>1195.199951171875</ele>
        <time>2021-09-25T08:13:30.000Z</time>
      </trkpt>
      <trkpt lat="40.6013859249651432037353515625" lon="-1.43004680983722209930419921875">
        <ele>1195.199951171875</ele>
        <time>2021-09-25T08:13:31.000Z</time>
      </trkpt>
      <trkpt lat="40.60134963132441043853759765625" lon="-1.430002637207508087158203125">
        <ele>1195.199951171875</ele>
        <time>2021-09-25T08:13:32.000Z</time>
      </trkpt>
      <trkpt lat="40.60131057165563106536865234375" lon="-1.42995645292103290557861328125">
        <ele>1195</ele>
        <time>2021-09-25T08:13:33.000Z</time>
      </trkpt>
      <trkpt lat="40.60123111121356487274169921875" lon="-1.4298690296709537506103515625">
        <ele>1194.800048828125</ele>
        <time>2021-09-25T08:13:35.000Z</time>
      </trkpt>
      <trkpt lat="40.6011884473264217376708984375" lon="-1.42982921563088893890380859375">
        <ele>1194.5999755859375</ele>
        <time>2021-09-25T08:13:36.000Z</time>
      </trkpt>
      <trkpt lat="40.6011438556015491485595703125" lon="-1.42978839576244354248046875">
        <ele>1194.4000244140625</ele>
        <time>2021-09-25T08:13:37.000Z</time>
      </trkpt>
      <trkpt lat="40.60109951533377170562744140625" lon="-1.42975294031202793121337890625">
        <ele>1194.4000244140625</ele>
        <time>2021-09-25T08:13:38.000Z</time>
      </trkpt>
      <trkpt lat="40.6010576896369457244873046875" lon="-1.429714299738407135009765625">
        <ele>1194</ele>
        <time>2021-09-25T08:13:39.000Z</time>
      </trkpt>
      <trkpt lat="40.60097873210906982421875" lon="-1.4296373538672924041748046875">
        <ele>1193.800048828125</ele>
        <time>2021-09-25T08:13:41.000Z</time>
      </trkpt>
      <trkpt lat="40.60093523003160953521728515625" lon="-1.42959821037948131561279296875">
        <ele>1193.5999755859375</ele>
        <time>2021-09-25T08:13:42.000Z</time>
      </trkpt>
      <trkpt lat="40.6008937396109104156494140625" lon="-1.42955906689167022705078125">
        <ele>1193.800048828125</ele>
        <time>2021-09-25T08:13:43.000Z</time>
      </trkpt>
      <trkpt lat="40.6008521653711795806884765625" lon="-1.42952109687030315399169921875">
        <ele>1194</ele>
        <time>2021-09-25T08:13:44.000Z</time>
      </trkpt>
      <trkpt lat="40.60080648399889469146728515625" lon="-1.4294821210205554962158203125">
        <ele>1194.199951171875</ele>
        <time>2021-09-25T08:13:45.000Z</time>
      </trkpt>
      <trkpt lat="40.6007629819214344024658203125" lon="-1.4294472523033618927001953125">
        <ele>1194.199951171875</ele>
        <time>2021-09-25T08:13:46.000Z</time>
      </trkpt>
      <trkpt lat="40.600720904767513275146484375" lon="-1.42941020429134368896484375">
        <ele>1194</ele>
        <time>2021-09-25T08:13:47.000Z</time>
      </trkpt>
      <trkpt lat="40.60063666664063930511474609375" lon="-1.42933904193341732025146484375">
        <ele>1194.199951171875</ele>
        <time>2021-09-25T08:13:49.000Z</time>
      </trkpt>
      <trkpt lat="40.600552596151828765869140625" lon="-1.42925388179719448089599609375">
        <ele>1194.800048828125</ele>
        <time>2021-09-25T08:13:51.000Z</time>
      </trkpt>
      <trkpt lat="40.60051345266401767730712890625" lon="-1.4292110502719879150390625">
        <ele>1195</ele>
        <time>2021-09-25T08:13:52.000Z</time>
      </trkpt>
      <trkpt lat="40.60047506354749202728271484375" lon="-1.42916067503392696380615234375">
        <ele>1195.199951171875</ele>
        <time>2021-09-25T08:13:53.000Z</time>
      </trkpt>
      <trkpt lat="40.600407086312770843505859375" lon="-1.429049782454967498779296875">
        <ele>1195.4000244140625</ele>
        <time>2021-09-25T08:13:55.000Z</time>
      </trkpt>
      <trkpt lat="40.60034531168639659881591796875" lon="-1.42892112024128437042236328125">
        <ele>1196</ele>
        <time>2021-09-25T08:13:57.000Z</time>
      </trkpt>
      <trkpt lat="40.60029552318155765533447265625" lon="-1.42878248356282711029052734375">
        <ele>1196</ele>
        <time>2021-09-25T08:13:59.000Z</time>
      </trkpt>
      <trkpt lat="40.60025881044566631317138671875" lon="-1.42863848246634006500244140625">
        <ele>1195.800048828125</ele>
        <time>2021-09-25T08:14:01.000Z</time>
      </trkpt>
      <trkpt lat="40.600244812667369842529296875" lon="-1.4285619556903839111328125">
        <ele>1195.5999755859375</ele>
        <time>2021-09-25T08:14:02.000Z</time>
      </trkpt>
      <trkpt lat="40.600232742726802825927734375" lon="-1.42848215997219085693359375">
        <ele>1195.4000244140625</ele>
        <time>2021-09-25T08:14:03.000Z</time>
      </trkpt>
      <trkpt lat="40.600210614502429962158203125" lon="-1.4283301122486591339111328125">
        <ele>1194.4000244140625</ele>
        <time>2021-09-25T08:14:05.000Z</time>
      </trkpt>
      <trkpt lat="40.60019779019057750701904296875" lon="-1.42816708423197269439697265625">
        <ele>1193.199951171875</ele>
        <time>2021-09-25T08:14:07.000Z</time>
      </trkpt>
      <trkpt lat="40.600181110203266143798828125" lon="-1.427987627685070037841796875">
        <ele>1191.800048828125</ele>
        <time>2021-09-25T08:14:09.000Z</time>
      </trkpt>
      <trkpt lat="40.6001725606620311737060546875" lon="-1.42790020443499088287353515625">
        <ele>1191</ele>
        <time>2021-09-25T08:14:10.000Z</time>
      </trkpt>
      <trkpt lat="40.6001638434827327728271484375" lon="-1.4278100989758968353271484375">
        <ele>1190.4000244140625</ele>
        <time>2021-09-25T08:14:11.000Z</time>
      </trkpt>
      <trkpt lat="40.6001450680196285247802734375" lon="-1.4276179857552051544189453125">
        <ele>1189.5999755859375</ele>
        <time>2021-09-25T08:14:13.000Z</time>
      </trkpt>
      <trkpt lat="40.600126795470714569091796875" lon="-1.42742193304002285003662109375">
        <ele>1188.199951171875</ele>
        <time>2021-09-25T08:14:15.000Z</time>
      </trkpt>
      <trkpt lat="40.600107349455356597900390625" lon="-1.42722562886774539947509765625">
        <ele>1187.199951171875</ele>
        <time>2021-09-25T08:14:17.000Z</time>
      </trkpt>
      <trkpt lat="40.60008865781128406524658203125" lon="-1.42702848650515079498291015625">
        <ele>1186</ele>
        <time>2021-09-25T08:14:19.000Z</time>
      </trkpt>
      <trkpt lat="40.6000656075775623321533203125" lon="-1.426824219524860382080078125">
        <ele>1185</ele>
        <time>2021-09-25T08:14:21.000Z</time>
      </trkpt>
      <trkpt lat="40.60004423372447490692138671875" lon="-1.42662070691585540771484375">
        <ele>1184</ele>
        <time>2021-09-25T08:14:23.000Z</time>
      </trkpt>
      <trkpt lat="40.600033588707447052001953125" lon="-1.42651249654591083526611328125">
        <ele>1184</ele>
        <time>2021-09-25T08:14:24.000Z</time>
      </trkpt>
      <trkpt lat="40.600022859871387481689453125" lon="-1.42640252597630023956298828125">
        <ele>1184</ele>
        <time>2021-09-25T08:14:25.000Z</time>
      </trkpt>
      <trkpt lat="40.59999980963766574859619140625" lon="-1.4261882007122039794921875">
        <ele>1185</ele>
        <time>2021-09-25T08:14:27.000Z</time>
      </trkpt>
      <trkpt lat="40.599981285631656646728515625" lon="-1.4259778149425983428955078125">
        <ele>1186.199951171875</ele>
        <time>2021-09-25T08:14:29.000Z</time>
      </trkpt>
      <trkpt lat="40.59995773248374462127685546875" lon="-1.42577321268618106842041015625">
        <ele>1187</ele>
        <time>2021-09-25T08:14:31.000Z</time>
      </trkpt>
      <trkpt lat="40.59993728064000606536865234375" lon="-1.42556584440171718597412109375">
        <ele>1188</ele>
        <time>2021-09-25T08:14:33.000Z</time>
      </trkpt>
      <trkpt lat="40.5999219417572021484375" lon="-1.425364427268505096435546875">
        <ele>1188.4000244140625</ele>
        <time>2021-09-25T08:14:35.000Z</time>
      </trkpt>
      <trkpt lat="40.5999140627682209014892578125" lon="-1.425167284905910491943359375">
        <ele>1188.5999755859375</ele>
        <time>2021-09-25T08:14:37.000Z</time>
      </trkpt>
      <trkpt lat="40.5999227799475193023681640625" lon="-1.4249652810394763946533203125">
        <ele>1188.4000244140625</ele>
        <time>2021-09-25T08:14:39.000Z</time>
      </trkpt>
      <trkpt lat="40.59993174858391284942626953125" lon="-1.424862183630466461181640625">
        <ele>1188.199951171875</ele>
        <time>2021-09-25T08:14:40.000Z</time>
      </trkpt>
      <trkpt lat="40.59994549490511417388916015625" lon="-1.4247597567737102508544921875">
        <ele>1188.199951171875</ele>
        <time>2021-09-25T08:14:41.000Z</time>
      </trkpt>
      <trkpt lat="40.59998120181262493133544921875" lon="-1.4245552383363246917724609375">
        <ele>1187.800048828125</ele>
        <time>2021-09-25T08:14:43.000Z</time>
      </trkpt>
      <trkpt lat="40.600030906498432159423828125" lon="-1.424346864223480224609375">
        <ele>1188</ele>
        <time>2021-09-25T08:14:45.000Z</time>
      </trkpt>
      <trkpt lat="40.60008530505001544952392578125" lon="-1.42413086257874965667724609375">
        <ele>1188.4000244140625</ele>
        <time>2021-09-25T08:14:47.000Z</time>
      </trkpt>
      <trkpt lat="40.60012402944266796112060546875" lon="-1.4239155314862728118896484375">
        <ele>1188.5999755859375</ele>
        <time>2021-09-25T08:14:49.000Z</time>
      </trkpt>
      <trkpt lat="40.60013576410710811614990234375" lon="-1.42380782403051853179931640625">
        <ele>1189</ele>
        <time>2021-09-25T08:14:50.000Z</time>
      </trkpt>
      <trkpt lat="40.60013894923031330108642578125" lon="-1.42369952984154224395751953125">
        <ele>1189.5999755859375</ele>
        <time>2021-09-25T08:14:51.000Z</time>
      </trkpt>
      <trkpt lat="40.6001319922506809234619140625" lon="-1.4235946722328662872314453125">
        <ele>1190.4000244140625</ele>
        <time>2021-09-25T08:14:52.000Z</time>
      </trkpt>
      <trkpt lat="40.60011765919625759124755859375" lon="-1.42349383793771266937255859375">
        <ele>1191</ele>
        <time>2021-09-25T08:14:53.000Z</time>
      </trkpt>
      <trkpt lat="40.60007927007973194122314453125" lon="-1.423297785222530364990234375">
        <ele>1192.199951171875</ele>
        <time>2021-09-25T08:14:55.000Z</time>
      </trkpt>
      <trkpt lat="40.60003660619258880615234375" lon="-1.423112712800502777099609375">
        <ele>1193.4000244140625</ele>
        <time>2021-09-25T08:14:57.000Z</time>
      </trkpt>
      <trkpt lat="40.599994026124477386474609375" lon="-1.4229373633861541748046875">
        <ele>1193.800048828125</ele>
        <time>2021-09-25T08:14:59.000Z</time>
      </trkpt>
      <trkpt lat="40.59995605610311031341552734375" lon="-1.422768719494342803955078125">
        <ele>1193.4000244140625</ele>
        <time>2021-09-25T08:15:01.000Z</time>
      </trkpt>
      <trkpt lat="40.59993694536387920379638671875" lon="-1.4226850681006908416748046875">
        <ele>1193</ele>
        <time>2021-09-25T08:15:02.000Z</time>
      </trkpt>
      <trkpt lat="40.599918924272060394287109375" lon="-1.42260099761188030242919921875">
        <ele>1192.5999755859375</ele>
        <time>2021-09-25T08:15:03.000Z</time>
      </trkpt>
      <trkpt lat="40.59988313354551792144775390625" lon="-1.42243453301489353179931640625">
        <ele>1193.199951171875</ele>
        <time>2021-09-25T08:15:05.000Z</time>
      </trkpt>
      <trkpt lat="40.59984357096254825592041015625" lon="-1.42227242700755596160888671875">
        <ele>1193.4000244140625</ele>
        <time>2021-09-25T08:15:07.000Z</time>
      </trkpt>
      <trkpt lat="40.59980417601764202117919921875" lon="-1.4221087284386157989501953125">
        <ele>1193.4000244140625</ele>
        <time>2021-09-25T08:15:09.000Z</time>
      </trkpt>
      <trkpt lat="40.5997621826827526092529296875" lon="-1.42193346284329891204833984375">
        <ele>1193</ele>
        <time>2021-09-25T08:15:11.000Z</time>
      </trkpt>
      <trkpt lat="40.5997407250106334686279296875" lon="-1.42184444703161716461181640625">
        <ele>1192.5999755859375</ele>
        <time>2021-09-25T08:15:12.000Z</time>
      </trkpt>
      <trkpt lat="40.59972010552883148193359375" lon="-1.42175509594380855560302734375">
        <ele>1192.199951171875</ele>
        <time>2021-09-25T08:15:13.000Z</time>
      </trkpt>
      <trkpt lat="40.599670819938182830810546875" lon="-1.4215789921581745147705078125">
        <ele>1191.4000244140625</ele>
        <time>2021-09-25T08:15:15.000Z</time>
      </trkpt>
      <trkpt lat="40.5996121466159820556640625" lon="-1.42140448093414306640625">
        <ele>1190.5999755859375</ele>
        <time>2021-09-25T08:15:17.000Z</time>
      </trkpt>
      <trkpt lat="40.5995425768196582794189453125" lon="-1.42123089171946048736572265625">
        <ele>1189.5999755859375</ele>
        <time>2021-09-25T08:15:19.000Z</time>
      </trkpt>
      <trkpt lat="40.59945724904537200927734375" lon="-1.42105872742831707000732421875">
        <ele>1187.800048828125</ele>
        <time>2021-09-25T08:15:21.000Z</time>
      </trkpt>
      <trkpt lat="40.5993564985692501068115234375" lon="-1.42088941298425197601318359375">
        <ele>1186.800048828125</ele>
        <time>2021-09-25T08:15:23.000Z</time>
      </trkpt>
      <trkpt lat="40.59924937784671783447265625" lon="-1.4207163266837596893310546875">
        <ele>1183.800048828125</ele>
        <time>2021-09-25T08:15:25.000Z</time>
      </trkpt>
      <trkpt lat="40.59913404285907745361328125" lon="-1.4205386303365230560302734375">
        <ele>1181.4000244140625</ele>
        <time>2021-09-25T08:15:27.000Z</time>
      </trkpt>
      <trkpt lat="40.59901594184339046478271484375" lon="-1.420360766351222991943359375">
        <ele>1180.4000244140625</ele>
        <time>2021-09-25T08:15:29.000Z</time>
      </trkpt>
      <trkpt lat="40.59890178032219409942626953125" lon="-1.42018097452819347381591796875">
        <ele>1178.800048828125</ele>
        <time>2021-09-25T08:15:31.000Z</time>
      </trkpt>
      <trkpt lat="40.5987838469445705413818359375" lon="-1.4199991710484027862548828125">
        <ele>1178</ele>
        <time>2021-09-25T08:15:33.000Z</time>
      </trkpt>
      <trkpt lat="40.59866339899599552154541015625" lon="-1.41982038505375385284423828125">
        <ele>1176.800048828125</ele>
        <time>2021-09-25T08:15:35.000Z</time>
      </trkpt>
      <trkpt lat="40.5985417775809764862060546875" lon="-1.41963631846010684967041015625">
        <ele>1175.800048828125</ele>
        <time>2021-09-25T08:15:37.000Z</time>
      </trkpt>
      <trkpt lat="40.59841026552021503448486328125" lon="-1.41945845447480678558349609375">
        <ele>1176</ele>
        <time>2021-09-25T08:15:39.000Z</time>
      </trkpt>
      <trkpt lat="40.5983436293900012969970703125" lon="-1.41936725936830043792724609375">
        <ele>1176</ele>
        <time>2021-09-25T08:15:40.000Z</time>
      </trkpt>
      <trkpt lat="40.598273389041423797607421875" lon="-1.4192756451666355133056640625">
        <ele>1175.5999755859375</ele>
        <time>2021-09-25T08:15:41.000Z</time>
      </trkpt>
      <trkpt lat="40.5981344170868396759033203125" lon="-1.41909778118133544921875">
        <ele>1175.4000244140625</ele>
        <time>2021-09-25T08:15:43.000Z</time>
      </trkpt>
      <trkpt lat="40.5979962833225727081298828125" lon="-1.41892167739570140838623046875">
        <ele>1173.199951171875</ele>
        <time>2021-09-25T08:15:45.000Z</time>
      </trkpt>
      <trkpt lat="40.5978527851402759552001953125" lon="-1.41875035129487514495849609375">
        <ele>1170.5999755859375</ele>
        <time>2021-09-25T08:15:47.000Z</time>
      </trkpt>
      <trkpt lat="40.59771515429019927978515625" lon="-1.418580450117588043212890625">
        <ele>1169.4000244140625</ele>
        <time>2021-09-25T08:15:49.000Z</time>
      </trkpt>
      <trkpt lat="40.5975788645446300506591796875" lon="-1.418410800397396087646484375">
        <ele>1168.800048828125</ele>
        <time>2021-09-25T08:15:51.000Z</time>
      </trkpt>
      <trkpt lat="40.59744332917034626007080078125" lon="-1.4182473532855510711669921875">
        <ele>1169.199951171875</ele>
        <time>2021-09-25T08:15:53.000Z</time>
      </trkpt>
      <trkpt lat="40.59731609188020229339599609375" lon="-1.41809103079140186309814453125">
        <ele>1169.800048828125</ele>
        <time>2021-09-25T08:15:55.000Z</time>
      </trkpt>
      <trkpt lat="40.59719153679907321929931640625" lon="-1.4179412461817264556884765625">
        <ele>1170</ele>
        <time>2021-09-25T08:15:57.000Z</time>
      </trkpt>
      <trkpt lat="40.59707276523113250732421875" lon="-1.417793221771717071533203125">
        <ele>1169.800048828125</ele>
        <time>2021-09-25T08:15:59.000Z</time>
      </trkpt>
      <trkpt lat="40.59695634059607982635498046875" lon="-1.4176418446004390716552734375">
        <ele>1170.5999755859375</ele>
        <time>2021-09-25T08:16:01.000Z</time>
      </trkpt>
      <trkpt lat="40.59683966450393199920654296875" lon="-1.41750044189393520355224609375">
        <ele>1171</ele>
        <time>2021-09-25T08:16:03.000Z</time>
      </trkpt>
      <trkpt lat="40.596723072230815887451171875" lon="-1.41735057346522808074951171875">
        <ele>1170.4000244140625</ele>
        <time>2021-09-25T08:16:05.000Z</time>
      </trkpt>
      <trkpt lat="40.59666481800377368927001953125" lon="-1.41727413050830364227294921875">
        <ele>1170.199951171875</ele>
        <time>2021-09-25T08:16:06.000Z</time>
      </trkpt>
      <trkpt lat="40.5966032110154628753662109375" lon="-1.4172009564936161041259765625">
        <ele>1170.4000244140625</ele>
        <time>2021-09-25T08:16:07.000Z</time>
      </trkpt>
      <trkpt lat="40.596485026180744171142578125" lon="-1.417053602635860443115234375">
        <ele>1169.800048828125</ele>
        <time>2021-09-25T08:16:09.000Z</time>
      </trkpt>
      <trkpt lat="40.5963661707937717437744140625" lon="-1.4168925024569034576416015625">
        <ele>1168.199951171875</ele>
        <time>2021-09-25T08:16:11.000Z</time>
      </trkpt>
      <trkpt lat="40.59624530375003814697265625" lon="-1.41672293655574321746826171875">
        <ele>1166.199951171875</ele>
        <time>2021-09-25T08:16:13.000Z</time>
      </trkpt>
      <trkpt lat="40.5961163900792598724365234375" lon="-1.41655295155942440032958984375">
        <ele>1165.4000244140625</ele>
        <time>2021-09-25T08:16:15.000Z</time>
      </trkpt>
      <trkpt lat="40.59598890133202075958251953125" lon="-1.41636955551803112030029296875">
        <ele>1164.4000244140625</ele>
        <time>2021-09-25T08:16:17.000Z</time>
      </trkpt>
      <trkpt lat="40.59586183167994022369384765625" lon="-1.41618825495243072509765625">
        <ele>1164</ele>
        <time>2021-09-25T08:16:19.000Z</time>
      </trkpt>
      <trkpt lat="40.59573090635240077972412109375" lon="-1.4160103909671306610107421875">
        <ele>1163.5999755859375</ele>
        <time>2021-09-25T08:16:21.000Z</time>
      </trkpt>
      <trkpt lat="40.59566804207861423492431640625" lon="-1.41592347063124179840087890625">
        <ele>1163.4000244140625</ele>
        <time>2021-09-25T08:16:22.000Z</time>
      </trkpt>
      <trkpt lat="40.59560517780482769012451171875" lon="-1.41583914868533611297607421875">
        <ele>1163.199951171875</ele>
        <time>2021-09-25T08:16:23.000Z</time>
      </trkpt>
      <trkpt lat="40.595477186143398284912109375" lon="-1.415667235851287841796875">
        <ele>1162.4000244140625</ele>
        <time>2021-09-25T08:16:25.000Z</time>
      </trkpt>
      <trkpt lat="40.5953553132712841033935546875" lon="-1.4154900424182415008544921875">
        <ele>1161</ele>
        <time>2021-09-25T08:16:27.000Z</time>
      </trkpt>
      <trkpt lat="40.5952362902462482452392578125" lon="-1.41530639491975307464599609375">
        <ele>1159.199951171875</ele>
        <time>2021-09-25T08:16:29.000Z</time>
      </trkpt>
      <trkpt lat="40.59517988003790378570556640625" lon="-1.4152067340910434722900390625">
        <ele>1158.199951171875</ele>
        <time>2021-09-25T08:16:30.000Z</time>
      </trkpt>
      <trkpt lat="40.59513176791369915008544921875" lon="-1.4150997810065746307373046875">
        <ele>1157.5999755859375</ele>
        <time>2021-09-25T08:16:31.000Z</time>
      </trkpt>
      <trkpt lat="40.59508985839784145355224609375" lon="-1.414986290037631988525390625">
        <ele>1157</ele>
        <time>2021-09-25T08:16:32.000Z</time>
      </trkpt>
      <trkpt lat="40.595054067671298980712890625" lon="-1.41486592590808868408203125">
        <ele>1156.5999755859375</ele>
        <time>2021-09-25T08:16:33.000Z</time>
      </trkpt>
      <trkpt lat="40.595022551715373992919921875" lon="-1.41474430449306964874267578125">
        <ele>1156.800048828125</ele>
        <time>2021-09-25T08:16:34.000Z</time>
      </trkpt>
      <trkpt lat="40.59499346651136875152587890625" lon="-1.4146213419735431671142578125">
        <ele>1157</ele>
        <time>2021-09-25T08:16:35.000Z</time>
      </trkpt>
      <trkpt lat="40.594944097101688385009765625" lon="-1.41437080688774585723876953125">
        <ele>1157.4000244140625</ele>
        <time>2021-09-25T08:16:37.000Z</time>
      </trkpt>
      <trkpt lat="40.59489321894943714141845703125" lon="-1.4141348563134670257568359375">
        <ele>1158.199951171875</ele>
        <time>2021-09-25T08:16:39.000Z</time>
      </trkpt>
      <trkpt lat="40.59484359808266162872314453125" lon="-1.41391466371715068817138671875">
        <ele>1159.4000244140625</ele>
        <time>2021-09-25T08:16:41.000Z</time>
      </trkpt>
      <trkpt lat="40.594795234501361846923828125" lon="-1.413700170814990997314453125">
        <ele>1159.5999755859375</ele>
        <time>2021-09-25T08:16:43.000Z</time>
      </trkpt>
      <trkpt lat="40.59474653564393520355224609375" lon="-1.413486935198307037353515625">
        <ele>1158.5999755859375</ele>
        <time>2021-09-25T08:16:45.000Z</time>
      </trkpt>
      <trkpt lat="40.594696663320064544677734375" lon="-1.413266994059085845947265625">
        <ele>1157.199951171875</ele>
        <time>2021-09-25T08:16:47.000Z</time>
      </trkpt>
      <trkpt lat="40.5946475453674793243408203125" lon="-1.41304512508213520050048828125">
        <ele>1157.199951171875</ele>
        <time>2021-09-25T08:16:49.000Z</time>
      </trkpt>
      <trkpt lat="40.59459582902491092681884765625" lon="-1.4128279499709606170654296875">
        <ele>1157</ele>
        <time>2021-09-25T08:16:51.000Z</time>
      </trkpt>
      <trkpt lat="40.5945446155965328216552734375" lon="-1.4126108586788177490234375">
        <ele>1157.199951171875</ele>
        <time>2021-09-25T08:16:53.000Z</time>
      </trkpt>
      <trkpt lat="40.594496838748455047607421875" lon="-1.4123880676925182342529296875">
        <ele>1156.199951171875</ele>
        <time>2021-09-25T08:16:55.000Z</time>
      </trkpt>
      <trkpt lat="40.594445876777172088623046875" lon="-1.4121630974113941192626953125">
        <ele>1156</ele>
        <time>2021-09-25T08:16:57.000Z</time>
      </trkpt>
      <trkpt lat="40.5943965911865234375" lon="-1.411936618387699127197265625">
        <ele>1157.5999755859375</ele>
        <time>2021-09-25T08:16:59.000Z</time>
      </trkpt>
      <trkpt lat="40.59434831142425537109375" lon="-1.4117069542407989501953125">
        <ele>1158.199951171875</ele>
        <time>2021-09-25T08:17:01.000Z</time>
      </trkpt>
      <trkpt lat="40.59429642744362354278564453125" lon="-1.4114804752171039581298828125">
        <ele>1157.800048828125</ele>
        <time>2021-09-25T08:17:03.000Z</time>
      </trkpt>
      <trkpt lat="40.5942435376346111297607421875" lon="-1.41125491820275783538818359375">
        <ele>1156.800048828125</ele>
        <time>2021-09-25T08:17:05.000Z</time>
      </trkpt>
      <trkpt lat="40.5941915698349475860595703125" lon="-1.41102441586554050445556640625">
        <ele>1154.800048828125</ele>
        <time>2021-09-25T08:17:07.000Z</time>
      </trkpt>
      <trkpt lat="40.59413013048470020294189453125" lon="-1.41079776920378208160400390625">
        <ele>1152.5999755859375</ele>
        <time>2021-09-25T08:17:09.000Z</time>
      </trkpt>
      <trkpt lat="40.59406206943094730377197265625" lon="-1.41057548113167285919189453125">
        <ele>1151</ele>
        <time>2021-09-25T08:17:11.000Z</time>
      </trkpt>
      <trkpt lat="40.59398395009338855743408203125" lon="-1.410361491143703460693359375">
        <ele>1151</ele>
        <time>2021-09-25T08:17:13.000Z</time>
      </trkpt>
      <trkpt lat="40.59390398673713207244873046875" lon="-1.4101445674896240234375">
        <ele>1151.199951171875</ele>
        <time>2021-09-25T08:17:15.000Z</time>
      </trkpt>
      <trkpt lat="40.5938261188566684722900390625" lon="-1.4099325053393840789794921875">
        <ele>1150.199951171875</ele>
        <time>2021-09-25T08:17:17.000Z</time>
      </trkpt>
      <trkpt lat="40.59374657459557056427001953125" lon="-1.40971968881785869598388671875">
        <ele>1150</ele>
        <time>2021-09-25T08:17:19.000Z</time>
      </trkpt>
      <trkpt lat="40.59366242028772830963134765625" lon="-1.40951399691402912139892578125">
        <ele>1149.800048828125</ele>
        <time>2021-09-25T08:17:21.000Z</time>
      </trkpt>
      <trkpt lat="40.59358329512178897857666015625" lon="-1.40930570662021636962890625">
        <ele>1151</ele>
        <time>2021-09-25T08:17:23.000Z</time>
      </trkpt>
      <trkpt lat="40.5935042537748813629150390625" lon="-1.40910261310636997222900390625">
        <ele>1151.199951171875</ele>
        <time>2021-09-25T08:17:25.000Z</time>
      </trkpt>
      <trkpt lat="40.59346561320126056671142578125" lon="-1.40899993479251861572265625">
        <ele>1150.5999755859375</ele>
        <time>2021-09-25T08:17:26.000Z</time>
      </trkpt>
      <trkpt lat="40.593428313732147216796875" lon="-1.4088998548686504364013671875">
        <ele>1149</ele>
        <time>2021-09-25T08:17:27.000Z</time>
      </trkpt>
      <trkpt lat="40.5933547206223011016845703125" lon="-1.4086990244686603546142578125">
        <ele>1147.5999755859375</ele>
        <time>2021-09-25T08:17:29.000Z</time>
      </trkpt>
      <trkpt lat="40.5932766012847423553466796875" lon="-1.4084975235164165496826171875">
        <ele>1148.199951171875</ele>
        <time>2021-09-25T08:17:31.000Z</time>
      </trkpt>
      <trkpt lat="40.5931957997381687164306640625" lon="-1.4082899875938892364501953125">
        <ele>1148.5999755859375</ele>
        <time>2021-09-25T08:17:33.000Z</time>
      </trkpt>
      <trkpt lat="40.5931185185909271240234375" lon="-1.40807784162461757659912109375">
        <ele>1148.4000244140625</ele>
        <time>2021-09-25T08:17:35.000Z</time>
      </trkpt>
      <trkpt lat="40.5930808000266551971435546875" lon="-1.4079684577882289886474609375">
        <ele>1148.5999755859375</ele>
        <time>2021-09-25T08:17:36.000Z</time>
      </trkpt>
      <trkpt lat="40.59304232709109783172607421875" lon="-1.40785907395184040069580078125">
        <ele>1149.199951171875</ele>
        <time>2021-09-25T08:17:37.000Z</time>
      </trkpt>
      <trkpt lat="40.5929580889642238616943359375" lon="-1.40764676034450531005859375">
        <ele>1149</ele>
        <time>2021-09-25T08:17:39.000Z</time>
      </trkpt>
      <trkpt lat="40.59288449585437774658203125" lon="-1.40742975287139415740966796875">
        <ele>1148.199951171875</ele>
        <time>2021-09-25T08:17:41.000Z</time>
      </trkpt>
      <trkpt lat="40.59283227659761905670166015625" lon="-1.40719790942966938018798828125">
        <ele>1147.5999755859375</ele>
        <time>2021-09-25T08:17:43.000Z</time>
      </trkpt>
      <trkpt lat="40.592815093696117401123046875" lon="-1.4069576002657413482666015625">
        <ele>1146.4000244140625</ele>
        <time>2021-09-25T08:17:45.000Z</time>
      </trkpt>
      <trkpt lat="40.59282557107508182525634765625" lon="-1.40671343542635440826416015625">
        <ele>1145.800048828125</ele>
        <time>2021-09-25T08:17:47.000Z</time>
      </trkpt>
      <trkpt lat="40.59285105206072330474853515625" lon="-1.40646549873054027557373046875">
        <ele>1145.800048828125</ele>
        <time>2021-09-25T08:17:49.000Z</time>
      </trkpt>
      <trkpt lat="40.592878796160221099853515625" lon="-1.40621907077729701995849609375">
        <ele>1146.199951171875</ele>
        <time>2021-09-25T08:17:51.000Z</time>
      </trkpt>
      <trkpt lat="40.592904947698116302490234375" lon="-1.405984126031398773193359375">
        <ele>1146.5999755859375</ele>
        <time>2021-09-25T08:17:53.000Z</time>
      </trkpt>
      <trkpt lat="40.59291936457157135009765625" lon="-1.40586669556796550750732421875">
        <ele>1146.5999755859375</ele>
        <time>2021-09-25T08:17:54.000Z</time>
      </trkpt>
      <trkpt lat="40.59293654747307300567626953125" lon="-1.40575437806546688079833984375">
        <ele>1146.4000244140625</ele>
        <time>2021-09-25T08:17:55.000Z</time>
      </trkpt>
      <trkpt lat="40.5929869227111339569091796875" lon="-1.4055410586297512054443359375">
        <ele>1146.4000244140625</ele>
        <time>2021-09-25T08:17:57.000Z</time>
      </trkpt>
      <trkpt lat="40.59304945170879364013671875" lon="-1.40534064732491970062255859375">
        <ele>1146</ele>
        <time>2021-09-25T08:17:59.000Z</time>
      </trkpt>
      <trkpt lat="40.5931257270276546478271484375" lon="-1.40515758655965328216552734375">
        <ele>1146.199951171875</ele>
        <time>2021-09-25T08:18:01.000Z</time>
      </trkpt>
      <trkpt lat="40.59320904314517974853515625" lon="-1.40498190186917781829833984375">
        <ele>1146.4000244140625</ele>
        <time>2021-09-25T08:18:03.000Z</time>
      </trkpt>
      <trkpt lat="40.5932846479117870330810546875" lon="-1.4048108272254467010498046875">
        <ele>1146.4000244140625</ele>
        <time>2021-09-25T08:18:05.000Z</time>
      </trkpt>
      <trkpt lat="40.5933232046663761138916015625" lon="-1.40472692437469959259033203125">
        <ele>1146.5999755859375</ele>
        <time>2021-09-25T08:18:06.000Z</time>
      </trkpt>
      <trkpt lat="40.593366958200931549072265625" lon="-1.404651068150997161865234375">
        <ele>1146.5999755859375</ele>
        <time>2021-09-25T08:18:07.000Z</time>
      </trkpt>
      <trkpt lat="40.59347332455217838287353515625" lon="-1.4045239984989166259765625">
        <ele>1146.800048828125</ele>
        <time>2021-09-25T08:18:09.000Z</time>
      </trkpt>
      <trkpt lat="40.5935315787792205810546875" lon="-1.4044668339192867279052734375">
        <ele>1147</ele>
        <time>2021-09-25T08:18:10.000Z</time>
      </trkpt>
      <trkpt lat="40.59358865953981876373291015625" lon="-1.40440799295902252197265625">
        <ele>1147.199951171875</ele>
        <time>2021-09-25T08:18:11.000Z</time>
      </trkpt>
      <trkpt lat="40.59369410388171672821044921875" lon="-1.40429190360009670257568359375">
        <ele>1147.199951171875</ele>
        <time>2021-09-25T08:18:13.000Z</time>
      </trkpt>
      <trkpt lat="40.59378982521593570709228515625" lon="-1.40416332520544528961181640625">
        <ele>1147</ele>
        <time>2021-09-25T08:18:15.000Z</time>
      </trkpt>
      <trkpt lat="40.59382729232311248779296875" lon="-1.404087804257869720458984375">
        <ele>1146.5999755859375</ele>
        <time>2021-09-25T08:18:16.000Z</time>
      </trkpt>
      <trkpt lat="40.59385302476584911346435546875" lon="-1.40400993637740612030029296875">
        <ele>1146.4000244140625</ele>
        <time>2021-09-25T08:18:17.000Z</time>
      </trkpt>
      <trkpt lat="40.593879930675029754638671875" lon="-1.40385034494102001190185546875">
        <ele>1145.800048828125</ele>
        <time>2021-09-25T08:18:19.000Z</time>
      </trkpt>
      <trkpt lat="40.59388487599790096282958984375" lon="-1.40377658419311046600341796875">
        <ele>1145.800048828125</ele>
        <time>2021-09-25T08:18:20.000Z</time>
      </trkpt>
      <trkpt lat="40.59389032423496246337890625" lon="-1.4037017337977886199951171875">
        <ele>1145.800048828125</ele>
        <time>2021-09-25T08:18:21.000Z</time>
      </trkpt>
      <trkpt lat="40.59389007277786731719970703125" lon="-1.403563432395458221435546875">
        <ele>1145.800048828125</ele>
        <time>2021-09-25T08:18:23.000Z</time>
      </trkpt>
      <trkpt lat="40.5938878096640110015869140625" lon="-1.40343493781983852386474609375">
        <ele>1146.4000244140625</ele>
        <time>2021-09-25T08:18:25.000Z</time>
      </trkpt>
      <trkpt lat="40.59388856403529644012451171875" lon="-1.40337626449763774871826171875">
        <ele>1146.5999755859375</ele>
        <time>2021-09-25T08:18:26.000Z</time>
      </trkpt>
      <trkpt lat="40.5938888154923915863037109375" lon="-1.4033171720802783966064453125">
        <ele>1146.800048828125</ele>
        <time>2021-09-25T08:18:27.000Z</time>
      </trkpt>
      <trkpt lat="40.5938935093581676483154296875" lon="-1.403200328350067138671875">
        <ele>1147.5999755859375</ele>
        <time>2021-09-25T08:18:29.000Z</time>
      </trkpt>
      <trkpt lat="40.5938951857388019561767578125" lon="-1.4031441695988178253173828125">
        <ele>1148</ele>
        <time>2021-09-25T08:18:30.000Z</time>
      </trkpt>
      <trkpt lat="40.593898035585880279541015625" lon="-1.40308960340917110443115234375">
        <ele>1148.4000244140625</ele>
        <time>2021-09-25T08:18:31.000Z</time>
      </trkpt>
      <trkpt lat="40.5939005501568317413330078125" lon="-1.40303730033338069915771484375">
        <ele>1148.800048828125</ele>
        <time>2021-09-25T08:18:32.000Z</time>
      </trkpt>
      <trkpt lat="40.59390298090875148773193359375" lon="-1.4029862545430660247802734375">
        <ele>1148.800048828125</ele>
        <time>2021-09-25T08:18:33.000Z</time>
      </trkpt>
      <trkpt lat="40.5939069204032421112060546875" lon="-1.4028856717050075531005859375">
        <ele>1148.800048828125</ele>
        <time>2021-09-25T08:18:35.000Z</time>
      </trkpt>
      <trkpt lat="40.59391236864030361175537109375" lon="-1.402784921228885650634765625">
        <ele>1149</ele>
        <time>2021-09-25T08:18:37.000Z</time>
      </trkpt>
      <trkpt lat="40.59391974471509456634521484375" lon="-1.4026851765811443328857421875">
        <ele>1149.4000244140625</ele>
        <time>2021-09-25T08:18:39.000Z</time>
      </trkpt>
      <trkpt lat="40.593929551541805267333984375" lon="-1.40258870087563991546630859375">
        <ele>1150</ele>
        <time>2021-09-25T08:18:41.000Z</time>
      </trkpt>
      <trkpt lat="40.59393617324531078338623046875" lon="-1.40249867923557758331298828125">
        <ele>1150.5999755859375</ele>
        <time>2021-09-25T08:18:43.000Z</time>
      </trkpt>
      <trkpt lat="40.59393835254013538360595703125" lon="-1.40241351909935474395751953125">
        <ele>1151</ele>
        <time>2021-09-25T08:18:45.000Z</time>
      </trkpt>
      <trkpt lat="40.59393533505499362945556640625" lon="-1.40233774669468402862548828125">
        <ele>1151.199951171875</ele>
        <time>2021-09-25T08:18:47.000Z</time>
      </trkpt>
      <trkpt lat="40.593937598168849945068359375" lon="-1.40230203978717327117919921875">
        <ele>1151.4000244140625</ele>
        <time>2021-09-25T08:18:48.000Z</time>
      </trkpt>
      <trkpt lat="40.5939397774636745452880859375" lon="-1.40226700343191623687744140625">
        <ele>1151.5999755859375</ele>
        <time>2021-09-25T08:18:49.000Z</time>
      </trkpt>
      <trkpt lat="40.59393860399723052978515625" lon="-1.40219592489302158355712890625">
        <ele>1151.800048828125</ele>
        <time>2021-09-25T08:18:51.000Z</time>
      </trkpt>
      <trkpt lat="40.5939392745494842529296875" lon="-1.40212300233542919158935546875">
        <ele>1151.800048828125</ele>
        <time>2021-09-25T08:18:53.000Z</time>
      </trkpt>
      <trkpt lat="40.593940950930118560791015625" lon="-1.40205343253910541534423828125">
        <ele>1152</ele>
        <time>2021-09-25T08:18:55.000Z</time>
      </trkpt>
      <trkpt lat="40.59394287876784801483154296875" lon="-1.4020161330699920654296875">
        <ele>1152</ele>
        <time>2021-09-25T08:18:56.000Z</time>
      </trkpt>
      <trkpt lat="40.59394237585365772247314453125" lon="-1.40197950415313243865966796875">
        <ele>1152</ele>
        <time>2021-09-25T08:18:57.000Z</time>
      </trkpt>
      <trkpt lat="40.59394438751041889190673828125" lon="-1.40190574340522289276123046875">
        <ele>1152.199951171875</ele>
        <time>2021-09-25T08:18:59.000Z</time>
      </trkpt>
      <trkpt lat="40.59394572861492633819580078125" lon="-1.40182971954345703125">
        <ele>1152.5999755859375</ele>
        <time>2021-09-25T08:19:01.000Z</time>
      </trkpt>
      <trkpt lat="40.5939531885087490081787109375" lon="-1.40175889246165752410888671875">
        <ele>1153</ele>
        <time>2021-09-25T08:19:03.000Z</time>
      </trkpt>
      <trkpt lat="40.5939562059938907623291015625" lon="-1.40172704122960567474365234375">
        <ele>1153.4000244140625</ele>
        <time>2021-09-25T08:19:04.000Z</time>
      </trkpt>
      <trkpt lat="40.5939612351357936859130859375" lon="-1.4016900770366191864013671875">
        <ele>1153.5999755859375</ele>
        <time>2021-09-25T08:19:05.000Z</time>
      </trkpt>
      <trkpt lat="40.593964420258998870849609375" lon="-1.40161958523094654083251953125">
        <ele>1154</ele>
        <time>2021-09-25T08:19:07.000Z</time>
      </trkpt>
      <trkpt lat="40.59396819211542606353759765625" lon="-1.4015516079962253570556640625">
        <ele>1154.5999755859375</ele>
        <time>2021-09-25T08:19:09.000Z</time>
      </trkpt>
      <trkpt lat="40.59397053904831409454345703125" lon="-1.40148648060858249664306640625">
        <ele>1155.199951171875</ele>
        <time>2021-09-25T08:19:11.000Z</time>
      </trkpt>
      <trkpt lat="40.5939709581434726715087890625" lon="-1.40145622193813323974609375">
        <ele>1155.4000244140625</ele>
        <time>2021-09-25T08:19:12.000Z</time>
      </trkpt>
      <trkpt lat="40.5939696170389652252197265625" lon="-1.4014255441725254058837890625">
        <ele>1155.5999755859375</ele>
        <time>2021-09-25T08:19:13.000Z</time>
      </trkpt>
      <trkpt lat="40.59397422708570957183837890625" lon="-1.40136728994548320770263671875">
        <ele>1156</ele>
        <time>2021-09-25T08:19:15.000Z</time>
      </trkpt>
      <trkpt lat="40.59397925622761249542236328125" lon="-1.40130610205233097076416015625">
        <ele>1156.4000244140625</ele>
        <time>2021-09-25T08:19:17.000Z</time>
      </trkpt>
      <trkpt lat="40.59398110024631023406982421875" lon="-1.401275508105754852294921875">
        <ele>1156.4000244140625</ele>
        <time>2021-09-25T08:19:18.000Z</time>
      </trkpt>
      <trkpt lat="40.59398353099822998046875" lon="-1.40124491415917873382568359375">
        <ele>1156.5999755859375</ele>
        <time>2021-09-25T08:19:19.000Z</time>
      </trkpt>
      <trkpt lat="40.59398579411208629608154296875" lon="-1.401185654103755950927734375">
        <ele>1157</ele>
        <time>2021-09-25T08:19:21.000Z</time>
      </trkpt>
      <trkpt lat="40.59399099089205265045166015625" lon="-1.40112203545868396759033203125">
        <ele>1157.4000244140625</ele>
        <time>2021-09-25T08:19:23.000Z</time>
      </trkpt>
      <trkpt lat="40.59399350546300411224365234375" lon="-1.40105632133781909942626953125">
        <ele>1157.5999755859375</ele>
        <time>2021-09-25T08:19:25.000Z</time>
      </trkpt>
      <trkpt lat="40.59399451129138469696044921875" lon="-1.4009916968643665313720703125">
        <ele>1157.800048828125</ele>
        <time>2021-09-25T08:19:27.000Z</time>
      </trkpt>
      <trkpt lat="40.59399937279522418975830078125" lon="-1.40093126334249973297119140625">
        <ele>1158.4000244140625</ele>
        <time>2021-09-25T08:19:29.000Z</time>
      </trkpt>
      <trkpt lat="40.59400926344096660614013671875" lon="-1.40086890198290348052978515625">
        <ele>1159.4000244140625</ele>
        <time>2021-09-25T08:19:31.000Z</time>
      </trkpt>
      <trkpt lat="40.59400976635515689849853515625" lon="-1.400797069072723388671875">
        <ele>1160</ele>
        <time>2021-09-25T08:19:33.000Z</time>
      </trkpt>
      <trkpt lat="40.594012700021266937255859375" lon="-1.40072775073349475860595703125">
        <ele>1160.4000244140625</ele>
        <time>2021-09-25T08:19:35.000Z</time>
      </trkpt>
      <trkpt lat="40.59401747770607471466064453125" lon="-1.4006624557077884674072265625">
        <ele>1160.800048828125</ele>
        <time>2021-09-25T08:19:37.000Z</time>
      </trkpt>
      <trkpt lat="40.5940252728760242462158203125" lon="-1.4005977474153041839599609375">
        <ele>1161.199951171875</ele>
        <time>2021-09-25T08:19:39.000Z</time>
      </trkpt>
      <trkpt lat="40.5940299667418003082275390625" lon="-1.40052138827741146087646484375">
        <ele>1161.5999755859375</ele>
        <time>2021-09-25T08:19:41.000Z</time>
      </trkpt>
      <trkpt lat="40.59403918683528900146484375" lon="-1.4004361443221569061279296875">
        <ele>1162</ele>
        <time>2021-09-25T08:19:43.000Z</time>
      </trkpt>
      <trkpt lat="40.594051592051982879638671875" lon="-1.40033933334052562713623046875">
        <ele>1162.4000244140625</ele>
        <time>2021-09-25T08:19:45.000Z</time>
      </trkpt>
      <trkpt lat="40.5940631590783596038818359375" lon="-1.40024545602500438690185546875">
        <ele>1162.5999755859375</ele>
        <time>2021-09-25T08:19:47.000Z</time>
      </trkpt>
      <trkpt lat="40.5940688587725162506103515625" lon="-1.40015325509011745452880859375">
        <ele>1161.4000244140625</ele>
        <time>2021-09-25T08:19:49.000Z</time>
      </trkpt>
      <trkpt lat="40.594066679477691650390625" lon="-1.400067508220672607421875">
        <ele>1160.4000244140625</ele>
        <time>2021-09-25T08:19:51.000Z</time>
      </trkpt>
      <trkpt lat="40.59406726621091365814208984375" lon="-1.3999908976256847381591796875">
        <ele>1159.800048828125</ele>
        <time>2021-09-25T08:19:53.000Z</time>
      </trkpt>
      <trkpt lat="40.5940832756459712982177734375" lon="-1.39992945827543735504150390625">
        <ele>1159.4000244140625</ele>
        <time>2021-09-25T08:19:55.000Z</time>
      </trkpt>
      <trkpt lat="40.594098865985870361328125" lon="-1.39988117851316928863525390625">
        <ele>1159</ele>
        <time>2021-09-25T08:19:57.000Z</time>
      </trkpt>
      <trkpt lat="40.5941164679825305938720703125" lon="-1.3998363353312015533447265625">
        <ele>1158.5999755859375</ele>
        <time>2021-09-25T08:19:59.000Z</time>
      </trkpt>
      <trkpt lat="40.5941352434456348419189453125" lon="-1.39980037696659564971923828125">
        <ele>1158.4000244140625</ele>
        <time>2021-09-25T08:20:01.000Z</time>
      </trkpt>
      <trkpt lat="40.5941419489681720733642578125" lon="-1.399774812161922454833984375">
        <ele>1158.199951171875</ele>
        <time>2021-09-25T08:20:03.000Z</time>
      </trkpt>
      <trkpt lat="40.5941419489681720733642578125" lon="-1.399774812161922454833984375">
        <ele>1158.199951171875</ele>
        <time>2021-09-25T08:20:04.000Z</time>
      </trkpt>
      <trkpt lat="40.59416256844997406005859375" lon="-1.39974438585340976715087890625">
        <ele>1158.199951171875</ele>
        <time>2021-09-25T08:20:47.000Z</time>
      </trkpt>
      <trkpt lat="40.594174973666667938232421875" lon="-1.399717815220355987548828125">
        <ele>1158</ele>
        <time>2021-09-25T08:20:48.000Z</time>
      </trkpt>
      <trkpt lat="40.5941887199878692626953125" lon="-1.39967850409448146820068359375">
        <ele>1157.800048828125</ele>
        <time>2021-09-25T08:20:49.000Z</time>
      </trkpt>
      <trkpt lat="40.59420942328870296478271484375" lon="-1.39962201006710529327392578125">
        <ele>1157.4000244140625</ele>
        <time>2021-09-25T08:20:50.000Z</time>
      </trkpt>
      <trkpt lat="40.59423230588436126708984375" lon="-1.39955780468881130218505859375">
        <ele>1157</ele>
        <time>2021-09-25T08:20:51.000Z</time>
      </trkpt>
      <trkpt lat="40.594256110489368438720703125" lon="-1.39948924072086811065673828125">
        <ele>1156.5999755859375</ele>
        <time>2021-09-25T08:20:52.000Z</time>
      </trkpt>
      <trkpt lat="40.594282262027263641357421875" lon="-1.39941371977329254150390625">
        <ele>1156.199951171875</ele>
        <time>2021-09-25T08:20:53.000Z</time>
      </trkpt>
      <trkpt lat="40.59434051625430583953857421875" lon="-1.39926753938198089599609375">
        <ele>1156.5999755859375</ele>
        <time>2021-09-25T08:20:55.000Z</time>
      </trkpt>
      <trkpt lat="40.5943903885781764984130859375" lon="-1.3991211913526058197021484375">
        <ele>1156.4000244140625</ele>
        <time>2021-09-25T08:20:57.000Z</time>
      </trkpt>
      <trkpt lat="40.5944426916539669036865234375" lon="-1.39895162545144557952880859375">
        <ele>1155.5999755859375</ele>
        <time>2021-09-25T08:20:59.000Z</time>
      </trkpt>
      <trkpt lat="40.59449516236782073974609375" lon="-1.39875984750688076019287109375">
        <ele>1153.800048828125</ele>
        <time>2021-09-25T08:21:01.000Z</time>
      </trkpt>
      <trkpt lat="40.59452692978084087371826171875" lon="-1.3986595161259174346923828125">
        <ele>1153</ele>
        <time>2021-09-25T08:21:02.000Z</time>
      </trkpt>
      <trkpt lat="40.59456045739352703094482421875" lon="-1.39855734072625637054443359375">
        <ele>1152.199951171875</ele>
        <time>2021-09-25T08:21:03.000Z</time>
      </trkpt>
      <trkpt lat="40.59459306299686431884765625" lon="-1.39844820834696292877197265625">
        <ele>1151</ele>
        <time>2021-09-25T08:21:04.000Z</time>
      </trkpt>
      <trkpt lat="40.594625584781169891357421875" lon="-1.3983353041112422943115234375">
        <ele>1150.800048828125</ele>
        <time>2021-09-25T08:21:05.000Z</time>
      </trkpt>
      <trkpt lat="40.59468199498951435089111328125" lon="-1.39809868298470973968505859375">
        <ele>1149.800048828125</ele>
        <time>2021-09-25T08:21:07.000Z</time>
      </trkpt>
      <trkpt lat="40.5947384051978588104248046875" lon="-1.39785426668822765350341796875">
        <ele>1149.4000244140625</ele>
        <time>2021-09-25T08:21:09.000Z</time>
      </trkpt>
      <trkpt lat="40.5947692506015300750732421875" lon="-1.3977291248738765716552734375">
        <ele>1149.4000244140625</ele>
        <time>2021-09-25T08:21:10.000Z</time>
      </trkpt>
      <trkpt lat="40.5948044545948505401611328125" lon="-1.3975983671844005584716796875">
        <ele>1149.199951171875</ele>
        <time>2021-09-25T08:21:11.000Z</time>
      </trkpt>
      <trkpt lat="40.594839155673980712890625" lon="-1.39746568165719509124755859375">
        <ele>1148.800048828125</ele>
        <time>2021-09-25T08:21:12.000Z</time>
      </trkpt>
      <trkpt lat="40.5948758684098720550537109375" lon="-1.3973311521112918853759765625">
        <ele>1148.199951171875</ele>
        <time>2021-09-25T08:21:13.000Z</time>
      </trkpt>
      <trkpt lat="40.59491333551704883575439453125" lon="-1.39719561673700809478759765625">
        <ele>1148</ele>
        <time>2021-09-25T08:21:14.000Z</time>
      </trkpt>
      <trkpt lat="40.594950132071971893310546875" lon="-1.3970602490007877349853515625">
        <ele>1147.5999755859375</ele>
        <time>2021-09-25T08:21:15.000Z</time>
      </trkpt>
      <trkpt lat="40.5949838273227214813232421875" lon="-1.39692018739879131317138671875">
        <ele>1147.199951171875</ele>
        <time>2021-09-25T08:21:16.000Z</time>
      </trkpt>
      <trkpt lat="40.59501609764993190765380859375" lon="-1.39677417464554309844970703125">
        <ele>1146.199951171875</ele>
        <time>2021-09-25T08:21:17.000Z</time>
      </trkpt>
      <trkpt lat="40.595074184238910675048828125" lon="-1.39648080803453922271728515625">
        <ele>1143.5999755859375</ele>
        <time>2021-09-25T08:21:19.000Z</time>
      </trkpt>
      <trkpt lat="40.59510176070034503936767578125" lon="-1.39633110724389553070068359375">
        <ele>1142.199951171875</ele>
        <time>2021-09-25T08:21:20.000Z</time>
      </trkpt>
      <trkpt lat="40.59512791223824024200439453125" lon="-1.396182663738727569580078125">
        <ele>1141.5999755859375</ele>
        <time>2021-09-25T08:21:21.000Z</time>
      </trkpt>
      <trkpt lat="40.59515238739550113677978515625" lon="-1.39603815972805023193359375">
        <ele>1140.800048828125</ele>
        <time>2021-09-25T08:21:22.000Z</time>
      </trkpt>
      <trkpt lat="40.595170073211193084716796875" lon="-1.39589575119316577911376953125">
        <ele>1139.800048828125</ele>
        <time>2021-09-25T08:21:23.000Z</time>
      </trkpt>
      <trkpt lat="40.5951809696853160858154296875" lon="-1.39575250446796417236328125">
        <ele>1138.800048828125</ele>
        <time>2021-09-25T08:21:24.000Z</time>
      </trkpt>
      <trkpt lat="40.5951779522001743316650390625" lon="-1.39560339041054248809814453125">
        <ele>1137.800048828125</ele>
        <time>2021-09-25T08:21:25.000Z</time>
      </trkpt>
      <trkpt lat="40.59516169130802154541015625" lon="-1.3954525999724864959716796875">
        <ele>1136.199951171875</ele>
        <time>2021-09-25T08:21:26.000Z</time>
      </trkpt>
      <trkpt lat="40.5951353721320629119873046875" lon="-1.39530532993376255035400390625">
        <ele>1135</ele>
        <time>2021-09-25T08:21:27.000Z</time>
      </trkpt>
      <trkpt lat="40.59506605379283428192138671875" lon="-1.39499939046800136566162109375">
        <ele>1134</ele>
        <time>2021-09-25T08:21:29.000Z</time>
      </trkpt>
      <trkpt lat="40.59502565301954746246337890625" lon="-1.3948450796306133270263671875">
        <ele>1133</ele>
        <time>2021-09-25T08:21:30.000Z</time>
      </trkpt>
      <trkpt lat="40.59497854672372341156005859375" lon="-1.39469546265900135040283203125">
        <ele>1132</ele>
        <time>2021-09-25T08:21:31.000Z</time>
      </trkpt>
      <trkpt lat="40.5949218012392520904541015625" lon="-1.39454861171543598175048828125">
        <ele>1131</ele>
        <time>2021-09-25T08:21:32.000Z</time>
      </trkpt>
      <trkpt lat="40.59485348872840404510498046875" lon="-1.3944112323224544525146484375">
        <ele>1130</ele>
        <time>2021-09-25T08:21:33.000Z</time>
      </trkpt>
      <trkpt lat="40.59477486647665500640869140625" lon="-1.3942828215658664703369140625">
        <ele>1129.5999755859375</ele>
        <time>2021-09-25T08:21:34.000Z</time>
      </trkpt>
      <trkpt lat="40.59468300081789493560791015625" lon="-1.39416723512113094329833984375">
        <ele>1129.199951171875</ele>
        <time>2021-09-25T08:21:35.000Z</time>
      </trkpt>
      <trkpt lat="40.5944846011698246002197265625" lon="-1.39397260732948780059814453125">
        <ele>1128.5999755859375</ele>
        <time>2021-09-25T08:21:37.000Z</time>
      </trkpt>
      <trkpt lat="40.59428460896015167236328125" lon="-1.39379524625837802886962890625">
        <ele>1127.5999755859375</ele>
        <time>2021-09-25T08:21:39.000Z</time>
      </trkpt>
      <trkpt lat="40.59418494813144207000732421875" lon="-1.39371008612215518951416015625">
        <ele>1126.4000244140625</ele>
        <time>2021-09-25T08:21:40.000Z</time>
      </trkpt>
      <trkpt lat="40.594085790216922760009765625" lon="-1.39362274669110774993896484375">
        <ele>1124.800048828125</ele>
        <time>2021-09-25T08:21:41.000Z</time>
      </trkpt>
      <trkpt lat="40.5939887277781963348388671875" lon="-1.39353440143167972564697265625">
        <ele>1123.4000244140625</ele>
        <time>2021-09-25T08:21:42.000Z</time>
      </trkpt>
      <trkpt lat="40.5938923358917236328125" lon="-1.3934483192861080169677734375">
        <ele>1123.4000244140625</ele>
        <time>2021-09-25T08:21:43.000Z</time>
      </trkpt>
      <trkpt lat="40.5937057547271251678466796875" lon="-1.39328713528811931610107421875">
        <ele>1124.4000244140625</ele>
        <time>2021-09-25T08:21:45.000Z</time>
      </trkpt>
      <trkpt lat="40.59353048913180828094482421875" lon="-1.39314078725874423980712890625">
        <ele>1125.4000244140625</ele>
        <time>2021-09-25T08:21:47.000Z</time>
      </trkpt>
      <trkpt lat="40.59344516135752201080322265625" lon="-1.39306987635791301727294921875">
        <ele>1125.4000244140625</ele>
        <time>2021-09-25T08:21:48.000Z</time>
      </trkpt>
      <trkpt lat="40.59336352162063121795654296875" lon="-1.39299930073320865631103515625">
        <ele>1125.4000244140625</ele>
        <time>2021-09-25T08:21:49.000Z</time>
      </trkpt>
      <trkpt lat="40.5932876653969287872314453125" lon="-1.39292947947978973388671875">
        <ele>1125.800048828125</ele>
        <time>2021-09-25T08:21:50.000Z</time>
      </trkpt>
      <trkpt lat="40.5932112224400043487548828125" lon="-1.39286535792052745819091796875">
        <ele>1126.199951171875</ele>
        <time>2021-09-25T08:21:51.000Z</time>
      </trkpt>
      <trkpt lat="40.5930657126009464263916015625" lon="-1.3927383720874786376953125">
        <ele>1126</ele>
        <time>2021-09-25T08:21:53.000Z</time>
      </trkpt>
      <trkpt lat="40.59291726909577846527099609375" lon="-1.39261691831052303314208984375">
        <ele>1125.5999755859375</ele>
        <time>2021-09-25T08:21:55.000Z</time>
      </trkpt>
      <trkpt lat="40.5927676521241664886474609375" lon="-1.39249655418097972869873046875">
        <ele>1125.199951171875</ele>
        <time>2021-09-25T08:21:57.000Z</time>
      </trkpt>
      <trkpt lat="40.59269447810947895050048828125" lon="-1.3924354501068592071533203125">
        <ele>1125.4000244140625</ele>
        <time>2021-09-25T08:21:58.000Z</time>
      </trkpt>
      <trkpt lat="40.59262189082801342010498046875" lon="-1.39236579649150371551513671875">
        <ele>1125.5999755859375</ele>
        <time>2021-09-25T08:21:59.000Z</time>
      </trkpt>
      <trkpt lat="40.59247621335089206695556640625" lon="-1.3922155089676380157470703125">
        <ele>1125</ele>
        <time>2021-09-25T08:22:01.000Z</time>
      </trkpt>
      <trkpt lat="40.5923324637115001678466796875" lon="-1.3920629583299160003662109375">
        <ele>1124.5999755859375</ele>
        <time>2021-09-25T08:22:03.000Z</time>
      </trkpt>
      <trkpt lat="40.59225828386843204498291015625" lon="-1.39198911376297473907470703125">
        <ele>1124.4000244140625</ele>
        <time>2021-09-25T08:22:04.000Z</time>
      </trkpt>
      <trkpt lat="40.59218536131083965301513671875" lon="-1.3919181190431118011474609375">
        <ele>1123.800048828125</ele>
        <time>2021-09-25T08:22:05.000Z</time>
      </trkpt>
      <trkpt lat="40.59203851036727428436279296875" lon="-1.39178660698235034942626953125">
        <ele>1122.5999755859375</ele>
        <time>2021-09-25T08:22:07.000Z</time>
      </trkpt>
      <trkpt lat="40.5918925814330577850341796875" lon="-1.3916663266718387603759765625">
        <ele>1121.800048828125</ele>
        <time>2021-09-25T08:22:09.000Z</time>
      </trkpt>
      <trkpt lat="40.5918231792747974395751953125" lon="-1.39160924591124057769775390625">
        <ele>1121.800048828125</ele>
        <time>2021-09-25T08:22:10.000Z</time>
      </trkpt>
      <trkpt lat="40.59175402857363224029541015625" lon="-1.39155241660773754119873046875">
        <ele>1121.800048828125</ele>
        <time>2021-09-25T08:22:11.000Z</time>
      </trkpt>
      <trkpt lat="40.5916176550090312957763671875" lon="-1.39144160784780979156494140625">
        <ele>1121.4000244140625</ele>
        <time>2021-09-25T08:22:13.000Z</time>
      </trkpt>
      <trkpt lat="40.59148178435862064361572265625" lon="-1.391318142414093017578125">
        <ele>1121.4000244140625</ele>
        <time>2021-09-25T08:22:15.000Z</time>
      </trkpt>
      <trkpt lat="40.59134951792657375335693359375" lon="-1.3911888934671878814697265625">
        <ele>1121</ele>
        <time>2021-09-25T08:22:17.000Z</time>
      </trkpt>
      <trkpt lat="40.59128564782440662384033203125" lon="-1.391129381954669952392578125">
        <ele>1120.4000244140625</ele>
        <time>2021-09-25T08:22:18.000Z</time>
      </trkpt>
      <trkpt lat="40.59122127480804920196533203125" lon="-1.3910698704421520233154296875">
        <ele>1119.5999755859375</ele>
        <time>2021-09-25T08:22:19.000Z</time>
      </trkpt>
      <trkpt lat="40.59109470807015895843505859375" lon="-1.39095361344516277313232421875">
        <ele>1119.4000244140625</ele>
        <time>2021-09-25T08:22:21.000Z</time>
      </trkpt>
      <trkpt lat="40.59097048826515674591064453125" lon="-1.39083643443882465362548828125">
        <ele>1118.800048828125</ele>
        <time>2021-09-25T08:22:23.000Z</time>
      </trkpt>
      <trkpt lat="40.590846352279186248779296875" lon="-1.3907265476882457733154296875">
        <ele>1117.5999755859375</ele>
        <time>2021-09-25T08:22:25.000Z</time>
      </trkpt>
      <trkpt lat="40.59072531759738922119140625" lon="-1.39061632566154003143310546875">
        <ele>1116.4000244140625</ele>
        <time>2021-09-25T08:22:27.000Z</time>
      </trkpt>
      <trkpt lat="40.59060403145849704742431640625" lon="-1.390513144433498382568359375">
        <ele>1114.5999755859375</ele>
        <time>2021-09-25T08:22:29.000Z</time>
      </trkpt>
      <trkpt lat="40.59048433788120746612548828125" lon="-1.39041423797607421875">
        <ele>1113.800048828125</ele>
        <time>2021-09-25T08:22:31.000Z</time>
      </trkpt>
      <trkpt lat="40.5903623811900615692138671875" lon="-1.39032379724085330963134765625">
        <ele>1113</ele>
        <time>2021-09-25T08:22:33.000Z</time>
      </trkpt>
      <trkpt lat="40.5902463756501674652099609375" lon="-1.39023763127624988555908203125">
        <ele>1113</ele>
        <time>2021-09-25T08:22:35.000Z</time>
      </trkpt>
      <trkpt lat="40.59012978337705135345458984375" lon="-1.39015615917742252349853515625">
        <ele>1114.4000244140625</ele>
        <time>2021-09-25T08:22:37.000Z</time>
      </trkpt>
      <trkpt lat="40.59001964516937732696533203125" lon="-1.39007099904119968414306640625">
        <ele>1114.5999755859375</ele>
        <time>2021-09-25T08:22:39.000Z</time>
      </trkpt>
      <trkpt lat="40.58991604484617710113525390625" lon="-1.38998500071465969085693359375">
        <ele>1115.4000244140625</ele>
        <time>2021-09-25T08:22:41.000Z</time>
      </trkpt>
      <trkpt lat="40.5898195691406726837158203125" lon="-1.389890871942043304443359375">
        <ele>1117</ele>
        <time>2021-09-25T08:22:43.000Z</time>
      </trkpt>
      <trkpt lat="40.589731894433498382568359375" lon="-1.38978593051433563232421875">
        <ele>1117.4000244140625</ele>
        <time>2021-09-25T08:22:45.000Z</time>
      </trkpt>
      <trkpt lat="40.58964547701179981231689453125" lon="-1.38967101462185382843017578125">
        <ele>1118</ele>
        <time>2021-09-25T08:22:47.000Z</time>
      </trkpt>
      <trkpt lat="40.5896033160388469696044921875" lon="-1.38961024582386016845703125">
        <ele>1118.4000244140625</ele>
        <time>2021-09-25T08:22:48.000Z</time>
      </trkpt>
      <trkpt lat="40.5895580537617206573486328125" lon="-1.3895497284829616546630859375">
        <ele>1118.4000244140625</ele>
        <time>2021-09-25T08:22:49.000Z</time>
      </trkpt>
      <trkpt lat="40.58946669101715087890625" lon="-1.38943548314273357391357421875">
        <ele>1117.800048828125</ele>
        <time>2021-09-25T08:22:51.000Z</time>
      </trkpt>
      <trkpt lat="40.58942352421581745147705078125" lon="-1.3893773965537548065185546875">
        <ele>1117.5999755859375</ele>
        <time>2021-09-25T08:22:52.000Z</time>
      </trkpt>
      <trkpt lat="40.5893820337951183319091796875" lon="-1.3893131911754608154296875">
        <ele>1117.5999755859375</ele>
        <time>2021-09-25T08:22:53.000Z</time>
      </trkpt>
      <trkpt lat="40.5893421359360218048095703125" lon="-1.3892488181591033935546875">
        <ele>1117.4000244140625</ele>
        <time>2021-09-25T08:22:54.000Z</time>
      </trkpt>
      <trkpt lat="40.589303411543369293212890625" lon="-1.38918234966695308685302734375">
        <ele>1116.5999755859375</ele>
        <time>2021-09-25T08:22:55.000Z</time>
      </trkpt>
      <trkpt lat="40.58924281038343906402587890625" lon="-1.389033906161785125732421875">
        <ele>1115.800048828125</ele>
        <time>2021-09-25T08:22:57.000Z</time>
      </trkpt>
      <trkpt lat="40.5892174132168292999267578125" lon="-1.388959474861621856689453125">
        <ele>1115.4000244140625</ele>
        <time>2021-09-25T08:22:58.000Z</time>
      </trkpt>
      <trkpt lat="40.589190423488616943359375" lon="-1.388879679143428802490234375">
        <ele>1115</ele>
        <time>2021-09-25T08:22:59.000Z</time>
      </trkpt>
      <trkpt lat="40.58913744986057281494140625" lon="-1.38871564529836177825927734375">
        <ele>1115.199951171875</ele>
        <time>2021-09-25T08:23:01.000Z</time>
      </trkpt>
      <trkpt lat="40.5890822969377040863037109375" lon="-1.38854264281690120697021484375">
        <ele>1115</ele>
        <time>2021-09-25T08:23:03.000Z</time>
      </trkpt>
      <trkpt lat="40.58905606158077716827392578125" lon="-1.3884523697197437286376953125">
        <ele>1115</ele>
        <time>2021-09-25T08:23:04.000Z</time>
      </trkpt>
      <trkpt lat="40.58902873657643795013427734375" lon="-1.38836167752742767333984375">
        <ele>1114.199951171875</ele>
        <time>2021-09-25T08:23:05.000Z</time>
      </trkpt>
      <trkpt lat="40.588970482349395751953125" lon="-1.38818691484630107879638671875">
        <ele>1113.800048828125</ele>
        <time>2021-09-25T08:23:07.000Z</time>
      </trkpt>
      <trkpt lat="40.58890971355140209197998046875" lon="-1.3880235515534877777099609375">
        <ele>1114</ele>
        <time>2021-09-25T08:23:09.000Z</time>
      </trkpt>
      <trkpt lat="40.58885707519948482513427734375" lon="-1.38786546885967254638671875">
        <ele>1113.800048828125</ele>
        <time>2021-09-25T08:23:11.000Z</time>
      </trkpt>
      <trkpt lat="40.5888030119240283966064453125" lon="-1.38771199621260166168212890625">
        <ele>1113.199951171875</ele>
        <time>2021-09-25T08:23:13.000Z</time>
      </trkpt>
      <trkpt lat="40.58877577073872089385986328125" lon="-1.387629099190235137939453125">
        <ele>1113.4000244140625</ele>
        <time>2021-09-25T08:23:14.000Z</time>
      </trkpt>
      <trkpt lat="40.58874894864857196807861328125" lon="-1.38754838146269321441650390625">
        <ele>1112.5999755859375</ele>
        <time>2021-09-25T08:23:15.000Z</time>
      </trkpt>
      <trkpt lat="40.58870268054306507110595703125" lon="-1.38738074339926242828369140625">
        <ele>1110.5999755859375</ele>
        <time>2021-09-25T08:23:17.000Z</time>
      </trkpt>
      <trkpt lat="40.5886588431894779205322265625" lon="-1.38721696101129055023193359375">
        <ele>1109.5999755859375</ele>
        <time>2021-09-25T08:23:19.000Z</time>
      </trkpt>
      <trkpt lat="40.588626824319362640380859375" lon="-1.38705275952816009521484375">
        <ele>1109.4000244140625</ele>
        <time>2021-09-25T08:23:21.000Z</time>
      </trkpt>
      <trkpt lat="40.58860159479081630706787109375" lon="-1.3868913240730762481689453125">
        <ele>1109.5999755859375</ele>
        <time>2021-09-25T08:23:23.000Z</time>
      </trkpt>
      <trkpt lat="40.58858935721218585968017578125" lon="-1.38680909760296344757080078125">
        <ele>1109.4000244140625</ele>
        <time>2021-09-25T08:23:24.000Z</time>
      </trkpt>
      <trkpt lat="40.5885790474712848663330078125" lon="-1.38672460801899433135986328125">
        <ele>1109.199951171875</ele>
        <time>2021-09-25T08:23:25.000Z</time>
      </trkpt>
      <trkpt lat="40.588559769093990325927734375" lon="-1.3865550421178340911865234375">
        <ele>1109.800048828125</ele>
        <time>2021-09-25T08:23:27.000Z</time>
      </trkpt>
      <trkpt lat="40.588538311421871185302734375" lon="-1.38638447038829326629638671875">
        <ele>1110.5999755859375</ele>
        <time>2021-09-25T08:23:29.000Z</time>
      </trkpt>
      <trkpt lat="40.58851526118814945220947265625" lon="-1.38621498830616474151611328125">
        <ele>1111.199951171875</ele>
        <time>2021-09-25T08:23:31.000Z</time>
      </trkpt>
      <trkpt lat="40.58850285597145557403564453125" lon="-1.3861346058547496795654296875">
        <ele>1111.5999755859375</ele>
        <time>2021-09-25T08:23:32.000Z</time>
      </trkpt>
      <trkpt lat="40.588488690555095672607421875" lon="-1.38605740852653980255126953125">
        <ele>1112.199951171875</ele>
        <time>2021-09-25T08:23:33.000Z</time>
      </trkpt>
      <trkpt lat="40.58846555650234222412109375" lon="-1.3859082944691181182861328125">
        <ele>1113.4000244140625</ele>
        <time>2021-09-25T08:23:35.000Z</time>
      </trkpt>
      <trkpt lat="40.5884462781250476837158203125" lon="-1.385779045522212982177734375">
        <ele>1114.5999755859375</ele>
        <time>2021-09-25T08:23:37.000Z</time>
      </trkpt>
      <trkpt lat="40.58843613602221012115478515625" lon="-1.38572179712355136871337890625">
        <ele>1115.199951171875</ele>
        <time>2021-09-25T08:23:38.000Z</time>
      </trkpt>
      <trkpt lat="40.58842825703322887420654296875" lon="-1.3856672309339046478271484375">
        <ele>1115.4000244140625</ele>
        <time>2021-09-25T08:23:39.000Z</time>
      </trkpt>
      <trkpt lat="40.58841031976044178009033203125" lon="-1.38556321151554584503173828125">
        <ele>1115.800048828125</ele>
        <time>2021-09-25T08:23:41.000Z</time>
      </trkpt>
      <trkpt lat="40.588390789926052093505859375" lon="-1.385461874306201934814453125">
        <ele>1116</ele>
        <time>2021-09-25T08:23:43.000Z</time>
      </trkpt>
      <trkpt lat="40.5883624590933322906494140625" lon="-1.38537897728383541107177734375">
        <ele>1115.5999755859375</ele>
        <time>2021-09-25T08:23:45.000Z</time>
      </trkpt>
      <trkpt lat="40.58834175579249858856201171875" lon="-1.38534897007048130035400390625">
        <ele>1115.4000244140625</ele>
        <time>2021-09-25T08:23:46.000Z</time>
      </trkpt>
      <trkpt lat="40.588316023349761962890625" lon="-1.3853302784264087677001953125">
        <ele>1115.199951171875</ele>
        <time>2021-09-25T08:23:47.000Z</time>
      </trkpt>
      <trkpt lat="40.5882890336215496063232421875" lon="-1.38532139360904693603515625">
        <ele>1115</ele>
        <time>2021-09-25T08:23:48.000Z</time>
      </trkpt>
      <trkpt lat="40.58826313354074954986572265625" lon="-1.3853286020457744598388671875">
        <ele>1114.5999755859375</ele>
        <time>2021-09-25T08:23:49.000Z</time>
      </trkpt>
      <trkpt lat="40.58822306804358959197998046875" lon="-1.3853762112557888031005859375">
        <ele>1114</ele>
        <time>2021-09-25T08:23:51.000Z</time>
      </trkpt>
      <trkpt lat="40.588213764131069183349609375" lon="-1.38540395535528659820556640625">
        <ele>1113.800048828125</ele>
        <time>2021-09-25T08:23:52.000Z</time>
      </trkpt>
      <trkpt lat="40.5882052145898342132568359375" lon="-1.38542868196964263916015625">
        <ele>1113.5999755859375</ele>
        <time>2021-09-25T08:23:53.000Z</time>
      </trkpt>
      <trkpt lat="40.5881830863654613494873046875" lon="-1.38549347408115863800048828125">
        <ele>1113.199951171875</ele>
        <time>2021-09-25T08:23:55.000Z</time>
      </trkpt>
      <trkpt lat="40.58815182186663150787353515625" lon="-1.38560411520302295684814453125">
        <ele>1112.199951171875</ele>
        <time>2021-09-25T08:23:57.000Z</time>
      </trkpt>
      <trkpt lat="40.588117539882659912109375" lon="-1.3857507146894931793212890625">
        <ele>1110.800048828125</ele>
        <time>2021-09-25T08:23:59.000Z</time>
      </trkpt>
      <trkpt lat="40.58808342553675174713134765625" lon="-1.38590754009783267974853515625">
        <ele>1108.800048828125</ele>
        <time>2021-09-25T08:24:01.000Z</time>
      </trkpt>
      <trkpt lat="40.58806934393942356109619140625" lon="-1.38597358949482440948486328125">
        <ele>1108</ele>
        <time>2021-09-25T08:24:02.000Z</time>
      </trkpt>
      <trkpt lat="40.58806079439818859100341796875" lon="-1.3860293291509151458740234375">
        <ele>1107.4000244140625</ele>
        <time>2021-09-25T08:24:03.000Z</time>
      </trkpt>
      <trkpt lat="40.588042773306369781494140625" lon="-1.3861453346908092498779296875">
        <ele>1106.5999755859375</ele>
        <time>2021-09-25T08:24:05.000Z</time>
      </trkpt>
      <trkpt lat="40.5880276858806610107421875" lon="-1.38620208017528057098388671875">
        <ele>1106.199951171875</ele>
        <time>2021-09-25T08:24:06.000Z</time>
      </trkpt>
      <trkpt lat="40.588011257350444793701171875" lon="-1.386250443756580352783203125">
        <ele>1105.800048828125</ele>
        <time>2021-09-25T08:24:07.000Z</time>
      </trkpt>
      <trkpt lat="40.587977729737758636474609375" lon="-1.38634960167109966278076171875">
        <ele>1105</ele>
        <time>2021-09-25T08:24:09.000Z</time>
      </trkpt>
      <trkpt lat="40.587934143841266632080078125" lon="-1.38647281564772129058837890625">
        <ele>1104.5999755859375</ele>
        <time>2021-09-25T08:24:11.000Z</time>
      </trkpt>
      <trkpt lat="40.5879074893891811370849609375" lon="-1.38653584755957126617431640625">
        <ele>1104.4000244140625</ele>
        <time>2021-09-25T08:24:12.000Z</time>
      </trkpt>
      <trkpt lat="40.58787471614778041839599609375" lon="-1.38659267686307430267333984375">
        <ele>1104.199951171875</ele>
        <time>2021-09-25T08:24:13.000Z</time>
      </trkpt>
      <trkpt lat="40.58783481828868389129638671875" lon="-1.3866465725004673004150390625">
        <ele>1104</ele>
        <time>2021-09-25T08:24:14.000Z</time>
      </trkpt>
      <trkpt lat="40.58778687380254268646240234375" lon="-1.38670398853719234466552734375">
        <ele>1103.800048828125</ele>
        <time>2021-09-25T08:24:15.000Z</time>
      </trkpt>
      <trkpt lat="40.58769802562892436981201171875" lon="-1.38681940734386444091796875">
        <ele>1103.4000244140625</ele>
        <time>2021-09-25T08:24:17.000Z</time>
      </trkpt>
      <trkpt lat="40.587637089192867279052734375" lon="-1.38690029270946979522705078125">
        <ele>1103</ele>
        <time>2021-09-25T08:24:19.000Z</time>
      </trkpt>
      <trkpt lat="40.5876090936362743377685546875" lon="-1.38692627660930156707763671875">
        <ele>1103</ele>
        <time>2021-09-25T08:24:20.000Z</time>
      </trkpt>
      <trkpt lat="40.58758788742125034332275390625" lon="-1.386946476995944976806640625">
        <ele>1102.800048828125</ele>
        <time>2021-09-25T08:24:21.000Z</time>
      </trkpt>
      <trkpt lat="40.58756290934979915618896484375" lon="-1.3869677670300006866455078125">
        <ele>1102.800048828125</ele>
        <time>2021-09-25T08:24:23.000Z</time>
      </trkpt>
      <trkpt lat="40.58753558434545993804931640625" lon="-1.38697120361030101776123046875">
        <ele>1102.800048828125</ele>
        <time>2021-09-25T08:24:25.000Z</time>
      </trkpt>
      <trkpt lat="40.58748797513544559478759765625" lon="-1.38696852140128612518310546875">
        <ele>1102.5999755859375</ele>
        <time>2021-09-25T08:24:27.000Z</time>
      </trkpt>
      <trkpt lat="40.58741924352943897247314453125" lon="-1.38699785806238651275634765625">
        <ele>1102</ele>
        <time>2021-09-25T08:24:29.000Z</time>
      </trkpt>
      <trkpt lat="40.58734095655381679534912109375" lon="-1.3870539329946041107177734375">
        <ele>1101.199951171875</ele>
        <time>2021-09-25T08:24:31.000Z</time>
      </trkpt>
      <trkpt lat="40.58730172924697399139404296875" lon="-1.38708855025470256805419921875">
        <ele>1100.800048828125</ele>
        <time>2021-09-25T08:24:32.000Z</time>
      </trkpt>
      <trkpt lat="40.5872647650539875030517578125" lon="-1.38713515363633632659912109375">
        <ele>1100.4000244140625</ele>
        <time>2021-09-25T08:24:33.000Z</time>
      </trkpt>
      <trkpt lat="40.5871962010860443115234375" lon="-1.38724009506404399871826171875">
        <ele>1099.199951171875</ele>
        <time>2021-09-25T08:24:35.000Z</time>
      </trkpt>
      <trkpt lat="40.5871313251554965972900390625" lon="-1.387329362332820892333984375">
        <ele>1098.4000244140625</ele>
        <time>2021-09-25T08:24:37.000Z</time>
      </trkpt>
      <trkpt lat="40.5870897509157657623291015625" lon="-1.38742692768573760986328125">
        <ele>1097.800048828125</ele>
        <time>2021-09-25T08:24:39.000Z</time>
      </trkpt>
      <trkpt lat="40.5870542116463184356689453125" lon="-1.38749540783464908599853515625">
        <ele>1097.199951171875</ele>
        <time>2021-09-25T08:24:41.000Z</time>
      </trkpt>
      <trkpt lat="40.58700911700725555419921875" lon="-1.3875377364456653594970703125">
        <ele>1096.4000244140625</ele>
        <time>2021-09-25T08:24:43.000Z</time>
      </trkpt>
      <trkpt lat="40.58697952888906002044677734375" lon="-1.38757118023931980133056640625">
        <ele>1095.800048828125</ele>
        <time>2021-09-25T08:24:45.000Z</time>
      </trkpt>
      <trkpt lat="40.58693862520158290863037109375" lon="-1.38759984634816646575927734375">
        <ele>1095</ele>
        <time>2021-09-25T08:24:47.000Z</time>
      </trkpt>
      <trkpt lat="40.58687031269073486328125" lon="-1.38762901537120342254638671875">
        <ele>1094</ele>
        <time>2021-09-25T08:24:49.000Z</time>
      </trkpt>
      <trkpt lat="40.58682396076619625091552734375" lon="-1.38764209114015102386474609375">
        <ele>1093.199951171875</ele>
        <time>2021-09-25T08:24:50.000Z</time>
      </trkpt>
      <trkpt lat="40.58676696382462978363037109375" lon="-1.38765156269073486328125">
        <ele>1092.5999755859375</ele>
        <time>2021-09-25T08:24:51.000Z</time>
      </trkpt>
      <trkpt lat="40.5867038480937480926513671875" lon="-1.38765491545200347900390625">
        <ele>1091.800048828125</ele>
        <time>2021-09-25T08:24:52.000Z</time>
      </trkpt>
      <trkpt lat="40.5866374634206295013427734375" lon="-1.38765759766101837158203125">
        <ele>1091.199951171875</ele>
        <time>2021-09-25T08:24:53.000Z</time>
      </trkpt>
      <trkpt lat="40.58650695718824863433837890625" lon="-1.3876448571681976318359375">
        <ele>1090.4000244140625</ele>
        <time>2021-09-25T08:24:55.000Z</time>
      </trkpt>
      <trkpt lat="40.5864369682967662811279296875" lon="-1.38763203285634517669677734375">
        <ele>1089.5999755859375</ele>
        <time>2021-09-25T08:24:56.000Z</time>
      </trkpt>
      <trkpt lat="40.586367063224315643310546875" lon="-1.387619711458683013916015625">
        <ele>1089.199951171875</ele>
        <time>2021-09-25T08:24:57.000Z</time>
      </trkpt>
      <trkpt lat="40.58629590086638927459716796875" lon="-1.387604288756847381591796875">
        <ele>1089</ele>
        <time>2021-09-25T08:24:58.000Z</time>
      </trkpt>
      <trkpt lat="40.58623085729777812957763671875" lon="-1.38758526183664798736572265625">
        <ele>1088.5999755859375</ele>
        <time>2021-09-25T08:24:59.000Z</time>
      </trkpt>
      <trkpt lat="40.586105883121490478515625" lon="-1.38752541504800319671630859375">
        <ele>1088.199951171875</ele>
        <time>2021-09-25T08:25:01.000Z</time>
      </trkpt>
      <trkpt lat="40.58599121868610382080078125" lon="-1.38743522576987743377685546875">
        <ele>1088.800048828125</ele>
        <time>2021-09-25T08:25:03.000Z</time>
      </trkpt>
      <trkpt lat="40.58594025671482086181640625" lon="-1.38738258741796016693115234375">
        <ele>1089.199951171875</ele>
        <time>2021-09-25T08:25:04.000Z</time>
      </trkpt>
      <trkpt lat="40.585895664989948272705078125" lon="-1.387324668467044830322265625">
        <ele>1089.199951171875</ele>
        <time>2021-09-25T08:25:05.000Z</time>
      </trkpt>
      <trkpt lat="40.58585065416991710662841796875" lon="-1.38726306147873401641845703125">
        <ele>1089.199951171875</ele>
        <time>2021-09-25T08:25:06.000Z</time>
      </trkpt>
      <trkpt lat="40.58580346405506134033203125" lon="-1.38720086775720119476318359375">
        <ele>1089.4000244140625</ele>
        <time>2021-09-25T08:25:07.000Z</time>
      </trkpt>
      <trkpt lat="40.58575593866407871246337890625" lon="-1.387143619358539581298828125">
        <ele>1090.199951171875</ele>
        <time>2021-09-25T08:25:08.000Z</time>
      </trkpt>
      <trkpt lat="40.58570422232151031494140625" lon="-1.38709207065403461456298828125">
        <ele>1091.199951171875</ele>
        <time>2021-09-25T08:25:09.000Z</time>
      </trkpt>
      <trkpt lat="40.5856608040630817413330078125" lon="-1.38705183751881122589111328125">
        <ele>1090.800048828125</ele>
        <time>2021-09-25T08:25:10.000Z</time>
      </trkpt>
      <trkpt lat="40.58562383987009525299072265625" lon="-1.3870257697999477386474609375">
        <ele>1090.199951171875</ele>
        <time>2021-09-25T08:25:11.000Z</time>
      </trkpt>
      <trkpt lat="40.58559835888445377349853515625" lon="-1.3870063237845897674560546875">
        <ele>1089.800048828125</ele>
        <time>2021-09-25T08:25:12.000Z</time>
      </trkpt>
      <trkpt lat="40.58558193035423755645751953125" lon="-1.3869919069111347198486328125">
        <ele>1089.5999755859375</ele>
        <time>2021-09-25T08:25:13.000Z</time>
      </trkpt>
      <trkpt lat="40.58556231670081615447998046875" lon="-1.38697363436222076416015625">
        <ele>1089.4000244140625</ele>
        <time>2021-09-25T08:25:15.000Z</time>
      </trkpt>
      <trkpt lat="40.58555276133120059967041015625" lon="-1.38696164824068546295166015625">
        <ele>1089.4000244140625</ele>
        <time>2021-09-25T08:25:16.000Z</time>
      </trkpt>
      <trkpt lat="40.5855374224483966827392578125" lon="-1.3869456388056278228759765625">
        <ele>1089.4000244140625</ele>
        <time>2021-09-25T08:25:17.000Z</time>
      </trkpt>
      <trkpt lat="40.58550397865474224090576171875" lon="-1.38690255582332611083984375">
        <ele>1089</ele>
        <time>2021-09-25T08:25:19.000Z</time>
      </trkpt>
      <trkpt lat="40.58545184321701526641845703125" lon="-1.38684430159628391265869140625">
        <ele>1089.4000244140625</ele>
        <time>2021-09-25T08:25:21.000Z</time>
      </trkpt>
      <trkpt lat="40.5854137055575847625732421875" lon="-1.3868158869445323944091796875">
        <ele>1089.5999755859375</ele>
        <time>2021-09-25T08:25:22.000Z</time>
      </trkpt>
      <trkpt lat="40.58536953292787075042724609375" lon="-1.3867914117872714996337890625">
        <ele>1089.199951171875</ele>
        <time>2021-09-25T08:25:23.000Z</time>
      </trkpt>
      <trkpt lat="40.5852799303829669952392578125" lon="-1.38674539513885974884033203125">
        <ele>1088.4000244140625</ele>
        <time>2021-09-25T08:25:25.000Z</time>
      </trkpt>
      <trkpt lat="40.585233159363269805908203125" lon="-1.3867263682186603546142578125">
        <ele>1088.5999755859375</ele>
        <time>2021-09-25T08:25:26.000Z</time>
      </trkpt>
      <trkpt lat="40.58518915437161922454833984375" lon="-1.3867153041064739227294921875">
        <ele>1088.5999755859375</ele>
        <time>2021-09-25T08:25:27.000Z</time>
      </trkpt>
      <trkpt lat="40.58511774055659770965576171875" lon="-1.3866938464343547821044921875">
        <ele>1088.4000244140625</ele>
        <time>2021-09-25T08:25:29.000Z</time>
      </trkpt>
      <trkpt lat="40.58506225235760211944580078125" lon="-1.38666652143001556396484375">
        <ele>1088.199951171875</ele>
        <time>2021-09-25T08:25:31.000Z</time>
      </trkpt>
      <trkpt lat="40.58500818908214569091796875" lon="-1.38662771321833133697509765625">
        <ele>1088</ele>
        <time>2021-09-25T08:25:33.000Z</time>
      </trkpt>
      <trkpt lat="40.584940798580646514892578125" lon="-1.38658496551215648651123046875">
        <ele>1088.199951171875</ele>
        <time>2021-09-25T08:25:35.000Z</time>
      </trkpt>
      <trkpt lat="40.58490894734859466552734375" lon="-1.3865610770881175994873046875">
        <ele>1088.199951171875</ele>
        <time>2021-09-25T08:25:36.000Z</time>
      </trkpt>
      <trkpt lat="40.58487483300268650054931640625" lon="-1.386536099016666412353515625">
        <ele>1088.4000244140625</ele>
        <time>2021-09-25T08:25:37.000Z</time>
      </trkpt>
      <trkpt lat="40.58480576612055301666259765625" lon="-1.3864970393478870391845703125">
        <ele>1088.4000244140625</ele>
        <time>2021-09-25T08:25:39.000Z</time>
      </trkpt>
      <trkpt lat="40.58473887853324413299560546875" lon="-1.3864727318286895751953125">
        <ele>1088.5999755859375</ele>
        <time>2021-09-25T08:25:41.000Z</time>
      </trkpt>
      <trkpt lat="40.58470535092055797576904296875" lon="-1.3864584825932979583740234375">
        <ele>1088.5999755859375</ele>
        <time>2021-09-25T08:25:42.000Z</time>
      </trkpt>
      <trkpt lat="40.584673248231410980224609375" lon="-1.386444568634033203125">
        <ele>1088.5999755859375</ele>
        <time>2021-09-25T08:25:43.000Z</time>
      </trkpt>
      <trkpt lat="40.58460627682507038116455078125" lon="-1.38641531579196453094482421875">
        <ele>1088.199951171875</ele>
        <time>2021-09-25T08:25:45.000Z</time>
      </trkpt>
      <trkpt lat="40.58453612029552459716796875" lon="-1.38637776486575603485107421875">
        <ele>1087.5999755859375</ele>
        <time>2021-09-25T08:25:47.000Z</time>
      </trkpt>
      <trkpt lat="40.5844967253506183624267578125" lon="-1.38635940849781036376953125">
        <ele>1087.199951171875</ele>
        <time>2021-09-25T08:25:48.000Z</time>
      </trkpt>
      <trkpt lat="40.58445473201572895050048828125" lon="-1.38633719645440578460693359375">
        <ele>1087</ele>
        <time>2021-09-25T08:25:49.000Z</time>
      </trkpt>
      <trkpt lat="40.58441215194761753082275390625" lon="-1.3863072730600833892822265625">
        <ele>1087.199951171875</ele>
        <time>2021-09-25T08:25:50.000Z</time>
      </trkpt>
      <trkpt lat="40.5843686498701572418212890625" lon="-1.386275589466094970703125">
        <ele>1087.4000244140625</ele>
        <time>2021-09-25T08:25:51.000Z</time>
      </trkpt>
      <trkpt lat="40.58428944088518619537353515625" lon="-1.38620174489915370941162109375">
        <ele>1087.5999755859375</ele>
        <time>2021-09-25T08:25:53.000Z</time>
      </trkpt>
      <trkpt lat="40.58425247669219970703125" lon="-1.38616436161100864410400390625">
        <ele>1087.800048828125</ele>
        <time>2021-09-25T08:25:54.000Z</time>
      </trkpt>
      <trkpt lat="40.58421836234629154205322265625" lon="-1.38612597249448299407958984375">
        <ele>1087.800048828125</ele>
        <time>2021-09-25T08:25:55.000Z</time>
      </trkpt>
      <trkpt lat="40.5841624550521373748779296875" lon="-1.38605388812720775604248046875">
        <ele>1088.199951171875</ele>
        <time>2021-09-25T08:25:57.000Z</time>
      </trkpt>
      <trkpt lat="40.584121383726596832275390625" lon="-1.3859951309859752655029296875">
        <ele>1088.800048828125</ele>
        <time>2021-09-25T08:25:59.000Z</time>
      </trkpt>
      <trkpt lat="40.5840660631656646728515625" lon="-1.385929919779300689697265625">
        <ele>1089.4000244140625</ele>
        <time>2021-09-25T08:26:01.000Z</time>
      </trkpt>
      <trkpt lat="40.58403798379004001617431640625" lon="-1.385890357196331024169921875">
        <ele>1089.4000244140625</ele>
        <time>2021-09-25T08:26:02.000Z</time>
      </trkpt>
      <trkpt lat="40.58401501737534999847412109375" lon="-1.385842747986316680908203125">
        <ele>1089.4000244140625</ele>
        <time>2021-09-25T08:26:03.000Z</time>
      </trkpt>
      <trkpt lat="40.5839788913726806640625" lon="-1.38573403470218181610107421875">
        <ele>1089.199951171875</ele>
        <time>2021-09-25T08:26:05.000Z</time>
      </trkpt>
      <trkpt lat="40.58395634405314922332763671875" lon="-1.385673768818378448486328125">
        <ele>1089</ele>
        <time>2021-09-25T08:26:06.000Z</time>
      </trkpt>
      <trkpt lat="40.58393061161041259765625" lon="-1.38561652041971683502197265625">
        <ele>1088.5999755859375</ele>
        <time>2021-09-25T08:26:07.000Z</time>
      </trkpt>
      <trkpt lat="40.58390848338603973388671875" lon="-1.38555633835494518280029296875">
        <ele>1088.199951171875</ele>
        <time>2021-09-25T08:26:08.000Z</time>
      </trkpt>
      <trkpt lat="40.58388568460941314697265625" lon="-1.38549841940402984619140625">
        <ele>1087.800048828125</ele>
        <time>2021-09-25T08:26:09.000Z</time>
      </trkpt>
      <trkpt lat="40.583839081227779388427734375" lon="-1.38538903556764125823974609375">
        <ele>1086.800048828125</ele>
        <time>2021-09-25T08:26:11.000Z</time>
      </trkpt>
      <trkpt lat="40.58379222638905048370361328125" lon="-1.385284848511219024658203125">
        <ele>1085.800048828125</ele>
        <time>2021-09-25T08:26:13.000Z</time>
      </trkpt>
      <trkpt lat="40.5837457068264484405517578125" lon="-1.385182924568653106689453125">
        <ele>1085.4000244140625</ele>
        <time>2021-09-25T08:26:15.000Z</time>
      </trkpt>
      <trkpt lat="40.58369969017803668975830078125" lon="-1.38507203198969364166259765625">
        <ele>1085.199951171875</ele>
        <time>2021-09-25T08:26:17.000Z</time>
      </trkpt>
      <trkpt lat="40.58364889584481716156005859375" lon="-1.38495661318302154541015625">
        <ele>1085</ele>
        <time>2021-09-25T08:26:19.000Z</time>
      </trkpt>
      <trkpt lat="40.58359810151159763336181640625" lon="-1.38483448885381221771240234375">
        <ele>1084.5999755859375</ele>
        <time>2021-09-25T08:26:21.000Z</time>
      </trkpt>
      <trkpt lat="40.58354831300675868988037109375" lon="-1.3847053237259387969970703125">
        <ele>1084.4000244140625</ele>
        <time>2021-09-25T08:26:23.000Z</time>
      </trkpt>
      <trkpt lat="40.58349600993096828460693359375" lon="-1.384580098092555999755859375">
        <ele>1084.4000244140625</ele>
        <time>2021-09-25T08:26:25.000Z</time>
      </trkpt>
      <trkpt lat="40.58344940654933452606201171875" lon="-1.38445327989757061004638671875">
        <ele>1084.5999755859375</ele>
        <time>2021-09-25T08:26:27.000Z</time>
      </trkpt>
      <trkpt lat="40.58343046344816684722900390625" lon="-1.38438555411994457244873046875">
        <ele>1084.5999755859375</ele>
        <time>2021-09-25T08:26:28.000Z</time>
      </trkpt>
      <trkpt lat="40.58341470547020435333251953125" lon="-1.3843221031129360198974609375">
        <ele>1084.4000244140625</ele>
        <time>2021-09-25T08:26:29.000Z</time>
      </trkpt>
      <trkpt lat="40.58339794166386127471923828125" lon="-1.3842573948204517364501953125">
        <ele>1084.199951171875</ele>
        <time>2021-09-25T08:26:30.000Z</time>
      </trkpt>
      <trkpt lat="40.5833738856017589569091796875" lon="-1.3841955363750457763671875">
        <ele>1084.199951171875</ele>
        <time>2021-09-25T08:26:31.000Z</time>
      </trkpt>
      <trkpt lat="40.58332242071628570556640625" lon="-1.3840739987790584564208984375">
        <ele>1084.199951171875</ele>
        <time>2021-09-25T08:26:33.000Z</time>
      </trkpt>
      <trkpt lat="40.58326751925051212310791015625" lon="-1.38394382782280445098876953125">
        <ele>1084.4000244140625</ele>
        <time>2021-09-25T08:26:35.000Z</time>
      </trkpt>
      <trkpt lat="40.5832206644117832183837890625" lon="-1.3838092982769012451171875">
        <ele>1084.4000244140625</ele>
        <time>2021-09-25T08:26:37.000Z</time>
      </trkpt>
      <trkpt lat="40.5831837840378284454345703125" lon="-1.38366806320846080780029296875">
        <ele>1084.5999755859375</ele>
        <time>2021-09-25T08:26:39.000Z</time>
      </trkpt>
      <trkpt lat="40.58315277099609375" lon="-1.38352992944419384002685546875">
        <ele>1084.800048828125</ele>
        <time>2021-09-25T08:26:41.000Z</time>
      </trkpt>
      <trkpt lat="40.58311865665018558502197265625" lon="-1.383391208946704864501953125">
        <ele>1084.4000244140625</ele>
        <time>2021-09-25T08:26:43.000Z</time>
      </trkpt>
      <trkpt lat="40.58308303356170654296875" lon="-1.383250392973423004150390625">
        <ele>1083.800048828125</ele>
        <time>2021-09-25T08:26:45.000Z</time>
      </trkpt>
      <trkpt lat="40.58304573409259319305419921875" lon="-1.3831065595149993896484375">
        <ele>1083.5999755859375</ele>
        <time>2021-09-25T08:26:47.000Z</time>
      </trkpt>
      <trkpt lat="40.5830092728137969970703125" lon="-1.38296507298946380615234375">
        <ele>1082.800048828125</ele>
        <time>2021-09-25T08:26:49.000Z</time>
      </trkpt>
      <trkpt lat="40.58295906521379947662353515625" lon="-1.382830627262592315673828125">
        <ele>1082</ele>
        <time>2021-09-25T08:26:51.000Z</time>
      </trkpt>
      <trkpt lat="40.58289058506488800048828125" lon="-1.38269995339214801788330078125">
        <ele>1081.4000244140625</ele>
        <time>2021-09-25T08:26:53.000Z</time>
      </trkpt>
      <trkpt lat="40.5828089453279972076416015625" lon="-1.38258981518447399139404296875">
        <ele>1080.800048828125</ele>
        <time>2021-09-25T08:26:55.000Z</time>
      </trkpt>
      <trkpt lat="40.582725964486598968505859375" lon="-1.382489986717700958251953125">
        <ele>1081.199951171875</ele>
        <time>2021-09-25T08:26:57.000Z</time>
      </trkpt>
      <trkpt lat="40.58264893479645252227783203125" lon="-1.38237859122455120086669921875">
        <ele>1081.800048828125</ele>
        <time>2021-09-25T08:26:59.000Z</time>
      </trkpt>
      <trkpt lat="40.582580454647541046142578125" lon="-1.38225889764726161956787109375">
        <ele>1081.800048828125</ele>
        <time>2021-09-25T08:27:01.000Z</time>
      </trkpt>
      <trkpt lat="40.58252387680113315582275390625" lon="-1.3821213506162166595458984375">
        <ele>1081.800048828125</ele>
        <time>2021-09-25T08:27:03.000Z</time>
      </trkpt>
      <trkpt lat="40.5824696458876132965087890625" lon="-1.38198128901422023773193359375">
        <ele>1082.199951171875</ele>
        <time>2021-09-25T08:27:05.000Z</time>
      </trkpt>
      <trkpt lat="40.5824218690395355224609375" lon="-1.38184432871639728546142578125">
        <ele>1081.5999755859375</ele>
        <time>2021-09-25T08:27:07.000Z</time>
      </trkpt>
      <trkpt lat="40.58239060454070568084716796875" lon="-1.3817002438008785247802734375">
        <ele>1080.4000244140625</ele>
        <time>2021-09-25T08:27:09.000Z</time>
      </trkpt>
      <trkpt lat="40.5823670513927936553955078125" lon="-1.381563954055309295654296875">
        <ele>1079.4000244140625</ele>
        <time>2021-09-25T08:27:11.000Z</time>
      </trkpt>
      <trkpt lat="40.582341738045215606689453125" lon="-1.38143487274646759033203125">
        <ele>1079</ele>
        <time>2021-09-25T08:27:13.000Z</time>
      </trkpt>
      <trkpt lat="40.58230862952768802642822265625" lon="-1.3813220523297786712646484375">
        <ele>1078.800048828125</ele>
        <time>2021-09-25T08:27:15.000Z</time>
      </trkpt>
      <trkpt lat="40.582284070551395416259765625" lon="-1.38126966543495655059814453125">
        <ele>1078.800048828125</ele>
        <time>2021-09-25T08:27:16.000Z</time>
      </trkpt>
      <trkpt lat="40.5822533927857875823974609375" lon="-1.38122431933879852294921875">
        <ele>1079</ele>
        <time>2021-09-25T08:27:17.000Z</time>
      </trkpt>
      <trkpt lat="40.58218541555106639862060546875" lon="-1.3811292685568332672119140625">
        <ele>1080.5999755859375</ele>
        <time>2021-09-25T08:27:19.000Z</time>
      </trkpt>
      <trkpt lat="40.58213076554238796234130859375" lon="-1.3810249976813793182373046875">
        <ele>1082</ele>
        <time>2021-09-25T08:27:21.000Z</time>
      </trkpt>
      <trkpt lat="40.58210846967995166778564453125" lon="-1.38097026385366916656494140625">
        <ele>1082.5999755859375</ele>
        <time>2021-09-25T08:27:22.000Z</time>
      </trkpt>
      <trkpt lat="40.582094974815845489501953125" lon="-1.38091108761727809906005859375">
        <ele>1082.5999755859375</ele>
        <time>2021-09-25T08:27:23.000Z</time>
      </trkpt>
      <trkpt lat="40.58209237642586231231689453125" lon="-1.38084487058222293853759765625">
        <ele>1082.199951171875</ele>
        <time>2021-09-25T08:27:24.000Z</time>
      </trkpt>
      <trkpt lat="40.58209774084389209747314453125" lon="-1.380783431231975555419921875">
        <ele>1081.800048828125</ele>
        <time>2021-09-25T08:27:25.000Z</time>
      </trkpt>
      <trkpt lat="40.58210025541484355926513671875" lon="-1.3807266019284725189208984375">
        <ele>1081.5999755859375</ele>
        <time>2021-09-25T08:27:26.000Z</time>
      </trkpt>
      <trkpt lat="40.582098998129367828369140625" lon="-1.3806669227778911590576171875">
        <ele>1081.5999755859375</ele>
        <time>2021-09-25T08:27:27.000Z</time>
      </trkpt>
      <trkpt lat="40.58209589682519435882568359375" lon="-1.3805623166263103485107421875">
        <ele>1080.5999755859375</ele>
        <time>2021-09-25T08:27:29.000Z</time>
      </trkpt>
      <trkpt lat="40.582100339233875274658203125" lon="-1.38051529414951801300048828125">
        <ele>1080.199951171875</ele>
        <time>2021-09-25T08:27:30.000Z</time>
      </trkpt>
      <trkpt lat="40.582108385860919952392578125" lon="-1.380472294986248016357421875">
        <ele>1080.199951171875</ele>
        <time>2021-09-25T08:27:31.000Z</time>
      </trkpt>
      <trkpt lat="40.58212271891534328460693359375" lon="-1.38041052035987377166748046875">
        <ele>1080.199951171875</ele>
        <time>2021-09-25T08:27:32.000Z</time>
      </trkpt>
      <trkpt lat="40.5821507982909679412841796875" lon="-1.38034245930612087249755859375">
        <ele>1080</ele>
        <time>2021-09-25T08:27:33.000Z</time>
      </trkpt>
      <trkpt lat="40.58217954821884632110595703125" lon="-1.38026735745370388031005859375">
        <ele>1080</ele>
        <time>2021-09-25T08:27:34.000Z</time>
      </trkpt>
      <trkpt lat="40.58220620267093181610107421875" lon="-1.38018898665904998779296875">
        <ele>1080</ele>
        <time>2021-09-25T08:27:35.000Z</time>
      </trkpt>
      <trkpt lat="40.5822500400245189666748046875" lon="-1.38002537190914154052734375">
        <ele>1080.5999755859375</ele>
        <time>2021-09-25T08:27:37.000Z</time>
      </trkpt>
      <trkpt lat="40.58229320682585239410400390625" lon="-1.3798713125288486480712890625">
        <ele>1081</ele>
        <time>2021-09-25T08:27:39.000Z</time>
      </trkpt>
      <trkpt lat="40.582319609820842742919921875" lon="-1.37978942133486270904541015625">
        <ele>1081.199951171875</ele>
        <time>2021-09-25T08:27:40.000Z</time>
      </trkpt>
      <trkpt lat="40.58234936557710170745849609375" lon="-1.37971146963536739349365234375">
        <ele>1081.199951171875</ele>
        <time>2021-09-25T08:27:41.000Z</time>
      </trkpt>
      <trkpt lat="40.58242077939212322235107421875" lon="-1.37956160120666027069091796875">
        <ele>1081.199951171875</ele>
        <time>2021-09-25T08:27:43.000Z</time>
      </trkpt>
      <trkpt lat="40.5824917741119861602783203125" lon="-1.37941810302436351776123046875">
        <ele>1081.199951171875</ele>
        <time>2021-09-25T08:27:45.000Z</time>
      </trkpt>
      <trkpt lat="40.5825253017246723175048828125" lon="-1.3793546520173549652099609375">
        <ele>1080.5999755859375</ele>
        <time>2021-09-25T08:27:46.000Z</time>
      </trkpt>
      <trkpt lat="40.58255841024219989776611328125" lon="-1.3792986609041690826416015625">
        <ele>1080</ele>
        <time>2021-09-25T08:27:47.000Z</time>
      </trkpt>
      <trkpt lat="40.58261674828827381134033203125" lon="-1.37920193374156951904296875">
        <ele>1079.199951171875</ele>
        <time>2021-09-25T08:27:49.000Z</time>
      </trkpt>
      <trkpt lat="40.58264792896807193756103515625" lon="-1.37916379608213901519775390625">
        <ele>1078.800048828125</ele>
        <time>2021-09-25T08:27:50.000Z</time>
      </trkpt>
      <trkpt lat="40.58268128894269466400146484375" lon="-1.3791306875646114349365234375">
        <ele>1078.4000244140625</ele>
        <time>2021-09-25T08:27:51.000Z</time>
      </trkpt>
      <trkpt lat="40.5827113799750804901123046875" lon="-1.37909372337162494659423828125">
        <ele>1078.199951171875</ele>
        <time>2021-09-25T08:27:52.000Z</time>
      </trkpt>
      <trkpt lat="40.58274012990295886993408203125" lon="-1.37904762290418148040771484375">
        <ele>1078</ele>
        <time>2021-09-25T08:27:53.000Z</time>
      </trkpt>
      <trkpt lat="40.582762844860553741455078125" lon="-1.3789974153041839599609375">
        <ele>1077.5999755859375</ele>
        <time>2021-09-25T08:27:54.000Z</time>
      </trkpt>
      <trkpt lat="40.58277734555304050445556640625" lon="-1.37893714942038059234619140625">
        <ele>1077.4000244140625</ele>
        <time>2021-09-25T08:27:55.000Z</time>
      </trkpt>
      <trkpt lat="40.582781620323657989501953125" lon="-1.37887814082205295562744140625">
        <ele>1077.199951171875</ele>
        <time>2021-09-25T08:27:56.000Z</time>
      </trkpt>
      <trkpt lat="40.58278153650462627410888671875" lon="-1.37881712056696414947509765625">
        <ele>1076.800048828125</ele>
        <time>2021-09-25T08:27:57.000Z</time>
      </trkpt>
      <trkpt lat="40.5827767588198184967041015625" lon="-1.3787548430263996124267578125">
        <ele>1076.199951171875</ele>
        <time>2021-09-25T08:27:58.000Z</time>
      </trkpt>
      <trkpt lat="40.582763850688934326171875" lon="-1.37869206257164478302001953125">
        <ele>1075.800048828125</ele>
        <time>2021-09-25T08:27:59.000Z</time>
      </trkpt>
      <trkpt lat="40.58274800889194011688232421875" lon="-1.378632970154285430908203125">
        <ele>1075.4000244140625</ele>
        <time>2021-09-25T08:28:00.000Z</time>
      </trkpt>
      <trkpt lat="40.5827288143336772918701171875" lon="-1.37857924215495586395263671875">
        <ele>1074.800048828125</ele>
        <time>2021-09-25T08:28:01.000Z</time>
      </trkpt>
      <trkpt lat="40.58268413878977298736572265625" lon="-1.37848754413425922393798828125">
        <ele>1074.199951171875</ele>
        <time>2021-09-25T08:28:03.000Z</time>
      </trkpt>
      <trkpt lat="40.5826614238321781158447265625" lon="-1.37844814918935298919677734375">
        <ele>1074</ele>
        <time>2021-09-25T08:28:04.000Z</time>
      </trkpt>
      <trkpt lat="40.58264155872166156768798828125" lon="-1.3784086704254150390625">
        <ele>1073.5999755859375</ele>
        <time>2021-09-25T08:28:05.000Z</time>
      </trkpt>
      <trkpt lat="40.58259143494069576263427734375" lon="-1.37831839732825756072998046875">
        <ele>1072.5999755859375</ele>
        <time>2021-09-25T08:28:07.000Z</time>
      </trkpt>
      <trkpt lat="40.5825253017246723175048828125" lon="-1.3782204128801822662353515625">
        <ele>1072.199951171875</ele>
        <time>2021-09-25T08:28:09.000Z</time>
      </trkpt>
      <trkpt lat="40.5824934504926204681396484375" lon="-1.37816400267183780670166015625">
        <ele>1073</ele>
        <time>2021-09-25T08:28:10.000Z</time>
      </trkpt>
      <trkpt lat="40.58246520347893238067626953125" lon="-1.3781044073402881622314453125">
        <ele>1073.800048828125</ele>
        <time>2021-09-25T08:28:11.000Z</time>
      </trkpt>
      <trkpt lat="40.58242396451532840728759765625" lon="-1.3779674470424652099609375">
        <ele>1073.800048828125</ele>
        <time>2021-09-25T08:28:13.000Z</time>
      </trkpt>
      <trkpt lat="40.58239362202584743499755859375" lon="-1.37782327830791473388671875">
        <ele>1074</ele>
        <time>2021-09-25T08:28:15.000Z</time>
      </trkpt>
      <trkpt lat="40.5823682248592376708984375" lon="-1.3776789419353008270263671875">
        <ele>1074.199951171875</ele>
        <time>2021-09-25T08:28:17.000Z</time>
      </trkpt>
      <trkpt lat="40.58234433643519878387451171875" lon="-1.3775424845516681671142578125">
        <ele>1073.5999755859375</ele>
        <time>2021-09-25T08:28:19.000Z</time>
      </trkpt>
      <trkpt lat="40.5823199450969696044921875" lon="-1.37739974074065685272216796875">
        <ele>1073</ele>
        <time>2021-09-25T08:28:21.000Z</time>
      </trkpt>
      <trkpt lat="40.58230661787092685699462890625" lon="-1.37732581235468387603759765625">
        <ele>1072.800048828125</ele>
        <time>2021-09-25T08:28:22.000Z</time>
      </trkpt>
      <trkpt lat="40.5822904407978057861328125" lon="-1.3772538118064403533935546875">
        <ele>1072.4000244140625</ele>
        <time>2021-09-25T08:28:23.000Z</time>
      </trkpt>
      <trkpt lat="40.5822627805173397064208984375" lon="-1.37711651623249053955078125">
        <ele>1072.199951171875</ele>
        <time>2021-09-25T08:28:25.000Z</time>
      </trkpt>
      <trkpt lat="40.5822362937033176422119140625" lon="-1.37698081322014331817626953125">
        <ele>1072</ele>
        <time>2021-09-25T08:28:27.000Z</time>
      </trkpt>
      <trkpt lat="40.582227408885955810546875" lon="-1.37692633084952831268310546875">
        <ele>1072</ele>
        <time>2021-09-25T08:28:28.000Z</time>
      </trkpt>
      <trkpt lat="40.58221709914505481719970703125" lon="-1.3768793083727359771728515625">
        <ele>1071.800048828125</ele>
        <time>2021-09-25T08:28:29.000Z</time>
      </trkpt>
      <trkpt lat="40.58220838196575641632080078125" lon="-1.3767792284488677978515625">
        <ele>1071.800048828125</ele>
        <time>2021-09-25T08:28:31.000Z</time>
      </trkpt>
      <trkpt lat="40.582194887101650238037109375" lon="-1.3766975887119770050048828125">
        <ele>1071.800048828125</ele>
        <time>2021-09-25T08:28:33.000Z</time>
      </trkpt>
      <trkpt lat="40.5821836553514003753662109375" lon="-1.37658946216106414794921875">
        <ele>1072</ele>
        <time>2021-09-25T08:28:35.000Z</time>
      </trkpt>
      <trkpt lat="40.58218256570398807525634765625" lon="-1.37645845301449298858642578125">
        <ele>1072</ele>
        <time>2021-09-25T08:28:37.000Z</time>
      </trkpt>
      <trkpt lat="40.5821957252919673919677734375" lon="-1.37632786296308040618896484375">
        <ele>1072</ele>
        <time>2021-09-25T08:28:39.000Z</time>
      </trkpt>
      <trkpt lat="40.5822044424712657928466796875" lon="-1.37626667506992816925048828125">
        <ele>1072</ele>
        <time>2021-09-25T08:28:40.000Z</time>
      </trkpt>
      <trkpt lat="40.5822148360311985015869140625" lon="-1.37621219269931316375732421875">
        <ele>1072</ele>
        <time>2021-09-25T08:28:41.000Z</time>
      </trkpt>
      <trkpt lat="40.58224425651133060455322265625" lon="-1.37609719298779964447021484375">
        <ele>1072</ele>
        <time>2021-09-25T08:28:43.000Z</time>
      </trkpt>
      <trkpt lat="40.582272671163082122802734375" lon="-1.37597833760082721710205078125">
        <ele>1072.800048828125</ele>
        <time>2021-09-25T08:28:45.000Z</time>
      </trkpt>
      <trkpt lat="40.58229538612067699432373046875" lon="-1.37586417607963085174560546875">
        <ele>1073.4000244140625</ele>
        <time>2021-09-25T08:28:47.000Z</time>
      </trkpt>
      <trkpt lat="40.58231416158378124237060546875" lon="-1.37573475949466228485107421875">
        <ele>1074.4000244140625</ele>
        <time>2021-09-25T08:28:49.000Z</time>
      </trkpt>
      <trkpt lat="40.58231717906892299652099609375" lon="-1.37566544115543365478515625">
        <ele>1074.5999755859375</ele>
        <time>2021-09-25T08:28:50.000Z</time>
      </trkpt>
      <trkpt lat="40.5823157541453838348388671875" lon="-1.375596038997173309326171875">
        <ele>1074.5999755859375</ele>
        <time>2021-09-25T08:28:51.000Z</time>
      </trkpt>
      <trkpt lat="40.58230108581483364105224609375" lon="-1.37546067126095294952392578125">
        <ele>1074.199951171875</ele>
        <time>2021-09-25T08:28:53.000Z</time>
      </trkpt>
      <trkpt lat="40.5822902731597423553466796875" lon="-1.3753923587501049041748046875">
        <ele>1074.199951171875</ele>
        <time>2021-09-25T08:28:54.000Z</time>
      </trkpt>
      <trkpt lat="40.58227409608662128448486328125" lon="-1.37532639317214488983154296875">
        <ele>1074.199951171875</ele>
        <time>2021-09-25T08:28:55.000Z</time>
      </trkpt>
      <trkpt lat="40.5822570808231830596923828125" lon="-1.375261433422565460205078125">
        <ele>1074.199951171875</ele>
        <time>2021-09-25T08:28:56.000Z</time>
      </trkpt>
      <trkpt lat="40.58224056847393512725830078125" lon="-1.37519731186330318450927734375">
        <ele>1073.800048828125</ele>
        <time>2021-09-25T08:28:57.000Z</time>
      </trkpt>
      <trkpt lat="40.58220796287059783935546875" lon="-1.375066973268985748291015625">
        <ele>1072.5999755859375</ele>
        <time>2021-09-25T08:28:59.000Z</time>
      </trkpt>
      <trkpt lat="40.58216798119246959686279296875" lon="-1.37493076734244823455810546875">
        <ele>1072.4000244140625</ele>
        <time>2021-09-25T08:29:01.000Z</time>
      </trkpt>
      <trkpt lat="40.58212079107761383056640625" lon="-1.37479045428335666656494140625">
        <ele>1072.800048828125</ele>
        <time>2021-09-25T08:29:03.000Z</time>
      </trkpt>
      <trkpt lat="40.5821035243570804595947265625" lon="-1.3747218064963817596435546875">
        <ele>1072.4000244140625</ele>
        <time>2021-09-25T08:29:04.000Z</time>
      </trkpt>
      <trkpt lat="40.5820800550282001495361328125" lon="-1.37465248815715312957763671875">
        <ele>1072.5999755859375</ele>
        <time>2021-09-25T08:29:05.000Z</time>
      </trkpt>
      <trkpt lat="40.58205247856676578521728515625" lon="-1.37453354895114898681640625">
        <ele>1073.4000244140625</ele>
        <time>2021-09-25T08:29:07.000Z</time>
      </trkpt>
      <trkpt lat="40.5820267461240291595458984375" lon="-1.37441662140190601348876953125">
        <ele>1073</ele>
        <time>2021-09-25T08:29:09.000Z</time>
      </trkpt>
      <trkpt lat="40.5819922126829624176025390625" lon="-1.37428754009306430816650390625">
        <ele>1073.199951171875</ele>
        <time>2021-09-25T08:29:11.000Z</time>
      </trkpt>
      <trkpt lat="40.581960193812847137451171875" lon="-1.37414638884365558624267578125">
        <ele>1073.800048828125</ele>
        <time>2021-09-25T08:29:13.000Z</time>
      </trkpt>
      <trkpt lat="40.5819338746368885040283203125" lon="-1.37400054372847080230712890625">
        <ele>1074.5999755859375</ele>
        <time>2021-09-25T08:29:15.000Z</time>
      </trkpt>
      <trkpt lat="40.5819218046963214874267578125" lon="-1.37392393313348293304443359375">
        <ele>1075.199951171875</ele>
        <time>2021-09-25T08:29:16.000Z</time>
      </trkpt>
      <trkpt lat="40.58190755546092987060546875" lon="-1.37385427951812744140625">
        <ele>1075.4000244140625</ele>
        <time>2021-09-25T08:29:17.000Z</time>
      </trkpt>
      <trkpt lat="40.58186539448797702789306640625" lon="-1.37371740303933620452880859375">
        <ele>1075.4000244140625</ele>
        <time>2021-09-25T08:29:19.000Z</time>
      </trkpt>
      <trkpt lat="40.58180521242320537567138671875" lon="-1.3736033253371715545654296875">
        <ele>1075.199951171875</ele>
        <time>2021-09-25T08:29:21.000Z</time>
      </trkpt>
      <trkpt lat="40.58174268342554569244384765625" lon="-1.37348958291113376617431640625">
        <ele>1074.5999755859375</ele>
        <time>2021-09-25T08:29:23.000Z</time>
      </trkpt>
      <trkpt lat="40.5816829204559326171875" lon="-1.37336737476289272308349609375">
        <ele>1073.5999755859375</ele>
        <time>2021-09-25T08:29:25.000Z</time>
      </trkpt>
      <trkpt lat="40.581618882715702056884765625" lon="-1.3732496090233325958251953125">
        <ele>1073</ele>
        <time>2021-09-25T08:29:27.000Z</time>
      </trkpt>
      <trkpt lat="40.5815409310162067413330078125" lon="-1.37313083745539188385009765625">
        <ele>1072.4000244140625</ele>
        <time>2021-09-25T08:29:29.000Z</time>
      </trkpt>
      <trkpt lat="40.58144780807197093963623046875" lon="-1.37300963513553142547607421875">
        <ele>1070.800048828125</ele>
        <time>2021-09-25T08:29:31.000Z</time>
      </trkpt>
      <trkpt lat="40.58139667846262454986572265625" lon="-1.3729525543749332427978515625">
        <ele>1070.4000244140625</ele>
        <time>2021-09-25T08:29:32.000Z</time>
      </trkpt>
      <trkpt lat="40.58134554885327816009521484375" lon="-1.37289606034755706787109375">
        <ele>1070.199951171875</ele>
        <time>2021-09-25T08:29:33.000Z</time>
      </trkpt>
      <trkpt lat="40.58123624883592128753662109375" lon="-1.37278818525373935699462890625">
        <ele>1069.4000244140625</ele>
        <time>2021-09-25T08:29:35.000Z</time>
      </trkpt>
      <trkpt lat="40.5811325646936893463134765625" lon="-1.3726846687495708465576171875">
        <ele>1068.4000244140625</ele>
        <time>2021-09-25T08:29:37.000Z</time>
      </trkpt>
      <trkpt lat="40.58104011230170726776123046875" lon="-1.37257947586476802825927734375">
        <ele>1068.199951171875</ele>
        <time>2021-09-25T08:29:39.000Z</time>
      </trkpt>
      <trkpt lat="40.580971129238605499267578125" lon="-1.37246062047779560089111328125">
        <ele>1067</ele>
        <time>2021-09-25T08:29:41.000Z</time>
      </trkpt>
      <trkpt lat="40.5808998830616474151611328125" lon="-1.372337825596332550048828125">
        <ele>1066.199951171875</ele>
        <time>2021-09-25T08:29:43.000Z</time>
      </trkpt>
      <trkpt lat="40.58086174540221691131591796875" lon="-1.37228376232087612152099609375">
        <ele>1065.800048828125</ele>
        <time>2021-09-25T08:29:44.000Z</time>
      </trkpt>
      <trkpt lat="40.5808224342763423919677734375" lon="-1.3722343929111957550048828125">
        <ele>1065.5999755859375</ele>
        <time>2021-09-25T08:29:45.000Z</time>
      </trkpt>
      <trkpt lat="40.58073249645531177520751953125" lon="-1.3721551001071929931640625">
        <ele>1064.800048828125</ele>
        <time>2021-09-25T08:29:47.000Z</time>
      </trkpt>
      <trkpt lat="40.5806450732052326202392578125" lon="-1.37209273874759674072265625">
        <ele>1064.4000244140625</ele>
        <time>2021-09-25T08:29:49.000Z</time>
      </trkpt>
      <trkpt lat="40.58056376874446868896484375" lon="-1.3720439560711383819580078125">
        <ele>1064</ele>
        <time>2021-09-25T08:29:51.000Z</time>
      </trkpt>
      <trkpt lat="40.58047299273312091827392578125" lon="-1.37198972515761852264404296875">
        <ele>1064.800048828125</ele>
        <time>2021-09-25T08:29:53.000Z</time>
      </trkpt>
      <trkpt lat="40.580379702150821685791015625" lon="-1.37191277928650379180908203125">
        <ele>1065</ele>
        <time>2021-09-25T08:29:55.000Z</time>
      </trkpt>
      <trkpt lat="40.58028884232044219970703125" lon="-1.371830888092517852783203125">
        <ele>1065.5999755859375</ele>
        <time>2021-09-25T08:29:57.000Z</time>
      </trkpt>
      <trkpt lat="40.58020158670842647552490234375" lon="-1.3717371784150600433349609375">
        <ele>1066.199951171875</ele>
        <time>2021-09-25T08:29:59.000Z</time>
      </trkpt>
      <trkpt lat="40.5801123194396495819091796875" lon="-1.3716399483382701873779296875">
        <ele>1066.199951171875</ele>
        <time>2021-09-25T08:30:01.000Z</time>
      </trkpt>
      <trkpt lat="40.58002489618957042694091796875" lon="-1.371543221175670623779296875">
        <ele>1066</ele>
        <time>2021-09-25T08:30:03.000Z</time>
      </trkpt>
      <trkpt lat="40.57993453927338123321533203125" lon="-1.37144624255597591400146484375">
        <ele>1065.5999755859375</ele>
        <time>2021-09-25T08:30:05.000Z</time>
      </trkpt>
      <trkpt lat="40.579852648079395294189453125" lon="-1.37134574353694915771484375">
        <ele>1065.4000244140625</ele>
        <time>2021-09-25T08:30:07.000Z</time>
      </trkpt>
      <trkpt lat="40.57980512268841266632080078125" lon="-1.3712983019649982452392578125">
        <ele>1065.4000244140625</ele>
        <time>2021-09-25T08:30:08.000Z</time>
      </trkpt>
      <trkpt lat="40.57975835166871547698974609375" lon="-1.37125278823077678680419921875">
        <ele>1065.4000244140625</ele>
        <time>2021-09-25T08:30:09.000Z</time>
      </trkpt>
      <trkpt lat="40.57966363616287708282470703125" lon="-1.3711678795516490936279296875">
        <ele>1065.4000244140625</ele>
        <time>2021-09-25T08:30:11.000Z</time>
      </trkpt>
      <trkpt lat="40.5795701779425144195556640625" lon="-1.371083222329616546630859375">
        <ele>1064.800048828125</ele>
        <time>2021-09-25T08:30:13.000Z</time>
      </trkpt>
      <trkpt lat="40.57952214963734149932861328125" lon="-1.37104265391826629638671875">
        <ele>1064.4000244140625</ele>
        <time>2021-09-25T08:30:14.000Z</time>
      </trkpt>
      <trkpt lat="40.5794749595224857330322265625" lon="-1.3710017502307891845703125">
        <ele>1064.199951171875</ele>
        <time>2021-09-25T08:30:15.000Z</time>
      </trkpt>
      <trkpt lat="40.57938636280596256256103515625" lon="-1.37091600336134433746337890625">
        <ele>1064</ele>
        <time>2021-09-25T08:30:17.000Z</time>
      </trkpt>
      <trkpt lat="40.579303465783596038818359375" lon="-1.37082874774932861328125">
        <ele>1064.199951171875</ele>
        <time>2021-09-25T08:30:19.000Z</time>
      </trkpt>
      <trkpt lat="40.57926214300096035003662109375" lon="-1.370781473815441131591796875">
        <ele>1064.4000244140625</ele>
        <time>2021-09-25T08:30:20.000Z</time>
      </trkpt>
      <trkpt lat="40.57922241277992725372314453125" lon="-1.3707273267209529876708984375">
        <ele>1064.4000244140625</ele>
        <time>2021-09-25T08:30:21.000Z</time>
      </trkpt>
      <trkpt lat="40.5791494064033031463623046875" lon="-1.370616853237152099609375">
        <ele>1064.199951171875</ele>
        <time>2021-09-25T08:30:23.000Z</time>
      </trkpt>
      <trkpt lat="40.5790716223418712615966796875" lon="-1.37051157653331756591796875">
        <ele>1064.199951171875</ele>
        <time>2021-09-25T08:30:25.000Z</time>
      </trkpt>
      <trkpt lat="40.57903063483536243438720703125" lon="-1.37046338059008121490478515625">
        <ele>1063.800048828125</ele>
        <time>2021-09-25T08:30:26.000Z</time>
      </trkpt>
      <trkpt lat="40.5789861269295215606689453125" lon="-1.370425410568714141845703125">
        <ele>1063.5999755859375</ele>
        <time>2021-09-25T08:30:27.000Z</time>
      </trkpt>
      <trkpt lat="40.5788952670991420745849609375" lon="-1.37035508640110492706298828125">
        <ele>1063.4000244140625</ele>
        <time>2021-09-25T08:30:29.000Z</time>
      </trkpt>
      <trkpt lat="40.5788054130971431732177734375" lon="-1.3702793978154659271240234375">
        <ele>1062.800048828125</ele>
        <time>2021-09-25T08:30:31.000Z</time>
      </trkpt>
      <trkpt lat="40.57875998318195343017578125" lon="-1.3702364824712276458740234375">
        <ele>1062.4000244140625</ele>
        <time>2021-09-25T08:30:32.000Z</time>
      </trkpt>
      <trkpt lat="40.57872100733220577239990234375" lon="-1.3701888732612133026123046875">
        <ele>1062</ele>
        <time>2021-09-25T08:30:33.000Z</time>
      </trkpt>
      <trkpt lat="40.57865076698362827301025390625" lon="-1.370082758367061614990234375">
        <ele>1061.800048828125</ele>
        <time>2021-09-25T08:30:35.000Z</time>
      </trkpt>
      <trkpt lat="40.57859812863171100616455078125" lon="-1.36997186578810214996337890625">
        <ele>1061.800048828125</ele>
        <time>2021-09-25T08:30:37.000Z</time>
      </trkpt>
      <trkpt lat="40.578575916588306427001953125" lon="-1.3699115999042987823486328125">
        <ele>1061.800048828125</ele>
        <time>2021-09-25T08:30:38.000Z</time>
      </trkpt>
      <trkpt lat="40.5785519443452358245849609375" lon="-1.36984865181148052215576171875">
        <ele>1061.800048828125</ele>
        <time>2021-09-25T08:30:39.000Z</time>
      </trkpt>
      <trkpt lat="40.57852989993989467620849609375" lon="-1.369796432554721832275390625">
        <ele>1061.800048828125</ele>
        <time>2021-09-25T08:30:40.000Z</time>
      </trkpt>
      <trkpt lat="40.57850391604006290435791015625" lon="-1.36974672786891460418701171875">
        <ele>1061.5999755859375</ele>
        <time>2021-09-25T08:30:41.000Z</time>
      </trkpt>
      <trkpt lat="40.57844323106110095977783203125" lon="-1.3696447201073169708251953125">
        <ele>1061</ele>
        <time>2021-09-25T08:30:43.000Z</time>
      </trkpt>
      <trkpt lat="40.5783762596547603607177734375" lon="-1.3695246912539005279541015625">
        <ele>1060.800048828125</ele>
        <time>2021-09-25T08:30:45.000Z</time>
      </trkpt>
      <trkpt lat="40.57831205427646636962890625" lon="-1.36940776370465755462646484375">
        <ele>1060.5999755859375</ele>
        <time>2021-09-25T08:30:47.000Z</time>
      </trkpt>
      <trkpt lat="40.5782461725175380706787109375" lon="-1.36927373707294464111328125">
        <ele>1060.5999755859375</ele>
        <time>2021-09-25T08:30:49.000Z</time>
      </trkpt>
      <trkpt lat="40.578178949654102325439453125" lon="-1.36914691887795925140380859375">
        <ele>1061.199951171875</ele>
        <time>2021-09-25T08:30:51.000Z</time>
      </trkpt>
      <trkpt lat="40.57814734987914562225341796875" lon="-1.3690827973186969757080078125">
        <ele>1061.4000244140625</ele>
        <time>2021-09-25T08:30:52.000Z</time>
      </trkpt>
      <trkpt lat="40.57811717502772808074951171875" lon="-1.369015239179134368896484375">
        <ele>1061.800048828125</ele>
        <time>2021-09-25T08:30:53.000Z</time>
      </trkpt>
      <trkpt lat="40.5780527181923389434814453125" lon="-1.3688816316425800323486328125">
        <ele>1062.800048828125</ele>
        <time>2021-09-25T08:30:55.000Z</time>
      </trkpt>
      <trkpt lat="40.57798557914793491363525390625" lon="-1.36875607073307037353515625">
        <ele>1062.5999755859375</ele>
        <time>2021-09-25T08:30:57.000Z</time>
      </trkpt>
      <trkpt lat="40.57790377177298069000244140625" lon="-1.3686486147344112396240234375">
        <ele>1062.4000244140625</ele>
        <time>2021-09-25T08:30:59.000Z</time>
      </trkpt>
      <trkpt lat="40.57782414369285106658935546875" lon="-1.36853453703224658966064453125">
        <ele>1062</ele>
        <time>2021-09-25T08:31:01.000Z</time>
      </trkpt>
      <trkpt lat="40.57774753309786319732666015625" lon="-1.3684286735951900482177734375">
        <ele>1061</ele>
        <time>2021-09-25T08:31:03.000Z</time>
      </trkpt>
      <trkpt lat="40.57770428247749805450439453125" lon="-1.368376202881336212158203125">
        <ele>1060.4000244140625</ele>
        <time>2021-09-25T08:31:04.000Z</time>
      </trkpt>
      <trkpt lat="40.57766832411289215087890625" lon="-1.3683150149881839752197265625">
        <ele>1060</ele>
        <time>2021-09-25T08:31:05.000Z</time>
      </trkpt>
      <trkpt lat="40.5776342935860157012939453125" lon="-1.3682566769421100616455078125">
        <ele>1059.800048828125</ele>
        <time>2021-09-25T08:31:06.000Z</time>
      </trkpt>
      <trkpt lat="40.5775974132120609283447265625" lon="-1.36820144020020961761474609375">
        <ele>1059.5999755859375</ele>
        <time>2021-09-25T08:31:07.000Z</time>
      </trkpt>
      <trkpt lat="40.57753094471991062164306640625" lon="-1.3680920563638210296630859375">
        <ele>1059</ele>
        <time>2021-09-25T08:31:09.000Z</time>
      </trkpt>
      <trkpt lat="40.57746539823710918426513671875" lon="-1.36797680519521236419677734375">
        <ele>1059</ele>
        <time>2021-09-25T08:31:11.000Z</time>
      </trkpt>
      <trkpt lat="40.57738912291824817657470703125" lon="-1.3678617216646671295166015625">
        <ele>1059</ele>
        <time>2021-09-25T08:31:13.000Z</time>
      </trkpt>
      <trkpt lat="40.5773100815713405609130859375" lon="-1.3677433691918849945068359375">
        <ele>1059</ele>
        <time>2021-09-25T08:31:15.000Z</time>
      </trkpt>
      <trkpt lat="40.577231459319591522216796875" lon="-1.36763683520257472991943359375">
        <ele>1059</ele>
        <time>2021-09-25T08:31:17.000Z</time>
      </trkpt>
      <trkpt lat="40.5771518312394618988037109375" lon="-1.36753977276384830474853515625">
        <ele>1058.5999755859375</ele>
        <time>2021-09-25T08:31:19.000Z</time>
      </trkpt>
      <trkpt lat="40.5770676769316196441650390625" lon="-1.367456205189228057861328125">
        <ele>1057.800048828125</ele>
        <time>2021-09-25T08:31:21.000Z</time>
      </trkpt>
      <trkpt lat="40.5769768171012401580810546875" lon="-1.3673678599298000335693359375">
        <ele>1057.4000244140625</ele>
        <time>2021-09-25T08:31:23.000Z</time>
      </trkpt>
      <trkpt lat="40.57688872329890727996826171875" lon="-1.3672723062336444854736328125">
        <ele>1057.199951171875</ele>
        <time>2021-09-25T08:31:25.000Z</time>
      </trkpt>
      <trkpt lat="40.576845891773700714111328125" lon="-1.36722343973815441131591796875">
        <ele>1057</ele>
        <time>2021-09-25T08:31:26.000Z</time>
      </trkpt>
      <trkpt lat="40.57680641300976276397705078125" lon="-1.3671720586717128753662109375">
        <ele>1057</ele>
        <time>2021-09-25T08:31:27.000Z</time>
      </trkpt>
      <trkpt lat="40.5767246894538402557373046875" lon="-1.36706317774951457977294921875">
        <ele>1057.199951171875</ele>
        <time>2021-09-25T08:31:29.000Z</time>
      </trkpt>
      <trkpt lat="40.57664682157337665557861328125" lon="-1.3669574819505214691162109375">
        <ele>1057.4000244140625</ele>
        <time>2021-09-25T08:31:31.000Z</time>
      </trkpt>
      <trkpt lat="40.57657289318740367889404296875" lon="-1.36685832403600215911865234375">
        <ele>1057</ele>
        <time>2021-09-25T08:31:33.000Z</time>
      </trkpt>
      <trkpt lat="40.576504580676555633544921875" lon="-1.3667707331478595733642578125">
        <ele>1056.5999755859375</ele>
        <time>2021-09-25T08:31:35.000Z</time>
      </trkpt>
      <trkpt lat="40.57647298090159893035888671875" lon="-1.36672287248075008392333984375">
        <ele>1056.800048828125</ele>
        <time>2021-09-25T08:31:36.000Z</time>
      </trkpt>
      <trkpt lat="40.57644389569759368896484375" lon="-1.36666755191981792449951171875">
        <ele>1057</ele>
        <time>2021-09-25T08:31:37.000Z</time>
      </trkpt>
      <trkpt lat="40.57639385573565959930419921875" lon="-1.366544924676418304443359375">
        <ele>1056.5999755859375</ele>
        <time>2021-09-25T08:31:39.000Z</time>
      </trkpt>
      <trkpt lat="40.57636384852230548858642578125" lon="-1.36648264713585376739501953125">
        <ele>1056.4000244140625</ele>
        <time>2021-09-25T08:31:40.000Z</time>
      </trkpt>
      <trkpt lat="40.57633752934634685516357421875" lon="-1.366421543061733245849609375">
        <ele>1056</ele>
        <time>2021-09-25T08:31:41.000Z</time>
      </trkpt>
      <trkpt lat="40.57628824375569820404052734375" lon="-1.36629673652350902557373046875">
        <ele>1056.199951171875</ele>
        <time>2021-09-25T08:31:43.000Z</time>
      </trkpt>
      <trkpt lat="40.57622957043349742889404296875" lon="-1.3661984167993068695068359375">
        <ele>1056.199951171875</ele>
        <time>2021-09-25T08:31:45.000Z</time>
      </trkpt>
      <trkpt lat="40.57619486935436725616455078125" lon="-1.36614720337092876434326171875">
        <ele>1055.800048828125</ele>
        <time>2021-09-25T08:31:46.000Z</time>
      </trkpt>
      <trkpt lat="40.57615363039076328277587890625" lon="-1.36609439738094806671142578125">
        <ele>1055.199951171875</ele>
        <time>2021-09-25T08:31:47.000Z</time>
      </trkpt>
      <trkpt lat="40.57611138559877872467041015625" lon="-1.36604662053287029266357421875">
        <ele>1055</ele>
        <time>2021-09-25T08:31:48.000Z</time>
      </trkpt>
      <trkpt lat="40.5760662071406841278076171875" lon="-1.36600219644606113433837890625">
        <ele>1054.800048828125</ele>
        <time>2021-09-25T08:31:49.000Z</time>
      </trkpt>
      <trkpt lat="40.5759800411760807037353515625" lon="-1.36592105962336063385009765625">
        <ele>1054.4000244140625</ele>
        <time>2021-09-25T08:31:51.000Z</time>
      </trkpt>
      <trkpt lat="40.5759374611079692840576171875" lon="-1.3658849336206912994384765625">
        <ele>1054</ele>
        <time>2021-09-25T08:31:52.000Z</time>
      </trkpt>
      <trkpt lat="40.5758948810398578643798828125" lon="-1.3658436946570873260498046875">
        <ele>1053.4000244140625</ele>
        <time>2021-09-25T08:31:53.000Z</time>
      </trkpt>
      <trkpt lat="40.57581483386456966400146484375" lon="-1.3657602109014987945556640625">
        <ele>1052.800048828125</ele>
        <time>2021-09-25T08:31:55.000Z</time>
      </trkpt>
      <trkpt lat="40.57573604397475719451904296875" lon="-1.36567546986043453216552734375">
        <ele>1052.5999755859375</ele>
        <time>2021-09-25T08:31:57.000Z</time>
      </trkpt>
      <trkpt lat="40.5756662227213382720947265625" lon="-1.36558192782104015350341796875">
        <ele>1052.4000244140625</ele>
        <time>2021-09-25T08:31:59.000Z</time>
      </trkpt>
      <trkpt lat="40.57558827102184295654296875" lon="-1.36550732888281345367431640625">
        <ele>1052.199951171875</ele>
        <time>2021-09-25T08:32:01.000Z</time>
      </trkpt>
      <trkpt lat="40.5755099840462207794189453125" lon="-1.36543390341103076934814453125">
        <ele>1052.5999755859375</ele>
        <time>2021-09-25T08:32:03.000Z</time>
      </trkpt>
      <trkpt lat="40.57542138732969760894775390625" lon="-1.36536986567080020904541015625">
        <ele>1053</ele>
        <time>2021-09-25T08:32:05.000Z</time>
      </trkpt>
      <trkpt lat="40.57537545450031757354736328125" lon="-1.36533893644809722900390625">
        <ele>1052.800048828125</ele>
        <time>2021-09-25T08:32:06.000Z</time>
      </trkpt>
      <trkpt lat="40.57532616890966892242431640625" lon="-1.36531169526278972625732421875">
        <ele>1052.5999755859375</ele>
        <time>2021-09-25T08:32:07.000Z</time>
      </trkpt>
      <trkpt lat="40.57522617280483245849609375" lon="-1.36524329893290996551513671875">
        <ele>1052.199951171875</ele>
        <time>2021-09-25T08:32:09.000Z</time>
      </trkpt>
      <trkpt lat="40.57512533850967884063720703125" lon="-1.36519250459969043731689453125">
        <ele>1051.4000244140625</ele>
        <time>2021-09-25T08:32:11.000Z</time>
      </trkpt>
      <trkpt lat="40.57503716088831424713134765625" lon="-1.3651593960821628570556640625">
        <ele>1050.800048828125</ele>
        <time>2021-09-25T08:32:13.000Z</time>
      </trkpt>
      <trkpt lat="40.57497060857713222503662109375" lon="-1.36512494646012783050537109375">
        <ele>1050.800048828125</ele>
        <time>2021-09-25T08:32:15.000Z</time>
      </trkpt>
      <trkpt lat="40.574905313551425933837890625" lon="-1.36508555151522159576416015625">
        <ele>1051.199951171875</ele>
        <time>2021-09-25T08:32:17.000Z</time>
      </trkpt>
      <trkpt lat="40.57487991638481616973876953125" lon="-1.36506057344377040863037109375">
        <ele>1050.800048828125</ele>
        <time>2021-09-25T08:32:18.000Z</time>
      </trkpt>
      <trkpt lat="40.574856363236904144287109375" lon="-1.36502335779368877410888671875">
        <ele>1050.4000244140625</ele>
        <time>2021-09-25T08:32:19.000Z</time>
      </trkpt>
      <trkpt lat="40.574823506176471710205078125" lon="-1.36491942219436168670654296875">
        <ele>1049.800048828125</ele>
        <time>2021-09-25T08:32:21.000Z</time>
      </trkpt>
      <trkpt lat="40.574814788997173309326171875" lon="-1.3647879101336002349853515625">
        <ele>1049.800048828125</ele>
        <time>2021-09-25T08:32:23.000Z</time>
      </trkpt>
      <trkpt lat="40.57481051422655582427978515625" lon="-1.36466075666248798370361328125">
        <ele>1049.800048828125</ele>
        <time>2021-09-25T08:32:25.000Z</time>
      </trkpt>
      <trkpt lat="40.57480934076011180877685546875" lon="-1.36459596455097198486328125">
        <ele>1050</ele>
        <time>2021-09-25T08:32:26.000Z</time>
      </trkpt>
      <trkpt lat="40.57480238378047943115234375" lon="-1.36453636921942234039306640625">
        <ele>1049.800048828125</ele>
        <time>2021-09-25T08:32:27.000Z</time>
      </trkpt>
      <trkpt lat="40.57478788308799266815185546875" lon="-1.364406533539295196533203125">
        <ele>1049.5999755859375</ele>
        <time>2021-09-25T08:32:29.000Z</time>
      </trkpt>
      <trkpt lat="40.57476441375911235809326171875" lon="-1.36428105644881725311279296875">
        <ele>1049.800048828125</ele>
        <time>2021-09-25T08:32:31.000Z</time>
      </trkpt>
      <trkpt lat="40.5747341550886631011962890625" lon="-1.364147365093231201171875">
        <ele>1049.800048828125</ele>
        <time>2021-09-25T08:32:33.000Z</time>
      </trkpt>
      <trkpt lat="40.57469299994409084320068359375" lon="-1.36401518248021602630615234375">
        <ele>1049.800048828125</ele>
        <time>2021-09-25T08:32:35.000Z</time>
      </trkpt>
      <trkpt lat="40.57465896941721439361572265625" lon="-1.3638819940388202667236328125">
        <ele>1049.800048828125</ele>
        <time>2021-09-25T08:32:37.000Z</time>
      </trkpt>
      <trkpt lat="40.57461689226329326629638671875" lon="-1.36374033987522125244140625">
        <ele>1050</ele>
        <time>2021-09-25T08:32:39.000Z</time>
      </trkpt>
      <trkpt lat="40.5745755694806575775146484375" lon="-1.36360027827322483062744140625">
        <ele>1049.800048828125</ele>
        <time>2021-09-25T08:32:41.000Z</time>
      </trkpt>
      <trkpt lat="40.5745360068976879119873046875" lon="-1.36345158331096172332763671875">
        <ele>1049.800048828125</ele>
        <time>2021-09-25T08:32:43.000Z</time>
      </trkpt>
      <trkpt lat="40.57449636049568653106689453125" lon="-1.363304145634174346923828125">
        <ele>1050.4000244140625</ele>
        <time>2021-09-25T08:32:45.000Z</time>
      </trkpt>
      <trkpt lat="40.57445344515144824981689453125" lon="-1.3631748966872692108154296875">
        <ele>1050.4000244140625</ele>
        <time>2021-09-25T08:32:47.000Z</time>
      </trkpt>
      <trkpt lat="40.57441078126430511474609375" lon="-1.36304019950330257415771484375">
        <ele>1050.4000244140625</ele>
        <time>2021-09-25T08:32:49.000Z</time>
      </trkpt>
      <trkpt lat="40.5743586458265781402587890625" lon="-1.36289812624454498291015625">
        <ele>1050.5999755859375</ele>
        <time>2021-09-25T08:32:51.000Z</time>
      </trkpt>
      <trkpt lat="40.57429754175245761871337890625" lon="-1.36276141740381717681884765625">
        <ele>1050.800048828125</ele>
        <time>2021-09-25T08:32:53.000Z</time>
      </trkpt>
      <trkpt lat="40.57423350401222705841064453125" lon="-1.3626327551901340484619140625">
        <ele>1050.800048828125</ele>
        <time>2021-09-25T08:32:55.000Z</time>
      </trkpt>
      <trkpt lat="40.57416343130171298980712890625" lon="-1.3625103794038295745849609375">
        <ele>1050.5999755859375</ele>
        <time>2021-09-25T08:32:57.000Z</time>
      </trkpt>
      <trkpt lat="40.57408262975513935089111328125" lon="-1.36239412240684032440185546875">
        <ele>1050.199951171875</ele>
        <time>2021-09-25T08:32:59.000Z</time>
      </trkpt>
      <trkpt lat="40.573998056352138519287109375" lon="-1.36227174662053585052490234375">
        <ele>1049.5999755859375</ele>
        <time>2021-09-25T08:33:01.000Z</time>
      </trkpt>
      <trkpt lat="40.57390929199755191802978515625" lon="-1.3621719181537628173828125">
        <ele>1049</ele>
        <time>2021-09-25T08:33:03.000Z</time>
      </trkpt>
      <trkpt lat="40.57386235333979129791259765625" lon="-1.36212766170501708984375">
        <ele>1048.5999755859375</ele>
        <time>2021-09-25T08:33:04.000Z</time>
      </trkpt>
      <trkpt lat="40.573812313377857208251953125" lon="-1.3620845787227153778076171875">
        <ele>1048.4000244140625</ele>
        <time>2021-09-25T08:33:05.000Z</time>
      </trkpt>
      <trkpt lat="40.57371743023395538330078125" lon="-1.36198407970368862152099609375">
        <ele>1047.5999755859375</ele>
        <time>2021-09-25T08:33:07.000Z</time>
      </trkpt>
      <trkpt lat="40.57363570667803287506103515625" lon="-1.361857764422893524169921875">
        <ele>1047.800048828125</ele>
        <time>2021-09-25T08:33:09.000Z</time>
      </trkpt>
      <trkpt lat="40.57359714992344379425048828125" lon="-1.3617969118058681488037109375">
        <ele>1048.4000244140625</ele>
        <time>2021-09-25T08:33:10.000Z</time>
      </trkpt>
      <trkpt lat="40.57356244884431362152099609375" lon="-1.36173765175044536590576171875">
        <ele>1049.199951171875</ele>
        <time>2021-09-25T08:33:11.000Z</time>
      </trkpt>
      <trkpt lat="40.57349212467670440673828125" lon="-1.36162986047565937042236328125">
        <ele>1049</ele>
        <time>2021-09-25T08:33:13.000Z</time>
      </trkpt>
      <trkpt lat="40.57341945357620716094970703125" lon="-1.3615226559340953826904296875">
        <ele>1048.800048828125</ele>
        <time>2021-09-25T08:33:15.000Z</time>
      </trkpt>
      <trkpt lat="40.5733417533338069915771484375" lon="-1.3614153675734996795654296875">
        <ele>1049.199951171875</ele>
        <time>2021-09-25T08:33:17.000Z</time>
      </trkpt>
      <trkpt lat="40.57326002977788448333740234375" lon="-1.36128687299787998199462890625">
        <ele>1048.800048828125</ele>
        <time>2021-09-25T08:33:19.000Z</time>
      </trkpt>
      <trkpt lat="40.57317520491778850555419921875" lon="-1.36117086745798587799072265625">
        <ele>1048</ele>
        <time>2021-09-25T08:33:21.000Z</time>
      </trkpt>
      <trkpt lat="40.57308635674417018890380859375" lon="-1.36106944642961025238037109375">
        <ele>1047.199951171875</ele>
        <time>2021-09-25T08:33:23.000Z</time>
      </trkpt>
      <trkpt lat="40.5730068124830722808837890625" lon="-1.36095981113612651824951171875">
        <ele>1047</ele>
        <time>2021-09-25T08:33:25.000Z</time>
      </trkpt>
      <trkpt lat="40.57297269813716411590576171875" lon="-1.36090382002294063568115234375">
        <ele>1046.800048828125</ele>
        <time>2021-09-25T08:33:26.000Z</time>
      </trkpt>
      <trkpt lat="40.572939254343509674072265625" lon="-1.36085151694715023040771484375">
        <ele>1046.5999755859375</ele>
        <time>2021-09-25T08:33:27.000Z</time>
      </trkpt>
      <trkpt lat="40.57291218079626560211181640625" lon="-1.36079368181526660919189453125">
        <ele>1046.199951171875</ele>
        <time>2021-09-25T08:33:28.000Z</time>
      </trkpt>
      <trkpt lat="40.57288552634418010711669921875" lon="-1.36073400266468524932861328125">
        <ele>1046.199951171875</ele>
        <time>2021-09-25T08:33:29.000Z</time>
      </trkpt>
      <trkpt lat="40.57285367511212825775146484375" lon="-1.3606770895421504974365234375">
        <ele>1046</ele>
        <time>2021-09-25T08:33:30.000Z</time>
      </trkpt>
      <trkpt lat="40.57282065041363239288330078125" lon="-1.3606180809438228607177734375">
        <ele>1045.800048828125</ele>
        <time>2021-09-25T08:33:31.000Z</time>
      </trkpt>
      <trkpt lat="40.57275116443634033203125" lon="-1.36049687862396240234375">
        <ele>1046</ele>
        <time>2021-09-25T08:33:33.000Z</time>
      </trkpt>
      <trkpt lat="40.57268301956355571746826171875" lon="-1.36037073098123073577880859375">
        <ele>1046.199951171875</ele>
        <time>2021-09-25T08:33:35.000Z</time>
      </trkpt>
      <trkpt lat="40.57261361740529537200927734375" lon="-1.36025992222130298614501953125">
        <ele>1045.5999755859375</ele>
        <time>2021-09-25T08:33:37.000Z</time>
      </trkpt>
      <trkpt lat="40.57254656217992305755615234375" lon="-1.360156238079071044921875">
        <ele>1045.199951171875</ele>
        <time>2021-09-25T08:33:39.000Z</time>
      </trkpt>
      <trkpt lat="40.572512783110141754150390625" lon="-1.3601124845445156097412109375">
        <ele>1045</ele>
        <time>2021-09-25T08:33:40.000Z</time>
      </trkpt>
      <trkpt lat="40.5724764056503772735595703125" lon="-1.3600658811628818511962890625">
        <ele>1044.800048828125</ele>
        <time>2021-09-25T08:33:41.000Z</time>
      </trkpt>
      <trkpt lat="40.57243407703936100006103515625" lon="-1.36002489365637302398681640625">
        <ele>1044.5999755859375</ele>
        <time>2021-09-25T08:33:42.000Z</time>
      </trkpt>
      <trkpt lat="40.57239887304604053497314453125" lon="-1.359978206455707550048828125">
        <ele>1044.5999755859375</ele>
        <time>2021-09-25T08:33:43.000Z</time>
      </trkpt>
      <trkpt lat="40.57232804596424102783203125" lon="-1.35988759808242321014404296875">
        <ele>1044.5999755859375</ele>
        <time>2021-09-25T08:33:45.000Z</time>
      </trkpt>
      <trkpt lat="40.572254955768585205078125" lon="-1.35977871716022491455078125">
        <ele>1044.800048828125</ele>
        <time>2021-09-25T08:33:47.000Z</time>
      </trkpt>
      <trkpt lat="40.57222302071750164031982421875" lon="-1.35971694253385066986083984375">
        <ele>1044.800048828125</ele>
        <time>2021-09-25T08:33:48.000Z</time>
      </trkpt>
      <trkpt lat="40.5721937678754329681396484375" lon="-1.3596533238887786865234375">
        <ele>1044.800048828125</ele>
        <time>2021-09-25T08:33:49.000Z</time>
      </trkpt>
      <trkpt lat="40.57213987223803997039794921875" lon="-1.35952415876090526580810546875">
        <ele>1044.5999755859375</ele>
        <time>2021-09-25T08:33:51.000Z</time>
      </trkpt>
      <trkpt lat="40.57208522222936153411865234375" lon="-1.3594037108123302459716796875">
        <ele>1044.4000244140625</ele>
        <time>2021-09-25T08:33:53.000Z</time>
      </trkpt>
      <trkpt lat="40.57202604599297046661376953125" lon="-1.35929432697594165802001953125">
        <ele>1044.199951171875</ele>
        <time>2021-09-25T08:33:55.000Z</time>
      </trkpt>
      <trkpt lat="40.57197039015591144561767578125" lon="-1.35920162312686443328857421875">
        <ele>1044</ele>
        <time>2021-09-25T08:33:57.000Z</time>
      </trkpt>
      <trkpt lat="40.571922026574611663818359375" lon="-1.3591103442013263702392578125">
        <ele>1044.4000244140625</ele>
        <time>2021-09-25T08:33:59.000Z</time>
      </trkpt>
      <trkpt lat="40.57189713232219219207763671875" lon="-1.3590164668858051300048828125">
        <ele>1044.800048828125</ele>
        <time>2021-09-25T08:34:01.000Z</time>
      </trkpt>
      <trkpt lat="40.5718943662941455841064453125" lon="-1.35896575637161731719970703125">
        <ele>1044.800048828125</ele>
        <time>2021-09-25T08:34:02.000Z</time>
      </trkpt>
      <trkpt lat="40.57188975624740123748779296875" lon="-1.3589182309806346893310546875">
        <ele>1044.800048828125</ele>
        <time>2021-09-25T08:34:03.000Z</time>
      </trkpt>
      <trkpt lat="40.57190232910215854644775390625" lon="-1.35883952490985393524169921875">
        <ele>1044.5999755859375</ele>
        <time>2021-09-25T08:34:05.000Z</time>
      </trkpt>
      <trkpt lat="40.5719215236604213714599609375" lon="-1.3588055782020092010498046875">
        <ele>1044.4000244140625</ele>
        <time>2021-09-25T08:34:06.000Z</time>
      </trkpt>
      <trkpt lat="40.57194658555090427398681640625" lon="-1.35877146385610103607177734375">
        <ele>1044</ele>
        <time>2021-09-25T08:34:07.000Z</time>
      </trkpt>
      <trkpt lat="40.5720023252069950103759765625" lon="-1.3586862199008464813232421875">
        <ele>1043.199951171875</ele>
        <time>2021-09-25T08:34:09.000Z</time>
      </trkpt>
      <trkpt lat="40.5720623396337032318115234375" lon="-1.35858991183340549468994140625">
        <ele>1042.800048828125</ele>
        <time>2021-09-25T08:34:11.000Z</time>
      </trkpt>
      <trkpt lat="40.5720874853432178497314453125" lon="-1.3585393689572811126708984375">
        <ele>1042.5999755859375</ele>
        <time>2021-09-25T08:34:12.000Z</time>
      </trkpt>
      <trkpt lat="40.572106428444385528564453125" lon="-1.35848832316696643829345703125">
        <ele>1042.4000244140625</ele>
        <time>2021-09-25T08:34:13.000Z</time>
      </trkpt>
      <trkpt lat="40.5721329152584075927734375" lon="-1.35838807560503482818603515625">
        <ele>1042.4000244140625</ele>
        <time>2021-09-25T08:34:15.000Z</time>
      </trkpt>
      <trkpt lat="40.572146661579608917236328125" lon="-1.3583251275122165679931640625">
        <ele>1042.199951171875</ele>
        <time>2021-09-25T08:34:16.000Z</time>
      </trkpt>
      <trkpt lat="40.57215764187276363372802734375" lon="-1.3582714833319187164306640625">
        <ele>1042</ele>
        <time>2021-09-25T08:34:17.000Z</time>
      </trkpt>
      <trkpt lat="40.57217784225940704345703125" lon="-1.3581430725753307342529296875">
        <ele>1041.4000244140625</ele>
        <time>2021-09-25T08:34:19.000Z</time>
      </trkpt>
      <trkpt lat="40.57219259440898895263671875" lon="-1.3580139912664890289306640625">
        <ele>1041.199951171875</ele>
        <time>2021-09-25T08:34:21.000Z</time>
      </trkpt>
      <trkpt lat="40.57220407761633396148681640625" lon="-1.35788801126182079315185546875">
        <ele>1041.199951171875</ele>
        <time>2021-09-25T08:34:23.000Z</time>
      </trkpt>
      <trkpt lat="40.5722051672637462615966796875" lon="-1.35782866738736629486083984375">
        <ele>1041.199951171875</ele>
        <time>2021-09-25T08:34:24.000Z</time>
      </trkpt>
      <trkpt lat="40.57219854556024074554443359375" lon="-1.3577642105519771575927734375">
        <ele>1041.199951171875</ele>
        <time>2021-09-25T08:34:25.000Z</time>
      </trkpt>
      <trkpt lat="40.57217289693653583526611328125" lon="-1.35763638652861118316650390625">
        <ele>1041.199951171875</ele>
        <time>2021-09-25T08:34:27.000Z</time>
      </trkpt>
      <trkpt lat="40.57215244509279727935791015625" lon="-1.3575154356658458709716796875">
        <ele>1041.4000244140625</ele>
        <time>2021-09-25T08:34:29.000Z</time>
      </trkpt>
      <trkpt lat="40.57212562300264835357666015625" lon="-1.35742801241576671600341796875">
        <ele>1041.800048828125</ele>
        <time>2021-09-25T08:34:31.000Z</time>
      </trkpt>
      <trkpt lat="40.5721072666347026824951171875" lon="-1.35739423334598541259765625">
        <ele>1042</ele>
        <time>2021-09-25T08:34:32.000Z</time>
      </trkpt>
      <trkpt lat="40.57209410704672336578369140625" lon="-1.357367746531963348388671875">
        <ele>1042</ele>
        <time>2021-09-25T08:34:33.000Z</time>
      </trkpt>
      <trkpt lat="40.57207365520298480987548828125" lon="-1.35730882175266742706298828125">
        <ele>1042.199951171875</ele>
        <time>2021-09-25T08:34:35.000Z</time>
      </trkpt>
      <trkpt lat="40.57206108234822750091552734375" lon="-1.35727345012128353118896484375">
        <ele>1042.4000244140625</ele>
        <time>2021-09-25T08:34:36.000Z</time>
      </trkpt>
      <trkpt lat="40.57204507291316986083984375" lon="-1.357243694365024566650390625">
        <ele>1042.4000244140625</ele>
        <time>2021-09-25T08:34:37.000Z</time>
      </trkpt>
      <trkpt lat="40.57201665826141834259033203125" lon="-1.35717085562646389007568359375">
        <ele>1042.5999755859375</ele>
        <time>2021-09-25T08:34:39.000Z</time>
      </trkpt>
      <trkpt lat="40.57199033908545970916748046875" lon="-1.3570805825293064117431640625">
        <ele>1042.5999755859375</ele>
        <time>2021-09-25T08:34:41.000Z</time>
      </trkpt>
      <trkpt lat="40.57197877205908298492431640625" lon="-1.35703540407121181488037109375">
        <ele>1042.4000244140625</ele>
        <time>2021-09-25T08:34:42.000Z</time>
      </trkpt>
      <trkpt lat="40.5719666182994842529296875" lon="-1.35698595084249973297119140625">
        <ele>1042.199951171875</ele>
        <time>2021-09-25T08:34:43.000Z</time>
      </trkpt>
      <trkpt lat="40.5719478428363800048828125" lon="-1.3568710349500179290771484375">
        <ele>1042</ele>
        <time>2021-09-25T08:34:45.000Z</time>
      </trkpt>
      <trkpt lat="40.57193434797227382659912109375" lon="-1.3568155467510223388671875">
        <ele>1041.5999755859375</ele>
        <time>2021-09-25T08:34:46.000Z</time>
      </trkpt>
      <trkpt lat="40.57191758416593074798583984375" lon="-1.35676383040845394134521484375">
        <ele>1041.4000244140625</ele>
        <time>2021-09-25T08:34:47.000Z</time>
      </trkpt>
      <trkpt lat="40.57189914397895336151123046875" lon="-1.35671555064618587493896484375">
        <ele>1041.4000244140625</ele>
        <time>2021-09-25T08:34:48.000Z</time>
      </trkpt>
      <trkpt lat="40.57188422419130802154541015625" lon="-1.356663666665554046630859375">
        <ele>1041.199951171875</ele>
        <time>2021-09-25T08:34:49.000Z</time>
      </trkpt>
      <trkpt lat="40.571854971349239349365234375" lon="-1.3565634191036224365234375">
        <ele>1041</ele>
        <time>2021-09-25T08:34:51.000Z</time>
      </trkpt>
      <trkpt lat="40.5718229524791240692138671875" lon="-1.3564603216946125030517578125">
        <ele>1040.800048828125</ele>
        <time>2021-09-25T08:34:53.000Z</time>
      </trkpt>
      <trkpt lat="40.57179017923772335052490234375" lon="-1.356361918151378631591796875">
        <ele>1040.4000244140625</ele>
        <time>2021-09-25T08:34:55.000Z</time>
      </trkpt>
      <trkpt lat="40.57177509181201457977294921875" lon="-1.35631388984620571136474609375">
        <ele>1040.199951171875</ele>
        <time>2021-09-25T08:34:56.000Z</time>
      </trkpt>
      <trkpt lat="40.57175941765308380126953125" lon="-1.3562651909887790679931640625">
        <ele>1040.199951171875</ele>
        <time>2021-09-25T08:34:57.000Z</time>
      </trkpt>
      <trkpt lat="40.5717371217906475067138671875" lon="-1.35616905055940151214599609375">
        <ele>1040</ele>
        <time>2021-09-25T08:34:59.000Z</time>
      </trkpt>
      <trkpt lat="40.57172027416527271270751953125" lon="-1.356069557368755340576171875">
        <ele>1039.800048828125</ele>
        <time>2021-09-25T08:35:01.000Z</time>
      </trkpt>
      <trkpt lat="40.57171340100467205047607421875" lon="-1.35601784102618694305419921875">
        <ele>1039.800048828125</ele>
        <time>2021-09-25T08:35:02.000Z</time>
      </trkpt>
      <trkpt lat="40.57171021588146686553955078125" lon="-1.35596570558845996856689453125">
        <ele>1039.800048828125</ele>
        <time>2021-09-25T08:35:03.000Z</time>
      </trkpt>
      <trkpt lat="40.5717076174914836883544921875" lon="-1.35585732758045196533203125">
        <ele>1039.800048828125</ele>
        <time>2021-09-25T08:35:05.000Z</time>
      </trkpt>
      <trkpt lat="40.57171382009983062744140625" lon="-1.35575406253337860107421875">
        <ele>1040</ele>
        <time>2021-09-25T08:35:07.000Z</time>
      </trkpt>
      <trkpt lat="40.57172228582203388214111328125" lon="-1.3556492887437343597412109375">
        <ele>1039.800048828125</ele>
        <time>2021-09-25T08:35:09.000Z</time>
      </trkpt>
      <trkpt lat="40.57172714732587337493896484375" lon="-1.3555414974689483642578125">
        <ele>1039.800048828125</ele>
        <time>2021-09-25T08:35:11.000Z</time>
      </trkpt>
      <trkpt lat="40.5717284046113491058349609375" lon="-1.35544653050601482391357421875">
        <ele>1040</ele>
        <time>2021-09-25T08:35:13.000Z</time>
      </trkpt>
      <trkpt lat="40.5717213638126850128173828125" lon="-1.35536237619817256927490234375">
        <ele>1040.4000244140625</ele>
        <time>2021-09-25T08:35:15.000Z</time>
      </trkpt>
      <trkpt lat="40.5717146582901477813720703125" lon="-1.35531778447329998016357421875">
        <ele>1040.5999755859375</ele>
        <time>2021-09-25T08:35:16.000Z</time>
      </trkpt>
      <trkpt lat="40.57169931940734386444091796875" lon="-1.35528107173740863800048828125">
        <ele>1040.800048828125</ele>
        <time>2021-09-25T08:35:17.000Z</time>
      </trkpt>
      <trkpt lat="40.5716549791395664215087890625" lon="-1.3552142679691314697265625">
        <ele>1041</ele>
        <time>2021-09-25T08:35:19.000Z</time>
      </trkpt>
      <trkpt lat="40.57162589393556118011474609375" lon="-1.35518610477447509765625">
        <ele>1041</ele>
        <time>2021-09-25T08:35:20.000Z</time>
      </trkpt>
      <trkpt lat="40.57159245014190673828125" lon="-1.35516942478716373443603515625">
        <ele>1041</ele>
        <time>2021-09-25T08:35:21.000Z</time>
      </trkpt>
      <trkpt lat="40.57152380235493183135986328125" lon="-1.355148889124393463134765625">
        <ele>1041</ele>
        <time>2021-09-25T08:35:23.000Z</time>
      </trkpt>
      <trkpt lat="40.57145708240568637847900390625" lon="-1.355153582990169525146484375">
        <ele>1041.199951171875</ele>
        <time>2021-09-25T08:35:25.000Z</time>
      </trkpt>
      <trkpt lat="40.57140000164508819580078125" lon="-1.3551651500165462493896484375">
        <ele>1041.4000244140625</ele>
        <time>2021-09-25T08:35:27.000Z</time>
      </trkpt>
      <trkpt lat="40.57134241797029972076416015625" lon="-1.35516389273107051849365234375">
        <ele>1042</ele>
        <time>2021-09-25T08:35:29.000Z</time>
      </trkpt>
      <trkpt lat="40.5712853372097015380859375" lon="-1.35515064932405948638916015625">
        <ele>1042.5999755859375</ele>
        <time>2021-09-25T08:35:31.000Z</time>
      </trkpt>
      <trkpt lat="40.57125625200569629669189453125" lon="-1.35513849556446075439453125">
        <ele>1043</ele>
        <time>2021-09-25T08:35:32.000Z</time>
      </trkpt>
      <trkpt lat="40.57123370468616485595703125" lon="-1.35512030683457851409912109375">
        <ele>1043.199951171875</ele>
        <time>2021-09-25T08:35:33.000Z</time>
      </trkpt>
      <trkpt lat="40.5711995065212249755859375" lon="-1.35507219471037387847900390625">
        <ele>1043.5999755859375</ele>
        <time>2021-09-25T08:35:35.000Z</time>
      </trkpt>
      <trkpt lat="40.571173019707202911376953125" lon="-1.3550172932446002960205078125">
        <ele>1043.5999755859375</ele>
        <time>2021-09-25T08:35:37.000Z</time>
      </trkpt>
      <trkpt lat="40.57115466333925724029541015625" lon="-1.35496281087398529052734375">
        <ele>1043.800048828125</ele>
        <time>2021-09-25T08:35:39.000Z</time>
      </trkpt>
      <trkpt lat="40.57113236747682094573974609375" lon="-1.35491159744560718536376953125">
        <ele>1044.199951171875</ele>
        <time>2021-09-25T08:35:41.000Z</time>
      </trkpt>
      <trkpt lat="40.57111174799501895904541015625" lon="-1.35485929436981678009033203125">
        <ele>1044.5999755859375</ele>
        <time>2021-09-25T08:35:43.000Z</time>
      </trkpt>
      <trkpt lat="40.57109959423542022705078125" lon="-1.35483532212674617767333984375">
        <ele>1044.800048828125</ele>
        <time>2021-09-25T08:35:44.000Z</time>
      </trkpt>
      <trkpt lat="40.57108886539936065673828125" lon="-1.35481487028300762176513671875">
        <ele>1045</ele>
        <time>2021-09-25T08:35:45.000Z</time>
      </trkpt>
      <trkpt lat="40.5710598640143871307373046875" lon="-1.35477446950972080230712890625">
        <ele>1045.4000244140625</ele>
        <time>2021-09-25T08:35:47.000Z</time>
      </trkpt>
      <trkpt lat="40.57102021761238574981689453125" lon="-1.3547400198876857757568359375">
        <ele>1045.800048828125</ele>
        <time>2021-09-25T08:35:49.000Z</time>
      </trkpt>
      <trkpt lat="40.57099758647382259368896484375" lon="-1.35472669266164302825927734375">
        <ele>1046</ele>
        <time>2021-09-25T08:35:50.000Z</time>
      </trkpt>
      <trkpt lat="40.570978559553623199462890625" lon="-1.3547085039317607879638671875">
        <ele>1046</ele>
        <time>2021-09-25T08:35:51.000Z</time>
      </trkpt>
      <trkpt lat="40.57094159536063671112060546875" lon="-1.35467707179486751556396484375">
        <ele>1046.4000244140625</ele>
        <time>2021-09-25T08:35:53.000Z</time>
      </trkpt>
      <trkpt lat="40.5709083192050457000732421875" lon="-1.35464438237249851226806640625">
        <ele>1046.5999755859375</ele>
        <time>2021-09-25T08:35:55.000Z</time>
      </trkpt>
      <trkpt lat="40.5708908848464488983154296875" lon="-1.3546337373554706573486328125">
        <ele>1046.800048828125</ele>
        <time>2021-09-25T08:35:56.000Z</time>
      </trkpt>
      <trkpt lat="40.5708764679729938507080078125" lon="-1.35462661273777484893798828125">
        <ele>1046.800048828125</ele>
        <time>2021-09-25T08:35:57.000Z</time>
      </trkpt>
      <trkpt lat="40.57085308246314525604248046875" lon="-1.3546152971684932708740234375">
        <ele>1047</ele>
        <time>2021-09-25T08:35:59.000Z</time>
      </trkpt>
      <trkpt lat="40.57082760147750377655029296875" lon="-1.35460741817951202392578125">
        <ele>1047.4000244140625</ele>
        <time>2021-09-25T08:36:01.000Z</time>
      </trkpt>
      <trkpt lat="40.57081419043242931365966796875" lon="-1.354616470634937286376953125">
        <ele>1047.5999755859375</ele>
        <time>2021-09-25T08:36:03.000Z</time>
      </trkpt>
      <trkpt lat="40.57081419043242931365966796875" lon="-1.354616470634937286376953125">
        <ele>1047.5999755859375</ele>
        <time>2021-09-25T08:36:04.000Z</time>
      </trkpt>
      <trkpt lat="40.57074629701673984527587890625" lon="-1.35461521334946155548095703125">
        <ele>1048.5999755859375</ele>
        <time>2021-09-25T08:38:47.000Z</time>
      </trkpt>
      <trkpt lat="40.57071335613727569580078125" lon="-1.35460448451340198516845703125">
        <ele>1049</ele>
        <time>2021-09-25T08:38:48.000Z</time>
      </trkpt>
      <trkpt lat="40.5706833489239215850830078125" lon="-1.35458671487867832183837890625">
        <ele>1049.4000244140625</ele>
        <time>2021-09-25T08:38:49.000Z</time>
      </trkpt>
      <trkpt lat="40.570643953979015350341796875" lon="-1.35452561080455780029296875">
        <ele>1050</ele>
        <time>2021-09-25T08:38:51.000Z</time>
      </trkpt>
      <trkpt lat="40.5706337280571460723876953125" lon="-1.35448344983160495758056640625">
        <ele>1050.199951171875</ele>
        <time>2021-09-25T08:38:52.000Z</time>
      </trkpt>
      <trkpt lat="40.5706255137920379638671875" lon="-1.35444355197250843048095703125">
        <ele>1050.199951171875</ele>
        <time>2021-09-25T08:38:53.000Z</time>
      </trkpt>
      <trkpt lat="40.57061118073761463165283203125" lon="-1.35436962358653545379638671875">
        <ele>1050.4000244140625</ele>
        <time>2021-09-25T08:38:55.000Z</time>
      </trkpt>
      <trkpt lat="40.5706015415489673614501953125" lon="-1.354287229478359222412109375">
        <ele>1049.800048828125</ele>
        <time>2021-09-25T08:38:57.000Z</time>
      </trkpt>
      <trkpt lat="40.5705951713025569915771484375" lon="-1.35419812984764575958251953125">
        <ele>1049.4000244140625</ele>
        <time>2021-09-25T08:38:59.000Z</time>
      </trkpt>
      <trkpt lat="40.570586957037448883056640625" lon="-1.3541197590529918670654296875">
        <ele>1048.800048828125</ele>
        <time>2021-09-25T08:39:01.000Z</time>
      </trkpt>
      <trkpt lat="40.5705777369439601898193359375" lon="-1.35403267107903957366943359375">
        <ele>1048.5999755859375</ele>
        <time>2021-09-25T08:39:03.000Z</time>
      </trkpt>
      <trkpt lat="40.57056256569921970367431640625" lon="-1.3539507798850536346435546875">
        <ele>1048.5999755859375</ele>
        <time>2021-09-25T08:39:05.000Z</time>
      </trkpt>
      <trkpt lat="40.57054613716900348663330078125" lon="-1.35386318899691104888916015625">
        <ele>1048.4000244140625</ele>
        <time>2021-09-25T08:39:07.000Z</time>
      </trkpt>
      <trkpt lat="40.57053892873227596282958984375" lon="-1.3538183458149433135986328125">
        <ele>1048.5999755859375</ele>
        <time>2021-09-25T08:39:08.000Z</time>
      </trkpt>
      <trkpt lat="40.57052887044847011566162109375" lon="-1.35377325117588043212890625">
        <ele>1048.5999755859375</ele>
        <time>2021-09-25T08:39:09.000Z</time>
      </trkpt>
      <trkpt lat="40.57050942443311214447021484375" lon="-1.35367275215685367584228515625">
        <ele>1049</ele>
        <time>2021-09-25T08:39:11.000Z</time>
      </trkpt>
      <trkpt lat="40.5704845301806926727294921875" lon="-1.3535692356526851654052734375">
        <ele>1049</ele>
        <time>2021-09-25T08:39:13.000Z</time>
      </trkpt>
      <trkpt lat="40.57045988738536834716796875" lon="-1.35346739552915096282958984375">
        <ele>1048.800048828125</ele>
        <time>2021-09-25T08:39:15.000Z</time>
      </trkpt>
      <trkpt lat="40.57043633423745632171630859375" lon="-1.35335155762732028961181640625">
        <ele>1048.800048828125</ele>
        <time>2021-09-25T08:39:17.000Z</time>
      </trkpt>
      <trkpt lat="40.57041085325181484222412109375" lon="-1.353231109678745269775390625">
        <ele>1048.5999755859375</ele>
        <time>2021-09-25T08:39:19.000Z</time>
      </trkpt>
      <trkpt lat="40.5703906528651714324951171875" lon="-1.35311485268175601959228515625">
        <ele>1048.4000244140625</ele>
        <time>2021-09-25T08:39:21.000Z</time>
      </trkpt>
      <trkpt lat="40.57038168422877788543701171875" lon="-1.353057436645030975341796875">
        <ele>1048.199951171875</ele>
        <time>2021-09-25T08:39:22.000Z</time>
      </trkpt>
      <trkpt lat="40.5703732185065746307373046875" lon="-1.3529985956847667694091796875">
        <ele>1048.199951171875</ele>
        <time>2021-09-25T08:39:23.000Z</time>
      </trkpt>
      <trkpt lat="40.57036005891859531402587890625" lon="-1.35287881828844547271728515625">
        <ele>1047.5999755859375</ele>
        <time>2021-09-25T08:39:25.000Z</time>
      </trkpt>
      <trkpt lat="40.57034782133996486663818359375" lon="-1.35276013053953647613525390625">
        <ele>1046.800048828125</ele>
        <time>2021-09-25T08:39:27.000Z</time>
      </trkpt>
      <trkpt lat="40.57033474557101726531982421875" lon="-1.35263574309647083282470703125">
        <ele>1046.199951171875</ele>
        <time>2021-09-25T08:39:29.000Z</time>
      </trkpt>
      <trkpt lat="40.5703282915055751800537109375" lon="-1.3525764830410480499267578125">
        <ele>1045.800048828125</ele>
        <time>2021-09-25T08:39:30.000Z</time>
      </trkpt>
      <trkpt lat="40.5703205801546573638916015625" lon="-1.35251663625240325927734375">
        <ele>1045.4000244140625</ele>
        <time>2021-09-25T08:39:31.000Z</time>
      </trkpt>
      <trkpt lat="40.57030406780540943145751953125" lon="-1.3524038158357143402099609375">
        <ele>1045</ele>
        <time>2021-09-25T08:39:33.000Z</time>
      </trkpt>
      <trkpt lat="40.5702780000865459442138671875" lon="-1.35228889994323253631591796875">
        <ele>1045</ele>
        <time>2021-09-25T08:39:35.000Z</time>
      </trkpt>
      <trkpt lat="40.57023634202778339385986328125" lon="-1.35217423550784587860107421875">
        <ele>1045.199951171875</ele>
        <time>2021-09-25T08:39:37.000Z</time>
      </trkpt>
      <trkpt lat="40.57018605060875415802001953125" lon="-1.352071054279804229736328125">
        <ele>1045</ele>
        <time>2021-09-25T08:39:39.000Z</time>
      </trkpt>
      <trkpt lat="40.57012519799172878265380859375" lon="-1.351976506412029266357421875">
        <ele>1045.199951171875</ele>
        <time>2021-09-25T08:39:41.000Z</time>
      </trkpt>
      <trkpt lat="40.57006518356502056121826171875" lon="-1.35187617503106594085693359375">
        <ele>1045.5999755859375</ele>
        <time>2021-09-25T08:39:43.000Z</time>
      </trkpt>
      <trkpt lat="40.57000667788088321685791015625" lon="-1.3517838902771472930908203125">
        <ele>1045.5999755859375</ele>
        <time>2021-09-25T08:39:45.000Z</time>
      </trkpt>
      <trkpt lat="40.569949261844158172607421875" lon="-1.3516873307526111602783203125">
        <ele>1045.5999755859375</ele>
        <time>2021-09-25T08:39:47.000Z</time>
      </trkpt>
      <trkpt lat="40.56989184580743312835693359375" lon="-1.35158834047615528106689453125">
        <ele>1045.800048828125</ele>
        <time>2021-09-25T08:39:49.000Z</time>
      </trkpt>
      <trkpt lat="40.569835603237152099609375" lon="-1.35149245150387287139892578125">
        <ele>1045.800048828125</ele>
        <time>2021-09-25T08:39:51.000Z</time>
      </trkpt>
      <trkpt lat="40.56977433152496814727783203125" lon="-1.35139840655028820037841796875">
        <ele>1046</ele>
        <time>2021-09-25T08:39:53.000Z</time>
      </trkpt>
      <trkpt lat="40.56971431709825992584228515625" lon="-1.3513007573783397674560546875">
        <ele>1046</ele>
        <time>2021-09-25T08:39:55.000Z</time>
      </trkpt>
      <trkpt lat="40.5696545541286468505859375" lon="-1.35120905935764312744140625">
        <ele>1045.800048828125</ele>
        <time>2021-09-25T08:39:57.000Z</time>
      </trkpt>
      <trkpt lat="40.56959613226354122161865234375" lon="-1.35111375711858272552490234375">
        <ele>1045.5999755859375</ele>
        <time>2021-09-25T08:39:59.000Z</time>
      </trkpt>
      <trkpt lat="40.56956713087856769561767578125" lon="-1.3510643877089023590087890625">
        <ele>1045.5999755859375</ele>
        <time>2021-09-25T08:40:00.000Z</time>
      </trkpt>
      <trkpt lat="40.56953980587422847747802734375" lon="-1.35101501829922199249267578125">
        <ele>1045.5999755859375</ele>
        <time>2021-09-25T08:40:01.000Z</time>
      </trkpt>
      <trkpt lat="40.569480545818805694580078125" lon="-1.35091912932693958282470703125">
        <ele>1045.4000244140625</ele>
        <time>2021-09-25T08:40:03.000Z</time>
      </trkpt>
      <trkpt lat="40.5694230459630489349365234375" lon="-1.35081837885081768035888671875">
        <ele>1045</ele>
        <time>2021-09-25T08:40:05.000Z</time>
      </trkpt>
      <trkpt lat="40.56939329020678997039794921875" lon="-1.3507700152695178985595703125">
        <ele>1045</ele>
        <time>2021-09-25T08:40:06.000Z</time>
      </trkpt>
      <trkpt lat="40.56936378590762615203857421875" lon="-1.350720562040805816650390625">
        <ele>1045</ele>
        <time>2021-09-25T08:40:07.000Z</time>
      </trkpt>
      <trkpt lat="40.56930460967123508453369140625" lon="-1.3506258465349674224853515625">
        <ele>1045</ele>
        <time>2021-09-25T08:40:09.000Z</time>
      </trkpt>
      <trkpt lat="40.56924526579678058624267578125" lon="-1.35052911937236785888671875">
        <ele>1045</ele>
        <time>2021-09-25T08:40:11.000Z</time>
      </trkpt>
      <trkpt lat="40.5691771209239959716796875" lon="-1.350435912609100341796875">
        <ele>1045.199951171875</ele>
        <time>2021-09-25T08:40:13.000Z</time>
      </trkpt>
      <trkpt lat="40.5691209621727466583251953125" lon="-1.35034597478806972503662109375">
        <ele>1045.5999755859375</ele>
        <time>2021-09-25T08:40:15.000Z</time>
      </trkpt>
      <trkpt lat="40.5690629594027996063232421875" lon="-1.35025419294834136962890625">
        <ele>1045.5999755859375</ele>
        <time>2021-09-25T08:40:17.000Z</time>
      </trkpt>
      <trkpt lat="40.5690032802522182464599609375" lon="-1.35015964508056640625">
        <ele>1045</ele>
        <time>2021-09-25T08:40:19.000Z</time>
      </trkpt>
      <trkpt lat="40.56897117756307125091552734375" lon="-1.35011329315602779388427734375">
        <ele>1044.800048828125</ele>
        <time>2021-09-25T08:40:20.000Z</time>
      </trkpt>
      <trkpt lat="40.5689368955790996551513671875" lon="-1.35006484575569629669189453125">
        <ele>1044.4000244140625</ele>
        <time>2021-09-25T08:40:21.000Z</time>
      </trkpt>
      <trkpt lat="40.5688688345253467559814453125" lon="-1.349962837994098663330078125">
        <ele>1044.199951171875</ele>
        <time>2021-09-25T08:40:23.000Z</time>
      </trkpt>
      <trkpt lat="40.5688096582889556884765625" lon="-1.34986166842281818389892578125">
        <ele>1044.4000244140625</ele>
        <time>2021-09-25T08:40:25.000Z</time>
      </trkpt>
      <trkpt lat="40.56878107599914073944091796875" lon="-1.34981422685086727142333984375">
        <ele>1044.4000244140625</ele>
        <time>2021-09-25T08:40:26.000Z</time>
      </trkpt>
      <trkpt lat="40.5687511526048183441162109375" lon="-1.34976577945053577423095703125">
        <ele>1044.5999755859375</ele>
        <time>2021-09-25T08:40:27.000Z</time>
      </trkpt>
      <trkpt lat="40.56868753395974636077880859375" lon="-1.349665783345699310302734375">
        <ele>1044.800048828125</ele>
        <time>2021-09-25T08:40:29.000Z</time>
      </trkpt>
      <trkpt lat="40.5686291120946407318115234375" lon="-1.349566876888275146484375">
        <ele>1045</ele>
        <time>2021-09-25T08:40:31.000Z</time>
      </trkpt>
      <trkpt lat="40.56857404299080371856689453125" lon="-1.3494691438972949981689453125">
        <ele>1045.4000244140625</ele>
        <time>2021-09-25T08:40:33.000Z</time>
      </trkpt>
      <trkpt lat="40.5685468018054962158203125" lon="-1.34942002594470977783203125">
        <ele>1045.5999755859375</ele>
        <time>2021-09-25T08:40:34.000Z</time>
      </trkpt>
      <trkpt lat="40.56852056644856929779052734375" lon="-1.3493759371340274810791015625">
        <ele>1045.800048828125</ele>
        <time>2021-09-25T08:40:35.000Z</time>
      </trkpt>
      <trkpt lat="40.5684725381433963775634765625" lon="-1.3492844067513942718505859375">
        <ele>1046.199951171875</ele>
        <time>2021-09-25T08:40:37.000Z</time>
      </trkpt>
      <trkpt lat="40.56844663806259632110595703125" lon="-1.34923822246491909027099609375">
        <ele>1045.800048828125</ele>
        <time>2021-09-25T08:40:38.000Z</time>
      </trkpt>
      <trkpt lat="40.5684185586869716644287109375" lon="-1.3491948880255222320556640625">
        <ele>1045.5999755859375</ele>
        <time>2021-09-25T08:40:39.000Z</time>
      </trkpt>
      <trkpt lat="40.56835946626961231231689453125" lon="-1.3491050340235233306884765625">
        <ele>1044.800048828125</ele>
        <time>2021-09-25T08:40:41.000Z</time>
      </trkpt>
      <trkpt lat="40.56830431334674358367919921875" lon="-1.34901576675474643707275390625">
        <ele>1044.4000244140625</ele>
        <time>2021-09-25T08:40:43.000Z</time>
      </trkpt>
      <trkpt lat="40.56825100444257259368896484375" lon="-1.34892918169498443603515625">
        <ele>1044</ele>
        <time>2021-09-25T08:40:45.000Z</time>
      </trkpt>
      <trkpt lat="40.56819769553840160369873046875" lon="-1.34884737432003021240234375">
        <ele>1043.5999755859375</ele>
        <time>2021-09-25T08:40:47.000Z</time>
      </trkpt>
      <trkpt lat="40.56814572773873805999755859375" lon="-1.34876363910734653472900390625">
        <ele>1043.4000244140625</ele>
        <time>2021-09-25T08:40:49.000Z</time>
      </trkpt>
      <trkpt lat="40.5680961906909942626953125" lon="-1.34867982007563114166259765625">
        <ele>1043.800048828125</ele>
        <time>2021-09-25T08:40:51.000Z</time>
      </trkpt>
      <trkpt lat="40.56804480962455272674560546875" lon="-1.3485967554152011871337890625">
        <ele>1044.4000244140625</ele>
        <time>2021-09-25T08:40:53.000Z</time>
      </trkpt>
      <trkpt lat="40.5679944343864917755126953125" lon="-1.34851637296378612518310546875">
        <ele>1044.800048828125</ele>
        <time>2021-09-25T08:40:55.000Z</time>
      </trkpt>
      <trkpt lat="40.567943640053272247314453125" lon="-1.34843892417848110198974609375">
        <ele>1045.4000244140625</ele>
        <time>2021-09-25T08:40:57.000Z</time>
      </trkpt>
      <trkpt lat="40.5678915046155452728271484375" lon="-1.3483577035367488861083984375">
        <ele>1045.5999755859375</ele>
        <time>2021-09-25T08:40:59.000Z</time>
      </trkpt>
      <trkpt lat="40.5678666941821575164794921875" lon="-1.3483161292970180511474609375">
        <ele>1045.5999755859375</ele>
        <time>2021-09-25T08:41:00.000Z</time>
      </trkpt>
      <trkpt lat="40.5678415484726428985595703125" lon="-1.348277069628238677978515625">
        <ele>1045.5999755859375</ele>
        <time>2021-09-25T08:41:01.000Z</time>
      </trkpt>
      <trkpt lat="40.5678153969347476959228515625" lon="-1.348232813179492950439453125">
        <ele>1045.5999755859375</ele>
        <time>2021-09-25T08:41:02.000Z</time>
      </trkpt>
      <trkpt lat="40.5677919276058673858642578125" lon="-1.34818864054977893829345703125">
        <ele>1045.5999755859375</ele>
        <time>2021-09-25T08:41:03.000Z</time>
      </trkpt>
      <trkpt lat="40.56774775497615337371826171875" lon="-1.3481002114713191986083984375">
        <ele>1045.4000244140625</ele>
        <time>2021-09-25T08:41:05.000Z</time>
      </trkpt>
      <trkpt lat="40.56769779883325099945068359375" lon="-1.3480098545551300048828125">
        <ele>1045</ele>
        <time>2021-09-25T08:41:07.000Z</time>
      </trkpt>
      <trkpt lat="40.56764985434710979461669921875" lon="-1.34791371412575244903564453125">
        <ele>1044.5999755859375</ele>
        <time>2021-09-25T08:41:09.000Z</time>
      </trkpt>
      <trkpt lat="40.5675994791090488433837890625" lon="-1.34782335720956325531005859375">
        <ele>1044.800048828125</ele>
        <time>2021-09-25T08:41:11.000Z</time>
      </trkpt>
      <trkpt lat="40.56755044497549533843994140625" lon="-1.34773685596883296966552734375">
        <ele>1044.800048828125</ele>
        <time>2021-09-25T08:41:13.000Z</time>
      </trkpt>
      <trkpt lat="40.5674952082335948944091796875" lon="-1.34764750488102436065673828125">
        <ele>1044.5999755859375</ele>
        <time>2021-09-25T08:41:15.000Z</time>
      </trkpt>
      <trkpt lat="40.56743972003459930419921875" lon="-1.34755815379321575164794921875">
        <ele>1044</ele>
        <time>2021-09-25T08:41:17.000Z</time>
      </trkpt>
      <trkpt lat="40.5673855729401111602783203125" lon="-1.34746243245899677276611328125">
        <ele>1043.5999755859375</ele>
        <time>2021-09-25T08:41:19.000Z</time>
      </trkpt>
      <trkpt lat="40.56733184494078159332275390625" lon="-1.347367465496063232421875">
        <ele>1043</ele>
        <time>2021-09-25T08:41:21.000Z</time>
      </trkpt>
      <trkpt lat="40.56727216579020023345947265625" lon="-1.34727300144731998443603515625">
        <ele>1043</ele>
        <time>2021-09-25T08:41:23.000Z</time>
      </trkpt>
      <trkpt lat="40.5672137439250946044921875" lon="-1.34718080051243305206298828125">
        <ele>1043</ele>
        <time>2021-09-25T08:41:25.000Z</time>
      </trkpt>
      <trkpt lat="40.5671528913080692291259765625" lon="-1.3470766134560108184814453125">
        <ele>1043</ele>
        <time>2021-09-25T08:41:27.000Z</time>
      </trkpt>
      <trkpt lat="40.56708156131207942962646484375" lon="-1.3469760306179523468017578125">
        <ele>1042.800048828125</ele>
        <time>2021-09-25T08:41:29.000Z</time>
      </trkpt>
      <trkpt lat="40.56700679473578929901123046875" lon="-1.34687787853181362152099609375">
        <ele>1042.5999755859375</ele>
        <time>2021-09-25T08:41:31.000Z</time>
      </trkpt>
      <trkpt lat="40.56692666374146938323974609375" lon="-1.34678316302597522735595703125">
        <ele>1042.199951171875</ele>
        <time>2021-09-25T08:41:33.000Z</time>
      </trkpt>
      <trkpt lat="40.5668903701007366180419921875" lon="-1.3467369787395000457763671875">
        <ele>1041.800048828125</ele>
        <time>2021-09-25T08:41:34.000Z</time>
      </trkpt>
      <trkpt lat="40.5668518133461475372314453125" lon="-1.34669079445302486419677734375">
        <ele>1041.4000244140625</ele>
        <time>2021-09-25T08:41:35.000Z</time>
      </trkpt>
      <trkpt lat="40.56677796877920627593994140625" lon="-1.34659968316555023193359375">
        <ele>1041</ele>
        <time>2021-09-25T08:41:37.000Z</time>
      </trkpt>
      <trkpt lat="40.5667032860219478607177734375" lon="-1.3465083204209804534912109375">
        <ele>1040.199951171875</ele>
        <time>2021-09-25T08:41:39.000Z</time>
      </trkpt>
      <trkpt lat="40.5666271783411502838134765625" lon="-1.3464211486279964447021484375">
        <ele>1039.5999755859375</ele>
        <time>2021-09-25T08:41:41.000Z</time>
      </trkpt>
      <trkpt lat="40.56655484251677989959716796875" lon="-1.346329785883426666259765625">
        <ele>1039.4000244140625</ele>
        <time>2021-09-25T08:41:43.000Z</time>
      </trkpt>
      <trkpt lat="40.5664809979498386383056640625" lon="-1.34623825550079345703125">
        <ele>1039.4000244140625</ele>
        <time>2021-09-25T08:41:45.000Z</time>
      </trkpt>
      <trkpt lat="40.5664028786122798919677734375" lon="-1.34615435265004634857177734375">
        <ele>1038.5999755859375</ele>
        <time>2021-09-25T08:41:47.000Z</time>
      </trkpt>
      <trkpt lat="40.566322915256023406982421875" lon="-1.34607304818928241729736328125">
        <ele>1038.5999755859375</ele>
        <time>2021-09-25T08:41:49.000Z</time>
      </trkpt>
      <trkpt lat="40.56628108955919742584228515625" lon="-1.3460318930447101593017578125">
        <ele>1039</ele>
        <time>2021-09-25T08:41:50.000Z</time>
      </trkpt>
      <trkpt lat="40.5662401020526885986328125" lon="-1.34599291719496250152587890625">
        <ele>1039.199951171875</ele>
        <time>2021-09-25T08:41:51.000Z</time>
      </trkpt>
      <trkpt lat="40.56615804322063922882080078125" lon="-1.3459128700196743011474609375">
        <ele>1039.4000244140625</ele>
        <time>2021-09-25T08:41:53.000Z</time>
      </trkpt>
      <trkpt lat="40.56607715785503387451171875" lon="-1.3458310626447200775146484375">
        <ele>1039.4000244140625</ele>
        <time>2021-09-25T08:41:55.000Z</time>
      </trkpt>
      <trkpt lat="40.5659928359091281890869140625" lon="-1.34575369767844676971435546875">
        <ele>1039.4000244140625</ele>
        <time>2021-09-25T08:41:57.000Z</time>
      </trkpt>
      <trkpt lat="40.5659542791545391082763671875" lon="-1.3457163982093334197998046875">
        <ele>1039.4000244140625</ele>
        <time>2021-09-25T08:41:58.000Z</time>
      </trkpt>
      <trkpt lat="40.56591890752315521240234375" lon="-1.34567742235958576202392578125">
        <ele>1039.4000244140625</ele>
        <time>2021-09-25T08:41:59.000Z</time>
      </trkpt>
      <trkpt lat="40.5658446438610553741455078125" lon="-1.345605589449405670166015625">
        <ele>1039.4000244140625</ele>
        <time>2021-09-25T08:42:01.000Z</time>
      </trkpt>
      <trkpt lat="40.56577649898827075958251953125" lon="-1.3455323316156864166259765625">
        <ele>1039.5999755859375</ele>
        <time>2021-09-25T08:42:03.000Z</time>
      </trkpt>
      <trkpt lat="40.56569896638393402099609375" lon="-1.3454575650393962860107421875">
        <ele>1040</ele>
        <time>2021-09-25T08:42:05.000Z</time>
      </trkpt>
      <trkpt lat="40.56565747596323490142822265625" lon="-1.34541741572320461273193359375">
        <ele>1040.4000244140625</ele>
        <time>2021-09-25T08:42:06.000Z</time>
      </trkpt>
      <trkpt lat="40.565616153180599212646484375" lon="-1.34537701494991779327392578125">
        <ele>1040.4000244140625</ele>
        <time>2021-09-25T08:42:07.000Z</time>
      </trkpt>
      <trkpt lat="40.56553660891950130462646484375" lon="-1.34529403410851955413818359375">
        <ele>1040.4000244140625</ele>
        <time>2021-09-25T08:42:09.000Z</time>
      </trkpt>
      <trkpt lat="40.56545748375356197357177734375" lon="-1.34521457366645336151123046875">
        <ele>1040</ele>
        <time>2021-09-25T08:42:11.000Z</time>
      </trkpt>
      <trkpt lat="40.56537383235991001129150390625" lon="-1.3451336883008480072021484375">
        <ele>1039.5999755859375</ele>
        <time>2021-09-25T08:42:13.000Z</time>
      </trkpt>
      <trkpt lat="40.56529118679463863372802734375" lon="-1.3450545631349086761474609375">
        <ele>1039.4000244140625</ele>
        <time>2021-09-25T08:42:15.000Z</time>
      </trkpt>
      <trkpt lat="40.56520820595324039459228515625" lon="-1.3449740968644618988037109375">
        <ele>1039.5999755859375</ele>
        <time>2021-09-25T08:42:17.000Z</time>
      </trkpt>
      <trkpt lat="40.56512807495892047882080078125" lon="-1.34489237330853939056396484375">
        <ele>1039.800048828125</ele>
        <time>2021-09-25T08:42:19.000Z</time>
      </trkpt>
      <trkpt lat="40.56504718959331512451171875" lon="-1.34480486623942852020263671875">
        <ele>1039.5999755859375</ele>
        <time>2021-09-25T08:42:21.000Z</time>
      </trkpt>
      <trkpt lat="40.56496404111385345458984375" lon="-1.3447206281125545501708984375">
        <ele>1039.4000244140625</ele>
        <time>2021-09-25T08:42:23.000Z</time>
      </trkpt>
      <trkpt lat="40.564880557358264923095703125" lon="-1.34463965892791748046875">
        <ele>1039</ele>
        <time>2021-09-25T08:42:25.000Z</time>
      </trkpt>
      <trkpt lat="40.56479698978364467620849609375" lon="-1.3445607014000415802001953125">
        <ele>1038.5999755859375</ele>
        <time>2021-09-25T08:42:27.000Z</time>
      </trkpt>
      <trkpt lat="40.564717948436737060546875" lon="-1.34447612799704074859619140625">
        <ele>1037.800048828125</ele>
        <time>2021-09-25T08:42:29.000Z</time>
      </trkpt>
      <trkpt lat="40.56463454850018024444580078125" lon="-1.3443969190120697021484375">
        <ele>1037</ele>
        <time>2021-09-25T08:42:31.000Z</time>
      </trkpt>
      <trkpt lat="40.5645581893622875213623046875" lon="-1.3443179614841938018798828125">
        <ele>1036.4000244140625</ele>
        <time>2021-09-25T08:42:33.000Z</time>
      </trkpt>
      <trkpt lat="40.56447881273925304412841796875" lon="-1.34424294345080852508544921875">
        <ele>1035.800048828125</ele>
        <time>2021-09-25T08:42:35.000Z</time>
      </trkpt>
      <trkpt lat="40.56439868174493312835693359375" lon="-1.34416465647518634796142578125">
        <ele>1035.5999755859375</ele>
        <time>2021-09-25T08:42:37.000Z</time>
      </trkpt>
      <trkpt lat="40.5643576942384243011474609375" lon="-1.344125010073184967041015625">
        <ele>1035.4000244140625</ele>
        <time>2021-09-25T08:42:38.000Z</time>
      </trkpt>
      <trkpt lat="40.5643188022077083587646484375" lon="-1.34408586658537387847900390625">
        <ele>1035.4000244140625</ele>
        <time>2021-09-25T08:42:39.000Z</time>
      </trkpt>
      <trkpt lat="40.56424386799335479736328125" lon="-1.344004981219768524169921875">
        <ele>1035.4000244140625</ele>
        <time>2021-09-25T08:42:41.000Z</time>
      </trkpt>
      <trkpt lat="40.56417413055896759033203125" lon="-1.34392811916768550872802734375">
        <ele>1035.4000244140625</ele>
        <time>2021-09-25T08:42:43.000Z</time>
      </trkpt>
      <trkpt lat="40.56412853300571441650390625" lon="-1.34386919438838958740234375">
        <ele>1035.5999755859375</ele>
        <time>2021-09-25T08:42:45.000Z</time>
      </trkpt>
      <trkpt lat="40.56411051191389560699462890625" lon="-1.3438482396304607391357421875">
        <ele>1035.5999755859375</ele>
        <time>2021-09-25T08:42:47.000Z</time>
      </trkpt>
      <trkpt lat="40.56411051191389560699462890625" lon="-1.3438482396304607391357421875">
        <ele>1035.5999755859375</ele>
        <time>2021-09-25T08:42:48.000Z</time>
      </trkpt>
      <trkpt lat="40.56408033706247806549072265625" lon="-1.3438304699957370758056640625">
        <ele>1035.800048828125</ele>
        <time>2021-09-25T08:43:28.000Z</time>
      </trkpt>
      <trkpt lat="40.56406206451356410980224609375" lon="-1.343814544379711151123046875">
        <ele>1035.800048828125</ele>
        <time>2021-09-25T08:43:29.000Z</time>
      </trkpt>
      <trkpt lat="40.56401378475129604339599609375" lon="-1.3437543623149394989013671875">
        <ele>1036.199951171875</ele>
        <time>2021-09-25T08:43:31.000Z</time>
      </trkpt>
      <trkpt lat="40.56396231986582279205322265625" lon="-1.34368789382278919219970703125">
        <ele>1036.199951171875</ele>
        <time>2021-09-25T08:43:33.000Z</time>
      </trkpt>
      <trkpt lat="40.56393398903310298919677734375" lon="-1.34365838952362537384033203125">
        <ele>1036.199951171875</ele>
        <time>2021-09-25T08:43:34.000Z</time>
      </trkpt>
      <trkpt lat="40.56390456855297088623046875" lon="-1.3436279632151126861572265625">
        <ele>1036.199951171875</ele>
        <time>2021-09-25T08:43:35.000Z</time>
      </trkpt>
      <trkpt lat="40.5638406984508037567138671875" lon="-1.343553029000759124755859375">
        <ele>1036.4000244140625</ele>
        <time>2021-09-25T08:43:37.000Z</time>
      </trkpt>
      <trkpt lat="40.56380591355264186859130859375" lon="-1.34351472370326519012451171875">
        <ele>1036.800048828125</ele>
        <time>2021-09-25T08:43:38.000Z</time>
      </trkpt>
      <trkpt lat="40.563770793378353118896484375" lon="-1.343478262424468994140625">
        <ele>1037</ele>
        <time>2021-09-25T08:43:39.000Z</time>
      </trkpt>
      <trkpt lat="40.563700385391712188720703125" lon="-1.3434066809713840484619140625">
        <ele>1037.199951171875</ele>
        <time>2021-09-25T08:43:41.000Z</time>
      </trkpt>
      <trkpt lat="40.563627295196056365966796875" lon="-1.3433386199176311492919921875">
        <ele>1037.199951171875</ele>
        <time>2021-09-25T08:43:43.000Z</time>
      </trkpt>
      <trkpt lat="40.5635471642017364501953125" lon="-1.3432796113193035125732421875">
        <ele>1037.199951171875</ele>
        <time>2021-09-25T08:43:45.000Z</time>
      </trkpt>
      <trkpt lat="40.56350617669522762298583984375" lon="-1.3432537950575351715087890625">
        <ele>1037.199951171875</ele>
        <time>2021-09-25T08:43:46.000Z</time>
      </trkpt>
      <trkpt lat="40.5634645186364650726318359375" lon="-1.34322286583483219146728515625">
        <ele>1037.199951171875</ele>
        <time>2021-09-25T08:43:47.000Z</time>
      </trkpt>
      <trkpt lat="40.56338815949857234954833984375" lon="-1.34316109120845794677734375">
        <ele>1037</ele>
        <time>2021-09-25T08:43:49.000Z</time>
      </trkpt>
      <trkpt lat="40.56331322528421878814697265625" lon="-1.34308942593634128570556640625">
        <ele>1036.5999755859375</ele>
        <time>2021-09-25T08:43:51.000Z</time>
      </trkpt>
      <trkpt lat="40.56327500380575656890869140625" lon="-1.343058161437511444091796875">
        <ele>1036.800048828125</ele>
        <time>2021-09-25T08:43:52.000Z</time>
      </trkpt>
      <trkpt lat="40.56324072182178497314453125" lon="-1.34302488528192043304443359375">
        <ele>1036.800048828125</ele>
        <time>2021-09-25T08:43:53.000Z</time>
      </trkpt>
      <trkpt lat="40.5631785281002521514892578125" lon="-1.3429580815136432647705078125">
        <ele>1036.800048828125</ele>
        <time>2021-09-25T08:43:55.000Z</time>
      </trkpt>
      <trkpt lat="40.5631215311586856842041015625" lon="-1.3428973965346813201904296875">
        <ele>1036.800048828125</ele>
        <time>2021-09-25T08:43:57.000Z</time>
      </trkpt>
      <trkpt lat="40.56306914426386356353759765625" lon="-1.34283520281314849853515625">
        <ele>1036.800048828125</ele>
        <time>2021-09-25T08:43:59.000Z</time>
      </trkpt>
      <trkpt lat="40.56301550008356571197509765625" lon="-1.34278348647058010101318359375">
        <ele>1036.800048828125</ele>
        <time>2021-09-25T08:44:01.000Z</time>
      </trkpt>
      <trkpt lat="40.562970153987407684326171875" lon="-1.342734284698963165283203125">
        <ele>1036.800048828125</ele>
        <time>2021-09-25T08:44:03.000Z</time>
      </trkpt>
      <trkpt lat="40.56293117813766002655029296875" lon="-1.3426910340785980224609375">
        <ele>1036.800048828125</ele>
        <time>2021-09-25T08:44:05.000Z</time>
      </trkpt>
      <trkpt lat="40.562914498150348663330078125" lon="-1.34266697801649570465087890625">
        <ele>1036.5999755859375</ele>
        <time>2021-09-25T08:44:06.000Z</time>
      </trkpt>
      <trkpt lat="40.5628942139446735382080078125" lon="-1.34264317341148853302001953125">
        <ele>1036.5999755859375</ele>
        <time>2021-09-25T08:44:07.000Z</time>
      </trkpt>
      <trkpt lat="40.5628519691526889801025390625" lon="-1.34259506128728389739990234375">
        <ele>1036.800048828125</ele>
        <time>2021-09-25T08:44:09.000Z</time>
      </trkpt>
      <trkpt lat="40.5628077127039432525634765625" lon="-1.34254409931600093841552734375">
        <ele>1037.199951171875</ele>
        <time>2021-09-25T08:44:11.000Z</time>
      </trkpt>
      <trkpt lat="40.5627862550318241119384765625" lon="-1.34252079762518405914306640625">
        <ele>1037.199951171875</ele>
        <time>2021-09-25T08:44:12.000Z</time>
      </trkpt>
      <trkpt lat="40.56276437826454639434814453125" lon="-1.34249866940081119537353515625">
        <ele>1037.199951171875</ele>
        <time>2021-09-25T08:44:13.000Z</time>
      </trkpt>
      <trkpt lat="40.5627450160682201385498046875" lon="-1.3424806483089923858642578125">
        <ele>1037.199951171875</ele>
        <time>2021-09-25T08:44:14.000Z</time>
      </trkpt>
      <trkpt lat="40.562730766832828521728515625" lon="-1.34245893917977809906005859375">
        <ele>1037</ele>
        <time>2021-09-25T08:44:15.000Z</time>
      </trkpt>
      <trkpt lat="40.5626980774104595184326171875" lon="-1.34241652674973011016845703125">
        <ele>1036.800048828125</ele>
        <time>2021-09-25T08:44:17.000Z</time>
      </trkpt>
      <trkpt lat="40.56266270577907562255859375" lon="-1.3423830829560756683349609375">
        <ele>1036.4000244140625</ele>
        <time>2021-09-25T08:44:19.000Z</time>
      </trkpt>
      <trkpt lat="40.562629513442516326904296875" lon="-1.342347376048564910888671875">
        <ele>1036.199951171875</ele>
        <time>2021-09-25T08:44:21.000Z</time>
      </trkpt>
      <trkpt lat="40.56258316151797771453857421875" lon="-1.3423042930662631988525390625">
        <ele>1036.199951171875</ele>
        <time>2021-09-25T08:44:23.000Z</time>
      </trkpt>
      <trkpt lat="40.5625311098992824554443359375" lon="-1.3422538340091705322265625">
        <ele>1036.199951171875</ele>
        <time>2021-09-25T08:44:25.000Z</time>
      </trkpt>
      <trkpt lat="40.5624724365770816802978515625" lon="-1.34220421314239501953125">
        <ele>1036</ele>
        <time>2021-09-25T08:44:27.000Z</time>
      </trkpt>
      <trkpt lat="40.5624120868742465972900390625" lon="-1.34214495308697223663330078125">
        <ele>1035.800048828125</ele>
        <time>2021-09-25T08:44:29.000Z</time>
      </trkpt>
      <trkpt lat="40.56238099001348018646240234375" lon="-1.34210790507495403289794921875">
        <ele>1035.800048828125</ele>
        <time>2021-09-25T08:44:30.000Z</time>
      </trkpt>
      <trkpt lat="40.56234913878142833709716796875" lon="-1.34207722730934619903564453125">
        <ele>1035.5999755859375</ele>
        <time>2021-09-25T08:44:31.000Z</time>
      </trkpt>
      <trkpt lat="40.5622866936028003692626953125" lon="-1.34201419539749622344970703125">
        <ele>1035.4000244140625</ele>
        <time>2021-09-25T08:44:33.000Z</time>
      </trkpt>
      <trkpt lat="40.56222642771899700164794921875" lon="-1.34195283986628055572509765625">
        <ele>1035.199951171875</ele>
        <time>2021-09-25T08:44:35.000Z</time>
      </trkpt>
      <trkpt lat="40.562164820730686187744140625" lon="-1.34188972413539886474609375">
        <ele>1035.199951171875</ele>
        <time>2021-09-25T08:44:37.000Z</time>
      </trkpt>
      <trkpt lat="40.56209483183920383453369140625" lon="-1.3418278656899929046630859375">
        <ele>1035.199951171875</ele>
        <time>2021-09-25T08:44:39.000Z</time>
      </trkpt>
      <trkpt lat="40.56202073581516742706298828125" lon="-1.341756619513034820556640625">
        <ele>1035</ele>
        <time>2021-09-25T08:44:41.000Z</time>
      </trkpt>
      <trkpt lat="40.5619490705430507659912109375" lon="-1.34168797172605991363525390625">
        <ele>1034.5999755859375</ele>
        <time>2021-09-25T08:44:43.000Z</time>
      </trkpt>
      <trkpt lat="40.56191227398812770843505859375" lon="-1.34165159426629543304443359375">
        <ele>1034.4000244140625</ele>
        <time>2021-09-25T08:44:44.000Z</time>
      </trkpt>
      <trkpt lat="40.56187774054706096649169921875" lon="-1.34161773137748241424560546875">
        <ele>1034.199951171875</ele>
        <time>2021-09-25T08:44:45.000Z</time>
      </trkpt>
      <trkpt lat="40.56180766783654689788818359375" lon="-1.341546736657619476318359375">
        <ele>1034.199951171875</ele>
        <time>2021-09-25T08:44:47.000Z</time>
      </trkpt>
      <trkpt lat="40.56174312718212604522705078125" lon="-1.34147666394710540771484375">
        <ele>1034.199951171875</ele>
        <time>2021-09-25T08:44:49.000Z</time>
      </trkpt>
      <trkpt lat="40.561679340898990631103515625" lon="-1.341412961483001708984375">
        <ele>1034.199951171875</ele>
        <time>2021-09-25T08:44:51.000Z</time>
      </trkpt>
      <trkpt lat="40.56161790154874324798583984375" lon="-1.34135370142757892608642578125">
        <ele>1034.800048828125</ele>
        <time>2021-09-25T08:44:53.000Z</time>
      </trkpt>
      <trkpt lat="40.56156300008296966552734375" lon="-1.3412947766482830047607421875">
        <ele>1035.4000244140625</ele>
        <time>2021-09-25T08:44:55.000Z</time>
      </trkpt>
      <trkpt lat="40.56151245720684528350830078125" lon="-1.34124775417149066925048828125">
        <ele>1035.800048828125</ele>
        <time>2021-09-25T08:44:57.000Z</time>
      </trkpt>
      <trkpt lat="40.56149049662053585052490234375" lon="-1.3412253744900226593017578125">
        <ele>1036</ele>
        <time>2021-09-25T08:44:58.000Z</time>
      </trkpt>
      <trkpt lat="40.5614709667861461639404296875" lon="-1.34120182134211063385009765625">
        <ele>1036</ele>
        <time>2021-09-25T08:44:59.000Z</time>
      </trkpt>
      <trkpt lat="40.56144271977245807647705078125" lon="-1.34115924127399921417236328125">
        <ele>1036</ele>
        <time>2021-09-25T08:45:01.000Z</time>
      </trkpt>
      <trkpt lat="40.561421178281307220458984375" lon="-1.341132335364818572998046875">
        <ele>1036.199951171875</ele>
        <time>2021-09-25T08:45:03.000Z</time>
      </trkpt>
      <trkpt lat="40.5614226870238780975341796875" lon="-1.34113225154578685760498046875">
        <ele>1036.199951171875</ele>
        <time>2021-09-25T08:45:04.000Z</time>
      </trkpt>
      <trkpt lat="40.561415813863277435302734375" lon="-1.34111565537750720977783203125">
        <ele>1036.199951171875</ele>
        <time>2021-09-25T08:45:47.000Z</time>
      </trkpt>
      <trkpt lat="40.5614062584936618804931640625" lon="-1.34108564816415309906005859375">
        <ele>1036</ele>
        <time>2021-09-25T08:45:48.000Z</time>
      </trkpt>
      <trkpt lat="40.5614022351801395416259765625" lon="-1.34103946387767791748046875">
        <ele>1035.800048828125</ele>
        <time>2021-09-25T08:45:49.000Z</time>
      </trkpt>
      <trkpt lat="40.561422519385814666748046875" lon="-1.34092521853744983673095703125">
        <ele>1034.800048828125</ele>
        <time>2021-09-25T08:45:51.000Z</time>
      </trkpt>
      <trkpt lat="40.561463423073291778564453125" lon="-1.34079664014279842376708984375">
        <ele>1033.5999755859375</ele>
        <time>2021-09-25T08:45:53.000Z</time>
      </trkpt>
      <trkpt lat="40.56150935590267181396484375" lon="-1.340655572712421417236328125">
        <ele>1032.199951171875</ele>
        <time>2021-09-25T08:45:55.000Z</time>
      </trkpt>
      <trkpt lat="40.56153089739382266998291015625" lon="-1.340579129755496978759765625">
        <ele>1031.5999755859375</ele>
        <time>2021-09-25T08:45:56.000Z</time>
      </trkpt>
      <trkpt lat="40.56155403144657611846923828125" lon="-1.34049790911376476287841796875">
        <ele>1030.800048828125</ele>
        <time>2021-09-25T08:45:57.000Z</time>
      </trkpt>
      <trkpt lat="40.56159359402954578399658203125" lon="-1.3403305225074291229248046875">
        <ele>1030</ele>
        <time>2021-09-25T08:45:59.000Z</time>
      </trkpt>
      <trkpt lat="40.5616094358265399932861328125" lon="-1.34024142287671566009521484375">
        <ele>1029.4000244140625</ele>
        <time>2021-09-25T08:46:00.000Z</time>
      </trkpt>
      <trkpt lat="40.56162603199481964111328125" lon="-1.340153329074382781982421875">
        <ele>1029.199951171875</ele>
        <time>2021-09-25T08:46:01.000Z</time>
      </trkpt>
      <trkpt lat="40.5616392754018306732177734375" lon="-1.34006020613014698028564453125">
        <ele>1029.199951171875</ele>
        <time>2021-09-25T08:46:02.000Z</time>
      </trkpt>
      <trkpt lat="40.561654530465602874755859375" lon="-1.3399644009768962860107421875">
        <ele>1029</ele>
        <time>2021-09-25T08:46:03.000Z</time>
      </trkpt>
      <trkpt lat="40.561684034764766693115234375" lon="-1.3397716172039508819580078125">
        <ele>1028.4000244140625</ele>
        <time>2021-09-25T08:46:05.000Z</time>
      </trkpt>
      <trkpt lat="40.56170909665524959564208984375" lon="-1.3395734690129756927490234375">
        <ele>1028</ele>
        <time>2021-09-25T08:46:07.000Z</time>
      </trkpt>
      <trkpt lat="40.56173457764089107513427734375" lon="-1.33936584927141666412353515625">
        <ele>1027.800048828125</ele>
        <time>2021-09-25T08:46:09.000Z</time>
      </trkpt>
      <trkpt lat="40.5617608129978179931640625" lon="-1.33915311656892299652099609375">
        <ele>1026.800048828125</ele>
        <time>2021-09-25T08:46:11.000Z</time>
      </trkpt>
      <trkpt lat="40.56179090403020381927490234375" lon="-1.33893971331417560577392578125">
        <ele>1026</ele>
        <time>2021-09-25T08:46:13.000Z</time>
      </trkpt>
      <trkpt lat="40.5618159659206867218017578125" lon="-1.33871960453689098358154296875">
        <ele>1025</ele>
        <time>2021-09-25T08:46:15.000Z</time>
      </trkpt>
      <trkpt lat="40.56184186600148677825927734375" lon="-1.33850167505443096160888671875">
        <ele>1024.199951171875</ele>
        <time>2021-09-25T08:46:17.000Z</time>
      </trkpt>
      <trkpt lat="40.5618535168468952178955078125" lon="-1.33839036338031291961669921875">
        <ele>1023.79998779296875</ele>
        <time>2021-09-25T08:46:18.000Z</time>
      </trkpt>
      <trkpt lat="40.56186583824455738067626953125" lon="-1.33827678859233856201171875">
        <ele>1023.79998779296875</ele>
        <time>2021-09-25T08:46:19.000Z</time>
      </trkpt>
      <trkpt lat="40.5618907324969768524169921875" lon="-1.3380469568073749542236328125">
        <ele>1024.199951171875</ele>
        <time>2021-09-25T08:46:21.000Z</time>
      </trkpt>
      <trkpt lat="40.5619148723781108856201171875" lon="-1.33781611919403076171875">
        <ele>1023.4000244140625</ele>
        <time>2021-09-25T08:46:23.000Z</time>
      </trkpt>
      <trkpt lat="40.561940185725688934326171875" lon="-1.33758301846683025360107421875">
        <ele>1023.20001220703125</ele>
        <time>2021-09-25T08:46:25.000Z</time>
      </trkpt>
      <trkpt lat="40.5619673430919647216796875" lon="-1.3373507559299468994140625">
        <ele>1023</ele>
        <time>2021-09-25T08:46:27.000Z</time>
      </trkpt>
      <trkpt lat="40.56198067031800746917724609375" lon="-1.337234079837799072265625">
        <ele>1023</ele>
        <time>2021-09-25T08:46:28.000Z</time>
      </trkpt>
      <trkpt lat="40.56199408136308193206787109375" lon="-1.33711899630725383758544921875">
        <ele>1023</ele>
        <time>2021-09-25T08:46:29.000Z</time>
      </trkpt>
      <trkpt lat="40.56201872415840625762939453125" lon="-1.3368880748748779296875">
        <ele>1022.20001220703125</ele>
        <time>2021-09-25T08:46:31.000Z</time>
      </trkpt>
      <trkpt lat="40.5620442889630794525146484375" lon="-1.3366579078137874603271484375">
        <ele>1021.4000244140625</ele>
        <time>2021-09-25T08:46:33.000Z</time>
      </trkpt>
      <trkpt lat="40.562071613967418670654296875" lon="-1.33643100969493389129638671875">
        <ele>1020.4000244140625</ele>
        <time>2021-09-25T08:46:35.000Z</time>
      </trkpt>
      <trkpt lat="40.5620851926505565643310546875" lon="-1.33631533943116664886474609375">
        <ele>1019.5999755859375</ele>
        <time>2021-09-25T08:46:36.000Z</time>
      </trkpt>
      <trkpt lat="40.5620987713336944580078125" lon="-1.33619941771030426025390625">
        <ele>1019</ele>
        <time>2021-09-25T08:46:37.000Z</time>
      </trkpt>
      <trkpt lat="40.56212483905255794525146484375" lon="-1.3359702564775943756103515625">
        <ele>1018</ele>
        <time>2021-09-25T08:46:39.000Z</time>
      </trkpt>
      <trkpt lat="40.562137663364410400390625" lon="-1.33585651405155658721923828125">
        <ele>1017.4000244140625</ele>
        <time>2021-09-25T08:46:40.000Z</time>
      </trkpt>
      <trkpt lat="40.56215015240013599395751953125" lon="-1.33574545383453369140625">
        <ele>1017.20001220703125</ele>
        <time>2021-09-25T08:46:41.000Z</time>
      </trkpt>
      <trkpt lat="40.562175549566745758056640625" lon="-1.3355213217437267303466796875">
        <ele>1016.20001220703125</ele>
        <time>2021-09-25T08:46:43.000Z</time>
      </trkpt>
      <trkpt lat="40.56220178492367267608642578125" lon="-1.33529819548130035400390625">
        <ele>1015.4000244140625</ele>
        <time>2021-09-25T08:46:45.000Z</time>
      </trkpt>
      <trkpt lat="40.56222341023385524749755859375" lon="-1.335075907409191131591796875">
        <ele>1015</ele>
        <time>2021-09-25T08:46:47.000Z</time>
      </trkpt>
      <trkpt lat="40.56224830448627471923828125" lon="-1.3348571397364139556884765625">
        <ele>1014.5999755859375</ele>
        <time>2021-09-25T08:46:49.000Z</time>
      </trkpt>
      <trkpt lat="40.56227336637675762176513671875" lon="-1.33464038372039794921875">
        <ele>1014</ele>
        <time>2021-09-25T08:46:51.000Z</time>
      </trkpt>
      <trkpt lat="40.56228459812700748443603515625" lon="-1.3345342688262462615966796875">
        <ele>1014</ele>
        <time>2021-09-25T08:46:52.000Z</time>
      </trkpt>
      <trkpt lat="40.56229599751532077789306640625" lon="-1.3344279862940311431884765625">
        <ele>1014</ele>
        <time>2021-09-25T08:46:53.000Z</time>
      </trkpt>
      <trkpt lat="40.56232013739645481109619140625" lon="-1.33421416394412517547607421875">
        <ele>1014.4000244140625</ele>
        <time>2021-09-25T08:46:55.000Z</time>
      </trkpt>
      <trkpt lat="40.562343187630176544189453125" lon="-1.3340008445084095001220703125">
        <ele>1014.5999755859375</ele>
        <time>2021-09-25T08:46:57.000Z</time>
      </trkpt>
      <trkpt lat="40.56236556731164455413818359375" lon="-1.33379071019589900970458984375">
        <ele>1013.79998779296875</ele>
        <time>2021-09-25T08:46:59.000Z</time>
      </trkpt>
      <trkpt lat="40.56237797252833843231201171875" lon="-1.3336860202252864837646484375">
        <ele>1013.4000244140625</ele>
        <time>2021-09-25T08:47:00.000Z</time>
      </trkpt>
      <trkpt lat="40.5623879469931125640869140625" lon="-1.33358367718756198883056640625">
        <ele>1012.20001220703125</ele>
        <time>2021-09-25T08:47:01.000Z</time>
      </trkpt>
      <trkpt lat="40.562411583960056304931640625" lon="-1.33337748236954212188720703125">
        <ele>1011.5999755859375</ele>
        <time>2021-09-25T08:47:03.000Z</time>
      </trkpt>
      <trkpt lat="40.56243295781314373016357421875" lon="-1.33317698724567890167236328125">
        <ele>1011</ele>
        <time>2021-09-25T08:47:05.000Z</time>
      </trkpt>
      <trkpt lat="40.5624536611139774322509765625" lon="-1.33297950960695743560791015625">
        <ele>1010.79998779296875</ele>
        <time>2021-09-25T08:47:07.000Z</time>
      </trkpt>
      <trkpt lat="40.5624635517597198486328125" lon="-1.33288529701530933380126953125">
        <ele>1010.79998779296875</ele>
        <time>2021-09-25T08:47:08.000Z</time>
      </trkpt>
      <trkpt lat="40.56247486732900142669677734375" lon="-1.3327901624143123626708984375">
        <ele>1010.79998779296875</ele>
        <time>2021-09-25T08:47:09.000Z</time>
      </trkpt>
      <trkpt lat="40.5624850094318389892578125" lon="-1.33269779384136199951171875">
        <ele>1010.79998779296875</ele>
        <time>2021-09-25T08:47:10.000Z</time>
      </trkpt>
      <trkpt lat="40.56249548681080341339111328125" lon="-1.33260500617325305938720703125">
        <ele>1010.5999755859375</ele>
        <time>2021-09-25T08:47:11.000Z</time>
      </trkpt>
      <trkpt lat="40.56250579655170440673828125" lon="-1.33251146413385868072509765625">
        <ele>1010.20001220703125</ele>
        <time>2021-09-25T08:47:12.000Z</time>
      </trkpt>
      <trkpt lat="40.5625145137310028076171875" lon="-1.33241951465606689453125">
        <ele>1009.5999755859375</ele>
        <time>2021-09-25T08:47:13.000Z</time>
      </trkpt>
      <trkpt lat="40.56252415291965007781982421875" lon="-1.33232806809246540069580078125">
        <ele>1008.5999755859375</ele>
        <time>2021-09-25T08:47:14.000Z</time>
      </trkpt>
      <trkpt lat="40.56253605522215366363525390625" lon="-1.33223569951951503753662109375">
        <ele>1007.5999755859375</ele>
        <time>2021-09-25T08:47:15.000Z</time>
      </trkpt>
      <trkpt lat="40.56254602968692779541015625" lon="-1.332144923508167266845703125">
        <ele>1006.79998779296875</ele>
        <time>2021-09-25T08:47:16.000Z</time>
      </trkpt>
      <trkpt lat="40.562557764351367950439453125" lon="-1.33205297403037548065185546875">
        <ele>1005.79998779296875</ele>
        <time>2021-09-25T08:47:17.000Z</time>
      </trkpt>
      <trkpt lat="40.5625693313777446746826171875" lon="-1.33196144364774227142333984375">
        <ele>1004.79998779296875</ele>
        <time>2021-09-25T08:47:18.000Z</time>
      </trkpt>
      <trkpt lat="40.5625814013183116912841796875" lon="-1.33187008090317249298095703125">
        <ele>1004.20001220703125</ele>
        <time>2021-09-25T08:47:19.000Z</time>
      </trkpt>
      <trkpt lat="40.562592633068561553955078125" lon="-1.3317752815783023834228515625">
        <ele>1004.20001220703125</ele>
        <time>2021-09-25T08:47:20.000Z</time>
      </trkpt>
      <trkpt lat="40.56260311044752597808837890625" lon="-1.33168132044374942779541015625">
        <ele>1004.4000244140625</ele>
        <time>2021-09-25T08:47:21.000Z</time>
      </trkpt>
      <trkpt lat="40.56262289173901081085205078125" lon="-1.331493817269802093505859375">
        <ele>1004.4000244140625</ele>
        <time>2021-09-25T08:47:23.000Z</time>
      </trkpt>
      <trkpt lat="40.56264451704919338226318359375" lon="-1.33130178786814212799072265625">
        <ele>1005.20001220703125</ele>
        <time>2021-09-25T08:47:25.000Z</time>
      </trkpt>
      <trkpt lat="40.56265524588525295257568359375" lon="-1.33120455779135227203369140625">
        <ele>1005.4000244140625</ele>
        <time>2021-09-25T08:47:26.000Z</time>
      </trkpt>
      <trkpt lat="40.5626662261784076690673828125" lon="-1.331106908619403839111328125">
        <ele>1005.5999755859375</ele>
        <time>2021-09-25T08:47:27.000Z</time>
      </trkpt>
      <trkpt lat="40.56268843822181224822998046875" lon="-1.33090700022876262664794921875">
        <ele>1005</ele>
        <time>2021-09-25T08:47:29.000Z</time>
      </trkpt>
      <trkpt lat="40.5627000890672206878662109375" lon="-1.330805830657482147216796875">
        <ele>1005</ele>
        <time>2021-09-25T08:47:30.000Z</time>
      </trkpt>
      <trkpt lat="40.5627118237316608428955078125" lon="-1.33070499636232852935791015625">
        <ele>1005</ele>
        <time>2021-09-25T08:47:31.000Z</time>
      </trkpt>
      <trkpt lat="40.56272481568157672882080078125" lon="-1.3306038267910480499267578125">
        <ele>1005</ele>
        <time>2021-09-25T08:47:32.000Z</time>
      </trkpt>
      <trkpt lat="40.5627379752695560455322265625" lon="-1.330502741038799285888671875">
        <ele>1004.79998779296875</ele>
        <time>2021-09-25T08:47:33.000Z</time>
      </trkpt>
      <trkpt lat="40.5627611093223094940185546875" lon="-1.3302993960678577423095703125">
        <ele>1004.20001220703125</ele>
        <time>2021-09-25T08:47:35.000Z</time>
      </trkpt>
      <trkpt lat="40.56278474628925323486328125" lon="-1.330094374716281890869140625">
        <ele>1004</ele>
        <time>2021-09-25T08:47:37.000Z</time>
      </trkpt>
      <trkpt lat="40.562796480953693389892578125" lon="-1.32999387569725513458251953125">
        <ele>1004</ele>
        <time>2021-09-25T08:47:38.000Z</time>
      </trkpt>
      <trkpt lat="40.5628068745136260986328125" lon="-1.3298950530588626861572265625">
        <ele>1004</ele>
        <time>2021-09-25T08:47:39.000Z</time>
      </trkpt>
      <trkpt lat="40.56282858364284038543701171875" lon="-1.329696066677570343017578125">
        <ele>1004</ele>
        <time>2021-09-25T08:47:41.000Z</time>
      </trkpt>
      <trkpt lat="40.56285205297172069549560546875" lon="-1.32949867285788059234619140625">
        <ele>1003.5999755859375</ele>
        <time>2021-09-25T08:47:43.000Z</time>
      </trkpt>
      <trkpt lat="40.56287233717739582061767578125" lon="-1.32930153049528598785400390625">
        <ele>1003.20001220703125</ele>
        <time>2021-09-25T08:47:45.000Z</time>
      </trkpt>
      <trkpt lat="40.56288138963282108306884765625" lon="-1.32920379750430583953857421875">
        <ele>1003.4000244140625</ele>
        <time>2021-09-25T08:47:46.000Z</time>
      </trkpt>
      <trkpt lat="40.562893711030483245849609375" lon="-1.329107321798801422119140625">
        <ele>1003.4000244140625</ele>
        <time>2021-09-25T08:47:47.000Z</time>
      </trkpt>
      <trkpt lat="40.5629163421690464019775390625" lon="-1.32892392575740814208984375">
        <ele>1003.4000244140625</ele>
        <time>2021-09-25T08:47:49.000Z</time>
      </trkpt>
      <trkpt lat="40.56293268688023090362548828125" lon="-1.32874530740082263946533203125">
        <ele>1003.20001220703125</ele>
        <time>2021-09-25T08:47:51.000Z</time>
      </trkpt>
      <trkpt lat="40.56295196525752544403076171875" lon="-1.32856719195842742919921875">
        <ele>1003</ele>
        <time>2021-09-25T08:47:53.000Z</time>
      </trkpt>
      <trkpt lat="40.56295908987522125244140625" lon="-1.32848127745091915130615234375">
        <ele>1002.79998779296875</ele>
        <time>2021-09-25T08:47:54.000Z</time>
      </trkpt>
      <trkpt lat="40.5629662983119487762451171875" lon="-1.3283940218389034271240234375">
        <ele>1002.4000244140625</ele>
        <time>2021-09-25T08:47:55.000Z</time>
      </trkpt>
      <trkpt lat="40.5629840679466724395751953125" lon="-1.32821791805326938629150390625">
        <ele>1001.20001220703125</ele>
        <time>2021-09-25T08:47:57.000Z</time>
      </trkpt>
      <trkpt lat="40.56300200521945953369140625" lon="-1.3280446641147136688232421875">
        <ele>1000</ele>
        <time>2021-09-25T08:47:59.000Z</time>
      </trkpt>
      <trkpt lat="40.56301332078874111175537109375" lon="-1.32787342183291912078857421875">
        <ele>999.79998779296875</ele>
        <time>2021-09-25T08:48:01.000Z</time>
      </trkpt>
      <trkpt lat="40.563025139272212982177734375" lon="-1.32770410738885402679443359375">
        <ele>999.79998779296875</ele>
        <time>2021-09-25T08:48:03.000Z</time>
      </trkpt>
      <trkpt lat="40.5630348622798919677734375" lon="-1.32754267193377017974853515625">
        <ele>999.79998779296875</ele>
        <time>2021-09-25T08:48:05.000Z</time>
      </trkpt>
      <trkpt lat="40.5630467645823955535888671875" lon="-1.32738760672509670257568359375">
        <ele>1000</ele>
        <time>2021-09-25T08:48:07.000Z</time>
      </trkpt>
      <trkpt lat="40.56305833160877227783203125" lon="-1.32723488844931125640869140625">
        <ele>1000</ele>
        <time>2021-09-25T08:48:09.000Z</time>
      </trkpt>
      <trkpt lat="40.56305967271327972412109375" lon="-1.327160038053989410400390625">
        <ele>1000</ele>
        <time>2021-09-25T08:48:10.000Z</time>
      </trkpt>
      <trkpt lat="40.563061349093914031982421875" lon="-1.32708166725933551788330078125">
        <ele>1000</ele>
        <time>2021-09-25T08:48:11.000Z</time>
      </trkpt>
      <trkpt lat="40.56306847371160984039306640625" lon="-1.3269188068807125091552734375">
        <ele>1000</ele>
        <time>2021-09-25T08:48:13.000Z</time>
      </trkpt>
      <trkpt lat="40.5630729161202907562255859375" lon="-1.3267548568546772003173828125">
        <ele>1000</ele>
        <time>2021-09-25T08:48:15.000Z</time>
      </trkpt>
      <trkpt lat="40.5630772747099399566650390625" lon="-1.326587386429309844970703125">
        <ele>1000</ele>
        <time>2021-09-25T08:48:17.000Z</time>
      </trkpt>
      <trkpt lat="40.56308020837604999542236328125" lon="-1.32650365121662616729736328125">
        <ele>1000</ele>
        <time>2021-09-25T08:48:18.000Z</time>
      </trkpt>
      <trkpt lat="40.5630839802324771881103515625" lon="-1.32641664706170558929443359375">
        <ele>1000</ele>
        <time>2021-09-25T08:48:19.000Z</time>
      </trkpt>
      <trkpt lat="40.56308892555534839630126953125" lon="-1.3262449018657207489013671875">
        <ele>1000</ele>
        <time>2021-09-25T08:48:21.000Z</time>
      </trkpt>
      <trkpt lat="40.56309445761144161224365234375" lon="-1.326072402298450469970703125">
        <ele>1000</ele>
        <time>2021-09-25T08:48:23.000Z</time>
      </trkpt>
      <trkpt lat="40.56309831328690052032470703125" lon="-1.32590048946440219879150390625">
        <ele>1000</ele>
        <time>2021-09-25T08:48:25.000Z</time>
      </trkpt>
      <trkpt lat="40.563100911676883697509765625" lon="-1.32581214420497417449951171875">
        <ele>999.79998779296875</ele>
        <time>2021-09-25T08:48:26.000Z</time>
      </trkpt>
      <trkpt lat="40.56310216896235942840576171875" lon="-1.3257272355258464813232421875">
        <ele>999.79998779296875</ele>
        <time>2021-09-25T08:48:27.000Z</time>
      </trkpt>
      <trkpt lat="40.56310937739908695220947265625" lon="-1.3255582563579082489013671875">
        <ele>999.20001220703125</ele>
        <time>2021-09-25T08:48:29.000Z</time>
      </trkpt>
      <trkpt lat="40.5631141550838947296142578125" lon="-1.32539170794188976287841796875">
        <ele>999</ele>
        <time>2021-09-25T08:48:31.000Z</time>
      </trkpt>
      <trkpt lat="40.5631175078451633453369140625" lon="-1.32523463107645511627197265625">
        <ele>999</ele>
        <time>2021-09-25T08:48:33.000Z</time>
      </trkpt>
      <trkpt lat="40.56311859749257564544677734375" lon="-1.3251609541475772857666015625">
        <ele>998.79998779296875</ele>
        <time>2021-09-25T08:48:34.000Z</time>
      </trkpt>
      <trkpt lat="40.56311742402613162994384765625" lon="-1.32509113289415836334228515625">
        <ele>998.5999755859375</ele>
        <time>2021-09-25T08:48:35.000Z</time>
      </trkpt>
      <trkpt lat="40.56312429718673229217529296875" lon="-1.3249482214450836181640625">
        <ele>998</ele>
        <time>2021-09-25T08:48:37.000Z</time>
      </trkpt>
      <trkpt lat="40.56312798522412776947021484375" lon="-1.324801705777645111083984375">
        <ele>998</ele>
        <time>2021-09-25T08:48:39.000Z</time>
      </trkpt>
      <trkpt lat="40.56313334964215755462646484375" lon="-1.32465342991054058074951171875">
        <ele>998</ele>
        <time>2021-09-25T08:48:41.000Z</time>
      </trkpt>
      <trkpt lat="40.56313318200409412384033203125" lon="-1.3245785795152187347412109375">
        <ele>998.20001220703125</ele>
        <time>2021-09-25T08:48:42.000Z</time>
      </trkpt>
      <trkpt lat="40.56313318200409412384033203125" lon="-1.324501968920230865478515625">
        <ele>998.4000244140625</ele>
        <time>2021-09-25T08:48:43.000Z</time>
      </trkpt>
      <trkpt lat="40.56314374320209026336669921875" lon="-1.32435453124344348907470703125">
        <ele>998.79998779296875</ele>
        <time>2021-09-25T08:48:45.000Z</time>
      </trkpt>
      <trkpt lat="40.563147179782390594482421875" lon="-1.3242148049175739288330078125">
        <ele>998.79998779296875</ele>
        <time>2021-09-25T08:48:47.000Z</time>
      </trkpt>
      <trkpt lat="40.5631476826965808868408203125" lon="-1.324148587882518768310546875">
        <ele>998.79998779296875</ele>
        <time>2021-09-25T08:48:48.000Z</time>
      </trkpt>
      <trkpt lat="40.563147850334644317626953125" lon="-1.324082203209400177001953125">
        <ele>998.79998779296875</ele>
        <time>2021-09-25T08:48:49.000Z</time>
      </trkpt>
      <trkpt lat="40.5631473474204540252685546875" lon="-1.32394935004413127899169921875">
        <ele>998.79998779296875</ele>
        <time>2021-09-25T08:48:51.000Z</time>
      </trkpt>
      <trkpt lat="40.56314818561077117919921875" lon="-1.32380870170891284942626953125">
        <ele>998.79998779296875</ele>
        <time>2021-09-25T08:48:53.000Z</time>
      </trkpt>
      <trkpt lat="40.563149191439151763916015625" lon="-1.32366268895566463470458984375">
        <ele>998.4000244140625</ele>
        <time>2021-09-25T08:48:55.000Z</time>
      </trkpt>
      <trkpt lat="40.563153885304927825927734375" lon="-1.32351650856435298919677734375">
        <ele>998</ele>
        <time>2021-09-25T08:48:57.000Z</time>
      </trkpt>
      <trkpt lat="40.563159920275211334228515625" lon="-1.3233662210404872894287109375">
        <ele>998.4000244140625</ele>
        <time>2021-09-25T08:48:59.000Z</time>
      </trkpt>
      <trkpt lat="40.56316427886486053466796875" lon="-1.32321408949792385101318359375">
        <ele>998.5999755859375</ele>
        <time>2021-09-25T08:49:01.000Z</time>
      </trkpt>
      <trkpt lat="40.56316721253097057342529296875" lon="-1.3230627961456775665283203125">
        <ele>998.20001220703125</ele>
        <time>2021-09-25T08:49:03.000Z</time>
      </trkpt>
      <trkpt lat="40.5631716549396514892578125" lon="-1.3229105807840824127197265625">
        <ele>997.5999755859375</ele>
        <time>2021-09-25T08:49:05.000Z</time>
      </trkpt>
      <trkpt lat="40.56317693553864955902099609375" lon="-1.32276012562215328216552734375">
        <ele>997.20001220703125</ele>
        <time>2021-09-25T08:49:07.000Z</time>
      </trkpt>
      <trkpt lat="40.5631838925182819366455078125" lon="-1.3226064853370189666748046875">
        <ele>996.20001220703125</ele>
        <time>2021-09-25T08:49:09.000Z</time>
      </trkpt>
      <trkpt lat="40.56319168768823146820068359375" lon="-1.32245552726089954376220703125">
        <ele>995</ele>
        <time>2021-09-25T08:49:11.000Z</time>
      </trkpt>
      <trkpt lat="40.5631939508020877838134765625" lon="-1.3223044015467166900634765625">
        <ele>994.5999755859375</ele>
        <time>2021-09-25T08:49:13.000Z</time>
      </trkpt>
      <trkpt lat="40.56319755502045154571533203125" lon="-1.32222653366625308990478515625">
        <ele>994.5999755859375</ele>
        <time>2021-09-25T08:49:14.000Z</time>
      </trkpt>
      <trkpt lat="40.5632016621530055999755859375" lon="-1.3221484981477260589599609375">
        <ele>994.5999755859375</ele>
        <time>2021-09-25T08:49:15.000Z</time>
      </trkpt>
      <trkpt lat="40.56320912204682826995849609375" lon="-1.32199175655841827392578125">
        <ele>994.5999755859375</ele>
        <time>2021-09-25T08:49:17.000Z</time>
      </trkpt>
      <trkpt lat="40.56321465410292148590087890625" lon="-1.3218368589878082275390625">
        <ele>994.4000244140625</ele>
        <time>2021-09-25T08:49:19.000Z</time>
      </trkpt>
      <trkpt lat="40.563223622739315032958984375" lon="-1.32168003357946872711181640625">
        <ele>994.4000244140625</ele>
        <time>2021-09-25T08:49:21.000Z</time>
      </trkpt>
      <trkpt lat="40.5632325075566768646240234375" lon="-1.321522705256938934326171875">
        <ele>994.4000244140625</ele>
        <time>2021-09-25T08:49:23.000Z</time>
      </trkpt>
      <trkpt lat="40.563237033784389495849609375" lon="-1.321441568434238433837890625">
        <ele>994.4000244140625</ele>
        <time>2021-09-25T08:49:24.000Z</time>
      </trkpt>
      <trkpt lat="40.56324147619307041168212890625" lon="-1.3213621079921722412109375">
        <ele>994.4000244140625</ele>
        <time>2021-09-25T08:49:25.000Z</time>
      </trkpt>
      <trkpt lat="40.56325186975300312042236328125" lon="-1.321206875145435333251953125">
        <ele>994.79998779296875</ele>
        <time>2021-09-25T08:49:27.000Z</time>
      </trkpt>
      <trkpt lat="40.5632613413035869598388671875" lon="-1.3210605271160602569580078125">
        <ele>995</ele>
        <time>2021-09-25T08:49:29.000Z</time>
      </trkpt>
      <trkpt lat="40.5632656998932361602783203125" lon="-1.32099020294845104217529296875">
        <ele>995</ele>
        <time>2021-09-25T08:49:30.000Z</time>
      </trkpt>
      <trkpt lat="40.5632710643112659454345703125" lon="-1.32092021405696868896484375">
        <ele>995</ele>
        <time>2021-09-25T08:49:31.000Z</time>
      </trkpt>
      <trkpt lat="40.56327701546251773834228515625" lon="-1.32085382938385009765625">
        <ele>995</ele>
        <time>2021-09-25T08:49:32.000Z</time>
      </trkpt>
      <trkpt lat="40.5632821284234523773193359375" lon="-1.32078585214912891387939453125">
        <ele>995</ele>
        <time>2021-09-25T08:49:33.000Z</time>
      </trkpt>
      <trkpt lat="40.56328556500375270843505859375" lon="-1.32071577943861484527587890625">
        <ele>995</ele>
        <time>2021-09-25T08:49:34.000Z</time>
      </trkpt>
      <trkpt lat="40.563290007412433624267578125" lon="-1.320643611252307891845703125">
        <ele>995</ele>
        <time>2021-09-25T08:49:35.000Z</time>
      </trkpt>
      <trkpt lat="40.56329947896301746368408203125" lon="-1.3204944133758544921875">
        <ele>994.79998779296875</ele>
        <time>2021-09-25T08:49:37.000Z</time>
      </trkpt>
      <trkpt lat="40.56330417282879352569580078125" lon="-1.32041822187602519989013671875">
        <ele>994.79998779296875</ele>
        <time>2021-09-25T08:49:38.000Z</time>
      </trkpt>
      <trkpt lat="40.5633106268942356109619140625" lon="-1.32033943198621273040771484375">
        <ele>994.79998779296875</ele>
        <time>2021-09-25T08:49:39.000Z</time>
      </trkpt>
      <trkpt lat="40.56332328356802463531494140625" lon="-1.320184953510761260986328125">
        <ele>994.79998779296875</ele>
        <time>2021-09-25T08:49:41.000Z</time>
      </trkpt>
      <trkpt lat="40.56333015672862529754638671875" lon="-1.32002879865467548370361328125">
        <ele>994.20001220703125</ele>
        <time>2021-09-25T08:49:43.000Z</time>
      </trkpt>
      <trkpt lat="40.56334557943046092987060546875" lon="-1.31987105123698711395263671875">
        <ele>994</ele>
        <time>2021-09-25T08:49:45.000Z</time>
      </trkpt>
      <trkpt lat="40.5633579008281230926513671875" lon="-1.3197187520563602447509765625">
        <ele>994</ele>
        <time>2021-09-25T08:49:47.000Z</time>
      </trkpt>
      <trkpt lat="40.56336703710258007049560546875" lon="-1.3195705600082874298095703125">
        <ele>993.5999755859375</ele>
        <time>2021-09-25T08:49:49.000Z</time>
      </trkpt>
      <trkpt lat="40.56338128633797168731689453125" lon="-1.3194220326840877532958984375">
        <ele>993</ele>
        <time>2021-09-25T08:49:51.000Z</time>
      </trkpt>
      <trkpt lat="40.56339553557336330413818359375" lon="-1.319270320236682891845703125">
        <ele>992.4000244140625</ele>
        <time>2021-09-25T08:49:53.000Z</time>
      </trkpt>
      <trkpt lat="40.56341012008488178253173828125" lon="-1.319113411009311676025390625">
        <ele>991.79998779296875</ele>
        <time>2021-09-25T08:49:55.000Z</time>
      </trkpt>
      <trkpt lat="40.56342503987252712249755859375" lon="-1.3189563341438770294189453125">
        <ele>991.20001220703125</ele>
        <time>2021-09-25T08:49:57.000Z</time>
      </trkpt>
      <trkpt lat="40.56343928910791873931884765625" lon="-1.318801604211330413818359375">
        <ele>990.20001220703125</ele>
        <time>2021-09-25T08:49:59.000Z</time>
      </trkpt>
      <trkpt lat="40.56345395743846893310546875" lon="-1.31864435970783233642578125">
        <ele>989.5999755859375</ele>
        <time>2021-09-25T08:50:01.000Z</time>
      </trkpt>
      <trkpt lat="40.563472397625446319580078125" lon="-1.31848745048046112060546875">
        <ele>989.79998779296875</ele>
        <time>2021-09-25T08:50:03.000Z</time>
      </trkpt>
      <trkpt lat="40.56348941288888454437255859375" lon="-1.31833347491919994354248046875">
        <ele>989.5999755859375</ele>
        <time>2021-09-25T08:50:05.000Z</time>
      </trkpt>
      <trkpt lat="40.5635060928761959075927734375" lon="-1.3181808404624462127685546875">
        <ele>989.5999755859375</ele>
        <time>2021-09-25T08:50:07.000Z</time>
      </trkpt>
      <trkpt lat="40.56351489387452602386474609375" lon="-1.3181020505726337432861328125">
        <ele>989.79998779296875</ele>
        <time>2021-09-25T08:50:08.000Z</time>
      </trkpt>
      <trkpt lat="40.5635225214064121246337890625" lon="-1.31802552379667758941650390625">
        <ele>990.20001220703125</ele>
        <time>2021-09-25T08:50:09.000Z</time>
      </trkpt>
      <trkpt lat="40.563538782298564910888671875" lon="-1.31787045858800411224365234375">
        <ele>990.4000244140625</ele>
        <time>2021-09-25T08:50:11.000Z</time>
      </trkpt>
      <trkpt lat="40.56355479173362255096435546875" lon="-1.317716650664806365966796875">
        <ele>990.79998779296875</ele>
        <time>2021-09-25T08:50:13.000Z</time>
      </trkpt>
      <trkpt lat="40.563570968806743621826171875" lon="-1.31756468676030635833740234375">
        <ele>990.79998779296875</ele>
        <time>2021-09-25T08:50:15.000Z</time>
      </trkpt>
      <trkpt lat="40.56358681060373783111572265625" lon="-1.31741465069353580474853515625">
        <ele>990.79998779296875</ele>
        <time>2021-09-25T08:50:17.000Z</time>
      </trkpt>
      <trkpt lat="40.56359485723078250885009765625" lon="-1.31733837537467479705810546875">
        <ele>990.79998779296875</ele>
        <time>2021-09-25T08:50:18.000Z</time>
      </trkpt>
      <trkpt lat="40.56360013782978057861328125" lon="-1.31726159714162349700927734375">
        <ele>990.79998779296875</ele>
        <time>2021-09-25T08:50:19.000Z</time>
      </trkpt>
      <trkpt lat="40.56361027993261814117431640625" lon="-1.3171133212745189666748046875">
        <ele>990.79998779296875</ele>
        <time>2021-09-25T08:50:21.000Z</time>
      </trkpt>
      <trkpt lat="40.56362084113061428070068359375" lon="-1.3169657997786998748779296875">
        <ele>990.20001220703125</ele>
        <time>2021-09-25T08:50:23.000Z</time>
      </trkpt>
      <trkpt lat="40.56362821720540523529052734375" lon="-1.3168233074247837066650390625">
        <ele>989.79998779296875</ele>
        <time>2021-09-25T08:50:25.000Z</time>
      </trkpt>
      <trkpt lat="40.5636329948902130126953125" lon="-1.31675298325717449188232421875">
        <ele>989.4000244140625</ele>
        <time>2021-09-25T08:50:26.000Z</time>
      </trkpt>
      <trkpt lat="40.563636682927608489990234375" lon="-1.31668508984148502349853515625">
        <ele>989.20001220703125</ele>
        <time>2021-09-25T08:50:27.000Z</time>
      </trkpt>
      <trkpt lat="40.56364707648754119873046875" lon="-1.31654377095401287078857421875">
        <ele>988.79998779296875</ele>
        <time>2021-09-25T08:50:29.000Z</time>
      </trkpt>
      <trkpt lat="40.56365378201007843017578125" lon="-1.3164032064378261566162109375">
        <ele>988.20001220703125</ele>
        <time>2021-09-25T08:50:31.000Z</time>
      </trkpt>
      <trkpt lat="40.56366140954196453094482421875" lon="-1.3162590377032756805419921875">
        <ele>987.79998779296875</ele>
        <time>2021-09-25T08:50:33.000Z</time>
      </trkpt>
      <trkpt lat="40.56367565877735614776611328125" lon="-1.31611235439777374267578125">
        <ele>987.4000244140625</ele>
        <time>2021-09-25T08:50:35.000Z</time>
      </trkpt>
      <trkpt lat="40.56369259022176265716552734375" lon="-1.31596617400646209716796875">
        <ele>987.20001220703125</ele>
        <time>2021-09-25T08:50:37.000Z</time>
      </trkpt>
      <trkpt lat="40.56370281614363193511962890625" lon="-1.315893419086933135986328125">
        <ele>987.20001220703125</ele>
        <time>2021-09-25T08:50:38.000Z</time>
      </trkpt>
      <trkpt lat="40.5637112818658351898193359375" lon="-1.31582058034837245941162109375">
        <ele>987.20001220703125</ele>
        <time>2021-09-25T08:50:39.000Z</time>
      </trkpt>
      <trkpt lat="40.56373969651758670806884765625" lon="-1.31567724980413913726806640625">
        <ele>987.4000244140625</ele>
        <time>2021-09-25T08:50:41.000Z</time>
      </trkpt>
      <trkpt lat="40.56377070955932140350341796875" lon="-1.31553375162184238433837890625">
        <ele>987.5999755859375</ele>
        <time>2021-09-25T08:50:43.000Z</time>
      </trkpt>
      <trkpt lat="40.5638011358678340911865234375" lon="-1.3153941929340362548828125">
        <ele>988</ele>
        <time>2021-09-25T08:50:45.000Z</time>
      </trkpt>
      <trkpt lat="40.563836507499217987060546875" lon="-1.31525404751300811767578125">
        <ele>988.5999755859375</ele>
        <time>2021-09-25T08:50:47.000Z</time>
      </trkpt>
      <trkpt lat="40.56386576034128665924072265625" lon="-1.31512102670967578887939453125">
        <ele>988.79998779296875</ele>
        <time>2021-09-25T08:50:49.000Z</time>
      </trkpt>
      <trkpt lat="40.563896857202053070068359375" lon="-1.3149940408766269683837890625">
        <ele>989</ele>
        <time>2021-09-25T08:50:51.000Z</time>
      </trkpt>
      <trkpt lat="40.56393281556665897369384765625" lon="-1.31486990489065647125244140625">
        <ele>989</ele>
        <time>2021-09-25T08:50:53.000Z</time>
      </trkpt>
      <trkpt lat="40.56395955383777618408203125" lon="-1.314746104180812835693359375">
        <ele>989.20001220703125</ele>
        <time>2021-09-25T08:50:55.000Z</time>
      </trkpt>
      <trkpt lat="40.56398662738502025604248046875" lon="-1.31462012417614459991455078125">
        <ele>989.20001220703125</ele>
        <time>2021-09-25T08:50:57.000Z</time>
      </trkpt>
      <trkpt lat="40.564013533294200897216796875" lon="-1.31449691019952297210693359375">
        <ele>989.4000244140625</ele>
        <time>2021-09-25T08:50:59.000Z</time>
      </trkpt>
      <trkpt lat="40.56404178030788898468017578125" lon="-1.31437235511839389801025390625">
        <ele>989.4000244140625</ele>
        <time>2021-09-25T08:51:01.000Z</time>
      </trkpt>
      <trkpt lat="40.56406608782708644866943359375" lon="-1.314251236617565155029296875">
        <ele>989.5999755859375</ele>
        <time>2021-09-25T08:51:03.000Z</time>
      </trkpt>
      <trkpt lat="40.5640898086130619049072265625" lon="-1.31413045339286327362060546875">
        <ele>989.5999755859375</ele>
        <time>2021-09-25T08:51:05.000Z</time>
      </trkpt>
      <trkpt lat="40.56411000899970531463623046875" lon="-1.3140140287578105926513671875">
        <ele>989.4000244140625</ele>
        <time>2021-09-25T08:51:07.000Z</time>
      </trkpt>
      <trkpt lat="40.564130879938602447509765625" lon="-1.31389626301825046539306640625">
        <ele>989</ele>
        <time>2021-09-25T08:51:09.000Z</time>
      </trkpt>
      <trkpt lat="40.5641612224280834197998046875" lon="-1.3137853704392910003662109375">
        <ele>988.79998779296875</ele>
        <time>2021-09-25T08:51:11.000Z</time>
      </trkpt>
      <trkpt lat="40.564200617372989654541015625" lon="-1.313679926097393035888671875">
        <ele>988.4000244140625</ele>
        <time>2021-09-25T08:51:13.000Z</time>
      </trkpt>
      <trkpt lat="40.56420765817165374755859375" lon="-1.31363156251609325408935546875">
        <ele>988.4000244140625</ele>
        <time>2021-09-25T08:51:14.000Z</time>
      </trkpt>
      <trkpt lat="40.5642152018845081329345703125" lon="-1.31358562968671321868896484375">
        <ele>988.20001220703125</ele>
        <time>2021-09-25T08:51:15.000Z</time>
      </trkpt>
      <trkpt lat="40.56423808448016643524169921875" lon="-1.31349720060825347900390625">
        <ele>988.20001220703125</ele>
        <time>2021-09-25T08:51:17.000Z</time>
      </trkpt>
      <trkpt lat="40.56427211500704288482666015625" lon="-1.3134071789681911468505859375">
        <ele>988.4000244140625</ele>
        <time>2021-09-25T08:51:19.000Z</time>
      </trkpt>
      <trkpt lat="40.564291141927242279052734375" lon="-1.3133555464446544647216796875">
        <ele>988.4000244140625</ele>
        <time>2021-09-25T08:51:20.000Z</time>
      </trkpt>
      <trkpt lat="40.564308576285839080810546875" lon="-1.31330005824565887451171875">
        <ele>988.4000244140625</ele>
        <time>2021-09-25T08:51:21.000Z</time>
      </trkpt>
      <trkpt lat="40.56432425044476985931396484375" lon="-1.3132442347705364227294921875">
        <ele>988.5999755859375</ele>
        <time>2021-09-25T08:51:22.000Z</time>
      </trkpt>
      <trkpt lat="40.56433866731822490692138671875" lon="-1.31318966858088970184326171875">
        <ele>988.5999755859375</ele>
        <time>2021-09-25T08:51:23.000Z</time>
      </trkpt>
      <trkpt lat="40.56435224600136280059814453125" lon="-1.3131322525441646575927734375">
        <ele>988.5999755859375</ele>
        <time>2021-09-25T08:51:24.000Z</time>
      </trkpt>
      <trkpt lat="40.56436716578900814056396484375" lon="-1.31307299248874187469482421875">
        <ele>988.5999755859375</ele>
        <time>2021-09-25T08:51:25.000Z</time>
      </trkpt>
      <trkpt lat="40.56440035812556743621826171875" lon="-1.312954723834991455078125">
        <ele>988.5999755859375</ele>
        <time>2021-09-25T08:51:27.000Z</time>
      </trkpt>
      <trkpt lat="40.56443455629050731658935546875" lon="-1.31283679045736789703369140625">
        <ele>988.20001220703125</ele>
        <time>2021-09-25T08:51:29.000Z</time>
      </trkpt>
      <trkpt lat="40.5644690059125423431396484375" lon="-1.31271877326071262359619140625">
        <ele>988</ele>
        <time>2021-09-25T08:51:31.000Z</time>
      </trkpt>
      <trkpt lat="40.56449943222105503082275390625" lon="-1.31261609494686126708984375">
        <ele>988.20001220703125</ele>
        <time>2021-09-25T08:51:33.000Z</time>
      </trkpt>
      <trkpt lat="40.564532540738582611083984375" lon="-1.31253034807741641998291015625">
        <ele>988.20001220703125</ele>
        <time>2021-09-25T08:51:35.000Z</time>
      </trkpt>
      <trkpt lat="40.56457755155861377716064453125" lon="-1.312457509338855743408203125">
        <ele>988.4000244140625</ele>
        <time>2021-09-25T08:51:37.000Z</time>
      </trkpt>
      <trkpt lat="40.56459163315594196319580078125" lon="-1.31241333670914173126220703125">
        <ele>988.4000244140625</ele>
        <time>2021-09-25T08:51:39.000Z</time>
      </trkpt>
      <trkpt lat="40.56459163315594196319580078125" lon="-1.31241333670914173126220703125">
        <ele>988.4000244140625</ele>
        <time>2021-09-25T08:51:40.000Z</time>
      </trkpt>
      <trkpt lat="40.56459632702171802520751953125" lon="-1.31237394176423549652099609375">
        <ele>988.20001220703125</ele>
        <time>2021-09-25T08:52:15.000Z</time>
      </trkpt>
      <trkpt lat="40.5646017752587795257568359375" lon="-1.3123386539518833160400390625">
        <ele>988.20001220703125</ele>
        <time>2021-09-25T08:52:17.000Z</time>
      </trkpt>
      <trkpt lat="40.5646188743412494659423828125" lon="-1.31228140555322170257568359375">
        <ele>988</ele>
        <time>2021-09-25T08:52:19.000Z</time>
      </trkpt>
      <trkpt lat="40.5646275915205478668212890625" lon="-1.3122444413602352142333984375">
        <ele>987.79998779296875</ele>
        <time>2021-09-25T08:52:20.000Z</time>
      </trkpt>
      <trkpt lat="40.56463505141437053680419921875" lon="-1.312214098870754241943359375">
        <ele>987.79998779296875</ele>
        <time>2021-09-25T08:52:21.000Z</time>
      </trkpt>
      <trkpt lat="40.56465500034391880035400390625" lon="-1.3121567666530609130859375">
        <ele>987.5999755859375</ele>
        <time>2021-09-25T08:52:23.000Z</time>
      </trkpt>
      <trkpt lat="40.5646674893796443939208984375" lon="-1.3121287710964679718017578125">
        <ele>987.5999755859375</ele>
        <time>2021-09-25T08:52:24.000Z</time>
      </trkpt>
      <trkpt lat="40.56467997841536998748779296875" lon="-1.31210555322468280792236328125">
        <ele>987.5999755859375</ele>
        <time>2021-09-25T08:52:25.000Z</time>
      </trkpt>
      <trkpt lat="40.5647097341716289520263671875" lon="-1.312057189643383026123046875">
        <ele>987.4000244140625</ele>
        <time>2021-09-25T08:52:27.000Z</time>
      </trkpt>
      <trkpt lat="40.5647533200681209564208984375" lon="-1.3120161183178424835205078125">
        <ele>987.4000244140625</ele>
        <time>2021-09-25T08:52:29.000Z</time>
      </trkpt>
      <trkpt lat="40.56478173471987247467041015625" lon="-1.3119990192353725433349609375">
        <ele>987.5999755859375</ele>
        <time>2021-09-25T08:52:30.000Z</time>
      </trkpt>
      <trkpt lat="40.564810149371623992919921875" lon="-1.31198770366609096527099609375">
        <ele>987.5999755859375</ele>
        <time>2021-09-25T08:52:31.000Z</time>
      </trkpt>
      <trkpt lat="40.564859099686145782470703125" lon="-1.3119685091078281402587890625">
        <ele>987.79998779296875</ele>
        <time>2021-09-25T08:52:33.000Z</time>
      </trkpt>
      <trkpt lat="40.564898662269115447998046875" lon="-1.3119524158537387847900390625">
        <ele>987.79998779296875</ele>
        <time>2021-09-25T08:52:35.000Z</time>
      </trkpt>
      <trkpt lat="40.56493009440600872039794921875" lon="-1.31194864399731159210205078125">
        <ele>987.79998779296875</ele>
        <time>2021-09-25T08:52:37.000Z</time>
      </trkpt>
      <trkpt lat="40.56496202945709228515625" lon="-1.3119529187679290771484375">
        <ele>988</ele>
        <time>2021-09-25T08:52:39.000Z</time>
      </trkpt>
      <trkpt lat="40.56498147547245025634765625" lon="-1.31196834146976470947265625">
        <ele>988.20001220703125</ele>
        <time>2021-09-25T08:52:41.000Z</time>
      </trkpt>
      <trkpt lat="40.56499262340366840362548828125" lon="-1.31200010888278484344482421875">
        <ele>988.20001220703125</ele>
        <time>2021-09-25T08:52:43.000Z</time>
      </trkpt>
      <trkpt lat="40.5649933777749538421630859375" lon="-1.31203581579029560089111328125">
        <ele>988.4000244140625</ele>
        <time>2021-09-25T08:52:45.000Z</time>
      </trkpt>
      <trkpt lat="40.56499580852687358856201171875" lon="-1.3120536692440509796142578125">
        <ele>988.5999755859375</ele>
        <time>2021-09-25T08:52:46.000Z</time>
      </trkpt>
      <trkpt lat="40.5649977363646030426025390625" lon="-1.31207152269780635833740234375">
        <ele>988.5999755859375</ele>
        <time>2021-09-25T08:52:47.000Z</time>
      </trkpt>
      <trkpt lat="40.5649960599839687347412109375" lon="-1.31209331564605236053466796875">
        <ele>988.5999755859375</ele>
        <time>2021-09-25T08:52:48.000Z</time>
      </trkpt>
      <trkpt lat="40.56498994119465351104736328125" lon="-1.3121220655739307403564453125">
        <ele>988.79998779296875</ele>
        <time>2021-09-25T08:52:49.000Z</time>
      </trkpt>
      <trkpt lat="40.56497602723538875579833984375" lon="-1.31215483881533145904541015625">
        <ele>988.79998779296875</ele>
        <time>2021-09-25T08:52:50.000Z</time>
      </trkpt>
      <trkpt lat="40.56496362201869487762451171875" lon="-1.31218836642801761627197265625">
        <ele>988.79998779296875</ele>
        <time>2021-09-25T08:52:51.000Z</time>
      </trkpt>
      <trkpt lat="40.56495339609682559967041015625" lon="-1.31222222931683063507080078125">
        <ele>989</ele>
        <time>2021-09-25T08:52:52.000Z</time>
      </trkpt>
      <trkpt lat="40.56494283489882946014404296875" lon="-1.312257014214992523193359375">
        <ele>989</ele>
        <time>2021-09-25T08:52:53.000Z</time>
      </trkpt>
      <trkpt lat="40.56492355652153491973876953125" lon="-1.312328763306140899658203125">
        <ele>989</ele>
        <time>2021-09-25T08:52:55.000Z</time>
      </trkpt>
      <trkpt lat="40.56492053903639316558837890625" lon="-1.31239003501832485198974609375">
        <ele>989</ele>
        <time>2021-09-25T08:52:57.000Z</time>
      </trkpt>
      <trkpt lat="40.56493721902370452880859375" lon="-1.312424652278423309326171875">
        <ele>989</ele>
        <time>2021-09-25T08:52:59.000Z</time>
      </trkpt>
      <trkpt lat="40.56495339609682559967041015625" lon="-1.31243194453418254852294921875">
        <ele>989</ele>
        <time>2021-09-25T08:53:01.000Z</time>
      </trkpt>
      <trkpt lat="40.56495339609682559967041015625" lon="-1.31243194453418254852294921875">
        <ele>989</ele>
        <time>2021-09-25T08:53:02.000Z</time>
      </trkpt>
      <trkpt lat="40.56501173414289951324462890625" lon="-1.3124732673168182373046875">
        <ele>989</ele>
        <time>2021-09-25T08:53:17.000Z</time>
      </trkpt>
      <trkpt lat="40.5650463514029979705810546875" lon="-1.312444098293781280517578125">
        <ele>989</ele>
        <time>2021-09-25T08:53:19.000Z</time>
      </trkpt>
      <trkpt lat="40.56505749933421611785888671875" lon="-1.3124063797295093536376953125">
        <ele>988.79998779296875</ele>
        <time>2021-09-25T08:53:21.000Z</time>
      </trkpt>
      <trkpt lat="40.56507292203605175018310546875" lon="-1.3123892806470394134521484375">
        <ele>988.79998779296875</ele>
        <time>2021-09-25T08:53:23.000Z</time>
      </trkpt>
      <trkpt lat="40.5650855787098407745361328125" lon="-1.31239950656890869140625">
        <ele>988.79998779296875</ele>
        <time>2021-09-25T08:53:24.000Z</time>
      </trkpt>
      <trkpt lat="40.5650996603071689605712890625" lon="-1.3124191202223300933837890625">
        <ele>988.79998779296875</ele>
        <time>2021-09-25T08:53:25.000Z</time>
      </trkpt>
      <trkpt lat="40.56511952541768550872802734375" lon="-1.3124759495258331298828125">
        <ele>989</ele>
        <time>2021-09-25T08:53:27.000Z</time>
      </trkpt>
      <trkpt lat="40.56512455455958843231201171875" lon="-1.31250880658626556396484375">
        <ele>989</ele>
        <time>2021-09-25T08:53:28.000Z</time>
      </trkpt>
      <trkpt lat="40.565129332244396209716796875" lon="-1.31253872998058795928955078125">
        <ele>989</ele>
        <time>2021-09-25T08:53:29.000Z</time>
      </trkpt>
      <trkpt lat="40.56514584459364414215087890625" lon="-1.31255817599594593048095703125">
        <ele>989</ele>
        <time>2021-09-25T08:53:30.000Z</time>
      </trkpt>
      <trkpt lat="40.56516587734222412109375" lon="-1.31256219930946826934814453125">
        <ele>989</ele>
        <time>2021-09-25T08:53:31.000Z</time>
      </trkpt>
      <trkpt lat="40.56518725119531154632568359375" lon="-1.3125569187104701995849609375">
        <ele>989</ele>
        <time>2021-09-25T08:53:32.000Z</time>
      </trkpt>
      <trkpt lat="40.56520652957260608673095703125" lon="-1.31256018765270709991455078125">
        <ele>989</ele>
        <time>2021-09-25T08:53:33.000Z</time>
      </trkpt>
      <trkpt lat="40.5652289092540740966796875" lon="-1.31259941495954990386962890625">
        <ele>988.5999755859375</ele>
        <time>2021-09-25T08:53:35.000Z</time>
      </trkpt>
      <trkpt lat="40.5652183480560779571533203125" lon="-1.31261408329010009765625">
        <ele>988.5999755859375</ele>
        <time>2021-09-25T08:53:36.000Z</time>
      </trkpt>
      <trkpt lat="40.56520351208746433258056640625" lon="-1.31260947324335575103759765625">
        <ele>988.79998779296875</ele>
        <time>2021-09-25T08:53:37.000Z</time>
      </trkpt>
      <trkpt lat="40.56516512297093868255615234375" lon="-1.31256102584302425384521484375">
        <ele>989</ele>
        <time>2021-09-25T08:53:39.000Z</time>
      </trkpt>
      <trkpt lat="40.5651207827031612396240234375" lon="-1.31252515129745006561279296875">
        <ele>989</ele>
        <time>2021-09-25T08:53:41.000Z</time>
      </trkpt>
      <trkpt lat="40.56507342495024204254150390625" lon="-1.31251794286072254180908203125">
        <ele>989</ele>
        <time>2021-09-25T08:53:43.000Z</time>
      </trkpt>
      <trkpt lat="40.56504777632653713226318359375" lon="-1.31251827813684940338134765625">
        <ele>989</ele>
        <time>2021-09-25T08:53:44.000Z</time>
      </trkpt>
      <trkpt lat="40.5650223791599273681640625" lon="-1.31252347491681575775146484375">
        <ele>989</ele>
        <time>2021-09-25T08:53:45.000Z</time>
      </trkpt>
      <trkpt lat="40.5650009214878082275390625" lon="-1.312516517937183380126953125">
        <ele>989</ele>
        <time>2021-09-25T08:53:46.000Z</time>
      </trkpt>
      <trkpt lat="40.5649813078343868255615234375" lon="-1.31250746548175811767578125">
        <ele>989</ele>
        <time>2021-09-25T08:53:47.000Z</time>
      </trkpt>
      <trkpt lat="40.56495524011552333831787109375" lon="-1.312498413026332855224609375">
        <ele>989</ele>
        <time>2021-09-25T08:53:48.000Z</time>
      </trkpt>
      <trkpt lat="40.564938224852085113525390625" lon="-1.31249405443668365478515625">
        <ele>989</ele>
        <time>2021-09-25T08:53:49.000Z</time>
      </trkpt>
      <trkpt lat="40.5649016797542572021484375" lon="-1.3124881871044635772705078125">
        <ele>989</ele>
        <time>2021-09-25T08:53:51.000Z</time>
      </trkpt>
      <trkpt lat="40.56489002890884876251220703125" lon="-1.31248173303902149200439453125">
        <ele>989</ele>
        <time>2021-09-25T08:53:52.000Z</time>
      </trkpt>
      <trkpt lat="40.564887262880802154541015625" lon="-1.31247418932616710662841796875">
        <ele>989</ele>
        <time>2021-09-25T08:53:53.000Z</time>
      </trkpt>
      <trkpt lat="40.56504475884139537811279296875" lon="-1.3124097324907779693603515625">
        <ele>989</ele>
        <time>2021-09-25T09:26:29.000Z</time>
      </trkpt>
      <trkpt lat="40.565062947571277618408203125" lon="-1.312428005039691925048828125">
        <ele>989</ele>
        <time>2021-09-25T09:26:30.000Z</time>
      </trkpt>
      <trkpt lat="40.5650305934250354766845703125" lon="-1.312398500740528106689453125">
        <ele>989</ele>
        <time>2021-09-25T09:28:43.000Z</time>
      </trkpt>
      <trkpt lat="40.56504023261368274688720703125" lon="-1.31237008608877658843994140625">
        <ele>989</ele>
        <time>2021-09-25T09:28:44.000Z</time>
      </trkpt>
      <trkpt lat="40.56501324288547039031982421875" lon="-1.31233178079128265380859375">
        <ele>989</ele>
        <time>2021-09-25T09:28:46.000Z</time>
      </trkpt>
      <trkpt lat="40.56499161757528781890869140625" lon="-1.3123101554811000823974609375">
        <ele>989</ele>
        <time>2021-09-25T09:28:48.000Z</time>
      </trkpt>
      <trkpt lat="40.56498608551919460296630859375" lon="-1.31230604834854602813720703125">
        <ele>989</ele>
        <time>2021-09-25T09:28:49.000Z</time>
      </trkpt>
      <trkpt lat="40.56498608551919460296630859375" lon="-1.31230604834854602813720703125">
        <ele>989</ele>
        <time>2021-09-25T09:28:50.000Z</time>
      </trkpt>
      <trkpt lat="40.564983822405338287353515625" lon="-1.31227185018360614776611328125">
        <ele>989</ele>
        <time>2021-09-25T09:29:44.000Z</time>
      </trkpt>
      <trkpt lat="40.56499329395592212677001953125" lon="-1.3122239895164966583251953125">
        <ele>989</ele>
        <time>2021-09-25T09:29:46.000Z</time>
      </trkpt>
      <trkpt lat="40.565005950629711151123046875" lon="-1.312159784138202667236328125">
        <ele>989</ele>
        <time>2021-09-25T09:29:48.000Z</time>
      </trkpt>
      <trkpt lat="40.56501240469515323638916015625" lon="-1.3121039606630802154541015625">
        <ele>988.79998779296875</ele>
        <time>2021-09-25T09:29:50.000Z</time>
      </trkpt>
      <trkpt lat="40.565007962286472320556640625" lon="-1.312050484120845794677734375">
        <ele>988.5999755859375</ele>
        <time>2021-09-25T09:29:52.000Z</time>
      </trkpt>
      <trkpt lat="40.564978457987308502197265625" lon="-1.31200949661433696746826171875">
        <ele>988.20001220703125</ele>
        <time>2021-09-25T09:29:54.000Z</time>
      </trkpt>
      <trkpt lat="40.5649387277662754058837890625" lon="-1.3119829259812831878662109375">
        <ele>988</ele>
        <time>2021-09-25T09:29:56.000Z</time>
      </trkpt>
      <trkpt lat="40.564912073314189910888671875" lon="-1.3119745440781116485595703125">
        <ele>988</ele>
        <time>2021-09-25T09:29:57.000Z</time>
      </trkpt>
      <trkpt lat="40.56488868780434131622314453125" lon="-1.31197345443069934844970703125">
        <ele>987.79998779296875</ele>
        <time>2021-09-25T09:29:58.000Z</time>
      </trkpt>
      <trkpt lat="40.564849376678466796875" lon="-1.3119772262871265411376953125">
        <ele>987.5999755859375</ele>
        <time>2021-09-25T09:30:00.000Z</time>
      </trkpt>
      <trkpt lat="40.56480671279132366180419921875" lon="-1.31199005059897899627685546875">
        <ele>987.5999755859375</ele>
        <time>2021-09-25T09:30:02.000Z</time>
      </trkpt>
      <trkpt lat="40.56478165090084075927734375" lon="-1.31199918687343597412109375">
        <ele>987.5999755859375</ele>
        <time>2021-09-25T09:30:03.000Z</time>
      </trkpt>
      <trkpt lat="40.5647583492100238800048828125" lon="-1.312010250985622406005859375">
        <ele>987.4000244140625</ele>
        <time>2021-09-25T09:30:04.000Z</time>
      </trkpt>
      <trkpt lat="40.564717948436737060546875" lon="-1.3120414316654205322265625">
        <ele>987.4000244140625</ele>
        <time>2021-09-25T09:30:06.000Z</time>
      </trkpt>
      <trkpt lat="40.56468483991920948028564453125" lon="-1.3120937347412109375">
        <ele>987.5999755859375</ele>
        <time>2021-09-25T09:30:08.000Z</time>
      </trkpt>
      <trkpt lat="40.56466924957931041717529296875" lon="-1.3121218979358673095703125">
        <ele>987.5999755859375</ele>
        <time>2021-09-25T09:30:09.000Z</time>
      </trkpt>
      <trkpt lat="40.56465617381036281585693359375" lon="-1.31215483881533145904541015625">
        <ele>987.5999755859375</ele>
        <time>2021-09-25T09:30:10.000Z</time>
      </trkpt>
      <trkpt lat="40.564629100263118743896484375" lon="-1.31222574971616268157958984375">
        <ele>987.79998779296875</ele>
        <time>2021-09-25T09:30:12.000Z</time>
      </trkpt>
      <trkpt lat="40.564606972038745880126953125" lon="-1.31230831146240234375">
        <ele>988</ele>
        <time>2021-09-25T09:30:14.000Z</time>
      </trkpt>
      <trkpt lat="40.5645773001015186309814453125" lon="-1.31239020265638828277587890625">
        <ele>988.20001220703125</ele>
        <time>2021-09-25T09:30:16.000Z</time>
      </trkpt>
      <trkpt lat="40.56454821489751338958740234375" lon="-1.3124786317348480224609375">
        <ele>988.4000244140625</ele>
        <time>2021-09-25T09:30:18.000Z</time>
      </trkpt>
      <trkpt lat="40.56452105753123760223388671875" lon="-1.31256806664168834686279296875">
        <ele>988.20001220703125</ele>
        <time>2021-09-25T09:30:20.000Z</time>
      </trkpt>
      <trkpt lat="40.56448820047080516815185546875" lon="-1.312658675014972686767578125">
        <ele>988</ele>
        <time>2021-09-25T09:30:22.000Z</time>
      </trkpt>
      <trkpt lat="40.5644562654197216033935546875" lon="-1.3127470202744007110595703125">
        <ele>988</ele>
        <time>2021-09-25T09:30:24.000Z</time>
      </trkpt>
      <trkpt lat="40.5644371546804904937744140625" lon="-1.31283628754317760467529296875">
        <ele>988.4000244140625</ele>
        <time>2021-09-25T09:30:26.000Z</time>
      </trkpt>
      <trkpt lat="40.56440874002873897552490234375" lon="-1.31292329169809818267822265625">
        <ele>988.5999755859375</ele>
        <time>2021-09-25T09:30:28.000Z</time>
      </trkpt>
      <trkpt lat="40.56439314968883991241455078125" lon="-1.312966458499431610107421875">
        <ele>988.5999755859375</ele>
        <time>2021-09-25T09:30:29.000Z</time>
      </trkpt>
      <trkpt lat="40.5643788166344165802001953125" lon="-1.3130145706236362457275390625">
        <ele>988.5999755859375</ele>
        <time>2021-09-25T09:30:30.000Z</time>
      </trkpt>
      <trkpt lat="40.5643513239920139312744140625" lon="-1.3131089508533477783203125">
        <ele>988.5999755859375</ele>
        <time>2021-09-25T09:30:32.000Z</time>
      </trkpt>
      <trkpt lat="40.56432927958667278289794921875" lon="-1.31321179680526256561279296875">
        <ele>988.5999755859375</ele>
        <time>2021-09-25T09:30:34.000Z</time>
      </trkpt>
      <trkpt lat="40.56429994292557239532470703125" lon="-1.31330500356853008270263671875">
        <ele>988.4000244140625</ele>
        <time>2021-09-25T09:30:36.000Z</time>
      </trkpt>
      <trkpt lat="40.56427110917866230010986328125" lon="-1.31339804269373416900634765625">
        <ele>988.4000244140625</ele>
        <time>2021-09-25T09:30:38.000Z</time>
      </trkpt>
      <trkpt lat="40.56425862014293670654296875" lon="-1.313445903360843658447265625">
        <ele>988.20001220703125</ele>
        <time>2021-09-25T09:30:39.000Z</time>
      </trkpt>
      <trkpt lat="40.56424479000270366668701171875" lon="-1.31349376402795314788818359375">
        <ele>988.20001220703125</ele>
        <time>2021-09-25T09:30:40.000Z</time>
      </trkpt>
      <trkpt lat="40.56422551162540912628173828125" lon="-1.3135935924947261810302734375">
        <ele>988.20001220703125</ele>
        <time>2021-09-25T09:30:42.000Z</time>
      </trkpt>
      <trkpt lat="40.56419919244945049285888671875" lon="-1.3136921636760234832763671875">
        <ele>988.5999755859375</ele>
        <time>2021-09-25T09:30:44.000Z</time>
      </trkpt>
      <trkpt lat="40.5641769804060459136962890625" lon="-1.31379802711308002471923828125">
        <ele>988.79998779296875</ele>
        <time>2021-09-25T09:30:46.000Z</time>
      </trkpt>
      <trkpt lat="40.56415309198200702667236328125" lon="-1.313906572759151458740234375">
        <ele>989.20001220703125</ele>
        <time>2021-09-25T09:30:48.000Z</time>
      </trkpt>
      <trkpt lat="40.5641266889870166778564453125" lon="-1.3140083290636539459228515625">
        <ele>989.4000244140625</ele>
        <time>2021-09-25T09:30:50.000Z</time>
      </trkpt>
      <trkpt lat="40.56410447694361209869384765625" lon="-1.3141132704913616180419921875">
        <ele>989.79998779296875</ele>
        <time>2021-09-25T09:30:52.000Z</time>
      </trkpt>
      <trkpt lat="40.56408436037600040435791015625" lon="-1.314215026795864105224609375">
        <ele>989.5999755859375</ele>
        <time>2021-09-25T09:30:54.000Z</time>
      </trkpt>
      <trkpt lat="40.56406659074127674102783203125" lon="-1.31431267596781253814697265625">
        <ele>989.5999755859375</ele>
        <time>2021-09-25T09:30:56.000Z</time>
      </trkpt>
      <trkpt lat="40.56404446251690387725830078125" lon="-1.31440940313041210174560546875">
        <ele>989.4000244140625</ele>
        <time>2021-09-25T09:30:58.000Z</time>
      </trkpt>
      <trkpt lat="40.56401646696031093597412109375" lon="-1.31451015360653400421142578125">
        <ele>989.4000244140625</ele>
        <time>2021-09-25T09:31:00.000Z</time>
      </trkpt>
      <trkpt lat="40.56399266235530376434326171875" lon="-1.3146136701107025146484375">
        <ele>989.4000244140625</ele>
        <time>2021-09-25T09:31:02.000Z</time>
      </trkpt>
      <trkpt lat="40.56398143060505390167236328125" lon="-1.31466806866228580474853515625">
        <ele>989.20001220703125</ele>
        <time>2021-09-25T09:31:03.000Z</time>
      </trkpt>
      <trkpt lat="40.563973300158977508544921875" lon="-1.31472053937613964080810546875">
        <ele>989.20001220703125</ele>
        <time>2021-09-25T09:31:04.000Z</time>
      </trkpt>
      <trkpt lat="40.56395377032458782196044921875" lon="-1.3148284144699573516845703125">
        <ele>989.20001220703125</ele>
        <time>2021-09-25T09:31:06.000Z</time>
      </trkpt>
      <trkpt lat="40.5639335699379444122314453125" lon="-1.314931176602840423583984375">
        <ele>989</ele>
        <time>2021-09-25T09:31:08.000Z</time>
      </trkpt>
      <trkpt lat="40.56390934623777866363525390625" lon="-1.31504156626760959625244140625">
        <ele>989</ele>
        <time>2021-09-25T09:31:10.000Z</time>
      </trkpt>
      <trkpt lat="40.56388654746115207672119140625" lon="-1.31515271030366420745849609375">
        <ele>989</ele>
        <time>2021-09-25T09:31:12.000Z</time>
      </trkpt>
      <trkpt lat="40.56386492215096950531005859375" lon="-1.31525932811200618743896484375">
        <ele>988.79998779296875</ele>
        <time>2021-09-25T09:31:14.000Z</time>
      </trkpt>
      <trkpt lat="40.56384245865046977996826171875" lon="-1.31536628119647502899169921875">
        <ele>988.20001220703125</ele>
        <time>2021-09-25T09:31:16.000Z</time>
      </trkpt>
      <trkpt lat="40.56382385082542896270751953125" lon="-1.31547424010932445526123046875">
        <ele>987.79998779296875</ele>
        <time>2021-09-25T09:31:18.000Z</time>
      </trkpt>
      <trkpt lat="40.56379904039204120635986328125" lon="-1.31557725369930267333984375">
        <ele>987.5999755859375</ele>
        <time>2021-09-25T09:31:20.000Z</time>
      </trkpt>
      <trkpt lat="40.5637880600988864898681640625" lon="-1.3156307302415370941162109375">
        <ele>987.5999755859375</ele>
        <time>2021-09-25T09:31:21.000Z</time>
      </trkpt>
      <trkpt lat="40.56377909146249294281005859375" lon="-1.31568646989762783050537109375">
        <ele>987.5999755859375</ele>
        <time>2021-09-25T09:31:22.000Z</time>
      </trkpt>
      <trkpt lat="40.56376132182776927947998046875" lon="-1.3157956860959529876708984375">
        <ele>987.4000244140625</ele>
        <time>2021-09-25T09:31:24.000Z</time>
      </trkpt>
      <trkpt lat="40.5637444742023944854736328125" lon="-1.31590540520846843719482421875">
        <ele>987.4000244140625</ele>
        <time>2021-09-25T09:31:26.000Z</time>
      </trkpt>
      <trkpt lat="40.56373366154730319976806640625" lon="-1.31602208130061626434326171875">
        <ele>987.4000244140625</ele>
        <time>2021-09-25T09:31:28.000Z</time>
      </trkpt>
      <trkpt lat="40.5637215077877044677734375" lon="-1.31613758392632007598876953125">
        <ele>987.5999755859375</ele>
        <time>2021-09-25T09:31:30.000Z</time>
      </trkpt>
      <trkpt lat="40.5637166462838649749755859375" lon="-1.31619474850594997406005859375">
        <ele>987.79998779296875</ele>
        <time>2021-09-25T09:31:31.000Z</time>
      </trkpt>
      <trkpt lat="40.56371103040874004364013671875" lon="-1.3162506558001041412353515625">
        <ele>988</ele>
        <time>2021-09-25T09:31:32.000Z</time>
      </trkpt>
      <trkpt lat="40.5637028999626636505126953125" lon="-1.3163646496832370758056640625">
        <ele>988</ele>
        <time>2021-09-25T09:31:34.000Z</time>
      </trkpt>
      <trkpt lat="40.56369644589722156524658203125" lon="-1.31648191250860691070556640625">
        <ele>988.5999755859375</ele>
        <time>2021-09-25T09:31:36.000Z</time>
      </trkpt>
      <trkpt lat="40.56368756107985973358154296875" lon="-1.31659640930593013763427734375">
        <ele>989</ele>
        <time>2021-09-25T09:31:38.000Z</time>
      </trkpt>
      <trkpt lat="40.56367817334830760955810546875" lon="-1.3167066313326358795166015625">
        <ele>989.4000244140625</ele>
        <time>2021-09-25T09:31:40.000Z</time>
      </trkpt>
      <trkpt lat="40.56367381475865840911865234375" lon="-1.3167622871696949005126953125">
        <ele>989.5999755859375</ele>
        <time>2021-09-25T09:31:41.000Z</time>
      </trkpt>
      <trkpt lat="40.5636692047119140625" lon="-1.31681584753096103668212890625">
        <ele>989.79998779296875</ele>
        <time>2021-09-25T09:31:42.000Z</time>
      </trkpt>
      <trkpt lat="40.56366576813161373138427734375" lon="-1.31692078895866870880126953125">
        <ele>990</ele>
        <time>2021-09-25T09:31:44.000Z</time>
      </trkpt>
      <trkpt lat="40.56366048753261566162109375" lon="-1.31702237762510776519775390625">
        <ele>990.4000244140625</ele>
        <time>2021-09-25T09:31:46.000Z</time>
      </trkpt>
      <trkpt lat="40.56365772150456905364990234375" lon="-1.31712664850056171417236328125">
        <ele>990.79998779296875</ele>
        <time>2021-09-25T09:31:48.000Z</time>
      </trkpt>
      <trkpt lat="40.56365311145782470703125" lon="-1.31723326630890369415283203125">
        <ele>991</ele>
        <time>2021-09-25T09:31:50.000Z</time>
      </trkpt>
      <trkpt lat="40.56364615447819232940673828125" lon="-1.31734105758368968963623046875">
        <ele>991</ele>
        <time>2021-09-25T09:31:52.000Z</time>
      </trkpt>
      <trkpt lat="40.563638024032115936279296875" lon="-1.31744675338268280029296875">
        <ele>991</ele>
        <time>2021-09-25T09:31:54.000Z</time>
      </trkpt>
      <trkpt lat="40.56362620554864406585693359375" lon="-1.31754943169653415679931640625">
        <ele>991</ele>
        <time>2021-09-25T09:31:56.000Z</time>
      </trkpt>
      <trkpt lat="40.5636140517890453338623046875" lon="-1.31765185855329036712646484375">
        <ele>991</ele>
        <time>2021-09-25T09:31:58.000Z</time>
      </trkpt>
      <trkpt lat="40.56360818445682525634765625" lon="-1.31770365871489048004150390625">
        <ele>991</ele>
        <time>2021-09-25T09:31:59.000Z</time>
      </trkpt>
      <trkpt lat="40.563603825867176055908203125" lon="-1.3177563808858394622802734375">
        <ele>990.79998779296875</ele>
        <time>2021-09-25T09:32:00.000Z</time>
      </trkpt>
      <trkpt lat="40.56359401904046535491943359375" lon="-1.31786425597965717315673828125">
        <ele>990.79998779296875</ele>
        <time>2021-09-25T09:32:02.000Z</time>
      </trkpt>
      <trkpt lat="40.5635818652808666229248046875" lon="-1.31797053851187229156494140625">
        <ele>990.5999755859375</ele>
        <time>2021-09-25T09:32:04.000Z</time>
      </trkpt>
      <trkpt lat="40.5635697953402996063232421875" lon="-1.31807573139667510986328125">
        <ele>990.4000244140625</ele>
        <time>2021-09-25T09:32:06.000Z</time>
      </trkpt>
      <trkpt lat="40.56355847977101802825927734375" lon="-1.31818033754825592041015625">
        <ele>990.20001220703125</ele>
        <time>2021-09-25T09:32:08.000Z</time>
      </trkpt>
      <trkpt lat="40.56355110369622707366943359375" lon="-1.3182314671576023101806640625">
        <ele>990.20001220703125</ele>
        <time>2021-09-25T09:32:09.000Z</time>
      </trkpt>
      <trkpt lat="40.563544146716594696044921875" lon="-1.31828268058598041534423828125">
        <ele>990</ele>
        <time>2021-09-25T09:32:10.000Z</time>
      </trkpt>
      <trkpt lat="40.56353232823312282562255859375" lon="-1.31838695146143436431884765625">
        <ele>990.20001220703125</ele>
        <time>2021-09-25T09:32:12.000Z</time>
      </trkpt>
      <trkpt lat="40.56351975537836551666259765625" lon="-1.31848719902336597442626953125">
        <ele>989.79998779296875</ele>
        <time>2021-09-25T09:32:14.000Z</time>
      </trkpt>
      <trkpt lat="40.563510619103908538818359375" lon="-1.3185845129191875457763671875">
        <ele>989.5999755859375</ele>
        <time>2021-09-25T09:32:16.000Z</time>
      </trkpt>
      <trkpt lat="40.5635007284581661224365234375" lon="-1.318676881492137908935546875">
        <ele>990</ele>
        <time>2021-09-25T09:32:18.000Z</time>
      </trkpt>
      <trkpt lat="40.5634935200214385986328125" lon="-1.31877201609313488006591796875">
        <ele>990.20001220703125</ele>
        <time>2021-09-25T09:32:20.000Z</time>
      </trkpt>
      <trkpt lat="40.5634822882711887359619140625" lon="-1.31886790506541728973388671875">
        <ele>990.5999755859375</ele>
        <time>2021-09-25T09:32:22.000Z</time>
      </trkpt>
      <trkpt lat="40.56347348727285861968994140625" lon="-1.318961866199970245361328125">
        <ele>991.4000244140625</ele>
        <time>2021-09-25T09:32:24.000Z</time>
      </trkpt>
      <trkpt lat="40.56346544064581394195556640625" lon="-1.319054067134857177734375">
        <ele>991.5999755859375</ele>
        <time>2021-09-25T09:32:26.000Z</time>
      </trkpt>
      <trkpt lat="40.56345504708588123321533203125" lon="-1.319148279726505279541015625">
        <ele>991.79998779296875</ele>
        <time>2021-09-25T09:32:28.000Z</time>
      </trkpt>
      <trkpt lat="40.56344993412494659423828125" lon="-1.31919580511748790740966796875">
        <ele>992</ele>
        <time>2021-09-25T09:32:29.000Z</time>
      </trkpt>
      <trkpt lat="40.563444904983043670654296875" lon="-1.31924140267074108123779296875">
        <ele>992.20001220703125</ele>
        <time>2021-09-25T09:32:30.000Z</time>
      </trkpt>
      <trkpt lat="40.5634353496134281158447265625" lon="-1.319333352148532867431640625">
        <ele>992.5999755859375</ele>
        <time>2021-09-25T09:32:32.000Z</time>
      </trkpt>
      <trkpt lat="40.56342847645282745361328125" lon="-1.31942697800695896148681640625">
        <ele>993.20001220703125</ele>
        <time>2021-09-25T09:32:34.000Z</time>
      </trkpt>
      <trkpt lat="40.563423447310924530029296875" lon="-1.31952144205570220947265625">
        <ele>993.4000244140625</ele>
        <time>2021-09-25T09:32:36.000Z</time>
      </trkpt>
      <trkpt lat="40.56341397576034069061279296875" lon="-1.31961439736187458038330078125">
        <ele>993.79998779296875</ele>
        <time>2021-09-25T09:32:38.000Z</time>
      </trkpt>
      <trkpt lat="40.56341062299907207489013671875" lon="-1.31966100074350833892822265625">
        <ele>994</ele>
        <time>2021-09-25T09:32:39.000Z</time>
      </trkpt>
      <trkpt lat="40.5634068511426448822021484375" lon="-1.3197071850299835205078125">
        <ele>994</ele>
        <time>2021-09-25T09:32:40.000Z</time>
      </trkpt>
      <trkpt lat="40.56339838542044162750244140625" lon="-1.31980164907872676849365234375">
        <ele>994</ele>
        <time>2021-09-25T09:32:42.000Z</time>
      </trkpt>
      <trkpt lat="40.56339218281209468841552734375" lon="-1.31989854387938976287841796875">
        <ele>994</ele>
        <time>2021-09-25T09:32:44.000Z</time>
      </trkpt>
      <trkpt lat="40.56338128633797168731689453125" lon="-1.31999594159424304962158203125">
        <ele>994.20001220703125</ele>
        <time>2021-09-25T09:32:46.000Z</time>
      </trkpt>
      <trkpt lat="40.56337441317737102508544921875" lon="-1.32009468041360378265380859375">
        <ele>994.5999755859375</ele>
        <time>2021-09-25T09:32:48.000Z</time>
      </trkpt>
      <trkpt lat="40.56336787529289722442626953125" lon="-1.32019392214715480804443359375">
        <ele>995</ele>
        <time>2021-09-25T09:32:50.000Z</time>
      </trkpt>
      <trkpt lat="40.5633589066565036773681640625" lon="-1.3202934153378009796142578125">
        <ele>995</ele>
        <time>2021-09-25T09:32:52.000Z</time>
      </trkpt>
      <trkpt lat="40.56334935128688812255859375" lon="-1.32039424963295459747314453125">
        <ele>995</ele>
        <time>2021-09-25T09:32:54.000Z</time>
      </trkpt>
      <trkpt lat="40.56334457360208034515380859375" lon="-1.32049667648971080780029296875">
        <ele>995</ele>
        <time>2021-09-25T09:32:56.000Z</time>
      </trkpt>
      <trkpt lat="40.56333820335566997528076171875" lon="-1.32060027681291103363037109375">
        <ele>995</ele>
        <time>2021-09-25T09:32:58.000Z</time>
      </trkpt>
      <trkpt lat="40.56333283893764019012451171875" lon="-1.32070471532642841339111328125">
        <ele>995</ele>
        <time>2021-09-25T09:33:00.000Z</time>
      </trkpt>
      <trkpt lat="40.56333032436668872833251953125" lon="-1.320757605135440826416015625">
        <ele>995</ele>
        <time>2021-09-25T09:33:01.000Z</time>
      </trkpt>
      <trkpt lat="40.56332596577703952789306640625" lon="-1.3208107464015483856201171875">
        <ele>995</ele>
        <time>2021-09-25T09:33:02.000Z</time>
      </trkpt>
      <trkpt lat="40.563320182263851165771484375" lon="-1.3209143467247486114501953125">
        <ele>995</ele>
        <time>2021-09-25T09:33:04.000Z</time>
      </trkpt>
      <trkpt lat="40.56332127191126346588134765625" lon="-1.3210212998092174530029296875">
        <ele>995</ele>
        <time>2021-09-25T09:33:06.000Z</time>
      </trkpt>
      <trkpt lat="40.56331423111259937286376953125" lon="-1.32112850435078144073486328125">
        <ele>994.79998779296875</ele>
        <time>2021-09-25T09:33:08.000Z</time>
      </trkpt>
      <trkpt lat="40.5633084475994110107421875" lon="-1.32118114270269870758056640625">
        <ele>994.79998779296875</ele>
        <time>2021-09-25T09:33:09.000Z</time>
      </trkpt>
      <trkpt lat="40.56330383755266666412353515625" lon="-1.3212355412542819976806640625">
        <ele>994.5999755859375</ele>
        <time>2021-09-25T09:33:10.000Z</time>
      </trkpt>
      <trkpt lat="40.56329545564949512481689453125" lon="-1.32133754901587963104248046875">
        <ele>994.20001220703125</ele>
        <time>2021-09-25T09:33:12.000Z</time>
      </trkpt>
      <trkpt lat="40.56328942067921161651611328125" lon="-1.32144433446228504180908203125">
        <ele>994.20001220703125</ele>
        <time>2021-09-25T09:33:14.000Z</time>
      </trkpt>
      <trkpt lat="40.56328321807086467742919921875" lon="-1.32155380211770534515380859375">
        <ele>994.20001220703125</ele>
        <time>2021-09-25T09:33:16.000Z</time>
      </trkpt>
      <trkpt lat="40.5632811225950717926025390625" lon="-1.3216063566505908966064453125">
        <ele>994.20001220703125</ele>
        <time>2021-09-25T09:33:17.000Z</time>
      </trkpt>
      <trkpt lat="40.56327693164348602294921875" lon="-1.3216589950025081634521484375">
        <ele>994.20001220703125</ele>
        <time>2021-09-25T09:33:18.000Z</time>
      </trkpt>
      <trkpt lat="40.5632693879306316375732421875" lon="-1.3217662833631038665771484375">
        <ele>994.20001220703125</ele>
        <time>2021-09-25T09:33:20.000Z</time>
      </trkpt>
      <trkpt lat="40.5632633529603481292724609375" lon="-1.32187013514339923858642578125">
        <ele>994.4000244140625</ele>
        <time>2021-09-25T09:33:22.000Z</time>
      </trkpt>
      <trkpt lat="40.56325958110392093658447265625" lon="-1.32197792641818523406982421875">
        <ele>994.4000244140625</ele>
        <time>2021-09-25T09:33:24.000Z</time>
      </trkpt>
      <trkpt lat="40.5632583238184452056884765625" lon="-1.32208429276943206787109375">
        <ele>994.4000244140625</ele>
        <time>2021-09-25T09:33:26.000Z</time>
      </trkpt>
      <trkpt lat="40.56325555779039859771728515625" lon="-1.32218680344521999359130859375">
        <ele>994.4000244140625</ele>
        <time>2021-09-25T09:33:28.000Z</time>
      </trkpt>
      <trkpt lat="40.5632509477436542510986328125" lon="-1.32229208014905452728271484375">
        <ele>994.4000244140625</ele>
        <time>2021-09-25T09:33:30.000Z</time>
      </trkpt>
      <trkpt lat="40.5632449127733707427978515625" lon="-1.32239878177642822265625">
        <ele>994.79998779296875</ele>
        <time>2021-09-25T09:33:32.000Z</time>
      </trkpt>
      <trkpt lat="40.5632418952882289886474609375" lon="-1.3225048966705799102783203125">
        <ele>995.4000244140625</ele>
        <time>2021-09-25T09:33:34.000Z</time>
      </trkpt>
      <trkpt lat="40.56323803961277008056640625" lon="-1.32261134684085845947265625">
        <ele>996.20001220703125</ele>
        <time>2021-09-25T09:33:36.000Z</time>
      </trkpt>
      <trkpt lat="40.56323527358472347259521484375" lon="-1.32266624830663204193115234375">
        <ele>996.5999755859375</ele>
        <time>2021-09-25T09:33:37.000Z</time>
      </trkpt>
      <trkpt lat="40.56323225609958171844482421875" lon="-1.32271989248692989349365234375">
        <ele>997</ele>
        <time>2021-09-25T09:33:38.000Z</time>
      </trkpt>
      <trkpt lat="40.563228987157344818115234375" lon="-1.322828270494937896728515625">
        <ele>997.4000244140625</ele>
        <time>2021-09-25T09:33:40.000Z</time>
      </trkpt>
      <trkpt lat="40.56322596967220306396484375" lon="-1.32293589413166046142578125">
        <ele>997.79998779296875</ele>
        <time>2021-09-25T09:33:42.000Z</time>
      </trkpt>
      <trkpt lat="40.5632234551012516021728515625" lon="-1.323041506111621856689453125">
        <ele>998.20001220703125</ele>
        <time>2021-09-25T09:33:44.000Z</time>
      </trkpt>
      <trkpt lat="40.563218928873538970947265625" lon="-1.323144435882568359375">
        <ele>998.4000244140625</ele>
        <time>2021-09-25T09:33:46.000Z</time>
      </trkpt>
      <trkpt lat="40.563218593597412109375" lon="-1.3231969065964221954345703125">
        <ele>998.4000244140625</ele>
        <time>2021-09-25T09:33:47.000Z</time>
      </trkpt>
      <trkpt lat="40.5632199347019195556640625" lon="-1.32325013168156147003173828125">
        <ele>998.4000244140625</ele>
        <time>2021-09-25T09:33:48.000Z</time>
      </trkpt>
      <trkpt lat="40.56321834214031696319580078125" lon="-1.323356665670871734619140625">
        <ele>998.20001220703125</ele>
        <time>2021-09-25T09:33:50.000Z</time>
      </trkpt>
      <trkpt lat="40.563214905560016632080078125" lon="-1.323458589613437652587890625">
        <ele>998</ele>
        <time>2021-09-25T09:33:52.000Z</time>
      </trkpt>
      <trkpt lat="40.56321314536035060882568359375" lon="-1.32355841808021068572998046875">
        <ele>998</ele>
        <time>2021-09-25T09:33:54.000Z</time>
      </trkpt>
      <trkpt lat="40.56321130134165287017822265625" lon="-1.32366101257503032684326171875">
        <ele>998.4000244140625</ele>
        <time>2021-09-25T09:33:56.000Z</time>
      </trkpt>
      <trkpt lat="40.56320912204682826995849609375" lon="-1.32371239364147186279296875">
        <ele>998.5999755859375</ele>
        <time>2021-09-25T09:33:57.000Z</time>
      </trkpt>
      <trkpt lat="40.56320727802813053131103515625" lon="-1.3237618468701839447021484375">
        <ele>998.5999755859375</ele>
        <time>2021-09-25T09:33:58.000Z</time>
      </trkpt>
      <trkpt lat="40.56320325471460819244384765625" lon="-1.32386167533695697784423828125">
        <ele>998.5999755859375</ele>
        <time>2021-09-25T09:34:00.000Z</time>
      </trkpt>
      <trkpt lat="40.5632011592388153076171875" lon="-1.32396041415631771087646484375">
        <ele>998.5999755859375</ele>
        <time>2021-09-25T09:34:02.000Z</time>
      </trkpt>
      <trkpt lat="40.563198812305927276611328125" lon="-1.32405848242342472076416015625">
        <ele>998.5999755859375</ele>
        <time>2021-09-25T09:34:04.000Z</time>
      </trkpt>
      <trkpt lat="40.56319470517337322235107421875" lon="-1.324158646166324615478515625">
        <ele>998.5999755859375</ele>
        <time>2021-09-25T09:34:06.000Z</time>
      </trkpt>
      <trkpt lat="40.56319118477404117584228515625" lon="-1.3242588937282562255859375">
        <ele>998.5999755859375</ele>
        <time>2021-09-25T09:34:08.000Z</time>
      </trkpt>
      <trkpt lat="40.5631909333169460296630859375" lon="-1.3243566267192363739013671875">
        <ele>998.5999755859375</ele>
        <time>2021-09-25T09:34:10.000Z</time>
      </trkpt>
      <trkpt lat="40.56319302879273891448974609375" lon="-1.32446232251822948455810546875">
        <ele>998.4000244140625</ele>
        <time>2021-09-25T09:34:12.000Z</time>
      </trkpt>
      <trkpt lat="40.5631905980408191680908203125" lon="-1.32456558756530284881591796875">
        <ele>998</ele>
        <time>2021-09-25T09:34:14.000Z</time>
      </trkpt>
      <trkpt lat="40.563186742365360260009765625" lon="-1.3246680982410907745361328125">
        <ele>998</ele>
        <time>2021-09-25T09:34:16.000Z</time>
      </trkpt>
      <trkpt lat="40.56318246759474277496337890625" lon="-1.32476775906980037689208984375">
        <ele>998</ele>
        <time>2021-09-25T09:34:18.000Z</time>
      </trkpt>
      <trkpt lat="40.56317634880542755126953125" lon="-1.3248685933649539947509765625">
        <ele>998</ele>
        <time>2021-09-25T09:34:20.000Z</time>
      </trkpt>
      <trkpt lat="40.56317274458706378936767578125" lon="-1.3249723613262176513671875">
        <ele>998</ele>
        <time>2021-09-25T09:34:22.000Z</time>
      </trkpt>
      <trkpt lat="40.563167631626129150390625" lon="-1.32507470436394214630126953125">
        <ele>998.4000244140625</ele>
        <time>2021-09-25T09:34:24.000Z</time>
      </trkpt>
      <trkpt lat="40.56316830217838287353515625" lon="-1.32517729885876178741455078125">
        <ele>998.79998779296875</ele>
        <time>2021-09-25T09:34:26.000Z</time>
      </trkpt>
      <trkpt lat="40.5631664581596851348876953125" lon="-1.32527804933488368988037109375">
        <ele>999</ele>
        <time>2021-09-25T09:34:28.000Z</time>
      </trkpt>
      <trkpt lat="40.56316251866519451141357421875" lon="-1.32537628524005413055419921875">
        <ele>999</ele>
        <time>2021-09-25T09:34:30.000Z</time>
      </trkpt>
      <trkpt lat="40.56316201575100421905517578125" lon="-1.32547770626842975616455078125">
        <ele>999</ele>
        <time>2021-09-25T09:34:32.000Z</time>
      </trkpt>
      <trkpt lat="40.5631617642939090728759765625" lon="-1.325580216944217681884765625">
        <ele>999.20001220703125</ele>
        <time>2021-09-25T09:34:34.000Z</time>
      </trkpt>
      <trkpt lat="40.5631584115326404571533203125" lon="-1.32567836903035640716552734375">
        <ele>999.5999755859375</ele>
        <time>2021-09-25T09:34:36.000Z</time>
      </trkpt>
      <trkpt lat="40.563155896961688995361328125" lon="-1.3257765211164951324462890625">
        <ele>999.79998779296875</ele>
        <time>2021-09-25T09:34:38.000Z</time>
      </trkpt>
      <trkpt lat="40.56315220892429351806640625" lon="-1.32587417028844356536865234375">
        <ele>999.79998779296875</ele>
        <time>2021-09-25T09:34:40.000Z</time>
      </trkpt>
      <trkpt lat="40.56315128691494464874267578125" lon="-1.32597458548843860626220703125">
        <ele>999.79998779296875</ele>
        <time>2021-09-25T09:34:42.000Z</time>
      </trkpt>
      <trkpt lat="40.56315246038138866424560546875" lon="-1.3260735757648944854736328125">
        <ele>1000</ele>
        <time>2021-09-25T09:34:44.000Z</time>
      </trkpt>
      <trkpt lat="40.56314927525818347930908203125" lon="-1.32617197930812835693359375">
        <ele>1000</ele>
        <time>2021-09-25T09:34:46.000Z</time>
      </trkpt>
      <trkpt lat="40.5631476826965808868408203125" lon="-1.3262680359184741973876953125">
        <ele>1000</ele>
        <time>2021-09-25T09:34:48.000Z</time>
      </trkpt>
      <trkpt lat="40.5631443299353122711181640625" lon="-1.326360404491424560546875">
        <ele>1000</ele>
        <time>2021-09-25T09:34:50.000Z</time>
      </trkpt>
      <trkpt lat="40.5631406418979167938232421875" lon="-1.3264529407024383544921875">
        <ele>1000</ele>
        <time>2021-09-25T09:34:52.000Z</time>
      </trkpt>
      <trkpt lat="40.56313720531761646270751953125" lon="-1.3265426270663738250732421875">
        <ele>1000</ele>
        <time>2021-09-25T09:34:54.000Z</time>
      </trkpt>
      <trkpt lat="40.563134439289569854736328125" lon="-1.32663608528673648834228515625">
        <ele>1000</ele>
        <time>2021-09-25T09:34:56.000Z</time>
      </trkpt>
      <trkpt lat="40.56313049979507923126220703125" lon="-1.32672795094549655914306640625">
        <ele>1000</ele>
        <time>2021-09-25T09:34:58.000Z</time>
      </trkpt>
      <trkpt lat="40.5631255544722080230712890625" lon="-1.3268219120800495147705078125">
        <ele>1000</ele>
        <time>2021-09-25T09:35:00.000Z</time>
      </trkpt>
      <trkpt lat="40.56312211789190769195556640625" lon="-1.326917298138141632080078125">
        <ele>1000.20001220703125</ele>
        <time>2021-09-25T09:35:02.000Z</time>
      </trkpt>
      <trkpt lat="40.5631165020167827606201171875" lon="-1.32701125927269458770751953125">
        <ele>1000.20001220703125</ele>
        <time>2021-09-25T09:35:04.000Z</time>
      </trkpt>
      <trkpt lat="40.56311222724616527557373046875" lon="-1.32710446603596210479736328125">
        <ele>1000.20001220703125</ele>
        <time>2021-09-25T09:35:06.000Z</time>
      </trkpt>
      <trkpt lat="40.56310837157070636749267578125" lon="-1.3272012770175933837890625">
        <ele>1000.20001220703125</ele>
        <time>2021-09-25T09:35:08.000Z</time>
      </trkpt>
      <trkpt lat="40.5631045997142791748046875" lon="-1.3273006863892078399658203125">
        <ele>1000.20001220703125</ele>
        <time>2021-09-25T09:35:10.000Z</time>
      </trkpt>
      <trkpt lat="40.56309898383915424346923828125" lon="-1.32739984430372714996337890625">
        <ele>1000</ele>
        <time>2021-09-25T09:35:12.000Z</time>
      </trkpt>
      <trkpt lat="40.56309462524950504302978515625" lon="-1.32749640382826328277587890625">
        <ele>1000</ele>
        <time>2021-09-25T09:35:14.000Z</time>
      </trkpt>
      <trkpt lat="40.56308808736503124237060546875" lon="-1.32759178988635540008544921875">
        <ele>1000</ele>
        <time>2021-09-25T09:35:16.000Z</time>
      </trkpt>
      <trkpt lat="40.56308289058506488800048828125" lon="-1.32768566720187664031982421875">
        <ele>1000</ele>
        <time>2021-09-25T09:35:18.000Z</time>
      </trkpt>
      <trkpt lat="40.56307635270059108734130859375" lon="-1.327781975269317626953125">
        <ele>1000</ele>
        <time>2021-09-25T09:35:20.000Z</time>
      </trkpt>
      <trkpt lat="40.56307199411094188690185546875" lon="-1.32783033885061740875244140625">
        <ele>1000</ele>
        <time>2021-09-25T09:35:21.000Z</time>
      </trkpt>
      <trkpt lat="40.5630692280828952789306640625" lon="-1.32788012735545635223388671875">
        <ele>1000</ele>
        <time>2021-09-25T09:35:22.000Z</time>
      </trkpt>
      <trkpt lat="40.5630641989409923553466796875" lon="-1.32798154838383197784423828125">
        <ele>1000</ele>
        <time>2021-09-25T09:35:24.000Z</time>
      </trkpt>
      <trkpt lat="40.5630536377429962158203125" lon="-1.328088752925395965576171875">
        <ele>1000.5999755859375</ele>
        <time>2021-09-25T09:35:26.000Z</time>
      </trkpt>
      <trkpt lat="40.5630437470972537994384765625" lon="-1.328201405704021453857421875">
        <ele>1001.20001220703125</ele>
        <time>2021-09-25T09:35:28.000Z</time>
      </trkpt>
      <trkpt lat="40.56303955614566802978515625" lon="-1.328257732093334197998046875">
        <ele>1001.5999755859375</ele>
        <time>2021-09-25T09:35:29.000Z</time>
      </trkpt>
      <trkpt lat="40.56303611956536769866943359375" lon="-1.32831481285393238067626953125">
        <ele>1002</ele>
        <time>2021-09-25T09:35:30.000Z</time>
      </trkpt>
      <trkpt lat="40.56302455253899097442626953125" lon="-1.32843065075576305389404296875">
        <ele>1002.5999755859375</ele>
        <time>2021-09-25T09:35:32.000Z</time>
      </trkpt>
      <trkpt lat="40.5630147457122802734375" lon="-1.32854397408664226531982421875">
        <ele>1003</ele>
        <time>2021-09-25T09:35:34.000Z</time>
      </trkpt>
      <trkpt lat="40.56300275959074497222900390625" lon="-1.32866249419748783111572265625">
        <ele>1003.20001220703125</ele>
        <time>2021-09-25T09:35:36.000Z</time>
      </trkpt>
      <trkpt lat="40.56298750452697277069091796875" lon="-1.32877640426158905029296875">
        <ele>1003.4000244140625</ele>
        <time>2021-09-25T09:35:38.000Z</time>
      </trkpt>
      <trkpt lat="40.5629800446331501007080078125" lon="-1.328835077583789825439453125">
        <ele>1003.5999755859375</ele>
        <time>2021-09-25T09:35:39.000Z</time>
      </trkpt>
      <trkpt lat="40.56297359056770801544189453125" lon="-1.3288939185440540313720703125">
        <ele>1003.5999755859375</ele>
        <time>2021-09-25T09:35:40.000Z</time>
      </trkpt>
      <trkpt lat="40.562963448464870452880859375" lon="-1.32900833152234554290771484375">
        <ele>1003.5999755859375</ele>
        <time>2021-09-25T09:35:42.000Z</time>
      </trkpt>
      <trkpt lat="40.56295238435268402099609375" lon="-1.32912517525255680084228515625">
        <ele>1003.5999755859375</ele>
        <time>2021-09-25T09:35:44.000Z</time>
      </trkpt>
      <trkpt lat="40.5629401467740535736083984375" lon="-1.32923816330730915069580078125">
        <ele>1003.5999755859375</ele>
        <time>2021-09-25T09:35:46.000Z</time>
      </trkpt>
      <trkpt lat="40.56292564608156681060791015625" lon="-1.3293545879423618316650390625">
        <ele>1003.4000244140625</ele>
        <time>2021-09-25T09:35:48.000Z</time>
      </trkpt>
      <trkpt lat="40.56291139684617519378662109375" lon="-1.32947201840579509735107421875">
        <ele>1003.5999755859375</ele>
        <time>2021-09-25T09:35:50.000Z</time>
      </trkpt>
      <trkpt lat="40.5629002489149570465087890625" lon="-1.3295912928879261016845703125">
        <ele>1004</ele>
        <time>2021-09-25T09:35:52.000Z</time>
      </trkpt>
      <trkpt lat="40.5628865025937557220458984375" lon="-1.3297086395323276519775390625">
        <ele>1004</ele>
        <time>2021-09-25T09:35:54.000Z</time>
      </trkpt>
      <trkpt lat="40.56287669576704502105712890625" lon="-1.32982841692864894866943359375">
        <ele>1004</ele>
        <time>2021-09-25T09:35:56.000Z</time>
      </trkpt>
      <trkpt lat="40.5628650449216365814208984375" lon="-1.32994584739208221435546875">
        <ele>1004</ele>
        <time>2021-09-25T09:35:58.000Z</time>
      </trkpt>
      <trkpt lat="40.56284702382981777191162109375" lon="-1.3300606794655323028564453125">
        <ele>1004</ele>
        <time>2021-09-25T09:36:00.000Z</time>
      </trkpt>
      <trkpt lat="40.5628325231373310089111328125" lon="-1.3301797024905681610107421875">
        <ele>1004</ele>
        <time>2021-09-25T09:36:02.000Z</time>
      </trkpt>
      <trkpt lat="40.5628160946071147918701171875" lon="-1.33029696531593799591064453125">
        <ele>1004.20001220703125</ele>
        <time>2021-09-25T09:36:04.000Z</time>
      </trkpt>
      <trkpt lat="40.5628068745136260986328125" lon="-1.33041146211326122283935546875">
        <ele>1004.5999755859375</ele>
        <time>2021-09-25T09:36:06.000Z</time>
      </trkpt>
      <trkpt lat="40.5627976544201374053955078125" lon="-1.3305257074534893035888671875">
        <ele>1005</ele>
        <time>2021-09-25T09:36:08.000Z</time>
      </trkpt>
      <trkpt lat="40.5627822317183017730712890625" lon="-1.3306370191276073455810546875">
        <ele>1005</ele>
        <time>2021-09-25T09:36:10.000Z</time>
      </trkpt>
      <trkpt lat="40.56277125142514705657958984375" lon="-1.3307429663836956024169921875">
        <ele>1005</ele>
        <time>2021-09-25T09:36:12.000Z</time>
      </trkpt>
      <trkpt lat="40.5627580918371677398681640625" lon="-1.33085855282843112945556640625">
        <ele>1005.20001220703125</ele>
        <time>2021-09-25T09:36:14.000Z</time>
      </trkpt>
      <trkpt lat="40.5627523921430110931396484375" lon="-1.3309161365032196044921875">
        <ele>1005.4000244140625</ele>
        <time>2021-09-25T09:36:15.000Z</time>
      </trkpt>
      <trkpt lat="40.56274719536304473876953125" lon="-1.3309739716351032257080078125">
        <ele>1005.5999755859375</ele>
        <time>2021-09-25T09:36:16.000Z</time>
      </trkpt>
      <trkpt lat="40.56273378431797027587890625" lon="-1.33108578622341156005859375">
        <ele>1005.79998779296875</ele>
        <time>2021-09-25T09:36:18.000Z</time>
      </trkpt>
      <trkpt lat="40.56272062472999095916748046875" lon="-1.331199109554290771484375">
        <ele>1005.5999755859375</ele>
        <time>2021-09-25T09:36:20.000Z</time>
      </trkpt>
      <trkpt lat="40.56270553730428218841552734375" lon="-1.33131335489451885223388671875">
        <ele>1005.20001220703125</ele>
        <time>2021-09-25T09:36:22.000Z</time>
      </trkpt>
      <trkpt lat="40.5626907013356685638427734375" lon="-1.33142617531120777130126953125">
        <ele>1004.5999755859375</ele>
        <time>2021-09-25T09:36:24.000Z</time>
      </trkpt>
      <trkpt lat="40.5626793019473552703857421875" lon="-1.33153631351888179779052734375">
        <ele>1004.5999755859375</ele>
        <time>2021-09-25T09:36:26.000Z</time>
      </trkpt>
      <trkpt lat="40.56267368607223033905029296875" lon="-1.3315908797085285186767578125">
        <ele>1004.5999755859375</ele>
        <time>2021-09-25T09:36:27.000Z</time>
      </trkpt>
      <trkpt lat="40.56266672909259796142578125" lon="-1.33164444006979465484619140625">
        <ele>1004.5999755859375</ele>
        <time>2021-09-25T09:36:28.000Z</time>
      </trkpt>
      <trkpt lat="40.5626531504094600677490234375" lon="-1.33175105787813663482666015625">
        <ele>1004.4000244140625</ele>
        <time>2021-09-25T09:36:30.000Z</time>
      </trkpt>
      <trkpt lat="40.56264267303049564361572265625" lon="-1.331855244934558868408203125">
        <ele>1004.4000244140625</ele>
        <time>2021-09-25T09:36:32.000Z</time>
      </trkpt>
      <trkpt lat="40.56263093836605548858642578125" lon="-1.33195926435291767120361328125">
        <ele>1005</ele>
        <time>2021-09-25T09:36:34.000Z</time>
      </trkpt>
      <trkpt lat="40.5626176111400127410888671875" lon="-1.3320686481893062591552734375">
        <ele>1006.20001220703125</ele>
        <time>2021-09-25T09:36:36.000Z</time>
      </trkpt>
      <trkpt lat="40.5626030266284942626953125" lon="-1.33218004368245601654052734375">
        <ele>1007</ele>
        <time>2021-09-25T09:36:38.000Z</time>
      </trkpt>
      <trkpt lat="40.56259271688759326934814453125" lon="-1.33229076862335205078125">
        <ele>1008.20001220703125</ele>
        <time>2021-09-25T09:36:40.000Z</time>
      </trkpt>
      <trkpt lat="40.5625788867473602294921875" lon="-1.3324025832116603851318359375">
        <ele>1009.4000244140625</ele>
        <time>2021-09-25T09:36:42.000Z</time>
      </trkpt>
      <trkpt lat="40.5625716783106327056884765625" lon="-1.33251196704804897308349609375">
        <ele>1010</ele>
        <time>2021-09-25T09:36:44.000Z</time>
      </trkpt>
      <trkpt lat="40.56256036274135112762451171875" lon="-1.33262176997959613800048828125">
        <ele>1010.4000244140625</ele>
        <time>2021-09-25T09:36:46.000Z</time>
      </trkpt>
      <trkpt lat="40.562543682754039764404296875" lon="-1.332728974521160125732421875">
        <ele>1010.79998779296875</ele>
        <time>2021-09-25T09:36:48.000Z</time>
      </trkpt>
      <trkpt lat="40.5625465326011180877685546875" lon="-1.33283752016723155975341796875">
        <ele>1010.79998779296875</ele>
        <time>2021-09-25T09:36:50.000Z</time>
      </trkpt>
      <trkpt lat="40.56253706105053424835205078125" lon="-1.332946904003620147705078125">
        <ele>1011</ele>
        <time>2021-09-25T09:36:52.000Z</time>
      </trkpt>
      <trkpt lat="40.5625212192535400390625" lon="-1.33305762894451618194580078125">
        <ele>1011.20001220703125</ele>
        <time>2021-09-25T09:36:54.000Z</time>
      </trkpt>
      <trkpt lat="40.562511496245861053466796875" lon="-1.33317262865602970123291015625">
        <ele>1011.5999755859375</ele>
        <time>2021-09-25T09:36:56.000Z</time>
      </trkpt>
      <trkpt lat="40.5624959059059619903564453125" lon="-1.3332830183207988739013671875">
        <ele>1011.79998779296875</ele>
        <time>2021-09-25T09:36:58.000Z</time>
      </trkpt>
      <trkpt lat="40.56248123757541179656982421875" lon="-1.3333936594426631927490234375">
        <ele>1012.20001220703125</ele>
        <time>2021-09-25T09:37:00.000Z</time>
      </trkpt>
      <trkpt lat="40.56245843879878520965576171875" lon="-1.33350321091711521148681640625">
        <ele>1012.4000244140625</ele>
        <time>2021-09-25T09:37:02.000Z</time>
      </trkpt>
      <trkpt lat="40.5624503083527088165283203125" lon="-1.333610750734806060791015625">
        <ele>1013</ele>
        <time>2021-09-25T09:37:04.000Z</time>
      </trkpt>
      <trkpt lat="40.56243379600346088409423828125" lon="-1.333716697990894317626953125">
        <ele>1013.5999755859375</ele>
        <time>2021-09-25T09:37:06.000Z</time>
      </trkpt>
      <trkpt lat="40.56242398917675018310546875" lon="-1.33382356725633144378662109375">
        <ele>1014</ele>
        <time>2021-09-25T09:37:08.000Z</time>
      </trkpt>
      <trkpt lat="40.56241334415972232818603515625" lon="-1.33393228054046630859375">
        <ele>1014.4000244140625</ele>
        <time>2021-09-25T09:37:10.000Z</time>
      </trkpt>
      <trkpt lat="40.562401525676250457763671875" lon="-1.3340387307107448577880859375">
        <ele>1014.4000244140625</ele>
        <time>2021-09-25T09:37:12.000Z</time>
      </trkpt>
      <trkpt lat="40.56238233111798763275146484375" lon="-1.33413705043494701385498046875">
        <ele>1014.4000244140625</ele>
        <time>2021-09-25T09:37:14.000Z</time>
      </trkpt>
      <trkpt lat="40.56237327866256237030029296875" lon="-1.33419044315814971923828125">
        <ele>1014.20001220703125</ele>
        <time>2021-09-25T09:37:15.000Z</time>
      </trkpt>
      <trkpt lat="40.56236590258777141571044921875" lon="-1.33424718864262104034423828125">
        <ele>1014</ele>
        <time>2021-09-25T09:37:16.000Z</time>
      </trkpt>
      <trkpt lat="40.56235827505588531494140625" lon="-1.33436269126832485198974609375">
        <ele>1014</ele>
        <time>2021-09-25T09:37:18.000Z</time>
      </trkpt>
      <trkpt lat="40.562349222600460052490234375" lon="-1.33447341620922088623046875">
        <ele>1014</ele>
        <time>2021-09-25T09:37:20.000Z</time>
      </trkpt>
      <trkpt lat="40.5623410083353519439697265625" lon="-1.33457642979919910430908203125">
        <ele>1014</ele>
        <time>2021-09-25T09:37:22.000Z</time>
      </trkpt>
      <trkpt lat="40.562325753271579742431640625" lon="-1.3346846401691436767578125">
        <ele>1014</ele>
        <time>2021-09-25T09:37:24.000Z</time>
      </trkpt>
      <trkpt lat="40.56231242604553699493408203125" lon="-1.33479335345327854156494140625">
        <ele>1014.4000244140625</ele>
        <time>2021-09-25T09:37:26.000Z</time>
      </trkpt>
      <trkpt lat="40.56230454705655574798583984375" lon="-1.33484615944325923919677734375">
        <ele>1014.5999755859375</ele>
        <time>2021-09-25T09:37:27.000Z</time>
      </trkpt>
      <trkpt lat="40.56229599751532077789306640625" lon="-1.33489988744258880615234375">
        <ele>1014.79998779296875</ele>
        <time>2021-09-25T09:37:28.000Z</time>
      </trkpt>
      <trkpt lat="40.562282167375087738037109375" lon="-1.335005499422550201416015625">
        <ele>1015</ele>
        <time>2021-09-25T09:37:30.000Z</time>
      </trkpt>
      <trkpt lat="40.5622752942144870758056640625" lon="-1.33511756546795368194580078125">
        <ele>1015</ele>
        <time>2021-09-25T09:37:32.000Z</time>
      </trkpt>
      <trkpt lat="40.56226599030196666717529296875" lon="-1.33522753603756427764892578125">
        <ele>1015</ele>
        <time>2021-09-25T09:37:34.000Z</time>
      </trkpt>
      <trkpt lat="40.56225576438009738922119140625" lon="-1.33533633314073085784912109375">
        <ele>1015.4000244140625</ele>
        <time>2021-09-25T09:37:36.000Z</time>
      </trkpt>
      <trkpt lat="40.562247969210147857666015625" lon="-1.3353902287781238555908203125">
        <ele>1015.5999755859375</ele>
        <time>2021-09-25T09:37:37.000Z</time>
      </trkpt>
      <trkpt lat="40.56224034167826175689697265625" lon="-1.3354435376822948455810546875">
        <ele>1015.79998779296875</ele>
        <time>2021-09-25T09:37:38.000Z</time>
      </trkpt>
      <trkpt lat="40.5622253380715847015380859375" lon="-1.33554755710065364837646484375">
        <ele>1016.20001220703125</ele>
        <time>2021-09-25T09:37:40.000Z</time>
      </trkpt>
      <trkpt lat="40.56221586652100086212158203125" lon="-1.3356547616422176361083984375">
        <ele>1016.5999755859375</ele>
        <time>2021-09-25T09:37:42.000Z</time>
      </trkpt>
      <trkpt lat="40.56220748461782932281494140625" lon="-1.33575811050832271575927734375">
        <ele>1017</ele>
        <time>2021-09-25T09:37:44.000Z</time>
      </trkpt>
      <trkpt lat="40.562199689447879791259765625" lon="-1.33586271665990352630615234375">
        <ele>1017.4000244140625</ele>
        <time>2021-09-25T09:37:46.000Z</time>
      </trkpt>
      <trkpt lat="40.5621820874512195587158203125" lon="-1.33596296422183513641357421875">
        <ele>1018</ele>
        <time>2021-09-25T09:37:48.000Z</time>
      </trkpt>
      <trkpt lat="40.562169514596462249755859375" lon="-1.33606798946857452392578125">
        <ele>1018.79998779296875</ele>
        <time>2021-09-25T09:37:50.000Z</time>
      </trkpt>
      <trkpt lat="40.56215719319880008697509765625" lon="-1.3361660577356815338134765625">
        <ele>1019.20001220703125</ele>
        <time>2021-09-25T09:37:52.000Z</time>
      </trkpt>
      <trkpt lat="40.5621468834578990936279296875" lon="-1.33626555092632770538330078125">
        <ele>1019.79998779296875</ele>
        <time>2021-09-25T09:37:54.000Z</time>
      </trkpt>
      <trkpt lat="40.5621334724128246307373046875" lon="-1.33636169135570526123046875">
        <ele>1020.4000244140625</ele>
        <time>2021-09-25T09:37:56.000Z</time>
      </trkpt>
      <trkpt lat="40.5621250905096530914306640625" lon="-1.33646436966955661773681640625">
        <ele>1021</ele>
        <time>2021-09-25T09:37:58.000Z</time>
      </trkpt>
      <trkpt lat="40.5621116794645786285400390625" lon="-1.33656143210828304290771484375">
        <ele>1021.4000244140625</ele>
        <time>2021-09-25T09:38:00.000Z</time>
      </trkpt>
      <trkpt lat="40.56210086680948734283447265625" lon="-1.33665882982313632965087890625">
        <ele>1021.5999755859375</ele>
        <time>2021-09-25T09:38:02.000Z</time>
      </trkpt>
      <trkpt lat="40.56209131143987178802490234375" lon="-1.33675865828990936279296875">
        <ele>1022</ele>
        <time>2021-09-25T09:38:04.000Z</time>
      </trkpt>
      <trkpt lat="40.56207857094705104827880859375" lon="-1.336856223642826080322265625">
        <ele>1022.20001220703125</ele>
        <time>2021-09-25T09:38:06.000Z</time>
      </trkpt>
      <trkpt lat="40.562066249549388885498046875" lon="-1.33695387281477451324462890625">
        <ele>1022.5999755859375</ele>
        <time>2021-09-25T09:38:08.000Z</time>
      </trkpt>
      <trkpt lat="40.56205308996140956878662109375" lon="-1.33704959414899349212646484375">
        <ele>1022.79998779296875</ele>
        <time>2021-09-25T09:38:10.000Z</time>
      </trkpt>
      <trkpt lat="40.5620463006198406219482421875" lon="-1.33709871210157871246337890625">
        <ele>1023</ele>
        <time>2021-09-25T09:38:11.000Z</time>
      </trkpt>
      <trkpt lat="40.56203934364020824432373046875" lon="-1.337145902216434478759765625">
        <ele>1023</ele>
        <time>2021-09-25T09:38:12.000Z</time>
      </trkpt>
      <trkpt lat="40.562027357518672943115234375" lon="-1.33724321611225605010986328125">
        <ele>1023</ele>
        <time>2021-09-25T09:38:14.000Z</time>
      </trkpt>
      <trkpt lat="40.56201704777777194976806640625" lon="-1.3373422063887119293212890625">
        <ele>1023</ele>
        <time>2021-09-25T09:38:16.000Z</time>
      </trkpt>
      <trkpt lat="40.5620114319026470184326171875" lon="-1.33744664490222930908203125">
        <ele>1023</ele>
        <time>2021-09-25T09:38:18.000Z</time>
      </trkpt>
      <trkpt lat="40.5620013736188411712646484375" lon="-1.33754588663578033447265625">
        <ele>1023</ele>
        <time>2021-09-25T09:38:20.000Z</time>
      </trkpt>
      <trkpt lat="40.56197647936642169952392578125" lon="-1.3376385904848575592041015625">
        <ele>1023</ele>
        <time>2021-09-25T09:38:22.000Z</time>
      </trkpt>
      <trkpt lat="40.56194663979113101959228515625" lon="-1.33772668428719043731689453125">
        <ele>1023.20001220703125</ele>
        <time>2021-09-25T09:38:24.000Z</time>
      </trkpt>
      <trkpt lat="40.56193792261183261871337890625" lon="-1.3377678394317626953125">
        <ele>1023.20001220703125</ele>
        <time>2021-09-25T09:38:25.000Z</time>
      </trkpt>
      <trkpt lat="40.56193373166024684906005859375" lon="-1.33781972341239452362060546875">
        <ele>1023.4000244140625</ele>
        <time>2021-09-25T09:38:26.000Z</time>
      </trkpt>
      <trkpt lat="40.56191512383520603179931640625" lon="-1.33791678585112094879150390625">
        <ele>1023.79998779296875</ele>
        <time>2021-09-25T09:38:28.000Z</time>
      </trkpt>
      <trkpt lat="40.561907999217510223388671875" lon="-1.33801661431789398193359375">
        <ele>1024.199951171875</ele>
        <time>2021-09-25T09:38:30.000Z</time>
      </trkpt>
      <trkpt lat="40.5619028024375438690185546875" lon="-1.33812348358333110809326171875">
        <ele>1024</ele>
        <time>2021-09-25T09:38:32.000Z</time>
      </trkpt>
      <trkpt lat="40.5618907324969768524169921875" lon="-1.33821233175694942474365234375">
        <ele>1023.79998779296875</ele>
        <time>2021-09-25T09:38:34.000Z</time>
      </trkpt>
      <trkpt lat="40.56188310496509075164794921875" lon="-1.338306628167629241943359375">
        <ele>1023.5999755859375</ele>
        <time>2021-09-25T09:38:36.000Z</time>
      </trkpt>
      <trkpt lat="40.5618753097951412200927734375" lon="-1.33840209804475307464599609375">
        <ele>1023.79998779296875</ele>
        <time>2021-09-25T09:38:38.000Z</time>
      </trkpt>
      <trkpt lat="40.561864413321018218994140625" lon="-1.3384908623993396759033203125">
        <ele>1024</ele>
        <time>2021-09-25T09:38:40.000Z</time>
      </trkpt>
      <trkpt lat="40.56185762397944927215576171875" lon="-1.338585913181304931640625">
        <ele>1024.4000244140625</ele>
        <time>2021-09-25T09:38:42.000Z</time>
      </trkpt>
      <trkpt lat="40.5618625693023204803466796875" lon="-1.33869613520801067352294921875">
        <ele>1024.800048828125</ele>
        <time>2021-09-25T09:38:44.000Z</time>
      </trkpt>
      <trkpt lat="40.56186131201684474945068359375" lon="-1.3387473486363887786865234375">
        <ele>1025</ele>
        <time>2021-09-25T09:38:45.000Z</time>
      </trkpt>
      <trkpt lat="40.561858378350734710693359375" lon="-1.33880124427378177642822265625">
        <ele>1025.199951171875</ele>
        <time>2021-09-25T09:38:46.000Z</time>
      </trkpt>
      <trkpt lat="40.5618437938392162322998046875" lon="-1.33889612741768360137939453125">
        <ele>1025.5999755859375</ele>
        <time>2021-09-25T09:38:48.000Z</time>
      </trkpt>
      <trkpt lat="40.561830885708332061767578125" lon="-1.33898581378161907196044921875">
        <ele>1026</ele>
        <time>2021-09-25T09:38:50.000Z</time>
      </trkpt>
      <trkpt lat="40.56182526983320713043212890625" lon="-1.3390688784420490264892578125">
        <ele>1026.199951171875</ele>
        <time>2021-09-25T09:38:52.000Z</time>
      </trkpt>
      <trkpt lat="40.561815463006496429443359375" lon="-1.3391573913395404815673828125">
        <ele>1026.5999755859375</ele>
        <time>2021-09-25T09:38:54.000Z</time>
      </trkpt>
      <trkpt lat="40.56180439889430999755859375" lon="-1.339231319725513458251953125">
        <ele>1027</ele>
        <time>2021-09-25T09:38:56.000Z</time>
      </trkpt>
      <trkpt lat="40.56180565617978572845458984375" lon="-1.33931480348110198974609375">
        <ele>1027.4000244140625</ele>
        <time>2021-09-25T09:38:58.000Z</time>
      </trkpt>
      <trkpt lat="40.561804063618183135986328125" lon="-1.33938546292483806610107421875">
        <ele>1027.800048828125</ele>
        <time>2021-09-25T09:39:00.000Z</time>
      </trkpt>
      <trkpt lat="40.561797358095645904541015625" lon="-1.3394802622497081756591796875">
        <ele>1028</ele>
        <time>2021-09-25T09:39:02.000Z</time>
      </trkpt>
      <trkpt lat="40.5617847852408885955810546875" lon="-1.339579336345195770263671875">
        <ele>1028</ele>
        <time>2021-09-25T09:39:04.000Z</time>
      </trkpt>
      <trkpt lat="40.56176709942519664764404296875" lon="-1.3396740518510341644287109375">
        <ele>1028.199951171875</ele>
        <time>2021-09-25T09:39:06.000Z</time>
      </trkpt>
      <trkpt lat="40.56174765340983867645263671875" lon="-1.339750327169895172119140625">
        <ele>1028.4000244140625</ele>
        <time>2021-09-25T09:39:08.000Z</time>
      </trkpt>
      <trkpt lat="40.5617408640682697296142578125" lon="-1.3398336432874202728271484375">
        <ele>1028.800048828125</ele>
        <time>2021-09-25T09:39:10.000Z</time>
      </trkpt>
      <trkpt lat="40.5617311410605907440185546875" lon="-1.3399141095578670501708984375">
        <ele>1029</ele>
        <time>2021-09-25T09:39:12.000Z</time>
      </trkpt>
      <trkpt lat="40.56171731092035770416259765625" lon="-1.3399994373321533203125">
        <ele>1029</ele>
        <time>2021-09-25T09:39:14.000Z</time>
      </trkpt>
      <trkpt lat="40.56170406751334667205810546875" lon="-1.3400840945541858673095703125">
        <ele>1029</ele>
        <time>2021-09-25T09:39:16.000Z</time>
      </trkpt>
      <trkpt lat="40.56169015355408191680908203125" lon="-1.34016145952045917510986328125">
        <ele>1029</ele>
        <time>2021-09-25T09:39:18.000Z</time>
      </trkpt>
      <trkpt lat="40.56167925707995891571044921875" lon="-1.34023077785968780517578125">
        <ele>1029</ele>
        <time>2021-09-25T09:39:20.000Z</time>
      </trkpt>
      <trkpt lat="40.56166299618780612945556640625" lon="-1.34030613116919994354248046875">
        <ele>1029.4000244140625</ele>
        <time>2021-09-25T09:39:22.000Z</time>
      </trkpt>
      <trkpt lat="40.56165394373238086700439453125" lon="-1.34034351445734500885009765625">
        <ele>1029.5999755859375</ele>
        <time>2021-09-25T09:39:23.000Z</time>
      </trkpt>
      <trkpt lat="40.56164673529565334320068359375" lon="-1.34037855081260204315185546875">
        <ele>1029.800048828125</ele>
        <time>2021-09-25T09:39:24.000Z</time>
      </trkpt>
      <trkpt lat="40.561630725860595703125" lon="-1.3404542393982410430908203125">
        <ele>1030.199951171875</ele>
        <time>2021-09-25T09:39:26.000Z</time>
      </trkpt>
      <trkpt lat="40.56161052547395229339599609375" lon="-1.34051643311977386474609375">
        <ele>1030.5999755859375</ele>
        <time>2021-09-25T09:39:28.000Z</time>
      </trkpt>
      <trkpt lat="40.5615983717143535614013671875" lon="-1.34059078060090541839599609375">
        <ele>1031.199951171875</ele>
        <time>2021-09-25T09:39:30.000Z</time>
      </trkpt>
      <trkpt lat="40.56158722378313541412353515625" lon="-1.34062774479389190673828125">
        <ele>1031.5999755859375</ele>
        <time>2021-09-25T09:39:31.000Z</time>
      </trkpt>
      <trkpt lat="40.56157900951802730560302734375" lon="-1.340661942958831787109375">
        <ele>1031.800048828125</ele>
        <time>2021-09-25T09:39:32.000Z</time>
      </trkpt>
      <trkpt lat="40.5615542829036712646484375" lon="-1.340730674564838409423828125">
        <ele>1032.5999755859375</ele>
        <time>2021-09-25T09:39:34.000Z</time>
      </trkpt>
      <trkpt lat="40.56153089739382266998291015625" lon="-1.34080066345632076263427734375">
        <ele>1033.199951171875</ele>
        <time>2021-09-25T09:39:36.000Z</time>
      </trkpt>
      <trkpt lat="40.561510026454925537109375" lon="-1.3408662937581539154052734375">
        <ele>1033.800048828125</ele>
        <time>2021-09-25T09:39:38.000Z</time>
      </trkpt>
      <trkpt lat="40.56147448718547821044921875" lon="-1.34092144668102264404296875">
        <ele>1034.4000244140625</ele>
        <time>2021-09-25T09:39:40.000Z</time>
      </trkpt>
      <trkpt lat="40.56143559515476226806640625" lon="-1.3409722410142421722412109375">
        <ele>1035.199951171875</ele>
        <time>2021-09-25T09:39:42.000Z</time>
      </trkpt>
      <trkpt lat="40.5614143051207065582275390625" lon="-1.34099763818085193634033203125">
        <ele>1035.4000244140625</ele>
        <time>2021-09-25T09:39:43.000Z</time>
      </trkpt>
      <trkpt lat="40.5613985471427440643310546875" lon="-1.34102244861423969268798828125">
        <ele>1035.800048828125</ele>
        <time>2021-09-25T09:39:44.000Z</time>
      </trkpt>
      <trkpt lat="40.5613573081791400909423828125" lon="-1.34106653742492198944091796875">
        <ele>1036.199951171875</ele>
        <time>2021-09-25T09:39:46.000Z</time>
      </trkpt>
      <trkpt lat="40.56132319383323192596435546875" lon="-1.3410736620426177978515625">
        <ele>1036.4000244140625</ele>
        <time>2021-09-25T09:39:48.000Z</time>
      </trkpt>
      <trkpt lat="40.56129880249500274658203125" lon="-1.3410540483891963958740234375">
        <ele>1036.199951171875</ele>
        <time>2021-09-25T09:39:50.000Z</time>
      </trkpt>
      <trkpt lat="40.56127466261386871337890625" lon="-1.34102479554712772369384765625">
        <ele>1036.199951171875</ele>
        <time>2021-09-25T09:39:52.000Z</time>
      </trkpt>
      <trkpt lat="40.561261586844921112060546875" lon="-1.3410071097314357757568359375">
        <ele>1036</ele>
        <time>2021-09-25T09:39:53.000Z</time>
      </trkpt>
      <trkpt lat="40.5612510256469249725341796875" lon="-1.3409859873354434967041015625">
        <ele>1036</ele>
        <time>2021-09-25T09:39:54.000Z</time>
      </trkpt>
      <trkpt lat="40.56121942587196826934814453125" lon="-1.3409440778195858001708984375">
        <ele>1035.800048828125</ele>
        <time>2021-09-25T09:39:56.000Z</time>
      </trkpt>
      <trkpt lat="40.56118480861186981201171875" lon="-1.340908370912075042724609375">
        <ele>1035.5999755859375</ele>
        <time>2021-09-25T09:39:58.000Z</time>
      </trkpt>
      <trkpt lat="40.561165027320384979248046875" lon="-1.3408870808780193328857421875">
        <ele>1035.5999755859375</ele>
        <time>2021-09-25T09:39:59.000Z</time>
      </trkpt>
      <trkpt lat="40.561140887439250946044921875" lon="-1.3408652879297733306884765625">
        <ele>1035.5999755859375</ele>
        <time>2021-09-25T09:40:00.000Z</time>
      </trkpt>
      <trkpt lat="40.56109671480953693389892578125" lon="-1.34082295931875705718994140625">
        <ele>1035.4000244140625</ele>
        <time>2021-09-25T09:40:02.000Z</time>
      </trkpt>
      <trkpt lat="40.56105581112205982208251953125" lon="-1.340773589909076690673828125">
        <ele>1035.4000244140625</ele>
        <time>2021-09-25T09:40:04.000Z</time>
      </trkpt>
      <trkpt lat="40.56103527545928955078125" lon="-1.3407496176660060882568359375">
        <ele>1035.4000244140625</ele>
        <time>2021-09-25T09:40:05.000Z</time>
      </trkpt>
      <trkpt lat="40.561020188033580780029296875" lon="-1.3407311774790287017822265625">
        <ele>1035.4000244140625</ele>
        <time>2021-09-25T09:40:06.000Z</time>
      </trkpt>
      <trkpt lat="40.56100417859852313995361328125" lon="-1.340713910758495330810546875">
        <ele>1035.4000244140625</ele>
        <time>2021-09-25T09:40:08.000Z</time>
      </trkpt>
      <trkpt lat="40.561013482511043548583984375" lon="-1.3407090492546558380126953125">
        <ele>1035.199951171875</ele>
        <time>2021-09-25T09:40:09.000Z</time>
      </trkpt>
      <trkpt lat="40.56100132875144481658935546875" lon="-1.34068449027836322784423828125">
        <ele>1035.199951171875</ele>
        <time>2021-09-25T09:40:14.000Z</time>
      </trkpt>
      <trkpt lat="40.56098364293575286865234375" lon="-1.3406708277761936187744140625">
        <ele>1035.199951171875</ele>
        <time>2021-09-25T09:40:15.000Z</time>
      </trkpt>
      <trkpt lat="40.56096293963491916656494140625" lon="-1.34065590798854827880859375">
        <ele>1035.199951171875</ele>
        <time>2021-09-25T09:40:16.000Z</time>
      </trkpt>
      <trkpt lat="40.56091935373842716217041015625" lon="-1.3406084664165973663330078125">
        <ele>1035.199951171875</ele>
        <time>2021-09-25T09:40:18.000Z</time>
      </trkpt>
      <trkpt lat="40.5608701519668102264404296875" lon="-1.3405625335872173309326171875">
        <ele>1035.199951171875</ele>
        <time>2021-09-25T09:40:20.000Z</time>
      </trkpt>
      <trkpt lat="40.56080820970237255096435546875" lon="-1.34050796739757061004638671875">
        <ele>1035.199951171875</ele>
        <time>2021-09-25T09:40:22.000Z</time>
      </trkpt>
      <trkpt lat="40.5607497878372669219970703125" lon="-1.340449713170528411865234375">
        <ele>1035.5999755859375</ele>
        <time>2021-09-25T09:40:24.000Z</time>
      </trkpt>
      <trkpt lat="40.56068583391606807708740234375" lon="-1.34038894437253475189208984375">
        <ele>1035.800048828125</ele>
        <time>2021-09-25T09:40:26.000Z</time>
      </trkpt>
      <trkpt lat="40.5606170184910297393798828125" lon="-1.340316943824291229248046875">
        <ele>1035.4000244140625</ele>
        <time>2021-09-25T09:40:28.000Z</time>
      </trkpt>
      <trkpt lat="40.560549795627593994140625" lon="-1.34024226106703281402587890625">
        <ele>1035</ele>
        <time>2021-09-25T09:40:30.000Z</time>
      </trkpt>
      <trkpt lat="40.560483746230602264404296875" lon="-1.34017621167004108428955078125">
        <ele>1034</ele>
        <time>2021-09-25T09:40:32.000Z</time>
      </trkpt>
      <trkpt lat="40.56042096577584743499755859375" lon="-1.34010965935885906219482421875">
        <ele>1033.199951171875</ele>
        <time>2021-09-25T09:40:34.000Z</time>
      </trkpt>
      <trkpt lat="40.560356676578521728515625" lon="-1.3400455377995967864990234375">
        <ele>1032.199951171875</ele>
        <time>2021-09-25T09:40:36.000Z</time>
      </trkpt>
      <trkpt lat="40.560326166450977325439453125" lon="-1.3400136865675449371337890625">
        <ele>1031.800048828125</ele>
        <time>2021-09-25T09:40:37.000Z</time>
      </trkpt>
      <trkpt lat="40.5602948181331157684326171875" lon="-1.33998041041195392608642578125">
        <ele>1031.199951171875</ele>
        <time>2021-09-25T09:40:38.000Z</time>
      </trkpt>
      <trkpt lat="40.56024041958153247833251953125" lon="-1.33991871960461139678955078125">
        <ele>1031</ele>
        <time>2021-09-25T09:40:40.000Z</time>
      </trkpt>
      <trkpt lat="40.56018543429672718048095703125" lon="-1.33985484950244426727294921875">
        <ele>1030.5999755859375</ele>
        <time>2021-09-25T09:40:42.000Z</time>
      </trkpt>
      <trkpt lat="40.56012265384197235107421875" lon="-1.3397900573909282684326171875">
        <ele>1030.199951171875</ele>
        <time>2021-09-25T09:40:44.000Z</time>
      </trkpt>
      <trkpt lat="40.560059957206249237060546875" lon="-1.339723169803619384765625">
        <ele>1029.4000244140625</ele>
        <time>2021-09-25T09:40:46.000Z</time>
      </trkpt>
      <trkpt lat="40.55998695082962512969970703125" lon="-1.3396603055298328399658203125">
        <ele>1029.199951171875</ele>
        <time>2021-09-25T09:40:48.000Z</time>
      </trkpt>
      <trkpt lat="40.55991721339523792266845703125" lon="-1.3395919091999530792236328125">
        <ele>1029.800048828125</ele>
        <time>2021-09-25T09:40:50.000Z</time>
      </trkpt>
      <trkpt lat="40.5598505772650241851806640625" lon="-1.33952292613685131072998046875">
        <ele>1030</ele>
        <time>2021-09-25T09:40:52.000Z</time>
      </trkpt>
      <trkpt lat="40.55978561751544475555419921875" lon="-1.33945151232182979583740234375">
        <ele>1030</ele>
        <time>2021-09-25T09:40:54.000Z</time>
      </trkpt>
      <trkpt lat="40.55969827808439731597900390625" lon="-1.33937808685004711151123046875">
        <ele>1030.4000244140625</ele>
        <time>2021-09-25T09:40:56.000Z</time>
      </trkpt>
      <trkpt lat="40.55961596779525279998779296875" lon="-1.3393029011785984039306640625">
        <ele>1031.4000244140625</ele>
        <time>2021-09-25T09:40:58.000Z</time>
      </trkpt>
      <trkpt lat="40.559541285037994384765625" lon="-1.3392269611358642578125">
        <ele>1032.199951171875</ele>
        <time>2021-09-25T09:41:00.000Z</time>
      </trkpt>
      <trkpt lat="40.55946710519492626190185546875" lon="-1.339153535664081573486328125">
        <ele>1033</ele>
        <time>2021-09-25T09:41:02.000Z</time>
      </trkpt>
      <trkpt lat="40.5593883991241455078125" lon="-1.33908254094421863555908203125">
        <ele>1033.199951171875</ele>
        <time>2021-09-25T09:41:04.000Z</time>
      </trkpt>
      <trkpt lat="40.5593479983508586883544921875" lon="-1.33904390037059783935546875">
        <ele>1033.199951171875</ele>
        <time>2021-09-25T09:41:05.000Z</time>
      </trkpt>
      <trkpt lat="40.55930600501596927642822265625" lon="-1.339005343616008758544921875">
        <ele>1033.199951171875</ele>
        <time>2021-09-25T09:41:06.000Z</time>
      </trkpt>
      <trkpt lat="40.55922822095453739166259765625" lon="-1.3389225304126739501953125">
        <ele>1032.5999755859375</ele>
        <time>2021-09-25T09:41:08.000Z</time>
      </trkpt>
      <trkpt lat="40.5591501854360103607177734375" lon="-1.3388449139893054962158203125">
        <ele>1032.199951171875</ele>
        <time>2021-09-25T09:41:10.000Z</time>
      </trkpt>
      <trkpt lat="40.5590700544416904449462890625" lon="-1.33876453153789043426513671875">
        <ele>1032.199951171875</ele>
        <time>2021-09-25T09:41:12.000Z</time>
      </trkpt>
      <trkpt lat="40.55899143218994140625" lon="-1.33868490345776081085205078125">
        <ele>1032.199951171875</ele>
        <time>2021-09-25T09:41:14.000Z</time>
      </trkpt>
      <trkpt lat="40.558912642300128936767578125" lon="-1.33860225789248943328857421875">
        <ele>1032.199951171875</ele>
        <time>2021-09-25T09:41:16.000Z</time>
      </trkpt>
      <trkpt lat="40.5588340200483798980712890625" lon="-1.33852229453623294830322265625">
        <ele>1032.199951171875</ele>
        <time>2021-09-25T09:41:18.000Z</time>
      </trkpt>
      <trkpt lat="40.55875313468277454376220703125" lon="-1.33844283409416675567626953125">
        <ele>1032.199951171875</ele>
        <time>2021-09-25T09:41:20.000Z</time>
      </trkpt>
      <trkpt lat="40.5586797930300235748291015625" lon="-1.33836798369884490966796875">
        <ele>1032.199951171875</ele>
        <time>2021-09-25T09:41:22.000Z</time>
      </trkpt>
      <trkpt lat="40.55860443972051143646240234375" lon="-1.33829447440803050994873046875">
        <ele>1032.199951171875</ele>
        <time>2021-09-25T09:41:24.000Z</time>
      </trkpt>
      <trkpt lat="40.55852682329714298248291015625" lon="-1.33821643888950347900390625">
        <ele>1032.199951171875</ele>
        <time>2021-09-25T09:41:26.000Z</time>
      </trkpt>
      <trkpt lat="40.55844970978796482086181640625" lon="-1.33813287131488323211669921875">
        <ele>1032</ele>
        <time>2021-09-25T09:41:28.000Z</time>
      </trkpt>
      <trkpt lat="40.55836773477494716644287109375" lon="-1.33805626071989536285400390625">
        <ele>1031.4000244140625</ele>
        <time>2021-09-25T09:41:30.000Z</time>
      </trkpt>
      <trkpt lat="40.55828844197094440460205078125" lon="-1.33797629736363887786865234375">
        <ele>1031</ele>
        <time>2021-09-25T09:41:32.000Z</time>
      </trkpt>
      <trkpt lat="40.55820948444306850433349609375" lon="-1.3378940708935260772705078125">
        <ele>1030.5999755859375</ele>
        <time>2021-09-25T09:41:34.000Z</time>
      </trkpt>
      <trkpt lat="40.55812700651586055755615234375" lon="-1.33781142532825469970703125">
        <ele>1030.800048828125</ele>
        <time>2021-09-25T09:41:36.000Z</time>
      </trkpt>
      <trkpt lat="40.55804184637963771820068359375" lon="-1.33772827684879302978515625">
        <ele>1031.199951171875</ele>
        <time>2021-09-25T09:41:38.000Z</time>
      </trkpt>
      <trkpt lat="40.55796037428081035614013671875" lon="-1.33764303289353847503662109375">
        <ele>1031.4000244140625</ele>
        <time>2021-09-25T09:41:40.000Z</time>
      </trkpt>
      <trkpt lat="40.5578784830868244171142578125" lon="-1.33756172843277454376220703125">
        <ele>1031.4000244140625</ele>
        <time>2021-09-25T09:41:42.000Z</time>
      </trkpt>
      <trkpt lat="40.5577976815402507781982421875" lon="-1.33747749030590057373046875">
        <ele>1031.199951171875</ele>
        <time>2021-09-25T09:41:44.000Z</time>
      </trkpt>
      <trkpt lat="40.55771511979401111602783203125" lon="-1.33739409036934375762939453125">
        <ele>1031.199951171875</ele>
        <time>2021-09-25T09:41:46.000Z</time>
      </trkpt>
      <trkpt lat="40.55763197131454944610595703125" lon="-1.337307505309581756591796875">
        <ele>1031.199951171875</ele>
        <time>2021-09-25T09:41:48.000Z</time>
      </trkpt>
      <trkpt lat="40.5575472302734851837158203125" lon="-1.3372205011546611785888671875">
        <ele>1031</ele>
        <time>2021-09-25T09:41:50.000Z</time>
      </trkpt>
      <trkpt lat="40.55750423111021518707275390625" lon="-1.3371762447059154510498046875">
        <ele>1031.199951171875</ele>
        <time>2021-09-25T09:41:51.000Z</time>
      </trkpt>
      <trkpt lat="40.5574600584805011749267578125" lon="-1.337131820619106292724609375">
        <ele>1031.199951171875</ele>
        <time>2021-09-25T09:41:52.000Z</time>
      </trkpt>
      <trkpt lat="40.557373724877834320068359375" lon="-1.3370471633970737457275390625">
        <ele>1031.5999755859375</ele>
        <time>2021-09-25T09:41:54.000Z</time>
      </trkpt>
      <trkpt lat="40.5572873912751674652099609375" lon="-1.33695974014699459075927734375">
        <ele>1032</ele>
        <time>2021-09-25T09:41:56.000Z</time>
      </trkpt>
      <trkpt lat="40.55720030330121517181396484375" lon="-1.33687256835401058197021484375">
        <ele>1032.199951171875</ele>
        <time>2021-09-25T09:41:58.000Z</time>
      </trkpt>
      <trkpt lat="40.557114221155643463134765625" lon="-1.33678682148456573486328125">
        <ele>1032.4000244140625</ele>
        <time>2021-09-25T09:42:00.000Z</time>
      </trkpt>
      <trkpt lat="40.55707122199237346649169921875" lon="-1.3367437385022640228271484375">
        <ele>1032.4000244140625</ele>
        <time>2021-09-25T09:42:01.000Z</time>
      </trkpt>
      <trkpt lat="40.5570292286574840545654296875" lon="-1.3367014937102794647216796875">
        <ele>1032.4000244140625</ele>
        <time>2021-09-25T09:42:02.000Z</time>
      </trkpt>
      <trkpt lat="40.55694423615932464599609375" lon="-1.33661759085953235626220703125">
        <ele>1032</ele>
        <time>2021-09-25T09:42:04.000Z</time>
      </trkpt>
      <trkpt lat="40.5568589083850383758544921875" lon="-1.33653075434267520904541015625">
        <ele>1031.4000244140625</ele>
        <time>2021-09-25T09:42:06.000Z</time>
      </trkpt>
      <trkpt lat="40.5567781068384647369384765625" lon="-1.33644995279610157012939453125">
        <ele>1031</ele>
        <time>2021-09-25T09:42:08.000Z</time>
      </trkpt>
      <trkpt lat="40.556698478758335113525390625" lon="-1.33636797778308391571044921875">
        <ele>1031</ele>
        <time>2021-09-25T09:42:10.000Z</time>
      </trkpt>
      <trkpt lat="40.55661658756434917449951171875" lon="-1.33628793060779571533203125">
        <ele>1030.800048828125</ele>
        <time>2021-09-25T09:42:12.000Z</time>
      </trkpt>
      <trkpt lat="40.55653159506618976593017578125" lon="-1.33620570413768291473388671875">
        <ele>1030.5999755859375</ele>
        <time>2021-09-25T09:42:14.000Z</time>
      </trkpt>
      <trkpt lat="40.5564448423683643341064453125" lon="-1.33611903525888919830322265625">
        <ele>1030.199951171875</ele>
        <time>2021-09-25T09:42:16.000Z</time>
      </trkpt>
      <trkpt lat="40.5563603527843952178955078125" lon="-1.33603236638009548187255859375">
        <ele>1030</ele>
        <time>2021-09-25T09:42:18.000Z</time>
      </trkpt>
      <trkpt lat="40.55628080852329730987548828125" lon="-1.335948966443538665771484375">
        <ele>1029.5999755859375</ele>
        <time>2021-09-25T09:42:20.000Z</time>
      </trkpt>
      <trkpt lat="40.55620486848056316375732421875" lon="-1.33587218821048736572265625">
        <ele>1029.4000244140625</ele>
        <time>2021-09-25T09:42:22.000Z</time>
      </trkpt>
      <trkpt lat="40.5561270006000995635986328125" lon="-1.3357999362051486968994140625">
        <ele>1029</ele>
        <time>2021-09-25T09:42:24.000Z</time>
      </trkpt>
      <trkpt lat="40.5560518987476825714111328125" lon="-1.33572508580982685089111328125">
        <ele>1029.5999755859375</ele>
        <time>2021-09-25T09:42:26.000Z</time>
      </trkpt>
      <trkpt lat="40.55597654543817043304443359375" lon="-1.3356527499854564666748046875">
        <ele>1030.199951171875</ele>
        <time>2021-09-25T09:42:28.000Z</time>
      </trkpt>
      <trkpt lat="40.5559322051703929901123046875" lon="-1.33561603724956512451171875">
        <ele>1030.4000244140625</ele>
        <time>2021-09-25T09:42:29.000Z</time>
      </trkpt>
      <trkpt lat="40.5558859370648860931396484375" lon="-1.33557555265724658966064453125">
        <ele>1030.800048828125</ele>
        <time>2021-09-25T09:42:30.000Z</time>
      </trkpt>
      <trkpt lat="40.55584109388291835784912109375" lon="-1.33553230203688144683837890625">
        <ele>1031.199951171875</ele>
        <time>2021-09-25T09:42:31.000Z</time>
      </trkpt>
      <trkpt lat="40.55579750798642635345458984375" lon="-1.335488297045230865478515625">
        <ele>1031.5999755859375</ele>
        <time>2021-09-25T09:42:32.000Z</time>
      </trkpt>
      <trkpt lat="40.55570715107023715972900390625" lon="-1.3354036398231983184814453125">
        <ele>1032.199951171875</ele>
        <time>2021-09-25T09:42:34.000Z</time>
      </trkpt>
      <trkpt lat="40.5556613020598888397216796875" lon="-1.33535980246961116790771484375">
        <ele>1032.4000244140625</ele>
        <time>2021-09-25T09:42:35.000Z</time>
      </trkpt>
      <trkpt lat="40.55561696179211139678955078125" lon="-1.3353141210973262786865234375">
        <ele>1032.4000244140625</ele>
        <time>2021-09-25T09:42:36.000Z</time>
      </trkpt>
      <trkpt lat="40.555525682866573333740234375" lon="-1.335221417248249053955078125">
        <ele>1032.199951171875</ele>
        <time>2021-09-25T09:42:38.000Z</time>
      </trkpt>
      <trkpt lat="40.55543549358844757080078125" lon="-1.33513391017913818359375">
        <ele>1032</ele>
        <time>2021-09-25T09:42:40.000Z</time>
      </trkpt>
      <trkpt lat="40.55534706450998783111572265625" lon="-1.33504481054842472076416015625">
        <ele>1031.5999755859375</ele>
        <time>2021-09-25T09:42:42.000Z</time>
      </trkpt>
      <trkpt lat="40.5552603118121623992919921875" lon="-1.3349587284028530120849609375">
        <ele>1031.199951171875</ele>
        <time>2021-09-25T09:42:44.000Z</time>
      </trkpt>
      <trkpt lat="40.55517858825623989105224609375" lon="-1.334873735904693603515625">
        <ele>1030.5999755859375</ele>
        <time>2021-09-25T09:42:46.000Z</time>
      </trkpt>
      <trkpt lat="40.5550946854054927825927734375" lon="-1.334791593253612518310546875">
        <ele>1030.199951171875</ele>
        <time>2021-09-25T09:42:48.000Z</time>
      </trkpt>
      <trkpt lat="40.5550526082515716552734375" lon="-1.334750019013881683349609375">
        <ele>1030.199951171875</ele>
        <time>2021-09-25T09:42:49.000Z</time>
      </trkpt>
      <trkpt lat="40.5550101958215236663818359375" lon="-1.33470836095511913299560546875">
        <ele>1030.199951171875</ele>
        <time>2021-09-25T09:42:50.000Z</time>
      </trkpt>
      <trkpt lat="40.55492310784757137298583984375" lon="-1.33462361991405487060546875">
        <ele>1030</ele>
        <time>2021-09-25T09:42:52.000Z</time>
      </trkpt>
      <trkpt lat="40.55483761243522167205810546875" lon="-1.33453954942524433135986328125">
        <ele>1029.800048828125</ele>
        <time>2021-09-25T09:42:54.000Z</time>
      </trkpt>
      <trkpt lat="40.55474993772804737091064453125" lon="-1.334457658231258392333984375">
        <ele>1029.5999755859375</ele>
        <time>2021-09-25T09:42:56.000Z</time>
      </trkpt>
      <trkpt lat="40.55466511286795139312744140625" lon="-1.334374845027923583984375">
        <ele>1028.800048828125</ele>
        <time>2021-09-25T09:42:58.000Z</time>
      </trkpt>
      <trkpt lat="40.55457693524658679962158203125" lon="-1.33429127745330333709716796875">
        <ele>1027.800048828125</ele>
        <time>2021-09-25T09:43:00.000Z</time>
      </trkpt>
      <trkpt lat="40.5544921942055225372314453125" lon="-1.33420963771641254425048828125">
        <ele>1027</ele>
        <time>2021-09-25T09:43:02.000Z</time>
      </trkpt>
      <trkpt lat="40.55441097356379032135009765625" lon="-1.3341248966753482818603515625">
        <ele>1025.800048828125</ele>
        <time>2021-09-25T09:43:04.000Z</time>
      </trkpt>
      <trkpt lat="40.554331429302692413330078125" lon="-1.3340410776436328887939453125">
        <ele>1024.5999755859375</ele>
        <time>2021-09-25T09:43:06.000Z</time>
      </trkpt>
      <trkpt lat="40.55425154976546764373779296875" lon="-1.333961784839630126953125">
        <ele>1023.79998779296875</ele>
        <time>2021-09-25T09:43:08.000Z</time>
      </trkpt>
      <trkpt lat="40.5541720055043697357177734375" lon="-1.33388257585465908050537109375">
        <ele>1023.20001220703125</ele>
        <time>2021-09-25T09:43:10.000Z</time>
      </trkpt>
      <trkpt lat="40.55408944375813007354736328125" lon="-1.3338060490787029266357421875">
        <ele>1022.5999755859375</ele>
        <time>2021-09-25T09:43:12.000Z</time>
      </trkpt>
      <trkpt lat="40.5540496297180652618408203125" lon="-1.3337658159434795379638671875">
        <ele>1022.20001220703125</ele>
        <time>2021-09-25T09:43:13.000Z</time>
      </trkpt>
      <trkpt lat="40.55401124060153961181640625" lon="-1.33372642099857330322265625">
        <ele>1021.79998779296875</ele>
        <time>2021-09-25T09:43:14.000Z</time>
      </trkpt>
      <trkpt lat="40.55393320508301258087158203125" lon="-1.3336561806499958038330078125">
        <ele>1021.5999755859375</ele>
        <time>2021-09-25T09:43:16.000Z</time>
      </trkpt>
      <trkpt lat="40.5538548342883586883544921875" lon="-1.33359004743397235870361328125">
        <ele>1021.20001220703125</ele>
        <time>2021-09-25T09:43:18.000Z</time>
      </trkpt>
      <trkpt lat="40.5537804029881954193115234375" lon="-1.3335254229605197906494140625">
        <ele>1021.20001220703125</ele>
        <time>2021-09-25T09:43:20.000Z</time>
      </trkpt>
      <trkpt lat="40.55374511517584323883056640625" lon="-1.33349348790943622589111328125">
        <ele>1021</ele>
        <time>2021-09-25T09:43:21.000Z</time>
      </trkpt>
      <trkpt lat="40.55370873771607875823974609375" lon="-1.33346281014382839202880859375">
        <ele>1021</ele>
        <time>2021-09-25T09:43:22.000Z</time>
      </trkpt>
      <trkpt lat="40.55367403663694858551025390625" lon="-1.33342978544533252716064453125">
        <ele>1021.20001220703125</ele>
        <time>2021-09-25T09:43:23.000Z</time>
      </trkpt>
      <trkpt lat="40.55364285595715045928955078125" lon="-1.33339583873748779296875">
        <ele>1021.20001220703125</ele>
        <time>2021-09-25T09:43:24.000Z</time>
      </trkpt>
      <trkpt lat="40.553577728569507598876953125" lon="-1.333341859281063079833984375">
        <ele>1021.5999755859375</ele>
        <time>2021-09-25T09:43:26.000Z</time>
      </trkpt>
      <trkpt lat="40.55354696698486804962158203125" lon="-1.33331612683832645416259765625">
        <ele>1021.5999755859375</ele>
        <time>2021-09-25T09:43:27.000Z</time>
      </trkpt>
      <trkpt lat="40.55351712740957736968994140625" lon="-1.33329181931912899017333984375">
        <ele>1021.79998779296875</ele>
        <time>2021-09-25T09:43:28.000Z</time>
      </trkpt>
      <trkpt lat="40.5534578673541545867919921875" lon="-1.3332350738346576690673828125">
        <ele>1021.79998779296875</ele>
        <time>2021-09-25T09:43:30.000Z</time>
      </trkpt>
      <trkpt lat="40.55338687263429164886474609375" lon="-1.3331643305718898773193359375">
        <ele>1021.79998779296875</ele>
        <time>2021-09-25T09:43:32.000Z</time>
      </trkpt>
      <trkpt lat="40.55334865115582942962646484375" lon="-1.33313055150210857391357421875">
        <ele>1021.79998779296875</ele>
        <time>2021-09-25T09:43:33.000Z</time>
      </trkpt>
      <trkpt lat="40.5533093400299549102783203125" lon="-1.33309652097523212432861328125">
        <ele>1022</ele>
        <time>2021-09-25T09:43:34.000Z</time>
      </trkpt>
      <trkpt lat="40.5532298795878887176513671875" lon="-1.3330265320837497711181640625">
        <ele>1022</ele>
        <time>2021-09-25T09:43:36.000Z</time>
      </trkpt>
      <trkpt lat="40.55314865894615650177001953125" lon="-1.33295604027807712554931640625">
        <ele>1022</ele>
        <time>2021-09-25T09:43:38.000Z</time>
      </trkpt>
      <trkpt lat="40.5530645884573459625244140625" lon="-1.33288831450045108795166015625">
        <ele>1022.20001220703125</ele>
        <time>2021-09-25T09:43:40.000Z</time>
      </trkpt>
      <trkpt lat="40.55302108637988567352294921875" lon="-1.33285277523100376129150390625">
        <ele>1022.5999755859375</ele>
        <time>2021-09-25T09:43:41.000Z</time>
      </trkpt>
      <trkpt lat="40.5529811047017574310302734375" lon="-1.3328166492283344268798828125">
        <ele>1022.79998779296875</ele>
        <time>2021-09-25T09:43:42.000Z</time>
      </trkpt>
      <trkpt lat="40.55289921350777149200439453125" lon="-1.3327442295849323272705078125">
        <ele>1023</ele>
        <time>2021-09-25T09:43:44.000Z</time>
      </trkpt>
      <trkpt lat="40.5528164841234683990478515625" lon="-1.33267776109278202056884765625">
        <ele>1023.20001220703125</ele>
        <time>2021-09-25T09:43:46.000Z</time>
      </trkpt>
      <trkpt lat="40.55273761041462421417236328125" lon="-1.33261221460998058319091796875">
        <ele>1023.20001220703125</ele>
        <time>2021-09-25T09:43:48.000Z</time>
      </trkpt>
      <trkpt lat="40.55269821546971797943115234375" lon="-1.332578770816326141357421875">
        <ele>1023</ele>
        <time>2021-09-25T09:43:49.000Z</time>
      </trkpt>
      <trkpt lat="40.55265680886805057525634765625" lon="-1.3325450755655765533447265625">
        <ele>1022.79998779296875</ele>
        <time>2021-09-25T09:43:50.000Z</time>
      </trkpt>
      <trkpt lat="40.5525774322450160980224609375" lon="-1.3324783556163311004638671875">
        <ele>1022.20001220703125</ele>
        <time>2021-09-25T09:43:52.000Z</time>
      </trkpt>
      <trkpt lat="40.5524964630603790283203125" lon="-1.3324101269245147705078125">
        <ele>1021.79998779296875</ele>
        <time>2021-09-25T09:43:54.000Z</time>
      </trkpt>
      <trkpt lat="40.5524121411144733428955078125" lon="-1.33234298788011074066162109375">
        <ele>1021.5999755859375</ele>
        <time>2021-09-25T09:43:56.000Z</time>
      </trkpt>
      <trkpt lat="40.55232371203601360321044921875" lon="-1.3322708196938037872314453125">
        <ele>1021.4000244140625</ele>
        <time>2021-09-25T09:43:58.000Z</time>
      </trkpt>
      <trkpt lat="40.55227677337825298309326171875" lon="-1.33223553188145160675048828125">
        <ele>1021.20001220703125</ele>
        <time>2021-09-25T09:43:59.000Z</time>
      </trkpt>
      <trkpt lat="40.552231930196285247802734375" lon="-1.33220116607844829559326171875">
        <ele>1021.20001220703125</ele>
        <time>2021-09-25T09:44:00.000Z</time>
      </trkpt>
      <trkpt lat="40.55214107036590576171875" lon="-1.3321279920637607574462890625">
        <ele>1020.4000244140625</ele>
        <time>2021-09-25T09:44:02.000Z</time>
      </trkpt>
      <trkpt lat="40.55205347947776317596435546875" lon="-1.33205649442970752716064453125">
        <ele>1020</ele>
        <time>2021-09-25T09:44:04.000Z</time>
      </trkpt>
      <trkpt lat="40.5519658885896205902099609375" lon="-1.33198508061468601226806640625">
        <ele>1019.4000244140625</ele>
        <time>2021-09-25T09:44:06.000Z</time>
      </trkpt>
      <trkpt lat="40.5518795549869537353515625" lon="-1.331913582980632781982421875">
        <ele>1019</ele>
        <time>2021-09-25T09:44:08.000Z</time>
      </trkpt>
      <trkpt lat="40.5517902038991451263427734375" lon="-1.3318453542888164520263671875">
        <ele>1018.79998779296875</ele>
        <time>2021-09-25T09:44:10.000Z</time>
      </trkpt>
      <trkpt lat="40.5517466180026531219482421875" lon="-1.33181040175259113311767578125">
        <ele>1018.5999755859375</ele>
        <time>2021-09-25T09:44:11.000Z</time>
      </trkpt>
      <trkpt lat="40.5517037026584148406982421875" lon="-1.33177578449249267578125">
        <ele>1018.5999755859375</ele>
        <time>2021-09-25T09:44:12.000Z</time>
      </trkpt>
      <trkpt lat="40.55161602795124053955078125" lon="-1.3317075558006763458251953125">
        <ele>1018.4000244140625</ele>
        <time>2021-09-25T09:44:14.000Z</time>
      </trkpt>
      <trkpt lat="40.5515273474156856536865234375" lon="-1.3316408358514308929443359375">
        <ele>1018.5999755859375</ele>
        <time>2021-09-25T09:44:16.000Z</time>
      </trkpt>
      <trkpt lat="40.55143833160400390625" lon="-1.33157336153090000152587890625">
        <ele>1018.79998779296875</ele>
        <time>2021-09-25T09:44:18.000Z</time>
      </trkpt>
      <trkpt lat="40.55135124363005161285400390625" lon="-1.3315060548484325408935546875">
        <ele>1018.5999755859375</ele>
        <time>2021-09-25T09:44:20.000Z</time>
      </trkpt>
      <trkpt lat="40.55126222781836986541748046875" lon="-1.3314410112798213958740234375">
        <ele>1018.4000244140625</ele>
        <time>2021-09-25T09:44:22.000Z</time>
      </trkpt>
      <trkpt lat="40.55117421783506870269775390625" lon="-1.33137546479701995849609375">
        <ele>1018.20001220703125</ele>
        <time>2021-09-25T09:44:24.000Z</time>
      </trkpt>
      <trkpt lat="40.5510856211185455322265625" lon="-1.33131134323775768280029296875">
        <ele>1018</ele>
        <time>2021-09-25T09:44:26.000Z</time>
      </trkpt>
      <trkpt lat="40.55099719204008579254150390625" lon="-1.3312460482120513916015625">
        <ele>1017.79998779296875</ele>
        <time>2021-09-25T09:44:28.000Z</time>
      </trkpt>
      <trkpt lat="40.55090725421905517578125" lon="-1.331179328262805938720703125">
        <ele>1018</ele>
        <time>2021-09-25T09:44:30.000Z</time>
      </trkpt>
      <trkpt lat="40.55081807076930999755859375" lon="-1.33111436851322650909423828125">
        <ele>1018.4000244140625</ele>
        <time>2021-09-25T09:44:32.000Z</time>
      </trkpt>
      <trkpt lat="40.55072997696697711944580078125" lon="-1.3310500793159008026123046875">
        <ele>1019.20001220703125</ele>
        <time>2021-09-25T09:44:34.000Z</time>
      </trkpt>
      <trkpt lat="40.5506432242691516876220703125" lon="-1.33098713122308254241943359375">
        <ele>1020</ele>
        <time>2021-09-25T09:44:36.000Z</time>
      </trkpt>
      <trkpt lat="40.55055831559002399444580078125" lon="-1.3309260271489620208740234375">
        <ele>1020.5999755859375</ele>
        <time>2021-09-25T09:44:38.000Z</time>
      </trkpt>
      <trkpt lat="40.550476424396038055419921875" lon="-1.33086626417934894561767578125">
        <ele>1021.5999755859375</ele>
        <time>2021-09-25T09:44:40.000Z</time>
      </trkpt>
      <trkpt lat="40.5503976345062255859375" lon="-1.33080859668552875518798828125">
        <ele>1022</ele>
        <time>2021-09-25T09:44:42.000Z</time>
      </trkpt>
      <trkpt lat="40.5503211915493011474609375" lon="-1.330748833715915679931640625">
        <ele>1022.4000244140625</ele>
        <time>2021-09-25T09:44:44.000Z</time>
      </trkpt>
      <trkpt lat="40.55023980326950550079345703125" lon="-1.3306903280317783355712890625">
        <ele>1022.20001220703125</ele>
        <time>2021-09-25T09:44:46.000Z</time>
      </trkpt>
      <trkpt lat="40.550199486315250396728515625" lon="-1.3306611590087413787841796875">
        <ele>1022</ele>
        <time>2021-09-25T09:44:47.000Z</time>
      </trkpt>
      <trkpt lat="40.550157241523265838623046875" lon="-1.33063056506216526031494140625">
        <ele>1021.79998779296875</ele>
        <time>2021-09-25T09:44:48.000Z</time>
      </trkpt>
      <trkpt lat="40.5500722490251064300537109375" lon="-1.3305723108351230621337890625">
        <ele>1022</ele>
        <time>2021-09-25T09:44:50.000Z</time>
      </trkpt>
      <trkpt lat="40.54999186657369136810302734375" lon="-1.33051179349422454833984375">
        <ele>1022.20001220703125</ele>
        <time>2021-09-25T09:44:52.000Z</time>
      </trkpt>
      <trkpt lat="40.54990922100841999053955078125" lon="-1.33045286871492862701416015625">
        <ele>1022</ele>
        <time>2021-09-25T09:44:54.000Z</time>
      </trkpt>
      <trkpt lat="40.549868904054164886474609375" lon="-1.33042420260608196258544921875">
        <ele>1022</ele>
        <time>2021-09-25T09:44:55.000Z</time>
      </trkpt>
      <trkpt lat="40.5498285032808780670166015625" lon="-1.33039486594498157501220703125">
        <ele>1021.79998779296875</ele>
        <time>2021-09-25T09:44:56.000Z</time>
      </trkpt>
      <trkpt lat="40.54974879138171672821044921875" lon="-1.3303369469940662384033203125">
        <ele>1021.79998779296875</ele>
        <time>2021-09-25T09:44:58.000Z</time>
      </trkpt>
      <trkpt lat="40.5496645532548427581787109375" lon="-1.33028606884181499481201171875">
        <ele>1021.4000244140625</ele>
        <time>2021-09-25T09:45:00.000Z</time>
      </trkpt>
      <trkpt lat="40.54958299733698368072509765625" lon="-1.33023150265216827392578125">
        <ele>1021.5999755859375</ele>
        <time>2021-09-25T09:45:02.000Z</time>
      </trkpt>
      <trkpt lat="40.54949850775301456451416015625" lon="-1.33017961867153644561767578125">
        <ele>1021.5999755859375</ele>
        <time>2021-09-25T09:45:04.000Z</time>
      </trkpt>
      <trkpt lat="40.54941393435001373291015625" lon="-1.3301273994147777557373046875">
        <ele>1021.20001220703125</ele>
        <time>2021-09-25T09:45:06.000Z</time>
      </trkpt>
      <trkpt lat="40.549327433109283447265625" lon="-1.33007752709090709686279296875">
        <ele>1021</ele>
        <time>2021-09-25T09:45:08.000Z</time>
      </trkpt>
      <trkpt lat="40.54924034513533115386962890625" lon="-1.3300211168825626373291015625">
        <ele>1021</ele>
        <time>2021-09-25T09:45:10.000Z</time>
      </trkpt>
      <trkpt lat="40.54915166459977626800537109375" lon="-1.329966299235820770263671875">
        <ele>1021.4000244140625</ele>
        <time>2021-09-25T09:45:12.000Z</time>
      </trkpt>
      <trkpt lat="40.5490657500922679901123046875" lon="-1.3299128226935863494873046875">
        <ele>1021.79998779296875</ele>
        <time>2021-09-25T09:45:14.000Z</time>
      </trkpt>
      <trkpt lat="40.54897748865187168121337890625" lon="-1.3298564963042736053466796875">
        <ele>1022.4000244140625</ele>
        <time>2021-09-25T09:45:16.000Z</time>
      </trkpt>
      <trkpt lat="40.54889224469661712646484375" lon="-1.329800002276897430419921875">
        <ele>1022.5999755859375</ele>
        <time>2021-09-25T09:45:18.000Z</time>
      </trkpt>
      <trkpt lat="40.54880850948393344879150390625" lon="-1.329745016992092132568359375">
        <ele>1023.20001220703125</ele>
        <time>2021-09-25T09:45:20.000Z</time>
      </trkpt>
      <trkpt lat="40.54872267879545688629150390625" lon="-1.3296930491924285888671875">
        <ele>1023.4000244140625</ele>
        <time>2021-09-25T09:45:22.000Z</time>
      </trkpt>
      <trkpt lat="40.548637099564075469970703125" lon="-1.3296402432024478912353515625">
        <ele>1023.79998779296875</ele>
        <time>2021-09-25T09:45:24.000Z</time>
      </trkpt>
      <trkpt lat="40.54855319671332836151123046875" lon="-1.32958668284118175506591796875">
        <ele>1024</ele>
        <time>2021-09-25T09:45:26.000Z</time>
      </trkpt>
      <trkpt lat="40.54846686311066150665283203125" lon="-1.329538822174072265625">
        <ele>1024</ele>
        <time>2021-09-25T09:45:28.000Z</time>
      </trkpt>
      <trkpt lat="40.54838203825056552886962890625" lon="-1.3294846750795841217041015625">
        <ele>1024.199951171875</ele>
        <time>2021-09-25T09:45:30.000Z</time>
      </trkpt>
      <trkpt lat="40.5482956208288669586181640625" lon="-1.32943027652800083160400390625">
        <ele>1024.4000244140625</ele>
        <time>2021-09-25T09:45:32.000Z</time>
      </trkpt>
      <trkpt lat="40.5482114665210247039794921875" lon="-1.32937814109027385711669921875">
        <ele>1024.4000244140625</ele>
        <time>2021-09-25T09:45:34.000Z</time>
      </trkpt>
      <trkpt lat="40.54812538437545299530029296875" lon="-1.329324245452880859375">
        <ele>1024.199951171875</ele>
        <time>2021-09-25T09:45:36.000Z</time>
      </trkpt>
      <trkpt lat="40.5480434931814670562744140625" lon="-1.3292721100151538848876953125">
        <ele>1024.199951171875</ele>
        <time>2021-09-25T09:45:38.000Z</time>
      </trkpt>
      <trkpt lat="40.54800116457045078277587890625" lon="-1.32924444973468780517578125">
        <ele>1024.199951171875</ele>
        <time>2021-09-25T09:45:39.000Z</time>
      </trkpt>
      <trkpt lat="40.54795841686427593231201171875" lon="-1.32921787910163402557373046875">
        <ele>1024.199951171875</ele>
        <time>2021-09-25T09:45:40.000Z</time>
      </trkpt>
      <trkpt lat="40.547874681651592254638671875" lon="-1.32916532456874847412109375">
        <ele>1024.5999755859375</ele>
        <time>2021-09-25T09:45:42.000Z</time>
      </trkpt>
      <trkpt lat="40.54778994061052799224853515625" lon="-1.32910891436040401458740234375">
        <ele>1024.800048828125</ele>
        <time>2021-09-25T09:45:44.000Z</time>
      </trkpt>
      <trkpt lat="40.54770628921687602996826171875" lon="-1.32905845530331134796142578125">
        <ele>1025</ele>
        <time>2021-09-25T09:45:46.000Z</time>
      </trkpt>
      <trkpt lat="40.5476659722626209259033203125" lon="-1.3290330581367015838623046875">
        <ele>1025</ele>
        <time>2021-09-25T09:45:47.000Z</time>
      </trkpt>
      <trkpt lat="40.54762431420385837554931640625" lon="-1.3290072418749332427978515625">
        <ele>1025</ele>
        <time>2021-09-25T09:45:48.000Z</time>
      </trkpt>
      <trkpt lat="40.5475432612001895904541015625" lon="-1.3289556093513965606689453125">
        <ele>1025.4000244140625</ele>
        <time>2021-09-25T09:45:50.000Z</time>
      </trkpt>
      <trkpt lat="40.54746128618717193603515625" lon="-1.3289033062756061553955078125">
        <ele>1025.800048828125</ele>
        <time>2021-09-25T09:45:52.000Z</time>
      </trkpt>
      <trkpt lat="40.54737922735512256622314453125" lon="-1.328851841390132904052734375">
        <ele>1025.5999755859375</ele>
        <time>2021-09-25T09:45:54.000Z</time>
      </trkpt>
      <trkpt lat="40.54733782075345516204833984375" lon="-1.32882426492869853973388671875">
        <ele>1025.4000244140625</ele>
        <time>2021-09-25T09:45:55.000Z</time>
      </trkpt>
      <trkpt lat="40.5472988449037075042724609375" lon="-1.3287985324859619140625">
        <ele>1025.4000244140625</ele>
        <time>2021-09-25T09:45:56.000Z</time>
      </trkpt>
      <trkpt lat="40.54721988737583160400390625" lon="-1.3287463970482349395751953125">
        <ele>1025</ele>
        <time>2021-09-25T09:45:58.000Z</time>
      </trkpt>
      <trkpt lat="40.54714000783860683441162109375" lon="-1.32869484834372997283935546875">
        <ele>1024.800048828125</ele>
        <time>2021-09-25T09:46:00.000Z</time>
      </trkpt>
      <trkpt lat="40.54706029593944549560546875" lon="-1.3286454789340496063232421875">
        <ele>1024.800048828125</ele>
        <time>2021-09-25T09:46:02.000Z</time>
      </trkpt>
      <trkpt lat="40.5469793267548084259033203125" lon="-1.32859577424824237823486328125">
        <ele>1025</ele>
        <time>2021-09-25T09:46:04.000Z</time>
      </trkpt>
      <trkpt lat="40.54689827375113964080810546875" lon="-1.32854531519114971160888671875">
        <ele>1024.5999755859375</ele>
        <time>2021-09-25T09:46:06.000Z</time>
      </trkpt>
      <trkpt lat="40.546815209090709686279296875" lon="-1.32849535904824733734130859375">
        <ele>1023.79998779296875</ele>
        <time>2021-09-25T09:46:08.000Z</time>
      </trkpt>
      <trkpt lat="40.54673315025866031646728515625" lon="-1.32844649255275726318359375">
        <ele>1023.20001220703125</ele>
        <time>2021-09-25T09:46:10.000Z</time>
      </trkpt>
      <trkpt lat="40.54669207893311977386474609375" lon="-1.3284195028245449066162109375">
        <ele>1023</ele>
        <time>2021-09-25T09:46:11.000Z</time>
      </trkpt>
      <trkpt lat="40.54665016941726207733154296875" lon="-1.328393518924713134765625">
        <ele>1022.79998779296875</ele>
        <time>2021-09-25T09:46:12.000Z</time>
      </trkpt>
      <trkpt lat="40.5465669371187686920166015625" lon="-1.32834255695343017578125">
        <ele>1022.5999755859375</ele>
        <time>2021-09-25T09:46:14.000Z</time>
      </trkpt>
      <trkpt lat="40.54648068733513355255126953125" lon="-1.328291930258274078369140625">
        <ele>1022</ele>
        <time>2021-09-25T09:46:16.000Z</time>
      </trkpt>
      <trkpt lat="40.5463982932269573211669921875" lon="-1.32824155502021312713623046875">
        <ele>1021.5999755859375</ele>
        <time>2021-09-25T09:46:18.000Z</time>
      </trkpt>
      <trkpt lat="40.54631598293781280517578125" lon="-1.328192688524723052978515625">
        <ele>1021.4000244140625</ele>
        <time>2021-09-25T09:46:20.000Z</time>
      </trkpt>
      <trkpt lat="40.54627415724098682403564453125" lon="-1.328165866434574127197265625">
        <ele>1021.20001220703125</ele>
        <time>2021-09-25T09:46:21.000Z</time>
      </trkpt>
      <trkpt lat="40.546230487525463104248046875" lon="-1.32813778705894947052001953125">
        <ele>1021</ele>
        <time>2021-09-25T09:46:22.000Z</time>
      </trkpt>
      <trkpt lat="40.54614876396954059600830078125" lon="-1.3280838914215564727783203125">
        <ele>1020.5999755859375</ele>
        <time>2021-09-25T09:46:24.000Z</time>
      </trkpt>
      <trkpt lat="40.5460650287568569183349609375" lon="-1.32803334854543209075927734375">
        <ele>1020.4000244140625</ele>
        <time>2021-09-25T09:46:26.000Z</time>
      </trkpt>
      <trkpt lat="40.54598263464868068695068359375" lon="-1.3279843144118785858154296875">
        <ele>1020.4000244140625</ele>
        <time>2021-09-25T09:46:28.000Z</time>
      </trkpt>
      <trkpt lat="40.5459024198353290557861328125" lon="-1.32793486118316650390625">
        <ele>1020.5999755859375</ele>
        <time>2021-09-25T09:46:30.000Z</time>
      </trkpt>
      <trkpt lat="40.54582136683166027069091796875" lon="-1.327881552278995513916015625">
        <ele>1021</ele>
        <time>2021-09-25T09:46:32.000Z</time>
      </trkpt>
      <trkpt lat="40.54573972709476947784423828125" lon="-1.32782690227031707763671875">
        <ele>1021.4000244140625</ele>
        <time>2021-09-25T09:46:34.000Z</time>
      </trkpt>
      <trkpt lat="40.5456573329865932464599609375" lon="-1.32777459919452667236328125">
        <ele>1021.5999755859375</ele>
        <time>2021-09-25T09:46:36.000Z</time>
      </trkpt>
      <trkpt lat="40.54557502269744873046875" lon="-1.32772439159452915191650390625">
        <ele>1022</ele>
        <time>2021-09-25T09:46:38.000Z</time>
      </trkpt>
      <trkpt lat="40.54549179039895534515380859375" lon="-1.32767560891807079315185546875">
        <ele>1022.5999755859375</ele>
        <time>2021-09-25T09:46:40.000Z</time>
      </trkpt>
      <trkpt lat="40.54540864191949367523193359375" lon="-1.327624060213565826416015625">
        <ele>1023.20001220703125</ele>
        <time>2021-09-25T09:46:42.000Z</time>
      </trkpt>
      <trkpt lat="40.545328594744205474853515625" lon="-1.32757284678518772125244140625">
        <ele>1023.79998779296875</ele>
        <time>2021-09-25T09:46:44.000Z</time>
      </trkpt>
      <trkpt lat="40.54524586535990238189697265625" lon="-1.32752741686999797821044921875">
        <ele>1024.4000244140625</ele>
        <time>2021-09-25T09:46:46.000Z</time>
      </trkpt>
      <trkpt lat="40.545166321098804473876953125" lon="-1.32747896946966648101806640625">
        <ele>1024.199951171875</ele>
        <time>2021-09-25T09:46:48.000Z</time>
      </trkpt>
      <trkpt lat="40.545085854828357696533203125" lon="-1.32742683403193950653076171875">
        <ele>1023.79998779296875</ele>
        <time>2021-09-25T09:46:50.000Z</time>
      </trkpt>
      <trkpt lat="40.5450454540550708770751953125" lon="-1.3274019397795200347900390625">
        <ele>1023.79998779296875</ele>
        <time>2021-09-25T09:46:51.000Z</time>
      </trkpt>
      <trkpt lat="40.54500329308211803436279296875" lon="-1.3273754529654979705810546875">
        <ele>1023.79998779296875</ele>
        <time>2021-09-25T09:46:52.000Z</time>
      </trkpt>
      <trkpt lat="40.54491930641233921051025390625" lon="-1.32732038386166095733642578125">
        <ele>1023.79998779296875</ele>
        <time>2021-09-25T09:46:54.000Z</time>
      </trkpt>
      <trkpt lat="40.5448360741138458251953125" lon="-1.327266655862331390380859375">
        <ele>1024</ele>
        <time>2021-09-25T09:46:56.000Z</time>
      </trkpt>
      <trkpt lat="40.5447540991008281707763671875" lon="-1.327219717204570770263671875">
        <ele>1024</ele>
        <time>2021-09-25T09:46:58.000Z</time>
      </trkpt>
      <trkpt lat="40.5446729622781276702880859375" lon="-1.32716841995716094970703125">
        <ele>1024.4000244140625</ele>
        <time>2021-09-25T09:47:00.000Z</time>
      </trkpt>
      <trkpt lat="40.54463231004774570465087890625" lon="-1.3271414302289485931396484375">
        <ele>1024.5999755859375</ele>
        <time>2021-09-25T09:47:01.000Z</time>
      </trkpt>
      <trkpt lat="40.544592998921871185302734375" lon="-1.32711737416684627532958984375">
        <ele>1024.800048828125</ele>
        <time>2021-09-25T09:47:02.000Z</time>
      </trkpt>
      <trkpt lat="40.54451513104140758514404296875" lon="-1.32706507109105587005615234375">
        <ele>1025</ele>
        <time>2021-09-25T09:47:04.000Z</time>
      </trkpt>
      <trkpt lat="40.54443550296127796173095703125" lon="-1.3270146958529949188232421875">
        <ele>1025</ele>
        <time>2021-09-25T09:47:06.000Z</time>
      </trkpt>
      <trkpt lat="40.544354952871799468994140625" lon="-1.32696214132010936737060546875">
        <ele>1024.800048828125</ele>
        <time>2021-09-25T09:47:08.000Z</time>
      </trkpt>
      <trkpt lat="40.54427389986813068389892578125" lon="-1.3269121013581752777099609375">
        <ele>1024.800048828125</ele>
        <time>2021-09-25T09:47:10.000Z</time>
      </trkpt>
      <trkpt lat="40.54419435560703277587890625" lon="-1.3268579542636871337890625">
        <ele>1024.800048828125</ele>
        <time>2021-09-25T09:47:12.000Z</time>
      </trkpt>
      <trkpt lat="40.54411212913691997528076171875" lon="-1.32680623792111873626708984375">
        <ele>1025.199951171875</ele>
        <time>2021-09-25T09:47:14.000Z</time>
      </trkpt>
      <trkpt lat="40.54403602145612239837646484375" lon="-1.32675468921661376953125">
        <ele>1025.5999755859375</ele>
        <time>2021-09-25T09:47:16.000Z</time>
      </trkpt>
      <trkpt lat="40.54395287297666072845458984375" lon="-1.32670280523598194122314453125">
        <ele>1026</ele>
        <time>2021-09-25T09:47:18.000Z</time>
      </trkpt>
      <trkpt lat="40.54387106560170650482177734375" lon="-1.3266502507030963897705078125">
        <ele>1026.199951171875</ele>
        <time>2021-09-25T09:47:20.000Z</time>
      </trkpt>
      <trkpt lat="40.5437911860644817352294921875" lon="-1.32660289295017719268798828125">
        <ele>1026.4000244140625</ele>
        <time>2021-09-25T09:47:22.000Z</time>
      </trkpt>
      <trkpt lat="40.543707869946956634521484375" lon="-1.326552517712116241455078125">
        <ele>1026.4000244140625</ele>
        <time>2021-09-25T09:47:24.000Z</time>
      </trkpt>
      <trkpt lat="40.54362782277166843414306640625" lon="-1.3265007175505161285400390625">
        <ele>1027</ele>
        <time>2021-09-25T09:47:26.000Z</time>
      </trkpt>
      <trkpt lat="40.54354685358703136444091796875" lon="-1.32645034231245517730712890625">
        <ele>1027.199951171875</ele>
        <time>2021-09-25T09:47:28.000Z</time>
      </trkpt>
      <trkpt lat="40.54346789605915546417236328125" lon="-1.326402314007282257080078125">
        <ele>1026.800048828125</ele>
        <time>2021-09-25T09:47:30.000Z</time>
      </trkpt>
      <trkpt lat="40.5433861725032329559326171875" lon="-1.3263562135398387908935546875">
        <ele>1026.199951171875</ele>
        <time>2021-09-25T09:47:32.000Z</time>
      </trkpt>
      <trkpt lat="40.543308891355991363525390625" lon="-1.32630701176822185516357421875">
        <ele>1026</ele>
        <time>2021-09-25T09:47:34.000Z</time>
      </trkpt>
      <trkpt lat="40.54322700016200542449951171875" lon="-1.32625537924468517303466796875">
        <ele>1026.199951171875</ele>
        <time>2021-09-25T09:47:36.000Z</time>
      </trkpt>
      <trkpt lat="40.54314536042511463165283203125" lon="-1.32620978169143199920654296875">
        <ele>1026</ele>
        <time>2021-09-25T09:47:38.000Z</time>
      </trkpt>
      <trkpt lat="40.5430629663169384002685546875" lon="-1.326160915195941925048828125">
        <ele>1025.800048828125</ele>
        <time>2021-09-25T09:47:40.000Z</time>
      </trkpt>
      <trkpt lat="40.542981661856174468994140625" lon="-1.3261114619672298431396484375">
        <ele>1025.4000244140625</ele>
        <time>2021-09-25T09:47:42.000Z</time>
      </trkpt>
      <trkpt lat="40.5429016984999179840087890625" lon="-1.326061002910137176513671875">
        <ele>1025.5999755859375</ele>
        <time>2021-09-25T09:47:44.000Z</time>
      </trkpt>
      <trkpt lat="40.54281913675367832183837890625" lon="-1.3260088674724102020263671875">
        <ele>1025.800048828125</ele>
        <time>2021-09-25T09:47:46.000Z</time>
      </trkpt>
      <trkpt lat="40.54273682646453380584716796875" lon="-1.32595530711114406585693359375">
        <ele>1026.4000244140625</ele>
        <time>2021-09-25T09:47:48.000Z</time>
      </trkpt>
      <trkpt lat="40.54269642569124698638916015625" lon="-1.3259307481348514556884765625">
        <ele>1026.5999755859375</ele>
        <time>2021-09-25T09:47:49.000Z</time>
      </trkpt>
      <trkpt lat="40.54265703074634075164794921875" lon="-1.32590719498693943023681640625">
        <ele>1027</ele>
        <time>2021-09-25T09:47:50.000Z</time>
      </trkpt>
      <trkpt lat="40.54257907904684543609619140625" lon="-1.32585925050079822540283203125">
        <ele>1027</ele>
        <time>2021-09-25T09:47:52.000Z</time>
      </trkpt>
      <trkpt lat="40.542504228651523590087890625" lon="-1.32580812089145183563232421875">
        <ele>1027.199951171875</ele>
        <time>2021-09-25T09:47:54.000Z</time>
      </trkpt>
      <trkpt lat="40.54242250509560108184814453125" lon="-1.32576084695756435394287109375">
        <ele>1027.5999755859375</ele>
        <time>2021-09-25T09:47:56.000Z</time>
      </trkpt>
      <trkpt lat="40.5423421226441860198974609375" lon="-1.32571239955723285675048828125">
        <ele>1028.199951171875</ele>
        <time>2021-09-25T09:47:58.000Z</time>
      </trkpt>
      <trkpt lat="40.5423013865947723388671875" lon="-1.32568691857159137725830078125">
        <ele>1028.199951171875</ele>
        <time>2021-09-25T09:47:59.000Z</time>
      </trkpt>
      <trkpt lat="40.5422609858214855194091796875" lon="-1.325660683214664459228515625">
        <ele>1028.199951171875</ele>
        <time>2021-09-25T09:48:00.000Z</time>
      </trkpt>
      <trkpt lat="40.5421775020658969879150390625" lon="-1.32561416365206241607666015625">
        <ele>1028</ele>
        <time>2021-09-25T09:48:02.000Z</time>
      </trkpt>
      <trkpt lat="40.54209661670029163360595703125" lon="-1.32556420750916004180908203125">
        <ele>1027.5999755859375</ele>
        <time>2021-09-25T09:48:04.000Z</time>
      </trkpt>
      <trkpt lat="40.5420172400772571563720703125" lon="-1.32550813257694244384765625">
        <ele>1027</ele>
        <time>2021-09-25T09:48:06.000Z</time>
      </trkpt>
      <trkpt lat="40.5419394560158252716064453125" lon="-1.3254566676914691925048828125">
        <ele>1026.5999755859375</ele>
        <time>2021-09-25T09:48:08.000Z</time>
      </trkpt>
      <trkpt lat="40.5419002287089824676513671875" lon="-1.3254305161535739898681640625">
        <ele>1026.5999755859375</ele>
        <time>2021-09-25T09:48:09.000Z</time>
      </trkpt>
      <trkpt lat="40.5418596602976322174072265625" lon="-1.325404532253742218017578125">
        <ele>1026.5999755859375</ele>
        <time>2021-09-25T09:48:10.000Z</time>
      </trkpt>
      <trkpt lat="40.54178036749362945556640625" lon="-1.32535658776760101318359375">
        <ele>1026.800048828125</ele>
        <time>2021-09-25T09:48:12.000Z</time>
      </trkpt>
      <trkpt lat="40.541700236499309539794921875" lon="-1.32530772127211093902587890625">
        <ele>1027.199951171875</ele>
        <time>2021-09-25T09:48:14.000Z</time>
      </trkpt>
      <trkpt lat="40.54162077605724334716796875" lon="-1.32526145316660404205322265625">
        <ele>1027</ele>
        <time>2021-09-25T09:48:16.000Z</time>
      </trkpt>
      <trkpt lat="40.541580207645893096923828125" lon="-1.3252394087612628936767578125">
        <ele>1026.800048828125</ele>
        <time>2021-09-25T09:48:17.000Z</time>
      </trkpt>
      <trkpt lat="40.5415408127009868621826171875" lon="-1.325215436518192291259765625">
        <ele>1026.4000244140625</ele>
        <time>2021-09-25T09:48:18.000Z</time>
      </trkpt>
      <trkpt lat="40.54146294482052326202392578125" lon="-1.32516589947044849395751953125">
        <ele>1025.800048828125</ele>
        <time>2021-09-25T09:48:20.000Z</time>
      </trkpt>
      <trkpt lat="40.541386418044567108154296875" lon="-1.32511426694691181182861328125">
        <ele>1026</ele>
        <time>2021-09-25T09:48:22.000Z</time>
      </trkpt>
      <trkpt lat="40.54130570031702518463134765625" lon="-1.3250627182424068450927734375">
        <ele>1026</ele>
        <time>2021-09-25T09:48:24.000Z</time>
      </trkpt>
      <trkpt lat="40.5412216298282146453857421875" lon="-1.32501125335693359375">
        <ele>1025.5999755859375</ele>
        <time>2021-09-25T09:48:26.000Z</time>
      </trkpt>
      <trkpt lat="40.54118047468364238739013671875" lon="-1.32498778402805328369140625">
        <ele>1025.4000244140625</ele>
        <time>2021-09-25T09:48:27.000Z</time>
      </trkpt>
      <trkpt lat="40.5411399900913238525390625" lon="-1.3249634765088558197021484375">
        <ele>1025.199951171875</ele>
        <time>2021-09-25T09:48:28.000Z</time>
      </trkpt>
      <trkpt lat="40.54106287658214569091796875" lon="-1.32491528056561946868896484375">
        <ele>1025</ele>
        <time>2021-09-25T09:48:30.000Z</time>
      </trkpt>
      <trkpt lat="40.54097880609333515167236328125" lon="-1.324866078794002532958984375">
        <ele>1025</ele>
        <time>2021-09-25T09:48:32.000Z</time>
      </trkpt>
      <trkpt lat="40.54090018384158611297607421875" lon="-1.3248159550130367279052734375">
        <ele>1025</ele>
        <time>2021-09-25T09:48:34.000Z</time>
      </trkpt>
      <trkpt lat="40.54082105867564678192138671875" lon="-1.3247696869075298309326171875">
        <ele>1025.199951171875</ele>
        <time>2021-09-25T09:48:36.000Z</time>
      </trkpt>
      <trkpt lat="40.54078300483524799346923828125" lon="-1.3247475586831569671630859375">
        <ele>1025.4000244140625</ele>
        <time>2021-09-25T09:48:37.000Z</time>
      </trkpt>
      <trkpt lat="40.54074679501354694366455078125" lon="-1.3247240893542766571044921875">
        <ele>1025.5999755859375</ele>
        <time>2021-09-25T09:48:38.000Z</time>
      </trkpt>
      <trkpt lat="40.5406758002936840057373046875" lon="-1.32467773742973804473876953125">
        <ele>1025.5999755859375</ele>
        <time>2021-09-25T09:48:40.000Z</time>
      </trkpt>
      <trkpt lat="40.540605224668979644775390625" lon="-1.32463314570486545562744140625">
        <ele>1025.800048828125</ele>
        <time>2021-09-25T09:48:42.000Z</time>
      </trkpt>
      <trkpt lat="40.54053607396781444549560546875" lon="-1.3245866261422634124755859375">
        <ele>1025.5999755859375</ele>
        <time>2021-09-25T09:48:44.000Z</time>
      </trkpt>
      <trkpt lat="40.54046600125730037689208984375" lon="-1.32453843019902706146240234375">
        <ele>1025.5999755859375</ele>
        <time>2021-09-25T09:48:46.000Z</time>
      </trkpt>
      <trkpt lat="40.54040129296481609344482421875" lon="-1.324498616158962249755859375">
        <ele>1025.5999755859375</ele>
        <time>2021-09-25T09:48:48.000Z</time>
      </trkpt>
      <trkpt lat="40.5403267778456211090087890625" lon="-1.32445762865245342254638671875">
        <ele>1025.800048828125</ele>
        <time>2021-09-25T09:48:50.000Z</time>
      </trkpt>
      <trkpt lat="40.54029048420488834381103515625" lon="-1.324436254799365997314453125">
        <ele>1026</ele>
        <time>2021-09-25T09:48:51.000Z</time>
      </trkpt>
      <trkpt lat="40.54025360383093357086181640625" lon="-1.32441110908985137939453125">
        <ele>1026.199951171875</ele>
        <time>2021-09-25T09:48:52.000Z</time>
      </trkpt>
      <trkpt lat="40.540174059569835662841796875" lon="-1.32436257787048816680908203125">
        <ele>1026.199951171875</ele>
        <time>2021-09-25T09:48:54.000Z</time>
      </trkpt>
      <trkpt lat="40.5400964431464672088623046875" lon="-1.32431781850755214691162109375">
        <ele>1026.4000244140625</ele>
        <time>2021-09-25T09:48:56.000Z</time>
      </trkpt>
      <trkpt lat="40.5400196649134159088134765625" lon="-1.3242677785456180572509765625">
        <ele>1026.5999755859375</ele>
        <time>2021-09-25T09:48:58.000Z</time>
      </trkpt>
      <trkpt lat="40.53994447924196720123291015625" lon="-1.3242211751639842987060546875">
        <ele>1026.5999755859375</ele>
        <time>2021-09-25T09:49:00.000Z</time>
      </trkpt>
      <trkpt lat="40.5398713052272796630859375" lon="-1.32417247630655765533447265625">
        <ele>1026.5999755859375</ele>
        <time>2021-09-25T09:49:02.000Z</time>
      </trkpt>
      <trkpt lat="40.539801232516765594482421875" lon="-1.32412184961140155792236328125">
        <ele>1026.800048828125</ele>
        <time>2021-09-25T09:49:04.000Z</time>
      </trkpt>
      <trkpt lat="40.53973174653947353363037109375" lon="-1.3240756653249263763427734375">
        <ele>1026.800048828125</ele>
        <time>2021-09-25T09:49:06.000Z</time>
      </trkpt>
      <trkpt lat="40.5396957881748676300048828125" lon="-1.32405194453895092010498046875">
        <ele>1026.800048828125</ele>
        <time>2021-09-25T09:49:07.000Z</time>
      </trkpt>
      <trkpt lat="40.53965739905834197998046875" lon="-1.32402998395264148712158203125">
        <ele>1026.5999755859375</ele>
        <time>2021-09-25T09:49:08.000Z</time>
      </trkpt>
      <trkpt lat="40.53958003409206867218017578125" lon="-1.3239799439907073974609375">
        <ele>1026.5999755859375</ele>
        <time>2021-09-25T09:49:10.000Z</time>
      </trkpt>
      <trkpt lat="40.53950308822095394134521484375" lon="-1.32393292151391506195068359375">
        <ele>1026.4000244140625</ele>
        <time>2021-09-25T09:49:12.000Z</time>
      </trkpt>
      <trkpt lat="40.53942672908306121826171875" lon="-1.32388397119939327239990234375">
        <ele>1026</ele>
        <time>2021-09-25T09:49:14.000Z</time>
      </trkpt>
      <trkpt lat="40.53935036994516849517822265625" lon="-1.3238329254090785980224609375">
        <ele>1026</ele>
        <time>2021-09-25T09:49:16.000Z</time>
      </trkpt>
      <trkpt lat="40.539311729371547698974609375" lon="-1.32381054572761058807373046875">
        <ele>1026</ele>
        <time>2021-09-25T09:49:17.000Z</time>
      </trkpt>
      <trkpt lat="40.5392733402550220489501953125" lon="-1.32378623820841312408447265625">
        <ele>1026</ele>
        <time>2021-09-25T09:49:18.000Z</time>
      </trkpt>
      <trkpt lat="40.53919832222163677215576171875" lon="-1.32373997010290622711181640625">
        <ele>1026</ele>
        <time>2021-09-25T09:49:20.000Z</time>
      </trkpt>
      <trkpt lat="40.5391204543411731719970703125" lon="-1.32369068451225757598876953125">
        <ele>1025.800048828125</ele>
        <time>2021-09-25T09:49:22.000Z</time>
      </trkpt>
      <trkpt lat="40.5390446819365024566650390625" lon="-1.3236421532928943634033203125">
        <ele>1025.800048828125</ele>
        <time>2021-09-25T09:49:24.000Z</time>
      </trkpt>
      <trkpt lat="40.53900537081062793731689453125" lon="-1.3236156664788722991943359375">
        <ele>1025.800048828125</ele>
        <time>2021-09-25T09:49:25.000Z</time>
      </trkpt>
      <trkpt lat="40.5389628745615482330322265625" lon="-1.32358909584581851959228515625">
        <ele>1026</ele>
        <time>2021-09-25T09:49:26.000Z</time>
      </trkpt>
      <trkpt lat="40.5388814024627208709716796875" lon="-1.32353545166552066802978515625">
        <ele>1026.199951171875</ele>
        <time>2021-09-25T09:49:28.000Z</time>
      </trkpt>
      <trkpt lat="40.5387985892593860626220703125" lon="-1.32348147220909595489501953125">
        <ele>1026.5999755859375</ele>
        <time>2021-09-25T09:49:30.000Z</time>
      </trkpt>
      <trkpt lat="40.53871326148509979248046875" lon="-1.32342816330492496490478515625">
        <ele>1027.199951171875</ele>
        <time>2021-09-25T09:49:32.000Z</time>
      </trkpt>
      <trkpt lat="40.5386322923004627227783203125" lon="-1.32337837480008602142333984375">
        <ele>1027.5999755859375</ele>
        <time>2021-09-25T09:49:34.000Z</time>
      </trkpt>
      <trkpt lat="40.538552664220333099365234375" lon="-1.32333126850426197052001953125">
        <ele>1028</ele>
        <time>2021-09-25T09:49:36.000Z</time>
      </trkpt>
      <trkpt lat="40.53847362287342548370361328125" lon="-1.32328030653297901153564453125">
        <ele>1028.5999755859375</ele>
        <time>2021-09-25T09:49:38.000Z</time>
      </trkpt>
      <trkpt lat="40.538397096097469329833984375" lon="-1.3232364691793918609619140625">
        <ele>1028.800048828125</ele>
        <time>2021-09-25T09:49:40.000Z</time>
      </trkpt>
      <trkpt lat="40.53832090459764003753662109375" lon="-1.32318726740777492523193359375">
        <ele>1029</ele>
        <time>2021-09-25T09:49:42.000Z</time>
      </trkpt>
      <trkpt lat="40.5382815934717655181884765625" lon="-1.32316279225051403045654296875">
        <ele>1029</ele>
        <time>2021-09-25T09:49:43.000Z</time>
      </trkpt>
      <trkpt lat="40.538240857422351837158203125" lon="-1.3231385685503482818603515625">
        <ele>1029</ele>
        <time>2021-09-25T09:49:44.000Z</time>
      </trkpt>
      <trkpt lat="40.5381632409989833831787109375" lon="-1.323089115321636199951171875">
        <ele>1029</ele>
        <time>2021-09-25T09:49:46.000Z</time>
      </trkpt>
      <trkpt lat="40.53808503784239292144775390625" lon="-1.3230373151600360870361328125">
        <ele>1029</ele>
        <time>2021-09-25T09:49:48.000Z</time>
      </trkpt>
      <trkpt lat="40.53800675086677074432373046875" lon="-1.32298559881746768951416015625">
        <ele>1029.199951171875</ele>
        <time>2021-09-25T09:49:50.000Z</time>
      </trkpt>
      <trkpt lat="40.5379255302250385284423828125" lon="-1.32293363101780414581298828125">
        <ele>1029.5999755859375</ele>
        <time>2021-09-25T09:49:52.000Z</time>
      </trkpt>
      <trkpt lat="40.53788353689014911651611328125" lon="-1.3229075632989406585693359375">
        <ele>1029.5999755859375</ele>
        <time>2021-09-25T09:49:53.000Z</time>
      </trkpt>
      <trkpt lat="40.5378410406410694122314453125" lon="-1.32288116030395030975341796875">
        <ele>1029.800048828125</ele>
        <time>2021-09-25T09:49:54.000Z</time>
      </trkpt>
      <trkpt lat="40.5377531982958316802978515625" lon="-1.32282734848558902740478515625">
        <ele>1030</ele>
        <time>2021-09-25T09:49:56.000Z</time>
      </trkpt>
      <trkpt lat="40.53766594268381595611572265625" lon="-1.32277504540979862213134765625">
        <ele>1030</ele>
        <time>2021-09-25T09:49:58.000Z</time>
      </trkpt>
      <trkpt lat="40.53758614696562290191650390625" lon="-1.32272492162883281707763671875">
        <ele>1030</ele>
        <time>2021-09-25T09:50:00.000Z</time>
      </trkpt>
      <trkpt lat="40.53750651888549327850341796875" lon="-1.32267496548593044281005859375">
        <ele>1029.800048828125</ele>
        <time>2021-09-25T09:50:02.000Z</time>
      </trkpt>
      <trkpt lat="40.53742806427180767059326171875" lon="-1.32262635044753551483154296875">
        <ele>1029.4000244140625</ele>
        <time>2021-09-25T09:50:04.000Z</time>
      </trkpt>
      <trkpt lat="40.53734608925879001617431640625" lon="-1.32258008234202861785888671875">
        <ele>1029</ele>
        <time>2021-09-25T09:50:06.000Z</time>
      </trkpt>
      <trkpt lat="40.53726260550320148468017578125" lon="-1.32252962328493595123291015625">
        <ele>1029</ele>
        <time>2021-09-25T09:50:08.000Z</time>
      </trkpt>
      <trkpt lat="40.53717711009085178375244140625" lon="-1.3224767334759235382080078125">
        <ele>1029</ele>
        <time>2021-09-25T09:50:10.000Z</time>
      </trkpt>
      <trkpt lat="40.53709111176431179046630859375" lon="-1.32243172265589237213134765625">
        <ele>1029</ele>
        <time>2021-09-25T09:50:12.000Z</time>
      </trkpt>
      <trkpt lat="40.537006370723247528076171875" lon="-1.3223825208842754364013671875">
        <ele>1028.800048828125</ele>
        <time>2021-09-25T09:50:14.000Z</time>
      </trkpt>
      <trkpt lat="40.5369237251579761505126953125" lon="-1.3223342411220073699951171875">
        <ele>1029</ele>
        <time>2021-09-25T09:50:16.000Z</time>
      </trkpt>
      <trkpt lat="40.53688106127083301544189453125" lon="-1.32231186144053936004638671875">
        <ele>1029</ele>
        <time>2021-09-25T09:50:17.000Z</time>
      </trkpt>
      <trkpt lat="40.5368405766785144805908203125" lon="-1.322288475930690765380859375">
        <ele>1029</ele>
        <time>2021-09-25T09:50:18.000Z</time>
      </trkpt>
      <trkpt lat="40.53675482980906963348388671875" lon="-1.32224790751934051513671875">
        <ele>1028.5999755859375</ele>
        <time>2021-09-25T09:50:20.000Z</time>
      </trkpt>
      <trkpt lat="40.53666983731091022491455078125" lon="-1.32221060805022716522216796875">
        <ele>1028.199951171875</ele>
        <time>2021-09-25T09:50:22.000Z</time>
      </trkpt>
      <trkpt lat="40.536587946116924285888671875" lon="-1.3221706263720989227294921875">
        <ele>1028</ele>
        <time>2021-09-25T09:50:24.000Z</time>
      </trkpt>
      <trkpt lat="40.53650672547519207000732421875" lon="-1.32213793694972991943359375">
        <ele>1028</ele>
        <time>2021-09-25T09:50:26.000Z</time>
      </trkpt>
      <trkpt lat="40.536465235054492950439453125" lon="-1.32211916148662567138671875">
        <ele>1028</ele>
        <time>2021-09-25T09:50:27.000Z</time>
      </trkpt>
      <trkpt lat="40.53642123006284236907958984375" lon="-1.32210046984255313873291015625">
        <ele>1028</ele>
        <time>2021-09-25T09:50:28.000Z</time>
      </trkpt>
      <trkpt lat="40.536333136260509490966796875" lon="-1.32206476293504238128662109375">
        <ele>1028</ele>
        <time>2021-09-25T09:50:30.000Z</time>
      </trkpt>
      <trkpt lat="40.5362441204488277435302734375" lon="-1.32202855311334133148193359375">
        <ele>1028</ele>
        <time>2021-09-25T09:50:32.000Z</time>
      </trkpt>
      <trkpt lat="40.53615535609424114227294921875" lon="-1.3219868950545787811279296875">
        <ele>1028</ele>
        <time>2021-09-25T09:50:34.000Z</time>
      </trkpt>
      <trkpt lat="40.536064244806766510009765625" lon="-1.32195395417511463165283203125">
        <ele>1028</ele>
        <time>2021-09-25T09:50:36.000Z</time>
      </trkpt>
      <trkpt lat="40.53597782738506793975830078125" lon="-1.32191791199147701263427734375">
        <ele>1027.5999755859375</ele>
        <time>2021-09-25T09:50:38.000Z</time>
      </trkpt>
      <trkpt lat="40.53588931448757648468017578125" lon="-1.32188991643488407135009765625">
        <ele>1027.199951171875</ele>
        <time>2021-09-25T09:50:40.000Z</time>
      </trkpt>
      <trkpt lat="40.5357988737523555755615234375" lon="-1.321859657764434814453125">
        <ele>1027</ele>
        <time>2021-09-25T09:50:42.000Z</time>
      </trkpt>
      <trkpt lat="40.5357541143894195556640625" lon="-1.32184314541518688201904296875">
        <ele>1027</ele>
        <time>2021-09-25T09:50:43.000Z</time>
      </trkpt>
      <trkpt lat="40.53570893593132495880126953125" lon="-1.32182822562754154205322265625">
        <ele>1027</ele>
        <time>2021-09-25T09:50:44.000Z</time>
      </trkpt>
      <trkpt lat="40.5356132984161376953125" lon="-1.3218018226325511932373046875">
        <ele>1026.800048828125</ele>
        <time>2021-09-25T09:50:46.000Z</time>
      </trkpt>
      <trkpt lat="40.5355242826044559478759765625" lon="-1.32177240215241909027099609375">
        <ele>1026.4000244140625</ele>
        <time>2021-09-25T09:50:48.000Z</time>
      </trkpt>
      <trkpt lat="40.53543568588793277740478515625" lon="-1.32174457423388957977294921875">
        <ele>1026</ele>
        <time>2021-09-25T09:50:50.000Z</time>
      </trkpt>
      <trkpt lat="40.53534365259110927581787109375" lon="-1.3217156566679477691650390625">
        <ele>1026</ele>
        <time>2021-09-25T09:50:52.000Z</time>
      </trkpt>
      <trkpt lat="40.5352979712188243865966796875" lon="-1.32169964723289012908935546875">
        <ele>1026</ele>
        <time>2021-09-25T09:50:53.000Z</time>
      </trkpt>
      <trkpt lat="40.53525228984653949737548828125" lon="-1.3216861523687839508056640625">
        <ele>1026.199951171875</ele>
        <time>2021-09-25T09:50:54.000Z</time>
      </trkpt>
      <trkpt lat="40.53515799343585968017578125" lon="-1.3216650299727916717529296875">
        <ele>1026.4000244140625</ele>
        <time>2021-09-25T09:50:56.000Z</time>
      </trkpt>
      <trkpt lat="40.53506948053836822509765625" lon="-1.321638040244579315185546875">
        <ele>1026.800048828125</ele>
        <time>2021-09-25T09:50:58.000Z</time>
      </trkpt>
      <trkpt lat="40.53498239256441593170166015625" lon="-1.32161130197346210479736328125">
        <ele>1027</ele>
        <time>2021-09-25T09:51:00.000Z</time>
      </trkpt>
      <trkpt lat="40.53494207561016082763671875" lon="-1.3215959630906581878662109375">
        <ele>1027.199951171875</ele>
        <time>2021-09-25T09:51:01.000Z</time>
      </trkpt>
      <trkpt lat="40.5348993279039859771728515625" lon="-1.321584396064281463623046875">
        <ele>1027.4000244140625</ele>
        <time>2021-09-25T09:51:02.000Z</time>
      </trkpt>
      <trkpt lat="40.5348134972155094146728515625" lon="-1.32155866362154483795166015625">
        <ele>1027.800048828125</ele>
        <time>2021-09-25T09:51:04.000Z</time>
      </trkpt>
      <trkpt lat="40.53472372703254222869873046875" lon="-1.3215309195220470428466796875">
        <ele>1028.4000244140625</ele>
        <time>2021-09-25T09:51:06.000Z</time>
      </trkpt>
      <trkpt lat="40.534637309610843658447265625" lon="-1.32150200195610523223876953125">
        <ele>1028.800048828125</ele>
        <time>2021-09-25T09:51:08.000Z</time>
      </trkpt>
      <trkpt lat="40.5345962382853031158447265625" lon="-1.3214863277971744537353515625">
        <ele>1029</ele>
        <time>2021-09-25T09:51:09.000Z</time>
      </trkpt>
      <trkpt lat="40.53455424495041370391845703125" lon="-1.32146964780986309051513671875">
        <ele>1029</ele>
        <time>2021-09-25T09:51:10.000Z</time>
      </trkpt>
      <trkpt lat="40.534469671547412872314453125" lon="-1.3214427419006824493408203125">
        <ele>1029</ele>
        <time>2021-09-25T09:51:12.000Z</time>
      </trkpt>
      <trkpt lat="40.53437612950801849365234375" lon="-1.321418099105358123779296875">
        <ele>1028.800048828125</ele>
        <time>2021-09-25T09:51:14.000Z</time>
      </trkpt>
      <trkpt lat="40.534324161708354949951171875" lon="-1.3214065320789813995361328125">
        <ele>1028.4000244140625</ele>
        <time>2021-09-25T09:51:15.000Z</time>
      </trkpt>
      <trkpt lat="40.5342723615467548370361328125" lon="-1.32139504887163639068603515625">
        <ele>1027.800048828125</ele>
        <time>2021-09-25T09:51:16.000Z</time>
      </trkpt>
      <trkpt lat="40.5341704376041889190673828125" lon="-1.3213693164288997650146484375">
        <ele>1027</ele>
        <time>2021-09-25T09:51:18.000Z</time>
      </trkpt>
      <trkpt lat="40.534074045717716217041015625" lon="-1.32134190760552883148193359375">
        <ele>1026.5999755859375</ele>
        <time>2021-09-25T09:51:20.000Z</time>
      </trkpt>
      <trkpt lat="40.53397916257381439208984375" lon="-1.32131407968699932098388671875">
        <ele>1026.199951171875</ele>
        <time>2021-09-25T09:51:22.000Z</time>
      </trkpt>
      <trkpt lat="40.5338884703814983367919921875" lon="-1.32128641940653324127197265625">
        <ele>1025.800048828125</ele>
        <time>2021-09-25T09:51:24.000Z</time>
      </trkpt>
      <trkpt lat="40.53380842320621013641357421875" lon="-1.32126160897314548492431640625">
        <ele>1025.4000244140625</ele>
        <time>2021-09-25T09:51:26.000Z</time>
      </trkpt>
      <trkpt lat="40.5337263643741607666015625" lon="-1.3212432526051998138427734375">
        <ele>1025</ele>
        <time>2021-09-25T09:51:28.000Z</time>
      </trkpt>
      <trkpt lat="40.53364078514277935028076171875" lon="-1.321218274533748626708984375">
        <ele>1024.5999755859375</ele>
        <time>2021-09-25T09:51:30.000Z</time>
      </trkpt>
      <trkpt lat="40.533557049930095672607421875" lon="-1.321189105510711669921875">
        <ele>1024.199951171875</ele>
        <time>2021-09-25T09:51:32.000Z</time>
      </trkpt>
      <trkpt lat="40.533472560346126556396484375" lon="-1.32116002030670642852783203125">
        <ele>1024</ele>
        <time>2021-09-25T09:51:34.000Z</time>
      </trkpt>
      <trkpt lat="40.533383376896381378173828125" lon="-1.3211342878639698028564453125">
        <ele>1024</ele>
        <time>2021-09-25T09:51:36.000Z</time>
      </trkpt>
      <trkpt lat="40.5332972109317779541015625" lon="-1.321107633411884307861328125">
        <ele>1024</ele>
        <time>2021-09-25T09:51:38.000Z</time>
      </trkpt>
      <trkpt lat="40.53320936858654022216796875" lon="-1.3210839964449405670166015625">
        <ele>1023.5999755859375</ele>
        <time>2021-09-25T09:51:40.000Z</time>
      </trkpt>
      <trkpt lat="40.53312060423195362091064453125" lon="-1.32105524651706218719482421875">
        <ele>1023.20001220703125</ele>
        <time>2021-09-25T09:51:42.000Z</time>
      </trkpt>
      <trkpt lat="40.5330757610499858856201171875" lon="-1.32104317657649517059326171875">
        <ele>1023</ele>
        <time>2021-09-25T09:51:43.000Z</time>
      </trkpt>
      <trkpt lat="40.5330318398773670196533203125" lon="-1.32103160955011844635009765625">
        <ele>1023.20001220703125</ele>
        <time>2021-09-25T09:51:44.000Z</time>
      </trkpt>
      <trkpt lat="40.5329419858753681182861328125" lon="-1.32100881077349185943603515625">
        <ele>1023.4000244140625</ele>
        <time>2021-09-25T09:51:46.000Z</time>
      </trkpt>
      <trkpt lat="40.5328528024256229400634765625" lon="-1.32098450325429439544677734375">
        <ele>1023.79998779296875</ele>
        <time>2021-09-25T09:51:48.000Z</time>
      </trkpt>
      <trkpt lat="40.53276303224265575408935546875" lon="-1.32095013745129108428955078125">
        <ele>1023.5999755859375</ele>
        <time>2021-09-25T09:51:50.000Z</time>
      </trkpt>
      <trkpt lat="40.53266932256519794464111328125" lon="-1.32092021405696868896484375">
        <ele>1023.4000244140625</ele>
        <time>2021-09-25T09:51:52.000Z</time>
      </trkpt>
      <trkpt lat="40.53257678635418415069580078125" lon="-1.320895068347454071044921875">
        <ele>1023.79998779296875</ele>
        <time>2021-09-25T09:51:54.000Z</time>
      </trkpt>
      <trkpt lat="40.53248173557221889495849609375" lon="-1.32087034173309803009033203125">
        <ele>1024</ele>
        <time>2021-09-25T09:51:56.000Z</time>
      </trkpt>
      <trkpt lat="40.53239121101796627044677734375" lon="-1.32083999924361705780029296875">
        <ele>1023.79998779296875</ele>
        <time>2021-09-25T09:51:58.000Z</time>
      </trkpt>
      <trkpt lat="40.5322994291782379150390625" lon="-1.3208137638866901397705078125">
        <ele>1023.4000244140625</ele>
        <time>2021-09-25T09:52:00.000Z</time>
      </trkpt>
      <trkpt lat="40.5322073958814144134521484375" lon="-1.320785768330097198486328125">
        <ele>1023</ele>
        <time>2021-09-25T09:52:02.000Z</time>
      </trkpt>
      <trkpt lat="40.532118715345859527587890625" lon="-1.32075794041156768798828125">
        <ele>1022.5999755859375</ele>
        <time>2021-09-25T09:52:04.000Z</time>
      </trkpt>
      <trkpt lat="40.53203053772449493408203125" lon="-1.3207326270639896392822265625">
        <ele>1022.4000244140625</ele>
        <time>2021-09-25T09:52:06.000Z</time>
      </trkpt>
      <trkpt lat="40.53194068372249603271484375" lon="-1.32070622406899929046630859375">
        <ele>1022</ele>
        <time>2021-09-25T09:52:08.000Z</time>
      </trkpt>
      <trkpt lat="40.531855858862400054931640625" lon="-1.32067588157951831817626953125">
        <ele>1021.5999755859375</ele>
        <time>2021-09-25T09:52:10.000Z</time>
      </trkpt>
      <trkpt lat="40.5317661724984645843505859375" lon="-1.32064805366098880767822265625">
        <ele>1021.4000244140625</ele>
        <time>2021-09-25T09:52:12.000Z</time>
      </trkpt>
      <trkpt lat="40.53167154081165790557861328125" lon="-1.3206219859421253204345703125">
        <ele>1021.5999755859375</ele>
        <time>2021-09-25T09:52:14.000Z</time>
      </trkpt>
      <trkpt lat="40.5315777473151683807373046875" lon="-1.32059072144329547882080078125">
        <ele>1021.5999755859375</ele>
        <time>2021-09-25T09:52:16.000Z</time>
      </trkpt>
      <trkpt lat="40.531529970467090606689453125" lon="-1.3205750472843647003173828125">
        <ele>1021.79998779296875</ele>
        <time>2021-09-25T09:52:17.000Z</time>
      </trkpt>
      <trkpt lat="40.531483702361583709716796875" lon="-1.32055870257318019866943359375">
        <ele>1021.79998779296875</ele>
        <time>2021-09-25T09:52:18.000Z</time>
      </trkpt>
      <trkpt lat="40.53138957358896732330322265625" lon="-1.3205311261117458343505859375">
        <ele>1022</ele>
        <time>2021-09-25T09:52:20.000Z</time>
      </trkpt>
      <trkpt lat="40.53129821084439754486083984375" lon="-1.32050304673612117767333984375">
        <ele>1022</ele>
        <time>2021-09-25T09:52:22.000Z</time>
      </trkpt>
      <trkpt lat="40.53120919503271579742431640625" lon="-1.3204737938940525054931640625">
        <ele>1022</ele>
        <time>2021-09-25T09:52:24.000Z</time>
      </trkpt>
      <trkpt lat="40.53116594441235065460205078125" lon="-1.3204600475728511810302734375">
        <ele>1022</ele>
        <time>2021-09-25T09:52:25.000Z</time>
      </trkpt>
      <trkpt lat="40.531122274696826934814453125" lon="-1.320448815822601318359375">
        <ele>1022</ele>
        <time>2021-09-25T09:52:26.000Z</time>
      </trkpt>
      <trkpt lat="40.531040132045745849609375" lon="-1.32042425684630870819091796875">
        <ele>1021.79998779296875</ele>
        <time>2021-09-25T09:52:28.000Z</time>
      </trkpt>
      <trkpt lat="40.5309556424617767333984375" lon="-1.32039693184196949005126953125">
        <ele>1021.4000244140625</ele>
        <time>2021-09-25T09:52:30.000Z</time>
      </trkpt>
      <trkpt lat="40.53091264329850673675537109375" lon="-1.320384778082370758056640625">
        <ele>1021.20001220703125</ele>
        <time>2021-09-25T09:52:31.000Z</time>
      </trkpt>
      <trkpt lat="40.53086972795426845550537109375" lon="-1.320373713970184326171875">
        <ele>1021.20001220703125</ele>
        <time>2021-09-25T09:52:32.000Z</time>
      </trkpt>
      <trkpt lat="40.53078020922839641571044921875" lon="-1.32035451941192150115966796875">
        <ele>1020.79998779296875</ele>
        <time>2021-09-25T09:52:34.000Z</time>
      </trkpt>
      <trkpt lat="40.530697815120220184326171875" lon="-1.3203279487788677215576171875">
        <ele>1020.5999755859375</ele>
        <time>2021-09-25T09:52:36.000Z</time>
      </trkpt>
      <trkpt lat="40.53061106242239475250244140625" lon="-1.3202987797558307647705078125">
        <ele>1020.79998779296875</ele>
        <time>2021-09-25T09:52:38.000Z</time>
      </trkpt>
      <trkpt lat="40.530522130429744720458984375" lon="-1.320274136960506439208984375">
        <ele>1020.79998779296875</ele>
        <time>2021-09-25T09:52:40.000Z</time>
      </trkpt>
      <trkpt lat="40.53043588064610958099365234375" lon="-1.3202471472322940826416015625">
        <ele>1021</ele>
        <time>2021-09-25T09:52:42.000Z</time>
      </trkpt>
      <trkpt lat="40.5303506366908550262451171875" lon="-1.3202240131795406341552734375">
        <ele>1021</ele>
        <time>2021-09-25T09:52:44.000Z</time>
      </trkpt>
      <trkpt lat="40.53026706911623477935791015625" lon="-1.3201988674700260162353515625">
        <ele>1021.20001220703125</ele>
        <time>2021-09-25T09:52:46.000Z</time>
      </trkpt>
      <trkpt lat="40.5301836691796779632568359375" lon="-1.3201707042753696441650390625">
        <ele>1021.5999755859375</ele>
        <time>2021-09-25T09:52:48.000Z</time>
      </trkpt>
      <trkpt lat="40.53009842522442340850830078125" lon="-1.3201443850994110107421875">
        <ele>1022</ele>
        <time>2021-09-25T09:52:50.000Z</time>
      </trkpt>
      <trkpt lat="40.53001091815531253814697265625" lon="-1.32012133486568927764892578125">
        <ele>1022.4000244140625</ele>
        <time>2021-09-25T09:52:52.000Z</time>
      </trkpt>
      <trkpt lat="40.52992676384747028350830078125" lon="-1.32009635679423809051513671875">
        <ele>1022.79998779296875</ele>
        <time>2021-09-25T09:52:54.000Z</time>
      </trkpt>
      <trkpt lat="40.5298453755676746368408203125" lon="-1.3200707919895648956298828125">
        <ele>1023</ele>
        <time>2021-09-25T09:52:56.000Z</time>
      </trkpt>
      <trkpt lat="40.52980371750891208648681640625" lon="-1.32005997933447360992431640625">
        <ele>1023</ele>
        <time>2021-09-25T09:52:57.000Z</time>
      </trkpt>
      <trkpt lat="40.52976281382143497467041015625" lon="-1.32005008868873119354248046875">
        <ele>1023</ele>
        <time>2021-09-25T09:52:58.000Z</time>
      </trkpt>
      <trkpt lat="40.52967882715165615081787109375" lon="-1.32002444006502628326416015625">
        <ele>1023</ele>
        <time>2021-09-25T09:53:00.000Z</time>
      </trkpt>
      <trkpt lat="40.52959618158638477325439453125" lon="-1.31999485194683074951171875">
        <ele>1022.5999755859375</ele>
        <time>2021-09-25T09:53:02.000Z</time>
      </trkpt>
      <trkpt lat="40.52951068617403507232666015625" lon="-1.31996794603765010833740234375">
        <ele>1022.20001220703125</ele>
        <time>2021-09-25T09:53:04.000Z</time>
      </trkpt>
      <trkpt lat="40.5294214189052581787109375" lon="-1.31994280032813549041748046875">
        <ele>1021.79998779296875</ele>
        <time>2021-09-25T09:53:06.000Z</time>
      </trkpt>
      <trkpt lat="40.5293300561606884002685546875" lon="-1.31991698406636714935302734375">
        <ele>1021.5999755859375</ele>
        <time>2021-09-25T09:53:08.000Z</time>
      </trkpt>
      <trkpt lat="40.5292398668825626373291015625" lon="-1.3198930956423282623291015625">
        <ele>1021.20001220703125</ele>
        <time>2021-09-25T09:53:10.000Z</time>
      </trkpt>
      <trkpt lat="40.529150851070880889892578125" lon="-1.319865770637989044189453125">
        <ele>1021</ele>
        <time>2021-09-25T09:53:12.000Z</time>
      </trkpt>
      <trkpt lat="40.529060661792755126953125" lon="-1.31983819417655467987060546875">
        <ele>1021</ele>
        <time>2021-09-25T09:53:14.000Z</time>
      </trkpt>
      <trkpt lat="40.528968460857868194580078125" lon="-1.319810114800930023193359375">
        <ele>1021</ele>
        <time>2021-09-25T09:53:16.000Z</time>
      </trkpt>
      <trkpt lat="40.52888103760778903961181640625" lon="-1.31978371180593967437744140625">
        <ele>1021</ele>
        <time>2021-09-25T09:53:18.000Z</time>
      </trkpt>
      <trkpt lat="40.52879168651998043060302734375" lon="-1.31975923664867877960205078125">
        <ele>1021</ele>
        <time>2021-09-25T09:53:20.000Z</time>
      </trkpt>
      <trkpt lat="40.52870334126055240631103515625" lon="-1.319728977978229522705078125">
        <ele>1021</ele>
        <time>2021-09-25T09:53:22.000Z</time>
      </trkpt>
      <trkpt lat="40.528611727058887481689453125" lon="-1.319704838097095489501953125">
        <ele>1021</ele>
        <time>2021-09-25T09:53:24.000Z</time>
      </trkpt>
      <trkpt lat="40.528525896370410919189453125" lon="-1.319682039320468902587890625">
        <ele>1021</ele>
        <time>2021-09-25T09:53:26.000Z</time>
      </trkpt>
      <trkpt lat="40.52843998186290264129638671875" lon="-1.31966083310544490814208984375">
        <ele>1021</ele>
        <time>2021-09-25T09:53:28.000Z</time>
      </trkpt>
      <trkpt lat="40.52834761328995227813720703125" lon="-1.31963468156754970550537109375">
        <ele>1021</ele>
        <time>2021-09-25T09:53:30.000Z</time>
      </trkpt>
      <trkpt lat="40.5282608605921268463134765625" lon="-1.3196047581732273101806640625">
        <ele>1020.4000244140625</ele>
        <time>2021-09-25T09:53:32.000Z</time>
      </trkpt>
      <trkpt lat="40.528212748467922210693359375" lon="-1.31959252059459686279296875">
        <ele>1020.20001220703125</ele>
        <time>2021-09-25T09:53:33.000Z</time>
      </trkpt>
      <trkpt lat="40.52816639654338359832763671875" lon="-1.31957952864468097686767578125">
        <ele>1020</ele>
        <time>2021-09-25T09:53:34.000Z</time>
      </trkpt>
      <trkpt lat="40.528073608875274658203125" lon="-1.31955354474484920501708984375">
        <ele>1019.5999755859375</ele>
        <time>2021-09-25T09:53:36.000Z</time>
      </trkpt>
      <trkpt lat="40.52797847427427768707275390625" lon="-1.319525800645351409912109375">
        <ele>1019.20001220703125</ele>
        <time>2021-09-25T09:53:38.000Z</time>
      </trkpt>
      <trkpt lat="40.5278866924345493316650390625" lon="-1.3194971345365047454833984375">
        <ele>1019</ele>
        <time>2021-09-25T09:53:40.000Z</time>
      </trkpt>
      <trkpt lat="40.5277931503951549530029296875" lon="-1.3194683007895946502685546875">
        <ele>1019</ele>
        <time>2021-09-25T09:53:42.000Z</time>
      </trkpt>
      <trkpt lat="40.52769667468965053558349609375" lon="-1.31944206543266773223876953125">
        <ele>1019.20001220703125</ele>
        <time>2021-09-25T09:53:44.000Z</time>
      </trkpt>
      <trkpt lat="40.52760489284992218017578125" lon="-1.3194106332957744598388671875">
        <ele>1019</ele>
        <time>2021-09-25T09:53:46.000Z</time>
      </trkpt>
      <trkpt lat="40.527511350810527801513671875" lon="-1.319384314119815826416015625">
        <ele>1019</ele>
        <time>2021-09-25T09:53:48.000Z</time>
      </trkpt>
      <trkpt lat="40.5274230055510997772216796875" lon="-1.319360174238681793212890625">
        <ele>1019.4000244140625</ele>
        <time>2021-09-25T09:53:50.000Z</time>
      </trkpt>
      <trkpt lat="40.5273784138262271881103515625" lon="-1.31934701465070247650146484375">
        <ele>1019.79998779296875</ele>
        <time>2021-09-25T09:53:51.000Z</time>
      </trkpt>
      <trkpt lat="40.52733424119651317596435546875" lon="-1.31933008320629596710205078125">
        <ele>1020</ele>
        <time>2021-09-25T09:53:52.000Z</time>
      </trkpt>
      <trkpt lat="40.52724321372807025909423828125" lon="-1.3193030096590518951416015625">
        <ele>1020.20001220703125</ele>
        <time>2021-09-25T09:53:54.000Z</time>
      </trkpt>
      <trkpt lat="40.5271549522876739501953125" lon="-1.31927467882633209228515625">
        <ele>1020.20001220703125</ele>
        <time>2021-09-25T09:53:56.000Z</time>
      </trkpt>
      <trkpt lat="40.52706417627632617950439453125" lon="-1.3192443363368511199951171875">
        <ele>1020</ele>
        <time>2021-09-25T09:53:58.000Z</time>
      </trkpt>
      <trkpt lat="40.526968203485012054443359375" lon="-1.3192190229892730712890625">
        <ele>1019.79998779296875</ele>
        <time>2021-09-25T09:54:00.000Z</time>
      </trkpt>
      <trkpt lat="40.5268778465688228607177734375" lon="-1.319193877279758453369140625">
        <ele>1019.5999755859375</ele>
        <time>2021-09-25T09:54:02.000Z</time>
      </trkpt>
      <trkpt lat="40.526791512966156005859375" lon="-1.3191685639321804046630859375">
        <ele>1019.79998779296875</ele>
        <time>2021-09-25T09:54:04.000Z</time>
      </trkpt>
      <trkpt lat="40.5267083644866943359375" lon="-1.319141574203968048095703125">
        <ele>1020</ele>
        <time>2021-09-25T09:54:06.000Z</time>
      </trkpt>
      <trkpt lat="40.5266223661601543426513671875" lon="-1.31911885924637317657470703125">
        <ele>1020</ele>
        <time>2021-09-25T09:54:08.000Z</time>
      </trkpt>
      <trkpt lat="40.52657903172075748443603515625" lon="-1.31910762749612331390380859375">
        <ele>1020</ele>
        <time>2021-09-25T09:54:09.000Z</time>
      </trkpt>
      <trkpt lat="40.526537708938121795654296875" lon="-1.3190958090126514434814453125">
        <ele>1019.79998779296875</ele>
        <time>2021-09-25T09:54:10.000Z</time>
      </trkpt>
      <trkpt lat="40.52645447663962841033935546875" lon="-1.3190688192844390869140625">
        <ele>1019.5999755859375</ele>
        <time>2021-09-25T09:54:12.000Z</time>
      </trkpt>
      <trkpt lat="40.52637065760791301727294921875" lon="-1.31903721950948238372802734375">
        <ele>1019.4000244140625</ele>
        <time>2021-09-25T09:54:14.000Z</time>
      </trkpt>
      <trkpt lat="40.52628616802394390106201171875" lon="-1.3190136663615703582763671875">
        <ele>1019.20001220703125</ele>
        <time>2021-09-25T09:54:16.000Z</time>
      </trkpt>
      <trkpt lat="40.5262002535164356231689453125" lon="-1.318986006081104278564453125">
        <ele>1019</ele>
        <time>2021-09-25T09:54:18.000Z</time>
      </trkpt>
      <trkpt lat="40.5261596851050853729248046875" lon="-1.31897293031215667724609375">
        <ele>1019</ele>
        <time>2021-09-25T09:54:19.000Z</time>
      </trkpt>
      <trkpt lat="40.52611568011343479156494140625" lon="-1.31895893253386020660400390625">
        <ele>1018.79998779296875</ele>
        <time>2021-09-25T09:54:20.000Z</time>
      </trkpt>
      <trkpt lat="40.5260284245014190673828125" lon="-1.318931020796298980712890625">
        <ele>1018.5999755859375</ele>
        <time>2021-09-25T09:54:22.000Z</time>
      </trkpt>
      <trkpt lat="40.5259399116039276123046875" lon="-1.31890864111483097076416015625">
        <ele>1018.79998779296875</ele>
        <time>2021-09-25T09:54:24.000Z</time>
      </trkpt>
      <trkpt lat="40.52584628574550151824951171875" lon="-1.3188835792243480682373046875">
        <ele>1019.20001220703125</ele>
        <time>2021-09-25T09:54:26.000Z</time>
      </trkpt>
      <trkpt lat="40.5257613770663738250732421875" lon="-1.31885449402034282684326171875">
        <ele>1019</ele>
        <time>2021-09-25T09:54:28.000Z</time>
      </trkpt>
      <trkpt lat="40.52571536041796207427978515625" lon="-1.3188436813652515411376953125">
        <ele>1019</ele>
        <time>2021-09-25T09:54:29.000Z</time>
      </trkpt>
      <trkpt lat="40.5256705172359943389892578125" lon="-1.31883211433887481689453125">
        <ele>1019</ele>
        <time>2021-09-25T09:54:30.000Z</time>
      </trkpt>
      <trkpt lat="40.52558275870978832244873046875" lon="-1.3188044540584087371826171875">
        <ele>1019</ele>
        <time>2021-09-25T09:54:32.000Z</time>
      </trkpt>
      <trkpt lat="40.52549575455486774444580078125" lon="-1.3187705911695957183837890625">
        <ele>1019</ele>
        <time>2021-09-25T09:54:34.000Z</time>
      </trkpt>
      <trkpt lat="40.5254088342189788818359375" lon="-1.31874184124171733856201171875">
        <ele>1019</ele>
        <time>2021-09-25T09:54:36.000Z</time>
      </trkpt>
      <trkpt lat="40.52531755529344081878662109375" lon="-1.31871451623737812042236328125">
        <ele>1018.5999755859375</ele>
        <time>2021-09-25T09:54:38.000Z</time>
      </trkpt>
      <trkpt lat="40.52527195774018764495849609375" lon="-1.3187008537352085113525390625">
        <ele>1018.4000244140625</ele>
        <time>2021-09-25T09:54:39.000Z</time>
      </trkpt>
      <trkpt lat="40.5252256058156490325927734375" lon="-1.31868786178529262542724609375">
        <ele>1018</ele>
        <time>2021-09-25T09:54:40.000Z</time>
      </trkpt>
      <trkpt lat="40.52513181231915950775146484375" lon="-1.3186622969806194305419921875">
        <ele>1017.5999755859375</ele>
        <time>2021-09-25T09:54:42.000Z</time>
      </trkpt>
      <trkpt lat="40.52503801882266998291015625" lon="-1.31863689981400966644287109375">
        <ele>1017.79998779296875</ele>
        <time>2021-09-25T09:54:44.000Z</time>
      </trkpt>
      <trkpt lat="40.5249446444213390350341796875" lon="-1.318610496819019317626953125">
        <ele>1018</ele>
        <time>2021-09-25T09:54:46.000Z</time>
      </trkpt>
      <trkpt lat="40.52485805936157703399658203125" lon="-1.318582333624362945556640625">
        <ele>1018</ele>
        <time>2021-09-25T09:54:48.000Z</time>
      </trkpt>
      <trkpt lat="40.52476569078862667083740234375" lon="-1.31855987012386322021484375">
        <ele>1018</ele>
        <time>2021-09-25T09:54:50.000Z</time>
      </trkpt>
      <trkpt lat="40.5246765911579132080078125" lon="-1.318532712757587432861328125">
        <ele>1018.20001220703125</ele>
        <time>2021-09-25T09:54:52.000Z</time>
      </trkpt>
      <trkpt lat="40.5245905928313732147216796875" lon="-1.3185055553913116455078125">
        <ele>1018.5999755859375</ele>
        <time>2021-09-25T09:54:54.000Z</time>
      </trkpt>
      <trkpt lat="40.52450400777161121368408203125" lon="-1.31847730837762355804443359375">
        <ele>1019</ele>
        <time>2021-09-25T09:54:56.000Z</time>
      </trkpt>
      <trkpt lat="40.52441733889281749725341796875" lon="-1.31845233030617237091064453125">
        <ele>1019</ele>
        <time>2021-09-25T09:54:58.000Z</time>
      </trkpt>
      <trkpt lat="40.52433201111853122711181640625" lon="-1.3184250891208648681640625">
        <ele>1019</ele>
        <time>2021-09-25T09:55:00.000Z</time>
      </trkpt>
      <trkpt lat="40.52424810826778411865234375" lon="-1.318397261202335357666015625">
        <ele>1018.5999755859375</ele>
        <time>2021-09-25T09:55:02.000Z</time>
      </trkpt>
      <trkpt lat="40.52416889928281307220458984375" lon="-1.31837211549282073974609375">
        <ele>1018.4000244140625</ele>
        <time>2021-09-25T09:55:04.000Z</time>
      </trkpt>
      <trkpt lat="40.52409346215426921844482421875" lon="-1.3183444552123546600341796875">
        <ele>1018</ele>
        <time>2021-09-25T09:55:06.000Z</time>
      </trkpt>
      <trkpt lat="40.52405892871320247650146484375" lon="-1.31833054125308990478515625">
        <ele>1018</ele>
        <time>2021-09-25T09:55:07.000Z</time>
      </trkpt>
      <trkpt lat="40.52402053959667682647705078125" lon="-1.31832090206444263458251953125">
        <ele>1018</ele>
        <time>2021-09-25T09:55:08.000Z</time>
      </trkpt>
      <trkpt lat="40.52394091151654720306396484375" lon="-1.3182990252971649169921875">
        <ele>1018</ele>
        <time>2021-09-25T09:55:10.000Z</time>
      </trkpt>
      <trkpt lat="40.52385658957064151763916015625" lon="-1.3182733766734600067138671875">
        <ele>1018</ele>
        <time>2021-09-25T09:55:12.000Z</time>
      </trkpt>
      <trkpt lat="40.5237711779773235321044921875" lon="-1.3182512484490871429443359375">
        <ele>1017.79998779296875</ele>
        <time>2021-09-25T09:55:14.000Z</time>
      </trkpt>
      <trkpt lat="40.5236853472888469696044921875" lon="-1.318228952586650848388671875">
        <ele>1017.79998779296875</ele>
        <time>2021-09-25T09:55:16.000Z</time>
      </trkpt>
      <trkpt lat="40.5235958285629749298095703125" lon="-1.31820791400969028472900390625">
        <ele>1017.79998779296875</ele>
        <time>2021-09-25T09:55:18.000Z</time>
      </trkpt>
      <trkpt lat="40.52350773476064205169677734375" lon="-1.31817757152020931243896484375">
        <ele>1018</ele>
        <time>2021-09-25T09:55:20.000Z</time>
      </trkpt>
      <trkpt lat="40.5234184674918651580810546875" lon="-1.31815024651587009429931640625">
        <ele>1018</ele>
        <time>2021-09-25T09:55:22.000Z</time>
      </trkpt>
      <trkpt lat="40.52333087660372257232666015625" lon="-1.31811806000769138336181640625">
        <ele>1017.79998779296875</ele>
        <time>2021-09-25T09:55:24.000Z</time>
      </trkpt>
      <trkpt lat="40.52328762598335742950439453125" lon="-1.31810448132455348968505859375">
        <ele>1017.5999755859375</ele>
        <time>2021-09-25T09:55:25.000Z</time>
      </trkpt>
      <trkpt lat="40.5232427828013896942138671875" lon="-1.31809442304074764251708984375">
        <ele>1017.4000244140625</ele>
        <time>2021-09-25T09:55:26.000Z</time>
      </trkpt>
      <trkpt lat="40.52315653301775455474853515625" lon="-1.31807212717831134796142578125">
        <ele>1017.20001220703125</ele>
        <time>2021-09-25T09:55:28.000Z</time>
      </trkpt>
      <trkpt lat="40.52307321690022945404052734375" lon="-1.31804798729717731475830078125">
        <ele>1017.20001220703125</ele>
        <time>2021-09-25T09:55:30.000Z</time>
      </trkpt>
      <trkpt lat="40.52298822440207004547119140625" lon="-1.318023763597011566162109375">
        <ele>1016.79998779296875</ele>
        <time>2021-09-25T09:55:32.000Z</time>
      </trkpt>
      <trkpt lat="40.52290298044681549072265625" lon="-1.31799836643040180206298828125">
        <ele>1016.4000244140625</ele>
        <time>2021-09-25T09:55:34.000Z</time>
      </trkpt>
      <trkpt lat="40.522858388721942901611328125" lon="-1.31798495538532733917236328125">
        <ele>1016.20001220703125</ele>
        <time>2021-09-25T09:55:35.000Z</time>
      </trkpt>
      <trkpt lat="40.52281421609222888946533203125" lon="-1.3179733045399188995361328125">
        <ele>1016</ele>
        <time>2021-09-25T09:55:36.000Z</time>
      </trkpt>
      <trkpt lat="40.52272939123213291168212890625" lon="-1.3179409503936767578125">
        <ele>1015.5999755859375</ele>
        <time>2021-09-25T09:55:38.000Z</time>
      </trkpt>
      <trkpt lat="40.5226402916014194488525390625" lon="-1.317916475236415863037109375">
        <ele>1015</ele>
        <time>2021-09-25T09:55:40.000Z</time>
      </trkpt>
      <trkpt lat="40.5225495994091033935546875" lon="-1.3178918324410915374755859375">
        <ele>1014.4000244140625</ele>
        <time>2021-09-25T09:55:42.000Z</time>
      </trkpt>
      <trkpt lat="40.52246150560677051544189453125" lon="-1.31786123849451541900634765625">
        <ele>1014</ele>
        <time>2021-09-25T09:55:44.000Z</time>
      </trkpt>
      <trkpt lat="40.52241590805351734161376953125" lon="-1.3178495876491069793701171875">
        <ele>1014</ele>
        <time>2021-09-25T09:55:45.000Z</time>
      </trkpt>
      <trkpt lat="40.52236813120543956756591796875" lon="-1.31783659569919109344482421875">
        <ele>1014</ele>
        <time>2021-09-25T09:55:46.000Z</time>
      </trkpt>
      <trkpt lat="40.5222731642425060272216796875" lon="-1.31781195290386676788330078125">
        <ele>1014</ele>
        <time>2021-09-25T09:55:48.000Z</time>
      </trkpt>
      <trkpt lat="40.52218423224985599517822265625" lon="-1.317780353128910064697265625">
        <ele>1014.4000244140625</ele>
        <time>2021-09-25T09:55:50.000Z</time>
      </trkpt>
      <trkpt lat="40.52209706045687198638916015625" lon="-1.31774984300136566162109375">
        <ele>1015</ele>
        <time>2021-09-25T09:55:52.000Z</time>
      </trkpt>
      <trkpt lat="40.52200871519744396209716796875" lon="-1.31772142834961414337158203125">
        <ele>1015.5999755859375</ele>
        <time>2021-09-25T09:55:54.000Z</time>
      </trkpt>
      <trkpt lat="40.52196395583450794219970703125" lon="-1.3177067600190639495849609375">
        <ele>1016</ele>
        <time>2021-09-25T09:55:55.000Z</time>
      </trkpt>
      <trkpt lat="40.521918945014476776123046875" lon="-1.31769443862140178680419921875">
        <ele>1016.20001220703125</ele>
        <time>2021-09-25T09:55:56.000Z</time>
      </trkpt>
      <trkpt lat="40.5218249000608921051025390625" lon="-1.3176708854734897613525390625">
        <ele>1016.4000244140625</ele>
        <time>2021-09-25T09:55:58.000Z</time>
      </trkpt>
      <trkpt lat="40.52173680625855922698974609375" lon="-1.31764590740203857421875">
        <ele>1016.79998779296875</ele>
        <time>2021-09-25T09:56:00.000Z</time>
      </trkpt>
      <trkpt lat="40.52164829336106777191162109375" lon="-1.31761950440704822540283203125">
        <ele>1016.79998779296875</ele>
        <time>2021-09-25T09:56:02.000Z</time>
      </trkpt>
      <trkpt lat="40.52160453982651233673095703125" lon="-1.3176045008003711700439453125">
        <ele>1016.5999755859375</ele>
        <time>2021-09-25T09:56:03.000Z</time>
      </trkpt>
      <trkpt lat="40.5215585231781005859375" lon="-1.31759159266948699951171875">
        <ele>1016.20001220703125</ele>
        <time>2021-09-25T09:56:04.000Z</time>
      </trkpt>
      <trkpt lat="40.52147026173770427703857421875" lon="-1.31756921298801898956298828125">
        <ele>1015.5999755859375</ele>
        <time>2021-09-25T09:56:06.000Z</time>
      </trkpt>
      <trkpt lat="40.5213793180882930755615234375" lon="-1.31753719411790370941162109375">
        <ele>1015</ele>
        <time>2021-09-25T09:56:08.000Z</time>
      </trkpt>
      <trkpt lat="40.52133263088762760162353515625" lon="-1.317522861063480377197265625">
        <ele>1015</ele>
        <time>2021-09-25T09:56:09.000Z</time>
      </trkpt>
      <trkpt lat="40.5212862789630889892578125" lon="-1.3175117969512939453125">
        <ele>1014.79998779296875</ele>
        <time>2021-09-25T09:56:10.000Z</time>
      </trkpt>
      <trkpt lat="40.52119567058980464935302734375" lon="-1.31748924963176250457763671875">
        <ele>1014.4000244140625</ele>
        <time>2021-09-25T09:56:12.000Z</time>
      </trkpt>
      <trkpt lat="40.52110833115875720977783203125" lon="-1.3174586556851863861083984375">
        <ele>1014</ele>
        <time>2021-09-25T09:56:14.000Z</time>
      </trkpt>
      <trkpt lat="40.521063990890979766845703125" lon="-1.31744407117366790771484375">
        <ele>1014</ele>
        <time>2021-09-25T09:56:15.000Z</time>
      </trkpt>
      <trkpt lat="40.5210188962519168853759765625" lon="-1.3174273073673248291015625">
        <ele>1014</ele>
        <time>2021-09-25T09:56:16.000Z</time>
      </trkpt>
      <trkpt lat="40.5209270305931568145751953125" lon="-1.3174036704003810882568359375">
        <ele>1014</ele>
        <time>2021-09-25T09:56:18.000Z</time>
      </trkpt>
      <trkpt lat="40.52083809860050678253173828125" lon="-1.31737693212926387786865234375">
        <ele>1014</ele>
        <time>2021-09-25T09:56:20.000Z</time>
      </trkpt>
      <trkpt lat="40.52075377665460109710693359375" lon="-1.31735145114362239837646484375">
        <ele>1014.4000244140625</ele>
        <time>2021-09-25T09:56:22.000Z</time>
      </trkpt>
      <trkpt lat="40.5206728912889957427978515625" lon="-1.31732513196766376495361328125">
        <ele>1014.5999755859375</ele>
        <time>2021-09-25T09:56:24.000Z</time>
      </trkpt>
      <trkpt lat="40.5206313170492649078369140625" lon="-1.31731255911290645599365234375">
        <ele>1014.79998779296875</ele>
        <time>2021-09-25T09:56:25.000Z</time>
      </trkpt>
      <trkpt lat="40.5205857194960117340087890625" lon="-1.3172987289726734161376953125">
        <ele>1015</ele>
        <time>2021-09-25T09:56:26.000Z</time>
      </trkpt>
      <trkpt lat="40.52049594931304454803466796875" lon="-1.31727752275764942169189453125">
        <ele>1015.20001220703125</ele>
        <time>2021-09-25T09:56:28.000Z</time>
      </trkpt>
      <trkpt lat="40.52041078917682170867919921875" lon="-1.31724961102008819580078125">
        <ele>1015.5999755859375</ele>
        <time>2021-09-25T09:56:30.000Z</time>
      </trkpt>
      <trkpt lat="40.52032009698450565338134765625" lon="-1.31722278892993927001953125">
        <ele>1015.79998779296875</ele>
        <time>2021-09-25T09:56:32.000Z</time>
      </trkpt>
      <trkpt lat="40.52027232013642787933349609375" lon="-1.3172071985900402069091796875">
        <ele>1016</ele>
        <time>2021-09-25T09:56:33.000Z</time>
      </trkpt>
      <trkpt lat="40.52022538147866725921630859375" lon="-1.31719269789755344390869140625">
        <ele>1016.20001220703125</ele>
        <time>2021-09-25T09:56:34.000Z</time>
      </trkpt>
      <trkpt lat="40.52013586275279521942138671875" lon="-1.31716336123645305633544921875">
        <ele>1016.5999755859375</ele>
        <time>2021-09-25T09:56:36.000Z</time>
      </trkpt>
      <trkpt lat="40.520048774778842926025390625" lon="-1.31713922135531902313232421875">
        <ele>1016.79998779296875</ele>
        <time>2021-09-25T09:56:38.000Z</time>
      </trkpt>
      <trkpt lat="40.51995732821524143218994140625" lon="-1.3171081244945526123046875">
        <ele>1016.79998779296875</ele>
        <time>2021-09-25T09:56:40.000Z</time>
      </trkpt>
      <trkpt lat="40.519909970462322235107421875" lon="-1.31709563545882701873779296875">
        <ele>1016.79998779296875</ele>
        <time>2021-09-25T09:56:41.000Z</time>
      </trkpt>
      <trkpt lat="40.51986311562359333038330078125" lon="-1.31708121858537197113037109375">
        <ele>1016.5999755859375</ele>
        <time>2021-09-25T09:56:42.000Z</time>
      </trkpt>
      <trkpt lat="40.51977577619254589080810546875" lon="-1.3170526362955570220947265625">
        <ele>1016.5999755859375</ele>
        <time>2021-09-25T09:56:44.000Z</time>
      </trkpt>
      <trkpt lat="40.51968860439956188201904296875" lon="-1.31702237762510776519775390625">
        <ele>1016.4000244140625</ele>
        <time>2021-09-25T09:56:46.000Z</time>
      </trkpt>
      <trkpt lat="40.51959690637886524200439453125" lon="-1.3169936276972293853759765625">
        <ele>1016.20001220703125</ele>
        <time>2021-09-25T09:56:48.000Z</time>
      </trkpt>
      <trkpt lat="40.5195078067481517791748046875" lon="-1.316970996558666229248046875">
        <ele>1015.79998779296875</ele>
        <time>2021-09-25T09:56:50.000Z</time>
      </trkpt>
      <trkpt lat="40.51941812038421630859375" lon="-1.31694040261209011077880859375">
        <ele>1015.20001220703125</ele>
        <time>2021-09-25T09:56:52.000Z</time>
      </trkpt>
      <trkpt lat="40.5193287692964076995849609375" lon="-1.3169145025312900543212890625">
        <ele>1015</ele>
        <time>2021-09-25T09:56:54.000Z</time>
      </trkpt>
      <trkpt lat="40.51924042403697967529296875" lon="-1.31688692606985569000244140625">
        <ele>1015</ele>
        <time>2021-09-25T09:56:56.000Z</time>
      </trkpt>
      <trkpt lat="40.51915065385401248931884765625" lon="-1.31686479784548282623291015625">
        <ele>1014.79998779296875</ele>
        <time>2021-09-25T09:56:58.000Z</time>
      </trkpt>
      <trkpt lat="40.51906683482229709625244140625" lon="-1.31683520972728729248046875">
        <ele>1014.79998779296875</ele>
        <time>2021-09-25T09:57:00.000Z</time>
      </trkpt>
      <trkpt lat="40.51897362805902957916259765625" lon="-1.3168145902454853057861328125">
        <ele>1014.79998779296875</ele>
        <time>2021-09-25T09:57:02.000Z</time>
      </trkpt>
      <trkpt lat="40.51888226531445980072021484375" lon="-1.31679053418338298797607421875">
        <ele>1014.5999755859375</ele>
        <time>2021-09-25T09:57:04.000Z</time>
      </trkpt>
      <trkpt lat="40.51878847181797027587890625" lon="-1.31676555611193180084228515625">
        <ele>1014.20001220703125</ele>
        <time>2021-09-25T09:57:06.000Z</time>
      </trkpt>
      <trkpt lat="40.5186917446553707122802734375" lon="-1.3167381472885608673095703125">
        <ele>1014</ele>
        <time>2021-09-25T09:57:08.000Z</time>
      </trkpt>
      <trkpt lat="40.5185948498547077178955078125" lon="-1.31671157665550708770751953125">
        <ele>1014</ele>
        <time>2021-09-25T09:57:10.000Z</time>
      </trkpt>
      <trkpt lat="40.51850357092916965484619140625" lon="-1.31668207235634326934814453125">
        <ele>1014</ele>
        <time>2021-09-25T09:57:12.000Z</time>
      </trkpt>
      <trkpt lat="40.5184101127088069915771484375" lon="-1.31665290333330631256103515625">
        <ele>1014</ele>
        <time>2021-09-25T09:57:14.000Z</time>
      </trkpt>
      <trkpt lat="40.51831698976457118988037109375" lon="-1.31662893109023571014404296875">
        <ele>1014</ele>
        <time>2021-09-25T09:57:16.000Z</time>
      </trkpt>
      <trkpt lat="40.51826887764036655426025390625" lon="-1.316614933311939239501953125">
        <ele>1014.20001220703125</ele>
        <time>2021-09-25T09:57:17.000Z</time>
      </trkpt>
      <trkpt lat="40.51821992732584476470947265625" lon="-1.31659959442913532257080078125">
        <ele>1014.4000244140625</ele>
        <time>2021-09-25T09:57:18.000Z</time>
      </trkpt>
      <trkpt lat="40.51812185905873775482177734375" lon="-1.31657076068222522735595703125">
        <ele>1014.79998779296875</ele>
        <time>2021-09-25T09:57:20.000Z</time>
      </trkpt>
      <trkpt lat="40.5180299095809459686279296875" lon="-1.31654293276369571685791015625">
        <ele>1014.5999755859375</ele>
        <time>2021-09-25T09:57:22.000Z</time>
      </trkpt>
      <trkpt lat="40.51794030703604221343994140625" lon="-1.3165185414254665374755859375">
        <ele>1014.20001220703125</ele>
        <time>2021-09-25T09:57:24.000Z</time>
      </trkpt>
      <trkpt lat="40.51785078831017017364501953125" lon="-1.31648777984082698822021484375">
        <ele>1013.79998779296875</ele>
        <time>2021-09-25T09:57:26.000Z</time>
      </trkpt>
      <trkpt lat="40.51775850355625152587890625" lon="-1.31646112538874149322509765625">
        <ele>1013.4000244140625</ele>
        <time>2021-09-25T09:57:28.000Z</time>
      </trkpt>
      <trkpt lat="40.517661608755588531494140625" lon="-1.31643447093665599822998046875">
        <ele>1013.4000244140625</ele>
        <time>2021-09-25T09:57:30.000Z</time>
      </trkpt>
      <trkpt lat="40.51756597124040126800537109375" lon="-1.31640815176069736480712890625">
        <ele>1013.20001220703125</ele>
        <time>2021-09-25T09:57:32.000Z</time>
      </trkpt>
      <trkpt lat="40.51747008226811885833740234375" lon="-1.31638032384216785430908203125">
        <ele>1013.20001220703125</ele>
        <time>2021-09-25T09:57:34.000Z</time>
      </trkpt>
      <trkpt lat="40.517373271286487579345703125" lon="-1.31634998135268688201904296875">
        <ele>1013</ele>
        <time>2021-09-25T09:57:36.000Z</time>
      </trkpt>
      <trkpt lat="40.51727863959968090057373046875" lon="-1.31631796248257160186767578125">
        <ele>1013</ele>
        <time>2021-09-25T09:57:38.000Z</time>
      </trkpt>
      <trkpt lat="40.51718392409384250640869140625" lon="-1.3162908889353275299072265625">
        <ele>1013</ele>
        <time>2021-09-25T09:57:40.000Z</time>
      </trkpt>
      <trkpt lat="40.51709373481571674346923828125" lon="-1.31626565940678119659423828125">
        <ele>1013.20001220703125</ele>
        <time>2021-09-25T09:57:42.000Z</time>
      </trkpt>
      <trkpt lat="40.51700069569051265716552734375" lon="-1.3162362389266490936279296875">
        <ele>1013.20001220703125</ele>
        <time>2021-09-25T09:57:44.000Z</time>
      </trkpt>
      <trkpt lat="40.5169070698320865631103515625" lon="-1.3162070699036121368408203125">
        <ele>1013.20001220703125</ele>
        <time>2021-09-25T09:57:46.000Z</time>
      </trkpt>
      <trkpt lat="40.51681394688785076141357421875" lon="-1.31617597304284572601318359375">
        <ele>1013.4000244140625</ele>
        <time>2021-09-25T09:57:48.000Z</time>
      </trkpt>
      <trkpt lat="40.5167216621339321136474609375" lon="-1.31614680401980876922607421875">
        <ele>1013.4000244140625</ele>
        <time>2021-09-25T09:57:50.000Z</time>
      </trkpt>
      <trkpt lat="40.5166277848184108734130859375" lon="-1.3161170482635498046875">
        <ele>1013.4000244140625</ele>
        <time>2021-09-25T09:57:52.000Z</time>
      </trkpt>
      <trkpt lat="40.5165360867977142333984375" lon="-1.31609114818274974822998046875">
        <ele>1013.20001220703125</ele>
        <time>2021-09-25T09:57:54.000Z</time>
      </trkpt>
      <trkpt lat="40.5164906568825244903564453125" lon="-1.31607756949961185455322265625">
        <ele>1013.20001220703125</ele>
        <time>2021-09-25T09:57:55.000Z</time>
      </trkpt>
      <trkpt lat="40.5164457298815250396728515625" lon="-1.31606482900679111480712890625">
        <ele>1013</ele>
        <time>2021-09-25T09:57:56.000Z</time>
      </trkpt>
      <trkpt lat="40.516355037689208984375" lon="-1.31603901274502277374267578125">
        <ele>1013</ele>
        <time>2021-09-25T09:57:58.000Z</time>
      </trkpt>
      <trkpt lat="40.51626317203044891357421875" lon="-1.3160137832164764404296875">
        <ele>1013</ele>
        <time>2021-09-25T09:58:00.000Z</time>
      </trkpt>
      <trkpt lat="40.516170300543308258056640625" lon="-1.31598151288926601409912109375">
        <ele>1013</ele>
        <time>2021-09-25T09:58:02.000Z</time>
      </trkpt>
      <trkpt lat="40.51607835106551647186279296875" lon="-1.31595184095203876495361328125">
        <ele>1013.20001220703125</ele>
        <time>2021-09-25T09:58:04.000Z</time>
      </trkpt>
      <trkpt lat="40.51598598249256610870361328125" lon="-1.3159264437854290008544921875">
        <ele>1013.4000244140625</ele>
        <time>2021-09-25T09:58:06.000Z</time>
      </trkpt>
      <trkpt lat="40.51589411683380603790283203125" lon="-1.31590054370462894439697265625">
        <ele>1013.79998779296875</ele>
        <time>2021-09-25T09:58:08.000Z</time>
      </trkpt>
      <trkpt lat="40.51580258645117282867431640625" lon="-1.31587388925254344940185546875">
        <ele>1014</ele>
        <time>2021-09-25T09:58:10.000Z</time>
      </trkpt>
      <trkpt lat="40.5157077871263027191162109375" lon="-1.31584689952433109283447265625">
        <ele>1013.79998779296875</ele>
        <time>2021-09-25T09:58:12.000Z</time>
      </trkpt>
      <trkpt lat="40.51561600528657436370849609375" lon="-1.31581806577742099761962890625">
        <ele>1013.4000244140625</ele>
        <time>2021-09-25T09:58:14.000Z</time>
      </trkpt>
      <trkpt lat="40.51552154123783111572265625" lon="-1.31579191423952579498291015625">
        <ele>1013</ele>
        <time>2021-09-25T09:58:16.000Z</time>
      </trkpt>
      <trkpt lat="40.51542741246521472930908203125" lon="-1.3157628290355205535888671875">
        <ele>1013</ele>
        <time>2021-09-25T09:58:18.000Z</time>
      </trkpt>
      <trkpt lat="40.5153359659016132354736328125" lon="-1.31573550403118133544921875">
        <ele>1013.20001220703125</ele>
        <time>2021-09-25T09:58:20.000Z</time>
      </trkpt>
      <trkpt lat="40.5152920447289943695068359375" lon="-1.31572385318577289581298828125">
        <ele>1013</ele>
        <time>2021-09-25T09:58:21.000Z</time>
      </trkpt>
      <trkpt lat="40.5152481235563755035400390625" lon="-1.31571027450263500213623046875">
        <ele>1013</ele>
        <time>2021-09-25T09:58:22.000Z</time>
      </trkpt>
      <trkpt lat="40.515159107744693756103515625" lon="-1.31567624397575855255126953125">
        <ele>1013</ele>
        <time>2021-09-25T09:58:24.000Z</time>
      </trkpt>
      <trkpt lat="40.51506581716239452362060546875" lon="-1.31564975716173648834228515625">
        <ele>1012.79998779296875</ele>
        <time>2021-09-25T09:58:26.000Z</time>
      </trkpt>
      <trkpt lat="40.51501938141882419586181640625" lon="-1.31563760340213775634765625">
        <ele>1012.5999755859375</ele>
        <time>2021-09-25T09:58:27.000Z</time>
      </trkpt>
      <trkpt lat="40.51497277803719043731689453125" lon="-1.3156243599951267242431640625">
        <ele>1012.4000244140625</ele>
        <time>2021-09-25T09:58:28.000Z</time>
      </trkpt>
      <trkpt lat="40.51488292403519153594970703125" lon="-1.31559661589562892913818359375">
        <ele>1012.4000244140625</ele>
        <time>2021-09-25T09:58:30.000Z</time>
      </trkpt>
      <trkpt lat="40.51479323767125606536865234375" lon="-1.315572895109653472900390625">
        <ele>1012.20001220703125</ele>
        <time>2021-09-25T09:58:32.000Z</time>
      </trkpt>
      <trkpt lat="40.51470472477376461029052734375" lon="-1.31554783321917057037353515625">
        <ele>1012.20001220703125</ele>
        <time>2021-09-25T09:58:34.000Z</time>
      </trkpt>
      <trkpt lat="40.51462224684655666351318359375" lon="-1.31551849655807018280029296875">
        <ele>1012.4000244140625</ele>
        <time>2021-09-25T09:58:36.000Z</time>
      </trkpt>
      <trkpt lat="40.5145418643951416015625" lon="-1.3154934346675872802734375">
        <ele>1012.5999755859375</ele>
        <time>2021-09-25T09:58:38.000Z</time>
      </trkpt>
      <trkpt lat="40.51445343531668186187744140625" lon="-1.3154701329767704010009765625">
        <ele>1013</ele>
        <time>2021-09-25T09:58:40.000Z</time>
      </trkpt>
      <trkpt lat="40.5144095979630947113037109375" lon="-1.31545563228428363800048828125">
        <ele>1013</ele>
        <time>2021-09-25T09:58:41.000Z</time>
      </trkpt>
      <trkpt lat="40.51436341367661952972412109375" lon="-1.31544088013470172882080078125">
        <ele>1013</ele>
        <time>2021-09-25T09:58:42.000Z</time>
      </trkpt>
      <trkpt lat="40.5142734758555889129638671875" lon="-1.3154148124158382415771484375">
        <ele>1013</ele>
        <time>2021-09-25T09:58:44.000Z</time>
      </trkpt>
      <trkpt lat="40.51418119110167026519775390625" lon="-1.3153856433928012847900390625">
        <ele>1013</ele>
        <time>2021-09-25T09:58:46.000Z</time>
      </trkpt>
      <trkpt lat="40.51408546976745128631591796875" lon="-1.3153564743697643280029296875">
        <ele>1013</ele>
        <time>2021-09-25T09:58:48.000Z</time>
      </trkpt>
      <trkpt lat="40.51403962075710296630859375" lon="-1.31534256041049957275390625">
        <ele>1013</ele>
        <time>2021-09-25T09:58:49.000Z</time>
      </trkpt>
      <trkpt lat="40.51399444229900836944580078125" lon="-1.31532722152769565582275390625">
        <ele>1013</ele>
        <time>2021-09-25T09:58:50.000Z</time>
      </trkpt>
      <trkpt lat="40.5139021575450897216796875" lon="-1.31530123762786388397216796875">
        <ele>1013</ele>
        <time>2021-09-25T09:58:52.000Z</time>
      </trkpt>
      <trkpt lat="40.51380886696279048919677734375" lon="-1.315273158252239227294921875">
        <ele>1012.5999755859375</ele>
        <time>2021-09-25T09:58:54.000Z</time>
      </trkpt>
      <trkpt lat="40.513718426227569580078125" lon="-1.3152439892292022705078125">
        <ele>1011.79998779296875</ele>
        <time>2021-09-25T09:58:56.000Z</time>
      </trkpt>
      <trkpt lat="40.51367291249334812164306640625" lon="-1.3152297399938106536865234375">
        <ele>1011.4000244140625</ele>
        <time>2021-09-25T09:58:57.000Z</time>
      </trkpt>
      <trkpt lat="40.51362697966396808624267578125" lon="-1.31521658040583133697509765625">
        <ele>1011</ele>
        <time>2021-09-25T09:58:58.000Z</time>
      </trkpt>
      <trkpt lat="40.513531677424907684326171875" lon="-1.31519495509564876556396484375">
        <ele>1010.4000244140625</ele>
        <time>2021-09-25T09:59:00.000Z</time>
      </trkpt>
      <trkpt lat="40.513438470661640167236328125" lon="-1.3151640258729457855224609375">
        <ele>1009.79998779296875</ele>
        <time>2021-09-25T09:59:02.000Z</time>
      </trkpt>
      <trkpt lat="40.5133437551558017730712890625" lon="-1.3151365332305431365966796875">
        <ele>1009</ele>
        <time>2021-09-25T09:59:04.000Z</time>
      </trkpt>
      <trkpt lat="40.5132505483925342559814453125" lon="-1.315105520188808441162109375">
        <ele>1009</ele>
        <time>2021-09-25T09:59:06.000Z</time>
      </trkpt>
      <trkpt lat="40.513159520924091339111328125" lon="-1.31507542915642261505126953125">
        <ele>1009</ele>
        <time>2021-09-25T09:59:08.000Z</time>
      </trkpt>
      <trkpt lat="40.5130678229033946990966796875" lon="-1.3150463439524173736572265625">
        <ele>1009</ele>
        <time>2021-09-25T09:59:10.000Z</time>
      </trkpt>
      <trkpt lat="40.51297754980623722076416015625" lon="-1.31501725874841213226318359375">
        <ele>1009</ele>
        <time>2021-09-25T09:59:12.000Z</time>
      </trkpt>
      <trkpt lat="40.51288652233779430389404296875" lon="-1.31499144248664379119873046875">
        <ele>1009</ele>
        <time>2021-09-25T09:59:14.000Z</time>
      </trkpt>
      <trkpt lat="40.5127959139645099639892578125" lon="-1.314966380596160888671875">
        <ele>1009</ele>
        <time>2021-09-25T09:59:16.000Z</time>
      </trkpt>
      <trkpt lat="40.5127047188580036163330078125" lon="-1.31493846885859966278076171875">
        <ele>1009</ele>
        <time>2021-09-25T09:59:18.000Z</time>
      </trkpt>
      <trkpt lat="40.51261109299957752227783203125" lon="-1.31491801701486110687255859375">
        <ele>1008.79998779296875</ele>
        <time>2021-09-25T09:59:20.000Z</time>
      </trkpt>
      <trkpt lat="40.5125183053314685821533203125" lon="-1.3148931227624416351318359375">
        <ele>1008.79998779296875</ele>
        <time>2021-09-25T09:59:22.000Z</time>
      </trkpt>
      <trkpt lat="40.51242627203464508056640625" lon="-1.31486571393907070159912109375">
        <ele>1009.20001220703125</ele>
        <time>2021-09-25T09:59:24.000Z</time>
      </trkpt>
      <trkpt lat="40.51233767531812191009521484375" lon="-1.31483302451670169830322265625">
        <ele>1009.79998779296875</ele>
        <time>2021-09-25T09:59:26.000Z</time>
      </trkpt>
      <trkpt lat="40.51224597729742527008056640625" lon="-1.31480754353106021881103515625">
        <ele>1010.4000244140625</ele>
        <time>2021-09-25T09:59:28.000Z</time>
      </trkpt>
      <trkpt lat="40.51215712912380695343017578125" lon="-1.314782314002513885498046875">
        <ele>1010.5999755859375</ele>
        <time>2021-09-25T09:59:30.000Z</time>
      </trkpt>
      <trkpt lat="40.51206911914050579071044921875" lon="-1.31475783884525299072265625">
        <ele>1010.79998779296875</ele>
        <time>2021-09-25T09:59:32.000Z</time>
      </trkpt>
      <trkpt lat="40.51198295317590236663818359375" lon="-1.314729340374469757080078125">
        <ele>1011</ele>
        <time>2021-09-25T09:59:34.000Z</time>
      </trkpt>
      <trkpt lat="40.51189376972615718841552734375" lon="-1.3147003389894962310791015625">
        <ele>1011.20001220703125</ele>
        <time>2021-09-25T09:59:36.000Z</time>
      </trkpt>
      <trkpt lat="40.511802323162555694580078125" lon="-1.31467225961387157440185546875">
        <ele>1011</ele>
        <time>2021-09-25T09:59:38.000Z</time>
      </trkpt>
      <trkpt lat="40.5117092840373516082763671875" lon="-1.31463906727731227874755859375">
        <ele>1010.79998779296875</ele>
        <time>2021-09-25T09:59:40.000Z</time>
      </trkpt>
      <trkpt lat="40.5116150714457035064697265625" lon="-1.31461626850068569183349609375">
        <ele>1010.5999755859375</ele>
        <time>2021-09-25T09:59:42.000Z</time>
      </trkpt>
      <trkpt lat="40.5115677975118160247802734375" lon="-1.31460361182689666748046875">
        <ele>1010.4000244140625</ele>
        <time>2021-09-25T09:59:43.000Z</time>
      </trkpt>
      <trkpt lat="40.5115181766450405120849609375" lon="-1.31459279917180538177490234375">
        <ele>1010.20001220703125</ele>
        <time>2021-09-25T09:59:44.000Z</time>
      </trkpt>
      <trkpt lat="40.51142421551048755645751953125" lon="-1.31456312723457813262939453125">
        <ele>1009.79998779296875</ele>
        <time>2021-09-25T09:59:46.000Z</time>
      </trkpt>
      <trkpt lat="40.51133167929947376251220703125" lon="-1.31453362293541431427001953125">
        <ele>1009.5999755859375</ele>
        <time>2021-09-25T09:59:48.000Z</time>
      </trkpt>
      <trkpt lat="40.511238388717174530029296875" lon="-1.31450663320720195770263671875">
        <ele>1009.4000244140625</ele>
        <time>2021-09-25T09:59:50.000Z</time>
      </trkpt>
      <trkpt lat="40.5111475288867950439453125" lon="-1.314477883279323577880859375">
        <ele>1009.4000244140625</ele>
        <time>2021-09-25T09:59:52.000Z</time>
      </trkpt>
      <trkpt lat="40.5110568366944789886474609375" lon="-1.31444829516112804412841796875">
        <ele>1009.20001220703125</ele>
        <time>2021-09-25T09:59:54.000Z</time>
      </trkpt>
      <trkpt lat="40.5109651386737823486328125" lon="-1.31441543810069561004638671875">
        <ele>1009</ele>
        <time>2021-09-25T09:59:56.000Z</time>
      </trkpt>
      <trkpt lat="40.51087327301502227783203125" lon="-1.31438559852540493011474609375">
        <ele>1009</ele>
        <time>2021-09-25T09:59:58.000Z</time>
      </trkpt>
      <trkpt lat="40.51077981479465961456298828125" lon="-1.31435793824493885040283203125">
        <ele>1008.79998779296875</ele>
        <time>2021-09-25T10:00:00.000Z</time>
      </trkpt>
      <trkpt lat="40.51068996079266071319580078125" lon="-1.3143293559551239013671875">
        <ele>1008.79998779296875</ele>
        <time>2021-09-25T10:00:02.000Z</time>
      </trkpt>
      <trkpt lat="40.5106030404567718505859375" lon="-1.31430295296013355255126953125">
        <ele>1008.79998779296875</ele>
        <time>2021-09-25T10:00:04.000Z</time>
      </trkpt>
      <trkpt lat="40.510524250566959381103515625" lon="-1.31427730433642864227294921875">
        <ele>1009.20001220703125</ele>
        <time>2021-09-25T10:00:06.000Z</time>
      </trkpt>
      <trkpt lat="40.510444454848766326904296875" lon="-1.31425467319786548614501953125">
        <ele>1009.4000244140625</ele>
        <time>2021-09-25T10:00:08.000Z</time>
      </trkpt>
      <trkpt lat="40.51035267300903797149658203125" lon="-1.31422952748835086822509765625">
        <ele>1009.79998779296875</ele>
        <time>2021-09-25T10:00:10.000Z</time>
      </trkpt>
      <trkpt lat="40.5102595500648021697998046875" lon="-1.31420287303626537322998046875">
        <ele>1010</ele>
        <time>2021-09-25T10:00:12.000Z</time>
      </trkpt>
      <trkpt lat="40.51016408018767833709716796875" lon="-1.31417990662157535552978515625">
        <ele>1009.5999755859375</ele>
        <time>2021-09-25T10:00:14.000Z</time>
      </trkpt>
      <trkpt lat="40.51006768830120563507080078125" lon="-1.3141551800072193145751953125">
        <ele>1009.20001220703125</ele>
        <time>2021-09-25T10:00:16.000Z</time>
      </trkpt>
      <trkpt lat="40.5100191570818424224853515625" lon="-1.3141407631337642669677734375">
        <ele>1009</ele>
        <time>2021-09-25T10:00:17.000Z</time>
      </trkpt>
      <trkpt lat="40.5099713802337646484375" lon="-1.3141250051558017730712890625">
        <ele>1009</ele>
        <time>2021-09-25T10:00:18.000Z</time>
      </trkpt>
      <trkpt lat="40.50987423397600650787353515625" lon="-1.3140961714088916778564453125">
        <ele>1009</ele>
        <time>2021-09-25T10:00:20.000Z</time>
      </trkpt>
      <trkpt lat="40.50978002138435840606689453125" lon="-1.31406851112842559814453125">
        <ele>1008.79998779296875</ele>
        <time>2021-09-25T10:00:22.000Z</time>
      </trkpt>
      <trkpt lat="40.50968999974429607391357421875" lon="-1.31404009647667407989501953125">
        <ele>1008.79998779296875</ele>
        <time>2021-09-25T10:00:24.000Z</time>
      </trkpt>
      <trkpt lat="40.50964490510523319244384765625" lon="-1.31402718834578990936279296875">
        <ele>1009</ele>
        <time>2021-09-25T10:00:25.000Z</time>
      </trkpt>
      <trkpt lat="40.50959846936166286468505859375" lon="-1.3140146993100643157958984375">
        <ele>1009</ele>
        <time>2021-09-25T10:00:26.000Z</time>
      </trkpt>
      <trkpt lat="40.5095061846077442169189453125" lon="-1.3139882124960422515869140625">
        <ele>1009</ele>
        <time>2021-09-25T10:00:28.000Z</time>
      </trkpt>
      <trkpt lat="40.50940719433128833770751953125" lon="-1.31396264769136905670166015625">
        <ele>1008.79998779296875</ele>
        <time>2021-09-25T10:00:30.000Z</time>
      </trkpt>
      <trkpt lat="40.5093090422451496124267578125" lon="-1.313932053744792938232421875">
        <ele>1008.4000244140625</ele>
        <time>2021-09-25T10:00:32.000Z</time>
      </trkpt>
      <trkpt lat="40.50921072252094745635986328125" lon="-1.31390414200723171234130859375">
        <ele>1008.20001220703125</ele>
        <time>2021-09-25T10:00:34.000Z</time>
      </trkpt>
      <trkpt lat="40.50911265425384044647216796875" lon="-1.3138732127845287322998046875">
        <ele>1008.20001220703125</ele>
        <time>2021-09-25T10:00:36.000Z</time>
      </trkpt>
      <trkpt lat="40.50901894457638263702392578125" lon="-1.313843540847301483154296875">
        <ele>1008</ele>
        <time>2021-09-25T10:00:38.000Z</time>
      </trkpt>
      <trkpt lat="40.50892724655568599700927734375" lon="-1.3138148747384548187255859375">
        <ele>1007.79998779296875</ele>
        <time>2021-09-25T10:00:40.000Z</time>
      </trkpt>
      <trkpt lat="40.50883923657238483428955078125" lon="-1.3137893937528133392333984375">
        <ele>1007.4000244140625</ele>
        <time>2021-09-25T10:00:42.000Z</time>
      </trkpt>
      <trkpt lat="40.5087498016655445098876953125" lon="-1.31376483477652072906494140625">
        <ele>1007</ele>
        <time>2021-09-25T10:00:44.000Z</time>
      </trkpt>
      <trkpt lat="40.5086624622344970703125" lon="-1.31374128162860870361328125">
        <ele>1006.5999755859375</ele>
        <time>2021-09-25T10:00:46.000Z</time>
      </trkpt>
      <trkpt lat="40.508573949337005615234375" lon="-1.3137149624526500701904296875">
        <ele>1006.5999755859375</ele>
        <time>2021-09-25T10:00:48.000Z</time>
      </trkpt>
      <trkpt lat="40.5084852688014507293701171875" lon="-1.3136854581534862518310546875">
        <ele>1006.4000244140625</ele>
        <time>2021-09-25T10:00:50.000Z</time>
      </trkpt>
      <trkpt lat="40.50839222967624664306640625" lon="-1.3136623241007328033447265625">
        <ele>1006.4000244140625</ele>
        <time>2021-09-25T10:00:52.000Z</time>
      </trkpt>
      <trkpt lat="40.5083069019019603729248046875" lon="-1.3136355020105838775634765625">
        <ele>1006.20001220703125</ele>
        <time>2021-09-25T10:00:54.000Z</time>
      </trkpt>
      <trkpt lat="40.50822467543184757232666015625" lon="-1.3136076740920543670654296875">
        <ele>1006.4000244140625</ele>
        <time>2021-09-25T10:00:56.000Z</time>
      </trkpt>
      <trkpt lat="40.50814253278076648712158203125" lon="-1.31358227692544460296630859375">
        <ele>1006.5999755859375</ele>
        <time>2021-09-25T10:00:58.000Z</time>
      </trkpt>
      <trkpt lat="40.50810120999813079833984375" lon="-1.31356886588037014007568359375">
        <ele>1006.79998779296875</ele>
        <time>2021-09-25T10:00:59.000Z</time>
      </trkpt>
      <trkpt lat="40.5080601386725902557373046875" lon="-1.3135560415685176849365234375">
        <ele>1007</ele>
        <time>2021-09-25T10:01:00.000Z</time>
      </trkpt>
      <trkpt lat="40.50797372125089168548583984375" lon="-1.313534416258335113525390625">
        <ele>1007.4000244140625</ele>
        <time>2021-09-25T10:01:02.000Z</time>
      </trkpt>
      <trkpt lat="40.50788529217243194580078125" lon="-1.3135067559778690338134765625">
        <ele>1007.5999755859375</ele>
        <time>2021-09-25T10:01:04.000Z</time>
      </trkpt>
      <trkpt lat="40.5077996291220188140869140625" lon="-1.3134769164025783538818359375">
        <ele>1008</ele>
        <time>2021-09-25T10:01:06.000Z</time>
      </trkpt>
      <trkpt lat="40.50775998272001743316650390625" lon="-1.31346124224364757537841796875">
        <ele>1008</ele>
        <time>2021-09-25T10:01:07.000Z</time>
      </trkpt>
      <trkpt lat="40.50771807320415973663330078125" lon="-1.31344967521727085113525390625">
        <ele>1008</ele>
        <time>2021-09-25T10:01:08.000Z</time>
      </trkpt>
      <trkpt lat="40.50763785839080810546875" lon="-1.313427798449993133544921875">
        <ele>1008</ele>
        <time>2021-09-25T10:01:10.000Z</time>
      </trkpt>
      <trkpt lat="40.50755781121551990509033203125" lon="-1.31340474821627140045166015625">
        <ele>1007.5999755859375</ele>
        <time>2021-09-25T10:01:12.000Z</time>
      </trkpt>
      <trkpt lat="40.5074807815253734588623046875" lon="-1.31336652673780918121337890625">
        <ele>1007.4000244140625</ele>
        <time>2021-09-25T10:01:14.000Z</time>
      </trkpt>
      <trkpt lat="40.5073996447026729583740234375" lon="-1.31334758363664150238037109375">
        <ele>1007.5999755859375</ele>
        <time>2021-09-25T10:01:16.000Z</time>
      </trkpt>
      <trkpt lat="40.50735957920551300048828125" lon="-1.31333752535283565521240234375">
        <ele>1007.79998779296875</ele>
        <time>2021-09-25T10:01:17.000Z</time>
      </trkpt>
      <trkpt lat="40.50731825642287731170654296875" lon="-1.31332897581160068511962890625">
        <ele>1007.79998779296875</ele>
        <time>2021-09-25T10:01:18.000Z</time>
      </trkpt>
      <trkpt lat="40.5072417296469211578369140625" lon="-1.31330064497888088226318359375">
        <ele>1008</ele>
        <time>2021-09-25T10:01:20.000Z</time>
      </trkpt>
      <trkpt lat="40.50715933553874492645263671875" lon="-1.31326946429908275604248046875">
        <ele>1008.20001220703125</ele>
        <time>2021-09-25T10:01:22.000Z</time>
      </trkpt>
      <trkpt lat="40.50707283429801464080810546875" lon="-1.31324482150375843048095703125">
        <ele>1008.20001220703125</ele>
        <time>2021-09-25T10:01:24.000Z</time>
      </trkpt>
      <trkpt lat="40.50698633305728435516357421875" lon="-1.3132254593074321746826171875">
        <ele>1008.5999755859375</ele>
        <time>2021-09-25T10:01:26.000Z</time>
      </trkpt>
      <trkpt lat="40.5069074593484401702880859375" lon="-1.31320894695818424224853515625">
        <ele>1008.5999755859375</ele>
        <time>2021-09-25T10:01:28.000Z</time>
      </trkpt>
      <trkpt lat="40.506840907037258148193359375" lon="-1.31319318898022174835205078125">
        <ele>1008.4000244140625</ele>
        <time>2021-09-25T10:01:30.000Z</time>
      </trkpt>
      <trkpt lat="40.50677611492574214935302734375" lon="-1.31316871382296085357666015625">
        <ele>1008</ele>
        <time>2021-09-25T10:01:32.000Z</time>
      </trkpt>
      <trkpt lat="40.50673789344727993011474609375" lon="-1.313158236443996429443359375">
        <ele>1007.79998779296875</ele>
        <time>2021-09-25T10:01:33.000Z</time>
      </trkpt>
      <trkpt lat="40.50669866614043712615966796875" lon="-1.31314977072179317474365234375">
        <ele>1007.5999755859375</ele>
        <time>2021-09-25T10:01:34.000Z</time>
      </trkpt>
      <trkpt lat="40.5066321976482868194580078125" lon="-1.31312973797321319580078125">
        <ele>1007.4000244140625</ele>
        <time>2021-09-25T10:01:36.000Z</time>
      </trkpt>
      <trkpt lat="40.50657712854444980621337890625" lon="-1.3131121359765529632568359375">
        <ele>1007</ele>
        <time>2021-09-25T10:01:38.000Z</time>
      </trkpt>
      <trkpt lat="40.50655315630137920379638671875" lon="-1.31310434080660343170166015625">
        <ele>1007</ele>
        <time>2021-09-25T10:01:39.000Z</time>
      </trkpt>
      <trkpt lat="40.50653404556214809417724609375" lon="-1.3130980543792247772216796875">
        <ele>1006.79998779296875</ele>
        <time>2021-09-25T10:01:40.000Z</time>
      </trkpt>
      <trkpt lat="40.50651870667934417724609375" lon="-1.31308992393314838409423828125">
        <ele>1006.79998779296875</ele>
        <time>2021-09-25T10:01:42.000Z</time>
      </trkpt>
      <trkpt lat="40.50651870667934417724609375" lon="-1.31308992393314838409423828125">
        <ele>1006.79998779296875</ele>
        <time>2021-09-25T10:01:43.000Z</time>
      </trkpt>
      <trkpt lat="40.50647520460188388824462890625" lon="-1.3130713999271392822265625">
        <ele>1006.5999755859375</ele>
        <time>2021-09-25T10:06:02.000Z</time>
      </trkpt>
      <trkpt lat="40.506443940103054046630859375" lon="-1.31306209601461887359619140625">
        <ele>1006.4000244140625</ele>
        <time>2021-09-25T10:06:04.000Z</time>
      </trkpt>
      <trkpt lat="40.50641946494579315185546875" lon="-1.31305136717855930328369140625">
        <ele>1006.20001220703125</ele>
        <time>2021-09-25T10:06:06.000Z</time>
      </trkpt>
      <trkpt lat="40.506396330893039703369140625" lon="-1.3130554743111133575439453125">
        <ele>1006.20001220703125</ele>
        <time>2021-09-25T10:06:08.000Z</time>
      </trkpt>
      <trkpt lat="40.5063921399414539337158203125" lon="-1.31305723451077938079833984375">
        <ele>1006.20001220703125</ele>
        <time>2021-09-25T10:06:09.000Z</time>
      </trkpt>
      <trkpt lat="40.50637478940188884735107421875" lon="-1.313033513724803924560546875">
        <ele>1006.20001220703125</ele>
        <time>2021-09-25T10:06:22.000Z</time>
      </trkpt>
      <trkpt lat="40.50635433755815029144287109375" lon="-1.31302471272647380828857421875">
        <ele>1006</ele>
        <time>2021-09-25T10:06:23.000Z</time>
      </trkpt>
      <trkpt lat="40.5063240788877010345458984375" lon="-1.3130279816687107086181640625">
        <ele>1006</ele>
        <time>2021-09-25T10:06:24.000Z</time>
      </trkpt>
      <trkpt lat="40.5062697641551494598388671875" lon="-1.31302555091679096221923828125">
        <ele>1006</ele>
        <time>2021-09-25T10:06:26.000Z</time>
      </trkpt>
      <trkpt lat="40.50623112358152866363525390625" lon="-1.3129994831979274749755859375">
        <ele>1006</ele>
        <time>2021-09-25T10:06:28.000Z</time>
      </trkpt>
      <trkpt lat="40.50621251575648784637451171875" lon="-1.31299135275185108184814453125">
        <ele>1006</ele>
        <time>2021-09-25T10:06:29.000Z</time>
      </trkpt>
      <trkpt lat="40.5061929859220981597900390625" lon="-1.3129867427051067352294921875">
        <ele>1006</ele>
        <time>2021-09-25T10:06:30.000Z</time>
      </trkpt>
      <trkpt lat="40.506156943738460540771484375" lon="-1.31295950151979923248291015625">
        <ele>1006</ele>
        <time>2021-09-25T10:06:32.000Z</time>
      </trkpt>
      <trkpt lat="40.5061304569244384765625" lon="-1.31296151317656040191650390625">
        <ele>1006</ele>
        <time>2021-09-25T10:06:33.000Z</time>
      </trkpt>
      <trkpt lat="40.50610371865332126617431640625" lon="-1.31295681931078433990478515625">
        <ele>1006</ele>
        <time>2021-09-25T10:06:34.000Z</time>
      </trkpt>
      <trkpt lat="40.5060753040015697479248046875" lon="-1.3129485212266445159912109375">
        <ele>1006.20001220703125</ele>
        <time>2021-09-25T10:06:35.000Z</time>
      </trkpt>
      <trkpt lat="40.50604269839823246002197265625" lon="-1.31294600665569305419921875">
        <ele>1006.20001220703125</ele>
        <time>2021-09-25T10:06:36.000Z</time>
      </trkpt>
      <trkpt lat="40.50601000897586345672607421875" lon="-1.31294525228440761566162109375">
        <ele>1006.4000244140625</ele>
        <time>2021-09-25T10:06:37.000Z</time>
      </trkpt>
      <trkpt lat="40.50597832538187503814697265625" lon="-1.3129387982189655303955078125">
        <ele>1006.4000244140625</ele>
        <time>2021-09-25T10:06:38.000Z</time>
      </trkpt>
      <trkpt lat="40.5059126950800418853759765625" lon="-1.31292010657489299774169921875">
        <ele>1006.79998779296875</ele>
        <time>2021-09-25T10:06:40.000Z</time>
      </trkpt>
      <trkpt lat="40.505848824977874755859375" lon="-1.3128983974456787109375">
        <ele>1007</ele>
        <time>2021-09-25T10:06:42.000Z</time>
      </trkpt>
      <trkpt lat="40.505816638469696044921875" lon="-1.31288641132414340972900390625">
        <ele>1007</ele>
        <time>2021-09-25T10:06:43.000Z</time>
      </trkpt>
      <trkpt lat="40.505784787237644195556640625" lon="-1.31287836469709873199462890625">
        <ele>1007</ele>
        <time>2021-09-25T10:06:44.000Z</time>
      </trkpt>
      <trkpt lat="40.5057145468890666961669921875" lon="-1.31285539828240871429443359375">
        <ele>1007</ele>
        <time>2021-09-25T10:06:46.000Z</time>
      </trkpt>
      <trkpt lat="40.50564371980726718902587890625" lon="-1.31283997558057308197021484375">
        <ele>1007</ele>
        <time>2021-09-25T10:06:48.000Z</time>
      </trkpt>
      <trkpt lat="40.5055780895054340362548828125" lon="-1.31281231530010700225830078125">
        <ele>1007</ele>
        <time>2021-09-25T10:06:50.000Z</time>
      </trkpt>
      <trkpt lat="40.505543053150177001953125" lon="-1.3128036819398403167724609375">
        <ele>1007</ele>
        <time>2021-09-25T10:06:51.000Z</time>
      </trkpt>
      <trkpt lat="40.505505837500095367431640625" lon="-1.31279580295085906982421875">
        <ele>1006.79998779296875</ele>
        <time>2021-09-25T10:06:52.000Z</time>
      </trkpt>
      <trkpt lat="40.50543098710477352142333984375" lon="-1.31277593784034252166748046875">
        <ele>1006.79998779296875</ele>
        <time>2021-09-25T10:06:54.000Z</time>
      </trkpt>
      <trkpt lat="40.50535772927105426788330078125" lon="-1.31276185624301433563232421875">
        <ele>1006.79998779296875</ele>
        <time>2021-09-25T10:06:56.000Z</time>
      </trkpt>
      <trkpt lat="40.50528547726571559906005859375" lon="-1.31274090148508548736572265625">
        <ele>1007</ele>
        <time>2021-09-25T10:06:58.000Z</time>
      </trkpt>
      <trkpt lat="40.5052485130727291107177734375" lon="-1.31272614933550357818603515625">
        <ele>1006.79998779296875</ele>
        <time>2021-09-25T10:06:59.000Z</time>
      </trkpt>
      <trkpt lat="40.505212135612964630126953125" lon="-1.3127118162810802459716796875">
        <ele>1006.79998779296875</ele>
        <time>2021-09-25T10:07:00.000Z</time>
      </trkpt>
      <trkpt lat="40.5051375366747379302978515625" lon="-1.31268172524869441986083984375">
        <ele>1006.5999755859375</ele>
        <time>2021-09-25T10:07:02.000Z</time>
      </trkpt>
      <trkpt lat="40.50506218336522579193115234375" lon="-1.31265607662498950958251953125">
        <ele>1006.4000244140625</ele>
        <time>2021-09-25T10:07:04.000Z</time>
      </trkpt>
      <trkpt lat="40.5049859918653964996337890625" lon="-1.3126340322196483612060546875">
        <ele>1006.4000244140625</ele>
        <time>2021-09-25T10:07:06.000Z</time>
      </trkpt>
      <trkpt lat="40.50490695051848888397216796875" lon="-1.3126176036894321441650390625">
        <ele>1006.79998779296875</ele>
        <time>2021-09-25T10:07:08.000Z</time>
      </trkpt>
      <trkpt lat="40.50482950173318386077880859375" lon="-1.3125993311405181884765625">
        <ele>1007</ele>
        <time>2021-09-25T10:07:10.000Z</time>
      </trkpt>
      <trkpt lat="40.50475180149078369140625" lon="-1.312576867640018463134765625">
        <ele>1007.4000244140625</ele>
        <time>2021-09-25T10:07:12.000Z</time>
      </trkpt>
      <trkpt lat="40.5046753585338592529296875" lon="-1.31255197338759899139404296875">
        <ele>1007.79998779296875</ele>
        <time>2021-09-25T10:07:14.000Z</time>
      </trkpt>
      <trkpt lat="40.5045970715582370758056640625" lon="-1.31252649240195751190185546875">
        <ele>1008</ele>
        <time>2021-09-25T10:07:16.000Z</time>
      </trkpt>
      <trkpt lat="40.504516772925853729248046875" lon="-1.312508471310138702392578125">
        <ele>1008</ele>
        <time>2021-09-25T10:07:18.000Z</time>
      </trkpt>
      <trkpt lat="40.5044388212263584136962890625" lon="-1.312482655048370361328125">
        <ele>1008</ele>
        <time>2021-09-25T10:07:20.000Z</time>
      </trkpt>
      <trkpt lat="40.50437117926776409149169921875" lon="-1.312452815473079681396484375">
        <ele>1007.79998779296875</ele>
        <time>2021-09-25T10:07:22.000Z</time>
      </trkpt>
      <trkpt lat="40.50433563999831676483154296875" lon="-1.3124409131705760955810546875">
        <ele>1007.5999755859375</ele>
        <time>2021-09-25T10:07:23.000Z</time>
      </trkpt>
      <trkpt lat="40.5042990110814571380615234375" lon="-1.31242926232516765594482421875">
        <ele>1007.4000244140625</ele>
        <time>2021-09-25T10:07:24.000Z</time>
      </trkpt>
      <trkpt lat="40.50422650761902332305908203125" lon="-1.31240822374820709228515625">
        <ele>1007.20001220703125</ele>
        <time>2021-09-25T10:07:26.000Z</time>
      </trkpt>
      <trkpt lat="40.5041471309959888458251953125" lon="-1.312385760247707366943359375">
        <ele>1007</ele>
        <time>2021-09-25T10:07:28.000Z</time>
      </trkpt>
      <trkpt lat="40.50407253205776214599609375" lon="-1.3123547472059726715087890625">
        <ele>1006.5999755859375</ele>
        <time>2021-09-25T10:07:30.000Z</time>
      </trkpt>
      <trkpt lat="40.50403372384607791900634765625" lon="-1.31234158761799335479736328125">
        <ele>1006.5999755859375</ele>
        <time>2021-09-25T10:07:31.000Z</time>
      </trkpt>
      <trkpt lat="40.50399399362504482269287109375" lon="-1.31233002059161663055419921875">
        <ele>1006.4000244140625</ele>
        <time>2021-09-25T10:07:32.000Z</time>
      </trkpt>
      <trkpt lat="40.50391637720167636871337890625" lon="-1.31231510080397129058837890625">
        <ele>1006</ele>
        <time>2021-09-25T10:07:34.000Z</time>
      </trkpt>
      <trkpt lat="40.50384479574859142303466796875" lon="-1.3122920505702495574951171875">
        <ele>1006</ele>
        <time>2021-09-25T10:07:36.000Z</time>
      </trkpt>
      <trkpt lat="40.50377036444842815399169921875" lon="-1.31227822043001651763916015625">
        <ele>1006</ele>
        <time>2021-09-25T10:07:38.000Z</time>
      </trkpt>
      <trkpt lat="40.5037337355315685272216796875" lon="-1.3122695870697498321533203125">
        <ele>1006</ele>
        <time>2021-09-25T10:07:39.000Z</time>
      </trkpt>
      <trkpt lat="40.50369836390018463134765625" lon="-1.31225760094821453094482421875">
        <ele>1006</ele>
        <time>2021-09-25T10:07:40.000Z</time>
      </trkpt>
      <trkpt lat="40.50362669862806797027587890625" lon="-1.3122400827705860137939453125">
        <ele>1006</ele>
        <time>2021-09-25T10:07:42.000Z</time>
      </trkpt>
      <trkpt lat="40.50355562008917331695556640625" lon="-1.31221468560397624969482421875">
        <ele>1006.4000244140625</ele>
        <time>2021-09-25T10:07:44.000Z</time>
      </trkpt>
      <trkpt lat="40.50348420627415180206298828125" lon="-1.31219088099896907806396484375">
        <ele>1007</ele>
        <time>2021-09-25T10:07:46.000Z</time>
      </trkpt>
      <trkpt lat="40.50344682298600673675537109375" lon="-1.31217948161065578460693359375">
        <ele>1007.20001220703125</ele>
        <time>2021-09-25T10:07:47.000Z</time>
      </trkpt>
      <trkpt lat="40.5034098587930202484130859375" lon="-1.31216674111783504486083984375">
        <ele>1007.4000244140625</ele>
        <time>2021-09-25T10:07:48.000Z</time>
      </trkpt>
      <trkpt lat="40.50333819352090358734130859375" lon="-1.3121539168059825897216796875">
        <ele>1008</ele>
        <time>2021-09-25T10:07:50.000Z</time>
      </trkpt>
      <trkpt lat="40.50326921045780181884765625" lon="-1.31212583743035793304443359375">
        <ele>1008</ele>
        <time>2021-09-25T10:07:52.000Z</time>
      </trkpt>
      <trkpt lat="40.50319612026214599609375" lon="-1.31210924126207828521728515625">
        <ele>1008.20001220703125</ele>
        <time>2021-09-25T10:07:54.000Z</time>
      </trkpt>
      <trkpt lat="40.50311791710555553436279296875" lon="-1.31209080107510089874267578125">
        <ele>1008.4000244140625</ele>
        <time>2021-09-25T10:07:56.000Z</time>
      </trkpt>
      <trkpt lat="40.50308170728385448455810546875" lon="-1.3120763003826141357421875">
        <ele>1008.5999755859375</ele>
        <time>2021-09-25T10:07:57.000Z</time>
      </trkpt>
      <trkpt lat="40.503047592937946319580078125" lon="-1.31205819547176361083984375">
        <ele>1008.5999755859375</ele>
        <time>2021-09-25T10:07:58.000Z</time>
      </trkpt>
      <trkpt lat="40.5029726587235927581787109375" lon="-1.31203497759997844696044921875">
        <ele>1008.20001220703125</ele>
        <time>2021-09-25T10:08:00.000Z</time>
      </trkpt>
      <trkpt lat="40.5029035918414592742919921875" lon="-1.31201117299497127532958984375">
        <ele>1007.79998779296875</ele>
        <time>2021-09-25T10:08:02.000Z</time>
      </trkpt>
      <trkpt lat="40.5028268136084079742431640625" lon="-1.311994828283786773681640625">
        <ele>1007.5999755859375</ele>
        <time>2021-09-25T10:08:04.000Z</time>
      </trkpt>
      <trkpt lat="40.50275213085114955902099609375" lon="-1.311975382268428802490234375">
        <ele>1007.20001220703125</ele>
        <time>2021-09-25T10:08:06.000Z</time>
      </trkpt>
      <trkpt lat="40.5026863329112529754638671875" lon="-1.3119493983685970306396484375">
        <ele>1007.4000244140625</ele>
        <time>2021-09-25T10:08:08.000Z</time>
      </trkpt>
      <trkpt lat="40.50261299125850200653076171875" lon="-1.3119262643158435821533203125">
        <ele>1007.5999755859375</ele>
        <time>2021-09-25T10:08:10.000Z</time>
      </trkpt>
      <trkpt lat="40.50254593603312969207763671875" lon="-1.3119088299572467803955078125">
        <ele>1007.79998779296875</ele>
        <time>2021-09-25T10:08:12.000Z</time>
      </trkpt>
      <trkpt lat="40.50249229185283184051513671875" lon="-1.3118954189121723175048828125">
        <ele>1008</ele>
        <time>2021-09-25T10:08:14.000Z</time>
      </trkpt>
      <trkpt lat="40.50244971178472042083740234375" lon="-1.3118783198297023773193359375">
        <ele>1007.79998779296875</ele>
        <time>2021-09-25T10:08:16.000Z</time>
      </trkpt>
      <trkpt lat="40.50240646116435527801513671875" lon="-1.311864741146564483642578125">
        <ele>1007.5999755859375</ele>
        <time>2021-09-25T10:08:18.000Z</time>
      </trkpt>
      <trkpt lat="40.50235901959240436553955078125" lon="-1.3118565268814563751220703125">
        <ele>1007.4000244140625</ele>
        <time>2021-09-25T10:08:20.000Z</time>
      </trkpt>
      <trkpt lat="40.50231308676302433013916015625" lon="-1.3118387572467327117919921875">
        <ele>1007.20001220703125</ele>
        <time>2021-09-25T10:08:22.000Z</time>
      </trkpt>
      <trkpt lat="40.5022685788571834564208984375" lon="-1.31181679666042327880859375">
        <ele>1007</ele>
        <time>2021-09-25T10:08:24.000Z</time>
      </trkpt>
      <trkpt lat="40.5022196285426616668701171875" lon="-1.31179559044539928436279296875">
        <ele>1007</ele>
        <time>2021-09-25T10:08:26.000Z</time>
      </trkpt>
      <trkpt lat="40.50216640345752239227294921875" lon="-1.3117831014096736907958984375">
        <ele>1007.20001220703125</ele>
        <time>2021-09-25T10:08:28.000Z</time>
      </trkpt>
      <trkpt lat="40.50213991664350032806396484375" lon="-1.31177580915391445159912109375">
        <ele>1007.20001220703125</ele>
        <time>2021-09-25T10:08:29.000Z</time>
      </trkpt>
      <trkpt lat="40.50211426801979541778564453125" lon="-1.311769187450408935546875">
        <ele>1007.4000244140625</ele>
        <time>2021-09-25T10:08:30.000Z</time>
      </trkpt>
      <trkpt lat="40.502061210572719573974609375" lon="-1.31175887770950794219970703125">
        <ele>1007.5999755859375</ele>
        <time>2021-09-25T10:08:32.000Z</time>
      </trkpt>
      <trkpt lat="40.50200563855469226837158203125" lon="-1.31174546666443347930908203125">
        <ele>1007.4000244140625</ele>
        <time>2021-09-25T10:08:34.000Z</time>
      </trkpt>
      <trkpt lat="40.50195165909826755523681640625" lon="-1.3117321394383907318115234375">
        <ele>1007.4000244140625</ele>
        <time>2021-09-25T10:08:36.000Z</time>
      </trkpt>
      <trkpt lat="40.50189617089927196502685546875" lon="-1.311725936830043792724609375">
        <ele>1007.5999755859375</ele>
        <time>2021-09-25T10:08:38.000Z</time>
      </trkpt>
      <trkpt lat="40.501840598881244659423828125" lon="-1.3117096759378910064697265625">
        <ele>1007.79998779296875</ele>
        <time>2021-09-25T10:08:40.000Z</time>
      </trkpt>
      <trkpt lat="40.5017908103764057159423828125" lon="-1.31168679334223270416259765625">
        <ele>1008.20001220703125</ele>
        <time>2021-09-25T10:08:42.000Z</time>
      </trkpt>
      <trkpt lat="40.50174194388091564178466796875" lon="-1.31166634149849414825439453125">
        <ele>1008.4000244140625</ele>
        <time>2021-09-25T10:08:44.000Z</time>
      </trkpt>
      <trkpt lat="40.50169131718575954437255859375" lon="-1.311649493873119354248046875">
        <ele>1008.79998779296875</ele>
        <time>2021-09-25T10:08:46.000Z</time>
      </trkpt>
      <trkpt lat="40.5016396008431911468505859375" lon="-1.31163574755191802978515625">
        <ele>1009</ele>
        <time>2021-09-25T10:08:48.000Z</time>
      </trkpt>
      <trkpt lat="40.501588471233844757080078125" lon="-1.3116157986223697662353515625">
        <ele>1009</ele>
        <time>2021-09-25T10:08:50.000Z</time>
      </trkpt>
      <trkpt lat="40.501535832881927490234375" lon="-1.31159677170217037200927734375">
        <ele>1009</ele>
        <time>2021-09-25T10:08:52.000Z</time>
      </trkpt>
      <trkpt lat="40.50148151814937591552734375" lon="-1.31158478558063507080078125">
        <ele>1008.79998779296875</ele>
        <time>2021-09-25T10:08:54.000Z</time>
      </trkpt>
      <trkpt lat="40.50142711959779262542724609375" lon="-1.3115681894123554229736328125">
        <ele>1008.79998779296875</ele>
        <time>2021-09-25T10:08:56.000Z</time>
      </trkpt>
      <trkpt lat="40.5013707093894481658935546875" lon="-1.3115564547479152679443359375">
        <ele>1008.79998779296875</ele>
        <time>2021-09-25T10:08:58.000Z</time>
      </trkpt>
      <trkpt lat="40.501317568123340606689453125" lon="-1.31154279224574565887451171875">
        <ele>1008.4000244140625</ele>
        <time>2021-09-25T10:09:00.000Z</time>
      </trkpt>
      <trkpt lat="40.501265265047550201416015625" lon="-1.3115256093442440032958984375">
        <ele>1008.20001220703125</ele>
        <time>2021-09-25T10:09:02.000Z</time>
      </trkpt>
      <trkpt lat="40.5012379400432109832763671875" lon="-1.31151781417429447174072265625">
        <ele>1008.20001220703125</ele>
        <time>2021-09-25T10:09:03.000Z</time>
      </trkpt>
      <trkpt lat="40.501210950314998626708984375" lon="-1.31150926463305950164794921875">
        <ele>1008</ele>
        <time>2021-09-25T10:09:04.000Z</time>
      </trkpt>
      <trkpt lat="40.50116099417209625244140625" lon="-1.31149451248347759246826171875">
        <ele>1007.79998779296875</ele>
        <time>2021-09-25T10:09:06.000Z</time>
      </trkpt>
      <trkpt lat="40.5011107027530670166015625" lon="-1.31148093380033969879150390625">
        <ele>1007.5999755859375</ele>
        <time>2021-09-25T10:09:08.000Z</time>
      </trkpt>
      <trkpt lat="40.5010572262108325958251953125" lon="-1.311468780040740966796875">
        <ele>1007.5999755859375</ele>
        <time>2021-09-25T10:09:10.000Z</time>
      </trkpt>
      <trkpt lat="40.5010002292692661285400390625" lon="-1.31145536899566650390625">
        <ele>1007.79998779296875</ele>
        <time>2021-09-25T10:09:12.000Z</time>
      </trkpt>
      <trkpt lat="40.5009707249701023101806640625" lon="-1.3114448077976703643798828125">
        <ele>1008</ele>
        <time>2021-09-25T10:09:13.000Z</time>
      </trkpt>
      <trkpt lat="40.50094180740416049957275390625" lon="-1.31143433041870594024658203125">
        <ele>1008.20001220703125</ele>
        <time>2021-09-25T10:09:14.000Z</time>
      </trkpt>
      <trkpt lat="40.5008875764906406402587890625" lon="-1.31141354329884052276611328125">
        <ele>1008.5999755859375</ele>
        <time>2021-09-25T10:09:16.000Z</time>
      </trkpt>
      <trkpt lat="40.50082664005458354949951171875" lon="-1.31139627657830715179443359375">
        <ele>1009</ele>
        <time>2021-09-25T10:09:18.000Z</time>
      </trkpt>
      <trkpt lat="40.50076000392436981201171875" lon="-1.3113767467439174652099609375">
        <ele>1009.4000244140625</ele>
        <time>2021-09-25T10:09:20.000Z</time>
      </trkpt>
      <trkpt lat="40.5006850697100162506103515625" lon="-1.31135319359600543975830078125">
        <ele>1009.5999755859375</ele>
        <time>2021-09-25T10:09:22.000Z</time>
      </trkpt>
      <trkpt lat="40.50060586072504520416259765625" lon="-1.31132972426712512969970703125">
        <ele>1009.79998779296875</ele>
        <time>2021-09-25T10:09:24.000Z</time>
      </trkpt>
      <trkpt lat="40.50053109414875507354736328125" lon="-1.3113066740334033966064453125">
        <ele>1010</ele>
        <time>2021-09-25T10:09:26.000Z</time>
      </trkpt>
      <trkpt lat="40.500459261238574981689453125" lon="-1.31129083223640918731689453125">
        <ele>1010</ele>
        <time>2021-09-25T10:09:28.000Z</time>
      </trkpt>
      <trkpt lat="40.5003846623003482818603515625" lon="-1.3112630881369113922119140625">
        <ele>1010</ele>
        <time>2021-09-25T10:09:30.000Z</time>
      </trkpt>
      <trkpt lat="40.5003062076866626739501953125" lon="-1.311237104237079620361328125">
        <ele>1010</ele>
        <time>2021-09-25T10:09:32.000Z</time>
      </trkpt>
      <trkpt lat="40.50022800453007221221923828125" lon="-1.31121070124208927154541015625">
        <ele>1010</ele>
        <time>2021-09-25T10:09:34.000Z</time>
      </trkpt>
      <trkpt lat="40.500188358128070831298828125" lon="-1.31120064295828342437744140625">
        <ele>1010</ele>
        <time>2021-09-25T10:09:35.000Z</time>
      </trkpt>
      <trkpt lat="40.5001466162502765655517578125" lon="-1.311193518340587615966796875">
        <ele>1010</ele>
        <time>2021-09-25T10:09:36.000Z</time>
      </trkpt>
      <trkpt lat="40.50006640143692493438720703125" lon="-1.3111668638885021209716796875">
        <ele>1010</ele>
        <time>2021-09-25T10:09:38.000Z</time>
      </trkpt>
      <trkpt lat="40.49998492933809757232666015625" lon="-1.31114113144576549530029296875">
        <ele>1010</ele>
        <time>2021-09-25T10:09:40.000Z</time>
      </trkpt>
      <trkpt lat="40.49990094266831874847412109375" lon="-1.31111531518399715423583984375">
        <ele>1010</ele>
        <time>2021-09-25T10:09:42.000Z</time>
      </trkpt>
      <trkpt lat="40.49981812946498394012451171875" lon="-1.31109167821705341339111328125">
        <ele>1010</ele>
        <time>2021-09-25T10:09:44.000Z</time>
      </trkpt>
      <trkpt lat="40.49973540008068084716796875" lon="-1.31106435321271419525146484375">
        <ele>1010</ele>
        <time>2021-09-25T10:09:46.000Z</time>
      </trkpt>
      <trkpt lat="40.49965233542025089263916015625" lon="-1.31104138679802417755126953125">
        <ele>1009.5999755859375</ele>
        <time>2021-09-25T10:09:48.000Z</time>
      </trkpt>
      <trkpt lat="40.49956818111240863800048828125" lon="-1.31101875565946102142333984375">
        <ele>1009.4000244140625</ele>
        <time>2021-09-25T10:09:50.000Z</time>
      </trkpt>
      <trkpt lat="40.49948905594646930694580078125" lon="-1.31099159829318523406982421875">
        <ele>1009</ele>
        <time>2021-09-25T10:09:52.000Z</time>
      </trkpt>
      <trkpt lat="40.49940708093345165252685546875" lon="-1.3109680451452732086181640625">
        <ele>1008.5999755859375</ele>
        <time>2021-09-25T10:09:54.000Z</time>
      </trkpt>
      <trkpt lat="40.49932694993913173675537109375" lon="-1.31094566546380519866943359375">
        <ele>1008.20001220703125</ele>
        <time>2021-09-25T10:09:56.000Z</time>
      </trkpt>
      <trkpt lat="40.49924665130674839019775390625" lon="-1.31092152558267116546630859375">
        <ele>1008</ele>
        <time>2021-09-25T10:09:58.000Z</time>
      </trkpt>
      <trkpt lat="40.4991635866463184356689453125" lon="-1.3108989782631397247314453125">
        <ele>1008</ele>
        <time>2021-09-25T10:10:00.000Z</time>
      </trkpt>
      <trkpt lat="40.49908219836652278900146484375" lon="-1.31087508983910083770751953125">
        <ele>1008.4000244140625</ele>
        <time>2021-09-25T10:10:02.000Z</time>
      </trkpt>
      <trkpt lat="40.49900206737220287322998046875" lon="-1.31084843538701534271240234375">
        <ele>1007.79998779296875</ele>
        <time>2021-09-25T10:10:04.000Z</time>
      </trkpt>
      <trkpt lat="40.4989247024059295654296875" lon="-1.31081993691623210906982421875">
        <ele>1007.4000244140625</ele>
        <time>2021-09-25T10:10:06.000Z</time>
      </trkpt>
      <trkpt lat="40.49884364940226078033447265625" lon="-1.3108022511005401611328125">
        <ele>1007</ele>
        <time>2021-09-25T10:10:08.000Z</time>
      </trkpt>
      <trkpt lat="40.49876569770276546478271484375" lon="-1.3107806257903575897216796875">
        <ele>1007</ele>
        <time>2021-09-25T10:10:10.000Z</time>
      </trkpt>
      <trkpt lat="40.498687326908111572265625" lon="-1.31075589917600154876708984375">
        <ele>1007</ele>
        <time>2021-09-25T10:10:12.000Z</time>
      </trkpt>
      <trkpt lat="40.49860962666571140289306640625" lon="-1.31073226220905780792236328125">
        <ele>1006.79998779296875</ele>
        <time>2021-09-25T10:10:14.000Z</time>
      </trkpt>
      <trkpt lat="40.4985265620052814483642578125" lon="-1.310708038508892059326171875">
        <ele>1007</ele>
        <time>2021-09-25T10:10:16.000Z</time>
      </trkpt>
      <trkpt lat="40.49844416789710521697998046875" lon="-1.31068498827517032623291015625">
        <ele>1007.20001220703125</ele>
        <time>2021-09-25T10:10:18.000Z</time>
      </trkpt>
      <trkpt lat="40.49836772494018077850341796875" lon="-1.31066344678401947021484375">
        <ele>1007.4000244140625</ele>
        <time>2021-09-25T10:10:20.000Z</time>
      </trkpt>
      <trkpt lat="40.49829103052616119384765625" lon="-1.3106377981603145599365234375">
        <ele>1008</ele>
        <time>2021-09-25T10:10:22.000Z</time>
      </trkpt>
      <trkpt lat="40.49821458756923675537109375" lon="-1.3106143288314342498779296875">
        <ele>1008.5999755859375</ele>
        <time>2021-09-25T10:10:24.000Z</time>
      </trkpt>
      <trkpt lat="40.49817435443401336669921875" lon="-1.310602761805057525634765625">
        <ele>1009</ele>
        <time>2021-09-25T10:10:25.000Z</time>
      </trkpt>
      <trkpt lat="40.49813537858426570892333984375" lon="-1.31058993749320507049560546875">
        <ele>1009.4000244140625</ele>
        <time>2021-09-25T10:10:26.000Z</time>
      </trkpt>
      <trkpt lat="40.49805290065705776214599609375" lon="-1.31056747399270534515380859375">
        <ele>1010.20001220703125</ele>
        <time>2021-09-25T10:10:28.000Z</time>
      </trkpt>
      <trkpt lat="40.4979710094630718231201171875" lon="-1.310541741549968719482421875">
        <ele>1010.5999755859375</ele>
        <time>2021-09-25T10:10:30.000Z</time>
      </trkpt>
      <trkpt lat="40.497888028621673583984375" lon="-1.3105181045830249786376953125">
        <ele>1011.20001220703125</ele>
        <time>2021-09-25T10:10:32.000Z</time>
      </trkpt>
      <trkpt lat="40.4978104121983051300048828125" lon="-1.3104949705302715301513671875">
        <ele>1011.79998779296875</ele>
        <time>2021-09-25T10:10:34.000Z</time>
      </trkpt>
      <trkpt lat="40.49773572944104671478271484375" lon="-1.31046923808753490447998046875">
        <ele>1011.5999755859375</ele>
        <time>2021-09-25T10:10:36.000Z</time>
      </trkpt>
      <trkpt lat="40.49765534698963165283203125" lon="-1.31045079790055751800537109375">
        <ele>1011.20001220703125</ele>
        <time>2021-09-25T10:10:38.000Z</time>
      </trkpt>
      <trkpt lat="40.4975757189095020294189453125" lon="-1.3104248978197574615478515625">
        <ele>1010.79998779296875</ele>
        <time>2021-09-25T10:10:40.000Z</time>
      </trkpt>
      <trkpt lat="40.49749701283872127532958984375" lon="-1.31040100939571857452392578125">
        <ele>1010.20001220703125</ele>
        <time>2021-09-25T10:10:42.000Z</time>
      </trkpt>
      <trkpt lat="40.4974164627492427825927734375" lon="-1.3103752769529819488525390625">
        <ele>1010</ele>
        <time>2021-09-25T10:10:44.000Z</time>
      </trkpt>
      <trkpt lat="40.4973356612026691436767578125" lon="-1.3103501312434673309326171875">
        <ele>1010</ele>
        <time>2021-09-25T10:10:46.000Z</time>
      </trkpt>
      <trkpt lat="40.49725301563739776611328125" lon="-1.31032523699104785919189453125">
        <ele>1009.79998779296875</ele>
        <time>2021-09-25T10:10:48.000Z</time>
      </trkpt>
      <trkpt lat="40.4971713759005069732666015625" lon="-1.310301683843135833740234375">
        <ele>1009.5999755859375</ele>
        <time>2021-09-25T10:10:50.000Z</time>
      </trkpt>
      <trkpt lat="40.49709484912455081939697265625" lon="-1.310276873409748077392578125">
        <ele>1009.5999755859375</ele>
        <time>2021-09-25T10:10:52.000Z</time>
      </trkpt>
      <trkpt lat="40.4970570467412471771240234375" lon="-1.31026606075465679168701171875">
        <ele>1009.79998779296875</ele>
        <time>2021-09-25T10:10:53.000Z</time>
      </trkpt>
      <trkpt lat="40.49701974727213382720947265625" lon="-1.31025566719472408294677734375">
        <ele>1009.79998779296875</ele>
        <time>2021-09-25T10:10:54.000Z</time>
      </trkpt>
      <trkpt lat="40.49694783054292201995849609375" lon="-1.31023420952260494232177734375">
        <ele>1010</ele>
        <time>2021-09-25T10:10:56.000Z</time>
      </trkpt>
      <trkpt lat="40.4968773387372493743896484375" lon="-1.31021241657435894012451171875">
        <ele>1009.5999755859375</ele>
        <time>2021-09-25T10:10:58.000Z</time>
      </trkpt>
      <trkpt lat="40.49680584110319614410400390625" lon="-1.3101928867399692535400390625">
        <ele>1009.20001220703125</ele>
        <time>2021-09-25T10:11:00.000Z</time>
      </trkpt>
      <trkpt lat="40.49673266708850860595703125" lon="-1.31017385981976985931396484375">
        <ele>1008.79998779296875</ele>
        <time>2021-09-25T10:11:02.000Z</time>
      </trkpt>
      <trkpt lat="40.4966530390083789825439453125" lon="-1.3101499713957309722900390625">
        <ele>1008.5999755859375</ele>
        <time>2021-09-25T10:11:04.000Z</time>
      </trkpt>
      <trkpt lat="40.49657030962407588958740234375" lon="-1.31012122146785259246826171875">
        <ele>1008.20001220703125</ele>
        <time>2021-09-25T10:11:06.000Z</time>
      </trkpt>
      <trkpt lat="40.49648431129753589630126953125" lon="-1.31009641103446483612060546875">
        <ele>1007.79998779296875</ele>
        <time>2021-09-25T10:11:08.000Z</time>
      </trkpt>
      <trkpt lat="40.49640317447483539581298828125" lon="-1.310072354972362518310546875">
        <ele>1007.5999755859375</ele>
        <time>2021-09-25T10:11:10.000Z</time>
      </trkpt>
      <trkpt lat="40.49632254056632518768310546875" lon="-1.3100517354905605316162109375">
        <ele>1007.5999755859375</ele>
        <time>2021-09-25T10:11:12.000Z</time>
      </trkpt>
      <trkpt lat="40.496240817010402679443359375" lon="-1.31002843379974365234375">
        <ele>1007.79998779296875</ele>
        <time>2021-09-25T10:11:14.000Z</time>
      </trkpt>
      <trkpt lat="40.49615641124546527862548828125" lon="-1.310003958642482757568359375">
        <ele>1008</ele>
        <time>2021-09-25T10:11:16.000Z</time>
      </trkpt>
      <trkpt lat="40.49607275985181331634521484375" lon="-1.30998007021844387054443359375">
        <ele>1008.20001220703125</ele>
        <time>2021-09-25T10:11:18.000Z</time>
      </trkpt>
      <trkpt lat="40.49603068269789218902587890625" lon="-1.30996816791594028472900390625">
        <ele>1008.20001220703125</ele>
        <time>2021-09-25T10:11:19.000Z</time>
      </trkpt>
      <trkpt lat="40.49598843790590763092041015625" lon="-1.30995743907988071441650390625">
        <ele>1008</ele>
        <time>2021-09-25T10:11:20.000Z</time>
      </trkpt>
      <trkpt lat="40.49591283313930034637451171875" lon="-1.30993522703647613525390625">
        <ele>1008</ele>
        <time>2021-09-25T10:11:22.000Z</time>
      </trkpt>
      <trkpt lat="40.495834462344646453857421875" lon="-1.30991242825984954833984375">
        <ele>1007.79998779296875</ele>
        <time>2021-09-25T10:11:24.000Z</time>
      </trkpt>
      <trkpt lat="40.49575642682611942291259765625" lon="-1.3098849356174468994140625">
        <ele>1007.5999755859375</ele>
        <time>2021-09-25T10:11:26.000Z</time>
      </trkpt>
      <trkpt lat="40.495671518146991729736328125" lon="-1.30986272357404232025146484375">
        <ele>1007.4000244140625</ele>
        <time>2021-09-25T10:11:28.000Z</time>
      </trkpt>
      <trkpt lat="40.4955932311713695526123046875" lon="-1.3098374940454959869384765625">
        <ele>1007</ele>
        <time>2021-09-25T10:11:30.000Z</time>
      </trkpt>
      <trkpt lat="40.49551502801477909088134765625" lon="-1.30982391536235809326171875">
        <ele>1006.5999755859375</ele>
        <time>2021-09-25T10:11:32.000Z</time>
      </trkpt>
      <trkpt lat="40.49543791450560092926025390625" lon="-1.3098029606044292449951171875">
        <ele>1006</ele>
        <time>2021-09-25T10:11:34.000Z</time>
      </trkpt>
      <trkpt lat="40.49539826810359954833984375" lon="-1.30979038774967193603515625">
        <ele>1006</ele>
        <time>2021-09-25T10:11:35.000Z</time>
      </trkpt>
      <trkpt lat="40.49535744823515415191650390625" lon="-1.3097778148949146270751953125">
        <ele>1006</ele>
        <time>2021-09-25T10:11:36.000Z</time>
      </trkpt>
      <trkpt lat="40.495276562869548797607421875" lon="-1.30975375883281230926513671875">
        <ele>1006.4000244140625</ele>
        <time>2021-09-25T10:11:38.000Z</time>
      </trkpt>
      <trkpt lat="40.49519718624651432037353515625" lon="-1.3097241707146167755126953125">
        <ele>1006.20001220703125</ele>
        <time>2021-09-25T10:11:40.000Z</time>
      </trkpt>
      <trkpt lat="40.4951583780348300933837890625" lon="-1.3097064010798931121826171875">
        <ele>1006.4000244140625</ele>
        <time>2021-09-25T10:11:41.000Z</time>
      </trkpt>
      <trkpt lat="40.4951211623847484588623046875" lon="-1.3096864521503448486328125">
        <ele>1006.5999755859375</ele>
        <time>2021-09-25T10:11:42.000Z</time>
      </trkpt>
      <trkpt lat="40.49508235417306423187255859375" lon="-1.30967128090560436248779296875">
        <ele>1006.5999755859375</ele>
        <time>2021-09-25T10:11:43.000Z</time>
      </trkpt>
      <trkpt lat="40.49504446797072887420654296875" lon="-1.309653930366039276123046875">
        <ele>1006.79998779296875</ele>
        <time>2021-09-25T10:11:44.000Z</time>
      </trkpt>
      <trkpt lat="40.49496768973767757415771484375" lon="-1.3096167147159576416015625">
        <ele>1007</ele>
        <time>2021-09-25T10:11:46.000Z</time>
      </trkpt>
      <trkpt lat="40.49488864839076995849609375" lon="-1.3095836900174617767333984375">
        <ele>1007</ele>
        <time>2021-09-25T10:11:48.000Z</time>
      </trkpt>
      <trkpt lat="40.494814217090606689453125" lon="-1.3095488213002681732177734375">
        <ele>1007.20001220703125</ele>
        <time>2021-09-25T10:11:50.000Z</time>
      </trkpt>
      <trkpt lat="40.49473953433334827423095703125" lon="-1.30951009690761566162109375">
        <ele>1006.79998779296875</ele>
        <time>2021-09-25T10:11:52.000Z</time>
      </trkpt>
      <trkpt lat="40.4946705512702465057373046875" lon="-1.30946793593466281890869140625">
        <ele>1006.4000244140625</ele>
        <time>2021-09-25T10:11:54.000Z</time>
      </trkpt>
      <trkpt lat="40.49459972418844699859619140625" lon="-1.3094264455139636993408203125">
        <ele>1005.79998779296875</ele>
        <time>2021-09-25T10:11:56.000Z</time>
      </trkpt>
      <trkpt lat="40.49453057348728179931640625" lon="-1.3093798421323299407958984375">
        <ele>1005.20001220703125</ele>
        <time>2021-09-25T10:11:58.000Z</time>
      </trkpt>
      <trkpt lat="40.4944579862058162689208984375" lon="-1.3093231804668903350830078125">
        <ele>1004.79998779296875</ele>
        <time>2021-09-25T10:12:00.000Z</time>
      </trkpt>
      <trkpt lat="40.49438933841884136199951171875" lon="-1.3092749007046222686767578125">
        <ele>1004.4000244140625</ele>
        <time>2021-09-25T10:12:02.000Z</time>
      </trkpt>
      <trkpt lat="40.4943158291280269622802734375" lon="-1.30922653712332248687744140625">
        <ele>1004</ele>
        <time>2021-09-25T10:12:04.000Z</time>
      </trkpt>
      <trkpt lat="40.4942442476749420166015625" lon="-1.3091763295233249664306640625">
        <ele>1004.4000244140625</ele>
        <time>2021-09-25T10:12:06.000Z</time>
      </trkpt>
      <trkpt lat="40.4941740073263645172119140625" lon="-1.30911849439144134521484375">
        <ele>1005</ele>
        <time>2021-09-25T10:12:08.000Z</time>
      </trkpt>
      <trkpt lat="40.49410250969231128692626953125" lon="-1.30906543694436550140380859375">
        <ele>1005.5999755859375</ele>
        <time>2021-09-25T10:12:10.000Z</time>
      </trkpt>
      <trkpt lat="40.49402941949665546417236328125" lon="-1.30900986492633819580078125">
        <ele>1006.4000244140625</ele>
        <time>2021-09-25T10:12:12.000Z</time>
      </trkpt>
      <trkpt lat="40.49395666457712650299072265625" lon="-1.3089483417570590972900390625">
        <ele>1007.4000244140625</ele>
        <time>2021-09-25T10:12:14.000Z</time>
      </trkpt>
      <trkpt lat="40.4938806407153606414794921875" lon="-1.308886818587779998779296875">
        <ele>1008.5999755859375</ele>
        <time>2021-09-25T10:12:16.000Z</time>
      </trkpt>
      <trkpt lat="40.49380126409232616424560546875" lon="-1.308814398944377899169921875">
        <ele>1008.5999755859375</ele>
        <time>2021-09-25T10:12:18.000Z</time>
      </trkpt>
      <trkpt lat="40.493722222745418548583984375" lon="-1.30874256603419780731201171875">
        <ele>1008.4000244140625</ele>
        <time>2021-09-25T10:12:20.000Z</time>
      </trkpt>
      <trkpt lat="40.49364536069333553314208984375" lon="-1.3086600042879581451416015625">
        <ele>1008.20001220703125</ele>
        <time>2021-09-25T10:12:22.000Z</time>
      </trkpt>
      <trkpt lat="40.493602193892002105712890625" lon="-1.3086248002946376800537109375">
        <ele>1008</ele>
        <time>2021-09-25T10:12:23.000Z</time>
      </trkpt>
      <trkpt lat="40.4935634694993495941162109375" lon="-1.30858984775841236114501953125">
        <ele>1008</ele>
        <time>2021-09-25T10:12:24.000Z</time>
      </trkpt>
      <trkpt lat="40.49350060522556304931640625" lon="-1.308527402579784393310546875">
        <ele>1007.4000244140625</ele>
        <time>2021-09-25T10:12:26.000Z</time>
      </trkpt>
      <trkpt lat="40.49344788305461406707763671875" lon="-1.30847635678946971893310546875">
        <ele>1007.20001220703125</ele>
        <time>2021-09-25T10:12:28.000Z</time>
      </trkpt>
      <trkpt lat="40.4934005253016948699951171875" lon="-1.3084393925964832305908203125">
        <ele>1006.79998779296875</ele>
        <time>2021-09-25T10:12:30.000Z</time>
      </trkpt>
      <trkpt lat="40.49334126524627208709716796875" lon="-1.30839270539581775665283203125">
        <ele>1006.4000244140625</ele>
        <time>2021-09-25T10:12:32.000Z</time>
      </trkpt>
      <trkpt lat="40.49330036155879497528076171875" lon="-1.30836605094373226165771484375">
        <ele>1006.4000244140625</ele>
        <time>2021-09-25T10:12:33.000Z</time>
      </trkpt>
      <trkpt lat="40.49325861968100070953369140625" lon="-1.30833436734974384307861328125">
        <ele>1006.20001220703125</ele>
        <time>2021-09-25T10:12:34.000Z</time>
      </trkpt>
      <trkpt lat="40.4931919835507869720458984375" lon="-1.30825725384056568145751953125">
        <ele>1006</ele>
        <time>2021-09-25T10:12:36.000Z</time>
      </trkpt>
      <trkpt lat="40.49312333576381206512451171875" lon="-1.30819338373839855194091796875">
        <ele>1005.5999755859375</ele>
        <time>2021-09-25T10:12:38.000Z</time>
      </trkpt>
      <trkpt lat="40.49308796413242816925048828125" lon="-1.30816488526761531829833984375">
        <ele>1005.5999755859375</ele>
        <time>2021-09-25T10:12:39.000Z</time>
      </trkpt>
      <trkpt lat="40.4930491559207439422607421875" lon="-1.3081347942352294921875">
        <ele>1005.4000244140625</ele>
        <time>2021-09-25T10:12:40.000Z</time>
      </trkpt>
      <trkpt lat="40.4929717071354389190673828125" lon="-1.3080598600208759307861328125">
        <ele>1005.20001220703125</ele>
        <time>2021-09-25T10:12:42.000Z</time>
      </trkpt>
      <trkpt lat="40.49290188588201999664306640625" lon="-1.30798794329166412353515625">
        <ele>1005.5999755859375</ele>
        <time>2021-09-25T10:12:44.000Z</time>
      </trkpt>
      <trkpt lat="40.492876656353473663330078125" lon="-1.3079532422125339508056640625">
        <ele>1005.5999755859375</ele>
        <time>2021-09-25T10:12:45.000Z</time>
      </trkpt>
      <trkpt lat="40.4928546957671642303466796875" lon="-1.3079257495701313018798828125">
        <ele>1005.79998779296875</ele>
        <time>2021-09-25T10:12:46.000Z</time>
      </trkpt>
      <trkpt lat="40.49281069077551364898681640625" lon="-1.30788090638816356658935546875">
        <ele>1005.79998779296875</ele>
        <time>2021-09-25T10:12:48.000Z</time>
      </trkpt>
      <trkpt lat="40.49276408739387989044189453125" lon="-1.307848803699016571044921875">
        <ele>1006</ele>
        <time>2021-09-25T10:12:50.000Z</time>
      </trkpt>
      <trkpt lat="40.49271765165030956268310546875" lon="-1.3078060559928417205810546875">
        <ele>1006</ele>
        <time>2021-09-25T10:12:52.000Z</time>
      </trkpt>
      <trkpt lat="40.49266400747001171112060546875" lon="-1.30776691250503063201904296875">
        <ele>1006.20001220703125</ele>
        <time>2021-09-25T10:12:54.000Z</time>
      </trkpt>
      <trkpt lat="40.4926039092242717742919921875" lon="-1.307730786502361297607421875">
        <ele>1006.5999755859375</ele>
        <time>2021-09-25T10:12:56.000Z</time>
      </trkpt>
      <trkpt lat="40.4925442300736904144287109375" lon="-1.30768493749201297760009765625">
        <ele>1007</ele>
        <time>2021-09-25T10:12:58.000Z</time>
      </trkpt>
      <trkpt lat="40.49249536357820034027099609375" lon="-1.307625509798526763916015625">
        <ele>1007.4000244140625</ele>
        <time>2021-09-25T10:13:00.000Z</time>
      </trkpt>
      <trkpt lat="40.49244088120758533477783203125" lon="-1.3075773976743221282958984375">
        <ele>1007.79998779296875</ele>
        <time>2021-09-25T10:13:02.000Z</time>
      </trkpt>
      <trkpt lat="40.49238036386668682098388671875" lon="-1.30753691308200359344482421875">
        <ele>1008</ele>
        <time>2021-09-25T10:13:04.000Z</time>
      </trkpt>
      <trkpt lat="40.492323450744152069091796875" lon="-1.30748637020587921142578125">
        <ele>1008.4000244140625</ele>
        <time>2021-09-25T10:13:06.000Z</time>
      </trkpt>
      <trkpt lat="40.49226754344999790191650390625" lon="-1.3074285350739955902099609375">
        <ele>1008.79998779296875</ele>
        <time>2021-09-25T10:13:08.000Z</time>
      </trkpt>
      <trkpt lat="40.4922116361558437347412109375" lon="-1.30737639963626861572265625">
        <ele>1008.79998779296875</ele>
        <time>2021-09-25T10:13:10.000Z</time>
      </trkpt>
      <trkpt lat="40.49215547740459442138671875" lon="-1.3073172233998775482177734375">
        <ele>1008.5999755859375</ele>
        <time>2021-09-25T10:13:12.000Z</time>
      </trkpt>
      <trkpt lat="40.49209906719624996185302734375" lon="-1.30725578404963016510009765625">
        <ele>1008.4000244140625</ele>
        <time>2021-09-25T10:13:14.000Z</time>
      </trkpt>
      <trkpt lat="40.492037795484066009521484375" lon="-1.30720348097383975982666015625">
        <ele>1008.5999755859375</ele>
        <time>2021-09-25T10:13:16.000Z</time>
      </trkpt>
      <trkpt lat="40.4919725842773914337158203125" lon="-1.30715318955481052398681640625">
        <ele>1008.79998779296875</ele>
        <time>2021-09-25T10:13:18.000Z</time>
      </trkpt>
      <trkpt lat="40.491912402212619781494140625" lon="-1.30708940327167510986328125">
        <ele>1008.79998779296875</ele>
        <time>2021-09-25T10:13:20.000Z</time>
      </trkpt>
      <trkpt lat="40.491852723062038421630859375" lon="-1.30703450180590152740478515625">
        <ele>1008.5999755859375</ele>
        <time>2021-09-25T10:13:22.000Z</time>
      </trkpt>
      <trkpt lat="40.49179128371179103851318359375" lon="-1.30698488093912601470947265625">
        <ele>1008.4000244140625</ele>
        <time>2021-09-25T10:13:24.000Z</time>
      </trkpt>
      <trkpt lat="40.49172900617122650146484375" lon="-1.30692335776984691619873046875">
        <ele>1008.20001220703125</ele>
        <time>2021-09-25T10:13:26.000Z</time>
      </trkpt>
      <trkpt lat="40.4916651360690593719482421875" lon="-1.3068679533898830413818359375">
        <ele>1008</ele>
        <time>2021-09-25T10:13:28.000Z</time>
      </trkpt>
      <trkpt lat="40.4916027747094631195068359375" lon="-1.30681179463863372802734375">
        <ele>1008.4000244140625</ele>
        <time>2021-09-25T10:13:30.000Z</time>
      </trkpt>
      <trkpt lat="40.4915714263916015625" lon="-1.30678120069205760955810546875">
        <ele>1008.5999755859375</ele>
        <time>2021-09-25T10:13:31.000Z</time>
      </trkpt>
      <trkpt lat="40.4915404133498668670654296875" lon="-1.3067556358873844146728515625">
        <ele>1008.79998779296875</ele>
        <time>2021-09-25T10:13:32.000Z</time>
      </trkpt>
      <trkpt lat="40.49147419631481170654296875" lon="-1.3067013211548328399658203125">
        <ele>1008.5999755859375</ele>
        <time>2021-09-25T10:13:34.000Z</time>
      </trkpt>
      <trkpt lat="40.4914133436977863311767578125" lon="-1.3066399656236171722412109375">
        <ele>1008.20001220703125</ele>
        <time>2021-09-25T10:13:36.000Z</time>
      </trkpt>
      <trkpt lat="40.491355843842029571533203125" lon="-1.30658087320625782012939453125">
        <ele>1008.20001220703125</ele>
        <time>2021-09-25T10:13:38.000Z</time>
      </trkpt>
      <trkpt lat="40.49129339866340160369873046875" lon="-1.30652555264532566070556640625">
        <ele>1008.4000244140625</ele>
        <time>2021-09-25T10:13:40.000Z</time>
      </trkpt>
      <trkpt lat="40.4912296123802661895751953125" lon="-1.30646872334182262420654296875">
        <ele>1008.4000244140625</ele>
        <time>2021-09-25T10:13:42.000Z</time>
      </trkpt>
      <trkpt lat="40.4911625571548938751220703125" lon="-1.306401081383228302001953125">
        <ele>1007.5999755859375</ele>
        <time>2021-09-25T10:13:44.000Z</time>
      </trkpt>
      <trkpt lat="40.49109625630080699920654296875" lon="-1.30634098313748836517333984375">
        <ele>1007.20001220703125</ele>
        <time>2021-09-25T10:13:46.000Z</time>
      </trkpt>
      <trkpt lat="40.49106172285974025726318359375" lon="-1.30630929954349994659423828125">
        <ele>1007.20001220703125</ele>
        <time>2021-09-25T10:13:47.000Z</time>
      </trkpt>
      <trkpt lat="40.49102903343737125396728515625" lon="-1.30627761594951152801513671875">
        <ele>1007.4000244140625</ele>
        <time>2021-09-25T10:13:48.000Z</time>
      </trkpt>
      <trkpt lat="40.49096331931650638580322265625" lon="-1.30621776916086673736572265625">
        <ele>1007.5999755859375</ele>
        <time>2021-09-25T10:13:50.000Z</time>
      </trkpt>
      <trkpt lat="40.4908936657011508941650390625" lon="-1.30615892820060253143310546875">
        <ele>1008</ele>
        <time>2021-09-25T10:13:52.000Z</time>
      </trkpt>
      <trkpt lat="40.4908611439168453216552734375" lon="-1.30612959153950214385986328125">
        <ele>1008</ele>
        <time>2021-09-25T10:13:53.000Z</time>
      </trkpt>
      <trkpt lat="40.49082837067544460296630859375" lon="-1.3061041943728923797607421875">
        <ele>1008.20001220703125</ele>
        <time>2021-09-25T10:13:54.000Z</time>
      </trkpt>
      <trkpt lat="40.49076081253588199615478515625" lon="-1.30605314858257770538330078125">
        <ele>1008.20001220703125</ele>
        <time>2021-09-25T10:13:56.000Z</time>
      </trkpt>
      <trkpt lat="40.490692667663097381591796875" lon="-1.306004785001277923583984375">
        <ele>1008.4000244140625</ele>
        <time>2021-09-25T10:13:58.000Z</time>
      </trkpt>
      <trkpt lat="40.49062837846577167510986328125" lon="-1.30593915469944477081298828125">
        <ele>1008.4000244140625</ele>
        <time>2021-09-25T10:14:00.000Z</time>
      </trkpt>
      <trkpt lat="40.49059770070016384124755859375" lon="-1.30590646527707576751708984375">
        <ele>1008.5999755859375</ele>
        <time>2021-09-25T10:14:01.000Z</time>
      </trkpt>
      <trkpt lat="40.49056450836360454559326171875" lon="-1.3058775477111339569091796875">
        <ele>1009</ele>
        <time>2021-09-25T10:14:02.000Z</time>
      </trkpt>
      <trkpt lat="40.49050047062337398529052734375" lon="-1.3058141805231571197509765625">
        <ele>1009</ele>
        <time>2021-09-25T10:14:04.000Z</time>
      </trkpt>
      <trkpt lat="40.49043576233088970184326171875" lon="-1.3057605363428592681884765625">
        <ele>1008.5999755859375</ele>
        <time>2021-09-25T10:14:06.000Z</time>
      </trkpt>
      <trkpt lat="40.4903699643909931182861328125" lon="-1.30570295266807079315185546875">
        <ele>1008</ele>
        <time>2021-09-25T10:14:08.000Z</time>
      </trkpt>
      <trkpt lat="40.49030332826077938079833984375" lon="-1.3056416809558868408203125">
        <ele>1008</ele>
        <time>2021-09-25T10:14:10.000Z</time>
      </trkpt>
      <trkpt lat="40.49026720225811004638671875" lon="-1.305612511932849884033203125">
        <ele>1008</ele>
        <time>2021-09-25T10:14:11.000Z</time>
      </trkpt>
      <trkpt lat="40.4902335070073604583740234375" lon="-1.305583007633686065673828125">
        <ele>1008.20001220703125</ele>
        <time>2021-09-25T10:14:12.000Z</time>
      </trkpt>
      <trkpt lat="40.49016737379133701324462890625" lon="-1.30552005954086780548095703125">
        <ele>1008.79998779296875</ele>
        <time>2021-09-25T10:14:14.000Z</time>
      </trkpt>
      <trkpt lat="40.49009595997631549835205078125" lon="-1.3054675050079822540283203125">
        <ele>1009.4000244140625</ele>
        <time>2021-09-25T10:14:16.000Z</time>
      </trkpt>
      <trkpt lat="40.49002471379935741424560546875" lon="-1.30540497601032257080078125">
        <ele>1010</ele>
        <time>2021-09-25T10:14:18.000Z</time>
      </trkpt>
      <trkpt lat="40.4899874143302440643310546875" lon="-1.30537237040698528289794921875">
        <ele>1010.20001220703125</ele>
        <time>2021-09-25T10:14:19.000Z</time>
      </trkpt>
      <trkpt lat="40.4899532161653041839599609375" lon="-1.30533465184271335601806640625">
        <ele>1010.4000244140625</ele>
        <time>2021-09-25T10:14:20.000Z</time>
      </trkpt>
      <trkpt lat="40.489884652197360992431640625" lon="-1.30526742897927761077880859375">
        <ele>1011.20001220703125</ele>
        <time>2021-09-25T10:14:22.000Z</time>
      </trkpt>
      <trkpt lat="40.4898174293339252471923828125" lon="-1.30520003847777843475341796875">
        <ele>1012</ele>
        <time>2021-09-25T10:14:24.000Z</time>
      </trkpt>
      <trkpt lat="40.4897550679743289947509765625" lon="-1.30512745119631290435791015625">
        <ele>1012.79998779296875</ele>
        <time>2021-09-25T10:14:26.000Z</time>
      </trkpt>
      <trkpt lat="40.48968491144478321075439453125" lon="-1.3050678558647632598876953125">
        <ele>1013</ele>
        <time>2021-09-25T10:14:28.000Z</time>
      </trkpt>
      <trkpt lat="40.48961567692458629608154296875" lon="-1.30500373430550098419189453125">
        <ele>1012.79998779296875</ele>
        <time>2021-09-25T10:14:30.000Z</time>
      </trkpt>
      <trkpt lat="40.48954426310956478118896484375" lon="-1.30495310761034488677978515625">
        <ele>1012.4000244140625</ele>
        <time>2021-09-25T10:14:32.000Z</time>
      </trkpt>
      <trkpt lat="40.48947536386549472808837890625" lon="-1.30490005016326904296875">
        <ele>1012.20001220703125</ele>
        <time>2021-09-25T10:14:34.000Z</time>
      </trkpt>
      <trkpt lat="40.48940755426883697509765625" lon="-1.30484079010784626007080078125">
        <ele>1011.79998779296875</ele>
        <time>2021-09-25T10:14:36.000Z</time>
      </trkpt>
      <trkpt lat="40.4893433488905429840087890625" lon="-1.30478178150951862335205078125">
        <ele>1011.20001220703125</ele>
        <time>2021-09-25T10:14:38.000Z</time>
      </trkpt>
      <trkpt lat="40.48931292258203029632568359375" lon="-1.3047486729919910430908203125">
        <ele>1011</ele>
        <time>2021-09-25T10:14:39.000Z</time>
      </trkpt>
      <trkpt lat="40.48927939496934413909912109375" lon="-1.30471740849316120147705078125">
        <ele>1010.79998779296875</ele>
        <time>2021-09-25T10:14:40.000Z</time>
      </trkpt>
      <trkpt lat="40.48921384848654270172119140625" lon="-1.304652951657772064208984375">
        <ele>1010.4000244140625</ele>
        <time>2021-09-25T10:14:42.000Z</time>
      </trkpt>
      <trkpt lat="40.4891472123563289642333984375" lon="-1.304595284163951873779296875">
        <ele>1010</ele>
        <time>2021-09-25T10:14:44.000Z</time>
      </trkpt>
      <trkpt lat="40.4890756309032440185546875" lon="-1.304532922804355621337890625">
        <ele>1009.5999755859375</ele>
        <time>2021-09-25T10:14:46.000Z</time>
      </trkpt>
      <trkpt lat="40.4890020377933979034423828125" lon="-1.30446846596896648406982421875">
        <ele>1009.4000244140625</ele>
        <time>2021-09-25T10:14:48.000Z</time>
      </trkpt>
      <trkpt lat="40.4889307916164398193359375" lon="-1.30440543405711650848388671875">
        <ele>1009.20001220703125</ele>
        <time>2021-09-25T10:14:50.000Z</time>
      </trkpt>
      <trkpt lat="40.488862730562686920166015625" lon="-1.30434726364910602569580078125">
        <ele>1009</ele>
        <time>2021-09-25T10:14:52.000Z</time>
      </trkpt>
      <trkpt lat="40.48879257403314113616943359375" lon="-1.30429244600236415863037109375">
        <ele>1009</ele>
        <time>2021-09-25T10:14:54.000Z</time>
      </trkpt>
      <trkpt lat="40.48875845968723297119140625" lon="-1.30426243878901004791259765625">
        <ele>1009</ele>
        <time>2021-09-25T10:14:55.000Z</time>
      </trkpt>
      <trkpt lat="40.48872434534132480621337890625" lon="-1.30423150956630706787109375">
        <ele>1009</ele>
        <time>2021-09-25T10:14:56.000Z</time>
      </trkpt>
      <trkpt lat="40.48865460790693759918212890625" lon="-1.30417048931121826171875">
        <ele>1009</ele>
        <time>2021-09-25T10:14:58.000Z</time>
      </trkpt>
      <trkpt lat="40.4885842837393283843994140625" lon="-1.30410435609519481658935546875">
        <ele>1009</ele>
        <time>2021-09-25T10:15:00.000Z</time>
      </trkpt>
      <trkpt lat="40.4885165579617023468017578125" lon="-1.30403227172791957855224609375">
        <ele>1009.4000244140625</ele>
        <time>2021-09-25T10:15:02.000Z</time>
      </trkpt>
      <trkpt lat="40.48848311416804790496826171875" lon="-1.30399690009653568267822265625">
        <ele>1009.4000244140625</ele>
        <time>2021-09-25T10:15:03.000Z</time>
      </trkpt>
      <trkpt lat="40.48844656907021999359130859375" lon="-1.3039653003215789794921875">
        <ele>1009.5999755859375</ele>
        <time>2021-09-25T10:15:04.000Z</time>
      </trkpt>
      <trkpt lat="40.4883730597794055938720703125" lon="-1.3039021007716655731201171875">
        <ele>1009.79998779296875</ele>
        <time>2021-09-25T10:15:06.000Z</time>
      </trkpt>
      <trkpt lat="40.488301813602447509765625" lon="-1.303833536803722381591796875">
        <ele>1010.20001220703125</ele>
        <time>2021-09-25T10:15:08.000Z</time>
      </trkpt>
      <trkpt lat="40.4882265441119670867919921875" lon="-1.30377016961574554443359375">
        <ele>1011</ele>
        <time>2021-09-25T10:15:10.000Z</time>
      </trkpt>
      <trkpt lat="40.4881511069834232330322265625" lon="-1.30370520986616611480712890625">
        <ele>1011.79998779296875</ele>
        <time>2021-09-25T10:15:12.000Z</time>
      </trkpt>
      <trkpt lat="40.4880803637206554412841796875" lon="-1.30364251323044300079345703125">
        <ele>1012.4000244140625</ele>
        <time>2021-09-25T10:15:14.000Z</time>
      </trkpt>
      <trkpt lat="40.488011799752712249755859375" lon="-1.30357160232961177825927734375">
        <ele>1012.79998779296875</ele>
        <time>2021-09-25T10:15:16.000Z</time>
      </trkpt>
      <trkpt lat="40.4879422299563884735107421875" lon="-1.30350521765649318695068359375">
        <ele>1012.5999755859375</ele>
        <time>2021-09-25T10:15:18.000Z</time>
      </trkpt>
      <trkpt lat="40.487869642674922943115234375" lon="-1.303443275392055511474609375">
        <ele>1012.4000244140625</ele>
        <time>2021-09-25T10:15:20.000Z</time>
      </trkpt>
      <trkpt lat="40.48779780976474285125732421875" lon="-1.30337856709957122802734375">
        <ele>1012.5999755859375</ele>
        <time>2021-09-25T10:15:22.000Z</time>
      </trkpt>
      <trkpt lat="40.4877286590635776519775390625" lon="-1.30330958403646945953369140625">
        <ele>1012.5999755859375</ele>
        <time>2021-09-25T10:15:24.000Z</time>
      </trkpt>
      <trkpt lat="40.48769320361316204071044921875" lon="-1.3032786548137664794921875">
        <ele>1012.4000244140625</ele>
        <time>2021-09-25T10:15:25.000Z</time>
      </trkpt>
      <trkpt lat="40.4876552335917949676513671875" lon="-1.30325057543814182281494140625">
        <ele>1012</ele>
        <time>2021-09-25T10:15:26.000Z</time>
      </trkpt>
      <trkpt lat="40.4875828139483928680419921875" lon="-1.30318653769791126251220703125">
        <ele>1011.4000244140625</ele>
        <time>2021-09-25T10:15:28.000Z</time>
      </trkpt>
      <trkpt lat="40.4875087179243564605712890625" lon="-1.30312635563313961029052734375">
        <ele>1011</ele>
        <time>2021-09-25T10:15:30.000Z</time>
      </trkpt>
      <trkpt lat="40.4874339513480663299560546875" lon="-1.3030635751783847808837890625">
        <ele>1011</ele>
        <time>2021-09-25T10:15:32.000Z</time>
      </trkpt>
      <trkpt lat="40.4873953945934772491455078125" lon="-1.30302987992763519287109375">
        <ele>1010.79998779296875</ele>
        <time>2021-09-25T10:15:33.000Z</time>
      </trkpt>
      <trkpt lat="40.48735759221017360687255859375" lon="-1.30299895070493221282958984375">
        <ele>1010.5999755859375</ele>
        <time>2021-09-25T10:15:34.000Z</time>
      </trkpt>
      <trkpt lat="40.4872840829193592071533203125" lon="-1.30293323658406734466552734375">
        <ele>1010.20001220703125</ele>
        <time>2021-09-25T10:15:36.000Z</time>
      </trkpt>
      <trkpt lat="40.48720973543822765350341796875" lon="-1.30286400206387042999267578125">
        <ele>1009.5999755859375</ele>
        <time>2021-09-25T10:15:38.000Z</time>
      </trkpt>
      <trkpt lat="40.48713245429098606109619140625" lon="-1.30279594101011753082275390625">
        <ele>1009.20001220703125</ele>
        <time>2021-09-25T10:15:40.000Z</time>
      </trkpt>
      <trkpt lat="40.48709423281252384185791015625" lon="-1.302761994302272796630859375">
        <ele>1009.20001220703125</ele>
        <time>2021-09-25T10:15:41.000Z</time>
      </trkpt>
      <trkpt lat="40.48705601133406162261962890625" lon="-1.3027279637753963470458984375">
        <ele>1009</ele>
        <time>2021-09-25T10:15:42.000Z</time>
      </trkpt>
      <trkpt lat="40.4869823344051837921142578125" lon="-1.3026548735797405242919921875">
        <ele>1008.79998779296875</ele>
        <time>2021-09-25T10:15:44.000Z</time>
      </trkpt>
      <trkpt lat="40.48690513707697391510009765625" lon="-1.3025911711156368255615234375">
        <ele>1009.20001220703125</ele>
        <time>2021-09-25T10:15:46.000Z</time>
      </trkpt>
      <trkpt lat="40.48686641268432140350341796875" lon="-1.3025603257119655609130859375">
        <ele>1009.20001220703125</ele>
        <time>2021-09-25T10:15:47.000Z</time>
      </trkpt>
      <trkpt lat="40.486829280853271484375" lon="-1.302525959908962249755859375">
        <ele>1009.4000244140625</ele>
        <time>2021-09-25T10:15:48.000Z</time>
      </trkpt>
      <trkpt lat="40.48679499886929988861083984375" lon="-1.302491091191768646240234375">
        <ele>1009.5999755859375</ele>
        <time>2021-09-25T10:15:49.000Z</time>
      </trkpt>
      <trkpt lat="40.4867563582956790924072265625" lon="-1.30246351473033428192138671875">
        <ele>1009.5999755859375</ele>
        <time>2021-09-25T10:15:50.000Z</time>
      </trkpt>
      <trkpt lat="40.4866822622716426849365234375" lon="-1.30239075981080532073974609375">
        <ele>1009.5999755859375</ele>
        <time>2021-09-25T10:15:52.000Z</time>
      </trkpt>
      <trkpt lat="40.4866453818976879119873046875" lon="-1.30236092023551464080810546875">
        <ele>1009.4000244140625</ele>
        <time>2021-09-25T10:15:53.000Z</time>
      </trkpt>
      <trkpt lat="40.48661059699952602386474609375" lon="-1.3023266382515430450439453125">
        <ele>1009.20001220703125</ele>
        <time>2021-09-25T10:15:54.000Z</time>
      </trkpt>
      <trkpt lat="40.4865370877087116241455078125" lon="-1.3022662885487079620361328125">
        <ele>1008.79998779296875</ele>
        <time>2021-09-25T10:15:56.000Z</time>
      </trkpt>
      <trkpt lat="40.48646206967532634735107421875" lon="-1.3022030889987945556640625">
        <ele>1008.79998779296875</ele>
        <time>2021-09-25T10:15:58.000Z</time>
      </trkpt>
      <trkpt lat="40.48642493784427642822265625" lon="-1.30216880701482295989990234375">
        <ele>1008.79998779296875</ele>
        <time>2021-09-25T10:15:59.000Z</time>
      </trkpt>
      <trkpt lat="40.48639099113643169403076171875" lon="-1.30213242955505847930908203125">
        <ele>1008.79998779296875</ele>
        <time>2021-09-25T10:16:00.000Z</time>
      </trkpt>
      <trkpt lat="40.486327372491359710693359375" lon="-1.30206235684454441070556640625">
        <ele>1008.5999755859375</ele>
        <time>2021-09-25T10:16:02.000Z</time>
      </trkpt>
      <trkpt lat="40.48625922761857509613037109375" lon="-1.30200234241783618927001953125">
        <ele>1008.4000244140625</ele>
        <time>2021-09-25T10:16:04.000Z</time>
      </trkpt>
      <trkpt lat="40.4861863888800144195556640625" lon="-1.3019501231610774993896484375">
        <ele>1008.20001220703125</ele>
        <time>2021-09-25T10:16:06.000Z</time>
      </trkpt>
      <trkpt lat="40.48611111938953399658203125" lon="-1.30189220421016216278076171875">
        <ele>1008</ele>
        <time>2021-09-25T10:16:08.000Z</time>
      </trkpt>
      <trkpt lat="40.48604465089738368988037109375" lon="-1.3018217124044895172119140625">
        <ele>1007.79998779296875</ele>
        <time>2021-09-25T10:16:10.000Z</time>
      </trkpt>
      <trkpt lat="40.48597298562526702880859375" lon="-1.30176546983420848846435546875">
        <ele>1007.5999755859375</ele>
        <time>2021-09-25T10:16:12.000Z</time>
      </trkpt>
      <trkpt lat="40.48590727150440216064453125" lon="-1.3016909547150135040283203125">
        <ele>1007.20001220703125</ele>
        <time>2021-09-25T10:16:14.000Z</time>
      </trkpt>
      <trkpt lat="40.48583560623228549957275390625" lon="-1.301625072956085205078125">
        <ele>1007</ele>
        <time>2021-09-25T10:16:16.000Z</time>
      </trkpt>
      <trkpt lat="40.48577005974948406219482421875" lon="-1.30155173130333423614501953125">
        <ele>1007.4000244140625</ele>
        <time>2021-09-25T10:16:18.000Z</time>
      </trkpt>
      <trkpt lat="40.48569998703896999359130859375" lon="-1.3014793954789638519287109375">
        <ele>1008</ele>
        <time>2021-09-25T10:16:20.000Z</time>
      </trkpt>
      <trkpt lat="40.485625304281711578369140625" lon="-1.30142281763255596160888671875">
        <ele>1008</ele>
        <time>2021-09-25T10:16:22.000Z</time>
      </trkpt>
      <trkpt lat="40.485554225742816925048828125" lon="-1.30135525949299335479736328125">
        <ele>1008</ele>
        <time>2021-09-25T10:16:24.000Z</time>
      </trkpt>
      <trkpt lat="40.485485158860683441162109375" lon="-1.301283426582813262939453125">
        <ele>1008.20001220703125</ele>
        <time>2021-09-25T10:16:26.000Z</time>
      </trkpt>
      <trkpt lat="40.4854119010269641876220703125" lon="-1.301218383014202117919921875">
        <ele>1008.5999755859375</ele>
        <time>2021-09-25T10:16:28.000Z</time>
      </trkpt>
      <trkpt lat="40.4853404872119426727294921875" lon="-1.30115493200719356536865234375">
        <ele>1008.4000244140625</ele>
        <time>2021-09-25T10:16:30.000Z</time>
      </trkpt>
      <trkpt lat="40.48527351580560207366943359375" lon="-1.30108796060085296630859375">
        <ele>1008.20001220703125</ele>
        <time>2021-09-25T10:16:32.000Z</time>
      </trkpt>
      <trkpt lat="40.48520050942897796630859375" lon="-1.301027946174144744873046875">
        <ele>1007.79998779296875</ele>
        <time>2021-09-25T10:16:34.000Z</time>
      </trkpt>
      <trkpt lat="40.4851356334984302520751953125" lon="-1.30096055567264556884765625">
        <ele>1007.4000244140625</ele>
        <time>2021-09-25T10:16:36.000Z</time>
      </trkpt>
      <trkpt lat="40.485096238553524017333984375" lon="-1.3009302131831645965576171875">
        <ele>1007</ele>
        <time>2021-09-25T10:16:37.000Z</time>
      </trkpt>
      <trkpt lat="40.485057346522808074951171875" lon="-1.30089894868433475494384765625">
        <ele>1006.79998779296875</ele>
        <time>2021-09-25T10:16:38.000Z</time>
      </trkpt>
      <trkpt lat="40.48498752526938915252685546875" lon="-1.30083709023892879486083984375">
        <ele>1006.4000244140625</ele>
        <time>2021-09-25T10:16:40.000Z</time>
      </trkpt>
      <trkpt lat="40.48490923829376697540283203125" lon="-1.3007769919931888580322265625">
        <ele>1006</ele>
        <time>2021-09-25T10:16:42.000Z</time>
      </trkpt>
      <trkpt lat="40.4848405905067920684814453125" lon="-1.3007072545588016510009765625">
        <ele>1006</ele>
        <time>2021-09-25T10:16:44.000Z</time>
      </trkpt>
      <trkpt lat="40.4847581125795841217041015625" lon="-1.300653778016567230224609375">
        <ele>1005.5999755859375</ele>
        <time>2021-09-25T10:16:46.000Z</time>
      </trkpt>
      <trkpt lat="40.4846866987645626068115234375" lon="-1.3005937635898590087890625">
        <ele>1005.4000244140625</ele>
        <time>2021-09-25T10:16:48.000Z</time>
      </trkpt>
      <trkpt lat="40.48460547812283039093017578125" lon="-1.30053676664829254150390625">
        <ele>1005.5999755859375</ele>
        <time>2021-09-25T10:16:50.000Z</time>
      </trkpt>
      <trkpt lat="40.48456750810146331787109375" lon="-1.30050365813076496124267578125">
        <ele>1005.5999755859375</ele>
        <time>2021-09-25T10:16:51.000Z</time>
      </trkpt>
      <trkpt lat="40.48453037627041339874267578125" lon="-1.3004755787551403045654296875">
        <ele>1005.79998779296875</ele>
        <time>2021-09-25T10:16:52.000Z</time>
      </trkpt>
      <trkpt lat="40.48447254113852977752685546875" lon="-1.30040139891207218170166015625">
        <ele>1005.79998779296875</ele>
        <time>2021-09-25T10:16:54.000Z</time>
      </trkpt>
      <trkpt lat="40.4844060726463794708251953125" lon="-1.3003304041922092437744140625">
        <ele>1005.4000244140625</ele>
        <time>2021-09-25T10:16:56.000Z</time>
      </trkpt>
      <trkpt lat="40.4843303002417087554931640625" lon="-1.3002589903771877288818359375">
        <ele>1004.79998779296875</ele>
        <time>2021-09-25T10:16:58.000Z</time>
      </trkpt>
      <trkpt lat="40.4842491634190082550048828125" lon="-1.30018548108637332916259765625">
        <ele>1004.4000244140625</ele>
        <time>2021-09-25T10:17:00.000Z</time>
      </trkpt>
      <trkpt lat="40.48416056670248508453369140625" lon="-1.30011834204196929931640625">
        <ele>1003.5999755859375</ele>
        <time>2021-09-25T10:17:02.000Z</time>
      </trkpt>
      <trkpt lat="40.48411832191050052642822265625" lon="-1.3000841438770294189453125">
        <ele>1003.4000244140625</ele>
        <time>2021-09-25T10:17:03.000Z</time>
      </trkpt>
      <trkpt lat="40.4840786755084991455078125" lon="-1.3000474311411380767822265625">
        <ele>1003</ele>
        <time>2021-09-25T10:17:04.000Z</time>
      </trkpt>
      <trkpt lat="40.48399695195257663726806640625" lon="-1.2999763526022434234619140625">
        <ele>1003</ele>
        <time>2021-09-25T10:17:06.000Z</time>
      </trkpt>
      <trkpt lat="40.48391279764473438262939453125" lon="-1.2999025918543338775634765625">
        <ele>1003</ele>
        <time>2021-09-25T10:17:08.000Z</time>
      </trkpt>
      <trkpt lat="40.483827553689479827880859375" lon="-1.29982388578355312347412109375">
        <ele>1002.79998779296875</ele>
        <time>2021-09-25T10:17:10.000Z</time>
      </trkpt>
      <trkpt lat="40.48374298028647899627685546875" lon="-1.29974040202796459197998046875">
        <ele>1002.79998779296875</ele>
        <time>2021-09-25T10:17:12.000Z</time>
      </trkpt>
      <trkpt lat="40.483657233417034149169921875" lon="-1.2996615283191204071044921875">
        <ele>1002.79998779296875</ele>
        <time>2021-09-25T10:17:14.000Z</time>
      </trkpt>
      <trkpt lat="40.48356964252889156341552734375" lon="-1.2995874322950839996337890625">
        <ele>1003.20001220703125</ele>
        <time>2021-09-25T10:17:16.000Z</time>
      </trkpt>
      <trkpt lat="40.48348213545978069305419921875" lon="-1.29950805567204952239990234375">
        <ele>1003.4000244140625</ele>
        <time>2021-09-25T10:17:18.000Z</time>
      </trkpt>
      <trkpt lat="40.48339697532355785369873046875" lon="-1.29942775703966617584228515625">
        <ele>1003.79998779296875</ele>
        <time>2021-09-25T10:17:20.000Z</time>
      </trkpt>
      <trkpt lat="40.48330410383641719818115234375" lon="-1.29935667850077152252197265625">
        <ele>1004</ele>
        <time>2021-09-25T10:17:22.000Z</time>
      </trkpt>
      <trkpt lat="40.48321424983441829681396484375" lon="-1.29927520640194416046142578125">
        <ele>1004.4000244140625</ele>
        <time>2021-09-25T10:17:24.000Z</time>
      </trkpt>
      <trkpt lat="40.4831694066524505615234375" lon="-1.29923245869576930999755859375">
        <ele>1004.5999755859375</ele>
        <time>2021-09-25T10:17:25.000Z</time>
      </trkpt>
      <trkpt lat="40.48312439583241939544677734375" lon="-1.299187280237674713134765625">
        <ele>1004.79998779296875</ele>
        <time>2021-09-25T10:17:26.000Z</time>
      </trkpt>
      <trkpt lat="40.48303085379302501678466796875" lon="-1.29910086281597614288330078125">
        <ele>1005</ele>
        <time>2021-09-25T10:17:28.000Z</time>
      </trkpt>
      <trkpt lat="40.4829389043152332305908203125" lon="-1.29901939071714878082275390625">
        <ele>1004.5999755859375</ele>
        <time>2021-09-25T10:17:30.000Z</time>
      </trkpt>
      <trkpt lat="40.482851900160312652587890625" lon="-1.29893724806606769561767578125">
        <ele>1004.20001220703125</ele>
        <time>2021-09-25T10:17:32.000Z</time>
      </trkpt>
      <trkpt lat="40.48276615329086780548095703125" lon="-1.29885594360530376434326171875">
        <ele>1004</ele>
        <time>2021-09-25T10:17:34.000Z</time>
      </trkpt>
      <trkpt lat="40.4826767183840274810791015625" lon="-1.29878033883869647979736328125">
        <ele>1002.79998779296875</ele>
        <time>2021-09-25T10:17:36.000Z</time>
      </trkpt>
      <trkpt lat="40.48258661292493343353271484375" lon="-1.29870808683335781097412109375">
        <ele>1001.5999755859375</ele>
        <time>2021-09-25T10:17:38.000Z</time>
      </trkpt>
      <trkpt lat="40.48249692656099796295166015625" lon="-1.29862108267843723297119140625">
        <ele>1001</ele>
        <time>2021-09-25T10:17:40.000Z</time>
      </trkpt>
      <trkpt lat="40.4824058152735233306884765625" lon="-1.29853039048612117767333984375">
        <ele>1000.5999755859375</ele>
        <time>2021-09-25T10:17:42.000Z</time>
      </trkpt>
      <trkpt lat="40.482306741178035736083984375" lon="-1.29844623617827892303466796875">
        <ele>1000.4000244140625</ele>
        <time>2021-09-25T10:17:44.000Z</time>
      </trkpt>
      <trkpt lat="40.48221060074865818023681640625" lon="-1.298363506793975830078125">
        <ele>1000</ele>
        <time>2021-09-25T10:17:46.000Z</time>
      </trkpt>
      <trkpt lat="40.482118986546993255615234375" lon="-1.29828505218029022216796875">
        <ele>1000</ele>
        <time>2021-09-25T10:17:48.000Z</time>
      </trkpt>
      <trkpt lat="40.48202385194599628448486328125" lon="-1.29820399917662143707275390625">
        <ele>1000</ele>
        <time>2021-09-25T10:17:50.000Z</time>
      </trkpt>
      <trkpt lat="40.4819280467927455902099609375" lon="-1.2981108762323856353759765625">
        <ele>1000</ele>
        <time>2021-09-25T10:17:52.000Z</time>
      </trkpt>
      <trkpt lat="40.48183140344917774200439453125" lon="-1.29802110604941844940185546875">
        <ele>1000</ele>
        <time>2021-09-25T10:17:54.000Z</time>
      </trkpt>
      <trkpt lat="40.48178245313465595245361328125" lon="-1.2979757599532604217529296875">
        <ele>1000</ele>
        <time>2021-09-25T10:17:55.000Z</time>
      </trkpt>
      <trkpt lat="40.481732748448848724365234375" lon="-1.29793376661837100982666015625">
        <ele>1000.20001220703125</ele>
        <time>2021-09-25T10:17:56.000Z</time>
      </trkpt>
      <trkpt lat="40.4816343449056148529052734375" lon="-1.2978486903011798858642578125">
        <ele>1000.4000244140625</ele>
        <time>2021-09-25T10:17:58.000Z</time>
      </trkpt>
      <trkpt lat="40.48153921030461788177490234375" lon="-1.29776202142238616943359375">
        <ele>1000.4000244140625</ele>
        <time>2021-09-25T10:18:00.000Z</time>
      </trkpt>
      <trkpt lat="40.48144885338842868804931640625" lon="-1.29768080078065395355224609375">
        <ele>1000.20001220703125</ele>
        <time>2021-09-25T10:18:02.000Z</time>
      </trkpt>
      <trkpt lat="40.4813607595860958099365234375" lon="-1.29760016687214374542236328125">
        <ele>1000.4000244140625</ele>
        <time>2021-09-25T10:18:04.000Z</time>
      </trkpt>
      <trkpt lat="40.48131675459444522857666015625" lon="-1.297561861574649810791015625">
        <ele>1000.4000244140625</ele>
        <time>2021-09-25T10:18:05.000Z</time>
      </trkpt>
      <trkpt lat="40.4812732525169849395751953125" lon="-1.29752037115395069122314453125">
        <ele>1000.4000244140625</ele>
        <time>2021-09-25T10:18:06.000Z</time>
      </trkpt>
      <trkpt lat="40.48118834383785724639892578125" lon="-1.2974386475980281829833984375">
        <ele>1000.20001220703125</ele>
        <time>2021-09-25T10:18:08.000Z</time>
      </trkpt>
      <trkpt lat="40.48111877404153347015380859375" lon="-1.29736748524010181427001953125">
        <ele>1000</ele>
        <time>2021-09-25T10:18:10.000Z</time>
      </trkpt>
      <trkpt lat="40.48104451037943363189697265625" lon="-1.29730311222374439239501953125">
        <ele>1000</ele>
        <time>2021-09-25T10:18:12.000Z</time>
      </trkpt>
      <trkpt lat="40.48097133636474609375" lon="-1.2972394935786724090576171875">
        <ele>999.79998779296875</ele>
        <time>2021-09-25T10:18:14.000Z</time>
      </trkpt>
      <trkpt lat="40.480949543416500091552734375" lon="-1.29721225239336490631103515625">
        <ele>999.5999755859375</ele>
        <time>2021-09-25T10:18:15.000Z</time>
      </trkpt>
      <trkpt lat="40.48093303106725215911865234375" lon="-1.2971918843686580657958984375">
        <ele>999.4000244140625</ele>
        <time>2021-09-25T10:18:16.000Z</time>
      </trkpt>
      <trkpt lat="40.48090218566358089447021484375" lon="-1.29717101342976093292236328125">
        <ele>999.20001220703125</ele>
        <time>2021-09-25T10:18:18.000Z</time>
      </trkpt>
      <trkpt lat="40.48087134025990962982177734375" lon="-1.29715005867183208465576171875">
        <ele>999</ele>
        <time>2021-09-25T10:18:20.000Z</time>
      </trkpt>
      <trkpt lat="40.480856336653232574462890625" lon="-1.29713974893093109130859375">
        <ele>999</ele>
        <time>2021-09-25T10:18:21.000Z</time>
      </trkpt>
      <trkpt lat="40.48083999194204807281494140625" lon="-1.29713010974228382110595703125">
        <ele>999</ele>
        <time>2021-09-25T10:18:22.000Z</time>
      </trkpt>
      <trkpt lat="40.480821132659912109375" lon="-1.29710513167083263397216796875">
        <ele>998.79998779296875</ele>
        <time>2021-09-25T10:18:24.000Z</time>
      </trkpt>
      <trkpt lat="40.4807944782078266143798828125" lon="-1.29707780666649341583251953125">
        <ele>998.5999755859375</ele>
        <time>2021-09-25T10:18:26.000Z</time>
      </trkpt>
      <trkpt lat="40.48077628947794437408447265625" lon="-1.29705701954662799835205078125">
        <ele>998.5999755859375</ele>
        <time>2021-09-25T10:18:27.000Z</time>
      </trkpt>
      <trkpt lat="40.48075474798679351806640625" lon="-1.29703656770288944244384765625">
        <ele>998.5999755859375</ele>
        <time>2021-09-25T10:18:28.000Z</time>
      </trkpt>
      <trkpt lat="40.4807044565677642822265625" lon="-1.2969984300434589385986328125">
        <ele>998.4000244140625</ele>
        <time>2021-09-25T10:18:30.000Z</time>
      </trkpt>
      <trkpt lat="40.48065123148262500762939453125" lon="-1.29694797098636627197265625">
        <ele>998.20001220703125</ele>
        <time>2021-09-25T10:18:32.000Z</time>
      </trkpt>
      <trkpt lat="40.48058710992336273193359375" lon="-1.29688066430389881134033203125">
        <ele>998</ele>
        <time>2021-09-25T10:18:34.000Z</time>
      </trkpt>
      <trkpt lat="40.4805128462612628936767578125" lon="-1.2968157045543193817138671875">
        <ele>997.79998779296875</ele>
        <time>2021-09-25T10:18:36.000Z</time>
      </trkpt>
      <trkpt lat="40.4804729484021663665771484375" lon="-1.29678376950323581695556640625">
        <ele>997.5999755859375</ele>
        <time>2021-09-25T10:18:37.000Z</time>
      </trkpt>
      <trkpt lat="40.48043548129498958587646484375" lon="-1.29674973897635936737060546875">
        <ele>997.5999755859375</ele>
        <time>2021-09-25T10:18:38.000Z</time>
      </trkpt>
      <trkpt lat="40.480352081358432769775390625" lon="-1.29668712615966796875">
        <ele>997.20001220703125</ele>
        <time>2021-09-25T10:18:40.000Z</time>
      </trkpt>
      <trkpt lat="40.4802707768976688385009765625" lon="-1.2966225855052471160888671875">
        <ele>997</ele>
        <time>2021-09-25T10:18:42.000Z</time>
      </trkpt>
      <trkpt lat="40.48020112328231334686279296875" lon="-1.29655905067920684814453125">
        <ele>996.79998779296875</ele>
        <time>2021-09-25T10:18:44.000Z</time>
      </trkpt>
      <trkpt lat="40.4801666736602783203125" lon="-1.296522505581378936767578125">
        <ele>996.5999755859375</ele>
        <time>2021-09-25T10:18:45.000Z</time>
      </trkpt>
      <trkpt lat="40.4801292903721332550048828125" lon="-1.296488977968692779541015625">
        <ele>996.5999755859375</ele>
        <time>2021-09-25T10:18:46.000Z</time>
      </trkpt>
      <trkpt lat="40.48005226068198680877685546875" lon="-1.29642401821911334991455078125">
        <ele>996.79998779296875</ele>
        <time>2021-09-25T10:18:48.000Z</time>
      </trkpt>
      <trkpt lat="40.47997280023992061614990234375" lon="-1.29634941928088665008544921875">
        <ele>997</ele>
        <time>2021-09-25T10:18:50.000Z</time>
      </trkpt>
      <trkpt lat="40.47989082522690296173095703125" lon="-1.29627515561878681182861328125">
        <ele>997.4000244140625</ele>
        <time>2021-09-25T10:18:52.000Z</time>
      </trkpt>
      <trkpt lat="40.4798084311187267303466796875" lon="-1.29620290361344814300537109375">
        <ele>997.5999755859375</ele>
        <time>2021-09-25T10:18:54.000Z</time>
      </trkpt>
      <trkpt lat="40.47973039560019969940185546875" lon="-1.2961428053677082061767578125">
        <ele>997.4000244140625</ele>
        <time>2021-09-25T10:18:56.000Z</time>
      </trkpt>
      <trkpt lat="40.47965764068067073822021484375" lon="-1.29607533104717731475830078125">
        <ele>997.20001220703125</ele>
        <time>2021-09-25T10:18:58.000Z</time>
      </trkpt>
      <trkpt lat="40.47962008975446224212646484375" lon="-1.29603878594934940338134765625">
        <ele>997.4000244140625</ele>
        <time>2021-09-25T10:18:59.000Z</time>
      </trkpt>
      <trkpt lat="40.479579605162143707275390625" lon="-1.29600492306053638458251953125">
        <ele>997.4000244140625</ele>
        <time>2021-09-25T10:19:00.000Z</time>
      </trkpt>
      <trkpt lat="40.4795013181865215301513671875" lon="-1.29592982120811939239501953125">
        <ele>997.5999755859375</ele>
        <time>2021-09-25T10:19:02.000Z</time>
      </trkpt>
      <trkpt lat="40.47941791824996471405029296875" lon="-1.29585706628859043121337890625">
        <ele>997.20001220703125</ele>
        <time>2021-09-25T10:19:04.000Z</time>
      </trkpt>
      <trkpt lat="40.47933778725564479827880859375" lon="-1.2957870773971080780029296875">
        <ele>997.4000244140625</ele>
        <time>2021-09-25T10:19:06.000Z</time>
      </trkpt>
      <trkpt lat="40.47929956577718257904052734375" lon="-1.29575329832732677459716796875">
        <ele>997.4000244140625</ele>
        <time>2021-09-25T10:19:07.000Z</time>
      </trkpt>
      <trkpt lat="40.4792626015841960906982421875" lon="-1.29572086036205291748046875">
        <ele>997.4000244140625</ele>
        <time>2021-09-25T10:19:08.000Z</time>
      </trkpt>
      <trkpt lat="40.47919378615915775299072265625" lon="-1.29565791226923465728759765625">
        <ele>997.79998779296875</ele>
        <time>2021-09-25T10:19:10.000Z</time>
      </trkpt>
      <trkpt lat="40.4791284911334514617919921875" lon="-1.29560510627925395965576171875">
        <ele>998.20001220703125</ele>
        <time>2021-09-25T10:19:12.000Z</time>
      </trkpt>
      <trkpt lat="40.47909353859722614288330078125" lon="-1.2955775298178195953369140625">
        <ele>998.20001220703125</ele>
        <time>2021-09-25T10:19:13.000Z</time>
      </trkpt>
      <trkpt lat="40.47905380837619304656982421875" lon="-1.295546852052211761474609375">
        <ele>998.4000244140625</ele>
        <time>2021-09-25T10:19:14.000Z</time>
      </trkpt>
      <trkpt lat="40.47901374287903308868408203125" lon="-1.295506618916988372802734375">
        <ele>998.5999755859375</ele>
        <time>2021-09-25T10:19:15.000Z</time>
      </trkpt>
      <trkpt lat="40.47897736541926860809326171875" lon="-1.295465715229511260986328125">
        <ele>998.5999755859375</ele>
        <time>2021-09-25T10:19:16.000Z</time>
      </trkpt>
      <trkpt lat="40.4789035208523273468017578125" lon="-1.2953961454331874847412109375">
        <ele>998.79998779296875</ele>
        <time>2021-09-25T10:19:18.000Z</time>
      </trkpt>
      <trkpt lat="40.4788247309625148773193359375" lon="-1.2953259050846099853515625">
        <ele>999</ele>
        <time>2021-09-25T10:19:20.000Z</time>
      </trkpt>
      <trkpt lat="40.4787464439868927001953125" lon="-1.295257844030857086181640625">
        <ele>999</ele>
        <time>2021-09-25T10:19:22.000Z</time>
      </trkpt>
      <trkpt lat="40.4786725156009197235107421875" lon="-1.29517913796007633209228515625">
        <ele>998.79998779296875</ele>
        <time>2021-09-25T10:19:24.000Z</time>
      </trkpt>
      <trkpt lat="40.47859900631010532379150390625" lon="-1.2950994260609149932861328125">
        <ele>998.5999755859375</ele>
        <time>2021-09-25T10:19:26.000Z</time>
      </trkpt>
      <trkpt lat="40.47852239571511745452880859375" lon="-1.2950239889323711395263671875">
        <ele>998.20001220703125</ele>
        <time>2021-09-25T10:19:28.000Z</time>
      </trkpt>
      <trkpt lat="40.47848434187471866607666015625" lon="-1.2949864380061626434326171875">
        <ele>998.20001220703125</ele>
        <time>2021-09-25T10:19:29.000Z</time>
      </trkpt>
      <trkpt lat="40.478447377681732177734375" lon="-1.29495198838412761688232421875">
        <ele>998</ele>
        <time>2021-09-25T10:19:30.000Z</time>
      </trkpt>
      <trkpt lat="40.4783650673925876617431640625" lon="-1.2948887050151824951171875">
        <ele>997.79998779296875</ele>
        <time>2021-09-25T10:19:32.000Z</time>
      </trkpt>
      <trkpt lat="40.47828451730310916900634765625" lon="-1.29482232034206390380859375">
        <ele>997</ele>
        <time>2021-09-25T10:19:34.000Z</time>
      </trkpt>
      <trkpt lat="40.4782064817845821380615234375" lon="-1.294750906527042388916015625">
        <ele>996.4000244140625</ele>
        <time>2021-09-25T10:19:36.000Z</time>
      </trkpt>
      <trkpt lat="40.47812660224735736846923828125" lon="-1.294675804674625396728515625">
        <ele>996</ele>
        <time>2021-09-25T10:19:38.000Z</time>
      </trkpt>
      <trkpt lat="40.478085614740848541259765625" lon="-1.29464336670935153961181640625">
        <ele>996</ele>
        <time>2021-09-25T10:19:39.000Z</time>
      </trkpt>
      <trkpt lat="40.4780463874340057373046875" lon="-1.29461101256310939788818359375">
        <ele>996</ele>
        <time>2021-09-25T10:19:40.000Z</time>
      </trkpt>
      <trkpt lat="40.47800481319427490234375" lon="-1.29457890987396240234375">
        <ele>996</ele>
        <time>2021-09-25T10:19:41.000Z</time>
      </trkpt>
      <trkpt lat="40.47796550206840038299560546875" lon="-1.29454781301319599151611328125">
        <ele>996</ele>
        <time>2021-09-25T10:19:42.000Z</time>
      </trkpt>
      <trkpt lat="40.47792728058993816375732421875" lon="-1.29451562650501728057861328125">
        <ele>996</ele>
        <time>2021-09-25T10:19:43.000Z</time>
      </trkpt>
      <trkpt lat="40.47789257951080799102783203125" lon="-1.29448033869266510009765625">
        <ele>996</ele>
        <time>2021-09-25T10:19:44.000Z</time>
      </trkpt>
      <trkpt lat="40.47781932167708873748779296875" lon="-1.2944060750305652618408203125">
        <ele>996</ele>
        <time>2021-09-25T10:19:46.000Z</time>
      </trkpt>
      <trkpt lat="40.47774690203368663787841796875" lon="-1.29432653076946735382080078125">
        <ele>996.20001220703125</ele>
        <time>2021-09-25T10:19:48.000Z</time>
      </trkpt>
      <trkpt lat="40.4777109436690807342529296875" lon="-1.29428629763424396514892578125">
        <ele>996.20001220703125</ele>
        <time>2021-09-25T10:19:49.000Z</time>
      </trkpt>
      <trkpt lat="40.4776740632951259613037109375" lon="-1.29424656741321086883544921875">
        <ele>996.20001220703125</ele>
        <time>2021-09-25T10:19:50.000Z</time>
      </trkpt>
      <trkpt lat="40.477599799633026123046875" lon="-1.29416760988533496856689453125">
        <ele>996.20001220703125</ele>
        <time>2021-09-25T10:19:52.000Z</time>
      </trkpt>
      <trkpt lat="40.47752729617059230804443359375" lon="-1.2940966151654720306396484375">
        <ele>996.20001220703125</ele>
        <time>2021-09-25T10:19:54.000Z</time>
      </trkpt>
      <trkpt lat="40.47745722346007823944091796875" lon="-1.29401958547532558441162109375">
        <ele>996.20001220703125</ele>
        <time>2021-09-25T10:19:56.000Z</time>
      </trkpt>
      <trkpt lat="40.4774242825806140899658203125" lon="-1.29397817887365818023681640625">
        <ele>996.20001220703125</ele>
        <time>2021-09-25T10:19:57.000Z</time>
      </trkpt>
      <trkpt lat="40.47739033587276935577392578125" lon="-1.29393744282424449920654296875">
        <ele>996.20001220703125</ele>
        <time>2021-09-25T10:19:58.000Z</time>
      </trkpt>
      <trkpt lat="40.47732688486576080322265625" lon="-1.29384775646030902862548828125">
        <ele>996.4000244140625</ele>
        <time>2021-09-25T10:20:00.000Z</time>
      </trkpt>
      <trkpt lat="40.4772576503455638885498046875" lon="-1.293757818639278411865234375">
        <ele>996.20001220703125</ele>
        <time>2021-09-25T10:20:02.000Z</time>
      </trkpt>
      <trkpt lat="40.47719277441501617431640625" lon="-1.2936627678573131561279296875">
        <ele>996.5999755859375</ele>
        <time>2021-09-25T10:20:04.000Z</time>
      </trkpt>
      <trkpt lat="40.47716100700199604034423828125" lon="-1.2936146557331085205078125">
        <ele>997</ele>
        <time>2021-09-25T10:20:05.000Z</time>
      </trkpt>
      <trkpt lat="40.47713217325508594512939453125" lon="-1.29356428049504756927490234375">
        <ele>997.20001220703125</ele>
        <time>2021-09-25T10:20:06.000Z</time>
      </trkpt>
      <trkpt lat="40.4770700633525848388671875" lon="-1.29346772097051143646240234375">
        <ele>997.5999755859375</ele>
        <time>2021-09-25T10:20:08.000Z</time>
      </trkpt>
      <trkpt lat="40.47701063565909862518310546875" lon="-1.29336453974246978759765625">
        <ele>998.20001220703125</ele>
        <time>2021-09-25T10:20:10.000Z</time>
      </trkpt>
      <trkpt lat="40.4769508726894855499267578125" lon="-1.29326504655182361602783203125">
        <ele>999</ele>
        <time>2021-09-25T10:20:12.000Z</time>
      </trkpt>
      <trkpt lat="40.47689362429082393646240234375" lon="-1.293165050446987152099609375">
        <ele>998.5999755859375</ele>
        <time>2021-09-25T10:20:14.000Z</time>
      </trkpt>
      <trkpt lat="40.47686311416327953338623046875" lon="-1.293113417923450469970703125">
        <ele>998.4000244140625</ele>
        <time>2021-09-25T10:20:15.000Z</time>
      </trkpt>
      <trkpt lat="40.476837046444416046142578125" lon="-1.29306170158088207244873046875">
        <ele>998.20001220703125</ele>
        <time>2021-09-25T10:20:16.000Z</time>
      </trkpt>
      <trkpt lat="40.47678398899734020233154296875" lon="-1.2929586879909038543701171875">
        <ele>998</ele>
        <time>2021-09-25T10:20:18.000Z</time>
      </trkpt>
      <trkpt lat="40.47673143446445465087890625" lon="-1.29285466857254505157470703125">
        <ele>997.79998779296875</ele>
        <time>2021-09-25T10:20:20.000Z</time>
      </trkpt>
      <trkpt lat="40.4766789637506008148193359375" lon="-1.292752325534820556640625">
        <ele>997.20001220703125</ele>
        <time>2021-09-25T10:20:22.000Z</time>
      </trkpt>
      <trkpt lat="40.4766521416604518890380859375" lon="-1.29270446486771106719970703125">
        <ele>996.79998779296875</ele>
        <time>2021-09-25T10:20:23.000Z</time>
      </trkpt>
      <trkpt lat="40.47662490047514438629150390625" lon="-1.2926544249057769775390625">
        <ele>996.5999755859375</ele>
        <time>2021-09-25T10:20:24.000Z</time>
      </trkpt>
      <trkpt lat="40.47657192684710025787353515625" lon="-1.29255627281963825225830078125">
        <ele>995.79998779296875</ele>
        <time>2021-09-25T10:20:26.000Z</time>
      </trkpt>
      <trkpt lat="40.4765188694000244140625" lon="-1.29245460033416748046875">
        <ele>995.4000244140625</ele>
        <time>2021-09-25T10:20:28.000Z</time>
      </trkpt>
      <trkpt lat="40.47646614722907543182373046875" lon="-1.292351670563220977783203125">
        <ele>995</ele>
        <time>2021-09-25T10:20:30.000Z</time>
      </trkpt>
      <trkpt lat="40.47643932513892650604248046875" lon="-1.29230112768709659576416015625">
        <ele>994.5999755859375</ele>
        <time>2021-09-25T10:20:31.000Z</time>
      </trkpt>
      <trkpt lat="40.4764115810394287109375" lon="-1.2922499142587184906005859375">
        <ele>994.4000244140625</ele>
        <time>2021-09-25T10:20:32.000Z</time>
      </trkpt>
      <trkpt lat="40.47635382972657680511474609375" lon="-1.29214941523969173431396484375">
        <ele>994.4000244140625</ele>
        <time>2021-09-25T10:20:34.000Z</time>
      </trkpt>
      <trkpt lat="40.47629398293793201446533203125" lon="-1.29204598255455493927001953125">
        <ele>995.4000244140625</ele>
        <time>2021-09-25T10:20:36.000Z</time>
      </trkpt>
      <trkpt lat="40.4762357287108898162841796875" lon="-1.29193735308945178985595703125">
        <ele>996.4000244140625</ele>
        <time>2021-09-25T10:20:38.000Z</time>
      </trkpt>
      <trkpt lat="40.4761795699596405029296875" lon="-1.291832663118839263916015625">
        <ele>997</ele>
        <time>2021-09-25T10:20:40.000Z</time>
      </trkpt>
      <trkpt lat="40.4761250875890254974365234375" lon="-1.2917302362620830535888671875">
        <ele>997</ele>
        <time>2021-09-25T10:20:42.000Z</time>
      </trkpt>
      <trkpt lat="40.4760695993900299072265625" lon="-1.2916289828717708587646484375">
        <ele>997</ele>
        <time>2021-09-25T10:20:44.000Z</time>
      </trkpt>
      <trkpt lat="40.47601587139070034027099609375" lon="-1.29152999259531497955322265625">
        <ele>997.20001220703125</ele>
        <time>2021-09-25T10:20:46.000Z</time>
      </trkpt>
      <trkpt lat="40.4759889654815196990966796875" lon="-1.29148188047111034393310546875">
        <ele>997.4000244140625</ele>
        <time>2021-09-25T10:20:47.000Z</time>
      </trkpt>
      <trkpt lat="40.47596591524779796600341796875" lon="-1.291429996490478515625">
        <ele>997.5999755859375</ele>
        <time>2021-09-25T10:20:48.000Z</time>
      </trkpt>
      <trkpt lat="40.47591470181941986083984375" lon="-1.2913319282233715057373046875">
        <ele>997.4000244140625</ele>
        <time>2021-09-25T10:20:50.000Z</time>
      </trkpt>
      <trkpt lat="40.47586365602910518646240234375" lon="-1.29123411141335964202880859375">
        <ele>997</ele>
        <time>2021-09-25T10:20:52.000Z</time>
      </trkpt>
      <trkpt lat="40.47580950893461704254150390625" lon="-1.29114023409783840179443359375">
        <ele>997</ele>
        <time>2021-09-25T10:20:54.000Z</time>
      </trkpt>
      <trkpt lat="40.47575653530657291412353515625" lon="-1.29104434512555599212646484375">
        <ele>997</ele>
        <time>2021-09-25T10:20:56.000Z</time>
      </trkpt>
      <trkpt lat="40.47570557333528995513916015625" lon="-1.290944851934909820556640625">
        <ele>997</ele>
        <time>2021-09-25T10:20:58.000Z</time>
      </trkpt>
      <trkpt lat="40.47565142624080181121826171875" lon="-1.290844939649105072021484375">
        <ele>997.4000244140625</ele>
        <time>2021-09-25T10:21:00.000Z</time>
      </trkpt>
      <trkpt lat="40.47559929080307483673095703125" lon="-1.29074268043041229248046875">
        <ele>997.79998779296875</ele>
        <time>2021-09-25T10:21:02.000Z</time>
      </trkpt>
      <trkpt lat="40.475545227527618408203125" lon="-1.29063664935529232025146484375">
        <ele>997.5999755859375</ele>
        <time>2021-09-25T10:21:04.000Z</time>
      </trkpt>
      <trkpt lat="40.47548848204314708709716796875" lon="-1.2905369885265827178955078125">
        <ele>997.20001220703125</ele>
        <time>2021-09-25T10:21:06.000Z</time>
      </trkpt>
      <trkpt lat="40.47543215565383434295654296875" lon="-1.2904394231736660003662109375">
        <ele>997</ele>
        <time>2021-09-25T10:21:08.000Z</time>
      </trkpt>
      <trkpt lat="40.47537733800709247589111328125" lon="-1.290337331593036651611328125">
        <ele>997</ele>
        <time>2021-09-25T10:21:10.000Z</time>
      </trkpt>
      <trkpt lat="40.4753512702882289886474609375" lon="-1.29028402268886566162109375">
        <ele>997</ele>
        <time>2021-09-25T10:21:11.000Z</time>
      </trkpt>
      <trkpt lat="40.47532486729323863983154296875" lon="-1.29022995941340923309326171875">
        <ele>997</ele>
        <time>2021-09-25T10:21:12.000Z</time>
      </trkpt>
      <trkpt lat="40.4752718098461627960205078125" lon="-1.29012770019471645355224609375">
        <ele>997</ele>
        <time>2021-09-25T10:21:14.000Z</time>
      </trkpt>
      <trkpt lat="40.47521657310426235198974609375" lon="-1.29002594389021396636962890625">
        <ele>997.20001220703125</ele>
        <time>2021-09-25T10:21:16.000Z</time>
      </trkpt>
      <trkpt lat="40.475190170109272003173828125" lon="-1.289975903928279876708984375">
        <ele>997.20001220703125</ele>
        <time>2021-09-25T10:21:17.000Z</time>
      </trkpt>
      <trkpt lat="40.47516276128590106964111328125" lon="-1.28992284648120403289794921875">
        <ele>997.4000244140625</ele>
        <time>2021-09-25T10:21:18.000Z</time>
      </trkpt>
      <trkpt lat="40.47510978765785694122314453125" lon="-1.28982360474765300750732421875">
        <ele>998</ele>
        <time>2021-09-25T10:21:20.000Z</time>
      </trkpt>
      <trkpt lat="40.475053377449512481689453125" lon="-1.2897249497473239898681640625">
        <ele>998</ele>
        <time>2021-09-25T10:21:22.000Z</time>
      </trkpt>
      <trkpt lat="40.4749988950788974761962890625" lon="-1.2896250374615192413330078125">
        <ele>998</ele>
        <time>2021-09-25T10:21:24.000Z</time>
      </trkpt>
      <trkpt lat="40.4749452508985996246337890625" lon="-1.28952219150960445404052734375">
        <ele>998</ele>
        <time>2021-09-25T10:21:26.000Z</time>
      </trkpt>
      <trkpt lat="40.47489403747022151947021484375" lon="-1.28942429088056087493896484375">
        <ele>998</ele>
        <time>2021-09-25T10:21:28.000Z</time>
      </trkpt>
      <trkpt lat="40.47484089620411396026611328125" lon="-1.28933049738407135009765625">
        <ele>998.20001220703125</ele>
        <time>2021-09-25T10:21:30.000Z</time>
      </trkpt>
      <trkpt lat="40.4748151637613773345947265625" lon="-1.289281882345676422119140625">
        <ele>998.4000244140625</ele>
        <time>2021-09-25T10:21:31.000Z</time>
      </trkpt>
      <trkpt lat="40.47478976659476757049560546875" lon="-1.28922765143215656280517578125">
        <ele>998.20001220703125</ele>
        <time>2021-09-25T10:21:32.000Z</time>
      </trkpt>
      <trkpt lat="40.4747363738715648651123046875" lon="-1.28911726176738739013671875">
        <ele>998</ele>
        <time>2021-09-25T10:21:34.000Z</time>
      </trkpt>
      <trkpt lat="40.474681556224822998046875" lon="-1.2890134938061237335205078125">
        <ele>998.4000244140625</ele>
        <time>2021-09-25T10:21:36.000Z</time>
      </trkpt>
      <trkpt lat="40.47462615184485912322998046875" lon="-1.28891048021614551544189453125">
        <ele>998.5999755859375</ele>
        <time>2021-09-25T10:21:38.000Z</time>
      </trkpt>
      <trkpt lat="40.47457401640713214874267578125" lon="-1.2888072989881038665771484375">
        <ele>998.5999755859375</ele>
        <time>2021-09-25T10:21:40.000Z</time>
      </trkpt>
      <trkpt lat="40.47451752237975597381591796875" lon="-1.2887050397694110870361328125">
        <ele>998.5999755859375</ele>
        <time>2021-09-25T10:21:42.000Z</time>
      </trkpt>
      <trkpt lat="40.474459938704967498779296875" lon="-1.28860454075038433074951171875">
        <ele>998.20001220703125</ele>
        <time>2021-09-25T10:21:44.000Z</time>
      </trkpt>
      <trkpt lat="40.47440503723919391632080078125" lon="-1.28850379027426242828369140625">
        <ele>997.79998779296875</ele>
        <time>2021-09-25T10:21:46.000Z</time>
      </trkpt>
      <trkpt lat="40.4743464477360248565673828125" lon="-1.28839750774204730987548828125">
        <ele>997.5999755859375</ele>
        <time>2021-09-25T10:21:48.000Z</time>
      </trkpt>
      <trkpt lat="40.47428936697542667388916015625" lon="-1.2882899679243564605712890625">
        <ele>997.4000244140625</ele>
        <time>2021-09-25T10:21:50.000Z</time>
      </trkpt>
      <trkpt lat="40.47423270530998706817626953125" lon="-1.28818477503955364227294921875">
        <ele>997</ele>
        <time>2021-09-25T10:21:52.000Z</time>
      </trkpt>
      <trkpt lat="40.47420454211533069610595703125" lon="-1.288133561611175537109375">
        <ele>997</ele>
        <time>2021-09-25T10:21:53.000Z</time>
      </trkpt>
      <trkpt lat="40.47417738474905490875244140625" lon="-1.28808067180216312408447265625">
        <ele>997</ele>
        <time>2021-09-25T10:21:54.000Z</time>
      </trkpt>
      <trkpt lat="40.47412139363586902618408203125" lon="-1.28797606565058231353759765625">
        <ele>997.20001220703125</ele>
        <time>2021-09-25T10:21:56.000Z</time>
      </trkpt>
      <trkpt lat="40.47406825236976146697998046875" lon="-1.2878745608031749725341796875">
        <ele>997.4000244140625</ele>
        <time>2021-09-25T10:21:58.000Z</time>
      </trkpt>
      <trkpt lat="40.47401393763720989227294921875" lon="-1.28777372650802135467529296875">
        <ele>997.5999755859375</ele>
        <time>2021-09-25T10:22:00.000Z</time>
      </trkpt>
      <trkpt lat="40.47398828901350498199462890625" lon="-1.2877218425273895263671875">
        <ele>997.5999755859375</ele>
        <time>2021-09-25T10:22:01.000Z</time>
      </trkpt>
      <trkpt lat="40.47396029345691204071044921875" lon="-1.28767113201320171356201171875">
        <ele>997.79998779296875</ele>
        <time>2021-09-25T10:22:02.000Z</time>
      </trkpt>
      <trkpt lat="40.47390530817210674285888671875" lon="-1.28756987862288951873779296875">
        <ele>998.4000244140625</ele>
        <time>2021-09-25T10:22:04.000Z</time>
      </trkpt>
      <trkpt lat="40.47385208308696746826171875" lon="-1.2874675355851650238037109375">
        <ele>999</ele>
        <time>2021-09-25T10:22:06.000Z</time>
      </trkpt>
      <trkpt lat="40.47379449941217899322509765625" lon="-1.28736251033842563629150390625">
        <ele>999.4000244140625</ele>
        <time>2021-09-25T10:22:08.000Z</time>
      </trkpt>
      <trkpt lat="40.47373683191835880279541015625" lon="-1.28725790418684482574462890625">
        <ele>999.5999755859375</ele>
        <time>2021-09-25T10:22:10.000Z</time>
      </trkpt>
      <trkpt lat="40.4736836068332195281982421875" lon="-1.2871517054736614227294921875">
        <ele>999.79998779296875</ele>
        <time>2021-09-25T10:22:12.000Z</time>
      </trkpt>
      <trkpt lat="40.473636500537395477294921875" lon="-1.28705271519720554351806640625">
        <ele>999.79998779296875</ele>
        <time>2021-09-25T10:22:14.000Z</time>
      </trkpt>
      <trkpt lat="40.47358294017612934112548828125" lon="-1.28695062361657619476318359375">
        <ele>1000.20001220703125</ele>
        <time>2021-09-25T10:22:16.000Z</time>
      </trkpt>
      <trkpt lat="40.47352594323456287384033203125" lon="-1.28684341907501220703125">
        <ele>1000.20001220703125</ele>
        <time>2021-09-25T10:22:18.000Z</time>
      </trkpt>
      <trkpt lat="40.473495684564113616943359375" lon="-1.28678977489471435546875">
        <ele>1000.4000244140625</ele>
        <time>2021-09-25T10:22:19.000Z</time>
      </trkpt>
      <trkpt lat="40.47346475534141063690185546875" lon="-1.28673604689538478851318359375">
        <ele>1000.5999755859375</ele>
        <time>2021-09-25T10:22:20.000Z</time>
      </trkpt>
      <trkpt lat="40.47340683639049530029296875" lon="-1.2866248190402984619140625">
        <ele>1000.79998779296875</ele>
        <time>2021-09-25T10:22:22.000Z</time>
      </trkpt>
      <trkpt lat="40.4733471572399139404296875" lon="-1.286513172090053558349609375">
        <ele>1000.5999755859375</ele>
        <time>2021-09-25T10:22:24.000Z</time>
      </trkpt>
      <trkpt lat="40.47328873537480831146240234375" lon="-1.28640362061560153961181640625">
        <ele>1000.20001220703125</ele>
        <time>2021-09-25T10:22:26.000Z</time>
      </trkpt>
      <trkpt lat="40.473228134214878082275390625" lon="-1.2862967513501644134521484375">
        <ele>1000.79998779296875</ele>
        <time>2021-09-25T10:22:28.000Z</time>
      </trkpt>
      <trkpt lat="40.4731679521501064300537109375" lon="-1.286186613142490386962890625">
        <ele>1001.20001220703125</ele>
        <time>2021-09-25T10:22:30.000Z</time>
      </trkpt>
      <trkpt lat="40.47310701571404933929443359375" lon="-1.28607471473515033721923828125">
        <ele>1001.5999755859375</ele>
        <time>2021-09-25T10:22:32.000Z</time>
      </trkpt>
      <trkpt lat="40.4730762541294097900390625" lon="-1.28601972945034503936767578125">
        <ele>1001.79998779296875</ele>
        <time>2021-09-25T10:22:33.000Z</time>
      </trkpt>
      <trkpt lat="40.4730462469160556793212890625" lon="-1.28596323542296886444091796875">
        <ele>1001.5999755859375</ele>
        <time>2021-09-25T10:22:34.000Z</time>
      </trkpt>
      <trkpt lat="40.47298832796514034271240234375" lon="-1.28584974445402622222900390625">
        <ele>1001.4000244140625</ele>
        <time>2021-09-25T10:22:36.000Z</time>
      </trkpt>
      <trkpt lat="40.472932755947113037109375" lon="-1.28573776222765445709228515625">
        <ele>1001.20001220703125</ele>
        <time>2021-09-25T10:22:38.000Z</time>
      </trkpt>
      <trkpt lat="40.472875423729419708251953125" lon="-1.2856305576860904693603515625">
        <ele>1001</ele>
        <time>2021-09-25T10:22:40.000Z</time>
      </trkpt>
      <trkpt lat="40.47281499020755290985107421875" lon="-1.28552041947841644287109375">
        <ele>1000.20001220703125</ele>
        <time>2021-09-25T10:22:42.000Z</time>
      </trkpt>
      <trkpt lat="40.472755730152130126953125" lon="-1.28541179001331329345703125">
        <ele>1000</ele>
        <time>2021-09-25T10:22:44.000Z</time>
      </trkpt>
      <trkpt lat="40.47269864939153194427490234375" lon="-1.285300143063068389892578125">
        <ele>999.79998779296875</ele>
        <time>2021-09-25T10:22:46.000Z</time>
      </trkpt>
      <trkpt lat="40.47264047898352146148681640625" lon="-1.2851925194263458251953125">
        <ele>1000</ele>
        <time>2021-09-25T10:22:48.000Z</time>
      </trkpt>
      <trkpt lat="40.472583733499050140380859375" lon="-1.28508321940898895263671875">
        <ele>1000.20001220703125</ele>
        <time>2021-09-25T10:22:50.000Z</time>
      </trkpt>
      <trkpt lat="40.47255464829504489898681640625" lon="-1.285029239952564239501953125">
        <ele>1000.4000244140625</ele>
        <time>2021-09-25T10:22:51.000Z</time>
      </trkpt>
      <trkpt lat="40.472524054348468780517578125" lon="-1.2849767692387104034423828125">
        <ele>1000.79998779296875</ele>
        <time>2021-09-25T10:22:52.000Z</time>
      </trkpt>
      <trkpt lat="40.47246647067368030548095703125" lon="-1.28487140871584415435791015625">
        <ele>1001.4000244140625</ele>
        <time>2021-09-25T10:22:54.000Z</time>
      </trkpt>
      <trkpt lat="40.4724110662937164306640625" lon="-1.2847642041742801666259765625">
        <ele>1002</ele>
        <time>2021-09-25T10:22:56.000Z</time>
      </trkpt>
      <trkpt lat="40.472353734076023101806640625" lon="-1.2846528925001621246337890625">
        <ele>1002</ele>
        <time>2021-09-25T10:22:58.000Z</time>
      </trkpt>
      <trkpt lat="40.4723252356052398681640625" lon="-1.28459698520600795745849609375">
        <ele>1001.79998779296875</ele>
        <time>2021-09-25T10:22:59.000Z</time>
      </trkpt>
      <trkpt lat="40.4722952283918857574462890625" lon="-1.28454233519732952117919921875">
        <ele>1001.79998779296875</ele>
        <time>2021-09-25T10:23:00.000Z</time>
      </trkpt>
      <trkpt lat="40.4722382314503192901611328125" lon="-1.28442834131419658660888671875">
        <ele>1002</ele>
        <time>2021-09-25T10:23:02.000Z</time>
      </trkpt>
      <trkpt lat="40.4721808992326259613037109375" lon="-1.28432440571486949920654296875">
        <ele>1002</ele>
        <time>2021-09-25T10:23:04.000Z</time>
      </trkpt>
      <trkpt lat="40.47215382568538188934326171875" lon="-1.28426975570619106292724609375">
        <ele>1002</ele>
        <time>2021-09-25T10:23:05.000Z</time>
      </trkpt>
      <trkpt lat="40.47212482430040836334228515625" lon="-1.28421560861170291900634765625">
        <ele>1002</ele>
        <time>2021-09-25T10:23:06.000Z</time>
      </trkpt>
      <trkpt lat="40.47206439077854156494140625" lon="-1.28410446457564830780029296875">
        <ele>1002</ele>
        <time>2021-09-25T10:23:08.000Z</time>
      </trkpt>
      <trkpt lat="40.47200496308505535125732421875" lon="-1.28399424254894256591796875">
        <ele>1002.20001220703125</ele>
        <time>2021-09-25T10:23:10.000Z</time>
      </trkpt>
      <trkpt lat="40.47194796614348888397216796875" lon="-1.28388821147382259368896484375">
        <ele>1002.79998779296875</ele>
        <time>2021-09-25T10:23:12.000Z</time>
      </trkpt>
      <trkpt lat="40.47189096920192241668701171875" lon="-1.283783353865146636962890625">
        <ele>1003</ele>
        <time>2021-09-25T10:23:14.000Z</time>
      </trkpt>
      <trkpt lat="40.4718345589935779571533203125" lon="-1.28367782570421695709228515625">
        <ele>1003</ele>
        <time>2021-09-25T10:23:16.000Z</time>
      </trkpt>
      <trkpt lat="40.4717782326042652130126953125" lon="-1.28357271663844585418701171875">
        <ele>1004</ele>
        <time>2021-09-25T10:23:18.000Z</time>
      </trkpt>
      <trkpt lat="40.47171947546303272247314453125" lon="-1.28346492536365985870361328125">
        <ele>1004.5999755859375</ele>
        <time>2021-09-25T10:23:20.000Z</time>
      </trkpt>
      <trkpt lat="40.471660383045673370361328125" lon="-1.28335654735565185546875">
        <ele>1005.5999755859375</ele>
        <time>2021-09-25T10:23:22.000Z</time>
      </trkpt>
      <trkpt lat="40.471631549298763275146484375" lon="-1.28330223262310028076171875">
        <ele>1005.79998779296875</ele>
        <time>2021-09-25T10:23:23.000Z</time>
      </trkpt>
      <trkpt lat="40.47160296700894832611083984375" lon="-1.2832457385957241058349609375">
        <ele>1006</ele>
        <time>2021-09-25T10:23:24.000Z</time>
      </trkpt>
      <trkpt lat="40.47154647298157215118408203125" lon="-1.28313484601676464080810546875">
        <ele>1005.5999755859375</ele>
        <time>2021-09-25T10:23:26.000Z</time>
      </trkpt>
      <trkpt lat="40.4714868776500225067138671875" lon="-1.28302596509456634521484375">
        <ele>1005.20001220703125</ele>
        <time>2021-09-25T10:23:28.000Z</time>
      </trkpt>
      <trkpt lat="40.47142543829977512359619140625" lon="-1.28291909582912921905517578125">
        <ele>1004.5999755859375</ele>
        <time>2021-09-25T10:23:30.000Z</time>
      </trkpt>
      <trkpt lat="40.4713676869869232177734375" lon="-1.28281138837337493896484375">
        <ele>1004.20001220703125</ele>
        <time>2021-09-25T10:23:32.000Z</time>
      </trkpt>
      <trkpt lat="40.47131337225437164306640625" lon="-1.28270099870860576629638671875">
        <ele>1003.5999755859375</ele>
        <time>2021-09-25T10:23:34.000Z</time>
      </trkpt>
      <trkpt lat="40.4712615720927715301513671875" lon="-1.28260443918406963348388671875">
        <ele>1003.20001220703125</ele>
        <time>2021-09-25T10:23:36.000Z</time>
      </trkpt>
      <trkpt lat="40.47121136449277400970458984375" lon="-1.2825188599526882171630859375">
        <ele>1002.5999755859375</ele>
        <time>2021-09-25T10:23:38.000Z</time>
      </trkpt>
      <trkpt lat="40.47116308473050594329833984375" lon="-1.28243076615035533905029296875">
        <ele>1002.20001220703125</ele>
        <time>2021-09-25T10:23:40.000Z</time>
      </trkpt>
      <trkpt lat="40.47111312858760356903076171875" lon="-1.28233303315937519073486328125">
        <ele>1002</ele>
        <time>2021-09-25T10:23:42.000Z</time>
      </trkpt>
      <trkpt lat="40.4710644297301769256591796875" lon="-1.28223848529160022735595703125">
        <ele>1002</ele>
        <time>2021-09-25T10:23:44.000Z</time>
      </trkpt>
      <trkpt lat="40.47101296484470367431640625" lon="-1.282143853604793548583984375">
        <ele>1001.5999755859375</ele>
        <time>2021-09-25T10:23:46.000Z</time>
      </trkpt>
      <trkpt lat="40.47095940448343753814697265625" lon="-1.28204804845154285430908203125">
        <ele>1001.4000244140625</ele>
        <time>2021-09-25T10:23:48.000Z</time>
      </trkpt>
      <trkpt lat="40.47090567648410797119140625" lon="-1.28194679506123065948486328125">
        <ele>1001.20001220703125</ele>
        <time>2021-09-25T10:23:50.000Z</time>
      </trkpt>
      <trkpt lat="40.47088019549846649169921875" lon="-1.2818969227373600006103515625">
        <ele>1001.20001220703125</ele>
        <time>2021-09-25T10:23:51.000Z</time>
      </trkpt>
      <trkpt lat="40.4708540439605712890625" lon="-1.2818478047847747802734375">
        <ele>1001</ele>
        <time>2021-09-25T10:23:52.000Z</time>
      </trkpt>
      <trkpt lat="40.47080148942768573760986328125" lon="-1.281749568879604339599609375">
        <ele>1000.5999755859375</ele>
        <time>2021-09-25T10:23:54.000Z</time>
      </trkpt>
      <trkpt lat="40.47074818052351474761962890625" lon="-1.28164772875607013702392578125">
        <ele>1000.20001220703125</ele>
        <time>2021-09-25T10:23:56.000Z</time>
      </trkpt>
      <trkpt lat="40.4706942848861217498779296875" lon="-1.2815472297370433807373046875">
        <ele>1000.4000244140625</ele>
        <time>2021-09-25T10:23:58.000Z</time>
      </trkpt>
      <trkpt lat="40.47064147889614105224609375" lon="-1.28144572488963603973388671875">
        <ele>1000.5999755859375</ele>
        <time>2021-09-25T10:24:00.000Z</time>
      </trkpt>
      <trkpt lat="40.4706151597201824188232421875" lon="-1.2813950143754482269287109375">
        <ele>1000.79998779296875</ele>
        <time>2021-09-25T10:24:01.000Z</time>
      </trkpt>
      <trkpt lat="40.47058892436325550079345703125" lon="-1.2813447229564189910888671875">
        <ele>1000.79998779296875</ele>
        <time>2021-09-25T10:24:02.000Z</time>
      </trkpt>
      <trkpt lat="40.47053326852619647979736328125" lon="-1.281243972480297088623046875">
        <ele>1001.20001220703125</ele>
        <time>2021-09-25T10:24:04.000Z</time>
      </trkpt>
      <trkpt lat="40.470478534698486328125" lon="-1.281141377985477447509765625">
        <ele>1001.4000244140625</ele>
        <time>2021-09-25T10:24:06.000Z</time>
      </trkpt>
      <trkpt lat="40.47042346559464931488037109375" lon="-1.28103819675743579864501953125">
        <ele>1001.79998779296875</ele>
        <time>2021-09-25T10:24:08.000Z</time>
      </trkpt>
      <trkpt lat="40.4703672230243682861328125" lon="-1.280932836234569549560546875">
        <ele>1002.20001220703125</ele>
        <time>2021-09-25T10:24:10.000Z</time>
      </trkpt>
      <trkpt lat="40.4703110642731189727783203125" lon="-1.2808270566165447235107421875">
        <ele>1002</ele>
        <time>2021-09-25T10:24:12.000Z</time>
      </trkpt>
      <trkpt lat="40.4702537320554256439208984375" lon="-1.280716918408870697021484375">
        <ele>1002</ele>
        <time>2021-09-25T10:24:14.000Z</time>
      </trkpt>
      <trkpt lat="40.47019983641803264617919921875" lon="-1.2806037627160549163818359375">
        <ele>1002.20001220703125</ele>
        <time>2021-09-25T10:24:16.000Z</time>
      </trkpt>
      <trkpt lat="40.470144934952259063720703125" lon="-1.2804951332509517669677734375">
        <ele>1002</ele>
        <time>2021-09-25T10:24:18.000Z</time>
      </trkpt>
      <trkpt lat="40.47008785419166088104248046875" lon="-1.28039580769836902618408203125">
        <ele>1002</ele>
        <time>2021-09-25T10:24:20.000Z</time>
      </trkpt>
      <trkpt lat="40.470062457025051116943359375" lon="-1.28034953959286212921142578125">
        <ele>1002</ele>
        <time>2021-09-25T10:24:21.000Z</time>
      </trkpt>
      <trkpt lat="40.4700378142297267913818359375" lon="-1.28030746243894100189208984375">
        <ele>1002</ele>
        <time>2021-09-25T10:24:22.000Z</time>
      </trkpt>
      <trkpt lat="40.46998442150652408599853515625" lon="-1.28021224401891231536865234375">
        <ele>1002</ele>
        <time>2021-09-25T10:24:24.000Z</time>
      </trkpt>
      <trkpt lat="40.4699539951980113983154296875" lon="-1.28015910275280475616455078125">
        <ele>1002.4000244140625</ele>
        <time>2021-09-25T10:24:25.000Z</time>
      </trkpt>
      <trkpt lat="40.4699244908988475799560546875" lon="-1.28010411746799945831298828125">
        <ele>1002.79998779296875</ele>
        <time>2021-09-25T10:24:26.000Z</time>
      </trkpt>
      <trkpt lat="40.46986632049083709716796875" lon="-1.27999766729772090911865234375">
        <ele>1003.5999755859375</ele>
        <time>2021-09-25T10:24:28.000Z</time>
      </trkpt>
      <trkpt lat="40.469808317720890045166015625" lon="-1.27989716827869415283203125">
        <ele>1004.4000244140625</ele>
        <time>2021-09-25T10:24:30.000Z</time>
      </trkpt>
      <trkpt lat="40.4697793163359165191650390625" lon="-1.27984763123095035552978515625">
        <ele>1004.5999755859375</ele>
        <time>2021-09-25T10:24:31.000Z</time>
      </trkpt>
      <trkpt lat="40.469752661883831024169921875" lon="-1.27979683689773082733154296875">
        <ele>1004.79998779296875</ele>
        <time>2021-09-25T10:24:32.000Z</time>
      </trkpt>
      <trkpt lat="40.4697025381028652191162109375" lon="-1.2796894647181034088134765625">
        <ele>1005</ele>
        <time>2021-09-25T10:24:34.000Z</time>
      </trkpt>
      <trkpt lat="40.46964428387582302093505859375" lon="-1.2795868702232837677001953125">
        <ele>1004.4000244140625</ele>
        <time>2021-09-25T10:24:36.000Z</time>
      </trkpt>
      <trkpt lat="40.4695848561823368072509765625" lon="-1.2794789113104343414306640625">
        <ele>1003.5999755859375</ele>
        <time>2021-09-25T10:24:38.000Z</time>
      </trkpt>
      <trkpt lat="40.469554178416728973388671875" lon="-1.2794245965778827667236328125">
        <ele>1003.20001220703125</ele>
        <time>2021-09-25T10:24:39.000Z</time>
      </trkpt>
      <trkpt lat="40.46952509321272373199462890625" lon="-1.2793675996363162994384765625">
        <ele>1003</ele>
        <time>2021-09-25T10:24:40.000Z</time>
      </trkpt>
      <trkpt lat="40.469464994966983795166015625" lon="-1.2792586348950862884521484375">
        <ele>1002.20001220703125</ele>
        <time>2021-09-25T10:24:42.000Z</time>
      </trkpt>
      <trkpt lat="40.469406656920909881591796875" lon="-1.2791483290493488311767578125">
        <ele>1001.20001220703125</ele>
        <time>2021-09-25T10:24:44.000Z</time>
      </trkpt>
      <trkpt lat="40.46934907324612140655517578125" lon="-1.27903617918491363525390625">
        <ele>1000.5999755859375</ele>
        <time>2021-09-25T10:24:46.000Z</time>
      </trkpt>
      <trkpt lat="40.46929006464779376983642578125" lon="-1.27892511896789073944091796875">
        <ele>1000.4000244140625</ele>
        <time>2021-09-25T10:24:48.000Z</time>
      </trkpt>
      <trkpt lat="40.469231642782688140869140625" lon="-1.27881296910345554351806640625">
        <ele>1000.4000244140625</ele>
        <time>2021-09-25T10:24:50.000Z</time>
      </trkpt>
      <trkpt lat="40.46917590312659740447998046875" lon="-1.27870266325771808624267578125">
        <ele>1000.79998779296875</ele>
        <time>2021-09-25T10:24:52.000Z</time>
      </trkpt>
      <trkpt lat="40.4691191576421260833740234375" lon="-1.27859554253518581390380859375">
        <ele>1002</ele>
        <time>2021-09-25T10:24:54.000Z</time>
      </trkpt>
      <trkpt lat="40.4690608195960521697998046875" lon="-1.2784898467361927032470703125">
        <ele>1003.20001220703125</ele>
        <time>2021-09-25T10:24:56.000Z</time>
      </trkpt>
      <trkpt lat="40.4690028168261051177978515625" lon="-1.27838297747075557708740234375">
        <ele>1004</ele>
        <time>2021-09-25T10:24:58.000Z</time>
      </trkpt>
      <trkpt lat="40.46894741244614124298095703125" lon="-1.27826848067343235015869140625">
        <ele>1004</ele>
        <time>2021-09-25T10:25:00.000Z</time>
      </trkpt>
      <trkpt lat="40.468886308372020721435546875" lon="-1.278154067695140838623046875">
        <ele>1004</ele>
        <time>2021-09-25T10:25:02.000Z</time>
      </trkpt>
      <trkpt lat="40.468825288116931915283203125" lon="-1.27803948707878589630126953125">
        <ele>1004</ele>
        <time>2021-09-25T10:25:04.000Z</time>
      </trkpt>
      <trkpt lat="40.468764938414096832275390625" lon="-1.277924738824367523193359375">
        <ele>1004</ele>
        <time>2021-09-25T10:25:06.000Z</time>
      </trkpt>
      <trkpt lat="40.4687034152448177337646484375" lon="-1.27780848182737827301025390625">
        <ele>1003.5999755859375</ele>
        <time>2021-09-25T10:25:08.000Z</time>
      </trkpt>
      <trkpt lat="40.46864063479006290435791015625" lon="-1.277701444923877716064453125">
        <ele>1003.20001220703125</ele>
        <time>2021-09-25T10:25:10.000Z</time>
      </trkpt>
      <trkpt lat="40.46858154237270355224609375" lon="-1.2775911390781402587890625">
        <ele>1003.4000244140625</ele>
        <time>2021-09-25T10:25:12.000Z</time>
      </trkpt>
      <trkpt lat="40.46852010302245616912841796875" lon="-1.27747806720435619354248046875">
        <ele>1003.79998779296875</ele>
        <time>2021-09-25T10:25:14.000Z</time>
      </trkpt>
      <trkpt lat="40.4684596695005893707275390625" lon="-1.2773649953305721282958984375">
        <ele>1003.20001220703125</ele>
        <time>2021-09-25T10:25:16.000Z</time>
      </trkpt>
      <trkpt lat="40.46840091235935688018798828125" lon="-1.27725183963775634765625">
        <ele>1003</ele>
        <time>2021-09-25T10:25:18.000Z</time>
      </trkpt>
      <trkpt lat="40.46834207139909267425537109375" lon="-1.277144216001033782958984375">
        <ele>1003</ele>
        <time>2021-09-25T10:25:20.000Z</time>
      </trkpt>
      <trkpt lat="40.46828758902847766876220703125" lon="-1.277040950953960418701171875">
        <ele>1003.5999755859375</ele>
        <time>2021-09-25T10:25:22.000Z</time>
      </trkpt>
      <trkpt lat="40.46823017299175262451171875" lon="-1.27693324349820613861083984375">
        <ele>1004.4000244140625</ele>
        <time>2021-09-25T10:25:24.000Z</time>
      </trkpt>
      <trkpt lat="40.4681723378598690032958984375" lon="-1.2768268771469593048095703125">
        <ele>1005</ele>
        <time>2021-09-25T10:25:26.000Z</time>
      </trkpt>
      <trkpt lat="40.46811441890895366668701171875" lon="-1.2767165713012218475341796875">
        <ele>1005.5999755859375</ele>
        <time>2021-09-25T10:25:28.000Z</time>
      </trkpt>
      <trkpt lat="40.4680563323199748992919921875" lon="-1.27661020494997501373291015625">
        <ele>1006</ele>
        <time>2021-09-25T10:25:30.000Z</time>
      </trkpt>
      <trkpt lat="40.46802624128758907318115234375" lon="-1.276558153331279754638671875">
        <ele>1006</ele>
        <time>2021-09-25T10:25:31.000Z</time>
      </trkpt>
      <trkpt lat="40.46799807809293270111083984375" lon="-1.27650224603712558746337890625">
        <ele>1005.79998779296875</ele>
        <time>2021-09-25T10:25:32.000Z</time>
      </trkpt>
      <trkpt lat="40.46794141642749309539794921875" lon="-1.27639479003846645355224609375">
        <ele>1005.4000244140625</ele>
        <time>2021-09-25T10:25:34.000Z</time>
      </trkpt>
      <trkpt lat="40.46788156963884830474853515625" lon="-1.276284568011760711669921875">
        <ele>1004.79998779296875</ele>
        <time>2021-09-25T10:25:36.000Z</time>
      </trkpt>
      <trkpt lat="40.46782691963016986846923828125" lon="-1.27617417834699153900146484375">
        <ele>1004.79998779296875</ele>
        <time>2021-09-25T10:25:38.000Z</time>
      </trkpt>
      <trkpt lat="40.46779724769294261932373046875" lon="-1.276120282709598541259765625">
        <ele>1004.79998779296875</ele>
        <time>2021-09-25T10:25:39.000Z</time>
      </trkpt>
      <trkpt lat="40.46776791103184223175048828125" lon="-1.27606621943414211273193359375">
        <ele>1005</ele>
        <time>2021-09-25T10:25:40.000Z</time>
      </trkpt>
      <trkpt lat="40.4677079804241657257080078125" lon="-1.275961361825466156005859375">
        <ele>1004.79998779296875</ele>
        <time>2021-09-25T10:25:42.000Z</time>
      </trkpt>
      <trkpt lat="40.4676509834825992584228515625" lon="-1.2758555822074413299560546875">
        <ele>1004.5999755859375</ele>
        <time>2021-09-25T10:25:44.000Z</time>
      </trkpt>
      <trkpt lat="40.46759524382650852203369140625" lon="-1.27575273625552654266357421875">
        <ele>1004.4000244140625</ele>
        <time>2021-09-25T10:25:46.000Z</time>
      </trkpt>
      <trkpt lat="40.46756758354604244232177734375" lon="-1.27570009790360927581787109375">
        <ele>1004.20001220703125</ele>
        <time>2021-09-25T10:25:47.000Z</time>
      </trkpt>
      <trkpt lat="40.4675386659801006317138671875" lon="-1.27564678899943828582763671875">
        <ele>1004.4000244140625</ele>
        <time>2021-09-25T10:25:48.000Z</time>
      </trkpt>
      <trkpt lat="40.467479489743709564208984375" lon="-1.27553589642047882080078125">
        <ele>1004.79998779296875</ele>
        <time>2021-09-25T10:25:50.000Z</time>
      </trkpt>
      <trkpt lat="40.4674199782311916351318359375" lon="-1.27542768605053424835205078125">
        <ele>1004.20001220703125</ele>
        <time>2021-09-25T10:25:52.000Z</time>
      </trkpt>
      <trkpt lat="40.46736021526157855987548828125" lon="-1.275317631661891937255859375">
        <ele>1003.5999755859375</ele>
        <time>2021-09-25T10:25:54.000Z</time>
      </trkpt>
      <trkpt lat="40.467302463948726654052734375" lon="-1.2752074934542179107666015625">
        <ele>1003.20001220703125</ele>
        <time>2021-09-25T10:25:56.000Z</time>
      </trkpt>
      <trkpt lat="40.4672451317310333251953125" lon="-1.2751012109220027923583984375">
        <ele>1002.79998779296875</ele>
        <time>2021-09-25T10:25:58.000Z</time>
      </trkpt>
      <trkpt lat="40.467191152274608612060546875" lon="-1.27499333582818508148193359375">
        <ele>1002.20001220703125</ele>
        <time>2021-09-25T10:26:00.000Z</time>
      </trkpt>
      <trkpt lat="40.4671309702098369598388671875" lon="-1.2748836167156696319580078125">
        <ele>1002.20001220703125</ele>
        <time>2021-09-25T10:26:02.000Z</time>
      </trkpt>
      <trkpt lat="40.467070452868938446044921875" lon="-1.27477012574672698974609375">
        <ele>1002.5999755859375</ele>
        <time>2021-09-25T10:26:04.000Z</time>
      </trkpt>
      <trkpt lat="40.4670136235654354095458984375" lon="-1.274659149348735809326171875">
        <ele>1002.79998779296875</ele>
        <time>2021-09-25T10:26:06.000Z</time>
      </trkpt>
      <trkpt lat="40.46695805154740810394287109375" lon="-1.274540126323699951171875">
        <ele>1003</ele>
        <time>2021-09-25T10:26:08.000Z</time>
      </trkpt>
      <trkpt lat="40.4668989591300487518310546875" lon="-1.27442789264023303985595703125">
        <ele>1003.20001220703125</ele>
        <time>2021-09-25T10:26:10.000Z</time>
      </trkpt>
      <trkpt lat="40.46683953143656253814697265625" lon="-1.27431741915643215179443359375">
        <ele>1003.5999755859375</ele>
        <time>2021-09-25T10:26:12.000Z</time>
      </trkpt>
      <trkpt lat="40.4667832888662815093994140625" lon="-1.2742080353200435638427734375">
        <ele>1004</ele>
        <time>2021-09-25T10:26:14.000Z</time>
      </trkpt>
      <trkpt lat="40.46675386838614940643310546875" lon="-1.27415615133941173553466796875">
        <ele>1004.4000244140625</ele>
        <time>2021-09-25T10:26:15.000Z</time>
      </trkpt>
      <trkpt lat="40.466722436249256134033203125" lon="-1.27410384826362133026123046875">
        <ele>1004.5999755859375</ele>
        <time>2021-09-25T10:26:16.000Z</time>
      </trkpt>
      <trkpt lat="40.46666384674608707427978515625" lon="-1.27399404533207416534423828125">
        <ele>1005</ele>
        <time>2021-09-25T10:26:18.000Z</time>
      </trkpt>
      <trkpt lat="40.46663400717079639434814453125" lon="-1.273938305675983428955078125">
        <ele>1005</ele>
        <time>2021-09-25T10:26:19.000Z</time>
      </trkpt>
      <trkpt lat="40.4666035808622837066650390625" lon="-1.2738821469247341156005859375">
        <ele>1005.20001220703125</ele>
        <time>2021-09-25T10:26:20.000Z</time>
      </trkpt>
      <trkpt lat="40.4665395431220531463623046875" lon="-1.27376873977482318878173828125">
        <ele>1005</ele>
        <time>2021-09-25T10:26:22.000Z</time>
      </trkpt>
      <trkpt lat="40.4664812050759792327880859375" lon="-1.27365793101489543914794921875">
        <ele>1005</ele>
        <time>2021-09-25T10:26:24.000Z</time>
      </trkpt>
      <trkpt lat="40.466422699391841888427734375" lon="-1.2735490500926971435546875">
        <ele>1005</ele>
        <time>2021-09-25T10:26:26.000Z</time>
      </trkpt>
      <trkpt lat="40.466365031898021697998046875" lon="-1.27344050444662570953369140625">
        <ele>1004.5999755859375</ele>
        <time>2021-09-25T10:26:28.000Z</time>
      </trkpt>
      <trkpt lat="40.4663363657891750335693359375" lon="-1.2733839266002178192138671875">
        <ele>1004.20001220703125</ele>
        <time>2021-09-25T10:26:29.000Z</time>
      </trkpt>
      <trkpt lat="40.466308034956455230712890625" lon="-1.27332885749638080596923828125">
        <ele>1004</ele>
        <time>2021-09-25T10:26:30.000Z</time>
      </trkpt>
      <trkpt lat="40.46625212766230106353759765625" lon="-1.27321804873645305633544921875">
        <ele>1003.79998779296875</ele>
        <time>2021-09-25T10:26:32.000Z</time>
      </trkpt>
      <trkpt lat="40.46619303524494171142578125" lon="-1.27310841344296932220458984375">
        <ele>1003.4000244140625</ele>
        <time>2021-09-25T10:26:34.000Z</time>
      </trkpt>
      <trkpt lat="40.46613327227532863616943359375" lon="-1.2729983590543270111083984375">
        <ele>1003</ele>
        <time>2021-09-25T10:26:36.000Z</time>
      </trkpt>
      <trkpt lat="40.4661046899855136871337890625" lon="-1.27294228412210941314697265625">
        <ele>1003</ele>
        <time>2021-09-25T10:26:37.000Z</time>
      </trkpt>
      <trkpt lat="40.4660748504102230072021484375" lon="-1.27288746647536754608154296875">
        <ele>1003</ele>
        <time>2021-09-25T10:26:38.000Z</time>
      </trkpt>
      <trkpt lat="40.46601642854511737823486328125" lon="-1.2727774120867252349853515625">
        <ele>1003</ele>
        <time>2021-09-25T10:26:40.000Z</time>
      </trkpt>
      <trkpt lat="40.46595758758485317230224609375" lon="-1.2726697884500026702880859375">
        <ele>1002.4000244140625</ele>
        <time>2021-09-25T10:26:42.000Z</time>
      </trkpt>
      <trkpt lat="40.46589924953877925872802734375" lon="-1.27256493084132671356201171875">
        <ele>1002.79998779296875</ele>
        <time>2021-09-25T10:26:44.000Z</time>
      </trkpt>
      <trkpt lat="40.4658441804349422454833984375" lon="-1.27245697192847728729248046875">
        <ele>1003.79998779296875</ele>
        <time>2021-09-25T10:26:46.000Z</time>
      </trkpt>
      <trkpt lat="40.46578760258853435516357421875" lon="-1.27234666608273983001708984375">
        <ele>1004.4000244140625</ele>
        <time>2021-09-25T10:26:48.000Z</time>
      </trkpt>
      <trkpt lat="40.4657325334846973419189453125" lon="-1.27223753370344638824462890625">
        <ele>1004.79998779296875</ele>
        <time>2021-09-25T10:26:50.000Z</time>
      </trkpt>
      <trkpt lat="40.46567528508603572845458984375" lon="-1.2721373699605464935302734375">
        <ele>1005</ele>
        <time>2021-09-25T10:26:52.000Z</time>
      </trkpt>
      <trkpt lat="40.4656259156763553619384765625" lon="-1.27204106189310550689697265625">
        <ele>1005.20001220703125</ele>
        <time>2021-09-25T10:26:54.000Z</time>
      </trkpt>
      <trkpt lat="40.46557386405766010284423828125" lon="-1.2719469331204891204833984375">
        <ele>1004.4000244140625</ele>
        <time>2021-09-25T10:26:56.000Z</time>
      </trkpt>
      <trkpt lat="40.46551871113479137420654296875" lon="-1.27184710465371608734130859375">
        <ele>1004</ele>
        <time>2021-09-25T10:26:58.000Z</time>
      </trkpt>
      <trkpt lat="40.4654696770012378692626953125" lon="-1.27175155095756053924560546875">
        <ele>1003.79998779296875</ele>
        <time>2021-09-25T10:27:00.000Z</time>
      </trkpt>
      <trkpt lat="40.4654445312917232513427734375" lon="-1.27170528285205364227294921875">
        <ele>1003.5999755859375</ele>
        <time>2021-09-25T10:27:01.000Z</time>
      </trkpt>
      <trkpt lat="40.46541712246835231781005859375" lon="-1.2716572545468807220458984375">
        <ele>1003.5999755859375</ele>
        <time>2021-09-25T10:27:02.000Z</time>
      </trkpt>
      <trkpt lat="40.46536448411643505096435546875" lon="-1.2715561687946319580078125">
        <ele>1003.5999755859375</ele>
        <time>2021-09-25T10:27:04.000Z</time>
      </trkpt>
      <trkpt lat="40.4653100855648517608642578125" lon="-1.2714540772140026092529296875">
        <ele>1003.4000244140625</ele>
        <time>2021-09-25T10:27:06.000Z</time>
      </trkpt>
      <trkpt lat="40.465250909328460693359375" lon="-1.27134368754923343658447265625">
        <ele>1003</ele>
        <time>2021-09-25T10:27:08.000Z</time>
      </trkpt>
      <trkpt lat="40.4651880450546741485595703125" lon="-1.27122868783771991729736328125">
        <ele>1003.5999755859375</ele>
        <time>2021-09-25T10:27:10.000Z</time>
      </trkpt>
      <trkpt lat="40.465154685080051422119140625" lon="-1.2711717747151851654052734375">
        <ele>1004</ele>
        <time>2021-09-25T10:27:11.000Z</time>
      </trkpt>
      <trkpt lat="40.46512291766703128814697265625" lon="-1.27111502923071384429931640625">
        <ele>1004</ele>
        <time>2021-09-25T10:27:12.000Z</time>
      </trkpt>
      <trkpt lat="40.46506114304065704345703125" lon="-1.27100053243339061737060546875">
        <ele>1003.79998779296875</ele>
        <time>2021-09-25T10:27:14.000Z</time>
      </trkpt>
      <trkpt lat="40.46500079333782196044921875" lon="-1.2708884663879871368408203125">
        <ele>1004</ele>
        <time>2021-09-25T10:27:16.000Z</time>
      </trkpt>
      <trkpt lat="40.46493918634951114654541015625" lon="-1.2707761488854885101318359375">
        <ele>1004.5999755859375</ele>
        <time>2021-09-25T10:27:18.000Z</time>
      </trkpt>
      <trkpt lat="40.46490968205034732818603515625" lon="-1.27072024159133434295654296875">
        <ele>1004.5999755859375</ele>
        <time>2021-09-25T10:27:19.000Z</time>
      </trkpt>
      <trkpt lat="40.46487900428473949432373046875" lon="-1.27066458575427532196044921875">
        <ele>1004.4000244140625</ele>
        <time>2021-09-25T10:27:20.000Z</time>
      </trkpt>
      <trkpt lat="40.4648189060389995574951171875" lon="-1.27055293880403041839599609375">
        <ele>1004.20001220703125</ele>
        <time>2021-09-25T10:27:22.000Z</time>
      </trkpt>
      <trkpt lat="40.46475964598357677459716796875" lon="-1.27044196240603923797607421875">
        <ele>1004.4000244140625</ele>
        <time>2021-09-25T10:27:24.000Z</time>
      </trkpt>
      <trkpt lat="40.46470197848975658416748046875" lon="-1.2703275494277477264404296875">
        <ele>1003.79998779296875</ele>
        <time>2021-09-25T10:27:26.000Z</time>
      </trkpt>
      <trkpt lat="40.46464146114885807037353515625" lon="-1.2702148966491222381591796875">
        <ele>1003.20001220703125</ele>
        <time>2021-09-25T10:27:28.000Z</time>
      </trkpt>
      <trkpt lat="40.46461245976388454437255859375" lon="-1.27016234211623668670654296875">
        <ele>1003.4000244140625</ele>
        <time>2021-09-25T10:27:29.000Z</time>
      </trkpt>
      <trkpt lat="40.4645848833024501800537109375" lon="-1.270109117031097412109375">
        <ele>1003.4000244140625</ele>
        <time>2021-09-25T10:27:30.000Z</time>
      </trkpt>
      <trkpt lat="40.4645282216370105743408203125" lon="-1.2700031697750091552734375">
        <ele>1003.20001220703125</ele>
        <time>2021-09-25T10:27:32.000Z</time>
      </trkpt>
      <trkpt lat="40.46449930407106876373291015625" lon="-1.2699476815760135650634765625">
        <ele>1003</ele>
        <time>2021-09-25T10:27:33.000Z</time>
      </trkpt>
      <trkpt lat="40.4644705541431903839111328125" lon="-1.26989093609154224395751953125">
        <ele>1003</ele>
        <time>2021-09-25T10:27:34.000Z</time>
      </trkpt>
      <trkpt lat="40.4644390381872653961181640625" lon="-1.26983611844480037689208984375">
        <ele>1003</ele>
        <time>2021-09-25T10:27:35.000Z</time>
      </trkpt>
      <trkpt lat="40.4644091986119747161865234375" lon="-1.26978046260774135589599609375">
        <ele>1003</ele>
        <time>2021-09-25T10:27:36.000Z</time>
      </trkpt>
      <trkpt lat="40.464350022375583648681640625" lon="-1.26967082731425762176513671875">
        <ele>1003</ele>
        <time>2021-09-25T10:27:38.000Z</time>
      </trkpt>
      <trkpt lat="40.46429579146206378936767578125" lon="-1.26956253312528133392333984375">
        <ele>1002.5999755859375</ele>
        <time>2021-09-25T10:27:40.000Z</time>
      </trkpt>
      <trkpt lat="40.46424130909144878387451171875" lon="-1.26945876516401767730712890625">
        <ele>1003.20001220703125</ele>
        <time>2021-09-25T10:27:42.000Z</time>
      </trkpt>
      <trkpt lat="40.4642093740403652191162109375" lon="-1.26940428279340267181396484375">
        <ele>1003.5999755859375</ele>
        <time>2021-09-25T10:27:43.000Z</time>
      </trkpt>
      <trkpt lat="40.46417710371315479278564453125" lon="-1.2693487107753753662109375">
        <ele>1003.79998779296875</ele>
        <time>2021-09-25T10:27:44.000Z</time>
      </trkpt>
      <trkpt lat="40.464116670191287994384765625" lon="-1.26923362724483013153076171875">
        <ele>1004</ele>
        <time>2021-09-25T10:27:46.000Z</time>
      </trkpt>
      <trkpt lat="40.4640571586787700653076171875" lon="-1.26911938190460205078125">
        <ele>1004.5999755859375</ele>
        <time>2021-09-25T10:27:48.000Z</time>
      </trkpt>
      <trkpt lat="40.46399789862334728240966796875" lon="-1.26901016570627689361572265625">
        <ele>1005.20001220703125</ele>
        <time>2021-09-25T10:27:50.000Z</time>
      </trkpt>
      <trkpt lat="40.46396906487643718719482421875" lon="-1.268954761326313018798828125">
        <ele>1005.20001220703125</ele>
        <time>2021-09-25T10:27:51.000Z</time>
      </trkpt>
      <trkpt lat="40.4639406502246856689453125" lon="-1.2688980996608734130859375">
        <ele>1005</ele>
        <time>2021-09-25T10:27:52.000Z</time>
      </trkpt>
      <trkpt lat="40.463881306350231170654296875" lon="-1.26878452487289905548095703125">
        <ele>1004.79998779296875</ele>
        <time>2021-09-25T10:27:54.000Z</time>
      </trkpt>
      <trkpt lat="40.46382087282836437225341796875" lon="-1.2686732970178127288818359375">
        <ele>1004.4000244140625</ele>
        <time>2021-09-25T10:27:56.000Z</time>
      </trkpt>
      <trkpt lat="40.46376236714422702789306640625" lon="-1.268561817705631256103515625">
        <ele>1004.4000244140625</ele>
        <time>2021-09-25T10:27:58.000Z</time>
      </trkpt>
      <trkpt lat="40.46370654366910457611083984375" lon="-1.26845729537308216094970703125">
        <ele>1004.20001220703125</ele>
        <time>2021-09-25T10:28:00.000Z</time>
      </trkpt>
      <trkpt lat="40.4636482894420623779296875" lon="-1.26835067756474018096923828125">
        <ele>1004.20001220703125</ele>
        <time>2021-09-25T10:28:02.000Z</time>
      </trkpt>
      <trkpt lat="40.46359405852854251861572265625" lon="-1.26824271865189075469970703125">
        <ele>1004</ele>
        <time>2021-09-25T10:28:04.000Z</time>
      </trkpt>
      <trkpt lat="40.46356371603906154632568359375" lon="-1.2681899964809417724609375">
        <ele>1003.79998779296875</ele>
        <time>2021-09-25T10:28:05.000Z</time>
      </trkpt>
      <trkpt lat="40.463532619178295135498046875" lon="-1.26813844777643680572509765625">
        <ele>1003.5999755859375</ele>
        <time>2021-09-25T10:28:06.000Z</time>
      </trkpt>
      <trkpt lat="40.4634757898747920989990234375" lon="-1.268024705350399017333984375">
        <ele>1003.20001220703125</ele>
        <time>2021-09-25T10:28:08.000Z</time>
      </trkpt>
      <trkpt lat="40.4634174518287181854248046875" lon="-1.26791113056242465972900390625">
        <ele>1003.20001220703125</ele>
        <time>2021-09-25T10:28:10.000Z</time>
      </trkpt>
      <trkpt lat="40.4633584432303905487060546875" lon="-1.26779864542186260223388671875">
        <ele>1003.20001220703125</ele>
        <time>2021-09-25T10:28:12.000Z</time>
      </trkpt>
      <trkpt lat="40.46329759061336517333984375" lon="-1.26768582500517368316650390625">
        <ele>1003</ele>
        <time>2021-09-25T10:28:14.000Z</time>
      </trkpt>
      <trkpt lat="40.46323514543473720550537109375" lon="-1.2675742618739604949951171875">
        <ele>1003.4000244140625</ele>
        <time>2021-09-25T10:28:16.000Z</time>
      </trkpt>
      <trkpt lat="40.46320346184074878692626953125" lon="-1.267518103122711181640625">
        <ele>1003.5999755859375</ele>
        <time>2021-09-25T10:28:17.000Z</time>
      </trkpt>
      <trkpt lat="40.46317152678966522216796875" lon="-1.26746186055243015289306640625">
        <ele>1004</ele>
        <time>2021-09-25T10:28:18.000Z</time>
      </trkpt>
      <trkpt lat="40.46311327256262302398681640625" lon="-1.26735021360218524932861328125">
        <ele>1004.79998779296875</ele>
        <time>2021-09-25T10:28:20.000Z</time>
      </trkpt>
      <trkpt lat="40.463061891496181488037109375" lon="-1.2672470323741436004638671875">
        <ele>1005</ele>
        <time>2021-09-25T10:28:22.000Z</time>
      </trkpt>
      <trkpt lat="40.46301369555294513702392578125" lon="-1.26715055666863918304443359375">
        <ele>1005.20001220703125</ele>
        <time>2021-09-25T10:28:24.000Z</time>
      </trkpt>
      <trkpt lat="40.4629591293632984161376953125" lon="-1.26705165021121501922607421875">
        <ele>1005.4000244140625</ele>
        <time>2021-09-25T10:28:26.000Z</time>
      </trkpt>
      <trkpt lat="40.46289861202239990234375" lon="-1.2669402547180652618408203125">
        <ele>1005.5999755859375</ele>
        <time>2021-09-25T10:28:28.000Z</time>
      </trkpt>
      <trkpt lat="40.46286935918033123016357421875" lon="-1.2668852694332599639892578125">
        <ele>1005.5999755859375</ele>
        <time>2021-09-25T10:28:29.000Z</time>
      </trkpt>
      <trkpt lat="40.46283868141472339630126953125" lon="-1.2668322958052158355712890625">
        <ele>1005.79998779296875</ele>
        <time>2021-09-25T10:28:30.000Z</time>
      </trkpt>
      <trkpt lat="40.4627784155309200286865234375" lon="-1.26671955920755863189697265625">
        <ele>1006.4000244140625</ele>
        <time>2021-09-25T10:28:32.000Z</time>
      </trkpt>
      <trkpt lat="40.4627163894474506378173828125" lon="-1.26660657115280628204345703125">
        <ele>1006.4000244140625</ele>
        <time>2021-09-25T10:28:34.000Z</time>
      </trkpt>
      <trkpt lat="40.46265914104878902435302734375" lon="-1.2664940021932125091552734375">
        <ele>1005.79998779296875</ele>
        <time>2021-09-25T10:28:36.000Z</time>
      </trkpt>
      <trkpt lat="40.46263047493994235992431640625" lon="-1.26644186675548553466796875">
        <ele>1005.5999755859375</ele>
        <time>2021-09-25T10:28:37.000Z</time>
      </trkpt>
      <trkpt lat="40.4626022279262542724609375" lon="-1.26639090478420257568359375">
        <ele>1005.5999755859375</ele>
        <time>2021-09-25T10:28:38.000Z</time>
      </trkpt>
      <trkpt lat="40.46254866756498813629150390625" lon="-1.26629509963095188140869140625">
        <ele>1005.20001220703125</ele>
        <time>2021-09-25T10:28:40.000Z</time>
      </trkpt>
      <trkpt lat="40.46249250881373882293701171875" lon="-1.26620273105800151824951171875">
        <ele>1005</ele>
        <time>2021-09-25T10:28:42.000Z</time>
      </trkpt>
      <trkpt lat="40.46243450604379177093505859375" lon="-1.26609385013580322265625">
        <ele>1004.79998779296875</ele>
        <time>2021-09-25T10:28:44.000Z</time>
      </trkpt>
      <trkpt lat="40.46237633563578128814697265625" lon="-1.2659825384616851806640625">
        <ele>1004.4000244140625</ele>
        <time>2021-09-25T10:28:46.000Z</time>
      </trkpt>
      <trkpt lat="40.46231615357100963592529296875" lon="-1.2658698856830596923828125">
        <ele>1004</ele>
        <time>2021-09-25T10:28:48.000Z</time>
      </trkpt>
      <trkpt lat="40.46229084022343158721923828125" lon="-1.26581498421728610992431640625">
        <ele>1004</ele>
        <time>2021-09-25T10:28:49.000Z</time>
      </trkpt>
      <trkpt lat="40.46226502396166324615478515625" lon="-1.26575597561895847320556640625">
        <ele>1004</ele>
        <time>2021-09-25T10:28:50.000Z</time>
      </trkpt>
      <trkpt lat="40.4622106254100799560546875" lon="-1.26564214937388896942138671875">
        <ele>1003.5999755859375</ele>
        <time>2021-09-25T10:28:52.000Z</time>
      </trkpt>
      <trkpt lat="40.46215069480240345001220703125" lon="-1.26552580855786800384521484375">
        <ele>1003</ele>
        <time>2021-09-25T10:28:54.000Z</time>
      </trkpt>
      <trkpt lat="40.462092272937297821044921875" lon="-1.26541567035019397735595703125">
        <ele>1003.20001220703125</ele>
        <time>2021-09-25T10:28:56.000Z</time>
      </trkpt>
      <trkpt lat="40.46206645667552947998046875" lon="-1.26536068506538867950439453125">
        <ele>1003</ele>
        <time>2021-09-25T10:28:57.000Z</time>
      </trkpt>
      <trkpt lat="40.46203971840441226959228515625" lon="-1.2653081305325031280517578125">
        <ele>1003.20001220703125</ele>
        <time>2021-09-25T10:28:58.000Z</time>
      </trkpt>
      <trkpt lat="40.4619885049760341644287109375" lon="-1.2652038596570491790771484375">
        <ele>1003.5999755859375</ele>
        <time>2021-09-25T10:29:00.000Z</time>
      </trkpt>
      <trkpt lat="40.46193410642445087432861328125" lon="-1.265099085867404937744140625">
        <ele>1004</ele>
        <time>2021-09-25T10:29:02.000Z</time>
      </trkpt>
      <trkpt lat="40.46187870204448699951171875" lon="-1.2649966590106487274169921875">
        <ele>1004</ele>
        <time>2021-09-25T10:29:04.000Z</time>
      </trkpt>
      <trkpt lat="40.46182564459741115570068359375" lon="-1.2648984231054782867431640625">
        <ele>1004.4000244140625</ele>
        <time>2021-09-25T10:29:06.000Z</time>
      </trkpt>
      <trkpt lat="40.461770407855510711669921875" lon="-1.26479188911616802215576171875">
        <ele>1004.4000244140625</ele>
        <time>2021-09-25T10:29:08.000Z</time>
      </trkpt>
      <trkpt lat="40.46170771121978759765625" lon="-1.264678649604320526123046875">
        <ele>1004</ele>
        <time>2021-09-25T10:29:10.000Z</time>
      </trkpt>
      <trkpt lat="40.46164895407855510711669921875" lon="-1.26456574536859989166259765625">
        <ele>1004</ele>
        <time>2021-09-25T10:29:12.000Z</time>
      </trkpt>
      <trkpt lat="40.461589358747005462646484375" lon="-1.26445703208446502685546875">
        <ele>1004</ele>
        <time>2021-09-25T10:29:14.000Z</time>
      </trkpt>
      <trkpt lat="40.461527667939662933349609375" lon="-1.26434144563972949981689453125">
        <ele>1003.5999755859375</ele>
        <time>2021-09-25T10:29:16.000Z</time>
      </trkpt>
      <trkpt lat="40.4614661447703838348388671875" lon="-1.26422711648046970367431640625">
        <ele>1003.4000244140625</ele>
        <time>2021-09-25T10:29:18.000Z</time>
      </trkpt>
      <trkpt lat="40.461400933563709259033203125" lon="-1.2641145475208759307861328125">
        <ele>1003</ele>
        <time>2021-09-25T10:29:20.000Z</time>
      </trkpt>
      <trkpt lat="40.461337901651859283447265625" lon="-1.2640008889138698577880859375">
        <ele>1003.4000244140625</ele>
        <time>2021-09-25T10:29:22.000Z</time>
      </trkpt>
      <trkpt lat="40.46127428300678730010986328125" lon="-1.26388563774526119232177734375">
        <ele>1003.5999755859375</ele>
        <time>2021-09-25T10:29:24.000Z</time>
      </trkpt>
      <trkpt lat="40.46120923943817615509033203125" lon="-1.263768710196018218994140625">
        <ele>1003.20001220703125</ele>
        <time>2021-09-25T10:29:26.000Z</time>
      </trkpt>
      <trkpt lat="40.46117839403450489044189453125" lon="-1.2637107074260711669921875">
        <ele>1003</ele>
        <time>2021-09-25T10:29:27.000Z</time>
      </trkpt>
      <trkpt lat="40.46114645898342132568359375" lon="-1.26365345902740955352783203125">
        <ele>1003</ele>
        <time>2021-09-25T10:29:28.000Z</time>
      </trkpt>
      <trkpt lat="40.4610849358141422271728515625" lon="-1.26353929750621318817138671875">
        <ele>1003</ele>
        <time>2021-09-25T10:29:30.000Z</time>
      </trkpt>
      <trkpt lat="40.4610215686261653900146484375" lon="-1.2634263932704925537109375">
        <ele>1002.20001220703125</ele>
        <time>2021-09-25T10:29:32.000Z</time>
      </trkpt>
      <trkpt lat="40.46095669269561767578125" lon="-1.26331499777734279632568359375">
        <ele>1002</ele>
        <time>2021-09-25T10:29:34.000Z</time>
      </trkpt>
      <trkpt lat="40.46089525334537029266357421875" lon="-1.2632069550454616546630859375">
        <ele>1002.20001220703125</ele>
        <time>2021-09-25T10:29:36.000Z</time>
      </trkpt>
      <trkpt lat="40.4608348198235034942626953125" lon="-1.26310050487518310546875">
        <ele>1002.5999755859375</ele>
        <time>2021-09-25T10:29:38.000Z</time>
      </trkpt>
      <trkpt lat="40.4607689380645751953125" lon="-1.26298475079238414764404296875">
        <ele>1003</ele>
        <time>2021-09-25T10:29:40.000Z</time>
      </trkpt>
      <trkpt lat="40.46069844625890254974365234375" lon="-1.2628562562167644500732421875">
        <ele>1003.4000244140625</ele>
        <time>2021-09-25T10:29:42.000Z</time>
      </trkpt>
      <trkpt lat="40.46066257171332836151123046875" lon="-1.262789033353328704833984375">
        <ele>1003.4000244140625</ele>
        <time>2021-09-25T10:29:43.000Z</time>
      </trkpt>
      <trkpt lat="40.46063172630965709686279296875" lon="-1.26272507943212985992431640625">
        <ele>1003.4000244140625</ele>
        <time>2021-09-25T10:29:44.000Z</time>
      </trkpt>
      <trkpt lat="40.4605779983103275299072265625" lon="-1.26260739751160144805908203125">
        <ele>1003.20001220703125</ele>
        <time>2021-09-25T10:29:46.000Z</time>
      </trkpt>
      <trkpt lat="40.4605491645634174346923828125" lon="-1.262550652027130126953125">
        <ele>1003</ele>
        <time>2021-09-25T10:29:47.000Z</time>
      </trkpt>
      <trkpt lat="40.46052242629230022430419921875" lon="-1.26249575056135654449462890625">
        <ele>1003</ele>
        <time>2021-09-25T10:29:48.000Z</time>
      </trkpt>
      <trkpt lat="40.4604720510542392730712890625" lon="-1.2623949162662029266357421875">
        <ele>1002.79998779296875</ele>
        <time>2021-09-25T10:29:50.000Z</time>
      </trkpt>
      <trkpt lat="40.46041899360716342926025390625" lon="-1.2623017095029354095458984375">
        <ele>1002.5999755859375</ele>
        <time>2021-09-25T10:29:52.000Z</time>
      </trkpt>
      <trkpt lat="40.4603920876979827880859375" lon="-1.2622460536658763885498046875">
        <ele>1002.5999755859375</ele>
        <time>2021-09-25T10:29:53.000Z</time>
      </trkpt>
      <trkpt lat="40.46036317013204097747802734375" lon="-1.2621870450675487518310546875">
        <ele>1002.79998779296875</ele>
        <time>2021-09-25T10:29:54.000Z</time>
      </trkpt>
      <trkpt lat="40.46030214987695217132568359375" lon="-1.26207749359309673309326171875">
        <ele>1002.79998779296875</ele>
        <time>2021-09-25T10:29:56.000Z</time>
      </trkpt>
      <trkpt lat="40.46024280600249767303466796875" lon="-1.26196986995637416839599609375">
        <ele>1002.20001220703125</ele>
        <time>2021-09-25T10:29:58.000Z</time>
      </trkpt>
      <trkpt lat="40.46018279157578945159912109375" lon="-1.26185797154903411865234375">
        <ele>1002</ele>
        <time>2021-09-25T10:30:00.000Z</time>
      </trkpt>
      <trkpt lat="40.46012177132070064544677734375" lon="-1.261737607419490814208984375">
        <ele>1002</ele>
        <time>2021-09-25T10:30:02.000Z</time>
      </trkpt>
      <trkpt lat="40.460061170160770416259765625" lon="-1.26162051223218441009521484375">
        <ele>1002</ele>
        <time>2021-09-25T10:30:04.000Z</time>
      </trkpt>
      <trkpt lat="40.4600006528198719024658203125" lon="-1.26150568015873432159423828125">
        <ele>1002.4000244140625</ele>
        <time>2021-09-25T10:30:06.000Z</time>
      </trkpt>
      <trkpt lat="40.4599721543490886688232421875" lon="-1.2614541314542293548583984375">
        <ele>1002.5999755859375</ele>
        <time>2021-09-25T10:30:07.000Z</time>
      </trkpt>
      <trkpt lat="40.4599433206021785736083984375" lon="-1.26139939762651920318603515625">
        <ele>1002.79998779296875</ele>
        <time>2021-09-25T10:30:08.000Z</time>
      </trkpt>
      <trkpt lat="40.45988238416612148284912109375" lon="-1.2612885050475597381591796875">
        <ele>1003.20001220703125</ele>
        <time>2021-09-25T10:30:10.000Z</time>
      </trkpt>
      <trkpt lat="40.45982119627296924591064453125" lon="-1.26117308624088764190673828125">
        <ele>1003.5999755859375</ele>
        <time>2021-09-25T10:30:12.000Z</time>
      </trkpt>
      <trkpt lat="40.4597617685794830322265625" lon="-1.26106194220483303070068359375">
        <ele>1004</ele>
        <time>2021-09-25T10:30:14.000Z</time>
      </trkpt>
      <trkpt lat="40.45970083214342594146728515625" lon="-1.2609549053013324737548828125">
        <ele>1004</ele>
        <time>2021-09-25T10:30:16.000Z</time>
      </trkpt>
      <trkpt lat="40.459642075002193450927734375" lon="-1.26084703020751476287841796875">
        <ele>1004</ele>
        <time>2021-09-25T10:30:18.000Z</time>
      </trkpt>
      <trkpt lat="40.45958247967064380645751953125" lon="-1.26073873601853847503662109375">
        <ele>1004.20001220703125</ele>
        <time>2021-09-25T10:30:20.000Z</time>
      </trkpt>
      <trkpt lat="40.45952372252941131591796875" lon="-1.26062809489667415618896484375">
        <ele>1004.4000244140625</ele>
        <time>2021-09-25T10:30:22.000Z</time>
      </trkpt>
      <trkpt lat="40.4594642110168933868408203125" lon="-1.26051158644258975982666015625">
        <ele>1004.20001220703125</ele>
        <time>2021-09-25T10:30:24.000Z</time>
      </trkpt>
      <trkpt lat="40.45943546108901500701904296875" lon="-1.26045693643391132354736328125">
        <ele>1004</ele>
        <time>2021-09-25T10:30:25.000Z</time>
      </trkpt>
      <trkpt lat="40.45940796844661235809326171875" lon="-1.2604027055203914642333984375">
        <ele>1004</ele>
        <time>2021-09-25T10:30:26.000Z</time>
      </trkpt>
      <trkpt lat="40.45935046859085559844970703125" lon="-1.2602991051971912384033203125">
        <ele>1003.79998779296875</ele>
        <time>2021-09-25T10:30:28.000Z</time>
      </trkpt>
      <trkpt lat="40.4592925496399402618408203125" lon="-1.2601928226649761199951171875">
        <ele>1003</ele>
        <time>2021-09-25T10:30:30.000Z</time>
      </trkpt>
      <trkpt lat="40.459235049784183502197265625" lon="-1.260088384151458740234375">
        <ele>1002.5999755859375</ele>
        <time>2021-09-25T10:30:32.000Z</time>
      </trkpt>
      <trkpt lat="40.4592060483992099761962890625" lon="-1.26003541052341461181640625">
        <ele>1002.4000244140625</ele>
        <time>2021-09-25T10:30:33.000Z</time>
      </trkpt>
      <trkpt lat="40.4591792263090610504150390625" lon="-1.25998369418084621429443359375">
        <ele>1002.20001220703125</ele>
        <time>2021-09-25T10:30:34.000Z</time>
      </trkpt>
      <trkpt lat="40.459126420319080352783203125" lon="-1.2598778307437896728515625">
        <ele>1002.20001220703125</ele>
        <time>2021-09-25T10:30:36.000Z</time>
      </trkpt>
      <trkpt lat="40.4590672440826892852783203125" lon="-1.259761154651641845703125">
        <ele>1002.5999755859375</ele>
        <time>2021-09-25T10:30:38.000Z</time>
      </trkpt>
      <trkpt lat="40.45900546945631504058837890625" lon="-1.2596466578543186187744140625">
        <ele>1002.4000244140625</ele>
        <time>2021-09-25T10:30:40.000Z</time>
      </trkpt>
      <trkpt lat="40.45894495211541652679443359375" lon="-1.25953308306634426116943359375">
        <ele>1002.4000244140625</ele>
        <time>2021-09-25T10:30:42.000Z</time>
      </trkpt>
      <trkpt lat="40.45888527296483516693115234375" lon="-1.25942043028771877288818359375">
        <ele>1002.79998779296875</ele>
        <time>2021-09-25T10:30:44.000Z</time>
      </trkpt>
      <trkpt lat="40.458828024566173553466796875" lon="-1.259310208261013031005859375">
        <ele>1003.20001220703125</ele>
        <time>2021-09-25T10:30:46.000Z</time>
      </trkpt>
      <trkpt lat="40.45876943506300449371337890625" lon="-1.2591992318630218505859375">
        <ele>1003.5999755859375</ele>
        <time>2021-09-25T10:30:48.000Z</time>
      </trkpt>
      <trkpt lat="40.45871344394981861114501953125" lon="-1.25908465124666690826416015625">
        <ele>1003.4000244140625</ele>
        <time>2021-09-25T10:30:50.000Z</time>
      </trkpt>
      <trkpt lat="40.4586615599691867828369140625" lon="-1.25897082500159740447998046875">
        <ele>1003.20001220703125</ele>
        <time>2021-09-25T10:30:52.000Z</time>
      </trkpt>
      <trkpt lat="40.45860598795115947723388671875" lon="-1.25886303372681140899658203125">
        <ele>1003.79998779296875</ele>
        <time>2021-09-25T10:30:54.000Z</time>
      </trkpt>
      <trkpt lat="40.45857958495616912841796875" lon="-1.258814334869384765625">
        <ele>1004</ele>
        <time>2021-09-25T10:30:55.000Z</time>
      </trkpt>
      <trkpt lat="40.45855276286602020263671875" lon="-1.258771419525146484375">
        <ele>1004</ele>
        <time>2021-09-25T10:30:56.000Z</time>
      </trkpt>
      <trkpt lat="40.45850791968405246734619140625" lon="-1.2586854211986064910888671875">
        <ele>1004</ele>
        <time>2021-09-25T10:30:58.000Z</time>
      </trkpt>
      <trkpt lat="40.4584503360092639923095703125" lon="-1.2585945613682270050048828125">
        <ele>1004</ele>
        <time>2021-09-25T10:31:00.000Z</time>
      </trkpt>
      <trkpt lat="40.45839191414415836334228515625" lon="-1.2585020251572132110595703125">
        <ele>1004</ele>
        <time>2021-09-25T10:31:02.000Z</time>
      </trkpt>
      <trkpt lat="40.4583356715738773345947265625" lon="-1.25839658081531524658203125">
        <ele>1004</ele>
        <time>2021-09-25T10:31:04.000Z</time>
      </trkpt>
      <trkpt lat="40.45830608345568180084228515625" lon="-1.258346624672412872314453125">
        <ele>1004</ele>
        <time>2021-09-25T10:31:05.000Z</time>
      </trkpt>
      <trkpt lat="40.4582780040800571441650390625" lon="-1.2582944892346858978271484375">
        <ele>1004.20001220703125</ele>
        <time>2021-09-25T10:31:06.000Z</time>
      </trkpt>
      <trkpt lat="40.4582200013101100921630859375" lon="-1.25818829052150249481201171875">
        <ele>1003.79998779296875</ele>
        <time>2021-09-25T10:31:08.000Z</time>
      </trkpt>
      <trkpt lat="40.4581613279879093170166015625" lon="-1.25807739794254302978515625">
        <ele>1003.5999755859375</ele>
        <time>2021-09-25T10:31:10.000Z</time>
      </trkpt>
      <trkpt lat="40.45810441486537456512451171875" lon="-1.2579654157161712646484375">
        <ele>1003.5999755859375</ele>
        <time>2021-09-25T10:31:12.000Z</time>
      </trkpt>
      <trkpt lat="40.45804917812347412109375" lon="-1.2578556127846240997314453125">
        <ele>1004</ele>
        <time>2021-09-25T10:31:14.000Z</time>
      </trkpt>
      <trkpt lat="40.45802143402397632598876953125" lon="-1.257802136242389678955078125">
        <ele>1004</ele>
        <time>2021-09-25T10:31:15.000Z</time>
      </trkpt>
      <trkpt lat="40.45799243263900279998779296875" lon="-1.2577510066330432891845703125">
        <ele>1004</ele>
        <time>2021-09-25T10:31:16.000Z</time>
      </trkpt>
      <trkpt lat="40.45793510042130947113037109375" lon="-1.2576440535485744476318359375">
        <ele>1004.20001220703125</ele>
        <time>2021-09-25T10:31:18.000Z</time>
      </trkpt>
      <trkpt lat="40.45787491835653781890869140625" lon="-1.2575374357402324676513671875">
        <ele>1004.20001220703125</ele>
        <time>2021-09-25T10:31:20.000Z</time>
      </trkpt>
      <trkpt lat="40.45781574212014675140380859375" lon="-1.2574289739131927490234375">
        <ele>1004.5999755859375</ele>
        <time>2021-09-25T10:31:22.000Z</time>
      </trkpt>
      <trkpt lat="40.45776226557791233062744140625" lon="-1.25732579268515110015869140625">
        <ele>1004.5999755859375</ele>
        <time>2021-09-25T10:31:24.000Z</time>
      </trkpt>
      <trkpt lat="40.45770593918859958648681640625" lon="-1.257220096886157989501953125">
        <ele>1004</ele>
        <time>2021-09-25T10:31:26.000Z</time>
      </trkpt>
      <trkpt lat="40.4576476849615573883056640625" lon="-1.25711188651621341705322265625">
        <ele>1004</ele>
        <time>2021-09-25T10:31:28.000Z</time>
      </trkpt>
      <trkpt lat="40.457589514553546905517578125" lon="-1.25700652599334716796875">
        <ele>1004</ele>
        <time>2021-09-25T10:31:30.000Z</time>
      </trkpt>
      <trkpt lat="40.45753645710647106170654296875" lon="-1.25689999200403690338134765625">
        <ele>1004</ele>
        <time>2021-09-25T10:31:32.000Z</time>
      </trkpt>
      <trkpt lat="40.45748398639261722564697265625" lon="-1.25680209137499332427978515625">
        <ele>1004</ele>
        <time>2021-09-25T10:31:34.000Z</time>
      </trkpt>
      <trkpt lat="40.4574362933635711669921875" lon="-1.25671257264912128448486328125">
        <ele>1004</ele>
        <time>2021-09-25T10:31:36.000Z</time>
      </trkpt>
      <trkpt lat="40.45738658867776393890380859375" lon="-1.25662120990455150604248046875">
        <ele>1004</ele>
        <time>2021-09-25T10:31:38.000Z</time>
      </trkpt>
      <trkpt lat="40.457361526787281036376953125" lon="-1.25657360069453716278076171875">
        <ele>1004</ele>
        <time>2021-09-25T10:31:39.000Z</time>
      </trkpt>
      <trkpt lat="40.45733680017292499542236328125" lon="-1.25652599148452281951904296875">
        <ele>1004</ele>
        <time>2021-09-25T10:31:40.000Z</time>
      </trkpt>
      <trkpt lat="40.45728650875389575958251953125" lon="-1.2564290128648281097412109375">
        <ele>1004</ele>
        <time>2021-09-25T10:31:42.000Z</time>
      </trkpt>
      <trkpt lat="40.45723772607743740081787109375" lon="-1.25633136369287967681884765625">
        <ele>1004</ele>
        <time>2021-09-25T10:31:44.000Z</time>
      </trkpt>
      <trkpt lat="40.4571855068206787109375" lon="-1.25623933039605617523193359375">
        <ele>1004.4000244140625</ele>
        <time>2021-09-25T10:31:46.000Z</time>
      </trkpt>
      <trkpt lat="40.4571367241442203521728515625" lon="-1.2561520747840404510498046875">
        <ele>1004.79998779296875</ele>
        <time>2021-09-25T10:31:48.000Z</time>
      </trkpt>
      <trkpt lat="40.457095988094806671142578125" lon="-1.2560726143419742584228515625">
        <ele>1005</ele>
        <time>2021-09-25T10:31:50.000Z</time>
      </trkpt>
      <trkpt lat="40.45705365948379039764404296875" lon="-1.2559908069670200347900390625">
        <ele>1005</ele>
        <time>2021-09-25T10:31:52.000Z</time>
      </trkpt>
      <trkpt lat="40.4570042900741100311279296875" lon="-1.255899108946323394775390625">
        <ele>1004.79998779296875</ele>
        <time>2021-09-25T10:31:54.000Z</time>
      </trkpt>
      <trkpt lat="40.456951819360256195068359375" lon="-1.2557995319366455078125">
        <ele>1004.20001220703125</ele>
        <time>2021-09-25T10:31:56.000Z</time>
      </trkpt>
      <trkpt lat="40.4569006897509098052978515625" lon="-1.2557061575353145599365234375">
        <ele>1004.4000244140625</ele>
        <time>2021-09-25T10:31:58.000Z</time>
      </trkpt>
      <trkpt lat="40.45684578828513622283935546875" lon="-1.25561186112463474273681640625">
        <ele>1004.79998779296875</ele>
        <time>2021-09-25T10:32:00.000Z</time>
      </trkpt>
      <trkpt lat="40.45679331757128238677978515625" lon="-1.25551328994333744049072265625">
        <ele>1005</ele>
        <time>2021-09-25T10:32:02.000Z</time>
      </trkpt>
      <trkpt lat="40.45673749409615993499755859375" lon="-1.25541270710527896881103515625">
        <ele>1005</ele>
        <time>2021-09-25T10:32:04.000Z</time>
      </trkpt>
      <trkpt lat="40.4566824249923229217529296875" lon="-1.25530977733433246612548828125">
        <ele>1006</ele>
        <time>2021-09-25T10:32:06.000Z</time>
      </trkpt>
      <trkpt lat="40.45665501616895198822021484375" lon="-1.25525931827723979949951171875">
        <ele>1006.5999755859375</ele>
        <time>2021-09-25T10:32:07.000Z</time>
      </trkpt>
      <trkpt lat="40.4566271044313907623291015625" lon="-1.255208440124988555908203125">
        <ele>1007</ele>
        <time>2021-09-25T10:32:08.000Z</time>
      </trkpt>
      <trkpt lat="40.4565748013556003570556640625" lon="-1.25510609708726406097412109375">
        <ele>1007</ele>
        <time>2021-09-25T10:32:10.000Z</time>
      </trkpt>
      <trkpt lat="40.4565243422985076904296875" lon="-1.25501004047691822052001953125">
        <ele>1007.20001220703125</ele>
        <time>2021-09-25T10:32:12.000Z</time>
      </trkpt>
      <trkpt lat="40.45648000203073024749755859375" lon="-1.25491909682750701904296875">
        <ele>1007.5999755859375</ele>
        <time>2021-09-25T10:32:14.000Z</time>
      </trkpt>
      <trkpt lat="40.45645519159734249114990234375" lon="-1.25487660057842731475830078125">
        <ele>1008</ele>
        <time>2021-09-25T10:32:15.000Z</time>
      </trkpt>
      <trkpt lat="40.45643054880201816558837890625" lon="-1.254830919206142425537109375">
        <ele>1008</ele>
        <time>2021-09-25T10:32:16.000Z</time>
      </trkpt>
      <trkpt lat="40.45638025738298892974853515625" lon="-1.25473377294838428497314453125">
        <ele>1008</ele>
        <time>2021-09-25T10:32:18.000Z</time>
      </trkpt>
      <trkpt lat="40.45632795430719852447509765625" lon="-1.25463721342384815216064453125">
        <ele>1007.5999755859375</ele>
        <time>2021-09-25T10:32:20.000Z</time>
      </trkpt>
      <trkpt lat="40.45627548359334468841552734375" lon="-1.25454149208962917327880859375">
        <ele>1006.4000244140625</ele>
        <time>2021-09-25T10:32:22.000Z</time>
      </trkpt>
      <trkpt lat="40.4562254436314105987548828125" lon="-1.25445029698312282562255859375">
        <ele>1005.79998779296875</ele>
        <time>2021-09-25T10:32:24.000Z</time>
      </trkpt>
      <trkpt lat="40.456176660954952239990234375" lon="-1.254359185695648193359375">
        <ele>1005.20001220703125</ele>
        <time>2021-09-25T10:32:26.000Z</time>
      </trkpt>
      <trkpt lat="40.45612695626914501190185546875" lon="-1.2542674876749515533447265625">
        <ele>1005.20001220703125</ele>
        <time>2021-09-25T10:32:28.000Z</time>
      </trkpt>
      <trkpt lat="40.45607666485011577606201171875" lon="-1.25417889095842838287353515625">
        <ele>1005</ele>
        <time>2021-09-25T10:32:30.000Z</time>
      </trkpt>
      <trkpt lat="40.45602343976497650146484375" lon="-1.25409163534641265869140625">
        <ele>1004.4000244140625</ele>
        <time>2021-09-25T10:32:32.000Z</time>
      </trkpt>
      <trkpt lat="40.45599334873259067535400390625" lon="-1.2540565989911556243896484375">
        <ele>1004.20001220703125</ele>
        <time>2021-09-25T10:32:33.000Z</time>
      </trkpt>
      <trkpt lat="40.45596149750053882598876953125" lon="-1.25402952544391155242919921875">
        <ele>1004</ele>
        <time>2021-09-25T10:32:34.000Z</time>
      </trkpt>
      <trkpt lat="40.45589578337967395782470703125" lon="-1.25399373471736907958984375">
        <ele>1003.5999755859375</ele>
        <time>2021-09-25T10:32:36.000Z</time>
      </trkpt>
      <trkpt lat="40.4558200947940349578857421875" lon="-1.25398644246160984039306640625">
        <ele>1003</ele>
        <time>2021-09-25T10:32:38.000Z</time>
      </trkpt>
      <trkpt lat="40.4557292349636554718017578125" lon="-1.25401326455175876617431640625">
        <ele>1003.4000244140625</ele>
        <time>2021-09-25T10:32:40.000Z</time>
      </trkpt>
      <trkpt lat="40.45564214698970317840576171875" lon="-1.254055760800838470458984375">
        <ele>1003.5999755859375</ele>
        <time>2021-09-25T10:32:42.000Z</time>
      </trkpt>
      <trkpt lat="40.45555128715932369232177734375" lon="-1.25407210551202297210693359375">
        <ele>1004</ele>
        <time>2021-09-25T10:32:44.000Z</time>
      </trkpt>
      <trkpt lat="40.455461852252483367919921875" lon="-1.254046373069286346435546875">
        <ele>1004</ele>
        <time>2021-09-25T10:32:46.000Z</time>
      </trkpt>
      <trkpt lat="40.45538641512393951416015625" lon="-1.2539784796535968780517578125">
        <ele>1004</ele>
        <time>2021-09-25T10:32:48.000Z</time>
      </trkpt>
      <trkpt lat="40.4553349502384662628173828125" lon="-1.2538802437484264373779296875">
        <ele>1004.5999755859375</ele>
        <time>2021-09-25T10:32:50.000Z</time>
      </trkpt>
      <trkpt lat="40.4553098045289516448974609375" lon="-1.2537639029324054718017578125">
        <ele>1004.5999755859375</ele>
        <time>2021-09-25T10:32:52.000Z</time>
      </trkpt>
      <trkpt lat="40.45529186725616455078125" lon="-1.25364144332706928253173828125">
        <ele>1004.79998779296875</ele>
        <time>2021-09-25T10:32:54.000Z</time>
      </trkpt>
      <trkpt lat="40.4552769474685192108154296875" lon="-1.253581345081329345703125">
        <ele>1005</ele>
        <time>2021-09-25T10:32:55.000Z</time>
      </trkpt>
      <trkpt lat="40.4552551545202732086181640625" lon="-1.253522001206874847412109375">
        <ele>1005</ele>
        <time>2021-09-25T10:32:56.000Z</time>
      </trkpt>
      <trkpt lat="40.45522590167820453643798828125" lon="-1.2534651719033718109130859375">
        <ele>1004.79998779296875</ele>
        <time>2021-09-25T10:32:57.000Z</time>
      </trkpt>
      <trkpt lat="40.45519061386585235595703125" lon="-1.2534148804843425750732421875">
        <ele>1004.79998779296875</ele>
        <time>2021-09-25T10:32:58.000Z</time>
      </trkpt>
      <trkpt lat="40.455150716006755828857421875" lon="-1.253369785845279693603515625">
        <ele>1004.79998779296875</ele>
        <time>2021-09-25T10:32:59.000Z</time>
      </trkpt>
      <trkpt lat="40.45510805211961269378662109375" lon="-1.2533305585384368896484375">
        <ele>1005.4000244140625</ele>
        <time>2021-09-25T10:33:00.000Z</time>
      </trkpt>
      <trkpt lat="40.45506094582378864288330078125" lon="-1.2533022277057170867919921875">
        <ele>1006</ele>
        <time>2021-09-25T10:33:01.000Z</time>
      </trkpt>
      <trkpt lat="40.455009900033473968505859375" lon="-1.25328487716615200042724609375">
        <ele>1006.5999755859375</ele>
        <time>2021-09-25T10:33:02.000Z</time>
      </trkpt>
      <trkpt lat="40.45490923337638378143310546875" lon="-1.2532616592943668365478515625">
        <ele>1006.79998779296875</ele>
        <time>2021-09-25T10:33:04.000Z</time>
      </trkpt>
      <trkpt lat="40.45481720007956027984619140625" lon="-1.2532418780028820037841796875">
        <ele>1006.4000244140625</ele>
        <time>2021-09-25T10:33:06.000Z</time>
      </trkpt>
      <trkpt lat="40.45473237521946430206298828125" lon="-1.2532254494726657867431640625">
        <ele>1006</ele>
        <time>2021-09-25T10:33:08.000Z</time>
      </trkpt>
      <trkpt lat="40.454654507339000701904296875" lon="-1.25321111641824245452880859375">
        <ele>1005.5999755859375</ele>
        <time>2021-09-25T10:33:10.000Z</time>
      </trkpt>
      <trkpt lat="40.45457479543983936309814453125" lon="-1.2531966157257556915283203125">
        <ele>1005</ele>
        <time>2021-09-25T10:33:12.000Z</time>
      </trkpt>
      <trkpt lat="40.45449432916939258575439453125" lon="-1.2531855516135692596435546875">
        <ele>1004.4000244140625</ele>
        <time>2021-09-25T10:33:14.000Z</time>
      </trkpt>
      <trkpt lat="40.4544126056134700775146484375" lon="-1.2531714700162410736083984375">
        <ele>1003.5999755859375</ele>
        <time>2021-09-25T10:33:16.000Z</time>
      </trkpt>
      <trkpt lat="40.454327277839183807373046875" lon="-1.25316300429403781890869140625">
        <ele>1003.20001220703125</ele>
        <time>2021-09-25T10:33:18.000Z</time>
      </trkpt>
      <trkpt lat="40.45424086041748523712158203125" lon="-1.25315546058118343353271484375">
        <ele>1003</ele>
        <time>2021-09-25T10:33:20.000Z</time>
      </trkpt>
      <trkpt lat="40.45415394008159637451171875" lon="-1.2531362660229206085205078125">
        <ele>1003.4000244140625</ele>
        <time>2021-09-25T10:33:22.000Z</time>
      </trkpt>
      <trkpt lat="40.45406408607959747314453125" lon="-1.25312578864395618438720703125">
        <ele>1004.20001220703125</ele>
        <time>2021-09-25T10:33:24.000Z</time>
      </trkpt>
      <trkpt lat="40.4539737291634082794189453125" lon="-1.25311137177050113677978515625">
        <ele>1004.5999755859375</ele>
        <time>2021-09-25T10:33:26.000Z</time>
      </trkpt>
      <trkpt lat="40.45388303697109222412109375" lon="-1.25309963710606098175048828125">
        <ele>1005</ele>
        <time>2021-09-25T10:33:28.000Z</time>
      </trkpt>
      <trkpt lat="40.453792512416839599609375" lon="-1.2530836276710033416748046875">
        <ele>1005.4000244140625</ele>
        <time>2021-09-25T10:33:30.000Z</time>
      </trkpt>
      <trkpt lat="40.4537011496722698211669921875" lon="-1.25306912697851657867431640625">
        <ele>1006</ele>
        <time>2021-09-25T10:33:32.000Z</time>
      </trkpt>
      <trkpt lat="40.45360802672803401947021484375" lon="-1.2530569732189178466796875">
        <ele>1006.5999755859375</ele>
        <time>2021-09-25T10:33:34.000Z</time>
      </trkpt>
      <trkpt lat="40.45351683162152767181396484375" lon="-1.25304331071674823760986328125">
        <ele>1007</ele>
        <time>2021-09-25T10:33:36.000Z</time>
      </trkpt>
      <trkpt lat="40.45347056351602077484130859375" lon="-1.25303425826132297515869140625">
        <ele>1006.79998779296875</ele>
        <time>2021-09-25T10:33:37.000Z</time>
      </trkpt>
      <trkpt lat="40.4534255526959896087646484375" lon="-1.25302554108202457427978515625">
        <ele>1006.5999755859375</ele>
        <time>2021-09-25T10:33:38.000Z</time>
      </trkpt>
      <trkpt lat="40.45333477668464183807373046875" lon="-1.25301313586533069610595703125">
        <ele>1006.20001220703125</ele>
        <time>2021-09-25T10:33:40.000Z</time>
      </trkpt>
      <trkpt lat="40.453248359262943267822265625" lon="-1.25299461185932159423828125">
        <ele>1005.79998779296875</ele>
        <time>2021-09-25T10:33:42.000Z</time>
      </trkpt>
      <trkpt lat="40.45316915027797222137451171875" lon="-1.25298061408102512359619140625">
        <ele>1005.4000244140625</ele>
        <time>2021-09-25T10:33:44.000Z</time>
      </trkpt>
      <trkpt lat="40.45313126407563686370849609375" lon="-1.252974830567836761474609375">
        <ele>1005.4000244140625</ele>
        <time>2021-09-25T10:33:45.000Z</time>
      </trkpt>
      <trkpt lat="40.45309538953006267547607421875" lon="-1.25297022052109241485595703125">
        <ele>1005.20001220703125</ele>
        <time>2021-09-25T10:33:46.000Z</time>
      </trkpt>
      <trkpt lat="40.4530272446572780609130859375" lon="-1.252959072589874267578125">
        <ele>1004.79998779296875</ele>
        <time>2021-09-25T10:33:48.000Z</time>
      </trkpt>
      <trkpt lat="40.4529437609016895294189453125" lon="-1.2529468350112438201904296875">
        <ele>1004.79998779296875</ele>
        <time>2021-09-25T10:33:50.000Z</time>
      </trkpt>
      <trkpt lat="40.45290009118616580963134765625" lon="-1.25293853692710399627685546875">
        <ele>1004.79998779296875</ele>
        <time>2021-09-25T10:33:51.000Z</time>
      </trkpt>
      <trkpt lat="40.45285801403224468231201171875" lon="-1.2529290653765201568603515625">
        <ele>1004.79998779296875</ele>
        <time>2021-09-25T10:33:52.000Z</time>
      </trkpt>
      <trkpt lat="40.45277285389602184295654296875" lon="-1.252910792827606201171875">
        <ele>1005</ele>
        <time>2021-09-25T10:33:54.000Z</time>
      </trkpt>
      <trkpt lat="40.452684424817562103271484375" lon="-1.25289964489638805389404296875">
        <ele>1005.5999755859375</ele>
        <time>2021-09-25T10:33:56.000Z</time>
      </trkpt>
      <trkpt lat="40.45259331353008747100830078125" lon="-1.25288330018520355224609375">
        <ele>1006.20001220703125</ele>
        <time>2021-09-25T10:33:58.000Z</time>
      </trkpt>
      <trkpt lat="40.4525011964142322540283203125" lon="-1.252870894968509674072265625">
        <ele>1007.20001220703125</ele>
        <time>2021-09-25T10:34:00.000Z</time>
      </trkpt>
      <trkpt lat="40.45240974985063076019287109375" lon="-1.252855472266674041748046875">
        <ele>1007.79998779296875</ele>
        <time>2021-09-25T10:34:02.000Z</time>
      </trkpt>
      <trkpt lat="40.4523188062012195587158203125" lon="-1.2528397142887115478515625">
        <ele>1008.20001220703125</ele>
        <time>2021-09-25T10:34:04.000Z</time>
      </trkpt>
      <trkpt lat="40.4522245936095714569091796875" lon="-1.25282454304397106170654296875">
        <ele>1008.5999755859375</ele>
        <time>2021-09-25T10:34:06.000Z</time>
      </trkpt>
      <trkpt lat="40.45213029719889163970947265625" lon="-1.2528033368289470672607421875">
        <ele>1008</ele>
        <time>2021-09-25T10:34:08.000Z</time>
      </trkpt>
      <trkpt lat="40.45208252035081386566162109375" lon="-1.252791099250316619873046875">
        <ele>1007.5999755859375</ele>
        <time>2021-09-25T10:34:09.000Z</time>
      </trkpt>
      <trkpt lat="40.45203474350273609161376953125" lon="-1.25278129242360591888427734375">
        <ele>1007.20001220703125</ele>
        <time>2021-09-25T10:34:10.000Z</time>
      </trkpt>
      <trkpt lat="40.45193902216851711273193359375" lon="-1.25276955775916576385498046875">
        <ele>1006</ele>
        <time>2021-09-25T10:34:12.000Z</time>
      </trkpt>
      <trkpt lat="40.4518447257578372955322265625" lon="-1.25276218168437480926513671875">
        <ele>1005.4000244140625</ele>
        <time>2021-09-25T10:34:14.000Z</time>
      </trkpt>
      <trkpt lat="40.4517575539648532867431640625" lon="-1.252749860286712646484375">
        <ele>1004.79998779296875</ele>
        <time>2021-09-25T10:34:16.000Z</time>
      </trkpt>
      <trkpt lat="40.451673902571201324462890625" lon="-1.2527386285364627838134765625">
        <ele>1004.20001220703125</ele>
        <time>2021-09-25T10:34:18.000Z</time>
      </trkpt>
      <trkpt lat="40.45159385539591312408447265625" lon="-1.25272613950073719024658203125">
        <ele>1004.20001220703125</ele>
        <time>2021-09-25T10:34:20.000Z</time>
      </trkpt>
      <trkpt lat="40.45151196420192718505859375" lon="-1.25271524302661418914794921875">
        <ele>1004.4000244140625</ele>
        <time>2021-09-25T10:34:22.000Z</time>
      </trkpt>
      <trkpt lat="40.451468043029308319091796875" lon="-1.25271205790340900421142578125">
        <ele>1004.5999755859375</ele>
        <time>2021-09-25T10:34:23.000Z</time>
      </trkpt>
      <trkpt lat="40.45142353512346744537353515625" lon="-1.25270535238087177276611328125">
        <ele>1004.79998779296875</ele>
        <time>2021-09-25T10:34:24.000Z</time>
      </trkpt>
      <trkpt lat="40.451333932578563690185546875" lon="-1.25269420444965362548828125">
        <ele>1005</ele>
        <time>2021-09-25T10:34:26.000Z</time>
      </trkpt>
      <trkpt lat="40.45124365948140621185302734375" lon="-1.25268054194748401641845703125">
        <ele>1005.4000244140625</ele>
        <time>2021-09-25T10:34:28.000Z</time>
      </trkpt>
      <trkpt lat="40.4512006603181362152099609375" lon="-1.2526665441691875457763671875">
        <ele>1005.4000244140625</ele>
        <time>2021-09-25T10:34:29.000Z</time>
      </trkpt>
      <trkpt lat="40.4511550627648830413818359375" lon="-1.25265137292444705963134765625">
        <ele>1005.5999755859375</ele>
        <time>2021-09-25T10:34:30.000Z</time>
      </trkpt>
      <trkpt lat="40.45110720209777355194091796875" lon="-1.25264952890574932098388671875">
        <ele>1006</ele>
        <time>2021-09-25T10:34:31.000Z</time>
      </trkpt>
      <trkpt lat="40.4510581679642200469970703125" lon="-1.2526504509150981903076171875">
        <ele>1006</ele>
        <time>2021-09-25T10:34:32.000Z</time>
      </trkpt>
      <trkpt lat="40.45096303336322307586669921875" lon="-1.252644248306751251220703125">
        <ele>1006</ele>
        <time>2021-09-25T10:34:34.000Z</time>
      </trkpt>
      <trkpt lat="40.45086697675287723541259765625" lon="-1.25263108871877193450927734375">
        <ele>1006.20001220703125</ele>
        <time>2021-09-25T10:34:36.000Z</time>
      </trkpt>
      <trkpt lat="40.45077309943735599517822265625" lon="-1.252608709037303924560546875">
        <ele>1006.4000244140625</ele>
        <time>2021-09-25T10:34:38.000Z</time>
      </trkpt>
      <trkpt lat="40.4507267475128173828125" lon="-1.25260166823863983154296875">
        <ele>1006.4000244140625</ele>
        <time>2021-09-25T10:34:39.000Z</time>
      </trkpt>
      <trkpt lat="40.45068006031215190887451171875" lon="-1.25259890221059322357177734375">
        <ele>1006.4000244140625</ele>
        <time>2021-09-25T10:34:40.000Z</time>
      </trkpt>
      <trkpt lat="40.45058953575789928436279296875" lon="-1.25258800573647022247314453125">
        <ele>1006.20001220703125</ele>
        <time>2021-09-25T10:34:42.000Z</time>
      </trkpt>
      <trkpt lat="40.4505026154220104217529296875" lon="-1.25257057137787342071533203125">
        <ele>1005.79998779296875</ele>
        <time>2021-09-25T10:34:44.000Z</time>
      </trkpt>
      <trkpt lat="40.450418293476104736328125" lon="-1.2525538913905620574951171875">
        <ele>1005.5999755859375</ele>
        <time>2021-09-25T10:34:46.000Z</time>
      </trkpt>
      <trkpt lat="40.4503755457699298858642578125" lon="-1.25254802405834197998046875">
        <ele>1005.4000244140625</ele>
        <time>2021-09-25T10:34:47.000Z</time>
      </trkpt>
      <trkpt lat="40.4503339715301990509033203125" lon="-1.2525419890880584716796875">
        <ele>1005.20001220703125</ele>
        <time>2021-09-25T10:34:48.000Z</time>
      </trkpt>
      <trkpt lat="40.4502494819462299346923828125" lon="-1.25253972597420215606689453125">
        <ele>1005</ele>
        <time>2021-09-25T10:34:50.000Z</time>
      </trkpt>
      <trkpt lat="40.4501646570861339569091796875" lon="-1.25253503210842609405517578125">
        <ele>1004.5999755859375</ele>
        <time>2021-09-25T10:34:52.000Z</time>
      </trkpt>
      <trkpt lat="40.45007589273154735565185546875" lon="-1.2525331042706966400146484375">
        <ele>1004.4000244140625</ele>
        <time>2021-09-25T10:34:54.000Z</time>
      </trkpt>
      <trkpt lat="40.4500318877398967742919921875" lon="-1.25253134407103061676025390625">
        <ele>1004.20001220703125</ele>
        <time>2021-09-25T10:34:55.000Z</time>
      </trkpt>
      <trkpt lat="40.4499877989292144775390625" lon="-1.252530254423618316650390625">
        <ele>1004</ele>
        <time>2021-09-25T10:34:56.000Z</time>
      </trkpt>
      <trkpt lat="40.44990255497395992279052734375" lon="-1.25252497382462024688720703125">
        <ele>1003.5999755859375</ele>
        <time>2021-09-25T10:34:58.000Z</time>
      </trkpt>
      <trkpt lat="40.44981739483773708343505859375" lon="-1.25252514146268367767333984375">
        <ele>1003.4000244140625</ele>
        <time>2021-09-25T10:35:00.000Z</time>
      </trkpt>
      <trkpt lat="40.44973491691052913665771484375" lon="-1.25252665020525455474853515625">
        <ele>1003</ele>
        <time>2021-09-25T10:35:02.000Z</time>
      </trkpt>
      <trkpt lat="40.44965260662138462066650390625" lon="-1.25252212397754192352294921875">
        <ele>1002.79998779296875</ele>
        <time>2021-09-25T10:35:04.000Z</time>
      </trkpt>
      <trkpt lat="40.449613295495510101318359375" lon="-1.25251340679824352264404296875">
        <ele>1002.5999755859375</ele>
        <time>2021-09-25T10:35:05.000Z</time>
      </trkpt>
      <trkpt lat="40.4495747387409210205078125" lon="-1.2525009177625179290771484375">
        <ele>1002.5999755859375</ele>
        <time>2021-09-25T10:35:06.000Z</time>
      </trkpt>
      <trkpt lat="40.44953676871955394744873046875" lon="-1.25248256139457225799560546875">
        <ele>1002.4000244140625</ele>
        <time>2021-09-25T10:35:07.000Z</time>
      </trkpt>
      <trkpt lat="40.4494987986981868743896484375" lon="-1.25245959497988224029541015625">
        <ele>1002.20001220703125</ele>
        <time>2021-09-25T10:35:08.000Z</time>
      </trkpt>
      <trkpt lat="40.44946250505745410919189453125" lon="-1.25243000686168670654296875">
        <ele>1002.20001220703125</ele>
        <time>2021-09-25T10:35:09.000Z</time>
      </trkpt>
      <trkpt lat="40.44943031854927539825439453125" lon="-1.25239153392612934112548828125">
        <ele>1001.79998779296875</ele>
        <time>2021-09-25T10:35:10.000Z</time>
      </trkpt>
      <trkpt lat="40.44940332882106304168701171875" lon="-1.25234543345868587493896484375">
        <ele>1001.5999755859375</ele>
        <time>2021-09-25T10:35:11.000Z</time>
      </trkpt>
      <trkpt lat="40.44938203878700733184814453125" lon="-1.25229430384933948516845703125">
        <ele>1001.5999755859375</ele>
        <time>2021-09-25T10:35:12.000Z</time>
      </trkpt>
      <trkpt lat="40.44936661608517169952392578125" lon="-1.25223864801228046417236328125">
        <ele>1001.4000244140625</ele>
        <time>2021-09-25T10:35:13.000Z</time>
      </trkpt>
      <trkpt lat="40.44935739599168300628662109375" lon="-1.25218165107071399688720703125">
        <ele>1001.20001220703125</ele>
        <time>2021-09-25T10:35:14.000Z</time>
      </trkpt>
      <trkpt lat="40.449354462325572967529296875" lon="-1.2520586885511875152587890625">
        <ele>1001.20001220703125</ele>
        <time>2021-09-25T10:35:16.000Z</time>
      </trkpt>
      <trkpt lat="40.44936695136129856109619140625" lon="-1.251940168440341949462890625">
        <ele>1001.20001220703125</ele>
        <time>2021-09-25T10:35:18.000Z</time>
      </trkpt>
      <trkpt lat="40.44937558472156524658203125" lon="-1.25188359059393405914306640625">
        <ele>1001.20001220703125</ele>
        <time>2021-09-25T10:35:19.000Z</time>
      </trkpt>
      <trkpt lat="40.44938622973859310150146484375" lon="-1.2518290244042873382568359375">
        <ele>1001.4000244140625</ele>
        <time>2021-09-25T10:35:20.000Z</time>
      </trkpt>
      <trkpt lat="40.4493998922407627105712890625" lon="-1.25177512876689434051513671875">
        <ele>1001.4000244140625</ele>
        <time>2021-09-25T10:35:21.000Z</time>
      </trkpt>
      <trkpt lat="40.44941606931388378143310546875" lon="-1.25172131694853305816650390625">
        <ele>1001.5999755859375</ele>
        <time>2021-09-25T10:35:22.000Z</time>
      </trkpt>
      <trkpt lat="40.44944473542273044586181640625" lon="-1.25160732306540012359619140625">
        <ele>1002</ele>
        <time>2021-09-25T10:35:24.000Z</time>
      </trkpt>
      <trkpt lat="40.44945630244910717010498046875" lon="-1.25154756009578704833984375">
        <ele>1002.20001220703125</ele>
        <time>2021-09-25T10:35:25.000Z</time>
      </trkpt>
      <trkpt lat="40.44946636073291301727294921875" lon="-1.2514877133071422576904296875">
        <ele>1002.4000244140625</ele>
        <time>2021-09-25T10:35:26.000Z</time>
      </trkpt>
      <trkpt lat="40.44948413036763668060302734375" lon="-1.25136374495923519134521484375">
        <ele>1002.79998779296875</ele>
        <time>2021-09-25T10:35:28.000Z</time>
      </trkpt>
      <trkpt lat="40.4495051689445972442626953125" lon="-1.251243464648723602294921875">
        <ele>1003.20001220703125</ele>
        <time>2021-09-25T10:35:30.000Z</time>
      </trkpt>
      <trkpt lat="40.449524112045764923095703125" lon="-1.25112938694655895233154296875">
        <ele>1003.5999755859375</ele>
        <time>2021-09-25T10:35:32.000Z</time>
      </trkpt>
      <trkpt lat="40.44954682700335979461669921875" lon="-1.2510210089385509490966796875">
        <ele>1004.20001220703125</ele>
        <time>2021-09-25T10:35:34.000Z</time>
      </trkpt>
      <trkpt lat="40.449563674628734588623046875" lon="-1.2509247846901416778564453125">
        <ele>1004.79998779296875</ele>
        <time>2021-09-25T10:35:36.000Z</time>
      </trkpt>
      <trkpt lat="40.44958001933991909027099609375" lon="-1.25083006918430328369140625">
        <ele>1005.4000244140625</ele>
        <time>2021-09-25T10:35:38.000Z</time>
      </trkpt>
      <trkpt lat="40.44959275983273983001708984375" lon="-1.25073476694524288177490234375">
        <ele>1005.5999755859375</ele>
        <time>2021-09-25T10:35:40.000Z</time>
      </trkpt>
      <trkpt lat="40.44960625469684600830078125" lon="-1.25064340420067310333251953125">
        <ele>1005.5999755859375</ele>
        <time>2021-09-25T10:35:42.000Z</time>
      </trkpt>
      <trkpt lat="40.44961656443774700164794921875" lon="-1.2505556456744670867919921875">
        <ele>1005.79998779296875</ele>
        <time>2021-09-25T10:35:44.000Z</time>
      </trkpt>
      <trkpt lat="40.44962679035961627960205078125" lon="-1.25047241337597370147705078125">
        <ele>1006</ele>
        <time>2021-09-25T10:35:46.000Z</time>
      </trkpt>
      <trkpt lat="40.4496372677385807037353515625" lon="-1.25037887133657932281494140625">
        <ele>1005.5999755859375</ele>
        <time>2021-09-25T10:35:48.000Z</time>
      </trkpt>
      <trkpt lat="40.44964372180402278900146484375" lon="-1.2503273226320743560791015625">
        <ele>1005.4000244140625</ele>
        <time>2021-09-25T10:35:49.000Z</time>
      </trkpt>
      <trkpt lat="40.44965344481170177459716796875" lon="-1.2502760253846645355224609375">
        <ele>1005.20001220703125</ele>
        <time>2021-09-25T10:35:50.000Z</time>
      </trkpt>
      <trkpt lat="40.44967465102672576904296875" lon="-1.250171922147274017333984375">
        <ele>1004.79998779296875</ele>
        <time>2021-09-25T10:35:52.000Z</time>
      </trkpt>
      <trkpt lat="40.44968546368181705474853515625" lon="-1.25006102956831455230712890625">
        <ele>1004.4000244140625</ele>
        <time>2021-09-25T10:35:54.000Z</time>
      </trkpt>
      <trkpt lat="40.44969535432755947113037109375" lon="-1.249942593276500701904296875">
        <ele>1004</ele>
        <time>2021-09-25T10:35:56.000Z</time>
      </trkpt>
      <trkpt lat="40.44970826245844364166259765625" lon="-1.249817200005054473876953125">
        <ele>1003.5999755859375</ele>
        <time>2021-09-25T10:35:58.000Z</time>
      </trkpt>
      <trkpt lat="40.449719913303852081298828125" lon="-1.249691806733608245849609375">
        <ele>1003.20001220703125</ele>
        <time>2021-09-25T10:36:00.000Z</time>
      </trkpt>
      <trkpt lat="40.44973139651119709014892578125" lon="-1.24956532381474971771240234375">
        <ele>1003</ele>
        <time>2021-09-25T10:36:02.000Z</time>
      </trkpt>
      <trkpt lat="40.44974430464208126068115234375" lon="-1.2494395114481449127197265625">
        <ele>1003.20001220703125</ele>
        <time>2021-09-25T10:36:04.000Z</time>
      </trkpt>
      <trkpt lat="40.44976073317229747772216796875" lon="-1.24931151978671550750732421875">
        <ele>1003.20001220703125</ele>
        <time>2021-09-25T10:36:06.000Z</time>
      </trkpt>
      <trkpt lat="40.44977816753089427947998046875" lon="-1.24918394722044467926025390625">
        <ele>1003.5999755859375</ele>
        <time>2021-09-25T10:36:08.000Z</time>
      </trkpt>
      <trkpt lat="40.4497911594808101654052734375" lon="-1.24905520118772983551025390625">
        <ele>1004.20001220703125</ele>
        <time>2021-09-25T10:36:10.000Z</time>
      </trkpt>
      <trkpt lat="40.449798367917537689208984375" lon="-1.24899183399975299835205078125">
        <ele>1004.4000244140625</ele>
        <time>2021-09-25T10:36:11.000Z</time>
      </trkpt>
      <trkpt lat="40.44980448670685291290283203125" lon="-1.24892980791628360748291015625">
        <ele>1004.5999755859375</ele>
        <time>2021-09-25T10:36:12.000Z</time>
      </trkpt>
      <trkpt lat="40.44982158578932285308837890625" lon="-1.248807013034820556640625">
        <ele>1005</ele>
        <time>2021-09-25T10:36:14.000Z</time>
      </trkpt>
      <trkpt lat="40.44984119944274425506591796875" lon="-1.24868564307689666748046875">
        <ele>1005.4000244140625</ele>
        <time>2021-09-25T10:36:16.000Z</time>
      </trkpt>
      <trkpt lat="40.44986081309616565704345703125" lon="-1.24856494367122650146484375">
        <ele>1006.20001220703125</ele>
        <time>2021-09-25T10:36:18.000Z</time>
      </trkpt>
      <trkpt lat="40.44987254776060581207275390625" lon="-1.24850727617740631103515625">
        <ele>1006.5999755859375</ele>
        <time>2021-09-25T10:36:19.000Z</time>
      </trkpt>
      <trkpt lat="40.44988428242504596710205078125" lon="-1.248445920646190643310546875">
        <ele>1006.79998779296875</ele>
        <time>2021-09-25T10:36:20.000Z</time>
      </trkpt>
      <trkpt lat="40.4499073326587677001953125" lon="-1.24832362867891788482666015625">
        <ele>1007</ele>
        <time>2021-09-25T10:36:22.000Z</time>
      </trkpt>
      <trkpt lat="40.449932478368282318115234375" lon="-1.2482048571109771728515625">
        <ele>1007</ele>
        <time>2021-09-25T10:36:24.000Z</time>
      </trkpt>
      <trkpt lat="40.4499551095068454742431640625" lon="-1.248087845742702484130859375">
        <ele>1007</ele>
        <time>2021-09-25T10:36:26.000Z</time>
      </trkpt>
      <trkpt lat="40.449965000152587890625" lon="-1.248029172420501708984375">
        <ele>1007</ele>
        <time>2021-09-25T10:36:27.000Z</time>
      </trkpt>
      <trkpt lat="40.4499735496938228607177734375" lon="-1.24796957708895206451416015625">
        <ele>1007</ele>
        <time>2021-09-25T10:36:28.000Z</time>
      </trkpt>
      <trkpt lat="40.44998788274824619293212890625" lon="-1.2478516437113285064697265625">
        <ele>1007</ele>
        <time>2021-09-25T10:36:30.000Z</time>
      </trkpt>
      <trkpt lat="40.4500007070600986480712890625" lon="-1.2477342970669269561767578125">
        <ele>1007.20001220703125</ele>
        <time>2021-09-25T10:36:32.000Z</time>
      </trkpt>
      <trkpt lat="40.45001068152487277984619140625" lon="-1.247613094747066497802734375">
        <ele>1007.20001220703125</ele>
        <time>2021-09-25T10:36:34.000Z</time>
      </trkpt>
      <trkpt lat="40.45002157799899578094482421875" lon="-1.24749097041785717010498046875">
        <ele>1007.4000244140625</ele>
        <time>2021-09-25T10:36:36.000Z</time>
      </trkpt>
      <trkpt lat="40.45003146864473819732666015625" lon="-1.24737278558313846588134765625">
        <ele>1007.4000244140625</ele>
        <time>2021-09-25T10:36:38.000Z</time>
      </trkpt>
      <trkpt lat="40.45004186220467090606689453125" lon="-1.2472545169293880462646484375">
        <ele>1007.5999755859375</ele>
        <time>2021-09-25T10:36:40.000Z</time>
      </trkpt>
      <trkpt lat="40.45005124993622303009033203125" lon="-1.247135661542415618896484375">
        <ele>1007.79998779296875</ele>
        <time>2021-09-25T10:36:42.000Z</time>
      </trkpt>
      <trkpt lat="40.4500563628971576690673828125" lon="-1.24707489274442195892333984375">
        <ele>1008</ele>
        <time>2021-09-25T10:36:43.000Z</time>
      </trkpt>
      <trkpt lat="40.4500629007816314697265625" lon="-1.24701462686061859130859375">
        <ele>1008.5999755859375</ele>
        <time>2021-09-25T10:36:44.000Z</time>
      </trkpt>
      <trkpt lat="40.45007773675024509429931640625" lon="-1.24689518474042415618896484375">
        <ele>1009.5999755859375</ele>
        <time>2021-09-25T10:36:46.000Z</time>
      </trkpt>
      <trkpt lat="40.4500905610620975494384765625" lon="-1.2467740662395954132080078125">
        <ele>1010.20001220703125</ele>
        <time>2021-09-25T10:36:48.000Z</time>
      </trkpt>
      <trkpt lat="40.4501039721071720123291015625" lon="-1.2466533668339252471923828125">
        <ele>1010.20001220703125</ele>
        <time>2021-09-25T10:36:50.000Z</time>
      </trkpt>
      <trkpt lat="40.4501167125999927520751953125" lon="-1.2465333379805088043212890625">
        <ele>1010.79998779296875</ele>
        <time>2021-09-25T10:36:52.000Z</time>
      </trkpt>
      <trkpt lat="40.4501207359135150909423828125" lon="-1.24647307209670543670654296875">
        <ele>1011.4000244140625</ele>
        <time>2021-09-25T10:36:53.000Z</time>
      </trkpt>
      <trkpt lat="40.45012668706476688385009765625" lon="-1.24641247093677520751953125">
        <ele>1011.5999755859375</ele>
        <time>2021-09-25T10:36:54.000Z</time>
      </trkpt>
      <trkpt lat="40.4501368291676044464111328125" lon="-1.246283389627933502197265625">
        <ele>1011.79998779296875</ele>
        <time>2021-09-25T10:36:56.000Z</time>
      </trkpt>
      <trkpt lat="40.450142361223697662353515625" lon="-1.24615288339555263519287109375">
        <ele>1012.4000244140625</ele>
        <time>2021-09-25T10:36:58.000Z</time>
      </trkpt>
      <trkpt lat="40.450143031775951385498046875" lon="-1.24609152786433696746826171875">
        <ele>1012.5999755859375</ele>
        <time>2021-09-25T10:36:59.000Z</time>
      </trkpt>
      <trkpt lat="40.45014328323304653167724609375" lon="-1.24603218398988246917724609375">
        <ele>1012.79998779296875</ele>
        <time>2021-09-25T10:37:00.000Z</time>
      </trkpt>
      <trkpt lat="40.4501381702721118927001953125" lon="-1.2459194473922252655029296875">
        <ele>1012.79998779296875</ele>
        <time>2021-09-25T10:37:02.000Z</time>
      </trkpt>
      <trkpt lat="40.4501230828464031219482421875" lon="-1.24580620788037776947021484375">
        <ele>1013.20001220703125</ele>
        <time>2021-09-25T10:37:04.000Z</time>
      </trkpt>
      <trkpt lat="40.45010087080299854278564453125" lon="-1.24569389037787914276123046875">
        <ele>1013.4000244140625</ele>
        <time>2021-09-25T10:37:06.000Z</time>
      </trkpt>
      <trkpt lat="40.4500694386661052703857421875" lon="-1.2455897033214569091796875">
        <ele>1013.5999755859375</ele>
        <time>2021-09-25T10:37:08.000Z</time>
      </trkpt>
      <trkpt lat="40.45001529157161712646484375" lon="-1.245502531528472900390625">
        <ele>1013.20001220703125</ele>
        <time>2021-09-25T10:37:10.000Z</time>
      </trkpt>
      <trkpt lat="40.44998318888247013092041015625" lon="-1.2454638071358203887939453125">
        <ele>1013</ele>
        <time>2021-09-25T10:37:11.000Z</time>
      </trkpt>
      <trkpt lat="40.44995016418397426605224609375" lon="-1.24542550183832645416259765625">
        <ele>1013</ele>
        <time>2021-09-25T10:37:12.000Z</time>
      </trkpt>
      <trkpt lat="40.44988947920501232147216796875" lon="-1.24535392038524150848388671875">
        <ele>1012.79998779296875</ele>
        <time>2021-09-25T10:37:14.000Z</time>
      </trkpt>
      <trkpt lat="40.44983801431953907012939453125" lon="-1.24529063701629638671875">
        <ele>1012.5999755859375</ele>
        <time>2021-09-25T10:37:16.000Z</time>
      </trkpt>
      <trkpt lat="40.44981052167713642120361328125" lon="-1.2452626414597034454345703125">
        <ele>1012.5999755859375</ele>
        <time>2021-09-25T10:37:17.000Z</time>
      </trkpt>
      <trkpt lat="40.4497854597866535186767578125" lon="-1.24523540027439594268798828125">
        <ele>1012.4000244140625</ele>
        <time>2021-09-25T10:37:18.000Z</time>
      </trkpt>
      <trkpt lat="40.449738688766956329345703125" lon="-1.245185695588588714599609375">
        <ele>1012.20001220703125</ele>
        <time>2021-09-25T10:37:20.000Z</time>
      </trkpt>
      <trkpt lat="40.449694432318210601806640625" lon="-1.24513532035052776336669921875">
        <ele>1012.5999755859375</ele>
        <time>2021-09-25T10:37:22.000Z</time>
      </trkpt>
      <trkpt lat="40.44966794550418853759765625" lon="-1.24510380439460277557373046875">
        <ele>1012.79998779296875</ele>
        <time>2021-09-25T10:37:23.000Z</time>
      </trkpt>
      <trkpt lat="40.44964087195694446563720703125" lon="-1.2450722046196460723876953125">
        <ele>1013</ele>
        <time>2021-09-25T10:37:24.000Z</time>
      </trkpt>
      <trkpt lat="40.4495869763195514678955078125" lon="-1.245016045868396759033203125">
        <ele>1013.20001220703125</ele>
        <time>2021-09-25T10:37:26.000Z</time>
      </trkpt>
      <trkpt lat="40.44953911565244197845458984375" lon="-1.244964413344860076904296875">
        <ele>1013.20001220703125</ele>
        <time>2021-09-25T10:37:28.000Z</time>
      </trkpt>
      <trkpt lat="40.4494907520711421966552734375" lon="-1.24491437338292598724365234375">
        <ele>1013.20001220703125</ele>
        <time>2021-09-25T10:37:30.000Z</time>
      </trkpt>
      <trkpt lat="40.44944691471755504608154296875" lon="-1.24486458487808704376220703125">
        <ele>1013</ele>
        <time>2021-09-25T10:37:32.000Z</time>
      </trkpt>
      <trkpt lat="40.449408106505870819091796875" lon="-1.2448197416961193084716796875">
        <ele>1012.79998779296875</ele>
        <time>2021-09-25T10:37:34.000Z</time>
      </trkpt>
      <trkpt lat="40.44936980120837688446044921875" lon="-1.2447689473628997802734375">
        <ele>1012.5999755859375</ele>
        <time>2021-09-25T10:37:36.000Z</time>
      </trkpt>
      <trkpt lat="40.4493306577205657958984375" lon="-1.24471823684871196746826171875">
        <ele>1012.20001220703125</ele>
        <time>2021-09-25T10:37:38.000Z</time>
      </trkpt>
      <trkpt lat="40.4493056796491146087646484375" lon="-1.244682781398296356201171875">
        <ele>1012.20001220703125</ele>
        <time>2021-09-25T10:37:40.000Z</time>
      </trkpt>
      <trkpt lat="40.4493056796491146087646484375" lon="-1.244682781398296356201171875">
        <ele>1012.20001220703125</ele>
        <time>2021-09-25T10:37:42.000Z</time>
      </trkpt>
      <trkpt lat="40.44929503463208675384521484375" lon="-1.24467096291482448577880859375">
        <ele>1012</ele>
        <time>2021-09-25T10:37:45.000Z</time>
      </trkpt>
      <trkpt lat="40.449284724891185760498046875" lon="-1.24465956352651119232177734375">
        <ele>1012</ele>
        <time>2021-09-25T10:37:46.000Z</time>
      </trkpt>
      <trkpt lat="40.44926234520971775054931640625" lon="-1.2446339987218379974365234375">
        <ele>1011.79998779296875</ele>
        <time>2021-09-25T10:37:48.000Z</time>
      </trkpt>
      <trkpt lat="40.44923434965312480926513671875" lon="-1.24460072256624698638916015625">
        <ele>1011.4000244140625</ele>
        <time>2021-09-25T10:37:50.000Z</time>
      </trkpt>
      <trkpt lat="40.44922127388417720794677734375" lon="-1.2445833720266819000244140625">
        <ele>1011.20001220703125</ele>
        <time>2021-09-25T10:37:51.000Z</time>
      </trkpt>
      <trkpt lat="40.44920853339135646820068359375" lon="-1.24456711113452911376953125">
        <ele>1011</ele>
        <time>2021-09-25T10:37:52.000Z</time>
      </trkpt>
      <trkpt lat="40.449177436530590057373046875" lon="-1.24452981166541576385498046875">
        <ele>1010.79998779296875</ele>
        <time>2021-09-25T10:37:54.000Z</time>
      </trkpt>
      <trkpt lat="40.449132509529590606689453125" lon="-1.244481615722179412841796875">
        <ele>1010.20001220703125</ele>
        <time>2021-09-25T10:37:56.000Z</time>
      </trkpt>
      <trkpt lat="40.44908314011991024017333984375" lon="-1.24442269094288349151611328125">
        <ele>1009.5999755859375</ele>
        <time>2021-09-25T10:37:58.000Z</time>
      </trkpt>
      <trkpt lat="40.449061095714569091796875" lon="-1.24439436011016368865966796875">
        <ele>1009.4000244140625</ele>
        <time>2021-09-25T10:37:59.000Z</time>
      </trkpt>
      <trkpt lat="40.449041314423084259033203125" lon="-1.2443674542009830474853515625">
        <ele>1009.20001220703125</ele>
        <time>2021-09-25T10:38:00.000Z</time>
      </trkpt>
      <trkpt lat="40.44900367967784404754638671875" lon="-1.244324035942554473876953125">
        <ele>1008.79998779296875</ele>
        <time>2021-09-25T10:38:02.000Z</time>
      </trkpt>
      <trkpt lat="40.44896612875163555145263671875" lon="-1.244284808635711669921875">
        <ele>1008.4000244140625</ele>
        <time>2021-09-25T10:38:04.000Z</time>
      </trkpt>
      <trkpt lat="40.4489160887897014617919921875" lon="-1.24423661269247531890869140625">
        <ele>1008.20001220703125</ele>
        <time>2021-09-25T10:38:06.000Z</time>
      </trkpt>
      <trkpt lat="40.4488671384751796722412109375" lon="-1.24418481253087520599365234375">
        <ele>1008</ele>
        <time>2021-09-25T10:38:08.000Z</time>
      </trkpt>
      <trkpt lat="40.44881424866616725921630859375" lon="-1.24412630684673786163330078125">
        <ele>1008.20001220703125</ele>
        <time>2021-09-25T10:38:10.000Z</time>
      </trkpt>
      <trkpt lat="40.44875741936266422271728515625" lon="-1.24406377784907817840576171875">
        <ele>1008.5999755859375</ele>
        <time>2021-09-25T10:38:12.000Z</time>
      </trkpt>
      <trkpt lat="40.4486944712698459625244140625" lon="-1.24399714171886444091796875">
        <ele>1009</ele>
        <time>2021-09-25T10:38:14.000Z</time>
      </trkpt>
      <trkpt lat="40.44863621704280376434326171875" lon="-1.2439309246838092803955078125">
        <ele>1009</ele>
        <time>2021-09-25T10:38:16.000Z</time>
      </trkpt>
      <trkpt lat="40.44858106411993503570556640625" lon="-1.24386864714324474334716796875">
        <ele>1009</ele>
        <time>2021-09-25T10:38:18.000Z</time>
      </trkpt>
      <trkpt lat="40.44852054677903652191162109375" lon="-1.24379756860435009002685546875">
        <ele>1009</ele>
        <time>2021-09-25T10:38:20.000Z</time>
      </trkpt>
      <trkpt lat="40.448488779366016387939453125" lon="-1.243759095668792724609375">
        <ele>1009.20001220703125</ele>
        <time>2021-09-25T10:38:21.000Z</time>
      </trkpt>
      <trkpt lat="40.44845583848655223846435546875" lon="-1.24371978454291820526123046875">
        <ele>1009.4000244140625</ele>
        <time>2021-09-25T10:38:22.000Z</time>
      </trkpt>
      <trkpt lat="40.44838744215667247772216796875" lon="-1.2436405755579471588134765625">
        <ele>1009.20001220703125</ele>
        <time>2021-09-25T10:38:24.000Z</time>
      </trkpt>
      <trkpt lat="40.44831812381744384765625" lon="-1.24355792999267578125">
        <ele>1009</ele>
        <time>2021-09-25T10:38:26.000Z</time>
      </trkpt>
      <trkpt lat="40.44824964366853237152099609375" lon="-1.24347268603742122650146484375">
        <ele>1009.20001220703125</ele>
        <time>2021-09-25T10:38:28.000Z</time>
      </trkpt>
      <trkpt lat="40.448214523494243621826171875" lon="-1.24342851340770721435546875">
        <ele>1009.4000244140625</ele>
        <time>2021-09-25T10:38:29.000Z</time>
      </trkpt>
      <trkpt lat="40.448180325329303741455078125" lon="-1.2433864362537860870361328125">
        <ele>1009.5999755859375</ele>
        <time>2021-09-25T10:38:30.000Z</time>
      </trkpt>
      <trkpt lat="40.448113940656185150146484375" lon="-1.2433009408414363861083984375">
        <ele>1009.20001220703125</ele>
        <time>2021-09-25T10:38:32.000Z</time>
      </trkpt>
      <trkpt lat="40.448044203221797943115234375" lon="-1.2432117573916912078857421875">
        <ele>1009.20001220703125</ele>
        <time>2021-09-25T10:38:34.000Z</time>
      </trkpt>
      <trkpt lat="40.44797421433031558990478515625" lon="-1.24312140047550201416015625">
        <ele>1009.5999755859375</ele>
        <time>2021-09-25T10:38:36.000Z</time>
      </trkpt>
      <trkpt lat="40.44790212996304035186767578125" lon="-1.2430362403392791748046875">
        <ele>1009.4000244140625</ele>
        <time>2021-09-25T10:38:38.000Z</time>
      </trkpt>
      <trkpt lat="40.447827614843845367431640625" lon="-1.24295175075531005859375">
        <ele>1009.20001220703125</ele>
        <time>2021-09-25T10:38:40.000Z</time>
      </trkpt>
      <trkpt lat="40.4477513395249843597412109375" lon="-1.242863573133945465087890625">
        <ele>1009.4000244140625</ele>
        <time>2021-09-25T10:38:42.000Z</time>
      </trkpt>
      <trkpt lat="40.44767598621547222137451171875" lon="-1.24277598224580287933349609375">
        <ele>1009.79998779296875</ele>
        <time>2021-09-25T10:38:44.000Z</time>
      </trkpt>
      <trkpt lat="40.4476370103657245635986328125" lon="-1.24273172579705715179443359375">
        <ele>1010</ele>
        <time>2021-09-25T10:38:45.000Z</time>
      </trkpt>
      <trkpt lat="40.44759937562048435211181640625" lon="-1.24268646351993083953857421875">
        <ele>1010</ele>
        <time>2021-09-25T10:38:46.000Z</time>
      </trkpt>
      <trkpt lat="40.44752108864486217498779296875" lon="-1.242597363889217376708984375">
        <ele>1010</ele>
        <time>2021-09-25T10:38:48.000Z</time>
      </trkpt>
      <trkpt lat="40.44744397513568401336669921875" lon="-1.2425060011446475982666015625">
        <ele>1010</ele>
        <time>2021-09-25T10:38:50.000Z</time>
      </trkpt>
      <trkpt lat="40.447368957102298736572265625" lon="-1.2424178235232830047607421875">
        <ele>1010</ele>
        <time>2021-09-25T10:38:52.000Z</time>
      </trkpt>
      <trkpt lat="40.447290502488613128662109375" lon="-1.24233291484415531158447265625">
        <ele>1010</ele>
        <time>2021-09-25T10:38:54.000Z</time>
      </trkpt>
      <trkpt lat="40.4472155682742595672607421875" lon="-1.24224163591861724853515625">
        <ele>1010</ele>
        <time>2021-09-25T10:38:56.000Z</time>
      </trkpt>
      <trkpt lat="40.44714038260281085968017578125" lon="-1.24214868061244487762451171875">
        <ele>1010</ele>
        <time>2021-09-25T10:38:58.000Z</time>
      </trkpt>
      <trkpt lat="40.44706343673169612884521484375" lon="-1.24205932952463626861572265625">
        <ele>1009.4000244140625</ele>
        <time>2021-09-25T10:39:00.000Z</time>
      </trkpt>
      <trkpt lat="40.44698297046124935150146484375" lon="-1.24196595512330532073974609375">
        <ele>1009.5999755859375</ele>
        <time>2021-09-25T10:39:02.000Z</time>
      </trkpt>
      <trkpt lat="40.44690099544823169708251953125" lon="-1.2418719939887523651123046875">
        <ele>1010.20001220703125</ele>
        <time>2021-09-25T10:39:04.000Z</time>
      </trkpt>
      <trkpt lat="40.4468229599297046661376953125" lon="-1.2417740933597087860107421875">
        <ele>1010.79998779296875</ele>
        <time>2021-09-25T10:39:06.000Z</time>
      </trkpt>
      <trkpt lat="40.44674442149698734283447265625" lon="-1.24168801121413707733154296875">
        <ele>1011.4000244140625</ele>
        <time>2021-09-25T10:39:08.000Z</time>
      </trkpt>
      <trkpt lat="40.44667284004390239715576171875" lon="-1.24161005951464176177978515625">
        <ele>1011.79998779296875</ele>
        <time>2021-09-25T10:39:10.000Z</time>
      </trkpt>
      <trkpt lat="40.44660863466560840606689453125" lon="-1.24153445474803447723388671875">
        <ele>1011.5999755859375</ele>
        <time>2021-09-25T10:39:12.000Z</time>
      </trkpt>
      <trkpt lat="40.446548201143741607666015625" lon="-1.24145516194403171539306640625">
        <ele>1011.20001220703125</ele>
        <time>2021-09-25T10:39:14.000Z</time>
      </trkpt>
      <trkpt lat="40.44647938571870326995849609375" lon="-1.241378299891948699951171875">
        <ele>1010.5999755859375</ele>
        <time>2021-09-25T10:39:16.000Z</time>
      </trkpt>
      <trkpt lat="40.44644384644925594329833984375" lon="-1.24133907258510589599609375">
        <ele>1010.4000244140625</ele>
        <time>2021-09-25T10:39:17.000Z</time>
      </trkpt>
      <trkpt lat="40.4464085586369037628173828125" lon="-1.24130160547792911529541015625">
        <ele>1010</ele>
        <time>2021-09-25T10:39:18.000Z</time>
      </trkpt>
      <trkpt lat="40.44633722864091396331787109375" lon="-1.24122239649295806884765625">
        <ele>1009</ele>
        <time>2021-09-25T10:39:20.000Z</time>
      </trkpt>
      <trkpt lat="40.44626581482589244842529296875" lon="-1.24113522469997406005859375">
        <ele>1008</ele>
        <time>2021-09-25T10:39:22.000Z</time>
      </trkpt>
      <trkpt lat="40.4461936466395854949951171875" lon="-1.241050064563751220703125">
        <ele>1008</ele>
        <time>2021-09-25T10:39:24.000Z</time>
      </trkpt>
      <trkpt lat="40.4461576044559478759765625" lon="-1.24100857414305210113525390625">
        <ele>1008</ele>
        <time>2021-09-25T10:39:25.000Z</time>
      </trkpt>
      <trkpt lat="40.4461249150335788726806640625" lon="-1.24096834100782871246337890625">
        <ele>1008.4000244140625</ele>
        <time>2021-09-25T10:39:26.000Z</time>
      </trkpt>
      <trkpt lat="40.44605710543692111968994140625" lon="-1.24088804237544536590576171875">
        <ele>1009.5999755859375</ele>
        <time>2021-09-25T10:39:28.000Z</time>
      </trkpt>
      <trkpt lat="40.4459867812693119049072265625" lon="-1.2408064864575862884521484375">
        <ele>1011</ele>
        <time>2021-09-25T10:39:30.000Z</time>
      </trkpt>
      <trkpt lat="40.445912182331085205078125" lon="-1.24072560109198093414306640625">
        <ele>1012.20001220703125</ele>
        <time>2021-09-25T10:39:32.000Z</time>
      </trkpt>
      <trkpt lat="40.44583884067833423614501953125" lon="-1.240642033517360687255859375">
        <ele>1012.79998779296875</ele>
        <time>2021-09-25T10:39:34.000Z</time>
      </trkpt>
      <trkpt lat="40.445766337215900421142578125" lon="-1.2405583821237087249755859375">
        <ele>1013.20001220703125</ele>
        <time>2021-09-25T10:39:36.000Z</time>
      </trkpt>
      <trkpt lat="40.44569551013410091400146484375" lon="-1.24047615565359592437744140625">
        <ele>1012</ele>
        <time>2021-09-25T10:39:38.000Z</time>
      </trkpt>
      <trkpt lat="40.4456233419477939605712890625" lon="-1.24038931913673877716064453125">
        <ele>1011.20001220703125</ele>
        <time>2021-09-25T10:39:40.000Z</time>
      </trkpt>
      <trkpt lat="40.44558696448802947998046875" lon="-1.240344978868961334228515625">
        <ele>1010.20001220703125</ele>
        <time>2021-09-25T10:39:41.000Z</time>
      </trkpt>
      <trkpt lat="40.4455482400953769683837890625" lon="-1.24030281789600849151611328125">
        <ele>1009.20001220703125</ele>
        <time>2021-09-25T10:39:42.000Z</time>
      </trkpt>
      <trkpt lat="40.445472635328769683837890625" lon="-1.24021698720753192901611328125">
        <ele>1007.79998779296875</ele>
        <time>2021-09-25T10:39:44.000Z</time>
      </trkpt>
      <trkpt lat="40.445397533476352691650390625" lon="-1.24013015069067478179931640625">
        <ele>1007.20001220703125</ele>
        <time>2021-09-25T10:39:46.000Z</time>
      </trkpt>
      <trkpt lat="40.445325784385204315185546875" lon="-1.24004532583057880401611328125">
        <ele>1006.5999755859375</ele>
        <time>2021-09-25T10:39:48.000Z</time>
      </trkpt>
      <trkpt lat="40.44525571167469024658203125" lon="-1.239960081875324249267578125">
        <ele>1006.20001220703125</ele>
        <time>2021-09-25T10:39:50.000Z</time>
      </trkpt>
      <trkpt lat="40.44518035836517810821533203125" lon="-1.23987467028200626373291015625">
        <ele>1006.79998779296875</ele>
        <time>2021-09-25T10:39:52.000Z</time>
      </trkpt>
      <trkpt lat="40.44510684907436370849609375" lon="-1.2397919408977031707763671875">
        <ele>1007.5999755859375</ele>
        <time>2021-09-25T10:39:54.000Z</time>
      </trkpt>
      <trkpt lat="40.44503174722194671630859375" lon="-1.239714659750461578369140625">
        <ele>1007.79998779296875</ele>
        <time>2021-09-25T10:39:56.000Z</time>
      </trkpt>
      <trkpt lat="40.44495999813079833984375" lon="-1.239637546241283416748046875">
        <ele>1008.20001220703125</ele>
        <time>2021-09-25T10:39:58.000Z</time>
      </trkpt>
      <trkpt lat="40.44488565064966678619384765625" lon="-1.23955431394279003143310546875">
        <ele>1008.79998779296875</ele>
        <time>2021-09-25T10:40:00.000Z</time>
      </trkpt>
      <trkpt lat="40.44481524266302585601806640625" lon="-1.239469908177852630615234375">
        <ele>1009.20001220703125</ele>
        <time>2021-09-25T10:40:02.000Z</time>
      </trkpt>
      <trkpt lat="40.4447452537715435028076171875" lon="-1.239390783011913299560546875">
        <ele>1009.79998779296875</ele>
        <time>2021-09-25T10:40:04.000Z</time>
      </trkpt>
      <trkpt lat="40.44468062929809093475341796875" lon="-1.23931827954947948455810546875">
        <ele>1010.4000244140625</ele>
        <time>2021-09-25T10:40:06.000Z</time>
      </trkpt>
      <trkpt lat="40.444649197161197662353515625" lon="-1.23928223736584186553955078125">
        <ele>1010.79998779296875</ele>
        <time>2021-09-25T10:40:07.000Z</time>
      </trkpt>
      <trkpt lat="40.44462002813816070556640625" lon="-1.23924686573445796966552734375">
        <ele>1011.20001220703125</ele>
        <time>2021-09-25T10:40:08.000Z</time>
      </trkpt>
      <trkpt lat="40.44456227682530879974365234375" lon="-1.23917855322360992431640625">
        <ele>1011.5999755859375</ele>
        <time>2021-09-25T10:40:10.000Z</time>
      </trkpt>
      <trkpt lat="40.44450863264501094818115234375" lon="-1.23911661095917224884033203125">
        <ele>1012</ele>
        <time>2021-09-25T10:40:12.000Z</time>
      </trkpt>
      <trkpt lat="40.444448702037334442138671875" lon="-1.2390519864857196807861328125">
        <ele>1012.20001220703125</ele>
        <time>2021-09-25T10:40:14.000Z</time>
      </trkpt>
      <trkpt lat="40.44441492296755313873291015625" lon="-1.2390177883207798004150390625">
        <ele>1012.20001220703125</ele>
        <time>2021-09-25T10:40:15.000Z</time>
      </trkpt>
      <trkpt lat="40.444381646811962127685546875" lon="-1.238981746137142181396484375">
        <ele>1012</ele>
        <time>2021-09-25T10:40:16.000Z</time>
      </trkpt>
      <trkpt lat="40.444320626556873321533203125" lon="-1.238906644284725189208984375">
        <ele>1011.79998779296875</ele>
        <time>2021-09-25T10:40:18.000Z</time>
      </trkpt>
      <trkpt lat="40.444258935749530792236328125" lon="-1.2388359010219573974609375">
        <ele>1011.79998779296875</ele>
        <time>2021-09-25T10:40:20.000Z</time>
      </trkpt>
      <trkpt lat="40.44419263489544391632080078125" lon="-1.23875669203698635101318359375">
        <ele>1011.4000244140625</ele>
        <time>2021-09-25T10:40:22.000Z</time>
      </trkpt>
      <trkpt lat="40.444128178060054779052734375" lon="-1.23867790214717388153076171875">
        <ele>1011.4000244140625</ele>
        <time>2021-09-25T10:40:24.000Z</time>
      </trkpt>
      <trkpt lat="40.4440646432340145111083984375" lon="-1.23860615305602550506591796875">
        <ele>1011.20001220703125</ele>
        <time>2021-09-25T10:40:26.000Z</time>
      </trkpt>
      <trkpt lat="40.44400353915989398956298828125" lon="-1.23853121884167194366455078125">
        <ele>1011</ele>
        <time>2021-09-25T10:40:28.000Z</time>
      </trkpt>
      <trkpt lat="40.443943105638027191162109375" lon="-1.23845427297055721282958984375">
        <ele>1010.5999755859375</ele>
        <time>2021-09-25T10:40:30.000Z</time>
      </trkpt>
      <trkpt lat="40.44388066045939922332763671875" lon="-1.2383767403662204742431640625">
        <ele>1010.5999755859375</ele>
        <time>2021-09-25T10:40:32.000Z</time>
      </trkpt>
      <trkpt lat="40.44381536543369293212890625" lon="-1.23830591328442096710205078125">
        <ele>1011</ele>
        <time>2021-09-25T10:40:34.000Z</time>
      </trkpt>
      <trkpt lat="40.4437511600553989410400390625" lon="-1.2382292188704013824462890625">
        <ele>1010.79998779296875</ele>
        <time>2021-09-25T10:40:36.000Z</time>
      </trkpt>
      <trkpt lat="40.44368301518261432647705078125" lon="-1.2381500937044620513916015625">
        <ele>1010.5999755859375</ele>
        <time>2021-09-25T10:40:38.000Z</time>
      </trkpt>
      <trkpt lat="40.44361285865306854248046875" lon="-1.23806317336857318878173828125">
        <ele>1011</ele>
        <time>2021-09-25T10:40:40.000Z</time>
      </trkpt>
      <trkpt lat="40.44354001991450786590576171875" lon="-1.2379722297191619873046875">
        <ele>1011</ele>
        <time>2021-09-25T10:40:42.000Z</time>
      </trkpt>
      <trkpt lat="40.443462319672107696533203125" lon="-1.2378837168216705322265625">
        <ele>1010.5999755859375</ele>
        <time>2021-09-25T10:40:44.000Z</time>
      </trkpt>
      <trkpt lat="40.443385206162929534912109375" lon="-1.23780048452317714691162109375">
        <ele>1010.4000244140625</ele>
        <time>2021-09-25T10:40:46.000Z</time>
      </trkpt>
      <trkpt lat="40.44330767355859279632568359375" lon="-1.23771029524505138397216796875">
        <ele>1010</ele>
        <time>2021-09-25T10:40:48.000Z</time>
      </trkpt>
      <trkpt lat="40.44322988949716091156005859375" lon="-1.23762018978595733642578125">
        <ele>1010</ele>
        <time>2021-09-25T10:40:50.000Z</time>
      </trkpt>
      <trkpt lat="40.44315277598798274993896484375" lon="-1.23752522282302379608154296875">
        <ele>1010</ele>
        <time>2021-09-25T10:40:52.000Z</time>
      </trkpt>
      <trkpt lat="40.44307147152721881866455078125" lon="-1.23742883093655109405517578125">
        <ele>1010</ele>
        <time>2021-09-25T10:40:54.000Z</time>
      </trkpt>
      <trkpt lat="40.442988239228725433349609375" lon="-1.2373365461826324462890625">
        <ele>1009.5999755859375</ele>
        <time>2021-09-25T10:40:56.000Z</time>
      </trkpt>
      <trkpt lat="40.4429039172828197479248046875" lon="-1.2372478656470775604248046875">
        <ele>1009.5999755859375</ele>
        <time>2021-09-25T10:40:58.000Z</time>
      </trkpt>
      <trkpt lat="40.44282588176429271697998046875" lon="-1.2371570058166980743408203125">
        <ele>1010.5999755859375</ele>
        <time>2021-09-25T10:41:00.000Z</time>
      </trkpt>
      <trkpt lat="40.4427493549883365631103515625" lon="-1.23706622980535030364990234375">
        <ele>1010.79998779296875</ele>
        <time>2021-09-25T10:41:02.000Z</time>
      </trkpt>
      <trkpt lat="40.44267450459301471710205078125" lon="-1.23698174022138118743896484375">
        <ele>1010.4000244140625</ele>
        <time>2021-09-25T10:41:04.000Z</time>
      </trkpt>
      <trkpt lat="40.4426035098731517791748046875" lon="-1.23689758591353893280029296875">
        <ele>1010.5999755859375</ele>
        <time>2021-09-25T10:41:06.000Z</time>
      </trkpt>
      <trkpt lat="40.4425344429910182952880859375" lon="-1.23681494034826755523681640625">
        <ele>1010.5999755859375</ele>
        <time>2021-09-25T10:41:08.000Z</time>
      </trkpt>
      <trkpt lat="40.4424636997282505035400390625" lon="-1.2367268465459346771240234375">
        <ele>1010.4000244140625</ele>
        <time>2021-09-25T10:41:10.000Z</time>
      </trkpt>
      <trkpt lat="40.44238968752324581146240234375" lon="-1.23663573525846004486083984375">
        <ele>1009.5999755859375</ele>
        <time>2021-09-25T10:41:12.000Z</time>
      </trkpt>
      <trkpt lat="40.44231508858501911163330078125" lon="-1.23654755763709545135498046875">
        <ele>1009.20001220703125</ele>
        <time>2021-09-25T10:41:14.000Z</time>
      </trkpt>
      <trkpt lat="40.4422367177903652191162109375" lon="-1.236463822424411773681640625">
        <ele>1008.5999755859375</ele>
        <time>2021-09-25T10:41:16.000Z</time>
      </trkpt>
      <trkpt lat="40.44220109470188617706298828125" lon="-1.23642149381339550018310546875">
        <ele>1008.4000244140625</ele>
        <time>2021-09-25T10:41:17.000Z</time>
      </trkpt>
      <trkpt lat="40.4421649686992168426513671875" lon="-1.2363791652023792266845703125">
        <ele>1008</ele>
        <time>2021-09-25T10:41:18.000Z</time>
      </trkpt>
      <trkpt lat="40.4420913755893707275390625" lon="-1.23629492707550525665283203125">
        <ele>1007</ele>
        <time>2021-09-25T10:41:20.000Z</time>
      </trkpt>
      <trkpt lat="40.442012585699558258056640625" lon="-1.236210353672504425048828125">
        <ele>1006.4000244140625</ele>
        <time>2021-09-25T10:41:22.000Z</time>
      </trkpt>
      <trkpt lat="40.44197562150657176971435546875" lon="-1.23616333119571208953857421875">
        <ele>1006.5999755859375</ele>
        <time>2021-09-25T10:41:23.000Z</time>
      </trkpt>
      <trkpt lat="40.4419396631419658660888671875" lon="-1.23611739836633205413818359375">
        <ele>1006.79998779296875</ele>
        <time>2021-09-25T10:41:24.000Z</time>
      </trkpt>
      <trkpt lat="40.441863723099231719970703125" lon="-1.23602771200239658355712890625">
        <ele>1007</ele>
        <time>2021-09-25T10:41:26.000Z</time>
      </trkpt>
      <trkpt lat="40.441785268485546112060546875" lon="-1.235942803323268890380859375">
        <ele>1007</ele>
        <time>2021-09-25T10:41:28.000Z</time>
      </trkpt>
      <trkpt lat="40.44171041809022426605224609375" lon="-1.23585403896868228912353515625">
        <ele>1007</ele>
        <time>2021-09-25T10:41:30.000Z</time>
      </trkpt>
      <trkpt lat="40.4416345618665218353271484375" lon="-1.23576619662344455718994140625">
        <ele>1007</ele>
        <time>2021-09-25T10:41:32.000Z</time>
      </trkpt>
      <trkpt lat="40.4415540955960750579833984375" lon="-1.23567936010658740997314453125">
        <ele>1007.20001220703125</ele>
        <time>2021-09-25T10:41:34.000Z</time>
      </trkpt>
      <trkpt lat="40.4414746351540088653564453125" lon="-1.2355905957520008087158203125">
        <ele>1007.4000244140625</ele>
        <time>2021-09-25T10:41:36.000Z</time>
      </trkpt>
      <trkpt lat="40.44140028767287731170654296875" lon="-1.23550602234899997711181640625">
        <ele>1007</ele>
        <time>2021-09-25T10:41:38.000Z</time>
      </trkpt>
      <trkpt lat="40.4413297958672046661376953125" lon="-1.23542077839374542236328125">
        <ele>1006.5999755859375</ele>
        <time>2021-09-25T10:41:40.000Z</time>
      </trkpt>
      <trkpt lat="40.44125729240477085113525390625" lon="-1.2353317625820636749267578125">
        <ele>1006.20001220703125</ele>
        <time>2021-09-25T10:41:42.000Z</time>
      </trkpt>
      <trkpt lat="40.44118051417171955108642578125" lon="-1.23524970375001430511474609375">
        <ele>1006.20001220703125</ele>
        <time>2021-09-25T10:41:44.000Z</time>
      </trkpt>
      <trkpt lat="40.4411029815673828125" lon="-1.235160939395427703857421875">
        <ele>1006.20001220703125</ele>
        <time>2021-09-25T10:41:46.000Z</time>
      </trkpt>
      <trkpt lat="40.441023521125316619873046875" lon="-1.23507485724985599517822265625">
        <ele>1006.79998779296875</ele>
        <time>2021-09-25T10:41:48.000Z</time>
      </trkpt>
      <trkpt lat="40.4409827850759029388427734375" lon="-1.2350306846201419830322265625">
        <ele>1007</ele>
        <time>2021-09-25T10:41:49.000Z</time>
      </trkpt>
      <trkpt lat="40.44094213284552097320556640625" lon="-1.23498768545687198638916015625">
        <ele>1007.4000244140625</ele>
        <time>2021-09-25T10:41:50.000Z</time>
      </trkpt>
      <trkpt lat="40.4408607445657253265380859375" lon="-1.23489866964519023895263671875">
        <ele>1008</ele>
        <time>2021-09-25T10:41:52.000Z</time>
      </trkpt>
      <trkpt lat="40.44078312814235687255859375" lon="-1.2348033674061298370361328125">
        <ele>1008</ele>
        <time>2021-09-25T10:41:54.000Z</time>
      </trkpt>
      <trkpt lat="40.44070173986256122589111328125" lon="-1.2347161956131458282470703125">
        <ele>1008</ele>
        <time>2021-09-25T10:41:56.000Z</time>
      </trkpt>
      <trkpt lat="40.440632589161396026611328125" lon="-1.2346253357827663421630859375">
        <ele>1008</ele>
        <time>2021-09-25T10:41:58.000Z</time>
      </trkpt>
      <trkpt lat="40.4405985586345195770263671875" lon="-1.23458602465689182281494140625">
        <ele>1008.20001220703125</ele>
        <time>2021-09-25T10:41:59.000Z</time>
      </trkpt>
      <trkpt lat="40.44056444428861141204833984375" lon="-1.23454646207392215728759765625">
        <ele>1008</ele>
        <time>2021-09-25T10:42:00.000Z</time>
      </trkpt>
      <trkpt lat="40.4404946230351924896240234375" lon="-1.23446264304220676422119140625">
        <ele>1007.79998779296875</ele>
        <time>2021-09-25T10:42:02.000Z</time>
      </trkpt>
      <trkpt lat="40.4404232092201709747314453125" lon="-1.2343780696392059326171875">
        <ele>1008</ele>
        <time>2021-09-25T10:42:04.000Z</time>
      </trkpt>
      <trkpt lat="40.44034969992935657501220703125" lon="-1.234291233122348785400390625">
        <ele>1008</ele>
        <time>2021-09-25T10:42:06.000Z</time>
      </trkpt>
      <trkpt lat="40.44031248427927494049072265625" lon="-1.234248317778110504150390625">
        <ele>1008</ele>
        <time>2021-09-25T10:42:07.000Z</time>
      </trkpt>
      <trkpt lat="40.44027426280081272125244140625" lon="-1.23420498333871364593505859375">
        <ele>1008</ele>
        <time>2021-09-25T10:42:08.000Z</time>
      </trkpt>
      <trkpt lat="40.4401955567300319671630859375" lon="-1.23411797918379306793212890625">
        <ele>1008</ele>
        <time>2021-09-25T10:42:10.000Z</time>
      </trkpt>
      <trkpt lat="40.440116934478282928466796875" lon="-1.234032399952411651611328125">
        <ele>1008.20001220703125</ele>
        <time>2021-09-25T10:42:12.000Z</time>
      </trkpt>
      <trkpt lat="40.4400426708161830902099609375" lon="-1.2339467369019985198974609375">
        <ele>1008.5999755859375</ele>
        <time>2021-09-25T10:42:14.000Z</time>
      </trkpt>
      <trkpt lat="40.43996463529765605926513671875" lon="-1.23385797254741191864013671875">
        <ele>1008.79998779296875</ele>
        <time>2021-09-25T10:42:16.000Z</time>
      </trkpt>
      <trkpt lat="40.4398850910365581512451171875" lon="-1.23377499170601367950439453125">
        <ele>1008.20001220703125</ele>
        <time>2021-09-25T10:42:18.000Z</time>
      </trkpt>
      <trkpt lat="40.43981082737445831298828125" lon="-1.23368614353239536285400390625">
        <ele>1007.79998779296875</ele>
        <time>2021-09-25T10:42:20.000Z</time>
      </trkpt>
      <trkpt lat="40.4397402517497539520263671875" lon="-1.2335975468158721923828125">
        <ele>1007.20001220703125</ele>
        <time>2021-09-25T10:42:22.000Z</time>
      </trkpt>
      <trkpt lat="40.4396720230579376220703125" lon="-1.23351599089801311492919921875">
        <ele>1006.79998779296875</ele>
        <time>2021-09-25T10:42:24.000Z</time>
      </trkpt>
      <trkpt lat="40.43960857205092906951904296875" lon="-1.23344088904559612274169921875">
        <ele>1006.5999755859375</ele>
        <time>2021-09-25T10:42:26.000Z</time>
      </trkpt>
      <trkpt lat="40.4395478032529354095458984375" lon="-1.23336084187030792236328125">
        <ele>1006.4000244140625</ele>
        <time>2021-09-25T10:42:28.000Z</time>
      </trkpt>
      <trkpt lat="40.4395139403641223907470703125" lon="-1.23331725597381591796875">
        <ele>1006.4000244140625</ele>
        <time>2021-09-25T10:42:29.000Z</time>
      </trkpt>
      <trkpt lat="40.43947949074208736419677734375" lon="-1.23327526263892650604248046875">
        <ele>1006.20001220703125</ele>
        <time>2021-09-25T10:42:30.000Z</time>
      </trkpt>
      <trkpt lat="40.439409501850605010986328125" lon="-1.23319295234978199005126953125">
        <ele>1006.20001220703125</ele>
        <time>2021-09-25T10:42:32.000Z</time>
      </trkpt>
      <trkpt lat="40.4393389262259006500244140625" lon="-1.23311449773609638214111328125">
        <ele>1006.20001220703125</ele>
        <time>2021-09-25T10:42:34.000Z</time>
      </trkpt>
      <trkpt lat="40.43926977552473545074462890625" lon="-1.233037300407886505126953125">
        <ele>1006.20001220703125</ele>
        <time>2021-09-25T10:42:36.000Z</time>
      </trkpt>
      <trkpt lat="40.43920255266129970550537109375" lon="-1.2329511344432830810546875">
        <ele>1006.20001220703125</ele>
        <time>2021-09-25T10:42:38.000Z</time>
      </trkpt>
      <trkpt lat="40.43913633562624454498291015625" lon="-1.23286253772675991058349609375">
        <ele>1006</ele>
        <time>2021-09-25T10:42:40.000Z</time>
      </trkpt>
      <trkpt lat="40.4390579648315906524658203125" lon="-1.232785172760486602783203125">
        <ele>1005.79998779296875</ele>
        <time>2021-09-25T10:42:42.000Z</time>
      </trkpt>
      <trkpt lat="40.43897607363760471343994140625" lon="-1.2327095679938793182373046875">
        <ele>1006</ele>
        <time>2021-09-25T10:42:44.000Z</time>
      </trkpt>
      <trkpt lat="40.43893852271139621734619140625" lon="-1.2326679937541484832763671875">
        <ele>1006</ele>
        <time>2021-09-25T10:42:45.000Z</time>
      </trkpt>
      <trkpt lat="40.43890365399420261383056640625" lon="-1.23262189328670501708984375">
        <ele>1006</ele>
        <time>2021-09-25T10:42:46.000Z</time>
      </trkpt>
      <trkpt lat="40.438836514949798583984375" lon="-1.23253128491342067718505859375">
        <ele>1006</ele>
        <time>2021-09-25T10:42:48.000Z</time>
      </trkpt>
      <trkpt lat="40.438768453896045684814453125" lon="-1.232447884976863861083984375">
        <ele>1006</ele>
        <time>2021-09-25T10:42:50.000Z</time>
      </trkpt>
      <trkpt lat="40.43869712390005588531494140625" lon="-1.23236280865967273712158203125">
        <ele>1005.79998779296875</ele>
        <time>2021-09-25T10:42:52.000Z</time>
      </trkpt>
      <trkpt lat="40.43866057880222797393798828125" lon="-1.23232022859156131744384765625">
        <ele>1005.5999755859375</ele>
        <time>2021-09-25T10:42:53.000Z</time>
      </trkpt>
      <trkpt lat="40.438624955713748931884765625" lon="-1.23227815143764019012451171875">
        <ele>1005.4000244140625</ele>
        <time>2021-09-25T10:42:54.000Z</time>
      </trkpt>
      <trkpt lat="40.43855664320290088653564453125" lon="-1.2321996130049228668212890625">
        <ele>1005.4000244140625</ele>
        <time>2021-09-25T10:42:56.000Z</time>
      </trkpt>
      <trkpt lat="40.43848891742527484893798828125" lon="-1.23212275095283985137939453125">
        <ele>1005.20001220703125</ele>
        <time>2021-09-25T10:42:58.000Z</time>
      </trkpt>
      <trkpt lat="40.4384279809892177581787109375" lon="-1.232048235833644866943359375">
        <ele>1005.20001220703125</ele>
        <time>2021-09-25T10:43:00.000Z</time>
      </trkpt>
      <trkpt lat="40.43840224854648113250732421875" lon="-1.23201026581227779388427734375">
        <ele>1005.20001220703125</ele>
        <time>2021-09-25T10:43:01.000Z</time>
      </trkpt>
      <trkpt lat="40.43837408535182476043701171875" lon="-1.2319746427237987518310546875">
        <ele>1005.20001220703125</ele>
        <time>2021-09-25T10:43:02.000Z</time>
      </trkpt>
      <trkpt lat="40.4383109696209430694580078125" lon="-1.2319002114236354827880859375">
        <ele>1005.20001220703125</ele>
        <time>2021-09-25T10:43:04.000Z</time>
      </trkpt>
      <trkpt lat="40.43824835680425167083740234375" lon="-1.23182284645736217498779296875">
        <ele>1005</ele>
        <time>2021-09-25T10:43:06.000Z</time>
      </trkpt>
      <trkpt lat="40.43818213976919651031494140625" lon="-1.23173651285469532012939453125">
        <ele>1005</ele>
        <time>2021-09-25T10:43:08.000Z</time>
      </trkpt>
      <trkpt lat="40.4381111450493335723876953125" lon="-1.23165470547974109649658203125">
        <ele>1005</ele>
        <time>2021-09-25T10:43:10.000Z</time>
      </trkpt>
      <trkpt lat="40.43803746812045574188232421875" lon="-1.23158463276922702789306640625">
        <ele>1005</ele>
        <time>2021-09-25T10:43:12.000Z</time>
      </trkpt>
      <trkpt lat="40.43796672485768795013427734375" lon="-1.23151657171547412872314453125">
        <ele>1005</ele>
        <time>2021-09-25T10:43:14.000Z</time>
      </trkpt>
      <trkpt lat="40.4379036091268062591552734375" lon="-1.2314371950924396514892578125">
        <ele>1005</ele>
        <time>2021-09-25T10:43:16.000Z</time>
      </trkpt>
      <trkpt lat="40.437870919704437255859375" lon="-1.23139821924269199371337890625">
        <ele>1004.5999755859375</ele>
        <time>2021-09-25T10:43:17.000Z</time>
      </trkpt>
      <trkpt lat="40.43783663772046566009521484375" lon="-1.23136335052549839019775390625">
        <ele>1004.4000244140625</ele>
        <time>2021-09-25T10:43:18.000Z</time>
      </trkpt>
      <trkpt lat="40.43776673264801502227783203125" lon="-1.2312890030443668365478515625">
        <ele>1004</ele>
        <time>2021-09-25T10:43:20.000Z</time>
      </trkpt>
      <trkpt lat="40.43769783340394496917724609375" lon="-1.23121666721999645233154296875">
        <ele>1004</ele>
        <time>2021-09-25T10:43:22.000Z</time>
      </trkpt>
      <trkpt lat="40.43763161636888980865478515625" lon="-1.23113729059696197509765625">
        <ele>1003.79998779296875</ele>
        <time>2021-09-25T10:43:24.000Z</time>
      </trkpt>
      <trkpt lat="40.43759859167039394378662109375" lon="-1.23109747655689716339111328125">
        <ele>1003.20001220703125</ele>
        <time>2021-09-25T10:43:25.000Z</time>
      </trkpt>
      <trkpt lat="40.4375663213431835174560546875" lon="-1.23105506412684917449951171875">
        <ele>1002.79998779296875</ele>
        <time>2021-09-25T10:43:26.000Z</time>
      </trkpt>
      <trkpt lat="40.4375009424984455108642578125" lon="-1.230972670018672943115234375">
        <ele>1002.20001220703125</ele>
        <time>2021-09-25T10:43:28.000Z</time>
      </trkpt>
      <trkpt lat="40.43743439018726348876953125" lon="-1.230899579823017120361328125">
        <ele>1001.79998779296875</ele>
        <time>2021-09-25T10:43:30.000Z</time>
      </trkpt>
      <trkpt lat="40.43736591003835201263427734375" lon="-1.2308253161609172821044921875">
        <ele>1001.5999755859375</ele>
        <time>2021-09-25T10:43:32.000Z</time>
      </trkpt>
      <trkpt lat="40.43730086646974086761474609375" lon="-1.2307378090918064117431640625">
        <ele>1001.5999755859375</ele>
        <time>2021-09-25T10:43:34.000Z</time>
      </trkpt>
      <trkpt lat="40.43726683594286441802978515625" lon="-1.23070235364139080047607421875">
        <ele>1001.79998779296875</ele>
        <time>2021-09-25T10:43:35.000Z</time>
      </trkpt>
      <trkpt lat="40.4372323863208293914794921875" lon="-1.230664886534214019775390625">
        <ele>1001.5999755859375</ele>
        <time>2021-09-25T10:43:36.000Z</time>
      </trkpt>
      <trkpt lat="40.4371619783341884613037109375" lon="-1.230592466890811920166015625">
        <ele>1001.79998779296875</ele>
        <time>2021-09-25T10:43:38.000Z</time>
      </trkpt>
      <trkpt lat="40.43709651567041873931884765625" lon="-1.23051543720066547393798828125">
        <ele>1002.5999755859375</ele>
        <time>2021-09-25T10:43:40.000Z</time>
      </trkpt>
      <trkpt lat="40.43706416152417659759521484375" lon="-1.23047436587512493133544921875">
        <ele>1003</ele>
        <time>2021-09-25T10:43:41.000Z</time>
      </trkpt>
      <trkpt lat="40.43703381903469562530517578125" lon="-1.23042583465576171875">
        <ele>1003.79998779296875</ele>
        <time>2021-09-25T10:43:42.000Z</time>
      </trkpt>
      <trkpt lat="40.43696776963770389556884765625" lon="-1.23034377582371234893798828125">
        <ele>1004.20001220703125</ele>
        <time>2021-09-25T10:43:44.000Z</time>
      </trkpt>
      <trkpt lat="40.43689803220331668853759765625" lon="-1.23027370311319828033447265625">
        <ele>1003.5999755859375</ele>
        <time>2021-09-25T10:43:46.000Z</time>
      </trkpt>
      <trkpt lat="40.4368303902447223663330078125" lon="-1.230188123881816864013671875">
        <ele>1003</ele>
        <time>2021-09-25T10:43:48.000Z</time>
      </trkpt>
      <trkpt lat="40.4367650113999843597412109375" lon="-1.2301079928874969482421875">
        <ele>1002.5999755859375</ele>
        <time>2021-09-25T10:43:50.000Z</time>
      </trkpt>
      <trkpt lat="40.43670072220265865325927734375" lon="-1.23003758490085601806640625">
        <ele>1002.5999755859375</ele>
        <time>2021-09-25T10:43:52.000Z</time>
      </trkpt>
      <trkpt lat="40.4366329126060009002685546875" lon="-1.2299631536006927490234375">
        <ele>1002.5999755859375</ele>
        <time>2021-09-25T10:43:54.000Z</time>
      </trkpt>
      <trkpt lat="40.43657080270349979400634765625" lon="-1.2298800051212310791015625">
        <ele>1002.4000244140625</ele>
        <time>2021-09-25T10:43:56.000Z</time>
      </trkpt>
      <trkpt lat="40.43650978244841098785400390625" lon="-1.22979928739368915557861328125">
        <ele>1002</ele>
        <time>2021-09-25T10:43:58.000Z</time>
      </trkpt>
      <trkpt lat="40.4364817030727863311767578125" lon="-1.22976131737232208251953125">
        <ele>1002</ele>
        <time>2021-09-25T10:43:59.000Z</time>
      </trkpt>
      <trkpt lat="40.436453707516193389892578125" lon="-1.22972854413092136383056640625">
        <ele>1002</ele>
        <time>2021-09-25T10:44:00.000Z</time>
      </trkpt>
      <trkpt lat="40.43639025650918483734130859375" lon="-1.2296682782471179962158203125">
        <ele>1002</ele>
        <time>2021-09-25T10:44:02.000Z</time>
      </trkpt>
      <trkpt lat="40.43632797896862030029296875" lon="-1.22960583306849002838134765625">
        <ele>1002.4000244140625</ele>
        <time>2021-09-25T10:44:04.000Z</time>
      </trkpt>
      <trkpt lat="40.43630090542137622833251953125" lon="-1.22957197017967700958251953125">
        <ele>1002.5999755859375</ele>
        <time>2021-09-25T10:44:05.000Z</time>
      </trkpt>
      <trkpt lat="40.436273328959941864013671875" lon="-1.2295351736247539520263671875">
        <ele>1002.79998779296875</ele>
        <time>2021-09-25T10:44:06.000Z</time>
      </trkpt>
      <trkpt lat="40.43621624819934368133544921875" lon="-1.229468286037445068359375">
        <ele>1003.20001220703125</ele>
        <time>2021-09-25T10:44:08.000Z</time>
      </trkpt>
      <trkpt lat="40.436153970658779144287109375" lon="-1.22940148226916790008544921875">
        <ele>1003.5999755859375</ele>
        <time>2021-09-25T10:44:10.000Z</time>
      </trkpt>
      <trkpt lat="40.43609471060335636138916015625" lon="-1.22932143509387969970703125">
        <ele>1004</ele>
        <time>2021-09-25T10:44:12.000Z</time>
      </trkpt>
      <trkpt lat="40.43606017716228961944580078125" lon="-1.2292813695967197418212890625">
        <ele>1004.20001220703125</ele>
        <time>2021-09-25T10:44:13.000Z</time>
      </trkpt>
      <trkpt lat="40.4360247217118740081787109375" lon="-1.229238621890544891357421875">
        <ele>1004.4000244140625</ele>
        <time>2021-09-25T10:44:14.000Z</time>
      </trkpt>
      <trkpt lat="40.4359549842774868011474609375" lon="-1.22916310094296932220458984375">
        <ele>1005</ele>
        <time>2021-09-25T10:44:16.000Z</time>
      </trkpt>
      <trkpt lat="40.43588264845311641693115234375" lon="-1.22908447869122028350830078125">
        <ele>1005.5999755859375</ele>
        <time>2021-09-25T10:44:18.000Z</time>
      </trkpt>
      <trkpt lat="40.4358198679983615875244140625" lon="-1.22899780981242656707763671875">
        <ele>1005.5999755859375</ele>
        <time>2021-09-25T10:44:20.000Z</time>
      </trkpt>
      <trkpt lat="40.4357601888477802276611328125" lon="-1.22890728525817394256591796875">
        <ele>1005.4000244140625</ele>
        <time>2021-09-25T10:44:22.000Z</time>
      </trkpt>
      <trkpt lat="40.43568802066147327423095703125" lon="-1.22882614843547344207763671875">
        <ele>1005</ele>
        <time>2021-09-25T10:44:24.000Z</time>
      </trkpt>
      <trkpt lat="40.4356230609118938446044921875" lon="-1.22875213623046875">
        <ele>1005</ele>
        <time>2021-09-25T10:44:26.000Z</time>
      </trkpt>
      <trkpt lat="40.43556028045713901519775390625" lon="-1.22867996804416179656982421875">
        <ele>1005.4000244140625</ele>
        <time>2021-09-25T10:44:28.000Z</time>
      </trkpt>
      <trkpt lat="40.435526669025421142578125" lon="-1.22864476405084133148193359375">
        <ele>1005.5999755859375</ele>
        <time>2021-09-25T10:44:29.000Z</time>
      </trkpt>
      <trkpt lat="40.4354909621179103851318359375" lon="-1.22860570438206195831298828125">
        <ele>1005.79998779296875</ele>
        <time>2021-09-25T10:44:30.000Z</time>
      </trkpt>
      <trkpt lat="40.435421727597713470458984375" lon="-1.22852087952196598052978515625">
        <ele>1006</ele>
        <time>2021-09-25T10:44:32.000Z</time>
      </trkpt>
      <trkpt lat="40.43535056523978710174560546875" lon="-1.2284344621002674102783203125">
        <ele>1006</ele>
        <time>2021-09-25T10:44:34.000Z</time>
      </trkpt>
      <trkpt lat="40.4352804087102413177490234375" lon="-1.22835491783916950225830078125">
        <ele>1006</ele>
        <time>2021-09-25T10:44:36.000Z</time>
      </trkpt>
      <trkpt lat="40.4352130182087421417236328125" lon="-1.22827579267323017120361328125">
        <ele>1005.5999755859375</ele>
        <time>2021-09-25T10:44:38.000Z</time>
      </trkpt>
      <trkpt lat="40.43514420278370380401611328125" lon="-1.22819381766021251678466796875">
        <ele>1005.20001220703125</ele>
        <time>2021-09-25T10:44:40.000Z</time>
      </trkpt>
      <trkpt lat="40.4350842721760272979736328125" lon="-1.22811402194201946258544921875">
        <ele>1004.79998779296875</ele>
        <time>2021-09-25T10:44:42.000Z</time>
      </trkpt>
      <trkpt lat="40.4350232519209384918212890625" lon="-1.228041686117649078369140625">
        <ele>1004.20001220703125</ele>
        <time>2021-09-25T10:44:44.000Z</time>
      </trkpt>
      <trkpt lat="40.43495309539139270782470703125" lon="-1.22797136195003986358642578125">
        <ele>1003.79998779296875</ele>
        <time>2021-09-25T10:44:46.000Z</time>
      </trkpt>
      <trkpt lat="40.434877909719944000244140625" lon="-1.2278913147747516632080078125">
        <ele>1003.4000244140625</ele>
        <time>2021-09-25T10:44:48.000Z</time>
      </trkpt>
      <trkpt lat="40.43481118977069854736328125" lon="-1.22781001031398773193359375">
        <ele>1003</ele>
        <time>2021-09-25T10:44:50.000Z</time>
      </trkpt>
      <trkpt lat="40.43474547564983367919921875" lon="-1.2277364172041416168212890625">
        <ele>1003</ele>
        <time>2021-09-25T10:44:52.000Z</time>
      </trkpt>
      <trkpt lat="40.43468018062412738800048828125" lon="-1.227658130228519439697265625">
        <ele>1003</ele>
        <time>2021-09-25T10:44:54.000Z</time>
      </trkpt>
      <trkpt lat="40.4346122033894062042236328125" lon="-1.2275805138051509857177734375">
        <ele>1003</ele>
        <time>2021-09-25T10:44:56.000Z</time>
      </trkpt>
      <trkpt lat="40.43454523198306560516357421875" lon="-1.22749845497310161590576171875">
        <ele>1003.4000244140625</ele>
        <time>2021-09-25T10:44:58.000Z</time>
      </trkpt>
      <trkpt lat="40.43450851924717426300048828125" lon="-1.2274665199220180511474609375">
        <ele>1003.5999755859375</ele>
        <time>2021-09-25T10:44:59.000Z</time>
      </trkpt>
      <trkpt lat="40.434476248919963836669921875" lon="-1.22742888517677783966064453125">
        <ele>1003.79998779296875</ele>
        <time>2021-09-25T10:45:00.000Z</time>
      </trkpt>
      <trkpt lat="40.43441548012197017669677734375" lon="-1.22735009528696537017822265625">
        <ele>1004</ele>
        <time>2021-09-25T10:45:02.000Z</time>
      </trkpt>
      <trkpt lat="40.43435412459075450897216796875" lon="-1.22727516107261180877685546875">
        <ele>1004</ele>
        <time>2021-09-25T10:45:04.000Z</time>
      </trkpt>
      <trkpt lat="40.4342896677553653717041015625" lon="-1.22720156796276569366455078125">
        <ele>1004.20001220703125</ele>
        <time>2021-09-25T10:45:06.000Z</time>
      </trkpt>
      <trkpt lat="40.43425505049526691436767578125" lon="-1.2271620891988277435302734375">
        <ele>1004.5999755859375</ele>
        <time>2021-09-25T10:45:07.000Z</time>
      </trkpt>
      <trkpt lat="40.43422110378742218017578125" lon="-1.22712294571101665496826171875">
        <ele>1004.79998779296875</ele>
        <time>2021-09-25T10:45:08.000Z</time>
      </trkpt>
      <trkpt lat="40.43415647931396961212158203125" lon="-1.22704616747796535491943359375">
        <ele>1005</ele>
        <time>2021-09-25T10:45:10.000Z</time>
      </trkpt>
      <trkpt lat="40.4340938664972782135009765625" lon="-1.2269756756722927093505859375">
        <ele>1004.79998779296875</ele>
        <time>2021-09-25T10:45:12.000Z</time>
      </trkpt>
      <trkpt lat="40.4340311698615550994873046875" lon="-1.22689126990735530853271484375">
        <ele>1004.5999755859375</ele>
        <time>2021-09-25T10:45:14.000Z</time>
      </trkpt>
      <trkpt lat="40.43396361172199249267578125" lon="-1.22681566514074802398681640625">
        <ele>1004.4000244140625</ele>
        <time>2021-09-25T10:45:16.000Z</time>
      </trkpt>
      <trkpt lat="40.43389982543885707855224609375" lon="-1.22674249112606048583984375">
        <ele>1004.20001220703125</ele>
        <time>2021-09-25T10:45:18.000Z</time>
      </trkpt>
      <trkpt lat="40.4338382184505462646484375" lon="-1.22666680254042148590087890625">
        <ele>1003.79998779296875</ele>
        <time>2021-09-25T10:45:20.000Z</time>
      </trkpt>
      <trkpt lat="40.43380510993301868438720703125" lon="-1.2266310118138790130615234375">
        <ele>1003.79998779296875</ele>
        <time>2021-09-25T10:45:21.000Z</time>
      </trkpt>
      <trkpt lat="40.433771498501300811767578125" lon="-1.22659496963024139404296875">
        <ele>1004</ele>
        <time>2021-09-25T10:45:22.000Z</time>
      </trkpt>
      <trkpt lat="40.43370301835238933563232421875" lon="-1.226520873606204986572265625">
        <ele>1004</ele>
        <time>2021-09-25T10:45:24.000Z</time>
      </trkpt>
      <trkpt lat="40.433636717498302459716796875" lon="-1.2264479510486125946044921875">
        <ele>1004</ele>
        <time>2021-09-25T10:45:26.000Z</time>
      </trkpt>
      <trkpt lat="40.433569662272930145263671875" lon="-1.22637502849102020263671875">
        <ele>1004</ele>
        <time>2021-09-25T10:45:28.000Z</time>
      </trkpt>
      <trkpt lat="40.43350361287593841552734375" lon="-1.226298250257968902587890625">
        <ele>1004</ele>
        <time>2021-09-25T10:45:30.000Z</time>
      </trkpt>
      <trkpt lat="40.433438904583454132080078125" lon="-1.22621870599687099456787109375">
        <ele>1004</ele>
        <time>2021-09-25T10:45:32.000Z</time>
      </trkpt>
      <trkpt lat="40.4333726875483989715576171875" lon="-1.2261378206312656402587890625">
        <ele>1004</ele>
        <time>2021-09-25T10:45:34.000Z</time>
      </trkpt>
      <trkpt lat="40.4333042912185192108154296875" lon="-1.2260583601891994476318359375">
        <ele>1004</ele>
        <time>2021-09-25T10:45:36.000Z</time>
      </trkpt>
      <trkpt lat="40.43323405086994171142578125" lon="-1.2259788997471332550048828125">
        <ele>1004.20001220703125</ele>
        <time>2021-09-25T10:45:38.000Z</time>
      </trkpt>
      <trkpt lat="40.4331624694168567657470703125" lon="-1.22589625418186187744140625">
        <ele>1004.4000244140625</ele>
        <time>2021-09-25T10:45:40.000Z</time>
      </trkpt>
      <trkpt lat="40.433090887963771820068359375" lon="-1.22581972740590572357177734375">
        <ele>1004.79998779296875</ele>
        <time>2021-09-25T10:45:42.000Z</time>
      </trkpt>
      <trkpt lat="40.43302073143422603607177734375" lon="-1.22574445791542530059814453125">
        <ele>1005</ele>
        <time>2021-09-25T10:45:44.000Z</time>
      </trkpt>
      <trkpt lat="40.43295443058013916015625" lon="-1.2256664223968982696533203125">
        <ele>1005</ele>
        <time>2021-09-25T10:45:46.000Z</time>
      </trkpt>
      <trkpt lat="40.43288678862154483795166015625" lon="-1.22559048235416412353515625">
        <ele>1004.79998779296875</ele>
        <time>2021-09-25T10:45:48.000Z</time>
      </trkpt>
      <trkpt lat="40.4328211583197116851806640625" lon="-1.22551429085433483123779296875">
        <ele>1004.4000244140625</ele>
        <time>2021-09-25T10:45:50.000Z</time>
      </trkpt>
      <trkpt lat="40.4327571205794811248779296875" lon="-1.22544237412512302398681640625">
        <ele>1003.79998779296875</ele>
        <time>2021-09-25T10:45:52.000Z</time>
      </trkpt>
      <trkpt lat="40.432698614895343780517578125" lon="-1.2253680266439914703369140625">
        <ele>1003.20001220703125</ele>
        <time>2021-09-25T10:45:54.000Z</time>
      </trkpt>
      <trkpt lat="40.43263189494609832763671875" lon="-1.225292421877384185791015625">
        <ele>1002.5999755859375</ele>
        <time>2021-09-25T10:45:56.000Z</time>
      </trkpt>
      <trkpt lat="40.43255905620753765106201171875" lon="-1.22521706856787204742431640625">
        <ele>1002.20001220703125</ele>
        <time>2021-09-25T10:45:58.000Z</time>
      </trkpt>
      <trkpt lat="40.43249401263892650604248046875" lon="-1.22513827867805957794189453125">
        <ele>1001.5999755859375</ele>
        <time>2021-09-25T10:46:00.000Z</time>
      </trkpt>
      <trkpt lat="40.4324233531951904296875" lon="-1.22506032697856426239013671875">
        <ele>1001</ele>
        <time>2021-09-25T10:46:02.000Z</time>
      </trkpt>
      <trkpt lat="40.432356633245944976806640625" lon="-1.22498321346938610076904296875">
        <ele>1000.4000244140625</ele>
        <time>2021-09-25T10:46:04.000Z</time>
      </trkpt>
      <trkpt lat="40.432290919125080108642578125" lon="-1.22490492649376392364501953125">
        <ele>999.79998779296875</ele>
        <time>2021-09-25T10:46:06.000Z</time>
      </trkpt>
      <trkpt lat="40.43222512118518352508544921875" lon="-1.22482764534652233123779296875">
        <ele>999.4000244140625</ele>
        <time>2021-09-25T10:46:08.000Z</time>
      </trkpt>
      <trkpt lat="40.4321623407304286956787109375" lon="-1.2247489392757415771484375">
        <ele>999</ele>
        <time>2021-09-25T10:46:10.000Z</time>
      </trkpt>
      <trkpt lat="40.43210056610405445098876953125" lon="-1.22467760927975177764892578125">
        <ele>999</ele>
        <time>2021-09-25T10:46:12.000Z</time>
      </trkpt>
      <trkpt lat="40.43204004876315593719482421875" lon="-1.22460636310279369354248046875">
        <ele>999.4000244140625</ele>
        <time>2021-09-25T10:46:14.000Z</time>
      </trkpt>
      <trkpt lat="40.43201104737818241119384765625" lon="-1.224568895995616912841796875">
        <ele>999.5999755859375</ele>
        <time>2021-09-25T10:46:15.000Z</time>
      </trkpt>
      <trkpt lat="40.431981123983860015869140625" lon="-1.22453327290713787078857421875">
        <ele>999.79998779296875</ele>
        <time>2021-09-25T10:46:16.000Z</time>
      </trkpt>
      <trkpt lat="40.431918092072010040283203125" lon="-1.2244651280343532562255859375">
        <ele>1000</ele>
        <time>2021-09-25T10:46:18.000Z</time>
      </trkpt>
      <trkpt lat="40.43185665272176265716552734375" lon="-1.2243947200477123260498046875">
        <ele>1000.4000244140625</ele>
        <time>2021-09-25T10:46:20.000Z</time>
      </trkpt>
      <trkpt lat="40.431795381009578704833984375" lon="-1.22432456351816654205322265625">
        <ele>1000.5999755859375</ele>
        <time>2021-09-25T10:46:22.000Z</time>
      </trkpt>
      <trkpt lat="40.43176244013011455535888671875" lon="-1.2242850847542285919189453125">
        <ele>1000.79998779296875</ele>
        <time>2021-09-25T10:46:23.000Z</time>
      </trkpt>
      <trkpt lat="40.43173025362193584442138671875" lon="-1.22424644418060779571533203125">
        <ele>1000.79998779296875</ele>
        <time>2021-09-25T10:46:24.000Z</time>
      </trkpt>
      <trkpt lat="40.43166873045265674591064453125" lon="-1.22417201288044452667236328125">
        <ele>1000.4000244140625</ele>
        <time>2021-09-25T10:46:26.000Z</time>
      </trkpt>
      <trkpt lat="40.4316093027591705322265625" lon="-1.2241003476083278656005859375">
        <ele>1000.20001220703125</ele>
        <time>2021-09-25T10:46:28.000Z</time>
      </trkpt>
      <trkpt lat="40.4315449297428131103515625" lon="-1.22402834706008434295654296875">
        <ele>1000.4000244140625</ele>
        <time>2021-09-25T10:46:30.000Z</time>
      </trkpt>
      <trkpt lat="40.43148248456418514251708984375" lon="-1.2239545024931430816650390625">
        <ele>1000.5999755859375</ele>
        <time>2021-09-25T10:46:32.000Z</time>
      </trkpt>
      <trkpt lat="40.43141727335751056671142578125" lon="-1.2238794006407260894775390625">
        <ele>1000.79998779296875</ele>
        <time>2021-09-25T10:46:34.000Z</time>
      </trkpt>
      <trkpt lat="40.43135424144566059112548828125" lon="-1.22380488552153110504150390625">
        <ele>1001</ele>
        <time>2021-09-25T10:46:36.000Z</time>
      </trkpt>
      <trkpt lat="40.43129154480993747711181640625" lon="-1.2237305380403995513916015625">
        <ele>1000.4000244140625</ele>
        <time>2021-09-25T10:46:38.000Z</time>
      </trkpt>
      <trkpt lat="40.43126136995851993560791015625" lon="-1.22369416058063507080078125">
        <ele>1000.20001220703125</ele>
        <time>2021-09-25T10:46:39.000Z</time>
      </trkpt>
      <trkpt lat="40.4312309436500072479248046875" lon="-1.2236540950834751129150390625">
        <ele>1000</ele>
        <time>2021-09-25T10:46:40.000Z</time>
      </trkpt>
      <trkpt lat="40.43116967193782329559326171875" lon="-1.2235810048878192901611328125">
        <ele>1000</ele>
        <time>2021-09-25T10:46:42.000Z</time>
      </trkpt>
      <trkpt lat="40.43110345490276813507080078125" lon="-1.223510764539241790771484375">
        <ele>1000</ele>
        <time>2021-09-25T10:46:44.000Z</time>
      </trkpt>
      <trkpt lat="40.43103732168674468994140625" lon="-1.2234368361532688140869140625">
        <ele>999.79998779296875</ele>
        <time>2021-09-25T10:46:46.000Z</time>
      </trkpt>
      <trkpt lat="40.43097504414618015289306640625" lon="-1.223359890282154083251953125">
        <ele>999.5999755859375</ele>
        <time>2021-09-25T10:46:48.000Z</time>
      </trkpt>
      <trkpt lat="40.43091083876788616180419921875" lon="-1.223285458981990814208984375">
        <ele>999.79998779296875</ele>
        <time>2021-09-25T10:46:50.000Z</time>
      </trkpt>
      <trkpt lat="40.43084814213216304779052734375" lon="-1.22321027331054210662841796875">
        <ele>1000</ele>
        <time>2021-09-25T10:46:52.000Z</time>
      </trkpt>
      <trkpt lat="40.43078519403934478759765625" lon="-1.223139278590679168701171875">
        <ele>1000.5999755859375</ele>
        <time>2021-09-25T10:46:54.000Z</time>
      </trkpt>
      <trkpt lat="40.43072794564068317413330078125" lon="-1.22306677512824535369873046875">
        <ele>1001</ele>
        <time>2021-09-25T10:46:56.000Z</time>
      </trkpt>
      <trkpt lat="40.43066776357591152191162109375" lon="-1.22299150563776493072509765625">
        <ele>1001.4000244140625</ele>
        <time>2021-09-25T10:46:58.000Z</time>
      </trkpt>
      <trkpt lat="40.4306019656360149383544921875" lon="-1.22291875071823596954345703125">
        <ele>1001.79998779296875</ele>
        <time>2021-09-25T10:47:00.000Z</time>
      </trkpt>
      <trkpt lat="40.43054069392383098602294921875" lon="-1.22284582816064357757568359375">
        <ele>1002</ele>
        <time>2021-09-25T10:47:02.000Z</time>
      </trkpt>
      <trkpt lat="40.430477745831012725830078125" lon="-1.2227750010788440704345703125">
        <ele>1002</ele>
        <time>2021-09-25T10:47:04.000Z</time>
      </trkpt>
      <trkpt lat="40.43041496537625789642333984375" lon="-1.2226970493793487548828125">
        <ele>1001.5999755859375</ele>
        <time>2021-09-25T10:47:06.000Z</time>
      </trkpt>
      <trkpt lat="40.43035612441599369049072265625" lon="-1.222632341086864471435546875">
        <ele>1001.4000244140625</ele>
        <time>2021-09-25T10:47:08.000Z</time>
      </trkpt>
      <trkpt lat="40.43030415661633014678955078125" lon="-1.22257090173661708831787109375">
        <ele>1001.20001220703125</ele>
        <time>2021-09-25T10:47:10.000Z</time>
      </trkpt>
      <trkpt lat="40.43024799786508083343505859375" lon="-1.22250149957835674285888671875">
        <ele>1001</ele>
        <time>2021-09-25T10:47:12.000Z</time>
      </trkpt>
      <trkpt lat="40.430192761123180389404296875" lon="-1.222427822649478912353515625">
        <ele>1001</ele>
        <time>2021-09-25T10:47:14.000Z</time>
      </trkpt>
      <trkpt lat="40.430153869092464447021484375" lon="-1.222352720797061920166015625">
        <ele>1001</ele>
        <time>2021-09-25T10:47:16.000Z</time>
      </trkpt>
      <trkpt lat="40.43014188297092914581298828125" lon="-1.22230502776801586151123046875">
        <ele>1001</ele>
        <time>2021-09-25T10:47:17.000Z</time>
      </trkpt>
      <trkpt lat="40.43012671172618865966796875" lon="-1.2222472764551639556884765625">
        <ele>1000.79998779296875</ele>
        <time>2021-09-25T10:47:18.000Z</time>
      </trkpt>
      <trkpt lat="40.43010257184505462646484375" lon="-1.2221847474575042724609375">
        <ele>1000.5999755859375</ele>
        <time>2021-09-25T10:47:19.000Z</time>
      </trkpt>
      <trkpt lat="40.43007214553654193878173828125" lon="-1.22212565504014492034912109375">
        <ele>1000.4000244140625</ele>
        <time>2021-09-25T10:47:20.000Z</time>
      </trkpt>
      <trkpt lat="40.43003459461033344268798828125" lon="-1.22206899337470531463623046875">
        <ele>1000.20001220703125</ele>
        <time>2021-09-25T10:47:21.000Z</time>
      </trkpt>
      <trkpt lat="40.4299971275031566619873046875" lon="-1.2220156006515026092529296875">
        <ele>1000</ele>
        <time>2021-09-25T10:47:22.000Z</time>
      </trkpt>
      <trkpt lat="40.4299300722777843475341796875" lon="-1.22190755791962146759033203125">
        <ele>1000.20001220703125</ele>
        <time>2021-09-25T10:47:24.000Z</time>
      </trkpt>
      <trkpt lat="40.42990148998796939849853515625" lon="-1.22185257263481616973876953125">
        <ele>1000</ele>
        <time>2021-09-25T10:47:25.000Z</time>
      </trkpt>
      <trkpt lat="40.4298791103065013885498046875" lon="-1.22179741971194744110107421875">
        <ele>999.79998779296875</ele>
        <time>2021-09-25T10:47:26.000Z</time>
      </trkpt>
      <trkpt lat="40.429867543280124664306640625" lon="-1.22173874638974666595458984375">
        <ele>999.5999755859375</ele>
        <time>2021-09-25T10:47:27.000Z</time>
      </trkpt>
      <trkpt lat="40.42986175976693630218505859375" lon="-1.221682839095592498779296875">
        <ele>999.4000244140625</ele>
        <time>2021-09-25T10:47:28.000Z</time>
      </trkpt>
      <trkpt lat="40.42984952218830585479736328125" lon="-1.221597008407115936279296875">
        <ele>999.4000244140625</ele>
        <time>2021-09-25T10:47:30.000Z</time>
      </trkpt>
      <trkpt lat="40.42983896099030971527099609375" lon="-1.22156658209860324859619140625">
        <ele>999.5999755859375</ele>
        <time>2021-09-25T10:47:32.000Z</time>
      </trkpt>
      <trkpt lat="40.42983192019164562225341796875" lon="-1.22156389988958835601806640625">
        <ele>999.5999755859375</ele>
        <time>2021-09-25T10:47:34.000Z</time>
      </trkpt>
      <trkpt lat="40.42983192019164562225341796875" lon="-1.22156389988958835601806640625">
        <ele>999.5999755859375</ele>
        <time>2021-09-25T10:47:35.000Z</time>
      </trkpt>
      <trkpt lat="40.42982454411685466766357421875" lon="-1.22153439559042453765869140625">
        <ele>999.79998779296875</ele>
        <time>2021-09-25T10:48:44.000Z</time>
      </trkpt>
      <trkpt lat="40.429824627935886383056640625" lon="-1.22150924988090991973876953125">
        <ele>999.79998779296875</ele>
        <time>2021-09-25T10:48:45.000Z</time>
      </trkpt>
      <trkpt lat="40.42982387356460094451904296875" lon="-1.2214828468859195709228515625">
        <ele>1000</ele>
        <time>2021-09-25T10:48:46.000Z</time>
      </trkpt>
      <trkpt lat="40.4298177547752857208251953125" lon="-1.22142962180078029632568359375">
        <ele>1000</ele>
        <time>2021-09-25T10:48:48.000Z</time>
      </trkpt>
      <trkpt lat="40.42981968261301517486572265625" lon="-1.2213594652712345123291015625">
        <ele>1000</ele>
        <time>2021-09-25T10:48:50.000Z</time>
      </trkpt>
      <trkpt lat="40.4298214428126811981201171875" lon="-1.2213225848972797393798828125">
        <ele>1000</ele>
        <time>2021-09-25T10:48:51.000Z</time>
      </trkpt>
      <trkpt lat="40.42981213890016078948974609375" lon="-1.2212924100458621978759765625">
        <ele>1000</ele>
        <time>2021-09-25T10:48:52.000Z</time>
      </trkpt>
      <trkpt lat="40.42977274395525455474853515625" lon="-1.2212156318128108978271484375">
        <ele>1000.4000244140625</ele>
        <time>2021-09-25T10:48:54.000Z</time>
      </trkpt>
      <trkpt lat="40.4297141544520854949951171875" lon="-1.22117397375404834747314453125">
        <ele>1000.4000244140625</ele>
        <time>2021-09-25T10:48:56.000Z</time>
      </trkpt>
      <trkpt lat="40.429648943245410919189453125" lon="-1.221134997904300689697265625">
        <ele>1000.79998779296875</ele>
        <time>2021-09-25T10:48:58.000Z</time>
      </trkpt>
      <trkpt lat="40.42961776256561279296875" lon="-1.2211177311837673187255859375">
        <ele>1001</ele>
        <time>2021-09-25T10:48:59.000Z</time>
      </trkpt>
      <trkpt lat="40.42958867736160755157470703125" lon="-1.2211036495864391326904296875">
        <ele>1001.20001220703125</ele>
        <time>2021-09-25T10:49:00.000Z</time>
      </trkpt>
      <trkpt lat="40.4295324347913265228271484375" lon="-1.22108177281916141510009765625">
        <ele>1001.4000244140625</ele>
        <time>2021-09-25T10:49:02.000Z</time>
      </trkpt>
      <trkpt lat="40.429481305181980133056640625" lon="-1.2210422940552234649658203125">
        <ele>1001.79998779296875</ele>
        <time>2021-09-25T10:49:04.000Z</time>
      </trkpt>
      <trkpt lat="40.42945557273924350738525390625" lon="-1.221012286841869354248046875">
        <ele>1002</ele>
        <time>2021-09-25T10:49:05.000Z</time>
      </trkpt>
      <trkpt lat="40.42942665517330169677734375" lon="-1.22097465209662914276123046875">
        <ele>1002.20001220703125</ele>
        <time>2021-09-25T10:49:06.000Z</time>
      </trkpt>
      <trkpt lat="40.42937778867781162261962890625" lon="-1.22088748030364513397216796875">
        <ele>1002.5999755859375</ele>
        <time>2021-09-25T10:49:08.000Z</time>
      </trkpt>
      <trkpt lat="40.4293295927345752716064453125" lon="-1.22080114670097827911376953125">
        <ele>1002.79998779296875</ele>
        <time>2021-09-25T10:49:10.000Z</time>
      </trkpt>
      <trkpt lat="40.4293034411966800689697265625" lon="-1.2207549624145030975341796875">
        <ele>1003</ele>
        <time>2021-09-25T10:49:11.000Z</time>
      </trkpt>
      <trkpt lat="40.42927779257297515869140625" lon="-1.22070827521383762359619140625">
        <ele>1003</ele>
        <time>2021-09-25T10:49:12.000Z</time>
      </trkpt>
      <trkpt lat="40.42922456748783588409423828125" lon="-1.2206138111650943756103515625">
        <ele>1003.20001220703125</ele>
        <time>2021-09-25T10:49:14.000Z</time>
      </trkpt>
      <trkpt lat="40.42917461134493350982666015625" lon="-1.220517419278621673583984375">
        <ele>1003.79998779296875</ele>
        <time>2021-09-25T10:49:16.000Z</time>
      </trkpt>
      <trkpt lat="40.42911954224109649658203125" lon="-1.22042614035308361053466796875">
        <ele>1003.5999755859375</ele>
        <time>2021-09-25T10:49:18.000Z</time>
      </trkpt>
      <trkpt lat="40.4290643893182277679443359375" lon="-1.22032958082854747772216796875">
        <ele>1002.79998779296875</ele>
        <time>2021-09-25T10:49:20.000Z</time>
      </trkpt>
      <trkpt lat="40.42901233769953250885009765625" lon="-1.22022874653339385986328125">
        <ele>1002.20001220703125</ele>
        <time>2021-09-25T10:49:22.000Z</time>
      </trkpt>
      <trkpt lat="40.42895986698567867279052734375" lon="-1.22012975625693798065185546875">
        <ele>1001.20001220703125</ele>
        <time>2021-09-25T10:49:24.000Z</time>
      </trkpt>
      <trkpt lat="40.42890496551990509033203125" lon="-1.22004006989300251007080078125">
        <ele>1001</ele>
        <time>2021-09-25T10:49:26.000Z</time>
      </trkpt>
      <trkpt lat="40.4288608767092227935791015625" lon="-1.2199452705681324005126953125">
        <ele>1001</ele>
        <time>2021-09-25T10:49:28.000Z</time>
      </trkpt>
      <trkpt lat="40.42881452478468418121337890625" lon="-1.21985667385160923004150390625">
        <ele>1000.79998779296875</ele>
        <time>2021-09-25T10:49:30.000Z</time>
      </trkpt>
      <trkpt lat="40.4287659935653209686279296875" lon="-1.219771094620227813720703125">
        <ele>1000.4000244140625</ele>
        <time>2021-09-25T10:49:32.000Z</time>
      </trkpt>
      <trkpt lat="40.4287157021462917327880859375" lon="-1.2196787260472774505615234375">
        <ele>1000.5999755859375</ele>
        <time>2021-09-25T10:49:34.000Z</time>
      </trkpt>
      <trkpt lat="40.4286613874137401580810546875" lon="-1.2195902131497859954833984375">
        <ele>1000.5999755859375</ele>
        <time>2021-09-25T10:49:36.000Z</time>
      </trkpt>
      <trkpt lat="40.42860615067183971405029296875" lon="-1.21950580738484859466552734375">
        <ele>1000.4000244140625</ele>
        <time>2021-09-25T10:49:38.000Z</time>
      </trkpt>
      <trkpt lat="40.4285420291125774383544921875" lon="-1.21942131780087947845458984375">
        <ele>1000.4000244140625</ele>
        <time>2021-09-25T10:49:40.000Z</time>
      </trkpt>
      <trkpt lat="40.42850908823311328887939453125" lon="-1.2193820066750049591064453125">
        <ele>1000.4000244140625</ele>
        <time>2021-09-25T10:49:41.000Z</time>
      </trkpt>
      <trkpt lat="40.4284751415252685546875" lon="-1.21934629976749420166015625">
        <ele>1000.4000244140625</ele>
        <time>2021-09-25T10:49:42.000Z</time>
      </trkpt>
      <trkpt lat="40.42840900830924510955810546875" lon="-1.21926709078252315521240234375">
        <ele>1000.20001220703125</ele>
        <time>2021-09-25T10:49:44.000Z</time>
      </trkpt>
      <trkpt lat="40.428376235067844390869140625" lon="-1.2192291207611560821533203125">
        <ele>1000.20001220703125</ele>
        <time>2021-09-25T10:49:45.000Z</time>
      </trkpt>
      <trkpt lat="40.42834438383579254150390625" lon="-1.219191066920757293701171875">
        <ele>1000.20001220703125</ele>
        <time>2021-09-25T10:49:46.000Z</time>
      </trkpt>
      <trkpt lat="40.4282820224761962890625" lon="-1.21911655180156230926513671875">
        <ele>1000.20001220703125</ele>
        <time>2021-09-25T10:49:48.000Z</time>
      </trkpt>
      <trkpt lat="40.4282168112695217132568359375" lon="-1.2190366722643375396728515625">
        <ele>1000</ele>
        <time>2021-09-25T10:49:50.000Z</time>
      </trkpt>
      <trkpt lat="40.4281537793576717376708984375" lon="-1.21895578689873218536376953125">
        <ele>1000</ele>
        <time>2021-09-25T10:49:52.000Z</time>
      </trkpt>
      <trkpt lat="40.42809284292161464691162109375" lon="-1.21887280605733394622802734375">
        <ele>999.4000244140625</ele>
        <time>2021-09-25T10:49:54.000Z</time>
      </trkpt>
      <trkpt lat="40.4280642606317996978759765625" lon="-1.2188304774463176727294921875">
        <ele>999.20001220703125</ele>
        <time>2021-09-25T10:49:55.000Z</time>
      </trkpt>
      <trkpt lat="40.42803551070392131805419921875" lon="-1.218788065016269683837890625">
        <ele>999</ele>
        <time>2021-09-25T10:49:56.000Z</time>
      </trkpt>
      <trkpt lat="40.42798236943781375885009765625" lon="-1.218706257641315460205078125">
        <ele>998.79998779296875</ele>
        <time>2021-09-25T10:49:58.000Z</time>
      </trkpt>
      <trkpt lat="40.4279338382184505462646484375" lon="-1.21861808001995086669921875">
        <ele>998.5999755859375</ele>
        <time>2021-09-25T10:50:00.000Z</time>
      </trkpt>
      <trkpt lat="40.4279086925089359283447265625" lon="-1.2185793556272983551025390625">
        <ele>998.20001220703125</ele>
        <time>2021-09-25T10:50:01.000Z</time>
      </trkpt>
      <trkpt lat="40.4278822056949138641357421875" lon="-1.21853602118790149688720703125">
        <ele>998</ele>
        <time>2021-09-25T10:50:02.000Z</time>
      </trkpt>
      <trkpt lat="40.42783132754266262054443359375" lon="-1.21845304034650325775146484375">
        <ele>997.79998779296875</ele>
        <time>2021-09-25T10:50:04.000Z</time>
      </trkpt>
      <trkpt lat="40.427782796323299407958984375" lon="-1.2183572351932525634765625">
        <ele>997.20001220703125</ele>
        <time>2021-09-25T10:50:06.000Z</time>
      </trkpt>
      <trkpt lat="40.4277625121176242828369140625" lon="-1.218309961259365081787109375">
        <ele>997</ele>
        <time>2021-09-25T10:50:07.000Z</time>
      </trkpt>
      <trkpt lat="40.4277430661022663116455078125" lon="-1.218260340392589569091796875">
        <ele>997</ele>
        <time>2021-09-25T10:50:08.000Z</time>
      </trkpt>
      <trkpt lat="40.42771398089826107025146484375" lon="-1.2181555666029453277587890625">
        <ele>998</ele>
        <time>2021-09-25T10:50:10.000Z</time>
      </trkpt>
      <trkpt lat="40.42768799699842929840087890625" lon="-1.218043752014636993408203125">
        <ele>999</ele>
        <time>2021-09-25T10:50:12.000Z</time>
      </trkpt>
      <trkpt lat="40.4276733286678791046142578125" lon="-1.217929422855377197265625">
        <ele>999.20001220703125</ele>
        <time>2021-09-25T10:50:14.000Z</time>
      </trkpt>
      <trkpt lat="40.4276615940034389495849609375" lon="-1.21782456524670124053955078125">
        <ele>999.5999755859375</ele>
        <time>2021-09-25T10:50:16.000Z</time>
      </trkpt>
      <trkpt lat="40.4276512004435062408447265625" lon="-1.2177242338657379150390625">
        <ele>999.5999755859375</ele>
        <time>2021-09-25T10:50:18.000Z</time>
      </trkpt>
      <trkpt lat="40.42764323763549327850341796875" lon="-1.217632032930850982666015625">
        <ele>999.79998779296875</ele>
        <time>2021-09-25T10:50:20.000Z</time>
      </trkpt>
      <trkpt lat="40.42764055542647838592529296875" lon="-1.21757964603602886199951171875">
        <ele>1000</ele>
        <time>2021-09-25T10:50:21.000Z</time>
      </trkpt>
      <trkpt lat="40.4276382923126220703125" lon="-1.21752600185573101043701171875">
        <ele>1000.20001220703125</ele>
        <time>2021-09-25T10:50:22.000Z</time>
      </trkpt>
      <trkpt lat="40.4276314191520214080810546875" lon="-1.21747470460832118988037109375">
        <ele>1000</ele>
        <time>2021-09-25T10:50:23.000Z</time>
      </trkpt>
      <trkpt lat="40.42762127704918384552001953125" lon="-1.21742625720798969268798828125">
        <ele>1000</ele>
        <time>2021-09-25T10:50:24.000Z</time>
      </trkpt>
      <trkpt lat="40.42758674360811710357666015625" lon="-1.2173391692340373992919921875">
        <ele>999.79998779296875</ele>
        <time>2021-09-25T10:50:26.000Z</time>
      </trkpt>
      <trkpt lat="40.4275403916835784912109375" lon="-1.21725409291684627532958984375">
        <ele>999.79998779296875</ele>
        <time>2021-09-25T10:50:28.000Z</time>
      </trkpt>
      <trkpt lat="40.42747073806822299957275390625" lon="-1.21718636713922023773193359375">
        <ele>999.79998779296875</ele>
        <time>2021-09-25T10:50:30.000Z</time>
      </trkpt>
      <trkpt lat="40.427430085837841033935546875" lon="-1.21715988032519817352294921875">
        <ele>999.79998779296875</ele>
        <time>2021-09-25T10:50:31.000Z</time>
      </trkpt>
      <trkpt lat="40.42738926596939563751220703125" lon="-1.2171386741101741790771484375">
        <ele>999.5999755859375</ele>
        <time>2021-09-25T10:50:32.000Z</time>
      </trkpt>
      <trkpt lat="40.4273058660328388214111328125" lon="-1.21710103936493396759033203125">
        <ele>999.4000244140625</ele>
        <time>2021-09-25T10:50:34.000Z</time>
      </trkpt>
      <trkpt lat="40.42722363956272602081298828125" lon="-1.21705812402069568634033203125">
        <ele>999</ele>
        <time>2021-09-25T10:50:36.000Z</time>
      </trkpt>
      <trkpt lat="40.4271831549704074859619140625" lon="-1.21703716926276683807373046875">
        <ele>999</ele>
        <time>2021-09-25T10:50:37.000Z</time>
      </trkpt>
      <trkpt lat="40.42714300565421581268310546875" lon="-1.217013783752918243408203125">
        <ele>999.20001220703125</ele>
        <time>2021-09-25T10:50:38.000Z</time>
      </trkpt>
      <trkpt lat="40.427061617374420166015625" lon="-1.216969527304172515869140625">
        <ele>999.4000244140625</ele>
        <time>2021-09-25T10:50:40.000Z</time>
      </trkpt>
      <trkpt lat="40.426980815827846527099609375" lon="-1.2169264443218708038330078125">
        <ele>999.20001220703125</ele>
        <time>2021-09-25T10:50:42.000Z</time>
      </trkpt>
      <trkpt lat="40.42689624242484569549560546875" lon="-1.21688378043472766876220703125">
        <ele>999.20001220703125</ele>
        <time>2021-09-25T10:50:44.000Z</time>
      </trkpt>
      <trkpt lat="40.42685248889029026031494140625" lon="-1.21686466969549655914306640625">
        <ele>999.20001220703125</ele>
        <time>2021-09-25T10:50:45.000Z</time>
      </trkpt>
      <trkpt lat="40.42680890299379825592041015625" lon="-1.2168449722230434417724609375">
        <ele>999.4000244140625</ele>
        <time>2021-09-25T10:50:46.000Z</time>
      </trkpt>
      <trkpt lat="40.4267134331166744232177734375" lon="-1.21680884622037410736083984375">
        <ele>999.79998779296875</ele>
        <time>2021-09-25T10:50:48.000Z</time>
      </trkpt>
      <trkpt lat="40.42661570012569427490234375" lon="-1.21678118593990802764892578125">
        <ele>1000.4000244140625</ele>
        <time>2021-09-25T10:50:50.000Z</time>
      </trkpt>
      <trkpt lat="40.42656767182052135467529296875" lon="-1.21677137911319732666015625">
        <ele>1000.4000244140625</ele>
        <time>2021-09-25T10:50:51.000Z</time>
      </trkpt>
      <trkpt lat="40.42651905678212642669677734375" lon="-1.2167698703706264495849609375">
        <ele>1000.4000244140625</ele>
        <time>2021-09-25T10:50:52.000Z</time>
      </trkpt>
      <trkpt lat="40.42642702348530292510986328125" lon="-1.216770708560943603515625">
        <ele>1000.4000244140625</ele>
        <time>2021-09-25T10:50:54.000Z</time>
      </trkpt>
      <trkpt lat="40.426339097321033477783203125" lon="-1.21677867136895656585693359375">
        <ele>1000.20001220703125</ele>
        <time>2021-09-25T10:50:56.000Z</time>
      </trkpt>
      <trkpt lat="40.4262544400990009307861328125" lon="-1.21678990311920642852783203125">
        <ele>999.79998779296875</ele>
        <time>2021-09-25T10:50:58.000Z</time>
      </trkpt>
      <trkpt lat="40.42621261440217494964599609375" lon="-1.216792501509189605712890625">
        <ele>999.79998779296875</ele>
        <time>2021-09-25T10:50:59.000Z</time>
      </trkpt>
      <trkpt lat="40.4261706210672855377197265625" lon="-1.21678671799600124359130859375">
        <ele>999.5999755859375</ele>
        <time>2021-09-25T10:51:00.000Z</time>
      </trkpt>
      <trkpt lat="40.4260955192148685455322265625" lon="-1.21675662696361541748046875">
        <ele>999.4000244140625</ele>
        <time>2021-09-25T10:51:02.000Z</time>
      </trkpt>
      <trkpt lat="40.4260334931313991546630859375" lon="-1.21669418178498744964599609375">
        <ele>1000</ele>
        <time>2021-09-25T10:51:04.000Z</time>
      </trkpt>
      <trkpt lat="40.4259872250258922576904296875" lon="-1.2166102789342403411865234375">
        <ele>1000.4000244140625</ele>
        <time>2021-09-25T10:51:06.000Z</time>
      </trkpt>
      <trkpt lat="40.42596903629601001739501953125" lon="-1.2165120430290699005126953125">
        <ele>1000.4000244140625</ele>
        <time>2021-09-25T10:51:08.000Z</time>
      </trkpt>
      <trkpt lat="40.42597222141921520233154296875" lon="-1.21642327867448329925537109375">
        <ele>1000.4000244140625</ele>
        <time>2021-09-25T10:51:10.000Z</time>
      </trkpt>
      <trkpt lat="40.425987057387828826904296875" lon="-1.2163460813462734222412109375">
        <ele>1000.4000244140625</ele>
        <time>2021-09-25T10:51:12.000Z</time>
      </trkpt>
      <trkpt lat="40.4259976185858249664306640625" lon="-1.2163115479052066802978515625">
        <ele>1000.4000244140625</ele>
        <time>2021-09-25T10:51:13.000Z</time>
      </trkpt>
      <trkpt lat="40.42600742541253566741943359375" lon="-1.21627642773091793060302734375">
        <ele>1000.20001220703125</ele>
        <time>2021-09-25T10:51:14.000Z</time>
      </trkpt>
      <trkpt lat="40.42602469213306903839111328125" lon="-1.2162101268768310546875">
        <ele>1000.20001220703125</ele>
        <time>2021-09-25T10:51:16.000Z</time>
      </trkpt>
      <trkpt lat="40.42604212649166584014892578125" lon="-1.21615220792591571807861328125">
        <ele>1000.20001220703125</ele>
        <time>2021-09-25T10:51:18.000Z</time>
      </trkpt>
      <trkpt lat="40.42605511844158172607421875" lon="-1.21609420515596866607666015625">
        <ele>1000.20001220703125</ele>
        <time>2021-09-25T10:51:20.000Z</time>
      </trkpt>
      <trkpt lat="40.42606224305927753448486328125" lon="-1.21606989763677120208740234375">
        <ele>1000.20001220703125</ele>
        <time>2021-09-25T10:51:21.000Z</time>
      </trkpt>
      <trkpt lat="40.4260703735053539276123046875" lon="-1.21604718267917633056640625">
        <ele>1000</ele>
        <time>2021-09-25T10:51:22.000Z</time>
      </trkpt>
      <trkpt lat="40.42608705349266529083251953125" lon="-1.21601097285747528076171875">
        <ele>1000</ele>
        <time>2021-09-25T10:51:24.000Z</time>
      </trkpt>
      <trkpt lat="40.42610834352672100067138671875" lon="-1.21596462093293666839599609375">
        <ele>1000</ele>
        <time>2021-09-25T10:51:26.000Z</time>
      </trkpt>
      <trkpt lat="40.4261199943721294403076171875" lon="-1.21593561954796314239501953125">
        <ele>1000</ele>
        <time>2021-09-25T10:51:27.000Z</time>
      </trkpt>
      <trkpt lat="40.42613558471202850341796875" lon="-1.215907372534275054931640625">
        <ele>1000</ele>
        <time>2021-09-25T10:51:28.000Z</time>
      </trkpt>
      <trkpt lat="40.4261622391641139984130859375" lon="-1.21584610082209110260009765625">
        <ele>1000</ele>
        <time>2021-09-25T10:51:30.000Z</time>
      </trkpt>
      <trkpt lat="40.42617053724825382232666015625" lon="-1.2157838232815265655517578125">
        <ele>1000</ele>
        <time>2021-09-25T10:51:32.000Z</time>
      </trkpt>
      <trkpt lat="40.4261682741343975067138671875" lon="-1.21572607196867465972900390625">
        <ele>999.79998779296875</ele>
        <time>2021-09-25T10:51:34.000Z</time>
      </trkpt>
      <trkpt lat="40.42616366408765316009521484375" lon="-1.21566790156066417694091796875">
        <ele>999.79998779296875</ele>
        <time>2021-09-25T10:51:36.000Z</time>
      </trkpt>
      <trkpt lat="40.4261608980596065521240234375" lon="-1.2156428396701812744140625">
        <ele>999.79998779296875</ele>
        <time>2021-09-25T10:51:37.000Z</time>
      </trkpt>
      <trkpt lat="40.42615234851837158203125" lon="-1.215620376169681549072265625">
        <ele>1000</ele>
        <time>2021-09-25T10:51:38.000Z</time>
      </trkpt>
      <trkpt lat="40.4261364229023456573486328125" lon="-1.21557435952126979827880859375">
        <ele>1000.4000244140625</ele>
        <time>2021-09-25T10:51:40.000Z</time>
      </trkpt>
      <trkpt lat="40.426121167838573455810546875" lon="-1.21552876196801662445068359375">
        <ele>1000.5999755859375</ele>
        <time>2021-09-25T10:51:42.000Z</time>
      </trkpt>
      <trkpt lat="40.42609493248164653778076171875" lon="-1.21549171395599842071533203125">
        <ele>1001</ele>
        <time>2021-09-25T10:51:44.000Z</time>
      </trkpt>
      <trkpt lat="40.4260784201323986053466796875" lon="-1.2154760397970676422119140625">
        <ele>1001</ele>
        <time>2021-09-25T10:51:45.000Z</time>
      </trkpt>
      <trkpt lat="40.4260636679828166961669921875" lon="-1.21546606533229351043701171875">
        <ele>1001</ele>
        <time>2021-09-25T10:51:46.000Z</time>
      </trkpt>
      <trkpt lat="40.42604497633874416351318359375" lon="-1.21546153910458087921142578125">
        <ele>1000.79998779296875</ele>
        <time>2021-09-25T10:51:48.000Z</time>
      </trkpt>
      <trkpt lat="40.42604497633874416351318359375" lon="-1.21546153910458087921142578125">
        <ele>1000.79998779296875</ele>
        <time>2021-09-25T10:51:49.000Z</time>
      </trkpt>
      <trkpt lat="40.42602133937180042266845703125" lon="-1.2154451943933963775634765625">
        <ele>1000.79998779296875</ele>
        <time>2021-09-25T10:52:36.000Z</time>
      </trkpt>
      <trkpt lat="40.4260075092315673828125" lon="-1.21543907560408115386962890625">
        <ele>1000.79998779296875</ele>
        <time>2021-09-25T10:52:37.000Z</time>
      </trkpt>
      <trkpt lat="40.42598848231136798858642578125" lon="-1.2154364772140979766845703125">
        <ele>1000.5999755859375</ele>
        <time>2021-09-25T10:52:38.000Z</time>
      </trkpt>
      <trkpt lat="40.42594514787197113037109375" lon="-1.21543589048087596893310546875">
        <ele>1000.4000244140625</ele>
        <time>2021-09-25T10:52:40.000Z</time>
      </trkpt>
      <trkpt lat="40.42591941542923450469970703125" lon="-1.21543538756668567657470703125">
        <ele>1000.4000244140625</ele>
        <time>2021-09-25T10:52:41.000Z</time>
      </trkpt>
      <trkpt lat="40.425894521176815032958984375" lon="-1.21543974615633487701416015625">
        <ele>1000.20001220703125</ele>
        <time>2021-09-25T10:52:42.000Z</time>
      </trkpt>
      <trkpt lat="40.4258671961724758148193359375" lon="-1.21545081026852130889892578125">
        <ele>1000.20001220703125</ele>
        <time>2021-09-25T10:52:43.000Z</time>
      </trkpt>
      <trkpt lat="40.42583693750202655792236328125" lon="-1.2154683284461498260498046875">
        <ele>1000</ele>
        <time>2021-09-25T10:52:44.000Z</time>
      </trkpt>
      <trkpt lat="40.4257729835808277130126953125" lon="-1.21550680138170719146728515625">
        <ele>1000.20001220703125</ele>
        <time>2021-09-25T10:52:46.000Z</time>
      </trkpt>
      <trkpt lat="40.4256923496723175048828125" lon="-1.2155454419553279876708984375">
        <ele>1000.20001220703125</ele>
        <time>2021-09-25T10:52:48.000Z</time>
      </trkpt>
      <trkpt lat="40.42559587396681308746337890625" lon="-1.21557720936834812164306640625">
        <ele>1000.4000244140625</ele>
        <time>2021-09-25T10:52:50.000Z</time>
      </trkpt>
      <trkpt lat="40.42554390616714954376220703125" lon="-1.215589530766010284423828125">
        <ele>1000.4000244140625</ele>
        <time>2021-09-25T10:52:51.000Z</time>
      </trkpt>
      <trkpt lat="40.42548774741590023040771484375" lon="-1.21559430845081806182861328125">
        <ele>1000.20001220703125</ele>
        <time>2021-09-25T10:52:52.000Z</time>
      </trkpt>
      <trkpt lat="40.42543024756014347076416015625" lon="-1.21559380553662776947021484375">
        <ele>1000</ele>
        <time>2021-09-25T10:52:53.000Z</time>
      </trkpt>
      <trkpt lat="40.42537157423794269561767578125" lon="-1.21558450162410736083984375">
        <ele>1000</ele>
        <time>2021-09-25T10:52:54.000Z</time>
      </trkpt>
      <trkpt lat="40.425248444080352783203125" lon="-1.2155471183359622955322265625">
        <ele>1000</ele>
        <time>2021-09-25T10:52:56.000Z</time>
      </trkpt>
      <trkpt lat="40.4251242242753505706787109375" lon="-1.21549422852694988250732421875">
        <ele>1000</ele>
        <time>2021-09-25T10:52:58.000Z</time>
      </trkpt>
      <trkpt lat="40.42506194673478603363037109375" lon="-1.21547042392194271087646484375">
        <ele>1000</ele>
        <time>2021-09-25T10:52:59.000Z</time>
      </trkpt>
      <trkpt lat="40.424999333918094635009765625" lon="-1.2154418416321277618408203125">
        <ele>1000</ele>
        <time>2021-09-25T10:53:00.000Z</time>
      </trkpt>
      <trkpt lat="40.42487385682761669158935546875" lon="-1.2153905443847179412841796875">
        <ele>1001</ele>
        <time>2021-09-25T10:53:02.000Z</time>
      </trkpt>
      <trkpt lat="40.42475097812712192535400390625" lon="-1.215347461402416229248046875">
        <ele>1002.20001220703125</ele>
        <time>2021-09-25T10:53:04.000Z</time>
      </trkpt>
      <trkpt lat="40.42463514022529125213623046875" lon="-1.2152963317930698394775390625">
        <ele>1003.20001220703125</ele>
        <time>2021-09-25T10:53:06.000Z</time>
      </trkpt>
      <trkpt lat="40.42451879940927028656005859375" lon="-1.215242184698581695556640625">
        <ele>1003.20001220703125</ele>
        <time>2021-09-25T10:53:08.000Z</time>
      </trkpt>
      <trkpt lat="40.42439977638423442840576171875" lon="-1.21520631015300750732421875">
        <ele>1003</ele>
        <time>2021-09-25T10:53:10.000Z</time>
      </trkpt>
      <trkpt lat="40.42428745888173580169677734375" lon="-1.21517286635935306549072265625">
        <ele>1003</ele>
        <time>2021-09-25T10:53:12.000Z</time>
      </trkpt>
      <trkpt lat="40.424191318452358245849609375" lon="-1.21516850776970386505126953125">
        <ele>1002.79998779296875</ele>
        <time>2021-09-25T10:53:14.000Z</time>
      </trkpt>
      <trkpt lat="40.4241016320884227752685546875" lon="-1.21517303399741649627685546875">
        <ele>1002.79998779296875</ele>
        <time>2021-09-25T10:53:16.000Z</time>
      </trkpt>
      <trkpt lat="40.42405762709677219390869140625" lon="-1.21517403982579708099365234375">
        <ele>1002.5999755859375</ele>
        <time>2021-09-25T10:53:17.000Z</time>
      </trkpt>
      <trkpt lat="40.42401538230478763580322265625" lon="-1.21517202816903591156005859375">
        <ele>1002.4000244140625</ele>
        <time>2021-09-25T10:53:18.000Z</time>
      </trkpt>
      <trkpt lat="40.42397581972181797027587890625" lon="-1.2151645682752132415771484375">
        <ele>1002.20001220703125</ele>
        <time>2021-09-25T10:53:19.000Z</time>
      </trkpt>
      <trkpt lat="40.423941873013973236083984375" lon="-1.21514654718339443206787109375">
        <ele>1002</ele>
        <time>2021-09-25T10:53:20.000Z</time>
      </trkpt>
      <trkpt lat="40.42387641035020351409912109375" lon="-1.21509474702179431915283203125">
        <ele>1002.4000244140625</ele>
        <time>2021-09-25T10:53:22.000Z</time>
      </trkpt>
      <trkpt lat="40.42381572537124156951904296875" lon="-1.21502266265451908111572265625">
        <ele>1003</ele>
        <time>2021-09-25T10:53:24.000Z</time>
      </trkpt>
      <trkpt lat="40.42375202290713787078857421875" lon="-1.2149481475353240966796875">
        <ele>1003.4000244140625</ele>
        <time>2021-09-25T10:53:26.000Z</time>
      </trkpt>
      <trkpt lat="40.42368781752884387969970703125" lon="-1.2148703634738922119140625">
        <ele>1003.79998779296875</ele>
        <time>2021-09-25T10:53:28.000Z</time>
      </trkpt>
      <trkpt lat="40.4236238636076450347900390625" lon="-1.2147957645356655120849609375">
        <ele>1004.4000244140625</ele>
        <time>2021-09-25T10:53:30.000Z</time>
      </trkpt>
      <trkpt lat="40.4235613346099853515625" lon="-1.21472041122615337371826171875">
        <ele>1004.79998779296875</ele>
        <time>2021-09-25T10:53:32.000Z</time>
      </trkpt>
      <trkpt lat="40.423495285212993621826171875" lon="-1.21464908123016357421875">
        <ele>1005</ele>
        <time>2021-09-25T10:53:34.000Z</time>
      </trkpt>
      <trkpt lat="40.4234327562153339385986328125" lon="-1.21457322500646114349365234375">
        <ele>1005</ele>
        <time>2021-09-25T10:53:36.000Z</time>
      </trkpt>
      <trkpt lat="40.42336796410381793975830078125" lon="-1.21449845843017101287841796875">
        <ele>1005</ele>
        <time>2021-09-25T10:53:38.000Z</time>
      </trkpt>
      <trkpt lat="40.42333359830081462860107421875" lon="-1.2144611589610576629638671875">
        <ele>1005</ele>
        <time>2021-09-25T10:53:39.000Z</time>
      </trkpt>
      <trkpt lat="40.42329973541200160980224609375" lon="-1.21442117728292942047119140625">
        <ele>1005</ele>
        <time>2021-09-25T10:53:40.000Z</time>
      </trkpt>
      <trkpt lat="40.4232312552630901336669921875" lon="-1.21434339322149753570556640625">
        <ele>1005</ele>
        <time>2021-09-25T10:53:42.000Z</time>
      </trkpt>
      <trkpt lat="40.42316436767578125" lon="-1.21426845900714397430419921875">
        <ele>1005</ele>
        <time>2021-09-25T10:53:44.000Z</time>
      </trkpt>
      <trkpt lat="40.4230986535549163818359375" lon="-1.214188076555728912353515625">
        <ele>1005</ele>
        <time>2021-09-25T10:53:46.000Z</time>
      </trkpt>
      <trkpt lat="40.4230327717959880828857421875" lon="-1.2141112983226776123046875">
        <ele>1005</ele>
        <time>2021-09-25T10:53:48.000Z</time>
      </trkpt>
      <trkpt lat="40.42299815453588962554931640625" lon="-1.21407215483486652374267578125">
        <ele>1005</ele>
        <time>2021-09-25T10:53:49.000Z</time>
      </trkpt>
      <trkpt lat="40.422963537275791168212890625" lon="-1.2140340171754360198974609375">
        <ele>1005</ele>
        <time>2021-09-25T10:53:50.000Z</time>
      </trkpt>
      <trkpt lat="40.42289606295526027679443359375" lon="-1.21395681984722614288330078125">
        <ele>1005</ele>
        <time>2021-09-25T10:53:52.000Z</time>
      </trkpt>
      <trkpt lat="40.42282976210117340087890625" lon="-1.21388188563287258148193359375">
        <ele>1005</ele>
        <time>2021-09-25T10:53:54.000Z</time>
      </trkpt>
      <trkpt lat="40.42276212014257907867431640625" lon="-1.2138033472001552581787109375">
        <ele>1005</ele>
        <time>2021-09-25T10:53:56.000Z</time>
      </trkpt>
      <trkpt lat="40.4226941429078578948974609375" lon="-1.2137223780155181884765625">
        <ele>1004.20001220703125</ele>
        <time>2021-09-25T10:53:58.000Z</time>
      </trkpt>
      <trkpt lat="40.42262515984475612640380859375" lon="-1.21364593505859375">
        <ele>1003.5999755859375</ele>
        <time>2021-09-25T10:54:00.000Z</time>
      </trkpt>
      <trkpt lat="40.4225568473339080810546875" lon="-1.21357074938714504241943359375">
        <ele>1003.20001220703125</ele>
        <time>2021-09-25T10:54:02.000Z</time>
      </trkpt>
      <trkpt lat="40.4224936477839946746826171875" lon="-1.21349330060184001922607421875">
        <ele>1003</ele>
        <time>2021-09-25T10:54:04.000Z</time>
      </trkpt>
      <trkpt lat="40.42246137745678424835205078125" lon="-1.2134556658565998077392578125">
        <ele>1003</ele>
        <time>2021-09-25T10:54:05.000Z</time>
      </trkpt>
      <trkpt lat="40.4224296100437641143798828125" lon="-1.21341635473072528839111328125">
        <ele>1003</ele>
        <time>2021-09-25T10:54:06.000Z</time>
      </trkpt>
      <trkpt lat="40.42236230336129665374755859375" lon="-1.2133413366973400115966796875">
        <ele>1002.79998779296875</ele>
        <time>2021-09-25T10:54:08.000Z</time>
      </trkpt>
      <trkpt lat="40.42229558341205120086669921875" lon="-1.21326212771236896514892578125">
        <ele>1002.4000244140625</ele>
        <time>2021-09-25T10:54:10.000Z</time>
      </trkpt>
      <trkpt lat="40.4222267679870128631591796875" lon="-1.21318350546061992645263671875">
        <ele>1002</ele>
        <time>2021-09-25T10:54:12.000Z</time>
      </trkpt>
      <trkpt lat="40.4221590422093868255615234375" lon="-1.2131056375801563262939453125">
        <ele>1002.20001220703125</ele>
        <time>2021-09-25T10:54:14.000Z</time>
      </trkpt>
      <trkpt lat="40.42209483683109283447265625" lon="-1.21302307583391666412353515625">
        <ele>1002.20001220703125</ele>
        <time>2021-09-25T10:54:16.000Z</time>
      </trkpt>
      <trkpt lat="40.42202803306281566619873046875" lon="-1.212941519916057586669921875">
        <ele>1001.79998779296875</ele>
        <time>2021-09-25T10:54:18.000Z</time>
      </trkpt>
      <trkpt lat="40.42196114547550678253173828125" lon="-1.2128632329404354095458984375">
        <ele>1001.5999755859375</ele>
        <time>2021-09-25T10:54:20.000Z</time>
      </trkpt>
      <trkpt lat="40.421897359192371368408203125" lon="-1.21278704144060611724853515625">
        <ele>1001.4000244140625</ele>
        <time>2021-09-25T10:54:22.000Z</time>
      </trkpt>
      <trkpt lat="40.4218338243663311004638671875" lon="-1.21271177195012569427490234375">
        <ele>1001</ele>
        <time>2021-09-25T10:54:24.000Z</time>
      </trkpt>
      <trkpt lat="40.42177054099738597869873046875" lon="-1.21263683773577213287353515625">
        <ele>1000.79998779296875</ele>
        <time>2021-09-25T10:54:26.000Z</time>
      </trkpt>
      <trkpt lat="40.4217074252665042877197265625" lon="-1.2125557847321033477783203125">
        <ele>1000.4000244140625</ele>
        <time>2021-09-25T10:54:28.000Z</time>
      </trkpt>
      <trkpt lat="40.42163693346083164215087890625" lon="-1.212478168308734893798828125">
        <ele>1000.20001220703125</ele>
        <time>2021-09-25T10:54:30.000Z</time>
      </trkpt>
      <trkpt lat="40.42156266979873180389404296875" lon="-1.21240415610373020172119140625">
        <ele>1000.5999755859375</ele>
        <time>2021-09-25T10:54:32.000Z</time>
      </trkpt>
      <trkpt lat="40.4214945249259471893310546875" lon="-1.2123267911374568939208984375">
        <ele>1001</ele>
        <time>2021-09-25T10:54:34.000Z</time>
      </trkpt>
      <trkpt lat="40.42145940475165843963623046875" lon="-1.21228530071675777435302734375">
        <ele>1001.20001220703125</ele>
        <time>2021-09-25T10:54:35.000Z</time>
      </trkpt>
      <trkpt lat="40.42142503894865512847900390625" lon="-1.212246157228946685791015625">
        <ele>1001.20001220703125</ele>
        <time>2021-09-25T10:54:36.000Z</time>
      </trkpt>
      <trkpt lat="40.4213597439229488372802734375" lon="-1.21216678060591220855712890625">
        <ele>1001</ele>
        <time>2021-09-25T10:54:38.000Z</time>
      </trkpt>
      <trkpt lat="40.4212935268878936767578125" lon="-1.21209067292511463165283203125">
        <ele>1001.4000244140625</ele>
        <time>2021-09-25T10:54:40.000Z</time>
      </trkpt>
      <trkpt lat="40.4212266393005847930908203125" lon="-1.21201205067336559295654296875">
        <ele>1002</ele>
        <time>2021-09-25T10:54:42.000Z</time>
      </trkpt>
      <trkpt lat="40.42115765623748302459716796875" lon="-1.21193896047770977020263671875">
        <ele>1002</ele>
        <time>2021-09-25T10:54:44.000Z</time>
      </trkpt>
      <trkpt lat="40.42112563736736774444580078125" lon="-1.2119026668369770050048828125">
        <ele>1002</ele>
        <time>2021-09-25T10:54:45.000Z</time>
      </trkpt>
      <trkpt lat="40.42109278030693531036376953125" lon="-1.21186695992946624755859375">
        <ele>1002</ele>
        <time>2021-09-25T10:54:46.000Z</time>
      </trkpt>
      <trkpt lat="40.42106109671294689178466796875" lon="-1.21182546950876712799072265625">
        <ele>1001.79998779296875</ele>
        <time>2021-09-25T10:54:47.000Z</time>
      </trkpt>
      <trkpt lat="40.42103025130927562713623046875" lon="-1.21178624220192432403564453125">
        <ele>1001.79998779296875</ele>
        <time>2021-09-25T10:54:48.000Z</time>
      </trkpt>
      <trkpt lat="40.42096487246453762054443359375" lon="-1.21170862577855587005615234375">
        <ele>1001.5999755859375</ele>
        <time>2021-09-25T10:54:50.000Z</time>
      </trkpt>
      <trkpt lat="40.420930422842502593994140625" lon="-1.21167090721428394317626953125">
        <ele>1001.4000244140625</ele>
        <time>2021-09-25T10:54:51.000Z</time>
      </trkpt>
      <trkpt lat="40.42089832015335559844970703125" lon="-1.211631596088409423828125">
        <ele>1001.4000244140625</ele>
        <time>2021-09-25T10:54:52.000Z</time>
      </trkpt>
      <trkpt lat="40.4208320192992687225341796875" lon="-1.2115539796650409698486328125">
        <ele>1001</ele>
        <time>2021-09-25T10:54:54.000Z</time>
      </trkpt>
      <trkpt lat="40.42076471261680126190185546875" lon="-1.21147225610911846160888671875">
        <ele>1000.79998779296875</ele>
        <time>2021-09-25T10:54:56.000Z</time>
      </trkpt>
      <trkpt lat="40.4206975735723972320556640625" lon="-1.2113863416016101837158203125">
        <ele>1000.5999755859375</ele>
        <time>2021-09-25T10:54:58.000Z</time>
      </trkpt>
      <trkpt lat="40.420629680156707763671875" lon="-1.21130227111279964447021484375">
        <ele>1000.4000244140625</ele>
        <time>2021-09-25T10:55:00.000Z</time>
      </trkpt>
      <trkpt lat="40.42055851779878139495849609375" lon="-1.2112220562994480133056640625">
        <ele>1000.5999755859375</ele>
        <time>2021-09-25T10:55:02.000Z</time>
      </trkpt>
      <trkpt lat="40.42048525996506214141845703125" lon="-1.211139746010303497314453125">
        <ele>1000.79998779296875</ele>
        <time>2021-09-25T10:55:04.000Z</time>
      </trkpt>
      <trkpt lat="40.420415103435516357421875" lon="-1.2110597826540470123291015625">
        <ele>1000.5999755859375</ele>
        <time>2021-09-25T10:55:06.000Z</time>
      </trkpt>
      <trkpt lat="40.420342348515987396240234375" lon="-1.2109796516597270965576171875">
        <ele>1000</ele>
        <time>2021-09-25T10:55:08.000Z</time>
      </trkpt>
      <trkpt lat="40.42026733048260211944580078125" lon="-1.21089675463736057281494140625">
        <ele>999.5999755859375</ele>
        <time>2021-09-25T10:55:10.000Z</time>
      </trkpt>
      <trkpt lat="40.42019843123853206634521484375" lon="-1.21080907993018627166748046875">
        <ele>1000</ele>
        <time>2021-09-25T10:55:12.000Z</time>
      </trkpt>
      <trkpt lat="40.42012819088995456695556640625" lon="-1.2107204832136631011962890625">
        <ele>1000</ele>
        <time>2021-09-25T10:55:14.000Z</time>
      </trkpt>
      <trkpt lat="40.42005862109363079071044921875" lon="-1.21063440106809139251708984375">
        <ele>999.79998779296875</ele>
        <time>2021-09-25T10:55:16.000Z</time>
      </trkpt>
      <trkpt lat="40.4199867881834506988525390625" lon="-1.210553348064422607421875">
        <ele>999.4000244140625</ele>
        <time>2021-09-25T10:55:18.000Z</time>
      </trkpt>
      <trkpt lat="40.4199130274355411529541015625" lon="-1.2104683555662631988525390625">
        <ele>999.20001220703125</ele>
        <time>2021-09-25T10:55:20.000Z</time>
      </trkpt>
      <trkpt lat="40.41983867995440959930419921875" lon="-1.210381351411342620849609375">
        <ele>999.5999755859375</ele>
        <time>2021-09-25T10:55:22.000Z</time>
      </trkpt>
      <trkpt lat="40.41976273991167545318603515625" lon="-1.2102899886667728424072265625">
        <ele>999.4000244140625</ele>
        <time>2021-09-25T10:55:24.000Z</time>
      </trkpt>
      <trkpt lat="40.41969065554440021514892578125" lon="-1.210202984511852264404296875">
        <ele>999</ele>
        <time>2021-09-25T10:55:26.000Z</time>
      </trkpt>
      <trkpt lat="40.41961186565458774566650390625" lon="-1.2101163156330585479736328125">
        <ele>999</ele>
        <time>2021-09-25T10:55:28.000Z</time>
      </trkpt>
      <trkpt lat="40.41953458450734615325927734375" lon="-1.21002973057329654693603515625">
        <ele>999</ele>
        <time>2021-09-25T10:55:30.000Z</time>
      </trkpt>
      <trkpt lat="40.41949703358113765716552734375" lon="-1.20998798869550228118896484375">
        <ele>999</ele>
        <time>2021-09-25T10:55:31.000Z</time>
      </trkpt>
      <trkpt lat="40.41945822536945343017578125" lon="-1.209942139685153961181640625">
        <ele>999</ele>
        <time>2021-09-25T10:55:32.000Z</time>
      </trkpt>
      <trkpt lat="40.41937985457479953765869140625" lon="-1.2098548002541065216064453125">
        <ele>999.20001220703125</ele>
        <time>2021-09-25T10:55:34.000Z</time>
      </trkpt>
      <trkpt lat="40.41930542327463626861572265625" lon="-1.2097666226327419281005859375">
        <ele>999.4000244140625</ele>
        <time>2021-09-25T10:55:36.000Z</time>
      </trkpt>
      <trkpt lat="40.41922847740352153778076171875" lon="-1.2096760980784893035888671875">
        <ele>999.20001220703125</ele>
        <time>2021-09-25T10:55:38.000Z</time>
      </trkpt>
      <trkpt lat="40.41915203444659709930419921875" lon="-1.20958951301872730255126953125">
        <ele>998.79998779296875</ele>
        <time>2021-09-25T10:55:40.000Z</time>
      </trkpt>
      <trkpt lat="40.41908028535544872283935546875" lon="-1.2095111422240734100341796875">
        <ele>998.5999755859375</ele>
        <time>2021-09-25T10:55:42.000Z</time>
      </trkpt>
      <trkpt lat="40.41901255957782268524169921875" lon="-1.20942824520170688629150390625">
        <ele>998.20001220703125</ele>
        <time>2021-09-25T10:55:44.000Z</time>
      </trkpt>
      <trkpt lat="40.41893695481121540069580078125" lon="-1.209337301552295684814453125">
        <ele>998</ele>
        <time>2021-09-25T10:55:46.000Z</time>
      </trkpt>
      <trkpt lat="40.4188565723598003387451171875" lon="-1.2092429213225841522216796875">
        <ele>998</ele>
        <time>2021-09-25T10:55:48.000Z</time>
      </trkpt>
      <trkpt lat="40.41877753101289272308349609375" lon="-1.20915080420672893524169921875">
        <ele>998.4000244140625</ele>
        <time>2021-09-25T10:55:50.000Z</time>
      </trkpt>
      <trkpt lat="40.4186973161995410919189453125" lon="-1.2090585194528102874755859375">
        <ele>998.5999755859375</ele>
        <time>2021-09-25T10:55:52.000Z</time>
      </trkpt>
      <trkpt lat="40.41861760430037975311279296875" lon="-1.20896573178470134735107421875">
        <ele>998.20001220703125</ele>
        <time>2021-09-25T10:55:54.000Z</time>
      </trkpt>
      <trkpt lat="40.4185383953154087066650390625" lon="-1.20886749587953090667724609375">
        <ele>997.5999755859375</ele>
        <time>2021-09-25T10:55:56.000Z</time>
      </trkpt>
      <trkpt lat="40.41846320964395999908447265625" lon="-1.20877546258270740509033203125">
        <ele>997.79998779296875</ele>
        <time>2021-09-25T10:55:58.000Z</time>
      </trkpt>
      <trkpt lat="40.418388359248638153076171875" lon="-1.20868854224681854248046875">
        <ele>997.79998779296875</ele>
        <time>2021-09-25T10:56:00.000Z</time>
      </trkpt>
      <trkpt lat="40.41831099428236484527587890625" lon="-1.20860313065350055694580078125">
        <ele>997.5999755859375</ele>
        <time>2021-09-25T10:56:02.000Z</time>
      </trkpt>
      <trkpt lat="40.41823287494480609893798828125" lon="-1.2085173837840557098388671875">
        <ele>997.79998779296875</ele>
        <time>2021-09-25T10:56:04.000Z</time>
      </trkpt>
      <trkpt lat="40.41815928183495998382568359375" lon="-1.2084265239536762237548828125">
        <ele>998.5999755859375</ele>
        <time>2021-09-25T10:56:06.000Z</time>
      </trkpt>
      <trkpt lat="40.41808359324932098388671875" lon="-1.2083336524665355682373046875">
        <ele>999</ele>
        <time>2021-09-25T10:56:08.000Z</time>
      </trkpt>
      <trkpt lat="40.4180096648633480072021484375" lon="-1.2082424573600292205810546875">
        <ele>999</ele>
        <time>2021-09-25T10:56:10.000Z</time>
      </trkpt>
      <trkpt lat="40.417934395372867584228515625" lon="-1.20815017260611057281494140625">
        <ele>999.4000244140625</ele>
        <time>2021-09-25T10:56:12.000Z</time>
      </trkpt>
      <trkpt lat="40.41785418055951595306396484375" lon="-1.20805780403316020965576171875">
        <ele>999.20001220703125</ele>
        <time>2021-09-25T10:56:14.000Z</time>
      </trkpt>
      <trkpt lat="40.41777513921260833740234375" lon="-1.20796971023082733154296875">
        <ele>999</ele>
        <time>2021-09-25T10:56:16.000Z</time>
      </trkpt>
      <trkpt lat="40.41769928298890590667724609375" lon="-1.20788077823817729949951171875">
        <ele>998.79998779296875</ele>
        <time>2021-09-25T10:56:18.000Z</time>
      </trkpt>
      <trkpt lat="40.4176200740039348602294921875" lon="-1.20779159478843212127685546875">
        <ele>998.5999755859375</ele>
        <time>2021-09-25T10:56:20.000Z</time>
      </trkpt>
      <trkpt lat="40.41754321195185184478759765625" lon="-1.20770023204386234283447265625">
        <ele>998.20001220703125</ele>
        <time>2021-09-25T10:56:22.000Z</time>
      </trkpt>
      <trkpt lat="40.41746425442397594451904296875" lon="-1.2076077796518802642822265625">
        <ele>998.20001220703125</ele>
        <time>2021-09-25T10:56:24.000Z</time>
      </trkpt>
      <trkpt lat="40.41742687113583087921142578125" lon="-1.2075598351657390594482421875">
        <ele>998.4000244140625</ele>
        <time>2021-09-25T10:56:25.000Z</time>
      </trkpt>
      <trkpt lat="40.4173883982002735137939453125" lon="-1.20751515962183475494384765625">
        <ele>998.4000244140625</ele>
        <time>2021-09-25T10:56:26.000Z</time>
      </trkpt>
      <trkpt lat="40.417310781776905059814453125" lon="-1.207424215972423553466796875">
        <ele>999</ele>
        <time>2021-09-25T10:56:28.000Z</time>
      </trkpt>
      <trkpt lat="40.4172375239431858062744140625" lon="-1.20733578689396381378173828125">
        <ele>999.4000244140625</ele>
        <time>2021-09-25T10:56:30.000Z</time>
      </trkpt>
      <trkpt lat="40.4171610809862613677978515625" lon="-1.2072486989200115203857421875">
        <ele>1000</ele>
        <time>2021-09-25T10:56:32.000Z</time>
      </trkpt>
      <trkpt lat="40.41712470352649688720703125" lon="-1.2072054482996463775634765625">
        <ele>1000.20001220703125</ele>
        <time>2021-09-25T10:56:33.000Z</time>
      </trkpt>
      <trkpt lat="40.41708849370479583740234375" lon="-1.2071655504405498504638671875">
        <ele>1000.4000244140625</ele>
        <time>2021-09-25T10:56:34.000Z</time>
      </trkpt>
      <trkpt lat="40.4170115478336811065673828125" lon="-1.20708013884723186492919921875">
        <ele>1000.4000244140625</ele>
        <time>2021-09-25T10:56:36.000Z</time>
      </trkpt>
      <trkpt lat="40.4169357754290103912353515625" lon="-1.20699447579681873321533203125">
        <ele>1000.5999755859375</ele>
        <time>2021-09-25T10:56:38.000Z</time>
      </trkpt>
      <trkpt lat="40.4168586619198322296142578125" lon="-1.2069100700318813323974609375">
        <ele>1000.79998779296875</ele>
        <time>2021-09-25T10:56:40.000Z</time>
      </trkpt>
      <trkpt lat="40.41678414680063724517822265625" lon="-1.20682398788630962371826171875">
        <ele>1000.5999755859375</ele>
        <time>2021-09-25T10:56:42.000Z</time>
      </trkpt>
      <trkpt lat="40.41671021841466426849365234375" lon="-1.2067330442368984222412109375">
        <ele>1000.4000244140625</ele>
        <time>2021-09-25T10:56:44.000Z</time>
      </trkpt>
      <trkpt lat="40.4166407324373722076416015625" lon="-1.20663531124591827392578125">
        <ele>1000.79998779296875</ele>
        <time>2021-09-25T10:56:46.000Z</time>
      </trkpt>
      <trkpt lat="40.41657962836325168609619140625" lon="-1.20653263293206691741943359375">
        <ele>1001.20001220703125</ele>
        <time>2021-09-25T10:56:48.000Z</time>
      </trkpt>
      <trkpt lat="40.4165245592594146728515625" lon="-1.20642601512372493743896484375">
        <ele>1001.5999755859375</ele>
        <time>2021-09-25T10:56:50.000Z</time>
      </trkpt>
      <trkpt lat="40.4164999164640903472900390625" lon="-1.20637304149568080902099609375">
        <ele>1001.4000244140625</ele>
        <time>2021-09-25T10:56:51.000Z</time>
      </trkpt>
      <trkpt lat="40.41647669859230518341064453125" lon="-1.20632149279117584228515625">
        <ele>1001.4000244140625</ele>
        <time>2021-09-25T10:56:52.000Z</time>
      </trkpt>
      <trkpt lat="40.41643177159130573272705078125" lon="-1.206208169460296630859375">
        <ele>1001.20001220703125</ele>
        <time>2021-09-25T10:56:54.000Z</time>
      </trkpt>
      <trkpt lat="40.4163877665996551513671875" lon="-1.206093169748783111572265625">
        <ele>1001.5999755859375</ele>
        <time>2021-09-25T10:56:56.000Z</time>
      </trkpt>
      <trkpt lat="40.41635029949247837066650390625" lon="-1.20597473345696926116943359375">
        <ele>1001.79998779296875</ele>
        <time>2021-09-25T10:56:58.000Z</time>
      </trkpt>
      <trkpt lat="40.41631878353655338287353515625" lon="-1.20585084892809391021728515625">
        <ele>1001.20001220703125</ele>
        <time>2021-09-25T10:57:00.000Z</time>
      </trkpt>
      <trkpt lat="40.4162997566163539886474609375" lon="-1.2057936005294322967529296875">
        <ele>1001</ele>
        <time>2021-09-25T10:57:01.000Z</time>
      </trkpt>
      <trkpt lat="40.41627704165875911712646484375" lon="-1.20572998188436031341552734375">
        <ele>1001</ele>
        <time>2021-09-25T10:57:02.000Z</time>
      </trkpt>
      <trkpt lat="40.41625893674790859222412109375" lon="-1.20566812343895435333251953125">
        <ele>1000.5999755859375</ele>
        <time>2021-09-25T10:57:03.000Z</time>
      </trkpt>
      <trkpt lat="40.4162390716373920440673828125" lon="-1.20560609735548496246337890625">
        <ele>1000.4000244140625</ele>
        <time>2021-09-25T10:57:04.000Z</time>
      </trkpt>
      <trkpt lat="40.4162042029201984405517578125" lon="-1.20548875071108341217041015625">
        <ele>1000.5999755859375</ele>
        <time>2021-09-25T10:57:06.000Z</time>
      </trkpt>
      <trkpt lat="40.41617830283939838409423828125" lon="-1.20537542738020420074462890625">
        <ele>1000</ele>
        <time>2021-09-25T10:57:08.000Z</time>
      </trkpt>
      <trkpt lat="40.41615550406277179718017578125" lon="-1.20525673963129520416259765625">
        <ele>999.20001220703125</ele>
        <time>2021-09-25T10:57:10.000Z</time>
      </trkpt>
      <trkpt lat="40.41613806970417499542236328125" lon="-1.20513956062495708465576171875">
        <ele>998.79998779296875</ele>
        <time>2021-09-25T10:57:12.000Z</time>
      </trkpt>
      <trkpt lat="40.416123904287815093994140625" lon="-1.20502657257020473480224609375">
        <ele>998.4000244140625</ele>
        <time>2021-09-25T10:57:14.000Z</time>
      </trkpt>
      <trkpt lat="40.41611619293689727783203125" lon="-1.2049178592860698699951171875">
        <ele>998</ele>
        <time>2021-09-25T10:57:16.000Z</time>
      </trkpt>
      <trkpt lat="40.41611342690885066986083984375" lon="-1.2048632092773914337158203125">
        <ele>998</ele>
        <time>2021-09-25T10:57:17.000Z</time>
      </trkpt>
      <trkpt lat="40.41611057706177234649658203125" lon="-1.20480864308774471282958984375">
        <ele>998</ele>
        <time>2021-09-25T10:57:18.000Z</time>
      </trkpt>
      <trkpt lat="40.41610403917729854583740234375" lon="-1.20475483126938343048095703125">
        <ele>998</ele>
        <time>2021-09-25T10:57:19.000Z</time>
      </trkpt>
      <trkpt lat="40.41609934531152248382568359375" lon="-1.2046989239752292633056640625">
        <ele>998</ele>
        <time>2021-09-25T10:57:20.000Z</time>
      </trkpt>
      <trkpt lat="40.41610219515860080718994140625" lon="-1.20458744466304779052734375">
        <ele>998</ele>
        <time>2021-09-25T10:57:22.000Z</time>
      </trkpt>
      <trkpt lat="40.4161009378731250762939453125" lon="-1.20452684350311756134033203125">
        <ele>998</ele>
        <time>2021-09-25T10:57:23.000Z</time>
      </trkpt>
      <trkpt lat="40.416096746921539306640625" lon="-1.20446917600929737091064453125">
        <ele>998</ele>
        <time>2021-09-25T10:57:24.000Z</time>
      </trkpt>
      <trkpt lat="40.4160918854176998138427734375" lon="-1.204351745545864105224609375">
        <ele>998</ele>
        <time>2021-09-25T10:57:26.000Z</time>
      </trkpt>
      <trkpt lat="40.41609297506511211395263671875" lon="-1.2042466364800930023193359375">
        <ele>998</ele>
        <time>2021-09-25T10:57:28.000Z</time>
      </trkpt>
      <trkpt lat="40.41609481908380985260009765625" lon="-1.20419290848076343536376953125">
        <ele>998</ele>
        <time>2021-09-25T10:57:29.000Z</time>
      </trkpt>
      <trkpt lat="40.416095741093158721923828125" lon="-1.2041400186717510223388671875">
        <ele>998</ele>
        <time>2021-09-25T10:57:30.000Z</time>
      </trkpt>
      <trkpt lat="40.4161016084253787994384765625" lon="-1.20403231121599674224853515625">
        <ele>997.79998779296875</ele>
        <time>2021-09-25T10:57:32.000Z</time>
      </trkpt>
      <trkpt lat="40.41611158289015293121337890625" lon="-1.203924603760242462158203125">
        <ele>997.5999755859375</ele>
        <time>2021-09-25T10:57:34.000Z</time>
      </trkpt>
      <trkpt lat="40.4161250777542591094970703125" lon="-1.20381362736225128173828125">
        <ele>997.20001220703125</ele>
        <time>2021-09-25T10:57:36.000Z</time>
      </trkpt>
      <trkpt lat="40.41613086126744747161865234375" lon="-1.203756965696811676025390625">
        <ele>997</ele>
        <time>2021-09-25T10:57:37.000Z</time>
      </trkpt>
      <trkpt lat="40.41613538749516010284423828125" lon="-1.20370189659297466278076171875">
        <ele>997</ele>
        <time>2021-09-25T10:57:38.000Z</time>
      </trkpt>
      <trkpt lat="40.4161462001502513885498046875" lon="-1.20359494350850582122802734375">
        <ele>997</ele>
        <time>2021-09-25T10:57:40.000Z</time>
      </trkpt>
      <trkpt lat="40.4161582700908184051513671875" lon="-1.20348899625241756439208984375">
        <ele>996.79998779296875</ele>
        <time>2021-09-25T10:57:42.000Z</time>
      </trkpt>
      <trkpt lat="40.4161705076694488525390625" lon="-1.2033796124160289764404296875">
        <ele>996.79998779296875</ele>
        <time>2021-09-25T10:57:44.000Z</time>
      </trkpt>
      <trkpt lat="40.41618584655225276947021484375" lon="-1.20326838456094264984130859375">
        <ele>996.5999755859375</ele>
        <time>2021-09-25T10:57:46.000Z</time>
      </trkpt>
      <trkpt lat="40.41620110161602497100830078125" lon="-1.20315908454358577728271484375">
        <ele>996.20001220703125</ele>
        <time>2021-09-25T10:57:48.000Z</time>
      </trkpt>
      <trkpt lat="40.416215769946575164794921875" lon="-1.20304944925010204315185546875">
        <ele>995.79998779296875</ele>
        <time>2021-09-25T10:57:50.000Z</time>
      </trkpt>
      <trkpt lat="40.4162300191819667816162109375" lon="-1.2029494531452655792236328125">
        <ele>995.4000244140625</ele>
        <time>2021-09-25T10:57:52.000Z</time>
      </trkpt>
      <trkpt lat="40.4162407480180263519287109375" lon="-1.20286420919001102447509765625">
        <ele>995.4000244140625</ele>
        <time>2021-09-25T10:57:54.000Z</time>
      </trkpt>
      <trkpt lat="40.416248627007007598876953125" lon="-1.20279530994594097137451171875">
        <ele>995.4000244140625</ele>
        <time>2021-09-25T10:57:56.000Z</time>
      </trkpt>
      <trkpt lat="40.41625675745308399200439453125" lon="-1.20272590778768062591552734375">
        <ele>995.4000244140625</ele>
        <time>2021-09-25T10:57:58.000Z</time>
      </trkpt>
      <trkpt lat="40.41626044549047946929931640625" lon="-1.2026973254978656768798828125">
        <ele>995.4000244140625</ele>
        <time>2021-09-25T10:57:59.000Z</time>
      </trkpt>
      <trkpt lat="40.4162652231752872467041015625" lon="-1.20266874320805072784423828125">
        <ele>995.4000244140625</ele>
        <time>2021-09-25T10:58:00.000Z</time>
      </trkpt>
      <trkpt lat="40.416277460753917694091796875" lon="-1.20259397663176059722900390625">
        <ele>995.4000244140625</ele>
        <time>2021-09-25T10:58:02.000Z</time>
      </trkpt>
      <trkpt lat="40.41628248989582061767578125" lon="-1.20254804380238056182861328125">
        <ele>995.20001220703125</ele>
        <time>2021-09-25T10:58:03.000Z</time>
      </trkpt>
      <trkpt lat="40.4162896983325481414794921875" lon="-1.2024941481649875640869140625">
        <ele>995.20001220703125</ele>
        <time>2021-09-25T10:58:04.000Z</time>
      </trkpt>
      <trkpt lat="40.4163014329969882965087890625" lon="-1.20235710404813289642333984375">
        <ele>995</ele>
        <time>2021-09-25T10:58:06.000Z</time>
      </trkpt>
      <trkpt lat="40.41630922816693782806396484375" lon="-1.20227764360606670379638671875">
        <ele>995</ele>
        <time>2021-09-25T10:58:07.000Z</time>
      </trkpt>
      <trkpt lat="40.41631869971752166748046875" lon="-1.20219399221241474151611328125">
        <ele>995</ele>
        <time>2021-09-25T10:58:08.000Z</time>
      </trkpt>
      <trkpt lat="40.416339151561260223388671875" lon="-1.202026940882205963134765625">
        <ele>995</ele>
        <time>2021-09-25T10:58:10.000Z</time>
      </trkpt>
      <trkpt lat="40.41635331697762012481689453125" lon="-1.20187045074999332427978515625">
        <ele>995</ele>
        <time>2021-09-25T10:58:12.000Z</time>
      </trkpt>
      <trkpt lat="40.41636622510850429534912109375" lon="-1.20172795839607715606689453125">
        <ele>995.4000244140625</ele>
        <time>2021-09-25T10:58:14.000Z</time>
      </trkpt>
      <trkpt lat="40.41638265363872051239013671875" lon="-1.20159007608890533447265625">
        <ele>995.79998779296875</ele>
        <time>2021-09-25T10:58:16.000Z</time>
      </trkpt>
      <trkpt lat="40.41639639995992183685302734375" lon="-1.20145328342914581298828125">
        <ele>996.4000244140625</ele>
        <time>2021-09-25T10:58:18.000Z</time>
      </trkpt>
      <trkpt lat="40.4164100624620914459228515625" lon="-1.2013144791126251220703125">
        <ele>997</ele>
        <time>2021-09-25T10:58:20.000Z</time>
      </trkpt>
      <trkpt lat="40.41642406024038791656494140625" lon="-1.201174668967723846435546875">
        <ele>998</ele>
        <time>2021-09-25T10:58:22.000Z</time>
      </trkpt>
      <trkpt lat="40.41643830947577953338623046875" lon="-1.2010477669537067413330078125">
        <ele>998.79998779296875</ele>
        <time>2021-09-25T10:58:24.000Z</time>
      </trkpt>
      <trkpt lat="40.416455827653408050537109375" lon="-1.20092480443418025970458984375">
        <ele>999.5999755859375</ele>
        <time>2021-09-25T10:58:26.000Z</time>
      </trkpt>
      <trkpt lat="40.41646622121334075927734375" lon="-1.20080578140914440155029296875">
        <ele>1000.20001220703125</ele>
        <time>2021-09-25T10:58:28.000Z</time>
      </trkpt>
      <trkpt lat="40.41647619567811489105224609375" lon="-1.20074006728827953338623046875">
        <ele>1000.4000244140625</ele>
        <time>2021-09-25T10:58:29.000Z</time>
      </trkpt>
      <trkpt lat="40.41648625396192073822021484375" lon="-1.20067234151065349578857421875">
        <ele>1000.4000244140625</ele>
        <time>2021-09-25T10:58:30.000Z</time>
      </trkpt>
      <trkpt lat="40.41650352068245410919189453125" lon="-1.200537644326686859130859375">
        <ele>1000.79998779296875</ele>
        <time>2021-09-25T10:58:32.000Z</time>
      </trkpt>
      <trkpt lat="40.41651894338428974151611328125" lon="-1.20040277950465679168701171875">
        <ele>1001</ele>
        <time>2021-09-25T10:58:34.000Z</time>
      </trkpt>
      <trkpt lat="40.41653327643871307373046875" lon="-1.2002628855407238006591796875">
        <ele>1001</ele>
        <time>2021-09-25T10:58:36.000Z</time>
      </trkpt>
      <trkpt lat="40.416549704968929290771484375" lon="-1.20011913590133190155029296875">
        <ele>1001.20001220703125</ele>
        <time>2021-09-25T10:58:38.000Z</time>
      </trkpt>
      <trkpt lat="40.4165661334991455078125" lon="-1.19997580535709857940673828125">
        <ele>1001.79998779296875</ele>
        <time>2021-09-25T10:58:40.000Z</time>
      </trkpt>
      <trkpt lat="40.41658164002001285552978515625" lon="-1.199830211699008941650390625">
        <ele>1001.79998779296875</ele>
        <time>2021-09-25T10:58:42.000Z</time>
      </trkpt>
      <trkpt lat="40.41659555397927761077880859375" lon="-1.19968260638415813446044921875">
        <ele>1001.79998779296875</ele>
        <time>2021-09-25T10:58:44.000Z</time>
      </trkpt>
      <trkpt lat="40.4166098870337009429931640625" lon="-1.19953961111605167388916015625">
        <ele>1001.5999755859375</ele>
        <time>2021-09-25T10:58:46.000Z</time>
      </trkpt>
      <trkpt lat="40.41661684401333332061767578125" lon="-1.19939929805696010589599609375">
        <ele>1001</ele>
        <time>2021-09-25T10:58:48.000Z</time>
      </trkpt>
      <trkpt lat="40.41661910712718963623046875" lon="-1.1993281356990337371826171875">
        <ele>1001</ele>
        <time>2021-09-25T10:58:49.000Z</time>
      </trkpt>
      <trkpt lat="40.4166179336607456207275390625" lon="-1.19925923645496368408203125">
        <ele>1001</ele>
        <time>2021-09-25T10:58:50.000Z</time>
      </trkpt>
      <trkpt lat="40.4166202805936336517333984375" lon="-1.19911976158618927001953125">
        <ele>1001</ele>
        <time>2021-09-25T10:58:52.000Z</time>
      </trkpt>
      <trkpt lat="40.41661215014755725860595703125" lon="-1.19897752068936824798583984375">
        <ele>1000.79998779296875</ele>
        <time>2021-09-25T10:58:54.000Z</time>
      </trkpt>
      <trkpt lat="40.41660410352051258087158203125" lon="-1.1988289095461368560791015625">
        <ele>1000.79998779296875</ele>
        <time>2021-09-25T10:58:56.000Z</time>
      </trkpt>
      <trkpt lat="40.41658935137093067169189453125" lon="-1.198680214583873748779296875">
        <ele>1000.79998779296875</ele>
        <time>2021-09-25T10:58:58.000Z</time>
      </trkpt>
      <trkpt lat="40.41657082736492156982421875" lon="-1.198535375297069549560546875">
        <ele>1000.5999755859375</ele>
        <time>2021-09-25T10:59:00.000Z</time>
      </trkpt>
      <trkpt lat="40.416551716625690460205078125" lon="-1.19838676415383815765380859375">
        <ele>1000.4000244140625</ele>
        <time>2021-09-25T10:59:02.000Z</time>
      </trkpt>
      <trkpt lat="40.41652388870716094970703125" lon="-1.1982378177344799041748046875">
        <ele>1000</ele>
        <time>2021-09-25T10:59:04.000Z</time>
      </trkpt>
      <trkpt lat="40.41648767888545989990234375" lon="-1.19809188880026340484619140625">
        <ele>999.4000244140625</ele>
        <time>2021-09-25T10:59:06.000Z</time>
      </trkpt>
      <trkpt lat="40.4164469428360462188720703125" lon="-1.197952665388584136962890625">
        <ele>998.5999755859375</ele>
        <time>2021-09-25T10:59:08.000Z</time>
      </trkpt>
      <trkpt lat="40.4164053685963153839111328125" lon="-1.1978163756430149078369140625">
        <ele>997.79998779296875</ele>
        <time>2021-09-25T10:59:10.000Z</time>
      </trkpt>
      <trkpt lat="40.41636454872786998748779296875" lon="-1.1976836062967777252197265625">
        <ele>997</ele>
        <time>2021-09-25T10:59:12.000Z</time>
      </trkpt>
      <trkpt lat="40.416343510150909423828125" lon="-1.1976168863475322723388671875">
        <ele>997.4000244140625</ele>
        <time>2021-09-25T10:59:13.000Z</time>
      </trkpt>
      <trkpt lat="40.41632263921201229095458984375" lon="-1.1975508369505405426025390625">
        <ele>997.79998779296875</ele>
        <time>2021-09-25T10:59:14.000Z</time>
      </trkpt>
      <trkpt lat="40.4162803106009960174560546875" lon="-1.19742200709879398345947265625">
        <ele>998.5999755859375</ele>
        <time>2021-09-25T10:59:16.000Z</time>
      </trkpt>
      <trkpt lat="40.41623613797128200531005859375" lon="-1.19729451835155487060546875">
        <ele>999.4000244140625</ele>
        <time>2021-09-25T10:59:18.000Z</time>
      </trkpt>
      <trkpt lat="40.41619556955993175506591796875" lon="-1.19716987945139408111572265625">
        <ele>999.5999755859375</ele>
        <time>2021-09-25T10:59:20.000Z</time>
      </trkpt>
      <trkpt lat="40.41616179049015045166015625" lon="-1.19705169461667537689208984375">
        <ele>999.5999755859375</ele>
        <time>2021-09-25T10:59:22.000Z</time>
      </trkpt>
      <trkpt lat="40.416144691407680511474609375" lon="-1.19699419476091861724853515625">
        <ele>999.79998779296875</ele>
        <time>2021-09-25T10:59:23.000Z</time>
      </trkpt>
      <trkpt lat="40.41612767614424228668212890625" lon="-1.19693837128579616546630859375">
        <ele>999.79998779296875</ele>
        <time>2021-09-25T10:59:24.000Z</time>
      </trkpt>
      <trkpt lat="40.41608828119933605194091796875" lon="-1.19683091528713703155517578125">
        <ele>999.79998779296875</ele>
        <time>2021-09-25T10:59:26.000Z</time>
      </trkpt>
      <trkpt lat="40.41604251600801944732666015625" lon="-1.1967133171856403350830078125">
        <ele>999.4000244140625</ele>
        <time>2021-09-25T10:59:28.000Z</time>
      </trkpt>
      <trkpt lat="40.4160229861736297607421875" lon="-1.19665347039699554443359375">
        <ele>999.20001220703125</ele>
        <time>2021-09-25T10:59:29.000Z</time>
      </trkpt>
      <trkpt lat="40.416004545986652374267578125" lon="-1.196589767932891845703125">
        <ele>999</ele>
        <time>2021-09-25T10:59:30.000Z</time>
      </trkpt>
      <trkpt lat="40.41596322320401668548583984375" lon="-1.19645892642438411712646484375">
        <ele>998.5999755859375</ele>
        <time>2021-09-25T10:59:32.000Z</time>
      </trkpt>
      <trkpt lat="40.415922738611698150634765625" lon="-1.1963176913559436798095703125">
        <ele>998.5999755859375</ele>
        <time>2021-09-25T10:59:34.000Z</time>
      </trkpt>
      <trkpt lat="40.41590170003473758697509765625" lon="-1.1962479539215564727783203125">
        <ele>998.79998779296875</ele>
        <time>2021-09-25T10:59:35.000Z</time>
      </trkpt>
      <trkpt lat="40.41588242165744304656982421875" lon="-1.19617947377264499664306640625">
        <ele>999.20001220703125</ele>
        <time>2021-09-25T10:59:36.000Z</time>
      </trkpt>
      <trkpt lat="40.41584218852221965789794921875" lon="-1.19603413157165050506591796875">
        <ele>999.79998779296875</ele>
        <time>2021-09-25T10:59:38.000Z</time>
      </trkpt>
      <trkpt lat="40.41579809971153736114501953125" lon="-1.195896752178668975830078125">
        <ele>1001</ele>
        <time>2021-09-25T10:59:40.000Z</time>
      </trkpt>
      <trkpt lat="40.41575820185244083404541015625" lon="-1.19575786404311656951904296875">
        <ele>1002</ele>
        <time>2021-09-25T10:59:42.000Z</time>
      </trkpt>
      <trkpt lat="40.4157371632754802703857421875" lon="-1.19569097645580768585205078125">
        <ele>1002.20001220703125</ele>
        <time>2021-09-25T10:59:43.000Z</time>
      </trkpt>
      <trkpt lat="40.4157172143459320068359375" lon="-1.19562475942075252532958984375">
        <ele>1002.4000244140625</ele>
        <time>2021-09-25T10:59:44.000Z</time>
      </trkpt>
      <trkpt lat="40.415674634277820587158203125" lon="-1.1954914033412933349609375">
        <ele>1002.5999755859375</ele>
        <time>2021-09-25T10:59:46.000Z</time>
      </trkpt>
      <trkpt lat="40.4156278632581233978271484375" lon="-1.19535787962377071380615234375">
        <ele>1002.4000244140625</ele>
        <time>2021-09-25T10:59:48.000Z</time>
      </trkpt>
      <trkpt lat="40.41558788157999515533447265625" lon="-1.1952280439436435699462890625">
        <ele>1002.20001220703125</ele>
        <time>2021-09-25T10:59:50.000Z</time>
      </trkpt>
      <trkpt lat="40.4155497439205646514892578125" lon="-1.195096112787723541259765625">
        <ele>1002</ele>
        <time>2021-09-25T10:59:52.000Z</time>
      </trkpt>
      <trkpt lat="40.41550020687282085418701171875" lon="-1.19496962986886501312255859375">
        <ele>1001.79998779296875</ele>
        <time>2021-09-25T10:59:54.000Z</time>
      </trkpt>
      <trkpt lat="40.41545779444277286529541015625" lon="-1.19484775699675083160400390625">
        <ele>1001.79998779296875</ele>
        <time>2021-09-25T10:59:56.000Z</time>
      </trkpt>
      <trkpt lat="40.4154183156788349151611328125" lon="-1.1947237886488437652587890625">
        <ele>1001.5999755859375</ele>
        <time>2021-09-25T10:59:58.000Z</time>
      </trkpt>
      <trkpt lat="40.41537724435329437255859375" lon="-1.19459713809192180633544921875">
        <ele>1001.4000244140625</ele>
        <time>2021-09-25T11:00:00.000Z</time>
      </trkpt>
      <trkpt lat="40.41535737924277782440185546875" lon="-1.19453041814267635345458984375">
        <ele>1001.4000244140625</ele>
        <time>2021-09-25T11:00:01.000Z</time>
      </trkpt>
      <trkpt lat="40.41533608920872211456298828125" lon="-1.19446612894535064697265625">
        <ele>1001.20001220703125</ele>
        <time>2021-09-25T11:00:02.000Z</time>
      </trkpt>
      <trkpt lat="40.4152979515492916107177734375" lon="-1.19433729909360408782958984375">
        <ele>1001.20001220703125</ele>
        <time>2021-09-25T11:00:04.000Z</time>
      </trkpt>
      <trkpt lat="40.41525788605213165283203125" lon="-1.194209642708301544189453125">
        <ele>1001</ele>
        <time>2021-09-25T11:00:06.000Z</time>
      </trkpt>
      <trkpt lat="40.4152201674878597259521484375" lon="-1.19408257305622100830078125">
        <ele>1001</ele>
        <time>2021-09-25T11:00:08.000Z</time>
      </trkpt>
      <trkpt lat="40.4151780903339385986328125" lon="-1.193957515060901641845703125">
        <ele>1001</ele>
        <time>2021-09-25T11:00:10.000Z</time>
      </trkpt>
      <trkpt lat="40.415160320699214935302734375" lon="-1.193891130387783050537109375">
        <ele>1001</ele>
        <time>2021-09-25T11:00:11.000Z</time>
      </trkpt>
      <trkpt lat="40.41514414362609386444091796875" lon="-1.19382298551499843597412109375">
        <ele>1000.5999755859375</ele>
        <time>2021-09-25T11:00:12.000Z</time>
      </trkpt>
      <trkpt lat="40.4151034913957118988037109375" lon="-1.19369306601583957672119140625">
        <ele>1000.4000244140625</ele>
        <time>2021-09-25T11:00:14.000Z</time>
      </trkpt>
      <trkpt lat="40.41506350971758365631103515625" lon="-1.193569265305995941162109375">
        <ele>999.79998779296875</ele>
        <time>2021-09-25T11:00:16.000Z</time>
      </trkpt>
      <trkpt lat="40.41502160020172595977783203125" lon="-1.19344194419682025909423828125">
        <ele>999.4000244140625</ele>
        <time>2021-09-25T11:00:18.000Z</time>
      </trkpt>
      <trkpt lat="40.4149796068668365478515625" lon="-1.193313784897327423095703125">
        <ele>999</ele>
        <time>2021-09-25T11:00:20.000Z</time>
      </trkpt>
      <trkpt lat="40.4149368591606616973876953125" lon="-1.19318227283656597137451171875">
        <ele>999.20001220703125</ele>
        <time>2021-09-25T11:00:22.000Z</time>
      </trkpt>
      <trkpt lat="40.41489779949188232421875" lon="-1.19305805303156375885009765625">
        <ele>999.5999755859375</ele>
        <time>2021-09-25T11:00:24.000Z</time>
      </trkpt>
      <trkpt lat="40.414859913289546966552734375" lon="-1.19293383322656154632568359375">
        <ele>999.79998779296875</ele>
        <time>2021-09-25T11:00:26.000Z</time>
      </trkpt>
      <trkpt lat="40.41483988054096698760986328125" lon="-1.19287264533340930938720703125">
        <ele>999.79998779296875</ele>
        <time>2021-09-25T11:00:27.000Z</time>
      </trkpt>
      <trkpt lat="40.4148175008594989776611328125" lon="-1.19280760176479816436767578125">
        <ele>999.79998779296875</ele>
        <time>2021-09-25T11:00:28.000Z</time>
      </trkpt>
      <trkpt lat="40.41477349586784839630126953125" lon="-1.19267977774143218994140625">
        <ele>999.5999755859375</ele>
        <time>2021-09-25T11:00:30.000Z</time>
      </trkpt>
      <trkpt lat="40.41473083198070526123046875" lon="-1.19255195371806621551513671875">
        <ele>999.5999755859375</ele>
        <time>2021-09-25T11:00:32.000Z</time>
      </trkpt>
      <trkpt lat="40.41468028910458087921142578125" lon="-1.1924258060753345489501953125">
        <ele>1000</ele>
        <time>2021-09-25T11:00:34.000Z</time>
      </trkpt>
      <trkpt lat="40.41462949477136135101318359375" lon="-1.19229831732809543609619140625">
        <ele>1000.20001220703125</ele>
        <time>2021-09-25T11:00:36.000Z</time>
      </trkpt>
      <trkpt lat="40.41457836516201496124267578125" lon="-1.192173846065998077392578125">
        <ele>1000.79998779296875</ele>
        <time>2021-09-25T11:00:38.000Z</time>
      </trkpt>
      <trkpt lat="40.41452698409557342529296875" lon="-1.19205155409872531890869140625">
        <ele>1001.5999755859375</ele>
        <time>2021-09-25T11:00:40.000Z</time>
      </trkpt>
      <trkpt lat="40.41448029689490795135498046875" lon="-1.1919342912733554840087890625">
        <ele>1002</ele>
        <time>2021-09-25T11:00:42.000Z</time>
      </trkpt>
      <trkpt lat="40.41442480869591236114501953125" lon="-1.19182373397052288055419921875">
        <ele>1002.20001220703125</ele>
        <time>2021-09-25T11:00:44.000Z</time>
      </trkpt>
      <trkpt lat="40.41436563245952129364013671875" lon="-1.19171158410608768463134765625">
        <ele>1002.4000244140625</ele>
        <time>2021-09-25T11:00:46.000Z</time>
      </trkpt>
      <trkpt lat="40.41430595330893993377685546875" lon="-1.19160044007003307342529296875">
        <ele>1002.20001220703125</ele>
        <time>2021-09-25T11:00:48.000Z</time>
      </trkpt>
      <trkpt lat="40.4142354615032672882080078125" lon="-1.19148426689207553863525390625">
        <ele>1002</ele>
        <time>2021-09-25T11:00:50.000Z</time>
      </trkpt>
      <trkpt lat="40.4141637124121189117431640625" lon="-1.19137144647538661956787109375">
        <ele>1002</ele>
        <time>2021-09-25T11:00:52.000Z</time>
      </trkpt>
      <trkpt lat="40.414099507033824920654296875" lon="-1.191268600523471832275390625">
        <ele>1002</ele>
        <time>2021-09-25T11:00:54.000Z</time>
      </trkpt>
      <trkpt lat="40.4140341281890869140625" lon="-1.19117598049342632293701171875">
        <ele>1002</ele>
        <time>2021-09-25T11:00:56.000Z</time>
      </trkpt>
      <trkpt lat="40.41397352702915668487548828125" lon="-1.19109459221363067626953125">
        <ele>1002.20001220703125</ele>
        <time>2021-09-25T11:00:58.000Z</time>
      </trkpt>
      <trkpt lat="40.41394150815904140472412109375" lon="-1.1910531856119632720947265625">
        <ele>1002.20001220703125</ele>
        <time>2021-09-25T11:00:59.000Z</time>
      </trkpt>
      <trkpt lat="40.4139062203466892242431640625" lon="-1.19101010262966156005859375">
        <ele>1002.20001220703125</ele>
        <time>2021-09-25T11:01:00.000Z</time>
      </trkpt>
      <trkpt lat="40.4138354770839214324951171875" lon="-1.190923266112804412841796875">
        <ele>1001.79998779296875</ele>
        <time>2021-09-25T11:01:02.000Z</time>
      </trkpt>
      <trkpt lat="40.41376247070729732513427734375" lon="-1.190832071006298065185546875">
        <ele>1001.5999755859375</ele>
        <time>2021-09-25T11:01:04.000Z</time>
      </trkpt>
      <trkpt lat="40.41369072161614894866943359375" lon="-1.19074649177491664886474609375">
        <ele>1001.4000244140625</ele>
        <time>2021-09-25T11:01:06.000Z</time>
      </trkpt>
      <trkpt lat="40.4136554338037967681884765625" lon="-1.1907058395445346832275390625">
        <ele>1001</ele>
        <time>2021-09-25T11:01:07.000Z</time>
      </trkpt>
      <trkpt lat="40.41362199001014232635498046875" lon="-1.19066300801932811737060546875">
        <ele>1001</ele>
        <time>2021-09-25T11:01:08.000Z</time>
      </trkpt>
      <trkpt lat="40.41355141438543796539306640625" lon="-1.1905874870717525482177734375">
        <ele>1000.79998779296875</ele>
        <time>2021-09-25T11:01:10.000Z</time>
      </trkpt>
      <trkpt lat="40.413483940064907073974609375" lon="-1.19051850400865077972412109375">
        <ele>1000.79998779296875</ele>
        <time>2021-09-25T11:01:12.000Z</time>
      </trkpt>
      <trkpt lat="40.41342233307659626007080078125" lon="-1.19045061059296131134033203125">
        <ele>1001</ele>
        <time>2021-09-25T11:01:14.000Z</time>
      </trkpt>
      <trkpt lat="40.4133568704128265380859375" lon="-1.19038707576692104339599609375">
        <ele>1000.79998779296875</ele>
        <time>2021-09-25T11:01:16.000Z</time>
      </trkpt>
      <trkpt lat="40.4132966883480548858642578125" lon="-1.190326474606990814208984375">
        <ele>1001</ele>
        <time>2021-09-25T11:01:18.000Z</time>
      </trkpt>
      <trkpt lat="40.41323742829263210296630859375" lon="-1.190260760486125946044921875">
        <ele>1000.79998779296875</ele>
        <time>2021-09-25T11:01:20.000Z</time>
      </trkpt>
      <trkpt lat="40.41317137889564037322998046875" lon="-1.19019194506108760833740234375">
        <ele>1000.5999755859375</ele>
        <time>2021-09-25T11:01:22.000Z</time>
      </trkpt>
      <trkpt lat="40.41314120404422283172607421875" lon="-1.19015942327678203582763671875">
        <ele>1000.4000244140625</ele>
        <time>2021-09-25T11:01:23.000Z</time>
      </trkpt>
      <trkpt lat="40.413113124668598175048828125" lon="-1.1901278235018253326416015625">
        <ele>1000.20001220703125</ele>
        <time>2021-09-25T11:01:24.000Z</time>
      </trkpt>
      <trkpt lat="40.4130502603948116302490234375" lon="-1.190058253705501556396484375">
        <ele>1000</ele>
        <time>2021-09-25T11:01:26.000Z</time>
      </trkpt>
      <trkpt lat="40.41298831813037395477294921875" lon="-1.18999144993722438812255859375">
        <ele>999.79998779296875</ele>
        <time>2021-09-25T11:01:28.000Z</time>
      </trkpt>
      <trkpt lat="40.41293266229331493377685546875" lon="-1.18993319571018218994140625">
        <ele>999.5999755859375</ele>
        <time>2021-09-25T11:01:30.000Z</time>
      </trkpt>
      <trkpt lat="40.41289083659648895263671875" lon="-1.18989723734557628631591796875">
        <ele>999.5999755859375</ele>
        <time>2021-09-25T11:01:32.000Z</time>
      </trkpt>
      <trkpt lat="40.412860326468944549560546875" lon="-1.1898743547499179840087890625">
        <ele>999.5999755859375</ele>
        <time>2021-09-25T11:01:34.000Z</time>
      </trkpt>
      <trkpt lat="40.41284658014774322509765625" lon="-1.18986387737095355987548828125">
        <ele>999.5999755859375</ele>
        <time>2021-09-25T11:01:35.000Z</time>
      </trkpt>
      <trkpt lat="40.412841551005840301513671875" lon="-1.18985465727746486663818359375">
        <ele>999.5999755859375</ele>
        <time>2021-09-25T11:01:36.000Z</time>
      </trkpt>
      <trkpt lat="40.412841551005840301513671875" lon="-1.18985465727746486663818359375">
        <ele>999.5999755859375</ele>
        <time>2021-09-25T11:01:37.000Z</time>
      </trkpt>
      <trkpt lat="40.41279100812971591949462890625" lon="-1.189769916236400604248046875">
        <ele>999.5999755859375</ele>
        <time>2021-09-25T11:19:18.000Z</time>
      </trkpt>
      <trkpt lat="40.41279100812971591949462890625" lon="-1.189769916236400604248046875">
        <ele>999.5999755859375</ele>
        <time>2021-09-25T11:19:19.000Z</time>
      </trkpt>
      <trkpt lat="40.41272898204624652862548828125" lon="-1.189691126346588134765625">
        <ele>999.79998779296875</ele>
        <time>2021-09-25T11:23:46.000Z</time>
      </trkpt>
      <trkpt lat="40.41269101202487945556640625" lon="-1.18965868838131427764892578125">
        <ele>999.5999755859375</ele>
        <time>2021-09-25T11:23:48.000Z</time>
      </trkpt>
      <trkpt lat="40.412671230733394622802734375" lon="-1.189637482166290283203125">
        <ele>999.4000244140625</ele>
        <time>2021-09-25T11:23:49.000Z</time>
      </trkpt>
      <trkpt lat="40.41264968924224376678466796875" lon="-1.18961409665644168853759765625">
        <ele>999.20001220703125</ele>
        <time>2021-09-25T11:23:50.000Z</time>
      </trkpt>
      <trkpt lat="40.41262538172304630279541015625" lon="-1.18959012441337108612060546875">
        <ele>999</ele>
        <time>2021-09-25T11:23:51.000Z</time>
      </trkpt>
      <trkpt lat="40.41260409168899059295654296875" lon="-1.189562715590000152587890625">
        <ele>999</ele>
        <time>2021-09-25T11:23:52.000Z</time>
      </trkpt>
      <trkpt lat="40.41254793293774127960205078125" lon="-1.1895025335252285003662109375">
        <ele>998.79998779296875</ele>
        <time>2021-09-25T11:23:54.000Z</time>
      </trkpt>
      <trkpt lat="40.412486493587493896484375" lon="-1.18943941779434680938720703125">
        <ele>998.79998779296875</ele>
        <time>2021-09-25T11:23:56.000Z</time>
      </trkpt>
      <trkpt lat="40.41242656297981739044189453125" lon="-1.18937722407281398773193359375">
        <ele>998.79998779296875</ele>
        <time>2021-09-25T11:23:58.000Z</time>
      </trkpt>
      <trkpt lat="40.41236604563891887664794921875" lon="-1.18931519798934459686279296875">
        <ele>998.5999755859375</ele>
        <time>2021-09-25T11:24:00.000Z</time>
      </trkpt>
      <trkpt lat="40.4123002476990222930908203125" lon="-1.1892507411539554595947265625">
        <ele>998.4000244140625</ele>
        <time>2021-09-25T11:24:02.000Z</time>
      </trkpt>
      <trkpt lat="40.4122673906385898590087890625" lon="-1.18921645916998386383056640625">
        <ele>998.20001220703125</ele>
        <time>2021-09-25T11:24:03.000Z</time>
      </trkpt>
      <trkpt lat="40.41223461739718914031982421875" lon="-1.189182512462139129638671875">
        <ele>998.20001220703125</ele>
        <time>2021-09-25T11:24:04.000Z</time>
      </trkpt>
      <trkpt lat="40.4121671430766582489013671875" lon="-1.18910833261907100677490234375">
        <ele>998.20001220703125</ele>
        <time>2021-09-25T11:24:06.000Z</time>
      </trkpt>
      <trkpt lat="40.41209581308066844940185546875" lon="-1.18902853690087795257568359375">
        <ele>998.4000244140625</ele>
        <time>2021-09-25T11:24:08.000Z</time>
      </trkpt>
      <trkpt lat="40.4120202921330928802490234375" lon="-1.188948489725589752197265625">
        <ele>998.5999755859375</ele>
        <time>2021-09-25T11:24:10.000Z</time>
      </trkpt>
      <trkpt lat="40.41198047809302806854248046875" lon="-1.1889065802097320556640625">
        <ele>998.4000244140625</ele>
        <time>2021-09-25T11:24:11.000Z</time>
      </trkpt>
      <trkpt lat="40.4119421727955341339111328125" lon="-1.18886576034128665924072265625">
        <ele>998.20001220703125</ele>
        <time>2021-09-25T11:24:12.000Z</time>
      </trkpt>
      <trkpt lat="40.41186086833477020263671875" lon="-1.18878579698503017425537109375">
        <ele>997.79998779296875</ele>
        <time>2021-09-25T11:24:14.000Z</time>
      </trkpt>
      <trkpt lat="40.4117849282920360565185546875" lon="-1.18870683945715427398681640625">
        <ele>997.20001220703125</ele>
        <time>2021-09-25T11:24:16.000Z</time>
      </trkpt>
      <trkpt lat="40.411704294383525848388671875" lon="-1.18862117640674114227294921875">
        <ele>996.5999755859375</ele>
        <time>2021-09-25T11:24:18.000Z</time>
      </trkpt>
      <trkpt lat="40.41162357665598392486572265625" lon="-1.18853509426116943359375">
        <ele>996</ele>
        <time>2021-09-25T11:24:20.000Z</time>
      </trkpt>
      <trkpt lat="40.411543361842632293701171875" lon="-1.18844968266785144805908203125">
        <ele>996.4000244140625</ele>
        <time>2021-09-25T11:24:22.000Z</time>
      </trkpt>
      <trkpt lat="40.411503799259662628173828125" lon="-1.18840659968554973602294921875">
        <ele>996.4000244140625</ele>
        <time>2021-09-25T11:24:23.000Z</time>
      </trkpt>
      <trkpt lat="40.41146331466734409332275390625" lon="-1.18836418725550174713134765625">
        <ele>996.79998779296875</ele>
        <time>2021-09-25T11:24:24.000Z</time>
      </trkpt>
      <trkpt lat="40.41138343513011932373046875" lon="-1.18827751837670803070068359375">
        <ele>997.79998779296875</ele>
        <time>2021-09-25T11:24:26.000Z</time>
      </trkpt>
      <trkpt lat="40.41130422614514827728271484375" lon="-1.1881942860782146453857421875">
        <ele>998.20001220703125</ele>
        <time>2021-09-25T11:24:28.000Z</time>
      </trkpt>
      <trkpt lat="40.41122577153146266937255859375" lon="-1.18810971267521381378173828125">
        <ele>998.4000244140625</ele>
        <time>2021-09-25T11:24:30.000Z</time>
      </trkpt>
      <trkpt lat="40.411150418221950531005859375" lon="-1.18803159333765506744384765625">
        <ele>998.20001220703125</ele>
        <time>2021-09-25T11:24:32.000Z</time>
      </trkpt>
      <trkpt lat="40.41111161001026630401611328125" lon="-1.18798985145986080169677734375">
        <ele>998</ele>
        <time>2021-09-25T11:24:33.000Z</time>
      </trkpt>
      <trkpt lat="40.4110714606940746307373046875" lon="-1.1879475228488445281982421875">
        <ele>998</ele>
        <time>2021-09-25T11:24:34.000Z</time>
      </trkpt>
      <trkpt lat="40.4109933413565158843994140625" lon="-1.187862195074558258056640625">
        <ele>998.4000244140625</ele>
        <time>2021-09-25T11:24:36.000Z</time>
      </trkpt>
      <trkpt lat="40.41091446764767169952392578125" lon="-1.18777804076671600341796875">
        <ele>998.4000244140625</ele>
        <time>2021-09-25T11:24:38.000Z</time>
      </trkpt>
      <trkpt lat="40.41083601303398609161376953125" lon="-1.187691874802112579345703125">
        <ele>998</ele>
        <time>2021-09-25T11:24:40.000Z</time>
      </trkpt>
      <trkpt lat="40.41076024062931537628173828125" lon="-1.18760637938976287841796875">
        <ele>998.20001220703125</ele>
        <time>2021-09-25T11:24:42.000Z</time>
      </trkpt>
      <trkpt lat="40.4107214324176311492919921875" lon="-1.18756656534969806671142578125">
        <ele>998.20001220703125</ele>
        <time>2021-09-25T11:24:43.000Z</time>
      </trkpt>
      <trkpt lat="40.41068413294851779937744140625" lon="-1.1875217221677303314208984375">
        <ele>998.20001220703125</ele>
        <time>2021-09-25T11:24:44.000Z</time>
      </trkpt>
      <trkpt lat="40.41060668416321277618408203125" lon="-1.18743781931698322296142578125">
        <ele>998.20001220703125</ele>
        <time>2021-09-25T11:24:46.000Z</time>
      </trkpt>
      <trkpt lat="40.41053317487239837646484375" lon="-1.18735668249428272247314453125">
        <ele>998</ele>
        <time>2021-09-25T11:24:48.000Z</time>
      </trkpt>
      <trkpt lat="40.4104582406580448150634765625" lon="-1.187273450195789337158203125">
        <ele>997.79998779296875</ele>
        <time>2021-09-25T11:24:50.000Z</time>
      </trkpt>
      <trkpt lat="40.41038154624402523040771484375" lon="-1.1871904693543910980224609375">
        <ele>997.4000244140625</ele>
        <time>2021-09-25T11:24:52.000Z</time>
      </trkpt>
      <trkpt lat="40.4103422351181507110595703125" lon="-1.1871497333049774169921875">
        <ele>997.4000244140625</ele>
        <time>2021-09-25T11:24:53.000Z</time>
      </trkpt>
      <trkpt lat="40.4103040136396884918212890625" lon="-1.18710882961750030517578125">
        <ele>997.20001220703125</ele>
        <time>2021-09-25T11:24:54.000Z</time>
      </trkpt>
      <trkpt lat="40.4102240502834320068359375" lon="-1.18702760897576808929443359375">
        <ele>997.20001220703125</ele>
        <time>2021-09-25T11:24:56.000Z</time>
      </trkpt>
      <trkpt lat="40.4101417399942874908447265625" lon="-1.18693708442151546478271484375">
        <ele>997.20001220703125</ele>
        <time>2021-09-25T11:24:58.000Z</time>
      </trkpt>
      <trkpt lat="40.41005834005773067474365234375" lon="-1.1868421174585819244384765625">
        <ele>997</ele>
        <time>2021-09-25T11:25:00.000Z</time>
      </trkpt>
      <trkpt lat="40.40997368283569812774658203125" lon="-1.1867462284862995147705078125">
        <ele>997</ele>
        <time>2021-09-25T11:25:02.000Z</time>
      </trkpt>
      <trkpt lat="40.4099295102059841156005859375" lon="-1.18670021183788776397705078125">
        <ele>997.20001220703125</ele>
        <time>2021-09-25T11:25:03.000Z</time>
      </trkpt>
      <trkpt lat="40.4098860919475555419921875" lon="-1.1866562068462371826171875">
        <ele>997.20001220703125</ele>
        <time>2021-09-25T11:25:04.000Z</time>
      </trkpt>
      <trkpt lat="40.40980185382068157196044921875" lon="-1.1865703761577606201171875">
        <ele>997</ele>
        <time>2021-09-25T11:25:06.000Z</time>
      </trkpt>
      <trkpt lat="40.4097152687609195709228515625" lon="-1.1864827014505863189697265625">
        <ele>996.79998779296875</ele>
        <time>2021-09-25T11:25:08.000Z</time>
      </trkpt>
      <trkpt lat="40.40962851606309413909912109375" lon="-1.18639192543923854827880859375">
        <ele>996</ele>
        <time>2021-09-25T11:25:10.000Z</time>
      </trkpt>
      <trkpt lat="40.40954335592687129974365234375" lon="-1.186304502189159393310546875">
        <ele>996</ele>
        <time>2021-09-25T11:25:12.000Z</time>
      </trkpt>
      <trkpt lat="40.40945568121969699859619140625" lon="-1.18621297180652618408203125">
        <ele>996.20001220703125</ele>
        <time>2021-09-25T11:25:14.000Z</time>
      </trkpt>
      <trkpt lat="40.40941259823739528656005859375" lon="-1.18617081083357334136962890625">
        <ele>996</ele>
        <time>2021-09-25T11:25:15.000Z</time>
      </trkpt>
      <trkpt lat="40.40936683304607868194580078125" lon="-1.18612688966095447540283203125">
        <ele>995.79998779296875</ele>
        <time>2021-09-25T11:25:16.000Z</time>
      </trkpt>
      <trkpt lat="40.40927966125309467315673828125" lon="-1.18603552691638469696044921875">
        <ele>995.4000244140625</ele>
        <time>2021-09-25T11:25:18.000Z</time>
      </trkpt>
      <trkpt lat="40.4091979376971721649169921875" lon="-1.18594550527632236480712890625">
        <ele>995.4000244140625</ele>
        <time>2021-09-25T11:25:20.000Z</time>
      </trkpt>
      <trkpt lat="40.409109592437744140625" lon="-1.185853220522403717041015625">
        <ele>995.79998779296875</ele>
        <time>2021-09-25T11:25:22.000Z</time>
      </trkpt>
      <trkpt lat="40.4090256057679653167724609375" lon="-1.1857658810913562774658203125">
        <ele>996</ele>
        <time>2021-09-25T11:25:24.000Z</time>
      </trkpt>
      <trkpt lat="40.40893935598433017730712890625" lon="-1.18567091412842273712158203125">
        <ele>996.20001220703125</ele>
        <time>2021-09-25T11:25:26.000Z</time>
      </trkpt>
      <trkpt lat="40.40885142982006072998046875" lon="-1.18557728826999664306640625">
        <ele>996</ele>
        <time>2021-09-25T11:25:28.000Z</time>
      </trkpt>
      <trkpt lat="40.40876769460737705230712890625" lon="-1.18548366241157054901123046875">
        <ele>996.4000244140625</ele>
        <time>2021-09-25T11:25:30.000Z</time>
      </trkpt>
      <trkpt lat="40.408686138689517974853515625" lon="-1.18540151976048946380615234375">
        <ele>996.79998779296875</ele>
        <time>2021-09-25T11:25:32.000Z</time>
      </trkpt>
      <trkpt lat="40.408645570278167724609375" lon="-1.1853633821010589599609375">
        <ele>996.5999755859375</ele>
        <time>2021-09-25T11:25:33.000Z</time>
      </trkpt>
      <trkpt lat="40.4086085222661495208740234375" lon="-1.185327507555484771728515625">
        <ele>996.20001220703125</ele>
        <time>2021-09-25T11:25:34.000Z</time>
      </trkpt>
      <trkpt lat="40.40853803046047687530517578125" lon="-1.185260117053985595703125">
        <ele>995.5999755859375</ele>
        <time>2021-09-25T11:25:36.000Z</time>
      </trkpt>
      <trkpt lat="40.40847298689186573028564453125" lon="-1.18518794886767864227294921875">
        <ele>995</ele>
        <time>2021-09-25T11:25:38.000Z</time>
      </trkpt>
      <trkpt lat="40.4084023274481296539306640625" lon="-1.185113601386547088623046875">
        <ele>995</ele>
        <time>2021-09-25T11:25:40.000Z</time>
      </trkpt>
      <trkpt lat="40.4083319194614887237548828125" lon="-1.1850369907915592193603515625">
        <ele>994.5999755859375</ele>
        <time>2021-09-25T11:25:42.000Z</time>
      </trkpt>
      <trkpt lat="40.4082601703703403472900390625" lon="-1.1849595420062541961669921875">
        <ele>994.4000244140625</ele>
        <time>2021-09-25T11:25:44.000Z</time>
      </trkpt>
      <trkpt lat="40.40819034911692142486572265625" lon="-1.1848814226686954498291015625">
        <ele>994.5999755859375</ele>
        <time>2021-09-25T11:25:46.000Z</time>
      </trkpt>
      <trkpt lat="40.40811759419739246368408203125" lon="-1.18480456061661243438720703125">
        <ele>995</ele>
        <time>2021-09-25T11:25:48.000Z</time>
      </trkpt>
      <trkpt lat="40.4080445878207683563232421875" lon="-1.18472845293581485748291015625">
        <ele>995</ele>
        <time>2021-09-25T11:25:50.000Z</time>
      </trkpt>
      <trkpt lat="40.40797024033963680267333984375" lon="-1.184648573398590087890625">
        <ele>995.20001220703125</ele>
        <time>2021-09-25T11:25:52.000Z</time>
      </trkpt>
      <trkpt lat="40.4078947193920612335205078125" lon="-1.1845676042139530181884765625">
        <ele>995.4000244140625</ele>
        <time>2021-09-25T11:25:54.000Z</time>
      </trkpt>
      <trkpt lat="40.40781919844448566436767578125" lon="-1.184486635029315948486328125">
        <ele>995.4000244140625</ele>
        <time>2021-09-25T11:25:56.000Z</time>
      </trkpt>
      <trkpt lat="40.40774359367787837982177734375" lon="-1.18440625257790088653564453125">
        <ele>995.20001220703125</ele>
        <time>2021-09-25T11:25:58.000Z</time>
      </trkpt>
      <trkpt lat="40.4077054560184478759765625" lon="-1.18436769582331180572509765625">
        <ele>994.79998779296875</ele>
        <time>2021-09-25T11:25:59.000Z</time>
      </trkpt>
      <trkpt lat="40.40766765363514423370361328125" lon="-1.18432964198291301727294921875">
        <ele>994.20001220703125</ele>
        <time>2021-09-25T11:26:00.000Z</time>
      </trkpt>
      <trkpt lat="40.40759121067821979522705078125" lon="-1.18425269611179828643798828125">
        <ele>993.4000244140625</ele>
        <time>2021-09-25T11:26:02.000Z</time>
      </trkpt>
      <trkpt lat="40.407517366111278533935546875" lon="-1.1841743253171443939208984375">
        <ele>992.5999755859375</ele>
        <time>2021-09-25T11:26:04.000Z</time>
      </trkpt>
      <trkpt lat="40.40744637139141559600830078125" lon="-1.1840879917144775390625">
        <ele>992</ele>
        <time>2021-09-25T11:26:06.000Z</time>
      </trkpt>
      <trkpt lat="40.4074099101126194000244140625" lon="-1.18404314853250980377197265625">
        <ele>991.79998779296875</ele>
        <time>2021-09-25T11:26:07.000Z</time>
      </trkpt>
      <trkpt lat="40.40737076662480831146240234375" lon="-1.184004843235015869140625">
        <ele>991.5999755859375</ele>
        <time>2021-09-25T11:26:08.000Z</time>
      </trkpt>
      <trkpt lat="40.40729549713432788848876953125" lon="-1.18392345495522022247314453125">
        <ele>991.4000244140625</ele>
        <time>2021-09-25T11:26:10.000Z</time>
      </trkpt>
      <trkpt lat="40.40722274221479892730712890625" lon="-1.1838403902947902679443359375">
        <ele>991</ele>
        <time>2021-09-25T11:26:12.000Z</time>
      </trkpt>
      <trkpt lat="40.40714546106755733489990234375" lon="-1.18376000784337520599365234375">
        <ele>991.20001220703125</ele>
        <time>2021-09-25T11:26:14.000Z</time>
      </trkpt>
      <trkpt lat="40.407070778310298919677734375" lon="-1.1836771108210086822509765625">
        <ele>991.4000244140625</ele>
        <time>2021-09-25T11:26:16.000Z</time>
      </trkpt>
      <trkpt lat="40.40699508972465991973876953125" lon="-1.1835956387221813201904296875">
        <ele>990.79998779296875</ele>
        <time>2021-09-25T11:26:18.000Z</time>
      </trkpt>
      <trkpt lat="40.406916551291942596435546875" lon="-1.183516345918178558349609375">
        <ele>990</ele>
        <time>2021-09-25T11:26:20.000Z</time>
      </trkpt>
      <trkpt lat="40.406836085021495819091796875" lon="-1.183433867990970611572265625">
        <ele>990.5999755859375</ele>
        <time>2021-09-25T11:26:22.000Z</time>
      </trkpt>
      <trkpt lat="40.40676073171198368072509765625" lon="-1.1833555810153484344482421875">
        <ele>991</ele>
        <time>2021-09-25T11:26:24.000Z</time>
      </trkpt>
      <trkpt lat="40.40668378584086894989013671875" lon="-1.18327016942203044891357421875">
        <ele>991</ele>
        <time>2021-09-25T11:26:26.000Z</time>
      </trkpt>
      <trkpt lat="40.40660600177943706512451171875" lon="-1.1831867694854736328125">
        <ele>991.4000244140625</ele>
        <time>2021-09-25T11:26:28.000Z</time>
      </trkpt>
      <trkpt lat="40.4065239429473876953125" lon="-1.1830995976924896240234375">
        <ele>992.4000244140625</ele>
        <time>2021-09-25T11:26:30.000Z</time>
      </trkpt>
      <trkpt lat="40.4064402915537357330322265625" lon="-1.18301418609917163848876953125">
        <ele>992.79998779296875</ele>
        <time>2021-09-25T11:26:32.000Z</time>
      </trkpt>
      <trkpt lat="40.4063594900071620941162109375" lon="-1.182930283248424530029296875">
        <ele>993.20001220703125</ele>
        <time>2021-09-25T11:26:34.000Z</time>
      </trkpt>
      <trkpt lat="40.406282208859920501708984375" lon="-1.18284705094993114471435546875">
        <ele>994</ele>
        <time>2021-09-25T11:26:36.000Z</time>
      </trkpt>
      <trkpt lat="40.4062428139150142669677734375" lon="-1.18280899710953235626220703125">
        <ele>994.4000244140625</ele>
        <time>2021-09-25T11:26:37.000Z</time>
      </trkpt>
      <trkpt lat="40.40620434097945690155029296875" lon="-1.18277261964976787567138671875">
        <ele>994.5999755859375</ele>
        <time>2021-09-25T11:26:38.000Z</time>
      </trkpt>
      <trkpt lat="40.40612840093672275543212890625" lon="-1.18269969709217548370361328125">
        <ele>994.79998779296875</ele>
        <time>2021-09-25T11:26:40.000Z</time>
      </trkpt>
      <trkpt lat="40.4060527123510837554931640625" lon="-1.1826162971556186676025390625">
        <ele>994.79998779296875</ele>
        <time>2021-09-25T11:26:42.000Z</time>
      </trkpt>
      <trkpt lat="40.4059772752225399017333984375" lon="-1.1825368367135524749755859375">
        <ele>994.5999755859375</ele>
        <time>2021-09-25T11:26:44.000Z</time>
      </trkpt>
      <trkpt lat="40.405934862792491912841796875" lon="-1.18249350227415561676025390625">
        <ele>994.4000244140625</ele>
        <time>2021-09-25T11:26:45.000Z</time>
      </trkpt>
      <trkpt lat="40.405896641314029693603515625" lon="-1.182452850043773651123046875">
        <ele>994.4000244140625</ele>
        <time>2021-09-25T11:26:46.000Z</time>
      </trkpt>
      <trkpt lat="40.40581793524324893951416015625" lon="-1.18237028829753398895263671875">
        <ele>994.20001220703125</ele>
        <time>2021-09-25T11:26:48.000Z</time>
      </trkpt>
      <trkpt lat="40.4057382233440876007080078125" lon="-1.18228395469486713409423828125">
        <ele>994.4000244140625</ele>
        <time>2021-09-25T11:26:50.000Z</time>
      </trkpt>
      <trkpt lat="40.405657924711704254150390625" lon="-1.18220181204378604888916015625">
        <ele>994.4000244140625</ele>
        <time>2021-09-25T11:26:52.000Z</time>
      </trkpt>
      <trkpt lat="40.40558173321187496185302734375" lon="-1.182116903364658355712890625">
        <ele>994.20001220703125</ele>
        <time>2021-09-25T11:26:54.000Z</time>
      </trkpt>
      <trkpt lat="40.4055400751531124114990234375" lon="-1.1820734851062297821044921875">
        <ele>994.20001220703125</ele>
        <time>2021-09-25T11:26:55.000Z</time>
      </trkpt>
      <trkpt lat="40.4054979979991912841796875" lon="-1.18203165940940380096435546875">
        <ele>994.4000244140625</ele>
        <time>2021-09-25T11:26:56.000Z</time>
      </trkpt>
      <trkpt lat="40.4054197110235691070556640625" lon="-1.18194314651191234588623046875">
        <ele>994.5999755859375</ele>
        <time>2021-09-25T11:26:58.000Z</time>
      </trkpt>
      <trkpt lat="40.40533781982958316802978515625" lon="-1.18185572326183319091796875">
        <ele>994.4000244140625</ele>
        <time>2021-09-25T11:27:00.000Z</time>
      </trkpt>
      <trkpt lat="40.4052564315497875213623046875" lon="-1.18177123367786407470703125">
        <ele>994.4000244140625</ele>
        <time>2021-09-25T11:27:02.000Z</time>
      </trkpt>
      <trkpt lat="40.40517814457416534423828125" lon="-1.181687079370021820068359375">
        <ele>994</ele>
        <time>2021-09-25T11:27:04.000Z</time>
      </trkpt>
      <trkpt lat="40.40510061196982860565185546875" lon="-1.1816034279763698577880859375">
        <ele>993.79998779296875</ele>
        <time>2021-09-25T11:27:06.000Z</time>
      </trkpt>
      <trkpt lat="40.40506104938685894012451171875" lon="-1.1815608479082584381103515625">
        <ele>993.5999755859375</ele>
        <time>2021-09-25T11:27:07.000Z</time>
      </trkpt>
      <trkpt lat="40.4050224088132381439208984375" lon="-1.18152120150625705718994140625">
        <ele>993.4000244140625</ele>
        <time>2021-09-25T11:27:08.000Z</time>
      </trkpt>
      <trkpt lat="40.40494420565664768218994140625" lon="-1.1814304254949092864990234375">
        <ele>993.5999755859375</ele>
        <time>2021-09-25T11:27:10.000Z</time>
      </trkpt>
      <trkpt lat="40.40486206300556659698486328125" lon="-1.18134208023548126220703125">
        <ele>993.79998779296875</ele>
        <time>2021-09-25T11:27:12.000Z</time>
      </trkpt>
      <trkpt lat="40.40477941744029521942138671875" lon="-1.18125331588089466094970703125">
        <ele>994.20001220703125</ele>
        <time>2021-09-25T11:27:14.000Z</time>
      </trkpt>
      <trkpt lat="40.4047012142837047576904296875" lon="-1.181163378059864044189453125">
        <ele>994</ele>
        <time>2021-09-25T11:27:16.000Z</time>
      </trkpt>
      <trkpt lat="40.40466156788170337677001953125" lon="-1.18111635558307170867919921875">
        <ele>994</ele>
        <time>2021-09-25T11:27:17.000Z</time>
      </trkpt>
      <trkpt lat="40.40462150238454341888427734375" lon="-1.18106774054467678070068359375">
        <ele>993.79998779296875</ele>
        <time>2021-09-25T11:27:18.000Z</time>
      </trkpt>
      <trkpt lat="40.40454254485666751861572265625" lon="-1.18097067810595035552978515625">
        <ele>993.4000244140625</ele>
        <time>2021-09-25T11:27:20.000Z</time>
      </trkpt>
      <trkpt lat="40.40446467697620391845703125" lon="-1.18087126873433589935302734375">
        <ele>993.20001220703125</ele>
        <time>2021-09-25T11:27:22.000Z</time>
      </trkpt>
      <trkpt lat="40.40439049713313579559326171875" lon="-1.18076968006789684295654296875">
        <ele>993</ele>
        <time>2021-09-25T11:27:24.000Z</time>
      </trkpt>
      <trkpt lat="40.4043132998049259185791015625" lon="-1.18066792376339435577392578125">
        <ele>993</ele>
        <time>2021-09-25T11:27:26.000Z</time>
      </trkpt>
      <trkpt lat="40.40427650325000286102294921875" lon="-1.18061562068760395050048828125">
        <ele>993</ele>
        <time>2021-09-25T11:27:27.000Z</time>
      </trkpt>
      <trkpt lat="40.40424012579023838043212890625" lon="-1.1805630661547183990478515625">
        <ele>992.79998779296875</ele>
        <time>2021-09-25T11:27:28.000Z</time>
      </trkpt>
      <trkpt lat="40.40416703559458255767822265625" lon="-1.18045938201248645782470703125">
        <ele>992.20001220703125</ele>
        <time>2021-09-25T11:27:30.000Z</time>
      </trkpt>
      <trkpt lat="40.4040957055985927581787109375" lon="-1.18035125546157360076904296875">
        <ele>992.5999755859375</ele>
        <time>2021-09-25T11:27:32.000Z</time>
      </trkpt>
      <trkpt lat="40.40402772836387157440185546875" lon="-1.18023675866425037384033203125">
        <ele>992.79998779296875</ele>
        <time>2021-09-25T11:27:34.000Z</time>
      </trkpt>
      <trkpt lat="40.40396000258624553680419921875" lon="-1.180126704275608062744140625">
        <ele>992.20001220703125</ele>
        <time>2021-09-25T11:27:36.000Z</time>
      </trkpt>
      <trkpt lat="40.4039277322590351104736328125" lon="-1.18006995879113674163818359375">
        <ele>992</ele>
        <time>2021-09-25T11:27:37.000Z</time>
      </trkpt>
      <trkpt lat="40.4038978926837444305419921875" lon="-1.180008016526699066162109375">
        <ele>992</ele>
        <time>2021-09-25T11:27:38.000Z</time>
      </trkpt>
      <trkpt lat="40.4038372077047824859619140625" lon="-1.17988740094006061553955078125">
        <ele>992</ele>
        <time>2021-09-25T11:27:40.000Z</time>
      </trkpt>
      <trkpt lat="40.4037778638303279876708984375" lon="-1.17976385168731212615966796875">
        <ele>992.4000244140625</ele>
        <time>2021-09-25T11:27:42.000Z</time>
      </trkpt>
      <trkpt lat="40.40371910668909549713134765625" lon="-1.179647259414196014404296875">
        <ele>992.5999755859375</ele>
        <time>2021-09-25T11:27:44.000Z</time>
      </trkpt>
      <trkpt lat="40.40366194210946559906005859375" lon="-1.17953301407396793365478515625">
        <ele>993</ele>
        <time>2021-09-25T11:27:46.000Z</time>
      </trkpt>
      <trkpt lat="40.40360637009143829345703125" lon="-1.179419271647930145263671875">
        <ele>993.5999755859375</ele>
        <time>2021-09-25T11:27:48.000Z</time>
      </trkpt>
      <trkpt lat="40.403551720082759857177734375" lon="-1.1793077923357486724853515625">
        <ele>994</ele>
        <time>2021-09-25T11:27:50.000Z</time>
      </trkpt>
      <trkpt lat="40.40350737981498241424560546875" lon="-1.17919824086129665374755859375">
        <ele>994</ele>
        <time>2021-09-25T11:27:52.000Z</time>
      </trkpt>
      <trkpt lat="40.40346664376556873321533203125" lon="-1.1790922097861766815185546875">
        <ele>994.4000244140625</ele>
        <time>2021-09-25T11:27:54.000Z</time>
      </trkpt>
      <trkpt lat="40.403448455035686492919921875" lon="-1.17903982289135456085205078125">
        <ele>994.4000244140625</ele>
        <time>2021-09-25T11:27:55.000Z</time>
      </trkpt>
      <trkpt lat="40.40342800319194793701171875" lon="-1.17898886092007160186767578125">
        <ele>994.20001220703125</ele>
        <time>2021-09-25T11:27:56.000Z</time>
      </trkpt>
      <trkpt lat="40.40339305065572261810302734375" lon="-1.17889414541423320770263671875">
        <ele>994.79998779296875</ele>
        <time>2021-09-25T11:27:58.000Z</time>
      </trkpt>
      <trkpt lat="40.40336337871849536895751953125" lon="-1.1787924729287624359130859375">
        <ele>995.4000244140625</ele>
        <time>2021-09-25T11:28:00.000Z</time>
      </trkpt>
      <trkpt lat="40.4033280909061431884765625" lon="-1.1786918900907039642333984375">
        <ele>995.20001220703125</ele>
        <time>2021-09-25T11:28:02.000Z</time>
      </trkpt>
      <trkpt lat="40.40328961797058582305908203125" lon="-1.1785986833274364471435546875">
        <ele>994.5999755859375</ele>
        <time>2021-09-25T11:28:04.000Z</time>
      </trkpt>
      <trkpt lat="40.4032521508634090423583984375" lon="-1.178503967821598052978515625">
        <ele>994.20001220703125</ele>
        <time>2021-09-25T11:28:06.000Z</time>
      </trkpt>
      <trkpt lat="40.40321652777493000030517578125" lon="-1.17841034196317195892333984375">
        <ele>994</ele>
        <time>2021-09-25T11:28:08.000Z</time>
      </trkpt>
      <trkpt lat="40.40318191051483154296875" lon="-1.17831948213279247283935546875">
        <ele>993.4000244140625</ele>
        <time>2021-09-25T11:28:10.000Z</time>
      </trkpt>
      <trkpt lat="40.4031488858163356781005859375" lon="-1.17822895757853984832763671875">
        <ele>992.20001220703125</ele>
        <time>2021-09-25T11:28:12.000Z</time>
      </trkpt>
      <trkpt lat="40.4031180404126644134521484375" lon="-1.17813558317720890045166015625">
        <ele>991.20001220703125</ele>
        <time>2021-09-25T11:28:14.000Z</time>
      </trkpt>
      <trkpt lat="40.4030835069715976715087890625" lon="-1.1780370958149433135986328125">
        <ele>990</ele>
        <time>2021-09-25T11:28:16.000Z</time>
      </trkpt>
      <trkpt lat="40.4030436091125011444091796875" lon="-1.17793793790042400360107421875">
        <ele>989</ele>
        <time>2021-09-25T11:28:18.000Z</time>
      </trkpt>
      <trkpt lat="40.40300480090081691741943359375" lon="-1.17783048190176486968994140625">
        <ele>988.5999755859375</ele>
        <time>2021-09-25T11:28:20.000Z</time>
      </trkpt>
      <trkpt lat="40.40296733379364013671875" lon="-1.177717410027980804443359375">
        <ele>988.20001220703125</ele>
        <time>2021-09-25T11:28:22.000Z</time>
      </trkpt>
      <trkpt lat="40.40292299352586269378662109375" lon="-1.17760333232581615447998046875">
        <ele>988.4000244140625</ele>
        <time>2021-09-25T11:28:24.000Z</time>
      </trkpt>
      <trkpt lat="40.40287840180099010467529296875" lon="-1.17747777141630649566650390625">
        <ele>988.79998779296875</ele>
        <time>2021-09-25T11:28:26.000Z</time>
      </trkpt>
      <trkpt lat="40.40283079259097576141357421875" lon="-1.17733226157724857330322265625">
        <ele>989.5999755859375</ele>
        <time>2021-09-25T11:28:28.000Z</time>
      </trkpt>
      <trkpt lat="40.40277211926877498626708984375" lon="-1.17716378532350063323974609375">
        <ele>990.79998779296875</ele>
        <time>2021-09-25T11:28:30.000Z</time>
      </trkpt>
      <trkpt lat="40.4027388431131839752197265625" lon="-1.17707225494086742401123046875">
        <ele>991.20001220703125</ele>
        <time>2021-09-25T11:28:31.000Z</time>
      </trkpt>
      <trkpt lat="40.40270456112921237945556640625" lon="-1.176974438130855560302734375">
        <ele>991.79998779296875</ele>
        <time>2021-09-25T11:28:32.000Z</time>
      </trkpt>
      <trkpt lat="40.4026241786777973175048828125" lon="-1.17676480673253536224365234375">
        <ele>992</ele>
        <time>2021-09-25T11:28:34.000Z</time>
      </trkpt>
      <trkpt lat="40.4025504179298877716064453125" lon="-1.17657051421701908111572265625">
        <ele>991.20001220703125</ele>
        <time>2021-09-25T11:28:36.000Z</time>
      </trkpt>
      <trkpt lat="40.40249367244541645050048828125" lon="-1.17642014287412166595458984375">
        <ele>990.5999755859375</ele>
        <time>2021-09-25T11:28:38.000Z</time>
      </trkpt>
      <trkpt lat="40.40243902243673801422119140625" lon="-1.1762899719178676605224609375">
        <ele>989.79998779296875</ele>
        <time>2021-09-25T11:28:40.000Z</time>
      </trkpt>
      <trkpt lat="40.4023861326277256011962890625" lon="-1.176175810396671295166015625">
        <ele>989</ele>
        <time>2021-09-25T11:28:42.000Z</time>
      </trkpt>
      <trkpt lat="40.40232989005744457244873046875" lon="-1.176081262528896331787109375">
        <ele>988.4000244140625</ele>
        <time>2021-09-25T11:28:44.000Z</time>
      </trkpt>
      <trkpt lat="40.402289070188999176025390625" lon="-1.17599065415561199188232421875">
        <ele>988.4000244140625</ele>
        <time>2021-09-25T11:28:46.000Z</time>
      </trkpt>
      <trkpt lat="40.4022617451846599578857421875" lon="-1.17591085843741893768310546875">
        <ele>988.4000244140625</ele>
        <time>2021-09-25T11:28:48.000Z</time>
      </trkpt>
      <trkpt lat="40.40224992670118808746337890625" lon="-1.1758782528340816497802734375">
        <ele>988.5999755859375</ele>
        <time>2021-09-25T11:28:49.000Z</time>
      </trkpt>
      <trkpt lat="40.40223785676062107086181640625" lon="-1.175846569240093231201171875">
        <ele>988.5999755859375</ele>
        <time>2021-09-25T11:28:50.000Z</time>
      </trkpt>
      <trkpt lat="40.402217321097850799560546875" lon="-1.17579116486012935638427734375">
        <ele>988.79998779296875</ele>
        <time>2021-09-25T11:28:52.000Z</time>
      </trkpt>
      <trkpt lat="40.4021977074444293975830078125" lon="-1.17574833333492279052734375">
        <ele>989</ele>
        <time>2021-09-25T11:28:54.000Z</time>
      </trkpt>
      <trkpt lat="40.4021839611232280731201171875" lon="-1.17569661699235439300537109375">
        <ele>989</ele>
        <time>2021-09-25T11:28:56.000Z</time>
      </trkpt>
      <trkpt lat="40.4021604917943477630615234375" lon="-1.17563392035663127899169921875">
        <ele>989.20001220703125</ele>
        <time>2021-09-25T11:28:58.000Z</time>
      </trkpt>
      <trkpt lat="40.40214565582573413848876953125" lon="-1.1756001412868499755859375">
        <ele>989.20001220703125</ele>
        <time>2021-09-25T11:28:59.000Z</time>
      </trkpt>
      <trkpt lat="40.4021318256855010986328125" lon="-1.17556720040738582611083984375">
        <ele>989.20001220703125</ele>
        <time>2021-09-25T11:29:00.000Z</time>
      </trkpt>
      <trkpt lat="40.4021034948527812957763671875" lon="-1.1754960380494594573974609375">
        <ele>989.4000244140625</ele>
        <time>2021-09-25T11:29:02.000Z</time>
      </trkpt>
      <trkpt lat="40.4020780138671398162841796875" lon="-1.17542244493961334228515625">
        <ele>989.5999755859375</ele>
        <time>2021-09-25T11:29:04.000Z</time>
      </trkpt>
      <trkpt lat="40.402047671377658843994140625" lon="-1.17533988319337368011474609375">
        <ele>990</ele>
        <time>2021-09-25T11:29:06.000Z</time>
      </trkpt>
      <trkpt lat="40.40202059783041477203369140625" lon="-1.17526461370289325714111328125">
        <ele>990</ele>
        <time>2021-09-25T11:29:08.000Z</time>
      </trkpt>
      <trkpt lat="40.40198497474193572998046875" lon="-1.17517157457768917083740234375">
        <ele>990</ele>
        <time>2021-09-25T11:29:10.000Z</time>
      </trkpt>
      <trkpt lat="40.40194868110120296478271484375" lon="-1.1750735901296138763427734375">
        <ele>990.20001220703125</ele>
        <time>2021-09-25T11:29:12.000Z</time>
      </trkpt>
      <trkpt lat="40.401930324733257293701171875" lon="-1.17502153851091861724853515625">
        <ele>990.5999755859375</ele>
        <time>2021-09-25T11:29:13.000Z</time>
      </trkpt>
      <trkpt lat="40.4019130580127239227294921875" lon="-1.17496806196868419647216796875">
        <ele>990.79998779296875</ele>
        <time>2021-09-25T11:29:14.000Z</time>
      </trkpt>
      <trkpt lat="40.40187592618167400360107421875" lon="-1.174860186874866485595703125">
        <ele>990.79998779296875</ele>
        <time>2021-09-25T11:29:16.000Z</time>
      </trkpt>
      <trkpt lat="40.4018362797796726226806640625" lon="-1.174754239618778228759765625">
        <ele>990.4000244140625</ele>
        <time>2021-09-25T11:29:18.000Z</time>
      </trkpt>
      <trkpt lat="40.40179856121540069580078125" lon="-1.17464502342045307159423828125">
        <ele>990</ele>
        <time>2021-09-25T11:29:20.000Z</time>
      </trkpt>
      <trkpt lat="40.40175966918468475341796875" lon="-1.17452952079474925994873046875">
        <ele>989.5999755859375</ele>
        <time>2021-09-25T11:29:22.000Z</time>
      </trkpt>
      <trkpt lat="40.40174097754061222076416015625" lon="-1.17447185330092906951904296875">
        <ele>989.5999755859375</ele>
        <time>2021-09-25T11:29:23.000Z</time>
      </trkpt>
      <trkpt lat="40.40172102861106395721435546875" lon="-1.174413263797760009765625">
        <ele>989.79998779296875</ele>
        <time>2021-09-25T11:29:24.000Z</time>
      </trkpt>
      <trkpt lat="40.40168012492358684539794921875" lon="-1.1742910556495189666748046875">
        <ele>990</ele>
        <time>2021-09-25T11:29:26.000Z</time>
      </trkpt>
      <trkpt lat="40.4016361199319362640380859375" lon="-1.17416842840611934661865234375">
        <ele>990</ele>
        <time>2021-09-25T11:29:28.000Z</time>
      </trkpt>
      <trkpt lat="40.40159161202609539031982421875" lon="-1.174045465886592864990234375">
        <ele>990.20001220703125</ele>
        <time>2021-09-25T11:29:30.000Z</time>
      </trkpt>
      <trkpt lat="40.40154643356800079345703125" lon="-1.17392149753868579864501953125">
        <ele>990.5999755859375</ele>
        <time>2021-09-25T11:29:32.000Z</time>
      </trkpt>
      <trkpt lat="40.40150661952793598175048828125" lon="-1.1737975291907787322998046875">
        <ele>990.5999755859375</ele>
        <time>2021-09-25T11:29:34.000Z</time>
      </trkpt>
      <trkpt lat="40.4014644585549831390380859375" lon="-1.17367423139512538909912109375">
        <ele>990.79998779296875</ele>
        <time>2021-09-25T11:29:36.000Z</time>
      </trkpt>
      <trkpt lat="40.4014195315539836883544921875" lon="-1.1735521070659160614013671875">
        <ele>991</ele>
        <time>2021-09-25T11:29:38.000Z</time>
      </trkpt>
      <trkpt lat="40.40137552656233310699462890625" lon="-1.17343115620315074920654296875">
        <ele>990.79998779296875</ele>
        <time>2021-09-25T11:29:40.000Z</time>
      </trkpt>
      <trkpt lat="40.4013333655893802642822265625" lon="-1.17330777458846569061279296875">
        <ele>990</ele>
        <time>2021-09-25T11:29:42.000Z</time>
      </trkpt>
      <trkpt lat="40.4012917913496494293212890625" lon="-1.17318104021251201629638671875">
        <ele>989.4000244140625</ele>
        <time>2021-09-25T11:29:44.000Z</time>
      </trkpt>
      <trkpt lat="40.4012696631252765655517578125" lon="-1.17311934940516948699951171875">
        <ele>989.4000244140625</ele>
        <time>2021-09-25T11:29:45.000Z</time>
      </trkpt>
      <trkpt lat="40.40124527178704738616943359375" lon="-1.1730602569878101348876953125">
        <ele>989.20001220703125</ele>
        <time>2021-09-25T11:29:46.000Z</time>
      </trkpt>
      <trkpt lat="40.401202104985713958740234375" lon="-1.17293327115476131439208984375">
        <ele>988.79998779296875</ele>
        <time>2021-09-25T11:29:48.000Z</time>
      </trkpt>
      <trkpt lat="40.401157848536968231201171875" lon="-1.172807626426219940185546875">
        <ele>988.5999755859375</ele>
        <time>2021-09-25T11:29:50.000Z</time>
      </trkpt>
      <trkpt lat="40.40111367590725421905517578125" lon="-1.1726830713450908660888671875">
        <ele>988.20001220703125</ele>
        <time>2021-09-25T11:29:52.000Z</time>
      </trkpt>
      <trkpt lat="40.40107042528688907623291015625" lon="-1.1725593544542789459228515625">
        <ele>988</ele>
        <time>2021-09-25T11:29:54.000Z</time>
      </trkpt>
      <trkpt lat="40.4010255821049213409423828125" lon="-1.172435469925403594970703125">
        <ele>988</ele>
        <time>2021-09-25T11:29:56.000Z</time>
      </trkpt>
      <trkpt lat="40.4009806551039218902587890625" lon="-1.17231183685362339019775390625">
        <ele>988.4000244140625</ele>
        <time>2021-09-25T11:29:58.000Z</time>
      </trkpt>
      <trkpt lat="40.4009367339313030242919921875" lon="-1.172181665897369384765625">
        <ele>988.4000244140625</ele>
        <time>2021-09-25T11:30:00.000Z</time>
      </trkpt>
      <trkpt lat="40.40089172311127185821533203125" lon="-1.172050572931766510009765625">
        <ele>988.79998779296875</ele>
        <time>2021-09-25T11:30:02.000Z</time>
      </trkpt>
      <trkpt lat="40.40084235370159149169921875" lon="-1.17192082107067108154296875">
        <ele>989.5999755859375</ele>
        <time>2021-09-25T11:30:04.000Z</time>
      </trkpt>
      <trkpt lat="40.40079784579575061798095703125" lon="-1.17179048247635364532470703125">
        <ele>990.20001220703125</ele>
        <time>2021-09-25T11:30:06.000Z</time>
      </trkpt>
      <trkpt lat="40.4007751308381557464599609375" lon="-1.171727366745471954345703125">
        <ele>990.4000244140625</ele>
        <time>2021-09-25T11:30:07.000Z</time>
      </trkpt>
      <trkpt lat="40.40075384080410003662109375" lon="-1.1716653406620025634765625">
        <ele>990.5999755859375</ele>
        <time>2021-09-25T11:30:08.000Z</time>
      </trkpt>
      <trkpt lat="40.40071251802146434783935546875" lon="-1.171545647084712982177734375">
        <ele>991.20001220703125</ele>
        <time>2021-09-25T11:30:10.000Z</time>
      </trkpt>
      <trkpt lat="40.40066675283014774322509765625" lon="-1.17142721079289913177490234375">
        <ele>991.4000244140625</ele>
        <time>2021-09-25T11:30:12.000Z</time>
      </trkpt>
      <trkpt lat="40.40062484331429004669189453125" lon="-1.17130164988338947296142578125">
        <ele>991.4000244140625</ele>
        <time>2021-09-25T11:30:14.000Z</time>
      </trkpt>
      <trkpt lat="40.40060221217572689056396484375" lon="-1.17123777978122234344482421875">
        <ele>991</ele>
        <time>2021-09-25T11:30:15.000Z</time>
      </trkpt>
      <trkpt lat="40.40057815611362457275390625" lon="-1.1711739934980869293212890625">
        <ele>991.20001220703125</ele>
        <time>2021-09-25T11:30:16.000Z</time>
      </trkpt>
      <trkpt lat="40.40053096599876880645751953125" lon="-1.1710439063608646392822265625">
        <ele>992</ele>
        <time>2021-09-25T11:30:18.000Z</time>
      </trkpt>
      <trkpt lat="40.40048469789326190948486328125" lon="-1.1709128133952617645263671875">
        <ele>992</ele>
        <time>2021-09-25T11:30:20.000Z</time>
      </trkpt>
      <trkpt lat="40.4004381783306598663330078125" lon="-1.1707803793251514434814453125">
        <ele>992</ele>
        <time>2021-09-25T11:30:22.000Z</time>
      </trkpt>
      <trkpt lat="40.40039082057774066925048828125" lon="-1.17064551450312137603759765625">
        <ele>992</ele>
        <time>2021-09-25T11:30:24.000Z</time>
      </trkpt>
      <trkpt lat="40.4003409482538700103759765625" lon="-1.17050997912883758544921875">
        <ele>992</ele>
        <time>2021-09-25T11:30:26.000Z</time>
      </trkpt>
      <trkpt lat="40.40028990246355533599853515625" lon="-1.1703725159168243408203125">
        <ele>992.20001220703125</ele>
        <time>2021-09-25T11:30:28.000Z</time>
      </trkpt>
      <trkpt lat="40.40024128742516040802001953125" lon="-1.170234046876430511474609375">
        <ele>992</ele>
        <time>2021-09-25T11:30:30.000Z</time>
      </trkpt>
      <trkpt lat="40.40019317530095577239990234375" lon="-1.17009800858795642852783203125">
        <ele>991.20001220703125</ele>
        <time>2021-09-25T11:30:32.000Z</time>
      </trkpt>
      <trkpt lat="40.40016853250563144683837890625" lon="-1.170028857886791229248046875">
        <ele>990.79998779296875</ele>
        <time>2021-09-25T11:30:33.000Z</time>
      </trkpt>
      <trkpt lat="40.40014355443418025970458984375" lon="-1.16995920427143573760986328125">
        <ele>990.4000244140625</ele>
        <time>2021-09-25T11:30:34.000Z</time>
      </trkpt>
      <trkpt lat="40.40009259246289730072021484375" lon="-1.1698245070874691009521484375">
        <ele>989.79998779296875</ele>
        <time>2021-09-25T11:30:36.000Z</time>
      </trkpt>
      <trkpt lat="40.400045402348041534423828125" lon="-1.1696867085993289947509765625">
        <ele>990</ele>
        <time>2021-09-25T11:30:38.000Z</time>
      </trkpt>
      <trkpt lat="40.40000139735639095306396484375" lon="-1.1695611476898193359375">
        <ele>990.20001220703125</ele>
        <time>2021-09-25T11:30:40.000Z</time>
      </trkpt>
      <trkpt lat="40.399978347122669219970703125" lon="-1.16950306110084056854248046875">
        <ele>990</ele>
        <time>2021-09-25T11:30:41.000Z</time>
      </trkpt>
      <trkpt lat="40.39995588362216949462890625" lon="-1.16944153793156147003173828125">
        <ele>990</ele>
        <time>2021-09-25T11:30:42.000Z</time>
      </trkpt>
      <trkpt lat="40.3999109566211700439453125" lon="-1.16931237280368804931640625">
        <ele>990.20001220703125</ele>
        <time>2021-09-25T11:30:44.000Z</time>
      </trkpt>
      <trkpt lat="40.39986426942050457000732421875" lon="-1.1691740714013576507568359375">
        <ele>990.5999755859375</ele>
        <time>2021-09-25T11:30:46.000Z</time>
      </trkpt>
      <trkpt lat="40.3998118825256824493408203125" lon="-1.169033758342266082763671875">
        <ele>990.20001220703125</ele>
        <time>2021-09-25T11:30:48.000Z</time>
      </trkpt>
      <trkpt lat="40.39976050145924091339111328125" lon="-1.16889034397900104522705078125">
        <ele>989.5999755859375</ele>
        <time>2021-09-25T11:30:50.000Z</time>
      </trkpt>
      <trkpt lat="40.399711467325687408447265625" lon="-1.1687425710260868072509765625">
        <ele>989</ele>
        <time>2021-09-25T11:30:52.000Z</time>
      </trkpt>
      <trkpt lat="40.39965941570699214935302734375" lon="-1.16859546862542629241943359375">
        <ele>988.79998779296875</ele>
        <time>2021-09-25T11:30:54.000Z</time>
      </trkpt>
      <trkpt lat="40.3996050171554088592529296875" lon="-1.168445013463497161865234375">
        <ele>988.5999755859375</ele>
        <time>2021-09-25T11:30:56.000Z</time>
      </trkpt>
      <trkpt lat="40.399551875889301300048828125" lon="-1.1682909540832042694091796875">
        <ele>988.4000244140625</ele>
        <time>2021-09-25T11:30:58.000Z</time>
      </trkpt>
      <trkpt lat="40.39952673017978668212890625" lon="-1.1682133376598358154296875">
        <ele>988.4000244140625</ele>
        <time>2021-09-25T11:30:59.000Z</time>
      </trkpt>
      <trkpt lat="40.39950116537511348724365234375" lon="-1.1681380681693553924560546875">
        <ele>988.5999755859375</ele>
        <time>2021-09-25T11:31:00.000Z</time>
      </trkpt>
      <trkpt lat="40.399445258080959320068359375" lon="-1.16798744536936283111572265625">
        <ele>988.20001220703125</ele>
        <time>2021-09-25T11:31:02.000Z</time>
      </trkpt>
      <trkpt lat="40.39939169771969318389892578125" lon="-1.16783841513097286224365234375">
        <ele>988.4000244140625</ele>
        <time>2021-09-25T11:31:04.000Z</time>
      </trkpt>
      <trkpt lat="40.399343334138393402099609375" lon="-1.16769558750092983245849609375">
        <ele>988.79998779296875</ele>
        <time>2021-09-25T11:31:06.000Z</time>
      </trkpt>
      <trkpt lat="40.399292372167110443115234375" lon="-1.1675566993653774261474609375">
        <ele>988.5999755859375</ele>
        <time>2021-09-25T11:31:08.000Z</time>
      </trkpt>
      <trkpt lat="40.39923998527228832244873046875" lon="-1.167418062686920166015625">
        <ele>988.4000244140625</ele>
        <time>2021-09-25T11:31:10.000Z</time>
      </trkpt>
      <trkpt lat="40.39918583817780017852783203125" lon="-1.16727481596171855926513671875">
        <ele>987.5999755859375</ele>
        <time>2021-09-25T11:31:12.000Z</time>
      </trkpt>
      <trkpt lat="40.3991359658539295196533203125" lon="-1.16712813265621662139892578125">
        <ele>987</ele>
        <time>2021-09-25T11:31:14.000Z</time>
      </trkpt>
      <trkpt lat="40.39911098778247833251953125" lon="-1.1670554615557193756103515625">
        <ele>987.4000244140625</ele>
        <time>2021-09-25T11:31:15.000Z</time>
      </trkpt>
      <trkpt lat="40.3990850038826465606689453125" lon="-1.16698312573134899139404296875">
        <ele>987.79998779296875</ele>
        <time>2021-09-25T11:31:16.000Z</time>
      </trkpt>
      <trkpt lat="40.39903446100652217864990234375" lon="-1.166837699711322784423828125">
        <ele>988</ele>
        <time>2021-09-25T11:31:18.000Z</time>
      </trkpt>
      <trkpt lat="40.3989840857684612274169921875" lon="-1.1666876636445522308349609375">
        <ele>988.20001220703125</ele>
        <time>2021-09-25T11:31:20.000Z</time>
      </trkpt>
      <trkpt lat="40.39892951957881450653076171875" lon="-1.16653620265424251556396484375">
        <ele>988.79998779296875</ele>
        <time>2021-09-25T11:31:22.000Z</time>
      </trkpt>
      <trkpt lat="40.3989012725651264190673828125" lon="-1.1664618551731109619140625">
        <ele>988.79998779296875</ele>
        <time>2021-09-25T11:31:23.000Z</time>
      </trkpt>
      <trkpt lat="40.3988731093704700469970703125" lon="-1.16638599894940853118896484375">
        <ele>989</ele>
        <time>2021-09-25T11:31:24.000Z</time>
      </trkpt>
      <trkpt lat="40.39881871081888675689697265625" lon="-1.16623026318848133087158203125">
        <ele>988.5999755859375</ele>
        <time>2021-09-25T11:31:26.000Z</time>
      </trkpt>
      <trkpt lat="40.39876288734376430511474609375" lon="-1.1660788021981716156005859375">
        <ele>987.79998779296875</ele>
        <time>2021-09-25T11:31:28.000Z</time>
      </trkpt>
      <trkpt lat="40.39870689623057842254638671875" lon="-1.16592206060886383056640625">
        <ele>987.20001220703125</ele>
        <time>2021-09-25T11:31:30.000Z</time>
      </trkpt>
      <trkpt lat="40.3986545093357563018798828125" lon="-1.1657683365046977996826171875">
        <ele>987.4000244140625</ele>
        <time>2021-09-25T11:31:32.000Z</time>
      </trkpt>
      <trkpt lat="40.39860379882156848907470703125" lon="-1.16561486385762691497802734375">
        <ele>988</ele>
        <time>2021-09-25T11:31:34.000Z</time>
      </trkpt>
      <trkpt lat="40.3985512442886829376220703125" lon="-1.1654655821621417999267578125">
        <ele>988.79998779296875</ele>
        <time>2021-09-25T11:31:36.000Z</time>
      </trkpt>
      <trkpt lat="40.39850187487900257110595703125" lon="-1.165322251617908477783203125">
        <ele>989.20001220703125</ele>
        <time>2021-09-25T11:31:38.000Z</time>
      </trkpt>
      <trkpt lat="40.39845342747867107391357421875" lon="-1.1651869677007198333740234375">
        <ele>990</ele>
        <time>2021-09-25T11:31:40.000Z</time>
      </trkpt>
      <trkpt lat="40.39840782992541790008544921875" lon="-1.16505042649805545806884765625">
        <ele>990.4000244140625</ele>
        <time>2021-09-25T11:31:42.000Z</time>
      </trkpt>
      <trkpt lat="40.398385114967823028564453125" lon="-1.16498186253011226654052734375">
        <ele>990.20001220703125</ele>
        <time>2021-09-25T11:31:43.000Z</time>
      </trkpt>
      <trkpt lat="40.398361645638942718505859375" lon="-1.16491614840924739837646484375">
        <ele>990.20001220703125</ele>
        <time>2021-09-25T11:31:44.000Z</time>
      </trkpt>
      <trkpt lat="40.39831093512475490570068359375" lon="-1.16477407515048980712890625">
        <ele>989.5999755859375</ele>
        <time>2021-09-25T11:31:46.000Z</time>
      </trkpt>
      <trkpt lat="40.39828511886298656463623046875" lon="-1.16470031440258026123046875">
        <ele>989.20001220703125</ele>
        <time>2021-09-25T11:31:47.000Z</time>
      </trkpt>
      <trkpt lat="40.39825913496315479278564453125" lon="-1.16462789475917816162109375">
        <ele>989</ele>
        <time>2021-09-25T11:31:48.000Z</time>
      </trkpt>
      <trkpt lat="40.39820968173444271087646484375" lon="-1.16448448039591312408447265625">
        <ele>989.5999755859375</ele>
        <time>2021-09-25T11:31:50.000Z</time>
      </trkpt>
      <trkpt lat="40.39815871976315975189208984375" lon="-1.164350621402263641357421875">
        <ele>990</ele>
        <time>2021-09-25T11:31:52.000Z</time>
      </trkpt>
      <trkpt lat="40.39810943417251110076904296875" lon="-1.16421726532280445098876953125">
        <ele>990.4000244140625</ele>
        <time>2021-09-25T11:31:54.000Z</time>
      </trkpt>
      <trkpt lat="40.3980657644569873809814453125" lon="-1.1640832386910915374755859375">
        <ele>991</ele>
        <time>2021-09-25T11:31:56.000Z</time>
      </trkpt>
      <trkpt lat="40.39801723323762416839599609375" lon="-1.1639451049268245697021484375">
        <ele>991.4000244140625</ele>
        <time>2021-09-25T11:31:58.000Z</time>
      </trkpt>
      <trkpt lat="40.3979665227234363555908203125" lon="-1.163807474076747894287109375">
        <ele>991.79998779296875</ele>
        <time>2021-09-25T11:32:00.000Z</time>
      </trkpt>
      <trkpt lat="40.397917069494724273681640625" lon="-1.163673363626003265380859375">
        <ele>991.20001220703125</ele>
        <time>2021-09-25T11:32:02.000Z</time>
      </trkpt>
      <trkpt lat="40.39787021465599536895751953125" lon="-1.16353145800530910491943359375">
        <ele>990.4000244140625</ele>
        <time>2021-09-25T11:32:04.000Z</time>
      </trkpt>
      <trkpt lat="40.39782394655048847198486328125" lon="-1.16339047439396381378173828125">
        <ele>989.79998779296875</ele>
        <time>2021-09-25T11:32:06.000Z</time>
      </trkpt>
      <trkpt lat="40.39777449332177639007568359375" lon="-1.1632539331912994384765625">
        <ele>989.20001220703125</ele>
        <time>2021-09-25T11:32:08.000Z</time>
      </trkpt>
      <trkpt lat="40.397724620997905731201171875" lon="-1.1631142906844615936279296875">
        <ele>988</ele>
        <time>2021-09-25T11:32:10.000Z</time>
      </trkpt>
      <trkpt lat="40.39767332375049591064453125" lon="-1.16297037340700626373291015625">
        <ele>987</ele>
        <time>2021-09-25T11:32:12.000Z</time>
      </trkpt>
      <trkpt lat="40.39762361906468868255615234375" lon="-1.16282888688147068023681640625">
        <ele>987.4000244140625</ele>
        <time>2021-09-25T11:32:14.000Z</time>
      </trkpt>
      <trkpt lat="40.3975745849311351776123046875" lon="-1.162683628499507904052734375">
        <ele>987.4000244140625</ele>
        <time>2021-09-25T11:32:16.000Z</time>
      </trkpt>
      <trkpt lat="40.39752253331243991851806640625" lon="-1.16254071705043315887451171875">
        <ele>987.5999755859375</ele>
        <time>2021-09-25T11:32:18.000Z</time>
      </trkpt>
      <trkpt lat="40.39747056551277637481689453125" lon="-1.1623942852020263671875">
        <ele>988</ele>
        <time>2021-09-25T11:32:20.000Z</time>
      </trkpt>
      <trkpt lat="40.3974421508610248565673828125" lon="-1.1623223684728145599365234375">
        <ele>988</ele>
        <time>2021-09-25T11:32:21.000Z</time>
      </trkpt>
      <trkpt lat="40.39741591550409793853759765625" lon="-1.16224852390587329864501953125">
        <ele>988</ele>
        <time>2021-09-25T11:32:22.000Z</time>
      </trkpt>
      <trkpt lat="40.39736512117087841033935546875" lon="-1.1620967276394367218017578125">
        <ele>987.5999755859375</ele>
        <time>2021-09-25T11:32:24.000Z</time>
      </trkpt>
      <trkpt lat="40.397309549152851104736328125" lon="-1.16194610483944416046142578125">
        <ele>987.20001220703125</ele>
        <time>2021-09-25T11:32:26.000Z</time>
      </trkpt>
      <trkpt lat="40.39725749753415584564208984375" lon="-1.16179740987718105316162109375">
        <ele>986.20001220703125</ele>
        <time>2021-09-25T11:32:28.000Z</time>
      </trkpt>
      <trkpt lat="40.39720418862998485565185546875" lon="-1.16165860556066036224365234375">
        <ele>986</ele>
        <time>2021-09-25T11:32:30.000Z</time>
      </trkpt>
      <trkpt lat="40.39715289138257503509521484375" lon="-1.16151460446417331695556640625">
        <ele>986.20001220703125</ele>
        <time>2021-09-25T11:32:32.000Z</time>
      </trkpt>
      <trkpt lat="40.39710109122097492218017578125" lon="-1.16136892698705196380615234375">
        <ele>986.5999755859375</ele>
        <time>2021-09-25T11:32:34.000Z</time>
      </trkpt>
      <trkpt lat="40.39705079980194568634033203125" lon="-1.16122324950993061065673828125">
        <ele>986.79998779296875</ele>
        <time>2021-09-25T11:32:36.000Z</time>
      </trkpt>
      <trkpt lat="40.3970294259488582611083984375" lon="-1.16114831529557704925537109375">
        <ele>986.79998779296875</ele>
        <time>2021-09-25T11:32:37.000Z</time>
      </trkpt>
      <trkpt lat="40.3970066271722316741943359375" lon="-1.16107773967087268829345703125">
        <ele>986.5999755859375</ele>
        <time>2021-09-25T11:32:38.000Z</time>
      </trkpt>
      <trkpt lat="40.39695826359093189239501953125" lon="-1.160936169326305389404296875">
        <ele>986.4000244140625</ele>
        <time>2021-09-25T11:32:40.000Z</time>
      </trkpt>
      <trkpt lat="40.3969077207148075103759765625" lon="-1.16080147214233875274658203125">
        <ele>986</ele>
        <time>2021-09-25T11:32:42.000Z</time>
      </trkpt>
      <trkpt lat="40.396860949695110321044921875" lon="-1.160663254559040069580078125">
        <ele>986.20001220703125</ele>
        <time>2021-09-25T11:32:44.000Z</time>
      </trkpt>
      <trkpt lat="40.39683739654719829559326171875" lon="-1.16059745661914348602294921875">
        <ele>986.5999755859375</ele>
        <time>2021-09-25T11:32:45.000Z</time>
      </trkpt>
      <trkpt lat="40.396811664104461669921875" lon="-1.1605288088321685791015625">
        <ele>986.5999755859375</ele>
        <time>2021-09-25T11:32:46.000Z</time>
      </trkpt>
      <trkpt lat="40.396760366857051849365234375" lon="-1.1603888310492038726806640625">
        <ele>986.79998779296875</ele>
        <time>2021-09-25T11:32:48.000Z</time>
      </trkpt>
      <trkpt lat="40.3967099077999591827392578125" lon="-1.16024826653301715850830078125">
        <ele>987</ele>
        <time>2021-09-25T11:32:50.000Z</time>
      </trkpt>
      <trkpt lat="40.3966633044183254241943359375" lon="-1.1601050198078155517578125">
        <ele>987</ele>
        <time>2021-09-25T11:32:52.000Z</time>
      </trkpt>
      <trkpt lat="40.3966172039508819580078125" lon="-1.1599613539874553680419921875">
        <ele>987</ele>
        <time>2021-09-25T11:32:54.000Z</time>
      </trkpt>
      <trkpt lat="40.39659264497458934783935546875" lon="-1.15989203564822673797607421875">
        <ele>987</ele>
        <time>2021-09-25T11:32:55.000Z</time>
      </trkpt>
      <trkpt lat="40.3965677507221698760986328125" lon="-1.1598218791186809539794921875">
        <ele>987.4000244140625</ele>
        <time>2021-09-25T11:32:56.000Z</time>
      </trkpt>
      <trkpt lat="40.3965117596089839935302734375" lon="-1.15968332625925540924072265625">
        <ele>987.79998779296875</ele>
        <time>2021-09-25T11:32:58.000Z</time>
      </trkpt>
      <trkpt lat="40.3964589536190032958984375" lon="-1.15954703651368618011474609375">
        <ele>988</ele>
        <time>2021-09-25T11:33:00.000Z</time>
      </trkpt>
      <trkpt lat="40.3964141942560672760009765625" lon="-1.1594084836542606353759765625">
        <ele>988</ele>
        <time>2021-09-25T11:33:02.000Z</time>
      </trkpt>
      <trkpt lat="40.39637169800698757171630859375" lon="-1.159273199737071990966796875">
        <ele>988</ele>
        <time>2021-09-25T11:33:04.000Z</time>
      </trkpt>
      <trkpt lat="40.39632610045373439788818359375" lon="-1.15913598798215389251708984375">
        <ele>988</ele>
        <time>2021-09-25T11:33:06.000Z</time>
      </trkpt>
      <trkpt lat="40.396301038563251495361328125" lon="-1.159071363508701324462890625">
        <ele>988</ele>
        <time>2021-09-25T11:33:07.000Z</time>
      </trkpt>
      <trkpt lat="40.39627446793019771575927734375" lon="-1.159004978835582733154296875">
        <ele>988</ele>
        <time>2021-09-25T11:33:08.000Z</time>
      </trkpt>
      <trkpt lat="40.39622769691050052642822265625" lon="-1.15886785089969635009765625">
        <ele>987.5999755859375</ele>
        <time>2021-09-25T11:33:10.000Z</time>
      </trkpt>
      <trkpt lat="40.3961852006614208221435546875" lon="-1.15873650647699832916259765625">
        <ele>986.79998779296875</ele>
        <time>2021-09-25T11:33:12.000Z</time>
      </trkpt>
      <trkpt lat="40.39613918401300907135009765625" lon="-1.15861111320555210113525390625">
        <ele>986.4000244140625</ele>
        <time>2021-09-25T11:33:14.000Z</time>
      </trkpt>
      <trkpt lat="40.39611554704606533050537109375" lon="-1.1585521884262561798095703125">
        <ele>986.20001220703125</ele>
        <time>2021-09-25T11:33:15.000Z</time>
      </trkpt>
      <trkpt lat="40.39609274826943874359130859375" lon="-1.15849158726632595062255859375">
        <ele>986.20001220703125</ele>
        <time>2021-09-25T11:33:16.000Z</time>
      </trkpt>
      <trkpt lat="40.3960323147475719451904296875" lon="-1.158373989164829254150390625">
        <ele>986.5999755859375</ele>
        <time>2021-09-25T11:33:18.000Z</time>
      </trkpt>
      <trkpt lat="40.39596534334123134613037109375" lon="-1.15826460532844066619873046875">
        <ele>987</ele>
        <time>2021-09-25T11:33:20.000Z</time>
      </trkpt>
      <trkpt lat="40.395928211510181427001953125" lon="-1.1582135595381259918212890625">
        <ele>987.20001220703125</ele>
        <time>2021-09-25T11:33:21.000Z</time>
      </trkpt>
      <trkpt lat="40.39588965475559234619140625" lon="-1.158164776861667633056640625">
        <ele>987.5999755859375</ele>
        <time>2021-09-25T11:33:22.000Z</time>
      </trkpt>
      <trkpt lat="40.3958125412464141845703125" lon="-1.158055476844310760498046875">
        <ele>987.5999755859375</ele>
        <time>2021-09-25T11:33:24.000Z</time>
      </trkpt>
      <trkpt lat="40.3957456536591053009033203125" lon="-1.1579372920095920562744140625">
        <ele>988</ele>
        <time>2021-09-25T11:33:26.000Z</time>
      </trkpt>
      <trkpt lat="40.39571690373122692108154296875" lon="-1.157877445220947265625">
        <ele>988.20001220703125</ele>
        <time>2021-09-25T11:33:27.000Z</time>
      </trkpt>
      <trkpt lat="40.39568857289850711822509765625" lon="-1.1578170955181121826171875">
        <ele>988.5999755859375</ele>
        <time>2021-09-25T11:33:28.000Z</time>
      </trkpt>
      <trkpt lat="40.39566761814057826995849609375" lon="-1.15775498561561107635498046875">
        <ele>988.5999755859375</ele>
        <time>2021-09-25T11:33:29.000Z</time>
      </trkpt>
      <trkpt lat="40.39565839804708957672119140625" lon="-1.15769195370376110076904296875">
        <ele>988.4000244140625</ele>
        <time>2021-09-25T11:33:30.000Z</time>
      </trkpt>
      <trkpt lat="40.3956621699035167694091796875" lon="-1.15762774832546710968017578125">
        <ele>988.4000244140625</ele>
        <time>2021-09-25T11:33:31.000Z</time>
      </trkpt>
      <trkpt lat="40.39567750878632068634033203125" lon="-1.15757142193615436553955078125">
        <ele>988.5999755859375</ele>
        <time>2021-09-25T11:33:32.000Z</time>
      </trkpt>
      <trkpt lat="40.39569863118231296539306640625" lon="-1.15752138197422027587890625">
        <ele>988.5999755859375</ele>
        <time>2021-09-25T11:33:33.000Z</time>
      </trkpt>
      <trkpt lat="40.39572109468281269073486328125" lon="-1.15747653879225254058837890625">
        <ele>988.79998779296875</ele>
        <time>2021-09-25T11:33:34.000Z</time>
      </trkpt>
      <trkpt lat="40.39574389345943927764892578125" lon="-1.15743328817188739776611328125">
        <ele>988.79998779296875</ele>
        <time>2021-09-25T11:33:35.000Z</time>
      </trkpt>
      <trkpt lat="40.39576618932187557220458984375" lon="-1.15739523433148860931396484375">
        <ele>988.79998779296875</ele>
        <time>2021-09-25T11:33:36.000Z</time>
      </trkpt>
      <trkpt lat="40.39580189622938632965087890625" lon="-1.1573448590934276580810546875">
        <ele>988.79998779296875</ele>
        <time>2021-09-25T11:33:38.000Z</time>
      </trkpt>
      <trkpt lat="40.39581849239766597747802734375" lon="-1.15732952021062374114990234375">
        <ele>988.79998779296875</ele>
        <time>2021-09-25T11:33:39.000Z</time>
      </trkpt>
      <trkpt lat="40.39583307690918445587158203125" lon="-1.1573173664510250091552734375">
        <ele>988.79998779296875</ele>
        <time>2021-09-25T11:33:40.000Z</time>
      </trkpt>
      <trkpt lat="40.39586157537996768951416015625" lon="-1.1572818271815776824951171875">
        <ele>988.79998779296875</ele>
        <time>2021-09-25T11:33:42.000Z</time>
      </trkpt>
      <trkpt lat="40.3959012217819690704345703125" lon="-1.15723446942865848541259765625">
        <ele>988.79998779296875</ele>
        <time>2021-09-25T11:33:44.000Z</time>
      </trkpt>
      <trkpt lat="40.39590130560100078582763671875" lon="-1.15720890462398529052734375">
        <ele>988.5999755859375</ele>
        <time>2021-09-25T11:33:45.000Z</time>
      </trkpt>
      <trkpt lat="40.395902730524539947509765625" lon="-1.1571691744029521942138671875">
        <ele>988.5999755859375</ele>
        <time>2021-09-25T11:33:46.000Z</time>
      </trkpt>
      <trkpt lat="40.3959226794540882110595703125" lon="-1.15713371895253658294677734375">
        <ele>988.4000244140625</ele>
        <time>2021-09-25T11:33:48.000Z</time>
      </trkpt>
      <trkpt lat="40.3959498368203639984130859375" lon="-1.1571366526186466217041015625">
        <ele>988.5999755859375</ele>
        <time>2021-09-25T11:33:50.000Z</time>
      </trkpt>
      <trkpt lat="40.395965091884136199951171875" lon="-1.15713690407574176788330078125">
        <ele>988.5999755859375</ele>
        <time>2021-09-25T11:33:51.000Z</time>
      </trkpt>
      <trkpt lat="40.39598043076694011688232421875" lon="-1.15712709724903106689453125">
        <ele>988.5999755859375</ele>
        <time>2021-09-25T11:33:52.000Z</time>
      </trkpt>
      <trkpt lat="40.39599199779331684112548828125" lon="-1.15711100399494171142578125">
        <ele>988.5999755859375</ele>
        <time>2021-09-25T11:33:53.000Z</time>
      </trkpt>
      <trkpt lat="40.3959961049258708953857421875" lon="-1.157091222703456878662109375">
        <ele>988.5999755859375</ele>
        <time>2021-09-25T11:33:54.000Z</time>
      </trkpt>
      <trkpt lat="40.3960002958774566650390625" lon="-1.1570446193218231201171875">
        <ele>988.4000244140625</ele>
        <time>2021-09-25T11:33:56.000Z</time>
      </trkpt>
      <trkpt lat="40.39599115960299968719482421875" lon="-1.15698904730379581451416015625">
        <ele>988.20001220703125</ele>
        <time>2021-09-25T11:33:58.000Z</time>
      </trkpt>
      <trkpt lat="40.39597816765308380126953125" lon="-1.15695635788142681121826171875">
        <ele>988</ele>
        <time>2021-09-25T11:33:59.000Z</time>
      </trkpt>
      <trkpt lat="40.39596266113221645355224609375" lon="-1.15691998042166233062744140625">
        <ele>988</ele>
        <time>2021-09-25T11:34:00.000Z</time>
      </trkpt>
      <trkpt lat="40.3959251940250396728515625" lon="-1.1568582057952880859375">
        <ele>988</ele>
        <time>2021-09-25T11:34:02.000Z</time>
      </trkpt>
      <trkpt lat="40.395881272852420806884765625" lon="-1.1568017117679119110107421875">
        <ele>987.79998779296875</ele>
        <time>2021-09-25T11:34:04.000Z</time>
      </trkpt>
      <trkpt lat="40.39583525620400905609130859375" lon="-1.15675502456724643707275390625">
        <ele>987.5999755859375</ele>
        <time>2021-09-25T11:34:06.000Z</time>
      </trkpt>
      <trkpt lat="40.39580943994224071502685546875" lon="-1.1567313037812709808349609375">
        <ele>987.5999755859375</ele>
        <time>2021-09-25T11:34:07.000Z</time>
      </trkpt>
      <trkpt lat="40.39578345604240894317626953125" lon="-1.156711690127849578857421875">
        <ele>987.5999755859375</ele>
        <time>2021-09-25T11:34:08.000Z</time>
      </trkpt>
      <trkpt lat="40.395728051662445068359375" lon="-1.1566726304590702056884765625">
        <ele>987.4000244140625</ele>
        <time>2021-09-25T11:34:10.000Z</time>
      </trkpt>
      <trkpt lat="40.39567172527313232421875" lon="-1.15662745200097560882568359375">
        <ele>987.20001220703125</ele>
        <time>2021-09-25T11:34:12.000Z</time>
      </trkpt>
      <trkpt lat="40.39561129175126552581787109375" lon="-1.1565805971622467041015625">
        <ele>987</ele>
        <time>2021-09-25T11:34:14.000Z</time>
      </trkpt>
      <trkpt lat="40.39555211551487445831298828125" lon="-1.15652385167777538299560546875">
        <ele>987</ele>
        <time>2021-09-25T11:34:16.000Z</time>
      </trkpt>
      <trkpt lat="40.39549671113491058349609375" lon="-1.15645344369113445281982421875">
        <ele>987</ele>
        <time>2021-09-25T11:34:18.000Z</time>
      </trkpt>
      <trkpt lat="40.39544248022139072418212890625" lon="-1.15637850947678089141845703125">
        <ele>987</ele>
        <time>2021-09-25T11:34:20.000Z</time>
      </trkpt>
      <trkpt lat="40.39538866840302944183349609375" lon="-1.15630575455725193023681640625">
        <ele>987</ele>
        <time>2021-09-25T11:34:22.000Z</time>
      </trkpt>
      <trkpt lat="40.39532949216663837432861328125" lon="-1.15622143261134624481201171875">
        <ele>987</ele>
        <time>2021-09-25T11:34:24.000Z</time>
      </trkpt>
      <trkpt lat="40.39527065120637416839599609375" lon="-1.15612931549549102783203125">
        <ele>987</ele>
        <time>2021-09-25T11:34:26.000Z</time>
      </trkpt>
      <trkpt lat="40.39521239697933197021484375" lon="-1.156031079590320587158203125">
        <ele>987</ele>
        <time>2021-09-25T11:34:28.000Z</time>
      </trkpt>
      <trkpt lat="40.3951857425272464752197265625" lon="-1.15597617812454700469970703125">
        <ele>986.5999755859375</ele>
        <time>2021-09-25T11:34:29.000Z</time>
      </trkpt>
      <trkpt lat="40.39516068063676357269287109375" lon="-1.155923120677471160888671875">
        <ele>986.4000244140625</ele>
        <time>2021-09-25T11:34:30.000Z</time>
      </trkpt>
      <trkpt lat="40.39511608891189098358154296875" lon="-1.1558079533278942108154296875">
        <ele>986</ele>
        <time>2021-09-25T11:34:32.000Z</time>
      </trkpt>
      <trkpt lat="40.3950717486441135406494140625" lon="-1.15568499080836772918701171875">
        <ele>986</ele>
        <time>2021-09-25T11:34:34.000Z</time>
      </trkpt>
      <trkpt lat="40.39502422325313091278076171875" lon="-1.15556144155561923980712890625">
        <ele>985.5999755859375</ele>
        <time>2021-09-25T11:34:36.000Z</time>
      </trkpt>
      <trkpt lat="40.394977033138275146484375" lon="-1.1554326117038726806640625">
        <ele>985</ele>
        <time>2021-09-25T11:34:38.000Z</time>
      </trkpt>
      <trkpt lat="40.39493143558502197265625" lon="-1.155302189290523529052734375">
        <ele>984.4000244140625</ele>
        <time>2021-09-25T11:34:40.000Z</time>
      </trkpt>
      <trkpt lat="40.39488709531724452972412109375" lon="-1.15516715683043003082275390625">
        <ele>984</ele>
        <time>2021-09-25T11:34:42.000Z</time>
      </trkpt>
      <trkpt lat="40.39484283886849880218505859375" lon="-1.15502885542809963226318359375">
        <ele>984</ele>
        <time>2021-09-25T11:34:44.000Z</time>
      </trkpt>
      <trkpt lat="40.39479925297200679779052734375" lon="-1.15488803945481777191162109375">
        <ele>983.4000244140625</ele>
        <time>2021-09-25T11:34:46.000Z</time>
      </trkpt>
      <trkpt lat="40.39477678947150707244873046875" lon="-1.15481897257268428802490234375">
        <ele>983.4000244140625</ele>
        <time>2021-09-25T11:34:47.000Z</time>
      </trkpt>
      <trkpt lat="40.39475030265748500823974609375" lon="-1.15475074388086795806884765625">
        <ele>983.20001220703125</ele>
        <time>2021-09-25T11:34:48.000Z</time>
      </trkpt>
      <trkpt lat="40.3947016038000583648681640625" lon="-1.15461780689656734466552734375">
        <ele>983</ele>
        <time>2021-09-25T11:34:50.000Z</time>
      </trkpt>
      <trkpt lat="40.39465374313294887542724609375" lon="-1.154484786093235015869140625">
        <ele>982.79998779296875</ele>
        <time>2021-09-25T11:34:52.000Z</time>
      </trkpt>
      <trkpt lat="40.39460512809455394744873046875" lon="-1.15435159765183925628662109375">
        <ele>982.5999755859375</ele>
        <time>2021-09-25T11:34:54.000Z</time>
      </trkpt>
      <trkpt lat="40.39455634541809558868408203125" lon="-1.1542217619717121124267578125">
        <ele>982.5999755859375</ele>
        <time>2021-09-25T11:34:56.000Z</time>
      </trkpt>
      <trkpt lat="40.3945089876651763916015625" lon="-1.154091171920299530029296875">
        <ele>983</ele>
        <time>2021-09-25T11:34:58.000Z</time>
      </trkpt>
      <trkpt lat="40.394466407597064971923828125" lon="-1.15396837703883647918701171875">
        <ele>983.79998779296875</ele>
        <time>2021-09-25T11:35:00.000Z</time>
      </trkpt>
      <trkpt lat="40.39442324079573154449462890625" lon="-1.15384918637573719024658203125">
        <ele>983.79998779296875</ele>
        <time>2021-09-25T11:35:02.000Z</time>
      </trkpt>
      <trkpt lat="40.3943817503750324249267578125" lon="-1.15372882224619388580322265625">
        <ele>984.20001220703125</ele>
        <time>2021-09-25T11:35:04.000Z</time>
      </trkpt>
      <trkpt lat="40.39435802958905696868896484375" lon="-1.153668053448200225830078125">
        <ele>984.4000244140625</ele>
        <time>2021-09-25T11:35:05.000Z</time>
      </trkpt>
      <trkpt lat="40.39433489553630352020263671875" lon="-1.15360761992633342742919921875">
        <ele>984.5999755859375</ele>
        <time>2021-09-25T11:35:06.000Z</time>
      </trkpt>
      <trkpt lat="40.3942890465259552001953125" lon="-1.1534858308732509613037109375">
        <ele>984.5999755859375</ele>
        <time>2021-09-25T11:35:08.000Z</time>
      </trkpt>
      <trkpt lat="40.39424202404916286468505859375" lon="-1.153360269963741302490234375">
        <ele>984.79998779296875</ele>
        <time>2021-09-25T11:35:10.000Z</time>
      </trkpt>
      <trkpt lat="40.3941936604678630828857421875" lon="-1.1532300151884555816650390625">
        <ele>984.4000244140625</ele>
        <time>2021-09-25T11:35:12.000Z</time>
      </trkpt>
      <trkpt lat="40.39414814673364162445068359375" lon="-1.1530990898609161376953125">
        <ele>984.4000244140625</ele>
        <time>2021-09-25T11:35:14.000Z</time>
      </trkpt>
      <trkpt lat="40.39410422556102275848388671875" lon="-1.15296673960983753204345703125">
        <ele>984.79998779296875</ele>
        <time>2021-09-25T11:35:16.000Z</time>
      </trkpt>
      <trkpt lat="40.39405862800776958465576171875" lon="-1.152835898101329803466796875">
        <ele>984.79998779296875</ele>
        <time>2021-09-25T11:35:18.000Z</time>
      </trkpt>
      <trkpt lat="40.394011773169040679931640625" lon="-1.1527101695537567138671875">
        <ele>984.5999755859375</ele>
        <time>2021-09-25T11:35:20.000Z</time>
      </trkpt>
      <trkpt lat="40.39396525360643863677978515625" lon="-1.1525842733681201934814453125">
        <ele>984.4000244140625</ele>
        <time>2021-09-25T11:35:22.000Z</time>
      </trkpt>
      <trkpt lat="40.39391982369124889373779296875" lon="-1.15245477296411991119384765625">
        <ele>983.5999755859375</ele>
        <time>2021-09-25T11:35:24.000Z</time>
      </trkpt>
      <trkpt lat="40.3938741423189640045166015625" lon="-1.15232166834175586700439453125">
        <ele>983</ele>
        <time>2021-09-25T11:35:26.000Z</time>
      </trkpt>
      <trkpt lat="40.393830053508281707763671875" lon="-1.15219342522323131561279296875">
        <ele>982.79998779296875</ele>
        <time>2021-09-25T11:35:28.000Z</time>
      </trkpt>
      <trkpt lat="40.393785797059535980224609375" lon="-1.15206602029502391815185546875">
        <ele>982.5999755859375</ele>
        <time>2021-09-25T11:35:30.000Z</time>
      </trkpt>
      <trkpt lat="40.3937621600925922393798828125" lon="-1.15200215019285678863525390625">
        <ele>982.20001220703125</ele>
        <time>2021-09-25T11:35:31.000Z</time>
      </trkpt>
      <trkpt lat="40.39373776875436305999755859375" lon="-1.15193660371005535125732421875">
        <ele>981.79998779296875</ele>
        <time>2021-09-25T11:35:32.000Z</time>
      </trkpt>
      <trkpt lat="40.39368999190628528594970703125" lon="-1.151807941496372222900390625">
        <ele>981.20001220703125</ele>
        <time>2021-09-25T11:35:34.000Z</time>
      </trkpt>
      <trkpt lat="40.3936431370675563812255859375" lon="-1.15167190320789813995361328125">
        <ele>981</ele>
        <time>2021-09-25T11:35:36.000Z</time>
      </trkpt>
      <trkpt lat="40.39359569549560546875" lon="-1.151536367833614349365234375">
        <ele>981</ele>
        <time>2021-09-25T11:35:38.000Z</time>
      </trkpt>
      <trkpt lat="40.39355018176138401031494140625" lon="-1.15140234120190143585205078125">
        <ele>981</ele>
        <time>2021-09-25T11:35:40.000Z</time>
      </trkpt>
      <trkpt lat="40.3935023210942745208740234375" lon="-1.15126705728471279144287109375">
        <ele>981</ele>
        <time>2021-09-25T11:35:42.000Z</time>
      </trkpt>
      <trkpt lat="40.3934550471603870391845703125" lon="-1.15113579668104648590087890625">
        <ele>981</ele>
        <time>2021-09-25T11:35:44.000Z</time>
      </trkpt>
      <trkpt lat="40.39340886287391185760498046875" lon="-1.15100269205868244171142578125">
        <ele>981</ele>
        <time>2021-09-25T11:35:46.000Z</time>
      </trkpt>
      <trkpt lat="40.39336091838777065277099609375" lon="-1.15087143145501613616943359375">
        <ele>981.4000244140625</ele>
        <time>2021-09-25T11:35:48.000Z</time>
      </trkpt>
      <trkpt lat="40.39331448264420032501220703125" lon="-1.15074134431779384613037109375">
        <ele>982</ele>
        <time>2021-09-25T11:35:50.000Z</time>
      </trkpt>
      <trkpt lat="40.39326720871031284332275390625" lon="-1.1506108380854129791259765625">
        <ele>982.4000244140625</ele>
        <time>2021-09-25T11:35:52.000Z</time>
      </trkpt>
      <trkpt lat="40.39322261698544025421142578125" lon="-1.150480248034000396728515625">
        <ele>983</ele>
        <time>2021-09-25T11:35:54.000Z</time>
      </trkpt>
      <trkpt lat="40.39317928254604339599609375" lon="-1.15034705959260463714599609375">
        <ele>983</ele>
        <time>2021-09-25T11:35:56.000Z</time>
      </trkpt>
      <trkpt lat="40.393133349716663360595703125" lon="-1.15021194331347942352294921875">
        <ele>982.4000244140625</ele>
        <time>2021-09-25T11:35:58.000Z</time>
      </trkpt>
      <trkpt lat="40.3930822201073169708251953125" lon="-1.15007397718727588653564453125">
        <ele>981.4000244140625</ele>
        <time>2021-09-25T11:36:00.000Z</time>
      </trkpt>
      <trkpt lat="40.3930299170315265655517578125" lon="-1.1499325744807720184326171875">
        <ele>979.4000244140625</ele>
        <time>2021-09-25T11:36:02.000Z</time>
      </trkpt>
      <trkpt lat="40.3929802961647510528564453125" lon="-1.14980156533420085906982421875">
        <ele>978.5999755859375</ele>
        <time>2021-09-25T11:36:04.000Z</time>
      </trkpt>
      <trkpt lat="40.3929345309734344482421875" lon="-1.14966913126409053802490234375">
        <ele>978.20001220703125</ele>
        <time>2021-09-25T11:36:06.000Z</time>
      </trkpt>
      <trkpt lat="40.3929142467677593231201171875" lon="-1.14960073493421077728271484375">
        <ele>978</ele>
        <time>2021-09-25T11:36:07.000Z</time>
      </trkpt>
      <trkpt lat="40.3928951360285282135009765625" lon="-1.1495344340801239013671875">
        <ele>978</ele>
        <time>2021-09-25T11:36:08.000Z</time>
      </trkpt>
      <trkpt lat="40.392849706113338470458984375" lon="-1.14940191619098186492919921875">
        <ele>978</ele>
        <time>2021-09-25T11:36:10.000Z</time>
      </trkpt>
      <trkpt lat="40.3928287513554096221923828125" lon="-1.149332262575626373291015625">
        <ele>978</ele>
        <time>2021-09-25T11:36:11.000Z</time>
      </trkpt>
      <trkpt lat="40.3928056173026561737060546875" lon="-1.14926529116928577423095703125">
        <ele>978</ele>
        <time>2021-09-25T11:36:12.000Z</time>
      </trkpt>
      <trkpt lat="40.39275876246392726898193359375" lon="-1.14913252182304859161376953125">
        <ele>978</ele>
        <time>2021-09-25T11:36:14.000Z</time>
      </trkpt>
      <trkpt lat="40.39271282963454723358154296875" lon="-1.1490058712661266326904296875">
        <ele>978.20001220703125</ele>
        <time>2021-09-25T11:36:16.000Z</time>
      </trkpt>
      <trkpt lat="40.39266723208129405975341796875" lon="-1.14888198673725128173828125">
        <ele>978.4000244140625</ele>
        <time>2021-09-25T11:36:18.000Z</time>
      </trkpt>
      <trkpt lat="40.392625071108341217041015625" lon="-1.14875835366547107696533203125">
        <ele>978.5999755859375</ele>
        <time>2021-09-25T11:36:20.000Z</time>
      </trkpt>
      <trkpt lat="40.3926014341413974761962890625" lon="-1.14869381301105022430419921875">
        <ele>978.79998779296875</ele>
        <time>2021-09-25T11:36:21.000Z</time>
      </trkpt>
      <trkpt lat="40.39257704280316829681396484375" lon="-1.14862927235662937164306640625">
        <ele>978.79998779296875</ele>
        <time>2021-09-25T11:36:22.000Z</time>
      </trkpt>
      <trkpt lat="40.3925313614308834075927734375" lon="-1.14850136451423168182373046875">
        <ele>978.4000244140625</ele>
        <time>2021-09-25T11:36:24.000Z</time>
      </trkpt>
      <trkpt lat="40.392484255135059356689453125" lon="-1.148369014263153076171875">
        <ele>978.5999755859375</ele>
        <time>2021-09-25T11:36:26.000Z</time>
      </trkpt>
      <trkpt lat="40.39243740029633045196533203125" lon="-1.14823498763144016265869140625">
        <ele>978.79998779296875</ele>
        <time>2021-09-25T11:36:28.000Z</time>
      </trkpt>
      <trkpt lat="40.39239264093339443206787109375" lon="-1.14810012280941009521484375">
        <ele>978.4000244140625</ele>
        <time>2021-09-25T11:36:30.000Z</time>
      </trkpt>
      <trkpt lat="40.39236967451870441436767578125" lon="-1.14803097210824489593505859375">
        <ele>978.4000244140625</ele>
        <time>2021-09-25T11:36:31.000Z</time>
      </trkpt>
      <trkpt lat="40.39234779775142669677734375" lon="-1.14795972593128681182861328125">
        <ele>978.5999755859375</ele>
        <time>2021-09-25T11:36:32.000Z</time>
      </trkpt>
      <trkpt lat="40.3923023678362369537353515625" lon="-1.14780868403613567352294921875">
        <ele>978.4000244140625</ele>
        <time>2021-09-25T11:36:34.000Z</time>
      </trkpt>
      <trkpt lat="40.39226087741553783416748046875" lon="-1.14766434766352176666259765625">
        <ele>978.20001220703125</ele>
        <time>2021-09-25T11:36:36.000Z</time>
      </trkpt>
      <trkpt lat="40.39222441613674163818359375" lon="-1.1475165747106075286865234375">
        <ele>977.5999755859375</ele>
        <time>2021-09-25T11:36:38.000Z</time>
      </trkpt>
      <trkpt lat="40.39220723323523998260498046875" lon="-1.1474448256194591522216796875">
        <ele>977.20001220703125</ele>
        <time>2021-09-25T11:36:39.000Z</time>
      </trkpt>
      <trkpt lat="40.39219113998115062713623046875" lon="-1.14737114869058132171630859375">
        <ele>976.79998779296875</ele>
        <time>2021-09-25T11:36:40.000Z</time>
      </trkpt>
      <trkpt lat="40.3921638987958431243896484375" lon="-1.14721926860511302947998046875">
        <ele>976.20001220703125</ele>
        <time>2021-09-25T11:36:42.000Z</time>
      </trkpt>
      <trkpt lat="40.3921400941908359527587890625" lon="-1.1470659635961055755615234375">
        <ele>976</ele>
        <time>2021-09-25T11:36:44.000Z</time>
      </trkpt>
      <trkpt lat="40.39212006144225597381591796875" lon="-1.14691198803484439849853515625">
        <ele>976</ele>
        <time>2021-09-25T11:36:46.000Z</time>
      </trkpt>
      <trkpt lat="40.3921018727123737335205078125" lon="-1.146752648055553436279296875">
        <ele>976</ele>
        <time>2021-09-25T11:36:48.000Z</time>
      </trkpt>
      <trkpt lat="40.3920847736299037933349609375" lon="-1.14659272134304046630859375">
        <ele>976</ele>
        <time>2021-09-25T11:36:50.000Z</time>
      </trkpt>
      <trkpt lat="40.3920757211744785308837890625" lon="-1.1464316211640834808349609375">
        <ele>976</ele>
        <time>2021-09-25T11:36:52.000Z</time>
      </trkpt>
      <trkpt lat="40.39207496680319309234619140625" lon="-1.14634972997009754180908203125">
        <ele>976</ele>
        <time>2021-09-25T11:36:53.000Z</time>
      </trkpt>
      <trkpt lat="40.3920737095177173614501953125" lon="-1.146266497671604156494140625">
        <ele>976</ele>
        <time>2021-09-25T11:36:54.000Z</time>
      </trkpt>
      <trkpt lat="40.39207421243190765380859375" lon="-1.14609810523688793182373046875">
        <ele>976</ele>
        <time>2021-09-25T11:36:56.000Z</time>
      </trkpt>
      <trkpt lat="40.392075888812541961669921875" lon="-1.14592459984123706817626953125">
        <ele>976</ele>
        <time>2021-09-25T11:36:58.000Z</time>
      </trkpt>
      <trkpt lat="40.39207689464092254638671875" lon="-1.1457614041864871978759765625">
        <ele>975.5999755859375</ele>
        <time>2021-09-25T11:37:00.000Z</time>
      </trkpt>
      <trkpt lat="40.3920814208686351776123046875" lon="-1.14559720270335674285888671875">
        <ele>975.5999755859375</ele>
        <time>2021-09-25T11:37:02.000Z</time>
      </trkpt>
      <trkpt lat="40.39208351634442806243896484375" lon="-1.14551707170903682708740234375">
        <ele>975.5999755859375</ele>
        <time>2021-09-25T11:37:03.000Z</time>
      </trkpt>
      <trkpt lat="40.3920847736299037933349609375" lon="-1.14543534815311431884765625">
        <ele>975.5999755859375</ele>
        <time>2021-09-25T11:37:04.000Z</time>
      </trkpt>
      <trkpt lat="40.3920887969434261322021484375" lon="-1.14527114666998386383056640625">
        <ele>975.5999755859375</ele>
        <time>2021-09-25T11:37:06.000Z</time>
      </trkpt>
      <trkpt lat="40.39208821021020412445068359375" lon="-1.14511457271873950958251953125">
        <ele>974.79998779296875</ele>
        <time>2021-09-25T11:37:08.000Z</time>
      </trkpt>
      <trkpt lat="40.39208988659083843231201171875" lon="-1.144957244396209716796875">
        <ele>973.79998779296875</ele>
        <time>2021-09-25T11:37:10.000Z</time>
      </trkpt>
      <trkpt lat="40.39209122769534587860107421875" lon="-1.1448779515922069549560546875">
        <ele>973.4000244140625</ele>
        <time>2021-09-25T11:37:11.000Z</time>
      </trkpt>
      <trkpt lat="40.392090640962123870849609375" lon="-1.14479974843561649322509765625">
        <ele>972.5999755859375</ele>
        <time>2021-09-25T11:37:12.000Z</time>
      </trkpt>
      <trkpt lat="40.39208921603858470916748046875" lon="-1.14463261328637599945068359375">
        <ele>970.79998779296875</ele>
        <time>2021-09-25T11:37:14.000Z</time>
      </trkpt>
      <trkpt lat="40.3920867852866649627685546875" lon="-1.144458018243312835693359375">
        <ele>969.4000244140625</ele>
        <time>2021-09-25T11:37:16.000Z</time>
      </trkpt>
      <trkpt lat="40.39208628237247467041015625" lon="-1.1442799866199493408203125">
        <ele>968</ele>
        <time>2021-09-25T11:37:18.000Z</time>
      </trkpt>
      <trkpt lat="40.3920854441821575164794921875" lon="-1.144099272787570953369140625">
        <ele>967.4000244140625</ele>
        <time>2021-09-25T11:37:20.000Z</time>
      </trkpt>
      <trkpt lat="40.392086617648601531982421875" lon="-1.143922246992588043212890625">
        <ele>966.79998779296875</ele>
        <time>2021-09-25T11:37:22.000Z</time>
      </trkpt>
      <trkpt lat="40.392081923782825469970703125" lon="-1.14375569857656955718994140625">
        <ele>966.5999755859375</ele>
        <time>2021-09-25T11:37:24.000Z</time>
      </trkpt>
      <trkpt lat="40.3920753858983516693115234375" lon="-1.143586635589599609375">
        <ele>966.4000244140625</ele>
        <time>2021-09-25T11:37:26.000Z</time>
      </trkpt>
      <trkpt lat="40.392075888812541961669921875" lon="-1.14341706968843936920166015625">
        <ele>966.20001220703125</ele>
        <time>2021-09-25T11:37:28.000Z</time>
      </trkpt>
      <trkpt lat="40.39207555353641510009765625" lon="-1.1432478390634059906005859375">
        <ele>966.20001220703125</ele>
        <time>2021-09-25T11:37:30.000Z</time>
      </trkpt>
      <trkpt lat="40.3920693509280681610107421875" lon="-1.14308330230414867401123046875">
        <ele>966.5999755859375</ele>
        <time>2021-09-25T11:37:32.000Z</time>
      </trkpt>
      <trkpt lat="40.39205853827297687530517578125" lon="-1.14293511025607585906982421875">
        <ele>967.20001220703125</ele>
        <time>2021-09-25T11:37:34.000Z</time>
      </trkpt>
      <trkpt lat="40.392047055065631866455078125" lon="-1.1427881754934787750244140625">
        <ele>968.5999755859375</ele>
        <time>2021-09-25T11:37:36.000Z</time>
      </trkpt>
      <trkpt lat="40.392027609050273895263671875" lon="-1.14264987409114837646484375">
        <ele>969.4000244140625</ele>
        <time>2021-09-25T11:37:38.000Z</time>
      </trkpt>
      <trkpt lat="40.3919955901801586151123046875" lon="-1.14250905811786651611328125">
        <ele>970</ele>
        <time>2021-09-25T11:37:40.000Z</time>
      </trkpt>
      <trkpt lat="40.39195946417748928070068359375" lon="-1.14236195571720600128173828125">
        <ele>970.5999755859375</ele>
        <time>2021-09-25T11:37:42.000Z</time>
      </trkpt>
      <trkpt lat="40.391923002898693084716796875" lon="-1.14221828989684581756591796875">
        <ele>971.4000244140625</ele>
        <time>2021-09-25T11:37:44.000Z</time>
      </trkpt>
      <trkpt lat="40.39188117720186710357666015625" lon="-1.14206439815461635589599609375">
        <ele>971.79998779296875</ele>
        <time>2021-09-25T11:37:46.000Z</time>
      </trkpt>
      <trkpt lat="40.391857288777828216552734375" lon="-1.1419882066547870635986328125">
        <ele>971.79998779296875</ele>
        <time>2021-09-25T11:37:47.000Z</time>
      </trkpt>
      <trkpt lat="40.39183088578283786773681640625" lon="-1.141913272440433502197265625">
        <ele>971.79998779296875</ele>
        <time>2021-09-25T11:37:48.000Z</time>
      </trkpt>
      <trkpt lat="40.39177254773676395416259765625" lon="-1.141769103705883026123046875">
        <ele>971.79998779296875</ele>
        <time>2021-09-25T11:37:50.000Z</time>
      </trkpt>
      <trkpt lat="40.3917049057781696319580078125" lon="-1.141631305217742919921875">
        <ele>971.20001220703125</ele>
        <time>2021-09-25T11:37:52.000Z</time>
      </trkpt>
      <trkpt lat="40.39163759909570217132568359375" lon="-1.14149342291057109832763671875">
        <ele>970.4000244140625</ele>
        <time>2021-09-25T11:37:54.000Z</time>
      </trkpt>
      <trkpt lat="40.39156333543360233306884765625" lon="-1.1413592286407947540283203125">
        <ele>969.5999755859375</ele>
        <time>2021-09-25T11:37:56.000Z</time>
      </trkpt>
      <trkpt lat="40.391484461724758148193359375" lon="-1.14122671075165271759033203125">
        <ele>969</ele>
        <time>2021-09-25T11:37:58.000Z</time>
      </trkpt>
      <trkpt lat="40.39140676148235797882080078125" lon="-1.14109075628221035003662109375">
        <ele>968.4000244140625</ele>
        <time>2021-09-25T11:38:00.000Z</time>
      </trkpt>
      <trkpt lat="40.391331575810909271240234375" lon="-1.14095295779407024383544921875">
        <ele>968</ele>
        <time>2021-09-25T11:38:02.000Z</time>
      </trkpt>
      <trkpt lat="40.3912586532533168792724609375" lon="-1.140821278095245361328125">
        <ele>968</ele>
        <time>2021-09-25T11:38:04.000Z</time>
      </trkpt>
      <trkpt lat="40.39118061773478984832763671875" lon="-1.1407084576785564422607421875">
        <ele>967.20001220703125</ele>
        <time>2021-09-25T11:38:06.000Z</time>
      </trkpt>
      <trkpt lat="40.39113971404731273651123046875" lon="-1.14066311158239841461181640625">
        <ele>967.20001220703125</ele>
        <time>2021-09-25T11:38:07.000Z</time>
      </trkpt>
      <trkpt lat="40.39110015146434307098388671875" lon="-1.1406209506094455718994140625">
        <ele>967</ele>
        <time>2021-09-25T11:38:08.000Z</time>
      </trkpt>
      <trkpt lat="40.39103041402995586395263671875" lon="-1.14054190926253795623779296875">
        <ele>967.4000244140625</ele>
        <time>2021-09-25T11:38:10.000Z</time>
      </trkpt>
      <trkpt lat="40.39097442291676998138427734375" lon="-1.14048524759709835052490234375">
        <ele>967.79998779296875</ele>
        <time>2021-09-25T11:38:12.000Z</time>
      </trkpt>
      <trkpt lat="40.3909341059625148773193359375" lon="-1.140440404415130615234375">
        <ele>968.20001220703125</ele>
        <time>2021-09-25T11:38:14.000Z</time>
      </trkpt>
      <trkpt lat="40.39089496247470378875732421875" lon="-1.140379048883914947509765625">
        <ele>968.79998779296875</ele>
        <time>2021-09-25T11:38:16.000Z</time>
      </trkpt>
      <trkpt lat="40.39085305295884609222412109375" lon="-1.1402967385947704315185546875">
        <ele>969.79998779296875</ele>
        <time>2021-09-25T11:38:18.000Z</time>
      </trkpt>
      <trkpt lat="40.390798151493072509765625" lon="-1.1402082256972789764404296875">
        <ele>970.79998779296875</ele>
        <time>2021-09-25T11:38:20.000Z</time>
      </trkpt>
      <trkpt lat="40.3907319344580173492431640625" lon="-1.1401052959263324737548828125">
        <ele>971.5999755859375</ele>
        <time>2021-09-25T11:38:22.000Z</time>
      </trkpt>
      <trkpt lat="40.39065800607204437255859375" lon="-1.1399926431477069854736328125">
        <ele>972</ele>
        <time>2021-09-25T11:38:24.000Z</time>
      </trkpt>
      <trkpt lat="40.3905793838202953338623046875" lon="-1.13987353630363941192626953125">
        <ele>972</ele>
        <time>2021-09-25T11:38:26.000Z</time>
      </trkpt>
      <trkpt lat="40.39049145765602588653564453125" lon="-1.13974277861416339874267578125">
        <ele>971.79998779296875</ele>
        <time>2021-09-25T11:38:28.000Z</time>
      </trkpt>
      <trkpt lat="40.3903983347117900848388671875" lon="-1.13960422575473785400390625">
        <ele>971.5999755859375</ele>
        <time>2021-09-25T11:38:30.000Z</time>
      </trkpt>
      <trkpt lat="40.39029833860695362091064453125" lon="-1.13946751691401004791259765625">
        <ele>971.20001220703125</ele>
        <time>2021-09-25T11:38:32.000Z</time>
      </trkpt>
      <trkpt lat="40.39020278491079807281494140625" lon="-1.1393294669687747955322265625">
        <ele>970.5999755859375</ele>
        <time>2021-09-25T11:38:34.000Z</time>
      </trkpt>
      <trkpt lat="40.39011259563267230987548828125" lon="-1.13919384777545928955078125">
        <ele>969.5999755859375</ele>
        <time>2021-09-25T11:38:36.000Z</time>
      </trkpt>
      <trkpt lat="40.39002307690680027008056640625" lon="-1.1390652693808078765869140625">
        <ele>969.20001220703125</ele>
        <time>2021-09-25T11:38:38.000Z</time>
      </trkpt>
      <trkpt lat="40.38998049683868885040283203125" lon="-1.1390025727450847625732421875">
        <ele>968.79998779296875</ele>
        <time>2021-09-25T11:38:39.000Z</time>
      </trkpt>
      <trkpt lat="40.3899393416941165924072265625" lon="-1.138940714299678802490234375">
        <ele>968.4000244140625</ele>
        <time>2021-09-25T11:38:40.000Z</time>
      </trkpt>
      <trkpt lat="40.38985393010079860687255859375" lon="-1.138820014894008636474609375">
        <ele>967.5999755859375</ele>
        <time>2021-09-25T11:38:42.000Z</time>
      </trkpt>
      <trkpt lat="40.389773547649383544921875" lon="-1.1386983096599578857421875">
        <ele>967.5999755859375</ele>
        <time>2021-09-25T11:38:44.000Z</time>
      </trkpt>
      <trkpt lat="40.38973172195255756378173828125" lon="-1.13863754086196422576904296875">
        <ele>967.5999755859375</ele>
        <time>2021-09-25T11:38:45.000Z</time>
      </trkpt>
      <trkpt lat="40.389690063893795013427734375" lon="-1.1385794542729854583740234375">
        <ele>967.79998779296875</ele>
        <time>2021-09-25T11:38:46.000Z</time>
      </trkpt>
      <trkpt lat="40.3896097652614116668701171875" lon="-1.138458587229251861572265625">
        <ele>967.79998779296875</ele>
        <time>2021-09-25T11:38:48.000Z</time>
      </trkpt>
      <trkpt lat="40.3895276226103305816650390625" lon="-1.138335205614566802978515625">
        <ele>968</ele>
        <time>2021-09-25T11:38:50.000Z</time>
      </trkpt>
      <trkpt lat="40.3894438035786151885986328125" lon="-1.1382170207798480987548828125">
        <ele>968.20001220703125</ele>
        <time>2021-09-25T11:38:52.000Z</time>
      </trkpt>
      <trkpt lat="40.38940432481467723846435546875" lon="-1.138152815401554107666015625">
        <ele>968.5999755859375</ele>
        <time>2021-09-25T11:38:53.000Z</time>
      </trkpt>
      <trkpt lat="40.38936761207878589630126953125" lon="-1.13808550871908664703369140625">
        <ele>969.20001220703125</ele>
        <time>2021-09-25T11:38:54.000Z</time>
      </trkpt>
      <trkpt lat="40.3892889060080051422119140625" lon="-1.1379518173635005950927734375">
        <ele>969.5999755859375</ele>
        <time>2021-09-25T11:38:56.000Z</time>
      </trkpt>
      <trkpt lat="40.3892008960247039794921875" lon="-1.13782189786434173583984375">
        <ele>969.20001220703125</ele>
        <time>2021-09-25T11:38:58.000Z</time>
      </trkpt>
      <trkpt lat="40.38911305367946624755859375" lon="-1.13769172690808773040771484375">
        <ele>968.79998779296875</ele>
        <time>2021-09-25T11:39:00.000Z</time>
      </trkpt>
      <trkpt lat="40.389022193849086761474609375" lon="-1.1375622265040874481201171875">
        <ele>967.79998779296875</ele>
        <time>2021-09-25T11:39:02.000Z</time>
      </trkpt>
      <trkpt lat="40.38893912918865680694580078125" lon="-1.1374375037848949432373046875">
        <ele>967.20001220703125</ele>
        <time>2021-09-25T11:39:04.000Z</time>
      </trkpt>
      <trkpt lat="40.3888543881475925445556640625" lon="-1.1373154632747173309326171875">
        <ele>966.5999755859375</ele>
        <time>2021-09-25T11:39:06.000Z</time>
      </trkpt>
      <trkpt lat="40.38881088607013225555419921875" lon="-1.13725100643932819366455078125">
        <ele>966.20001220703125</ele>
        <time>2021-09-25T11:39:07.000Z</time>
      </trkpt>
      <trkpt lat="40.38876780308783054351806640625" lon="-1.13718579523265361785888671875">
        <ele>965.5999755859375</ele>
        <time>2021-09-25T11:39:08.000Z</time>
      </trkpt>
      <trkpt lat="40.38868390023708343505859375" lon="-1.13705880939960479736328125">
        <ele>965.20001220703125</ele>
        <time>2021-09-25T11:39:10.000Z</time>
      </trkpt>
      <trkpt lat="40.38860502652823925018310546875" lon="-1.13693886436522006988525390625">
        <ele>965</ele>
        <time>2021-09-25T11:39:12.000Z</time>
      </trkpt>
      <trkpt lat="40.3885311819612979888916015625" lon="-1.136823110282421112060546875">
        <ele>964.79998779296875</ele>
        <time>2021-09-25T11:39:14.000Z</time>
      </trkpt>
      <trkpt lat="40.388493798673152923583984375" lon="-1.13676351495087146759033203125">
        <ele>964.5999755859375</ele>
        <time>2021-09-25T11:39:15.000Z</time>
      </trkpt>
      <trkpt lat="40.38845431990921497344970703125" lon="-1.136707104742527008056640625">
        <ele>964.5999755859375</ele>
        <time>2021-09-25T11:39:16.000Z</time>
      </trkpt>
      <trkpt lat="40.38837452419102191925048828125" lon="-1.136593110859394073486328125">
        <ele>964.20001220703125</ele>
        <time>2021-09-25T11:39:18.000Z</time>
      </trkpt>
      <trkpt lat="40.38829422555863857269287109375" lon="-1.136479116976261138916015625">
        <ele>964.20001220703125</ele>
        <time>2021-09-25T11:39:20.000Z</time>
      </trkpt>
      <trkpt lat="40.38821342401206493377685546875" lon="-1.1363626085221767425537109375">
        <ele>964.4000244140625</ele>
        <time>2021-09-25T11:39:22.000Z</time>
      </trkpt>
      <trkpt lat="40.388133041560649871826171875" lon="-1.1362516321241855621337890625">
        <ele>963.79998779296875</ele>
        <time>2021-09-25T11:39:24.000Z</time>
      </trkpt>
      <trkpt lat="40.38805182091891765594482421875" lon="-1.13613654859364032745361328125">
        <ele>963.5999755859375</ele>
        <time>2021-09-25T11:39:26.000Z</time>
      </trkpt>
      <trkpt lat="40.38796884007751941680908203125" lon="-1.1360192857682704925537109375">
        <ele>963.79998779296875</ele>
        <time>2021-09-25T11:39:28.000Z</time>
      </trkpt>
      <trkpt lat="40.387894324958324432373046875" lon="-1.13590219058096408843994140625">
        <ele>963.5999755859375</ele>
        <time>2021-09-25T11:39:30.000Z</time>
      </trkpt>
      <trkpt lat="40.38785886950790882110595703125" lon="-1.13583974540233612060546875">
        <ele>963.4000244140625</ele>
        <time>2021-09-25T11:39:31.000Z</time>
      </trkpt>
      <trkpt lat="40.38782425224781036376953125" lon="-1.13577595911920070648193359375">
        <ele>963.20001220703125</ele>
        <time>2021-09-25T11:39:32.000Z</time>
      </trkpt>
      <trkpt lat="40.387758202850818634033203125" lon="-1.13564805127680301666259765625">
        <ele>963.4000244140625</ele>
        <time>2021-09-25T11:39:34.000Z</time>
      </trkpt>
      <trkpt lat="40.38769022561609745025634765625" lon="-1.1355187185108661651611328125">
        <ele>963.79998779296875</ele>
        <time>2021-09-25T11:39:36.000Z</time>
      </trkpt>
      <trkpt lat="40.387622416019439697265625" lon="-1.13539407961070537567138671875">
        <ele>963.5999755859375</ele>
        <time>2021-09-25T11:39:38.000Z</time>
      </trkpt>
      <trkpt lat="40.3875615634024143218994140625" lon="-1.1352588795125484466552734375">
        <ele>963.4000244140625</ele>
        <time>2021-09-25T11:39:40.000Z</time>
      </trkpt>
      <trkpt lat="40.3875008784234523773193359375" lon="-1.1351264454424381256103515625">
        <ele>963.20001220703125</ele>
        <time>2021-09-25T11:39:42.000Z</time>
      </trkpt>
      <trkpt lat="40.38744731806218624114990234375" lon="-1.13498738966882228851318359375">
        <ele>963</ele>
        <time>2021-09-25T11:39:44.000Z</time>
      </trkpt>
      <trkpt lat="40.38739685900509357452392578125" lon="-1.13484892062842845916748046875">
        <ele>962.79998779296875</ele>
        <time>2021-09-25T11:39:46.000Z</time>
      </trkpt>
      <trkpt lat="40.387342460453510284423828125" lon="-1.13470877520740032196044921875">
        <ele>962.5999755859375</ele>
        <time>2021-09-25T11:39:48.000Z</time>
      </trkpt>
      <trkpt lat="40.387316644191741943359375" lon="-1.1346379481256008148193359375">
        <ele>962.4000244140625</ele>
        <time>2021-09-25T11:39:49.000Z</time>
      </trkpt>
      <trkpt lat="40.38729677908122539520263671875" lon="-1.13456611521542072296142578125">
        <ele>962.4000244140625</ele>
        <time>2021-09-25T11:39:50.000Z</time>
      </trkpt>
      <trkpt lat="40.38725419901311397552490234375" lon="-1.13442479632794857025146484375">
        <ele>962.79998779296875</ele>
        <time>2021-09-25T11:39:52.000Z</time>
      </trkpt>
      <trkpt lat="40.387211702764034271240234375" lon="-1.13428213633596897125244140625">
        <ele>963</ele>
        <time>2021-09-25T11:39:54.000Z</time>
      </trkpt>
      <trkpt lat="40.38719016127288341522216796875" lon="-1.134210638701915740966796875">
        <ele>963</ele>
        <time>2021-09-25T11:39:55.000Z</time>
      </trkpt>
      <trkpt lat="40.38716903887689113616943359375" lon="-1.1341360397636890411376953125">
        <ele>962.79998779296875</ele>
        <time>2021-09-25T11:39:56.000Z</time>
      </trkpt>
      <trkpt lat="40.3871280513703823089599609375" lon="-1.133990027010440826416015625">
        <ele>963</ele>
        <time>2021-09-25T11:39:58.000Z</time>
      </trkpt>
      <trkpt lat="40.38709142245352268218994140625" lon="-1.13383269868791103363037109375">
        <ele>963.4000244140625</ele>
        <time>2021-09-25T11:40:00.000Z</time>
      </trkpt>
      <trkpt lat="40.3870603255927562713623046875" lon="-1.1336691677570343017578125">
        <ele>963.5999755859375</ele>
        <time>2021-09-25T11:40:02.000Z</time>
      </trkpt>
      <trkpt lat="40.3870296478271484375" lon="-1.1334973387420177459716796875">
        <ele>964</ele>
        <time>2021-09-25T11:40:04.000Z</time>
      </trkpt>
      <trkpt lat="40.38700349628925323486328125" lon="-1.1333293654024600982666015625">
        <ele>964.4000244140625</ele>
        <time>2021-09-25T11:40:06.000Z</time>
      </trkpt>
      <trkpt lat="40.386980362236499786376953125" lon="-1.1331570334732532501220703125">
        <ele>964.20001220703125</ele>
        <time>2021-09-25T11:40:08.000Z</time>
      </trkpt>
      <trkpt lat="40.38695362396538257598876953125" lon="-1.132986880838871002197265625">
        <ele>964.79998779296875</ele>
        <time>2021-09-25T11:40:10.000Z</time>
      </trkpt>
      <trkpt lat="40.3869292326271533966064453125" lon="-1.13281144760549068450927734375">
        <ele>965</ele>
        <time>2021-09-25T11:40:12.000Z</time>
      </trkpt>
      <trkpt lat="40.38690500892698764801025390625" lon="-1.1326329968869686126708984375">
        <ele>964.5999755859375</ele>
        <time>2021-09-25T11:40:14.000Z</time>
      </trkpt>
      <trkpt lat="40.386875756084918975830078125" lon="-1.13245320506393909454345703125">
        <ele>963.20001220703125</ele>
        <time>2021-09-25T11:40:16.000Z</time>
      </trkpt>
      <trkpt lat="40.38685035891830921173095703125" lon="-1.1322705633938312530517578125">
        <ele>962</ele>
        <time>2021-09-25T11:40:18.000Z</time>
      </trkpt>
      <trkpt lat="40.38682512938976287841796875" lon="-1.13209110684692859649658203125">
        <ele>961.20001220703125</ele>
        <time>2021-09-25T11:40:20.000Z</time>
      </trkpt>
      <trkpt lat="40.38680140860378742218017578125" lon="-1.13190804608166217803955078125">
        <ele>960.79998779296875</ele>
        <time>2021-09-25T11:40:22.000Z</time>
      </trkpt>
      <trkpt lat="40.38677894510328769683837890625" lon="-1.131724901497364044189453125">
        <ele>961</ele>
        <time>2021-09-25T11:40:24.000Z</time>
      </trkpt>
      <trkpt lat="40.38675581105053424835205078125" lon="-1.13154410384595394134521484375">
        <ele>961.5999755859375</ele>
        <time>2021-09-25T11:40:26.000Z</time>
      </trkpt>
      <trkpt lat="40.38673452101647853851318359375" lon="-1.13136339001357555389404296875">
        <ele>961.5999755859375</ele>
        <time>2021-09-25T11:40:28.000Z</time>
      </trkpt>
      <trkpt lat="40.38672295399010181427001953125" lon="-1.1312727816402912139892578125">
        <ele>961.4000244140625</ele>
        <time>2021-09-25T11:40:29.000Z</time>
      </trkpt>
      <trkpt lat="40.3867091238498687744140625" lon="-1.1311800777912139892578125">
        <ele>961.4000244140625</ele>
        <time>2021-09-25T11:40:30.000Z</time>
      </trkpt>
      <trkpt lat="40.386683642864227294921875" lon="-1.13100238144397735595703125">
        <ele>960.79998779296875</ele>
        <time>2021-09-25T11:40:32.000Z</time>
      </trkpt>
      <trkpt lat="40.3866636939346790313720703125" lon="-1.13082376308739185333251953125">
        <ele>959.5999755859375</ele>
        <time>2021-09-25T11:40:34.000Z</time>
      </trkpt>
      <trkpt lat="40.3866388835012912750244140625" lon="-1.1306454800069332122802734375">
        <ele>959</ele>
        <time>2021-09-25T11:40:36.000Z</time>
      </trkpt>
      <trkpt lat="40.386614911258220672607421875" lon="-1.13046937622129917144775390625">
        <ele>959</ele>
        <time>2021-09-25T11:40:38.000Z</time>
      </trkpt>
      <trkpt lat="40.38659311830997467041015625" lon="-1.13028732128441333770751953125">
        <ele>958.79998779296875</ele>
        <time>2021-09-25T11:40:40.000Z</time>
      </trkpt>
      <trkpt lat="40.38657224737107753753662109375" lon="-1.1301107145845890045166015625">
        <ele>959</ele>
        <time>2021-09-25T11:40:42.000Z</time>
      </trkpt>
      <trkpt lat="40.3865589201450347900390625" lon="-1.1300240457057952880859375">
        <ele>959.20001220703125</ele>
        <time>2021-09-25T11:40:43.000Z</time>
      </trkpt>
      <trkpt lat="40.38654752075672149658203125" lon="-1.1299370415508747100830078125">
        <ele>959.5999755859375</ele>
        <time>2021-09-25T11:40:44.000Z</time>
      </trkpt>
      <trkpt lat="40.3865366242825984954833984375" lon="-1.12985179759562015533447265625">
        <ele>960</ele>
        <time>2021-09-25T11:40:45.000Z</time>
      </trkpt>
      <trkpt lat="40.38652732037007808685302734375" lon="-1.12976722419261932373046875">
        <ele>960.5999755859375</ele>
        <time>2021-09-25T11:40:46.000Z</time>
      </trkpt>
      <trkpt lat="40.386515669524669647216796875" lon="-1.12968751229345798492431640625">
        <ele>960.79998779296875</ele>
        <time>2021-09-25T11:40:47.000Z</time>
      </trkpt>
      <trkpt lat="40.38650468923151493072509765625" lon="-1.1296047829091548919677734375">
        <ele>960.4000244140625</ele>
        <time>2021-09-25T11:40:48.000Z</time>
      </trkpt>
      <trkpt lat="40.38648448884487152099609375" lon="-1.129438318312168121337890625">
        <ele>959.4000244140625</ele>
        <time>2021-09-25T11:40:50.000Z</time>
      </trkpt>
      <trkpt lat="40.38647417910397052764892578125" lon="-1.12935240380465984344482421875">
        <ele>959.4000244140625</ele>
        <time>2021-09-25T11:40:51.000Z</time>
      </trkpt>
      <trkpt lat="40.3864618577063083648681640625" lon="-1.129267327487468719482421875">
        <ele>958.79998779296875</ele>
        <time>2021-09-25T11:40:52.000Z</time>
      </trkpt>
      <trkpt lat="40.38643562234938144683837890625" lon="-1.12909826450049877166748046875">
        <ele>957.5999755859375</ele>
        <time>2021-09-25T11:40:54.000Z</time>
      </trkpt>
      <trkpt lat="40.3864115662872791290283203125" lon="-1.12893146462738513946533203125">
        <ele>956.5999755859375</ele>
        <time>2021-09-25T11:40:56.000Z</time>
      </trkpt>
      <trkpt lat="40.38638784550130367279052734375" lon="-1.128763742744922637939453125">
        <ele>956</ele>
        <time>2021-09-25T11:40:58.000Z</time>
      </trkpt>
      <trkpt lat="40.38636370562016963958740234375" lon="-1.12860180437564849853515625">
        <ele>955.4000244140625</ele>
        <time>2021-09-25T11:41:00.000Z</time>
      </trkpt>
      <trkpt lat="40.38634208030998706817626953125" lon="-1.12843441776931285858154296875">
        <ele>955</ele>
        <time>2021-09-25T11:41:02.000Z</time>
      </trkpt>
      <trkpt lat="40.38631592877209186553955078125" lon="-1.128254793584346771240234375">
        <ele>955</ele>
        <time>2021-09-25T11:41:04.000Z</time>
      </trkpt>
      <trkpt lat="40.38629430346190929412841796875" lon="-1.1280849762260913848876953125">
        <ele>955</ele>
        <time>2021-09-25T11:41:06.000Z</time>
      </trkpt>
      <trkpt lat="40.38627066649496555328369140625" lon="-1.12791155464947223663330078125">
        <ele>955</ele>
        <time>2021-09-25T11:41:08.000Z</time>
      </trkpt>
      <trkpt lat="40.38624904118478298187255859375" lon="-1.12774617969989776611328125">
        <ele>955</ele>
        <time>2021-09-25T11:41:10.000Z</time>
      </trkpt>
      <trkpt lat="40.38622573949396610260009765625" lon="-1.12756605260074138641357421875">
        <ele>955</ele>
        <time>2021-09-25T11:41:12.000Z</time>
      </trkpt>
      <trkpt lat="40.386199168860912322998046875" lon="-1.12738952971994876861572265625">
        <ele>954.4000244140625</ele>
        <time>2021-09-25T11:41:14.000Z</time>
      </trkpt>
      <trkpt lat="40.38618785329163074493408203125" lon="-1.12730118446052074432373046875">
        <ele>953.79998779296875</ele>
        <time>2021-09-25T11:41:15.000Z</time>
      </trkpt>
      <trkpt lat="40.38617628626525402069091796875" lon="-1.12721149809658527374267578125">
        <ele>953.4000244140625</ele>
        <time>2021-09-25T11:41:16.000Z</time>
      </trkpt>
      <trkpt lat="40.3861534036695957183837890625" lon="-1.12703497521579265594482421875">
        <ele>953</ele>
        <time>2021-09-25T11:41:18.000Z</time>
      </trkpt>
      <trkpt lat="40.38612850941717624664306640625" lon="-1.1268578656017780303955078125">
        <ele>952.20001220703125</ele>
        <time>2021-09-25T11:41:20.000Z</time>
      </trkpt>
      <trkpt lat="40.38610252551734447479248046875" lon="-1.126683689653873443603515625">
        <ele>951.5999755859375</ele>
        <time>2021-09-25T11:41:22.000Z</time>
      </trkpt>
      <trkpt lat="40.386077463626861572265625" lon="-1.1265108548104763031005859375">
        <ele>951</ele>
        <time>2021-09-25T11:41:24.000Z</time>
      </trkpt>
      <trkpt lat="40.38605189882218837738037109375" lon="-1.126330979168415069580078125">
        <ele>951</ele>
        <time>2021-09-25T11:41:26.000Z</time>
      </trkpt>
      <trkpt lat="40.38602692075073719024658203125" lon="-1.12615487538278102874755859375">
        <ele>950.79998779296875</ele>
        <time>2021-09-25T11:41:28.000Z</time>
      </trkpt>
      <trkpt lat="40.38600143976509571075439453125" lon="-1.1259750835597515106201171875">
        <ele>950.4000244140625</ele>
        <time>2021-09-25T11:41:30.000Z</time>
      </trkpt>
      <trkpt lat="40.3859793953597545623779296875" lon="-1.125796549022197723388671875">
        <ele>949.5999755859375</ele>
        <time>2021-09-25T11:41:32.000Z</time>
      </trkpt>
      <trkpt lat="40.38595567457377910614013671875" lon="-1.1256198585033416748046875">
        <ele>949.20001220703125</ele>
        <time>2021-09-25T11:41:34.000Z</time>
      </trkpt>
      <trkpt lat="40.385929606854915618896484375" lon="-1.12544090487062931060791015625">
        <ele>949.5999755859375</ele>
        <time>2021-09-25T11:41:36.000Z</time>
      </trkpt>
      <trkpt lat="40.3859052993357181549072265625" lon="-1.1252550780773162841796875">
        <ele>950</ele>
        <time>2021-09-25T11:41:38.000Z</time>
      </trkpt>
      <trkpt lat="40.38587755523622035980224609375" lon="-1.12506757490336894989013671875">
        <ele>950</ele>
        <time>2021-09-25T11:41:40.000Z</time>
      </trkpt>
      <trkpt lat="40.38585073314607143402099609375" lon="-1.1248783953487873077392578125">
        <ele>950</ele>
        <time>2021-09-25T11:41:42.000Z</time>
      </trkpt>
      <trkpt lat="40.38582525216042995452880859375" lon="-1.12468686886131763458251953125">
        <ele>950</ele>
        <time>2021-09-25T11:41:44.000Z</time>
      </trkpt>
      <trkpt lat="40.38579775951802730560302734375" lon="-1.12449643202126026153564453125">
        <ele>950.4000244140625</ele>
        <time>2021-09-25T11:41:46.000Z</time>
      </trkpt>
      <trkpt lat="40.38577395491302013397216796875" lon="-1.124314628541469573974609375">
        <ele>951</ele>
        <time>2021-09-25T11:41:48.000Z</time>
      </trkpt>
      <trkpt lat="40.38575115613639354705810546875" lon="-1.12413617782294750213623046875">
        <ele>951.5999755859375</ele>
        <time>2021-09-25T11:41:50.000Z</time>
      </trkpt>
      <trkpt lat="40.38572718389332294464111328125" lon="-1.123959906399250030517578125">
        <ele>951.79998779296875</ele>
        <time>2021-09-25T11:41:52.000Z</time>
      </trkpt>
      <trkpt lat="40.3857044689357280731201171875" lon="-1.123790927231311798095703125">
        <ele>951.5999755859375</ele>
        <time>2021-09-25T11:41:54.000Z</time>
      </trkpt>
      <trkpt lat="40.3856846876442432403564453125" lon="-1.12362219952046871185302734375">
        <ele>951.5999755859375</ele>
        <time>2021-09-25T11:41:56.000Z</time>
      </trkpt>
      <trkpt lat="40.38566172122955322265625" lon="-1.1234521307051181793212890625">
        <ele>951.4000244140625</ele>
        <time>2021-09-25T11:41:58.000Z</time>
      </trkpt>
      <trkpt lat="40.3856380842626094818115234375" lon="-1.12326831556856632232666015625">
        <ele>951.4000244140625</ele>
        <time>2021-09-25T11:42:00.000Z</time>
      </trkpt>
      <trkpt lat="40.38561671040952205657958984375" lon="-1.12308776937425136566162109375">
        <ele>951.79998779296875</ele>
        <time>2021-09-25T11:42:02.000Z</time>
      </trkpt>
      <trkpt lat="40.38558997213840484619140625" lon="-1.12290403805673122406005859375">
        <ele>952.20001220703125</ele>
        <time>2021-09-25T11:42:04.000Z</time>
      </trkpt>
      <trkpt lat="40.38556625135242938995361328125" lon="-1.122725419700145721435546875">
        <ele>952.20001220703125</ele>
        <time>2021-09-25T11:42:06.000Z</time>
      </trkpt>
      <trkpt lat="40.3855556063354015350341796875" lon="-1.1226357333362102508544921875">
        <ele>952</ele>
        <time>2021-09-25T11:42:07.000Z</time>
      </trkpt>
      <trkpt lat="40.3855435363948345184326171875" lon="-1.12254277803003787994384765625">
        <ele>952</ele>
        <time>2021-09-25T11:42:08.000Z</time>
      </trkpt>
      <trkpt lat="40.38552031852304935455322265625" lon="-1.12236323766410350799560546875">
        <ele>951.79998779296875</ele>
        <time>2021-09-25T11:42:10.000Z</time>
      </trkpt>
      <trkpt lat="40.38549601100385189056396484375" lon="-1.12218051217496395111083984375">
        <ele>950.20001220703125</ele>
        <time>2021-09-25T11:42:12.000Z</time>
      </trkpt>
      <trkpt lat="40.38546868599951267242431640625" lon="-1.12199476920068264007568359375">
        <ele>949.4000244140625</ele>
        <time>2021-09-25T11:42:14.000Z</time>
      </trkpt>
      <trkpt lat="40.38544052280485630035400390625" lon="-1.1218082718551158905029296875">
        <ele>948.4000244140625</ele>
        <time>2021-09-25T11:42:16.000Z</time>
      </trkpt>
      <trkpt lat="40.38542744703590869903564453125" lon="-1.12171523272991180419921875">
        <ele>948.4000244140625</ele>
        <time>2021-09-25T11:42:17.000Z</time>
      </trkpt>
      <trkpt lat="40.38541470654308795928955078125" lon="-1.12162210978567600250244140625">
        <ele>948.4000244140625</ele>
        <time>2021-09-25T11:42:18.000Z</time>
      </trkpt>
      <trkpt lat="40.3853894770145416259765625" lon="-1.12143452279269695281982421875">
        <ele>949.4000244140625</ele>
        <time>2021-09-25T11:42:20.000Z</time>
      </trkpt>
      <trkpt lat="40.38536198437213897705078125" lon="-1.12125146202743053436279296875">
        <ele>950.5999755859375</ele>
        <time>2021-09-25T11:42:22.000Z</time>
      </trkpt>
      <trkpt lat="40.3853370063006877899169921875" lon="-1.121063791215419769287109375">
        <ele>951.5999755859375</ele>
        <time>2021-09-25T11:42:24.000Z</time>
      </trkpt>
      <trkpt lat="40.38532577455043792724609375" lon="-1.120969913899898529052734375">
        <ele>952.20001220703125</ele>
        <time>2021-09-25T11:42:25.000Z</time>
      </trkpt>
      <trkpt lat="40.38531378842890262603759765625" lon="-1.1208782158792018890380859375">
        <ele>952.20001220703125</ele>
        <time>2021-09-25T11:42:26.000Z</time>
      </trkpt>
      <trkpt lat="40.385286547243595123291015625" lon="-1.12069942988455295562744140625">
        <ele>952</ele>
        <time>2021-09-25T11:42:28.000Z</time>
      </trkpt>
      <trkpt lat="40.385259725153446197509765625" lon="-1.12052357755601406097412109375">
        <ele>951.4000244140625</ele>
        <time>2021-09-25T11:42:30.000Z</time>
      </trkpt>
      <trkpt lat="40.3852327354252338409423828125" lon="-1.12034772522747516632080078125">
        <ele>950.5999755859375</ele>
        <time>2021-09-25T11:42:32.000Z</time>
      </trkpt>
      <trkpt lat="40.385220162570476531982421875" lon="-1.12025854177772998809814453125">
        <ele>950.20001220703125</ele>
        <time>2021-09-25T11:42:33.000Z</time>
      </trkpt>
      <trkpt lat="40.38520817644894123077392578125" lon="-1.12016835249960422515869140625">
        <ele>949.79998779296875</ele>
        <time>2021-09-25T11:42:34.000Z</time>
      </trkpt>
      <trkpt lat="40.38518554531037807464599609375" lon="-1.11998277716338634490966796875">
        <ele>949.20001220703125</ele>
        <time>2021-09-25T11:42:36.000Z</time>
      </trkpt>
      <trkpt lat="40.38517414592206478118896484375" lon="-1.1198906600475311279296875">
        <ele>949</ele>
        <time>2021-09-25T11:42:37.000Z</time>
      </trkpt>
      <trkpt lat="40.3851614892482757568359375" lon="-1.11979879438877105712890625">
        <ele>948.5999755859375</ele>
        <time>2021-09-25T11:42:38.000Z</time>
      </trkpt>
      <trkpt lat="40.38514799438416957855224609375" lon="-1.11970852129161357879638671875">
        <ele>948.4000244140625</ele>
        <time>2021-09-25T11:42:39.000Z</time>
      </trkpt>
      <trkpt lat="40.38513575680553913116455078125" lon="-1.11961866728961467742919921875">
        <ele>948</ele>
        <time>2021-09-25T11:42:40.000Z</time>
      </trkpt>
      <trkpt lat="40.3851078450679779052734375" lon="-1.11944013275206089019775390625">
        <ele>947.79998779296875</ele>
        <time>2021-09-25T11:42:42.000Z</time>
      </trkpt>
      <trkpt lat="40.385094098746776580810546875" lon="-1.11935212276875972747802734375">
        <ele>947.5999755859375</ele>
        <time>2021-09-25T11:42:43.000Z</time>
      </trkpt>
      <trkpt lat="40.38508261553943157196044921875" lon="-1.1192643642425537109375">
        <ele>947.4000244140625</ele>
        <time>2021-09-25T11:42:44.000Z</time>
      </trkpt>
      <trkpt lat="40.3850610740482807159423828125" lon="-1.11909010447561740875244140625">
        <ele>947.4000244140625</ele>
        <time>2021-09-25T11:42:46.000Z</time>
      </trkpt>
      <trkpt lat="40.38503886200487613677978515625" lon="-1.11891441978514194488525390625">
        <ele>947.20001220703125</ele>
        <time>2021-09-25T11:42:48.000Z</time>
      </trkpt>
      <trkpt lat="40.38501790724694728851318359375" lon="-1.11873437650501728057861328125">
        <ele>946.79998779296875</ele>
        <time>2021-09-25T11:42:50.000Z</time>
      </trkpt>
      <trkpt lat="40.3849930129945278167724609375" lon="-1.11855282448232173919677734375">
        <ele>945.4000244140625</ele>
        <time>2021-09-25T11:42:52.000Z</time>
      </trkpt>
      <trkpt lat="40.38496342487633228302001953125" lon="-1.1183747090399265289306640625">
        <ele>944.5999755859375</ele>
        <time>2021-09-25T11:42:54.000Z</time>
      </trkpt>
      <trkpt lat="40.3849376924335956573486328125" lon="-1.11819441430270671844482421875">
        <ele>943.79998779296875</ele>
        <time>2021-09-25T11:42:56.000Z</time>
      </trkpt>
      <trkpt lat="40.3849135525524616241455078125" lon="-1.118009090423583984375">
        <ele>943.20001220703125</ele>
        <time>2021-09-25T11:42:58.000Z</time>
      </trkpt>
      <trkpt lat="40.3848860599100589752197265625" lon="-1.117829717695713043212890625">
        <ele>943.79998779296875</ele>
        <time>2021-09-25T11:43:00.000Z</time>
      </trkpt>
      <trkpt lat="40.3848610818386077880859375" lon="-1.11764724366366863250732421875">
        <ele>944</ele>
        <time>2021-09-25T11:43:02.000Z</time>
      </trkpt>
      <trkpt lat="40.38484021089971065521240234375" lon="-1.11746728420257568359375">
        <ele>944.79998779296875</ele>
        <time>2021-09-25T11:43:04.000Z</time>
      </trkpt>
      <trkpt lat="40.38482822477817535400390625" lon="-1.11737701110541820526123046875">
        <ele>945</ele>
        <time>2021-09-25T11:43:05.000Z</time>
      </trkpt>
      <trkpt lat="40.38481640629470348358154296875" lon="-1.11728799529373645782470703125">
        <ele>945</ele>
        <time>2021-09-25T11:43:06.000Z</time>
      </trkpt>
      <trkpt lat="40.38479394279420375823974609375" lon="-1.11710376106202602386474609375">
        <ele>945</ele>
        <time>2021-09-25T11:43:08.000Z</time>
      </trkpt>
      <trkpt lat="40.38476921617984771728515625" lon="-1.11691298894584178924560546875">
        <ele>945</ele>
        <time>2021-09-25T11:43:10.000Z</time>
      </trkpt>
      <trkpt lat="40.38474063389003276824951171875" lon="-1.1167238093912601470947265625">
        <ele>945</ele>
        <time>2021-09-25T11:43:12.000Z</time>
      </trkpt>
      <trkpt lat="40.38471381179988384246826171875" lon="-1.1165370605885982513427734375">
        <ele>945</ele>
        <time>2021-09-25T11:43:14.000Z</time>
      </trkpt>
      <trkpt lat="40.384699814021587371826171875" lon="-1.11644335091114044189453125">
        <ele>944.5999755859375</ele>
        <time>2021-09-25T11:43:15.000Z</time>
      </trkpt>
      <trkpt lat="40.38468665443360805511474609375" lon="-1.1163536645472049713134765625">
        <ele>944.20001220703125</ele>
        <time>2021-09-25T11:43:16.000Z</time>
      </trkpt>
      <trkpt lat="40.38466569967567920684814453125" lon="-1.11617186106741428375244140625">
        <ele>943.5999755859375</ele>
        <time>2021-09-25T11:43:18.000Z</time>
      </trkpt>
      <trkpt lat="40.38464248180389404296875" lon="-1.1159798316657543182373046875">
        <ele>942.79998779296875</ele>
        <time>2021-09-25T11:43:20.000Z</time>
      </trkpt>
      <trkpt lat="40.38461725227534770965576171875" lon="-1.11578889191150665283203125">
        <ele>942</ele>
        <time>2021-09-25T11:43:22.000Z</time>
      </trkpt>
      <trkpt lat="40.384591519832611083984375" lon="-1.1156002990901470184326171875">
        <ele>942</ele>
        <time>2021-09-25T11:43:24.000Z</time>
      </trkpt>
      <trkpt lat="40.38455992005765438079833984375" lon="-1.11540709622204303741455078125">
        <ele>942.5999755859375</ele>
        <time>2021-09-25T11:43:26.000Z</time>
      </trkpt>
      <trkpt lat="40.38452991284430027008056640625" lon="-1.11521766521036624908447265625">
        <ele>943.20001220703125</ele>
        <time>2021-09-25T11:43:28.000Z</time>
      </trkpt>
      <trkpt lat="40.38449990563094615936279296875" lon="-1.1150331795215606689453125">
        <ele>943.4000244140625</ele>
        <time>2021-09-25T11:43:30.000Z</time>
      </trkpt>
      <trkpt lat="40.3844619356095790863037109375" lon="-1.11484735272824764251708984375">
        <ele>943.4000244140625</ele>
        <time>2021-09-25T11:43:32.000Z</time>
      </trkpt>
      <trkpt lat="40.3844176791608333587646484375" lon="-1.114674098789691925048828125">
        <ele>943</ele>
        <time>2021-09-25T11:43:34.000Z</time>
      </trkpt>
      <trkpt lat="40.38437970913946628570556640625" lon="-1.11449698917567729949951171875">
        <ele>942.79998779296875</ele>
        <time>2021-09-25T11:43:36.000Z</time>
      </trkpt>
      <trkpt lat="40.384345091879367828369140625" lon="-1.11432038247585296630859375">
        <ele>942.79998779296875</ele>
        <time>2021-09-25T11:43:38.000Z</time>
      </trkpt>
      <trkpt lat="40.38430360145866870880126953125" lon="-1.1141445301473140716552734375">
        <ele>943.20001220703125</ele>
        <time>2021-09-25T11:43:40.000Z</time>
      </trkpt>
      <trkpt lat="40.384281389415264129638671875" lon="-1.11405811272561550140380859375">
        <ele>943</ele>
        <time>2021-09-25T11:43:41.000Z</time>
      </trkpt>
      <trkpt lat="40.38425884209573268890380859375" lon="-1.1139725334942340850830078125">
        <ele>943.5999755859375</ele>
        <time>2021-09-25T11:43:42.000Z</time>
      </trkpt>
      <trkpt lat="40.384208299219608306884765625" lon="-1.11380062066018581390380859375">
        <ele>943.79998779296875</ele>
        <time>2021-09-25T11:43:44.000Z</time>
      </trkpt>
      <trkpt lat="40.3841591812670230865478515625" lon="-1.1136303842067718505859375">
        <ele>943.79998779296875</ele>
        <time>2021-09-25T11:43:46.000Z</time>
      </trkpt>
      <trkpt lat="40.3841098956763744354248046875" lon="-1.113467104732990264892578125">
        <ele>943.79998779296875</ele>
        <time>2021-09-25T11:43:48.000Z</time>
      </trkpt>
      <trkpt lat="40.3840854205191135406494140625" lon="-1.11338756047189235687255859375">
        <ele>943.5999755859375</ele>
        <time>2021-09-25T11:43:49.000Z</time>
      </trkpt>
      <trkpt lat="40.384060107171535491943359375" lon="-1.11331027932465076446533203125">
        <ele>943.4000244140625</ele>
        <time>2021-09-25T11:43:50.000Z</time>
      </trkpt>
      <trkpt lat="40.38401140831410884857177734375" lon="-1.113158650696277618408203125">
        <ele>943.79998779296875</ele>
        <time>2021-09-25T11:43:52.000Z</time>
      </trkpt>
      <trkpt lat="40.383964888751506805419921875" lon="-1.113007105886936187744140625">
        <ele>944.20001220703125</ele>
        <time>2021-09-25T11:43:54.000Z</time>
      </trkpt>
      <trkpt lat="40.38391317240893840789794921875" lon="-1.11286126077175140380859375">
        <ele>944.5999755859375</ele>
        <time>2021-09-25T11:43:56.000Z</time>
      </trkpt>
      <trkpt lat="40.3838611207902431488037109375" lon="-1.11271549947559833526611328125">
        <ele>944.79998779296875</ele>
        <time>2021-09-25T11:43:58.000Z</time>
      </trkpt>
      <trkpt lat="40.38380705751478672027587890625" lon="-1.1125695705413818359375">
        <ele>944.79998779296875</ele>
        <time>2021-09-25T11:44:00.000Z</time>
      </trkpt>
      <trkpt lat="40.3837501443922519683837890625" lon="-1.1124225519597530364990234375">
        <ele>944.4000244140625</ele>
        <time>2021-09-25T11:44:02.000Z</time>
      </trkpt>
      <trkpt lat="40.38372256793081760406494140625" lon="-1.11235222779214382171630859375">
        <ele>944</ele>
        <time>2021-09-25T11:44:03.000Z</time>
      </trkpt>
      <trkpt lat="40.38369365036487579345703125" lon="-1.11228014342486858367919921875">
        <ele>943.79998779296875</ele>
        <time>2021-09-25T11:44:04.000Z</time>
      </trkpt>
      <trkpt lat="40.38363405503332614898681640625" lon="-1.11213480122387409210205078125">
        <ele>943.4000244140625</ele>
        <time>2021-09-25T11:44:06.000Z</time>
      </trkpt>
      <trkpt lat="40.38358208723366260528564453125" lon="-1.11198644153773784637451171875">
        <ele>943.4000244140625</ele>
        <time>2021-09-25T11:44:08.000Z</time>
      </trkpt>
      <trkpt lat="40.383525677025318145751953125" lon="-1.11184059642255306243896484375">
        <ele>943.79998779296875</ele>
        <time>2021-09-25T11:44:10.000Z</time>
      </trkpt>
      <trkpt lat="40.3834681771695613861083984375" lon="-1.111693494021892547607421875">
        <ele>944.20001220703125</ele>
        <time>2021-09-25T11:44:12.000Z</time>
      </trkpt>
      <trkpt lat="40.38340866565704345703125" lon="-1.11154672689735889434814453125">
        <ele>944.4000244140625</ele>
        <time>2021-09-25T11:44:14.000Z</time>
      </trkpt>
      <trkpt lat="40.3833563625812530517578125" lon="-1.11140691675245761871337890625">
        <ele>944.79998779296875</ele>
        <time>2021-09-25T11:44:16.000Z</time>
      </trkpt>
      <trkpt lat="40.3833005391061305999755859375" lon="-1.1112641729414463043212890625">
        <ele>945</ele>
        <time>2021-09-25T11:44:18.000Z</time>
      </trkpt>
      <trkpt lat="40.38323440589010715484619140625" lon="-1.11111782491207122802734375">
        <ele>944.20001220703125</ele>
        <time>2021-09-25T11:44:20.000Z</time>
      </trkpt>
      <trkpt lat="40.383175313472747802734375" lon="-1.11096384935081005096435546875">
        <ele>943.5999755859375</ele>
        <time>2021-09-25T11:44:22.000Z</time>
      </trkpt>
      <trkpt lat="40.38314438425004482269287109375" lon="-1.110884808003902435302734375">
        <ele>942.79998779296875</ele>
        <time>2021-09-25T11:44:23.000Z</time>
      </trkpt>
      <trkpt lat="40.38311286829411983489990234375" lon="-1.1108065210282802581787109375">
        <ele>942.5999755859375</ele>
        <time>2021-09-25T11:44:24.000Z</time>
      </trkpt>
      <trkpt lat="40.38305084221065044403076171875" lon="-1.11064885742962360382080078125">
        <ele>942.20001220703125</ele>
        <time>2021-09-25T11:44:26.000Z</time>
      </trkpt>
      <trkpt lat="40.38299250416457653045654296875" lon="-1.11049748025834560394287109375">
        <ele>941.79998779296875</ele>
        <time>2021-09-25T11:44:28.000Z</time>
      </trkpt>
      <trkpt lat="40.38293701596558094024658203125" lon="-1.1103492043912410736083984375">
        <ele>941</ele>
        <time>2021-09-25T11:44:30.000Z</time>
      </trkpt>
      <trkpt lat="40.382873900234699249267578125" lon="-1.1101876012980937957763671875">
        <ele>940.4000244140625</ele>
        <time>2021-09-25T11:44:32.000Z</time>
      </trkpt>
      <trkpt lat="40.3828110359609127044677734375" lon="-1.11002323217689990997314453125">
        <ele>939.20001220703125</ele>
        <time>2021-09-25T11:44:34.000Z</time>
      </trkpt>
      <trkpt lat="40.382743142545223236083984375" lon="-1.1098600365221500396728515625">
        <ele>937.79998779296875</ele>
        <time>2021-09-25T11:44:36.000Z</time>
      </trkpt>
      <trkpt lat="40.38267575204372406005859375" lon="-1.10968954861164093017578125">
        <ele>937.20001220703125</ele>
        <time>2021-09-25T11:44:38.000Z</time>
      </trkpt>
      <trkpt lat="40.3826065175235271453857421875" lon="-1.1095234192907810211181640625">
        <ele>937</ele>
        <time>2021-09-25T11:44:40.000Z</time>
      </trkpt>
      <trkpt lat="40.3825329244136810302734375" lon="-1.10935787670314311981201171875">
        <ele>936.4000244140625</ele>
        <time>2021-09-25T11:44:42.000Z</time>
      </trkpt>
      <trkpt lat="40.3824610076844692230224609375" lon="-1.1091841198503971099853515625">
        <ele>935.4000244140625</ele>
        <time>2021-09-25T11:44:44.000Z</time>
      </trkpt>
      <trkpt lat="40.38238867186009883880615234375" lon="-1.109004914760589599609375">
        <ele>935</ele>
        <time>2021-09-25T11:44:46.000Z</time>
      </trkpt>
      <trkpt lat="40.382322371006011962890625" lon="-1.10882344655692577362060546875">
        <ele>934.5999755859375</ele>
        <time>2021-09-25T11:44:48.000Z</time>
      </trkpt>
      <trkpt lat="40.38225062191486358642578125" lon="-1.10864474438130855560302734375">
        <ele>934.4000244140625</ele>
        <time>2021-09-25T11:44:50.000Z</time>
      </trkpt>
      <trkpt lat="40.38217845372855663299560546875" lon="-1.10846855677664279937744140625">
        <ele>934</ele>
        <time>2021-09-25T11:44:52.000Z</time>
      </trkpt>
      <trkpt lat="40.3821049444377422332763671875" lon="-1.10829345881938934326171875">
        <ele>934</ele>
        <time>2021-09-25T11:44:54.000Z</time>
      </trkpt>
      <trkpt lat="40.3820362128317356109619140625" lon="-1.10811316408216953277587890625">
        <ele>933.79998779296875</ele>
        <time>2021-09-25T11:44:56.000Z</time>
      </trkpt>
      <trkpt lat="40.38196689449250698089599609375" lon="-1.107936389744281768798828125">
        <ele>934.4000244140625</ele>
        <time>2021-09-25T11:44:58.000Z</time>
      </trkpt>
      <trkpt lat="40.38189263083040714263916015625" lon="-1.10775592736899852752685546875">
        <ele>933.79998779296875</ele>
        <time>2021-09-25T11:45:00.000Z</time>
      </trkpt>
      <trkpt lat="40.3818162716925144195556640625" lon="-1.1075794883072376251220703125">
        <ele>933.4000244140625</ele>
        <time>2021-09-25T11:45:02.000Z</time>
      </trkpt>
      <trkpt lat="40.3817803971469402313232421875" lon="-1.1074859462678432464599609375">
        <ele>933.20001220703125</ele>
        <time>2021-09-25T11:45:03.000Z</time>
      </trkpt>
      <trkpt lat="40.38174661807715892791748046875" lon="-1.1073942482471466064453125">
        <ele>933.4000244140625</ele>
        <time>2021-09-25T11:45:04.000Z</time>
      </trkpt>
      <trkpt lat="40.381680317223072052001953125" lon="-1.1072197370231151580810546875">
        <ele>933.4000244140625</ele>
        <time>2021-09-25T11:45:06.000Z</time>
      </trkpt>
      <trkpt lat="40.38160915486514568328857421875" lon="-1.10705503262579441070556640625">
        <ele>933.20001220703125</ele>
        <time>2021-09-25T11:45:08.000Z</time>
      </trkpt>
      <trkpt lat="40.3815400041639804840087890625" lon="-1.10689108259975910186767578125">
        <ele>933.79998779296875</ele>
        <time>2021-09-25T11:45:10.000Z</time>
      </trkpt>
      <trkpt lat="40.38150873966515064239501953125" lon="-1.106808520853519439697265625">
        <ele>933.5999755859375</ele>
        <time>2021-09-25T11:45:11.000Z</time>
      </trkpt>
      <trkpt lat="40.38147546350955963134765625" lon="-1.106732748448848724365234375">
        <ele>933.20001220703125</ele>
        <time>2021-09-25T11:45:12.000Z</time>
      </trkpt>
      <trkpt lat="40.38141033612191677093505859375" lon="-1.10658086836338043212890625">
        <ele>932.5999755859375</ele>
        <time>2021-09-25T11:45:14.000Z</time>
      </trkpt>
      <trkpt lat="40.38135233335196971893310546875" lon="-1.10643091611564159393310546875">
        <ele>932.4000244140625</ele>
        <time>2021-09-25T11:45:16.000Z</time>
      </trkpt>
      <trkpt lat="40.3812945820391178131103515625" lon="-1.1062799580395221710205078125">
        <ele>933</ele>
        <time>2021-09-25T11:45:18.000Z</time>
      </trkpt>
      <trkpt lat="40.3812302090227603912353515625" lon="-1.106126569211483001708984375">
        <ele>933.5999755859375</ele>
        <time>2021-09-25T11:45:20.000Z</time>
      </trkpt>
      <trkpt lat="40.38117128424346446990966796875" lon="-1.1059726774692535400390625">
        <ele>934</ele>
        <time>2021-09-25T11:45:22.000Z</time>
      </trkpt>
      <trkpt lat="40.381110347807407379150390625" lon="-1.10581585206091403961181640625">
        <ele>934</ele>
        <time>2021-09-25T11:45:24.000Z</time>
      </trkpt>
      <trkpt lat="40.38104522041976451873779296875" lon="-1.1056516505777835845947265625">
        <ele>933.20001220703125</ele>
        <time>2021-09-25T11:45:26.000Z</time>
      </trkpt>
      <trkpt lat="40.38097883574664592742919921875" lon="-1.10548694618046283721923828125">
        <ele>931.4000244140625</ele>
        <time>2021-09-25T11:45:28.000Z</time>
      </trkpt>
      <trkpt lat="40.38091144524514675140380859375" lon="-1.10531528480350971221923828125">
        <ele>930.20001220703125</ele>
        <time>2021-09-25T11:45:30.000Z</time>
      </trkpt>
      <trkpt lat="40.38085025735199451446533203125" lon="-1.1051386781036853790283203125">
        <ele>928.4000244140625</ele>
        <time>2021-09-25T11:45:32.000Z</time>
      </trkpt>
      <trkpt lat="40.38078621961176395416259765625" lon="-1.10496760345995426177978515625">
        <ele>928</ele>
        <time>2021-09-25T11:45:34.000Z</time>
      </trkpt>
      <trkpt lat="40.380716733634471893310546875" lon="-1.1047916673123836517333984375">
        <ele>927.5999755859375</ele>
        <time>2021-09-25T11:45:36.000Z</time>
      </trkpt>
      <trkpt lat="40.380646996200084686279296875" lon="-1.1046116240322589874267578125">
        <ele>928</ele>
        <time>2021-09-25T11:45:38.000Z</time>
      </trkpt>
      <trkpt lat="40.38057415746152400970458984375" lon="-1.10443132929503917694091796875">
        <ele>929.4000244140625</ele>
        <time>2021-09-25T11:45:40.000Z</time>
      </trkpt>
      <trkpt lat="40.3805043362081050872802734375" lon="-1.10425530932843685150146484375">
        <ele>930.20001220703125</ele>
        <time>2021-09-25T11:45:42.000Z</time>
      </trkpt>
      <trkpt lat="40.38047223351895809173583984375" lon="-1.1041687242686748504638671875">
        <ele>930.20001220703125</ele>
        <time>2021-09-25T11:45:43.000Z</time>
      </trkpt>
      <trkpt lat="40.38043920882046222686767578125" lon="-1.10408599488437175750732421875">
        <ele>930.20001220703125</ele>
        <time>2021-09-25T11:45:44.000Z</time>
      </trkpt>
      <trkpt lat="40.3803719021379947662353515625" lon="-1.10392137430608272552490234375">
        <ele>930.79998779296875</ele>
        <time>2021-09-25T11:45:46.000Z</time>
      </trkpt>
      <trkpt lat="40.380306355655193328857421875" lon="-1.10376262106001377105712890625">
        <ele>931.5999755859375</ele>
        <time>2021-09-25T11:45:48.000Z</time>
      </trkpt>
      <trkpt lat="40.38024273701012134552001953125" lon="-1.10360671766102313995361328125">
        <ele>931.5999755859375</ele>
        <time>2021-09-25T11:45:50.000Z</time>
      </trkpt>
      <trkpt lat="40.38018263876438140869140625" lon="-1.10345249064266681671142578125">
        <ele>931</ele>
        <time>2021-09-25T11:45:52.000Z</time>
      </trkpt>
      <trkpt lat="40.38012505508959293365478515625" lon="-1.1032876186072826385498046875">
        <ele>929.5999755859375</ele>
        <time>2021-09-25T11:45:54.000Z</time>
      </trkpt>
      <trkpt lat="40.38006059825420379638671875" lon="-1.10311419703066349029541015625">
        <ele>927.79998779296875</ele>
        <time>2021-09-25T11:45:56.000Z</time>
      </trkpt>
      <trkpt lat="40.37999127991497516632080078125" lon="-1.10294303856790065765380859375">
        <ele>928</ele>
        <time>2021-09-25T11:45:58.000Z</time>
      </trkpt>
      <trkpt lat="40.37992120720446109771728515625" lon="-1.10276634804904460906982421875">
        <ele>927.5999755859375</ele>
        <time>2021-09-25T11:46:00.000Z</time>
      </trkpt>
      <trkpt lat="40.37985281087458133697509765625" lon="-1.1025882326066493988037109375">
        <ele>928</ele>
        <time>2021-09-25T11:46:02.000Z</time>
      </trkpt>
      <trkpt lat="40.37978273816406726837158203125" lon="-1.1024085246026515960693359375">
        <ele>928</ele>
        <time>2021-09-25T11:46:04.000Z</time>
      </trkpt>
      <trkpt lat="40.37971467711031436920166015625" lon="-1.1022269725799560546875">
        <ele>927.5999755859375</ele>
        <time>2021-09-25T11:46:06.000Z</time>
      </trkpt>
      <trkpt lat="40.379644520580768585205078125" lon="-1.10203980468213558197021484375">
        <ele>927</ele>
        <time>2021-09-25T11:46:08.000Z</time>
      </trkpt>
      <trkpt lat="40.37957469932734966278076171875" lon="-1.10184802673757076263427734375">
        <ele>926.20001220703125</ele>
        <time>2021-09-25T11:46:10.000Z</time>
      </trkpt>
      <trkpt lat="40.37950269877910614013671875" lon="-1.1016543209552764892578125">
        <ele>925.5999755859375</ele>
        <time>2021-09-25T11:46:12.000Z</time>
      </trkpt>
      <trkpt lat="40.37942759692668914794921875" lon="-1.10146723687648773193359375">
        <ele>925.4000244140625</ele>
        <time>2021-09-25T11:46:14.000Z</time>
      </trkpt>
      <trkpt lat="40.37935358472168445587158203125" lon="-1.1012880317866802215576171875">
        <ele>926.20001220703125</ele>
        <time>2021-09-25T11:46:16.000Z</time>
      </trkpt>
      <trkpt lat="40.37928418256342411041259765625" lon="-1.1011039651930332183837890625">
        <ele>927.5999755859375</ele>
        <time>2021-09-25T11:46:18.000Z</time>
      </trkpt>
      <trkpt lat="40.37921126000583171844482421875" lon="-1.100926436483860015869140625">
        <ele>928</ele>
        <time>2021-09-25T11:46:20.000Z</time>
      </trkpt>
      <trkpt lat="40.37914101965725421905517578125" lon="-1.100751422345638275146484375">
        <ele>928</ele>
        <time>2021-09-25T11:46:22.000Z</time>
      </trkpt>
      <trkpt lat="40.3790728747844696044921875" lon="-1.100576408207416534423828125">
        <ele>927.5999755859375</ele>
        <time>2021-09-25T11:46:24.000Z</time>
      </trkpt>
      <trkpt lat="40.37903725169599056243896484375" lon="-1.1004883982241153717041015625">
        <ele>927.5999755859375</ele>
        <time>2021-09-25T11:46:25.000Z</time>
      </trkpt>
      <trkpt lat="40.37900288589298725128173828125" lon="-1.1004005558788776397705078125">
        <ele>927.4000244140625</ele>
        <time>2021-09-25T11:46:26.000Z</time>
      </trkpt>
      <trkpt lat="40.37893197499215602874755859375" lon="-1.100223362445831298828125">
        <ele>926.4000244140625</ele>
        <time>2021-09-25T11:46:28.000Z</time>
      </trkpt>
      <trkpt lat="40.3788618184626102447509765625" lon="-1.1000454984605312347412109375">
        <ele>925.5999755859375</ele>
        <time>2021-09-25T11:46:30.000Z</time>
      </trkpt>
      <trkpt lat="40.3787897340953350067138671875" lon="-1.09986889176070690155029296875">
        <ele>925</ele>
        <time>2021-09-25T11:46:32.000Z</time>
      </trkpt>
      <trkpt lat="40.37871236912906169891357421875" lon="-1.099704019725322723388671875">
        <ele>924.79998779296875</ele>
        <time>2021-09-25T11:46:34.000Z</time>
      </trkpt>
      <trkpt lat="40.3786355070769786834716796875" lon="-1.099533028900623321533203125">
        <ele>924.20001220703125</ele>
        <time>2021-09-25T11:46:36.000Z</time>
      </trkpt>
      <trkpt lat="40.378567278385162353515625" lon="-1.0993598587810993194580078125">
        <ele>923</ele>
        <time>2021-09-25T11:46:38.000Z</time>
      </trkpt>
      <trkpt lat="40.37850047461688518524169921875" lon="-1.099180988967418670654296875">
        <ele>921.79998779296875</ele>
        <time>2021-09-25T11:46:40.000Z</time>
      </trkpt>
      <trkpt lat="40.378436185419559478759765625" lon="-1.0990096628665924072265625">
        <ele>921.4000244140625</ele>
        <time>2021-09-25T11:46:42.000Z</time>
      </trkpt>
      <trkpt lat="40.37837080657482147216796875" lon="-1.098842360079288482666015625">
        <ele>921.20001220703125</ele>
        <time>2021-09-25T11:46:44.000Z</time>
      </trkpt>
      <trkpt lat="40.3783049248158931732177734375" lon="-1.09867363236844539642333984375">
        <ele>921</ele>
        <time>2021-09-25T11:46:46.000Z</time>
      </trkpt>
      <trkpt lat="40.3782385401427745819091796875" lon="-1.09850666485726833343505859375">
        <ele>920.5999755859375</ele>
        <time>2021-09-25T11:46:48.000Z</time>
      </trkpt>
      <trkpt lat="40.37817190401256084442138671875" lon="-1.09834321774542331695556640625">
        <ele>920.5999755859375</ele>
        <time>2021-09-25T11:46:50.000Z</time>
      </trkpt>
      <trkpt lat="40.37813686765730381011962890625" lon="-1.09825906343758106231689453125">
        <ele>920.5999755859375</ele>
        <time>2021-09-25T11:46:51.000Z</time>
      </trkpt>
      <trkpt lat="40.37810183130204677581787109375" lon="-1.098175160586833953857421875">
        <ele>920.79998779296875</ele>
        <time>2021-09-25T11:46:52.000Z</time>
      </trkpt>
      <trkpt lat="40.378036201000213623046875" lon="-1.09800316393375396728515625">
        <ele>920.79998779296875</ele>
        <time>2021-09-25T11:46:54.000Z</time>
      </trkpt>
      <trkpt lat="40.37794995121657848358154296875" lon="-1.0977528803050518035888671875">
        <ele>922.5999755859375</ele>
        <time>2021-09-25T11:46:56.000Z</time>
      </trkpt>
      <trkpt lat="40.37792732007801532745361328125" lon="-1.09766914509236812591552734375">
        <ele>923.20001220703125</ele>
        <time>2021-09-25T11:46:58.000Z</time>
      </trkpt>
      <trkpt lat="40.377909131348133087158203125" lon="-1.09758364968001842498779296875">
        <ele>924.5999755859375</ele>
        <time>2021-09-25T11:46:59.000Z</time>
      </trkpt>
      <trkpt lat="40.3778955526649951934814453125" lon="-1.0974990762770175933837890625">
        <ele>926</ele>
        <time>2021-09-25T11:47:00.000Z</time>
      </trkpt>
      <trkpt lat="40.3778720833361148834228515625" lon="-1.0973306000232696533203125">
        <ele>927.5999755859375</ele>
        <time>2021-09-25T11:47:02.000Z</time>
      </trkpt>
      <trkpt lat="40.37785607390105724334716796875" lon="-1.09716589562594890594482421875">
        <ele>929</ele>
        <time>2021-09-25T11:47:04.000Z</time>
      </trkpt>
      <trkpt lat="40.37785221822559833526611328125" lon="-1.09708375297486782073974609375">
        <ele>929.5999755859375</ele>
        <time>2021-09-25T11:47:05.000Z</time>
      </trkpt>
      <trkpt lat="40.37785070948302745819091796875" lon="-1.09700093977153301239013671875">
        <ele>930</ele>
        <time>2021-09-25T11:47:06.000Z</time>
      </trkpt>
      <trkpt lat="40.37785314023494720458984375" lon="-1.0969170369207859039306640625">
        <ele>929.79998779296875</ele>
        <time>2021-09-25T11:47:07.000Z</time>
      </trkpt>
      <trkpt lat="40.37785724736750125885009765625" lon="-1.0968322120606899261474609375">
        <ele>929.5999755859375</ele>
        <time>2021-09-25T11:47:08.000Z</time>
      </trkpt>
      <trkpt lat="40.37786009721457958221435546875" lon="-1.09666918404400348663330078125">
        <ele>929</ele>
        <time>2021-09-25T11:47:10.000Z</time>
      </trkpt>
      <trkpt lat="40.377860851585865020751953125" lon="-1.0966025479137897491455078125">
        <ele>928.5999755859375</ele>
        <time>2021-09-25T11:47:11.000Z</time>
      </trkpt>
      <trkpt lat="40.37786629982292652130126953125" lon="-1.0965465568006038665771484375">
        <ele>928.4000244140625</ele>
        <time>2021-09-25T11:47:12.000Z</time>
      </trkpt>
      <trkpt lat="40.377884320914745330810546875" lon="-1.0964362509548664093017578125">
        <ele>928.20001220703125</ele>
        <time>2021-09-25T11:47:14.000Z</time>
      </trkpt>
      <trkpt lat="40.377909131348133087158203125" lon="-1.09631747938692569732666015625">
        <ele>928.20001220703125</ele>
        <time>2021-09-25T11:47:16.000Z</time>
      </trkpt>
      <trkpt lat="40.37794458679854869842529296875" lon="-1.096197031438350677490234375">
        <ele>928.4000244140625</ele>
        <time>2021-09-25T11:47:18.000Z</time>
      </trkpt>
      <trkpt lat="40.37797476164996623992919921875" lon="-1.09606887213885784149169921875">
        <ele>928</ele>
        <time>2021-09-25T11:47:20.000Z</time>
      </trkpt>
      <trkpt lat="40.37800745107233524322509765625" lon="-1.09593962319195270538330078125">
        <ele>927.5999755859375</ele>
        <time>2021-09-25T11:47:22.000Z</time>
      </trkpt>
      <trkpt lat="40.37802773527801036834716796875" lon="-1.09587558545172214508056640625">
        <ele>927</ele>
        <time>2021-09-25T11:47:23.000Z</time>
      </trkpt>
      <trkpt lat="40.37805028259754180908203125" lon="-1.09581825323402881622314453125">
        <ele>926.5999755859375</ele>
        <time>2021-09-25T11:47:24.000Z</time>
      </trkpt>
      <trkpt lat="40.37810183130204677581787109375" lon="-1.09570308588445186614990234375">
        <ele>926</ele>
        <time>2021-09-25T11:47:26.000Z</time>
      </trkpt>
      <trkpt lat="40.378146506845951080322265625" lon="-1.09559261240065097808837890625">
        <ele>924.79998779296875</ele>
        <time>2021-09-25T11:47:28.000Z</time>
      </trkpt>
      <trkpt lat="40.37820006720721721649169921875" lon="-1.095486246049404144287109375">
        <ele>924.4000244140625</ele>
        <time>2021-09-25T11:47:30.000Z</time>
      </trkpt>
      <trkpt lat="40.37824449129402637481689453125" lon="-1.0953819751739501953125">
        <ele>923.79998779296875</ele>
        <time>2021-09-25T11:47:32.000Z</time>
      </trkpt>
      <trkpt lat="40.37829034030437469482421875" lon="-1.09529002569615840911865234375">
        <ele>923</ele>
        <time>2021-09-25T11:47:34.000Z</time>
      </trkpt>
      <trkpt lat="40.37833082489669322967529296875" lon="-1.09520335681736469268798828125">
        <ele>922.4000244140625</ele>
        <time>2021-09-25T11:47:36.000Z</time>
      </trkpt>
      <trkpt lat="40.37837139330804347991943359375" lon="-1.09511442482471466064453125">
        <ele>921.79998779296875</ele>
        <time>2021-09-25T11:47:38.000Z</time>
      </trkpt>
      <trkpt lat="40.37841330282390117645263671875" lon="-1.09503001905977725982666015625">
        <ele>921.5999755859375</ele>
        <time>2021-09-25T11:47:40.000Z</time>
      </trkpt>
      <trkpt lat="40.37844917736947536468505859375" lon="-1.09495122916996479034423828125">
        <ele>921.5999755859375</ele>
        <time>2021-09-25T11:47:42.000Z</time>
      </trkpt>
      <trkpt lat="40.3784869797527790069580078125" lon="-1.09488702379167079925537109375">
        <ele>921.5999755859375</ele>
        <time>2021-09-25T11:47:44.000Z</time>
      </trkpt>
      <trkpt lat="40.37852310575544834136962890625" lon="-1.094820387661457061767578125">
        <ele>922</ele>
        <time>2021-09-25T11:47:46.000Z</time>
      </trkpt>
      <trkpt lat="40.3785506822168827056884765625" lon="-1.09475257806479930877685546875">
        <ele>922.20001220703125</ele>
        <time>2021-09-25T11:47:48.000Z</time>
      </trkpt>
      <trkpt lat="40.3785805217921733856201171875" lon="-1.09469038434326648712158203125">
        <ele>922.4000244140625</ele>
        <time>2021-09-25T11:47:50.000Z</time>
      </trkpt>
      <trkpt lat="40.378605164587497711181640625" lon="-1.09463020227849483489990234375">
        <ele>922.4000244140625</ele>
        <time>2021-09-25T11:47:52.000Z</time>
      </trkpt>
      <trkpt lat="40.37861530669033527374267578125" lon="-1.09460287727415561676025390625">
        <ele>922.4000244140625</ele>
        <time>2021-09-25T11:47:53.000Z</time>
      </trkpt>
      <trkpt lat="40.37862855009734630584716796875" lon="-1.0945737920701503753662109375">
        <ele>922.4000244140625</ele>
        <time>2021-09-25T11:47:54.000Z</time>
      </trkpt>
      <trkpt lat="40.378661490976810455322265625" lon="-1.09451956115663051605224609375">
        <ele>922.5999755859375</ele>
        <time>2021-09-25T11:47:56.000Z</time>
      </trkpt>
      <trkpt lat="40.37869476713240146636962890625" lon="-1.0944732092320919036865234375">
        <ele>922.79998779296875</ele>
        <time>2021-09-25T11:47:58.000Z</time>
      </trkpt>
      <trkpt lat="40.378725863993167877197265625" lon="-1.0944163799285888671875">
        <ele>923</ele>
        <time>2021-09-25T11:47:59.000Z</time>
      </trkpt>
      <trkpt lat="40.378725863993167877197265625" lon="-1.0944163799285888671875">
        <ele>923</ele>
        <time>2021-09-25T11:48:00.000Z</time>
      </trkpt>
      <trkpt lat="40.3787510097026824951171875" lon="-1.0943582095205783843994140625">
        <ele>923</ele>
        <time>2021-09-25T11:48:02.000Z</time>
      </trkpt>
      <trkpt lat="40.37877506576478481292724609375" lon="-1.094298027455806732177734375">
        <ele>922.79998779296875</ele>
        <time>2021-09-25T11:48:04.000Z</time>
      </trkpt>
      <trkpt lat="40.37879467941820621490478515625" lon="-1.09426843933761119842529296875">
        <ele>922.79998779296875</ele>
        <time>2021-09-25T11:48:05.000Z</time>
      </trkpt>
      <trkpt lat="40.37881479598581790924072265625" lon="-1.09423859976232051849365234375">
        <ele>922.79998779296875</ele>
        <time>2021-09-25T11:48:06.000Z</time>
      </trkpt>
      <trkpt lat="40.37884077988564968109130859375" lon="-1.09417791478335857391357421875">
        <ele>922.79998779296875</ele>
        <time>2021-09-25T11:48:08.000Z</time>
      </trkpt>
      <trkpt lat="40.37886626087129116058349609375" lon="-1.0941255278885364532470703125">
        <ele>922.5999755859375</ele>
        <time>2021-09-25T11:48:10.000Z</time>
      </trkpt>
      <trkpt lat="40.37889258004724979400634765625" lon="-1.094064004719257354736328125">
        <ele>922.5999755859375</ele>
        <time>2021-09-25T11:48:12.000Z</time>
      </trkpt>
      <trkpt lat="40.37891806103289127349853515625" lon="-1.09400172717869281768798828125">
        <ele>922.20001220703125</ele>
        <time>2021-09-25T11:48:14.000Z</time>
      </trkpt>
      <trkpt lat="40.378951840102672576904296875" lon="-1.093943305313587188720703125">
        <ele>922</ele>
        <time>2021-09-25T11:48:16.000Z</time>
      </trkpt>
      <trkpt lat="40.37896349094808101654052734375" lon="-1.093913801014423370361328125">
        <ele>921.79998779296875</ele>
        <time>2021-09-25T11:48:17.000Z</time>
      </trkpt>
      <trkpt lat="40.37897639907896518707275390625" lon="-1.09388329088687896728515625">
        <ele>921.79998779296875</ele>
        <time>2021-09-25T11:48:18.000Z</time>
      </trkpt>
      <trkpt lat="40.379000119864940643310546875" lon="-1.09381623566150665283203125">
        <ele>921.5999755859375</ele>
        <time>2021-09-25T11:48:20.000Z</time>
      </trkpt>
      <trkpt lat="40.37902903743088245391845703125" lon="-1.09375379048287868499755859375">
        <ele>921.5999755859375</ele>
        <time>2021-09-25T11:48:22.000Z</time>
      </trkpt>
      <trkpt lat="40.37905870936810970306396484375" lon="-1.09368589706718921661376953125">
        <ele>921.79998779296875</ele>
        <time>2021-09-25T11:48:24.000Z</time>
      </trkpt>
      <trkpt lat="40.37909642793238162994384765625" lon="-1.0936095379292964935302734375">
        <ele>921.79998779296875</ele>
        <time>2021-09-25T11:48:26.000Z</time>
      </trkpt>
      <trkpt lat="40.37912878207862377166748046875" lon="-1.0935277305543422698974609375">
        <ele>922</ele>
        <time>2021-09-25T11:48:28.000Z</time>
      </trkpt>
      <trkpt lat="40.37916633300483226776123046875" lon="-1.09344684518873691558837890625">
        <ele>921.79998779296875</ele>
        <time>2021-09-25T11:48:30.000Z</time>
      </trkpt>
      <trkpt lat="40.379188545048236846923828125" lon="-1.09340057708323001861572265625">
        <ele>921.5999755859375</ele>
        <time>2021-09-25T11:48:31.000Z</time>
      </trkpt>
      <trkpt lat="40.37921410985291004180908203125" lon="-1.093353219330310821533203125">
        <ele>921.5999755859375</ele>
        <time>2021-09-25T11:48:32.000Z</time>
      </trkpt>
      <trkpt lat="40.3792752139270305633544921875" lon="-1.0932487808167934417724609375">
        <ele>921.20001220703125</ele>
        <time>2021-09-25T11:48:34.000Z</time>
      </trkpt>
      <trkpt lat="40.37933682091534137725830078125" lon="-1.0931436717510223388671875">
        <ele>920.5999755859375</ele>
        <time>2021-09-25T11:48:36.000Z</time>
      </trkpt>
      <trkpt lat="40.3793989308178424835205078125" lon="-1.0930497944355010986328125">
        <ele>920</ele>
        <time>2021-09-25T11:48:38.000Z</time>
      </trkpt>
      <trkpt lat="40.37945953197777271270751953125" lon="-1.09296756796538829803466796875">
        <ele>919.79998779296875</ele>
        <time>2021-09-25T11:48:40.000Z</time>
      </trkpt>
      <trkpt lat="40.37951401434838771820068359375" lon="-1.09287637285888195037841796875">
        <ele>919</ele>
        <time>2021-09-25T11:48:42.000Z</time>
      </trkpt>
      <trkpt lat="40.379562713205814361572265625" lon="-1.09276883304119110107421875">
        <ele>917.5999755859375</ele>
        <time>2021-09-25T11:48:44.000Z</time>
      </trkpt>
      <trkpt lat="40.37962029688060283660888671875" lon="-1.09265777282416820526123046875">
        <ele>916.5999755859375</ele>
        <time>2021-09-25T11:48:46.000Z</time>
      </trkpt>
      <trkpt lat="40.37968031130731105804443359375" lon="-1.09255283139646053314208984375">
        <ele>915.79998779296875</ele>
        <time>2021-09-25T11:48:48.000Z</time>
      </trkpt>
      <trkpt lat="40.37973739206790924072265625" lon="-1.092443279922008514404296875">
        <ele>914.4000244140625</ele>
        <time>2021-09-25T11:48:50.000Z</time>
      </trkpt>
      <trkpt lat="40.37979631684720516204833984375" lon="-1.09232920221984386444091796875">
        <ele>913.4000244140625</ele>
        <time>2021-09-25T11:48:52.000Z</time>
      </trkpt>
      <trkpt lat="40.37985398434102535247802734375" lon="-1.09221118502318859100341796875">
        <ele>912.79998779296875</ele>
        <time>2021-09-25T11:48:54.000Z</time>
      </trkpt>
      <trkpt lat="40.379915423691272735595703125" lon="-1.09209015034139156341552734375">
        <ele>912</ele>
        <time>2021-09-25T11:48:56.000Z</time>
      </trkpt>
      <trkpt lat="40.37998155690729618072509765625" lon="-1.0919636674225330352783203125">
        <ele>912</ele>
        <time>2021-09-25T11:48:58.000Z</time>
      </trkpt>
      <trkpt lat="40.380036793649196624755859375" lon="-1.0918258689343929290771484375">
        <ele>912</ele>
        <time>2021-09-25T11:49:00.000Z</time>
      </trkpt>
      <trkpt lat="40.38011248223483562469482421875" lon="-1.09162327833473682403564453125">
        <ele>913</ele>
        <time>2021-09-25T11:49:02.000Z</time>
      </trkpt>
      <trkpt lat="40.38011248223483562469482421875" lon="-1.09162327833473682403564453125">
        <ele>913</ele>
        <time>2021-09-25T11:49:03.000Z</time>
      </trkpt>
      <trkpt lat="40.38015120662748813629150390625" lon="-1.0914832167327404022216796875">
        <ele>913.4000244140625</ele>
        <time>2021-09-25T11:49:04.000Z</time>
      </trkpt>
      <trkpt lat="40.3801680542528629302978515625" lon="-1.09141121618449687957763671875">
        <ele>913.4000244140625</ele>
        <time>2021-09-25T11:49:06.000Z</time>
      </trkpt>
      <trkpt lat="40.38021440617740154266357421875" lon="-1.09120485372841358184814453125">
        <ele>914</ele>
        <time>2021-09-25T11:49:08.000Z</time>
      </trkpt>
      <trkpt lat="40.38022781722247600555419921875" lon="-1.09114098362624645233154296875">
        <ele>914.4000244140625</ele>
        <time>2021-09-25T11:49:09.000Z</time>
      </trkpt>
      <trkpt lat="40.3802394680678844451904296875" lon="-1.091076694428920745849609375">
        <ele>914.5999755859375</ele>
        <time>2021-09-25T11:49:10.000Z</time>
      </trkpt>
      <trkpt lat="40.3802485205233097076416015625" lon="-1.0909404046833515167236328125">
        <ele>915.20001220703125</ele>
        <time>2021-09-25T11:49:12.000Z</time>
      </trkpt>
      <trkpt lat="40.3802575729787349700927734375" lon="-1.0908140055835247039794921875">
        <ele>915.79998779296875</ele>
        <time>2021-09-25T11:49:14.000Z</time>
      </trkpt>
      <trkpt lat="40.3802619315683841705322265625" lon="-1.09069355763494968414306640625">
        <ele>916.20001220703125</ele>
        <time>2021-09-25T11:49:16.000Z</time>
      </trkpt>
      <trkpt lat="40.38026168011128902435302734375" lon="-1.09063689596951007843017578125">
        <ele>916.5999755859375</ele>
        <time>2021-09-25T11:49:18.000Z</time>
      </trkpt>
      <trkpt lat="40.380256064236164093017578125" lon="-1.09053296037018299102783203125">
        <ele>917.4000244140625</ele>
        <time>2021-09-25T11:49:19.000Z</time>
      </trkpt>
      <trkpt lat="40.380243994295597076416015625" lon="-1.09049038030207157135009765625">
        <ele>917.5999755859375</ele>
        <time>2021-09-25T11:49:20.000Z</time>
      </trkpt>
      <trkpt lat="40.38020552136003971099853515625" lon="-1.090430952608585357666015625">
        <ele>918</ele>
        <time>2021-09-25T11:49:22.000Z</time>
      </trkpt>
      <trkpt lat="40.38017635233700275421142578125" lon="-1.09041460789740085601806640625">
        <ele>918</ele>
        <time>2021-09-25T11:49:23.000Z</time>
      </trkpt>
      <trkpt lat="40.38017635233700275421142578125" lon="-1.09041460789740085601806640625">
        <ele>918</ele>
        <time>2021-09-25T11:49:24.000Z</time>
      </trkpt>
      <trkpt lat="40.38006135262548923492431640625" lon="-1.09040522016584873199462890625">
        <ele>917.5999755859375</ele>
        <time>2021-09-25T11:49:26.000Z</time>
      </trkpt>
      <trkpt lat="40.3800223767757415771484375" lon="-1.09041276387870311737060546875">
        <ele>917.4000244140625</ele>
        <time>2021-09-25T11:49:27.000Z</time>
      </trkpt>
      <trkpt lat="40.37998122163116931915283203125" lon="-1.0904327966272830963134765625">
        <ele>917.20001220703125</ele>
        <time>2021-09-25T11:49:28.000Z</time>
      </trkpt>
      <trkpt lat="40.3798964805901050567626953125" lon="-1.09051837585866451263427734375">
        <ele>916.20001220703125</ele>
        <time>2021-09-25T11:49:30.000Z</time>
      </trkpt>
      <trkpt lat="40.379863120615482330322265625" lon="-1.09058358706533908843994140625">
        <ele>915.4000244140625</ele>
        <time>2021-09-25T11:49:31.000Z</time>
      </trkpt>
      <trkpt lat="40.3798337839543819427490234375" lon="-1.09065768308937549591064453125">
        <ele>914.5999755859375</ele>
        <time>2021-09-25T11:49:32.000Z</time>
      </trkpt>
      <trkpt lat="40.37977754138410091400146484375" lon="-1.090821884572505950927734375">
        <ele>913.5999755859375</ele>
        <time>2021-09-25T11:49:34.000Z</time>
      </trkpt>
      <trkpt lat="40.37974954582750797271728515625" lon="-1.09090075828135013580322265625">
        <ele>913.4000244140625</ele>
        <time>2021-09-25T11:49:35.000Z</time>
      </trkpt>
      <trkpt lat="40.37971937097609043121337890625" lon="-1.090972423553466796875">
        <ele>913</ele>
        <time>2021-09-25T11:49:36.000Z</time>
      </trkpt>
      <trkpt lat="40.37965365685522556304931640625" lon="-1.09109580516815185546875">
        <ele>912.5999755859375</ele>
        <time>2021-09-25T11:49:38.000Z</time>
      </trkpt>
      <trkpt lat="40.37956665270030498504638671875" lon="-1.091179959475994110107421875">
        <ele>912.5999755859375</ele>
        <time>2021-09-25T11:49:40.000Z</time>
      </trkpt>
      <trkpt lat="40.379511415958404541015625" lon="-1.09119311906397342681884765625">
        <ele>912.79998779296875</ele>
        <time>2021-09-25T11:49:41.000Z</time>
      </trkpt>
      <trkpt lat="40.37945307791233062744140625" lon="-1.0911844857037067413330078125">
        <ele>913.20001220703125</ele>
        <time>2021-09-25T11:49:42.000Z</time>
      </trkpt>
      <trkpt lat="40.37939482368528842926025390625" lon="-1.09116545878350734710693359375">
        <ele>913.4000244140625</ele>
        <time>2021-09-25T11:49:43.000Z</time>
      </trkpt>
      <trkpt lat="40.3793358989059925079345703125" lon="-1.0911320149898529052734375">
        <ele>913.79998779296875</ele>
        <time>2021-09-25T11:49:44.000Z</time>
      </trkpt>
      <trkpt lat="40.37922701798379421234130859375" lon="-1.0910396464169025421142578125">
        <ele>914.5999755859375</ele>
        <time>2021-09-25T11:49:46.000Z</time>
      </trkpt>
      <trkpt lat="40.379182510077953338623046875" lon="-1.09097317792475223541259765625">
        <ele>915</ele>
        <time>2021-09-25T11:49:47.000Z</time>
      </trkpt>
      <trkpt lat="40.379145629703998565673828125" lon="-1.09089841134846210479736328125">
        <ele>914.5999755859375</ele>
        <time>2021-09-25T11:49:48.000Z</time>
      </trkpt>
      <trkpt lat="40.3791159577667713165283203125" lon="-1.09082498587667942047119140625">
        <ele>914.4000244140625</ele>
        <time>2021-09-25T11:49:49.000Z</time>
      </trkpt>
      <trkpt lat="40.3791010379791259765625" lon="-1.09075139276683330535888671875">
        <ele>914</ele>
        <time>2021-09-25T11:49:50.000Z</time>
      </trkpt>
      <trkpt lat="40.3791010379791259765625" lon="-1.09075139276683330535888671875">
        <ele>914</ele>
        <time>2021-09-25T11:49:51.000Z</time>
      </trkpt>
      <trkpt lat="40.3790881298482418060302734375" lon="-1.09061091206967830657958984375">
        <ele>914</ele>
        <time>2021-09-25T11:49:52.000Z</time>
      </trkpt>
      <trkpt lat="40.37911436520516872406005859375" lon="-1.09048669226467609405517578125">
        <ele>914</ele>
        <time>2021-09-25T11:49:54.000Z</time>
      </trkpt>
      <trkpt lat="40.37917035631835460662841796875" lon="-1.090358197689056396484375">
        <ele>914.20001220703125</ele>
        <time>2021-09-25T11:49:56.000Z</time>
      </trkpt>
      <trkpt lat="40.37924512289464473724365234375" lon="-1.0902329720556735992431640625">
        <ele>914.4000244140625</ele>
        <time>2021-09-25T11:49:58.000Z</time>
      </trkpt>
      <trkpt lat="40.37927605211734771728515625" lon="-1.09017672948539257049560546875">
        <ele>914.5999755859375</ele>
        <time>2021-09-25T11:49:59.000Z</time>
      </trkpt>
      <trkpt lat="40.37930019199848175048828125" lon="-1.09012224711477756500244140625">
        <ele>914.4000244140625</ele>
        <time>2021-09-25T11:50:00.000Z</time>
      </trkpt>
      <trkpt lat="40.3793305344879627227783203125" lon="-1.09000624157488346099853515625">
        <ele>914.20001220703125</ele>
        <time>2021-09-25T11:50:02.000Z</time>
      </trkpt>
      <trkpt lat="40.3793486393988132476806640625" lon="-1.089887134730815887451171875">
        <ele>914.20001220703125</ele>
        <time>2021-09-25T11:50:04.000Z</time>
      </trkpt>
      <trkpt lat="40.3793429397046566009521484375" lon="-1.08973869122564792633056640625">
        <ele>914.79998779296875</ele>
        <time>2021-09-25T11:50:06.000Z</time>
      </trkpt>
      <trkpt lat="40.379345454275608062744140625" lon="-1.0896700434386730194091796875">
        <ele>915</ele>
        <time>2021-09-25T11:50:07.000Z</time>
      </trkpt>
      <trkpt lat="40.3793545067310333251953125" lon="-1.08961245976388454437255859375">
        <ele>915.20001220703125</ele>
        <time>2021-09-25T11:50:08.000Z</time>
      </trkpt>
      <trkpt lat="40.3793563507497310638427734375" lon="-1.0895111225545406341552734375">
        <ele>915.79998779296875</ele>
        <time>2021-09-25T11:50:10.000Z</time>
      </trkpt>
      <trkpt lat="40.3793449513614177703857421875" lon="-1.089456975460052490234375">
        <ele>916.4000244140625</ele>
        <time>2021-09-25T11:50:11.000Z</time>
      </trkpt>
      <trkpt lat="40.37933447398245334625244140625" lon="-1.08940777368843555450439453125">
        <ele>916.79998779296875</ele>
        <time>2021-09-25T11:50:12.000Z</time>
      </trkpt>
      <trkpt lat="40.37931603379547595977783203125" lon="-1.089321188628673553466796875">
        <ele>917.4000244140625</ele>
        <time>2021-09-25T11:50:14.000Z</time>
      </trkpt>
      <trkpt lat="40.379298515617847442626953125" lon="-1.089248098433017730712890625">
        <ele>918</ele>
        <time>2021-09-25T11:50:16.000Z</time>
      </trkpt>
      <trkpt lat="40.37927797995507717132568359375" lon="-1.08917961828410625457763671875">
        <ele>918.5999755859375</ele>
        <time>2021-09-25T11:50:18.000Z</time>
      </trkpt>
      <trkpt lat="40.379253588616847991943359375" lon="-1.08911088667809963226318359375">
        <ele>919.20001220703125</ele>
        <time>2021-09-25T11:50:20.000Z</time>
      </trkpt>
      <trkpt lat="40.37923355586826801300048828125" lon="-1.08905204571783542633056640625">
        <ele>919.5999755859375</ele>
        <time>2021-09-25T11:50:22.000Z</time>
      </trkpt>
      <trkpt lat="40.3792168758809566497802734375" lon="-1.08899421058595180511474609375">
        <ele>920.20001220703125</ele>
        <time>2021-09-25T11:50:24.000Z</time>
      </trkpt>
      <trkpt lat="40.3792031295597553253173828125" lon="-1.0889357887208461761474609375">
        <ele>920.5999755859375</ele>
        <time>2021-09-25T11:50:26.000Z</time>
      </trkpt>
      <trkpt lat="40.3791820071637630462646484375" lon="-1.0888834856450557708740234375">
        <ele>921</ele>
        <time>2021-09-25T11:50:28.000Z</time>
      </trkpt>
      <trkpt lat="40.37916742265224456787109375" lon="-1.08885574154555797576904296875">
        <ele>921.20001220703125</ele>
        <time>2021-09-25T11:50:29.000Z</time>
      </trkpt>
      <trkpt lat="40.379148982465267181396484375" lon="-1.088825650513172149658203125">
        <ele>921.5999755859375</ele>
        <time>2021-09-25T11:50:30.000Z</time>
      </trkpt>
      <trkpt lat="40.37911620922386646270751953125" lon="-1.0887701623141765594482421875">
        <ele>922</ele>
        <time>2021-09-25T11:50:32.000Z</time>
      </trkpt>
      <trkpt lat="40.3790871240198612213134765625" lon="-1.08872137963771820068359375">
        <ele>922.4000244140625</ele>
        <time>2021-09-25T11:50:34.000Z</time>
      </trkpt>
      <trkpt lat="40.37907220423221588134765625" lon="-1.08870126307010650634765625">
        <ele>922.4000244140625</ele>
        <time>2021-09-25T11:50:35.000Z</time>
      </trkpt>
      <trkpt lat="40.3790636546909809112548828125" lon="-1.08868114650249481201171875">
        <ele>922.5999755859375</ele>
        <time>2021-09-25T11:50:36.000Z</time>
      </trkpt>
      <trkpt lat="40.3790438733994960784912109375" lon="-1.08864552341401576995849609375">
        <ele>922.79998779296875</ele>
        <time>2021-09-25T11:50:38.000Z</time>
      </trkpt>
      <trkpt lat="40.37902400828897953033447265625" lon="-1.0886088944971561431884765625">
        <ele>923</ele>
        <time>2021-09-25T11:50:40.000Z</time>
      </trkpt>
      <trkpt lat="40.3790143691003322601318359375" lon="-1.08859456144273281097412109375">
        <ele>923</ele>
        <time>2021-09-25T11:50:41.000Z</time>
      </trkpt>
      <trkpt lat="40.37899978458881378173828125" lon="-1.08858014456927776336669921875">
        <ele>923.20001220703125</ele>
        <time>2021-09-25T11:50:42.000Z</time>
      </trkpt>
      <trkpt lat="40.37898461334407329559326171875" lon="-1.08856254257261753082275390625">
        <ele>923.20001220703125</ele>
        <time>2021-09-25T11:50:44.000Z</time>
      </trkpt>
      <trkpt lat="40.37894471548497676849365234375" lon="-1.0885223932564258575439453125">
        <ele>923.5999755859375</ele>
        <time>2021-09-25T11:50:46.000Z</time>
      </trkpt>
      <trkpt lat="40.37893113680183887481689453125" lon="-1.08851141296327114105224609375">
        <ele>923.5999755859375</ele>
        <time>2021-09-25T11:50:47.000Z</time>
      </trkpt>
      <trkpt lat="40.37891638465225696563720703125" lon="-1.08850453980267047882080078125">
        <ele>923.79998779296875</ele>
        <time>2021-09-25T11:50:48.000Z</time>
      </trkpt>
      <trkpt lat="40.37889207713305950164794921875" lon="-1.088491044938564300537109375">
        <ele>924</ele>
        <time>2021-09-25T11:50:50.000Z</time>
      </trkpt>
      <trkpt lat="40.37887045182287693023681640625" lon="-1.08845726586878299713134765625">
        <ele>924.20001220703125</ele>
        <time>2021-09-25T11:50:52.000Z</time>
      </trkpt>
      <trkpt lat="40.37885670550167560577392578125" lon="-1.08844687230885028839111328125">
        <ele>924.4000244140625</ele>
        <time>2021-09-25T11:50:53.000Z</time>
      </trkpt>
      <trkpt lat="40.37884262390434741973876953125" lon="-1.08843564055860042572021484375">
        <ele>924.4000244140625</ele>
        <time>2021-09-25T11:50:54.000Z</time>
      </trkpt>
      <trkpt lat="40.37882150150835514068603515625" lon="-1.08840714208781719207763671875">
        <ele>924.5999755859375</ele>
        <time>2021-09-25T11:50:56.000Z</time>
      </trkpt>
      <trkpt lat="40.3787991218268871307373046875" lon="-1.08838744461536407470703125">
        <ele>924.79998779296875</ele>
        <time>2021-09-25T11:50:58.000Z</time>
      </trkpt>
      <trkpt lat="40.3787870518863201141357421875" lon="-1.08837629668414592742919921875">
        <ele>924.79998779296875</ele>
        <time>2021-09-25T11:50:59.000Z</time>
      </trkpt>
      <trkpt lat="40.378772802650928497314453125" lon="-1.08836841769516468048095703125">
        <ele>925</ele>
        <time>2021-09-25T11:51:00.000Z</time>
      </trkpt>
      <trkpt lat="40.378736592829227447509765625" lon="-1.08834721148014068603515625">
        <ele>925</ele>
        <time>2021-09-25T11:51:02.000Z</time>
      </trkpt>
      <trkpt lat="40.3786973655223846435546875" lon="-1.08832969330251216888427734375">
        <ele>925.20001220703125</ele>
        <time>2021-09-25T11:51:04.000Z</time>
      </trkpt>
      <trkpt lat="40.37866174243390560150146484375" lon="-1.0883279331028461456298828125">
        <ele>925.20001220703125</ele>
        <time>2021-09-25T11:51:06.000Z</time>
      </trkpt>
      <trkpt lat="40.37864129059016704559326171875" lon="-1.088324747979640960693359375">
        <ele>925.20001220703125</ele>
        <time>2021-09-25T11:51:07.000Z</time>
      </trkpt>
      <trkpt lat="40.3786207549273967742919921875" lon="-1.08832298777997493743896484375">
        <ele>925.20001220703125</ele>
        <time>2021-09-25T11:51:08.000Z</time>
      </trkpt>
      <trkpt lat="40.3785818628966808319091796875" lon="-1.08832315541803836822509765625">
        <ele>925.20001220703125</ele>
        <time>2021-09-25T11:51:10.000Z</time>
      </trkpt>
      <trkpt lat="40.37853970192372798919677734375" lon="-1.0883237421512603759765625">
        <ele>925.20001220703125</ele>
        <time>2021-09-25T11:51:12.000Z</time>
      </trkpt>
      <trkpt lat="40.37849829532206058502197265625" lon="-1.08832265250384807586669921875">
        <ele>925.20001220703125</ele>
        <time>2021-09-25T11:51:14.000Z</time>
      </trkpt>
      <trkpt lat="40.37847801111638545989990234375" lon="-1.08832466416060924530029296875">
        <ele>925.20001220703125</ele>
        <time>2021-09-25T11:51:15.000Z</time>
      </trkpt>
      <trkpt lat="40.3784571401774883270263671875" lon="-1.08832583762705326080322265625">
        <ele>925.20001220703125</ele>
        <time>2021-09-25T11:51:16.000Z</time>
      </trkpt>
      <trkpt lat="40.37841900251805782318115234375" lon="-1.08832298777997493743896484375">
        <ele>925.20001220703125</ele>
        <time>2021-09-25T11:51:18.000Z</time>
      </trkpt>
      <trkpt lat="40.37837675772607326507568359375" lon="-1.08831846155226230621337890625">
        <ele>925.20001220703125</ele>
        <time>2021-09-25T11:51:20.000Z</time>
      </trkpt>
      <trkpt lat="40.37833401001989841461181640625" lon="-1.08831904828548431396484375">
        <ele>925.20001220703125</ele>
        <time>2021-09-25T11:51:22.000Z</time>
      </trkpt>
      <trkpt lat="40.37828941829502582550048828125" lon="-1.08832097612321376800537109375">
        <ele>925.4000244140625</ele>
        <time>2021-09-25T11:51:24.000Z</time>
      </trkpt>
      <trkpt lat="40.37824315018951892852783203125" lon="-1.088320724666118621826171875">
        <ele>925.4000244140625</ele>
        <time>2021-09-25T11:51:26.000Z</time>
      </trkpt>
      <trkpt lat="40.3781956247985363006591796875" lon="-1.08831661753356456756591796875">
        <ele>925.5999755859375</ele>
        <time>2021-09-25T11:51:28.000Z</time>
      </trkpt>
      <trkpt lat="40.37814809940755367279052734375" lon="-1.08832399360835552215576171875">
        <ele>925.79998779296875</ele>
        <time>2021-09-25T11:51:30.000Z</time>
      </trkpt>
      <trkpt lat="40.37812597118318080902099609375" lon="-1.08832349069416522979736328125">
        <ele>925.79998779296875</ele>
        <time>2021-09-25T11:51:31.000Z</time>
      </trkpt>
      <trkpt lat="40.378100909292697906494140625" lon="-1.08832466416060924530029296875">
        <ele>926</ele>
        <time>2021-09-25T11:51:32.000Z</time>
      </trkpt>
      <trkpt lat="40.37805103696882724761962890625" lon="-1.08832935802638530731201171875">
        <ele>926</ele>
        <time>2021-09-25T11:51:34.000Z</time>
      </trkpt>
      <trkpt lat="40.37800200283527374267578125" lon="-1.0883282683789730072021484375">
        <ele>926.4000244140625</ele>
        <time>2021-09-25T11:51:36.000Z</time>
      </trkpt>
      <trkpt lat="40.37798012606799602508544921875" lon="-1.08832617290318012237548828125">
        <ele>926.5999755859375</ele>
        <time>2021-09-25T11:51:37.000Z</time>
      </trkpt>
      <trkpt lat="40.377959422767162322998046875" lon="-1.08832449652254581451416015625">
        <ele>926.5999755859375</ele>
        <time>2021-09-25T11:51:38.000Z</time>
      </trkpt>
      <trkpt lat="40.37792145274579524993896484375" lon="-1.08832265250384807586669921875">
        <ele>927</ele>
        <time>2021-09-25T11:51:40.000Z</time>
      </trkpt>
      <trkpt lat="40.3778791241347789764404296875" lon="-1.08832717873156070709228515625">
        <ele>927.20001220703125</ele>
        <time>2021-09-25T11:51:42.000Z</time>
      </trkpt>
      <trkpt lat="40.3778362087905406951904296875" lon="-1.08832499943673610687255859375">
        <ele>927.5999755859375</ele>
        <time>2021-09-25T11:51:44.000Z</time>
      </trkpt>
      <trkpt lat="40.3777892701327800750732421875" lon="-1.08831678517162799835205078125">
        <ele>928</ele>
        <time>2021-09-25T11:51:46.000Z</time>
      </trkpt>
      <trkpt lat="40.37774208001792430877685546875" lon="-1.0883161984384059906005859375">
        <ele>928.4000244140625</ele>
        <time>2021-09-25T11:51:48.000Z</time>
      </trkpt>
      <trkpt lat="40.37769581191241741180419921875" lon="-1.08831443823873996734619140625">
        <ele>928.4000244140625</ele>
        <time>2021-09-25T11:51:50.000Z</time>
      </trkpt>
      <trkpt lat="40.37767200730741024017333984375" lon="-1.08831175602972507476806640625">
        <ele>928.4000244140625</ele>
        <time>2021-09-25T11:51:51.000Z</time>
      </trkpt>
      <trkpt lat="40.3776487894356250762939453125" lon="-1.0883145220577716827392578125">
        <ele>928.4000244140625</ele>
        <time>2021-09-25T11:51:52.000Z</time>
      </trkpt>
      <trkpt lat="40.3776028566062450408935546875" lon="-1.08831594698131084442138671875">
        <ele>928.4000244140625</ele>
        <time>2021-09-25T11:51:54.000Z</time>
      </trkpt>
      <trkpt lat="40.3775508888065814971923828125" lon="-1.08831577934324741363525390625">
        <ele>928.4000244140625</ele>
        <time>2021-09-25T11:51:56.000Z</time>
      </trkpt>
      <trkpt lat="40.37750051356852054595947265625" lon="-1.08831326477229595184326171875">
        <ele>928.4000244140625</ele>
        <time>2021-09-25T11:51:58.000Z</time>
      </trkpt>
      <trkpt lat="40.37747402675449848175048828125" lon="-1.088313348591327667236328125">
        <ele>928.4000244140625</ele>
        <time>2021-09-25T11:51:59.000Z</time>
      </trkpt>
      <trkpt lat="40.37744770757853984832763671875" lon="-1.08831075020134449005126953125">
        <ele>928.20001220703125</ele>
        <time>2021-09-25T11:52:00.000Z</time>
      </trkpt>
      <trkpt lat="40.3773946501314640045166015625" lon="-1.08831041492521762847900390625">
        <ele>927.5999755859375</ele>
        <time>2021-09-25T11:52:02.000Z</time>
      </trkpt>
      <trkpt lat="40.377338826656341552734375" lon="-1.08830823563039302825927734375">
        <ele>927.4000244140625</ele>
        <time>2021-09-25T11:52:04.000Z</time>
      </trkpt>
      <trkpt lat="40.37728224880993366241455078125" lon="-1.08830018900334835052490234375">
        <ele>927.5999755859375</ele>
        <time>2021-09-25T11:52:06.000Z</time>
      </trkpt>
      <trkpt lat="40.37722625769674777984619140625" lon="-1.08829147182404994964599609375">
        <ele>927.5999755859375</ele>
        <time>2021-09-25T11:52:08.000Z</time>
      </trkpt>
      <trkpt lat="40.3771666623651981353759765625" lon="-1.08827956952154636383056640625">
        <ele>927.5999755859375</ele>
        <time>2021-09-25T11:52:10.000Z</time>
      </trkpt>
      <trkpt lat="40.37710723467171192169189453125" lon="-1.08826942741870880126953125">
        <ele>927.4000244140625</ele>
        <time>2021-09-25T11:52:12.000Z</time>
      </trkpt>
      <trkpt lat="40.37707638926804065704345703125" lon="-1.08826817013323307037353515625">
        <ele>927.20001220703125</ele>
        <time>2021-09-25T11:52:13.000Z</time>
      </trkpt>
      <trkpt lat="40.3770479746162891387939453125" lon="-1.088265068829059600830078125">
        <ele>927</ele>
        <time>2021-09-25T11:52:14.000Z</time>
      </trkpt>
      <trkpt lat="40.37698787637054920196533203125" lon="-1.08825065195560455322265625">
        <ele>926.79998779296875</ele>
        <time>2021-09-25T11:52:16.000Z</time>
      </trkpt>
      <trkpt lat="40.3769198991358280181884765625" lon="-1.0882151126861572265625">
        <ele>927.20001220703125</ele>
        <time>2021-09-25T11:52:18.000Z</time>
      </trkpt>
      <trkpt lat="40.3768820129334926605224609375" lon="-1.08819591812789440155029296875">
        <ele>927.20001220703125</ele>
        <time>2021-09-25T11:52:19.000Z</time>
      </trkpt>
      <trkpt lat="40.3768434561789035797119140625" lon="-1.088180243968963623046875">
        <ele>927.20001220703125</ele>
        <time>2021-09-25T11:52:20.000Z</time>
      </trkpt>
      <trkpt lat="40.37677363492548465728759765625" lon="-1.08815141022205352783203125">
        <ele>927</ele>
        <time>2021-09-25T11:52:22.000Z</time>
      </trkpt>
      <trkpt lat="40.3767113573849201202392578125" lon="-1.08812014572322368621826171875">
        <ele>927</ele>
        <time>2021-09-25T11:52:24.000Z</time>
      </trkpt>
      <trkpt lat="40.3766815178096294403076171875" lon="-1.08810187317430973052978515625">
        <ele>926.79998779296875</ele>
        <time>2021-09-25T11:52:25.000Z</time>
      </trkpt>
      <trkpt lat="40.3766533546149730682373046875" lon="-1.0880821757018566131591796875">
        <ele>926.79998779296875</ele>
        <time>2021-09-25T11:52:26.000Z</time>
      </trkpt>
      <trkpt lat="40.37658973596990108489990234375" lon="-1.0880406014621257781982421875">
        <ele>926.4000244140625</ele>
        <time>2021-09-25T11:52:28.000Z</time>
      </trkpt>
      <trkpt lat="40.3765274584293365478515625" lon="-1.08798754401504993438720703125">
        <ele>926</ele>
        <time>2021-09-25T11:52:30.000Z</time>
      </trkpt>
      <trkpt lat="40.376496613025665283203125" lon="-1.08796206302940845489501953125">
        <ele>925.79998779296875</ele>
        <time>2021-09-25T11:52:31.000Z</time>
      </trkpt>
      <trkpt lat="40.37646635435521602630615234375" lon="-1.08793641440570354461669921875">
        <ele>925.5999755859375</ele>
        <time>2021-09-25T11:52:32.000Z</time>
      </trkpt>
      <trkpt lat="40.37640273571014404296875" lon="-1.087890900671482086181640625">
        <ele>925.20001220703125</ele>
        <time>2021-09-25T11:52:34.000Z</time>
      </trkpt>
      <trkpt lat="40.37634196691215038299560546875" lon="-1.087839938700199127197265625">
        <ele>925</ele>
        <time>2021-09-25T11:52:36.000Z</time>
      </trkpt>
      <trkpt lat="40.37628077901899814605712890625" lon="-1.08778738416731357574462890625">
        <ele>925.5999755859375</ele>
        <time>2021-09-25T11:52:38.000Z</time>
      </trkpt>
      <trkpt lat="40.376224033534526824951171875" lon="-1.08774346299469470977783203125">
        <ele>925.4000244140625</ele>
        <time>2021-09-25T11:52:40.000Z</time>
      </trkpt>
      <trkpt lat="40.37617617286741733551025390625" lon="-1.08770172111690044403076171875">
        <ele>925.20001220703125</ele>
        <time>2021-09-25T11:52:42.000Z</time>
      </trkpt>
      <trkpt lat="40.376122109591960906982421875" lon="-1.087649501860141754150390625">
        <ele>925.20001220703125</ele>
        <time>2021-09-25T11:52:44.000Z</time>
      </trkpt>
      <trkpt lat="40.376064442098140716552734375" lon="-1.08759057708084583282470703125">
        <ele>925.20001220703125</ele>
        <time>2021-09-25T11:52:46.000Z</time>
      </trkpt>
      <trkpt lat="40.3760066069662570953369140625" lon="-1.0875339992344379425048828125">
        <ele>925.5999755859375</ele>
        <time>2021-09-25T11:52:48.000Z</time>
      </trkpt>
      <trkpt lat="40.37594600580632686614990234375" lon="-1.08748446218669414520263671875">
        <ele>925.4000244140625</ele>
        <time>2021-09-25T11:52:50.000Z</time>
      </trkpt>
      <trkpt lat="40.375887416303157806396484375" lon="-1.08743718825280666351318359375">
        <ele>924.5999755859375</ele>
        <time>2021-09-25T11:52:52.000Z</time>
      </trkpt>
      <trkpt lat="40.37582949735224246978759765625" lon="-1.08738832175731658935546875">
        <ele>923.5999755859375</ele>
        <time>2021-09-25T11:52:54.000Z</time>
      </trkpt>
      <trkpt lat="40.3757750988006591796875" lon="-1.0873438976705074310302734375">
        <ele>924</ele>
        <time>2021-09-25T11:52:56.000Z</time>
      </trkpt>
      <trkpt lat="40.3757471032440662384033203125" lon="-1.087318249046802520751953125">
        <ele>924.5999755859375</ele>
        <time>2021-09-25T11:52:57.000Z</time>
      </trkpt>
      <trkpt lat="40.37571533583104610443115234375" lon="-1.08729310333728790283203125">
        <ele>925</ele>
        <time>2021-09-25T11:52:58.000Z</time>
      </trkpt>
      <trkpt lat="40.37565263919532299041748046875" lon="-1.0872446559369564056396484375">
        <ele>926</ele>
        <time>2021-09-25T11:53:00.000Z</time>
      </trkpt>
      <trkpt lat="40.37558265030384063720703125" lon="-1.08719863928854465484619140625">
        <ele>925.5999755859375</ele>
        <time>2021-09-25T11:53:02.000Z</time>
      </trkpt>
      <trkpt lat="40.375511236488819122314453125" lon="-1.0871531255543231964111328125">
        <ele>925.20001220703125</ele>
        <time>2021-09-25T11:53:04.000Z</time>
      </trkpt>
      <trkpt lat="40.3754396550357341766357421875" lon="-1.08711398206651210784912109375">
        <ele>925</ele>
        <time>2021-09-25T11:53:06.000Z</time>
      </trkpt>
      <trkpt lat="40.3753682412207126617431640625" lon="-1.0870803706347942352294921875">
        <ele>924.5999755859375</ele>
        <time>2021-09-25T11:53:08.000Z</time>
      </trkpt>
      <trkpt lat="40.375293977558612823486328125" lon="-1.08704642392694950103759765625">
        <ele>924.20001220703125</ele>
        <time>2021-09-25T11:53:10.000Z</time>
      </trkpt>
      <trkpt lat="40.37522055208683013916015625" lon="-1.08701993711292743682861328125">
        <ele>924.20001220703125</ele>
        <time>2021-09-25T11:53:12.000Z</time>
      </trkpt>
      <trkpt lat="40.37518409080803394317626953125" lon="-1.08700820244848728179931640625">
        <ele>924.20001220703125</ele>
        <time>2021-09-25T11:53:13.000Z</time>
      </trkpt>
      <trkpt lat="40.37514838390052318572998046875" lon="-1.08699596486985683441162109375">
        <ele>924.20001220703125</ele>
        <time>2021-09-25T11:53:14.000Z</time>
      </trkpt>
      <trkpt lat="40.3750721924006938934326171875" lon="-1.0869747586548328399658203125">
        <ele>924.20001220703125</ele>
        <time>2021-09-25T11:53:16.000Z</time>
      </trkpt>
      <trkpt lat="40.3749940730631351470947265625" lon="-1.086961515247821807861328125">
        <ele>924.20001220703125</ele>
        <time>2021-09-25T11:53:18.000Z</time>
      </trkpt>
      <trkpt lat="40.3749152831733226776123046875" lon="-1.0869479365646839141845703125">
        <ele>924.20001220703125</ele>
        <time>2021-09-25T11:53:20.000Z</time>
      </trkpt>
      <trkpt lat="40.3748349845409393310546875" lon="-1.08694148249924182891845703125">
        <ele>924.20001220703125</ele>
        <time>2021-09-25T11:53:22.000Z</time>
      </trkpt>
      <trkpt lat="40.374757535755634307861328125" lon="-1.08694282360374927520751953125">
        <ele>923.4000244140625</ele>
        <time>2021-09-25T11:53:24.000Z</time>
      </trkpt>
      <trkpt lat="40.37467463873326778411865234375" lon="-1.086946092545986175537109375">
        <ele>922.5999755859375</ele>
        <time>2021-09-25T11:53:26.000Z</time>
      </trkpt>
      <trkpt lat="40.3745949268341064453125" lon="-1.0869576595723628997802734375">
        <ele>922.5999755859375</ele>
        <time>2021-09-25T11:53:28.000Z</time>
      </trkpt>
      <trkpt lat="40.37451873533427715301513671875" lon="-1.08697048388421535491943359375">
        <ele>922.4000244140625</ele>
        <time>2021-09-25T11:53:30.000Z</time>
      </trkpt>
      <trkpt lat="40.37444212473928928375244140625" lon="-1.086984984576702117919921875">
        <ele>922.20001220703125</ele>
        <time>2021-09-25T11:53:32.000Z</time>
      </trkpt>
      <trkpt lat="40.3743661008775234222412109375" lon="-1.0870086215436458587646484375">
        <ele>922.4000244140625</ele>
        <time>2021-09-25T11:53:34.000Z</time>
      </trkpt>
      <trkpt lat="40.37429326213896274566650390625" lon="-1.08703837729990482330322265625">
        <ele>922.79998779296875</ele>
        <time>2021-09-25T11:53:36.000Z</time>
      </trkpt>
      <trkpt lat="40.37421740591526031494140625" lon="-1.0870666243135929107666015625">
        <ele>923.4000244140625</ele>
        <time>2021-09-25T11:53:38.000Z</time>
      </trkpt>
      <trkpt lat="40.37414104677736759185791015625" lon="-1.08710132539272308349609375">
        <ele>924</ele>
        <time>2021-09-25T11:53:40.000Z</time>
      </trkpt>
      <trkpt lat="40.3740680404007434844970703125" lon="-1.08714030124247074127197265625">
        <ele>924.5999755859375</ele>
        <time>2021-09-25T11:53:42.000Z</time>
      </trkpt>
      <trkpt lat="40.37399251945316791534423828125" lon="-1.087180785834789276123046875">
        <ele>925.4000244140625</ele>
        <time>2021-09-25T11:53:44.000Z</time>
      </trkpt>
      <trkpt lat="40.37392127327620983123779296875" lon="-1.0872262157499790191650390625">
        <ele>926.20001220703125</ele>
        <time>2021-09-25T11:53:46.000Z</time>
      </trkpt>
      <trkpt lat="40.37385287694633007049560546875" lon="-1.087275333702564239501953125">
        <ele>926.79998779296875</ele>
        <time>2021-09-25T11:53:48.000Z</time>
      </trkpt>
      <trkpt lat="40.37378548644483089447021484375" lon="-1.087333001196384429931640625">
        <ele>927.20001220703125</ele>
        <time>2021-09-25T11:53:50.000Z</time>
      </trkpt>
      <trkpt lat="40.37372061051428318023681640625" lon="-1.0873884893953800201416015625">
        <ele>927.4000244140625</ele>
        <time>2021-09-25T11:53:52.000Z</time>
      </trkpt>
      <trkpt lat="40.37365975789725780487060546875" lon="-1.0874468274414539337158203125">
        <ele>927.5999755859375</ele>
        <time>2021-09-25T11:53:54.000Z</time>
      </trkpt>
      <trkpt lat="40.37360041402280330657958984375" lon="-1.08750860206782817840576171875">
        <ele>927.79998779296875</ele>
        <time>2021-09-25T11:53:56.000Z</time>
      </trkpt>
      <trkpt lat="40.373545847833156585693359375" lon="-1.0875759087502956390380859375">
        <ele>928</ele>
        <time>2021-09-25T11:53:58.000Z</time>
      </trkpt>
      <trkpt lat="40.3734885156154632568359375" lon="-1.0876496694982051849365234375">
        <ele>928</ele>
        <time>2021-09-25T11:54:00.000Z</time>
      </trkpt>
      <trkpt lat="40.37346127443015575408935546875" lon="-1.087688393890857696533203125">
        <ele>928</ele>
        <time>2021-09-25T11:54:01.000Z</time>
      </trkpt>
      <trkpt lat="40.37343512289226055145263671875" lon="-1.08772770501673221588134765625">
        <ele>928</ele>
        <time>2021-09-25T11:54:02.000Z</time>
      </trkpt>
      <trkpt lat="40.3733874298632144927978515625" lon="-1.087811104953289031982421875">
        <ele>928</ele>
        <time>2021-09-25T11:54:04.000Z</time>
      </trkpt>
      <trkpt lat="40.3733394853770732879638671875" lon="-1.087891571223735809326171875">
        <ele>928</ele>
        <time>2021-09-25T11:54:06.000Z</time>
      </trkpt>
      <trkpt lat="40.3732945583760738372802734375" lon="-1.08797379769384860992431640625">
        <ele>928</ele>
        <time>2021-09-25T11:54:08.000Z</time>
      </trkpt>
      <trkpt lat="40.3732506372034549713134765625" lon="-1.088056862354278564453125">
        <ele>928.20001220703125</ele>
        <time>2021-09-25T11:54:10.000Z</time>
      </trkpt>
      <trkpt lat="40.373228676617145538330078125" lon="-1.08809449709951877593994140625">
        <ele>928.4000244140625</ele>
        <time>2021-09-25T11:54:11.000Z</time>
      </trkpt>
      <trkpt lat="40.37320596165955066680908203125" lon="-1.0881351493299007415771484375">
        <ele>928.5999755859375</ele>
        <time>2021-09-25T11:54:12.000Z</time>
      </trkpt>
      <trkpt lat="40.3731614537537097930908203125" lon="-1.0882095806300640106201171875">
        <ele>929</ele>
        <time>2021-09-25T11:54:14.000Z</time>
      </trkpt>
      <trkpt lat="40.3731125034391880035400390625" lon="-1.08828409574925899505615234375">
        <ele>929.5999755859375</ele>
        <time>2021-09-25T11:54:16.000Z</time>
      </trkpt>
      <trkpt lat="40.3730927221477031707763671875" lon="-1.08832566998898983001708984375">
        <ele>930</ele>
        <time>2021-09-25T11:54:17.000Z</time>
      </trkpt>
      <trkpt lat="40.37307118065655231475830078125" lon="-1.0883678309619426727294921875">
        <ele>930.20001220703125</ele>
        <time>2021-09-25T11:54:18.000Z</time>
      </trkpt>
      <trkpt lat="40.37302759476006031036376953125" lon="-1.088451482355594635009765625">
        <ele>930.79998779296875</ele>
        <time>2021-09-25T11:54:20.000Z</time>
      </trkpt>
      <trkpt lat="40.37298224866390228271484375" lon="-1.08853538520634174346923828125">
        <ele>931.79998779296875</ele>
        <time>2021-09-25T11:54:22.000Z</time>
      </trkpt>
      <trkpt lat="40.37293841131031513214111328125" lon="-1.088612414896488189697265625">
        <ele>932.5999755859375</ele>
        <time>2021-09-25T11:54:24.000Z</time>
      </trkpt>
      <trkpt lat="40.37291728891432285308837890625" lon="-1.08865340240299701690673828125">
        <ele>932.79998779296875</ele>
        <time>2021-09-25T11:54:25.000Z</time>
      </trkpt>
      <trkpt lat="40.3728969208896160125732421875" lon="-1.08869128860533237457275390625">
        <ele>933.20001220703125</ele>
        <time>2021-09-25T11:54:26.000Z</time>
      </trkpt>
      <trkpt lat="40.37286154925823211669921875" lon="-1.088773347437381744384765625">
        <ele>933.5999755859375</ele>
        <time>2021-09-25T11:54:28.000Z</time>
      </trkpt>
      <trkpt lat="40.37282056175172328948974609375" lon="-1.08884618617594242095947265625">
        <ele>933.79998779296875</ele>
        <time>2021-09-25T11:54:30.000Z</time>
      </trkpt>
      <trkpt lat="40.3727752156555652618408203125" lon="-1.08891525305807590484619140625">
        <ele>934</ele>
        <time>2021-09-25T11:54:32.000Z</time>
      </trkpt>
      <trkpt lat="40.3727366589009761810302734375" lon="-1.08898683451116085052490234375">
        <ele>934.20001220703125</ele>
        <time>2021-09-25T11:54:34.000Z</time>
      </trkpt>
      <trkpt lat="40.3727021254599094390869140625" lon="-1.08905690722167491912841796875">
        <ele>934</ele>
        <time>2021-09-25T11:54:36.000Z</time>
      </trkpt>
      <trkpt lat="40.372669436037540435791015625" lon="-1.08913251198828220367431640625">
        <ele>932.79998779296875</ele>
        <time>2021-09-25T11:54:38.000Z</time>
      </trkpt>
      <trkpt lat="40.372637249529361724853515625" lon="-1.08920291997492313385009765625">
        <ele>932.20001220703125</ele>
        <time>2021-09-25T11:54:40.000Z</time>
      </trkpt>
      <trkpt lat="40.372609086334705352783203125" lon="-1.0892774350941181182861328125">
        <ele>931.4000244140625</ele>
        <time>2021-09-25T11:54:42.000Z</time>
      </trkpt>
      <trkpt lat="40.37258117459714412689208984375" lon="-1.08935094438493251800537109375">
        <ele>930.4000244140625</ele>
        <time>2021-09-25T11:54:44.000Z</time>
      </trkpt>
      <trkpt lat="40.3725577890872955322265625" lon="-1.08942571096122264862060546875">
        <ele>929.20001220703125</ele>
        <time>2021-09-25T11:54:46.000Z</time>
      </trkpt>
      <trkpt lat="40.37252551876008510589599609375" lon="-1.0894958674907684326171875">
        <ele>928.4000244140625</ele>
        <time>2021-09-25T11:54:48.000Z</time>
      </trkpt>
      <trkpt lat="40.3724979422986507415771484375" lon="-1.0895634256303310394287109375">
        <ele>927.4000244140625</ele>
        <time>2021-09-25T11:54:50.000Z</time>
      </trkpt>
      <trkpt lat="40.37246349267661571502685546875" lon="-1.08964397571980953216552734375">
        <ele>926.5999755859375</ele>
        <time>2021-09-25T11:54:52.000Z</time>
      </trkpt>
      <trkpt lat="40.3724208287894725799560546875" lon="-1.08971790410578250885009765625">
        <ele>926</ele>
        <time>2021-09-25T11:54:54.000Z</time>
      </trkpt>
      <trkpt lat="40.372382439672946929931640625" lon="-1.08978814445436000823974609375">
        <ele>925.5999755859375</ele>
        <time>2021-09-25T11:54:56.000Z</time>
      </trkpt>
      <trkpt lat="40.372344218194484710693359375" lon="-1.08986374922096729278564453125">
        <ele>925</ele>
        <time>2021-09-25T11:54:58.000Z</time>
      </trkpt>
      <trkpt lat="40.372301302850246429443359375" lon="-1.08994957990944385528564453125">
        <ele>925.20001220703125</ele>
        <time>2021-09-25T11:55:00.000Z</time>
      </trkpt>
      <trkpt lat="40.37226165644824504852294921875" lon="-1.09003323130309581756591796875">
        <ele>925.4000244140625</ele>
        <time>2021-09-25T11:55:02.000Z</time>
      </trkpt>
      <trkpt lat="40.3722263686358928680419921875" lon="-1.09012090601027011871337890625">
        <ele>925.5999755859375</ele>
        <time>2021-09-25T11:55:04.000Z</time>
      </trkpt>
      <trkpt lat="40.372192002832889556884765625" lon="-1.09021268784999847412109375">
        <ele>926.20001220703125</ele>
        <time>2021-09-25T11:55:06.000Z</time>
      </trkpt>
      <trkpt lat="40.37216006778180599212646484375" lon="-1.0903070680797100067138671875">
        <ele>928.20001220703125</ele>
        <time>2021-09-25T11:55:08.000Z</time>
      </trkpt>
      <trkpt lat="40.37214280106127262115478515625" lon="-1.0903526656329631805419921875">
        <ele>929.4000244140625</ele>
        <time>2021-09-25T11:55:09.000Z</time>
      </trkpt>
      <trkpt lat="40.37212385796010494232177734375" lon="-1.09039549715816974639892578125">
        <ele>930.5999755859375</ele>
        <time>2021-09-25T11:55:10.000Z</time>
      </trkpt>
      <trkpt lat="40.372092090547084808349609375" lon="-1.0904800705611705780029296875">
        <ele>932.4000244140625</ele>
        <time>2021-09-25T11:55:12.000Z</time>
      </trkpt>
      <trkpt lat="40.37206803448498249053955078125" lon="-1.09056917019188404083251953125">
        <ele>933.5999755859375</ele>
        <time>2021-09-25T11:55:14.000Z</time>
      </trkpt>
      <trkpt lat="40.372060239315032958984375" lon="-1.09061527065932750701904296875">
        <ele>933.79998779296875</ele>
        <time>2021-09-25T11:55:15.000Z</time>
      </trkpt>
      <trkpt lat="40.37204758264124393463134765625" lon="-1.09065919183194637298583984375">
        <ele>934.20001220703125</ele>
        <time>2021-09-25T11:55:16.000Z</time>
      </trkpt>
      <trkpt lat="40.3720255382359027862548828125" lon="-1.09075088985264301300048828125">
        <ele>934.4000244140625</ele>
        <time>2021-09-25T11:55:18.000Z</time>
      </trkpt>
      <trkpt lat="40.37200952880084514617919921875" lon="-1.09084610827267169952392578125">
        <ele>933.20001220703125</ele>
        <time>2021-09-25T11:55:20.000Z</time>
      </trkpt>
      <trkpt lat="40.37199310027062892913818359375" lon="-1.090929172933101654052734375">
        <ele>932.4000244140625</ele>
        <time>2021-09-25T11:55:22.000Z</time>
      </trkpt>
      <trkpt lat="40.37197767756879329681396484375" lon="-1.0910161770880222320556640625">
        <ele>932.20001220703125</ele>
        <time>2021-09-25T11:55:24.000Z</time>
      </trkpt>
      <trkpt lat="40.37196594290435314178466796875" lon="-1.0911120660603046417236328125">
        <ele>930.79998779296875</ele>
        <time>2021-09-25T11:55:26.000Z</time>
      </trkpt>
      <trkpt lat="40.37195789627730846405029296875" lon="-1.09121491201221942901611328125">
        <ele>929.4000244140625</ele>
        <time>2021-09-25T11:55:28.000Z</time>
      </trkpt>
      <trkpt lat="40.3719514422118663787841796875" lon="-1.0913192667067050933837890625">
        <ele>929</ele>
        <time>2021-09-25T11:55:30.000Z</time>
      </trkpt>
      <trkpt lat="40.37194398231804370880126953125" lon="-1.0914195142686367034912109375">
        <ele>928.79998779296875</ele>
        <time>2021-09-25T11:55:32.000Z</time>
      </trkpt>
      <trkpt lat="40.3719380311667919158935546875" lon="-1.09151783399283885955810546875">
        <ele>928.4000244140625</ele>
        <time>2021-09-25T11:55:34.000Z</time>
      </trkpt>
      <trkpt lat="40.3719279728829860687255859375" lon="-1.0916173271834850311279296875">
        <ele>929.20001220703125</ele>
        <time>2021-09-25T11:55:36.000Z</time>
      </trkpt>
      <trkpt lat="40.3719192557036876678466796875" lon="-1.09171832911670207977294921875">
        <ele>930</ele>
        <time>2021-09-25T11:55:38.000Z</time>
      </trkpt>
      <trkpt lat="40.371912382543087005615234375" lon="-1.091818995773792266845703125">
        <ele>930.79998779296875</ele>
        <time>2021-09-25T11:55:40.000Z</time>
      </trkpt>
      <trkpt lat="40.3719011507928371429443359375" lon="-1.09192469157278537750244140625">
        <ele>932</ele>
        <time>2021-09-25T11:55:42.000Z</time>
      </trkpt>
      <trkpt lat="40.37189268507063388824462890625" lon="-1.09203130938112735748291015625">
        <ele>933</ele>
        <time>2021-09-25T11:55:44.000Z</time>
      </trkpt>
      <trkpt lat="40.3718845546245574951171875" lon="-1.0921356640756130218505859375">
        <ele>934.20001220703125</ele>
        <time>2021-09-25T11:55:46.000Z</time>
      </trkpt>
      <trkpt lat="40.3718800283968448638916015625" lon="-1.0922369174659252166748046875">
        <ele>934.79998779296875</ele>
        <time>2021-09-25T11:55:48.000Z</time>
      </trkpt>
      <trkpt lat="40.37187642417848110198974609375" lon="-1.09233959577977657318115234375">
        <ele>935.4000244140625</ele>
        <time>2021-09-25T11:55:50.000Z</time>
      </trkpt>
      <trkpt lat="40.3718692995607852935791015625" lon="-1.09243850223720073699951171875">
        <ele>936.20001220703125</ele>
        <time>2021-09-25T11:55:52.000Z</time>
      </trkpt>
      <trkpt lat="40.3718572296202182769775390625" lon="-1.09253724105656147003173828125">
        <ele>937</ele>
        <time>2021-09-25T11:55:54.000Z</time>
      </trkpt>
      <trkpt lat="40.37184457294642925262451171875" lon="-1.09263916499912738800048828125">
        <ele>937.79998779296875</ele>
        <time>2021-09-25T11:55:56.000Z</time>
      </trkpt>
      <trkpt lat="40.3718351013958454132080078125" lon="-1.09273203648626804351806640625">
        <ele>936.79998779296875</ele>
        <time>2021-09-25T11:55:58.000Z</time>
      </trkpt>
      <trkpt lat="40.37181682884693145751953125" lon="-1.09281585551798343658447265625">
        <ele>936.20001220703125</ele>
        <time>2021-09-25T11:56:00.000Z</time>
      </trkpt>
      <trkpt lat="40.37179403007030487060546875" lon="-1.09290705062448978424072265625">
        <ele>935.79998779296875</ele>
        <time>2021-09-25T11:56:02.000Z</time>
      </trkpt>
      <trkpt lat="40.37176544778048992156982421875" lon="-1.0929926298558712005615234375">
        <ele>935.4000244140625</ele>
        <time>2021-09-25T11:56:04.000Z</time>
      </trkpt>
      <trkpt lat="40.3717351891100406646728515625" lon="-1.0930855013430118560791015625">
        <ele>934.79998779296875</ele>
        <time>2021-09-25T11:56:06.000Z</time>
      </trkpt>
      <trkpt lat="40.37170174531638622283935546875" lon="-1.09317359514534473419189453125">
        <ele>934.5999755859375</ele>
        <time>2021-09-25T11:56:08.000Z</time>
      </trkpt>
      <trkpt lat="40.371664278209209442138671875" lon="-1.093262024223804473876953125">
        <ele>934.5999755859375</ele>
        <time>2021-09-25T11:56:10.000Z</time>
      </trkpt>
      <trkpt lat="40.37164826877415180206298828125" lon="-1.0933064483106136322021484375">
        <ele>934.4000244140625</ele>
        <time>2021-09-25T11:56:11.000Z</time>
      </trkpt>
      <trkpt lat="40.371630750596523284912109375" lon="-1.09334886074066162109375">
        <ele>934.20001220703125</ele>
        <time>2021-09-25T11:56:12.000Z</time>
      </trkpt>
      <trkpt lat="40.37158808670938014984130859375" lon="-1.09343091957271099090576171875">
        <ele>933.4000244140625</ele>
        <time>2021-09-25T11:56:14.000Z</time>
      </trkpt>
      <trkpt lat="40.37154701538383960723876953125" lon="-1.093513481318950653076171875">
        <ele>932.5999755859375</ele>
        <time>2021-09-25T11:56:16.000Z</time>
      </trkpt>
      <trkpt lat="40.37152673117816448211669921875" lon="-1.093555726110935211181640625">
        <ele>932.5999755859375</ele>
        <time>2021-09-25T11:56:17.000Z</time>
      </trkpt>
      <trkpt lat="40.37150569260120391845703125" lon="-1.09359838999807834625244140625">
        <ele>932.5999755859375</ele>
        <time>2021-09-25T11:56:18.000Z</time>
      </trkpt>
      <trkpt lat="40.3714592568576335906982421875" lon="-1.09367751516401767730712890625">
        <ele>932.79998779296875</ele>
        <time>2021-09-25T11:56:20.000Z</time>
      </trkpt>
      <trkpt lat="40.371407456696033477783203125" lon="-1.0937543772161006927490234375">
        <ele>933.20001220703125</ele>
        <time>2021-09-25T11:56:22.000Z</time>
      </trkpt>
      <trkpt lat="40.3713787905871868133544921875" lon="-1.0937900841236114501953125">
        <ele>933.4000244140625</ele>
        <time>2021-09-25T11:56:23.000Z</time>
      </trkpt>
      <trkpt lat="40.3713499568402767181396484375" lon="-1.093825288116931915283203125">
        <ele>933.4000244140625</ele>
        <time>2021-09-25T11:56:24.000Z</time>
      </trkpt>
      <trkpt lat="40.371293462812900543212890625" lon="-1.093893684446811676025390625">
        <ele>933.20001220703125</ele>
        <time>2021-09-25T11:56:26.000Z</time>
      </trkpt>
      <trkpt lat="40.3712386451661586761474609375" lon="-1.0939656011760234832763671875">
        <ele>932.79998779296875</ele>
        <time>2021-09-25T11:56:28.000Z</time>
      </trkpt>
      <trkpt lat="40.37117703817784786224365234375" lon="-1.09402469359338283538818359375">
        <ele>932.5999755859375</ele>
        <time>2021-09-25T11:56:30.000Z</time>
      </trkpt>
      <trkpt lat="40.37111316807568073272705078125" lon="-1.094085462391376495361328125">
        <ele>932.5999755859375</ele>
        <time>2021-09-25T11:56:32.000Z</time>
      </trkpt>
      <trkpt lat="40.37105265073478221893310546875" lon="-1.094142459332942962646484375">
        <ele>932.5999755859375</ele>
        <time>2021-09-25T11:56:34.000Z</time>
      </trkpt>
      <trkpt lat="40.37099313922226428985595703125" lon="-1.09418830834329128265380859375">
        <ele>932.5999755859375</ele>
        <time>2021-09-25T11:56:36.000Z</time>
      </trkpt>
      <trkpt lat="40.37093513645231723785400390625" lon="-1.09423742629587650299072265625">
        <ele>932.5999755859375</ele>
        <time>2021-09-25T11:56:38.000Z</time>
      </trkpt>
      <trkpt lat="40.37086665630340576171875" lon="-1.0942787490785121917724609375">
        <ele>932.79998779296875</ele>
        <time>2021-09-25T11:56:40.000Z</time>
      </trkpt>
      <trkpt lat="40.3707977570593357086181640625" lon="-1.09431738965213298797607421875">
        <ele>933.20001220703125</ele>
        <time>2021-09-25T11:56:42.000Z</time>
      </trkpt>
      <trkpt lat="40.37072919309139251708984375" lon="-1.09435192309319972991943359375">
        <ele>933.4000244140625</ele>
        <time>2021-09-25T11:56:44.000Z</time>
      </trkpt>
      <trkpt lat="40.3706606291234493255615234375" lon="-1.0943810082972049713134765625">
        <ele>933.79998779296875</ele>
        <time>2021-09-25T11:56:46.000Z</time>
      </trkpt>
      <trkpt lat="40.37059382535517215728759765625" lon="-1.094401963055133819580078125">
        <ele>934.20001220703125</ele>
        <time>2021-09-25T11:56:48.000Z</time>
      </trkpt>
      <trkpt lat="40.3705281950533390045166015625" lon="-1.0944252647459506988525390625">
        <ele>934.5999755859375</ele>
        <time>2021-09-25T11:56:50.000Z</time>
      </trkpt>
      <trkpt lat="40.370494164526462554931640625" lon="-1.09443641267716884613037109375">
        <ele>934.79998779296875</ele>
        <time>2021-09-25T11:56:51.000Z</time>
      </trkpt>
      <trkpt lat="40.370460636913776397705078125" lon="-1.09444781206548213958740234375">
        <ele>935.20001220703125</ele>
        <time>2021-09-25T11:56:52.000Z</time>
      </trkpt>
      <trkpt lat="40.37039182148873805999755859375" lon="-1.09446742571890354156494140625">
        <ele>935.79998779296875</ele>
        <time>2021-09-25T11:56:54.000Z</time>
      </trkpt>
      <trkpt lat="40.37032149732112884521484375" lon="-1.0944812558591365814208984375">
        <ele>936.5999755859375</ele>
        <time>2021-09-25T11:56:56.000Z</time>
      </trkpt>
      <trkpt lat="40.3702475689351558685302734375" lon="-1.0945008695125579833984375">
        <ele>937.20001220703125</ele>
        <time>2021-09-25T11:56:58.000Z</time>
      </trkpt>
      <trkpt lat="40.37021219730377197265625" lon="-1.09451000578701496124267578125">
        <ele>937.20001220703125</ele>
        <time>2021-09-25T11:56:59.000Z</time>
      </trkpt>
      <trkpt lat="40.37017640657722949981689453125" lon="-1.0945167951285839080810546875">
        <ele>937.20001220703125</ele>
        <time>2021-09-25T11:57:00.000Z</time>
      </trkpt>
      <trkpt lat="40.37010281346738338470458984375" lon="-1.09453909099102020263671875">
        <ele>937.20001220703125</ele>
        <time>2021-09-25T11:57:02.000Z</time>
      </trkpt>
      <trkpt lat="40.37002469412982463836669921875" lon="-1.09456121921539306640625">
        <ele>937.4000244140625</ele>
        <time>2021-09-25T11:57:04.000Z</time>
      </trkpt>
      <trkpt lat="40.36995026282966136932373046875" lon="-1.094581000506877899169921875">
        <ele>937.4000244140625</ele>
        <time>2021-09-25T11:57:06.000Z</time>
      </trkpt>
      <trkpt lat="40.36987549625337123870849609375" lon="-1.09459633938968181610107421875">
        <ele>936.79998779296875</ele>
        <time>2021-09-25T11:57:08.000Z</time>
      </trkpt>
      <trkpt lat="40.369803495705127716064453125" lon="-1.09461276791989803314208984375">
        <ele>936.4000244140625</ele>
        <time>2021-09-25T11:57:10.000Z</time>
      </trkpt>
      <trkpt lat="40.3697319142520427703857421875" lon="-1.0946257598698139190673828125">
        <ele>936</ele>
        <time>2021-09-25T11:57:12.000Z</time>
      </trkpt>
      <trkpt lat="40.369663350284099578857421875" lon="-1.09463975764811038970947265625">
        <ele>935.5999755859375</ele>
        <time>2021-09-25T11:57:14.000Z</time>
      </trkpt>
      <trkpt lat="40.36959570832550525665283203125" lon="-1.094658114016056060791015625">
        <ele>935</ele>
        <time>2021-09-25T11:57:16.000Z</time>
      </trkpt>
      <trkpt lat="40.3695277310907840728759765625" lon="-1.0946693457663059234619140625">
        <ele>934.5999755859375</ele>
        <time>2021-09-25T11:57:18.000Z</time>
      </trkpt>
      <trkpt lat="40.36945556290447711944580078125" lon="-1.0946783982217311859130859375">
        <ele>934.20001220703125</ele>
        <time>2021-09-25T11:57:20.000Z</time>
      </trkpt>
      <trkpt lat="40.36938951350748538970947265625" lon="-1.09468929469585418701171875">
        <ele>933.79998779296875</ele>
        <time>2021-09-25T11:57:22.000Z</time>
      </trkpt>
      <trkpt lat="40.36932237446308135986328125" lon="-1.094699688255786895751953125">
        <ele>933.4000244140625</ele>
        <time>2021-09-25T11:57:24.000Z</time>
      </trkpt>
      <trkpt lat="40.3692665509879589080810546875" lon="-1.09471787698566913604736328125">
        <ele>932.79998779296875</ele>
        <time>2021-09-25T11:57:26.000Z</time>
      </trkpt>
      <trkpt lat="40.369208045303821563720703125" lon="-1.094735898077487945556640625">
        <ele>932.20001220703125</ele>
        <time>2021-09-25T11:57:28.000Z</time>
      </trkpt>
      <trkpt lat="40.36917460151016712188720703125" lon="-1.09474151395261287689208984375">
        <ele>931.79998779296875</ele>
        <time>2021-09-25T11:57:29.000Z</time>
      </trkpt>
      <trkpt lat="40.36914358846843242645263671875" lon="-1.09474486671388149261474609375">
        <ele>931.5999755859375</ele>
        <time>2021-09-25T11:57:30.000Z</time>
      </trkpt>
      <trkpt lat="40.36908072419464588165283203125" lon="-1.0947591997683048248291015625">
        <ele>931</ele>
        <time>2021-09-25T11:57:32.000Z</time>
      </trkpt>
      <trkpt lat="40.3690167702734470367431640625" lon="-1.09477805905044078826904296875">
        <ele>930.4000244140625</ele>
        <time>2021-09-25T11:57:34.000Z</time>
      </trkpt>
      <trkpt lat="40.368943512439727783203125" lon="-1.0947985947132110595703125">
        <ele>929.5999755859375</ele>
        <time>2021-09-25T11:57:36.000Z</time>
      </trkpt>
      <trkpt lat="40.36887151189148426055908203125" lon="-1.0948165319859981536865234375">
        <ele>928.79998779296875</ele>
        <time>2021-09-25T11:57:38.000Z</time>
      </trkpt>
      <trkpt lat="40.3687981702387332916259765625" lon="-1.0948312841355800628662109375">
        <ele>928.4000244140625</ele>
        <time>2021-09-25T11:57:40.000Z</time>
      </trkpt>
      <trkpt lat="40.36872424185276031494140625" lon="-1.0948389954864978790283203125">
        <ele>928.4000244140625</ele>
        <time>2021-09-25T11:57:42.000Z</time>
      </trkpt>
      <trkpt lat="40.36865048110485076904296875" lon="-1.09484930522739887237548828125">
        <ele>928.20001220703125</ele>
        <time>2021-09-25T11:57:44.000Z</time>
      </trkpt>
      <trkpt lat="40.3685762174427509307861328125" lon="-1.09485265798866748809814453125">
        <ele>928.20001220703125</ele>
        <time>2021-09-25T11:57:46.000Z</time>
      </trkpt>
      <trkpt lat="40.36850371398031711578369140625" lon="-1.09485332854092121124267578125">
        <ele>929.20001220703125</ele>
        <time>2021-09-25T11:57:48.000Z</time>
      </trkpt>
      <trkpt lat="40.3684273548424243927001953125" lon="-1.09484980814158916473388671875">
        <ele>930.20001220703125</ele>
        <time>2021-09-25T11:57:50.000Z</time>
      </trkpt>
      <trkpt lat="40.36835099570453166961669921875" lon="-1.09484880231320858001708984375">
        <ele>931.4000244140625</ele>
        <time>2021-09-25T11:57:52.000Z</time>
      </trkpt>
      <trkpt lat="40.36831009201705455780029296875" lon="-1.0948473773896694183349609375">
        <ele>932</ele>
        <time>2021-09-25T11:57:53.000Z</time>
      </trkpt>
      <trkpt lat="40.3682691045105457305908203125" lon="-1.09484645538032054901123046875">
        <ele>932.5999755859375</ele>
        <time>2021-09-25T11:57:54.000Z</time>
      </trkpt>
      <trkpt lat="40.36818939261138439178466796875" lon="-1.0948450304567813873291015625">
        <ele>933.79998779296875</ele>
        <time>2021-09-25T11:57:56.000Z</time>
      </trkpt>
      <trkpt lat="40.36811269819736480712890625" lon="-1.09483949840068817138671875">
        <ele>935</ele>
        <time>2021-09-25T11:57:58.000Z</time>
      </trkpt>
      <trkpt lat="40.3680360876023769378662109375" lon="-1.0948255844414234161376953125">
        <ele>936.5999755859375</ele>
        <time>2021-09-25T11:58:00.000Z</time>
      </trkpt>
      <trkpt lat="40.367959477007389068603515625" lon="-1.09480798244476318359375">
        <ele>938</ele>
        <time>2021-09-25T11:58:02.000Z</time>
      </trkpt>
      <trkpt lat="40.36788697354495525360107421875" lon="-1.09478652477264404296875">
        <ele>939.20001220703125</ele>
        <time>2021-09-25T11:58:04.000Z</time>
      </trkpt>
      <trkpt lat="40.3678143024444580078125" lon="-1.094766072928905487060546875">
        <ele>940.20001220703125</ele>
        <time>2021-09-25T11:58:06.000Z</time>
      </trkpt>
      <trkpt lat="40.36774389445781707763671875" lon="-1.0947387479245662689208984375">
        <ele>941.20001220703125</ele>
        <time>2021-09-25T11:58:08.000Z</time>
      </trkpt>
      <trkpt lat="40.3676726482808589935302734375" lon="-1.094714440405368804931640625">
        <ele>940.79998779296875</ele>
        <time>2021-09-25T11:58:10.000Z</time>
      </trkpt>
      <trkpt lat="40.367600731551647186279296875" lon="-1.09468518756330013275146484375">
        <ele>940.5999755859375</ele>
        <time>2021-09-25T11:58:12.000Z</time>
      </trkpt>
      <trkpt lat="40.367530323565006256103515625" lon="-1.0946525819599628448486328125">
        <ele>940.79998779296875</ele>
        <time>2021-09-25T11:58:14.000Z</time>
      </trkpt>
      <trkpt lat="40.367494784295558929443359375" lon="-1.0946371592581272125244140625">
        <ele>940.79998779296875</ele>
        <time>2021-09-25T11:58:15.000Z</time>
      </trkpt>
      <trkpt lat="40.36745731718838214874267578125" lon="-1.09461947344243526458740234375">
        <ele>940.79998779296875</ele>
        <time>2021-09-25T11:58:16.000Z</time>
      </trkpt>
      <trkpt lat="40.36739059723913669586181640625" lon="-1.09458711929619312286376953125">
        <ele>940</ele>
        <time>2021-09-25T11:58:18.000Z</time>
      </trkpt>
      <trkpt lat="40.36732320673763751983642578125" lon="-1.09455610625445842742919921875">
        <ele>939</ele>
        <time>2021-09-25T11:58:20.000Z</time>
      </trkpt>
      <trkpt lat="40.3672907687723636627197265625" lon="-1.09453565441071987152099609375">
        <ele>938.5999755859375</ele>
        <time>2021-09-25T11:58:21.000Z</time>
      </trkpt>
      <trkpt lat="40.36725648678839206695556640625" lon="-1.09451352618634700775146484375">
        <ele>938.4000244140625</ele>
        <time>2021-09-25T11:58:22.000Z</time>
      </trkpt>
      <trkpt lat="40.3671888448297977447509765625" lon="-1.0944685153663158416748046875">
        <ele>937.5999755859375</ele>
        <time>2021-09-25T11:58:24.000Z</time>
      </trkpt>
      <trkpt lat="40.367123968899250030517578125" lon="-1.09441596083343029022216796875">
        <ele>937.5999755859375</ele>
        <time>2021-09-25T11:58:26.000Z</time>
      </trkpt>
      <trkpt lat="40.36706169135868549346923828125" lon="-1.09436432830989360809326171875">
        <ele>937.79998779296875</ele>
        <time>2021-09-25T11:58:28.000Z</time>
      </trkpt>
      <trkpt lat="40.3670282475650310516357421875" lon="-1.094338595867156982421875">
        <ele>937.79998779296875</ele>
        <time>2021-09-25T11:58:29.000Z</time>
      </trkpt>
      <trkpt lat="40.3669957257807254791259765625" lon="-1.09431370161473751068115234375">
        <ele>938</ele>
        <time>2021-09-25T11:58:30.000Z</time>
      </trkpt>
      <trkpt lat="40.36692908965051174163818359375" lon="-1.09426089562475681304931640625">
        <ele>938</ele>
        <time>2021-09-25T11:58:32.000Z</time>
      </trkpt>
      <trkpt lat="40.36686270497739315032958984375" lon="-1.09420389868319034576416015625">
        <ele>937.79998779296875</ele>
        <time>2021-09-25T11:58:34.000Z</time>
      </trkpt>
      <trkpt lat="40.36680369637906551361083984375" lon="-1.0941521823406219482421875">
        <ele>937.79998779296875</ele>
        <time>2021-09-25T11:58:36.000Z</time>
      </trkpt>
      <trkpt lat="40.36674150265753269195556640625" lon="-1.0941047407686710357666015625">
        <ele>938.4000244140625</ele>
        <time>2021-09-25T11:58:38.000Z</time>
      </trkpt>
      <trkpt lat="40.36668014712631702423095703125" lon="-1.094056628644466400146484375">
        <ele>939.20001220703125</ele>
        <time>2021-09-25T11:58:40.000Z</time>
      </trkpt>
      <trkpt lat="40.36662004888057708740234375" lon="-1.09400491230189800262451171875">
        <ele>940.20001220703125</ele>
        <time>2021-09-25T11:58:42.000Z</time>
      </trkpt>
      <trkpt lat="40.3665588609874248504638671875" lon="-1.09395495615899562835693359375">
        <ele>941.79998779296875</ele>
        <time>2021-09-25T11:58:44.000Z</time>
      </trkpt>
      <trkpt lat="40.36649666726589202880859375" lon="-1.09390298835933208465576171875">
        <ele>943.20001220703125</ele>
        <time>2021-09-25T11:58:46.000Z</time>
      </trkpt>
      <trkpt lat="40.36643271334469318389892578125" lon="-1.0938539542257785797119140625">
        <ele>943.4000244140625</ele>
        <time>2021-09-25T11:58:48.000Z</time>
      </trkpt>
      <trkpt lat="40.36636984907090663909912109375" lon="-1.09380684792995452880859375">
        <ele>943.5999755859375</ele>
        <time>2021-09-25T11:58:50.000Z</time>
      </trkpt>
      <trkpt lat="40.36632022820413112640380859375" lon="-1.093766279518604278564453125">
        <ele>944</ele>
        <time>2021-09-25T11:58:52.000Z</time>
      </trkpt>
      <trkpt lat="40.366293825209140777587890625" lon="-1.09374440275132656097412109375">
        <ele>944.4000244140625</ele>
        <time>2021-09-25T11:58:53.000Z</time>
      </trkpt>
      <trkpt lat="40.36626624874770641326904296875" lon="-1.09371506609022617340087890625">
        <ele>945</ele>
        <time>2021-09-25T11:58:54.000Z</time>
      </trkpt>
      <trkpt lat="40.36620791070163249969482421875" lon="-1.0936598293483257293701171875">
        <ele>945.79998779296875</ele>
        <time>2021-09-25T11:58:56.000Z</time>
      </trkpt>
      <trkpt lat="40.3661675937473773956298828125" lon="-1.09361649490892887115478515625">
        <ele>945.79998779296875</ele>
        <time>2021-09-25T11:58:58.000Z</time>
      </trkpt>
      <trkpt lat="40.36612727679312229156494140625" lon="-1.09358246438205242156982421875">
        <ele>945.20001220703125</ele>
        <time>2021-09-25T11:59:00.000Z</time>
      </trkpt>
      <trkpt lat="40.3660911507904529571533203125" lon="-1.09353384934365749359130859375">
        <ele>945</ele>
        <time>2021-09-25T11:59:02.000Z</time>
      </trkpt>
      <trkpt lat="40.3660453855991363525390625" lon="-1.0934710688889026641845703125">
        <ele>945</ele>
        <time>2021-09-25T11:59:04.000Z</time>
      </trkpt>
      <trkpt lat="40.3659915737807750701904296875" lon="-1.09340560622513294219970703125">
        <ele>945.4000244140625</ele>
        <time>2021-09-25T11:59:06.000Z</time>
      </trkpt>
      <trkpt lat="40.3659416176378726959228515625" lon="-1.0933362878859043121337890625">
        <ele>945.79998779296875</ele>
        <time>2021-09-25T11:59:08.000Z</time>
      </trkpt>
      <trkpt lat="40.36589392460882663726806640625" lon="-1.09326713718473911285400390625">
        <ele>945.4000244140625</ele>
        <time>2021-09-25T11:59:10.000Z</time>
      </trkpt>
      <trkpt lat="40.365849919617176055908203125" lon="-1.09319572336971759796142578125">
        <ele>945.5999755859375</ele>
        <time>2021-09-25T11:59:12.000Z</time>
      </trkpt>
      <trkpt lat="40.3658105246722698211669921875" lon="-1.09312062151730060577392578125">
        <ele>945.79998779296875</ele>
        <time>2021-09-25T11:59:14.000Z</time>
      </trkpt>
      <trkpt lat="40.36576853133738040924072265625" lon="-1.0930469445884227752685546875">
        <ele>946.20001220703125</ele>
        <time>2021-09-25T11:59:16.000Z</time>
      </trkpt>
      <trkpt lat="40.36573383025825023651123046875" lon="-1.092972345650196075439453125">
        <ele>946.79998779296875</ele>
        <time>2021-09-25T11:59:18.000Z</time>
      </trkpt>
      <trkpt lat="40.36570315249264240264892578125" lon="-1.092899255454540252685546875">
        <ele>947.5999755859375</ele>
        <time>2021-09-25T11:59:20.000Z</time>
      </trkpt>
      <trkpt lat="40.3656700439751148223876953125" lon="-1.0928253270685672760009765625">
        <ele>948.79998779296875</ele>
        <time>2021-09-25T11:59:22.000Z</time>
      </trkpt>
      <trkpt lat="40.3656425513327121734619140625" lon="-1.09274712391197681427001953125">
        <ele>948.79998779296875</ele>
        <time>2021-09-25T11:59:24.000Z</time>
      </trkpt>
      <trkpt lat="40.36562503315508365631103515625" lon="-1.0926627181470394134521484375">
        <ele>948.4000244140625</ele>
        <time>2021-09-25T11:59:26.000Z</time>
      </trkpt>
      <trkpt lat="40.3656100295484066009521484375" lon="-1.09257730655372142791748046875">
        <ele>949.5999755859375</ele>
        <time>2021-09-25T11:59:28.000Z</time>
      </trkpt>
      <trkpt lat="40.36558764986693859100341796875" lon="-1.09249248169362545013427734375">
        <ele>949.20001220703125</ele>
        <time>2021-09-25T11:59:30.000Z</time>
      </trkpt>
      <trkpt lat="40.36555864848196506500244140625" lon="-1.09240111894905567169189453125">
        <ele>948.5999755859375</ele>
        <time>2021-09-25T11:59:32.000Z</time>
      </trkpt>
      <trkpt lat="40.36553299985826015472412109375" lon="-1.0923090018332004547119140625">
        <ele>948</ele>
        <time>2021-09-25T11:59:34.000Z</time>
      </trkpt>
      <trkpt lat="40.36550835706293582916259765625" lon="-1.09221437014639377593994140625">
        <ele>947.79998779296875</ele>
        <time>2021-09-25T11:59:36.000Z</time>
      </trkpt>
      <trkpt lat="40.3654913417994976043701171875" lon="-1.09216667711734771728515625">
        <ele>947.4000244140625</ele>
        <time>2021-09-25T11:59:37.000Z</time>
      </trkpt>
      <trkpt lat="40.36547550000250339508056640625" lon="-1.09211705625057220458984375">
        <ele>947</ele>
        <time>2021-09-25T11:59:38.000Z</time>
      </trkpt>
      <trkpt lat="40.36544616334140300750732421875" lon="-1.09202326275408267974853515625">
        <ele>946.20001220703125</ele>
        <time>2021-09-25T11:59:40.000Z</time>
      </trkpt>
      <trkpt lat="40.36541732959449291229248046875" lon="-1.09192251227796077728271484375">
        <ele>945.4000244140625</ele>
        <time>2021-09-25T11:59:42.000Z</time>
      </trkpt>
      <trkpt lat="40.3653894178569316864013671875" lon="-1.0918251983821392059326171875">
        <ele>944.79998779296875</ele>
        <time>2021-09-25T11:59:44.000Z</time>
      </trkpt>
      <trkpt lat="40.3653614223003387451171875" lon="-1.0917276330292224884033203125">
        <ele>943.4000244140625</ele>
        <time>2021-09-25T11:59:46.000Z</time>
      </trkpt>
      <trkpt lat="40.36533602513372898101806640625" lon="-1.09164054505527019500732421875">
        <ele>942.79998779296875</ele>
        <time>2021-09-25T11:59:48.000Z</time>
      </trkpt>
      <trkpt lat="40.3653129749000072479248046875" lon="-1.09156183898448944091796875">
        <ele>942.4000244140625</ele>
        <time>2021-09-25T11:59:50.000Z</time>
      </trkpt>
      <trkpt lat="40.36528439261019229888916015625" lon="-1.09145966358482837677001953125">
        <ele>942</ele>
        <time>2021-09-25T11:59:52.000Z</time>
      </trkpt>
      <trkpt lat="40.3652506135404109954833984375" lon="-1.0913625173270702362060546875">
        <ele>941.79998779296875</ele>
        <time>2021-09-25T11:59:54.000Z</time>
      </trkpt>
      <trkpt lat="40.3652244620025157928466796875" lon="-1.09126034192740917205810546875">
        <ele>942</ele>
        <time>2021-09-25T11:59:56.000Z</time>
      </trkpt>
      <trkpt lat="40.36520007066428661346435546875" lon="-1.0911633633077144622802734375">
        <ele>943.20001220703125</ele>
        <time>2021-09-25T11:59:58.000Z</time>
      </trkpt>
      <trkpt lat="40.36517391912639141082763671875" lon="-1.0910725034773349761962890625">
        <ele>944.20001220703125</ele>
        <time>2021-09-25T12:00:00.000Z</time>
      </trkpt>
      <trkpt lat="40.36514776758849620819091796875" lon="-1.0909836553037166595458984375">
        <ele>945</ele>
        <time>2021-09-25T12:00:02.000Z</time>
      </trkpt>
      <trkpt lat="40.36512530408799648284912109375" lon="-1.09090067446231842041015625">
        <ele>946.20001220703125</ele>
        <time>2021-09-25T12:00:04.000Z</time>
      </trkpt>
      <trkpt lat="40.36510057747364044189453125" lon="-1.090817190706729888916015625">
        <ele>947</ele>
        <time>2021-09-25T12:00:06.000Z</time>
      </trkpt>
      <trkpt lat="40.36507886834442615509033203125" lon="-1.09072758816182613372802734375">
        <ele>947.20001220703125</ele>
        <time>2021-09-25T12:00:08.000Z</time>
      </trkpt>
      <trkpt lat="40.36505590192973613739013671875" lon="-1.09064024873077869415283203125">
        <ele>947</ele>
        <time>2021-09-25T12:00:10.000Z</time>
      </trkpt>
      <trkpt lat="40.36503343842923641204833984375" lon="-1.09055475331842899322509765625">
        <ele>947</ele>
        <time>2021-09-25T12:00:12.000Z</time>
      </trkpt>
      <trkpt lat="40.36500577814877033233642578125" lon="-1.09046590514481067657470703125">
        <ele>947.20001220703125</ele>
        <time>2021-09-25T12:00:14.000Z</time>
      </trkpt>
      <trkpt lat="40.3649787046015262603759765625" lon="-1.09037789516150951385498046875">
        <ele>947.20001220703125</ele>
        <time>2021-09-25T12:00:16.000Z</time>
      </trkpt>
      <trkpt lat="40.36495506763458251953125" lon="-1.09029625542461872100830078125">
        <ele>947.4000244140625</ele>
        <time>2021-09-25T12:00:18.000Z</time>
      </trkpt>
      <trkpt lat="40.3649310953915119171142578125" lon="-1.0902242548763751983642578125">
        <ele>947.4000244140625</ele>
        <time>2021-09-25T12:00:20.000Z</time>
      </trkpt>
      <trkpt lat="40.36490754224359989166259765625" lon="-1.0901447944343090057373046875">
        <ele>947.4000244140625</ele>
        <time>2021-09-25T12:00:22.000Z</time>
      </trkpt>
      <trkpt lat="40.3648905269801616668701171875" lon="-1.09010062180459499359130859375">
        <ele>947.4000244140625</ele>
        <time>2021-09-25T12:00:23.000Z</time>
      </trkpt>
      <trkpt lat="40.36487619392573833465576171875" lon="-1.09006089158356189727783203125">
        <ele>947.4000244140625</ele>
        <time>2021-09-25T12:00:24.000Z</time>
      </trkpt>
      <trkpt lat="40.36484015174210071563720703125" lon="-1.08997338451445102691650390625">
        <ele>947.20001220703125</ele>
        <time>2021-09-25T12:00:26.000Z</time>
      </trkpt>
      <trkpt lat="40.364818610250949859619140625" lon="-1.08992837369441986083984375">
        <ele>947.20001220703125</ele>
        <time>2021-09-25T12:00:27.000Z</time>
      </trkpt>
      <trkpt lat="40.36479874514043331146240234375" lon="-1.08988202176988124847412109375">
        <ele>947.4000244140625</ele>
        <time>2021-09-25T12:00:28.000Z</time>
      </trkpt>
      <trkpt lat="40.3647822327911853790283203125" lon="-1.08984178863465785980224609375">
        <ele>947.4000244140625</ele>
        <time>2021-09-25T12:00:29.000Z</time>
      </trkpt>
      <trkpt lat="40.3647688217461109161376953125" lon="-1.08980172313749790191650390625">
        <ele>947.5999755859375</ele>
        <time>2021-09-25T12:00:30.000Z</time>
      </trkpt>
      <trkpt lat="40.36473403684794902801513671875" lon="-1.08972678892314434051513671875">
        <ele>947</ele>
        <time>2021-09-25T12:00:32.000Z</time>
      </trkpt>
      <trkpt lat="40.36469732411205768585205078125" lon="-1.089647077023983001708984375">
        <ele>946.20001220703125</ele>
        <time>2021-09-25T12:00:34.000Z</time>
      </trkpt>
      <trkpt lat="40.3646504692733287811279296875" lon="-1.08957792632281780242919921875">
        <ele>945.20001220703125</ele>
        <time>2021-09-25T12:00:36.000Z</time>
      </trkpt>
      <trkpt lat="40.3646065481007099151611328125" lon="-1.08949813060462474822998046875">
        <ele>944.5999755859375</ele>
        <time>2021-09-25T12:00:38.000Z</time>
      </trkpt>
      <trkpt lat="40.36455499939620494842529296875" lon="-1.08942956663668155670166015625">
        <ele>944</ele>
        <time>2021-09-25T12:00:40.000Z</time>
      </trkpt>
      <trkpt lat="40.36449867300689220428466796875" lon="-1.08935714699327945709228515625">
        <ele>943.79998779296875</ele>
        <time>2021-09-25T12:00:42.000Z</time>
      </trkpt>
      <trkpt lat="40.3644694201648235321044921875" lon="-1.08932311646640300750732421875">
        <ele>943.79998779296875</ele>
        <time>2021-09-25T12:00:43.000Z</time>
      </trkpt>
      <trkpt lat="40.3644399158656597137451171875" lon="-1.0892866551876068115234375">
        <ele>943.5999755859375</ele>
        <time>2021-09-25T12:00:44.000Z</time>
      </trkpt>
      <trkpt lat="40.36438233219087123870849609375" lon="-1.0892142355442047119140625">
        <ele>944.79998779296875</ele>
        <time>2021-09-25T12:00:46.000Z</time>
      </trkpt>
      <trkpt lat="40.364325754344463348388671875" lon="-1.0891500301659107208251953125">
        <ele>946.20001220703125</ele>
        <time>2021-09-25T12:00:48.000Z</time>
      </trkpt>
      <trkpt lat="40.36427454091608524322509765625" lon="-1.0891010798513889312744140625">
        <ele>947.4000244140625</ele>
        <time>2021-09-25T12:00:50.000Z</time>
      </trkpt>
      <trkpt lat="40.3642514906823635101318359375" lon="-1.08907802961766719818115234375">
        <ele>947.79998779296875</ele>
        <time>2021-09-25T12:00:51.000Z</time>
      </trkpt>
      <trkpt lat="40.3642310388386249542236328125" lon="-1.0890586674213409423828125">
        <ele>948.20001220703125</ele>
        <time>2021-09-25T12:00:52.000Z</time>
      </trkpt>
      <trkpt lat="40.36419172771275043487548828125" lon="-1.08901466242969036102294921875">
        <ele>949.4000244140625</ele>
        <time>2021-09-25T12:00:54.000Z</time>
      </trkpt>
      <trkpt lat="40.3641408495604991912841796875" lon="-1.0889716632664203643798828125">
        <ele>950.5999755859375</ele>
        <time>2021-09-25T12:00:56.000Z</time>
      </trkpt>
      <trkpt lat="40.364087708294391632080078125" lon="-1.08893402852118015289306640625">
        <ele>952</ele>
        <time>2021-09-25T12:00:58.000Z</time>
      </trkpt>
      <trkpt lat="40.36403666250407695770263671875" lon="-1.0889052785933017730712890625">
        <ele>953.20001220703125</ele>
        <time>2021-09-25T12:01:00.000Z</time>
      </trkpt>
      <trkpt lat="40.36401436664164066314697265625" lon="-1.0888865031301975250244140625">
        <ele>953.79998779296875</ele>
        <time>2021-09-25T12:01:01.000Z</time>
      </trkpt>
      <trkpt lat="40.36398821510374546051025390625" lon="-1.08886797912418842315673828125">
        <ele>954</ele>
        <time>2021-09-25T12:01:02.000Z</time>
      </trkpt>
      <trkpt lat="40.36393775604665279388427734375" lon="-1.0888333618640899658203125">
        <ele>954.4000244140625</ele>
        <time>2021-09-25T12:01:04.000Z</time>
      </trkpt>
      <trkpt lat="40.36391478963196277618408203125" lon="-1.08881953172385692596435546875">
        <ele>954.4000244140625</ele>
        <time>2021-09-25T12:01:05.000Z</time>
      </trkpt>
      <trkpt lat="40.3638920746743679046630859375" lon="-1.08880846761167049407958984375">
        <ele>954.5999755859375</ele>
        <time>2021-09-25T12:01:06.000Z</time>
      </trkpt>
      <trkpt lat="40.3638498298823833465576171875" lon="-1.08878650702536106109619140625">
        <ele>954.79998779296875</ele>
        <time>2021-09-25T12:01:08.000Z</time>
      </trkpt>
      <trkpt lat="40.36381152458488941192626953125" lon="-1.08875968493521213531494140625">
        <ele>954.79998779296875</ele>
        <time>2021-09-25T12:01:10.000Z</time>
      </trkpt>
      <trkpt lat="40.3637623228132724761962890625" lon="-1.088729090988636016845703125">
        <ele>955</ele>
        <time>2021-09-25T12:01:12.000Z</time>
      </trkpt>
      <trkpt lat="40.363718234002590179443359375" lon="-1.088702939450740814208984375">
        <ele>955.20001220703125</ele>
        <time>2021-09-25T12:01:14.000Z</time>
      </trkpt>
      <trkpt lat="40.36369602195918560028076171875" lon="-1.08868743292987346649169921875">
        <ele>955.20001220703125</ele>
        <time>2021-09-25T12:01:15.000Z</time>
      </trkpt>
      <trkpt lat="40.3636717982590198516845703125" lon="-1.0886732675135135650634765625">
        <ele>955.20001220703125</ele>
        <time>2021-09-25T12:01:16.000Z</time>
      </trkpt>
      <trkpt lat="40.36361874081194400787353515625" lon="-1.0886447690427303314208984375">
        <ele>954.20001220703125</ele>
        <time>2021-09-25T12:01:18.000Z</time>
      </trkpt>
      <trkpt lat="40.36356492899358272552490234375" lon="-1.08861316926777362823486328125">
        <ele>953.20001220703125</ele>
        <time>2021-09-25T12:01:20.000Z</time>
      </trkpt>
      <trkpt lat="40.36353726871311664581298828125" lon="-1.08859791420400142669677734375">
        <ele>952.79998779296875</ele>
        <time>2021-09-25T12:01:21.000Z</time>
      </trkpt>
      <trkpt lat="40.3635106980800628662109375" lon="-1.08858190476894378662109375">
        <ele>952.5999755859375</ele>
        <time>2021-09-25T12:01:22.000Z</time>
      </trkpt>
      <trkpt lat="40.3634538687765598297119140625" lon="-1.0885458625853061676025390625">
        <ele>951.79998779296875</ele>
        <time>2021-09-25T12:01:24.000Z</time>
      </trkpt>
      <trkpt lat="40.36340198479592800140380859375" lon="-1.088508479297161102294921875">
        <ele>951.20001220703125</ele>
        <time>2021-09-25T12:01:26.000Z</time>
      </trkpt>
      <trkpt lat="40.36337994039058685302734375" lon="-1.08848827891051769256591796875">
        <ele>951</ele>
        <time>2021-09-25T12:01:27.000Z</time>
      </trkpt>
      <trkpt lat="40.3633549623191356658935546875" lon="-1.08846967108547687530517578125">
        <ele>950.5999755859375</ele>
        <time>2021-09-25T12:01:28.000Z</time>
      </trkpt>
      <trkpt lat="40.36329017020761966705322265625" lon="-1.0884362272918224334716796875">
        <ele>949.5999755859375</ele>
        <time>2021-09-25T12:01:30.000Z</time>
      </trkpt>
      <trkpt lat="40.36322479136288166046142578125" lon="-1.08840144239366054534912109375">
        <ele>949.79998779296875</ele>
        <time>2021-09-25T12:01:32.000Z</time>
      </trkpt>
      <trkpt lat="40.36315555684268474578857421875" lon="-1.08836221508681774139404296875">
        <ele>950</ele>
        <time>2021-09-25T12:01:34.000Z</time>
      </trkpt>
      <trkpt lat="40.3630904294550418853759765625" lon="-1.08831242658197879791259765625">
        <ele>950.20001220703125</ele>
        <time>2021-09-25T12:01:36.000Z</time>
      </trkpt>
      <trkpt lat="40.363026559352874755859375" lon="-1.0882593691349029541015625">
        <ele>950.5999755859375</ele>
        <time>2021-09-25T12:01:38.000Z</time>
      </trkpt>
      <trkpt lat="40.36295640282332897186279296875" lon="-1.0882048867642879486083984375">
        <ele>950.79998779296875</ele>
        <time>2021-09-25T12:01:40.000Z</time>
      </trkpt>
      <trkpt lat="40.36288331262767314910888671875" lon="-1.08815887011587619781494140625">
        <ele>951</ele>
        <time>2021-09-25T12:01:42.000Z</time>
      </trkpt>
      <trkpt lat="40.36281240172684192657470703125" lon="-1.08811411075294017791748046875">
        <ele>951</ele>
        <time>2021-09-25T12:01:44.000Z</time>
      </trkpt>
      <trkpt lat="40.36274283193051815032958984375" lon="-1.08806599862873554229736328125">
        <ele>951.20001220703125</ele>
        <time>2021-09-25T12:01:46.000Z</time>
      </trkpt>
      <trkpt lat="40.3626673109829425811767578125" lon="-1.08801989816129207611083984375">
        <ele>951.4000244140625</ele>
        <time>2021-09-25T12:01:48.000Z</time>
      </trkpt>
      <trkpt lat="40.36259807646274566650390625" lon="-1.0879819281399250030517578125">
        <ele>951</ele>
        <time>2021-09-25T12:01:50.000Z</time>
      </trkpt>
      <trkpt lat="40.36256832070648670196533203125" lon="-1.08796575106680393218994140625">
        <ele>950.79998779296875</ele>
        <time>2021-09-25T12:01:51.000Z</time>
      </trkpt>
      <trkpt lat="40.362540073692798614501953125" lon="-1.0879490710794925689697265625">
        <ele>950.5999755859375</ele>
        <time>2021-09-25T12:01:52.000Z</time>
      </trkpt>
      <trkpt lat="40.36248433403670787811279296875" lon="-1.0879098437726497650146484375">
        <ele>950.20001220703125</ele>
        <time>2021-09-25T12:01:54.000Z</time>
      </trkpt>
      <trkpt lat="40.36242306232452392578125" lon="-1.087865419685840606689453125">
        <ele>949.79998779296875</ele>
        <time>2021-09-25T12:01:56.000Z</time>
      </trkpt>
      <trkpt lat="40.36236631684005260467529296875" lon="-1.0878243483603000640869140625">
        <ele>949.4000244140625</ele>
        <time>2021-09-25T12:01:58.000Z</time>
      </trkpt>
      <trkpt lat="40.36230093799531459808349609375" lon="-1.08778637833893299102783203125">
        <ele>948.5999755859375</ele>
        <time>2021-09-25T12:02:00.000Z</time>
      </trkpt>
      <trkpt lat="40.3622321225702762603759765625" lon="-1.0877470672130584716796875">
        <ele>947.5999755859375</ele>
        <time>2021-09-25T12:02:02.000Z</time>
      </trkpt>
      <trkpt lat="40.36215995438396930694580078125" lon="-1.0877013020217418670654296875">
        <ele>946.5999755859375</ele>
        <time>2021-09-25T12:02:04.000Z</time>
      </trkpt>
      <trkpt lat="40.362090133130550384521484375" lon="-1.0876526869833469390869140625">
        <ele>945.5999755859375</ele>
        <time>2021-09-25T12:02:06.000Z</time>
      </trkpt>
      <trkpt lat="40.36202249117195606231689453125" lon="-1.08761086128652095794677734375">
        <ele>944.79998779296875</ele>
        <time>2021-09-25T12:02:08.000Z</time>
      </trkpt>
      <trkpt lat="40.361970104277133941650390625" lon="-1.08757565729320049285888671875">
        <ele>944.20001220703125</ele>
        <time>2021-09-25T12:02:10.000Z</time>
      </trkpt>
      <trkpt lat="40.361937917768955230712890625" lon="-1.087552271783351898193359375">
        <ele>943.5999755859375</ele>
        <time>2021-09-25T12:02:11.000Z</time>
      </trkpt>
      <trkpt lat="40.36190531216561794281005859375" lon="-1.08752637170255184173583984375">
        <ele>943</ele>
        <time>2021-09-25T12:02:12.000Z</time>
      </trkpt>
      <trkpt lat="40.3618411906063556671142578125" lon="-1.087485887110233306884765625">
        <ele>941.79998779296875</ele>
        <time>2021-09-25T12:02:14.000Z</time>
      </trkpt>
      <trkpt lat="40.3617741353809833526611328125" lon="-1.0874426364898681640625">
        <ele>940.5999755859375</ele>
        <time>2021-09-25T12:02:16.000Z</time>
      </trkpt>
      <trkpt lat="40.3617104329168796539306640625" lon="-1.08739863149821758270263671875">
        <ele>939.4000244140625</ele>
        <time>2021-09-25T12:02:18.000Z</time>
      </trkpt>
      <trkpt lat="40.361648909747600555419921875" lon="-1.08735772781074047088623046875">
        <ele>938.5999755859375</ele>
        <time>2021-09-25T12:02:20.000Z</time>
      </trkpt>
      <trkpt lat="40.36158579401671886444091796875" lon="-1.08732202090322971343994140625">
        <ele>938.20001220703125</ele>
        <time>2021-09-25T12:02:22.000Z</time>
      </trkpt>
      <trkpt lat="40.361554361879825592041015625" lon="-1.08730374835431575775146484375">
        <ele>938</ele>
        <time>2021-09-25T12:02:23.000Z</time>
      </trkpt>
      <trkpt lat="40.36152980290353298187255859375" lon="-1.08729067258536815643310546875">
        <ele>938</ele>
        <time>2021-09-25T12:02:24.000Z</time>
      </trkpt>
      <trkpt lat="40.36148923449218273162841796875" lon="-1.08726284466683864593505859375">
        <ele>937.79998779296875</ele>
        <time>2021-09-25T12:02:26.000Z</time>
      </trkpt>
      <trkpt lat="40.361454784870147705078125" lon="-1.08724423684179782867431640625">
        <ele>937.79998779296875</ele>
        <time>2021-09-25T12:02:28.000Z</time>
      </trkpt>
      <trkpt lat="40.36143072880804538726806640625" lon="-1.0872252099215984344482421875">
        <ele>937.79998779296875</ele>
        <time>2021-09-25T12:02:30.000Z</time>
      </trkpt>
      <trkpt lat="40.3614239394664764404296875" lon="-1.0872144810855388641357421875">
        <ele>937.79998779296875</ele>
        <time>2021-09-25T12:02:32.000Z</time>
      </trkpt>
      <trkpt lat="40.36136853508651256561279296875" lon="-1.08718204312026500701904296875">
        <ele>937.5999755859375</ele>
        <time>2021-09-25T12:03:55.000Z</time>
      </trkpt>
      <trkpt lat="40.36135311238467693328857421875" lon="-1.087172068655490875244140625">
        <ele>937.5999755859375</ele>
        <time>2021-09-25T12:03:56.000Z</time>
      </trkpt>
      <trkpt lat="40.36131170578300952911376953125" lon="-1.0871437378227710723876953125">
        <ele>938</ele>
        <time>2021-09-25T12:03:58.000Z</time>
      </trkpt>
      <trkpt lat="40.361273400485515594482421875" lon="-1.08712680637836456298828125">
        <ele>938.4000244140625</ele>
        <time>2021-09-25T12:04:00.000Z</time>
      </trkpt>
      <trkpt lat="40.36124012432992458343505859375" lon="-1.08710006810724735260009765625">
        <ele>938.79998779296875</ele>
        <time>2021-09-25T12:04:02.000Z</time>
      </trkpt>
      <trkpt lat="40.361194275319576263427734375" lon="-1.087071485817432403564453125">
        <ele>939.20001220703125</ele>
        <time>2021-09-25T12:04:04.000Z</time>
      </trkpt>
      <trkpt lat="40.3611744940280914306640625" lon="-1.08705832622945308685302734375">
        <ele>939.4000244140625</ele>
        <time>2021-09-25T12:04:05.000Z</time>
      </trkpt>
      <trkpt lat="40.36114566028118133544921875" lon="-1.08704240061342716217041015625">
        <ele>939.79998779296875</ele>
        <time>2021-09-25T12:04:06.000Z</time>
      </trkpt>
      <trkpt lat="40.3611163236200809478759765625" lon="-1.08702530153095722198486328125">
        <ele>940</ele>
        <time>2021-09-25T12:04:07.000Z</time>
      </trkpt>
      <trkpt lat="40.36108857952058315277099609375" lon="-1.0870062746107578277587890625">
        <ele>940.20001220703125</ele>
        <time>2021-09-25T12:04:08.000Z</time>
      </trkpt>
      <trkpt lat="40.3610618412494659423828125" lon="-1.08698959462344646453857421875">
        <ele>940.5999755859375</ele>
        <time>2021-09-25T12:04:09.000Z</time>
      </trkpt>
      <trkpt lat="40.36103166639804840087890625" lon="-1.08697115443646907806396484375">
        <ele>941</ele>
        <time>2021-09-25T12:04:10.000Z</time>
      </trkpt>
      <trkpt lat="40.36097894422709941864013671875" lon="-1.08693611808121204376220703125">
        <ele>942</ele>
        <time>2021-09-25T12:04:12.000Z</time>
      </trkpt>
      <trkpt lat="40.36093602888286113739013671875" lon="-1.0869075357913970947265625">
        <ele>942.4000244140625</ele>
        <time>2021-09-25T12:04:14.000Z</time>
      </trkpt>
      <trkpt lat="40.36088992841541767120361328125" lon="-1.08687191270291805267333984375">
        <ele>943</ele>
        <time>2021-09-25T12:04:16.000Z</time>
      </trkpt>
      <trkpt lat="40.3608363680541515350341796875" lon="-1.08683436177670955657958984375">
        <ele>943.5999755859375</ele>
        <time>2021-09-25T12:04:18.000Z</time>
      </trkpt>
      <trkpt lat="40.36078079603612422943115234375" lon="-1.08679764904081821441650390625">
        <ele>944.4000244140625</ele>
        <time>2021-09-25T12:04:20.000Z</time>
      </trkpt>
      <trkpt lat="40.360726229846477508544921875" lon="-1.08675976283848285675048828125">
        <ele>945.20001220703125</ele>
        <time>2021-09-25T12:04:22.000Z</time>
      </trkpt>
      <trkpt lat="40.360668562352657318115234375" lon="-1.08672036789357662200927734375">
        <ele>946.20001220703125</ele>
        <time>2021-09-25T12:04:24.000Z</time>
      </trkpt>
      <trkpt lat="40.36061131395399570465087890625" lon="-1.08668063767254352569580078125">
        <ele>947</ele>
        <time>2021-09-25T12:04:26.000Z</time>
      </trkpt>
      <trkpt lat="40.3605503775179386138916015625" lon="-1.0866431705653667449951171875">
        <ele>948</ele>
        <time>2021-09-25T12:04:28.000Z</time>
      </trkpt>
      <trkpt lat="40.36050067283213138580322265625" lon="-1.08661173842847347259521484375">
        <ele>948.79998779296875</ele>
        <time>2021-09-25T12:04:30.000Z</time>
      </trkpt>
      <trkpt lat="40.3604502975940704345703125" lon="-1.0865791328251361846923828125">
        <ele>949.5999755859375</ele>
        <time>2021-09-25T12:04:32.000Z</time>
      </trkpt>
      <trkpt lat="40.36039690487086772918701171875" lon="-1.08654250390827655792236328125">
        <ele>950.4000244140625</ele>
        <time>2021-09-25T12:04:34.000Z</time>
      </trkpt>
      <trkpt lat="40.3603445179760456085205078125" lon="-1.08651031740009784698486328125">
        <ele>951.4000244140625</ele>
        <time>2021-09-25T12:04:36.000Z</time>
      </trkpt>
      <trkpt lat="40.36029179580509662628173828125" lon="-1.0864758677780628204345703125">
        <ele>952.20001220703125</ele>
        <time>2021-09-25T12:04:38.000Z</time>
      </trkpt>
      <trkpt lat="40.36023831926286220550537109375" lon="-1.08644259162247180938720703125">
        <ele>952.79998779296875</ele>
        <time>2021-09-25T12:04:40.000Z</time>
      </trkpt>
      <trkpt lat="40.36017947830259799957275390625" lon="-1.0864057950675487518310546875">
        <ele>954.20001220703125</ele>
        <time>2021-09-25T12:04:42.000Z</time>
      </trkpt>
      <trkpt lat="40.36012650467455387115478515625" lon="-1.086369417607784271240234375">
        <ele>955.20001220703125</ele>
        <time>2021-09-25T12:04:44.000Z</time>
      </trkpt>
      <trkpt lat="40.36010052077472209930419921875" lon="-1.086350642144680023193359375">
        <ele>955.4000244140625</ele>
        <time>2021-09-25T12:04:45.000Z</time>
      </trkpt>
      <trkpt lat="40.3600719384849071502685546875" lon="-1.08633111231029033660888671875">
        <ele>955.79998779296875</ele>
        <time>2021-09-25T12:04:46.000Z</time>
      </trkpt>
      <trkpt lat="40.3600249998271465301513671875" lon="-1.08629129827022552490234375">
        <ele>956.4000244140625</ele>
        <time>2021-09-25T12:04:48.000Z</time>
      </trkpt>
      <trkpt lat="40.35997546277940273284912109375" lon="-1.08625131659209728240966796875">
        <ele>957.20001220703125</ele>
        <time>2021-09-25T12:04:50.000Z</time>
      </trkpt>
      <trkpt lat="40.3599183820188045501708984375" lon="-1.0862103290855884552001953125">
        <ele>958.4000244140625</ele>
        <time>2021-09-25T12:04:52.000Z</time>
      </trkpt>
      <trkpt lat="40.359863899648189544677734375" lon="-1.08617336489260196685791015625">
        <ele>959.79998779296875</ele>
        <time>2021-09-25T12:04:54.000Z</time>
      </trkpt>
      <trkpt lat="40.359837077558040618896484375" lon="-1.08615475706756114959716796875">
        <ele>960.5999755859375</ele>
        <time>2021-09-25T12:04:55.000Z</time>
      </trkpt>
      <trkpt lat="40.3598084114491939544677734375" lon="-1.08613531105220317840576171875">
        <ele>961.20001220703125</ele>
        <time>2021-09-25T12:04:56.000Z</time>
      </trkpt>
      <trkpt lat="40.35975568927824497222900390625" lon="-1.08610077761113643646240234375">
        <ele>962.20001220703125</ele>
        <time>2021-09-25T12:04:58.000Z</time>
      </trkpt>
      <trkpt lat="40.3597014583647251129150390625" lon="-1.0860681720077991485595703125">
        <ele>963.20001220703125</ele>
        <time>2021-09-25T12:05:00.000Z</time>
      </trkpt>
      <trkpt lat="40.3596724569797515869140625" lon="-1.08604897744953632354736328125">
        <ele>963.79998779296875</ele>
        <time>2021-09-25T12:05:01.000Z</time>
      </trkpt>
      <trkpt lat="40.35964219830930233001708984375" lon="-1.0860309563577175140380859375">
        <ele>964.4000244140625</ele>
        <time>2021-09-25T12:05:02.000Z</time>
      </trkpt>
      <trkpt lat="40.35957933403551578521728515625" lon="-1.0859967581927776336669921875">
        <ele>965.4000244140625</ele>
        <time>2021-09-25T12:05:04.000Z</time>
      </trkpt>
      <trkpt lat="40.359519906342029571533203125" lon="-1.08595333993434906005859375">
        <ele>966.5999755859375</ele>
        <time>2021-09-25T12:05:06.000Z</time>
      </trkpt>
      <trkpt lat="40.35945863462984561920166015625" lon="-1.08591578900814056396484375">
        <ele>967.5999755859375</ele>
        <time>2021-09-25T12:05:08.000Z</time>
      </trkpt>
      <trkpt lat="40.35940582863986492156982421875" lon="-1.08587983064353466033935546875">
        <ele>968.4000244140625</ele>
        <time>2021-09-25T12:05:10.000Z</time>
      </trkpt>
      <trkpt lat="40.3593477420508861541748046875" lon="-1.08584010042250156402587890625">
        <ele>968.79998779296875</ele>
        <time>2021-09-25T12:05:12.000Z</time>
      </trkpt>
      <trkpt lat="40.359290577471256256103515625" lon="-1.08580690808594226837158203125">
        <ele>969</ele>
        <time>2021-09-25T12:05:14.000Z</time>
      </trkpt>
      <trkpt lat="40.35926333628594875335693359375" lon="-1.08579106628894805908203125">
        <ele>969</ele>
        <time>2021-09-25T12:05:15.000Z</time>
      </trkpt>
      <trkpt lat="40.35923785530030727386474609375" lon="-1.08577354811131954193115234375">
        <ele>969</ele>
        <time>2021-09-25T12:05:16.000Z</time>
      </trkpt>
      <trkpt lat="40.3591834567487239837646484375" lon="-1.0857409425079822540283203125">
        <ele>969</ele>
        <time>2021-09-25T12:05:18.000Z</time>
      </trkpt>
      <trkpt lat="40.359128303825855255126953125" lon="-1.08571319840848445892333984375">
        <ele>969</ele>
        <time>2021-09-25T12:05:20.000Z</time>
      </trkpt>
      <trkpt lat="40.35906921140849590301513671875" lon="-1.08567380346357822418212890625">
        <ele>968.4000244140625</ele>
        <time>2021-09-25T12:05:22.000Z</time>
      </trkpt>
      <trkpt lat="40.35901129245758056640625" lon="-1.085639186203479766845703125">
        <ele>967.79998779296875</ele>
        <time>2021-09-25T12:05:24.000Z</time>
      </trkpt>
      <trkpt lat="40.3589641861617565155029296875" lon="-1.0856066644191741943359375">
        <ele>967.20001220703125</ele>
        <time>2021-09-25T12:05:26.000Z</time>
      </trkpt>
      <trkpt lat="40.35894197411835193634033203125" lon="-1.0855927504599094390869140625">
        <ele>967</ele>
        <time>2021-09-25T12:05:27.000Z</time>
      </trkpt>
      <trkpt lat="40.35891381092369556427001953125" lon="-1.0855716280639171600341796875">
        <ele>966.5999755859375</ele>
        <time>2021-09-25T12:05:28.000Z</time>
      </trkpt>
      <trkpt lat="40.35885212011635303497314453125" lon="-1.08552477322518825531005859375">
        <ele>966</ele>
        <time>2021-09-25T12:05:30.000Z</time>
      </trkpt>
      <trkpt lat="40.3587918542325496673583984375" lon="-1.0854723863303661346435546875">
        <ele>965.4000244140625</ele>
        <time>2021-09-25T12:05:32.000Z</time>
      </trkpt>
      <trkpt lat="40.3587596677243709564208984375" lon="-1.08544883318245410919189453125">
        <ele>965</ele>
        <time>2021-09-25T12:05:33.000Z</time>
      </trkpt>
      <trkpt lat="40.3587298281490802764892578125" lon="-1.08542720787227153778076171875">
        <ele>964.79998779296875</ele>
        <time>2021-09-25T12:05:34.000Z</time>
      </trkpt>
      <trkpt lat="40.35867274738848209381103515625" lon="-1.0853889025747776031494140625">
        <ele>964.4000244140625</ele>
        <time>2021-09-25T12:05:36.000Z</time>
      </trkpt>
      <trkpt lat="40.358638465404510498046875" lon="-1.08537004329264163970947265625">
        <ele>964.20001220703125</ele>
        <time>2021-09-25T12:05:37.000Z</time>
      </trkpt>
      <trkpt lat="40.3586064465343952178955078125" lon="-1.08534808270633220672607421875">
        <ele>964</ele>
        <time>2021-09-25T12:05:38.000Z</time>
      </trkpt>
      <trkpt lat="40.3585504554212093353271484375" lon="-1.0853117890655994415283203125">
        <ele>963.5999755859375</ele>
        <time>2021-09-25T12:05:40.000Z</time>
      </trkpt>
      <trkpt lat="40.35851835273206233978271484375" lon="-1.08529753983020782470703125">
        <ele>963.4000244140625</ele>
        <time>2021-09-25T12:05:41.000Z</time>
      </trkpt>
      <trkpt lat="40.35848532803356647491455078125" lon="-1.0852812789380550384521484375">
        <ele>963.20001220703125</ele>
        <time>2021-09-25T12:05:42.000Z</time>
      </trkpt>
      <trkpt lat="40.3584347851574420928955078125" lon="-1.085236184298992156982421875">
        <ele>963</ele>
        <time>2021-09-25T12:05:44.000Z</time>
      </trkpt>
      <trkpt lat="40.35839631222188472747802734375" lon="-1.08517021872103214263916015625">
        <ele>963</ele>
        <time>2021-09-25T12:05:46.000Z</time>
      </trkpt>
      <trkpt lat="40.35793899558484554290771484375" lon="-1.08483343385159969329833984375">
        <ele>957.79998779296875</ele>
        <time>2021-09-25T12:06:06.000Z</time>
      </trkpt>
      <trkpt lat="40.3578579425811767578125" lon="-1.08482505194842815399169921875">
        <ele>956</ele>
        <time>2021-09-25T12:06:07.000Z</time>
      </trkpt>
      <trkpt lat="40.3578084893524646759033203125" lon="-1.08481474220752716064453125">
        <ele>955</ele>
        <time>2021-09-25T12:06:08.000Z</time>
      </trkpt>
      <trkpt lat="40.35773397423326969146728515625" lon="-1.08479705639183521270751953125">
        <ele>953.5999755859375</ele>
        <time>2021-09-25T12:06:10.000Z</time>
      </trkpt>
      <trkpt lat="40.35767630673944950103759765625" lon="-1.08476168476045131683349609375">
        <ele>953.20001220703125</ele>
        <time>2021-09-25T12:06:12.000Z</time>
      </trkpt>
      <trkpt lat="40.357646383345127105712890625" lon="-1.0847398079931735992431640625">
        <ele>953</ele>
        <time>2021-09-25T12:06:13.000Z</time>
      </trkpt>
      <trkpt lat="40.35761964507400989532470703125" lon="-1.08472279272973537445068359375">
        <ele>952.79998779296875</ele>
        <time>2021-09-25T12:06:14.000Z</time>
      </trkpt>
      <trkpt lat="40.35756759345531463623046875" lon="-1.08467937447130680084228515625">
        <ele>952.5999755859375</ele>
        <time>2021-09-25T12:06:16.000Z</time>
      </trkpt>
      <trkpt lat="40.357510261237621307373046875" lon="-1.0846523009240627288818359375">
        <ele>952.20001220703125</ele>
        <time>2021-09-25T12:06:18.000Z</time>
      </trkpt>
      <trkpt lat="40.3574557788670063018798828125" lon="-1.08461617492139339447021484375">
        <ele>952</ele>
        <time>2021-09-25T12:06:20.000Z</time>
      </trkpt>
      <trkpt lat="40.35740456543862819671630859375" lon="-1.08458130620419979095458984375">
        <ele>952.20001220703125</ele>
        <time>2021-09-25T12:06:22.000Z</time>
      </trkpt>
      <trkpt lat="40.3573431260883808135986328125" lon="-1.08454861678183078765869140625">
        <ele>952.5999755859375</ele>
        <time>2021-09-25T12:06:24.000Z</time>
      </trkpt>
      <trkpt lat="40.3572861291468143463134765625" lon="-1.08451525680720806121826171875">
        <ele>953</ele>
        <time>2021-09-25T12:06:26.000Z</time>
      </trkpt>
      <trkpt lat="40.35726224072277545928955078125" lon="-1.0844984091818332672119140625">
        <ele>953</ele>
        <time>2021-09-25T12:06:27.000Z</time>
      </trkpt>
      <trkpt lat="40.35723776556551456451416015625" lon="-1.08447971753776073455810546875">
        <ele>953.20001220703125</ele>
        <time>2021-09-25T12:06:28.000Z</time>
      </trkpt>
      <trkpt lat="40.35718630068004131317138671875" lon="-1.08444317243993282318115234375">
        <ele>953.20001220703125</ele>
        <time>2021-09-25T12:06:30.000Z</time>
      </trkpt>
      <trkpt lat="40.35713600926101207733154296875" lon="-1.0844052024185657501220703125">
        <ele>953.20001220703125</ele>
        <time>2021-09-25T12:06:32.000Z</time>
      </trkpt>
      <trkpt lat="40.35708588548004627227783203125" lon="-1.08437058515846729278564453125">
        <ele>953.5999755859375</ele>
        <time>2021-09-25T12:06:34.000Z</time>
      </trkpt>
      <trkpt lat="40.35703475587069988250732421875" lon="-1.0843404941260814666748046875">
        <ele>953.79998779296875</ele>
        <time>2021-09-25T12:06:36.000Z</time>
      </trkpt>
      <trkpt lat="40.35698245279490947723388671875" lon="-1.08429967425763607025146484375">
        <ele>954.4000244140625</ele>
        <time>2021-09-25T12:06:38.000Z</time>
      </trkpt>
      <trkpt lat="40.3569392859935760498046875" lon="-1.08426296152174472808837890625">
        <ele>954.5999755859375</ele>
        <time>2021-09-25T12:06:40.000Z</time>
      </trkpt>
      <trkpt lat="40.3569190017879009246826171875" lon="-1.08425256796181201934814453125">
        <ele>954.5999755859375</ele>
        <time>2021-09-25T12:06:41.000Z</time>
      </trkpt>
      <trkpt lat="40.35690383054316043853759765625" lon="-1.0842348821461200714111328125">
        <ele>954.5999755859375</ele>
        <time>2021-09-25T12:06:42.000Z</time>
      </trkpt>
      <trkpt lat="40.35687264986336231231689453125" lon="-1.08420277945697307586669921875">
        <ele>954.5999755859375</ele>
        <time>2021-09-25T12:06:44.000Z</time>
      </trkpt>
      <trkpt lat="40.35684247501194477081298828125" lon="-1.084167659282684326171875">
        <ele>954.79998779296875</ele>
        <time>2021-09-25T12:06:46.000Z</time>
      </trkpt>
      <trkpt lat="40.35682872869074344635009765625" lon="-1.08415215276181697845458984375">
        <ele>954.79998779296875</ele>
        <time>2021-09-25T12:06:47.000Z</time>
      </trkpt>
      <trkpt lat="40.35681799985468387603759765625" lon="-1.08413354493677616119384765625">
        <ele>954.79998779296875</ele>
        <time>2021-09-25T12:06:48.000Z</time>
      </trkpt>
      <trkpt lat="40.35679570399224758148193359375" lon="-1.084106303751468658447265625">
        <ele>954.79998779296875</ele>
        <time>2021-09-25T12:06:50.000Z</time>
      </trkpt>
      <trkpt lat="40.35678128711879253387451171875" lon="-1.0840863548219203948974609375">
        <ele>954.79998779296875</ele>
        <time>2021-09-25T12:06:52.000Z</time>
      </trkpt>
      <trkpt lat="40.35677433013916015625" lon="-1.0840778052806854248046875">
        <ele>954.79998779296875</ele>
        <time>2021-09-25T12:06:53.000Z</time>
      </trkpt>
      <trkpt lat="40.3567676246166229248046875" lon="-1.08407151885330677032470703125">
        <ele>954.79998779296875</ele>
        <time>2021-09-25T12:06:54.000Z</time>
      </trkpt>
      <trkpt lat="40.356745161116123199462890625" lon="-1.08406296931207180023193359375">
        <ele>954.79998779296875</ele>
        <time>2021-09-25T12:06:56.000Z</time>
      </trkpt>
      <trkpt lat="40.356731750071048736572265625" lon="-1.0840729437768459320068359375">
        <ele>954.5999755859375</ele>
        <time>2021-09-25T12:06:58.000Z</time>
      </trkpt>
      <trkpt lat="40.3567312471568584442138671875" lon="-1.08408191241323947906494140625">
        <ele>954.5999755859375</ele>
        <time>2021-09-25T12:06:59.000Z</time>
      </trkpt>
      <trkpt lat="40.35673250444233417510986328125" lon="-1.08409951440989971160888671875">
        <ele>954.4000244140625</ele>
        <time>2021-09-25T12:07:00.000Z</time>
      </trkpt>
      <trkpt lat="40.35673133097589015960693359375" lon="-1.08412616886198520660400390625">
        <ele>954.20001220703125</ele>
        <time>2021-09-25T12:07:01.000Z</time>
      </trkpt>
      <trkpt lat="40.35673283971846103668212890625" lon="-1.0841596126556396484375">
        <ele>954</ele>
        <time>2021-09-25T12:07:02.000Z</time>
      </trkpt>
      <trkpt lat="40.35672931931912899017333984375" lon="-1.08421350829303264617919921875">
        <ele>953.5999755859375</ele>
        <time>2021-09-25T12:07:03.000Z</time>
      </trkpt>
      <trkpt lat="40.3567215241491794586181640625" lon="-1.08428006060421466827392578125">
        <ele>953</ele>
        <time>2021-09-25T12:07:04.000Z</time>
      </trkpt>
      <trkpt lat="40.35669378004968166351318359375" lon="-1.084455661475658416748046875">
        <ele>951.20001220703125</ele>
        <time>2021-09-25T12:07:06.000Z</time>
      </trkpt>
      <trkpt lat="40.35664516501128673553466796875" lon="-1.0846569947898387908935546875">
        <ele>948.4000244140625</ele>
        <time>2021-09-25T12:07:08.000Z</time>
      </trkpt>
      <trkpt lat="40.35659353248775005340576171875" lon="-1.0848491080105304718017578125">
        <ele>945.20001220703125</ele>
        <time>2021-09-25T12:07:10.000Z</time>
      </trkpt>
      <trkpt lat="40.35657274536788463592529296875" lon="-1.08493519015610218048095703125">
        <ele>944</ele>
        <time>2021-09-25T12:07:11.000Z</time>
      </trkpt>
      <trkpt lat="40.3565552271902561187744140625" lon="-1.08500693924725055694580078125">
        <ele>943</ele>
        <time>2021-09-25T12:07:12.000Z</time>
      </trkpt>
      <trkpt lat="40.3565408103168010711669921875" lon="-1.08506829477846622467041015625">
        <ele>942</ele>
        <time>2021-09-25T12:07:13.000Z</time>
      </trkpt>
      <trkpt lat="40.35653050057590007781982421875" lon="-1.0851320810616016387939453125">
        <ele>941</ele>
        <time>2021-09-25T12:07:14.000Z</time>
      </trkpt>
      <trkpt lat="40.35652463324368000030517578125" lon="-1.0852008126676082611083984375">
        <ele>940.20001220703125</ele>
        <time>2021-09-25T12:07:15.000Z</time>
      </trkpt>
      <trkpt lat="40.35652547143399715423583984375" lon="-1.0852692089974880218505859375">
        <ele>939.5999755859375</ele>
        <time>2021-09-25T12:07:16.000Z</time>
      </trkpt>
      <trkpt lat="40.35652899183332920074462890625" lon="-1.08533567748963832855224609375">
        <ele>939</ele>
        <time>2021-09-25T12:07:17.000Z</time>
      </trkpt>
      <trkpt lat="40.35654072649776935577392578125" lon="-1.08540072105824947357177734375">
        <ele>938.5999755859375</ele>
        <time>2021-09-25T12:07:18.000Z</time>
      </trkpt>
      <trkpt lat="40.3565776906907558441162109375" lon="-1.08553089201450347900390625">
        <ele>937.79998779296875</ele>
        <time>2021-09-25T12:07:20.000Z</time>
      </trkpt>
      <trkpt lat="40.3566216118633747100830078125" lon="-1.0856497474014759063720703125">
        <ele>936.79998779296875</ele>
        <time>2021-09-25T12:07:22.000Z</time>
      </trkpt>
      <trkpt lat="40.35665455274283885955810546875" lon="-1.085760556161403656005859375">
        <ele>936</ele>
        <time>2021-09-25T12:07:24.000Z</time>
      </trkpt>
      <trkpt lat="40.35667886026203632354736328125" lon="-1.08581629581749439239501953125">
        <ele>935.79998779296875</ele>
        <time>2021-09-25T12:07:25.000Z</time>
      </trkpt>
      <trkpt lat="40.35671121440827846527099609375" lon="-1.085871197283267974853515625">
        <ele>935.79998779296875</ele>
        <time>2021-09-25T12:07:26.000Z</time>
      </trkpt>
      <trkpt lat="40.356788747012615203857421875" lon="-1.08600027859210968017578125">
        <ele>935.79998779296875</ele>
        <time>2021-09-25T12:07:28.000Z</time>
      </trkpt>
      <trkpt lat="40.35686795599758625030517578125" lon="-1.08615123666822910308837890625">
        <ele>935</ele>
        <time>2021-09-25T12:07:30.000Z</time>
      </trkpt>
      <trkpt lat="40.35690718330442905426025390625" lon="-1.0862307809293270111083984375">
        <ele>934.5999755859375</ele>
        <time>2021-09-25T12:07:31.000Z</time>
      </trkpt>
      <trkpt lat="40.356948673725128173828125" lon="-1.086315773427486419677734375">
        <ele>934.5999755859375</ele>
        <time>2021-09-25T12:07:32.000Z</time>
      </trkpt>
      <trkpt lat="40.35701849497854709625244140625" lon="-1.0864944756031036376953125">
        <ele>934.5999755859375</ele>
        <time>2021-09-25T12:07:34.000Z</time>
      </trkpt>
      <trkpt lat="40.35707649774849414825439453125" lon="-1.08667619526386260986328125">
        <ele>934.20001220703125</ele>
        <time>2021-09-25T12:07:36.000Z</time>
      </trkpt>
      <trkpt lat="40.35711572505533695220947265625" lon="-1.0868436656892299652099609375">
        <ele>933</ele>
        <time>2021-09-25T12:07:38.000Z</time>
      </trkpt>
      <trkpt lat="40.3571426309645175933837890625" lon="-1.08700132928788661956787109375">
        <ele>931.20001220703125</ele>
        <time>2021-09-25T12:07:40.000Z</time>
      </trkpt>
      <trkpt lat="40.35715243779122829437255859375" lon="-1.08708095736801624298095703125">
        <ele>930.20001220703125</ele>
        <time>2021-09-25T12:07:41.000Z</time>
      </trkpt>
      <trkpt lat="40.35716249607503414154052734375" lon="-1.0871596634387969970703125">
        <ele>929.20001220703125</ele>
        <time>2021-09-25T12:07:42.000Z</time>
      </trkpt>
      <trkpt lat="40.357183031737804412841796875" lon="-1.087312214076519012451171875">
        <ele>927.79998779296875</ele>
        <time>2021-09-25T12:07:44.000Z</time>
      </trkpt>
      <trkpt lat="40.35718831233680248260498046875" lon="-1.0873876512050628662109375">
        <ele>927</ele>
        <time>2021-09-25T12:07:45.000Z</time>
      </trkpt>
      <trkpt lat="40.3571865521371364593505859375" lon="-1.08746208250522613525390625">
        <ele>926.20001220703125</ele>
        <time>2021-09-25T12:07:46.000Z</time>
      </trkpt>
      <trkpt lat="40.3571878932416439056396484375" lon="-1.0875306464731693267822265625">
        <ele>925.4000244140625</ele>
        <time>2021-09-25T12:07:47.000Z</time>
      </trkpt>
      <trkpt lat="40.35718613304197788238525390625" lon="-1.0875936783850193023681640625">
        <ele>924.79998779296875</ele>
        <time>2021-09-25T12:07:48.000Z</time>
      </trkpt>
      <trkpt lat="40.35717858932912349700927734375" lon="-1.0877237655222415924072265625">
        <ele>923.79998779296875</ele>
        <time>2021-09-25T12:07:50.000Z</time>
      </trkpt>
      <trkpt lat="40.35716635175049304962158203125" lon="-1.08780138194561004638671875">
        <ele>923.5999755859375</ele>
        <time>2021-09-25T12:07:51.000Z</time>
      </trkpt>
      <trkpt lat="40.3571463190019130706787109375" lon="-1.0878753103315830230712890625">
        <ele>923.20001220703125</ele>
        <time>2021-09-25T12:07:52.000Z</time>
      </trkpt>
      <trkpt lat="40.35712058655917644500732421875" lon="-1.08797681517899036407470703125">
        <ele>923.20001220703125</ele>
        <time>2021-09-25T12:07:54.000Z</time>
      </trkpt>
      <trkpt lat="40.35710700787603855133056640625" lon="-1.08804873190820217132568359375">
        <ele>923.4000244140625</ele>
        <time>2021-09-25T12:07:56.000Z</time>
      </trkpt>
      <trkpt lat="40.3571047447621822357177734375" lon="-1.0881324671208858489990234375">
        <ele>923.5999755859375</ele>
        <time>2021-09-25T12:07:58.000Z</time>
      </trkpt>
      <trkpt lat="40.35710088908672332763671875" lon="-1.0882266797125339508056640625">
        <ele>924</ele>
        <time>2021-09-25T12:08:00.000Z</time>
      </trkpt>
      <trkpt lat="40.35709879361093044281005859375" lon="-1.08833514153957366943359375">
        <ele>924.4000244140625</ele>
        <time>2021-09-25T12:08:02.000Z</time>
      </trkpt>
      <trkpt lat="40.35709829069674015045166015625" lon="-1.08844670467078685760498046875">
        <ele>924.79998779296875</ele>
        <time>2021-09-25T12:08:04.000Z</time>
      </trkpt>
      <trkpt lat="40.357095189392566680908203125" lon="-1.08855516649782657623291015625">
        <ele>925.20001220703125</ele>
        <time>2021-09-25T12:08:06.000Z</time>
      </trkpt>
      <trkpt lat="40.35709644667804241180419921875" lon="-1.08865843154489994049072265625">
        <ele>925.5999755859375</ele>
        <time>2021-09-25T12:08:08.000Z</time>
      </trkpt>
      <trkpt lat="40.35709342919290065765380859375" lon="-1.088760606944561004638671875">
        <ele>926</ele>
        <time>2021-09-25T12:08:10.000Z</time>
      </trkpt>
      <trkpt lat="40.357092507183551788330078125" lon="-1.088855154812335968017578125">
        <ele>926.5999755859375</ele>
        <time>2021-09-25T12:08:12.000Z</time>
      </trkpt>
      <trkpt lat="40.35709359683096408843994140625" lon="-1.088902093470096588134765625">
        <ele>927</ele>
        <time>2021-09-25T12:08:13.000Z</time>
      </trkpt>
      <trkpt lat="40.35709275864064693450927734375" lon="-1.0889505408704280853271484375">
        <ele>927.20001220703125</ele>
        <time>2021-09-25T12:08:14.000Z</time>
      </trkpt>
      <trkpt lat="40.35709275864064693450927734375" lon="-1.0890506207942962646484375">
        <ele>928</ele>
        <time>2021-09-25T12:08:16.000Z</time>
      </trkpt>
      <trkpt lat="40.357087813317775726318359375" lon="-1.089152880012989044189453125">
        <ele>928.4000244140625</ele>
        <time>2021-09-25T12:08:18.000Z</time>
      </trkpt>
      <trkpt lat="40.3570854663848876953125" lon="-1.08925572596490383148193359375">
        <ele>928.4000244140625</ele>
        <time>2021-09-25T12:08:20.000Z</time>
      </trkpt>
      <trkpt lat="40.35708404146134853363037109375" lon="-1.08930417336523532867431640625">
        <ele>928.4000244140625</ele>
        <time>2021-09-25T12:08:21.000Z</time>
      </trkpt>
      <trkpt lat="40.3570802696049213409423828125" lon="-1.08935412950813770294189453125">
        <ele>928.4000244140625</ele>
        <time>2021-09-25T12:08:22.000Z</time>
      </trkpt>
      <trkpt lat="40.35707146860659122467041015625" lon="-1.0894564725458621978759765625">
        <ele>928.4000244140625</ele>
        <time>2021-09-25T12:08:24.000Z</time>
      </trkpt>
      <trkpt lat="40.357065685093402862548828125" lon="-1.08955227769911289215087890625">
        <ele>928</ele>
        <time>2021-09-25T12:08:26.000Z</time>
      </trkpt>
      <trkpt lat="40.3570614941418170928955078125" lon="-1.0896013118326663970947265625">
        <ele>927.79998779296875</ele>
        <time>2021-09-25T12:08:27.000Z</time>
      </trkpt>
      <trkpt lat="40.35705931484699249267578125" lon="-1.089648418128490447998046875">
        <ele>927.79998779296875</ele>
        <time>2021-09-25T12:08:28.000Z</time>
      </trkpt>
      <trkpt lat="40.35705571062862873077392578125" lon="-1.0897448100149631500244140625">
        <ele>928</ele>
        <time>2021-09-25T12:08:30.000Z</time>
      </trkpt>
      <trkpt lat="40.35705269314348697662353515625" lon="-1.0898316465318202972412109375">
        <ele>928</ele>
        <time>2021-09-25T12:08:32.000Z</time>
      </trkpt>
      <trkpt lat="40.35704565234482288360595703125" lon="-1.08992393128573894500732421875">
        <ele>928.20001220703125</ele>
        <time>2021-09-25T12:08:34.000Z</time>
      </trkpt>
      <trkpt lat="40.3570450656116008758544921875" lon="-1.0900126956403255462646484375">
        <ele>928.4000244140625</ele>
        <time>2021-09-25T12:08:36.000Z</time>
      </trkpt>
      <trkpt lat="40.35704196430742740631103515625" lon="-1.09009425155818462371826171875">
        <ele>928.79998779296875</ele>
        <time>2021-09-25T12:08:38.000Z</time>
      </trkpt>
      <trkpt lat="40.35703961737453937530517578125" lon="-1.0901789925992488861083984375">
        <ele>929</ele>
        <time>2021-09-25T12:08:40.000Z</time>
      </trkpt>
      <trkpt lat="40.35703375004231929779052734375" lon="-1.09026490710675716400146484375">
        <ele>929.4000244140625</ele>
        <time>2021-09-25T12:08:42.000Z</time>
      </trkpt>
      <trkpt lat="40.35703056491911411285400390625" lon="-1.09034135006368160247802734375">
        <ele>929.79998779296875</ele>
        <time>2021-09-25T12:08:44.000Z</time>
      </trkpt>
      <trkpt lat="40.3570279665291309356689453125" lon="-1.090414524078369140625">
        <ele>930.4000244140625</ele>
        <time>2021-09-25T12:08:46.000Z</time>
      </trkpt>
      <trkpt lat="40.35702486522495746612548828125" lon="-1.0904936492443084716796875">
        <ele>930.79998779296875</ele>
        <time>2021-09-25T12:08:48.000Z</time>
      </trkpt>
      <trkpt lat="40.35702100954949855804443359375" lon="-1.09056464396417140960693359375">
        <ele>931</ele>
        <time>2021-09-25T12:08:50.000Z</time>
      </trkpt>
      <trkpt lat="40.35702042281627655029296875" lon="-1.09059850685298442840576171875">
        <ele>931.20001220703125</ele>
        <time>2021-09-25T12:08:51.000Z</time>
      </trkpt>
      <trkpt lat="40.3570202551782131195068359375" lon="-1.0906289331614971160888671875">
        <ele>931.4000244140625</ele>
        <time>2021-09-25T12:08:52.000Z</time>
      </trkpt>
      <trkpt lat="40.35701698623597621917724609375" lon="-1.0906795598566532135009765625">
        <ele>931.79998779296875</ele>
        <time>2021-09-25T12:08:54.000Z</time>
      </trkpt>
      <trkpt lat="40.357011370360851287841796875" lon="-1.090734042227268218994140625">
        <ele>932.20001220703125</ele>
        <time>2021-09-25T12:08:56.000Z</time>
      </trkpt>
      <trkpt lat="40.35700173117220401763916015625" lon="-1.0907855071127414703369140625">
        <ele>932.4000244140625</ele>
        <time>2021-09-25T12:08:58.000Z</time>
      </trkpt>
      <trkpt lat="40.35698479972779750823974609375" lon="-1.09082666225731372833251953125">
        <ele>932.79998779296875</ele>
        <time>2021-09-25T12:09:00.000Z</time>
      </trkpt>
      <trkpt lat="40.35696686245501041412353515625" lon="-1.090866811573505401611328125">
        <ele>933</ele>
        <time>2021-09-25T12:09:02.000Z</time>
      </trkpt>
      <trkpt lat="40.3569377772510051727294921875" lon="-1.09089489094913005828857421875">
        <ele>933.20001220703125</ele>
        <time>2021-09-25T12:09:04.000Z</time>
      </trkpt>
      <trkpt lat="40.35690642893314361572265625" lon="-1.09091668389737606048583984375">
        <ele>933.4000244140625</ele>
        <time>2021-09-25T12:09:06.000Z</time>
      </trkpt>
      <trkpt lat="40.35687482915818691253662109375" lon="-1.09093487262725830078125">
        <ele>933.5999755859375</ele>
        <time>2021-09-25T12:09:08.000Z</time>
      </trkpt>
      <trkpt lat="40.3568365238606929779052734375" lon="-1.09095071442425251007080078125">
        <ele>934</ele>
        <time>2021-09-25T12:09:10.000Z</time>
      </trkpt>
      <trkpt lat="40.35681934095919132232666015625" lon="-1.09095859341323375701904296875">
        <ele>934</ele>
        <time>2021-09-25T12:09:11.000Z</time>
      </trkpt>
      <trkpt lat="40.3568024933338165283203125" lon="-1.09096613712608814239501953125">
        <ele>934.20001220703125</ele>
        <time>2021-09-25T12:09:12.000Z</time>
      </trkpt>
      <trkpt lat="40.35676904954016208648681640625" lon="-1.09097778797149658203125">
        <ele>934.4000244140625</ele>
        <time>2021-09-25T12:09:14.000Z</time>
      </trkpt>
      <trkpt lat="40.35673032514750957489013671875" lon="-1.090983487665653228759765625">
        <ele>934.5999755859375</ele>
        <time>2021-09-25T12:09:16.000Z</time>
      </trkpt>
      <trkpt lat="40.35669847391545772552490234375" lon="-1.09099077992141246795654296875">
        <ele>934.5999755859375</ele>
        <time>2021-09-25T12:09:18.000Z</time>
      </trkpt>
      <trkpt lat="40.35666896961629390716552734375" lon="-1.09100284986197948455810546875">
        <ele>934.79998779296875</ele>
        <time>2021-09-25T12:09:20.000Z</time>
      </trkpt>
      <trkpt lat="40.3566397167742252349853515625" lon="-1.091019026935100555419921875">
        <ele>935.20001220703125</ele>
        <time>2021-09-25T12:09:22.000Z</time>
      </trkpt>
      <trkpt lat="40.35661197267472743988037109375" lon="-1.0910312645137310028076171875">
        <ele>935.20001220703125</ele>
        <time>2021-09-25T12:09:24.000Z</time>
      </trkpt>
      <trkpt lat="40.35658364184200763702392578125" lon="-1.091055572032928466796875">
        <ele>935.4000244140625</ele>
        <time>2021-09-25T12:09:26.000Z</time>
      </trkpt>
      <trkpt lat="40.35657115280628204345703125" lon="-1.091063283383846282958984375">
        <ele>935.4000244140625</ele>
        <time>2021-09-25T12:09:27.000Z</time>
      </trkpt>
      <trkpt lat="40.35655732266604900360107421875" lon="-1.09107292257249355316162109375">
        <ele>935.5999755859375</ele>
        <time>2021-09-25T12:09:28.000Z</time>
      </trkpt>
      <trkpt lat="40.356529243290424346923828125" lon="-1.091101504862308502197265625">
        <ele>935.79998779296875</ele>
        <time>2021-09-25T12:09:30.000Z</time>
      </trkpt>
      <trkpt lat="40.35650812089443206787109375" lon="-1.0911318473517894744873046875">
        <ele>936</ele>
        <time>2021-09-25T12:09:32.000Z</time>
      </trkpt>
      <trkpt lat="40.35650149919092655181884765625" lon="-1.0911481082439422607421875">
        <ele>936</ele>
        <time>2021-09-25T12:09:33.000Z</time>
      </trkpt>
      <trkpt lat="40.35649328492581844329833984375" lon="-1.09116193838417530059814453125">
        <ele>936.20001220703125</ele>
        <time>2021-09-25T12:09:34.000Z</time>
      </trkpt>
      <trkpt lat="40.3564744256436824798583984375" lon="-1.09120242297649383544921875">
        <ele>936.4000244140625</ele>
        <time>2021-09-25T12:09:36.000Z</time>
      </trkpt>
      <trkpt lat="40.356464199721813201904296875" lon="-1.0912468470633029937744140625">
        <ele>936.79998779296875</ele>
        <time>2021-09-25T12:09:38.000Z</time>
      </trkpt>
      <trkpt lat="40.35645850002765655517578125" lon="-1.09127174131572246551513671875">
        <ele>937</ele>
        <time>2021-09-25T12:09:39.000Z</time>
      </trkpt>
      <trkpt lat="40.35645556636154651641845703125" lon="-1.09128959476947784423828125">
        <ele>937</ele>
        <time>2021-09-25T12:09:40.000Z</time>
      </trkpt>
      <trkpt lat="40.35644433461129665374755859375" lon="-1.09132505021989345550537109375">
        <ele>937.20001220703125</ele>
        <time>2021-09-25T12:09:42.000Z</time>
      </trkpt>
      <trkpt lat="40.35643612034618854522705078125" lon="-1.0913693904876708984375">
        <ele>937.4000244140625</ele>
        <time>2021-09-25T12:09:44.000Z</time>
      </trkpt>
      <trkpt lat="40.3564325161278247833251953125" lon="-1.0914082825183868408203125">
        <ele>937.4000244140625</ele>
        <time>2021-09-25T12:09:46.000Z</time>
      </trkpt>
      <trkpt lat="40.3564325161278247833251953125" lon="-1.09145362861454486846923828125">
        <ele>937.5999755859375</ele>
        <time>2021-09-25T12:09:48.000Z</time>
      </trkpt>
      <trkpt lat="40.356427989900112152099609375" lon="-1.0914956219494342803955078125">
        <ele>937.79998779296875</ele>
        <time>2021-09-25T12:09:50.000Z</time>
      </trkpt>
      <trkpt lat="40.3564318455755710601806640625" lon="-1.09153476543724536895751953125">
        <ele>938.20001220703125</ele>
        <time>2021-09-25T12:09:52.000Z</time>
      </trkpt>
      <trkpt lat="40.3564291633665561676025390625" lon="-1.0915780998766422271728515625">
        <ele>938.5999755859375</ele>
        <time>2021-09-25T12:09:54.000Z</time>
      </trkpt>
      <trkpt lat="40.356422960758209228515625" lon="-1.09161573462188243865966796875">
        <ele>939</ele>
        <time>2021-09-25T12:09:56.000Z</time>
      </trkpt>
      <trkpt lat="40.35641365684568881988525390625" lon="-1.09165714122354984283447265625">
        <ele>939.4000244140625</ele>
        <time>2021-09-25T12:09:58.000Z</time>
      </trkpt>
      <trkpt lat="40.356409884989261627197265625" lon="-1.0916987992823123931884765625">
        <ele>939.79998779296875</ele>
        <time>2021-09-25T12:10:00.000Z</time>
      </trkpt>
      <trkpt lat="40.35640745423734188079833984375" lon="-1.09172034077346324920654296875">
        <ele>940</ele>
        <time>2021-09-25T12:10:01.000Z</time>
      </trkpt>
      <trkpt lat="40.3564023412764072418212890625" lon="-1.091742217540740966796875">
        <ele>940.20001220703125</ele>
        <time>2021-09-25T12:10:02.000Z</time>
      </trkpt>
      <trkpt lat="40.35639546811580657958984375" lon="-1.0917789302766323089599609375">
        <ele>940.5999755859375</ele>
        <time>2021-09-25T12:10:04.000Z</time>
      </trkpt>
      <trkpt lat="40.3563894331455230712890625" lon="-1.0918278805911540985107421875">
        <ele>940.79998779296875</ele>
        <time>2021-09-25T12:10:06.000Z</time>
      </trkpt>
      <trkpt lat="40.3563782013952732086181640625" lon="-1.09186853282153606414794921875">
        <ele>941.5999755859375</ele>
        <time>2021-09-25T12:10:08.000Z</time>
      </trkpt>
      <trkpt lat="40.3563728369772434234619140625" lon="-1.09188697300851345062255859375">
        <ele>942</ele>
        <time>2021-09-25T12:10:09.000Z</time>
      </trkpt>
      <trkpt lat="40.3563664667308330535888671875" lon="-1.09190524555742740631103515625">
        <ele>942.20001220703125</ele>
        <time>2021-09-25T12:10:10.000Z</time>
      </trkpt>
      <trkpt lat="40.35635791718959808349609375" lon="-1.09194380231201648712158203125">
        <ele>943</ele>
        <time>2021-09-25T12:10:12.000Z</time>
      </trkpt>
      <trkpt lat="40.35634517669677734375" lon="-1.09198437072336673736572265625">
        <ele>943.79998779296875</ele>
        <time>2021-09-25T12:10:14.000Z</time>
      </trkpt>
      <trkpt lat="40.3563302569091320037841796875" lon="-1.09201773069798946380615234375">
        <ele>944.4000244140625</ele>
        <time>2021-09-25T12:10:16.000Z</time>
      </trkpt>
      <trkpt lat="40.35631366074085235595703125" lon="-1.09205444343388080596923828125">
        <ele>945</ele>
        <time>2021-09-25T12:10:18.000Z</time>
      </trkpt>
      <trkpt lat="40.35629647783935070037841796875" lon="-1.09208964742720127105712890625">
        <ele>945.5999755859375</ele>
        <time>2021-09-25T12:10:20.000Z</time>
      </trkpt>
      <trkpt lat="40.3562799654901027679443359375" lon="-1.09212133102118968963623046875">
        <ele>946.20001220703125</ele>
        <time>2021-09-25T12:10:22.000Z</time>
      </trkpt>
      <trkpt lat="40.35626814700663089752197265625" lon="-1.09215033240616321563720703125">
        <ele>946.79998779296875</ele>
        <time>2021-09-25T12:10:24.000Z</time>
      </trkpt>
      <trkpt lat="40.3562605194747447967529296875" lon="-1.0921591334044933319091796875">
        <ele>947</ele>
        <time>2021-09-25T12:10:25.000Z</time>
      </trkpt>
      <trkpt lat="40.35625289194285869598388671875" lon="-1.09217061661183834075927734375">
        <ele>947.20001220703125</ele>
        <time>2021-09-25T12:10:26.000Z</time>
      </trkpt>
      <trkpt lat="40.35623512230813503265380859375" lon="-1.0921966843307018280029296875">
        <ele>947.5999755859375</ele>
        <time>2021-09-25T12:10:28.000Z</time>
      </trkpt>
      <trkpt lat="40.3562098927795886993408203125" lon="-1.09223515726625919342041015625">
        <ele>948.20001220703125</ele>
        <time>2021-09-25T12:10:30.000Z</time>
      </trkpt>
      <trkpt lat="40.35619254224002361297607421875" lon="-1.0922670923173427581787109375">
        <ele>948.79998779296875</ele>
        <time>2021-09-25T12:10:32.000Z</time>
      </trkpt>
      <trkpt lat="40.35618566907942295074462890625" lon="-1.09228109009563922882080078125">
        <ele>949.20001220703125</ele>
        <time>2021-09-25T12:10:33.000Z</time>
      </trkpt>
      <trkpt lat="40.3561790473759174346923828125" lon="-1.0922942496836185455322265625">
        <ele>949.4000244140625</ele>
        <time>2021-09-25T12:10:34.000Z</time>
      </trkpt>
      <trkpt lat="40.35616211593151092529296875" lon="-1.0923267714679241180419921875">
        <ele>950</ele>
        <time>2021-09-25T12:10:36.000Z</time>
      </trkpt>
      <trkpt lat="40.3561458550393581390380859375" lon="-1.092350743710994720458984375">
        <ele>950.4000244140625</ele>
        <time>2021-09-25T12:10:38.000Z</time>
      </trkpt>
      <trkpt lat="40.35612682811915874481201171875" lon="-1.09238066710531711578369140625">
        <ele>951</ele>
        <time>2021-09-25T12:10:40.000Z</time>
      </trkpt>
      <trkpt lat="40.3561217151582241058349609375" lon="-1.09239374287426471710205078125">
        <ele>951.20001220703125</ele>
        <time>2021-09-25T12:10:41.000Z</time>
      </trkpt>
      <trkpt lat="40.3561109863221645355224609375" lon="-1.09240447171032428741455078125">
        <ele>951.4000244140625</ele>
        <time>2021-09-25T12:10:42.000Z</time>
      </trkpt>
      <trkpt lat="40.35609330050647258758544921875" lon="-1.09243313781917095184326171875">
        <ele>951.79998779296875</ele>
        <time>2021-09-25T12:10:44.000Z</time>
      </trkpt>
      <trkpt lat="40.35607670433819293975830078125" lon="-1.0924561880528926849365234375">
        <ele>952</ele>
        <time>2021-09-25T12:10:46.000Z</time>
      </trkpt>
      <trkpt lat="40.356059856712818145751953125" lon="-1.092486195266246795654296875">
        <ele>952.4000244140625</ele>
        <time>2021-09-25T12:10:48.000Z</time>
      </trkpt>
      <trkpt lat="40.356037728488445281982421875" lon="-1.0925215668976306915283203125">
        <ele>953</ele>
        <time>2021-09-25T12:10:50.000Z</time>
      </trkpt>
      <trkpt lat="40.35601886920630931854248046875" lon="-1.09255333431065082550048828125">
        <ele>953.4000244140625</ele>
        <time>2021-09-25T12:10:52.000Z</time>
      </trkpt>
      <trkpt lat="40.35600780509412288665771484375" lon="-1.0925886221230030059814453125">
        <ele>954</ele>
        <time>2021-09-25T12:10:54.000Z</time>
      </trkpt>
      <trkpt lat="40.35600118339061737060546875" lon="-1.092603206634521484375">
        <ele>954.20001220703125</ele>
        <time>2021-09-25T12:10:55.000Z</time>
      </trkpt>
      <trkpt lat="40.35599137656390666961669921875" lon="-1.09261536039412021636962890625">
        <ele>954.20001220703125</ele>
        <time>2021-09-25T12:10:56.000Z</time>
      </trkpt>
      <trkpt lat="40.35597461275756359100341796875" lon="-1.09264872036874294281005859375">
        <ele>954.79998779296875</ele>
        <time>2021-09-25T12:10:58.000Z</time>
      </trkpt>
      <trkpt lat="40.35595851950347423553466796875" lon="-1.09268358908593654632568359375">
        <ele>955.20001220703125</ele>
        <time>2021-09-25T12:11:00.000Z</time>
      </trkpt>
      <trkpt lat="40.35594142042100429534912109375" lon="-1.0927096568048000335693359375">
        <ele>955.4000244140625</ele>
        <time>2021-09-25T12:11:02.000Z</time>
      </trkpt>
      <trkpt lat="40.35593354143202304840087890625" lon="-1.0927257500588893890380859375">
        <ele>955.5999755859375</ele>
        <time>2021-09-25T12:11:03.000Z</time>
      </trkpt>
      <trkpt lat="40.35592800937592983245849609375" lon="-1.09274326823651790618896484375">
        <ele>955.79998779296875</ele>
        <time>2021-09-25T12:11:04.000Z</time>
      </trkpt>
      <trkpt lat="40.35592549480497837066650390625" lon="-1.09277687966823577880859375">
        <ele>956.20001220703125</ele>
        <time>2021-09-25T12:11:06.000Z</time>
      </trkpt>
      <trkpt lat="40.355933792889118194580078125" lon="-1.09281241893768310546875">
        <ele>956.4000244140625</ele>
        <time>2021-09-25T12:11:08.000Z</time>
      </trkpt>
      <trkpt lat="40.35593974404036998748779296875" lon="-1.0928285121917724609375">
        <ele>956.4000244140625</ele>
        <time>2021-09-25T12:11:09.000Z</time>
      </trkpt>
      <trkpt lat="40.3559470362961292266845703125" lon="-1.09284334816038608551025390625">
        <ele>956.4000244140625</ele>
        <time>2021-09-25T12:11:10.000Z</time>
      </trkpt>
      <trkpt lat="40.355958603322505950927734375" lon="-1.0928793065249919891357421875">
        <ele>956.20001220703125</ele>
        <time>2021-09-25T12:11:12.000Z</time>
      </trkpt>
      <trkpt lat="40.35597008652985095977783203125" lon="-1.0929155163466930389404296875">
        <ele>956</ele>
        <time>2021-09-25T12:11:14.000Z</time>
      </trkpt>
      <trkpt lat="40.35598534159362316131591796875" lon="-1.0929450206458568572998046875">
        <ele>956</ele>
        <time>2021-09-25T12:11:16.000Z</time>
      </trkpt>
      <trkpt lat="40.3559959866106510162353515625" lon="-1.092983074486255645751953125">
        <ele>956</ele>
        <time>2021-09-25T12:11:18.000Z</time>
      </trkpt>
      <trkpt lat="40.356005541980266571044921875" lon="-1.0930238105356693267822265625">
        <ele>956</ele>
        <time>2021-09-25T12:11:20.000Z</time>
      </trkpt>
      <trkpt lat="40.3560166060924530029296875" lon="-1.09306010417640209197998046875">
        <ele>956</ele>
        <time>2021-09-25T12:11:22.000Z</time>
      </trkpt>
      <trkpt lat="40.35603068768978118896484375" lon="-1.0930972360074520111083984375">
        <ele>956</ele>
        <time>2021-09-25T12:11:24.000Z</time>
      </trkpt>
      <trkpt lat="40.3560435958206653594970703125" lon="-1.0931356251239776611328125">
        <ele>956</ele>
        <time>2021-09-25T12:11:26.000Z</time>
      </trkpt>
      <trkpt lat="40.3560560010373592376708984375" lon="-1.09317242167890071868896484375">
        <ele>956</ele>
        <time>2021-09-25T12:11:28.000Z</time>
      </trkpt>
      <trkpt lat="40.35606228746473789215087890625" lon="-1.0931931249797344207763671875">
        <ele>956</ele>
        <time>2021-09-25T12:11:29.000Z</time>
      </trkpt>
      <trkpt lat="40.35606966353952884674072265625" lon="-1.09320879913866519927978515625">
        <ele>956</ele>
        <time>2021-09-25T12:11:30.000Z</time>
      </trkpt>
      <trkpt lat="40.35607402212917804718017578125" lon="-1.09323092736303806304931640625">
        <ele>956.20001220703125</ele>
        <time>2021-09-25T12:11:31.000Z</time>
      </trkpt>
      <trkpt lat="40.35607771016657352447509765625" lon="-1.0932563245296478271484375">
        <ele>956.4000244140625</ele>
        <time>2021-09-25T12:11:32.000Z</time>
      </trkpt>
      <trkpt lat="40.35608709789812564849853515625" lon="-1.093298234045505523681640625">
        <ele>957</ele>
        <time>2021-09-25T12:11:34.000Z</time>
      </trkpt>
      <trkpt lat="40.3560943901538848876953125" lon="-1.09334257431328296661376953125">
        <ele>957.5999755859375</ele>
        <time>2021-09-25T12:11:36.000Z</time>
      </trkpt>
      <trkpt lat="40.356104783713817596435546875" lon="-1.09339554794132709503173828125">
        <ele>958.20001220703125</ele>
        <time>2021-09-25T12:11:38.000Z</time>
      </trkpt>
      <trkpt lat="40.35611526109278202056884765625" lon="-1.09344466589391231536865234375">
        <ele>959</ele>
        <time>2021-09-25T12:11:40.000Z</time>
      </trkpt>
      <trkpt lat="40.35612598992884159088134765625" lon="-1.093486659228801727294921875">
        <ele>959.20001220703125</ele>
        <time>2021-09-25T12:11:42.000Z</time>
      </trkpt>
      <trkpt lat="40.35613168962299823760986328125" lon="-1.09353460371494293212890625">
        <ele>959.79998779296875</ele>
        <time>2021-09-25T12:11:44.000Z</time>
      </trkpt>
      <trkpt lat="40.35613437183201313018798828125" lon="-1.09358196146786212921142578125">
        <ele>960.5999755859375</ele>
        <time>2021-09-25T12:11:46.000Z</time>
      </trkpt>
      <trkpt lat="40.35614191554486751556396484375" lon="-1.09362169168889522552490234375">
        <ele>961.20001220703125</ele>
        <time>2021-09-25T12:11:48.000Z</time>
      </trkpt>
      <trkpt lat="40.3561502136290073394775390625" lon="-1.09366360120475292205810546875">
        <ele>961.79998779296875</ele>
        <time>2021-09-25T12:11:50.000Z</time>
      </trkpt>
      <trkpt lat="40.3561560809612274169921875" lon="-1.0937042534351348876953125">
        <ele>962.4000244140625</ele>
        <time>2021-09-25T12:11:52.000Z</time>
      </trkpt>
      <trkpt lat="40.3561599366366863250732421875" lon="-1.09374758787453174591064453125">
        <ele>962.5999755859375</ele>
        <time>2021-09-25T12:11:54.000Z</time>
      </trkpt>
      <trkpt lat="40.35616052336990833282470703125" lon="-1.093771643936634063720703125">
        <ele>962.79998779296875</ele>
        <time>2021-09-25T12:11:55.000Z</time>
      </trkpt>
      <trkpt lat="40.35615985281765460968017578125" lon="-1.0937932692468166351318359375">
        <ele>963</ele>
        <time>2021-09-25T12:11:56.000Z</time>
      </trkpt>
      <trkpt lat="40.35616337321698665618896484375" lon="-1.09384163282811641693115234375">
        <ele>963.4000244140625</ele>
        <time>2021-09-25T12:11:58.000Z</time>
      </trkpt>
      <trkpt lat="40.3561649657785892486572265625" lon="-1.09389091841876506805419921875">
        <ele>963.79998779296875</ele>
        <time>2021-09-25T12:12:00.000Z</time>
      </trkpt>
      <trkpt lat="40.3561639599502086639404296875" lon="-1.0939102806150913238525390625">
        <ele>964.20001220703125</ele>
        <time>2021-09-25T12:12:01.000Z</time>
      </trkpt>
      <trkpt lat="40.356165133416652679443359375" lon="-1.09393157064914703369140625">
        <ele>964.4000244140625</ele>
        <time>2021-09-25T12:12:02.000Z</time>
      </trkpt>
      <trkpt lat="40.3561673127114772796630859375" lon="-1.0939763300120830535888671875">
        <ele>964.5999755859375</ele>
        <time>2021-09-25T12:12:04.000Z</time>
      </trkpt>
      <trkpt lat="40.35616823472082614898681640625" lon="-1.0940261185169219970703125">
        <ele>964.5999755859375</ele>
        <time>2021-09-25T12:12:06.000Z</time>
      </trkpt>
      <trkpt lat="40.35616974346339702606201171875" lon="-1.094072721898555755615234375">
        <ele>964.5999755859375</ele>
        <time>2021-09-25T12:12:08.000Z</time>
      </trkpt>
      <trkpt lat="40.3561716713011264801025390625" lon="-1.09409543685615062713623046875">
        <ele>964.5999755859375</ele>
        <time>2021-09-25T12:12:09.000Z</time>
      </trkpt>
      <trkpt lat="40.35617225803434848785400390625" lon="-1.09412091784179210662841796875">
        <ele>964.5999755859375</ele>
        <time>2021-09-25T12:12:10.000Z</time>
      </trkpt>
      <trkpt lat="40.3561713360249996185302734375" lon="-1.0941687785089015960693359375">
        <ele>964.79998779296875</ele>
        <time>2021-09-25T12:12:12.000Z</time>
      </trkpt>
      <trkpt lat="40.35617410205304622650146484375" lon="-1.09421588480472564697265625">
        <ele>964.79998779296875</ele>
        <time>2021-09-25T12:12:14.000Z</time>
      </trkpt>
      <trkpt lat="40.35617326386272907257080078125" lon="-1.0942626558244228363037109375">
        <ele>965</ele>
        <time>2021-09-25T12:12:16.000Z</time>
      </trkpt>
      <trkpt lat="40.35617326386272907257080078125" lon="-1.09430833719670772552490234375">
        <ele>965.20001220703125</ele>
        <time>2021-09-25T12:12:18.000Z</time>
      </trkpt>
      <trkpt lat="40.3561733476817607879638671875" lon="-1.0943525098264217376708984375">
        <ele>965.20001220703125</ele>
        <time>2021-09-25T12:12:20.000Z</time>
      </trkpt>
      <trkpt lat="40.35617007873952388763427734375" lon="-1.09439802356064319610595703125">
        <ele>965</ele>
        <time>2021-09-25T12:12:22.000Z</time>
      </trkpt>
      <trkpt lat="40.35616940818727016448974609375" lon="-1.09441973268985748291015625">
        <ele>964.79998779296875</ele>
        <time>2021-09-25T12:12:23.000Z</time>
      </trkpt>
      <trkpt lat="40.356165803968906402587890625" lon="-1.09444093890488147735595703125">
        <ele>964.79998779296875</ele>
        <time>2021-09-25T12:12:24.000Z</time>
      </trkpt>
      <trkpt lat="40.35616370849311351776123046875" lon="-1.0944893024861812591552734375">
        <ele>964.5999755859375</ele>
        <time>2021-09-25T12:12:26.000Z</time>
      </trkpt>
      <trkpt lat="40.35615297965705394744873046875" lon="-1.094537079334259033203125">
        <ele>964.5999755859375</ele>
        <time>2021-09-25T12:12:28.000Z</time>
      </trkpt>
      <trkpt lat="40.35614711232483386993408203125" lon="-1.09456063248217105865478515625">
        <ele>964.79998779296875</ele>
        <time>2021-09-25T12:12:29.000Z</time>
      </trkpt>
      <trkpt lat="40.35614040680229663848876953125" lon="-1.09458510763943195343017578125">
        <ele>964.79998779296875</ele>
        <time>2021-09-25T12:12:30.000Z</time>
      </trkpt>
      <trkpt lat="40.35612917505204677581787109375" lon="-1.0946254245936870574951171875">
        <ele>965</ele>
        <time>2021-09-25T12:12:32.000Z</time>
      </trkpt>
      <trkpt lat="40.35611894913017749786376953125" lon="-1.09466775320470333099365234375">
        <ele>964.79998779296875</ele>
        <time>2021-09-25T12:12:34.000Z</time>
      </trkpt>
      <trkpt lat="40.3561046160757541656494140625" lon="-1.09471670351922512054443359375">
        <ele>964.79998779296875</ele>
        <time>2021-09-25T12:12:36.000Z</time>
      </trkpt>
      <trkpt lat="40.3560895286500453948974609375" lon="-1.0947556793689727783203125">
        <ele>964.79998779296875</ele>
        <time>2021-09-25T12:12:38.000Z</time>
      </trkpt>
      <trkpt lat="40.35607083700597286224365234375" lon="-1.094792224466800689697265625">
        <ele>965</ele>
        <time>2021-09-25T12:12:40.000Z</time>
      </trkpt>
      <trkpt lat="40.35604367963969707489013671875" lon="-1.09483455307781696319580078125">
        <ele>965.4000244140625</ele>
        <time>2021-09-25T12:12:42.000Z</time>
      </trkpt>
      <trkpt lat="40.356025658547878265380859375" lon="-1.094877384603023529052734375">
        <ele>965.4000244140625</ele>
        <time>2021-09-25T12:12:44.000Z</time>
      </trkpt>
      <trkpt lat="40.35600495524704456329345703125" lon="-1.094912253320217132568359375">
        <ele>965.79998779296875</ele>
        <time>2021-09-25T12:12:46.000Z</time>
      </trkpt>
      <trkpt lat="40.3559983335435390472412109375" lon="-1.09493161551654338836669921875">
        <ele>965.79998779296875</ele>
        <time>2021-09-25T12:12:47.000Z</time>
      </trkpt>
      <trkpt lat="40.35598601214587688446044921875" lon="-1.094954498112201690673828125">
        <ele>966</ele>
        <time>2021-09-25T12:12:48.000Z</time>
      </trkpt>
      <trkpt lat="40.3559694997966289520263671875" lon="-1.09498827718198299407958984375">
        <ele>966.20001220703125</ele>
        <time>2021-09-25T12:12:50.000Z</time>
      </trkpt>
      <trkpt lat="40.35594762302935123443603515625" lon="-1.09502666629850864410400390625">
        <ele>966.5999755859375</ele>
        <time>2021-09-25T12:12:52.000Z</time>
      </trkpt>
      <trkpt lat="40.35592474043369293212890625" lon="-1.0950643010437488555908203125">
        <ele>967</ele>
        <time>2021-09-25T12:12:54.000Z</time>
      </trkpt>
      <trkpt lat="40.35590604878962039947509765625" lon="-1.09510746784508228302001953125">
        <ele>967.20001220703125</ele>
        <time>2021-09-25T12:12:56.000Z</time>
      </trkpt>
      <trkpt lat="40.3558876924216747283935546875" lon="-1.095149628818035125732421875">
        <ele>967.4000244140625</ele>
        <time>2021-09-25T12:12:58.000Z</time>
      </trkpt>
      <trkpt lat="40.35586573183536529541015625" lon="-1.09518910758197307586669921875">
        <ele>967.79998779296875</ele>
        <time>2021-09-25T12:13:00.000Z</time>
      </trkpt>
      <trkpt lat="40.35584695637226104736328125" lon="-1.09523202292621135711669921875">
        <ele>968.20001220703125</ele>
        <time>2021-09-25T12:13:02.000Z</time>
      </trkpt>
      <trkpt lat="40.355827175080776214599609375" lon="-1.09527225606143474578857421875">
        <ele>968.5999755859375</ele>
        <time>2021-09-25T12:13:04.000Z</time>
      </trkpt>
      <trkpt lat="40.35580697469413280487060546875" lon="-1.095307879149913787841796875">
        <ele>969</ele>
        <time>2021-09-25T12:13:06.000Z</time>
      </trkpt>
      <trkpt lat="40.35579289309680461883544921875" lon="-1.0953419096767902374267578125">
        <ele>969.4000244140625</ele>
        <time>2021-09-25T12:13:08.000Z</time>
      </trkpt>
      <trkpt lat="40.35578467883169651031494140625" lon="-1.09535573981702327728271484375">
        <ele>969.4000244140625</ele>
        <time>2021-09-25T12:13:09.000Z</time>
      </trkpt>
      <trkpt lat="40.35577579401433467864990234375" lon="-1.09537334181368350982666015625">
        <ele>969.4000244140625</ele>
        <time>2021-09-25T12:13:10.000Z</time>
      </trkpt>
      <trkpt lat="40.3557564318180084228515625" lon="-1.0954139940440654754638671875">
        <ele>969.5999755859375</ele>
        <time>2021-09-25T12:13:12.000Z</time>
      </trkpt>
      <trkpt lat="40.35573539324104785919189453125" lon="-1.0954559035599231719970703125">
        <ele>969.5999755859375</ele>
        <time>2021-09-25T12:13:14.000Z</time>
      </trkpt>
      <trkpt lat="40.35572382621467113494873046875" lon="-1.095474176108837127685546875">
        <ele>969.5999755859375</ele>
        <time>2021-09-25T12:13:15.000Z</time>
      </trkpt>
      <trkpt lat="40.35570823587477207183837890625" lon="-1.0954879224300384521484375">
        <ele>969.5999755859375</ele>
        <time>2021-09-25T12:13:16.000Z</time>
      </trkpt>
      <trkpt lat="40.35568610765039920806884765625" lon="-1.09552036039531230926513671875">
        <ele>969.5999755859375</ele>
        <time>2021-09-25T12:13:18.000Z</time>
      </trkpt>
      <trkpt lat="40.35566431470215320587158203125" lon="-1.09556076116859912872314453125">
        <ele>969.5999755859375</ele>
        <time>2021-09-25T12:13:20.000Z</time>
      </trkpt>
      <trkpt lat="40.355650484561920166015625" lon="-1.0955893434584140777587890625">
        <ele>969.4000244140625</ele>
        <time>2021-09-25T12:13:22.000Z</time>
      </trkpt>
      <trkpt lat="40.355653502047061920166015625" lon="-1.09560887329280376434326171875">
        <ele>969.20001220703125</ele>
        <time>2021-09-25T12:13:24.000Z</time>
      </trkpt>
      <trkpt lat="40.355653502047061920166015625" lon="-1.09560887329280376434326171875">
        <ele>969.20001220703125</ele>
        <time>2021-09-25T12:13:25.000Z</time>
      </trkpt>
      <trkpt lat="40.35562206991016864776611328125" lon="-1.095671318471431732177734375">
        <ele>969</ele>
        <time>2021-09-25T12:13:57.000Z</time>
      </trkpt>
      <trkpt lat="40.35561637021601200103759765625" lon="-1.0956986434757709503173828125">
        <ele>968.79998779296875</ele>
        <time>2021-09-25T12:13:58.000Z</time>
      </trkpt>
      <trkpt lat="40.35559306852519512176513671875" lon="-1.09577416442334651947021484375">
        <ele>968.20001220703125</ele>
        <time>2021-09-25T12:14:00.000Z</time>
      </trkpt>
      <trkpt lat="40.3555671684443950653076171875" lon="-1.09586988575756549835205078125">
        <ele>967.20001220703125</ele>
        <time>2021-09-25T12:14:02.000Z</time>
      </trkpt>
      <trkpt lat="40.3555329702794551849365234375" lon="-1.09597918577492237091064453125">
        <ele>966</ele>
        <time>2021-09-25T12:14:04.000Z</time>
      </trkpt>
      <trkpt lat="40.35550120286643505096435546875" lon="-1.0960979573428630828857421875">
        <ele>966.5999755859375</ele>
        <time>2021-09-25T12:14:06.000Z</time>
      </trkpt>
      <trkpt lat="40.3554692678153514862060546875" lon="-1.096217148005962371826171875">
        <ele>968</ele>
        <time>2021-09-25T12:14:08.000Z</time>
      </trkpt>
      <trkpt lat="40.35545577295124530792236328125" lon="-1.09627691097557544708251953125">
        <ele>968.5999755859375</ele>
        <time>2021-09-25T12:14:09.000Z</time>
      </trkpt>
      <trkpt lat="40.35544353537261486053466796875" lon="-1.09633776359260082244873046875">
        <ele>968.5999755859375</ele>
        <time>2021-09-25T12:14:10.000Z</time>
      </trkpt>
      <trkpt lat="40.35542911849915981292724609375" lon="-1.0964567027986049652099609375">
        <ele>969.4000244140625</ele>
        <time>2021-09-25T12:14:12.000Z</time>
      </trkpt>
      <trkpt lat="40.35541201941668987274169921875" lon="-1.09656726010143756866455078125">
        <ele>970.20001220703125</ele>
        <time>2021-09-25T12:14:14.000Z</time>
      </trkpt>
      <trkpt lat="40.3553991951048374176025390625" lon="-1.0966706089675426483154296875">
        <ele>969.5999755859375</ele>
        <time>2021-09-25T12:14:16.000Z</time>
      </trkpt>
      <trkpt lat="40.355382598936557769775390625" lon="-1.09677613712847232818603515625">
        <ele>969.5999755859375</ele>
        <time>2021-09-25T12:14:18.000Z</time>
      </trkpt>
      <trkpt lat="40.355371199548244476318359375" lon="-1.0968885384500026702880859375">
        <ele>969.5999755859375</ele>
        <time>2021-09-25T12:14:20.000Z</time>
      </trkpt>
      <trkpt lat="40.35536390729248523712158203125" lon="-1.09701502136886119842529296875">
        <ele>969.79998779296875</ele>
        <time>2021-09-25T12:14:22.000Z</time>
      </trkpt>
      <trkpt lat="40.35536139272153377532958984375" lon="-1.097080819308757781982421875">
        <ele>969.79998779296875</ele>
        <time>2021-09-25T12:14:23.000Z</time>
      </trkpt>
      <trkpt lat="40.35535887815058231353759765625" lon="-1.09714695252478122711181640625">
        <ele>970</ele>
        <time>2021-09-25T12:14:24.000Z</time>
      </trkpt>
      <trkpt lat="40.3553541004657745361328125" lon="-1.09727771021425724029541015625">
        <ele>970</ele>
        <time>2021-09-25T12:14:26.000Z</time>
      </trkpt>
      <trkpt lat="40.3553388454020023345947265625" lon="-1.0974025167524814605712890625">
        <ele>970.79998779296875</ele>
        <time>2021-09-25T12:14:28.000Z</time>
      </trkpt>
      <trkpt lat="40.35532752983272075653076171875" lon="-1.0975191928446292877197265625">
        <ele>970.5999755859375</ele>
        <time>2021-09-25T12:14:30.000Z</time>
      </trkpt>
      <trkpt lat="40.35531747154891490936279296875" lon="-1.09762790612876415252685546875">
        <ele>970.4000244140625</ele>
        <time>2021-09-25T12:14:32.000Z</time>
      </trkpt>
      <trkpt lat="40.35532082431018352508544921875" lon="-1.09768473543226718902587890625">
        <ele>970</ele>
        <time>2021-09-25T12:14:33.000Z</time>
      </trkpt>
      <trkpt lat="40.35532484762370586395263671875" lon="-1.09774089418351650238037109375">
        <ele>969.5999755859375</ele>
        <time>2021-09-25T12:14:34.000Z</time>
      </trkpt>
      <trkpt lat="40.355322249233722686767578125" lon="-1.09779520891606807708740234375">
        <ele>969.20001220703125</ele>
        <time>2021-09-25T12:14:35.000Z</time>
      </trkpt>
      <trkpt lat="40.35531596280634403228759765625" lon="-1.09785622917115688323974609375">
        <ele>969</ele>
        <time>2021-09-25T12:14:36.000Z</time>
      </trkpt>
      <trkpt lat="40.35530556924641132354736328125" lon="-1.09797139652073383331298828125">
        <ele>968.5999755859375</ele>
        <time>2021-09-25T12:14:38.000Z</time>
      </trkpt>
      <trkpt lat="40.3552868776023387908935546875" lon="-1.09808027744293212890625">
        <ele>969</ele>
        <time>2021-09-25T12:14:40.000Z</time>
      </trkpt>
      <trkpt lat="40.3552590496838092803955078125" lon="-1.09818764962255954742431640625">
        <ele>969.5999755859375</ele>
        <time>2021-09-25T12:14:42.000Z</time>
      </trkpt>
      <trkpt lat="40.3552298806607723236083984375" lon="-1.098291836678981781005859375">
        <ele>970</ele>
        <time>2021-09-25T12:14:44.000Z</time>
      </trkpt>
      <trkpt lat="40.3551973588764667510986328125" lon="-1.0983942635357379913330078125">
        <ele>970.20001220703125</ele>
        <time>2021-09-25T12:14:46.000Z</time>
      </trkpt>
      <trkpt lat="40.355163328349590301513671875" lon="-1.09849803149700164794921875">
        <ele>970.5999755859375</ele>
        <time>2021-09-25T12:14:48.000Z</time>
      </trkpt>
      <trkpt lat="40.35512703470885753631591796875" lon="-1.098596937954425811767578125">
        <ele>970.5999755859375</ele>
        <time>2021-09-25T12:14:50.000Z</time>
      </trkpt>
      <trkpt lat="40.35511177964508533477783203125" lon="-1.09864446334540843963623046875">
        <ele>970.79998779296875</ele>
        <time>2021-09-25T12:14:51.000Z</time>
      </trkpt>
      <trkpt lat="40.3550967760384082794189453125" lon="-1.09868804924190044403076171875">
        <ele>970.79998779296875</ele>
        <time>2021-09-25T12:14:52.000Z</time>
      </trkpt>
      <trkpt lat="40.35506702028214931488037109375" lon="-1.09877295792102813720703125">
        <ele>971</ele>
        <time>2021-09-25T12:14:54.000Z</time>
      </trkpt>
      <trkpt lat="40.3550424613058567047119140625" lon="-1.09885216690599918365478515625">
        <ele>971.20001220703125</ele>
        <time>2021-09-25T12:14:56.000Z</time>
      </trkpt>
      <trkpt lat="40.3550297208130359649658203125" lon="-1.09889055602252483367919921875">
        <ele>971.4000244140625</ele>
        <time>2021-09-25T12:14:57.000Z</time>
      </trkpt>
      <trkpt lat="40.3550166450440883636474609375" lon="-1.09892693348228931427001953125">
        <ele>971.4000244140625</ele>
        <time>2021-09-25T12:14:58.000Z</time>
      </trkpt>
      <trkpt lat="40.35500046797096729278564453125" lon="-1.09900019131600856781005859375">
        <ele>971.4000244140625</ele>
        <time>2021-09-25T12:15:00.000Z</time>
      </trkpt>
      <trkpt lat="40.35497733391821384429931640625" lon="-1.099072359502315521240234375">
        <ele>971.79998779296875</ele>
        <time>2021-09-25T12:15:02.000Z</time>
      </trkpt>
      <trkpt lat="40.35496694035828113555908203125" lon="-1.099108569324016571044921875">
        <ele>971.79998779296875</ele>
        <time>2021-09-25T12:15:03.000Z</time>
      </trkpt>
      <trkpt lat="40.3549544513225555419921875" lon="-1.09914444386959075927734375">
        <ele>972</ele>
        <time>2021-09-25T12:15:04.000Z</time>
      </trkpt>
      <trkpt lat="40.354933999478816986083984375" lon="-1.09922616742551326751708984375">
        <ele>972</ele>
        <time>2021-09-25T12:15:06.000Z</time>
      </trkpt>
      <trkpt lat="40.35490876995027065277099609375" lon="-1.099303029477596282958984375">
        <ele>972</ele>
        <time>2021-09-25T12:15:08.000Z</time>
      </trkpt>
      <trkpt lat="40.35488479770720005035400390625" lon="-1.09938047826290130615234375">
        <ele>971.79998779296875</ele>
        <time>2021-09-25T12:15:10.000Z</time>
      </trkpt>
      <trkpt lat="40.35486258566379547119140625" lon="-1.099457256495952606201171875">
        <ele>971.5999755859375</ele>
        <time>2021-09-25T12:15:12.000Z</time>
      </trkpt>
      <trkpt lat="40.35483819432556629180908203125" lon="-1.09952707774937152862548828125">
        <ele>971.5999755859375</ele>
        <time>2021-09-25T12:15:14.000Z</time>
      </trkpt>
      <trkpt lat="40.3548215143382549285888671875" lon="-1.09959849156439304351806640625">
        <ele>971.5999755859375</ele>
        <time>2021-09-25T12:15:16.000Z</time>
      </trkpt>
      <trkpt lat="40.35480349324643611907958984375" lon="-1.09966940246522426605224609375">
        <ele>971.20001220703125</ele>
        <time>2021-09-25T12:15:18.000Z</time>
      </trkpt>
      <trkpt lat="40.35478522069752216339111328125" lon="-1.099734865128993988037109375">
        <ele>971</ele>
        <time>2021-09-25T12:15:20.000Z</time>
      </trkpt>
      <trkpt lat="40.354769714176654815673828125" lon="-1.09979999251663684844970703125">
        <ele>970.5999755859375</ele>
        <time>2021-09-25T12:15:22.000Z</time>
      </trkpt>
      <trkpt lat="40.3547517769038677215576171875" lon="-1.09985983930528163909912109375">
        <ele>970.5999755859375</ele>
        <time>2021-09-25T12:15:24.000Z</time>
      </trkpt>
      <trkpt lat="40.354742221534252166748046875" lon="-1.099915243685245513916015625">
        <ele>970.4000244140625</ele>
        <time>2021-09-25T12:15:26.000Z</time>
      </trkpt>
      <trkpt lat="40.354728139936923980712890625" lon="-1.0999774374067783355712890625">
        <ele>970</ele>
        <time>2021-09-25T12:15:28.000Z</time>
      </trkpt>
      <trkpt lat="40.35471397452056407928466796875" lon="-1.1000431515276432037353515625">
        <ele>969.5999755859375</ele>
        <time>2021-09-25T12:15:30.000Z</time>
      </trkpt>
      <trkpt lat="40.35470106638967990875244140625" lon="-1.10011297278106212615966796875">
        <ele>969.4000244140625</ele>
        <time>2021-09-25T12:15:32.000Z</time>
      </trkpt>
      <trkpt lat="40.35468958318233489990234375" lon="-1.10018086619675159454345703125">
        <ele>969</ele>
        <time>2021-09-25T12:15:34.000Z</time>
      </trkpt>
      <trkpt lat="40.35467214882373809814453125" lon="-1.10026233829557895660400390625">
        <ele>968.5999755859375</ele>
        <time>2021-09-25T12:15:36.000Z</time>
      </trkpt>
      <trkpt lat="40.35466519184410572052001953125" lon="-1.10030609183013439178466796875">
        <ele>968.4000244140625</ele>
        <time>2021-09-25T12:15:37.000Z</time>
      </trkpt>
      <trkpt lat="40.35465664230287075042724609375" lon="-1.10035185702145099639892578125">
        <ele>968</ele>
        <time>2021-09-25T12:15:38.000Z</time>
      </trkpt>
      <trkpt lat="40.35463459789752960205078125" lon="-1.10044875182211399078369140625">
        <ele>967.4000244140625</ele>
        <time>2021-09-25T12:15:40.000Z</time>
      </trkpt>
      <trkpt lat="40.3546079434454441070556640625" lon="-1.100565679371356964111328125">
        <ele>967.20001220703125</ele>
        <time>2021-09-25T12:15:42.000Z</time>
      </trkpt>
      <trkpt lat="40.35457885824143886566162109375" lon="-1.1007113568484783172607421875">
        <ele>966.79998779296875</ele>
        <time>2021-09-25T12:15:44.000Z</time>
      </trkpt>
      <trkpt lat="40.35454466007649898529052734375" lon="-1.100870110094547271728515625">
        <ele>966.5999755859375</ele>
        <time>2021-09-25T12:15:46.000Z</time>
      </trkpt>
      <trkpt lat="40.35452462732791900634765625" lon="-1.10095116309821605682373046875">
        <ele>966.5999755859375</ele>
        <time>2021-09-25T12:15:47.000Z</time>
      </trkpt>
      <trkpt lat="40.3545053489506244659423828125" lon="-1.101024337112903594970703125">
        <ele>966.5999755859375</ele>
        <time>2021-09-25T12:15:48.000Z</time>
      </trkpt>
      <trkpt lat="40.35447777248919010162353515625" lon="-1.1011488921940326690673828125">
        <ele>967.20001220703125</ele>
        <time>2021-09-25T12:15:50.000Z</time>
      </trkpt>
      <trkpt lat="40.35446293652057647705078125" lon="-1.1012010276317596435546875">
        <ele>967.20001220703125</ele>
        <time>2021-09-25T12:15:51.000Z</time>
      </trkpt>
      <trkpt lat="40.354441143572330474853515625" lon="-1.10124050639569759368896484375">
        <ele>967.20001220703125</ele>
        <time>2021-09-25T12:15:52.000Z</time>
      </trkpt>
      <trkpt lat="40.35439579747617244720458984375" lon="-1.10128342173993587493896484375">
        <ele>967</ele>
        <time>2021-09-25T12:15:54.000Z</time>
      </trkpt>
      <trkpt lat="40.3543668799102306365966796875" lon="-1.10129549168050289154052734375">
        <ele>966.79998779296875</ele>
        <time>2021-09-25T12:15:56.000Z</time>
      </trkpt>
      <trkpt lat="40.354321785271167755126953125" lon="-1.1013054661452770233154296875">
        <ele>966.5999755859375</ele>
        <time>2021-09-25T12:15:58.000Z</time>
      </trkpt>
      <trkpt lat="40.3542907722294330596923828125" lon="-1.101309992372989654541015625">
        <ele>966.4000244140625</ele>
        <time>2021-09-25T12:15:59.000Z</time>
      </trkpt>
      <trkpt lat="40.35426302812993526458740234375" lon="-1.10131644643843173980712890625">
        <ele>966.20001220703125</ele>
        <time>2021-09-25T12:16:00.000Z</time>
      </trkpt>
      <trkpt lat="40.354194380342960357666015625" lon="-1.10132767818868160247802734375">
        <ele>965.79998779296875</ele>
        <time>2021-09-25T12:16:02.000Z</time>
      </trkpt>
      <trkpt lat="40.35412774421274662017822265625" lon="-1.101340837776660919189453125">
        <ele>965.4000244140625</ele>
        <time>2021-09-25T12:16:04.000Z</time>
      </trkpt>
      <trkpt lat="40.35406622104346752166748046875" lon="-1.101351566612720489501953125">
        <ele>964.4000244140625</ele>
        <time>2021-09-25T12:16:06.000Z</time>
      </trkpt>
      <trkpt lat="40.35403914749622344970703125" lon="-1.101355254650115966796875">
        <ele>964</ele>
        <time>2021-09-25T12:16:07.000Z</time>
      </trkpt>
      <trkpt lat="40.35401090048253536224365234375" lon="-1.10136237926781177520751953125">
        <ele>963.4000244140625</ele>
        <time>2021-09-25T12:16:08.000Z</time>
      </trkpt>
      <trkpt lat="40.35395197570323944091796875" lon="-1.10138484276831150054931640625">
        <ele>962.20001220703125</ele>
        <time>2021-09-25T12:16:10.000Z</time>
      </trkpt>
      <trkpt lat="40.3538911230862140655517578125" lon="-1.10140898264944553375244140625">
        <ele>961</ele>
        <time>2021-09-25T12:16:12.000Z</time>
      </trkpt>
      <trkpt lat="40.3538602776825428009033203125" lon="-1.10142298042774200439453125">
        <ele>960.4000244140625</ele>
        <time>2021-09-25T12:16:13.000Z</time>
      </trkpt>
      <trkpt lat="40.3538306057453155517578125" lon="-1.1014358885586261749267578125">
        <ele>959.79998779296875</ele>
        <time>2021-09-25T12:16:14.000Z</time>
      </trkpt>
      <trkpt lat="40.3537721000611782073974609375" lon="-1.10145919024944305419921875">
        <ele>959</ele>
        <time>2021-09-25T12:16:16.000Z</time>
      </trkpt>
      <trkpt lat="40.353705883026123046875" lon="-1.10148190520703792572021484375">
        <ele>957.79998779296875</ele>
        <time>2021-09-25T12:16:18.000Z</time>
      </trkpt>
      <trkpt lat="40.3536306135356426239013671875" lon="-1.10150855965912342071533203125">
        <ele>956.5999755859375</ele>
        <time>2021-09-25T12:16:20.000Z</time>
      </trkpt>
      <trkpt lat="40.3535598702728748321533203125" lon="-1.1015428416430950164794921875">
        <ele>955.5999755859375</ele>
        <time>2021-09-25T12:16:22.000Z</time>
      </trkpt>
      <trkpt lat="40.353488288819789886474609375" lon="-1.1015679873526096343994140625">
        <ele>954.20001220703125</ele>
        <time>2021-09-25T12:16:24.000Z</time>
      </trkpt>
      <trkpt lat="40.35338846035301685333251953125" lon="-1.10157863236963748931884765625">
        <ele>951.79998779296875</ele>
        <time>2021-09-25T12:16:26.000Z</time>
      </trkpt>
      <trkpt lat="40.353272370994091033935546875" lon="-1.101585924625396728515625">
        <ele>949.20001220703125</ele>
        <time>2021-09-25T12:16:28.000Z</time>
      </trkpt>
      <trkpt lat="40.35321629606187343597412109375" lon="-1.10158860683441162109375">
        <ele>948</ele>
        <time>2021-09-25T12:16:29.000Z</time>
      </trkpt>
      <trkpt lat="40.35316416062414646148681640625" lon="-1.10158927738666534423828125">
        <ele>946.79998779296875</ele>
        <time>2021-09-25T12:16:30.000Z</time>
      </trkpt>
      <trkpt lat="40.35306148231029510498046875" lon="-1.101587601006031036376953125">
        <ele>944.5999755859375</ele>
        <time>2021-09-25T12:16:32.000Z</time>
      </trkpt>
      <trkpt lat="40.35297892056405544281005859375" lon="-1.1015850864350795745849609375">
        <ele>942.79998779296875</ele>
        <time>2021-09-25T12:16:34.000Z</time>
      </trkpt>
      <trkpt lat="40.35294841043651103973388671875" lon="-1.10158181749284267425537109375">
        <ele>942</ele>
        <time>2021-09-25T12:16:35.000Z</time>
      </trkpt>
      <trkpt lat="40.35291840322315692901611328125" lon="-1.101580560207366943359375">
        <ele>941.4000244140625</ele>
        <time>2021-09-25T12:16:36.000Z</time>
      </trkpt>
      <trkpt lat="40.35284078679978847503662109375" lon="-1.10157863236963748931884765625">
        <ele>939.5999755859375</ele>
        <time>2021-09-25T12:16:38.000Z</time>
      </trkpt>
      <trkpt lat="40.35275562666356563568115234375" lon="-1.10158257186412811279296875">
        <ele>937.79998779296875</ele>
        <time>2021-09-25T12:16:40.000Z</time>
      </trkpt>
      <trkpt lat="40.35266443155705928802490234375" lon="-1.10159640200436115264892578125">
        <ele>936</ele>
        <time>2021-09-25T12:16:42.000Z</time>
      </trkpt>
      <trkpt lat="40.352577008306980133056640625" lon="-1.10161467455327510833740234375">
        <ele>934.5999755859375</ele>
        <time>2021-09-25T12:16:44.000Z</time>
      </trkpt>
      <trkpt lat="40.35253174602985382080078125" lon="-1.10162288881838321685791015625">
        <ele>933.79998779296875</ele>
        <time>2021-09-25T12:16:45.000Z</time>
      </trkpt>
      <trkpt lat="40.35248522646725177764892578125" lon="-1.10162775032222270965576171875">
        <ele>933</ele>
        <time>2021-09-25T12:16:46.000Z</time>
      </trkpt>
      <trkpt lat="40.35240434110164642333984375" lon="-1.10165021382272243499755859375">
        <ele>932</ele>
        <time>2021-09-25T12:16:48.000Z</time>
      </trkpt>
      <trkpt lat="40.35235580988228321075439453125" lon="-1.1016548238694667816162109375">
        <ele>931.5999755859375</ele>
        <time>2021-09-25T12:16:49.000Z</time>
      </trkpt>
      <trkpt lat="40.352306105196475982666015625" lon="-1.1016570031642913818359375">
        <ele>931</ele>
        <time>2021-09-25T12:16:50.000Z</time>
      </trkpt>
      <trkpt lat="40.35220007412135601043701171875" lon="-1.10165256075561046600341796875">
        <ele>929.79998779296875</ele>
        <time>2021-09-25T12:16:52.000Z</time>
      </trkpt>
      <trkpt lat="40.35209127701818943023681640625" lon="-1.1016581766307353973388671875">
        <ele>928.79998779296875</ele>
        <time>2021-09-25T12:16:54.000Z</time>
      </trkpt>
      <trkpt lat="40.35198147408664226531982421875" lon="-1.1016575060784816741943359375">
        <ele>928</ele>
        <time>2021-09-25T12:16:56.000Z</time>
      </trkpt>
      <trkpt lat="40.3518523089587688446044921875" lon="-1.10164820216596126556396484375">
        <ele>927</ele>
        <time>2021-09-25T12:16:58.000Z</time>
      </trkpt>
      <trkpt lat="40.35178416408598423004150390625" lon="-1.10163345001637935638427734375">
        <ele>926.5999755859375</ele>
        <time>2021-09-25T12:16:59.000Z</time>
      </trkpt>
      <trkpt lat="40.35171392373740673065185546875" lon="-1.10160629265010356903076171875">
        <ele>926.4000244140625</ele>
        <time>2021-09-25T12:17:00.000Z</time>
      </trkpt>
      <trkpt lat="40.3515829145908355712890625" lon="-1.101558096706867218017578125">
        <ele>925.5999755859375</ele>
        <time>2021-09-25T12:17:02.000Z</time>
      </trkpt>
      <trkpt lat="40.3514928929507732391357421875" lon="-1.1015183664858341217041015625">
        <ele>925.4000244140625</ele>
        <time>2021-09-25T12:17:04.000Z</time>
      </trkpt>
      <trkpt lat="40.35146556794643402099609375" lon="-1.10150218941271305084228515625">
        <ele>925.4000244140625</ele>
        <time>2021-09-25T12:17:05.000Z</time>
      </trkpt>
      <trkpt lat="40.35145207308232784271240234375" lon="-1.10148777253925800323486328125">
        <ele>925.4000244140625</ele>
        <time>2021-09-25T12:17:06.000Z</time>
      </trkpt>
      <trkpt lat="40.35142131149768829345703125" lon="-1.10146648250520229339599609375">
        <ele>925.4000244140625</ele>
        <time>2021-09-25T12:17:08.000Z</time>
      </trkpt>
      <trkpt lat="40.351417623460292816162109375" lon="-1.1014650575816631317138671875">
        <ele>925.4000244140625</ele>
        <time>2021-09-25T12:17:09.000Z</time>
      </trkpt>
      <trkpt lat="40.351417623460292816162109375" lon="-1.1014650575816631317138671875">
        <ele>925.4000244140625</ele>
        <time>2021-09-25T12:17:10.000Z</time>
      </trkpt>
      <trkpt lat="40.35142508335411548614501953125" lon="-1.101496405899524688720703125">
        <ele>925.20001220703125</ele>
        <time>2021-09-25T12:19:24.000Z</time>
      </trkpt>
      <trkpt lat="40.351431705057621002197265625" lon="-1.1015079729259014129638671875">
        <ele>925.20001220703125</ele>
        <time>2021-09-25T12:19:25.000Z</time>
      </trkpt>
      <trkpt lat="40.3514358960092067718505859375" lon="-1.10151358880102634429931640625">
        <ele>925</ele>
        <time>2021-09-25T12:19:26.000Z</time>
      </trkpt>
      <trkpt lat="40.35147386603057384490966796875" lon="-1.10152901150286197662353515625">
        <ele>925.20001220703125</ele>
        <time>2021-09-25T12:19:28.000Z</time>
      </trkpt>
      <trkpt lat="40.351524911820888519287109375" lon="-1.10153873451054096221923828125">
        <ele>925.4000244140625</ele>
        <time>2021-09-25T12:19:30.000Z</time>
      </trkpt>
      <trkpt lat="40.3515515662729740142822265625" lon="-1.1015482060611248016357421875">
        <ele>925.5999755859375</ele>
        <time>2021-09-25T12:19:31.000Z</time>
      </trkpt>
      <trkpt lat="40.351579226553440093994140625" lon="-1.10155952163040637969970703125">
        <ele>925.5999755859375</ele>
        <time>2021-09-25T12:19:32.000Z</time>
      </trkpt>
      <trkpt lat="40.35160663537681102752685546875" lon="-1.101584918797016143798828125">
        <ele>925.79998779296875</ele>
        <time>2021-09-25T12:19:34.000Z</time>
      </trkpt>
      <trkpt lat="40.35160931758582592010498046875" lon="-1.10160662792623043060302734375">
        <ele>925.79998779296875</ele>
        <time>2021-09-25T12:19:35.000Z</time>
      </trkpt>
      <trkpt lat="40.35160906612873077392578125" lon="-1.1016229726374149322509765625">
        <ele>925.79998779296875</ele>
        <time>2021-09-25T12:19:36.000Z</time>
      </trkpt>
      <trkpt lat="40.35160906612873077392578125" lon="-1.1016229726374149322509765625">
        <ele>925.79998779296875</ele>
        <time>2021-09-25T12:19:37.000Z</time>
      </trkpt>
      <trkpt lat="40.35160914994776248931884765625" lon="-1.1016615293920040130615234375">
        <ele>925.79998779296875</ele>
        <time>2021-09-25T12:22:51.000Z</time>
      </trkpt>
      <trkpt lat="40.351601354777812957763671875" lon="-1.1016880162060260772705078125">
        <ele>925.79998779296875</ele>
        <time>2021-09-25T12:22:52.000Z</time>
      </trkpt>
      <trkpt lat="40.35156539641320705413818359375" lon="-1.10173813998699188232421875">
        <ele>925.5999755859375</ele>
        <time>2021-09-25T12:22:54.000Z</time>
      </trkpt>
      <trkpt lat="40.35153773613274097442626953125" lon="-1.1017535626888275146484375">
        <ele>925.4000244140625</ele>
        <time>2021-09-25T12:22:55.000Z</time>
      </trkpt>
      <trkpt lat="40.35150789655745029449462890625" lon="-1.1017661355435848236083984375">
        <ele>925.20001220703125</ele>
        <time>2021-09-25T12:22:56.000Z</time>
      </trkpt>
      <trkpt lat="40.35146112553775310516357421875" lon="-1.10178717412054538726806640625">
        <ele>924.79998779296875</ele>
        <time>2021-09-25T12:22:58.000Z</time>
      </trkpt>
      <trkpt lat="40.351422987878322601318359375" lon="-1.10178851522505283355712890625">
        <ele>924.5999755859375</ele>
        <time>2021-09-25T12:23:00.000Z</time>
      </trkpt>
      <trkpt lat="40.35140429623425006866455078125" lon="-1.1017963103950023651123046875">
        <ele>924.4000244140625</ele>
        <time>2021-09-25T12:23:01.000Z</time>
      </trkpt>
      <trkpt lat="40.3513829223811626434326171875" lon="-1.10179974697530269622802734375">
        <ele>924.20001220703125</ele>
        <time>2021-09-25T12:23:02.000Z</time>
      </trkpt>
      <trkpt lat="40.351343862712383270263671875" lon="-1.1017999984323978424072265625">
        <ele>924</ele>
        <time>2021-09-25T12:23:04.000Z</time>
      </trkpt>
      <trkpt lat="40.35132466815412044525146484375" lon="-1.1017973162233829498291015625">
        <ele>923.79998779296875</ele>
        <time>2021-09-25T12:23:05.000Z</time>
      </trkpt>
      <trkpt lat="40.3513078205287456512451171875" lon="-1.10179874114692211151123046875">
        <ele>923.5999755859375</ele>
        <time>2021-09-25T12:23:06.000Z</time>
      </trkpt>
      <trkpt lat="40.3512923978269100189208984375" lon="-1.10180611722171306610107421875">
        <ele>923.4000244140625</ele>
        <time>2021-09-25T12:23:08.000Z</time>
      </trkpt>
      <trkpt lat="40.3512840159237384796142578125" lon="-1.10181567259132862091064453125">
        <ele>923.4000244140625</ele>
        <time>2021-09-25T12:23:09.000Z</time>
      </trkpt>
      <trkpt lat="40.3512769751250743865966796875" lon="-1.10182237811386585235595703125">
        <ele>923.20001220703125</ele>
        <time>2021-09-25T12:23:10.000Z</time>
      </trkpt>
      <trkpt lat="40.3512719459831714630126953125" lon="-1.10185481607913970947265625">
        <ele>923.4000244140625</ele>
        <time>2021-09-25T12:23:12.000Z</time>
      </trkpt>
      <trkpt lat="40.351257361471652984619140625" lon="-1.1018606834113597869873046875">
        <ele>923.4000244140625</ele>
        <time>2021-09-25T12:23:13.000Z</time>
      </trkpt>
      <trkpt lat="40.3512387536466121673583984375" lon="-1.1018623597919940948486328125">
        <ele>923.20001220703125</ele>
        <time>2021-09-25T12:23:14.000Z</time>
      </trkpt>
      <trkpt lat="40.35118536092340946197509765625" lon="-1.10184970311820507049560546875">
        <ele>922.4000244140625</ele>
        <time>2021-09-25T12:23:16.000Z</time>
      </trkpt>
      <trkpt lat="40.35115870647132396697998046875" lon="-1.101848781108856201171875">
        <ele>922.20001220703125</ele>
        <time>2021-09-25T12:23:17.000Z</time>
      </trkpt>
      <trkpt lat="40.35112618468701839447021484375" lon="-1.1018407344818115234375">
        <ele>921.5999755859375</ele>
        <time>2021-09-25T12:23:18.000Z</time>
      </trkpt>
      <trkpt lat="40.3510647453367710113525390625" lon="-1.10182992182672023773193359375">
        <ele>921</ele>
        <time>2021-09-25T12:23:20.000Z</time>
      </trkpt>
      <trkpt lat="40.35101705230772495269775390625" lon="-1.10182288102805614471435546875">
        <ele>920.5999755859375</ele>
        <time>2021-09-25T12:23:22.000Z</time>
      </trkpt>
      <trkpt lat="40.35097606480121612548828125" lon="-1.1018100567162036895751953125">
        <ele>920.4000244140625</ele>
        <time>2021-09-25T12:23:24.000Z</time>
      </trkpt>
      <trkpt lat="40.35093658603727817535400390625" lon="-1.10178985632956027984619140625">
        <ele>920.4000244140625</ele>
        <time>2021-09-25T12:23:26.000Z</time>
      </trkpt>
      <trkpt lat="40.3508930839598178863525390625" lon="-1.1017741821706295013427734375">
        <ele>920.20001220703125</ele>
        <time>2021-09-25T12:23:28.000Z</time>
      </trkpt>
      <trkpt lat="40.35085561685264110565185546875" lon="-1.101763285696506500244140625">
        <ele>920</ele>
        <time>2021-09-25T12:23:30.000Z</time>
      </trkpt>
      <trkpt lat="40.3508156351745128631591796875" lon="-1.10174878500401973724365234375">
        <ele>920</ele>
        <time>2021-09-25T12:23:32.000Z</time>
      </trkpt>
      <trkpt lat="40.35076945088803768157958984375" lon="-1.10175046138465404510498046875">
        <ele>920</ele>
        <time>2021-09-25T12:23:34.000Z</time>
      </trkpt>
      <trkpt lat="40.35071413032710552215576171875" lon="-1.10176638700067996978759765625">
        <ele>920</ele>
        <time>2021-09-25T12:23:36.000Z</time>
      </trkpt>
      <trkpt lat="40.3506486676633358001708984375" lon="-1.10179220326244831085205078125">
        <ele>920</ele>
        <time>2021-09-25T12:23:38.000Z</time>
      </trkpt>
      <trkpt lat="40.350589491426944732666015625" lon="-1.1018295027315616607666015625">
        <ele>919.79998779296875</ele>
        <time>2021-09-25T12:23:40.000Z</time>
      </trkpt>
      <trkpt lat="40.35054163075983524322509765625" lon="-1.10188624821603298187255859375">
        <ele>919.79998779296875</ele>
        <time>2021-09-25T12:23:42.000Z</time>
      </trkpt>
      <trkpt lat="40.35051497630774974822998046875" lon="-1.1019223742187023162841796875">
        <ele>919.5999755859375</ele>
        <time>2021-09-25T12:23:43.000Z</time>
      </trkpt>
      <trkpt lat="40.3504870645701885223388671875" lon="-1.1019652895629405975341796875">
        <ele>919.79998779296875</ele>
        <time>2021-09-25T12:23:44.000Z</time>
      </trkpt>
      <trkpt lat="40.3504612483084201812744140625" lon="-1.10201030038297176361083984375">
        <ele>919.79998779296875</ele>
        <time>2021-09-25T12:23:45.000Z</time>
      </trkpt>
      <trkpt lat="40.35044004209339618682861328125" lon="-1.1020591668784618377685546875">
        <ele>919.79998779296875</ele>
        <time>2021-09-25T12:23:46.000Z</time>
      </trkpt>
      <trkpt lat="40.3503951989114284515380859375" lon="-1.10216134227812290191650390625">
        <ele>919.4000244140625</ele>
        <time>2021-09-25T12:23:48.000Z</time>
      </trkpt>
      <trkpt lat="40.3503670357167720794677734375" lon="-1.10221364535391330718994140625">
        <ele>919.4000244140625</ele>
        <time>2021-09-25T12:23:49.000Z</time>
      </trkpt>
      <trkpt lat="40.35033878870308399200439453125" lon="-1.10226511023938655853271484375">
        <ele>919.20001220703125</ele>
        <time>2021-09-25T12:23:50.000Z</time>
      </trkpt>
      <trkpt lat="40.35031029023230075836181640625" lon="-1.1023200117051601409912109375">
        <ele>919</ele>
        <time>2021-09-25T12:23:51.000Z</time>
      </trkpt>
      <trkpt lat="40.3502778522670269012451171875" lon="-1.1023677885532379150390625">
        <ele>919.20001220703125</ele>
        <time>2021-09-25T12:23:52.000Z</time>
      </trkpt>
      <trkpt lat="40.3502409718930721282958984375" lon="-1.10240760259330272674560546875">
        <ele>919</ele>
        <time>2021-09-25T12:23:53.000Z</time>
      </trkpt>
      <trkpt lat="40.3501997329294681549072265625" lon="-1.102437861263751983642578125">
        <ele>918.79998779296875</ele>
        <time>2021-09-25T12:23:54.000Z</time>
      </trkpt>
      <trkpt lat="40.35015396773815155029296875" lon="-1.10246057622134685516357421875">
        <ele>918.4000244140625</ele>
        <time>2021-09-25T12:23:55.000Z</time>
      </trkpt>
      <trkpt lat="40.35010711289942264556884765625" lon="-1.102475412189960479736328125">
        <ele>918.20001220703125</ele>
        <time>2021-09-25T12:23:56.000Z</time>
      </trkpt>
      <trkpt lat="40.35004508681595325469970703125" lon="-1.10249779187142848968505859375">
        <ele>918</ele>
        <time>2021-09-25T12:23:58.000Z</time>
      </trkpt>
      <trkpt lat="40.35001038573682308197021484375" lon="-1.10252595506608486175537109375">
        <ele>917.5999755859375</ele>
        <time>2021-09-25T12:24:00.000Z</time>
      </trkpt>
      <trkpt lat="40.34999781288206577301025390625" lon="-1.10259586013853549957275390625">
        <ele>917.4000244140625</ele>
        <time>2021-09-25T12:24:02.000Z</time>
      </trkpt>
      <trkpt lat="40.35001155920326709747314453125" lon="-1.10267163254320621490478515625">
        <ele>917.4000244140625</ele>
        <time>2021-09-25T12:24:04.000Z</time>
      </trkpt>
      <trkpt lat="40.350026898086071014404296875" lon="-1.1027498356997966766357421875">
        <ele>917.4000244140625</ele>
        <time>2021-09-25T12:24:06.000Z</time>
      </trkpt>
      <trkpt lat="40.35004072822630405426025390625" lon="-1.10282954759895801544189453125">
        <ele>917.5999755859375</ele>
        <time>2021-09-25T12:24:08.000Z</time>
      </trkpt>
      <trkpt lat="40.35005983896553516387939453125" lon="-1.1028963513672351837158203125">
        <ele>917.79998779296875</ele>
        <time>2021-09-25T12:24:10.000Z</time>
      </trkpt>
      <trkpt lat="40.35006788559257984161376953125" lon="-1.10295158810913562774658203125">
        <ele>917.79998779296875</ele>
        <time>2021-09-25T12:24:12.000Z</time>
      </trkpt>
      <trkpt lat="40.35007425583899021148681640625" lon="-1.10299752093851566314697265625">
        <ele>917.79998779296875</ele>
        <time>2021-09-25T12:24:14.000Z</time>
      </trkpt>
      <trkpt lat="40.350082553923130035400390625" lon="-1.10304932110011577606201171875">
        <ele>917.79998779296875</ele>
        <time>2021-09-25T12:24:16.000Z</time>
      </trkpt>
      <trkpt lat="40.3500870801508426666259765625" lon="-1.10307211987674236297607421875">
        <ele>918</ele>
        <time>2021-09-25T12:24:17.000Z</time>
      </trkpt>
      <trkpt lat="40.350092947483062744140625" lon="-1.1030904762446880340576171875">
        <ele>918</ele>
        <time>2021-09-25T12:24:18.000Z</time>
      </trkpt>
      <trkpt lat="40.35008347593247890472412109375" lon="-1.1031015403568744659423828125">
        <ele>918</ele>
        <time>2021-09-25T12:24:19.000Z</time>
      </trkpt>
      <trkpt lat="40.35005682148039340972900390625" lon="-1.10311738215386867523193359375">
        <ele>917.79998779296875</ele>
        <time>2021-09-25T12:24:20.000Z</time>
      </trkpt>
      <trkpt lat="40.35001558251678943634033203125" lon="-1.10313397832214832305908203125">
        <ele>917.4000244140625</ele>
        <time>2021-09-25T12:24:21.000Z</time>
      </trkpt>
      <trkpt lat="40.34997417591512203216552734375" lon="-1.10315057449042797088623046875">
        <ele>917.20001220703125</ele>
        <time>2021-09-25T12:24:22.000Z</time>
      </trkpt>
      <trkpt lat="40.34987761639058589935302734375" lon="-1.1031994409859180450439453125">
        <ele>916.20001220703125</ele>
        <time>2021-09-25T12:24:24.000Z</time>
      </trkpt>
      <trkpt lat="40.3498275764286518096923828125" lon="-1.103229783475399017333984375">
        <ele>915.5999755859375</ele>
        <time>2021-09-25T12:24:25.000Z</time>
      </trkpt>
      <trkpt lat="40.34978449344635009765625" lon="-1.1032611317932605743408203125">
        <ele>915.20001220703125</ele>
        <time>2021-09-25T12:24:26.000Z</time>
      </trkpt>
      <trkpt lat="40.34971182234585285186767578125" lon="-1.1033295281231403350830078125">
        <ele>914.79998779296875</ele>
        <time>2021-09-25T12:24:28.000Z</time>
      </trkpt>
      <trkpt lat="40.3496773727238178253173828125" lon="-1.1033707670867443084716796875">
        <ele>914.5999755859375</ele>
        <time>2021-09-25T12:24:29.000Z</time>
      </trkpt>
      <trkpt lat="40.3496418334543704986572265625" lon="-1.103408150374889373779296875">
        <ele>914.4000244140625</ele>
        <time>2021-09-25T12:24:30.000Z</time>
      </trkpt>
      <trkpt lat="40.34956413321197032928466796875" lon="-1.103481240570545196533203125">
        <ele>914</ele>
        <time>2021-09-25T12:24:32.000Z</time>
      </trkpt>
      <trkpt lat="40.3494886122643947601318359375" lon="-1.10353128053247928619384765625">
        <ele>913.79998779296875</ele>
        <time>2021-09-25T12:24:34.000Z</time>
      </trkpt>
      <trkpt lat="40.34939833916723728179931640625" lon="-1.103573106229305267333984375">
        <ele>913.20001220703125</ele>
        <time>2021-09-25T12:24:36.000Z</time>
      </trkpt>
      <trkpt lat="40.349301360547542572021484375" lon="-1.1036091484129428863525390625">
        <ele>913</ele>
        <time>2021-09-25T12:24:38.000Z</time>
      </trkpt>
      <trkpt lat="40.34924997948110103607177734375" lon="-1.1036359705030918121337890625">
        <ele>913</ele>
        <time>2021-09-25T12:24:39.000Z</time>
      </trkpt>
      <trkpt lat="40.349198766052722930908203125" lon="-1.103658936917781829833984375">
        <ele>912.79998779296875</ele>
        <time>2021-09-25T12:24:40.000Z</time>
      </trkpt>
      <trkpt lat="40.34910748712718486785888671875" lon="-1.103705875575542449951171875">
        <ele>912.79998779296875</ele>
        <time>2021-09-25T12:24:42.000Z</time>
      </trkpt>
      <trkpt lat="40.349027775228023529052734375" lon="-1.103780306875705718994140625">
        <ele>913</ele>
        <time>2021-09-25T12:24:44.000Z</time>
      </trkpt>
      <trkpt lat="40.34893901087343692779541015625" lon="-1.103856749832630157470703125">
        <ele>913.20001220703125</ele>
        <time>2021-09-25T12:24:46.000Z</time>
      </trkpt>
      <trkpt lat="40.3488899767398834228515625" lon="-1.10388851724565029144287109375">
        <ele>913.4000244140625</ele>
        <time>2021-09-25T12:24:47.000Z</time>
      </trkpt>
      <trkpt lat="40.3488385118544101715087890625" lon="-1.10391014255583286285400390625">
        <ele>913.4000244140625</ele>
        <time>2021-09-25T12:24:48.000Z</time>
      </trkpt>
      <trkpt lat="40.34878796897828578948974609375" lon="-1.10392355360090732574462890625">
        <ele>913.5999755859375</ele>
        <time>2021-09-25T12:24:49.000Z</time>
      </trkpt>
      <trkpt lat="40.348736755549907684326171875" lon="-1.10393042676150798797607421875">
        <ele>913.5999755859375</ele>
        <time>2021-09-25T12:24:50.000Z</time>
      </trkpt>
      <trkpt lat="40.34864329732954502105712890625" lon="-1.10391600988805294036865234375">
        <ele>913.4000244140625</ele>
        <time>2021-09-25T12:24:52.000Z</time>
      </trkpt>
      <trkpt lat="40.34860826097428798675537109375" lon="-1.10391064547002315521240234375">
        <ele>913.4000244140625</ele>
        <time>2021-09-25T12:24:53.000Z</time>
      </trkpt>
      <trkpt lat="40.348577164113521575927734375" lon="-1.1039102263748645782470703125">
        <ele>913.4000244140625</ele>
        <time>2021-09-25T12:24:54.000Z</time>
      </trkpt>
      <trkpt lat="40.34854522906243801116943359375" lon="-1.10391617752611637115478515625">
        <ele>913.4000244140625</ele>
        <time>2021-09-25T12:24:55.000Z</time>
      </trkpt>
      <trkpt lat="40.34851740114390850067138671875" lon="-1.103919781744480133056640625">
        <ele>913.4000244140625</ele>
        <time>2021-09-25T12:24:56.000Z</time>
      </trkpt>
      <trkpt lat="40.3484495915472507476806640625" lon="-1.103935539722442626953125">
        <ele>913.20001220703125</ele>
        <time>2021-09-25T12:24:58.000Z</time>
      </trkpt>
      <trkpt lat="40.34838060848414897918701171875" lon="-1.1039610207080841064453125">
        <ele>913</ele>
        <time>2021-09-25T12:25:00.000Z</time>
      </trkpt>
      <trkpt lat="40.348316989839076995849609375" lon="-1.10397434793412685394287109375">
        <ele>912.79998779296875</ele>
        <time>2021-09-25T12:25:02.000Z</time>
      </trkpt>
      <trkpt lat="40.34828790463507175445556640625" lon="-1.103982813656330108642578125">
        <ele>912.79998779296875</ele>
        <time>2021-09-25T12:25:03.000Z</time>
      </trkpt>
      <trkpt lat="40.34825873561203479766845703125" lon="-1.103999577462673187255859375">
        <ele>912.5999755859375</ele>
        <time>2021-09-25T12:25:04.000Z</time>
      </trkpt>
      <trkpt lat="40.34821012057363986968994140625" lon="-1.10403679311275482177734375">
        <ele>912.4000244140625</ele>
        <time>2021-09-25T12:25:06.000Z</time>
      </trkpt>
      <trkpt lat="40.3481662832200527191162109375" lon="-1.1040736734867095947265625">
        <ele>912.20001220703125</ele>
        <time>2021-09-25T12:25:08.000Z</time>
      </trkpt>
      <trkpt lat="40.34811741672456264495849609375" lon="-1.10411650501191616058349609375">
        <ele>912.20001220703125</ele>
        <time>2021-09-25T12:25:10.000Z</time>
      </trkpt>
      <trkpt lat="40.3480905108153820037841796875" lon="-1.1041380465030670166015625">
        <ele>912.20001220703125</ele>
        <time>2021-09-25T12:25:11.000Z</time>
      </trkpt>
      <trkpt lat="40.34806276671588420867919921875" lon="-1.10416009090840816497802734375">
        <ele>912</ele>
        <time>2021-09-25T12:25:12.000Z</time>
      </trkpt>
      <trkpt lat="40.347995460033416748046875" lon="-1.1041978932917118072509765625">
        <ele>912</ele>
        <time>2021-09-25T12:25:14.000Z</time>
      </trkpt>
      <trkpt lat="40.3479238785803318023681640625" lon="-1.10421960242092609405517578125">
        <ele>911.79998779296875</ele>
        <time>2021-09-25T12:25:16.000Z</time>
      </trkpt>
      <trkpt lat="40.3478558175265789031982421875" lon="-1.10424575395882129669189453125">
        <ele>911.79998779296875</ele>
        <time>2021-09-25T12:25:18.000Z</time>
      </trkpt>
      <trkpt lat="40.3478289954364299774169921875" lon="-1.104247011244297027587890625">
        <ele>911.79998779296875</ele>
        <time>2021-09-25T12:25:19.000Z</time>
      </trkpt>
      <trkpt lat="40.3478011675179004669189453125" lon="-1.10424826852977275848388671875">
        <ele>911.79998779296875</ele>
        <time>2021-09-25T12:25:20.000Z</time>
      </trkpt>
      <trkpt lat="40.3477714955806732177734375" lon="-1.104254387319087982177734375">
        <ele>911.79998779296875</ele>
        <time>2021-09-25T12:25:21.000Z</time>
      </trkpt>
      <trkpt lat="40.34774291329085826873779296875" lon="-1.10426519997417926788330078125">
        <ele>912</ele>
        <time>2021-09-25T12:25:22.000Z</time>
      </trkpt>
      <trkpt lat="40.347718857228755950927734375" lon="-1.104277186095714569091796875">
        <ele>912</ele>
        <time>2021-09-25T12:25:23.000Z</time>
      </trkpt>
      <trkpt lat="40.34769798628985881805419921875" lon="-1.10428548417985439300537109375">
        <ele>912.20001220703125</ele>
        <time>2021-09-25T12:25:24.000Z</time>
      </trkpt>
      <trkpt lat="40.3476512990891933441162109375" lon="-1.10429068095982074737548828125">
        <ele>912.4000244140625</ele>
        <time>2021-09-25T12:25:26.000Z</time>
      </trkpt>
      <trkpt lat="40.34762472845613956451416015625" lon="-1.104301325976848602294921875">
        <ele>912.4000244140625</ele>
        <time>2021-09-25T12:25:27.000Z</time>
      </trkpt>
      <trkpt lat="40.3475976549088954925537109375" lon="-1.10431037843227386474609375">
        <ele>912.4000244140625</ele>
        <time>2021-09-25T12:25:28.000Z</time>
      </trkpt>
      <trkpt lat="40.3475721739232540130615234375" lon="-1.1043236218392848968505859375">
        <ele>912.5999755859375</ele>
        <time>2021-09-25T12:25:29.000Z</time>
      </trkpt>
      <trkpt lat="40.34754954278469085693359375" lon="-1.1043417267501354217529296875">
        <ele>912.5999755859375</ele>
        <time>2021-09-25T12:25:30.000Z</time>
      </trkpt>
      <trkpt lat="40.347533784806728363037109375" lon="-1.104353964328765869140625">
        <ele>912.79998779296875</ele>
        <time>2021-09-25T12:25:31.000Z</time>
      </trkpt>
      <trkpt lat="40.347521714866161346435546875" lon="-1.104369051754474639892578125">
        <ele>912.79998779296875</ele>
        <time>2021-09-25T12:25:32.000Z</time>
      </trkpt>
      <trkpt lat="40.34747980535030364990234375" lon="-1.10439579002559185028076171875">
        <ele>913.20001220703125</ele>
        <time>2021-09-25T12:25:34.000Z</time>
      </trkpt>
      <trkpt lat="40.34742741845548152923583984375" lon="-1.10442177392542362213134765625">
        <ele>913.20001220703125</ele>
        <time>2021-09-25T12:25:36.000Z</time>
      </trkpt>
      <trkpt lat="40.34739741124212741851806640625" lon="-1.1044392921030521392822265625">
        <ele>913.20001220703125</ele>
        <time>2021-09-25T12:25:37.000Z</time>
      </trkpt>
      <trkpt lat="40.34736715257167816162109375" lon="-1.10445613972842693328857421875">
        <ele>913.20001220703125</ele>
        <time>2021-09-25T12:25:38.000Z</time>
      </trkpt>
      <trkpt lat="40.347329936921596527099609375" lon="-1.10447156243026256561279296875">
        <ele>913</ele>
        <time>2021-09-25T12:25:40.000Z</time>
      </trkpt>
      <trkpt lat="40.3473143465816974639892578125" lon="-1.104479692876338958740234375">
        <ele>913</ele>
        <time>2021-09-25T12:25:41.000Z</time>
      </trkpt>
      <trkpt lat="40.3472898714244365692138671875" lon="-1.104483716189861297607421875">
        <ele>913</ele>
        <time>2021-09-25T12:25:42.000Z</time>
      </trkpt>
      <trkpt lat="40.34722901880741119384765625" lon="-1.104483716189861297607421875">
        <ele>913</ele>
        <time>2021-09-25T12:25:44.000Z</time>
      </trkpt>
      <trkpt lat="40.347196497023105621337890625" lon="-1.1044781841337680816650390625">
        <ele>913</ele>
        <time>2021-09-25T12:25:45.000Z</time>
      </trkpt>
      <trkpt lat="40.3471681661903858184814453125" lon="-1.10447131097316741943359375">
        <ele>912.79998779296875</ele>
        <time>2021-09-25T12:25:46.000Z</time>
      </trkpt>
      <trkpt lat="40.34714763052761554718017578125" lon="-1.1044681258499622344970703125">
        <ele>912.5999755859375</ele>
        <time>2021-09-25T12:25:47.000Z</time>
      </trkpt>
      <trkpt lat="40.3471339680254459381103515625" lon="-1.104466617107391357421875">
        <ele>912.5999755859375</ele>
        <time>2021-09-25T12:25:48.000Z</time>
      </trkpt>
      <trkpt lat="40.3471339680254459381103515625" lon="-1.104466617107391357421875">
        <ele>912.5999755859375</ele>
        <time>2021-09-25T12:25:49.000Z</time>
      </trkpt>
      <trkpt lat="40.34708761610090732574462890625" lon="-1.10446418635547161102294921875">
        <ele>912</ele>
        <time>2021-09-25T12:25:52.000Z</time>
      </trkpt>
      <trkpt lat="40.347075797617435455322265625" lon="-1.10445748083293437957763671875">
        <ele>911.79998779296875</ele>
        <time>2021-09-25T12:25:53.000Z</time>
      </trkpt>
      <trkpt lat="40.347075797617435455322265625" lon="-1.10445748083293437957763671875">
        <ele>911.79998779296875</ele>
        <time>2021-09-25T12:25:54.000Z</time>
      </trkpt>
      <trkpt lat="40.34708091057837009429931640625" lon="-1.104456223547458648681640625">
        <ele>912</ele>
        <time>2021-09-25T12:27:12.000Z</time>
      </trkpt>
      <trkpt lat="40.34708610735833644866943359375" lon="-1.10446820966899394989013671875">
        <ele>912</ele>
        <time>2021-09-25T12:27:13.000Z</time>
      </trkpt>
      <trkpt lat="40.34709096886217594146728515625" lon="-1.10447273589670658111572265625">
        <ele>912</ele>
        <time>2021-09-25T12:27:14.000Z</time>
      </trkpt>
      <trkpt lat="40.3471116721630096435546875" lon="-1.1044800281524658203125">
        <ele>912.20001220703125</ele>
        <time>2021-09-25T12:27:16.000Z</time>
      </trkpt>
      <trkpt lat="40.34714142791926860809326171875" lon="-1.10449276864528656005859375">
        <ele>912.5999755859375</ele>
        <time>2021-09-25T12:27:18.000Z</time>
      </trkpt>
      <trkpt lat="40.3471554256975650787353515625" lon="-1.10450777225196361541748046875">
        <ele>912.79998779296875</ele>
        <time>2021-09-25T12:27:19.000Z</time>
      </trkpt>
      <trkpt lat="40.3471626341342926025390625" lon="-1.1045162379741668701171875">
        <ele>912.79998779296875</ele>
        <time>2021-09-25T12:27:20.000Z</time>
      </trkpt>
      <trkpt lat="40.3472047112882137298583984375" lon="-1.1044885776937007904052734375">
        <ele>913</ele>
        <time>2021-09-25T12:27:22.000Z</time>
      </trkpt>
      <trkpt lat="40.347228683531284332275390625" lon="-1.1044491827487945556640625">
        <ele>913</ele>
        <time>2021-09-25T12:27:24.000Z</time>
      </trkpt>
      <trkpt lat="40.34723714925348758697509765625" lon="-1.1044117994606494903564453125">
        <ele>913</ele>
        <time>2021-09-25T12:27:26.000Z</time>
      </trkpt>
      <trkpt lat="40.34722859971225261688232421875" lon="-1.10433862544596195220947265625">
        <ele>913</ele>
        <time>2021-09-25T12:27:28.000Z</time>
      </trkpt>
      <trkpt lat="40.34721150062978267669677734375" lon="-1.1042833887040615081787109375">
        <ele>913</ele>
        <time>2021-09-25T12:27:30.000Z</time>
      </trkpt>
      <trkpt lat="40.34719255752861499786376953125" lon="-1.1042453348636627197265625">
        <ele>913</ele>
        <time>2021-09-25T12:27:32.000Z</time>
      </trkpt>
      <trkpt lat="40.34717210568487644195556640625" lon="-1.1042024195194244384765625">
        <ele>913</ele>
        <time>2021-09-25T12:27:34.000Z</time>
      </trkpt>
      <trkpt lat="40.34714679233729839324951171875" lon="-1.10415405593812465667724609375">
        <ele>912.79998779296875</ele>
        <time>2021-09-25T12:27:36.000Z</time>
      </trkpt>
      <trkpt lat="40.347124077379703521728515625" lon="-1.104114912450313568115234375">
        <ele>912.5999755859375</ele>
        <time>2021-09-25T12:27:38.000Z</time>
      </trkpt>
      <trkpt lat="40.34710563719272613525390625" lon="-1.10407643951475620269775390625">
        <ele>912.79998779296875</ele>
        <time>2021-09-25T12:27:40.000Z</time>
      </trkpt>
      <trkpt lat="40.347085855901241302490234375" lon="-1.10404081642627716064453125">
        <ele>913</ele>
        <time>2021-09-25T12:27:42.000Z</time>
      </trkpt>
      <trkpt lat="40.34709096886217594146728515625" lon="-1.1040175147354602813720703125">
        <ele>913.20001220703125</ele>
        <time>2021-09-25T12:27:43.000Z</time>
      </trkpt>
      <trkpt lat="40.3470947407186031341552734375" lon="-1.103990189731121063232421875">
        <ele>913.20001220703125</ele>
        <time>2021-09-25T12:27:44.000Z</time>
      </trkpt>
      <trkpt lat="40.34709264524281024932861328125" lon="-1.10391885973513126373291015625">
        <ele>913.4000244140625</ele>
        <time>2021-09-25T12:27:46.000Z</time>
      </trkpt>
      <trkpt lat="40.347077138721942901611328125" lon="-1.10384878702461719512939453125">
        <ele>913.79998779296875</ele>
        <time>2021-09-25T12:27:48.000Z</time>
      </trkpt>
      <trkpt lat="40.3470722772181034088134765625" lon="-1.10377737320959568023681640625">
        <ele>914</ele>
        <time>2021-09-25T12:27:50.000Z</time>
      </trkpt>
      <trkpt lat="40.34706096164882183074951171875" lon="-1.10371199436485767364501953125">
        <ele>914</ele>
        <time>2021-09-25T12:27:52.000Z</time>
      </trkpt>
      <trkpt lat="40.34704386256635189056396484375" lon="-1.1036550812423229217529296875">
        <ele>914</ele>
        <time>2021-09-25T12:27:54.000Z</time>
      </trkpt>
      <trkpt lat="40.3470151126384735107421875" lon="-1.103608310222625732421875">
        <ele>914.20001220703125</ele>
        <time>2021-09-25T12:27:56.000Z</time>
      </trkpt>
      <trkpt lat="40.3469882905483245849609375" lon="-1.10357335768640041351318359375">
        <ele>914.4000244140625</ele>
        <time>2021-09-25T12:27:58.000Z</time>
      </trkpt>
      <trkpt lat="40.34697647206485271453857421875" lon="-1.10354888252913951873779296875">
        <ele>914.5999755859375</ele>
        <time>2021-09-25T12:27:59.000Z</time>
      </trkpt>
      <trkpt lat="40.34696121700108051300048828125" lon="-1.10352172516286373138427734375">
        <ele>914.79998779296875</ele>
        <time>2021-09-25T12:28:00.000Z</time>
      </trkpt>
      <trkpt lat="40.34693975932896137237548828125" lon="-1.103466488420963287353515625">
        <ele>914.79998779296875</ele>
        <time>2021-09-25T12:28:02.000Z</time>
      </trkpt>
      <trkpt lat="40.34693070687353610992431640625" lon="-1.103424243628978729248046875">
        <ele>915</ele>
        <time>2021-09-25T12:28:04.000Z</time>
      </trkpt>
      <trkpt lat="40.34691746346652507781982421875" lon="-1.10339968465268611907958984375">
        <ele>915.20001220703125</ele>
        <time>2021-09-25T12:28:06.000Z</time>
      </trkpt>
      <trkpt lat="40.346875302493572235107421875" lon="-1.103410832583904266357421875">
        <ele>915.4000244140625</ele>
        <time>2021-09-25T12:28:09.000Z</time>
      </trkpt>
      <trkpt lat="40.3468550182878971099853515625" lon="-1.10341862775385379791259765625">
        <ele>915.20001220703125</ele>
        <time>2021-09-25T12:28:10.000Z</time>
      </trkpt>
      <trkpt lat="40.34681302495300769805908203125" lon="-1.10343589447438716888427734375">
        <ele>915.20001220703125</ele>
        <time>2021-09-25T12:28:12.000Z</time>
      </trkpt>
      <trkpt lat="40.3467966802418231964111328125" lon="-1.10344712622463703155517578125">
        <ele>915.20001220703125</ele>
        <time>2021-09-25T12:28:14.000Z</time>
      </trkpt>
      <trkpt lat="40.34679315984249114990234375" lon="-1.1034448631107807159423828125">
        <ele>915.20001220703125</ele>
        <time>2021-09-25T12:28:15.000Z</time>
      </trkpt>
      <trkpt lat="40.34676742739975452423095703125" lon="-1.10327512957155704498291015625">
        <ele>915.79998779296875</ele>
        <time>2021-09-26T06:59:50.000Z</time>
      </trkpt>
      <trkpt lat="40.34676742739975452423095703125" lon="-1.10327512957155704498291015625">
        <ele>915.79998779296875</ele>
        <time>2021-09-26T06:59:51.000Z</time>
      </trkpt>
      <trkpt lat="40.34679123200476169586181640625" lon="-1.103302203118801116943359375">
        <ele>915.79998779296875</ele>
        <time>2021-09-26T07:00:27.000Z</time>
      </trkpt>
      <trkpt lat="40.3468112647533416748046875" lon="-1.10332055948674678802490234375">
        <ele>915.5999755859375</ele>
        <time>2021-09-26T07:00:28.000Z</time>
      </trkpt>
      <trkpt lat="40.3468322195112705230712890625" lon="-1.10333941876888275146484375">
        <ele>915.5999755859375</ele>
        <time>2021-09-26T07:00:29.000Z</time>
      </trkpt>
      <trkpt lat="40.34687203355133533477783203125" lon="-1.1033761315047740936279296875">
        <ele>915.4000244140625</ele>
        <time>2021-09-26T07:00:31.000Z</time>
      </trkpt>
      <trkpt lat="40.3469207324087619781494140625" lon="-1.1034213937819004058837890625">
        <ele>915.20001220703125</ele>
        <time>2021-09-26T07:00:33.000Z</time>
      </trkpt>
      <trkpt lat="40.34695970825850963592529296875" lon="-1.1035035364329814910888671875">
        <ele>914.79998779296875</ele>
        <time>2021-09-26T07:00:35.000Z</time>
      </trkpt>
      <trkpt lat="40.3470011986792087554931640625" lon="-1.1036104895174503326416015625">
        <ele>914.20001220703125</ele>
        <time>2021-09-26T07:00:37.000Z</time>
      </trkpt>
      <trkpt lat="40.34702123142778873443603515625" lon="-1.10366455279290676116943359375">
        <ele>914</ele>
        <time>2021-09-26T07:00:38.000Z</time>
      </trkpt>
      <trkpt lat="40.347037576138973236083984375" lon="-1.10372238792479038238525390625">
        <ele>914</ele>
        <time>2021-09-26T07:00:39.000Z</time>
      </trkpt>
      <trkpt lat="40.347086526453495025634765625" lon="-1.103841327130794525146484375">
        <ele>913.79998779296875</ele>
        <time>2021-09-26T07:00:41.000Z</time>
      </trkpt>
      <trkpt lat="40.3471356444060802459716796875" lon="-1.10397501848638057708740234375">
        <ele>913.20001220703125</ele>
        <time>2021-09-26T07:00:43.000Z</time>
      </trkpt>
      <trkpt lat="40.34718031994998455047607421875" lon="-1.1041150800883769989013671875">
        <ele>913</ele>
        <time>2021-09-26T07:00:45.000Z</time>
      </trkpt>
      <trkpt lat="40.34719507209956645965576171875" lon="-1.10418288968503475189208984375">
        <ele>913</ele>
        <time>2021-09-26T07:00:46.000Z</time>
      </trkpt>
      <trkpt lat="40.34720546565949916839599609375" lon="-1.10424173064529895782470703125">
        <ele>913</ele>
        <time>2021-09-26T07:00:47.000Z</time>
      </trkpt>
      <trkpt lat="40.347251482307910919189453125" lon="-1.104319095611572265625">
        <ele>913</ele>
        <time>2021-09-26T07:00:49.000Z</time>
      </trkpt>
      <trkpt lat="40.34735013730823993682861328125" lon="-1.1043155752122402191162109375">
        <ele>913</ele>
        <time>2021-09-26T07:00:51.000Z</time>
      </trkpt>
      <trkpt lat="40.34738047979772090911865234375" lon="-1.10430040396749973297119140625">
        <ele>913</ele>
        <time>2021-09-26T07:00:52.000Z</time>
      </trkpt>
      <trkpt lat="40.3474139235913753509521484375" lon="-1.1042828857898712158203125">
        <ele>913</ele>
        <time>2021-09-26T07:00:53.000Z</time>
      </trkpt>
      <trkpt lat="40.347483158111572265625" lon="-1.1042542196810245513916015625">
        <ele>913</ele>
        <time>2021-09-26T07:00:55.000Z</time>
      </trkpt>
      <trkpt lat="40.3475542366504669189453125" lon="-1.10424089245498180389404296875">
        <ele>912.5999755859375</ele>
        <time>2021-09-26T07:00:57.000Z</time>
      </trkpt>
      <trkpt lat="40.3476388938724994659423828125" lon="-1.10423167236149311065673828125">
        <ele>912.4000244140625</ele>
        <time>2021-09-26T07:00:59.000Z</time>
      </trkpt>
      <trkpt lat="40.347683317959308624267578125" lon="-1.10422094352543354034423828125">
        <ele>912.20001220703125</ele>
        <time>2021-09-26T07:01:00.000Z</time>
      </trkpt>
      <trkpt lat="40.34772782586514949798583984375" lon="-1.1042146570980548858642578125">
        <ele>912</ele>
        <time>2021-09-26T07:01:01.000Z</time>
      </trkpt>
      <trkpt lat="40.3477736748754978179931640625" lon="-1.10420987941324710845947265625">
        <ele>911.79998779296875</ele>
        <time>2021-09-26T07:01:02.000Z</time>
      </trkpt>
      <trkpt lat="40.34781164489686489105224609375" lon="-1.10420350916683673858642578125">
        <ele>911.79998779296875</ele>
        <time>2021-09-26T07:01:03.000Z</time>
      </trkpt>
      <trkpt lat="40.3478732518851757049560546875" lon="-1.10418288968503475189208984375">
        <ele>911.5999755859375</ele>
        <time>2021-09-26T07:01:05.000Z</time>
      </trkpt>
      <trkpt lat="40.34791775979101657867431640625" lon="-1.1041750945150852203369140625">
        <ele>911.5999755859375</ele>
        <time>2021-09-26T07:01:07.000Z</time>
      </trkpt>
      <trkpt lat="40.3479771874845027923583984375" lon="-1.1041636951267719268798828125">
        <ele>911.5999755859375</ele>
        <time>2021-09-26T07:01:09.000Z</time>
      </trkpt>
      <trkpt lat="40.34799881279468536376953125" lon="-1.10415489412844181060791015625">
        <ele>911.5999755859375</ele>
        <time>2021-09-26T07:01:10.000Z</time>
      </trkpt>
      <trkpt lat="40.34801381640136241912841796875" lon="-1.1041398905217647552490234375">
        <ele>911.5999755859375</ele>
        <time>2021-09-26T07:01:11.000Z</time>
      </trkpt>
      <trkpt lat="40.34805782139301300048828125" lon="-1.1041112244129180908203125">
        <ele>911.79998779296875</ele>
        <time>2021-09-26T07:01:13.000Z</time>
      </trkpt>
      <trkpt lat="40.34808187745511531829833984375" lon="-1.10409353859722614288330078125">
        <ele>911.79998779296875</ele>
        <time>2021-09-26T07:01:14.000Z</time>
      </trkpt>
      <trkpt lat="40.34810283221304416656494140625" lon="-1.10407560132443904876708984375">
        <ele>911.79998779296875</ele>
        <time>2021-09-26T07:01:15.000Z</time>
      </trkpt>
      <trkpt lat="40.34813518635928630828857421875" lon="-1.10404542647302150726318359375">
        <ele>911.79998779296875</ele>
        <time>2021-09-26T07:01:17.000Z</time>
      </trkpt>
      <trkpt lat="40.34817139618098735809326171875" lon="-1.104008965194225311279296875">
        <ele>912</ele>
        <time>2021-09-26T07:01:19.000Z</time>
      </trkpt>
      <trkpt lat="40.3481954522430896759033203125" lon="-1.10399547033011913299560546875">
        <ele>912</ele>
        <time>2021-09-26T07:01:20.000Z</time>
      </trkpt>
      <trkpt lat="40.34822545945644378662109375" lon="-1.103989183902740478515625">
        <ele>912.20001220703125</ele>
        <time>2021-09-26T07:01:21.000Z</time>
      </trkpt>
      <trkpt lat="40.34828689880669116973876953125" lon="-1.10398088581860065460205078125">
        <ele>912.5999755859375</ele>
        <time>2021-09-26T07:01:23.000Z</time>
      </trkpt>
      <trkpt lat="40.34834758378565311431884765625" lon="-1.10396479256451129913330078125">
        <ele>912.79998779296875</ele>
        <time>2021-09-26T07:01:25.000Z</time>
      </trkpt>
      <trkpt lat="40.34840994514524936676025390625" lon="-1.1039464361965656280517578125">
        <ele>913</ele>
        <time>2021-09-26T07:01:27.000Z</time>
      </trkpt>
      <trkpt lat="40.34847381524741649627685546875" lon="-1.103933192789554595947265625">
        <ele>913.20001220703125</ele>
        <time>2021-09-26T07:01:29.000Z</time>
      </trkpt>
      <trkpt lat="40.34853751771152019500732421875" lon="-1.10392707400023937225341796875">
        <ele>913.4000244140625</ele>
        <time>2021-09-26T07:01:31.000Z</time>
      </trkpt>
      <trkpt lat="40.34860541112720966339111328125" lon="-1.1039249785244464874267578125">
        <ele>913.5999755859375</ele>
        <time>2021-09-26T07:01:33.000Z</time>
      </trkpt>
      <trkpt lat="40.348669700324535369873046875" lon="-1.103923805058002471923828125">
        <ele>913.5999755859375</ele>
        <time>2021-09-26T07:01:35.000Z</time>
      </trkpt>
      <trkpt lat="40.348732732236385345458984375" lon="-1.10391668044030666351318359375">
        <ele>913.4000244140625</ele>
        <time>2021-09-26T07:01:37.000Z</time>
      </trkpt>
      <trkpt lat="40.3487949259579181671142578125" lon="-1.1039018444716930389404296875">
        <ele>913.4000244140625</ele>
        <time>2021-09-26T07:01:39.000Z</time>
      </trkpt>
      <trkpt lat="40.34886206500232219696044921875" lon="-1.1038773693144321441650390625">
        <ele>913.4000244140625</ele>
        <time>2021-09-26T07:01:41.000Z</time>
      </trkpt>
      <trkpt lat="40.34892492927610874176025390625" lon="-1.10383705236017704010009765625">
        <ele>913.20001220703125</ele>
        <time>2021-09-26T07:01:43.000Z</time>
      </trkpt>
      <trkpt lat="40.34895409829914569854736328125" lon="-1.103817522525787353515625">
        <ele>913.20001220703125</ele>
        <time>2021-09-26T07:01:44.000Z</time>
      </trkpt>
      <trkpt lat="40.34907144494354724884033203125" lon="-1.10371953807771205902099609375">
        <ele>912.79998779296875</ele>
        <time>2021-09-26T07:01:50.000Z</time>
      </trkpt>
      <trkpt lat="40.349116288125514984130859375" lon="-1.10369724221527576446533203125">
        <ele>912.79998779296875</ele>
        <time>2021-09-26T07:01:52.000Z</time>
      </trkpt>
      <trkpt lat="40.3491409309208393096923828125" lon="-1.10368349589407444000244140625">
        <ele>912.79998779296875</ele>
        <time>2021-09-26T07:01:53.000Z</time>
      </trkpt>
      <trkpt lat="40.3491660766303539276123046875" lon="-1.1036708392202854156494140625">
        <ele>912.79998779296875</ele>
        <time>2021-09-26T07:01:54.000Z</time>
      </trkpt>
      <trkpt lat="40.34922047518193721771240234375" lon="-1.10364292748272418975830078125">
        <ele>912.79998779296875</ele>
        <time>2021-09-26T07:01:56.000Z</time>
      </trkpt>
      <trkpt lat="40.34927956759929656982421875" lon="-1.10362230800092220306396484375">
        <ele>913</ele>
        <time>2021-09-26T07:01:58.000Z</time>
      </trkpt>
      <trkpt lat="40.34933455288410186767578125" lon="-1.10360822640359401702880859375">
        <ele>913.20001220703125</ele>
        <time>2021-09-26T07:02:00.000Z</time>
      </trkpt>
      <trkpt lat="40.34938710741698741912841796875" lon="-1.1035796441137790679931640625">
        <ele>913.20001220703125</ele>
        <time>2021-09-26T07:02:02.000Z</time>
      </trkpt>
      <trkpt lat="40.3494336269795894622802734375" lon="-1.103554666042327880859375">
        <ele>913.4000244140625</ele>
        <time>2021-09-26T07:02:04.000Z</time>
      </trkpt>
      <trkpt lat="40.349481403827667236328125" lon="-1.10352708958089351654052734375">
        <ele>913.5999755859375</ele>
        <time>2021-09-26T07:02:06.000Z</time>
      </trkpt>
      <trkpt lat="40.34953177906572818756103515625" lon="-1.10348828136920928955078125">
        <ele>913.79998779296875</ele>
        <time>2021-09-26T07:02:08.000Z</time>
      </trkpt>
      <trkpt lat="40.3495741076767444610595703125" lon="-1.10345098190009593963623046875">
        <ele>914</ele>
        <time>2021-09-26T07:02:10.000Z</time>
      </trkpt>
      <trkpt lat="40.3496280871331691741943359375" lon="-1.10340706072747707366943359375">
        <ele>914.20001220703125</ele>
        <time>2021-09-26T07:02:12.000Z</time>
      </trkpt>
      <trkpt lat="40.34964912571012973785400390625" lon="-1.10338526777923107147216796875">
        <ele>914.4000244140625</ele>
        <time>2021-09-26T07:02:13.000Z</time>
      </trkpt>
      <trkpt lat="40.34966857172548770904541015625" lon="-1.103365905582904815673828125">
        <ele>914.4000244140625</ele>
        <time>2021-09-26T07:02:14.000Z</time>
      </trkpt>
      <trkpt lat="40.349703691899776458740234375" lon="-1.10331770963966846466064453125">
        <ele>914.5999755859375</ele>
        <time>2021-09-26T07:02:16.000Z</time>
      </trkpt>
      <trkpt lat="40.34973822534084320068359375" lon="-1.10327395610511302947998046875">
        <ele>914.79998779296875</ele>
        <time>2021-09-26T07:02:18.000Z</time>
      </trkpt>
      <trkpt lat="40.3497742675244808197021484375" lon="-1.1032410152256488800048828125">
        <ele>915</ele>
        <time>2021-09-26T07:02:20.000Z</time>
      </trkpt>
      <trkpt lat="40.3498081304132938385009765625" lon="-1.10321410931646823883056640625">
        <ele>915.4000244140625</ele>
        <time>2021-09-26T07:02:22.000Z</time>
      </trkpt>
      <trkpt lat="40.34983872435986995697021484375" lon="-1.10319592058658599853515625">
        <ele>915.79998779296875</ele>
        <time>2021-09-26T07:02:24.000Z</time>
      </trkpt>
      <trkpt lat="40.34987191669642925262451171875" lon="-1.1031840182840824127197265625">
        <ele>916</ele>
        <time>2021-09-26T07:02:26.000Z</time>
      </trkpt>
      <trkpt lat="40.34991323947906494140625" lon="-1.10317119397222995758056640625">
        <ele>916.5999755859375</ele>
        <time>2021-09-26T07:02:28.000Z</time>
      </trkpt>
      <trkpt lat="40.34994718618690967559814453125" lon="-1.103156693279743194580078125">
        <ele>916.79998779296875</ele>
        <time>2021-09-26T07:02:30.000Z</time>
      </trkpt>
      <trkpt lat="40.3499777801334857940673828125" lon="-1.1031411029398441314697265625">
        <ele>917.20001220703125</ele>
        <time>2021-09-26T07:02:32.000Z</time>
      </trkpt>
      <trkpt lat="40.35000468604266643524169921875" lon="-1.1031250096857547760009765625">
        <ele>917.4000244140625</ele>
        <time>2021-09-26T07:02:34.000Z</time>
      </trkpt>
      <trkpt lat="40.3500116430222988128662109375" lon="-1.10311201773583889007568359375">
        <ele>917.4000244140625</ele>
        <time>2021-09-26T07:02:35.000Z</time>
      </trkpt>
      <trkpt lat="40.35002144984900951385498046875" lon="-1.10309273935854434967041015625">
        <ele>917.4000244140625</ele>
        <time>2021-09-26T07:02:36.000Z</time>
      </trkpt>
      <trkpt lat="40.35002656280994415283203125" lon="-1.1030302941799163818359375">
        <ele>917.4000244140625</ele>
        <time>2021-09-26T07:02:38.000Z</time>
      </trkpt>
      <trkpt lat="40.3500156663358211517333984375" lon="-1.10294044017791748046875">
        <ele>917.4000244140625</ele>
        <time>2021-09-26T07:02:40.000Z</time>
      </trkpt>
      <trkpt lat="40.3500046022236347198486328125" lon="-1.10282041132450103759765625">
        <ele>917.4000244140625</ele>
        <time>2021-09-26T07:02:42.000Z</time>
      </trkpt>
      <trkpt lat="40.34998825751245021820068359375" lon="-1.102679930627346038818359375">
        <ele>917.20001220703125</ele>
        <time>2021-09-26T07:02:44.000Z</time>
      </trkpt>
      <trkpt lat="40.349981300532817840576171875" lon="-1.10262385569512844085693359375">
        <ele>917.20001220703125</ele>
        <time>2021-09-26T07:02:45.000Z</time>
      </trkpt>
      <trkpt lat="40.34997216425836086273193359375" lon="-1.10257104970514774322509765625">
        <ele>917.4000244140625</ele>
        <time>2021-09-26T07:02:46.000Z</time>
      </trkpt>
      <trkpt lat="40.34997216425836086273193359375" lon="-1.10248287208378314971923828125">
        <ele>917.79998779296875</ele>
        <time>2021-09-26T07:02:48.000Z</time>
      </trkpt>
      <trkpt lat="40.349990017712116241455078125" lon="-1.10245688818395137786865234375">
        <ele>917.79998779296875</ele>
        <time>2021-09-26T07:02:49.000Z</time>
      </trkpt>
      <trkpt lat="40.35001290030777454376220703125" lon="-1.1024397052824497222900390625">
        <ele>918</ele>
        <time>2021-09-26T07:02:50.000Z</time>
      </trkpt>
      <trkpt lat="40.35006411373615264892578125" lon="-1.102414391934871673583984375">
        <ele>918.20001220703125</ele>
        <time>2021-09-26T07:02:52.000Z</time>
      </trkpt>
      <trkpt lat="40.3500944562256336212158203125" lon="-1.10240609385073184967041015625">
        <ele>918.4000244140625</ele>
        <time>2021-09-26T07:02:53.000Z</time>
      </trkpt>
      <trkpt lat="40.350138209760189056396484375" lon="-1.10241950489580631256103515625">
        <ele>918.5999755859375</ele>
        <time>2021-09-26T07:02:54.000Z</time>
      </trkpt>
      <trkpt lat="40.35019076429307460784912109375" lon="-1.1024041660130023956298828125">
        <ele>918.79998779296875</ele>
        <time>2021-09-26T07:02:56.000Z</time>
      </trkpt>
      <trkpt lat="40.3502352721989154815673828125" lon="-1.10236686654388904571533203125">
        <ele>919.20001220703125</ele>
        <time>2021-09-26T07:02:58.000Z</time>
      </trkpt>
      <trkpt lat="40.3502820432186126708984375" lon="-1.1023203469812870025634765625">
        <ele>919.20001220703125</ele>
        <time>2021-09-26T07:03:00.000Z</time>
      </trkpt>
      <trkpt lat="40.35033459775149822235107421875" lon="-1.10226385295391082763671875">
        <ele>919.20001220703125</ele>
        <time>2021-09-26T07:03:02.000Z</time>
      </trkpt>
      <trkpt lat="40.350374914705753326416015625" lon="-1.1022073589265346527099609375">
        <ele>919.4000244140625</ele>
        <time>2021-09-26T07:03:04.000Z</time>
      </trkpt>
      <trkpt lat="40.35039159469306468963623046875" lon="-1.10217844136059284210205078125">
        <ele>919.4000244140625</ele>
        <time>2021-09-26T07:03:05.000Z</time>
      </trkpt>
      <trkpt lat="40.35040483810007572174072265625" lon="-1.1021486856043338775634765625">
        <ele>919.5999755859375</ele>
        <time>2021-09-26T07:03:06.000Z</time>
      </trkpt>
      <trkpt lat="40.3504260443150997161865234375" lon="-1.10209194011986255645751953125">
        <ele>919.79998779296875</ele>
        <time>2021-09-26T07:03:08.000Z</time>
      </trkpt>
      <trkpt lat="40.35044892691075801849365234375" lon="-1.1020330153405666351318359375">
        <ele>919.79998779296875</ele>
        <time>2021-09-26T07:03:10.000Z</time>
      </trkpt>
      <trkpt lat="40.35047113895416259765625" lon="-1.10197694040834903717041015625">
        <ele>919.79998779296875</ele>
        <time>2021-09-26T07:03:12.000Z</time>
      </trkpt>
      <trkpt lat="40.350502990186214447021484375" lon="-1.10192723572254180908203125">
        <ele>919.79998779296875</ele>
        <time>2021-09-26T07:03:14.000Z</time>
      </trkpt>
      <trkpt lat="40.3505423851311206817626953125" lon="-1.1018841527402400970458984375">
        <ele>919.79998779296875</ele>
        <time>2021-09-26T07:03:16.000Z</time>
      </trkpt>
      <trkpt lat="40.350576750934123992919921875" lon="-1.10184031538665294647216796875">
        <ele>919.79998779296875</ele>
        <time>2021-09-26T07:03:18.000Z</time>
      </trkpt>
      <trkpt lat="40.35061421804130077362060546875" lon="-1.10180997289717197418212890625">
        <ele>919.79998779296875</ele>
        <time>2021-09-26T07:03:20.000Z</time>
      </trkpt>
      <trkpt lat="40.350659899413585662841796875" lon="-1.10179044306278228759765625">
        <ele>920</ele>
        <time>2021-09-26T07:03:22.000Z</time>
      </trkpt>
      <trkpt lat="40.3507086820900440216064453125" lon="-1.10177979804575443267822265625">
        <ele>919.79998779296875</ele>
        <time>2021-09-26T07:03:24.000Z</time>
      </trkpt>
      <trkpt lat="40.3507227636873722076416015625" lon="-1.1017704941332340240478515625">
        <ele>920</ele>
        <time>2021-09-26T07:03:25.000Z</time>
      </trkpt>
      <trkpt lat="40.35074162296950817108154296875" lon="-1.1017562448978424072265625">
        <ele>920</ele>
        <time>2021-09-26T07:03:26.000Z</time>
      </trkpt>
      <trkpt lat="40.3507797606289386749267578125" lon="-1.101721711456775665283203125">
        <ele>920.20001220703125</ele>
        <time>2021-09-26T07:03:28.000Z</time>
      </trkpt>
      <trkpt lat="40.3508203290402889251708984375" lon="-1.10167670063674449920654296875">
        <ele>920.79998779296875</ele>
        <time>2021-09-26T07:03:30.000Z</time>
      </trkpt>
      <trkpt lat="40.3508360870182514190673828125" lon="-1.10165272839367389678955078125">
        <ele>921.20001220703125</ele>
        <time>2021-09-26T07:03:31.000Z</time>
      </trkpt>
      <trkpt lat="40.350853018462657928466796875" lon="-1.10162707976996898651123046875">
        <ele>921.4000244140625</ele>
        <time>2021-09-26T07:03:32.000Z</time>
      </trkpt>
      <trkpt lat="40.35088327713310718536376953125" lon="-1.10156941227614879608154296875">
        <ele>922.20001220703125</ele>
        <time>2021-09-26T07:03:34.000Z</time>
      </trkpt>
      <trkpt lat="40.35091630183160305023193359375" lon="-1.10151492990553379058837890625">
        <ele>922.79998779296875</ele>
        <time>2021-09-26T07:03:36.000Z</time>
      </trkpt>
      <trkpt lat="40.3509484045207500457763671875" lon="-1.1014643870294094085693359375">
        <ele>923.5999755859375</ele>
        <time>2021-09-26T07:03:38.000Z</time>
      </trkpt>
      <trkpt lat="40.35098201595246791839599609375" lon="-1.1014154367148876190185546875">
        <ele>924.20001220703125</ele>
        <time>2021-09-26T07:03:40.000Z</time>
      </trkpt>
      <trkpt lat="40.35102275200188159942626953125" lon="-1.101365648210048675537109375">
        <ele>924.79998779296875</ele>
        <time>2021-09-26T07:03:42.000Z</time>
      </trkpt>
      <trkpt lat="40.35106725990772247314453125" lon="-1.1013151891529560089111328125">
        <ele>925.5999755859375</ele>
        <time>2021-09-26T07:03:44.000Z</time>
      </trkpt>
      <trkpt lat="40.3510912321507930755615234375" lon="-1.10129616223275661468505859375">
        <ele>925.79998779296875</ele>
        <time>2021-09-26T07:03:45.000Z</time>
      </trkpt>
      <trkpt lat="40.35111361183226108551025390625" lon="-1.101282499730587005615234375">
        <ele>926.20001220703125</ele>
        <time>2021-09-26T07:03:46.000Z</time>
      </trkpt>
      <trkpt lat="40.35115174949169158935546875" lon="-1.10125534236431121826171875">
        <ele>926.5999755859375</ele>
        <time>2021-09-26T07:03:48.000Z</time>
      </trkpt>
      <trkpt lat="40.3511859476566314697265625" lon="-1.10123790800571441650390625">
        <ele>926.79998779296875</ele>
        <time>2021-09-26T07:03:50.000Z</time>
      </trkpt>
      <trkpt lat="40.35120044834911823272705078125" lon="-1.10123296268284320831298828125">
        <ele>927</ele>
        <time>2021-09-26T07:03:51.000Z</time>
      </trkpt>
      <trkpt lat="40.35122173838317394256591796875" lon="-1.10123966820538043975830078125">
        <ele>927</ele>
        <time>2021-09-26T07:03:52.000Z</time>
      </trkpt>
      <trkpt lat="40.35125677473843097686767578125" lon="-1.1012712679803371429443359375">
        <ele>926.79998779296875</ele>
        <time>2021-09-26T07:03:54.000Z</time>
      </trkpt>
      <trkpt lat="40.35126733593642711639404296875" lon="-1.10129163600504398345947265625">
        <ele>926.5999755859375</ele>
        <time>2021-09-26T07:03:55.000Z</time>
      </trkpt>
      <trkpt lat="40.3512786515057086944580078125" lon="-1.10131108202040195465087890625">
        <ele>926.4000244140625</ele>
        <time>2021-09-26T07:03:56.000Z</time>
      </trkpt>
      <trkpt lat="40.35130924545228481292724609375" lon="-1.1013386584818363189697265625">
        <ele>926.20001220703125</ele>
        <time>2021-09-26T07:03:58.000Z</time>
      </trkpt>
      <trkpt lat="40.35133858211338520050048828125" lon="-1.1013681627810001373291015625">
        <ele>926</ele>
        <time>2021-09-26T07:04:00.000Z</time>
      </trkpt>
      <trkpt lat="40.3513524122536182403564453125" lon="-1.10138006508350372314453125">
        <ele>926</ele>
        <time>2021-09-26T07:04:01.000Z</time>
      </trkpt>
      <trkpt lat="40.3513631410896778106689453125" lon="-1.10138920135796070098876953125">
        <ele>926</ele>
        <time>2021-09-26T07:04:02.000Z</time>
      </trkpt>
      <trkpt lat="40.3513842634856700897216796875" lon="-1.10141753219068050384521484375">
        <ele>925.79998779296875</ele>
        <time>2021-09-26T07:04:04.000Z</time>
      </trkpt>
      <trkpt lat="40.3513980098068714141845703125" lon="-1.1014348827302455902099609375">
        <ele>925.5999755859375</ele>
        <time>2021-09-26T07:04:06.000Z</time>
      </trkpt>
      <trkpt lat="40.3514187969267368316650390625" lon="-1.10144083388149738311767578125">
        <ele>925.79998779296875</ele>
        <time>2021-09-26T07:04:08.000Z</time>
      </trkpt>
      <trkpt lat="40.351431705057621002197265625" lon="-1.10144770704209804534912109375">
        <ele>925.79998779296875</ele>
        <time>2021-09-26T07:04:09.000Z</time>
      </trkpt>
      <trkpt lat="40.35143832676112651824951171875" lon="-1.10145323909819126129150390625">
        <ele>925.79998779296875</ele>
        <time>2021-09-26T07:04:10.000Z</time>
      </trkpt>
      <trkpt lat="40.35145374946296215057373046875" lon="-1.1014690808951854705810546875">
        <ele>925.79998779296875</ele>
        <time>2021-09-26T07:04:12.000Z</time>
      </trkpt>
      <trkpt lat="40.35146531648933887481689453125" lon="-1.1014694161713123321533203125">
        <ele>925.79998779296875</ele>
        <time>2021-09-26T07:04:14.000Z</time>
      </trkpt>
      <trkpt lat="40.35146531648933887481689453125" lon="-1.1014694161713123321533203125">
        <ele>925.79998779296875</ele>
        <time>2021-09-26T07:04:15.000Z</time>
      </trkpt>
      <trkpt lat="40.35147386603057384490966796875" lon="-1.1014969088137149810791015625">
        <ele>925.5999755859375</ele>
        <time>2021-09-26T07:04:21.000Z</time>
      </trkpt>
      <trkpt lat="40.3514637239277362823486328125" lon="-1.101507805287837982177734375">
        <ele>925.4000244140625</ele>
        <time>2021-09-26T07:04:22.000Z</time>
      </trkpt>
      <trkpt lat="40.351437069475650787353515625" lon="-1.1014925502240657806396484375">
        <ele>925.4000244140625</ele>
        <time>2021-09-26T07:04:24.000Z</time>
      </trkpt>
      <trkpt lat="40.3514020331203937530517578125" lon="-1.10145474784076213836669921875">
        <ele>925.4000244140625</ele>
        <time>2021-09-26T07:04:26.000Z</time>
      </trkpt>
      <trkpt lat="40.35134880803525447845458984375" lon="-1.10139607451856136322021484375">
        <ele>925.79998779296875</ele>
        <time>2021-09-26T07:04:28.000Z</time>
      </trkpt>
      <trkpt lat="40.35129097290337085723876953125" lon="-1.1013363115489482879638671875">
        <ele>926.20001220703125</ele>
        <time>2021-09-26T07:04:30.000Z</time>
      </trkpt>
      <trkpt lat="40.35127035342156887054443359375" lon="-1.10130839981138706207275390625">
        <ele>926.4000244140625</ele>
        <time>2021-09-26T07:04:31.000Z</time>
      </trkpt>
      <trkpt lat="40.351257026195526123046875" lon="-1.10128912143409252166748046875">
        <ele>926.5999755859375</ele>
        <time>2021-09-26T07:04:32.000Z</time>
      </trkpt>
      <trkpt lat="40.35123095847666263580322265625" lon="-1.10126531682908535003662109375">
        <ele>926.79998779296875</ele>
        <time>2021-09-26T07:04:34.000Z</time>
      </trkpt>
      <trkpt lat="40.35122190602123737335205078125" lon="-1.101261042058467864990234375">
        <ele>926.79998779296875</ele>
        <time>2021-09-26T07:04:36.000Z</time>
      </trkpt>
      <trkpt lat="40.351306311786174774169921875" lon="-1.1013537459075450897216796875">
        <ele>926</ele>
        <time>2021-09-26T07:16:48.000Z</time>
      </trkpt>
      <trkpt lat="40.3513349778950214385986328125" lon="-1.10137998126447200775146484375">
        <ele>925.79998779296875</ele>
        <time>2021-09-26T07:16:50.000Z</time>
      </trkpt>
      <trkpt lat="40.35134981386363506317138671875" lon="-1.101389117538928985595703125">
        <ele>925.79998779296875</ele>
        <time>2021-09-26T07:16:51.000Z</time>
      </trkpt>
      <trkpt lat="40.35136389546096324920654296875" lon="-1.1014003492891788482666015625">
        <ele>925.79998779296875</ele>
        <time>2021-09-26T07:16:52.000Z</time>
      </trkpt>
      <trkpt lat="40.351377390325069427490234375" lon="-1.10142038203775882720947265625">
        <ele>925.5999755859375</ele>
        <time>2021-09-26T07:16:53.000Z</time>
      </trkpt>
      <trkpt lat="40.35138585604727268218994140625" lon="-1.10143127851188182830810546875">
        <ele>925.5999755859375</ele>
        <time>2021-09-26T07:16:54.000Z</time>
      </trkpt>
      <trkpt lat="40.3513953275978565216064453125" lon="-1.10144443809986114501953125">
        <ele>925.5999755859375</ele>
        <time>2021-09-26T07:16:55.000Z</time>
      </trkpt>
      <trkpt lat="40.35141150467097759246826171875" lon="-1.10145575366914272308349609375">
        <ele>925.5999755859375</ele>
        <time>2021-09-26T07:16:56.000Z</time>
      </trkpt>
      <trkpt lat="40.35142793320119380950927734375" lon="-1.1014692485332489013671875">
        <ele>925.5999755859375</ele>
        <time>2021-09-26T07:16:57.000Z</time>
      </trkpt>
      <trkpt lat="40.3514442779123783111572265625" lon="-1.10148341394960880279541015625">
        <ele>925.4000244140625</ele>
        <time>2021-09-26T07:16:58.000Z</time>
      </trkpt>
      <trkpt lat="40.35145618021488189697265625" lon="-1.101495064795017242431640625">
        <ele>925.4000244140625</ele>
        <time>2021-09-26T07:16:59.000Z</time>
      </trkpt>
      <trkpt lat="40.3514674119651317596435546875" lon="-1.101503781974315643310546875">
        <ele>925.4000244140625</ele>
        <time>2021-09-26T07:17:00.000Z</time>
      </trkpt>
      <trkpt lat="40.35149197094142436981201171875" lon="-1.101524569094181060791015625">
        <ele>925.4000244140625</ele>
        <time>2021-09-26T07:17:02.000Z</time>
      </trkpt>
      <trkpt lat="40.35152248106896877288818359375" lon="-1.10155466012656688690185546875">
        <ele>925.20001220703125</ele>
        <time>2021-09-26T07:17:04.000Z</time>
      </trkpt>
      <trkpt lat="40.3515619598329067230224609375" lon="-1.1015837453305721282958984375">
        <ele>925.5999755859375</ele>
        <time>2021-09-26T07:17:06.000Z</time>
      </trkpt>
      <trkpt lat="40.35160797648131847381591796875" lon="-1.10160696320235729217529296875">
        <ele>925.79998779296875</ele>
        <time>2021-09-26T07:17:08.000Z</time>
      </trkpt>
      <trkpt lat="40.35166245885193347930908203125" lon="-1.10163110308349132537841796875">
        <ele>926.20001220703125</ele>
        <time>2021-09-26T07:17:10.000Z</time>
      </trkpt>
      <trkpt lat="40.3517148457467555999755859375" lon="-1.10165708698332309722900390625">
        <ele>926.4000244140625</ele>
        <time>2021-09-26T07:17:12.000Z</time>
      </trkpt>
      <trkpt lat="40.3517735190689563751220703125" lon="-1.1016665585339069366455078125">
        <ele>926.5999755859375</ele>
        <time>2021-09-26T07:17:14.000Z</time>
      </trkpt>
      <trkpt lat="40.35179656930267810821533203125" lon="-1.10167150385677814483642578125">
        <ele>926.5999755859375</ele>
        <time>2021-09-26T07:17:15.000Z</time>
      </trkpt>
      <trkpt lat="40.3518184460699558258056640625" lon="-1.10167636536061763763427734375">
        <ele>926.79998779296875</ele>
        <time>2021-09-26T07:17:16.000Z</time>
      </trkpt>
      <trkpt lat="40.35186119377613067626953125" lon="-1.1016816459596157073974609375">
        <ele>927.20001220703125</ele>
        <time>2021-09-26T07:17:18.000Z</time>
      </trkpt>
      <trkpt lat="40.35190586932003498077392578125" lon="-1.10168156214058399200439453125">
        <ele>927.4000244140625</ele>
        <time>2021-09-26T07:17:20.000Z</time>
      </trkpt>
      <trkpt lat="40.3519287519156932830810546875" lon="-1.1016838252544403076171875">
        <ele>927.5999755859375</ele>
        <time>2021-09-26T07:17:21.000Z</time>
      </trkpt>
      <trkpt lat="40.35195238888263702392578125" lon="-1.10168290324509143829345703125">
        <ele>927.79998779296875</ele>
        <time>2021-09-26T07:17:22.000Z</time>
      </trkpt>
      <trkpt lat="40.35197460092604160308837890625" lon="-1.101684831082820892333984375">
        <ele>928</ele>
        <time>2021-09-26T07:17:23.000Z</time>
      </trkpt>
      <trkpt lat="40.35199622623622417449951171875" lon="-1.1016843281686305999755859375">
        <ele>928.20001220703125</ele>
        <time>2021-09-26T07:17:24.000Z</time>
      </trkpt>
      <trkpt lat="40.3520367108285427093505859375" lon="-1.1016809754073619842529296875">
        <ele>928.4000244140625</ele>
        <time>2021-09-26T07:17:26.000Z</time>
      </trkpt>
      <trkpt lat="40.35208373330533504486083984375" lon="-1.1016769520938396453857421875">
        <ele>928.79998779296875</ele>
        <time>2021-09-26T07:17:28.000Z</time>
      </trkpt>
      <trkpt lat="40.35212547518312931060791015625" lon="-1.10167619772255420684814453125">
        <ele>929.20001220703125</ele>
        <time>2021-09-26T07:17:30.000Z</time>
      </trkpt>
      <trkpt lat="40.3521641157567501068115234375" lon="-1.101674772799015045166015625">
        <ele>929.5999755859375</ele>
        <time>2021-09-26T07:17:32.000Z</time>
      </trkpt>
      <trkpt lat="40.35219739191234111785888671875" lon="-1.101672090590000152587890625">
        <ele>930</ele>
        <time>2021-09-26T07:17:34.000Z</time>
      </trkpt>
      <trkpt lat="40.35221331752836704254150390625" lon="-1.101670749485492706298828125">
        <ele>930.20001220703125</ele>
        <time>2021-09-26T07:17:35.000Z</time>
      </trkpt>
      <trkpt lat="40.3522320091724395751953125" lon="-1.1016704142093658447265625">
        <ele>930.4000244140625</ele>
        <time>2021-09-26T07:17:36.000Z</time>
      </trkpt>
      <trkpt lat="40.35227157175540924072265625" lon="-1.10166362486779689788818359375">
        <ele>930.79998779296875</ele>
        <time>2021-09-26T07:17:38.000Z</time>
      </trkpt>
      <trkpt lat="40.3523176722228527069091796875" lon="-1.1016601882874965667724609375">
        <ele>931.20001220703125</ele>
        <time>2021-09-26T07:17:40.000Z</time>
      </trkpt>
      <trkpt lat="40.35236117430031299591064453125" lon="-1.10166077502071857452392578125">
        <ele>931.5999755859375</ele>
        <time>2021-09-26T07:17:42.000Z</time>
      </trkpt>
      <trkpt lat="40.352381207048892974853515625" lon="-1.10165524296462535858154296875">
        <ele>931.79998779296875</ele>
        <time>2021-09-26T07:17:43.000Z</time>
      </trkpt>
      <trkpt lat="40.35239872522652149200439453125" lon="-1.10165406949818134307861328125">
        <ele>932</ele>
        <time>2021-09-26T07:17:44.000Z</time>
      </trkpt>
      <trkpt lat="40.3524393774569034576416015625" lon="-1.10164602287113666534423828125">
        <ele>932.4000244140625</ele>
        <time>2021-09-26T07:17:46.000Z</time>
      </trkpt>
      <trkpt lat="40.35247676074504852294921875" lon="-1.1016382277011871337890625">
        <ele>933</ele>
        <time>2021-09-26T07:17:48.000Z</time>
      </trkpt>
      <trkpt lat="40.35248941741883754730224609375" lon="-1.1016368865966796875">
        <ele>933.20001220703125</ele>
        <time>2021-09-26T07:17:49.000Z</time>
      </trkpt>
      <trkpt lat="40.35250014625489711761474609375" lon="-1.10163780860602855682373046875">
        <ele>933.4000244140625</ele>
        <time>2021-09-26T07:17:50.000Z</time>
      </trkpt>
      <trkpt lat="40.3525082767009735107421875" lon="-1.101635880768299102783203125">
        <ele>933.4000244140625</ele>
        <time>2021-09-26T07:17:52.000Z</time>
      </trkpt>
      <trkpt lat="40.35443603061139583587646484375" lon="-1.10122508369386196136474609375">
        <ele>967</ele>
        <time>2021-09-26T07:22:23.000Z</time>
      </trkpt>
      <trkpt lat="40.35444977693259716033935546875" lon="-1.10119256190955638885498046875">
        <ele>967</ele>
        <time>2021-09-26T07:22:24.000Z</time>
      </trkpt>
      <trkpt lat="40.3544676303863525390625" lon="-1.10112399794161319732666015625">
        <ele>966.79998779296875</ele>
        <time>2021-09-26T07:22:26.000Z</time>
      </trkpt>
      <trkpt lat="40.35448531620204448699951171875" lon="-1.1010600440204143524169921875">
        <ele>966.5999755859375</ele>
        <time>2021-09-26T07:22:28.000Z</time>
      </trkpt>
      <trkpt lat="40.3544966317713260650634765625" lon="-1.10099382698535919189453125">
        <ele>966.4000244140625</ele>
        <time>2021-09-26T07:22:30.000Z</time>
      </trkpt>
      <trkpt lat="40.35450476221740245819091796875" lon="-1.1009609699249267578125">
        <ele>966.4000244140625</ele>
        <time>2021-09-26T07:22:31.000Z</time>
      </trkpt>
      <trkpt lat="40.35451213829219341278076171875" lon="-1.100928448140621185302734375">
        <ele>966.20001220703125</ele>
        <time>2021-09-26T07:22:32.000Z</time>
      </trkpt>
      <trkpt lat="40.3545294888317584991455078125" lon="-1.1008706130087375640869140625">
        <ele>966.4000244140625</ele>
        <time>2021-09-26T07:22:34.000Z</time>
      </trkpt>
      <trkpt lat="40.35454181022942066192626953125" lon="-1.10081789083778858184814453125">
        <ele>966.4000244140625</ele>
        <time>2021-09-26T07:22:36.000Z</time>
      </trkpt>
      <trkpt lat="40.354557149112224578857421875" lon="-1.10075687058269977569580078125">
        <ele>966.5999755859375</ele>
        <time>2021-09-26T07:22:38.000Z</time>
      </trkpt>
      <trkpt lat="40.35456209443509578704833984375" lon="-1.100729964673519134521484375">
        <ele>966.79998779296875</ele>
        <time>2021-09-26T07:22:39.000Z</time>
      </trkpt>
      <trkpt lat="40.35456888377666473388671875" lon="-1.1007016338407993316650390625">
        <ele>966.79998779296875</ele>
        <time>2021-09-26T07:22:40.000Z</time>
      </trkpt>
      <trkpt lat="40.3545824624598026275634765625" lon="-1.10064907930791378021240234375">
        <ele>967</ele>
        <time>2021-09-26T07:22:42.000Z</time>
      </trkpt>
      <trkpt lat="40.35459696315228939056396484375" lon="-1.10059359110891819000244140625">
        <ele>967</ele>
        <time>2021-09-26T07:22:44.000Z</time>
      </trkpt>
      <trkpt lat="40.35460383631289005279541015625" lon="-1.10056526027619838714599609375">
        <ele>967.20001220703125</ele>
        <time>2021-09-26T07:22:45.000Z</time>
      </trkpt>
      <trkpt lat="40.35461523570120334625244140625" lon="-1.10053575597703456878662109375">
        <ele>967.20001220703125</ele>
        <time>2021-09-26T07:22:46.000Z</time>
      </trkpt>
      <trkpt lat="40.35462747327983379364013671875" lon="-1.10047616064548492431640625">
        <ele>967.4000244140625</ele>
        <time>2021-09-26T07:22:48.000Z</time>
      </trkpt>
      <trkpt lat="40.3546371124684810638427734375" lon="-1.10041187144815921783447265625">
        <ele>967.5999755859375</ele>
        <time>2021-09-26T07:22:50.000Z</time>
      </trkpt>
      <trkpt lat="40.35464859567582607269287109375" lon="-1.10035235993564128875732421875">
        <ele>968</ele>
        <time>2021-09-26T07:22:52.000Z</time>
      </trkpt>
      <trkpt lat="40.35465412773191928863525390625" lon="-1.1003234423696994781494140625">
        <ele>968.20001220703125</ele>
        <time>2021-09-26T07:22:53.000Z</time>
      </trkpt>
      <trkpt lat="40.35465865395963191986083984375" lon="-1.1002936027944087982177734375">
        <ele>968.20001220703125</ele>
        <time>2021-09-26T07:22:54.000Z</time>
      </trkpt>
      <trkpt lat="40.3546652756631374359130859375" lon="-1.10023518092930316925048828125">
        <ele>968.5999755859375</ele>
        <time>2021-09-26T07:22:56.000Z</time>
      </trkpt>
      <trkpt lat="40.35467323847115039825439453125" lon="-1.10018103383481502532958984375">
        <ele>968.79998779296875</ele>
        <time>2021-09-26T07:22:58.000Z</time>
      </trkpt>
      <trkpt lat="40.3546837158501148223876953125" lon="-1.10012504272162914276123046875">
        <ele>969.20001220703125</ele>
        <time>2021-09-26T07:23:00.000Z</time>
      </trkpt>
      <trkpt lat="40.35470140166580677032470703125" lon="-1.10006938688457012176513671875">
        <ele>969.4000244140625</ele>
        <time>2021-09-26T07:23:02.000Z</time>
      </trkpt>
      <trkpt lat="40.35471581853926181793212890625" lon="-1.10002018511295318603515625">
        <ele>969.79998779296875</ele>
        <time>2021-09-26T07:23:04.000Z</time>
      </trkpt>
      <trkpt lat="40.354730151593685150146484375" lon="-1.09996696002781391143798828125">
        <ele>970</ele>
        <time>2021-09-26T07:23:06.000Z</time>
      </trkpt>
      <trkpt lat="40.35474113188683986663818359375" lon="-1.0998996533453464508056640625">
        <ele>970.4000244140625</ele>
        <time>2021-09-26T07:23:08.000Z</time>
      </trkpt>
      <trkpt lat="40.3547521121799945831298828125" lon="-1.09983804635703563690185546875">
        <ele>970.5999755859375</ele>
        <time>2021-09-26T07:23:10.000Z</time>
      </trkpt>
      <trkpt lat="40.354760326445102691650390625" lon="-1.0998051054775714874267578125">
        <ele>970.5999755859375</ele>
        <time>2021-09-26T07:23:11.000Z</time>
      </trkpt>
      <trkpt lat="40.35477231256663799285888671875" lon="-1.0997722484171390533447265625">
        <ele>970.79998779296875</ele>
        <time>2021-09-26T07:23:12.000Z</time>
      </trkpt>
      <trkpt lat="40.35479343496263027191162109375" lon="-1.09970234334468841552734375">
        <ele>971</ele>
        <time>2021-09-26T07:23:14.000Z</time>
      </trkpt>
      <trkpt lat="40.35481371916830539703369140625" lon="-1.09962967224419116973876953125">
        <ele>971.4000244140625</ele>
        <time>2021-09-26T07:23:16.000Z</time>
      </trkpt>
      <trkpt lat="40.35484020598232746124267578125" lon="-1.09954937361180782318115234375">
        <ele>971.5999755859375</ele>
        <time>2021-09-26T07:23:18.000Z</time>
      </trkpt>
      <trkpt lat="40.35485319793224334716796875" lon="-1.099504530429840087890625">
        <ele>971.5999755859375</ele>
        <time>2021-09-26T07:23:19.000Z</time>
      </trkpt>
      <trkpt lat="40.35486929118633270263671875" lon="-1.09946371056139469146728515625">
        <ele>971.5999755859375</ele>
        <time>2021-09-26T07:23:20.000Z</time>
      </trkpt>
      <trkpt lat="40.354899801313877105712890625" lon="-1.09937503002583980560302734375">
        <ele>971.79998779296875</ele>
        <time>2021-09-26T07:23:22.000Z</time>
      </trkpt>
      <trkpt lat="40.35492829978466033935546875" lon="-1.09928148798644542694091796875">
        <ele>972</ele>
        <time>2021-09-26T07:23:24.000Z</time>
      </trkpt>
      <trkpt lat="40.354941375553607940673828125" lon="-1.09923672862350940704345703125">
        <ele>972</ele>
        <time>2021-09-26T07:23:25.000Z</time>
      </trkpt>
      <trkpt lat="40.35495470277965068817138671875" lon="-1.0991866886615753173828125">
        <ele>972</ele>
        <time>2021-09-26T07:23:26.000Z</time>
      </trkpt>
      <trkpt lat="40.35496794618666172027587890625" lon="-1.0991382412612438201904296875">
        <ele>971.79998779296875</ele>
        <time>2021-09-26T07:23:27.000Z</time>
      </trkpt>
      <trkpt lat="40.35498236306011676788330078125" lon="-1.09908870421350002288818359375">
        <ele>971.5999755859375</ele>
        <time>2021-09-26T07:23:28.000Z</time>
      </trkpt>
      <trkpt lat="40.3549935109913349151611328125" lon="-1.0990396700799465179443359375">
        <ele>971.5999755859375</ele>
        <time>2021-09-26T07:23:29.000Z</time>
      </trkpt>
      <trkpt lat="40.3550072573125362396240234375" lon="-1.09898912720382213592529296875">
        <ele>971.4000244140625</ele>
        <time>2021-09-26T07:23:30.000Z</time>
      </trkpt>
      <trkpt lat="40.355042628943920135498046875" lon="-1.0988782346248626708984375">
        <ele>971.20001220703125</ele>
        <time>2021-09-26T07:23:32.000Z</time>
      </trkpt>
      <trkpt lat="40.35508160479366779327392578125" lon="-1.09875820577144622802734375">
        <ele>970.79998779296875</ele>
        <time>2021-09-26T07:23:34.000Z</time>
      </trkpt>
      <trkpt lat="40.3551034815609455108642578125" lon="-1.09869291074573993682861328125">
        <ele>970.79998779296875</ele>
        <time>2021-09-26T07:23:35.000Z</time>
      </trkpt>
      <trkpt lat="40.3551235981285572052001953125" lon="-1.0986261069774627685546875">
        <ele>970.5999755859375</ele>
        <time>2021-09-26T07:23:36.000Z</time>
      </trkpt>
      <trkpt lat="40.355145893990993499755859375" lon="-1.09855863265693187713623046875">
        <ele>970.5999755859375</ele>
        <time>2021-09-26T07:23:37.000Z</time>
      </trkpt>
      <trkpt lat="40.3551705367863178253173828125" lon="-1.09848906286060810089111328125">
        <ele>970.4000244140625</ele>
        <time>2021-09-26T07:23:38.000Z</time>
      </trkpt>
      <trkpt lat="40.35519476048648357391357421875" lon="-1.098419912159442901611328125">
        <ele>970.20001220703125</ele>
        <time>2021-09-26T07:23:39.000Z</time>
      </trkpt>
      <trkpt lat="40.35522292368113994598388671875" lon="-1.0983469896018505096435546875">
        <ele>969.79998779296875</ele>
        <time>2021-09-26T07:23:40.000Z</time>
      </trkpt>
      <trkpt lat="40.35526625812053680419921875" lon="-1.098206676542758941650390625">
        <ele>969.4000244140625</ele>
        <time>2021-09-26T07:23:42.000Z</time>
      </trkpt>
      <trkpt lat="40.35530380904674530029296875" lon="-1.09807013534009456634521484375">
        <ele>968.5999755859375</ele>
        <time>2021-09-26T07:23:44.000Z</time>
      </trkpt>
      <trkpt lat="40.35532820038497447967529296875" lon="-1.097943149507045745849609375">
        <ele>968</ele>
        <time>2021-09-26T07:23:46.000Z</time>
      </trkpt>
      <trkpt lat="40.35533406771719455718994140625" lon="-1.097880788147449493408203125">
        <ele>968.4000244140625</ele>
        <time>2021-09-26T07:23:47.000Z</time>
      </trkpt>
      <trkpt lat="40.3553331457078456878662109375" lon="-1.097819097340106964111328125">
        <ele>968.79998779296875</ele>
        <time>2021-09-26T07:23:48.000Z</time>
      </trkpt>
      <trkpt lat="40.3553284518420696258544921875" lon="-1.097702085971832275390625">
        <ele>969.79998779296875</ele>
        <time>2021-09-26T07:23:50.000Z</time>
      </trkpt>
      <trkpt lat="40.3553299605846405029296875" lon="-1.097647435963153839111328125">
        <ele>970</ele>
        <time>2021-09-26T07:23:51.000Z</time>
      </trkpt>
      <trkpt lat="40.355333983898162841796875" lon="-1.09759756363928318023681640625">
        <ele>970.20001220703125</ele>
        <time>2021-09-26T07:23:52.000Z</time>
      </trkpt>
      <trkpt lat="40.3553358279168605804443359375" lon="-1.0974973998963832855224609375">
        <ele>970.4000244140625</ele>
        <time>2021-09-26T07:23:54.000Z</time>
      </trkpt>
      <trkpt lat="40.35533867776393890380859375" lon="-1.0974397324025630950927734375">
        <ele>970.5999755859375</ele>
        <time>2021-09-26T07:23:55.000Z</time>
      </trkpt>
      <trkpt lat="40.35534446127712726593017578125" lon="-1.0973780415952205657958984375">
        <ele>970.5999755859375</ele>
        <time>2021-09-26T07:23:56.000Z</time>
      </trkpt>
      <trkpt lat="40.35534932278096675872802734375" lon="-1.09731140546500682830810546875">
        <ele>970.4000244140625</ele>
        <time>2021-09-26T07:23:57.000Z</time>
      </trkpt>
      <trkpt lat="40.35535988397896289825439453125" lon="-1.09723831526935100555419921875">
        <ele>970</ele>
        <time>2021-09-26T07:23:58.000Z</time>
      </trkpt>
      <trkpt lat="40.35537648014724254608154296875" lon="-1.0970997624099254608154296875">
        <ele>969.5999755859375</ele>
        <time>2021-09-26T07:24:00.000Z</time>
      </trkpt>
      <trkpt lat="40.3553889691829681396484375" lon="-1.09696674160659313201904296875">
        <ele>969.20001220703125</ele>
        <time>2021-09-26T07:24:02.000Z</time>
      </trkpt>
      <trkpt lat="40.3553975187242031097412109375" lon="-1.0968975909054279327392578125">
        <ele>969</ele>
        <time>2021-09-26T07:24:03.000Z</time>
      </trkpt>
      <trkpt lat="40.35540548153221607208251953125" lon="-1.09683145768940448760986328125">
        <ele>968.79998779296875</ele>
        <time>2021-09-26T07:24:04.000Z</time>
      </trkpt>
      <trkpt lat="40.355424843728542327880859375" lon="-1.09670723788440227508544921875">
        <ele>968.79998779296875</ele>
        <time>2021-09-26T07:24:06.000Z</time>
      </trkpt>
      <trkpt lat="40.3554439544677734375" lon="-1.09657966531813144683837890625">
        <ele>969</ele>
        <time>2021-09-26T07:24:08.000Z</time>
      </trkpt>
      <trkpt lat="40.3554598800837993621826171875" lon="-1.09645829536020755767822265625">
        <ele>968.4000244140625</ele>
        <time>2021-09-26T07:24:10.000Z</time>
      </trkpt>
      <trkpt lat="40.35547220148146152496337890625" lon="-1.0963427089154720306396484375">
        <ele>967.5999755859375</ele>
        <time>2021-09-26T07:24:12.000Z</time>
      </trkpt>
      <trkpt lat="40.35548728890717029571533203125" lon="-1.0962282121181488037109375">
        <ele>967.20001220703125</ele>
        <time>2021-09-26T07:24:14.000Z</time>
      </trkpt>
      <trkpt lat="40.35551972687244415283203125" lon="-1.09611354768276214599609375">
        <ele>966</ele>
        <time>2021-09-26T07:24:16.000Z</time>
      </trkpt>
      <trkpt lat="40.35555216483771800994873046875" lon="-1.096001230180263519287109375">
        <ele>965.4000244140625</ele>
        <time>2021-09-26T07:24:18.000Z</time>
      </trkpt>
      <trkpt lat="40.35558351315557956695556640625" lon="-1.09588958323001861572265625">
        <ele>966.5999755859375</ele>
        <time>2021-09-26T07:24:20.000Z</time>
      </trkpt>
      <trkpt lat="40.35561586730182170867919921875" lon="-1.0957807861268520355224609375">
        <ele>967.5999755859375</ele>
        <time>2021-09-26T07:24:22.000Z</time>
      </trkpt>
      <trkpt lat="40.3556335531175136566162109375" lon="-1.09572705812752246856689453125">
        <ele>968.20001220703125</ele>
        <time>2021-09-26T07:24:23.000Z</time>
      </trkpt>
      <trkpt lat="40.35564738325774669647216796875" lon="-1.0956810414791107177734375">
        <ele>968.5999755859375</ele>
        <time>2021-09-26T07:24:24.000Z</time>
      </trkpt>
      <trkpt lat="40.35568007268011569976806640625" lon="-1.09558708034455776214599609375">
        <ele>969</ele>
        <time>2021-09-26T07:24:26.000Z</time>
      </trkpt>
      <trkpt lat="40.35571795888245105743408203125" lon="-1.09549839980900287628173828125">
        <ele>969.4000244140625</ele>
        <time>2021-09-26T07:24:28.000Z</time>
      </trkpt>
      <trkpt lat="40.355742014944553375244140625" lon="-1.095449365675449371337890625">
        <ele>969.5999755859375</ele>
        <time>2021-09-26T07:24:29.000Z</time>
      </trkpt>
      <trkpt lat="40.35576724447309970855712890625" lon="-1.0953968949615955352783203125">
        <ele>969.4000244140625</ele>
        <time>2021-09-26T07:24:30.000Z</time>
      </trkpt>
      <trkpt lat="40.35582491196691989898681640625" lon="-1.09528474509716033935546875">
        <ele>968.5999755859375</ele>
        <time>2021-09-26T07:24:32.000Z</time>
      </trkpt>
      <trkpt lat="40.35588777624070644378662109375" lon="-1.09516111202538013458251953125">
        <ele>967.4000244140625</ele>
        <time>2021-09-26T07:24:34.000Z</time>
      </trkpt>
      <trkpt lat="40.35595684312283992767333984375" lon="-1.09502700157463550567626953125">
        <ele>966.20001220703125</ele>
        <time>2021-09-26T07:24:36.000Z</time>
      </trkpt>
      <trkpt lat="40.3560218028724193572998046875" lon="-1.094896495342254638671875">
        <ele>965.4000244140625</ele>
        <time>2021-09-26T07:24:38.000Z</time>
      </trkpt>
      <trkpt lat="40.3560962341725826263427734375" lon="-1.09475291334092617034912109375">
        <ele>964.5999755859375</ele>
        <time>2021-09-26T07:24:40.000Z</time>
      </trkpt>
      <trkpt lat="40.3561319410800933837890625" lon="-1.0946794040501117706298828125">
        <ele>964.20001220703125</ele>
        <time>2021-09-26T07:24:41.000Z</time>
      </trkpt>
      <trkpt lat="40.3561602719128131866455078125" lon="-1.09460522420704364776611328125">
        <ele>964.20001220703125</ele>
        <time>2021-09-26T07:24:42.000Z</time>
      </trkpt>
      <trkpt lat="40.35617946647107601165771484375" lon="-1.094526015222072601318359375">
        <ele>963.79998779296875</ele>
        <time>2021-09-26T07:24:43.000Z</time>
      </trkpt>
      <trkpt lat="40.3561924584209918975830078125" lon="-1.094442866742610931396484375">
        <ele>963.79998779296875</ele>
        <time>2021-09-26T07:24:44.000Z</time>
      </trkpt>
      <trkpt lat="40.35620260052382946014404296875" lon="-1.09435041435062885284423828125">
        <ele>964.20001220703125</ele>
        <time>2021-09-26T07:24:45.000Z</time>
      </trkpt>
      <trkpt lat="40.35620679147541522979736328125" lon="-1.09425209462642669677734375">
        <ele>963.79998779296875</ele>
        <time>2021-09-26T07:24:46.000Z</time>
      </trkpt>
      <trkpt lat="40.35620930604636669158935546875" lon="-1.0940480791032314300537109375">
        <ele>963</ele>
        <time>2021-09-26T07:24:48.000Z</time>
      </trkpt>
      <trkpt lat="40.35620226524770259857177734375" lon="-1.0938509367406368255615234375">
        <ele>962.5999755859375</ele>
        <time>2021-09-26T07:24:50.000Z</time>
      </trkpt>
      <trkpt lat="40.35618416033685207366943359375" lon="-1.09365739859640598297119140625">
        <ele>961.20001220703125</ele>
        <time>2021-09-26T07:24:52.000Z</time>
      </trkpt>
      <trkpt lat="40.3561716713011264801025390625" lon="-1.093568466603755950927734375">
        <ele>959.79998779296875</ele>
        <time>2021-09-26T07:24:53.000Z</time>
      </trkpt>
      <trkpt lat="40.35615566186606884002685546875" lon="-1.0934807918965816497802734375">
        <ele>958.5999755859375</ele>
        <time>2021-09-26T07:24:54.000Z</time>
      </trkpt>
      <trkpt lat="40.35611224360764026641845703125" lon="-1.09331600368022918701171875">
        <ele>957</ele>
        <time>2021-09-26T07:24:56.000Z</time>
      </trkpt>
      <trkpt lat="40.356063544750213623046875" lon="-1.0931525565683841705322265625">
        <ele>955.79998779296875</ele>
        <time>2021-09-26T07:24:58.000Z</time>
      </trkpt>
      <trkpt lat="40.35603462718427181243896484375" lon="-1.09308340586721897125244140625">
        <ele>956</ele>
        <time>2021-09-26T07:24:59.000Z</time>
      </trkpt>
      <trkpt lat="40.35601182840764522552490234375" lon="-1.09301484189927577972412109375">
        <ele>956</ele>
        <time>2021-09-26T07:25:00.000Z</time>
      </trkpt>
      <trkpt lat="40.355970002710819244384765625" lon="-1.092895232141017913818359375">
        <ele>956</ele>
        <time>2021-09-26T07:25:02.000Z</time>
      </trkpt>
      <trkpt lat="40.35595986060798168182373046875" lon="-1.09284284524619579315185546875">
        <ele>956.20001220703125</ele>
        <time>2021-09-26T07:25:03.000Z</time>
      </trkpt>
      <trkpt lat="40.3559549152851104736328125" lon="-1.0927810706198215484619140625">
        <ele>956.20001220703125</ele>
        <time>2021-09-26T07:25:04.000Z</time>
      </trkpt>
      <trkpt lat="40.3559597767889499664306640625" lon="-1.0927197150886058807373046875">
        <ele>955.5999755859375</ele>
        <time>2021-09-26T07:25:05.000Z</time>
      </trkpt>
      <trkpt lat="40.35597494803369045257568359375" lon="-1.092662550508975982666015625">
        <ele>955</ele>
        <time>2021-09-26T07:25:06.000Z</time>
      </trkpt>
      <trkpt lat="40.356000177562236785888671875" lon="-1.09260387718677520751953125">
        <ele>954.20001220703125</ele>
        <time>2021-09-26T07:25:07.000Z</time>
      </trkpt>
      <trkpt lat="40.35603295080363750457763671875" lon="-1.0925509035587310791015625">
        <ele>953.4000244140625</ele>
        <time>2021-09-26T07:25:08.000Z</time>
      </trkpt>
      <trkpt lat="40.3561170212924480438232421875" lon="-1.09243397600948810577392578125">
        <ele>951.79998779296875</ele>
        <time>2021-09-26T07:25:10.000Z</time>
      </trkpt>
      <trkpt lat="40.356161110103130340576171875" lon="-1.0923690162599086761474609375">
        <ele>951</ele>
        <time>2021-09-26T07:25:11.000Z</time>
      </trkpt>
      <trkpt lat="40.35620712675154209136962890625" lon="-1.09229969792068004608154296875">
        <ele>949.5999755859375</ele>
        <time>2021-09-26T07:25:12.000Z</time>
      </trkpt>
      <trkpt lat="40.35629681311547756195068359375" lon="-1.0921504162251949310302734375">
        <ele>946.79998779296875</ele>
        <time>2021-09-26T07:25:14.000Z</time>
      </trkpt>
      <trkpt lat="40.35637275315821170806884765625" lon="-1.09199476428329944610595703125">
        <ele>943.79998779296875</ele>
        <time>2021-09-26T07:25:16.000Z</time>
      </trkpt>
      <trkpt lat="40.356401167809963226318359375" lon="-1.0919137112796306610107421875">
        <ele>942.20001220703125</ele>
        <time>2021-09-26T07:25:17.000Z</time>
      </trkpt>
      <trkpt lat="40.35642572678625583648681640625" lon="-1.091831736266613006591796875">
        <ele>940.79998779296875</ele>
        <time>2021-09-26T07:25:18.000Z</time>
      </trkpt>
      <trkpt lat="40.356456823647022247314453125" lon="-1.09165764413774013519287109375">
        <ele>939.5999755859375</ele>
        <time>2021-09-26T07:25:20.000Z</time>
      </trkpt>
      <trkpt lat="40.35646327771246433258056640625" lon="-1.0915690474212169647216796875">
        <ele>938.5999755859375</ele>
        <time>2021-09-26T07:25:21.000Z</time>
      </trkpt>
      <trkpt lat="40.35647015087306499481201171875" lon="-1.0914835520088672637939453125">
        <ele>938</ele>
        <time>2021-09-26T07:25:22.000Z</time>
      </trkpt>
      <trkpt lat="40.35648071207106113433837890625" lon="-1.09133116900920867919921875">
        <ele>937.20001220703125</ele>
        <time>2021-09-26T07:25:24.000Z</time>
      </trkpt>
      <trkpt lat="40.3564955480396747589111328125" lon="-1.0911985673010349273681640625">
        <ele>936.4000244140625</ele>
        <time>2021-09-26T07:25:26.000Z</time>
      </trkpt>
      <trkpt lat="40.35651306621730327606201171875" lon="-1.091141737997531890869140625">
        <ele>936</ele>
        <time>2021-09-26T07:25:27.000Z</time>
      </trkpt>
      <trkpt lat="40.356543995440006256103515625" lon="-1.0910852439701557159423828125">
        <ele>935.5999755859375</ele>
        <time>2021-09-26T07:25:28.000Z</time>
      </trkpt>
      <trkpt lat="40.35658749751746654510498046875" lon="-1.09104542993009090423583984375">
        <ele>935.4000244140625</ele>
        <time>2021-09-26T07:25:29.000Z</time>
      </trkpt>
      <trkpt lat="40.3566415607929229736328125" lon="-1.09101877547800540924072265625">
        <ele>935</ele>
        <time>2021-09-26T07:25:30.000Z</time>
      </trkpt>
      <trkpt lat="40.35677055828273296356201171875" lon="-1.09098172746598720550537109375">
        <ele>934.4000244140625</ele>
        <time>2021-09-26T07:25:32.000Z</time>
      </trkpt>
      <trkpt lat="40.35683258436620235443115234375" lon="-1.0909564979374408721923828125">
        <ele>934</ele>
        <time>2021-09-26T07:25:33.000Z</time>
      </trkpt>
      <trkpt lat="40.3568905033171176910400390625" lon="-1.09092975966632366180419921875">
        <ele>933.5999755859375</ele>
        <time>2021-09-26T07:25:34.000Z</time>
      </trkpt>
      <trkpt lat="40.35693995654582977294921875" lon="-1.09089195728302001953125">
        <ele>933.20001220703125</ele>
        <time>2021-09-26T07:25:35.000Z</time>
      </trkpt>
      <trkpt lat="40.3569806925952434539794921875" lon="-1.09085231088101863861083984375">
        <ele>933</ele>
        <time>2021-09-26T07:25:36.000Z</time>
      </trkpt>
      <trkpt lat="40.3570143878459930419921875" lon="-1.09080453403294086456298828125">
        <ele>932.5999755859375</ele>
        <time>2021-09-26T07:25:37.000Z</time>
      </trkpt>
      <trkpt lat="40.3570370189845561981201171875" lon="-1.09074242413043975830078125">
        <ele>932.20001220703125</ele>
        <time>2021-09-26T07:25:38.000Z</time>
      </trkpt>
      <trkpt lat="40.35705403424799442291259765625" lon="-1.09066405333578586578369140625">
        <ele>931.5999755859375</ele>
        <time>2021-09-26T07:25:39.000Z</time>
      </trkpt>
      <trkpt lat="40.35706711001694202423095703125" lon="-1.09057721681892871856689453125">
        <ele>931</ele>
        <time>2021-09-26T07:25:40.000Z</time>
      </trkpt>
      <trkpt lat="40.35708454437553882598876953125" lon="-1.0903902165591716766357421875">
        <ele>930</ele>
        <time>2021-09-26T07:25:42.000Z</time>
      </trkpt>
      <trkpt lat="40.35709745250642299652099609375" lon="-1.0902004502713680267333984375">
        <ele>928.79998779296875</ele>
        <time>2021-09-26T07:25:44.000Z</time>
      </trkpt>
      <trkpt lat="40.35709896124899387359619140625" lon="-1.0901196487247943878173828125">
        <ele>928.4000244140625</ele>
        <time>2021-09-26T07:25:45.000Z</time>
      </trkpt>
      <trkpt lat="40.3571013920009136199951171875" lon="-1.09005041420459747314453125">
        <ele>928.20001220703125</ele>
        <time>2021-09-26T07:25:46.000Z</time>
      </trkpt>
      <trkpt lat="40.35710499621927738189697265625" lon="-1.08990800566971302032470703125">
        <ele>927.5999755859375</ele>
        <time>2021-09-26T07:25:48.000Z</time>
      </trkpt>
      <trkpt lat="40.3571017272770404815673828125" lon="-1.08975696377456188201904296875">
        <ele>927.5999755859375</ele>
        <time>2021-09-26T07:25:50.000Z</time>
      </trkpt>
      <trkpt lat="40.35710667259991168975830078125" lon="-1.08967490494251251220703125">
        <ele>927.5999755859375</ele>
        <time>2021-09-26T07:25:51.000Z</time>
      </trkpt>
      <trkpt lat="40.357113294303417205810546875" lon="-1.0895932652056217193603515625">
        <ele>927.5999755859375</ele>
        <time>2021-09-26T07:25:52.000Z</time>
      </trkpt>
      <trkpt lat="40.35712712444365024566650390625" lon="-1.0894261300563812255859375">
        <ele>928</ele>
        <time>2021-09-26T07:25:54.000Z</time>
      </trkpt>
      <trkpt lat="40.357129387557506561279296875" lon="-1.089259497821331024169921875">
        <ele>928.20001220703125</ele>
        <time>2021-09-26T07:25:56.000Z</time>
      </trkpt>
      <trkpt lat="40.35713299177587032318115234375" lon="-1.0890886746346950531005859375">
        <ele>928.20001220703125</ele>
        <time>2021-09-26T07:25:58.000Z</time>
      </trkpt>
      <trkpt lat="40.3571345843374729156494140625" lon="-1.0890051908791065216064453125">
        <ele>927.5999755859375</ele>
        <time>2021-09-26T07:25:59.000Z</time>
      </trkpt>
      <trkpt lat="40.3571352548897266387939453125" lon="-1.0889218747615814208984375">
        <ele>927</ele>
        <time>2021-09-26T07:26:00.000Z</time>
      </trkpt>
      <trkpt lat="40.3571389429271221160888671875" lon="-1.0887597687542438507080078125">
        <ele>926</ele>
        <time>2021-09-26T07:26:02.000Z</time>
      </trkpt>
      <trkpt lat="40.35713215358555316925048828125" lon="-1.088605709373950958251953125">
        <ele>925.4000244140625</ele>
        <time>2021-09-26T07:26:04.000Z</time>
      </trkpt>
      <trkpt lat="40.35713265649974346160888671875" lon="-1.088448129594326019287109375">
        <ele>924.79998779296875</ele>
        <time>2021-09-26T07:26:06.000Z</time>
      </trkpt>
      <trkpt lat="40.3571319021284580230712890625" lon="-1.08837361447513103485107421875">
        <ele>924.5999755859375</ele>
        <time>2021-09-26T07:26:07.000Z</time>
      </trkpt>
      <trkpt lat="40.35713399760425090789794921875" lon="-1.08829759061336517333984375">
        <ele>924.20001220703125</ele>
        <time>2021-09-26T07:26:08.000Z</time>
      </trkpt>
      <trkpt lat="40.35713282413780689239501953125" lon="-1.088157780468463897705078125">
        <ele>923.79998779296875</ele>
        <time>2021-09-26T07:26:10.000Z</time>
      </trkpt>
      <trkpt lat="40.3571399487555027008056640625" lon="-1.08804537914693355560302734375">
        <ele>923.4000244140625</ele>
        <time>2021-09-26T07:26:12.000Z</time>
      </trkpt>
      <trkpt lat="40.35714589990675449371337890625" lon="-1.08800011686980724334716796875">
        <ele>923.20001220703125</ele>
        <time>2021-09-26T07:26:13.000Z</time>
      </trkpt>
      <trkpt lat="40.35715076141059398651123046875" lon="-1.0879547707736492156982421875">
        <ele>923</ele>
        <time>2021-09-26T07:26:14.000Z</time>
      </trkpt>
      <trkpt lat="40.35715914331376552581787109375" lon="-1.08790657483041286468505859375">
        <ele>923.20001220703125</ele>
        <time>2021-09-26T07:26:15.000Z</time>
      </trkpt>
      <trkpt lat="40.3571734763681888580322265625" lon="-1.087843291461467742919921875">
        <ele>923.4000244140625</ele>
        <time>2021-09-26T07:26:16.000Z</time>
      </trkpt>
      <trkpt lat="40.357188396155834197998046875" lon="-1.08777112327516078948974609375">
        <ele>923.5999755859375</ele>
        <time>2021-09-26T07:26:17.000Z</time>
      </trkpt>
      <trkpt lat="40.3571989573538303375244140625" lon="-1.08770348131656646728515625">
        <ele>924</ele>
        <time>2021-09-26T07:26:18.000Z</time>
      </trkpt>
      <trkpt lat="40.3572056628763675689697265625" lon="-1.08761496841907501220703125">
        <ele>924.79998779296875</ele>
        <time>2021-09-26T07:26:20.000Z</time>
      </trkpt>
      <trkpt lat="40.35720742307603359222412109375" lon="-1.087544895708560943603515625">
        <ele>925.5999755859375</ele>
        <time>2021-09-26T07:26:22.000Z</time>
      </trkpt>
      <trkpt lat="40.357209183275699615478515625" lon="-1.0875091888010501861572265625">
        <ele>926</ele>
        <time>2021-09-26T07:26:23.000Z</time>
      </trkpt>
      <trkpt lat="40.3572070039808750152587890625" lon="-1.08747549355030059814453125">
        <ele>926.20001220703125</ele>
        <time>2021-09-26T07:26:24.000Z</time>
      </trkpt>
      <trkpt lat="40.3572033159434795379638671875" lon="-1.0874391160905361175537109375">
        <ele>926.5999755859375</ele>
        <time>2021-09-26T07:26:25.000Z</time>
      </trkpt>
      <trkpt lat="40.35719853825867176055908203125" lon="-1.08740282244980335235595703125">
        <ele>927</ele>
        <time>2021-09-26T07:26:26.000Z</time>
      </trkpt>
      <trkpt lat="40.3571966104209423065185546875" lon="-1.08736728318035602569580078125">
        <ele>927.4000244140625</ele>
        <time>2021-09-26T07:26:27.000Z</time>
      </trkpt>
      <trkpt lat="40.35719803534448146820068359375" lon="-1.08733174391090869903564453125">
        <ele>927.79998779296875</ele>
        <time>2021-09-26T07:26:28.000Z</time>
      </trkpt>
      <trkpt lat="40.3571940958499908447265625" lon="-1.08730073086917400360107421875">
        <ele>928</ele>
        <time>2021-09-26T07:26:29.000Z</time>
      </trkpt>
      <trkpt lat="40.3571909107267856597900390625" lon="-1.08727156184613704681396484375">
        <ele>928.4000244140625</ele>
        <time>2021-09-26T07:26:30.000Z</time>
      </trkpt>
      <trkpt lat="40.357187055051326751708984375" lon="-1.0872138105332851409912109375">
        <ele>929</ele>
        <time>2021-09-26T07:26:32.000Z</time>
      </trkpt>
      <trkpt lat="40.35718596540391445159912109375" lon="-1.08718581497669219970703125">
        <ele>929.20001220703125</ele>
        <time>2021-09-26T07:26:33.000Z</time>
      </trkpt>
      <trkpt lat="40.35718143917620182037353515625" lon="-1.0871561430394649505615234375">
        <ele>929.4000244140625</ele>
        <time>2021-09-26T07:26:34.000Z</time>
      </trkpt>
      <trkpt lat="40.3571758233010768890380859375" lon="-1.08712906949222087860107421875">
        <ele>929.79998779296875</ele>
        <time>2021-09-26T07:26:35.000Z</time>
      </trkpt>
      <trkpt lat="40.3571711294353008270263671875" lon="-1.08709922991693019866943359375">
        <ele>930</ele>
        <time>2021-09-26T07:26:36.000Z</time>
      </trkpt>
      <trkpt lat="40.35715713165700435638427734375" lon="-1.0870443284511566162109375">
        <ele>930.79998779296875</ele>
        <time>2021-09-26T07:26:38.000Z</time>
      </trkpt>
      <trkpt lat="40.357152186334133148193359375" lon="-1.087021864950656890869140625">
        <ele>931</ele>
        <time>2021-09-26T07:26:39.000Z</time>
      </trkpt>
      <trkpt lat="40.35714707337319850921630859375" lon="-1.08699546195566654205322265625">
        <ele>931.4000244140625</ele>
        <time>2021-09-26T07:26:40.000Z</time>
      </trkpt>
      <trkpt lat="40.3571422956883907318115234375" lon="-1.08696612529456615447998046875">
        <ele>931.79998779296875</ele>
        <time>2021-09-26T07:26:41.000Z</time>
      </trkpt>
      <trkpt lat="40.35713718272745609283447265625" lon="-1.0869358666241168975830078125">
        <ele>932.20001220703125</ele>
        <time>2021-09-26T07:26:42.000Z</time>
      </trkpt>
      <trkpt lat="40.357130058109760284423828125" lon="-1.0868751816451549530029296875">
        <ele>933</ele>
        <time>2021-09-26T07:26:44.000Z</time>
      </trkpt>
      <trkpt lat="40.35711555741727352142333984375" lon="-1.0868155024945735931396484375">
        <ele>933.20001220703125</ele>
        <time>2021-09-26T07:26:46.000Z</time>
      </trkpt>
      <trkpt lat="40.35710357129573822021484375" lon="-1.08675397932529449462890625">
        <ele>933.5999755859375</ele>
        <time>2021-09-26T07:26:48.000Z</time>
      </trkpt>
      <trkpt lat="40.3570873104035854339599609375" lon="-1.086693294346332550048828125">
        <ele>934.20001220703125</ele>
        <time>2021-09-26T07:26:50.000Z</time>
      </trkpt>
      <trkpt lat="40.35708085633814334869384765625" lon="-1.08666186220943927764892578125">
        <ele>934.4000244140625</ele>
        <time>2021-09-26T07:26:51.000Z</time>
      </trkpt>
      <trkpt lat="40.3570705465972423553466796875" lon="-1.0866354592144489288330078125">
        <ele>934.4000244140625</ele>
        <time>2021-09-26T07:26:52.000Z</time>
      </trkpt>
      <trkpt lat="40.35705034621059894561767578125" lon="-1.08657821081578731536865234375">
        <ele>934.4000244140625</ele>
        <time>2021-09-26T07:26:54.000Z</time>
      </trkpt>
      <trkpt lat="40.3570309840142726898193359375" lon="-1.0865212976932525634765625">
        <ele>934.5999755859375</ele>
        <time>2021-09-26T07:26:56.000Z</time>
      </trkpt>
      <trkpt lat="40.35701111890375614166259765625" lon="-1.0864648036658763885498046875">
        <ele>934.79998779296875</ele>
        <time>2021-09-26T07:26:58.000Z</time>
      </trkpt>
      <trkpt lat="40.35700189881026744842529296875" lon="-1.0864332877099514007568359375">
        <ele>935</ele>
        <time>2021-09-26T07:26:59.000Z</time>
      </trkpt>
      <trkpt lat="40.35699049942195415496826171875" lon="-1.0864051245152950286865234375">
        <ele>935</ele>
        <time>2021-09-26T07:27:00.000Z</time>
      </trkpt>
      <trkpt lat="40.3569652698934078216552734375" lon="-1.08634921722114086151123046875">
        <ele>934.79998779296875</ele>
        <time>2021-09-26T07:27:02.000Z</time>
      </trkpt>
      <trkpt lat="40.356940962374210357666015625" lon="-1.086297668516635894775390625">
        <ele>934.5999755859375</ele>
        <time>2021-09-26T07:27:04.000Z</time>
      </trkpt>
      <trkpt lat="40.35691623575985431671142578125" lon="-1.0862465389072895050048828125">
        <ele>934.5999755859375</ele>
        <time>2021-09-26T07:27:06.000Z</time>
      </trkpt>
      <trkpt lat="40.35690433345735073089599609375" lon="-1.0862180404365062713623046875">
        <ele>934.5999755859375</ele>
        <time>2021-09-26T07:27:07.000Z</time>
      </trkpt>
      <trkpt lat="40.3568908385932445526123046875" lon="-1.0861928947269916534423828125">
        <ele>934.79998779296875</ele>
        <time>2021-09-26T07:27:08.000Z</time>
      </trkpt>
      <trkpt lat="40.356865189969539642333984375" lon="-1.08613707125186920166015625">
        <ele>935.20001220703125</ele>
        <time>2021-09-26T07:27:10.000Z</time>
      </trkpt>
      <trkpt lat="40.35683803260326385498046875" lon="-1.08608669601380825042724609375">
        <ele>935.5999755859375</ele>
        <time>2021-09-26T07:27:12.000Z</time>
      </trkpt>
      <trkpt lat="40.35680978558957576751708984375" lon="-1.08603908680379390716552734375">
        <ele>935.5999755859375</ele>
        <time>2021-09-26T07:27:14.000Z</time>
      </trkpt>
      <trkpt lat="40.35678363405168056488037109375" lon="-1.085988543927669525146484375">
        <ele>935.79998779296875</ele>
        <time>2021-09-26T07:27:16.000Z</time>
      </trkpt>
      <trkpt lat="40.35675823688507080078125" lon="-1.08594235964119434356689453125">
        <ele>935.79998779296875</ele>
        <time>2021-09-26T07:27:18.000Z</time>
      </trkpt>
      <trkpt lat="40.35673200152814388275146484375" lon="-1.08589257113635540008544921875">
        <ele>935.79998779296875</ele>
        <time>2021-09-26T07:27:20.000Z</time>
      </trkpt>
      <trkpt lat="40.35670869983732700347900390625" lon="-1.08585367910563945770263671875">
        <ele>936</ele>
        <time>2021-09-26T07:27:22.000Z</time>
      </trkpt>
      <trkpt lat="40.35668791271746158599853515625" lon="-1.0858130268752574920654296875">
        <ele>936</ele>
        <time>2021-09-26T07:27:24.000Z</time>
      </trkpt>
      <trkpt lat="40.3566772677004337310791015625" lon="-1.085792742669582366943359375">
        <ele>936</ele>
        <time>2021-09-26T07:27:25.000Z</time>
      </trkpt>
      <trkpt lat="40.3566705621778964996337890625" lon="-1.08576826751232147216796875">
        <ele>936.20001220703125</ele>
        <time>2021-09-26T07:27:26.000Z</time>
      </trkpt>
      <trkpt lat="40.35665170289576053619384765625" lon="-1.08572359196841716766357421875">
        <ele>936.20001220703125</ele>
        <time>2021-09-26T07:27:28.000Z</time>
      </trkpt>
      <trkpt lat="40.35663560964167118072509765625" lon="-1.085686124861240386962890625">
        <ele>936.4000244140625</ele>
        <time>2021-09-26T07:27:30.000Z</time>
      </trkpt>
      <trkpt lat="40.356623791158199310302734375" lon="-1.0856437124311923980712890625">
        <ele>936.79998779296875</ele>
        <time>2021-09-26T07:27:32.000Z</time>
      </trkpt>
      <trkpt lat="40.3566222824156284332275390625" lon="-1.0856256075203418731689453125">
        <ele>937</ele>
        <time>2021-09-26T07:27:33.000Z</time>
      </trkpt>
      <trkpt lat="40.3566209413111209869384765625" lon="-1.08561513014137744903564453125">
        <ele>937</ele>
        <time>2021-09-26T07:27:34.000Z</time>
      </trkpt>
      <trkpt lat="40.3566175885498523712158203125" lon="-1.08561613596975803375244140625">
        <ele>937</ele>
        <time>2021-09-26T07:27:35.000Z</time>
      </trkpt>
      <trkpt lat="40.3567181713879108428955078125" lon="-1.084032543003559112548828125">
        <ele>954.79998779296875</ele>
        <time>2021-09-26T07:31:00.000Z</time>
      </trkpt>
      <trkpt lat="40.3566765971481800079345703125" lon="-1.083995662629604339599609375">
        <ele>954.79998779296875</ele>
        <time>2021-09-26T07:31:02.000Z</time>
      </trkpt>
      <trkpt lat="40.35663678310811519622802734375" lon="-1.08394159935414791107177734375">
        <ele>954.79998779296875</ele>
        <time>2021-09-26T07:31:04.000Z</time>
      </trkpt>
      <trkpt lat="40.35659956745803356170654296875" lon="-1.0838972590863704681396484375">
        <ele>954.79998779296875</ele>
        <time>2021-09-26T07:31:06.000Z</time>
      </trkpt>
      <trkpt lat="40.35656738094985485076904296875" lon="-1.08385073952376842498779296875">
        <ele>954.79998779296875</ele>
        <time>2021-09-26T07:31:08.000Z</time>
      </trkpt>
      <trkpt lat="40.356537960469722747802734375" lon="-1.0837983526289463043212890625">
        <ele>954.79998779296875</ele>
        <time>2021-09-26T07:31:10.000Z</time>
      </trkpt>
      <trkpt lat="40.35650703124701976776123046875" lon="-1.08374730683863162994384765625">
        <ele>954.79998779296875</ele>
        <time>2021-09-26T07:31:12.000Z</time>
      </trkpt>
      <trkpt lat="40.3564918600022792816162109375" lon="-1.083720065653324127197265625">
        <ele>955</ele>
        <time>2021-09-26T07:31:13.000Z</time>
      </trkpt>
      <trkpt lat="40.3564781136810779571533203125" lon="-1.0836913995444774627685546875">
        <ele>955</ele>
        <time>2021-09-26T07:31:14.000Z</time>
      </trkpt>
      <trkpt lat="40.35644567571580410003662109375" lon="-1.08363398350775241851806640625">
        <ele>955.4000244140625</ele>
        <time>2021-09-26T07:31:16.000Z</time>
      </trkpt>
      <trkpt lat="40.3564147464931011199951171875" lon="-1.08357145451009273529052734375">
        <ele>956.20001220703125</ele>
        <time>2021-09-26T07:31:18.000Z</time>
      </trkpt>
      <trkpt lat="40.3563798777759075164794921875" lon="-1.08350926078855991363525390625">
        <ele>957</ele>
        <time>2021-09-26T07:31:20.000Z</time>
      </trkpt>
      <trkpt lat="40.35634811036288738250732421875" lon="-1.0834469832479953765869140625">
        <ele>957.4000244140625</ele>
        <time>2021-09-26T07:31:22.000Z</time>
      </trkpt>
      <trkpt lat="40.356319360435009002685546875" lon="-1.08338470570743083953857421875">
        <ele>957.5999755859375</ele>
        <time>2021-09-26T07:31:24.000Z</time>
      </trkpt>
      <trkpt lat="40.35629144869744777679443359375" lon="-1.08331362716853618621826171875">
        <ele>957.79998779296875</ele>
        <time>2021-09-26T07:31:26.000Z</time>
      </trkpt>
      <trkpt lat="40.356263034045696258544921875" lon="-1.08323668129742145538330078125">
        <ele>958</ele>
        <time>2021-09-26T07:31:28.000Z</time>
      </trkpt>
      <trkpt lat="40.35623730160295963287353515625" lon="-1.0831552930176258087158203125">
        <ele>958.4000244140625</ele>
        <time>2021-09-26T07:31:30.000Z</time>
      </trkpt>
      <trkpt lat="40.35621349699795246124267578125" lon="-1.08307474292814731597900390625">
        <ele>959</ele>
        <time>2021-09-26T07:31:32.000Z</time>
      </trkpt>
      <trkpt lat="40.35618835128843784332275390625" lon="-1.08299109153449535369873046875">
        <ele>959.4000244140625</ele>
        <time>2021-09-26T07:31:34.000Z</time>
      </trkpt>
      <trkpt lat="40.3561676479876041412353515625" lon="-1.0829058475792407989501953125">
        <ele>959.79998779296875</ele>
        <time>2021-09-26T07:31:36.000Z</time>
      </trkpt>
      <trkpt lat="40.35614811815321445465087890625" lon="-1.08282462693750858306884765625">
        <ele>960</ele>
        <time>2021-09-26T07:31:38.000Z</time>
      </trkpt>
      <trkpt lat="40.3561334498226642608642578125" lon="-1.08273980207741260528564453125">
        <ele>959.5999755859375</ele>
        <time>2021-09-26T07:31:40.000Z</time>
      </trkpt>
      <trkpt lat="40.35612163133919239044189453125" lon="-1.0826476849615573883056640625">
        <ele>959.4000244140625</ele>
        <time>2021-09-26T07:31:42.000Z</time>
      </trkpt>
      <trkpt lat="40.356112159788608551025390625" lon="-1.082564704120159149169921875">
        <ele>959.20001220703125</ele>
        <time>2021-09-26T07:31:44.000Z</time>
      </trkpt>
      <trkpt lat="40.35610822029411792755126953125" lon="-1.0824807174503803253173828125">
        <ele>959</ele>
        <time>2021-09-26T07:31:46.000Z</time>
      </trkpt>
      <trkpt lat="40.3561052866280078887939453125" lon="-1.08238960616290569305419921875">
        <ele>959</ele>
        <time>2021-09-26T07:31:48.000Z</time>
      </trkpt>
      <trkpt lat="40.356104113161563873291015625" lon="-1.082303524017333984375">
        <ele>959.20001220703125</ele>
        <time>2021-09-26T07:31:50.000Z</time>
      </trkpt>
      <trkpt lat="40.35610419698059558868408203125" lon="-1.0822195373475551605224609375">
        <ele>959.5999755859375</ele>
        <time>2021-09-26T07:31:52.000Z</time>
      </trkpt>
      <trkpt lat="40.35610972903668880462646484375" lon="-1.08214116655290126800537109375">
        <ele>960</ele>
        <time>2021-09-26T07:31:54.000Z</time>
      </trkpt>
      <trkpt lat="40.356118194758892059326171875" lon="-1.08204594813287258148193359375">
        <ele>960.79998779296875</ele>
        <time>2021-09-26T07:31:56.000Z</time>
      </trkpt>
      <trkpt lat="40.3561297617852687835693359375" lon="-1.0819529928267002105712890625">
        <ele>961.4000244140625</ele>
        <time>2021-09-26T07:31:58.000Z</time>
      </trkpt>
      <trkpt lat="40.35613923333585262298583984375" lon="-1.08186422847211360931396484375">
        <ele>962</ele>
        <time>2021-09-26T07:32:00.000Z</time>
      </trkpt>
      <trkpt lat="40.356146357953548431396484375" lon="-1.08176917769014835357666015625">
        <ele>963.20001220703125</ele>
        <time>2021-09-26T07:32:02.000Z</time>
      </trkpt>
      <trkpt lat="40.35615541040897369384765625" lon="-1.0816750489175319671630859375">
        <ele>964.20001220703125</ele>
        <time>2021-09-26T07:32:04.000Z</time>
      </trkpt>
      <trkpt lat="40.35616404376924037933349609375" lon="-1.08157874085009098052978515625">
        <ele>965</ele>
        <time>2021-09-26T07:32:06.000Z</time>
      </trkpt>
      <trkpt lat="40.35618181340396404266357421875" lon="-1.0814805887639522552490234375">
        <ele>965.20001220703125</ele>
        <time>2021-09-26T07:32:08.000Z</time>
      </trkpt>
      <trkpt lat="40.35619824193418025970458984375" lon="-1.0813779942691326141357421875">
        <ele>965.5999755859375</ele>
        <time>2021-09-26T07:32:10.000Z</time>
      </trkpt>
      <trkpt lat="40.3562164306640625" lon="-1.08127581886947154998779296875">
        <ele>966.20001220703125</ele>
        <time>2021-09-26T07:32:12.000Z</time>
      </trkpt>
      <trkpt lat="40.356226824223995208740234375" lon="-1.0811818577349185943603515625">
        <ele>966.20001220703125</ele>
        <time>2021-09-26T07:32:14.000Z</time>
      </trkpt>
      <trkpt lat="40.35624031908810138702392578125" lon="-1.081086136400699615478515625">
        <ele>966.4000244140625</ele>
        <time>2021-09-26T07:32:16.000Z</time>
      </trkpt>
      <trkpt lat="40.3562553226947784423828125" lon="-1.08098060823976993560791015625">
        <ele>966.5999755859375</ele>
        <time>2021-09-26T07:32:18.000Z</time>
      </trkpt>
      <trkpt lat="40.356275103986263275146484375" lon="-1.0808767564594745635986328125">
        <ele>967.79998779296875</ele>
        <time>2021-09-26T07:32:20.000Z</time>
      </trkpt>
      <trkpt lat="40.3562910296022891998291015625" lon="-1.0807721503078937530517578125">
        <ele>968.79998779296875</ele>
        <time>2021-09-26T07:32:22.000Z</time>
      </trkpt>
      <trkpt lat="40.35629815421998500823974609375" lon="-1.080724038183689117431640625">
        <ele>969.20001220703125</ele>
        <time>2021-09-26T07:32:23.000Z</time>
      </trkpt>
      <trkpt lat="40.3563091345131397247314453125" lon="-1.08067366294562816619873046875">
        <ele>969.5999755859375</ele>
        <time>2021-09-26T07:32:24.000Z</time>
      </trkpt>
      <trkpt lat="40.3563279099762439727783203125" lon="-1.0805716551840305328369140625">
        <ele>970.20001220703125</ele>
        <time>2021-09-26T07:32:26.000Z</time>
      </trkpt>
      <trkpt lat="40.356342829763889312744140625" lon="-1.08047920279204845428466796875">
        <ele>970.79998779296875</ele>
        <time>2021-09-26T07:32:28.000Z</time>
      </trkpt>
      <trkpt lat="40.356358587741851806640625" lon="-1.08037426136434078216552734375">
        <ele>971.4000244140625</ele>
        <time>2021-09-26T07:32:30.000Z</time>
      </trkpt>
      <trkpt lat="40.35637325607240200042724609375" lon="-1.08026529662311077117919921875">
        <ele>972.20001220703125</ele>
        <time>2021-09-26T07:32:32.000Z</time>
      </trkpt>
      <trkpt lat="40.3563818894326686859130859375" lon="-1.08017477206885814666748046875">
        <ele>972.79998779296875</ele>
        <time>2021-09-26T07:32:34.000Z</time>
      </trkpt>
      <trkpt lat="40.3563953004777431488037109375" lon="-1.0800777934491634368896484375">
        <ele>973</ele>
        <time>2021-09-26T07:32:36.000Z</time>
      </trkpt>
      <trkpt lat="40.3564055263996124267578125" lon="-1.0799832455813884735107421875">
        <ele>973.20001220703125</ele>
        <time>2021-09-26T07:32:38.000Z</time>
      </trkpt>
      <trkpt lat="40.3564157523214817047119140625" lon="-1.079890541732311248779296875">
        <ele>973.4000244140625</ele>
        <time>2021-09-26T07:32:40.000Z</time>
      </trkpt>
      <trkpt lat="40.356428325176239013671875" lon="-1.07979808934032917022705078125">
        <ele>973.4000244140625</ele>
        <time>2021-09-26T07:32:42.000Z</time>
      </trkpt>
      <trkpt lat="40.35643762908875942230224609375" lon="-1.07971074990928173065185546875">
        <ele>973.20001220703125</ele>
        <time>2021-09-26T07:32:44.000Z</time>
      </trkpt>
      <trkpt lat="40.356446765363216400146484375" lon="-1.07962332665920257568359375">
        <ele>973.20001220703125</ele>
        <time>2021-09-26T07:32:46.000Z</time>
      </trkpt>
      <trkpt lat="40.3564645349979400634765625" lon="-1.07953908853232860565185546875">
        <ele>973.20001220703125</ele>
        <time>2021-09-26T07:32:48.000Z</time>
      </trkpt>
      <trkpt lat="40.356480963528156280517578125" lon="-1.07944370247423648834228515625">
        <ele>973.20001220703125</ele>
        <time>2021-09-26T07:32:50.000Z</time>
      </trkpt>
      <trkpt lat="40.35649764351546764373779296875" lon="-1.07935351319611072540283203125">
        <ele>973.4000244140625</ele>
        <time>2021-09-26T07:32:52.000Z</time>
      </trkpt>
      <trkpt lat="40.35651214420795440673828125" lon="-1.07926785014569759368896484375">
        <ele>973</ele>
        <time>2021-09-26T07:32:54.000Z</time>
      </trkpt>
      <trkpt lat="40.35651809535920619964599609375" lon="-1.0791816003620624542236328125">
        <ele>972.5999755859375</ele>
        <time>2021-09-26T07:32:56.000Z</time>
      </trkpt>
      <trkpt lat="40.3565300814807415008544921875" lon="-1.07909468002617359161376953125">
        <ele>972.20001220703125</ele>
        <time>2021-09-26T07:32:58.000Z</time>
      </trkpt>
      <trkpt lat="40.35654491744935512542724609375" lon="-1.07900382019579410552978515625">
        <ele>971.79998779296875</ele>
        <time>2021-09-26T07:33:00.000Z</time>
      </trkpt>
      <trkpt lat="40.35656235180795192718505859375" lon="-1.07890977524220943450927734375">
        <ele>971.5999755859375</ele>
        <time>2021-09-26T07:33:02.000Z</time>
      </trkpt>
      <trkpt lat="40.35657961852848529815673828125" lon="-1.07881958596408367156982421875">
        <ele>971.4000244140625</ele>
        <time>2021-09-26T07:33:04.000Z</time>
      </trkpt>
      <trkpt lat="40.35660174675285816192626953125" lon="-1.078729815781116485595703125">
        <ele>971.20001220703125</ele>
        <time>2021-09-26T07:33:06.000Z</time>
      </trkpt>
      <trkpt lat="40.3566252999007701873779296875" lon="-1.0786367766559123992919921875">
        <ele>971</ele>
        <time>2021-09-26T07:33:08.000Z</time>
      </trkpt>
      <trkpt lat="40.3566496074199676513671875" lon="-1.0785519517958164215087890625">
        <ele>971</ele>
        <time>2021-09-26T07:33:10.000Z</time>
      </trkpt>
      <trkpt lat="40.35667433403432369232177734375" lon="-1.078459918498992919921875">
        <ele>970.79998779296875</ele>
        <time>2021-09-26T07:33:12.000Z</time>
      </trkpt>
      <trkpt lat="40.35669545643031597137451171875" lon="-1.07837735675275325775146484375">
        <ele>970.4000244140625</ele>
        <time>2021-09-26T07:33:14.000Z</time>
      </trkpt>
      <trkpt lat="40.3567181713879108428955078125" lon="-1.07829621993005275726318359375">
        <ele>970.20001220703125</ele>
        <time>2021-09-26T07:33:16.000Z</time>
      </trkpt>
      <trkpt lat="40.3567409701645374298095703125" lon="-1.07821709476411342620849609375">
        <ele>969.79998779296875</ele>
        <time>2021-09-26T07:33:18.000Z</time>
      </trkpt>
      <trkpt lat="40.3567654453217983245849609375" lon="-1.07812707312405109405517578125">
        <ele>970.4000244140625</ele>
        <time>2021-09-26T07:33:20.000Z</time>
      </trkpt>
      <trkpt lat="40.3567917644977569580078125" lon="-1.07803654856979846954345703125">
        <ele>971</ele>
        <time>2021-09-26T07:33:22.000Z</time>
      </trkpt>
      <trkpt lat="40.35681498236954212188720703125" lon="-1.07795541174709796905517578125">
        <ele>971.20001220703125</ele>
        <time>2021-09-26T07:33:24.000Z</time>
      </trkpt>
      <trkpt lat="40.35683576948940753936767578125" lon="-1.077874191105365753173828125">
        <ele>971.4000244140625</ele>
        <time>2021-09-26T07:33:26.000Z</time>
      </trkpt>
      <trkpt lat="40.35685521550476551055908203125" lon="-1.07779850251972675323486328125">
        <ele>971.4000244140625</ele>
        <time>2021-09-26T07:33:28.000Z</time>
      </trkpt>
      <trkpt lat="40.3568775951862335205078125" lon="-1.0777244903147220611572265625">
        <ele>971.5999755859375</ele>
        <time>2021-09-26T07:33:30.000Z</time>
      </trkpt>
      <trkpt lat="40.35690165124833583831787109375" lon="-1.07764779590070247650146484375">
        <ele>971.79998779296875</ele>
        <time>2021-09-26T07:33:32.000Z</time>
      </trkpt>
      <trkpt lat="40.3569285571575164794921875" lon="-1.07756607234477996826171875">
        <ele>972.4000244140625</ele>
        <time>2021-09-26T07:33:34.000Z</time>
      </trkpt>
      <trkpt lat="40.35695177502930164337158203125" lon="-1.0774804092943668365478515625">
        <ele>972.79998779296875</ele>
        <time>2021-09-26T07:33:36.000Z</time>
      </trkpt>
      <trkpt lat="40.35697524435818195343017578125" lon="-1.07739734463393688201904296875">
        <ele>973</ele>
        <time>2021-09-26T07:33:38.000Z</time>
      </trkpt>
      <trkpt lat="40.3569981269538402557373046875" lon="-1.07731671072542667388916015625">
        <ele>973.5999755859375</ele>
        <time>2021-09-26T07:33:40.000Z</time>
      </trkpt>
      <trkpt lat="40.35701103508472442626953125" lon="-1.0772792436182498931884765625">
        <ele>974</ele>
        <time>2021-09-26T07:33:41.000Z</time>
      </trkpt>
      <trkpt lat="40.35702285356819629669189453125" lon="-1.07724278233945369720458984375">
        <ele>974.4000244140625</ele>
        <time>2021-09-26T07:33:42.000Z</time>
      </trkpt>
      <trkpt lat="40.35705269314348697662353515625" lon="-1.0771702788770198822021484375">
        <ele>975.20001220703125</ele>
        <time>2021-09-26T07:33:44.000Z</time>
      </trkpt>
      <trkpt lat="40.35708538256585597991943359375" lon="-1.07708754949271678924560546875">
        <ele>976.20001220703125</ele>
        <time>2021-09-26T07:33:46.000Z</time>
      </trkpt>
      <trkpt lat="40.35711790435016155242919921875" lon="-1.0770016349852085113525390625">
        <ele>977.20001220703125</ele>
        <time>2021-09-26T07:33:48.000Z</time>
      </trkpt>
      <trkpt lat="40.35715394653379917144775390625" lon="-1.07692393474280834197998046875">
        <ele>978.20001220703125</ele>
        <time>2021-09-26T07:33:50.000Z</time>
      </trkpt>
      <trkpt lat="40.357195101678371429443359375" lon="-1.07684866525232791900634765625">
        <ele>979.4000244140625</ele>
        <time>2021-09-26T07:33:52.000Z</time>
      </trkpt>
      <trkpt lat="40.35723491571843624114990234375" lon="-1.0767736472189426422119140625">
        <ele>979.79998779296875</ele>
        <time>2021-09-26T07:33:54.000Z</time>
      </trkpt>
      <trkpt lat="40.35727783106267452239990234375" lon="-1.07670650817453861236572265625">
        <ele>980.20001220703125</ele>
        <time>2021-09-26T07:33:56.000Z</time>
      </trkpt>
      <trkpt lat="40.35730012692511081695556640625" lon="-1.07666828669607639312744140625">
        <ele>980.5999755859375</ele>
        <time>2021-09-26T07:33:57.000Z</time>
      </trkpt>
      <trkpt lat="40.357324518263339996337890625" lon="-1.07663308270275592803955078125">
        <ele>980.79998779296875</ele>
        <time>2021-09-26T07:33:58.000Z</time>
      </trkpt>
      <trkpt lat="40.35737690515816211700439453125" lon="-1.07657005079090595245361328125">
        <ele>981.5999755859375</ele>
        <time>2021-09-26T07:34:00.000Z</time>
      </trkpt>
      <trkpt lat="40.3574309684336185455322265625" lon="-1.07650081627070903778076171875">
        <ele>981.5999755859375</ele>
        <time>2021-09-26T07:34:02.000Z</time>
      </trkpt>
      <trkpt lat="40.35745988599956035614013671875" lon="-1.07646946795284748077392578125">
        <ele>981.5999755859375</ele>
        <time>2021-09-26T07:34:03.000Z</time>
      </trkpt>
      <trkpt lat="40.357492826879024505615234375" lon="-1.07643929310142993927001953125">
        <ele>981.79998779296875</ele>
        <time>2021-09-26T07:34:04.000Z</time>
      </trkpt>
      <trkpt lat="40.3575509972870349884033203125" lon="-1.07639084570109844207763671875">
        <ele>982.4000244140625</ele>
        <time>2021-09-26T07:34:06.000Z</time>
      </trkpt>
      <trkpt lat="40.357612855732440948486328125" lon="-1.0763449966907501220703125">
        <ele>983.20001220703125</ele>
        <time>2021-09-26T07:34:08.000Z</time>
      </trkpt>
      <trkpt lat="40.357668511569499969482421875" lon="-1.07629847712814807891845703125">
        <ele>983.79998779296875</ele>
        <time>2021-09-26T07:34:10.000Z</time>
      </trkpt>
      <trkpt lat="40.3577246703207492828369140625" lon="-1.07624969445168972015380859375">
        <ele>984</ele>
        <time>2021-09-26T07:34:12.000Z</time>
      </trkpt>
      <trkpt lat="40.35778292454779148101806640625" lon="-1.076192446053028106689453125">
        <ele>983.79998779296875</ele>
        <time>2021-09-26T07:34:14.000Z</time>
      </trkpt>
      <trkpt lat="40.35780773498117923736572265625" lon="-1.07616126537322998046875">
        <ele>983.5999755859375</ele>
        <time>2021-09-26T07:34:15.000Z</time>
      </trkpt>
      <trkpt lat="40.357833467423915863037109375" lon="-1.07613234780728816986083984375">
        <ele>983.4000244140625</ele>
        <time>2021-09-26T07:34:16.000Z</time>
      </trkpt>
      <trkpt lat="40.35789373330771923065185546875" lon="-1.0760725848376750946044921875">
        <ele>983.20001220703125</ele>
        <time>2021-09-26T07:34:18.000Z</time>
      </trkpt>
      <trkpt lat="40.35794821567833423614501953125" lon="-1.07602070085704326629638671875">
        <ele>983</ele>
        <time>2021-09-26T07:34:20.000Z</time>
      </trkpt>
      <trkpt lat="40.35800345242023468017578125" lon="-1.07597107999026775360107421875">
        <ele>982.79998779296875</ele>
        <time>2021-09-26T07:34:22.000Z</time>
      </trkpt>
      <trkpt lat="40.3580599464476108551025390625" lon="-1.0759183578193187713623046875">
        <ele>982.5999755859375</ele>
        <time>2021-09-26T07:34:24.000Z</time>
      </trkpt>
      <trkpt lat="40.358118452131748199462890625" lon="-1.0758620314300060272216796875">
        <ele>982.20001220703125</ele>
        <time>2021-09-26T07:34:26.000Z</time>
      </trkpt>
      <trkpt lat="40.35817637108266353607177734375" lon="-1.07581148855388164520263671875">
        <ele>982</ele>
        <time>2021-09-26T07:34:28.000Z</time>
      </trkpt>
      <trkpt lat="40.35823403857648372650146484375" lon="-1.0757602751255035400390625">
        <ele>981.79998779296875</ele>
        <time>2021-09-26T07:34:30.000Z</time>
      </trkpt>
      <trkpt lat="40.3582932986319065093994140625" lon="-1.07570420019328594207763671875">
        <ele>981.5999755859375</ele>
        <time>2021-09-26T07:34:32.000Z</time>
      </trkpt>
      <trkpt lat="40.35835104994475841522216796875" lon="-1.07565240003168582916259765625">
        <ele>981.4000244140625</ele>
        <time>2021-09-26T07:34:34.000Z</time>
      </trkpt>
      <trkpt lat="40.35840704105794429779052734375" lon="-1.07560076750814914703369140625">
        <ele>981.20001220703125</ele>
        <time>2021-09-26T07:34:36.000Z</time>
      </trkpt>
      <trkpt lat="40.358464457094669342041015625" lon="-1.0755445249378681182861328125">
        <ele>980.79998779296875</ele>
        <time>2021-09-26T07:34:38.000Z</time>
      </trkpt>
      <trkpt lat="40.358518101274967193603515625" lon="-1.0754858516156673431396484375">
        <ele>980.20001220703125</ele>
        <time>2021-09-26T07:34:40.000Z</time>
      </trkpt>
      <trkpt lat="40.3585662133991718292236328125" lon="-1.07543237507343292236328125">
        <ele>979.79998779296875</ele>
        <time>2021-09-26T07:34:42.000Z</time>
      </trkpt>
      <trkpt lat="40.35861876793205738067626953125" lon="-1.07537646777927875518798828125">
        <ele>980</ele>
        <time>2021-09-26T07:34:44.000Z</time>
      </trkpt>
      <trkpt lat="40.3586719930171966552734375" lon="-1.07531745918095111846923828125">
        <ele>980.20001220703125</ele>
        <time>2021-09-26T07:34:46.000Z</time>
      </trkpt>
      <trkpt lat="40.358696468174457550048828125" lon="-1.0752863623201847076416015625">
        <ele>980.20001220703125</ele>
        <time>2021-09-26T07:34:47.000Z</time>
      </trkpt>
      <trkpt lat="40.3587204404175281524658203125" lon="-1.0752555169165134429931640625">
        <ele>980.20001220703125</ele>
        <time>2021-09-26T07:34:48.000Z</time>
      </trkpt>
      <trkpt lat="40.35875975154340267181396484375" lon="-1.0752058960497379302978515625">
        <ele>980.20001220703125</ele>
        <time>2021-09-26T07:34:50.000Z</time>
      </trkpt>
      <trkpt lat="40.35879612900316715240478515625" lon="-1.07516306452453136444091796875">
        <ele>980.4000244140625</ele>
        <time>2021-09-26T07:34:52.000Z</time>
      </trkpt>
      <trkpt lat="40.3588532097637653350830078125" lon="-1.07510070316493511199951171875">
        <ele>980.79998779296875</ele>
        <time>2021-09-26T07:34:54.000Z</time>
      </trkpt>
      <trkpt lat="40.3588917665183544158935546875" lon="-1.07507991604506969451904296875">
        <ele>982</ele>
        <time>2021-09-26T07:34:55.000Z</time>
      </trkpt>
      <trkpt lat="40.35892940126359462738037109375" lon="-1.07505493797361850738525390625">
        <ele>982.79998779296875</ele>
        <time>2021-09-26T07:34:56.000Z</time>
      </trkpt>
      <trkpt lat="40.35894222557544708251953125" lon="-1.07501705177128314971923828125">
        <ele>982.5999755859375</ele>
        <time>2021-09-26T07:34:57.000Z</time>
      </trkpt>
      <trkpt lat="40.35896142013370990753173828125" lon="-1.074982099235057830810546875">
        <ele>982.5999755859375</ele>
        <time>2021-09-26T07:34:58.000Z</time>
      </trkpt>
      <trkpt lat="40.3589775972068309783935546875" lon="-1.07495401985943317413330078125">
        <ele>982.5999755859375</ele>
        <time>2021-09-26T07:34:59.000Z</time>
      </trkpt>
      <trkpt lat="40.3590003959834575653076171875" lon="-1.074923761188983917236328125">
        <ele>982.79998779296875</ele>
        <time>2021-09-26T07:35:00.000Z</time>
      </trkpt>
      <trkpt lat="40.3590325824916362762451171875" lon="-1.07486131601035594940185546875">
        <ele>983</ele>
        <time>2021-09-26T07:35:02.000Z</time>
      </trkpt>
      <trkpt lat="40.35904817283153533935546875" lon="-1.074828207492828369140625">
        <ele>983</ele>
        <time>2021-09-26T07:35:03.000Z</time>
      </trkpt>
      <trkpt lat="40.35906133241951465606689453125" lon="-1.074797697365283966064453125">
        <ele>983.20001220703125</ele>
        <time>2021-09-26T07:35:04.000Z</time>
      </trkpt>
      <trkpt lat="40.35909603349864482879638671875" lon="-1.07474531047046184539794921875">
        <ele>983.79998779296875</ele>
        <time>2021-09-26T07:35:06.000Z</time>
      </trkpt>
      <trkpt lat="40.35911464132368564605712890625" lon="-1.074723936617374420166015625">
        <ele>984.20001220703125</ele>
        <time>2021-09-26T07:35:07.000Z</time>
      </trkpt>
      <trkpt lat="40.35913693718612194061279296875" lon="-1.07470281422138214111328125">
        <ele>984.5999755859375</ele>
        <time>2021-09-26T07:35:08.000Z</time>
      </trkpt>
      <trkpt lat="40.3591807745397090911865234375" lon="-1.07465193606913089752197265625">
        <ele>985.20001220703125</ele>
        <time>2021-09-26T07:35:10.000Z</time>
      </trkpt>
      <trkpt lat="40.35922863520681858062744140625" lon="-1.07458068989217281341552734375">
        <ele>985.5999755859375</ele>
        <time>2021-09-26T07:35:12.000Z</time>
      </trkpt>
      <trkpt lat="40.3592696227133274078369140625" lon="-1.074508018791675567626953125">
        <ele>986</ele>
        <time>2021-09-26T07:35:14.000Z</time>
      </trkpt>
      <trkpt lat="40.3592977859079837799072265625" lon="-1.07440936379134654998779296875">
        <ele>985.79998779296875</ele>
        <time>2021-09-26T07:35:16.000Z</time>
      </trkpt>
      <trkpt lat="40.35931580699980258941650390625" lon="-1.074372231960296630859375">
        <ele>986</ele>
        <time>2021-09-26T07:35:17.000Z</time>
      </trkpt>
      <trkpt lat="40.3593306429684162139892578125" lon="-1.07433409430086612701416015625">
        <ele>986</ele>
        <time>2021-09-26T07:35:18.000Z</time>
      </trkpt>
      <trkpt lat="40.3593604825437068939208984375" lon="-1.0742630995810031890869140625">
        <ele>985.5999755859375</ele>
        <time>2021-09-26T07:35:20.000Z</time>
      </trkpt>
      <trkpt lat="40.35939359106123447418212890625" lon="-1.07419545762240886688232421875">
        <ele>985.4000244140625</ele>
        <time>2021-09-26T07:35:22.000Z</time>
      </trkpt>
      <trkpt lat="40.3594295494258403778076171875" lon="-1.0741256363689899444580078125">
        <ele>985</ele>
        <time>2021-09-26T07:35:24.000Z</time>
      </trkpt>
      <trkpt lat="40.359475314617156982421875" lon="-1.074049361050128936767578125">
        <ele>985</ele>
        <time>2021-09-26T07:35:26.000Z</time>
      </trkpt>
      <trkpt lat="40.35951429046690464019775390625" lon="-1.07397249899804592132568359375">
        <ele>985.4000244140625</ele>
        <time>2021-09-26T07:35:28.000Z</time>
      </trkpt>
      <trkpt lat="40.35955108702182769775390625" lon="-1.07390577904880046844482421875">
        <ele>985.5999755859375</ele>
        <time>2021-09-26T07:35:30.000Z</time>
      </trkpt>
      <trkpt lat="40.35959794186055660247802734375" lon="-1.07382866553962230682373046875">
        <ele>985.79998779296875</ele>
        <time>2021-09-26T07:35:32.000Z</time>
      </trkpt>
      <trkpt lat="40.35964337177574634552001953125" lon="-1.07375171966850757598876953125">
        <ele>986</ele>
        <time>2021-09-26T07:35:34.000Z</time>
      </trkpt>
      <trkpt lat="40.35966449417173862457275390625" lon="-1.07371534220874309539794921875">
        <ele>986.20001220703125</ele>
        <time>2021-09-26T07:35:35.000Z</time>
      </trkpt>
      <trkpt lat="40.3596853651106357574462890625" lon="-1.07367829419672489166259765625">
        <ele>986.4000244140625</ele>
        <time>2021-09-26T07:35:36.000Z</time>
      </trkpt>
      <trkpt lat="40.35973079502582550048828125" lon="-1.07360838912427425384521484375">
        <ele>988.20001220703125</ele>
        <time>2021-09-26T07:35:38.000Z</time>
      </trkpt>
      <trkpt lat="40.359775386750698089599609375" lon="-1.073535718023777008056640625">
        <ele>989.79998779296875</ele>
        <time>2021-09-26T07:35:40.000Z</time>
      </trkpt>
      <trkpt lat="40.359820313751697540283203125" lon="-1.0734674893319606781005859375">
        <ele>991.4000244140625</ele>
        <time>2021-09-26T07:35:42.000Z</time>
      </trkpt>
      <trkpt lat="40.35986247472465038299560546875" lon="-1.0734007693827152252197265625">
        <ele>992.5999755859375</ele>
        <time>2021-09-26T07:35:44.000Z</time>
      </trkpt>
      <trkpt lat="40.35988099873065948486328125" lon="-1.07336548157036304473876953125">
        <ele>993</ele>
        <time>2021-09-26T07:35:45.000Z</time>
      </trkpt>
      <trkpt lat="40.35990153439342975616455078125" lon="-1.0733310319483280181884765625">
        <ele>993.5999755859375</ele>
        <time>2021-09-26T07:35:46.000Z</time>
      </trkpt>
      <trkpt lat="40.359941683709621429443359375" lon="-1.07326523400843143463134765625">
        <ele>994.79998779296875</ele>
        <time>2021-09-26T07:35:48.000Z</time>
      </trkpt>
      <trkpt lat="40.35998535342514514923095703125" lon="-1.07319935224950313568115234375">
        <ele>996</ele>
        <time>2021-09-26T07:35:50.000Z</time>
      </trkpt>
      <trkpt lat="40.3600296936929225921630859375" lon="-1.0731285251677036285400390625">
        <ele>996.5999755859375</ele>
        <time>2021-09-26T07:35:52.000Z</time>
      </trkpt>
      <trkpt lat="40.36007034592330455780029296875" lon="-1.0730557702481746673583984375">
        <ele>996.79998779296875</ele>
        <time>2021-09-26T07:35:54.000Z</time>
      </trkpt>
      <trkpt lat="40.3601138480007648468017578125" lon="-1.07298712246119976043701171875">
        <ele>997.5999755859375</ele>
        <time>2021-09-26T07:35:56.000Z</time>
      </trkpt>
      <trkpt lat="40.3601550869643688201904296875" lon="-1.07291637919843196868896484375">
        <ele>997.5999755859375</ele>
        <time>2021-09-26T07:35:58.000Z</time>
      </trkpt>
      <trkpt lat="40.360176376998424530029296875" lon="-1.0728800855576992034912109375">
        <ele>997.20001220703125</ele>
        <time>2021-09-26T07:35:59.000Z</time>
      </trkpt>
      <trkpt lat="40.36019775085151195526123046875" lon="-1.07284949161112308502197265625">
        <ele>997</ele>
        <time>2021-09-26T07:36:00.000Z</time>
      </trkpt>
      <trkpt lat="40.360238067805767059326171875" lon="-1.07278210110962390899658203125">
        <ele>996.20001220703125</ele>
        <time>2021-09-26T07:36:02.000Z</time>
      </trkpt>
      <trkpt lat="40.36027637310326099395751953125" lon="-1.07271236367523670196533203125">
        <ele>995.20001220703125</ele>
        <time>2021-09-26T07:36:04.000Z</time>
      </trkpt>
      <trkpt lat="40.36029414273798465728759765625" lon="-1.0726782493293285369873046875">
        <ele>994.5999755859375</ele>
        <time>2021-09-26T07:36:05.000Z</time>
      </trkpt>
      <trkpt lat="40.360315181314945220947265625" lon="-1.072639189660549163818359375">
        <ele>994.20001220703125</ele>
        <time>2021-09-26T07:36:06.000Z</time>
      </trkpt>
      <trkpt lat="40.360355414450168609619140625" lon="-1.07256283052265644073486328125">
        <ele>993.4000244140625</ele>
        <time>2021-09-26T07:36:08.000Z</time>
      </trkpt>
      <trkpt lat="40.3603974916040897369384765625" lon="-1.07248906977474689483642578125">
        <ele>993</ele>
        <time>2021-09-26T07:36:10.000Z</time>
      </trkpt>
      <trkpt lat="40.360442586243152618408203125" lon="-1.072414219379425048828125">
        <ele>992.79998779296875</ele>
        <time>2021-09-26T07:36:12.000Z</time>
      </trkpt>
      <trkpt lat="40.36048323847353458404541015625" lon="-1.072341464459896087646484375">
        <ele>992.20001220703125</ele>
        <time>2021-09-26T07:36:14.000Z</time>
      </trkpt>
      <trkpt lat="40.36052145995199680328369140625" lon="-1.07227231375873088836669921875">
        <ele>991.20001220703125</ele>
        <time>2021-09-26T07:36:16.000Z</time>
      </trkpt>
      <trkpt lat="40.36056102253496646881103515625" lon="-1.07220257632434368133544921875">
        <ele>990.20001220703125</ele>
        <time>2021-09-26T07:36:18.000Z</time>
      </trkpt>
      <trkpt lat="40.36058281548321247100830078125" lon="-1.07216753996908664703369140625">
        <ele>989.5999755859375</ele>
        <time>2021-09-26T07:36:19.000Z</time>
      </trkpt>
      <trkpt lat="40.36060511134564876556396484375" lon="-1.07213133014738559722900390625">
        <ele>989.20001220703125</ele>
        <time>2021-09-26T07:36:20.000Z</time>
      </trkpt>
      <trkpt lat="40.36064467392861843109130859375" lon="-1.0720574855804443359375">
        <ele>988.20001220703125</ele>
        <time>2021-09-26T07:36:22.000Z</time>
      </trkpt>
      <trkpt lat="40.36069144494831562042236328125" lon="-1.071988753974437713623046875">
        <ele>987.5999755859375</ele>
        <time>2021-09-26T07:36:24.000Z</time>
      </trkpt>
      <trkpt lat="40.36073218099772930145263671875" lon="-1.0719178430736064910888671875">
        <ele>986.79998779296875</ele>
        <time>2021-09-26T07:36:26.000Z</time>
      </trkpt>
      <trkpt lat="40.3607703186571598052978515625" lon="-1.071847938001155853271484375">
        <ele>985.79998779296875</ele>
        <time>2021-09-26T07:36:28.000Z</time>
      </trkpt>
      <trkpt lat="40.36081172525882720947265625" lon="-1.07177912257611751556396484375">
        <ele>985.5999755859375</ele>
        <time>2021-09-26T07:36:30.000Z</time>
      </trkpt>
      <trkpt lat="40.36085371859371662139892578125" lon="-1.0717099718749523162841796875">
        <ele>985.79998779296875</ele>
        <time>2021-09-26T07:36:32.000Z</time>
      </trkpt>
      <trkpt lat="40.3609000705182552337646484375" lon="-1.07164015062153339385986328125">
        <ele>986.20001220703125</ele>
        <time>2021-09-26T07:36:34.000Z</time>
      </trkpt>
      <trkpt lat="40.36094793118536472320556640625" lon="-1.07156421057879924774169921875">
        <ele>986.5999755859375</ele>
        <time>2021-09-26T07:36:36.000Z</time>
      </trkpt>
      <trkpt lat="40.36099570803344249725341796875" lon="-1.07148793525993824005126953125">
        <ele>987.20001220703125</ele>
        <time>2021-09-26T07:36:38.000Z</time>
      </trkpt>
      <trkpt lat="40.36104180850088596343994140625" lon="-1.071415431797504425048828125">
        <ele>987.79998779296875</ele>
        <time>2021-09-26T07:36:40.000Z</time>
      </trkpt>
      <trkpt lat="40.361089669167995452880859375" lon="-1.0713381506502628326416015625">
        <ele>988</ele>
        <time>2021-09-26T07:36:42.000Z</time>
      </trkpt>
      <trkpt lat="40.36113317124545574188232421875" lon="-1.07126883231103420257568359375">
        <ele>988.20001220703125</ele>
        <time>2021-09-26T07:36:44.000Z</time>
      </trkpt>
      <trkpt lat="40.361174158751964569091796875" lon="-1.07119825668632984161376953125">
        <ele>988.4000244140625</ele>
        <time>2021-09-26T07:36:46.000Z</time>
      </trkpt>
      <trkpt lat="40.3611947782337665557861328125" lon="-1.0711591131985187530517578125">
        <ele>988.4000244140625</ele>
        <time>2021-09-26T07:36:47.000Z</time>
      </trkpt>
      <trkpt lat="40.3612172417342662811279296875" lon="-1.071121059358119964599609375">
        <ele>988.5999755859375</ele>
        <time>2021-09-26T07:36:48.000Z</time>
      </trkpt>
      <trkpt lat="40.361262671649456024169921875" lon="-1.07103933580219745635986328125">
        <ele>988.5999755859375</ele>
        <time>2021-09-26T07:36:50.000Z</time>
      </trkpt>
      <trkpt lat="40.36130416207015514373779296875" lon="-1.070965826511383056640625">
        <ele>988.79998779296875</ele>
        <time>2021-09-26T07:36:52.000Z</time>
      </trkpt>
      <trkpt lat="40.36134221591055393218994140625" lon="-1.07089340686798095703125">
        <ele>989</ele>
        <time>2021-09-26T07:36:54.000Z</time>
      </trkpt>
      <trkpt lat="40.361381359398365020751953125" lon="-1.0708171315491199493408203125">
        <ele>989.20001220703125</ele>
        <time>2021-09-26T07:36:56.000Z</time>
      </trkpt>
      <trkpt lat="40.361422263085842132568359375" lon="-1.07074412517249584197998046875">
        <ele>989.5999755859375</ele>
        <time>2021-09-26T07:36:58.000Z</time>
      </trkpt>
      <trkpt lat="40.36146174184978008270263671875" lon="-1.07067069970071315765380859375">
        <ele>990.4000244140625</ele>
        <time>2021-09-26T07:37:00.000Z</time>
      </trkpt>
      <trkpt lat="40.36149761639535427093505859375" lon="-1.070605404675006866455078125">
        <ele>991.20001220703125</ele>
        <time>2021-09-26T07:37:02.000Z</time>
      </trkpt>
      <trkpt lat="40.3615339100360870361328125" lon="-1.0705331526696681976318359375">
        <ele>992</ele>
        <time>2021-09-26T07:37:04.000Z</time>
      </trkpt>
      <trkpt lat="40.36155201494693756103515625" lon="-1.07049820013344287872314453125">
        <ele>992.4000244140625</ele>
        <time>2021-09-26T07:37:05.000Z</time>
      </trkpt>
      <trkpt lat="40.3615679405629634857177734375" lon="-1.07045897282660007476806640625">
        <ele>992.5999755859375</ele>
        <time>2021-09-26T07:37:06.000Z</time>
      </trkpt>
      <trkpt lat="40.36159694194793701171875" lon="-1.0703772492706775665283203125">
        <ele>993.20001220703125</ele>
        <time>2021-09-26T07:37:08.000Z</time>
      </trkpt>
      <trkpt lat="40.3616272844374179840087890625" lon="-1.07029552571475505828857421875">
        <ele>994</ele>
        <time>2021-09-26T07:37:10.000Z</time>
      </trkpt>
      <trkpt lat="40.36164178512990474700927734375" lon="-1.07025294564664363861083984375">
        <ele>994</ele>
        <time>2021-09-26T07:37:11.000Z</time>
      </trkpt>
      <trkpt lat="40.3616524301469326019287109375" lon="-1.07021338306367397308349609375">
        <ele>994</ele>
        <time>2021-09-26T07:37:12.000Z</time>
      </trkpt>
      <trkpt lat="40.36167548038065433502197265625" lon="-1.07013207860291004180908203125">
        <ele>994</ele>
        <time>2021-09-26T07:37:14.000Z</time>
      </trkpt>
      <trkpt lat="40.361690483987331390380859375" lon="-1.07005362398922443389892578125">
        <ele>994.4000244140625</ele>
        <time>2021-09-26T07:37:16.000Z</time>
      </trkpt>
      <trkpt lat="40.3617002069950103759765625" lon="-1.06997902505099773406982421875">
        <ele>994.5999755859375</ele>
        <time>2021-09-26T07:37:18.000Z</time>
      </trkpt>
      <trkpt lat="40.361716635525226593017578125" lon="-1.06990627013146877288818359375">
        <ele>995</ele>
        <time>2021-09-26T07:37:20.000Z</time>
      </trkpt>
      <trkpt lat="40.36173432134091854095458984375" lon="-1.06983183883130550384521484375">
        <ele>995.20001220703125</ele>
        <time>2021-09-26T07:37:22.000Z</time>
      </trkpt>
      <trkpt lat="40.36174840293824672698974609375" lon="-1.06974835507571697235107421875">
        <ele>995.20001220703125</ele>
        <time>2021-09-26T07:37:24.000Z</time>
      </trkpt>
      <trkpt lat="40.361752174794673919677734375" lon="-1.0697150789201259613037109375">
        <ele>995</ele>
        <time>2021-09-26T07:37:25.000Z</time>
      </trkpt>
      <trkpt lat="40.36175427027046680450439453125" lon="-1.06967744417488574981689453125">
        <ele>995</ele>
        <time>2021-09-26T07:37:26.000Z</time>
      </trkpt>
      <trkpt lat="40.36176164634525775909423828125" lon="-1.06958993710577487945556640625">
        <ele>994.79998779296875</ele>
        <time>2021-09-26T07:37:28.000Z</time>
      </trkpt>
      <trkpt lat="40.36177061498165130615234375" lon="-1.069501340389251708984375">
        <ele>994.79998779296875</ele>
        <time>2021-09-26T07:37:30.000Z</time>
      </trkpt>
      <trkpt lat="40.36178008653223514556884765625" lon="-1.06940519995987415313720703125">
        <ele>994.5999755859375</ele>
        <time>2021-09-26T07:37:32.000Z</time>
      </trkpt>
      <trkpt lat="40.3617811761796474456787109375" lon="-1.0693586803972721099853515625">
        <ele>994.4000244140625</ele>
        <time>2021-09-26T07:37:33.000Z</time>
      </trkpt>
      <trkpt lat="40.36178125999867916107177734375" lon="-1.06931216083467006683349609375">
        <ele>994.20001220703125</ele>
        <time>2021-09-26T07:37:34.000Z</time>
      </trkpt>
      <trkpt lat="40.36177841015160083770751953125" lon="-1.06921409256756305694580078125">
        <ele>993.79998779296875</ele>
        <time>2021-09-26T07:37:36.000Z</time>
      </trkpt>
      <trkpt lat="40.36177338100969791412353515625" lon="-1.0691125877201557159423828125">
        <ele>993.20001220703125</ele>
        <time>2021-09-26T07:37:38.000Z</time>
      </trkpt>
      <trkpt lat="40.36176064051687717437744140625" lon="-1.06901275925338268280029296875">
        <ele>992.4000244140625</ele>
        <time>2021-09-26T07:37:40.000Z</time>
      </trkpt>
      <trkpt lat="40.3617484867572784423828125" lon="-1.06892374344170093536376953125">
        <ele>992.4000244140625</ele>
        <time>2021-09-26T07:37:42.000Z</time>
      </trkpt>
      <trkpt lat="40.36173314787447452545166015625" lon="-1.06883724220097064971923828125">
        <ele>991.5999755859375</ele>
        <time>2021-09-26T07:37:44.000Z</time>
      </trkpt>
      <trkpt lat="40.361713953316211700439453125" lon="-1.06874738819897174835205078125">
        <ele>991</ele>
        <time>2021-09-26T07:37:46.000Z</time>
      </trkpt>
      <trkpt lat="40.3617020510137081146240234375" lon="-1.06870464049279689788818359375">
        <ele>990.79998779296875</ele>
        <time>2021-09-26T07:37:47.000Z</time>
      </trkpt>
      <trkpt lat="40.361690483987331390380859375" lon="-1.06865770183503627777099609375">
        <ele>990.79998779296875</ele>
        <time>2021-09-26T07:37:48.000Z</time>
      </trkpt>
      <trkpt lat="40.36166424863040447235107421875" lon="-1.06857136823236942291259765625">
        <ele>990.5999755859375</ele>
        <time>2021-09-26T07:37:50.000Z</time>
      </trkpt>
      <trkpt lat="40.36163256503641605377197265625" lon="-1.068483777344226837158203125">
        <ele>990.20001220703125</ele>
        <time>2021-09-26T07:37:52.000Z</time>
      </trkpt>
      <trkpt lat="40.3615957684814929962158203125" lon="-1.06839350424706935882568359375">
        <ele>991.20001220703125</ele>
        <time>2021-09-26T07:37:54.000Z</time>
      </trkpt>
      <trkpt lat="40.36157841794192790985107421875" lon="-1.0683478228747844696044921875">
        <ele>991.79998779296875</ele>
        <time>2021-09-26T07:37:55.000Z</time>
      </trkpt>
      <trkpt lat="40.3615645878016948699951171875" lon="-1.06830264441668987274169921875">
        <ele>992.4000244140625</ele>
        <time>2021-09-26T07:37:56.000Z</time>
      </trkpt>
      <trkpt lat="40.3615327365696430206298828125" lon="-1.06821119785308837890625">
        <ele>993</ele>
        <time>2021-09-26T07:37:58.000Z</time>
      </trkpt>
      <trkpt lat="40.36149837076663970947265625" lon="-1.068125702440738677978515625">
        <ele>993.79998779296875</ele>
        <time>2021-09-26T07:38:00.000Z</time>
      </trkpt>
      <trkpt lat="40.3614640049636363983154296875" lon="-1.06804263778030872344970703125">
        <ele>994.20001220703125</ele>
        <time>2021-09-26T07:38:02.000Z</time>
      </trkpt>
      <trkpt lat="40.36142838187515735626220703125" lon="-1.06795764528214931488037109375">
        <ele>994</ele>
        <time>2021-09-26T07:38:04.000Z</time>
      </trkpt>
      <trkpt lat="40.36139485426247119903564453125" lon="-1.06787617318332195281982421875">
        <ele>993.79998779296875</ele>
        <time>2021-09-26T07:38:06.000Z</time>
      </trkpt>
      <trkpt lat="40.36136149428784847259521484375" lon="-1.06779151596128940582275390625">
        <ele>993.79998779296875</ele>
        <time>2021-09-26T07:38:08.000Z</time>
      </trkpt>
      <trkpt lat="40.3613322414457798004150390625" lon="-1.06771121732890605926513671875">
        <ele>994</ele>
        <time>2021-09-26T07:38:10.000Z</time>
      </trkpt>
      <trkpt lat="40.36130064167082309722900390625" lon="-1.06763142161071300506591796875">
        <ele>994.5999755859375</ele>
        <time>2021-09-26T07:38:12.000Z</time>
      </trkpt>
      <trkpt lat="40.36128387786448001861572265625" lon="-1.06758951209485530853271484375">
        <ele>994.79998779296875</ele>
        <time>2021-09-26T07:38:13.000Z</time>
      </trkpt>
      <trkpt lat="40.36126744933426380157470703125" lon="-1.06754492036998271942138671875">
        <ele>995</ele>
        <time>2021-09-26T07:38:14.000Z</time>
      </trkpt>
      <trkpt lat="40.3612350113689899444580078125" lon="-1.067458502948284149169921875">
        <ele>995.4000244140625</ele>
        <time>2021-09-26T07:38:16.000Z</time>
      </trkpt>
      <trkpt lat="40.36119997501373291015625" lon="-1.067374683916568756103515625">
        <ele>995.4000244140625</ele>
        <time>2021-09-26T07:38:18.000Z</time>
      </trkpt>
      <trkpt lat="40.3611676208674907684326171875" lon="-1.06729346327483654022216796875">
        <ele>995</ele>
        <time>2021-09-26T07:38:20.000Z</time>
      </trkpt>
      <trkpt lat="40.361150689423084259033203125" lon="-1.06725423596799373626708984375">
        <ele>994.5999755859375</ele>
        <time>2021-09-26T07:38:21.000Z</time>
      </trkpt>
      <trkpt lat="40.361132584512233734130859375" lon="-1.06721299700438976287841796875">
        <ele>994.20001220703125</ele>
        <time>2021-09-26T07:38:22.000Z</time>
      </trkpt>
      <trkpt lat="40.36109914071857929229736328125" lon="-1.067129932343959808349609375">
        <ele>993.5999755859375</ele>
        <time>2021-09-26T07:38:24.000Z</time>
      </trkpt>
      <trkpt lat="40.36106628365814685821533203125" lon="-1.067047119140625">
        <ele>993.5999755859375</ele>
        <time>2021-09-26T07:38:26.000Z</time>
      </trkpt>
      <trkpt lat="40.3610345162451267242431640625" lon="-1.066968329250812530517578125">
        <ele>994</ele>
        <time>2021-09-26T07:38:28.000Z</time>
      </trkpt>
      <trkpt lat="40.3610177524387836456298828125" lon="-1.0669272579252719879150390625">
        <ele>994.20001220703125</ele>
        <time>2021-09-26T07:38:29.000Z</time>
      </trkpt>
      <trkpt lat="40.36100224591791629791259765625" lon="-1.06688953936100006103515625">
        <ele>994.4000244140625</ele>
        <time>2021-09-26T07:38:30.000Z</time>
      </trkpt>
      <trkpt lat="40.360972322523593902587890625" lon="-1.06680949218571186065673828125">
        <ele>994.4000244140625</ele>
        <time>2021-09-26T07:38:32.000Z</time>
      </trkpt>
      <trkpt lat="40.36093586124479770660400390625" lon="-1.06672802008688449859619140625">
        <ele>994.5999755859375</ele>
        <time>2021-09-26T07:38:34.000Z</time>
      </trkpt>
      <trkpt lat="40.3609027527272701263427734375" lon="-1.0666372440755367279052734375">
        <ele>995.20001220703125</ele>
        <time>2021-09-26T07:38:36.000Z</time>
      </trkpt>
      <trkpt lat="40.36086712963879108428955078125" lon="-1.0665497370064258575439453125">
        <ele>996</ele>
        <time>2021-09-26T07:38:38.000Z</time>
      </trkpt>
      <trkpt lat="40.36083142273128032684326171875" lon="-1.06645761989057064056396484375">
        <ele>996.79998779296875</ele>
        <time>2021-09-26T07:38:40.000Z</time>
      </trkpt>
      <trkpt lat="40.36079605109989643096923828125" lon="-1.06636650860309600830078125">
        <ele>997</ele>
        <time>2021-09-26T07:38:42.000Z</time>
      </trkpt>
      <trkpt lat="40.360756404697895050048828125" lon="-1.06627120636403560638427734375">
        <ele>997.20001220703125</ele>
        <time>2021-09-26T07:38:44.000Z</time>
      </trkpt>
      <trkpt lat="40.3607260622084140777587890625" lon="-1.06617632322013378143310546875">
        <ele>997.79998779296875</ele>
        <time>2021-09-26T07:38:46.000Z</time>
      </trkpt>
      <trkpt lat="40.3606848232448101043701171875" lon="-1.066068112850189208984375">
        <ele>998</ele>
        <time>2021-09-26T07:38:48.000Z</time>
      </trkpt>
      <trkpt lat="40.3606648743152618408203125" lon="-1.06601513922214508056640625">
        <ele>997.5999755859375</ele>
        <time>2021-09-26T07:38:49.000Z</time>
      </trkpt>
      <trkpt lat="40.36064182408154010772705078125" lon="-1.06596442870795726776123046875">
        <ele>997.4000244140625</ele>
        <time>2021-09-26T07:38:50.000Z</time>
      </trkpt>
      <trkpt lat="40.36060259677469730377197265625" lon="-1.06587390415370464324951171875">
        <ele>996.79998779296875</ele>
        <time>2021-09-26T07:38:52.000Z</time>
      </trkpt>
      <trkpt lat="40.36056890152394771575927734375" lon="-1.065795533359050750732421875">
        <ele>995.5999755859375</ele>
        <time>2021-09-26T07:38:54.000Z</time>
      </trkpt>
      <trkpt lat="40.3605232201516628265380859375" lon="-1.0657058469951152801513671875">
        <ele>994.4000244140625</ele>
        <time>2021-09-26T07:38:56.000Z</time>
      </trkpt>
      <trkpt lat="40.3604880161583423614501953125" lon="-1.0656161606311798095703125">
        <ele>994.4000244140625</ele>
        <time>2021-09-26T07:38:58.000Z</time>
      </trkpt>
      <trkpt lat="40.36045859567821025848388671875" lon="-1.06553846038877964019775390625">
        <ele>994.5999755859375</ele>
        <time>2021-09-26T07:39:00.000Z</time>
      </trkpt>
      <trkpt lat="40.36042280495166778564453125" lon="-1.0654500313103199005126953125">
        <ele>994.79998779296875</ele>
        <time>2021-09-26T07:39:02.000Z</time>
      </trkpt>
      <trkpt lat="40.3603867627680301666259765625" lon="-1.0653702355921268463134765625">
        <ele>995.4000244140625</ele>
        <time>2021-09-26T07:39:04.000Z</time>
      </trkpt>
      <trkpt lat="40.360373519361019134521484375" lon="-1.0653306730091571807861328125">
        <ele>995.79998779296875</ele>
        <time>2021-09-26T07:39:05.000Z</time>
      </trkpt>
      <trkpt lat="40.36035968922078609466552734375" lon="-1.065287254750728607177734375">
        <ele>996.20001220703125</ele>
        <time>2021-09-26T07:39:06.000Z</time>
      </trkpt>
      <trkpt lat="40.3603322803974151611328125" lon="-1.0652049444615840911865234375">
        <ele>996.5999755859375</ele>
        <time>2021-09-26T07:39:08.000Z</time>
      </trkpt>
      <trkpt lat="40.36030269227921962738037109375" lon="-1.06511936523020267486572265625">
        <ele>997.4000244140625</ele>
        <time>2021-09-26T07:39:10.000Z</time>
      </trkpt>
      <trkpt lat="40.36026782356202602386474609375" lon="-1.06503722257912158966064453125">
        <ele>997.5999755859375</ele>
        <time>2021-09-26T07:39:12.000Z</time>
      </trkpt>
      <trkpt lat="40.3602288477122783660888671875" lon="-1.06495373882353305816650390625">
        <ele>997.79998779296875</ele>
        <time>2021-09-26T07:39:14.000Z</time>
      </trkpt>
      <trkpt lat="40.360196493566036224365234375" lon="-1.06486857868731021881103515625">
        <ele>998.20001220703125</ele>
        <time>2021-09-26T07:39:16.000Z</time>
      </trkpt>
      <trkpt lat="40.3601688332855701446533203125" lon="-1.0647801496088504791259765625">
        <ele>999</ele>
        <time>2021-09-26T07:39:18.000Z</time>
      </trkpt>
      <trkpt lat="40.36014058627188205718994140625" lon="-1.06469507329165935516357421875">
        <ele>999.5999755859375</ele>
        <time>2021-09-26T07:39:20.000Z</time>
      </trkpt>
      <trkpt lat="40.3601252473890781402587890625" lon="-1.06465333141386508941650390625">
        <ele>999.5999755859375</ele>
        <time>2021-09-26T07:39:21.000Z</time>
      </trkpt>
      <trkpt lat="40.36010923795402050018310546875" lon="-1.0646118409931659698486328125">
        <ele>999.5999755859375</ele>
        <time>2021-09-26T07:39:22.000Z</time>
      </trkpt>
      <trkpt lat="40.3600769676268100738525390625" lon="-1.0645298659801483154296875">
        <ele>999.5999755859375</ele>
        <time>2021-09-26T07:39:24.000Z</time>
      </trkpt>
      <trkpt lat="40.3600410930812358856201171875" lon="-1.06444864533841609954833984375">
        <ele>1000.20001220703125</ele>
        <time>2021-09-26T07:39:26.000Z</time>
      </trkpt>
      <trkpt lat="40.3600099124014377593994140625" lon="-1.06436558067798614501953125">
        <ele>1001.20001220703125</ele>
        <time>2021-09-26T07:39:28.000Z</time>
      </trkpt>
      <trkpt lat="40.35997915081679821014404296875" lon="-1.06428109109401702880859375">
        <ele>1001.5999755859375</ele>
        <time>2021-09-26T07:39:30.000Z</time>
      </trkpt>
      <trkpt lat="40.3599435277283191680908203125" lon="-1.06420154683291912078857421875">
        <ele>1001.4000244140625</ele>
        <time>2021-09-26T07:39:32.000Z</time>
      </trkpt>
      <trkpt lat="40.3599113412201404571533203125" lon="-1.064118482172489166259765625">
        <ele>1001.4000244140625</ele>
        <time>2021-09-26T07:39:34.000Z</time>
      </trkpt>
      <trkpt lat="40.35988309420645236968994140625" lon="-1.0640378482639789581298828125">
        <ele>1001.5999755859375</ele>
        <time>2021-09-26T07:39:36.000Z</time>
      </trkpt>
      <trkpt lat="40.3598523326218128204345703125" lon="-1.06395310722291469573974609375">
        <ele>1001.4000244140625</ele>
        <time>2021-09-26T07:39:38.000Z</time>
      </trkpt>
      <trkpt lat="40.35982710309326648712158203125" lon="-1.0638692043721675872802734375">
        <ele>1001.20001220703125</ele>
        <time>2021-09-26T07:39:40.000Z</time>
      </trkpt>
      <trkpt lat="40.3598040528595447540283203125" lon="-1.0637843795120716094970703125">
        <ele>1001.20001220703125</ele>
        <time>2021-09-26T07:39:42.000Z</time>
      </trkpt>
      <trkpt lat="40.35977832041680812835693359375" lon="-1.06368907727301120758056640625">
        <ele>1000.79998779296875</ele>
        <time>2021-09-26T07:39:44.000Z</time>
      </trkpt>
      <trkpt lat="40.359756946563720703125" lon="-1.06359754689037799835205078125">
        <ele>1000.4000244140625</ele>
        <time>2021-09-26T07:39:46.000Z</time>
      </trkpt>
      <trkpt lat="40.3597354888916015625" lon="-1.06350903399288654327392578125">
        <ele>1000</ele>
        <time>2021-09-26T07:39:48.000Z</time>
      </trkpt>
      <trkpt lat="40.35971327684819698333740234375" lon="-1.06342035345733165740966796875">
        <ele>999.4000244140625</ele>
        <time>2021-09-26T07:39:50.000Z</time>
      </trkpt>
      <trkpt lat="40.359694920480251312255859375" lon="-1.06332781724631786346435546875">
        <ele>999.20001220703125</ele>
        <time>2021-09-26T07:39:52.000Z</time>
      </trkpt>
      <trkpt lat="40.3596751391887664794921875" lon="-1.06323930434882640838623046875">
        <ele>998.79998779296875</ele>
        <time>2021-09-26T07:39:54.000Z</time>
      </trkpt>
      <trkpt lat="40.3596649132668972015380859375" lon="-1.06319320388138294219970703125">
        <ele>998.79998779296875</ele>
        <time>2021-09-26T07:39:55.000Z</time>
      </trkpt>
      <trkpt lat="40.3596575371921062469482421875" lon="-1.063148863613605499267578125">
        <ele>998.79998779296875</ele>
        <time>2021-09-26T07:39:56.000Z</time>
      </trkpt>
      <trkpt lat="40.35964169539511203765869140625" lon="-1.06305875815451145172119140625">
        <ele>999</ele>
        <time>2021-09-26T07:39:58.000Z</time>
      </trkpt>
      <trkpt lat="40.3596337325870990753173828125" lon="-1.06296555139124393463134765625">
        <ele>999.20001220703125</ele>
        <time>2021-09-26T07:40:00.000Z</time>
      </trkpt>
      <trkpt lat="40.35962342284619808197021484375" lon="-1.06287502683699131011962890625">
        <ele>999.5999755859375</ele>
        <time>2021-09-26T07:40:02.000Z</time>
      </trkpt>
      <trkpt lat="40.3596203215420246124267578125" lon="-1.06283001601696014404296875">
        <ele>999.5999755859375</ele>
        <time>2021-09-26T07:40:03.000Z</time>
      </trkpt>
      <trkpt lat="40.359617136418819427490234375" lon="-1.0627829097211360931396484375">
        <ele>999.79998779296875</ele>
        <time>2021-09-26T07:40:04.000Z</time>
      </trkpt>
      <trkpt lat="40.35960816778242588043212890625" lon="-1.06268785893917083740234375">
        <ele>1000</ele>
        <time>2021-09-26T07:40:06.000Z</time>
      </trkpt>
      <trkpt lat="40.3596002049744129180908203125" lon="-1.0625944845378398895263671875">
        <ele>1000.4000244140625</ele>
        <time>2021-09-26T07:40:08.000Z</time>
      </trkpt>
      <trkpt lat="40.35959810949862003326416015625" lon="-1.0624972544610500335693359375">
        <ele>1000.5999755859375</ele>
        <time>2021-09-26T07:40:10.000Z</time>
      </trkpt>
      <trkpt lat="40.35959844477474689483642578125" lon="-1.06244838796555995941162109375">
        <ele>1000.79998779296875</ele>
        <time>2021-09-26T07:40:11.000Z</time>
      </trkpt>
      <trkpt lat="40.359597019851207733154296875" lon="-1.06240262277424335479736328125">
        <ele>1001.20001220703125</ele>
        <time>2021-09-26T07:40:12.000Z</time>
      </trkpt>
      <trkpt lat="40.359597019851207733154296875" lon="-1.0623071528971195220947265625">
        <ele>1001.4000244140625</ele>
        <time>2021-09-26T07:40:14.000Z</time>
      </trkpt>
      <trkpt lat="40.3596015460789203643798828125" lon="-1.0622097551822662353515625">
        <ele>1001.4000244140625</ele>
        <time>2021-09-26T07:40:16.000Z</time>
      </trkpt>
      <trkpt lat="40.3596089221537113189697265625" lon="-1.0621110163629055023193359375">
        <ele>1001.5999755859375</ele>
        <time>2021-09-26T07:40:18.000Z</time>
      </trkpt>
      <trkpt lat="40.35961546003818511962890625" lon="-1.0620112717151641845703125">
        <ele>1002</ele>
        <time>2021-09-26T07:40:20.000Z</time>
      </trkpt>
      <trkpt lat="40.35962124355137348175048828125" lon="-1.0619162209331989288330078125">
        <ele>1002.4000244140625</ele>
        <time>2021-09-26T07:40:22.000Z</time>
      </trkpt>
      <trkpt lat="40.35962509922683238983154296875" lon="-1.06181790120899677276611328125">
        <ele>1002.79998779296875</ele>
        <time>2021-09-26T07:40:24.000Z</time>
      </trkpt>
      <trkpt lat="40.35962996073067188262939453125" lon="-1.0617231018841266632080078125">
        <ele>1003.20001220703125</ele>
        <time>2021-09-26T07:40:26.000Z</time>
      </trkpt>
      <trkpt lat="40.3596349060535430908203125" lon="-1.0616272129118442535400390625">
        <ele>1003.5999755859375</ele>
        <time>2021-09-26T07:40:28.000Z</time>
      </trkpt>
      <trkpt lat="40.35964186303317546844482421875" lon="-1.0615330003201961517333984375">
        <ele>1003.79998779296875</ele>
        <time>2021-09-26T07:40:30.000Z</time>
      </trkpt>
      <trkpt lat="40.359644629061222076416015625" lon="-1.06143602170050144195556640625">
        <ele>1003.79998779296875</ele>
        <time>2021-09-26T07:40:32.000Z</time>
      </trkpt>
      <trkpt lat="40.359652675688266754150390625" lon="-1.061345748603343963623046875">
        <ele>1003.79998779296875</ele>
        <time>2021-09-26T07:40:34.000Z</time>
      </trkpt>
      <trkpt lat="40.3596592135727405548095703125" lon="-1.0612548887729644775390625">
        <ele>1004</ele>
        <time>2021-09-26T07:40:36.000Z</time>
      </trkpt>
      <trkpt lat="40.35966373980045318603515625" lon="-1.0611568205058574676513671875">
        <ele>1004</ele>
        <time>2021-09-26T07:40:38.000Z</time>
      </trkpt>
      <trkpt lat="40.3596675954759120941162109375" lon="-1.06106068007647991180419921875">
        <ele>1004</ele>
        <time>2021-09-26T07:40:40.000Z</time>
      </trkpt>
      <trkpt lat="40.3596719540655612945556640625" lon="-1.06096512638032436370849609375">
        <ele>1004</ele>
        <time>2021-09-26T07:40:42.000Z</time>
      </trkpt>
      <trkpt lat="40.35967371426522731781005859375" lon="-1.06087661348283290863037109375">
        <ele>1004</ele>
        <time>2021-09-26T07:40:44.000Z</time>
      </trkpt>
      <trkpt lat="40.35967891104519367218017578125" lon="-1.06078307144343852996826171875">
        <ele>1004</ele>
        <time>2021-09-26T07:40:46.000Z</time>
      </trkpt>
      <trkpt lat="40.3596843592822551727294921875" lon="-1.06068651191890239715576171875">
        <ele>1004</ele>
        <time>2021-09-26T07:40:48.000Z</time>
      </trkpt>
      <trkpt lat="40.3596917353570461273193359375" lon="-1.0605818219482898712158203125">
        <ele>1004</ele>
        <time>2021-09-26T07:40:50.000Z</time>
      </trkpt>
      <trkpt lat="40.3596954233944416046142578125" lon="-1.0605318658053874969482421875">
        <ele>1004</ele>
        <time>2021-09-26T07:40:51.000Z</time>
      </trkpt>
      <trkpt lat="40.35969885997474193572998046875" lon="-1.06048098765313625335693359375">
        <ele>1004.20001220703125</ele>
        <time>2021-09-26T07:40:52.000Z</time>
      </trkpt>
      <trkpt lat="40.3597014583647251129150390625" lon="-1.0603845119476318359375">
        <ele>1004</ele>
        <time>2021-09-26T07:40:54.000Z</time>
      </trkpt>
      <trkpt lat="40.35970472730696201324462890625" lon="-1.06028049252927303314208984375">
        <ele>1004</ele>
        <time>2021-09-26T07:40:56.000Z</time>
      </trkpt>
      <trkpt lat="40.359709002077579498291015625" lon="-1.06018024496734142303466796875">
        <ele>1004</ele>
        <time>2021-09-26T07:40:58.000Z</time>
      </trkpt>
      <trkpt lat="40.359711684286594390869140625" lon="-1.0600872896611690521240234375">
        <ele>1004.4000244140625</ele>
        <time>2021-09-26T07:41:00.000Z</time>
      </trkpt>
      <trkpt lat="40.35971604287624359130859375" lon="-1.05998947285115718841552734375">
        <ele>1004.79998779296875</ele>
        <time>2021-09-26T07:41:02.000Z</time>
      </trkpt>
      <trkpt lat="40.3597178868949413299560546875" lon="-1.059891320765018463134765625">
        <ele>1005</ele>
        <time>2021-09-26T07:41:04.000Z</time>
      </trkpt>
      <trkpt lat="40.3597219102084636688232421875" lon="-1.05979803018271923065185546875">
        <ele>1005.79998779296875</ele>
        <time>2021-09-26T07:41:06.000Z</time>
      </trkpt>
      <trkpt lat="40.35972752608358860015869140625" lon="-1.05971002019941806793212890625">
        <ele>1006.4000244140625</ele>
        <time>2021-09-26T07:41:08.000Z</time>
      </trkpt>
      <trkpt lat="40.35973473452031612396240234375" lon="-1.05961429886519908905029296875">
        <ele>1007</ele>
        <time>2021-09-26T07:41:10.000Z</time>
      </trkpt>
      <trkpt lat="40.35974278114736080169677734375" lon="-1.05952092446386814117431640625">
        <ele>1007.20001220703125</ele>
        <time>2021-09-26T07:41:12.000Z</time>
      </trkpt>
      <trkpt lat="40.3597475588321685791015625" lon="-1.05942637659609317779541015625">
        <ele>1007.5999755859375</ele>
        <time>2021-09-26T07:41:14.000Z</time>
      </trkpt>
      <trkpt lat="40.359748564660549163818359375" lon="-1.05933367274701595306396484375">
        <ele>1008</ele>
        <time>2021-09-26T07:41:16.000Z</time>
      </trkpt>
      <trkpt lat="40.35975250415503978729248046875" lon="-1.059236861765384674072265625">
        <ele>1007.5999755859375</ele>
        <time>2021-09-26T07:41:18.000Z</time>
      </trkpt>
      <trkpt lat="40.35975853912532329559326171875" lon="-1.05914122425019741058349609375">
        <ele>1007</ele>
        <time>2021-09-26T07:41:20.000Z</time>
      </trkpt>
      <trkpt lat="40.3597638197243213653564453125" lon="-1.0590422339737415313720703125">
        <ele>1006.20001220703125</ele>
        <time>2021-09-26T07:41:22.000Z</time>
      </trkpt>
      <trkpt lat="40.3597690165042877197265625" lon="-1.0589443333446979522705078125">
        <ele>1005.5999755859375</ele>
        <time>2021-09-26T07:41:24.000Z</time>
      </trkpt>
      <trkpt lat="40.359772033989429473876953125" lon="-1.05885372497141361236572265625">
        <ele>1005.4000244140625</ele>
        <time>2021-09-26T07:41:26.000Z</time>
      </trkpt>
      <trkpt lat="40.3597718663513660430908203125" lon="-1.05880544520914554595947265625">
        <ele>1005.20001220703125</ele>
        <time>2021-09-26T07:41:27.000Z</time>
      </trkpt>
      <trkpt lat="40.3597711957991123199462890625" lon="-1.058757416903972625732421875">
        <ele>1005</ele>
        <time>2021-09-26T07:41:28.000Z</time>
      </trkpt>
      <trkpt lat="40.35976775921881198883056640625" lon="-1.05865976773202419281005859375">
        <ele>1005</ele>
        <time>2021-09-26T07:41:30.000Z</time>
      </trkpt>
      <trkpt lat="40.3597628138959407806396484375" lon="-1.0585658065974712371826171875">
        <ele>1005</ele>
        <time>2021-09-26T07:41:32.000Z</time>
      </trkpt>
      <trkpt lat="40.3597527556121349334716796875" lon="-1.05847201310098171234130859375">
        <ele>1005</ele>
        <time>2021-09-26T07:41:34.000Z</time>
      </trkpt>
      <trkpt lat="40.3597467206418514251708984375" lon="-1.05836975388228893280029296875">
        <ele>1005.20001220703125</ele>
        <time>2021-09-26T07:41:36.000Z</time>
      </trkpt>
      <trkpt lat="40.35973574034869670867919921875" lon="-1.05827587656676769256591796875">
        <ele>1005.20001220703125</ele>
        <time>2021-09-26T07:41:38.000Z</time>
      </trkpt>
      <trkpt lat="40.35972551442682743072509765625" lon="-1.05817730538547039031982421875">
        <ele>1005.20001220703125</ele>
        <time>2021-09-26T07:41:40.000Z</time>
      </trkpt>
      <trkpt lat="40.35971193574368953704833984375" lon="-1.05808627791702747344970703125">
        <ele>1005.79998779296875</ele>
        <time>2021-09-26T07:41:42.000Z</time>
      </trkpt>
      <trkpt lat="40.35969835706055164337158203125" lon="-1.0579934902489185333251953125">
        <ele>1006.5999755859375</ele>
        <time>2021-09-26T07:41:44.000Z</time>
      </trkpt>
      <trkpt lat="40.359681509435176849365234375" lon="-1.0579083301126956939697265625">
        <ele>1007</ele>
        <time>2021-09-26T07:41:46.000Z</time>
      </trkpt>
      <trkpt lat="40.35966801457107067108154296875" lon="-1.057820655405521392822265625">
        <ele>1006.79998779296875</ele>
        <time>2021-09-26T07:41:48.000Z</time>
      </trkpt>
      <trkpt lat="40.35965125076472759246826171875" lon="-1.05772803537547588348388671875">
        <ele>1006.5999755859375</ele>
        <time>2021-09-26T07:41:50.000Z</time>
      </trkpt>
      <trkpt lat="40.35963356494903564453125" lon="-1.057636924088001251220703125">
        <ele>1006.79998779296875</ele>
        <time>2021-09-26T07:41:52.000Z</time>
      </trkpt>
      <trkpt lat="40.35961470566689968109130859375" lon="-1.0575373470783233642578125">
        <ele>1007</ele>
        <time>2021-09-26T07:41:54.000Z</time>
      </trkpt>
      <trkpt lat="40.3595908172428607940673828125" lon="-1.05744472704827785491943359375">
        <ele>1007</ele>
        <time>2021-09-26T07:41:56.000Z</time>
      </trkpt>
      <trkpt lat="40.3595653362572193145751953125" lon="-1.05735420249402523040771484375">
        <ele>1007.20001220703125</ele>
        <time>2021-09-26T07:41:58.000Z</time>
      </trkpt>
      <trkpt lat="40.35953910090029239654541015625" lon="-1.0572635941207408905029296875">
        <ele>1007</ele>
        <time>2021-09-26T07:42:00.000Z</time>
      </trkpt>
      <trkpt lat="40.359511859714984893798828125" lon="-1.05717365629971027374267578125">
        <ele>1007.20001220703125</ele>
        <time>2021-09-26T07:42:02.000Z</time>
      </trkpt>
      <trkpt lat="40.35948847420513629913330078125" lon="-1.05707810260355472564697265625">
        <ele>1007.20001220703125</ele>
        <time>2021-09-26T07:42:04.000Z</time>
      </trkpt>
      <trkpt lat="40.359454862773418426513671875" lon="-1.05698908679187297821044921875">
        <ele>1007.20001220703125</ele>
        <time>2021-09-26T07:42:06.000Z</time>
      </trkpt>
      <trkpt lat="40.359422676265239715576171875" lon="-1.05690074153244495391845703125">
        <ele>1007</ele>
        <time>2021-09-26T07:42:08.000Z</time>
      </trkpt>
      <trkpt lat="40.3593889810144901275634765625" lon="-1.0568139888346195220947265625">
        <ele>1007</ele>
        <time>2021-09-26T07:42:10.000Z</time>
      </trkpt>
      <trkpt lat="40.3593567945063114166259765625" lon="-1.05672840960323810577392578125">
        <ele>1007</ele>
        <time>2021-09-26T07:42:12.000Z</time>
      </trkpt>
      <trkpt lat="40.3593249432742595672607421875" lon="-1.05664174072444438934326171875">
        <ele>1007</ele>
        <time>2021-09-26T07:42:14.000Z</time>
      </trkpt>
      <trkpt lat="40.3593076765537261962890625" lon="-1.0566012561321258544921875">
        <ele>1007</ele>
        <time>2021-09-26T07:42:15.000Z</time>
      </trkpt>
      <trkpt lat="40.35929049365222454071044921875" lon="-1.0565598495304584503173828125">
        <ele>1007.20001220703125</ele>
        <time>2021-09-26T07:42:16.000Z</time>
      </trkpt>
      <trkpt lat="40.35925277508795261383056640625" lon="-1.05647762306034564971923828125">
        <ele>1007.20001220703125</ele>
        <time>2021-09-26T07:42:18.000Z</time>
      </trkpt>
      <trkpt lat="40.3592111170291900634765625" lon="-1.0563995875418186187744140625">
        <ele>1007.20001220703125</ele>
        <time>2021-09-26T07:42:20.000Z</time>
      </trkpt>
      <trkpt lat="40.3591707162559032440185546875" lon="-1.0563177801668643951416015625">
        <ele>1007.20001220703125</ele>
        <time>2021-09-26T07:42:22.000Z</time>
      </trkpt>
      <trkpt lat="40.359150432050228118896484375" lon="-1.05628165416419506072998046875">
        <ele>1007.20001220703125</ele>
        <time>2021-09-26T07:42:23.000Z</time>
      </trkpt>
      <trkpt lat="40.3591288067400455474853515625" lon="-1.05624653398990631103515625">
        <ele>1007</ele>
        <time>2021-09-26T07:42:24.000Z</time>
      </trkpt>
      <trkpt lat="40.3590823709964752197265625" lon="-1.05617201887071132659912109375">
        <ele>1007.20001220703125</ele>
        <time>2021-09-26T07:42:26.000Z</time>
      </trkpt>
      <trkpt lat="40.35903870128095149993896484375" lon="-1.056093312799930572509765625">
        <ele>1007.4000244140625</ele>
        <time>2021-09-26T07:42:28.000Z</time>
      </trkpt>
      <trkpt lat="40.3589983843266963958740234375" lon="-1.0560167022049427032470703125">
        <ele>1007.4000244140625</ele>
        <time>2021-09-26T07:42:30.000Z</time>
      </trkpt>
      <trkpt lat="40.35895354114472866058349609375" lon="-1.05594285763800144195556640625">
        <ele>1007.20001220703125</ele>
        <time>2021-09-26T07:42:32.000Z</time>
      </trkpt>
      <trkpt lat="40.3589080274105072021484375" lon="-1.05586322955787181854248046875">
        <ele>1007</ele>
        <time>2021-09-26T07:42:34.000Z</time>
      </trkpt>
      <trkpt lat="40.35886217840015888214111328125" lon="-1.05579097755253314971923828125">
        <ele>1007</ele>
        <time>2021-09-26T07:42:36.000Z</time>
      </trkpt>
      <trkpt lat="40.358817838132381439208984375" lon="-1.0557152889668941497802734375">
        <ele>1007</ele>
        <time>2021-09-26T07:42:38.000Z</time>
      </trkpt>
      <trkpt lat="40.35879881121218204498291015625" lon="-1.0556780733168125152587890625">
        <ele>1007.20001220703125</ele>
        <time>2021-09-26T07:42:39.000Z</time>
      </trkpt>
      <trkpt lat="40.3587781079113483428955078125" lon="-1.0556415282189846038818359375">
        <ele>1007.20001220703125</ele>
        <time>2021-09-26T07:42:40.000Z</time>
      </trkpt>
      <trkpt lat="40.358736030757427215576171875" lon="-1.05557388626039028167724609375">
        <ele>1007.4000244140625</ele>
        <time>2021-09-26T07:42:42.000Z</time>
      </trkpt>
      <trkpt lat="40.3586946241557598114013671875" lon="-1.05550892651081085205078125">
        <ele>1007.5999755859375</ele>
        <time>2021-09-26T07:42:44.000Z</time>
      </trkpt>
      <trkpt lat="40.35864843986928462982177734375" lon="-1.05544044636189937591552734375">
        <ele>1007.79998779296875</ele>
        <time>2021-09-26T07:42:46.000Z</time>
      </trkpt>
      <trkpt lat="40.3586258925497531890869140625" lon="-1.0554064996540546417236328125">
        <ele>1007.79998779296875</ele>
        <time>2021-09-26T07:42:47.000Z</time>
      </trkpt>
      <trkpt lat="40.3586037643253803253173828125" lon="-1.055371128022670745849609375">
        <ele>1007.79998779296875</ele>
        <time>2021-09-26T07:42:48.000Z</time>
      </trkpt>
      <trkpt lat="40.3585598431527614593505859375" lon="-1.05530331842601299285888671875">
        <ele>1008</ele>
        <time>2021-09-26T07:42:50.000Z</time>
      </trkpt>
      <trkpt lat="40.358518771827220916748046875" lon="-1.0552321560680866241455078125">
        <ele>1008.4000244140625</ele>
        <time>2021-09-26T07:42:52.000Z</time>
      </trkpt>
      <trkpt lat="40.35847761668264865875244140625" lon="-1.05515713803470134735107421875">
        <ele>1008.5999755859375</ele>
        <time>2021-09-26T07:42:54.000Z</time>
      </trkpt>
      <trkpt lat="40.358436964452266693115234375" lon="-1.05507935397326946258544921875">
        <ele>1009</ele>
        <time>2021-09-26T07:42:56.000Z</time>
      </trkpt>
      <trkpt lat="40.3583942167460918426513671875" lon="-1.05500257574021816253662109375">
        <ele>1009.4000244140625</ele>
        <time>2021-09-26T07:42:58.000Z</time>
      </trkpt>
      <trkpt lat="40.35834937356412410736083984375" lon="-1.0549277253448963165283203125">
        <ele>1010.20001220703125</ele>
        <time>2021-09-26T07:43:00.000Z</time>
      </trkpt>
      <trkpt lat="40.35830662585794925689697265625" lon="-1.054846756160259246826171875">
        <ele>1011</ele>
        <time>2021-09-26T07:43:02.000Z</time>
      </trkpt>
      <trkpt lat="40.35826002247631549835205078125" lon="-1.05477207340300083160400390625">
        <ele>1011.4000244140625</ele>
        <time>2021-09-26T07:43:04.000Z</time>
      </trkpt>
      <trkpt lat="40.35823940299451351165771484375" lon="-1.054734773933887481689453125">
        <ele>1011.5999755859375</ele>
        <time>2021-09-26T07:43:05.000Z</time>
      </trkpt>
      <trkpt lat="40.3582188673317432403564453125" lon="-1.05470082722604274749755859375">
        <ele>1011.79998779296875</ele>
        <time>2021-09-26T07:43:06.000Z</time>
      </trkpt>
      <trkpt lat="40.3581736050546169281005859375" lon="-1.054623462259769439697265625">
        <ele>1012.5999755859375</ele>
        <time>2021-09-26T07:43:08.000Z</time>
      </trkpt>
      <trkpt lat="40.358127839863300323486328125" lon="-1.05455028824508190155029296875">
        <ele>1013.79998779296875</ele>
        <time>2021-09-26T07:43:10.000Z</time>
      </trkpt>
      <trkpt lat="40.3580901212990283966064453125" lon="-1.0544787906110286712646484375">
        <ele>1014.4000244140625</ele>
        <time>2021-09-26T07:43:12.000Z</time>
      </trkpt>
      <trkpt lat="40.3580684959888458251953125" lon="-1.05444249697029590606689453125">
        <ele>1014.5999755859375</ele>
        <time>2021-09-26T07:43:13.000Z</time>
      </trkpt>
      <trkpt lat="40.35804745741188526153564453125" lon="-1.054407544434070587158203125">
        <ele>1014.79998779296875</ele>
        <time>2021-09-26T07:43:14.000Z</time>
      </trkpt>
      <trkpt lat="40.35800479352474212646484375" lon="-1.05433688499033451080322265625">
        <ele>1015</ele>
        <time>2021-09-26T07:43:16.000Z</time>
      </trkpt>
      <trkpt lat="40.35796464420855045318603515625" lon="-1.054266057908535003662109375">
        <ele>1015.20001220703125</ele>
        <time>2021-09-26T07:43:18.000Z</time>
      </trkpt>
      <trkpt lat="40.35792491398751735687255859375" lon="-1.05418969877064228057861328125">
        <ele>1015.4000244140625</ele>
        <time>2021-09-26T07:43:20.000Z</time>
      </trkpt>
      <trkpt lat="40.357903875410556793212890625" lon="-1.0541539080440998077392578125">
        <ele>1015.4000244140625</ele>
        <time>2021-09-26T07:43:21.000Z</time>
      </trkpt>
      <trkpt lat="40.35788476467132568359375" lon="-1.05411778204143047332763671875">
        <ele>1015.4000244140625</ele>
        <time>2021-09-26T07:43:22.000Z</time>
      </trkpt>
      <trkpt lat="40.357844531536102294921875" lon="-1.05405005626380443572998046875">
        <ele>1015.5999755859375</ele>
        <time>2021-09-26T07:43:24.000Z</time>
      </trkpt>
      <trkpt lat="40.3578014485538005828857421875" lon="-1.05398333631455898284912109375">
        <ele>1016</ele>
        <time>2021-09-26T07:43:26.000Z</time>
      </trkpt>
      <trkpt lat="40.35777923651039600372314453125" lon="-1.05394880287349224090576171875">
        <ele>1016.20001220703125</ele>
        <time>2021-09-26T07:43:27.000Z</time>
      </trkpt>
      <trkpt lat="40.3577578626573085784912109375" lon="-1.0539108328521251678466796875">
        <ele>1016.4000244140625</ele>
        <time>2021-09-26T07:43:28.000Z</time>
      </trkpt>
      <trkpt lat="40.3577122651040554046630859375" lon="-1.05383631773293018341064453125">
        <ele>1016.79998779296875</ele>
        <time>2021-09-26T07:43:30.000Z</time>
      </trkpt>
      <trkpt lat="40.3576683439314365386962890625" lon="-1.05376414954662322998046875">
        <ele>1017</ele>
        <time>2021-09-26T07:43:32.000Z</time>
      </trkpt>
      <trkpt lat="40.357624255120754241943359375" lon="-1.05369131080806255340576171875">
        <ele>1017.20001220703125</ele>
        <time>2021-09-26T07:43:34.000Z</time>
      </trkpt>
      <trkpt lat="40.35757966339588165283203125" lon="-1.05362039990723133087158203125">
        <ele>1017.5999755859375</ele>
        <time>2021-09-26T07:43:36.000Z</time>
      </trkpt>
      <trkpt lat="40.35753398202359676361083984375" lon="-1.0535473935306072235107421875">
        <ele>1017.79998779296875</ele>
        <time>2021-09-26T07:43:38.000Z</time>
      </trkpt>
      <trkpt lat="40.35748578608036041259765625" lon="-1.05346265248954296112060546875">
        <ele>1018</ele>
        <time>2021-09-26T07:43:40.000Z</time>
      </trkpt>
      <trkpt lat="40.35743608139455318450927734375" lon="-1.053390987217426300048828125">
        <ele>1018.4000244140625</ele>
        <time>2021-09-26T07:43:42.000Z</time>
      </trkpt>
      <trkpt lat="40.3573952615261077880859375" lon="-1.05332016013562679290771484375">
        <ele>1018.5999755859375</ele>
        <time>2021-09-26T07:43:44.000Z</time>
      </trkpt>
      <trkpt lat="40.35737355239689350128173828125" lon="-1.05328327976167201995849609375">
        <ele>1018.79998779296875</ele>
        <time>2021-09-26T07:43:45.000Z</time>
      </trkpt>
      <trkpt lat="40.357350669801235198974609375" lon="-1.05325126089155673980712890625">
        <ele>1019</ele>
        <time>2021-09-26T07:43:46.000Z</time>
      </trkpt>
      <trkpt lat="40.35731001757085323333740234375" lon="-1.0531809367239475250244140625">
        <ele>1019.5999755859375</ele>
        <time>2021-09-26T07:43:48.000Z</time>
      </trkpt>
      <trkpt lat="40.3572710417211055755615234375" lon="-1.05310625396668910980224609375">
        <ele>1019.5999755859375</ele>
        <time>2021-09-26T07:43:50.000Z</time>
      </trkpt>
      <trkpt lat="40.3572254441678524017333984375" lon="-1.05304020456969738006591796875">
        <ele>1019.79998779296875</ele>
        <time>2021-09-26T07:43:52.000Z</time>
      </trkpt>
      <trkpt lat="40.3571992926299571990966796875" lon="-1.0530045814812183380126953125">
        <ele>1020</ele>
        <time>2021-09-26T07:43:53.000Z</time>
      </trkpt>
      <trkpt lat="40.35717674531042575836181640625" lon="-1.05296610854566097259521484375">
        <ele>1020</ele>
        <time>2021-09-26T07:43:54.000Z</time>
      </trkpt>
      <trkpt lat="40.35713098011910915374755859375" lon="-1.05288933031260967254638671875">
        <ele>1020.20001220703125</ele>
        <time>2021-09-26T07:43:56.000Z</time>
      </trkpt>
      <trkpt lat="40.35708789713680744171142578125" lon="-1.05281020514667034149169921875">
        <ele>1020.4000244140625</ele>
        <time>2021-09-26T07:43:58.000Z</time>
      </trkpt>
      <trkpt lat="40.35704229958355426788330078125" lon="-1.05273493565618991851806640625">
        <ele>1020.5999755859375</ele>
        <time>2021-09-26T07:44:00.000Z</time>
      </trkpt>
      <trkpt lat="40.35699603147804737091064453125" lon="-1.052666790783405303955078125">
        <ele>1020.5999755859375</ele>
        <time>2021-09-26T07:44:02.000Z</time>
      </trkpt>
      <trkpt lat="40.35697348415851593017578125" lon="-1.0526294074952602386474609375">
        <ele>1020.5999755859375</ele>
        <time>2021-09-26T07:44:03.000Z</time>
      </trkpt>
      <trkpt lat="40.35695110447704792022705078125" lon="-1.05259261094033718109130859375">
        <ele>1020.5999755859375</ele>
        <time>2021-09-26T07:44:04.000Z</time>
      </trkpt>
      <trkpt lat="40.35690383054316043853759765625" lon="-1.05251700617372989654541015625">
        <ele>1020.5999755859375</ele>
        <time>2021-09-26T07:44:06.000Z</time>
      </trkpt>
      <trkpt lat="40.35685923881828784942626953125" lon="-1.05244391597807407379150390625">
        <ele>1020.4000244140625</ele>
        <time>2021-09-26T07:44:08.000Z</time>
      </trkpt>
      <trkpt lat="40.35681389272212982177734375" lon="-1.0523714125156402587890625">
        <ele>1020</ele>
        <time>2021-09-26T07:44:10.000Z</time>
      </trkpt>
      <trkpt lat="40.3567714802920818328857421875" lon="-1.0522988252341747283935546875">
        <ele>1019.4000244140625</ele>
        <time>2021-09-26T07:44:12.000Z</time>
      </trkpt>
      <trkpt lat="40.35673233680427074432373046875" lon="-1.05222146026790142059326171875">
        <ele>1018.79998779296875</ele>
        <time>2021-09-26T07:44:14.000Z</time>
      </trkpt>
      <trkpt lat="40.3566926904022693634033203125" lon="-1.05215080082416534423828125">
        <ele>1018.4000244140625</ele>
        <time>2021-09-26T07:44:16.000Z</time>
      </trkpt>
      <trkpt lat="40.35665824078023433685302734375" lon="-1.05208248831331729888916015625">
        <ele>1018</ele>
        <time>2021-09-26T07:44:18.000Z</time>
      </trkpt>
      <trkpt lat="40.356622450053691864013671875" lon="-1.05201258324086666107177734375">
        <ele>1018</ele>
        <time>2021-09-26T07:44:20.000Z</time>
      </trkpt>
      <trkpt lat="40.356590934097766876220703125" lon="-1.051937900483608245849609375">
        <ele>1018.20001220703125</ele>
        <time>2021-09-26T07:44:22.000Z</time>
      </trkpt>
      <trkpt lat="40.3565612621605396270751953125" lon="-1.05186237953603267669677734375">
        <ele>1018.20001220703125</ele>
        <time>2021-09-26T07:44:24.000Z</time>
      </trkpt>
      <trkpt lat="40.35652689635753631591796875" lon="-1.0517878644168376922607421875">
        <ele>1018.5999755859375</ele>
        <time>2021-09-26T07:44:26.000Z</time>
      </trkpt>
      <trkpt lat="40.35650585778057575225830078125" lon="-1.05170832015573978424072265625">
        <ele>1019.20001220703125</ele>
        <time>2021-09-26T07:44:28.000Z</time>
      </trkpt>
      <trkpt lat="40.35648540593683719635009765625" lon="-1.05163539759814739227294921875">
        <ele>1019.5999755859375</ele>
        <time>2021-09-26T07:44:30.000Z</time>
      </trkpt>
      <trkpt lat="40.35646026022732257843017578125" lon="-1.05156431905925273895263671875">
        <ele>1020</ele>
        <time>2021-09-26T07:44:32.000Z</time>
      </trkpt>
      <trkpt lat="40.35643444396555423736572265625" lon="-1.0514996945858001708984375">
        <ele>1020.4000244140625</ele>
        <time>2021-09-26T07:44:34.000Z</time>
      </trkpt>
      <trkpt lat="40.35641231574118137359619140625" lon="-1.05143825523555278778076171875">
        <ele>1020.79998779296875</ele>
        <time>2021-09-26T07:44:36.000Z</time>
      </trkpt>
      <trkpt lat="40.35638867877423763275146484375" lon="-1.0513727925717830657958984375">
        <ele>1021.20001220703125</ele>
        <time>2021-09-26T07:44:38.000Z</time>
      </trkpt>
      <trkpt lat="40.35637610591948032379150390625" lon="-1.05133985169231891632080078125">
        <ele>1021.4000244140625</ele>
        <time>2021-09-26T07:44:39.000Z</time>
      </trkpt>
      <trkpt lat="40.3563626110553741455078125" lon="-1.05130414478480815887451171875">
        <ele>1021.79998779296875</ele>
        <time>2021-09-26T07:44:40.000Z</time>
      </trkpt>
      <trkpt lat="40.35633905790746212005615234375" lon="-1.05123817920684814453125">
        <ele>1022.20001220703125</ele>
        <time>2021-09-26T07:44:42.000Z</time>
      </trkpt>
      <trkpt lat="40.35631709732115268707275390625" lon="-1.05117489583790302276611328125">
        <ele>1022.79998779296875</ele>
        <time>2021-09-26T07:44:44.000Z</time>
      </trkpt>
      <trkpt lat="40.35629312507808208465576171875" lon="-1.0511065833270549774169921875">
        <ele>1023.4000244140625</ele>
        <time>2021-09-26T07:44:46.000Z</time>
      </trkpt>
      <trkpt lat="40.356269739568233489990234375" lon="-1.05104430578649044036865234375">
        <ele>1024</ele>
        <time>2021-09-26T07:44:48.000Z</time>
      </trkpt>
      <trkpt lat="40.3562450967729091644287109375" lon="-1.05098781175911426544189453125">
        <ele>1024.800048828125</ele>
        <time>2021-09-26T07:44:50.000Z</time>
      </trkpt>
      <trkpt lat="40.35622556693851947784423828125" lon="-1.0509245283901691436767578125">
        <ele>1025.5999755859375</ele>
        <time>2021-09-26T07:44:52.000Z</time>
      </trkpt>
      <trkpt lat="40.35620410926640033721923828125" lon="-1.0508635081350803375244140625">
        <ele>1026.4000244140625</ele>
        <time>2021-09-26T07:44:54.000Z</time>
      </trkpt>
      <trkpt lat="40.356192626059055328369140625" lon="-1.0508358478546142578125">
        <ele>1026.5999755859375</ele>
        <time>2021-09-26T07:44:55.000Z</time>
      </trkpt>
      <trkpt lat="40.356181561946868896484375" lon="-1.050803326070308685302734375">
        <ele>1026.5999755859375</ele>
        <time>2021-09-26T07:44:56.000Z</time>
      </trkpt>
      <trkpt lat="40.35615943372249603271484375" lon="-1.0507475025951862335205078125">
        <ele>1026.800048828125</ele>
        <time>2021-09-26T07:44:58.000Z</time>
      </trkpt>
      <trkpt lat="40.3561388142406940460205078125" lon="-1.05069293640553951263427734375">
        <ele>1027</ele>
        <time>2021-09-26T07:45:00.000Z</time>
      </trkpt>
      <trkpt lat="40.35611878149211406707763671875" lon="-1.050635017454624176025390625">
        <ele>1027</ele>
        <time>2021-09-26T07:45:02.000Z</time>
      </trkpt>
      <trkpt lat="40.356094725430011749267578125" lon="-1.0505818761885166168212890625">
        <ele>1027</ele>
        <time>2021-09-26T07:45:04.000Z</time>
      </trkpt>
      <trkpt lat="40.35607083700597286224365234375" lon="-1.050527393817901611328125">
        <ele>1027</ele>
        <time>2021-09-26T07:45:06.000Z</time>
      </trkpt>
      <trkpt lat="40.35604820586740970611572265625" lon="-1.05047534219920635223388671875">
        <ele>1027.199951171875</ele>
        <time>2021-09-26T07:45:08.000Z</time>
      </trkpt>
      <trkpt lat="40.35602440126240253448486328125" lon="-1.05042278766632080078125">
        <ele>1027.199951171875</ele>
        <time>2021-09-26T07:45:10.000Z</time>
      </trkpt>
      <trkpt lat="40.3560026921331882476806640625" lon="-1.05036386288702487945556640625">
        <ele>1027.199951171875</ele>
        <time>2021-09-26T07:45:12.000Z</time>
      </trkpt>
      <trkpt lat="40.35597360692918300628662109375" lon="-1.050309799611568450927734375">
        <ele>1027.4000244140625</ele>
        <time>2021-09-26T07:45:14.000Z</time>
      </trkpt>
      <trkpt lat="40.355943180620670318603515625" lon="-1.050264537334442138671875">
        <ele>1027.5999755859375</ele>
        <time>2021-09-26T07:45:16.000Z</time>
      </trkpt>
      <trkpt lat="40.35591292195022106170654296875" lon="-1.050216592848300933837890625">
        <ele>1028</ele>
        <time>2021-09-26T07:45:18.000Z</time>
      </trkpt>
      <trkpt lat="40.35587654449045658111572265625" lon="-1.050168313086032867431640625">
        <ele>1028.4000244140625</ele>
        <time>2021-09-26T07:45:20.000Z</time>
      </trkpt>
      <trkpt lat="40.35584628582000732421875" lon="-1.05011693201959133148193359375">
        <ele>1028.800048828125</ele>
        <time>2021-09-26T07:45:22.000Z</time>
      </trkpt>
      <trkpt lat="40.35580982454121112823486328125" lon="-1.05007083155214786529541015625">
        <ele>1029.4000244140625</ele>
        <time>2021-09-26T07:45:24.000Z</time>
      </trkpt>
      <trkpt lat="40.3557740338146686553955078125" lon="-1.05002338998019695281982421875">
        <ele>1029.800048828125</ele>
        <time>2021-09-26T07:45:26.000Z</time>
      </trkpt>
      <trkpt lat="40.3557344712316989898681640625" lon="-1.049971841275691986083984375">
        <ele>1030</ele>
        <time>2021-09-26T07:45:28.000Z</time>
      </trkpt>
      <trkpt lat="40.3556975908577442169189453125" lon="-1.0499220527708530426025390625">
        <ele>1030.199951171875</ele>
        <time>2021-09-26T07:45:30.000Z</time>
      </trkpt>
      <trkpt lat="40.35565995611250400543212890625" lon="-1.049872934818267822265625">
        <ele>1030</ele>
        <time>2021-09-26T07:45:32.000Z</time>
      </trkpt>
      <trkpt lat="40.355619303882122039794921875" lon="-1.0498268343508243560791015625">
        <ele>1030</ele>
        <time>2021-09-26T07:45:34.000Z</time>
      </trkpt>
      <trkpt lat="40.3555809147655963897705078125" lon="-1.04978299699723720550537109375">
        <ele>1029.800048828125</ele>
        <time>2021-09-26T07:45:36.000Z</time>
      </trkpt>
      <trkpt lat="40.35554210655391216278076171875" lon="-1.0497383214533329010009765625">
        <ele>1030</ele>
        <time>2021-09-26T07:45:38.000Z</time>
      </trkpt>
      <trkpt lat="40.35550497472286224365234375" lon="-1.04969196952879428863525390625">
        <ele>1030.199951171875</ele>
        <time>2021-09-26T07:45:40.000Z</time>
      </trkpt>
      <trkpt lat="40.3554649092257022857666015625" lon="-1.049645952880382537841796875">
        <ele>1030.199951171875</ele>
        <time>2021-09-26T07:45:42.000Z</time>
      </trkpt>
      <trkpt lat="40.35542610101401805877685546875" lon="-1.04959976859390735626220703125">
        <ele>1030</ele>
        <time>2021-09-26T07:45:44.000Z</time>
      </trkpt>
      <trkpt lat="40.3553908132016658782958984375" lon="-1.0495529137551784515380859375">
        <ele>1030</ele>
        <time>2021-09-26T07:45:46.000Z</time>
      </trkpt>
      <trkpt lat="40.355356447398662567138671875" lon="-1.04950220324099063873291015625">
        <ele>1030</ele>
        <time>2021-09-26T07:45:48.000Z</time>
      </trkpt>
      <trkpt lat="40.355318896472454071044921875" lon="-1.04945140890777111053466796875">
        <ele>1030.199951171875</ele>
        <time>2021-09-26T07:45:50.000Z</time>
      </trkpt>
      <trkpt lat="40.35528344102203845977783203125" lon="-1.04940044693648815155029296875">
        <ele>1030.4000244140625</ele>
        <time>2021-09-26T07:45:52.000Z</time>
      </trkpt>
      <trkpt lat="40.35525527782738208770751953125" lon="-1.04933892376720905303955078125">
        <ele>1031</ele>
        <time>2021-09-26T07:45:54.000Z</time>
      </trkpt>
      <trkpt lat="40.35523465834558010101318359375" lon="-1.0492707788944244384765625">
        <ele>1031.4000244140625</ele>
        <time>2021-09-26T07:45:56.000Z</time>
      </trkpt>
      <trkpt lat="40.3552186489105224609375" lon="-1.049203388392925262451171875">
        <ele>1031.800048828125</ele>
        <time>2021-09-26T07:45:58.000Z</time>
      </trkpt>
      <trkpt lat="40.3552144579589366912841796875" lon="-1.04916675947606563568115234375">
        <ele>1032</ele>
        <time>2021-09-26T07:45:59.000Z</time>
      </trkpt>
      <trkpt lat="40.3552154637873172760009765625" lon="-1.0491321422159671783447265625">
        <ele>1032.4000244140625</ele>
        <time>2021-09-26T07:46:00.000Z</time>
      </trkpt>
      <trkpt lat="40.355226360261440277099609375" lon="-1.0490593872964382171630859375">
        <ele>1032.800048828125</ele>
        <time>2021-09-26T07:46:02.000Z</time>
      </trkpt>
      <trkpt lat="40.35525544546544551849365234375" lon="-1.04899174533784389495849609375">
        <ele>1033.4000244140625</ele>
        <time>2021-09-26T07:46:04.000Z</time>
      </trkpt>
      <trkpt lat="40.3552888892590999603271484375" lon="-1.0489261150360107421875">
        <ele>1033.800048828125</ele>
        <time>2021-09-26T07:46:06.000Z</time>
      </trkpt>
      <trkpt lat="40.35532183013856410980224609375" lon="-1.04887272231280803680419921875">
        <ele>1034.199951171875</ele>
        <time>2021-09-26T07:46:08.000Z</time>
      </trkpt>
      <trkpt lat="40.3553556092083454132080078125" lon="-1.04881547391414642333984375">
        <ele>1034.5999755859375</ele>
        <time>2021-09-26T07:46:10.000Z</time>
      </trkpt>
      <trkpt lat="40.35539366304874420166015625" lon="-1.0487544536590576171875">
        <ele>1035</ele>
        <time>2021-09-26T07:46:12.000Z</time>
      </trkpt>
      <trkpt lat="40.355431549251079559326171875" lon="-1.048693098127841949462890625">
        <ele>1034.800048828125</ele>
        <time>2021-09-26T07:46:14.000Z</time>
      </trkpt>
      <trkpt lat="40.35546465776860713958740234375" lon="-1.04863601736724376678466796875">
        <ele>1034.800048828125</ele>
        <time>2021-09-26T07:46:16.000Z</time>
      </trkpt>
      <trkpt lat="40.35549349151551723480224609375" lon="-1.0485775955021381378173828125">
        <ele>1034.5999755859375</ele>
        <time>2021-09-26T07:46:18.000Z</time>
      </trkpt>
      <trkpt lat="40.35553313791751861572265625" lon="-1.0485195927321910858154296875">
        <ele>1034.4000244140625</ele>
        <time>2021-09-26T07:46:20.000Z</time>
      </trkpt>
      <trkpt lat="40.35556741990149021148681640625" lon="-1.0484505258500576019287109375">
        <ele>1033.5999755859375</ele>
        <time>2021-09-26T07:46:22.000Z</time>
      </trkpt>
      <trkpt lat="40.35560396499931812286376953125" lon="-1.04838958941400051116943359375">
        <ele>1033</ele>
        <time>2021-09-26T07:46:24.000Z</time>
      </trkpt>
      <trkpt lat="40.355642773211002349853515625" lon="-1.048322953283786773681640625">
        <ele>1032.199951171875</ele>
        <time>2021-09-26T07:46:26.000Z</time>
      </trkpt>
      <trkpt lat="40.3556598722934722900390625" lon="-1.0482916049659252166748046875">
        <ele>1032</ele>
        <time>2021-09-26T07:46:27.000Z</time>
      </trkpt>
      <trkpt lat="40.35567420534789562225341796875" lon="-1.04825715534389019012451171875">
        <ele>1031.5999755859375</ele>
        <time>2021-09-26T07:46:28.000Z</time>
      </trkpt>
      <trkpt lat="40.3556907176971435546875" lon="-1.04818289168179035186767578125">
        <ele>1030.800048828125</ele>
        <time>2021-09-26T07:46:30.000Z</time>
      </trkpt>
      <trkpt lat="40.35569951869547367095947265625" lon="-1.04810602962970733642578125">
        <ele>1030</ele>
        <time>2021-09-26T07:46:32.000Z</time>
      </trkpt>
      <trkpt lat="40.3556965850293636322021484375" lon="-1.04802866466343402862548828125">
        <ele>1029</ele>
        <time>2021-09-26T07:46:34.000Z</time>
      </trkpt>
      <trkpt lat="40.35568208433687686920166015625" lon="-1.04795607738196849822998046875">
        <ele>1028.800048828125</ele>
        <time>2021-09-26T07:46:36.000Z</time>
      </trkpt>
      <trkpt lat="40.3556486405432224273681640625" lon="-1.0478953085839748382568359375">
        <ele>1029</ele>
        <time>2021-09-26T07:46:38.000Z</time>
      </trkpt>
      <trkpt lat="40.3556062281131744384765625" lon="-1.04784007184207439422607421875">
        <ele>1029.4000244140625</ele>
        <time>2021-09-26T07:46:40.000Z</time>
      </trkpt>
      <trkpt lat="40.3555339761078357696533203125" lon="-1.04777452535927295684814453125">
        <ele>1030.4000244140625</ele>
        <time>2021-09-26T07:46:43.000Z</time>
      </trkpt>
      <trkpt lat="40.35548150539398193359375" lon="-1.0477419197559356689453125">
        <ele>1031.199951171875</ele>
        <time>2021-09-26T07:46:45.000Z</time>
      </trkpt>
      <trkpt lat="40.35545376129448413848876953125" lon="-1.047728173434734344482421875">
        <ele>1031.5999755859375</ele>
        <time>2021-09-26T07:46:46.000Z</time>
      </trkpt>
      <trkpt lat="40.35542962141335010528564453125" lon="-1.04772021062672138214111328125">
        <ele>1032</ele>
        <time>2021-09-26T07:46:47.000Z</time>
      </trkpt>
      <trkpt lat="40.35538067109882831573486328125" lon="-1.04769523255527019500732421875">
        <ele>1033.199951171875</ele>
        <time>2021-09-26T07:46:49.000Z</time>
      </trkpt>
      <trkpt lat="40.3553240932524204254150390625" lon="-1.04767142795026302337646484375">
        <ele>1034.4000244140625</ele>
        <time>2021-09-26T07:46:51.000Z</time>
      </trkpt>
      <trkpt lat="40.35526223480701446533203125" lon="-1.0476426780223846435546875">
        <ele>1035.5999755859375</ele>
        <time>2021-09-26T07:46:53.000Z</time>
      </trkpt>
      <trkpt lat="40.3552307188510894775390625" lon="-1.04762532748281955718994140625">
        <ele>1036</ele>
        <time>2021-09-26T07:46:54.000Z</time>
      </trkpt>
      <trkpt lat="40.35519861616194248199462890625" lon="-1.0476093180477619171142578125">
        <ele>1036</ele>
        <time>2021-09-26T07:46:55.000Z</time>
      </trkpt>
      <trkpt lat="40.35513675771653652191162109375" lon="-1.04757989756762981414794921875">
        <ele>1036</ele>
        <time>2021-09-26T07:46:57.000Z</time>
      </trkpt>
      <trkpt lat="40.35507556982338428497314453125" lon="-1.04755206964910030364990234375">
        <ele>1036</ele>
        <time>2021-09-26T07:46:59.000Z</time>
      </trkpt>
      <trkpt lat="40.35500784404575824737548828125" lon="-1.04752256534993648529052734375">
        <ele>1036</ele>
        <time>2021-09-26T07:47:01.000Z</time>
      </trkpt>
      <trkpt lat="40.35497465170919895172119140625" lon="-1.04750630445778369903564453125">
        <ele>1036</ele>
        <time>2021-09-26T07:47:02.000Z</time>
      </trkpt>
      <trkpt lat="40.3549415431916713714599609375" lon="-1.047491133213043212890625">
        <ele>1036</ele>
        <time>2021-09-26T07:47:03.000Z</time>
      </trkpt>
      <trkpt lat="40.35487390123307704925537109375" lon="-1.0474550910294055938720703125">
        <ele>1036</ele>
        <time>2021-09-26T07:47:05.000Z</time>
      </trkpt>
      <trkpt lat="40.3548044152557849884033203125" lon="-1.04742248542606830596923828125">
        <ele>1036</ele>
        <time>2021-09-26T07:47:07.000Z</time>
      </trkpt>
      <trkpt lat="40.35473425872623920440673828125" lon="-1.04737789370119571685791015625">
        <ele>1036</ele>
        <time>2021-09-26T07:47:09.000Z</time>
      </trkpt>
      <trkpt lat="40.35469888709485530853271484375" lon="-1.04735576547682285308837890625">
        <ele>1036</ele>
        <time>2021-09-26T07:47:10.000Z</time>
      </trkpt>
      <trkpt lat="40.35466351546347141265869140625" lon="-1.047333888709545135498046875">
        <ele>1035.800048828125</ele>
        <time>2021-09-26T07:47:11.000Z</time>
      </trkpt>
      <trkpt lat="40.35459679551422595977783203125" lon="-1.0472824238240718841552734375">
        <ele>1035.5999755859375</ele>
        <time>2021-09-26T07:47:13.000Z</time>
      </trkpt>
      <trkpt lat="40.35452756099402904510498046875" lon="-1.04721553623676300048828125">
        <ele>1035.5999755859375</ele>
        <time>2021-09-26T07:47:15.000Z</time>
      </trkpt>
      <trkpt lat="40.3544889204204082489013671875" lon="-1.04717798531055450439453125">
        <ele>1036</ele>
        <time>2021-09-26T07:47:16.000Z</time>
      </trkpt>
      <trkpt lat="40.35445195622742176055908203125" lon="-1.0471419431269168853759765625">
        <ele>1036.4000244140625</ele>
        <time>2021-09-26T07:47:17.000Z</time>
      </trkpt>
      <trkpt lat="40.35441390238702297210693359375" lon="-1.0471053980290889739990234375">
        <ele>1036.800048828125</ele>
        <time>2021-09-26T07:47:18.000Z</time>
      </trkpt>
      <trkpt lat="40.35433377139270305633544921875" lon="-1.0470266081392765045166015625">
        <ele>1036.199951171875</ele>
        <time>2021-09-26T07:47:20.000Z</time>
      </trkpt>
      <trkpt lat="40.3542502038180828094482421875" lon="-1.0469491593539714813232421875">
        <ele>1035.5999755859375</ele>
        <time>2021-09-26T07:47:22.000Z</time>
      </trkpt>
      <trkpt lat="40.3541672229766845703125" lon="-1.04687062092125415802001953125">
        <ele>1035.800048828125</ele>
        <time>2021-09-26T07:47:24.000Z</time>
      </trkpt>
      <trkpt lat="40.3541251458227634429931640625" lon="-1.04683457873761653900146484375">
        <ele>1036</ele>
        <time>2021-09-26T07:47:25.000Z</time>
      </trkpt>
      <trkpt lat="40.3540829010307788848876953125" lon="-1.04679954238235950469970703125">
        <ele>1036</ele>
        <time>2021-09-26T07:47:26.000Z</time>
      </trkpt>
      <trkpt lat="40.35400335676968097686767578125" lon="-1.04672066867351531982421875">
        <ele>1036</ele>
        <time>2021-09-26T07:47:28.000Z</time>
      </trkpt>
      <trkpt lat="40.35392607562243938446044921875" lon="-1.046640872955322265625">
        <ele>1036</ele>
        <time>2021-09-26T07:47:30.000Z</time>
      </trkpt>
      <trkpt lat="40.35384736955165863037109375" lon="-1.04656401090323925018310546875">
        <ele>1036</ele>
        <time>2021-09-26T07:47:32.000Z</time>
      </trkpt>
      <trkpt lat="40.3538089804351329803466796875" lon="-1.0465226881206035614013671875">
        <ele>1036</ele>
        <time>2021-09-26T07:47:33.000Z</time>
      </trkpt>
      <trkpt lat="40.35377067513763904571533203125" lon="-1.0464831255376338958740234375">
        <ele>1036.199951171875</ele>
        <time>2021-09-26T07:47:34.000Z</time>
      </trkpt>
      <trkpt lat="40.35369473509490489959716796875" lon="-1.04640391655266284942626953125">
        <ele>1036.4000244140625</ele>
        <time>2021-09-26T07:47:36.000Z</time>
      </trkpt>
      <trkpt lat="40.35362340509891510009765625" lon="-1.04632479138672351837158203125">
        <ele>1036.800048828125</ele>
        <time>2021-09-26T07:47:38.000Z</time>
      </trkpt>
      <trkpt lat="40.3535516560077667236328125" lon="-1.04624348692595958709716796875">
        <ele>1036.800048828125</ele>
        <time>2021-09-26T07:47:40.000Z</time>
      </trkpt>
      <trkpt lat="40.353480912744998931884765625" lon="-1.046140976250171661376953125">
        <ele>1036</ele>
        <time>2021-09-26T07:47:42.000Z</time>
      </trkpt>
      <trkpt lat="40.35344931297004222869873046875" lon="-1.0460841469466686248779296875">
        <ele>1035.800048828125</ele>
        <time>2021-09-26T07:47:43.000Z</time>
      </trkpt>
      <trkpt lat="40.353419221937656402587890625" lon="-1.04602195322513580322265625">
        <ele>1035.800048828125</ele>
        <time>2021-09-26T07:47:44.000Z</time>
      </trkpt>
      <trkpt lat="40.35336934961378574371337890625" lon="-1.04589614085853099822998046875">
        <ele>1035.5999755859375</ele>
        <time>2021-09-26T07:47:46.000Z</time>
      </trkpt>
      <trkpt lat="40.35335057415068149566650390625" lon="-1.04583612643182277679443359375">
        <ele>1035.4000244140625</ele>
        <time>2021-09-26T07:47:47.000Z</time>
      </trkpt>
      <trkpt lat="40.353332720696926116943359375" lon="-1.04577024467289447784423828125">
        <ele>1035.199951171875</ele>
        <time>2021-09-26T07:47:48.000Z</time>
      </trkpt>
      <trkpt lat="40.35330556333065032958984375" lon="-1.04564401321113109588623046875">
        <ele>1035</ele>
        <time>2021-09-26T07:47:50.000Z</time>
      </trkpt>
      <trkpt lat="40.353285111486911773681640625" lon="-1.04553722776472568511962890625">
        <ele>1035</ele>
        <time>2021-09-26T07:47:52.000Z</time>
      </trkpt>
      <trkpt lat="40.35327916033565998077392578125" lon="-1.04548391886055469512939453125">
        <ele>1035</ele>
        <time>2021-09-26T07:47:53.000Z</time>
      </trkpt>
      <trkpt lat="40.35327337682247161865234375" lon="-1.04542423970997333526611328125">
        <ele>1035</ele>
        <time>2021-09-26T07:47:54.000Z</time>
      </trkpt>
      <trkpt lat="40.3532631509006023406982421875" lon="-1.04530421085655689239501953125">
        <ele>1035</ele>
        <time>2021-09-26T07:47:56.000Z</time>
      </trkpt>
      <trkpt lat="40.3532544337213039398193359375" lon="-1.04518334381282329559326171875">
        <ele>1035</ele>
        <time>2021-09-26T07:47:58.000Z</time>
      </trkpt>
      <trkpt lat="40.35323582589626312255859375" lon="-1.04507974348962306976318359375">
        <ele>1035.4000244140625</ele>
        <time>2021-09-26T07:48:00.000Z</time>
      </trkpt>
      <trkpt lat="40.35322467796504497528076171875" lon="-1.0450337268412113189697265625">
        <ele>1035.5999755859375</ele>
        <time>2021-09-26T07:48:01.000Z</time>
      </trkpt>
      <trkpt lat="40.35321495495736598968505859375" lon="-1.0449891351163387298583984375">
        <ele>1035.800048828125</ele>
        <time>2021-09-26T07:48:02.000Z</time>
      </trkpt>
      <trkpt lat="40.35320590250194072723388671875" lon="-1.044900119304656982421875">
        <ele>1036.199951171875</ele>
        <time>2021-09-26T07:48:04.000Z</time>
      </trkpt>
      <trkpt lat="40.35320238210260868072509765625" lon="-1.04485661722719669342041015625">
        <ele>1036.4000244140625</ele>
        <time>2021-09-26T07:48:05.000Z</time>
      </trkpt>
      <trkpt lat="40.35320020280778408050537109375" lon="-1.04481537826359272003173828125">
        <ele>1036.5999755859375</ele>
        <time>2021-09-26T07:48:06.000Z</time>
      </trkpt>
      <trkpt lat="40.3531974367797374725341796875" lon="-1.0447316430509090423583984375">
        <ele>1036.800048828125</ele>
        <time>2021-09-26T07:48:08.000Z</time>
      </trkpt>
      <trkpt lat="40.35318863578140735626220703125" lon="-1.0446498356759548187255859375">
        <ele>1037.4000244140625</ele>
        <time>2021-09-26T07:48:10.000Z</time>
      </trkpt>
      <trkpt lat="40.35318427719175815582275390625" lon="-1.04460842907428741455078125">
        <ele>1037.5999755859375</ele>
        <time>2021-09-26T07:48:11.000Z</time>
      </trkpt>
      <trkpt lat="40.353179164230823516845703125" lon="-1.0445688664913177490234375">
        <ele>1038</ele>
        <time>2021-09-26T07:48:12.000Z</time>
      </trkpt>
      <trkpt lat="40.35317170433700084686279296875" lon="-1.0444905795156955718994140625">
        <ele>1038.199951171875</ele>
        <time>2021-09-26T07:48:14.000Z</time>
      </trkpt>
      <trkpt lat="40.35316407680511474609375" lon="-1.04441589675843715667724609375">
        <ele>1038.4000244140625</ele>
        <time>2021-09-26T07:48:16.000Z</time>
      </trkpt>
      <trkpt lat="40.35315443761646747589111328125" lon="-1.04433526284992694854736328125">
        <ele>1038.4000244140625</ele>
        <time>2021-09-26T07:48:18.000Z</time>
      </trkpt>
      <trkpt lat="40.353146977722644805908203125" lon="-1.04425848461687564849853515625">
        <ele>1038.800048828125</ele>
        <time>2021-09-26T07:48:20.000Z</time>
      </trkpt>
      <trkpt lat="40.353136919438838958740234375" lon="-1.04417768307030200958251953125">
        <ele>1039</ele>
        <time>2021-09-26T07:48:22.000Z</time>
      </trkpt>
      <trkpt lat="40.353122837841510772705078125" lon="-1.044096462428569793701171875">
        <ele>1038.5999755859375</ele>
        <time>2021-09-26T07:48:24.000Z</time>
      </trkpt>
      <trkpt lat="40.3531122766435146331787109375" lon="-1.04401373304426670074462890625">
        <ele>1038.4000244140625</ele>
        <time>2021-09-26T07:48:26.000Z</time>
      </trkpt>
      <trkpt lat="40.35309978760778903961181640625" lon="-1.04393519461154937744140625">
        <ele>1038.199951171875</ele>
        <time>2021-09-26T07:48:28.000Z</time>
      </trkpt>
      <trkpt lat="40.35308486782014369964599609375" lon="-1.04384760372340679168701171875">
        <ele>1037.800048828125</ele>
        <time>2021-09-26T07:48:30.000Z</time>
      </trkpt>
      <trkpt lat="40.35307782702147960662841796875" lon="-1.043799407780170440673828125">
        <ele>1037.5999755859375</ele>
        <time>2021-09-26T07:48:31.000Z</time>
      </trkpt>
      <trkpt lat="40.353069193661212921142578125" lon="-1.04374886490404605865478515625">
        <ele>1037.4000244140625</ele>
        <time>2021-09-26T07:48:32.000Z</time>
      </trkpt>
      <trkpt lat="40.35305435769259929656982421875" lon="-1.04364509694278240203857421875">
        <ele>1036.800048828125</ele>
        <time>2021-09-26T07:48:34.000Z</time>
      </trkpt>
      <trkpt lat="40.35303977318108081817626953125" lon="-1.04353747330605983734130859375">
        <ele>1036.4000244140625</ele>
        <time>2021-09-26T07:48:36.000Z</time>
      </trkpt>
      <trkpt lat="40.35302418284118175506591796875" lon="-1.04342767037451267242431640625">
        <ele>1036</ele>
        <time>2021-09-26T07:48:38.000Z</time>
      </trkpt>
      <trkpt lat="40.3530098497867584228515625" lon="-1.04331032373011112213134765625">
        <ele>1036</ele>
        <time>2021-09-26T07:48:40.000Z</time>
      </trkpt>
      <trkpt lat="40.35298797301948070526123046875" lon="-1.04318945668637752532958984375">
        <ele>1036</ele>
        <time>2021-09-26T07:48:42.000Z</time>
      </trkpt>
      <trkpt lat="40.35296618007123470306396484375" lon="-1.0430710203945636749267578125">
        <ele>1036.4000244140625</ele>
        <time>2021-09-26T07:48:44.000Z</time>
      </trkpt>
      <trkpt lat="40.35294606350362300872802734375" lon="-1.04295208118855953216552734375">
        <ele>1036.5999755859375</ele>
        <time>2021-09-26T07:48:46.000Z</time>
      </trkpt>
      <trkpt lat="40.352919995784759521484375" lon="-1.04283506982028484344482421875">
        <ele>1036</ele>
        <time>2021-09-26T07:48:48.000Z</time>
      </trkpt>
      <trkpt lat="40.3528903238475322723388671875" lon="-1.04271587915718555450439453125">
        <ele>1035.4000244140625</ele>
        <time>2021-09-26T07:48:50.000Z</time>
      </trkpt>
      <trkpt lat="40.352857969701290130615234375" lon="-1.04259853251278400421142578125">
        <ele>1034.4000244140625</ele>
        <time>2021-09-26T07:48:52.000Z</time>
      </trkpt>
      <trkpt lat="40.35281983204185962677001953125" lon="-1.04248135350644588470458984375">
        <ele>1033.5999755859375</ele>
        <time>2021-09-26T07:48:54.000Z</time>
      </trkpt>
      <trkpt lat="40.3527791798114776611328125" lon="-1.042363084852695465087890625">
        <ele>1033</ele>
        <time>2021-09-26T07:48:56.000Z</time>
      </trkpt>
      <trkpt lat="40.3527389466762542724609375" lon="-1.0422495938837528228759765625">
        <ele>1032.5999755859375</ele>
        <time>2021-09-26T07:48:58.000Z</time>
      </trkpt>
      <trkpt lat="40.35269477404654026031494140625" lon="-1.042137108743190765380859375">
        <ele>1031.800048828125</ele>
        <time>2021-09-26T07:49:00.000Z</time>
      </trkpt>
      <trkpt lat="40.352648086845874786376953125" lon="-1.04202537797391414642333984375">
        <ele>1031.5999755859375</ele>
        <time>2021-09-26T07:49:02.000Z</time>
      </trkpt>
      <trkpt lat="40.352596454322338104248046875" lon="-1.04191959835588932037353515625">
        <ele>1031.5999755859375</ele>
        <time>2021-09-26T07:49:04.000Z</time>
      </trkpt>
      <trkpt lat="40.35256862640380859375" lon="-1.0418680496513843536376953125">
        <ele>1031.800048828125</ele>
        <time>2021-09-26T07:49:05.000Z</time>
      </trkpt>
      <trkpt lat="40.35254104994237422943115234375" lon="-1.04181549511849880218505859375">
        <ele>1032</ele>
        <time>2021-09-26T07:49:06.000Z</time>
      </trkpt>
      <trkpt lat="40.35251389257609844207763671875" lon="-1.0417661257088184356689453125">
        <ele>1032</ele>
        <time>2021-09-26T07:49:07.000Z</time>
      </trkpt>
      <trkpt lat="40.3524869866669178009033203125" lon="-1.04171440936625003814697265625">
        <ele>1031.800048828125</ele>
        <time>2021-09-26T07:49:08.000Z</time>
      </trkpt>
      <trkpt lat="40.3524594940245151519775390625" lon="-1.041664369404315948486328125">
        <ele>1031.4000244140625</ele>
        <time>2021-09-26T07:49:09.000Z</time>
      </trkpt>
      <trkpt lat="40.352430827915668487548828125" lon="-1.041615419089794158935546875">
        <ele>1031.199951171875</ele>
        <time>2021-09-26T07:49:10.000Z</time>
      </trkpt>
      <trkpt lat="40.35237156786024570465087890625" lon="-1.0415237210690975189208984375">
        <ele>1031</ele>
        <time>2021-09-26T07:49:12.000Z</time>
      </trkpt>
      <trkpt lat="40.3523387946188449859619140625" lon="-1.041477620601654052734375">
        <ele>1030.800048828125</ele>
        <time>2021-09-26T07:49:13.000Z</time>
      </trkpt>
      <trkpt lat="40.3523086197674274444580078125" lon="-1.0414335317909717559814453125">
        <ele>1030.5999755859375</ele>
        <time>2021-09-26T07:49:14.000Z</time>
      </trkpt>
      <trkpt lat="40.352254472672939300537109375" lon="-1.0413406603038311004638671875">
        <ele>1030.199951171875</ele>
        <time>2021-09-26T07:49:16.000Z</time>
      </trkpt>
      <trkpt lat="40.35219856537878513336181640625" lon="-1.04126212187111377716064453125">
        <ele>1030</ele>
        <time>2021-09-26T07:49:18.000Z</time>
      </trkpt>
      <trkpt lat="40.3521456755697727203369140625" lon="-1.04117863811552524566650390625">
        <ele>1029.199951171875</ele>
        <time>2021-09-26T07:49:20.000Z</time>
      </trkpt>
      <trkpt lat="40.35211860202252864837646484375" lon="-1.041138656437397003173828125">
        <ele>1028.5999755859375</ele>
        <time>2021-09-26T07:49:21.000Z</time>
      </trkpt>
      <trkpt lat="40.35209043882787227630615234375" lon="-1.0410995967686176300048828125">
        <ele>1028.199951171875</ele>
        <time>2021-09-26T07:49:22.000Z</time>
      </trkpt>
      <trkpt lat="40.352036543190479278564453125" lon="-1.04101686738431453704833984375">
        <ele>1027.5999755859375</ele>
        <time>2021-09-26T07:49:24.000Z</time>
      </trkpt>
      <trkpt lat="40.351982899010181427001953125" lon="-1.040937490761280059814453125">
        <ele>1027.199951171875</ele>
        <time>2021-09-26T07:49:26.000Z</time>
      </trkpt>
      <trkpt lat="40.35195599310100078582763671875" lon="-1.04089968837797641754150390625">
        <ele>1026.800048828125</ele>
        <time>2021-09-26T07:49:27.000Z</time>
      </trkpt>
      <trkpt lat="40.35192833282053470611572265625" lon="-1.0408605448901653289794921875">
        <ele>1026.5999755859375</ele>
        <time>2021-09-26T07:49:28.000Z</time>
      </trkpt>
      <trkpt lat="40.35187720321118831634521484375" lon="-1.04077077470719814300537109375">
        <ele>1026</ele>
        <time>2021-09-26T07:49:30.000Z</time>
      </trkpt>
      <trkpt lat="40.35182171501219272613525390625" lon="-1.0406877100467681884765625">
        <ele>1026</ele>
        <time>2021-09-26T07:49:32.000Z</time>
      </trkpt>
      <trkpt lat="40.3517661429941654205322265625" lon="-1.0406045615673065185546875">
        <ele>1026</ele>
        <time>2021-09-26T07:49:34.000Z</time>
      </trkpt>
      <trkpt lat="40.35170872695744037628173828125" lon="-1.04052049107849597930908203125">
        <ele>1026.800048828125</ele>
        <time>2021-09-26T07:49:36.000Z</time>
      </trkpt>
      <trkpt lat="40.3516526520252227783203125" lon="-1.04043625295162200927734375">
        <ele>1027.800048828125</ele>
        <time>2021-09-26T07:49:38.000Z</time>
      </trkpt>
      <trkpt lat="40.35159657709300518035888671875" lon="-1.04034933261573314666748046875">
        <ele>1028.199951171875</ele>
        <time>2021-09-26T07:49:40.000Z</time>
      </trkpt>
      <trkpt lat="40.351541005074977874755859375" lon="-1.040262244641780853271484375">
        <ele>1028.4000244140625</ele>
        <time>2021-09-26T07:49:42.000Z</time>
      </trkpt>
      <trkpt lat="40.3514835052192211151123046875" lon="-1.040174402296543121337890625">
        <ele>1029.4000244140625</ele>
        <time>2021-09-26T07:49:44.000Z</time>
      </trkpt>
      <trkpt lat="40.35142533481121063232421875" lon="-1.04008899070322513580322265625">
        <ele>1030.4000244140625</ele>
        <time>2021-09-26T07:49:46.000Z</time>
      </trkpt>
      <trkpt lat="40.35137143917381763458251953125" lon="-1.0400039143860340118408203125">
        <ele>1030.800048828125</ele>
        <time>2021-09-26T07:49:48.000Z</time>
      </trkpt>
      <trkpt lat="40.35131326876580715179443359375" lon="-1.0399197600781917572021484375">
        <ele>1031.4000244140625</ele>
        <time>2021-09-26T07:49:50.000Z</time>
      </trkpt>
      <trkpt lat="40.35125694237649440765380859375" lon="-1.03983904235064983367919921875">
        <ele>1032.5999755859375</ele>
        <time>2021-09-26T07:49:52.000Z</time>
      </trkpt>
      <trkpt lat="40.35120078362524509429931640625" lon="-1.03975438512861728668212890625">
        <ele>1034</ele>
        <time>2021-09-26T07:49:54.000Z</time>
      </trkpt>
      <trkpt lat="40.3511448763310909271240234375" lon="-1.03967525996267795562744140625">
        <ele>1035.4000244140625</ele>
        <time>2021-09-26T07:49:56.000Z</time>
      </trkpt>
      <trkpt lat="40.351083688437938690185546875" lon="-1.0395915247499942779541015625">
        <ele>1036.800048828125</ele>
        <time>2021-09-26T07:49:58.000Z</time>
      </trkpt>
      <trkpt lat="40.35105359740555286407470703125" lon="-1.03955405764281749725341796875">
        <ele>1037.4000244140625</ele>
        <time>2021-09-26T07:49:59.000Z</time>
      </trkpt>
      <trkpt lat="40.3510255180299282073974609375" lon="-1.03951617144048213958740234375">
        <ele>1038</ele>
        <time>2021-09-26T07:50:00.000Z</time>
      </trkpt>
      <trkpt lat="40.35097195766866207122802734375" lon="-1.03943620808422565460205078125">
        <ele>1039</ele>
        <time>2021-09-26T07:50:02.000Z</time>
      </trkpt>
      <trkpt lat="40.3509177267551422119140625" lon="-1.03935188613831996917724609375">
        <ele>1039.5999755859375</ele>
        <time>2021-09-26T07:50:04.000Z</time>
      </trkpt>
      <trkpt lat="40.35088914446532726287841796875" lon="-1.03931165300309658050537109375">
        <ele>1040</ele>
        <time>2021-09-26T07:50:05.000Z</time>
      </trkpt>
      <trkpt lat="40.35086047835648059844970703125" lon="-1.03927058167755603790283203125">
        <ele>1040.5999755859375</ele>
        <time>2021-09-26T07:50:06.000Z</time>
      </trkpt>
      <trkpt lat="40.35080515779554843902587890625" lon="-1.03918877430260181427001953125">
        <ele>1041.4000244140625</ele>
        <time>2021-09-26T07:50:08.000Z</time>
      </trkpt>
      <trkpt lat="40.3507509268820285797119140625" lon="-1.0391078889369964599609375">
        <ele>1042</ele>
        <time>2021-09-26T07:50:10.000Z</time>
      </trkpt>
      <trkpt lat="40.3507003001868724822998046875" lon="-1.03902809321880340576171875">
        <ele>1042.5999755859375</ele>
        <time>2021-09-26T07:50:12.000Z</time>
      </trkpt>
      <trkpt lat="40.3506751544773578643798828125" lon="-1.03898593224585056304931640625">
        <ele>1042.800048828125</ele>
        <time>2021-09-26T07:50:13.000Z</time>
      </trkpt>
      <trkpt lat="40.35064791329205036163330078125" lon="-1.038943938910961151123046875">
        <ele>1043</ele>
        <time>2021-09-26T07:50:14.000Z</time>
      </trkpt>
      <trkpt lat="40.3505886532366275787353515625" lon="-1.03887277655303478240966796875">
        <ele>1043.4000244140625</ele>
        <time>2021-09-26T07:50:16.000Z</time>
      </trkpt>
      <trkpt lat="40.350538529455661773681640625" lon="-1.03879415430128574371337890625">
        <ele>1043.800048828125</ele>
        <time>2021-09-26T07:50:18.000Z</time>
      </trkpt>
      <trkpt lat="40.35048832185566425323486328125" lon="-1.03871804662048816680908203125">
        <ele>1044</ele>
        <time>2021-09-26T07:50:20.000Z</time>
      </trkpt>
      <trkpt lat="40.350436605513095855712890625" lon="-1.03864051401615142822265625">
        <ele>1044.199951171875</ele>
        <time>2021-09-26T07:50:22.000Z</time>
      </trkpt>
      <trkpt lat="40.35038505680859088897705078125" lon="-1.038558371365070343017578125">
        <ele>1044.4000244140625</ele>
        <time>2021-09-26T07:50:24.000Z</time>
      </trkpt>
      <trkpt lat="40.35033409483730792999267578125" lon="-1.038482598960399627685546875">
        <ele>1044.5999755859375</ele>
        <time>2021-09-26T07:50:26.000Z</time>
      </trkpt>
      <trkpt lat="40.350285731256008148193359375" lon="-1.038407497107982635498046875">
        <ele>1045</ele>
        <time>2021-09-26T07:50:28.000Z</time>
      </trkpt>
      <trkpt lat="40.350237786769866943359375" lon="-1.03833080269396305084228515625">
        <ele>1045.5999755859375</ele>
        <time>2021-09-26T07:50:30.000Z</time>
      </trkpt>
      <trkpt lat="40.35018690861761569976806640625" lon="-1.03825435973703861236572265625">
        <ele>1045.800048828125</ele>
        <time>2021-09-26T07:50:32.000Z</time>
      </trkpt>
      <trkpt lat="40.3501343540847301483154296875" lon="-1.03818051517009735107421875">
        <ele>1045.800048828125</ele>
        <time>2021-09-26T07:50:34.000Z</time>
      </trkpt>
      <trkpt lat="40.3500830568373203277587890625" lon="-1.03810264728963375091552734375">
        <ele>1045.800048828125</ele>
        <time>2021-09-26T07:50:36.000Z</time>
      </trkpt>
      <trkpt lat="40.3500304184854030609130859375" lon="-1.0380210913717746734619140625">
        <ele>1045.5999755859375</ele>
        <time>2021-09-26T07:50:38.000Z</time>
      </trkpt>
      <trkpt lat="40.34998473711311817169189453125" lon="-1.03794238530099391937255859375">
        <ele>1045.199951171875</ele>
        <time>2021-09-26T07:50:40.000Z</time>
      </trkpt>
      <trkpt lat="40.3499449230730533599853515625" lon="-1.0378658585250377655029296875">
        <ele>1044.5999755859375</ele>
        <time>2021-09-26T07:50:42.000Z</time>
      </trkpt>
      <trkpt lat="40.34992103464901447296142578125" lon="-1.037830822169780731201171875">
        <ele>1044.4000244140625</ele>
        <time>2021-09-26T07:50:43.000Z</time>
      </trkpt>
      <trkpt lat="40.3498953022062778472900390625" lon="-1.0377947799861431121826171875">
        <ele>1044</ele>
        <time>2021-09-26T07:50:44.000Z</time>
      </trkpt>
      <trkpt lat="40.34984258003532886505126953125" lon="-1.0377233661711215972900390625">
        <ele>1043.199951171875</ele>
        <time>2021-09-26T07:50:46.000Z</time>
      </trkpt>
      <trkpt lat="40.34979228861629962921142578125" lon="-1.037647090852260589599609375">
        <ele>1042.199951171875</ele>
        <time>2021-09-26T07:50:48.000Z</time>
      </trkpt>
      <trkpt lat="40.34976781345903873443603515625" lon="-1.0376083664596080780029296875">
        <ele>1041.5999755859375</ele>
        <time>2021-09-26T07:50:49.000Z</time>
      </trkpt>
      <trkpt lat="40.3497430868446826934814453125" lon="-1.03757173754274845123291015625">
        <ele>1041</ele>
        <time>2021-09-26T07:50:50.000Z</time>
      </trkpt>
      <trkpt lat="40.34969438798725605010986328125" lon="-1.03750669397413730621337890625">
        <ele>1039.5999755859375</ele>
        <time>2021-09-26T07:50:52.000Z</time>
      </trkpt>
      <trkpt lat="40.34964342601597309112548828125" lon="-1.03743947111070156097412109375">
        <ele>1038.4000244140625</ele>
        <time>2021-09-26T07:50:54.000Z</time>
      </trkpt>
      <trkpt lat="40.34961962141096591949462890625" lon="-1.03739739395678043365478515625">
        <ele>1037.5999755859375</ele>
        <time>2021-09-26T07:50:55.000Z</time>
      </trkpt>
      <trkpt lat="40.34959481097757816314697265625" lon="-1.0373555682599544525146484375">
        <ele>1037</ele>
        <time>2021-09-26T07:50:56.000Z</time>
      </trkpt>
      <trkpt lat="40.34954242408275604248046875" lon="-1.0372759401798248291015625">
        <ele>1035.4000244140625</ele>
        <time>2021-09-26T07:50:58.000Z</time>
      </trkpt>
      <trkpt lat="40.34949146211147308349609375" lon="-1.03720243088901042938232421875">
        <ele>1034.800048828125</ele>
        <time>2021-09-26T07:51:00.000Z</time>
      </trkpt>
      <trkpt lat="40.34944376908242702484130859375" lon="-1.0371312685310840606689453125">
        <ele>1034.199951171875</ele>
        <time>2021-09-26T07:51:02.000Z</time>
      </trkpt>
      <trkpt lat="40.3493942320346832275390625" lon="-1.0370559990406036376953125">
        <ele>1034.199951171875</ele>
        <time>2021-09-26T07:51:04.000Z</time>
      </trkpt>
      <trkpt lat="40.34934620372951030731201171875" lon="-1.03698668070137500762939453125">
        <ele>1034.4000244140625</ele>
        <time>2021-09-26T07:51:06.000Z</time>
      </trkpt>
      <trkpt lat="40.34930278547108173370361328125" lon="-1.03692247532308101654052734375">
        <ele>1034.5999755859375</ele>
        <time>2021-09-26T07:51:08.000Z</time>
      </trkpt>
      <trkpt lat="40.34926883876323699951171875" lon="-1.0368741117417812347412109375">
        <ele>1035</ele>
        <time>2021-09-26T07:51:10.000Z</time>
      </trkpt>
      <trkpt lat="40.34925333224236965179443359375" lon="-1.03685692884027957916259765625">
        <ele>1035.199951171875</ele>
        <time>2021-09-26T07:51:11.000Z</time>
      </trkpt>
      <trkpt lat="40.349245704710483551025390625" lon="-1.0368459485471248626708984375">
        <ele>1035.4000244140625</ele>
        <time>2021-09-26T07:51:12.000Z</time>
      </trkpt>
      <trkpt lat="40.34924067556858062744140625" lon="-1.0368315316736698150634765625">
        <ele>1035.4000244140625</ele>
        <time>2021-09-26T07:51:14.000Z</time>
      </trkpt>
      <trkpt lat="40.34924067556858062744140625" lon="-1.0368315316736698150634765625">
        <ele>1035.4000244140625</ele>
        <time>2021-09-26T07:51:15.000Z</time>
      </trkpt>
      <trkpt lat="40.34920823760330677032470703125" lon="-1.0367859341204166412353515625">
        <ele>1036</ele>
        <time>2021-09-26T07:51:41.000Z</time>
      </trkpt>
      <trkpt lat="40.34919465892016887664794921875" lon="-1.03676171042025089263916015625">
        <ele>1036.199951171875</ele>
        <time>2021-09-26T07:51:42.000Z</time>
      </trkpt>
      <trkpt lat="40.349161215126514434814453125" lon="-1.03671200573444366455078125">
        <ele>1036.800048828125</ele>
        <time>2021-09-26T07:51:44.000Z</time>
      </trkpt>
      <trkpt lat="40.34914621151983737945556640625" lon="-1.0366870276629924774169921875">
        <ele>1037.199951171875</ele>
        <time>2021-09-26T07:51:45.000Z</time>
      </trkpt>
      <trkpt lat="40.349125675857067108154296875" lon="-1.036658696830272674560546875">
        <ele>1037.5999755859375</ele>
        <time>2021-09-26T07:51:46.000Z</time>
      </trkpt>
      <trkpt lat="40.34908401779830455780029296875" lon="-1.0365958325564861297607421875">
        <ele>1038.5999755859375</ele>
        <time>2021-09-26T07:51:48.000Z</time>
      </trkpt>
      <trkpt lat="40.3490604646503925323486328125" lon="-1.03656607680022716522216796875">
        <ele>1039</ele>
        <time>2021-09-26T07:51:49.000Z</time>
      </trkpt>
      <trkpt lat="40.34903489984571933746337890625" lon="-1.0365317948162555694580078125">
        <ele>1039.4000244140625</ele>
        <time>2021-09-26T07:51:50.000Z</time>
      </trkpt>
      <trkpt lat="40.34898854792118072509765625" lon="-1.03646515868604183197021484375">
        <ele>1040.199951171875</ele>
        <time>2021-09-26T07:51:52.000Z</time>
      </trkpt>
      <trkpt lat="40.3489441238343715667724609375" lon="-1.03639776818454265594482421875">
        <ele>1041</ele>
        <time>2021-09-26T07:51:54.000Z</time>
      </trkpt>
      <trkpt lat="40.34889643080532550811767578125" lon="-1.03632786311209201812744140625">
        <ele>1041.5999755859375</ele>
        <time>2021-09-26T07:51:56.000Z</time>
      </trkpt>
      <trkpt lat="40.34884077496826648712158203125" lon="-1.03625200688838958740234375">
        <ele>1042</ele>
        <time>2021-09-26T07:51:58.000Z</time>
      </trkpt>
      <trkpt lat="40.34879006445407867431640625" lon="-1.0361757315695285797119140625">
        <ele>1042.199951171875</ele>
        <time>2021-09-26T07:52:00.000Z</time>
      </trkpt>
      <trkpt lat="40.34874337725341320037841796875" lon="-1.03610389865934848785400390625">
        <ele>1042.4000244140625</ele>
        <time>2021-09-26T07:52:02.000Z</time>
      </trkpt>
      <trkpt lat="40.34869811497628688812255859375" lon="-1.0360282100737094879150390625">
        <ele>1042.5999755859375</ele>
        <time>2021-09-26T07:52:04.000Z</time>
      </trkpt>
      <trkpt lat="40.34864790737628936767578125" lon="-1.03595688007771968841552734375">
        <ele>1042.800048828125</ele>
        <time>2021-09-26T07:52:06.000Z</time>
      </trkpt>
      <trkpt lat="40.3486001305282115936279296875" lon="-1.035888232290744781494140625">
        <ele>1043</ele>
        <time>2021-09-26T07:52:08.000Z</time>
      </trkpt>
      <trkpt lat="40.34855537116527557373046875" lon="-1.03581807576119899749755859375">
        <ele>1043</ele>
        <time>2021-09-26T07:52:10.000Z</time>
      </trkpt>
      <trkpt lat="40.3485112823545932769775390625" lon="-1.0357512719929218292236328125">
        <ele>1043.199951171875</ele>
        <time>2021-09-26T07:52:12.000Z</time>
      </trkpt>
      <trkpt lat="40.3484660200774669647216796875" lon="-1.03568245656788349151611328125">
        <ele>1043.800048828125</ele>
        <time>2021-09-26T07:52:14.000Z</time>
      </trkpt>
      <trkpt lat="40.34844162873923778533935546875" lon="-1.0356480069458484649658203125">
        <ele>1044.199951171875</ele>
        <time>2021-09-26T07:52:15.000Z</time>
      </trkpt>
      <trkpt lat="40.34841815941035747528076171875" lon="-1.03561305440962314605712890625">
        <ele>1044.4000244140625</ele>
        <time>2021-09-26T07:52:16.000Z</time>
      </trkpt>
      <trkpt lat="40.34836803562939167022705078125" lon="-1.03554197587072849273681640625">
        <ele>1045</ele>
        <time>2021-09-26T07:52:18.000Z</time>
      </trkpt>
      <trkpt lat="40.348322689533233642578125" lon="-1.03547148406505584716796875">
        <ele>1045.5999755859375</ele>
        <time>2021-09-26T07:52:20.000Z</time>
      </trkpt>
      <trkpt lat="40.3482749126851558685302734375" lon="-1.03540048934519290924072265625">
        <ele>1046</ele>
        <time>2021-09-26T07:52:22.000Z</time>
      </trkpt>
      <trkpt lat="40.34825018607079982757568359375" lon="-1.03536687791347503662109375">
        <ele>1046.199951171875</ele>
        <time>2021-09-26T07:52:23.000Z</time>
      </trkpt>
      <trkpt lat="40.34822520799934864044189453125" lon="-1.03533075191080570220947265625">
        <ele>1046.199951171875</ele>
        <time>2021-09-26T07:52:24.000Z</time>
      </trkpt>
      <trkpt lat="40.34817810170352458953857421875" lon="-1.03525782935321331024169921875">
        <ele>1046.4000244140625</ele>
        <time>2021-09-26T07:52:26.000Z</time>
      </trkpt>
      <trkpt lat="40.34813015721738338470458984375" lon="-1.03518675081431865692138671875">
        <ele>1047</ele>
        <time>2021-09-26T07:52:28.000Z</time>
      </trkpt>
      <trkpt lat="40.34808330237865447998046875" lon="-1.03511651046574115753173828125">
        <ele>1047.4000244140625</ele>
        <time>2021-09-26T07:52:30.000Z</time>
      </trkpt>
      <trkpt lat="40.348058827221393585205078125" lon="-1.035081557929515838623046875">
        <ele>1047.5999755859375</ele>
        <time>2021-09-26T07:52:31.000Z</time>
      </trkpt>
      <trkpt lat="40.34803376533091068267822265625" lon="-1.0350495390594005584716796875">
        <ele>1047.5999755859375</ele>
        <time>2021-09-26T07:52:32.000Z</time>
      </trkpt>
      <trkpt lat="40.34798917360603809356689453125" lon="-1.034981310367584228515625">
        <ele>1047.5999755859375</ele>
        <time>2021-09-26T07:52:34.000Z</time>
      </trkpt>
      <trkpt lat="40.34794743172824382781982421875" lon="-1.0349140875041484832763671875">
        <ele>1047.5999755859375</ele>
        <time>2021-09-26T07:52:36.000Z</time>
      </trkpt>
      <trkpt lat="40.34792513586580753326416015625" lon="-1.0348808951675891876220703125">
        <ele>1047.5999755859375</ele>
        <time>2021-09-26T07:52:37.000Z</time>
      </trkpt>
      <trkpt lat="40.34790535457432270050048828125" lon="-1.0348466970026493072509765625">
        <ele>1047.5999755859375</ele>
        <time>2021-09-26T07:52:38.000Z</time>
      </trkpt>
      <trkpt lat="40.3478601761162281036376953125" lon="-1.0347772948443889617919921875">
        <ele>1047.800048828125</ele>
        <time>2021-09-26T07:52:40.000Z</time>
      </trkpt>
      <trkpt lat="40.34781239926815032958984375" lon="-1.03470948524773120880126953125">
        <ele>1047.800048828125</ele>
        <time>2021-09-26T07:52:42.000Z</time>
      </trkpt>
      <trkpt lat="40.34778934903442859649658203125" lon="-1.03467193432152271270751953125">
        <ele>1048</ele>
        <time>2021-09-26T07:52:43.000Z</time>
      </trkpt>
      <trkpt lat="40.34776604734361171722412109375" lon="-1.03463605977594852447509765625">
        <ele>1048</ele>
        <time>2021-09-26T07:52:44.000Z</time>
      </trkpt>
      <trkpt lat="40.34772061742842197418212890625" lon="-1.0345627181231975555419921875">
        <ele>1048.199951171875</ele>
        <time>2021-09-26T07:52:46.000Z</time>
      </trkpt>
      <trkpt lat="40.3476744331419467926025390625" lon="-1.0344909690320491790771484375">
        <ele>1048.4000244140625</ele>
        <time>2021-09-26T07:52:48.000Z</time>
      </trkpt>
      <trkpt lat="40.3476295061409473419189453125" lon="-1.034418381750583648681640625">
        <ele>1048.5999755859375</ele>
        <time>2021-09-26T07:52:50.000Z</time>
      </trkpt>
      <trkpt lat="40.34758818335831165313720703125" lon="-1.03434705175459384918212890625">
        <ele>1048.4000244140625</ele>
        <time>2021-09-26T07:52:52.000Z</time>
      </trkpt>
      <trkpt lat="40.347568988800048828125" lon="-1.0343122668564319610595703125">
        <ele>1048.4000244140625</ele>
        <time>2021-09-26T07:52:53.000Z</time>
      </trkpt>
      <trkpt lat="40.34755096770823001861572265625" lon="-1.0342777334153652191162109375">
        <ele>1048.5999755859375</ele>
        <time>2021-09-26T07:52:54.000Z</time>
      </trkpt>
      <trkpt lat="40.3475208766758441925048828125" lon="-1.03422333486378192901611328125">
        <ele>1048.800048828125</ele>
        <time>2021-09-26T07:52:56.000Z</time>
      </trkpt>
      <trkpt lat="40.34750989638268947601318359375" lon="-1.03418461047112941741943359375">
        <ele>1049.199951171875</ele>
        <time>2021-09-26T07:52:58.000Z</time>
      </trkpt>
      <trkpt lat="40.34750252030789852142333984375" lon="-1.0341493226587772369384765625">
        <ele>1049.4000244140625</ele>
        <time>2021-09-26T07:53:00.000Z</time>
      </trkpt>
      <trkpt lat="40.34750126302242279052734375" lon="-1.03414244949817657470703125">
        <ele>1049.4000244140625</ele>
        <time>2021-09-26T07:53:02.000Z</time>
      </trkpt>
      <trkpt lat="40.34749187529087066650390625" lon="-1.03411185555160045623779296875">
        <ele>1049.5999755859375</ele>
        <time>2021-09-26T07:53:35.000Z</time>
      </trkpt>
      <trkpt lat="40.34747779369354248046875" lon="-1.0340896435081958770751953125">
        <ele>1049.5999755859375</ele>
        <time>2021-09-26T07:53:36.000Z</time>
      </trkpt>
      <trkpt lat="40.34744602628052234649658203125" lon="-1.034026779234409332275390625">
        <ele>1050</ele>
        <time>2021-09-26T07:53:38.000Z</time>
      </trkpt>
      <trkpt lat="40.3474105708301067352294921875" lon="-1.03395394049584865570068359375">
        <ele>1050.199951171875</ele>
        <time>2021-09-26T07:53:40.000Z</time>
      </trkpt>
      <trkpt lat="40.34739707596600055694580078125" lon="-1.0339178144931793212890625">
        <ele>1050.199951171875</ele>
        <time>2021-09-26T07:53:41.000Z</time>
      </trkpt>
      <trkpt lat="40.34738056361675262451171875" lon="-1.03387825191020965576171875">
        <ele>1050.199951171875</ele>
        <time>2021-09-26T07:53:42.000Z</time>
      </trkpt>
      <trkpt lat="40.34734594635665416717529296875" lon="-1.033800132572650909423828125">
        <ele>1050.4000244140625</ele>
        <time>2021-09-26T07:53:44.000Z</time>
      </trkpt>
      <trkpt lat="40.3473113290965557098388671875" lon="-1.03371866047382354736328125">
        <ele>1050.5999755859375</ele>
        <time>2021-09-26T07:53:46.000Z</time>
      </trkpt>
      <trkpt lat="40.34727805294096469879150390625" lon="-1.03363375179469585418701171875">
        <ele>1050.800048828125</ele>
        <time>2021-09-26T07:53:48.000Z</time>
      </trkpt>
      <trkpt lat="40.34724502824246883392333984375" lon="-1.0335548780858516693115234375">
        <ele>1051</ele>
        <time>2021-09-26T07:53:50.000Z</time>
      </trkpt>
      <trkpt lat="40.3472174517810344696044921875" lon="-1.0334770940244197845458984375">
        <ele>1051.199951171875</ele>
        <time>2021-09-26T07:53:52.000Z</time>
      </trkpt>
      <trkpt lat="40.34718652255833148956298828125" lon="-1.0334006510674953460693359375">
        <ele>1051</ele>
        <time>2021-09-26T07:53:54.000Z</time>
      </trkpt>
      <trkpt lat="40.34716305322945117950439453125" lon="-1.03331943042576313018798828125">
        <ele>1050.800048828125</ele>
        <time>2021-09-26T07:53:56.000Z</time>
      </trkpt>
      <trkpt lat="40.34714184701442718505859375" lon="-1.03323427028954029083251953125">
        <ele>1050.5999755859375</ele>
        <time>2021-09-26T07:53:58.000Z</time>
      </trkpt>
      <trkpt lat="40.3471291065216064453125" lon="-1.0331936180591583251953125">
        <ele>1050.5999755859375</ele>
        <time>2021-09-26T07:53:59.000Z</time>
      </trkpt>
      <trkpt lat="40.34711712040007114410400390625" lon="-1.03315313346683979034423828125">
        <ele>1050.800048828125</ele>
        <time>2021-09-26T07:54:00.000Z</time>
      </trkpt>
      <trkpt lat="40.34709717147052288055419921875" lon="-1.03307099081575870513916015625">
        <ele>1050.800048828125</ele>
        <time>2021-09-26T07:54:02.000Z</time>
      </trkpt>
      <trkpt lat="40.34707873128354549407958984375" lon="-1.03299018926918506622314453125">
        <ele>1051</ele>
        <time>2021-09-26T07:54:04.000Z</time>
      </trkpt>
      <trkpt lat="40.34705610014498233795166015625" lon="-1.0329064540565013885498046875">
        <ele>1050.5999755859375</ele>
        <time>2021-09-26T07:54:06.000Z</time>
      </trkpt>
      <trkpt lat="40.34703564830124378204345703125" lon="-1.03282137773931026458740234375">
        <ele>1050.4000244140625</ele>
        <time>2021-09-26T07:54:08.000Z</time>
      </trkpt>
      <trkpt lat="40.3470239974558353424072265625" lon="-1.0327398218214511871337890625">
        <ele>1050.4000244140625</ele>
        <time>2021-09-26T07:54:10.000Z</time>
      </trkpt>
      <trkpt lat="40.3470149450004100799560546875" lon="-1.03265373967587947845458984375">
        <ele>1050.199951171875</ele>
        <time>2021-09-26T07:54:12.000Z</time>
      </trkpt>
      <trkpt lat="40.3470055572688579559326171875" lon="-1.0325661487877368927001953125">
        <ele>1049.800048828125</ele>
        <time>2021-09-26T07:54:14.000Z</time>
      </trkpt>
      <trkpt lat="40.34699943847954273223876953125" lon="-1.032520048320293426513671875">
        <ele>1049.5999755859375</ele>
        <time>2021-09-26T07:54:15.000Z</time>
      </trkpt>
      <trkpt lat="40.34699189476668834686279296875" lon="-1.032475791871547698974609375">
        <ele>1049.4000244140625</ele>
        <time>2021-09-26T07:54:16.000Z</time>
      </trkpt>
      <trkpt lat="40.3469767235219478607177734375" lon="-1.03238769806921482086181640625">
        <ele>1048.800048828125</ele>
        <time>2021-09-26T07:54:18.000Z</time>
      </trkpt>
      <trkpt lat="40.34696892835199832916259765625" lon="-1.03229935280978679656982421875">
        <ele>1048.800048828125</ele>
        <time>2021-09-26T07:54:20.000Z</time>
      </trkpt>
      <trkpt lat="40.34695853479206562042236328125" lon="-1.0322161205112934112548828125">
        <ele>1049</ele>
        <time>2021-09-26T07:54:22.000Z</time>
      </trkpt>
      <trkpt lat="40.34695350565016269683837890625" lon="-1.03217110969126224517822265625">
        <ele>1049</ele>
        <time>2021-09-26T07:54:23.000Z</time>
      </trkpt>
      <trkpt lat="40.34694897942245006561279296875" lon="-1.03212718851864337921142578125">
        <ele>1049.199951171875</ele>
        <time>2021-09-26T07:54:24.000Z</time>
      </trkpt>
      <trkpt lat="40.3469415195286273956298828125" lon="-1.03204186074435710906982421875">
        <ele>1049.5999755859375</ele>
        <time>2021-09-26T07:54:26.000Z</time>
      </trkpt>
      <trkpt lat="40.34693556837737560272216796875" lon="-1.0319529287517070770263671875">
        <ele>1050.5999755859375</ele>
        <time>2021-09-26T07:54:28.000Z</time>
      </trkpt>
      <trkpt lat="40.3469304554164409637451171875" lon="-1.03186567313969135284423828125">
        <ele>1051.5999755859375</ele>
        <time>2021-09-26T07:54:30.000Z</time>
      </trkpt>
      <trkpt lat="40.34692701883614063262939453125" lon="-1.03182292543351650238037109375">
        <ele>1052</ele>
        <time>2021-09-26T07:54:31.000Z</time>
      </trkpt>
      <trkpt lat="40.3469224087893962860107421875" lon="-1.03178076446056365966796875">
        <ele>1052.4000244140625</ele>
        <time>2021-09-26T07:54:32.000Z</time>
      </trkpt>
      <trkpt lat="40.34691461361944675445556640625" lon="-1.03169484995305538177490234375">
        <ele>1053</ele>
        <time>2021-09-26T07:54:34.000Z</time>
      </trkpt>
      <trkpt lat="40.34690757282078266143798828125" lon="-1.03160776197910308837890625">
        <ele>1053.5999755859375</ele>
        <time>2021-09-26T07:54:36.000Z</time>
      </trkpt>
      <trkpt lat="40.34689902327954769134521484375" lon="-1.0315220989286899566650390625">
        <ele>1054.199951171875</ele>
        <time>2021-09-26T07:54:38.000Z</time>
      </trkpt>
      <trkpt lat="40.34689567051827907562255859375" lon="-1.03143366985023021697998046875">
        <ele>1055</ele>
        <time>2021-09-26T07:54:40.000Z</time>
      </trkpt>
      <trkpt lat="40.34689047373831272125244140625" lon="-1.03134549222886562347412109375">
        <ele>1056</ele>
        <time>2021-09-26T07:54:42.000Z</time>
      </trkpt>
      <trkpt lat="40.346882008016109466552734375" lon="-1.03126150555908679962158203125">
        <ele>1056.800048828125</ele>
        <time>2021-09-26T07:54:44.000Z</time>
      </trkpt>
      <trkpt lat="40.34687706269323825836181640625" lon="-1.03117198683321475982666015625">
        <ele>1057</ele>
        <time>2021-09-26T07:54:46.000Z</time>
      </trkpt>
      <trkpt lat="40.346870608627796173095703125" lon="-1.03107978589832782745361328125">
        <ele>1057.4000244140625</ele>
        <time>2021-09-26T07:54:48.000Z</time>
      </trkpt>
      <trkpt lat="40.3468622267246246337890625" lon="-1.03098414838314056396484375">
        <ele>1057.5999755859375</ele>
        <time>2021-09-26T07:54:50.000Z</time>
      </trkpt>
      <trkpt lat="40.3468590416014194488525390625" lon="-1.0308911092579364776611328125">
        <ele>1057.5999755859375</ele>
        <time>2021-09-26T07:54:52.000Z</time>
      </trkpt>
      <trkpt lat="40.34685325808823108673095703125" lon="-1.03079907596111297607421875">
        <ele>1057.5999755859375</ele>
        <time>2021-09-26T07:54:54.000Z</time>
      </trkpt>
      <trkpt lat="40.34685141406953334808349609375" lon="-1.030753813683986663818359375">
        <ele>1057.5999755859375</ele>
        <time>2021-09-26T07:54:55.000Z</time>
      </trkpt>
      <trkpt lat="40.34685024060308933258056640625" lon="-1.0307093895971775054931640625">
        <ele>1057.5999755859375</ele>
        <time>2021-09-26T07:54:56.000Z</time>
      </trkpt>
      <trkpt lat="40.34684219397604465484619140625" lon="-1.0306225530803203582763671875">
        <ele>1057.5999755859375</ele>
        <time>2021-09-26T07:54:58.000Z</time>
      </trkpt>
      <trkpt lat="40.34683498553931713104248046875" lon="-1.0305380634963512420654296875">
        <ele>1057.5999755859375</ele>
        <time>2021-09-26T07:55:00.000Z</time>
      </trkpt>
      <trkpt lat="40.3468338958919048309326171875" lon="-1.03044913150370121002197265625">
        <ele>1057.4000244140625</ele>
        <time>2021-09-26T07:55:02.000Z</time>
      </trkpt>
      <trkpt lat="40.346832387149333953857421875" lon="-1.03040403686463832855224609375">
        <ele>1057.199951171875</ele>
        <time>2021-09-26T07:55:03.000Z</time>
      </trkpt>
      <trkpt lat="40.346827022731304168701171875" lon="-1.03035994805395603179931640625">
        <ele>1057</ele>
        <time>2021-09-26T07:55:04.000Z</time>
      </trkpt>
      <trkpt lat="40.34681939519941806793212890625" lon="-1.03027470409870147705078125">
        <ele>1056.5999755859375</ele>
        <time>2021-09-26T07:55:06.000Z</time>
      </trkpt>
      <trkpt lat="40.34681218676269054412841796875" lon="-1.03018543682992458343505859375">
        <ele>1056.4000244140625</ele>
        <time>2021-09-26T07:55:08.000Z</time>
      </trkpt>
      <trkpt lat="40.34680615179240703582763671875" lon="-1.030099689960479736328125">
        <ele>1056</ele>
        <time>2021-09-26T07:55:10.000Z</time>
      </trkpt>
      <trkpt lat="40.34679927863180637359619140625" lon="-1.03001645766198635101318359375">
        <ele>1055.4000244140625</ele>
        <time>2021-09-26T07:55:12.000Z</time>
      </trkpt>
      <trkpt lat="40.34679290838539600372314453125" lon="-1.029933057725429534912109375">
        <ele>1054.800048828125</ele>
        <time>2021-09-26T07:55:14.000Z</time>
      </trkpt>
      <trkpt lat="40.34678737632930278778076171875" lon="-1.029847227036952972412109375">
        <ele>1054.5999755859375</ele>
        <time>2021-09-26T07:55:16.000Z</time>
      </trkpt>
      <trkpt lat="40.346782095730304718017578125" lon="-1.0297603905200958251953125">
        <ele>1054.5999755859375</ele>
        <time>2021-09-26T07:55:18.000Z</time>
      </trkpt>
      <trkpt lat="40.3467748872935771942138671875" lon="-1.029675565659999847412109375">
        <ele>1054.5999755859375</ele>
        <time>2021-09-26T07:55:20.000Z</time>
      </trkpt>
      <trkpt lat="40.3467671759426593780517578125" lon="-1.0295892320573329925537109375">
        <ele>1054.5999755859375</ele>
        <time>2021-09-26T07:55:22.000Z</time>
      </trkpt>
      <trkpt lat="40.346761308610439300537109375" lon="-1.02950281463563442230224609375">
        <ele>1054.800048828125</ele>
        <time>2021-09-26T07:55:24.000Z</time>
      </trkpt>
      <trkpt lat="40.346755273640155792236328125" lon="-1.02941262535750865936279296875">
        <ele>1054.800048828125</ele>
        <time>2021-09-26T07:55:26.000Z</time>
      </trkpt>
      <trkpt lat="40.3467484004795551300048828125" lon="-1.02932260371744632720947265625">
        <ele>1054.4000244140625</ele>
        <time>2021-09-26T07:55:28.000Z</time>
      </trkpt>
      <trkpt lat="40.34674756228923797607421875" lon="-1.0292775928974151611328125">
        <ele>1054.4000244140625</ele>
        <time>2021-09-26T07:55:29.000Z</time>
      </trkpt>
      <trkpt lat="40.346747227013111114501953125" lon="-1.02923207916319370269775390625">
        <ele>1054.4000244140625</ele>
        <time>2021-09-26T07:55:30.000Z</time>
      </trkpt>
      <trkpt lat="40.34674295224249362945556640625" lon="-1.02914675138890743255615234375">
        <ele>1054.199951171875</ele>
        <time>2021-09-26T07:55:32.000Z</time>
      </trkpt>
      <trkpt lat="40.3467386774718761444091796875" lon="-1.0290558077394962310791015625">
        <ele>1054.199951171875</ele>
        <time>2021-09-26T07:55:34.000Z</time>
      </trkpt>
      <trkpt lat="40.34673188813030719757080078125" lon="-1.02896419353783130645751953125">
        <ele>1054.4000244140625</ele>
        <time>2021-09-26T07:55:36.000Z</time>
      </trkpt>
      <trkpt lat="40.34672937355935573577880859375" lon="-1.028919853270053863525390625">
        <ele>1054.5999755859375</ele>
        <time>2021-09-26T07:55:37.000Z</time>
      </trkpt>
      <trkpt lat="40.346725769340991973876953125" lon="-1.0288754291832447052001953125">
        <ele>1054.4000244140625</ele>
        <time>2021-09-26T07:55:38.000Z</time>
      </trkpt>
      <trkpt lat="40.3467205725610256195068359375" lon="-1.0287912748754024505615234375">
        <ele>1054.4000244140625</ele>
        <time>2021-09-26T07:55:40.000Z</time>
      </trkpt>
      <trkpt lat="40.34671529196202754974365234375" lon="-1.02870435453951358795166015625">
        <ele>1054.5999755859375</ele>
        <time>2021-09-26T07:55:42.000Z</time>
      </trkpt>
      <trkpt lat="40.34671328030526638031005859375" lon="-1.02866311557590961456298828125">
        <ele>1054.5999755859375</ele>
        <time>2021-09-26T07:55:43.000Z</time>
      </trkpt>
      <trkpt lat="40.346710681915283203125" lon="-1.02862103842198848724365234375">
        <ele>1054.800048828125</ele>
        <time>2021-09-26T07:55:44.000Z</time>
      </trkpt>
      <trkpt lat="40.34670758061110973358154296875" lon="-1.02853504009544849395751953125">
        <ele>1055</ele>
        <time>2021-09-26T07:55:46.000Z</time>
      </trkpt>
      <trkpt lat="40.3467024676501750946044921875" lon="-1.0284502990543842315673828125">
        <ele>1055.199951171875</ele>
        <time>2021-09-26T07:55:48.000Z</time>
      </trkpt>
      <trkpt lat="40.34669500775635242462158203125" lon="-1.02835784666240215301513671875">
        <ele>1055</ele>
        <time>2021-09-26T07:55:50.000Z</time>
      </trkpt>
      <trkpt lat="40.3466900624334812164306640625" lon="-1.02826832793653011322021484375">
        <ele>1055</ele>
        <time>2021-09-26T07:55:52.000Z</time>
      </trkpt>
      <trkpt lat="40.3466877155005931854248046875" lon="-1.02817880921065807342529296875">
        <ele>1054.800048828125</ele>
        <time>2021-09-26T07:55:54.000Z</time>
      </trkpt>
      <trkpt lat="40.346682183444499969482421875" lon="-1.0280893743038177490234375">
        <ele>1054.4000244140625</ele>
        <time>2021-09-26T07:55:56.000Z</time>
      </trkpt>
      <trkpt lat="40.34667539410293102264404296875" lon="-1.02799692191183567047119140625">
        <ele>1054</ele>
        <time>2021-09-26T07:55:58.000Z</time>
      </trkpt>
      <trkpt lat="40.34666868858039379119873046875" lon="-1.02790606208145618438720703125">
        <ele>1053.5999755859375</ele>
        <time>2021-09-26T07:56:00.000Z</time>
      </trkpt>
      <trkpt lat="40.34666441380977630615234375" lon="-1.0278578661382198333740234375">
        <ele>1053.199951171875</ele>
        <time>2021-09-26T07:56:01.000Z</time>
      </trkpt>
      <trkpt lat="40.34666064195334911346435546875" lon="-1.02781419642269611358642578125">
        <ele>1053</ele>
        <time>2021-09-26T07:56:02.000Z</time>
      </trkpt>
      <trkpt lat="40.3466555289924144744873046875" lon="-1.02773322723805904388427734375">
        <ele>1052.5999755859375</ele>
        <time>2021-09-26T07:56:04.000Z</time>
      </trkpt>
      <trkpt lat="40.3466494940221309661865234375" lon="-1.02764974348247051239013671875">
        <ele>1052.199951171875</ele>
        <time>2021-09-26T07:56:06.000Z</time>
      </trkpt>
      <trkpt lat="40.34664354287087917327880859375" lon="-1.0275631584227085113525390625">
        <ele>1052.5999755859375</ele>
        <time>2021-09-26T07:56:08.000Z</time>
      </trkpt>
      <trkpt lat="40.34664102829992771148681640625" lon="-1.02751898579299449920654296875">
        <ele>1052.5999755859375</ele>
        <time>2021-09-26T07:56:09.000Z</time>
      </trkpt>
      <trkpt lat="40.346635915338993072509765625" lon="-1.02747640572488307952880859375">
        <ele>1052.800048828125</ele>
        <time>2021-09-26T07:56:10.000Z</time>
      </trkpt>
      <trkpt lat="40.3466273657977581024169921875" lon="-1.0273901559412479400634765625">
        <ele>1053</ele>
        <time>2021-09-26T07:56:12.000Z</time>
      </trkpt>
      <trkpt lat="40.34661948680877685546875" lon="-1.02730491198599338531494140625">
        <ele>1053.4000244140625</ele>
        <time>2021-09-26T07:56:14.000Z</time>
      </trkpt>
      <trkpt lat="40.34660683013498783111572265625" lon="-1.0272211767733097076416015625">
        <ele>1054</ele>
        <time>2021-09-26T07:56:16.000Z</time>
      </trkpt>
      <trkpt lat="40.346600711345672607421875" lon="-1.02717197500169277191162109375">
        <ele>1054.4000244140625</ele>
        <time>2021-09-26T07:56:17.000Z</time>
      </trkpt>
      <trkpt lat="40.34659559838473796844482421875" lon="-1.02712704800069332122802734375">
        <ele>1054.800048828125</ele>
        <time>2021-09-26T07:56:18.000Z</time>
      </trkpt>
      <trkpt lat="40.34658403135836124420166015625" lon="-1.02703434415161609649658203125">
        <ele>1054.800048828125</ele>
        <time>2021-09-26T07:56:20.000Z</time>
      </trkpt>
      <trkpt lat="40.34656944684684276580810546875" lon="-1.02694666944444179534912109375">
        <ele>1054.800048828125</ele>
        <time>2021-09-26T07:56:22.000Z</time>
      </trkpt>
      <trkpt lat="40.346557796001434326171875" lon="-1.02685622870922088623046875">
        <ele>1054.800048828125</ele>
        <time>2021-09-26T07:56:24.000Z</time>
      </trkpt>
      <trkpt lat="40.346544720232486724853515625" lon="-1.02677282877266407012939453125">
        <ele>1055</ele>
        <time>2021-09-26T07:56:26.000Z</time>
      </trkpt>
      <trkpt lat="40.34653340466320514678955078125" lon="-1.02669035084545612335205078125">
        <ele>1055</ele>
        <time>2021-09-26T07:56:28.000Z</time>
      </trkpt>
      <trkpt lat="40.34652401693165302276611328125" lon="-1.026605777442455291748046875">
        <ele>1055.199951171875</ele>
        <time>2021-09-26T07:56:30.000Z</time>
      </trkpt>
      <trkpt lat="40.34651421010494232177734375" lon="-1.02652556262910366058349609375">
        <ele>1055.800048828125</ele>
        <time>2021-09-26T07:56:32.000Z</time>
      </trkpt>
      <trkpt lat="40.34650557674467563629150390625" lon="-1.0264419950544834136962890625">
        <ele>1056.199951171875</ele>
        <time>2021-09-26T07:56:34.000Z</time>
      </trkpt>
      <trkpt lat="40.34649753011763095855712890625" lon="-1.026355661451816558837890625">
        <ele>1056.5999755859375</ele>
        <time>2021-09-26T07:56:36.000Z</time>
      </trkpt>
      <trkpt lat="40.3464892320334911346435546875" lon="-1.02627477608621120452880859375">
        <ele>1057.4000244140625</ele>
        <time>2021-09-26T07:56:38.000Z</time>
      </trkpt>
      <trkpt lat="40.3464768268167972564697265625" lon="-1.0261930525302886962890625">
        <ele>1057.800048828125</ele>
        <time>2021-09-26T07:56:40.000Z</time>
      </trkpt>
      <trkpt lat="40.34646517597138881683349609375" lon="-1.02610655128955841064453125">
        <ele>1058.199951171875</ele>
        <time>2021-09-26T07:56:42.000Z</time>
      </trkpt>
      <trkpt lat="40.3464597277343273162841796875" lon="-1.02606631815433502197265625">
        <ele>1058.4000244140625</ele>
        <time>2021-09-26T07:56:43.000Z</time>
      </trkpt>
      <trkpt lat="40.34645511768758296966552734375" lon="-1.02602298371493816375732421875">
        <ele>1058.5999755859375</ele>
        <time>2021-09-26T07:56:44.000Z</time>
      </trkpt>
      <trkpt lat="40.3464473225176334381103515625" lon="-1.025935895740985870361328125">
        <ele>1059</ele>
        <time>2021-09-26T07:56:46.000Z</time>
      </trkpt>
      <trkpt lat="40.34643718041479587554931640625" lon="-1.02584847249090671539306640625">
        <ele>1059.4000244140625</ele>
        <time>2021-09-26T07:56:48.000Z</time>
      </trkpt>
      <trkpt lat="40.34642611630260944366455078125" lon="-1.025757528841495513916015625">
        <ele>1060</ele>
        <time>2021-09-26T07:56:50.000Z</time>
      </trkpt>
      <trkpt lat="40.34641404636204242706298828125" lon="-1.0256718657910823822021484375">
        <ele>1060.4000244140625</ele>
        <time>2021-09-26T07:56:52.000Z</time>
      </trkpt>
      <trkpt lat="40.346399880945682525634765625" lon="-1.0255890525877475738525390625">
        <ele>1060.5999755859375</ele>
        <time>2021-09-26T07:56:54.000Z</time>
      </trkpt>
      <trkpt lat="40.34638554789125919342041015625" lon="-1.025503389537334442138671875">
        <ele>1060.800048828125</ele>
        <time>2021-09-26T07:56:56.000Z</time>
      </trkpt>
      <trkpt lat="40.34637683071196079254150390625" lon="-1.0254177264869213104248046875">
        <ele>1060.800048828125</ele>
        <time>2021-09-26T07:56:58.000Z</time>
      </trkpt>
      <trkpt lat="40.346371047198772430419921875" lon="-1.02537573315203189849853515625">
        <ele>1061</ele>
        <time>2021-09-26T07:56:59.000Z</time>
      </trkpt>
      <trkpt lat="40.3463638387620449066162109375" lon="-1.0253332369029521942138671875">
        <ele>1061</ele>
        <time>2021-09-26T07:57:00.000Z</time>
      </trkpt>
      <trkpt lat="40.34634900279343128204345703125" lon="-1.02524933405220508575439453125">
        <ele>1061</ele>
        <time>2021-09-26T07:57:02.000Z</time>
      </trkpt>
      <trkpt lat="40.34633240662515163421630859375" lon="-1.0251657664775848388671875">
        <ele>1061.199951171875</ele>
        <time>2021-09-26T07:57:04.000Z</time>
      </trkpt>
      <trkpt lat="40.34631430171430110931396484375" lon="-1.0250864736735820770263671875">
        <ele>1061.5999755859375</ele>
        <time>2021-09-26T07:57:06.000Z</time>
      </trkpt>
      <trkpt lat="40.3462971188127994537353515625" lon="-1.0250033251941204071044921875">
        <ele>1062.199951171875</ele>
        <time>2021-09-26T07:57:08.000Z</time>
      </trkpt>
      <trkpt lat="40.34627373330295085906982421875" lon="-1.0249211825430393218994140625">
        <ele>1062.800048828125</ele>
        <time>2021-09-26T07:57:10.000Z</time>
      </trkpt>
      <trkpt lat="40.34625059925019741058349609375" lon="-1.02484080009162425994873046875">
        <ele>1063.4000244140625</ele>
        <time>2021-09-26T07:57:12.000Z</time>
      </trkpt>
      <trkpt lat="40.3462280519306659698486328125" lon="-1.0247622616589069366455078125">
        <ele>1063.800048828125</ele>
        <time>2021-09-26T07:57:14.000Z</time>
      </trkpt>
      <trkpt lat="40.34620081074535846710205078125" lon="-1.024687997996807098388671875">
        <ele>1064</ele>
        <time>2021-09-26T07:57:16.000Z</time>
      </trkpt>
      <trkpt lat="40.34616745077073574066162109375" lon="-1.02461750619113445281982421875">
        <ele>1064.5999755859375</ele>
        <time>2021-09-26T07:57:18.000Z</time>
      </trkpt>
      <trkpt lat="40.34614012576639652252197265625" lon="-1.02454324252903461456298828125">
        <ele>1065.4000244140625</ele>
        <time>2021-09-26T07:57:20.000Z</time>
      </trkpt>
      <trkpt lat="40.346109531819820404052734375" lon="-1.0244715772569179534912109375">
        <ele>1065.800048828125</ele>
        <time>2021-09-26T07:57:22.000Z</time>
      </trkpt>
      <trkpt lat="40.3460744954645633697509765625" lon="-1.02440041489899158477783203125">
        <ele>1066</ele>
        <time>2021-09-26T07:57:24.000Z</time>
      </trkpt>
      <trkpt lat="40.34603619016706943511962890625" lon="-1.0243310965597629547119140625">
        <ele>1066.4000244140625</ele>
        <time>2021-09-26T07:57:26.000Z</time>
      </trkpt>
      <trkpt lat="40.34599863924086093902587890625" lon="-1.0242640413343906402587890625">
        <ele>1067.199951171875</ele>
        <time>2021-09-26T07:57:28.000Z</time>
      </trkpt>
      <trkpt lat="40.34595605917274951934814453125" lon="-1.02419623173773288726806640625">
        <ele>1068</ele>
        <time>2021-09-26T07:57:30.000Z</time>
      </trkpt>
      <trkpt lat="40.3459350205957889556884765625" lon="-1.02416723035275936126708984375">
        <ele>1068.4000244140625</ele>
        <time>2021-09-26T07:57:31.000Z</time>
      </trkpt>
      <trkpt lat="40.345915071666240692138671875" lon="-1.02413286454975605010986328125">
        <ele>1068.4000244140625</ele>
        <time>2021-09-26T07:57:32.000Z</time>
      </trkpt>
      <trkpt lat="40.3458671271800994873046875" lon="-1.0240779630839824676513671875">
        <ele>1068.5999755859375</ele>
        <time>2021-09-26T07:57:34.000Z</time>
      </trkpt>
      <trkpt lat="40.34584441222250461578369140625" lon="-1.02404854260385036468505859375">
        <ele>1068.5999755859375</ele>
        <time>2021-09-26T07:57:35.000Z</time>
      </trkpt>
      <trkpt lat="40.34582278691232204437255859375" lon="-1.0240204632282257080078125">
        <ele>1068.800048828125</ele>
        <time>2021-09-26T07:57:36.000Z</time>
      </trkpt>
      <trkpt lat="40.34577651880681514739990234375" lon="-1.023960113525390625">
        <ele>1068.800048828125</ele>
        <time>2021-09-26T07:57:38.000Z</time>
      </trkpt>
      <trkpt lat="40.34572974778711795806884765625" lon="-1.023902781307697296142578125">
        <ele>1069.199951171875</ele>
        <time>2021-09-26T07:57:40.000Z</time>
      </trkpt>
      <trkpt lat="40.34568079747259616851806640625" lon="-1.0238486342132091522216796875">
        <ele>1069.5999755859375</ele>
        <time>2021-09-26T07:57:42.000Z</time>
      </trkpt>
      <trkpt lat="40.34562908113002777099609375" lon="-1.0238023661077022552490234375">
        <ele>1070</ele>
        <time>2021-09-26T07:57:44.000Z</time>
      </trkpt>
      <trkpt lat="40.34557468257844448089599609375" lon="-1.02375601418316364288330078125">
        <ele>1070.4000244140625</ele>
        <time>2021-09-26T07:57:46.000Z</time>
      </trkpt>
      <trkpt lat="40.34551751799881458282470703125" lon="-1.02371393702924251556396484375">
        <ele>1071</ele>
        <time>2021-09-26T07:57:48.000Z</time>
      </trkpt>
      <trkpt lat="40.3454595990478992462158203125" lon="-1.02367336861789226531982421875">
        <ele>1071.800048828125</ele>
        <time>2021-09-26T07:57:50.000Z</time>
      </trkpt>
      <trkpt lat="40.3454004228115081787109375" lon="-1.0236370749771595001220703125">
        <ele>1072.5999755859375</ele>
        <time>2021-09-26T07:57:52.000Z</time>
      </trkpt>
      <trkpt lat="40.34536647610366344451904296875" lon="-1.02362282574176788330078125">
        <ele>1073</ele>
        <time>2021-09-26T07:57:53.000Z</time>
      </trkpt>
      <trkpt lat="40.34533579833805561065673828125" lon="-1.02360597811639308929443359375">
        <ele>1073.4000244140625</ele>
        <time>2021-09-26T07:57:54.000Z</time>
      </trkpt>
      <trkpt lat="40.3452819027006626129150390625" lon="-1.023570187389850616455078125">
        <ele>1073.800048828125</ele>
        <time>2021-09-26T07:57:56.000Z</time>
      </trkpt>
      <trkpt lat="40.34525013528764247894287109375" lon="-1.02355468086898326873779296875">
        <ele>1074.199951171875</ele>
        <time>2021-09-26T07:57:57.000Z</time>
      </trkpt>
      <trkpt lat="40.34521845169365406036376953125" lon="-1.02353992871940135955810546875">
        <ele>1074.199951171875</ele>
        <time>2021-09-26T07:57:58.000Z</time>
      </trkpt>
      <trkpt lat="40.34515692852437496185302734375" lon="-1.02350908331573009490966796875">
        <ele>1074.199951171875</ele>
        <time>2021-09-26T07:58:00.000Z</time>
      </trkpt>
      <trkpt lat="40.3450961597263813018798828125" lon="-1.0234724543988704681396484375">
        <ele>1074</ele>
        <time>2021-09-26T07:58:02.000Z</time>
      </trkpt>
      <trkpt lat="40.34503656439483165740966796875" lon="-1.02343968115746974945068359375">
        <ele>1074</ele>
        <time>2021-09-26T07:58:04.000Z</time>
      </trkpt>
      <trkpt lat="40.344971604645252227783203125" lon="-1.0234127752482891082763671875">
        <ele>1074</ele>
        <time>2021-09-26T07:58:06.000Z</time>
      </trkpt>
      <trkpt lat="40.34493841230869293212890625" lon="-1.0234020464122295379638671875">
        <ele>1074</ele>
        <time>2021-09-26T07:58:07.000Z</time>
      </trkpt>
      <trkpt lat="40.344909243285655975341796875" lon="-1.0233839415013790130615234375">
        <ele>1074</ele>
        <time>2021-09-26T07:58:08.000Z</time>
      </trkpt>
      <trkpt lat="40.344850905239582061767578125" lon="-1.02334924042224884033203125">
        <ele>1074</ele>
        <time>2021-09-26T07:58:10.000Z</time>
      </trkpt>
      <trkpt lat="40.34479617141187191009521484375" lon="-1.02330909110605716705322265625">
        <ele>1073.800048828125</ele>
        <time>2021-09-26T07:58:12.000Z</time>
      </trkpt>
      <trkpt lat="40.34477102570235729217529296875" lon="-1.02328729815781116485595703125">
        <ele>1073.5999755859375</ele>
        <time>2021-09-26T07:58:13.000Z</time>
      </trkpt>
      <trkpt lat="40.34474529325962066650390625" lon="-1.023267768323421478271484375">
        <ele>1073.4000244140625</ele>
        <time>2021-09-26T07:58:14.000Z</time>
      </trkpt>
      <trkpt lat="40.3446837700903415679931640625" lon="-1.0232354141771793365478515625">
        <ele>1073.199951171875</ele>
        <time>2021-09-26T07:58:16.000Z</time>
      </trkpt>
      <trkpt lat="40.34461763687431812286376953125" lon="-1.02320280857384204864501953125">
        <ele>1073</ele>
        <time>2021-09-26T07:58:18.000Z</time>
      </trkpt>
      <trkpt lat="40.34455309621989727020263671875" lon="-1.0231727175414562225341796875">
        <ele>1073</ele>
        <time>2021-09-26T07:58:20.000Z</time>
      </trkpt>
      <trkpt lat="40.34449358470737934112548828125" lon="-1.02312955074012279510498046875">
        <ele>1073</ele>
        <time>2021-09-26T07:58:22.000Z</time>
      </trkpt>
      <trkpt lat="40.34446240402758121490478515625" lon="-1.0231120325624942779541015625">
        <ele>1073</ele>
        <time>2021-09-26T07:58:23.000Z</time>
      </trkpt>
      <trkpt lat="40.34442904405295848846435546875" lon="-1.02309552021324634552001953125">
        <ele>1073</ele>
        <time>2021-09-26T07:58:24.000Z</time>
      </trkpt>
      <trkpt lat="40.34437003545463085174560546875" lon="-1.023061908781528472900390625">
        <ele>1073</ele>
        <time>2021-09-26T07:58:26.000Z</time>
      </trkpt>
      <trkpt lat="40.34430666826665401458740234375" lon="-1.0230258665978908538818359375">
        <ele>1073</ele>
        <time>2021-09-26T07:58:28.000Z</time>
      </trkpt>
      <trkpt lat="40.34424078650772571563720703125" lon="-1.02299326099455356597900390625">
        <ele>1072.5999755859375</ele>
        <time>2021-09-26T07:58:30.000Z</time>
      </trkpt>
      <trkpt lat="40.3442060016095638275146484375" lon="-1.0229759104549884796142578125">
        <ele>1072.4000244140625</ele>
        <time>2021-09-26T07:58:31.000Z</time>
      </trkpt>
      <trkpt lat="40.34417398273944854736328125" lon="-1.022956632077693939208984375">
        <ele>1072.4000244140625</ele>
        <time>2021-09-26T07:58:32.000Z</time>
      </trkpt>
      <trkpt lat="40.34410768188536167144775390625" lon="-1.02291514165699481964111328125">
        <ele>1072</ele>
        <time>2021-09-26T07:58:34.000Z</time>
      </trkpt>
      <trkpt lat="40.3440420515835285186767578125" lon="-1.0228706337511539459228515625">
        <ele>1072.199951171875</ele>
        <time>2021-09-26T07:58:36.000Z</time>
      </trkpt>
      <trkpt lat="40.34400927834212779998779296875" lon="-1.02284255437552928924560546875">
        <ele>1072.199951171875</ele>
        <time>2021-09-26T07:58:37.000Z</time>
      </trkpt>
      <trkpt lat="40.34397591836750507354736328125" lon="-1.0228183306753635406494140625">
        <ele>1072.4000244140625</ele>
        <time>2021-09-26T07:58:38.000Z</time>
      </trkpt>
      <trkpt lat="40.34390802495181560516357421875" lon="-1.02276577614247798919677734375">
        <ele>1072.199951171875</ele>
        <time>2021-09-26T07:58:40.000Z</time>
      </trkpt>
      <trkpt lat="40.34384214319288730621337890625" lon="-1.0227061808109283447265625">
        <ele>1072</ele>
        <time>2021-09-26T07:58:42.000Z</time>
      </trkpt>
      <trkpt lat="40.3437822125852108001708984375" lon="-1.02264256216585636138916015625">
        <ele>1071.800048828125</ele>
        <time>2021-09-26T07:58:44.000Z</time>
      </trkpt>
      <trkpt lat="40.34375178627669811248779296875" lon="-1.0226111300289630889892578125">
        <ele>1071.800048828125</ele>
        <time>2021-09-26T07:58:45.000Z</time>
      </trkpt>
      <trkpt lat="40.34372446127235889434814453125" lon="-1.0225776024162769317626953125">
        <ele>1071.800048828125</ele>
        <time>2021-09-26T07:58:46.000Z</time>
      </trkpt>
      <trkpt lat="40.3436648659408092498779296875" lon="-1.02250610478222370147705078125">
        <ele>1071.800048828125</ele>
        <time>2021-09-26T07:58:48.000Z</time>
      </trkpt>
      <trkpt lat="40.34360778518021106719970703125" lon="-1.02242345921695232391357421875">
        <ele>1072</ele>
        <time>2021-09-26T07:58:50.000Z</time>
      </trkpt>
      <trkpt lat="40.34354693256318569183349609375" lon="-1.02233762852847576141357421875">
        <ele>1072.199951171875</ele>
        <time>2021-09-26T07:58:52.000Z</time>
      </trkpt>
      <trkpt lat="40.3435183502733707427978515625" lon="-1.022294126451015472412109375">
        <ele>1072.4000244140625</ele>
        <time>2021-09-26T07:58:53.000Z</time>
      </trkpt>
      <trkpt lat="40.343489684164524078369140625" lon="-1.022249199450016021728515625">
        <ele>1072.800048828125</ele>
        <time>2021-09-26T07:58:54.000Z</time>
      </trkpt>
      <trkpt lat="40.34343780018389225006103515625" lon="-1.02215020917356014251708984375">
        <ele>1073.199951171875</ele>
        <time>2021-09-26T07:58:56.000Z</time>
      </trkpt>
      <trkpt lat="40.3433860838413238525390625" lon="-1.02205130271613597869873046875">
        <ele>1073.800048828125</ele>
        <time>2021-09-26T07:58:58.000Z</time>
      </trkpt>
      <trkpt lat="40.34333839081227779388427734375" lon="-1.02195189334452152252197265625">
        <ele>1074</ele>
        <time>2021-09-26T07:59:00.000Z</time>
      </trkpt>
      <trkpt lat="40.34329480491578578948974609375" lon="-1.0218473710119724273681640625">
        <ele>1074</ele>
        <time>2021-09-26T07:59:02.000Z</time>
      </trkpt>
      <trkpt lat="40.34326261840760707855224609375" lon="-1.02173882536590099334716796875">
        <ele>1073.5999755859375</ele>
        <time>2021-09-26T07:59:04.000Z</time>
      </trkpt>
      <trkpt lat="40.34324166364967823028564453125" lon="-1.02168668992817401885986328125">
        <ele>1073.199951171875</ele>
        <time>2021-09-26T07:59:05.000Z</time>
      </trkpt>
      <trkpt lat="40.34322037361562252044677734375" lon="-1.02163371630012989044189453125">
        <ele>1072.800048828125</ele>
        <time>2021-09-26T07:59:06.000Z</time>
      </trkpt>
      <trkpt lat="40.34318684600293636322021484375" lon="-1.02152491919696331024169921875">
        <ele>1072.5999755859375</ele>
        <time>2021-09-26T07:59:08.000Z</time>
      </trkpt>
      <trkpt lat="40.34315432421863079071044921875" lon="-1.02141226641833782196044921875">
        <ele>1072</ele>
        <time>2021-09-26T07:59:10.000Z</time>
      </trkpt>
      <trkpt lat="40.3431203775107860565185546875" lon="-1.02130129002034664154052734375">
        <ele>1071.5999755859375</ele>
        <time>2021-09-26T07:59:12.000Z</time>
      </trkpt>
      <trkpt lat="40.3431032784283161163330078125" lon="-1.02124395780265331268310546875">
        <ele>1071.199951171875</ele>
        <time>2021-09-26T07:59:13.000Z</time>
      </trkpt>
      <trkpt lat="40.3430888615548610687255859375" lon="-1.0211875475943088531494140625">
        <ele>1071</ele>
        <time>2021-09-26T07:59:14.000Z</time>
      </trkpt>
      <trkpt lat="40.34306011162698268890380859375" lon="-1.02107816375792026519775390625">
        <ele>1070.5999755859375</ele>
        <time>2021-09-26T07:59:16.000Z</time>
      </trkpt>
      <trkpt lat="40.3430325351655483245849609375" lon="-1.02097540162503719329833984375">
        <ele>1070</ele>
        <time>2021-09-26T07:59:18.000Z</time>
      </trkpt>
      <trkpt lat="40.34301904030144214630126953125" lon="-1.0209223441779613494873046875">
        <ele>1069.800048828125</ele>
        <time>2021-09-26T07:59:19.000Z</time>
      </trkpt>
      <trkpt lat="40.3430053777992725372314453125" lon="-1.0208661854267120361328125">
        <ele>1069.5999755859375</ele>
        <time>2021-09-26T07:59:20.000Z</time>
      </trkpt>
      <trkpt lat="40.3429671563208103179931640625" lon="-1.02075864560902118682861328125">
        <ele>1069</ele>
        <time>2021-09-26T07:59:22.000Z</time>
      </trkpt>
      <trkpt lat="40.34292818047106266021728515625" lon="-1.0206410475075244903564453125">
        <ele>1068.4000244140625</ele>
        <time>2021-09-26T07:59:24.000Z</time>
      </trkpt>
      <trkpt lat="40.34289180301129817962646484375" lon="-1.02052621543407440185546875">
        <ele>1068</ele>
        <time>2021-09-26T07:59:26.000Z</time>
      </trkpt>
      <trkpt lat="40.342856682837009429931640625" lon="-1.0204063542187213897705078125">
        <ele>1067.4000244140625</ele>
        <time>2021-09-26T07:59:28.000Z</time>
      </trkpt>
      <trkpt lat="40.3428189642727375030517578125" lon="-1.02028775028884410858154296875">
        <ele>1067.199951171875</ele>
        <time>2021-09-26T07:59:30.000Z</time>
      </trkpt>
      <trkpt lat="40.34278317354619503021240234375" lon="-1.02017124183475971221923828125">
        <ele>1066.4000244140625</ele>
        <time>2021-09-26T07:59:32.000Z</time>
      </trkpt>
      <trkpt lat="40.34274914301931858062744140625" lon="-1.02005942724645137786865234375">
        <ele>1066.4000244140625</ele>
        <time>2021-09-26T07:59:34.000Z</time>
      </trkpt>
      <trkpt lat="40.3427316248416900634765625" lon="-1.02000695653259754180908203125">
        <ele>1066.5999755859375</ele>
        <time>2021-09-26T07:59:35.000Z</time>
      </trkpt>
      <trkpt lat="40.3427153639495372772216796875" lon="-1.01995415054261684417724609375">
        <ele>1066.800048828125</ele>
        <time>2021-09-26T07:59:36.000Z</time>
      </trkpt>
      <trkpt lat="40.34268158487975597381591796875" lon="-1.0198541544377803802490234375">
        <ele>1067.199951171875</ele>
        <time>2021-09-26T07:59:38.000Z</time>
      </trkpt>
      <trkpt lat="40.34265182912349700927734375" lon="-1.019752062857151031494140625">
        <ele>1068.199951171875</ele>
        <time>2021-09-26T07:59:40.000Z</time>
      </trkpt>
      <trkpt lat="40.3426188044250011444091796875" lon="-1.01964854635298252105712890625">
        <ele>1068.800048828125</ele>
        <time>2021-09-26T07:59:42.000Z</time>
      </trkpt>
      <trkpt lat="40.3425867855548858642578125" lon="-1.01955500431358814239501953125">
        <ele>1069.199951171875</ele>
        <time>2021-09-26T07:59:44.000Z</time>
      </trkpt>
      <trkpt lat="40.342555940151214599609375" lon="-1.01946003735065460205078125">
        <ele>1070</ele>
        <time>2021-09-26T07:59:46.000Z</time>
      </trkpt>
      <trkpt lat="40.3425299562513828277587890625" lon="-1.01935484446585178375244140625">
        <ele>1070.5999755859375</ele>
        <time>2021-09-26T07:59:48.000Z</time>
      </trkpt>
      <trkpt lat="40.34250573255121707916259765625" lon="-1.0192570276558399200439453125">
        <ele>1071.4000244140625</ele>
        <time>2021-09-26T07:59:50.000Z</time>
      </trkpt>
      <trkpt lat="40.34248611889779567718505859375" lon="-1.01917865686118602752685546875">
        <ele>1071.5999755859375</ele>
        <time>2021-09-26T07:59:52.000Z</time>
      </trkpt>
      <trkpt lat="40.342466421425342559814453125" lon="-1.0191219113767147064208984375">
        <ele>1071.800048828125</ele>
        <time>2021-09-26T07:59:54.000Z</time>
      </trkpt>
      <trkpt lat="40.342456363141536712646484375" lon="-1.0190967656672000885009765625">
        <ele>1071.800048828125</ele>
        <time>2021-09-26T07:59:55.000Z</time>
      </trkpt>
      <trkpt lat="40.3424473106861114501953125" lon="-1.01907245814800262451171875">
        <ele>1072</ele>
        <time>2021-09-26T07:59:56.000Z</time>
      </trkpt>
      <trkpt lat="40.342426188290119171142578125" lon="-1.01903247646987438201904296875">
        <ele>1072.199951171875</ele>
        <time>2021-09-26T07:59:58.000Z</time>
      </trkpt>
      <trkpt lat="40.3424142859876155853271484375" lon="-1.01898537017405033111572265625">
        <ele>1072.199951171875</ele>
        <time>2021-09-26T08:00:00.000Z</time>
      </trkpt>
      <trkpt lat="40.34240783192217350006103515625" lon="-1.01894128136336803436279296875">
        <ele>1072.199951171875</ele>
        <time>2021-09-26T08:00:02.000Z</time>
      </trkpt>
      <trkpt lat="40.3424008749425411224365234375" lon="-1.01892200298607349395751953125">
        <ele>1072.199951171875</ele>
        <time>2021-09-26T08:00:03.000Z</time>
      </trkpt>
      <trkpt lat="40.34239492379128932952880859375" lon="-1.01891362108290195465087890625">
        <ele>1072.199951171875</ele>
        <time>2021-09-26T08:00:04.000Z</time>
      </trkpt>
      <trkpt lat="40.34239509142935276031494140625" lon="-1.0189100168645381927490234375">
        <ele>1072.199951171875</ele>
        <time>2021-09-26T08:00:05.000Z</time>
      </trkpt>
      <trkpt lat="40.34238360822200775146484375" lon="-1.0188625752925872802734375">
        <ele>1072.199951171875</ele>
        <time>2021-09-26T08:01:35.000Z</time>
      </trkpt>
      <trkpt lat="40.34237556159496307373046875" lon="-1.0188318975269794464111328125">
        <ele>1072.199951171875</ele>
        <time>2021-09-26T08:01:36.000Z</time>
      </trkpt>
      <trkpt lat="40.34235502593219280242919921875" lon="-1.0187571309506893157958984375">
        <ele>1072.4000244140625</ele>
        <time>2021-09-26T08:01:38.000Z</time>
      </trkpt>
      <trkpt lat="40.34233273006975650787353515625" lon="-1.0186810232698917388916015625">
        <ele>1072.800048828125</ele>
        <time>2021-09-26T08:01:40.000Z</time>
      </trkpt>
      <trkpt lat="40.342320911586284637451171875" lon="-1.0186367668211460113525390625">
        <ele>1073</ele>
        <time>2021-09-26T08:01:41.000Z</time>
      </trkpt>
      <trkpt lat="40.34230791963636875152587890625" lon="-1.01858991198241710662841796875">
        <ele>1073.199951171875</ele>
        <time>2021-09-26T08:01:42.000Z</time>
      </trkpt>
      <trkpt lat="40.34229115583002567291259765625" lon="-1.01853811182081699371337890625">
        <ele>1073.4000244140625</ele>
        <time>2021-09-26T08:01:43.000Z</time>
      </trkpt>
      <trkpt lat="40.34227724187076091766357421875" lon="-1.01848547346889972686767578125">
        <ele>1073.5999755859375</ele>
        <time>2021-09-26T08:01:44.000Z</time>
      </trkpt>
      <trkpt lat="40.3422607295215129852294921875" lon="-1.01843141019344329833984375">
        <ele>1073.800048828125</ele>
        <time>2021-09-26T08:01:45.000Z</time>
      </trkpt>
      <trkpt lat="40.34224388189613819122314453125" lon="-1.01837818510830402374267578125">
        <ele>1074.199951171875</ele>
        <time>2021-09-26T08:01:46.000Z</time>
      </trkpt>
      <trkpt lat="40.34221194684505462646484375" lon="-1.01827827282249927520751953125">
        <ele>1074.5999755859375</ele>
        <time>2021-09-26T08:01:48.000Z</time>
      </trkpt>
      <trkpt lat="40.3421871364116668701171875" lon="-1.01816880516707897186279296875">
        <ele>1075</ele>
        <time>2021-09-26T08:01:50.000Z</time>
      </trkpt>
      <trkpt lat="40.34217297099530696868896484375" lon="-1.01811666972935199737548828125">
        <ele>1075</ele>
        <time>2021-09-26T08:01:51.000Z</time>
      </trkpt>
      <trkpt lat="40.34215838648378849029541015625" lon="-1.01806218735873699188232421875">
        <ele>1075.199951171875</ele>
        <time>2021-09-26T08:01:52.000Z</time>
      </trkpt>
      <trkpt lat="40.34212502650916576385498046875" lon="-1.017954312264919281005859375">
        <ele>1075.4000244140625</ele>
        <time>2021-09-26T08:01:54.000Z</time>
      </trkpt>
      <trkpt lat="40.342094264924526214599609375" lon="-1.01784425787627696990966796875">
        <ele>1075.800048828125</ele>
        <time>2021-09-26T08:01:56.000Z</time>
      </trkpt>
      <trkpt lat="40.34206082113087177276611328125" lon="-1.0177362151443958282470703125">
        <ele>1076.4000244140625</ele>
        <time>2021-09-26T08:01:58.000Z</time>
      </trkpt>
      <trkpt lat="40.34202779643237590789794921875" lon="-1.01762716658413410186767578125">
        <ele>1076</ele>
        <time>2021-09-26T08:02:00.000Z</time>
      </trkpt>
      <trkpt lat="40.34199644811451435089111328125" lon="-1.0175169445574283599853515625">
        <ele>1075.4000244140625</ele>
        <time>2021-09-26T08:02:02.000Z</time>
      </trkpt>
      <trkpt lat="40.34196543507277965545654296875" lon="-1.01740202866494655609130859375">
        <ele>1074.4000244140625</ele>
        <time>2021-09-26T08:02:04.000Z</time>
      </trkpt>
      <trkpt lat="40.34194749779999256134033203125" lon="-1.01734804920852184295654296875">
        <ele>1074.199951171875</ele>
        <time>2021-09-26T08:02:05.000Z</time>
      </trkpt>
      <trkpt lat="40.34193039871752262115478515625" lon="-1.01729423739016056060791015625">
        <ele>1073.800048828125</ele>
        <time>2021-09-26T08:02:06.000Z</time>
      </trkpt>
      <trkpt lat="40.34189837984740734100341796875" lon="-1.01718912832438945770263671875">
        <ele>1072.800048828125</ele>
        <time>2021-09-26T08:02:08.000Z</time>
      </trkpt>
      <trkpt lat="40.3418738208711147308349609375" lon="-1.01708871312439441680908203125">
        <ele>1071.800048828125</ele>
        <time>2021-09-26T08:02:10.000Z</time>
      </trkpt>
      <trkpt lat="40.341849513351917266845703125" lon="-1.0169986076653003692626953125">
        <ele>1071</ele>
        <time>2021-09-26T08:02:12.000Z</time>
      </trkpt>
      <trkpt lat="40.341838113963603973388671875" lon="-1.01695544086396694183349609375">
        <ele>1070.5999755859375</ele>
        <time>2021-09-26T08:02:13.000Z</time>
      </trkpt>
      <trkpt lat="40.3418258763849735260009765625" lon="-1.01690900512039661407470703125">
        <ele>1070.199951171875</ele>
        <time>2021-09-26T08:02:14.000Z</time>
      </trkpt>
      <trkpt lat="40.34181171096861362457275390625" lon="-1.01686391048133373260498046875">
        <ele>1069.800048828125</ele>
        <time>2021-09-26T08:02:15.000Z</time>
      </trkpt>
      <trkpt lat="40.34179897047579288482666015625" lon="-1.0168178938329219818115234375">
        <ele>1069.4000244140625</ele>
        <time>2021-09-26T08:02:16.000Z</time>
      </trkpt>
      <trkpt lat="40.3417722322046756744384765625" lon="-1.0167248547077178955078125">
        <ele>1068.800048828125</ele>
        <time>2021-09-26T08:02:18.000Z</time>
      </trkpt>
      <trkpt lat="40.3417553007602691650390625" lon="-1.0166727192699909210205078125">
        <ele>1068.4000244140625</ele>
        <time>2021-09-26T08:02:19.000Z</time>
      </trkpt>
      <trkpt lat="40.34174121916294097900390625" lon="-1.01662100292742252349853515625">
        <ele>1068</ele>
        <time>2021-09-26T08:02:20.000Z</time>
      </trkpt>
      <trkpt lat="40.34172487445175647735595703125" lon="-1.016572974622249603271484375">
        <ele>1067.4000244140625</ele>
        <time>2021-09-26T08:02:21.000Z</time>
      </trkpt>
      <trkpt lat="40.34170978702604770660400390625" lon="-1.0165228508412837982177734375">
        <ele>1067</ele>
        <time>2021-09-26T08:02:22.000Z</time>
      </trkpt>
      <trkpt lat="40.34167952835559844970703125" lon="-1.0164217650890350341796875">
        <ele>1066.199951171875</ele>
        <time>2021-09-26T08:02:24.000Z</time>
      </trkpt>
      <trkpt lat="40.3416491858661174774169921875" lon="-1.01632721722126007080078125">
        <ele>1065.5999755859375</ele>
        <time>2021-09-26T08:02:26.000Z</time>
      </trkpt>
      <trkpt lat="40.34163401462137699127197265625" lon="-1.016279943287372589111328125">
        <ele>1065.199951171875</ele>
        <time>2021-09-26T08:02:27.000Z</time>
      </trkpt>
      <trkpt lat="40.34161783754825592041015625" lon="-1.0162361897528171539306640625">
        <ele>1064.800048828125</ele>
        <time>2021-09-26T08:02:28.000Z</time>
      </trkpt>
      <trkpt lat="40.34158741123974323272705078125" lon="-1.01614893414080142974853515625">
        <ele>1064.4000244140625</ele>
        <time>2021-09-26T08:02:30.000Z</time>
      </trkpt>
      <trkpt lat="40.3415579907596111297607421875" lon="-1.0160548053681850433349609375">
        <ele>1063.800048828125</ele>
        <time>2021-09-26T08:02:32.000Z</time>
      </trkpt>
      <trkpt lat="40.3415204398334026336669921875" lon="-1.0159649513661861419677734375">
        <ele>1063.5999755859375</ele>
        <time>2021-09-26T08:02:34.000Z</time>
      </trkpt>
      <trkpt lat="40.3414843976497650146484375" lon="-1.01587937213480472564697265625">
        <ele>1063.5999755859375</ele>
        <time>2021-09-26T08:02:36.000Z</time>
      </trkpt>
      <trkpt lat="40.3414530493319034576416015625" lon="-1.01579907350242137908935546875">
        <ele>1063.5999755859375</ele>
        <time>2021-09-26T08:02:38.000Z</time>
      </trkpt>
      <trkpt lat="40.341414995491504669189453125" lon="-1.0157215408980846405029296875">
        <ele>1064</ele>
        <time>2021-09-26T08:02:40.000Z</time>
      </trkpt>
      <trkpt lat="40.3413732536137104034423828125" lon="-1.01564568467438220977783203125">
        <ele>1064</ele>
        <time>2021-09-26T08:02:42.000Z</time>
      </trkpt>
      <trkpt lat="40.34135171212255954742431640625" lon="-1.0156068764626979827880859375">
        <ele>1064</ele>
        <time>2021-09-26T08:02:43.000Z</time>
      </trkpt>
      <trkpt lat="40.34133352339267730712890625" lon="-1.0155715048313140869140625">
        <ele>1064</ele>
        <time>2021-09-26T08:02:44.000Z</time>
      </trkpt>
      <trkpt lat="40.34129186533391475677490234375" lon="-1.01550185121595859527587890625">
        <ele>1063.800048828125</ele>
        <time>2021-09-26T08:02:46.000Z</time>
      </trkpt>
      <trkpt lat="40.34124677069485187530517578125" lon="-1.01543747819960117340087890625">
        <ele>1063.4000244140625</ele>
        <time>2021-09-26T08:02:48.000Z</time>
      </trkpt>
      <trkpt lat="40.3411999158561229705810546875" lon="-1.01537461392581462860107421875">
        <ele>1062.800048828125</ele>
        <time>2021-09-26T08:02:50.000Z</time>
      </trkpt>
      <trkpt lat="40.3411573357880115509033203125" lon="-1.01531811989843845367431640625">
        <ele>1062.4000244140625</ele>
        <time>2021-09-26T08:02:52.000Z</time>
      </trkpt>
      <trkpt lat="40.34111148677766323089599609375" lon="-1.01526631973683834075927734375">
        <ele>1062.199951171875</ele>
        <time>2021-09-26T08:02:54.000Z</time>
      </trkpt>
      <trkpt lat="40.34107360057532787322998046875" lon="-1.01520731113851070404052734375">
        <ele>1062</ele>
        <time>2021-09-26T08:02:56.000Z</time>
      </trkpt>
      <trkpt lat="40.34103051759302616119384765625" lon="-1.0151552595198154449462890625">
        <ele>1061.800048828125</ele>
        <time>2021-09-26T08:02:58.000Z</time>
      </trkpt>
      <trkpt lat="40.34098307602107524871826171875" lon="-1.01510069333016872406005859375">
        <ele>1061.5999755859375</ele>
        <time>2021-09-26T08:03:00.000Z</time>
      </trkpt>
      <trkpt lat="40.34093496389687061309814453125" lon="-1.01504755206406116485595703125">
        <ele>1061.5999755859375</ele>
        <time>2021-09-26T08:03:02.000Z</time>
      </trkpt>
      <trkpt lat="40.34088559448719024658203125" lon="-1.01499524898827075958251953125">
        <ele>1061.5999755859375</ele>
        <time>2021-09-26T08:03:04.000Z</time>
      </trkpt>
      <trkpt lat="40.34084133803844451904296875" lon="-1.01493674330413341522216796875">
        <ele>1061.800048828125</ele>
        <time>2021-09-26T08:03:06.000Z</time>
      </trkpt>
      <trkpt lat="40.34079574048519134521484375" lon="-1.0148820094764232635498046875">
        <ele>1062</ele>
        <time>2021-09-26T08:03:08.000Z</time>
      </trkpt>
      <trkpt lat="40.34074905328452587127685546875" lon="-1.01482375524938106536865234375">
        <ele>1062.4000244140625</ele>
        <time>2021-09-26T08:03:10.000Z</time>
      </trkpt>
      <trkpt lat="40.340700857341289520263671875" lon="-1.01476239971816539764404296875">
        <ele>1063</ele>
        <time>2021-09-26T08:03:12.000Z</time>
      </trkpt>
      <trkpt lat="40.340646542608737945556640625" lon="-1.01469777524471282958984375">
        <ele>1063.800048828125</ele>
        <time>2021-09-26T08:03:14.000Z</time>
      </trkpt>
      <trkpt lat="40.340592227876186370849609375" lon="-1.01463164202868938446044921875">
        <ele>1064.4000244140625</ele>
        <time>2021-09-26T08:03:16.000Z</time>
      </trkpt>
      <trkpt lat="40.340566076338291168212890625" lon="-1.014596521854400634765625">
        <ele>1064.800048828125</ele>
        <time>2021-09-26T08:03:17.000Z</time>
      </trkpt>
      <trkpt lat="40.34053816460072994232177734375" lon="-1.01456475444138050079345703125">
        <ele>1065</ele>
        <time>2021-09-26T08:03:18.000Z</time>
      </trkpt>
      <trkpt lat="40.34048384986817836761474609375" lon="-1.0144977830350399017333984375">
        <ele>1065.5999755859375</ele>
        <time>2021-09-26T08:03:20.000Z</time>
      </trkpt>
      <trkpt lat="40.34042567946016788482666015625" lon="-1.01443248800933361053466796875">
        <ele>1066.199951171875</ele>
        <time>2021-09-26T08:03:22.000Z</time>
      </trkpt>
      <trkpt lat="40.34037119708955287933349609375" lon="-1.01436811499297618865966796875">
        <ele>1067</ele>
        <time>2021-09-26T08:03:24.000Z</time>
      </trkpt>
      <trkpt lat="40.340316295623779296875" lon="-1.01430323906242847442626953125">
        <ele>1068.199951171875</ele>
        <time>2021-09-26T08:03:26.000Z</time>
      </trkpt>
      <trkpt lat="40.3402598015964031219482421875" lon="-1.01422972977161407470703125">
        <ele>1069.5999755859375</ele>
        <time>2021-09-26T08:03:28.000Z</time>
      </trkpt>
      <trkpt lat="40.3402024693787097930908203125" lon="-1.01416669785976409912109375">
        <ele>1070.800048828125</ele>
        <time>2021-09-26T08:03:30.000Z</time>
      </trkpt>
      <trkpt lat="40.3401468135416507720947265625" lon="-1.01410634815692901611328125">
        <ele>1071.800048828125</ele>
        <time>2021-09-26T08:03:32.000Z</time>
      </trkpt>
      <trkpt lat="40.34009258262813091278076171875" lon="-1.0140478424727916717529296875">
        <ele>1072.4000244140625</ele>
        <time>2021-09-26T08:03:34.000Z</time>
      </trkpt>
      <trkpt lat="40.34003994427621364593505859375" lon="-1.0139851458370685577392578125">
        <ele>1073.199951171875</ele>
        <time>2021-09-26T08:03:36.000Z</time>
      </trkpt>
      <trkpt lat="40.339986383914947509765625" lon="-1.0139261372387409210205078125">
        <ele>1074.199951171875</ele>
        <time>2021-09-26T08:03:38.000Z</time>
      </trkpt>
      <trkpt lat="40.33992980606853961944580078125" lon="-1.0138604231178760528564453125">
        <ele>1075.5999755859375</ele>
        <time>2021-09-26T08:03:40.000Z</time>
      </trkpt>
      <trkpt lat="40.33987431786954402923583984375" lon="-1.01379177533090114593505859375">
        <ele>1077</ele>
        <time>2021-09-26T08:03:42.000Z</time>
      </trkpt>
      <trkpt lat="40.33982343971729278564453125" lon="-1.01372237317264080047607421875">
        <ele>1078.5999755859375</ele>
        <time>2021-09-26T08:03:44.000Z</time>
      </trkpt>
      <trkpt lat="40.33976853825151920318603515625" lon="-1.013658083975315093994140625">
        <ele>1080</ele>
        <time>2021-09-26T08:03:46.000Z</time>
      </trkpt>
      <trkpt lat="40.33971120603382587432861328125" lon="-1.0135938785970211029052734375">
        <ele>1081.199951171875</ele>
        <time>2021-09-26T08:03:48.000Z</time>
      </trkpt>
      <trkpt lat="40.33965622074902057647705078125" lon="-1.013529002666473388671875">
        <ele>1082.199951171875</ele>
        <time>2021-09-26T08:03:50.000Z</time>
      </trkpt>
      <trkpt lat="40.33960676752030849456787109375" lon="-1.013469658792018890380859375">
        <ele>1083</ele>
        <time>2021-09-26T08:03:52.000Z</time>
      </trkpt>
      <trkpt lat="40.33955521881580352783203125" lon="-1.01340830326080322265625">
        <ele>1083.800048828125</ele>
        <time>2021-09-26T08:03:54.000Z</time>
      </trkpt>
      <trkpt lat="40.3395050950348377227783203125" lon="-1.01333789527416229248046875">
        <ele>1084.5999755859375</ele>
        <time>2021-09-26T08:03:56.000Z</time>
      </trkpt>
      <trkpt lat="40.339455641806125640869140625" lon="-1.01327545009553432464599609375">
        <ele>1085.5999755859375</ele>
        <time>2021-09-26T08:03:58.000Z</time>
      </trkpt>
      <trkpt lat="40.33939839340746402740478515625" lon="-1.01321795023977756500244140625">
        <ele>1086.5999755859375</ele>
        <time>2021-09-26T08:04:00.000Z</time>
      </trkpt>
      <trkpt lat="40.33934726379811763763427734375" lon="-1.01315307430922985076904296875">
        <ele>1087.199951171875</ele>
        <time>2021-09-26T08:04:02.000Z</time>
      </trkpt>
      <trkpt lat="40.33929630182683467864990234375" lon="-1.01309004239737987518310546875">
        <ele>1087.800048828125</ele>
        <time>2021-09-26T08:04:04.000Z</time>
      </trkpt>
      <trkpt lat="40.33924584276974201202392578125" lon="-1.0130306147038936614990234375">
        <ele>1088.199951171875</ele>
        <time>2021-09-26T08:04:06.000Z</time>
      </trkpt>
      <trkpt lat="40.33918700180947780609130859375" lon="-1.01297319866716861724853515625">
        <ele>1088.199951171875</ele>
        <time>2021-09-26T08:04:08.000Z</time>
      </trkpt>
      <trkpt lat="40.33912749029695987701416015625" lon="-1.01291301660239696502685546875">
        <ele>1088.199951171875</ele>
        <time>2021-09-26T08:04:10.000Z</time>
      </trkpt>
      <trkpt lat="40.3390695713460445404052734375" lon="-1.012856103479862213134765625">
        <ele>1088.800048828125</ele>
        <time>2021-09-26T08:04:12.000Z</time>
      </trkpt>
      <trkpt lat="40.33904425799846649169921875" lon="-1.01282450370490550994873046875">
        <ele>1089.199951171875</ele>
        <time>2021-09-26T08:04:13.000Z</time>
      </trkpt>
      <trkpt lat="40.3390206210315227508544921875" lon="-1.01278728805482387542724609375">
        <ele>1089.5999755859375</ele>
        <time>2021-09-26T08:04:14.000Z</time>
      </trkpt>
      <trkpt lat="40.3389646299183368682861328125" lon="-1.01271654479205608367919921875">
        <ele>1090</ele>
        <time>2021-09-26T08:04:16.000Z</time>
      </trkpt>
      <trkpt lat="40.33891023136675357818603515625" lon="-1.01265527307987213134765625">
        <ele>1089.800048828125</ele>
        <time>2021-09-26T08:04:18.000Z</time>
      </trkpt>
      <trkpt lat="40.33888374455273151397705078125" lon="-1.01262308657169342041015625">
        <ele>1089.5999755859375</ele>
        <time>2021-09-26T08:04:19.000Z</time>
      </trkpt>
      <trkpt lat="40.33885843120515346527099609375" lon="-1.01259148679673671722412109375">
        <ele>1089.4000244140625</ele>
        <time>2021-09-26T08:04:20.000Z</time>
      </trkpt>
      <trkpt lat="40.33880864270031452178955078125" lon="-1.01252518594264984130859375">
        <ele>1089.5999755859375</ele>
        <time>2021-09-26T08:04:22.000Z</time>
      </trkpt>
      <trkpt lat="40.33875768072903156280517578125" lon="-1.0124606452882289886474609375">
        <ele>1090</ele>
        <time>2021-09-26T08:04:24.000Z</time>
      </trkpt>
      <trkpt lat="40.3387342952191829681396484375" lon="-1.01242753677070140838623046875">
        <ele>1090.4000244140625</ele>
        <time>2021-09-26T08:04:25.000Z</time>
      </trkpt>
      <trkpt lat="40.33870822750031948089599609375" lon="-1.01239233277738094329833984375">
        <ele>1090.800048828125</ele>
        <time>2021-09-26T08:04:26.000Z</time>
      </trkpt>
      <trkpt lat="40.33865340985357761383056640625" lon="-1.01232661865651607513427734375">
        <ele>1091.5999755859375</ele>
        <time>2021-09-26T08:04:28.000Z</time>
      </trkpt>
      <trkpt lat="40.33859859220683574676513671875" lon="-1.01226828061044216156005859375">
        <ele>1092</ele>
        <time>2021-09-26T08:04:30.000Z</time>
      </trkpt>
      <trkpt lat="40.33857311122119426727294921875" lon="-1.01224095560610294342041015625">
        <ele>1092</ele>
        <time>2021-09-26T08:04:31.000Z</time>
      </trkpt>
      <trkpt lat="40.33854746259748935699462890625" lon="-1.0122219286859035491943359375">
        <ele>1092.199951171875</ele>
        <time>2021-09-26T08:04:32.000Z</time>
      </trkpt>
      <trkpt lat="40.3385071456432342529296875" lon="-1.01219200529158115386962890625">
        <ele>1092.4000244140625</ele>
        <time>2021-09-26T08:04:34.000Z</time>
      </trkpt>
      <trkpt lat="40.3384825028479099273681640625" lon="-1.012175492942333221435546875">
        <ele>1092.5999755859375</ele>
        <time>2021-09-26T08:04:36.000Z</time>
      </trkpt>
      <trkpt lat="40.3384600393474102020263671875" lon="-1.0121612437069416046142578125">
        <ele>1092.800048828125</ele>
        <time>2021-09-26T08:04:38.000Z</time>
      </trkpt>
      <trkpt lat="40.33843137323856353759765625" lon="-1.01214322261512279510498046875">
        <ele>1093</ele>
        <time>2021-09-26T08:04:40.000Z</time>
      </trkpt>
      <trkpt lat="40.338394157588481903076171875" lon="-1.0121193341910839080810546875">
        <ele>1093.199951171875</ele>
        <time>2021-09-26T08:04:42.000Z</time>
      </trkpt>
      <trkpt lat="40.3383487276732921600341796875" lon="-1.0120801068842411041259765625">
        <ele>1093.5999755859375</ele>
        <time>2021-09-26T08:04:44.000Z</time>
      </trkpt>
      <trkpt lat="40.3383088298141956329345703125" lon="-1.01202101446688175201416015625">
        <ele>1094</ele>
        <time>2021-09-26T08:04:46.000Z</time>
      </trkpt>
      <trkpt lat="40.33828360028564929962158203125" lon="-1.01199352182447910308837890625">
        <ele>1094</ele>
        <time>2021-09-26T08:04:47.000Z</time>
      </trkpt>
      <trkpt lat="40.3382635675370693206787109375" lon="-1.011966951191425323486328125">
        <ele>1094</ele>
        <time>2021-09-26T08:04:48.000Z</time>
      </trkpt>
      <trkpt lat="40.33822459168732166290283203125" lon="-1.0119064338505268096923828125">
        <ele>1093.800048828125</ele>
        <time>2021-09-26T08:04:50.000Z</time>
      </trkpt>
      <trkpt lat="40.33820112235844135284423828125" lon="-1.0118779353797435760498046875">
        <ele>1093.5999755859375</ele>
        <time>2021-09-26T08:04:51.000Z</time>
      </trkpt>
      <trkpt lat="40.3381790779531002044677734375" lon="-1.01184432394802570343017578125">
        <ele>1093.4000244140625</ele>
        <time>2021-09-26T08:04:52.000Z</time>
      </trkpt>
      <trkpt lat="40.3381328098475933074951171875" lon="-1.0117666237056255340576171875">
        <ele>1092.800048828125</ele>
        <time>2021-09-26T08:04:54.000Z</time>
      </trkpt>
      <trkpt lat="40.33810623921453952789306640625" lon="-1.01173301227390766143798828125">
        <ele>1092.5999755859375</ele>
        <time>2021-09-26T08:04:55.000Z</time>
      </trkpt>
      <trkpt lat="40.33807824365794658660888671875" lon="-1.01169512607157230377197265625">
        <ele>1092.4000244140625</ele>
        <time>2021-09-26T08:04:56.000Z</time>
      </trkpt>
      <trkpt lat="40.3380308859050273895263671875" lon="-1.0116261430084705352783203125">
        <ele>1092.199951171875</ele>
        <time>2021-09-26T08:04:58.000Z</time>
      </trkpt>
      <trkpt lat="40.33797514624893665313720703125" lon="-1.0115584172308444976806640625">
        <ele>1091.4000244140625</ele>
        <time>2021-09-26T08:05:00.000Z</time>
      </trkpt>
      <trkpt lat="40.3379152156412601470947265625" lon="-1.01148289628326892852783203125">
        <ele>1089.800048828125</ele>
        <time>2021-09-26T08:05:02.000Z</time>
      </trkpt>
      <trkpt lat="40.33785595558583736419677734375" lon="-1.01141617633402347564697265625">
        <ele>1088.199951171875</ele>
        <time>2021-09-26T08:05:04.000Z</time>
      </trkpt>
      <trkpt lat="40.3377955220639705657958984375" lon="-1.01134727708995342254638671875">
        <ele>1087.5999755859375</ele>
        <time>2021-09-26T08:05:06.000Z</time>
      </trkpt>
      <trkpt lat="40.33773802220821380615234375" lon="-1.011276282370090484619140625">
        <ele>1087</ele>
        <time>2021-09-26T08:05:08.000Z</time>
      </trkpt>
      <trkpt lat="40.3377105295658111572265625" lon="-1.01124317385256290435791015625">
        <ele>1086.4000244140625</ele>
        <time>2021-09-26T08:05:09.000Z</time>
      </trkpt>
      <trkpt lat="40.33767842687666416168212890625" lon="-1.01121366955339908599853515625">
        <ele>1085.800048828125</ele>
        <time>2021-09-26T08:05:10.000Z</time>
      </trkpt>
      <trkpt lat="40.3376201726496219635009765625" lon="-1.01114912889897823333740234375">
        <ele>1084.5999755859375</ele>
        <time>2021-09-26T08:05:12.000Z</time>
      </trkpt>
      <trkpt lat="40.33756141550838947296142578125" lon="-1.01108014583587646484375">
        <ele>1083.800048828125</ele>
        <time>2021-09-26T08:05:14.000Z</time>
      </trkpt>
      <trkpt lat="40.33749796450138092041015625" lon="-1.01102574728429317474365234375">
        <ele>1083.199951171875</ele>
        <time>2021-09-26T08:05:16.000Z</time>
      </trkpt>
      <trkpt lat="40.3374407999217510223388671875" lon="-1.01095953024923801422119140625">
        <ele>1082.800048828125</ele>
        <time>2021-09-26T08:05:18.000Z</time>
      </trkpt>
      <trkpt lat="40.3373824618756771087646484375" lon="-1.0108892060816287994384765625">
        <ele>1082.4000244140625</ele>
        <time>2021-09-26T08:05:20.000Z</time>
      </trkpt>
      <trkpt lat="40.33731917850673198699951171875" lon="-1.010829024016857147216796875">
        <ele>1081.5999755859375</ele>
        <time>2021-09-26T08:05:22.000Z</time>
      </trkpt>
      <trkpt lat="40.3372567333281040191650390625" lon="-1.0107631422579288482666015625">
        <ele>1081</ele>
        <time>2021-09-26T08:05:24.000Z</time>
      </trkpt>
      <trkpt lat="40.33719579689204692840576171875" lon="-1.010704971849918365478515625">
        <ele>1080.4000244140625</ele>
        <time>2021-09-26T08:05:26.000Z</time>
      </trkpt>
      <trkpt lat="40.33713242970407009124755859375" lon="-1.01065258495509624481201171875">
        <ele>1079.800048828125</ele>
        <time>2021-09-26T08:05:28.000Z</time>
      </trkpt>
      <trkpt lat="40.33706705085933208465576171875" lon="-1.01059843786060810089111328125">
        <ele>1079.4000244140625</ele>
        <time>2021-09-26T08:05:30.000Z</time>
      </trkpt>
      <trkpt lat="40.33699697814881801605224609375" lon="-1.01055904291570186614990234375">
        <ele>1079</ele>
        <time>2021-09-26T08:05:32.000Z</time>
      </trkpt>
      <trkpt lat="40.336923636496067047119140625" lon="-1.01052425801753997802734375">
        <ele>1078.199951171875</ele>
        <time>2021-09-26T08:05:34.000Z</time>
      </trkpt>
      <trkpt lat="40.33685423433780670166015625" lon="-1.01048670709133148193359375">
        <ele>1078.199951171875</ele>
        <time>2021-09-26T08:05:36.000Z</time>
      </trkpt>
      <trkpt lat="40.33678608946502208709716796875" lon="-1.01044957526028156280517578125">
        <ele>1078</ele>
        <time>2021-09-26T08:05:38.000Z</time>
      </trkpt>
      <trkpt lat="40.33671417273581027984619140625" lon="-1.010427363216876983642578125">
        <ele>1077.5999755859375</ele>
        <time>2021-09-26T08:05:40.000Z</time>
      </trkpt>
      <trkpt lat="40.33664108254015445709228515625" lon="-1.01040682755410671234130859375">
        <ele>1077.199951171875</ele>
        <time>2021-09-26T08:05:42.000Z</time>
      </trkpt>
      <trkpt lat="40.33656992018222808837890625" lon="-1.0103846155107021331787109375">
        <ele>1077.4000244140625</ele>
        <time>2021-09-26T08:05:44.000Z</time>
      </trkpt>
      <trkpt lat="40.3364919684827327728271484375" lon="-1.01037262938916683197021484375">
        <ele>1077.5999755859375</ele>
        <time>2021-09-26T08:05:46.000Z</time>
      </trkpt>
      <trkpt lat="40.3364188782870769500732421875" lon="-1.0103651694953441619873046875">
        <ele>1078</ele>
        <time>2021-09-26T08:05:48.000Z</time>
      </trkpt>
      <trkpt lat="40.3363789804279804229736328125" lon="-1.01036340929567813873291015625">
        <ele>1078</ele>
        <time>2021-09-26T08:05:49.000Z</time>
      </trkpt>
      <trkpt lat="40.33634059131145477294921875" lon="-1.0103621520102024078369140625">
        <ele>1078</ele>
        <time>2021-09-26T08:05:50.000Z</time>
      </trkpt>
      <trkpt lat="40.33626557327806949615478515625" lon="-1.01035804487764835357666015625">
        <ele>1079.199951171875</ele>
        <time>2021-09-26T08:05:52.000Z</time>
      </trkpt>
      <trkpt lat="40.33618778921663761138916015625" lon="-1.01035661995410919189453125">
        <ele>1080.199951171875</ele>
        <time>2021-09-26T08:05:54.000Z</time>
      </trkpt>
      <trkpt lat="40.33611067570745944976806640625" lon="-1.010360978543758392333984375">
        <ele>1081.4000244140625</ele>
        <time>2021-09-26T08:05:56.000Z</time>
      </trkpt>
      <trkpt lat="40.336077399551868438720703125" lon="-1.01036324165761470794677734375">
        <ele>1082.4000244140625</ele>
        <time>2021-09-26T08:05:57.000Z</time>
      </trkpt>
      <trkpt lat="40.3360400162637233734130859375" lon="-1.0103675164282321929931640625">
        <ele>1083.4000244140625</ele>
        <time>2021-09-26T08:05:58.000Z</time>
      </trkpt>
      <trkpt lat="40.335969440639019012451171875" lon="-1.0103775747120380401611328125">
        <ele>1085.5999755859375</ele>
        <time>2021-09-26T08:06:00.000Z</time>
      </trkpt>
      <trkpt lat="40.33589744009077548980712890625" lon="-1.0103889741003513336181640625">
        <ele>1087.800048828125</ele>
        <time>2021-09-26T08:06:02.000Z</time>
      </trkpt>
      <trkpt lat="40.33582267351448535919189453125" lon="-1.01040615700185298919677734375">
        <ele>1090</ele>
        <time>2021-09-26T08:06:04.000Z</time>
      </trkpt>
      <trkpt lat="40.3357463143765926361083984375" lon="-1.01042627356946468353271484375">
        <ele>1091.5999755859375</ele>
        <time>2021-09-26T08:06:06.000Z</time>
      </trkpt>
      <trkpt lat="40.3356762416660785675048828125" lon="-1.01044320501387119293212890625">
        <ele>1092.800048828125</ele>
        <time>2021-09-26T08:06:08.000Z</time>
      </trkpt>
      <trkpt lat="40.33560507930815219879150390625" lon="-1.0104630701243877410888671875">
        <ele>1094</ele>
        <time>2021-09-26T08:06:10.000Z</time>
      </trkpt>
      <trkpt lat="40.33557238988578319549560546875" lon="-1.0104704461991786956787109375">
        <ele>1094.5999755859375</ele>
        <time>2021-09-26T08:06:11.000Z</time>
      </trkpt>
      <trkpt lat="40.3355404548346996307373046875" lon="-1.01047941483557224273681640625">
        <ele>1095</ele>
        <time>2021-09-26T08:06:12.000Z</time>
      </trkpt>
      <trkpt lat="40.3354764170944690704345703125" lon="-1.010496430099010467529296875">
        <ele>1095.5999755859375</ele>
        <time>2021-09-26T08:06:14.000Z</time>
      </trkpt>
      <trkpt lat="40.335410535335540771484375" lon="-1.0105126909911632537841796875">
        <ele>1095.5999755859375</ele>
        <time>2021-09-26T08:06:16.000Z</time>
      </trkpt>
      <trkpt lat="40.335347168147563934326171875" lon="-1.01053339429199695587158203125">
        <ele>1095.800048828125</ele>
        <time>2021-09-26T08:06:18.000Z</time>
      </trkpt>
      <trkpt lat="40.33531456254422664642333984375" lon="-1.01054060272872447967529296875">
        <ele>1095.800048828125</ele>
        <time>2021-09-26T08:06:19.000Z</time>
      </trkpt>
      <trkpt lat="40.33528245985507965087890625" lon="-1.010549403727054595947265625">
        <ele>1095.800048828125</ele>
        <time>2021-09-26T08:06:20.000Z</time>
      </trkpt>
      <trkpt lat="40.33521406352519989013671875" lon="-1.01057195104658603668212890625">
        <ele>1096</ele>
        <time>2021-09-26T08:06:22.000Z</time>
      </trkpt>
      <trkpt lat="40.335151366889476776123046875" lon="-1.0105911456048488616943359375">
        <ele>1096.4000244140625</ele>
        <time>2021-09-26T08:06:24.000Z</time>
      </trkpt>
      <trkpt lat="40.3351190127432346343994140625" lon="-1.01060070097446441650390625">
        <ele>1096.5999755859375</ele>
        <time>2021-09-26T08:06:25.000Z</time>
      </trkpt>
      <trkpt lat="40.33508204855024814605712890625" lon="-1.01060849614441394805908203125">
        <ele>1096.800048828125</ele>
        <time>2021-09-26T08:06:26.000Z</time>
      </trkpt>
      <trkpt lat="40.33500828780233860015869140625" lon="-1.0106236673891544342041015625">
        <ele>1097.199951171875</ele>
        <time>2021-09-26T08:06:28.000Z</time>
      </trkpt>
      <trkpt lat="40.334937460720539093017578125" lon="-1.010634899139404296875">
        <ele>1097.5999755859375</ele>
        <time>2021-09-26T08:06:30.000Z</time>
      </trkpt>
      <trkpt lat="40.33490116707980632781982421875" lon="-1.01064420305192470550537109375">
        <ele>1097.5999755859375</ele>
        <time>2021-09-26T08:06:31.000Z</time>
      </trkpt>
      <trkpt lat="40.334862358868122100830078125" lon="-1.01065224967896938323974609375">
        <ele>1097.5999755859375</ele>
        <time>2021-09-26T08:06:32.000Z</time>
      </trkpt>
      <trkpt lat="40.33478918485343456268310546875" lon="-1.01066834293305873870849609375">
        <ele>1097.800048828125</ele>
        <time>2021-09-26T08:06:34.000Z</time>
      </trkpt>
      <trkpt lat="40.33471123315393924713134765625" lon="-1.01068829186260700225830078125">
        <ele>1098</ele>
        <time>2021-09-26T08:06:36.000Z</time>
      </trkpt>
      <trkpt lat="40.33464116044342517852783203125" lon="-1.0107037983834743499755859375">
        <ele>1098</ele>
        <time>2021-09-26T08:06:38.000Z</time>
      </trkpt>
      <trkpt lat="40.33457209356129169464111328125" lon="-1.01072366349399089813232421875">
        <ele>1097.800048828125</ele>
        <time>2021-09-26T08:06:40.000Z</time>
      </trkpt>
      <trkpt lat="40.334503613412380218505859375" lon="-1.01073506288230419158935546875">
        <ele>1097.800048828125</ele>
        <time>2021-09-26T08:06:42.000Z</time>
      </trkpt>
      <trkpt lat="40.3344689123332500457763671875" lon="-1.01074093021452426910400390625">
        <ele>1097.800048828125</ele>
        <time>2021-09-26T08:06:43.000Z</time>
      </trkpt>
      <trkpt lat="40.33443161286413669586181640625" lon="-1.01074864156544208526611328125">
        <ele>1097.800048828125</ele>
        <time>2021-09-26T08:06:44.000Z</time>
      </trkpt>
      <trkpt lat="40.3343592770397663116455078125" lon="-1.01076305843889713287353515625">
        <ele>1097</ele>
        <time>2021-09-26T08:06:46.000Z</time>
      </trkpt>
      <trkpt lat="40.3342918865382671356201171875" lon="-1.0107778944075107574462890625">
        <ele>1095.800048828125</ele>
        <time>2021-09-26T08:06:48.000Z</time>
      </trkpt>
      <trkpt lat="40.33426045440137386322021484375" lon="-1.01078367792069911956787109375">
        <ele>1095.199951171875</ele>
        <time>2021-09-26T08:06:49.000Z</time>
      </trkpt>
      <trkpt lat="40.3342265076935291290283203125" lon="-1.01079038344323635101318359375">
        <ele>1094.5999755859375</ele>
        <time>2021-09-26T08:06:50.000Z</time>
      </trkpt>
      <trkpt lat="40.33415735699236392974853515625" lon="-1.01080714724957942962646484375">
        <ele>1093.199951171875</ele>
        <time>2021-09-26T08:06:52.000Z</time>
      </trkpt>
      <trkpt lat="40.33408577553927898406982421875" lon="-1.010813601315021514892578125">
        <ele>1092.4000244140625</ele>
        <time>2021-09-26T08:06:54.000Z</time>
      </trkpt>
      <trkpt lat="40.33401100896298885345458984375" lon="-1.0108218155801296234130859375">
        <ele>1092.4000244140625</ele>
        <time>2021-09-26T08:06:56.000Z</time>
      </trkpt>
      <trkpt lat="40.33393590711057186126708984375" lon="-1.0108268447220325469970703125">
        <ele>1091.800048828125</ele>
        <time>2021-09-26T08:06:58.000Z</time>
      </trkpt>
      <trkpt lat="40.33385879360139369964599609375" lon="-1.01083271205425262451171875">
        <ele>1091.199951171875</ele>
        <time>2021-09-26T08:07:00.000Z</time>
      </trkpt>
      <trkpt lat="40.33378771506249904632568359375" lon="-1.0108385793864727020263671875">
        <ele>1091.4000244140625</ele>
        <time>2021-09-26T08:07:02.000Z</time>
      </trkpt>
      <trkpt lat="40.33371445722877979278564453125" lon="-1.01084637455642223358154296875">
        <ele>1091.800048828125</ele>
        <time>2021-09-26T08:07:04.000Z</time>
      </trkpt>
      <trkpt lat="40.3336769901216030120849609375" lon="-1.01084637455642223358154296875">
        <ele>1092</ele>
        <time>2021-09-26T08:07:05.000Z</time>
      </trkpt>
      <trkpt lat="40.33364002592861652374267578125" lon="-1.0108476318418979644775390625">
        <ele>1092</ele>
        <time>2021-09-26T08:07:06.000Z</time>
      </trkpt>
      <trkpt lat="40.33356727100908756256103515625" lon="-1.0108536668121814727783203125">
        <ele>1091.800048828125</ele>
        <time>2021-09-26T08:07:08.000Z</time>
      </trkpt>
      <trkpt lat="40.33349686302244663238525390625" lon="-1.01085643284022808074951171875">
        <ele>1092.199951171875</ele>
        <time>2021-09-26T08:07:10.000Z</time>
      </trkpt>
      <trkpt lat="40.33346182666718959808349609375" lon="-1.01085827685892581939697265625">
        <ele>1092.199951171875</ele>
        <time>2021-09-26T08:07:11.000Z</time>
      </trkpt>
      <trkpt lat="40.33342477865517139434814453125" lon="-1.0108602046966552734375">
        <ele>1092.4000244140625</ele>
        <time>2021-09-26T08:07:12.000Z</time>
      </trkpt>
      <trkpt lat="40.33335529267787933349609375" lon="-1.010859198868274688720703125">
        <ele>1092.5999755859375</ele>
        <time>2021-09-26T08:07:14.000Z</time>
      </trkpt>
      <trkpt lat="40.33328555524349212646484375" lon="-1.01085475645959377288818359375">
        <ele>1092.800048828125</ele>
        <time>2021-09-26T08:07:16.000Z</time>
      </trkpt>
      <trkpt lat="40.333218164741992950439453125" lon="-1.0108493082225322723388671875">
        <ele>1093.199951171875</ele>
        <time>2021-09-26T08:07:18.000Z</time>
      </trkpt>
      <trkpt lat="40.33314968459308147430419921875" lon="-1.010836064815521240234375">
        <ele>1093.4000244140625</ele>
        <time>2021-09-26T08:07:20.000Z</time>
      </trkpt>
      <trkpt lat="40.3330775164067745208740234375" lon="-1.01082458160817623138427734375">
        <ele>1093.5999755859375</ele>
        <time>2021-09-26T08:07:22.000Z</time>
      </trkpt>
      <trkpt lat="40.333008952438831329345703125" lon="-1.010814607143402099609375">
        <ele>1093.5999755859375</ele>
        <time>2021-09-26T08:07:24.000Z</time>
      </trkpt>
      <trkpt lat="40.3329739160835742950439453125" lon="-1.01081016473472118377685546875">
        <ele>1093.5999755859375</ele>
        <time>2021-09-26T08:07:25.000Z</time>
      </trkpt>
      <trkpt lat="40.33293913118541240692138671875" lon="-1.0108016990125179290771484375">
        <ele>1093.5999755859375</ele>
        <time>2021-09-26T08:07:26.000Z</time>
      </trkpt>
      <trkpt lat="40.33286771737039089202880859375" lon="-1.01078954525291919708251953125">
        <ele>1093.5999755859375</ele>
        <time>2021-09-26T08:07:28.000Z</time>
      </trkpt>
      <trkpt lat="40.33279730938374996185302734375" lon="-1.01077781058847904205322265625">
        <ele>1093.800048828125</ele>
        <time>2021-09-26T08:07:30.000Z</time>
      </trkpt>
      <trkpt lat="40.332729332149028778076171875" lon="-1.01075903512537479400634765625">
        <ele>1093.800048828125</ele>
        <time>2021-09-26T08:07:32.000Z</time>
      </trkpt>
      <trkpt lat="40.33269588835537433624267578125" lon="-1.01074947975575923919677734375">
        <ele>1093.5999755859375</ele>
        <time>2021-09-26T08:07:33.000Z</time>
      </trkpt>
      <trkpt lat="40.3326614387333393096923828125" lon="-1.0107393376529216766357421875">
        <ele>1093.4000244140625</ele>
        <time>2021-09-26T08:07:34.000Z</time>
      </trkpt>
      <trkpt lat="40.332591533660888671875" lon="-1.0107255913317203521728515625">
        <ele>1093</ele>
        <time>2021-09-26T08:07:36.000Z</time>
      </trkpt>
      <trkpt lat="40.332520790398120880126953125" lon="-1.01071159355342388153076171875">
        <ele>1092.4000244140625</ele>
        <time>2021-09-26T08:07:38.000Z</time>
      </trkpt>
      <trkpt lat="40.33245398662984371185302734375" lon="-1.01069231517612934112548828125">
        <ele>1092</ele>
        <time>2021-09-26T08:07:40.000Z</time>
      </trkpt>
      <trkpt lat="40.3323871828615665435791015625" lon="-1.01066800765693187713623046875">
        <ele>1093.4000244140625</ele>
        <time>2021-09-26T08:07:42.000Z</time>
      </trkpt>
      <trkpt lat="40.3323201276361942291259765625" lon="-1.01064520888030529022216796875">
        <ele>1094.5999755859375</ele>
        <time>2021-09-26T08:07:44.000Z</time>
      </trkpt>
      <trkpt lat="40.3322500549256801605224609375" lon="-1.01061838679015636444091796875">
        <ele>1096</ele>
        <time>2021-09-26T08:07:46.000Z</time>
      </trkpt>
      <trkpt lat="40.33218693919479846954345703125" lon="-1.01059307344257831573486328125">
        <ele>1097.4000244140625</ele>
        <time>2021-09-26T08:07:48.000Z</time>
      </trkpt>
      <trkpt lat="40.3321213088929653167724609375" lon="-1.0105623118579387664794921875">
        <ele>1098</ele>
        <time>2021-09-26T08:07:50.000Z</time>
      </trkpt>
      <trkpt lat="40.3320884518325328826904296875" lon="-1.01054831407964229583740234375">
        <ele>1098.199951171875</ele>
        <time>2021-09-26T08:07:51.000Z</time>
      </trkpt>
      <trkpt lat="40.33205500803887844085693359375" lon="-1.010532639920711517333984375">
        <ele>1098.4000244140625</ele>
        <time>2021-09-26T08:07:52.000Z</time>
      </trkpt>
      <trkpt lat="40.3319882042706012725830078125" lon="-1.01049986667931079864501953125">
        <ele>1098.4000244140625</ele>
        <time>2021-09-26T08:07:54.000Z</time>
      </trkpt>
      <trkpt lat="40.33192441798746585845947265625" lon="-1.01046600379049777984619140625">
        <ele>1098.5999755859375</ele>
        <time>2021-09-26T08:07:56.000Z</time>
      </trkpt>
      <trkpt lat="40.33186130225658416748046875" lon="-1.01043834351003170013427734375">
        <ele>1098.199951171875</ele>
        <time>2021-09-26T08:07:58.000Z</time>
      </trkpt>
      <trkpt lat="40.33182987011969089508056640625" lon="-1.0104225017130374908447265625">
        <ele>1097.800048828125</ele>
        <time>2021-09-26T08:07:59.000Z</time>
      </trkpt>
      <trkpt lat="40.33179701305925846099853515625" lon="-1.010404564440250396728515625">
        <ele>1097.199951171875</ele>
        <time>2021-09-26T08:08:00.000Z</time>
      </trkpt>
      <trkpt lat="40.3317357413470745086669921875" lon="-1.010371036827564239501953125">
        <ele>1096.199951171875</ele>
        <time>2021-09-26T08:08:02.000Z</time>
      </trkpt>
      <trkpt lat="40.3316710330545902252197265625" lon="-1.010331474244594573974609375">
        <ele>1095.199951171875</ele>
        <time>2021-09-26T08:08:04.000Z</time>
      </trkpt>
      <trkpt lat="40.3316076658666133880615234375" lon="-1.01029635407030582427978515625">
        <ele>1093.800048828125</ele>
        <time>2021-09-26T08:08:06.000Z</time>
      </trkpt>
      <trkpt lat="40.33157539553940296173095703125" lon="-1.01027908734977245330810546875">
        <ele>1093.5999755859375</ele>
        <time>2021-09-26T08:08:07.000Z</time>
      </trkpt>
      <trkpt lat="40.33154320903122425079345703125" lon="-1.01026081480085849761962890625">
        <ele>1093.199951171875</ele>
        <time>2021-09-26T08:08:08.000Z</time>
      </trkpt>
      <trkpt lat="40.33148118294775485992431640625" lon="-1.010223515331745147705078125">
        <ele>1092.800048828125</ele>
        <time>2021-09-26T08:08:10.000Z</time>
      </trkpt>
      <trkpt lat="40.331419743597507476806640625" lon="-1.01018227636814117431640625">
        <ele>1092.4000244140625</ele>
        <time>2021-09-26T08:08:12.000Z</time>
      </trkpt>
      <trkpt lat="40.331354700028896331787109375" lon="-1.0101479105651378631591796875">
        <ele>1092</ele>
        <time>2021-09-26T08:08:14.000Z</time>
      </trkpt>
      <trkpt lat="40.33129460178315639495849609375" lon="-1.010106503963470458984375">
        <ele>1091.800048828125</ele>
        <time>2021-09-26T08:08:16.000Z</time>
      </trkpt>
      <trkpt lat="40.33123257569968700408935546875" lon="-1.0100640915334224700927734375">
        <ele>1091.5999755859375</ele>
        <time>2021-09-26T08:08:18.000Z</time>
      </trkpt>
      <trkpt lat="40.33117063343524932861328125" lon="-1.01002628915011882781982421875">
        <ele>1091.4000244140625</ele>
        <time>2021-09-26T08:08:20.000Z</time>
      </trkpt>
      <trkpt lat="40.33110718242824077606201171875" lon="-1.00998974405229091644287109375">
        <ele>1092</ele>
        <time>2021-09-26T08:08:22.000Z</time>
      </trkpt>
      <trkpt lat="40.3310454078018665313720703125" lon="-1.00994816981256008148193359375">
        <ele>1092.5999755859375</ele>
        <time>2021-09-26T08:08:24.000Z</time>
      </trkpt>
      <trkpt lat="40.33097927458584308624267578125" lon="-1.0099098645150661468505859375">
        <ele>1093.199951171875</ele>
        <time>2021-09-26T08:08:26.000Z</time>
      </trkpt>
      <trkpt lat="40.33091657795011997222900390625" lon="-1.00986619479954242706298828125">
        <ele>1094</ele>
        <time>2021-09-26T08:08:28.000Z</time>
      </trkpt>
      <trkpt lat="40.33088372088968753814697265625" lon="-1.00984859280288219451904296875">
        <ele>1094.4000244140625</ele>
        <time>2021-09-26T08:08:29.000Z</time>
      </trkpt>
      <trkpt lat="40.33085237257182598114013671875" lon="-1.0098304040729999542236328125">
        <ele>1094.800048828125</ele>
        <time>2021-09-26T08:08:30.000Z</time>
      </trkpt>
      <trkpt lat="40.33079051412642002105712890625" lon="-1.0097945295274257659912109375">
        <ele>1095.4000244140625</ele>
        <time>2021-09-26T08:08:32.000Z</time>
      </trkpt>
      <trkpt lat="40.3307312540709972381591796875" lon="-1.00975588895380496978759765625">
        <ele>1096.199951171875</ele>
        <time>2021-09-26T08:08:34.000Z</time>
      </trkpt>
      <trkpt lat="40.3307010792195796966552734375" lon="-1.00973845459520816802978515625">
        <ele>1096.5999755859375</ele>
        <time>2021-09-26T08:08:35.000Z</time>
      </trkpt>
      <trkpt lat="40.330670736730098724365234375" lon="-1.00971959531307220458984375">
        <ele>1096.800048828125</ele>
        <time>2021-09-26T08:08:36.000Z</time>
      </trkpt>
      <trkpt lat="40.33061214722692966461181640625" lon="-1.0096869058907032012939453125">
        <ele>1097.5999755859375</ele>
        <time>2021-09-26T08:08:38.000Z</time>
      </trkpt>
      <trkpt lat="40.33055347390472888946533203125" lon="-1.00965522229671478271484375">
        <ele>1098.199951171875</ele>
        <time>2021-09-26T08:08:40.000Z</time>
      </trkpt>
      <trkpt lat="40.33049530349671840667724609375" lon="-1.00961825810372829437255859375">
        <ele>1098.800048828125</ele>
        <time>2021-09-26T08:08:42.000Z</time>
      </trkpt>
      <trkpt lat="40.3304657153785228729248046875" lon="-1.009594537317752838134765625">
        <ele>1099.199951171875</ele>
        <time>2021-09-26T08:08:43.000Z</time>
      </trkpt>
      <trkpt lat="40.3304355405271053314208984375" lon="-1.0095729120075702667236328125">
        <ele>1099.5999755859375</ele>
        <time>2021-09-26T08:08:44.000Z</time>
      </trkpt>
      <trkpt lat="40.3303725086152553558349609375" lon="-1.00954231806099414825439453125">
        <ele>1100.4000244140625</ele>
        <time>2021-09-26T08:08:46.000Z</time>
      </trkpt>
      <trkpt lat="40.330315344035625457763671875" lon="-1.00950770080089569091796875">
        <ele>1101.199951171875</ele>
        <time>2021-09-26T08:08:48.000Z</time>
      </trkpt>
      <trkpt lat="40.3302870132029056549072265625" lon="-1.00949026644229888916015625">
        <ele>1101.800048828125</ele>
        <time>2021-09-26T08:08:49.000Z</time>
      </trkpt>
      <trkpt lat="40.3302568383514881134033203125" lon="-1.0094716586172580718994140625">
        <ele>1102.4000244140625</ele>
        <time>2021-09-26T08:08:50.000Z</time>
      </trkpt>
      <trkpt lat="40.330197326838970184326171875" lon="-1.0094367899000644683837890625">
        <ele>1103.4000244140625</ele>
        <time>2021-09-26T08:08:52.000Z</time>
      </trkpt>
      <trkpt lat="40.330138988792896270751953125" lon="-1.009402759373188018798828125">
        <ele>1104.199951171875</ele>
        <time>2021-09-26T08:08:54.000Z</time>
      </trkpt>
      <trkpt lat="40.33007905818521976470947265625" lon="-1.0093680582940578460693359375">
        <ele>1104.800048828125</ele>
        <time>2021-09-26T08:08:56.000Z</time>
      </trkpt>
      <trkpt lat="40.33004804514348506927490234375" lon="-1.0093523003160953521728515625">
        <ele>1105.199951171875</ele>
        <time>2021-09-26T08:08:57.000Z</time>
      </trkpt>
      <trkpt lat="40.3300187923014163970947265625" lon="-1.0093365423381328582763671875">
        <ele>1105.4000244140625</ele>
        <time>2021-09-26T08:08:58.000Z</time>
      </trkpt>
      <trkpt lat="40.32996221445500850677490234375" lon="-1.00929941050708293914794921875">
        <ele>1106.199951171875</ele>
        <time>2021-09-26T08:09:00.000Z</time>
      </trkpt>
      <trkpt lat="40.32990303821861743927001953125" lon="-1.00925968028604984283447265625">
        <ele>1106.800048828125</ele>
        <time>2021-09-26T08:09:02.000Z</time>
      </trkpt>
      <trkpt lat="40.3298436105251312255859375" lon="-1.00921961478888988494873046875">
        <ele>1107.5999755859375</ele>
        <time>2021-09-26T08:09:04.000Z</time>
      </trkpt>
      <trkpt lat="40.32981368713080883026123046875" lon="-1.00920419208705425262451171875">
        <ele>1108</ele>
        <time>2021-09-26T08:09:05.000Z</time>
      </trkpt>
      <trkpt lat="40.3297871164977550506591796875" lon="-1.00918659009039402008056640625">
        <ele>1108.4000244140625</ele>
        <time>2021-09-26T08:09:06.000Z</time>
      </trkpt>
      <trkpt lat="40.3297267667949199676513671875" lon="-1.009154655039310455322265625">
        <ele>1108.5999755859375</ele>
        <time>2021-09-26T08:09:08.000Z</time>
      </trkpt>
      <trkpt lat="40.3296674229204654693603515625" lon="-1.00912355817854404449462890625">
        <ele>1109</ele>
        <time>2021-09-26T08:09:10.000Z</time>
      </trkpt>
      <trkpt lat="40.329609923064708709716796875" lon="-1.009088270366191864013671875">
        <ele>1108.5999755859375</ele>
        <time>2021-09-26T08:09:12.000Z</time>
      </trkpt>
      <trkpt lat="40.329547561705112457275390625" lon="-1.00904778577387332916259765625">
        <ele>1108.4000244140625</ele>
        <time>2021-09-26T08:09:14.000Z</time>
      </trkpt>
      <trkpt lat="40.32948645763099193572998046875" lon="-1.0090076364576816558837890625">
        <ele>1108.199951171875</ele>
        <time>2021-09-26T08:09:16.000Z</time>
      </trkpt>
      <trkpt lat="40.3294240124523639678955078125" lon="-1.00896648131310939788818359375">
        <ele>1108</ele>
        <time>2021-09-26T08:09:18.000Z</time>
      </trkpt>
      <trkpt lat="40.329362489283084869384765625" lon="-1.008927337825298309326171875">
        <ele>1107.800048828125</ele>
        <time>2021-09-26T08:09:20.000Z</time>
      </trkpt>
      <trkpt lat="40.32929903827607631683349609375" lon="-1.00888618268072605133056640625">
        <ele>1107.4000244140625</ele>
        <time>2021-09-26T08:09:22.000Z</time>
      </trkpt>
      <trkpt lat="40.32923919148743152618408203125" lon="-1.0088487155735492706298828125">
        <ele>1107.4000244140625</ele>
        <time>2021-09-26T08:09:24.000Z</time>
      </trkpt>
      <trkpt lat="40.3291782550513744354248046875" lon="-1.0088069736957550048828125">
        <ele>1107.5999755859375</ele>
        <time>2021-09-26T08:09:26.000Z</time>
      </trkpt>
      <trkpt lat="40.329114384949207305908203125" lon="-1.008767746388912200927734375">
        <ele>1107.800048828125</ele>
        <time>2021-09-26T08:09:28.000Z</time>
      </trkpt>
      <trkpt lat="40.3290552087128162384033203125" lon="-1.00872776471078395843505859375">
        <ele>1108.5999755859375</ele>
        <time>2021-09-26T08:09:30.000Z</time>
      </trkpt>
      <trkpt lat="40.3289955295622348785400390625" lon="-1.0086961649358272552490234375">
        <ele>1109.199951171875</ele>
        <time>2021-09-26T08:09:32.000Z</time>
      </trkpt>
      <trkpt lat="40.32896493561565876007080078125" lon="-1.0086810775101184844970703125">
        <ele>1109.5999755859375</ele>
        <time>2021-09-26T08:09:33.000Z</time>
      </trkpt>
      <trkpt lat="40.32893367111682891845703125" lon="-1.00866255350410938262939453125">
        <ele>1110</ele>
        <time>2021-09-26T08:09:34.000Z</time>
      </trkpt>
      <trkpt lat="40.32887466251850128173828125" lon="-1.00862634368240833282470703125">
        <ele>1110</ele>
        <time>2021-09-26T08:09:36.000Z</time>
      </trkpt>
      <trkpt lat="40.3288082778453826904296875" lon="-1.00859080441296100616455078125">
        <ele>1110</ele>
        <time>2021-09-26T08:09:38.000Z</time>
      </trkpt>
      <trkpt lat="40.32874331809580326080322265625" lon="-1.0085540078580379486083984375">
        <ele>1110</ele>
        <time>2021-09-26T08:09:40.000Z</time>
      </trkpt>
      <trkpt lat="40.32871196977794170379638671875" lon="-1.0085307061672210693359375">
        <ele>1110</ele>
        <time>2021-09-26T08:09:41.000Z</time>
      </trkpt>
      <trkpt lat="40.32868129201233386993408203125" lon="-1.00850815884768962860107421875">
        <ele>1110</ele>
        <time>2021-09-26T08:09:42.000Z</time>
      </trkpt>
      <trkpt lat="40.328619517385959625244140625" lon="-1.008468680083751678466796875">
        <ele>1109.5999755859375</ele>
        <time>2021-09-26T08:09:44.000Z</time>
      </trkpt>
      <trkpt lat="40.32855908386409282684326171875" lon="-1.00842903368175029754638671875">
        <ele>1109.199951171875</ele>
        <time>2021-09-26T08:09:46.000Z</time>
      </trkpt>
      <trkpt lat="40.3284993208944797515869140625" lon="-1.0083877108991146087646484375">
        <ele>1108.4000244140625</ele>
        <time>2021-09-26T08:09:48.000Z</time>
      </trkpt>
      <trkpt lat="40.3284416534006595611572265625" lon="-1.00835577584803104400634765625">
        <ele>1107.5999755859375</ele>
        <time>2021-09-26T08:09:50.000Z</time>
      </trkpt>
      <trkpt lat="40.328385494649410247802734375" lon="-1.00832560099661350250244140625">
        <ele>1107</ele>
        <time>2021-09-26T08:09:52.000Z</time>
      </trkpt>
      <trkpt lat="40.32832807861268520355224609375" lon="-1.00828486494719982147216796875">
        <ele>1106.199951171875</ele>
        <time>2021-09-26T08:09:54.000Z</time>
      </trkpt>
      <trkpt lat="40.32826387323439121246337890625" lon="-1.0082468949258327484130859375">
        <ele>1105.5999755859375</ele>
        <time>2021-09-26T08:09:56.000Z</time>
      </trkpt>
      <trkpt lat="40.32823319546878337860107421875" lon="-1.0082244314253330230712890625">
        <ele>1105.4000244140625</ele>
        <time>2021-09-26T08:09:57.000Z</time>
      </trkpt>
      <trkpt lat="40.32820117659866809844970703125" lon="-1.00820221938192844390869140625">
        <ele>1105</ele>
        <time>2021-09-26T08:09:58.000Z</time>
      </trkpt>
      <trkpt lat="40.328134708106517791748046875" lon="-1.0081667639315128326416015625">
        <ele>1104.4000244140625</ele>
        <time>2021-09-26T08:10:00.000Z</time>
      </trkpt>
      <trkpt lat="40.32807393930852413177490234375" lon="-1.0081248544156551361083984375">
        <ele>1104</ele>
        <time>2021-09-26T08:10:02.000Z</time>
      </trkpt>
      <trkpt lat="40.32801660709083080291748046875" lon="-1.00808772258460521697998046875">
        <ele>1103.199951171875</ele>
        <time>2021-09-26T08:10:04.000Z</time>
      </trkpt>
      <trkpt lat="40.32796011306345462799072265625" lon="-1.0080490820109844207763671875">
        <ele>1103</ele>
        <time>2021-09-26T08:10:06.000Z</time>
      </trkpt>
      <trkpt lat="40.32790127210319042205810546875" lon="-1.0080122016370296478271484375">
        <ele>1103</ele>
        <time>2021-09-26T08:10:08.000Z</time>
      </trkpt>
      <trkpt lat="40.327843688428401947021484375" lon="-1.0079736448824405670166015625">
        <ele>1103.4000244140625</ele>
        <time>2021-09-26T08:10:10.000Z</time>
      </trkpt>
      <trkpt lat="40.3277851827442646026611328125" lon="-1.007942967116832733154296875">
        <ele>1103.800048828125</ele>
        <time>2021-09-26T08:10:12.000Z</time>
      </trkpt>
      <trkpt lat="40.327755510807037353515625" lon="-1.00792586803436279296875">
        <ele>1103.800048828125</ele>
        <time>2021-09-26T08:10:13.000Z</time>
      </trkpt>
      <trkpt lat="40.3277248330414295196533203125" lon="-1.00790902040898799896240234375">
        <ele>1104.199951171875</ele>
        <time>2021-09-26T08:10:14.000Z</time>
      </trkpt>
      <trkpt lat="40.3276618011295795440673828125" lon="-1.00787398405373096466064453125">
        <ele>1105</ele>
        <time>2021-09-26T08:10:16.000Z</time>
      </trkpt>
      <trkpt lat="40.3276012837886810302734375" lon="-1.00783810950815677642822265625">
        <ele>1106</ele>
        <time>2021-09-26T08:10:18.000Z</time>
      </trkpt>
      <trkpt lat="40.32753892242908477783203125" lon="-1.007810868322849273681640625">
        <ele>1106.800048828125</ele>
        <time>2021-09-26T08:10:20.000Z</time>
      </trkpt>
      <trkpt lat="40.32747815363109111785888671875" lon="-1.0077823698520660400390625">
        <ele>1107.800048828125</ele>
        <time>2021-09-26T08:10:22.000Z</time>
      </trkpt>
      <trkpt lat="40.32741629518568515777587890625" lon="-1.00775613449513912200927734375">
        <ele>1108.4000244140625</ele>
        <time>2021-09-26T08:10:24.000Z</time>
      </trkpt>
      <trkpt lat="40.327348150312900543212890625" lon="-1.0077362693846225738525390625">
        <ele>1109</ele>
        <time>2021-09-26T08:10:26.000Z</time>
      </trkpt>
      <trkpt lat="40.3272852860391139984130859375" lon="-1.0077206790447235107421875">
        <ele>1110</ele>
        <time>2021-09-26T08:10:28.000Z</time>
      </trkpt>
      <trkpt lat="40.327218733727931976318359375" lon="-1.00770299322903156280517578125">
        <ele>1110.800048828125</ele>
        <time>2021-09-26T08:10:30.000Z</time>
      </trkpt>
      <trkpt lat="40.32715192995965480804443359375" lon="-1.00768773816525936126708984375">
        <ele>1111.5999755859375</ele>
        <time>2021-09-26T08:10:32.000Z</time>
      </trkpt>
      <trkpt lat="40.32708722166717052459716796875" lon="-1.00767918862402439117431640625">
        <ele>1112</ele>
        <time>2021-09-26T08:10:34.000Z</time>
      </trkpt>
      <trkpt lat="40.32702385447919368743896484375" lon="-1.00767265073955059051513671875">
        <ele>1112.199951171875</ele>
        <time>2021-09-26T08:10:36.000Z</time>
      </trkpt>
      <trkpt lat="40.32696132548153400421142578125" lon="-1.00766845978796482086181640625">
        <ele>1112.4000244140625</ele>
        <time>2021-09-26T08:10:38.000Z</time>
      </trkpt>
      <trkpt lat="40.3268876485526561737060546875" lon="-1.00767047144472599029541015625">
        <ele>1112.5999755859375</ele>
        <time>2021-09-26T08:10:40.000Z</time>
      </trkpt>
      <trkpt lat="40.326810367405414581298828125" lon="-1.007676422595977783203125">
        <ele>1112</ele>
        <time>2021-09-26T08:10:42.000Z</time>
      </trkpt>
      <trkpt lat="40.32673920504748821258544921875" lon="-1.00767977535724639892578125">
        <ele>1111.4000244140625</ele>
        <time>2021-09-26T08:10:44.000Z</time>
      </trkpt>
      <trkpt lat="40.3266727365553379058837890625" lon="-1.00768773816525936126708984375">
        <ele>1110.800048828125</ele>
        <time>2021-09-26T08:10:46.000Z</time>
      </trkpt>
      <trkpt lat="40.32660794444382190704345703125" lon="-1.00770936347544193267822265625">
        <ele>1110.199951171875</ele>
        <time>2021-09-26T08:10:48.000Z</time>
      </trkpt>
      <trkpt lat="40.32653938047587871551513671875" lon="-1.007727719843387603759765625">
        <ele>1110</ele>
        <time>2021-09-26T08:10:50.000Z</time>
      </trkpt>
      <trkpt lat="40.326477773487567901611328125" lon="-1.0077490098774433135986328125">
        <ele>1109.800048828125</ele>
        <time>2021-09-26T08:10:52.000Z</time>
      </trkpt>
      <trkpt lat="40.326444916427135467529296875" lon="-1.0077627561986446380615234375">
        <ele>1109.4000244140625</ele>
        <time>2021-09-26T08:10:53.000Z</time>
      </trkpt>
      <trkpt lat="40.3264118917286396026611328125" lon="-1.00777457468211650848388671875">
        <ele>1109.199951171875</ele>
        <time>2021-09-26T08:10:54.000Z</time>
      </trkpt>
      <trkpt lat="40.32634944655001163482666015625" lon="-1.00779888220131397247314453125">
        <ele>1108.800048828125</ele>
        <time>2021-09-26T08:10:56.000Z</time>
      </trkpt>
      <trkpt lat="40.32628708519041538238525390625" lon="-1.0078279674053192138671875">
        <ele>1109</ele>
        <time>2021-09-26T08:10:58.000Z</time>
      </trkpt>
      <trkpt lat="40.326221622526645660400390625" lon="-1.007853783667087554931640625">
        <ele>1109.4000244140625</ele>
        <time>2021-09-26T08:11:00.000Z</time>
      </trkpt>
      <trkpt lat="40.3261864185333251953125" lon="-1.00786887109279632568359375">
        <ele>1109.4000244140625</ele>
        <time>2021-09-26T08:11:01.000Z</time>
      </trkpt>
      <trkpt lat="40.32615129835903644561767578125" lon="-1.0078814439475536346435546875">
        <ele>1109.5999755859375</ele>
        <time>2021-09-26T08:11:02.000Z</time>
      </trkpt>
      <trkpt lat="40.32608357258141040802001953125" lon="-1.00791086442768573760986328125">
        <ele>1110</ele>
        <time>2021-09-26T08:11:04.000Z</time>
      </trkpt>
      <trkpt lat="40.326019786298274993896484375" lon="-1.0079397819936275482177734375">
        <ele>1110</ele>
        <time>2021-09-26T08:11:06.000Z</time>
      </trkpt>
      <trkpt lat="40.32595507800579071044921875" lon="-1.007969118654727935791015625">
        <ele>1110.199951171875</ele>
        <time>2021-09-26T08:11:08.000Z</time>
      </trkpt>
      <trkpt lat="40.325921885669231414794921875" lon="-1.00798278115689754486083984375">
        <ele>1110.199951171875</ele>
        <time>2021-09-26T08:11:09.000Z</time>
      </trkpt>
      <trkpt lat="40.325888693332672119140625" lon="-1.0079964436590671539306640625">
        <ele>1110.4000244140625</ele>
        <time>2021-09-26T08:11:10.000Z</time>
      </trkpt>
      <trkpt lat="40.32582096755504608154296875" lon="-1.008024103939533233642578125">
        <ele>1110.4000244140625</ele>
        <time>2021-09-26T08:11:12.000Z</time>
      </trkpt>
      <trkpt lat="40.32575399614870548248291015625" lon="-1.0080497525632381439208984375">
        <ele>1110.5999755859375</ele>
        <time>2021-09-26T08:11:14.000Z</time>
      </trkpt>
      <trkpt lat="40.32568593509495258331298828125" lon="-1.00807808339595794677734375">
        <ele>1110.4000244140625</ele>
        <time>2021-09-26T08:11:16.000Z</time>
      </trkpt>
      <trkpt lat="40.32565467059612274169921875" lon="-1.00809224881231784820556640625">
        <ele>1110.4000244140625</ele>
        <time>2021-09-26T08:11:17.000Z</time>
      </trkpt>
      <trkpt lat="40.32562038861215114593505859375" lon="-1.00810783915221691131591796875">
        <ele>1110.4000244140625</ele>
        <time>2021-09-26T08:11:18.000Z</time>
      </trkpt>
      <trkpt lat="40.32555283047258853912353515625" lon="-1.00813977420330047607421875">
        <ele>1110.199951171875</ele>
        <time>2021-09-26T08:11:20.000Z</time>
      </trkpt>
      <trkpt lat="40.32548828981816768646240234375" lon="-1.0081637464463710784912109375">
        <ele>1110.4000244140625</ele>
        <time>2021-09-26T08:11:22.000Z</time>
      </trkpt>
      <trkpt lat="40.32545509748160839080810546875" lon="-1.00818000733852386474609375">
        <ele>1110.4000244140625</ele>
        <time>2021-09-26T08:11:23.000Z</time>
      </trkpt>
      <trkpt lat="40.325418971478939056396484375" lon="-1.008195765316486358642578125">
        <ele>1110.4000244140625</ele>
        <time>2021-09-26T08:11:24.000Z</time>
      </trkpt>
      <trkpt lat="40.32535132952034473419189453125" lon="-1.0082224197685718536376953125">
        <ele>1110.4000244140625</ele>
        <time>2021-09-26T08:11:26.000Z</time>
      </trkpt>
      <trkpt lat="40.3252840228378772735595703125" lon="-1.00824463181197643280029296875">
        <ele>1110.4000244140625</ele>
        <time>2021-09-26T08:11:28.000Z</time>
      </trkpt>
      <trkpt lat="40.32521638087928295135498046875" lon="-1.00826743058860301971435546875">
        <ele>1110.5999755859375</ele>
        <time>2021-09-26T08:11:30.000Z</time>
      </trkpt>
      <trkpt lat="40.32518067397177219390869140625" lon="-1.0082794167101383209228515625">
        <ele>1111</ele>
        <time>2021-09-26T08:11:31.000Z</time>
      </trkpt>
      <trkpt lat="40.32514748163521289825439453125" lon="-1.00829056464135646820068359375">
        <ele>1111.199951171875</ele>
        <time>2021-09-26T08:11:32.000Z</time>
      </trkpt>
      <trkpt lat="40.32507908530533313751220703125" lon="-1.00831118412315845489501953125">
        <ele>1111.800048828125</ele>
        <time>2021-09-26T08:11:34.000Z</time>
      </trkpt>
      <trkpt lat="40.3250144608318805694580078125" lon="-1.00832928903400897979736328125">
        <ele>1112.4000244140625</ele>
        <time>2021-09-26T08:11:36.000Z</time>
      </trkpt>
      <trkpt lat="40.324944555759429931640625" lon="-1.00833917967975139617919921875">
        <ele>1113</ele>
        <time>2021-09-26T08:11:38.000Z</time>
      </trkpt>
      <trkpt lat="40.32491245307028293609619140625" lon="-1.00834001787006855010986328125">
        <ele>1113.199951171875</ele>
        <time>2021-09-26T08:11:39.000Z</time>
      </trkpt>
      <trkpt lat="40.324879176914691925048828125" lon="-1.0083421133458614349365234375">
        <ele>1113.4000244140625</ele>
        <time>2021-09-26T08:11:40.000Z</time>
      </trkpt>
      <trkpt lat="40.32481287606060504913330078125" lon="-1.008342616260051727294921875">
        <ele>1114</ele>
        <time>2021-09-26T08:11:42.000Z</time>
      </trkpt>
      <trkpt lat="40.32474112696945667266845703125" lon="-1.00833683274686336517333984375">
        <ele>1114.5999755859375</ele>
        <time>2021-09-26T08:11:44.000Z</time>
      </trkpt>
      <trkpt lat="40.3247073478996753692626953125" lon="-1.00833515636622905731201171875">
        <ele>1114.800048828125</ele>
        <time>2021-09-26T08:11:45.000Z</time>
      </trkpt>
      <trkpt lat="40.32467340119183063507080078125" lon="-1.0083340667188167572021484375">
        <ele>1115</ele>
        <time>2021-09-26T08:11:46.000Z</time>
      </trkpt>
      <trkpt lat="40.3246060945093631744384765625" lon="-1.00832794792950153350830078125">
        <ele>1114.800048828125</ele>
        <time>2021-09-26T08:11:48.000Z</time>
      </trkpt>
      <trkpt lat="40.3245355188846588134765625" lon="-1.008321829140186309814453125">
        <ele>1114.5999755859375</ele>
        <time>2021-09-26T08:11:50.000Z</time>
      </trkpt>
      <trkpt lat="40.3244652785360813140869140625" lon="-1.0083134472370147705078125">
        <ele>1114.800048828125</ele>
        <time>2021-09-26T08:11:52.000Z</time>
      </trkpt>
      <trkpt lat="40.32439847476780414581298828125" lon="-1.0082948394119739532470703125">
        <ele>1115</ele>
        <time>2021-09-26T08:11:54.000Z</time>
      </trkpt>
      <trkpt lat="40.32433125190436840057373046875" lon="-1.00827564485371112823486328125">
        <ele>1115.4000244140625</ele>
        <time>2021-09-26T08:11:56.000Z</time>
      </trkpt>
      <trkpt lat="40.3242644481360912322998046875" lon="-1.008256115019321441650390625">
        <ele>1115.800048828125</ele>
        <time>2021-09-26T08:11:58.000Z</time>
      </trkpt>
      <trkpt lat="40.3242332674562931060791015625" lon="-1.0082465596497058868408203125">
        <ele>1116</ele>
        <time>2021-09-26T08:11:59.000Z</time>
      </trkpt>
      <trkpt lat="40.32420116476714611053466796875" lon="-1.00823633372783660888671875">
        <ele>1116.199951171875</ele>
        <time>2021-09-26T08:12:00.000Z</time>
      </trkpt>
      <trkpt lat="40.32413008622825145721435546875" lon="-1.00820942781865596771240234375">
        <ele>1116.800048828125</ele>
        <time>2021-09-26T08:12:02.000Z</time>
      </trkpt>
      <trkpt lat="40.32406638376414775848388671875" lon="-1.00818000733852386474609375">
        <ele>1117.199951171875</ele>
        <time>2021-09-26T08:12:04.000Z</time>
      </trkpt>
      <trkpt lat="40.32400737516582012176513671875" lon="-1.00814203731715679168701171875">
        <ele>1117.4000244140625</ele>
        <time>2021-09-26T08:12:06.000Z</time>
      </trkpt>
      <trkpt lat="40.32394752837717533111572265625" lon="-1.00810968317091464996337890625">
        <ele>1117.5999755859375</ele>
        <time>2021-09-26T08:12:08.000Z</time>
      </trkpt>
      <trkpt lat="40.32388868741691112518310546875" lon="-1.00807582028210163116455078125">
        <ele>1117.5999755859375</ele>
        <time>2021-09-26T08:12:10.000Z</time>
      </trkpt>
      <trkpt lat="40.32383747398853302001953125" lon="-1.0080403648316860198974609375">
        <ele>1117.5999755859375</ele>
        <time>2021-09-26T08:12:12.000Z</time>
      </trkpt>
      <trkpt lat="40.32378408126533031463623046875" lon="-1.00799418054521083831787109375">
        <ele>1117.4000244140625</ele>
        <time>2021-09-26T08:12:14.000Z</time>
      </trkpt>
      <trkpt lat="40.3237316943705081939697265625" lon="-1.00794556550681591033935546875">
        <ele>1117.4000244140625</ele>
        <time>2021-09-26T08:12:16.000Z</time>
      </trkpt>
      <trkpt lat="40.32367209903895854949951171875" lon="-1.00790432654321193695068359375">
        <ele>1117.4000244140625</ele>
        <time>2021-09-26T08:12:18.000Z</time>
      </trkpt>
      <trkpt lat="40.32364661805331707000732421875" lon="-1.0078821144998073577880859375">
        <ele>1117.4000244140625</ele>
        <time>2021-09-26T08:12:19.000Z</time>
      </trkpt>
      <trkpt lat="40.32362432219088077545166015625" lon="-1.007856465876102447509765625">
        <ele>1117.4000244140625</ele>
        <time>2021-09-26T08:12:20.000Z</time>
      </trkpt>
      <trkpt lat="40.32357621006667613983154296875" lon="-1.00780910812318325042724609375">
        <ele>1117.4000244140625</ele>
        <time>2021-09-26T08:12:22.000Z</time>
      </trkpt>
      <trkpt lat="40.32352725975215435028076171875" lon="-1.00776828825473785400390625">
        <ele>1117.199951171875</ele>
        <time>2021-09-26T08:12:24.000Z</time>
      </trkpt>
      <trkpt lat="40.32347998581826686859130859375" lon="-1.00772310979664325714111328125">
        <ele>1117.199951171875</ele>
        <time>2021-09-26T08:12:26.000Z</time>
      </trkpt>
      <trkpt lat="40.32343388535082340240478515625" lon="-1.0076755844056606292724609375">
        <ele>1117.199951171875</ele>
        <time>2021-09-26T08:12:28.000Z</time>
      </trkpt>
      <trkpt lat="40.32338744960725307464599609375" lon="-1.00762881338596343994140625">
        <ele>1117.4000244140625</ele>
        <time>2021-09-26T08:12:30.000Z</time>
      </trkpt>
      <trkpt lat="40.32333933748304843902587890625" lon="-1.00757910870015621185302734375">
        <ele>1117.5999755859375</ele>
        <time>2021-09-26T08:12:32.000Z</time>
      </trkpt>
      <trkpt lat="40.32328493893146514892578125" lon="-1.0075267218053340911865234375">
        <ele>1117.800048828125</ele>
        <time>2021-09-26T08:12:34.000Z</time>
      </trkpt>
      <trkpt lat="40.32322769053280353546142578125" lon="-1.00747902877628803253173828125">
        <ele>1118</ele>
        <time>2021-09-26T08:12:36.000Z</time>
      </trkpt>
      <trkpt lat="40.323200114071369171142578125" lon="-1.00745522417128086090087890625">
        <ele>1118</ele>
        <time>2021-09-26T08:12:37.000Z</time>
      </trkpt>
      <trkpt lat="40.32317521981894969940185546875" lon="-1.0074283182621002197265625">
        <ele>1118.199951171875</ele>
        <time>2021-09-26T08:12:38.000Z</time>
      </trkpt>
      <trkpt lat="40.3231184743344783782958984375" lon="-1.007381044328212738037109375">
        <ele>1118.199951171875</ele>
        <time>2021-09-26T08:12:40.000Z</time>
      </trkpt>
      <trkpt lat="40.32306843437254428863525390625" lon="-1.00732681341469287872314453125">
        <ele>1118.800048828125</ele>
        <time>2021-09-26T08:12:42.000Z</time>
      </trkpt>
      <trkpt lat="40.32301948405802249908447265625" lon="-1.00726981647312641143798828125">
        <ele>1118.800048828125</ele>
        <time>2021-09-26T08:12:44.000Z</time>
      </trkpt>
      <trkpt lat="40.322966761887073516845703125" lon="-1.0072202794253826141357421875">
        <ele>1119</ele>
        <time>2021-09-26T08:12:46.000Z</time>
      </trkpt>
      <trkpt lat="40.32291487790644168853759765625" lon="-1.007173173129558563232421875">
        <ele>1119.4000244140625</ele>
        <time>2021-09-26T08:12:48.000Z</time>
      </trkpt>
      <trkpt lat="40.32286307774484157562255859375" lon="-1.0071223787963390350341796875">
        <ele>1119.4000244140625</ele>
        <time>2021-09-26T08:12:50.000Z</time>
      </trkpt>
      <trkpt lat="40.32281219959259033203125" lon="-1.00707359611988067626953125">
        <ele>1119.4000244140625</ele>
        <time>2021-09-26T08:12:52.000Z</time>
      </trkpt>
      <trkpt lat="40.32276132144033908843994140625" lon="-1.00702305324375629425048828125">
        <ele>1119.5999755859375</ele>
        <time>2021-09-26T08:12:54.000Z</time>
      </trkpt>
      <trkpt lat="40.32270960509777069091796875" lon="-1.00697971880435943603515625">
        <ele>1119.5999755859375</ele>
        <time>2021-09-26T08:12:56.000Z</time>
      </trkpt>
      <trkpt lat="40.32265864312648773193359375" lon="-1.00692833773791790008544921875">
        <ele>1119.800048828125</ele>
        <time>2021-09-26T08:12:58.000Z</time>
      </trkpt>
      <trkpt lat="40.32260642386972904205322265625" lon="-1.006880141794681549072265625">
        <ele>1120</ele>
        <time>2021-09-26T08:13:00.000Z</time>
      </trkpt>
      <trkpt lat="40.32255412079393863677978515625" lon="-1.00683043710887432098388671875">
        <ele>1120.199951171875</ele>
        <time>2021-09-26T08:13:02.000Z</time>
      </trkpt>
      <trkpt lat="40.32249829731881618499755859375" lon="-1.0067845880985260009765625">
        <ele>1120.4000244140625</ele>
        <time>2021-09-26T08:13:04.000Z</time>
      </trkpt>
      <trkpt lat="40.322449095547199249267578125" lon="-1.00673723034560680389404296875">
        <ele>1120.800048828125</ele>
        <time>2021-09-26T08:13:06.000Z</time>
      </trkpt>
      <trkpt lat="40.322398133575916290283203125" lon="-1.00668693892657756805419921875">
        <ele>1121.199951171875</ele>
        <time>2021-09-26T08:13:08.000Z</time>
      </trkpt>
      <trkpt lat="40.322345830500125885009765625" lon="-1.00664519704878330230712890625">
        <ele>1121.4000244140625</ele>
        <time>2021-09-26T08:13:10.000Z</time>
      </trkpt>
      <trkpt lat="40.32229277305305004119873046875" lon="-1.00659406743943691253662109375">
        <ele>1121.4000244140625</ele>
        <time>2021-09-26T08:13:12.000Z</time>
      </trkpt>
      <trkpt lat="40.32224097289144992828369140625" lon="-1.00654184818267822265625">
        <ele>1121.4000244140625</ele>
        <time>2021-09-26T08:13:14.000Z</time>
      </trkpt>
      <trkpt lat="40.322187244892120361328125" lon="-1.00648778490722179412841796875">
        <ele>1121.5999755859375</ele>
        <time>2021-09-26T08:13:16.000Z</time>
      </trkpt>
      <trkpt lat="40.32213938422501087188720703125" lon="-1.00643849931657314300537109375">
        <ele>1121.800048828125</ele>
        <time>2021-09-26T08:13:18.000Z</time>
      </trkpt>
      <trkpt lat="40.32209227792918682098388671875" lon="-1.006385944783687591552734375">
        <ele>1122</ele>
        <time>2021-09-26T08:13:20.000Z</time>
      </trkpt>
      <trkpt lat="40.32203813083469867706298828125" lon="-1.00633992813527584075927734375">
        <ele>1122</ele>
        <time>2021-09-26T08:13:22.000Z</time>
      </trkpt>
      <trkpt lat="40.32198297791182994842529296875" lon="-1.00628770887851715087890625">
        <ele>1122.199951171875</ele>
        <time>2021-09-26T08:13:24.000Z</time>
      </trkpt>
      <trkpt lat="40.321928746998310089111328125" lon="-1.00623498670756816864013671875">
        <ele>1122.4000244140625</ele>
        <time>2021-09-26T08:13:26.000Z</time>
      </trkpt>
      <trkpt lat="40.321875102818012237548828125" lon="-1.0061856172978878021240234375">
        <ele>1122.199951171875</ele>
        <time>2021-09-26T08:13:28.000Z</time>
      </trkpt>
      <trkpt lat="40.32182154245674610137939453125" lon="-1.00614563561975955963134765625">
        <ele>1121.4000244140625</ele>
        <time>2021-09-26T08:13:30.000Z</time>
      </trkpt>
      <trkpt lat="40.32176990993320941925048828125" lon="-1.006099283695220947265625">
        <ele>1120.800048828125</ele>
        <time>2021-09-26T08:13:32.000Z</time>
      </trkpt>
      <trkpt lat="40.32171928323805332183837890625" lon="-1.00604991428554058074951171875">
        <ele>1120.5999755859375</ele>
        <time>2021-09-26T08:13:34.000Z</time>
      </trkpt>
      <trkpt lat="40.32166262157261371612548828125" lon="-1.006006412208080291748046875">
        <ele>1120.4000244140625</ele>
        <time>2021-09-26T08:13:36.000Z</time>
      </trkpt>
      <trkpt lat="40.3216172754764556884765625" lon="-1.00595721043646335601806640625">
        <ele>1120.199951171875</ele>
        <time>2021-09-26T08:13:38.000Z</time>
      </trkpt>
      <trkpt lat="40.321564972400665283203125" lon="-1.00592200644314289093017578125">
        <ele>1120.4000244140625</ele>
        <time>2021-09-26T08:13:40.000Z</time>
      </trkpt>
      <trkpt lat="40.32151493243873119354248046875" lon="-1.00587154738605022430419921875">
        <ele>1120.800048828125</ele>
        <time>2021-09-26T08:13:42.000Z</time>
      </trkpt>
      <trkpt lat="40.32145944423973560333251953125" lon="-1.0058238543570041656494140625">
        <ele>1121.199951171875</ele>
        <time>2021-09-26T08:13:44.000Z</time>
      </trkpt>
      <trkpt lat="40.321405045688152313232421875" lon="-1.00578236393630504608154296875">
        <ele>1122.199951171875</ele>
        <time>2021-09-26T08:13:46.000Z</time>
      </trkpt>
      <trkpt lat="40.32135240733623504638671875" lon="-1.0057366825640201568603515625">
        <ele>1123.199951171875</ele>
        <time>2021-09-26T08:13:48.000Z</time>
      </trkpt>
      <trkpt lat="40.32132449559867382049560546875" lon="-1.005714051425457000732421875">
        <ele>1123.5999755859375</ele>
        <time>2021-09-26T08:13:49.000Z</time>
      </trkpt>
      <trkpt lat="40.3212982602417469024658203125" lon="-1.00569200702011585235595703125">
        <ele>1123.800048828125</ele>
        <time>2021-09-26T08:13:50.000Z</time>
      </trkpt>
      <trkpt lat="40.32124377787113189697265625" lon="-1.0056500136852264404296875">
        <ele>1124.199951171875</ele>
        <time>2021-09-26T08:13:52.000Z</time>
      </trkpt>
      <trkpt lat="40.3211856074631214141845703125" lon="-1.0056097805500030517578125">
        <ele>1124.4000244140625</ele>
        <time>2021-09-26T08:13:54.000Z</time>
      </trkpt>
      <trkpt lat="40.32113104127347469329833984375" lon="-1.0055660270154476165771484375">
        <ele>1124.5999755859375</ele>
        <time>2021-09-26T08:13:56.000Z</time>
      </trkpt>
      <trkpt lat="40.32107773236930370330810546875" lon="-1.0055251233279705047607421875">
        <ele>1125</ele>
        <time>2021-09-26T08:13:58.000Z</time>
      </trkpt>
      <trkpt lat="40.3210216574370861053466796875" lon="-1.00549042224884033203125">
        <ele>1125</ele>
        <time>2021-09-26T08:14:00.000Z</time>
      </trkpt>
      <trkpt lat="40.32096306793391704559326171875" lon="-1.00545027293264865875244140625">
        <ele>1124.800048828125</ele>
        <time>2021-09-26T08:14:02.000Z</time>
      </trkpt>
      <trkpt lat="40.32090439461171627044677734375" lon="-1.0054138116538524627685546875">
        <ele>1124.4000244140625</ele>
        <time>2021-09-26T08:14:04.000Z</time>
      </trkpt>
      <trkpt lat="40.320874638855457305908203125" lon="-1.005394868552684783935546875">
        <ele>1124.199951171875</ele>
        <time>2021-09-26T08:14:05.000Z</time>
      </trkpt>
      <trkpt lat="40.32084639184176921844482421875" lon="-1.00537550635635852813720703125">
        <ele>1124</ele>
        <time>2021-09-26T08:14:06.000Z</time>
      </trkpt>
      <trkpt lat="40.32079207710921764373779296875" lon="-1.0053366981446743011474609375">
        <ele>1123.5999755859375</ele>
        <time>2021-09-26T08:14:08.000Z</time>
      </trkpt>
      <trkpt lat="40.32072921283543109893798828125" lon="-1.00530199706554412841796875">
        <ele>1123.4000244140625</ele>
        <time>2021-09-26T08:14:10.000Z</time>
      </trkpt>
      <trkpt lat="40.320665426552295684814453125" lon="-1.0052753426134586334228515625">
        <ele>1123.199951171875</ele>
        <time>2021-09-26T08:14:12.000Z</time>
      </trkpt>
      <trkpt lat="40.32060675323009490966796875" lon="-1.00524491630494594573974609375">
        <ele>1123.199951171875</ele>
        <time>2021-09-26T08:14:14.000Z</time>
      </trkpt>
      <trkpt lat="40.320545397698879241943359375" lon="-1.00521507672965526580810546875">
        <ele>1123.4000244140625</ele>
        <time>2021-09-26T08:14:16.000Z</time>
      </trkpt>
      <trkpt lat="40.3204835392534732818603515625" lon="-1.00518154911696910858154296875">
        <ele>1123.4000244140625</ele>
        <time>2021-09-26T08:14:18.000Z</time>
      </trkpt>
      <trkpt lat="40.320416651666164398193359375" lon="-1.0051512904465198516845703125">
        <ele>1123.5999755859375</ele>
        <time>2021-09-26T08:14:20.000Z</time>
      </trkpt>
      <trkpt lat="40.32035328447818756103515625" lon="-1.0051221214234828948974609375">
        <ele>1123.5999755859375</ele>
        <time>2021-09-26T08:14:22.000Z</time>
      </trkpt>
      <trkpt lat="40.32029184512794017791748046875" lon="-1.0050859116017818450927734375">
        <ele>1123.800048828125</ele>
        <time>2021-09-26T08:14:24.000Z</time>
      </trkpt>
      <trkpt lat="40.3202324174344539642333984375" lon="-1.00505934096872806549072265625">
        <ele>1123.5999755859375</ele>
        <time>2021-09-26T08:14:26.000Z</time>
      </trkpt>
      <trkpt lat="40.320203416049480438232421875" lon="-1.0050486959517002105712890625">
        <ele>1123.4000244140625</ele>
        <time>2021-09-26T08:14:27.000Z</time>
      </trkpt>
      <trkpt lat="40.32017416320741176605224609375" lon="-1.00503670983016490936279296875">
        <ele>1123.4000244140625</ele>
        <time>2021-09-26T08:14:28.000Z</time>
      </trkpt>
      <trkpt lat="40.32011297531425952911376953125" lon="-1.0050084628164768218994140625">
        <ele>1123.199951171875</ele>
        <time>2021-09-26T08:14:30.000Z</time>
      </trkpt>
      <trkpt lat="40.3200513683259487152099609375" lon="-1.00497770123183727264404296875">
        <ele>1123.199951171875</ele>
        <time>2021-09-26T08:14:32.000Z</time>
      </trkpt>
      <trkpt lat="40.31998850405216217041015625" lon="-1.0049471072852611541748046875">
        <ele>1123.199951171875</ele>
        <time>2021-09-26T08:14:34.000Z</time>
      </trkpt>
      <trkpt lat="40.3199286572635173797607421875" lon="-1.004921458661556243896484375">
        <ele>1123.199951171875</ele>
        <time>2021-09-26T08:14:36.000Z</time>
      </trkpt>
      <trkpt lat="40.3198659606277942657470703125" lon="-1.0048864223062992095947265625">
        <ele>1123.199951171875</ele>
        <time>2021-09-26T08:14:38.000Z</time>
      </trkpt>
      <trkpt lat="40.3198019228875637054443359375" lon="-1.00485004484653472900390625">
        <ele>1123</ele>
        <time>2021-09-26T08:14:40.000Z</time>
      </trkpt>
      <trkpt lat="40.31974400393664836883544921875" lon="-1.0048207081854343414306640625">
        <ele>1122.800048828125</ele>
        <time>2021-09-26T08:14:42.000Z</time>
      </trkpt>
      <trkpt lat="40.31968683935701847076416015625" lon="-1.0047935508191585540771484375">
        <ele>1122.5999755859375</ele>
        <time>2021-09-26T08:14:44.000Z</time>
      </trkpt>
      <trkpt lat="40.31962632201611995697021484375" lon="-1.00477519445121288299560546875">
        <ele>1122.199951171875</ele>
        <time>2021-09-26T08:14:46.000Z</time>
      </trkpt>
      <trkpt lat="40.31956999562680721282958984375" lon="-1.00475088693201541900634765625">
        <ele>1122</ele>
        <time>2021-09-26T08:14:48.000Z</time>
      </trkpt>
      <trkpt lat="40.31951107084751129150390625" lon="-1.0047187842428684234619140625">
        <ele>1121.800048828125</ele>
        <time>2021-09-26T08:14:50.000Z</time>
      </trkpt>
      <trkpt lat="40.31945248134434223175048828125" lon="-1.00468969903886318206787109375">
        <ele>1121.5999755859375</ele>
        <time>2021-09-26T08:14:52.000Z</time>
      </trkpt>
      <trkpt lat="40.31938903033733367919921875" lon="-1.0046577639877796173095703125">
        <ele>1121.4000244140625</ele>
        <time>2021-09-26T08:14:54.000Z</time>
      </trkpt>
      <trkpt lat="40.3193241544067859649658203125" lon="-1.0046339593827724456787109375">
        <ele>1121.199951171875</ele>
        <time>2021-09-26T08:14:56.000Z</time>
      </trkpt>
      <trkpt lat="40.3192651458084583282470703125" lon="-1.0046114958822727203369140625">
        <ele>1121.199951171875</ele>
        <time>2021-09-26T08:14:58.000Z</time>
      </trkpt>
      <trkpt lat="40.319204293191432952880859375" lon="-1.00458626635372638702392578125">
        <ele>1121.199951171875</ele>
        <time>2021-09-26T08:15:00.000Z</time>
      </trkpt>
      <trkpt lat="40.3191469609737396240234375" lon="-1.0045529901981353759765625">
        <ele>1121.4000244140625</ele>
        <time>2021-09-26T08:15:02.000Z</time>
      </trkpt>
      <trkpt lat="40.31908635981380939483642578125" lon="-1.0045249946415424346923828125">
        <ele>1121.4000244140625</ele>
        <time>2021-09-26T08:15:04.000Z</time>
      </trkpt>
      <trkpt lat="40.3190264292061328887939453125" lon="-1.00449196994304656982421875">
        <ele>1121.4000244140625</ele>
        <time>2021-09-26T08:15:06.000Z</time>
      </trkpt>
      <trkpt lat="40.319000445306301116943359375" lon="-1.00447394885122776031494140625">
        <ele>1121.4000244140625</ele>
        <time>2021-09-26T08:15:07.000Z</time>
      </trkpt>
      <trkpt lat="40.318970270454883575439453125" lon="-1.004452407360076904296875">
        <ele>1121.4000244140625</ele>
        <time>2021-09-26T08:15:08.000Z</time>
      </trkpt>
      <trkpt lat="40.31891369260847568511962890625" lon="-1.00441242568194866180419921875">
        <ele>1121.800048828125</ele>
        <time>2021-09-26T08:15:10.000Z</time>
      </trkpt>
      <trkpt lat="40.31885904259979724884033203125" lon="-1.00437755696475505828857421875">
        <ele>1122</ele>
        <time>2021-09-26T08:15:12.000Z</time>
      </trkpt>
      <trkpt lat="40.318802297115325927734375" lon="-1.00433648563921451568603515625">
        <ele>1122.199951171875</ele>
        <time>2021-09-26T08:15:14.000Z</time>
      </trkpt>
      <trkpt lat="40.31877488829195499420166015625" lon="-1.00431351922452449798583984375">
        <ele>1122.199951171875</ele>
        <time>2021-09-26T08:15:15.000Z</time>
      </trkpt>
      <trkpt lat="40.31874840147793292999267578125" lon="-1.0042929835617542266845703125">
        <ele>1122.199951171875</ele>
        <time>2021-09-26T08:15:16.000Z</time>
      </trkpt>
      <trkpt lat="40.3186978586018085479736328125" lon="-1.00424881093204021453857421875">
        <ele>1122.199951171875</ele>
        <time>2021-09-26T08:15:18.000Z</time>
      </trkpt>
      <trkpt lat="40.3186480700969696044921875" lon="-1.00420824252068996429443359375">
        <ele>1122</ele>
        <time>2021-09-26T08:15:20.000Z</time>
      </trkpt>
      <trkpt lat="40.3186217509210109710693359375" lon="-1.00418544374406337738037109375">
        <ele>1122.199951171875</ele>
        <time>2021-09-26T08:15:21.000Z</time>
      </trkpt>
      <trkpt lat="40.31859501264989376068115234375" lon="-1.00415862165391445159912109375">
        <ele>1122.4000244140625</ele>
        <time>2021-09-26T08:15:22.000Z</time>
      </trkpt>
      <trkpt lat="40.318544469773769378662109375" lon="-1.004102043807506561279296875">
        <ele>1123</ele>
        <time>2021-09-26T08:15:24.000Z</time>
      </trkpt>
      <trkpt lat="40.3184997104108333587646484375" lon="-1.004046387970447540283203125">
        <ele>1123.800048828125</ele>
        <time>2021-09-26T08:15:26.000Z</time>
      </trkpt>
      <trkpt lat="40.3184812702238559722900390625" lon="-1.0040157102048397064208984375">
        <ele>1124.199951171875</ele>
        <time>2021-09-26T08:15:27.000Z</time>
      </trkpt>
      <trkpt lat="40.31845956109464168548583984375" lon="-1.00398712791502475738525390625">
        <ele>1124.5999755859375</ele>
        <time>2021-09-26T08:15:28.000Z</time>
      </trkpt>
      <trkpt lat="40.31841714866459369659423828125" lon="-1.0039315558969974517822265625">
        <ele>1125.4000244140625</ele>
        <time>2021-09-26T08:15:30.000Z</time>
      </trkpt>
      <trkpt lat="40.318375490605831146240234375" lon="-1.0038722120225429534912109375">
        <ele>1126.199951171875</ele>
        <time>2021-09-26T08:15:32.000Z</time>
      </trkpt>
      <trkpt lat="40.31833450309932231903076171875" lon="-1.00381177850067615509033203125">
        <ele>1127.199951171875</ele>
        <time>2021-09-26T08:15:34.000Z</time>
      </trkpt>
      <trkpt lat="40.31829728744924068450927734375" lon="-1.003756038844585418701171875">
        <ele>1128</ele>
        <time>2021-09-26T08:15:36.000Z</time>
      </trkpt>
      <trkpt lat="40.3182626701891422271728515625" lon="-1.00369309075176715850830078125">
        <ele>1128.5999755859375</ele>
        <time>2021-09-26T08:15:38.000Z</time>
      </trkpt>
      <trkpt lat="40.31822604127228260040283203125" lon="-1.00362938828766345977783203125">
        <ele>1129.4000244140625</ele>
        <time>2021-09-26T08:15:40.000Z</time>
      </trkpt>
      <trkpt lat="40.31819066964089870452880859375" lon="-1.0035627521574497222900390625">
        <ele>1130</ele>
        <time>2021-09-26T08:15:42.000Z</time>
      </trkpt>
      <trkpt lat="40.31815948896110057830810546875" lon="-1.00349494256079196929931640625">
        <ele>1131.199951171875</ele>
        <time>2021-09-26T08:15:44.000Z</time>
      </trkpt>
      <trkpt lat="40.3181312419474124908447265625" lon="-1.00342218764126300811767578125">
        <ele>1132.4000244140625</ele>
        <time>2021-09-26T08:15:46.000Z</time>
      </trkpt>
      <trkpt lat="40.318104922771453857421875" lon="-1.0033485107123851776123046875">
        <ele>1133.800048828125</ele>
        <time>2021-09-26T08:15:48.000Z</time>
      </trkpt>
      <trkpt lat="40.3180762566626071929931640625" lon="-1.00327868945896625518798828125">
        <ele>1134.800048828125</ele>
        <time>2021-09-26T08:15:50.000Z</time>
      </trkpt>
      <trkpt lat="40.31804901547729969024658203125" lon="-1.00320962257683277130126953125">
        <ele>1135.800048828125</ele>
        <time>2021-09-26T08:15:52.000Z</time>
      </trkpt>
      <trkpt lat="40.31802437268197536468505859375" lon="-1.0031362809240818023681640625">
        <ele>1137</ele>
        <time>2021-09-26T08:15:54.000Z</time>
      </trkpt>
      <trkpt lat="40.31799688003957271575927734375" lon="-1.00307584740221500396728515625">
        <ele>1137.5999755859375</ele>
        <time>2021-09-26T08:15:56.000Z</time>
      </trkpt>
      <trkpt lat="40.3179853968322277069091796875" lon="-1.0030402243137359619140625">
        <ele>1138.199951171875</ele>
        <time>2021-09-26T08:15:57.000Z</time>
      </trkpt>
      <trkpt lat="40.31797223724424839019775390625" lon="-1.00300074554979801177978515625">
        <ele>1138.5999755859375</ele>
        <time>2021-09-26T08:15:58.000Z</time>
      </trkpt>
      <trkpt lat="40.31794206239283084869384765625" lon="-1.002918183803558349609375">
        <ele>1139.5999755859375</ele>
        <time>2021-09-26T08:16:00.000Z</time>
      </trkpt>
      <trkpt lat="40.31791649758815765380859375" lon="-1.00284048356115818023681640625">
        <ele>1140.199951171875</ele>
        <time>2021-09-26T08:16:02.000Z</time>
      </trkpt>
      <trkpt lat="40.3178908489644527435302734375" lon="-1.002765633165836334228515625">
        <ele>1140.800048828125</ele>
        <time>2021-09-26T08:16:04.000Z</time>
      </trkpt>
      <trkpt lat="40.31786293722689151763916015625" lon="-1.0026886872947216033935546875">
        <ele>1141.4000244140625</ele>
        <time>2021-09-26T08:16:06.000Z</time>
      </trkpt>
      <trkpt lat="40.31784449703991413116455078125" lon="-1.0026571713387966156005859375">
        <ele>1141.5999755859375</ele>
        <time>2021-09-26T08:16:07.000Z</time>
      </trkpt>
      <trkpt lat="40.3178299963474273681640625" lon="-1.0026253201067447662353515625">
        <ele>1141.800048828125</ele>
        <time>2021-09-26T08:16:08.000Z</time>
      </trkpt>
      <trkpt lat="40.3178023360669612884521484375" lon="-1.00255600176751613616943359375">
        <ele>1142.4000244140625</ele>
        <time>2021-09-26T08:16:10.000Z</time>
      </trkpt>
      <trkpt lat="40.3177751787006855010986328125" lon="-1.00248877890408039093017578125">
        <ele>1143</ele>
        <time>2021-09-26T08:16:12.000Z</time>
      </trkpt>
      <trkpt lat="40.31776252202689647674560546875" lon="-1.0024556703865528106689453125">
        <ele>1143.199951171875</ele>
        <time>2021-09-26T08:16:13.000Z</time>
      </trkpt>
      <trkpt lat="40.31774894334375858306884765625" lon="-1.002419292926788330078125">
        <ele>1143.5999755859375</ele>
        <time>2021-09-26T08:16:14.000Z</time>
      </trkpt>
      <trkpt lat="40.3177173435688018798828125" lon="-1.0023477114737033843994140625">
        <ele>1144.199951171875</ele>
        <time>2021-09-26T08:16:16.000Z</time>
      </trkpt>
      <trkpt lat="40.3176824748516082763671875" lon="-1.0022811591625213623046875">
        <ele>1145.199951171875</ele>
        <time>2021-09-26T08:16:18.000Z</time>
      </trkpt>
      <trkpt lat="40.31766730360686779022216796875" lon="-1.00224830210208892822265625">
        <ele>1145.5999755859375</ele>
        <time>2021-09-26T08:16:19.000Z</time>
      </trkpt>
      <trkpt lat="40.317650623619556427001953125" lon="-1.0022179596126079559326171875">
        <ele>1146</ele>
        <time>2021-09-26T08:16:20.000Z</time>
      </trkpt>
      <trkpt lat="40.31761609017848968505859375" lon="-1.002155430614948272705078125">
        <ele>1146.5999755859375</ele>
        <time>2021-09-26T08:16:22.000Z</time>
      </trkpt>
      <trkpt lat="40.31759706325829029083251953125" lon="-1.0021173767745494842529296875">
        <ele>1146.800048828125</ele>
        <time>2021-09-26T08:16:23.000Z</time>
      </trkpt>
      <trkpt lat="40.3175803832709789276123046875" lon="-1.00207739509642124176025390625">
        <ele>1147</ele>
        <time>2021-09-26T08:16:24.000Z</time>
      </trkpt>
      <trkpt lat="40.31754895113408565521240234375" lon="-1.00199910812079906463623046875">
        <ele>1147.5999755859375</ele>
        <time>2021-09-26T08:16:26.000Z</time>
      </trkpt>
      <trkpt lat="40.31754140742123126983642578125" lon="-1.001963652670383453369140625">
        <ele>1148</ele>
        <time>2021-09-26T08:16:27.000Z</time>
      </trkpt>
      <trkpt lat="40.3175378032028675079345703125" lon="-1.00193020887672901153564453125">
        <ele>1148.199951171875</ele>
        <time>2021-09-26T08:16:28.000Z</time>
      </trkpt>
      <trkpt lat="40.3175324387848377227783203125" lon="-1.0018783248960971832275390625">
        <ele>1148.800048828125</ele>
        <time>2021-09-26T08:16:30.000Z</time>
      </trkpt>
      <trkpt lat="40.317527242004871368408203125" lon="-1.00183079950511455535888671875">
        <ele>1149.199951171875</ele>
        <time>2021-09-26T08:16:32.000Z</time>
      </trkpt>
      <trkpt lat="40.31719825230538845062255859375" lon="-1.00079881958663463592529296875">
        <ele>1152.800048828125</ele>
        <time>2021-09-26T08:16:54.000Z</time>
      </trkpt>
      <trkpt lat="40.317149721086025238037109375" lon="-1.00074333138763904571533203125">
        <ele>1152.199951171875</ele>
        <time>2021-09-26T08:16:56.000Z</time>
      </trkpt>
      <trkpt lat="40.3171299397945404052734375" lon="-1.0006579197943210601806640625">
        <ele>1151</ele>
        <time>2021-09-26T08:16:58.000Z</time>
      </trkpt>
      <trkpt lat="40.3171029500663280487060546875" lon="-1.0005935467779636383056640625">
        <ele>1149.5999755859375</ele>
        <time>2021-09-26T08:17:00.000Z</time>
      </trkpt>
      <trkpt lat="40.31707352958619594573974609375" lon="-1.0005301795899868011474609375">
        <ele>1148.4000244140625</ele>
        <time>2021-09-26T08:17:02.000Z</time>
      </trkpt>
      <trkpt lat="40.317046456038951873779296875" lon="-1.00045667029917240142822265625">
        <ele>1146.800048828125</ele>
        <time>2021-09-26T08:17:04.000Z</time>
      </trkpt>
      <trkpt lat="40.317032374441623687744140625" lon="-1.00035793147981166839599609375">
        <ele>1145.199951171875</ele>
        <time>2021-09-26T08:17:06.000Z</time>
      </trkpt>
      <trkpt lat="40.31700982712209224700927734375" lon="-1.00027226842939853668212890625">
        <ele>1143.5999755859375</ele>
        <time>2021-09-26T08:17:08.000Z</time>
      </trkpt>
      <trkpt lat="40.31697906553745269775390625" lon="-1.0001932270824909210205078125">
        <ele>1141.4000244140625</ele>
        <time>2021-09-26T08:17:10.000Z</time>
      </trkpt>
      <trkpt lat="40.3169517405331134796142578125" lon="-1.0001211427152156829833984375">
        <ele>1139.5999755859375</ele>
        <time>2021-09-26T08:17:12.000Z</time>
      </trkpt>
      <trkpt lat="40.3169229067862033843994140625" lon="-1.0000390000641345977783203125">
        <ele>1138.199951171875</ele>
        <time>2021-09-26T08:17:14.000Z</time>
      </trkpt>
      <trkpt lat="40.31690740026533603668212890625" lon="-1.00000195205211639404296875">
        <ele>1137.5999755859375</ele>
        <time>2021-09-26T08:17:15.000Z</time>
      </trkpt>
      <trkpt lat="40.3168893791735172271728515625" lon="-0.99995945580303668975830078125">
        <ele>1137</ele>
        <time>2021-09-26T08:17:16.000Z</time>
      </trkpt>
      <trkpt lat="40.316856689751148223876953125" lon="-0.99987966008484363555908203125">
        <ele>1135.4000244140625</ele>
        <time>2021-09-26T08:17:18.000Z</time>
      </trkpt>
      <trkpt lat="40.31683045439422130584716796875" lon="-0.99980170838534832000732421875">
        <ele>1129.199951171875</ele>
        <time>2021-09-26T08:17:20.000Z</time>
      </trkpt>
      <trkpt lat="40.3168126009404659271240234375" lon="-0.99976348690688610076904296875">
        <ele>1128.4000244140625</ele>
        <time>2021-09-26T08:17:21.000Z</time>
      </trkpt>
      <trkpt lat="40.31679726205766201019287109375" lon="-0.9997250139713287353515625">
        <ele>1127.5999755859375</ele>
        <time>2021-09-26T08:17:22.000Z</time>
      </trkpt>
      <trkpt lat="40.31678058207035064697265625" lon="-0.99968670867383480072021484375">
        <ele>1127</ele>
        <time>2021-09-26T08:17:23.000Z</time>
      </trkpt>
      <trkpt lat="40.31676591373980045318603515625" lon="-0.99964924156665802001953125">
        <ele>1126.800048828125</ele>
        <time>2021-09-26T08:17:24.000Z</time>
      </trkpt>
      <trkpt lat="40.316739343106746673583984375" lon="-0.999575816094875335693359375">
        <ele>1126.4000244140625</ele>
        <time>2021-09-26T08:17:26.000Z</time>
      </trkpt>
      <trkpt lat="40.31671344302594661712646484375" lon="-0.99950348027050495147705078125">
        <ele>1126.4000244140625</ele>
        <time>2021-09-26T08:17:28.000Z</time>
      </trkpt>
      <trkpt lat="40.31668343581259250640869140625" lon="-0.999433659017086029052734375">
        <ele>1127.199951171875</ele>
        <time>2021-09-26T08:17:30.000Z</time>
      </trkpt>
      <trkpt lat="40.3166520036756992340087890625" lon="-0.99936425685882568359375">
        <ele>1128.199951171875</ele>
        <time>2021-09-26T08:17:32.000Z</time>
      </trkpt>
      <trkpt lat="40.31661772169172763824462890625" lon="-0.99929342977702617645263671875">
        <ele>1129.199951171875</ele>
        <time>2021-09-26T08:17:34.000Z</time>
      </trkpt>
      <trkpt lat="40.31658075749874114990234375" lon="-0.999226458370685577392578125">
        <ele>1131.199951171875</ele>
        <time>2021-09-26T08:17:36.000Z</time>
      </trkpt>
      <trkpt lat="40.3165430389344692230224609375" lon="-0.99915973842144012451171875">
        <ele>1133.199951171875</ele>
        <time>2021-09-26T08:17:38.000Z</time>
      </trkpt>
      <trkpt lat="40.316500961780548095703125" lon="-0.99909695796668529510498046875">
        <ele>1135.4000244140625</ele>
        <time>2021-09-26T08:17:40.000Z</time>
      </trkpt>
      <trkpt lat="40.316458046436309814453125" lon="-0.99903459660708904266357421875">
        <ele>1137.800048828125</ele>
        <time>2021-09-26T08:17:42.000Z</time>
      </trkpt>
      <trkpt lat="40.3164119459688663482666015625" lon="-0.99897089414298534393310546875">
        <ele>1140.5999755859375</ele>
        <time>2021-09-26T08:17:44.000Z</time>
      </trkpt>
      <trkpt lat="40.3163636662065982818603515625" lon="-0.99890786223113536834716796875">
        <ele>1143.199951171875</ele>
        <time>2021-09-26T08:17:46.000Z</time>
      </trkpt>
      <trkpt lat="40.31631194986402988433837890625" lon="-0.99884751252830028533935546875">
        <ele>1145.199951171875</ele>
        <time>2021-09-26T08:17:48.000Z</time>
      </trkpt>
      <trkpt lat="40.31625847332179546356201171875" lon="-0.99879135377705097198486328125">
        <ele>1147</ele>
        <time>2021-09-26T08:17:50.000Z</time>
      </trkpt>
      <trkpt lat="40.31620047055184841156005859375" lon="-0.99873720668256282806396484375">
        <ele>1148.4000244140625</ele>
        <time>2021-09-26T08:17:52.000Z</time>
      </trkpt>
      <trkpt lat="40.3161460720002651214599609375" lon="-0.99868373014032840728759765625">
        <ele>1149.800048828125</ele>
        <time>2021-09-26T08:17:54.000Z</time>
      </trkpt>
      <trkpt lat="40.316088907420635223388671875" lon="-0.99863268435001373291015625">
        <ele>1150.5999755859375</ele>
        <time>2021-09-26T08:17:56.000Z</time>
      </trkpt>
      <trkpt lat="40.3160300664603710174560546875" lon="-0.99858985282480716705322265625">
        <ele>1151</ele>
        <time>2021-09-26T08:17:58.000Z</time>
      </trkpt>
      <trkpt lat="40.3159744106233119964599609375" lon="-0.99854760803282260894775390625">
        <ele>1151</ele>
        <time>2021-09-26T08:18:00.000Z</time>
      </trkpt>
      <trkpt lat="40.31593023799359798431396484375" lon="-0.99848658777773380279541015625">
        <ele>1151.800048828125</ele>
        <time>2021-09-26T08:18:02.000Z</time>
      </trkpt>
      <trkpt lat="40.31590442173182964324951171875" lon="-0.99845968186855316162109375">
        <ele>1152</ele>
        <time>2021-09-26T08:18:03.000Z</time>
      </trkpt>
      <trkpt lat="40.31587609089910984039306640625" lon="-0.99843629635870456695556640625">
        <ele>1151.800048828125</ele>
        <time>2021-09-26T08:18:04.000Z</time>
      </trkpt>
      <trkpt lat="40.3158201836049556732177734375" lon="-0.99838432855904102325439453125">
        <ele>1151.4000244140625</ele>
        <time>2021-09-26T08:18:06.000Z</time>
      </trkpt>
      <trkpt lat="40.31575438566505908966064453125" lon="-0.9983455203473567962646484375">
        <ele>1150.199951171875</ele>
        <time>2021-09-26T08:18:08.000Z</time>
      </trkpt>
      <trkpt lat="40.3157229535281658172607421875" lon="-0.9983287565410137176513671875">
        <ele>1149.5999755859375</ele>
        <time>2021-09-26T08:18:09.000Z</time>
      </trkpt>
      <trkpt lat="40.31568917445838451385498046875" lon="-0.99831190891563892364501953125">
        <ele>1149</ele>
        <time>2021-09-26T08:18:10.000Z</time>
      </trkpt>
      <trkpt lat="40.31562320888042449951171875" lon="-0.998280979692935943603515625">
        <ele>1147.4000244140625</ele>
        <time>2021-09-26T08:18:12.000Z</time>
      </trkpt>
      <trkpt lat="40.3155603446066379547119140625" lon="-0.9982513077557086944580078125">
        <ele>1146</ele>
        <time>2021-09-26T08:18:14.000Z</time>
      </trkpt>
      <trkpt lat="40.3154849074780941009521484375" lon="-0.9982556663453578948974609375">
        <ele>1144</ele>
        <time>2021-09-26T08:18:16.000Z</time>
      </trkpt>
      <trkpt lat="40.31540703959763050079345703125" lon="-0.99825776182115077972412109375">
        <ele>1142.5999755859375</ele>
        <time>2021-09-26T08:18:18.000Z</time>
      </trkpt>
      <trkpt lat="40.3153373859822750091552734375" lon="-0.99825575016438961029052734375">
        <ele>1141.4000244140625</ele>
        <time>2021-09-26T08:18:20.000Z</time>
      </trkpt>
      <trkpt lat="40.3152663074433803558349609375" lon="-0.99825105629861354827880859375">
        <ele>1140</ele>
        <time>2021-09-26T08:18:22.000Z</time>
      </trkpt>
      <trkpt lat="40.31522867269814014434814453125" lon="-0.99825239740312099456787109375">
        <ele>1139.4000244140625</ele>
        <time>2021-09-26T08:18:23.000Z</time>
      </trkpt>
      <trkpt lat="40.315196402370929718017578125" lon="-0.99825290031731128692626953125">
        <ele>1139.199951171875</ele>
        <time>2021-09-26T08:18:24.000Z</time>
      </trkpt>
      <trkpt lat="40.3151358850300312042236328125" lon="-0.998251140117645263671875">
        <ele>1138.5999755859375</ele>
        <time>2021-09-26T08:18:26.000Z</time>
      </trkpt>
      <trkpt lat="40.31509087421000003814697265625" lon="-0.9982549957931041717529296875">
        <ele>1138</ele>
        <time>2021-09-26T08:18:28.000Z</time>
      </trkpt>
      <trkpt lat="40.315069667994976043701171875" lon="-0.9982600249350070953369140625">
        <ele>1137.800048828125</ele>
        <time>2021-09-26T08:18:29.000Z</time>
      </trkpt>
      <trkpt lat="40.3150540776550769805908203125" lon="-0.99826010875403881072998046875">
        <ele>1137.5999755859375</ele>
        <time>2021-09-26T08:18:30.000Z</time>
      </trkpt>
      <trkpt lat="40.315032117068767547607421875" lon="-0.9982546605169773101806640625">
        <ele>1137.4000244140625</ele>
        <time>2021-09-26T08:18:32.000Z</time>
      </trkpt>
      <trkpt lat="40.3150255791842937469482421875" lon="-0.99825977347791194915771484375">
        <ele>1137.4000244140625</ele>
        <time>2021-09-26T08:18:33.000Z</time>
      </trkpt>
      <trkpt lat="40.3149876929819583892822265625" lon="-0.99825826473534107208251953125">
        <ele>1137</ele>
        <time>2021-09-26T08:21:42.000Z</time>
      </trkpt>
      <trkpt lat="40.3149655647575855255126953125" lon="-0.998254828155040740966796875">
        <ele>1136.800048828125</ele>
        <time>2021-09-26T08:21:43.000Z</time>
      </trkpt>
      <trkpt lat="40.31493748538196086883544921875" lon="-0.99825373850762844085693359375">
        <ele>1136.5999755859375</ele>
        <time>2021-09-26T08:21:44.000Z</time>
      </trkpt>
      <trkpt lat="40.3149045445024967193603515625" lon="-0.99825449287891387939453125">
        <ele>1136.800048828125</ele>
        <time>2021-09-26T08:21:45.000Z</time>
      </trkpt>
      <trkpt lat="40.31487084925174713134765625" lon="-0.99825843237340450286865234375">
        <ele>1137.199951171875</ele>
        <time>2021-09-26T08:21:46.000Z</time>
      </trkpt>
      <trkpt lat="40.31484243459999561309814453125" lon="-0.99826329387724399566650390625">
        <ele>1137.5999755859375</ele>
        <time>2021-09-26T08:21:47.000Z</time>
      </trkpt>
      <trkpt lat="40.31481443904340267181396484375" lon="-0.99826522171497344970703125">
        <ele>1138</ele>
        <time>2021-09-26T08:21:48.000Z</time>
      </trkpt>
      <trkpt lat="40.3147821687161922454833984375" lon="-0.99826522171497344970703125">
        <ele>1138.4000244140625</ele>
        <time>2021-09-26T08:21:49.000Z</time>
      </trkpt>
      <trkpt lat="40.31474721617996692657470703125" lon="-0.99826790392398834228515625">
        <ele>1138.800048828125</ele>
        <time>2021-09-26T08:21:50.000Z</time>
      </trkpt>
      <trkpt lat="40.314678065478801727294921875" lon="-0.998272933065891265869140625">
        <ele>1139.800048828125</ele>
        <time>2021-09-26T08:21:52.000Z</time>
      </trkpt>
      <trkpt lat="40.31460975296795368194580078125" lon="-0.9982741065323352813720703125">
        <ele>1141</ele>
        <time>2021-09-26T08:21:54.000Z</time>
      </trkpt>
      <trkpt lat="40.3145421110093593597412109375" lon="-0.99827955476939678192138671875">
        <ele>1142.199951171875</ele>
        <time>2021-09-26T08:21:56.000Z</time>
      </trkpt>
      <trkpt lat="40.31448067165911197662353515625" lon="-0.9982845000922679901123046875">
        <ele>1143.4000244140625</ele>
        <time>2021-09-26T08:21:58.000Z</time>
      </trkpt>
      <trkpt lat="40.31441311351954936981201171875" lon="-0.9982938878238201141357421875">
        <ele>1144.800048828125</ele>
        <time>2021-09-26T08:22:00.000Z</time>
      </trkpt>
      <trkpt lat="40.3143456391990184783935546875" lon="-0.9983007609844207763671875">
        <ele>1146</ele>
        <time>2021-09-26T08:22:02.000Z</time>
      </trkpt>
      <trkpt lat="40.31427380628883838653564453125" lon="-0.99830419756472110748291015625">
        <ele>1147.5999755859375</ele>
        <time>2021-09-26T08:22:04.000Z</time>
      </trkpt>
      <trkpt lat="40.3142054937779903411865234375" lon="-0.99831073544919490814208984375">
        <ele>1149.4000244140625</ele>
        <time>2021-09-26T08:22:06.000Z</time>
      </trkpt>
      <trkpt lat="40.31413382850587368011474609375" lon="-0.99832012318074703216552734375">
        <ele>1151.199951171875</ele>
        <time>2021-09-26T08:22:08.000Z</time>
      </trkpt>
      <trkpt lat="40.31409543938934803009033203125" lon="-0.99832766689360141754150390625">
        <ele>1152</ele>
        <time>2021-09-26T08:22:09.000Z</time>
      </trkpt>
      <trkpt lat="40.3140599839389324188232421875" lon="-0.99833286367356777191162109375">
        <ele>1152.5999755859375</ele>
        <time>2021-09-26T08:22:10.000Z</time>
      </trkpt>
      <trkpt lat="40.31399116851389408111572265625" lon="-0.99833621643483638763427734375">
        <ele>1154</ele>
        <time>2021-09-26T08:22:12.000Z</time>
      </trkpt>
      <trkpt lat="40.31392578966915607452392578125" lon="-0.99834241904318332672119140625">
        <ele>1155.4000244140625</ele>
        <time>2021-09-26T08:22:14.000Z</time>
      </trkpt>
      <trkpt lat="40.31386728398501873016357421875" lon="-0.99833336658775806427001953125">
        <ele>1156.800048828125</ele>
        <time>2021-09-26T08:22:16.000Z</time>
      </trkpt>
      <trkpt lat="40.3138169087469577789306640625" lon="-0.9983190335333347320556640625">
        <ele>1158.199951171875</ele>
        <time>2021-09-26T08:22:18.000Z</time>
      </trkpt>
      <trkpt lat="40.31376175582408905029296875" lon="-0.9983183629810810089111328125">
        <ele>1159.199951171875</ele>
        <time>2021-09-26T08:22:20.000Z</time>
      </trkpt>
      <trkpt lat="40.3137020766735076904296875" lon="-0.9983143396675586700439453125">
        <ele>1160.4000244140625</ele>
        <time>2021-09-26T08:22:22.000Z</time>
      </trkpt>
      <trkpt lat="40.3136744163930416107177734375" lon="-0.9983096458017826080322265625">
        <ele>1161</ele>
        <time>2021-09-26T08:22:23.000Z</time>
      </trkpt>
      <trkpt lat="40.31365388073027133941650390625" lon="-0.99829472601413726806640625">
        <ele>1161.800048828125</ele>
        <time>2021-09-26T08:22:24.000Z</time>
      </trkpt>
      <trkpt lat="40.31360107474029064178466796875" lon="-0.99827729165554046630859375">
        <ele>1163.199951171875</ele>
        <time>2021-09-26T08:22:26.000Z</time>
      </trkpt>
      <trkpt lat="40.313550531864166259765625" lon="-0.99828508682548999786376953125">
        <ele>1163.800048828125</ele>
        <time>2021-09-26T08:22:28.000Z</time>
      </trkpt>
      <trkpt lat="40.3124935738742351531982421875" lon="-0.9977913089096546173095703125">
        <ele>1159.800048828125</ele>
        <time>2021-09-26T08:22:58.000Z</time>
      </trkpt>
      <trkpt lat="40.3124503232538700103759765625" lon="-0.997755266726016998291015625">
        <ele>1160</ele>
        <time>2021-09-26T08:23:00.000Z</time>
      </trkpt>
      <trkpt lat="40.3123819269239902496337890625" lon="-0.9977198950946331024169921875">
        <ele>1160</ele>
        <time>2021-09-26T08:23:02.000Z</time>
      </trkpt>
      <trkpt lat="40.31231780536472797393798828125" lon="-0.9976910613477230072021484375">
        <ele>1158.4000244140625</ele>
        <time>2021-09-26T08:23:04.000Z</time>
      </trkpt>
      <trkpt lat="40.31225142069160938262939453125" lon="-0.9976652450859546661376953125">
        <ele>1156.4000244140625</ele>
        <time>2021-09-26T08:23:06.000Z</time>
      </trkpt>
      <trkpt lat="40.31221118755638599395751953125" lon="-0.997653342783451080322265625">
        <ele>1155.199951171875</ele>
        <time>2021-09-26T08:23:07.000Z</time>
      </trkpt>
      <trkpt lat="40.3121740557253360748291015625" lon="-0.99764160811901092529296875">
        <ele>1154.199951171875</ele>
        <time>2021-09-26T08:23:08.000Z</time>
      </trkpt>
      <trkpt lat="40.31209819950163364410400390625" lon="-0.99761570803821086883544921875">
        <ele>1151.800048828125</ele>
        <time>2021-09-26T08:23:10.000Z</time>
      </trkpt>
      <trkpt lat="40.31202326528728008270263671875" lon="-0.9975867904722690582275390625">
        <ele>1149.5999755859375</ele>
        <time>2021-09-26T08:23:12.000Z</time>
      </trkpt>
      <trkpt lat="40.31193651258945465087890625" lon="-0.99756072275340557098388671875">
        <ele>1147</ele>
        <time>2021-09-26T08:23:14.000Z</time>
      </trkpt>
      <trkpt lat="40.3119001351296901702880859375" lon="-0.99754513241350650787353515625">
        <ele>1145.800048828125</ele>
        <time>2021-09-26T08:23:15.000Z</time>
      </trkpt>
      <trkpt lat="40.311861075460910797119140625" lon="-0.99752853624522686004638671875">
        <ele>1145</ele>
        <time>2021-09-26T08:23:16.000Z</time>
      </trkpt>
      <trkpt lat="40.3117911703884601593017578125" lon="-0.99749232642352581024169921875">
        <ele>1143.5999755859375</ele>
        <time>2021-09-26T08:23:18.000Z</time>
      </trkpt>
      <trkpt lat="40.31175387091934680938720703125" lon="-0.99747371859848499298095703125">
        <ele>1143</ele>
        <time>2021-09-26T08:23:19.000Z</time>
      </trkpt>
      <trkpt lat="40.311718918383121490478515625" lon="-0.99745226092636585235595703125">
        <ele>1142.199951171875</ele>
        <time>2021-09-26T08:23:20.000Z</time>
      </trkpt>
      <trkpt lat="40.31165353953838348388671875" lon="-0.99741688929498195648193359375">
        <ele>1141</ele>
        <time>2021-09-26T08:23:22.000Z</time>
      </trkpt>
      <trkpt lat="40.31158824451267719268798828125" lon="-0.99738017655909061431884765625">
        <ele>1139.800048828125</ele>
        <time>2021-09-26T08:23:24.000Z</time>
      </trkpt>
      <trkpt lat="40.31152437441051006317138671875" lon="-0.99734514020383358001708984375">
        <ele>1139.4000244140625</ele>
        <time>2021-09-26T08:23:26.000Z</time>
      </trkpt>
      <trkpt lat="40.31146335415542125701904296875" lon="-0.9973051585257053375244140625">
        <ele>1139</ele>
        <time>2021-09-26T08:23:28.000Z</time>
      </trkpt>
      <trkpt lat="40.31139931641519069671630859375" lon="-0.99726500920951366424560546875">
        <ele>1138.4000244140625</ele>
        <time>2021-09-26T08:23:30.000Z</time>
      </trkpt>
      <trkpt lat="40.3113341890275478363037109375" lon="-0.99722645245492458343505859375">
        <ele>1138</ele>
        <time>2021-09-26T08:23:32.000Z</time>
      </trkpt>
      <trkpt lat="40.31126906163990497589111328125" lon="-0.99718538112938404083251953125">
        <ele>1138.199951171875</ele>
        <time>2021-09-26T08:23:34.000Z</time>
      </trkpt>
      <trkpt lat="40.311202593147754669189453125" lon="-0.997147746384143829345703125">
        <ele>1139.4000244140625</ele>
        <time>2021-09-26T08:23:36.000Z</time>
      </trkpt>
      <trkpt lat="40.31113721430301666259765625" lon="-0.99710860289633274078369140625">
        <ele>1141.199951171875</ele>
        <time>2021-09-26T08:23:38.000Z</time>
      </trkpt>
      <trkpt lat="40.31107124872505664825439453125" lon="-0.99706786684691905975341796875">
        <ele>1143</ele>
        <time>2021-09-26T08:23:40.000Z</time>
      </trkpt>
      <trkpt lat="40.31100302003324031829833984375" lon="-0.99702260456979274749755859375">
        <ele>1144.4000244140625</ele>
        <time>2021-09-26T08:23:42.000Z</time>
      </trkpt>
      <trkpt lat="40.3109707497060298919677734375" lon="-0.997001565992832183837890625">
        <ele>1145.199951171875</ele>
        <time>2021-09-26T08:23:43.000Z</time>
      </trkpt>
      <trkpt lat="40.31093537807464599609375" lon="-0.996979437768459320068359375">
        <ele>1145.800048828125</ele>
        <time>2021-09-26T08:23:44.000Z</time>
      </trkpt>
      <trkpt lat="40.31086220405995845794677734375" lon="-0.99693492986261844635009765625">
        <ele>1147.4000244140625</ele>
        <time>2021-09-26T08:23:46.000Z</time>
      </trkpt>
      <trkpt lat="40.3107903711497783660888671875" lon="-0.99688732065260410308837890625">
        <ele>1149.4000244140625</ele>
        <time>2021-09-26T08:23:48.000Z</time>
      </trkpt>
      <trkpt lat="40.310718454420566558837890625" lon="-0.9968481771647930145263671875">
        <ele>1150.800048828125</ele>
        <time>2021-09-26T08:23:50.000Z</time>
      </trkpt>
      <trkpt lat="40.3106475435197353363037109375" lon="-0.996808111667633056640625">
        <ele>1152.4000244140625</ele>
        <time>2021-09-26T08:23:52.000Z</time>
      </trkpt>
      <trkpt lat="40.31057721935212612152099609375" lon="-0.9967697225511074066162109375">
        <ele>1154</ele>
        <time>2021-09-26T08:23:54.000Z</time>
      </trkpt>
      <trkpt lat="40.31050555408000946044921875" lon="-0.99672672338783740997314453125">
        <ele>1156</ele>
        <time>2021-09-26T08:23:56.000Z</time>
      </trkpt>
      <trkpt lat="40.31047278083860874176025390625" lon="-0.99670928902924060821533203125">
        <ele>1156.800048828125</ele>
        <time>2021-09-26T08:23:57.000Z</time>
      </trkpt>
      <trkpt lat="40.310440845787525177001953125" lon="-0.996689759194850921630859375">
        <ele>1157.5999755859375</ele>
        <time>2021-09-26T08:23:58.000Z</time>
      </trkpt>
      <trkpt lat="40.3103736229240894317626953125" lon="-0.99664709530770778656005859375">
        <ele>1159.4000244140625</ele>
        <time>2021-09-26T08:24:00.000Z</time>
      </trkpt>
      <trkpt lat="40.31030950136482715606689453125" lon="-0.996609963476657867431640625">
        <ele>1160.5999755859375</ele>
        <time>2021-09-26T08:24:02.000Z</time>
      </trkpt>
      <trkpt lat="40.3102768957614898681640625" lon="-0.9965873323380947113037109375">
        <ele>1161.4000244140625</ele>
        <time>2021-09-26T08:24:03.000Z</time>
      </trkpt>
      <trkpt lat="40.31024211086332798004150390625" lon="-0.99656470119953155517578125">
        <ele>1162</ele>
        <time>2021-09-26T08:24:04.000Z</time>
      </trkpt>
      <trkpt lat="40.31017790548503398895263671875" lon="-0.9965142421424388885498046875">
        <ele>1163.199951171875</ele>
        <time>2021-09-26T08:24:06.000Z</time>
      </trkpt>
      <trkpt lat="40.31014370732009410858154296875" lon="-0.996492616832256317138671875">
        <ele>1163.5999755859375</ele>
        <time>2021-09-26T08:24:07.000Z</time>
      </trkpt>
      <trkpt lat="40.3101104311645030975341796875" lon="-0.99647124297916889190673828125">
        <ele>1164</ele>
        <time>2021-09-26T08:24:08.000Z</time>
      </trkpt>
      <trkpt lat="40.310048572719097137451171875" lon="-0.99642883054912090301513671875">
        <ele>1164.800048828125</ele>
        <time>2021-09-26T08:24:10.000Z</time>
      </trkpt>
      <trkpt lat="40.30998813919723033905029296875" lon="-0.99637367762625217437744140625">
        <ele>1165.800048828125</ele>
        <time>2021-09-26T08:24:12.000Z</time>
      </trkpt>
      <trkpt lat="40.309921838343143463134765625" lon="-0.9963365457952022552490234375">
        <ele>1165.800048828125</ele>
        <time>2021-09-26T08:24:14.000Z</time>
      </trkpt>
      <trkpt lat="40.30985243618488311767578125" lon="-0.9962939657270908355712890625">
        <ele>1165</ele>
        <time>2021-09-26T08:24:16.000Z</time>
      </trkpt>
      <trkpt lat="40.3097865544259548187255859375" lon="-0.99624979309737682342529296875">
        <ele>1164</ele>
        <time>2021-09-26T08:24:18.000Z</time>
      </trkpt>
      <trkpt lat="40.3097251988947391510009765625" lon="-0.99620260298252105712890625">
        <ele>1163</ele>
        <time>2021-09-26T08:24:20.000Z</time>
      </trkpt>
      <trkpt lat="40.30965671874582767486572265625" lon="-0.99617552943527698516845703125">
        <ele>1162</ele>
        <time>2021-09-26T08:24:22.000Z</time>
      </trkpt>
      <trkpt lat="40.30958513729274272918701171875" lon="-0.996149294078350067138671875">
        <ele>1161</ele>
        <time>2021-09-26T08:24:24.000Z</time>
      </trkpt>
      <trkpt lat="40.3095163218677043914794921875" lon="-0.99611920304596424102783203125">
        <ele>1160</ele>
        <time>2021-09-26T08:24:26.000Z</time>
      </trkpt>
      <trkpt lat="40.3094522841274738311767578125" lon="-0.99608081392943859100341796875">
        <ele>1158.5999755859375</ele>
        <time>2021-09-26T08:24:28.000Z</time>
      </trkpt>
      <trkpt lat="40.30939101241528987884521484375" lon="-0.99604628048837184906005859375">
        <ele>1157.199951171875</ele>
        <time>2021-09-26T08:24:30.000Z</time>
      </trkpt>
      <trkpt lat="40.309329070150852203369140625" lon="-0.996009819209575653076171875">
        <ele>1155.5999755859375</ele>
        <time>2021-09-26T08:24:32.000Z</time>
      </trkpt>
      <trkpt lat="40.3092665411531925201416015625" lon="-0.99597402848303318023681640625">
        <ele>1154</ele>
        <time>2021-09-26T08:24:34.000Z</time>
      </trkpt>
      <trkpt lat="40.30920602381229400634765625" lon="-0.99593974649906158447265625">
        <ele>1152.199951171875</ele>
        <time>2021-09-26T08:24:36.000Z</time>
      </trkpt>
      <trkpt lat="40.30914726667106151580810546875" lon="-0.9959042072296142578125">
        <ele>1150.5999755859375</ele>
        <time>2021-09-26T08:24:38.000Z</time>
      </trkpt>
      <trkpt lat="40.309089012444019317626953125" lon="-0.995874702930450439453125">
        <ele>1149.4000244140625</ele>
        <time>2021-09-26T08:24:40.000Z</time>
      </trkpt>
      <trkpt lat="40.30906009487807750701904296875" lon="-0.99585525691509246826171875">
        <ele>1149</ele>
        <time>2021-09-26T08:24:41.000Z</time>
      </trkpt>
      <trkpt lat="40.3090288303792476654052734375" lon="-0.99583782255649566650390625">
        <ele>1148.4000244140625</ele>
        <time>2021-09-26T08:24:42.000Z</time>
      </trkpt>
      <trkpt lat="40.30896487645804882049560546875" lon="-0.99580169655382633209228515625">
        <ele>1147</ele>
        <time>2021-09-26T08:24:44.000Z</time>
      </trkpt>
      <trkpt lat="40.30890285037457942962646484375" lon="-0.99576297216117382049560546875">
        <ele>1145.4000244140625</ele>
        <time>2021-09-26T08:24:46.000Z</time>
      </trkpt>
      <trkpt lat="40.30884258449077606201171875" lon="-0.99572475068271160125732421875">
        <ele>1144</ele>
        <time>2021-09-26T08:24:48.000Z</time>
      </trkpt>
      <trkpt lat="40.3087830729782581329345703125" lon="-0.99569222889840602874755859375">
        <ele>1144</ele>
        <time>2021-09-26T08:24:50.000Z</time>
      </trkpt>
      <trkpt lat="40.30872079543769359588623046875" lon="-0.99565836600959300994873046875">
        <ele>1144.4000244140625</ele>
        <time>2021-09-26T08:24:52.000Z</time>
      </trkpt>
      <trkpt lat="40.308659859001636505126953125" lon="-0.99562182091176509857177734375">
        <ele>1144.800048828125</ele>
        <time>2021-09-26T08:24:54.000Z</time>
      </trkpt>
      <trkpt lat="40.30860126949846744537353515625" lon="-0.99558142013847827911376953125">
        <ele>1144.800048828125</ele>
        <time>2021-09-26T08:24:56.000Z</time>
      </trkpt>
      <trkpt lat="40.30853941105306148529052734375" lon="-0.9955479763448238372802734375">
        <ele>1145</ele>
        <time>2021-09-26T08:24:58.000Z</time>
      </trkpt>
      <trkpt lat="40.3084809891879558563232421875" lon="-0.995510928332805633544921875">
        <ele>1146.4000244140625</ele>
        <time>2021-09-26T08:25:00.000Z</time>
      </trkpt>
      <trkpt lat="40.30842172913253307342529296875" lon="-0.9954775683581829071044921875">
        <ele>1147</ele>
        <time>2021-09-26T08:25:02.000Z</time>
      </trkpt>
      <trkpt lat="40.308363474905490875244140625" lon="-0.9954386763274669647216796875">
        <ele>1147.199951171875</ele>
        <time>2021-09-26T08:25:04.000Z</time>
      </trkpt>
      <trkpt lat="40.308301448822021484375" lon="-0.995402298867702484130859375">
        <ele>1147.800048828125</ele>
        <time>2021-09-26T08:25:06.000Z</time>
      </trkpt>
      <trkpt lat="40.308239758014678955078125" lon="-0.99536801688373088836669921875">
        <ele>1149.199951171875</ele>
        <time>2021-09-26T08:25:08.000Z</time>
      </trkpt>
      <trkpt lat="40.30817731283605098724365234375" lon="-0.99533096887171268463134765625">
        <ele>1150.800048828125</ele>
        <time>2021-09-26T08:25:10.000Z</time>
      </trkpt>
      <trkpt lat="40.308119393885135650634765625" lon="-0.9952911548316478729248046875">
        <ele>1152.4000244140625</ele>
        <time>2021-09-26T08:25:12.000Z</time>
      </trkpt>
      <trkpt lat="40.30806616879999637603759765625" lon="-0.99525368772447109222412109375">
        <ele>1154</ele>
        <time>2021-09-26T08:25:14.000Z</time>
      </trkpt>
      <trkpt lat="40.30801378190517425537109375" lon="-0.9952153824269771575927734375">
        <ele>1155.4000244140625</ele>
        <time>2021-09-26T08:25:16.000Z</time>
      </trkpt>
      <trkpt lat="40.30795301310718059539794921875" lon="-0.99518126808106899261474609375">
        <ele>1156</ele>
        <time>2021-09-26T08:25:18.000Z</time>
      </trkpt>
      <trkpt lat="40.30788964591920375823974609375" lon="-0.99514782428741455078125">
        <ele>1157.199951171875</ele>
        <time>2021-09-26T08:25:20.000Z</time>
      </trkpt>
      <trkpt lat="40.30782661400735378265380859375" lon="-0.9951158054172992706298828125">
        <ele>1158</ele>
        <time>2021-09-26T08:25:22.000Z</time>
      </trkpt>
      <trkpt lat="40.3077970258891582489013671875" lon="-0.99509543739259243011474609375">
        <ele>1158.5999755859375</ele>
        <time>2021-09-26T08:25:23.000Z</time>
      </trkpt>
      <trkpt lat="40.30777330510318279266357421875" lon="-0.99508102051913738250732421875">
        <ele>1159</ele>
        <time>2021-09-26T08:25:24.000Z</time>
      </trkpt>
      <trkpt lat="40.30774983577430248260498046875" lon="-0.99506492726504802703857421875">
        <ele>1159.5999755859375</ele>
        <time>2021-09-26T08:25:25.000Z</time>
      </trkpt>
      <trkpt lat="40.30772619880735874176025390625" lon="-0.995048247277736663818359375">
        <ele>1160.199951171875</ele>
        <time>2021-09-26T08:25:26.000Z</time>
      </trkpt>
      <trkpt lat="40.3077081777155399322509765625" lon="-0.995034836232662200927734375">
        <ele>1160.4000244140625</ele>
        <time>2021-09-26T08:25:27.000Z</time>
      </trkpt>
      <trkpt lat="40.3076912462711334228515625" lon="-0.9950202517211437225341796875">
        <ele>1160.4000244140625</ele>
        <time>2021-09-26T08:25:28.000Z</time>
      </trkpt>
      <trkpt lat="40.3076535277068614959716796875" lon="-0.9949927590787410736083984375">
        <ele>1160.5999755859375</ele>
        <time>2021-09-26T08:25:30.000Z</time>
      </trkpt>
      <trkpt lat="40.3076270408928394317626953125" lon="-0.9949640929698944091796875">
        <ele>1160.800048828125</ele>
        <time>2021-09-26T08:25:32.000Z</time>
      </trkpt>
      <trkpt lat="40.3076015599071979522705078125" lon="-0.994941629469394683837890625">
        <ele>1161</ele>
        <time>2021-09-26T08:25:34.000Z</time>
      </trkpt>
      <trkpt lat="40.30756845138967037200927734375" lon="-0.99493131972849369049072265625">
        <ele>1160.800048828125</ele>
        <time>2021-09-26T08:25:36.000Z</time>
      </trkpt>
      <trkpt lat="40.30753106810152530670166015625" lon="-0.9949169866740703582763671875">
        <ele>1160.800048828125</ele>
        <time>2021-09-26T08:25:38.000Z</time>
      </trkpt>
      <trkpt lat="40.30748815275728702545166015625" lon="-0.994896031916141510009765625">
        <ele>1160.800048828125</ele>
        <time>2021-09-26T08:25:40.000Z</time>
      </trkpt>
      <trkpt lat="40.30743844807147979736328125" lon="-0.994865857064723968505859375">
        <ele>1160.800048828125</ele>
        <time>2021-09-26T08:25:42.000Z</time>
      </trkpt>
      <trkpt lat="40.3073799423873424530029296875" lon="-0.99483543075621128082275390625">
        <ele>1159.5999755859375</ele>
        <time>2021-09-26T08:25:44.000Z</time>
      </trkpt>
      <trkpt lat="40.30732202343642711639404296875" lon="-0.99480450153350830078125">
        <ele>1158.4000244140625</ele>
        <time>2021-09-26T08:25:46.000Z</time>
      </trkpt>
      <trkpt lat="40.30726452358067035675048828125" lon="-0.99477390758693218231201171875">
        <ele>1157.4000244140625</ele>
        <time>2021-09-26T08:25:48.000Z</time>
      </trkpt>
      <trkpt lat="40.30720601789653301239013671875" lon="-0.99474348127841949462890625">
        <ele>1156</ele>
        <time>2021-09-26T08:25:50.000Z</time>
      </trkpt>
      <trkpt lat="40.30715170316398143768310546875" lon="-0.994716323912143707275390625">
        <ele>1154.800048828125</ele>
        <time>2021-09-26T08:25:52.000Z</time>
      </trkpt>
      <trkpt lat="40.30709856189787387847900390625" lon="-0.9946910105645656585693359375">
        <ele>1154.199951171875</ele>
        <time>2021-09-26T08:25:54.000Z</time>
      </trkpt>
      <trkpt lat="40.30703972093760967254638671875" lon="-0.99466997198760509490966796875">
        <ele>1153.4000244140625</ele>
        <time>2021-09-26T08:25:56.000Z</time>
      </trkpt>
      <trkpt lat="40.306988842785358428955078125" lon="-0.99465337581932544708251953125">
        <ele>1152.5999755859375</ele>
        <time>2021-09-26T08:25:58.000Z</time>
      </trkpt>
      <trkpt lat="40.306930504739284515380859375" lon="-0.99463216960430145263671875">
        <ele>1151.5999755859375</ele>
        <time>2021-09-26T08:26:00.000Z</time>
      </trkpt>
      <trkpt lat="40.30687250196933746337890625" lon="-0.9946122206747531890869140625">
        <ele>1151</ele>
        <time>2021-09-26T08:26:02.000Z</time>
      </trkpt>
      <trkpt lat="40.30681139789521694183349609375" lon="-0.994597636163234710693359375">
        <ele>1151</ele>
        <time>2021-09-26T08:26:04.000Z</time>
      </trkpt>
      <trkpt lat="40.3067506290972232818603515625" lon="-0.99457944743335247039794921875">
        <ele>1151</ele>
        <time>2021-09-26T08:26:06.000Z</time>
      </trkpt>
      <trkpt lat="40.3066912852227687835693359375" lon="-0.99456268362700939178466796875">
        <ele>1151</ele>
        <time>2021-09-26T08:26:08.000Z</time>
      </trkpt>
      <trkpt lat="40.30663110315799713134765625" lon="-0.994545333087444305419921875">
        <ele>1151</ele>
        <time>2021-09-26T08:26:10.000Z</time>
      </trkpt>
      <trkpt lat="40.30657134018838405609130859375" lon="-0.994525216519832611083984375">
        <ele>1151.800048828125</ele>
        <time>2021-09-26T08:26:12.000Z</time>
      </trkpt>
      <trkpt lat="40.30650897882878780364990234375" lon="-0.99451121874153614044189453125">
        <ele>1152.800048828125</ele>
        <time>2021-09-26T08:26:14.000Z</time>
      </trkpt>
      <trkpt lat="40.3064461983740329742431640625" lon="-0.9945012442767620086669921875">
        <ele>1154</ele>
        <time>2021-09-26T08:26:16.000Z</time>
      </trkpt>
      <trkpt lat="40.30639238655567169189453125" lon="-0.99448925815522670745849609375">
        <ele>1155</ele>
        <time>2021-09-26T08:26:18.000Z</time>
      </trkpt>
      <trkpt lat="40.30632860027253627777099609375" lon="-0.994478277862071990966796875">
        <ele>1156.4000244140625</ele>
        <time>2021-09-26T08:26:20.000Z</time>
      </trkpt>
      <trkpt lat="40.30626607127487659454345703125" lon="-0.99446377716958522796630859375">
        <ele>1157.4000244140625</ele>
        <time>2021-09-26T08:26:22.000Z</time>
      </trkpt>
      <trkpt lat="40.30620329082012176513671875" lon="-0.99445640109479427337646484375">
        <ele>1158.4000244140625</ele>
        <time>2021-09-26T08:26:24.000Z</time>
      </trkpt>
      <trkpt lat="40.30613950453698635101318359375" lon="-0.99445204250514507293701171875">
        <ele>1159.800048828125</ele>
        <time>2021-09-26T08:26:26.000Z</time>
      </trkpt>
      <trkpt lat="40.3060819208621978759765625" lon="-0.99444567225873470306396484375">
        <ele>1161.4000244140625</ele>
        <time>2021-09-26T08:26:28.000Z</time>
      </trkpt>
      <trkpt lat="40.30605099163949489593505859375" lon="-0.99444567225873470306396484375">
        <ele>1162</ele>
        <time>2021-09-26T08:26:29.000Z</time>
      </trkpt>
      <trkpt lat="40.30601897276937961578369140625" lon="-0.9944464266300201416015625">
        <ele>1162.800048828125</ele>
        <time>2021-09-26T08:26:30.000Z</time>
      </trkpt>
      <trkpt lat="40.3059540130198001861572265625" lon="-0.99444307386875152587890625">
        <ele>1164.199951171875</ele>
        <time>2021-09-26T08:26:32.000Z</time>
      </trkpt>
      <trkpt lat="40.30589257366955280303955078125" lon="-0.99443972110748291015625">
        <ele>1165.800048828125</ele>
        <time>2021-09-26T08:26:34.000Z</time>
      </trkpt>
      <trkpt lat="40.30583155341446399688720703125" lon="-0.99444441497325897216796875">
        <ele>1167.199951171875</ele>
        <time>2021-09-26T08:26:36.000Z</time>
      </trkpt>
      <trkpt lat="40.30576751567423343658447265625" lon="-0.994448103010654449462890625">
        <ele>1168.5999755859375</ele>
        <time>2021-09-26T08:26:38.000Z</time>
      </trkpt>
      <trkpt lat="40.3057055734097957611083984375" lon="-0.9944546408951282501220703125">
        <ele>1169.4000244140625</ele>
        <time>2021-09-26T08:26:40.000Z</time>
      </trkpt>
      <trkpt lat="40.30564463697373867034912109375" lon="-0.9944509528577327728271484375">
        <ele>1170.199951171875</ele>
        <time>2021-09-26T08:26:42.000Z</time>
      </trkpt>
      <trkpt lat="40.30558428727090358734130859375" lon="-0.99445623345673084259033203125">
        <ele>1171.199951171875</ele>
        <time>2021-09-26T08:26:44.000Z</time>
      </trkpt>
      <trkpt lat="40.30552209354937076568603515625" lon="-0.994464196264743804931640625">
        <ele>1172.199951171875</ele>
        <time>2021-09-26T08:26:46.000Z</time>
      </trkpt>
      <trkpt lat="40.3054943494498729705810546875" lon="-0.99446645937860012054443359375">
        <ele>1172.4000244140625</ele>
        <time>2021-09-26T08:26:47.000Z</time>
      </trkpt>
      <trkpt lat="40.305466018617153167724609375" lon="-0.99446997977793216705322265625">
        <ele>1172.4000244140625</ele>
        <time>2021-09-26T08:26:48.000Z</time>
      </trkpt>
      <trkpt lat="40.30540256761014461517333984375" lon="-0.9944767691195011138916015625">
        <ele>1172.199951171875</ele>
        <time>2021-09-26T08:26:50.000Z</time>
      </trkpt>
      <trkpt lat="40.30533568002283573150634765625" lon="-0.99448557011783123016357421875">
        <ele>1172</ele>
        <time>2021-09-26T08:26:52.000Z</time>
      </trkpt>
      <trkpt lat="40.30527055263519287109375" lon="-0.9944935329258441925048828125">
        <ele>1172</ele>
        <time>2021-09-26T08:26:54.000Z</time>
      </trkpt>
      <trkpt lat="40.30520617961883544921875" lon="-0.99450015462934970855712890625">
        <ele>1172</ele>
        <time>2021-09-26T08:26:56.000Z</time>
      </trkpt>
      <trkpt lat="40.30514524318277835845947265625" lon="-0.99450618959963321685791015625">
        <ele>1172</ele>
        <time>2021-09-26T08:26:58.000Z</time>
      </trkpt>
      <trkpt lat="40.30511255376040935516357421875" lon="-0.994509793817996978759765625">
        <ele>1171.800048828125</ele>
        <time>2021-09-26T08:26:59.000Z</time>
      </trkpt>
      <trkpt lat="40.30507936142385005950927734375" lon="-0.9945156611502170562744140625">
        <ele>1171.5999755859375</ele>
        <time>2021-09-26T08:27:00.000Z</time>
      </trkpt>
      <trkpt lat="40.30501264147460460662841796875" lon="-0.9945257194340229034423828125">
        <ele>1171.4000244140625</ele>
        <time>2021-09-26T08:27:02.000Z</time>
      </trkpt>
      <trkpt lat="40.304947681725025177001953125" lon="-0.9945361129939556121826171875">
        <ele>1171.4000244140625</ele>
        <time>2021-09-26T08:27:04.000Z</time>
      </trkpt>
      <trkpt lat="40.30491541139781475067138671875" lon="-0.99453871138393878936767578125">
        <ele>1171.199951171875</ele>
        <time>2021-09-26T08:27:05.000Z</time>
      </trkpt>
      <trkpt lat="40.30488372780382633209228515625" lon="-0.9945458360016345977783203125">
        <ele>1170.800048828125</ele>
        <time>2021-09-26T08:27:06.000Z</time>
      </trkpt>
      <trkpt lat="40.3048212826251983642578125" lon="-0.9945491887629032135009765625">
        <ele>1170.4000244140625</ele>
        <time>2021-09-26T08:27:08.000Z</time>
      </trkpt>
      <trkpt lat="40.30475917272269725799560546875" lon="-0.99455983377993106842041015625">
        <ele>1170</ele>
        <time>2021-09-26T08:27:10.000Z</time>
      </trkpt>
      <trkpt lat="40.3046906925737857818603515625" lon="-0.99457181990146636962890625">
        <ele>1169.4000244140625</ele>
        <time>2021-09-26T08:27:12.000Z</time>
      </trkpt>
      <trkpt lat="40.304618775844573974609375" lon="-0.9945817105472087860107421875">
        <ele>1169.4000244140625</ele>
        <time>2021-09-26T08:27:14.000Z</time>
      </trkpt>
      <trkpt lat="40.30454861931502819061279296875" lon="-0.99459269084036350250244140625">
        <ele>1169.5999755859375</ele>
        <time>2021-09-26T08:27:16.000Z</time>
      </trkpt>
      <trkpt lat="40.30447837896645069122314453125" lon="-0.99460425786674022674560546875">
        <ele>1169.800048828125</ele>
        <time>2021-09-26T08:27:18.000Z</time>
      </trkpt>
      <trkpt lat="40.30441157519817352294921875" lon="-0.9946078620851039886474609375">
        <ele>1170</ele>
        <time>2021-09-26T08:27:20.000Z</time>
      </trkpt>
      <trkpt lat="40.30434183776378631591796875" lon="-0.99461875855922698974609375">
        <ele>1170</ele>
        <time>2021-09-26T08:27:22.000Z</time>
      </trkpt>
      <trkpt lat="40.3042752854526042938232421875" lon="-0.99462370388209819793701171875">
        <ele>1169.800048828125</ele>
        <time>2021-09-26T08:27:24.000Z</time>
      </trkpt>
      <trkpt lat="40.304199345409870147705078125" lon="-0.99463577382266521453857421875">
        <ele>1169.4000244140625</ele>
        <time>2021-09-26T08:27:26.000Z</time>
      </trkpt>
      <trkpt lat="40.3041267581284046173095703125" lon="-0.994643904268741607666015625">
        <ele>1169.199951171875</ele>
        <time>2021-09-26T08:27:28.000Z</time>
      </trkpt>
      <trkpt lat="40.30405978672206401824951171875" lon="-0.9946527890861034393310546875">
        <ele>1169.199951171875</ele>
        <time>2021-09-26T08:27:30.000Z</time>
      </trkpt>
      <trkpt lat="40.30399139039218425750732421875" lon="-0.99466041661798954010009765625">
        <ele>1169</ele>
        <time>2021-09-26T08:27:32.000Z</time>
      </trkpt>
      <trkpt lat="40.30392249114811420440673828125" lon="-0.9946708939969539642333984375">
        <ele>1168.800048828125</ele>
        <time>2021-09-26T08:27:34.000Z</time>
      </trkpt>
      <trkpt lat="40.30385443009436130523681640625" lon="-0.9946745820343494415283203125">
        <ele>1168.5999755859375</ele>
        <time>2021-09-26T08:27:36.000Z</time>
      </trkpt>
      <trkpt lat="40.3037851117551326751708984375" lon="-0.99468086846172809600830078125">
        <ele>1168.5999755859375</ele>
        <time>2021-09-26T08:27:38.000Z</time>
      </trkpt>
      <trkpt lat="40.3037162125110626220703125" lon="-0.994686819612979888916015625">
        <ele>1168.4000244140625</ele>
        <time>2021-09-26T08:27:40.000Z</time>
      </trkpt>
      <trkpt lat="40.3036459721624851226806640625" lon="-0.99469729699194431304931640625">
        <ele>1168.800048828125</ele>
        <time>2021-09-26T08:27:42.000Z</time>
      </trkpt>
      <trkpt lat="40.3035742230713367462158203125" lon="-0.99470769055187702178955078125">
        <ele>1169.199951171875</ele>
        <time>2021-09-26T08:27:44.000Z</time>
      </trkpt>
      <trkpt lat="40.3035391867160797119140625" lon="-0.9947141446173191070556640625">
        <ele>1169.199951171875</ele>
        <time>2021-09-26T08:27:45.000Z</time>
      </trkpt>
      <trkpt lat="40.30350490473210811614990234375" lon="-0.9947195090353488922119140625">
        <ele>1169</ele>
        <time>2021-09-26T08:27:46.000Z</time>
      </trkpt>
      <trkpt lat="40.3034280426800251007080078125" lon="-0.9947285614907741546630859375">
        <ele>1168.800048828125</ele>
        <time>2021-09-26T08:27:48.000Z</time>
      </trkpt>
      <trkpt lat="40.3033554553985595703125" lon="-0.99473618902266025543212890625">
        <ele>1168.199951171875</ele>
        <time>2021-09-26T08:27:50.000Z</time>
      </trkpt>
      <trkpt lat="40.3033170662820339202880859375" lon="-0.994737111032009124755859375">
        <ele>1168.199951171875</ele>
        <time>2021-09-26T08:27:51.000Z</time>
      </trkpt>
      <trkpt lat="40.3032798506319522857666015625" lon="-0.9947361052036285400390625">
        <ele>1168</ele>
        <time>2021-09-26T08:27:52.000Z</time>
      </trkpt>
      <trkpt lat="40.30320667661726474761962890625" lon="-0.9947389550507068634033203125">
        <ele>1168.199951171875</ele>
        <time>2021-09-26T08:27:54.000Z</time>
      </trkpt>
      <trkpt lat="40.3031296469271183013916015625" lon="-0.994741134345531463623046875">
        <ele>1168.4000244140625</ele>
        <time>2021-09-26T08:27:56.000Z</time>
      </trkpt>
      <trkpt lat="40.30304825864732265472412109375" lon="-0.99474138580262660980224609375">
        <ele>1168.4000244140625</ele>
        <time>2021-09-26T08:27:58.000Z</time>
      </trkpt>
      <trkpt lat="40.30297131277620792388916015625" lon="-0.99474859423935413360595703125">
        <ele>1168.4000244140625</ele>
        <time>2021-09-26T08:28:00.000Z</time>
      </trkpt>
      <trkpt lat="40.30289503745734691619873046875" lon="-0.9947557188570499420166015625">
        <ele>1168.800048828125</ele>
        <time>2021-09-26T08:28:02.000Z</time>
      </trkpt>
      <trkpt lat="40.30282110907137393951416015625" lon="-0.99476493895053863525390625">
        <ele>1169</ele>
        <time>2021-09-26T08:28:04.000Z</time>
      </trkpt>
      <trkpt lat="40.30275036580860614776611328125" lon="-0.9947791881859302520751953125">
        <ele>1169.199951171875</ele>
        <time>2021-09-26T08:28:06.000Z</time>
      </trkpt>
      <trkpt lat="40.30267509631812572479248046875" lon="-0.9947822056710720062255859375">
        <ele>1169.800048828125</ele>
        <time>2021-09-26T08:28:08.000Z</time>
      </trkpt>
      <trkpt lat="40.30260636471211910247802734375" lon="-0.9947919286787509918212890625">
        <ele>1170.199951171875</ele>
        <time>2021-09-26T08:28:10.000Z</time>
      </trkpt>
      <trkpt lat="40.302538387477397918701171875" lon="-0.9948036633431911468505859375">
        <ele>1170.5999755859375</ele>
        <time>2021-09-26T08:28:12.000Z</time>
      </trkpt>
      <trkpt lat="40.30250092037022113800048828125" lon="-0.99480860866606235504150390625">
        <ele>1170.800048828125</ele>
        <time>2021-09-26T08:28:13.000Z</time>
      </trkpt>
      <trkpt lat="40.30246370472013950347900390625" lon="-0.9948123805224895477294921875">
        <ele>1171</ele>
        <time>2021-09-26T08:28:14.000Z</time>
      </trkpt>
      <trkpt lat="40.30239027924835681915283203125" lon="-0.99481187760829925537109375">
        <ele>1170.5999755859375</ele>
        <time>2021-09-26T08:28:16.000Z</time>
      </trkpt>
      <trkpt lat="40.30231350101530551910400390625" lon="-0.99482084624469280242919921875">
        <ele>1169.5999755859375</ele>
        <time>2021-09-26T08:28:18.000Z</time>
      </trkpt>
      <trkpt lat="40.3022418357431888580322265625" lon="-0.99482403136789798736572265625">
        <ele>1168.800048828125</ele>
        <time>2021-09-26T08:28:20.000Z</time>
      </trkpt>
      <trkpt lat="40.3021677397191524505615234375" lon="-0.99483610130846500396728515625">
        <ele>1167.5999755859375</ele>
        <time>2021-09-26T08:28:22.000Z</time>
      </trkpt>
      <trkpt lat="40.30209280550479888916015625" lon="-0.9948442317545413970947265625">
        <ele>1167</ele>
        <time>2021-09-26T08:28:24.000Z</time>
      </trkpt>
      <trkpt lat="40.3020192123949527740478515625" lon="-0.994851104915142059326171875">
        <ele>1166.5999755859375</ele>
        <time>2021-09-26T08:28:26.000Z</time>
      </trkpt>
      <trkpt lat="40.30194184742867946624755859375" lon="-0.994862504303455352783203125">
        <ele>1166.199951171875</ele>
        <time>2021-09-26T08:28:28.000Z</time>
      </trkpt>
      <trkpt lat="40.3018659912049770355224609375" lon="-0.9948742389678955078125">
        <ele>1166</ele>
        <time>2021-09-26T08:28:30.000Z</time>
      </trkpt>
      <trkpt lat="40.301796086132526397705078125" lon="-0.99488538689911365509033203125">
        <ele>1166</ele>
        <time>2021-09-26T08:28:32.000Z</time>
      </trkpt>
      <trkpt lat="40.30172358267009258270263671875" lon="-0.99488907493650913238525390625">
        <ele>1165.800048828125</ele>
        <time>2021-09-26T08:28:34.000Z</time>
      </trkpt>
      <trkpt lat="40.301640518009662628173828125" lon="-0.99489502608776092529296875">
        <ele>1165.800048828125</ele>
        <time>2021-09-26T08:28:36.000Z</time>
      </trkpt>
      <trkpt lat="40.30156047083437442779541015625" lon="-0.994904749095439910888671875">
        <ele>1166.5999755859375</ele>
        <time>2021-09-26T08:28:38.000Z</time>
      </trkpt>
      <trkpt lat="40.301480591297149658203125" lon="-0.9949179925024509429931640625">
        <ele>1168</ele>
        <time>2021-09-26T08:28:40.000Z</time>
      </trkpt>
      <trkpt lat="40.30139970593154430389404296875" lon="-0.9949350915849208831787109375">
        <ele>1169.199951171875</ele>
        <time>2021-09-26T08:28:42.000Z</time>
      </trkpt>
      <trkpt lat="40.30132527463138103485107421875" lon="-0.9949542023241519927978515625">
        <ele>1170.4000244140625</ele>
        <time>2021-09-26T08:28:44.000Z</time>
      </trkpt>
      <trkpt lat="40.3012504242360591888427734375" lon="-0.9949625842273235321044921875">
        <ele>1171.4000244140625</ele>
        <time>2021-09-26T08:28:46.000Z</time>
      </trkpt>
      <trkpt lat="40.30117842368781566619873046875" lon="-0.99497121758759021759033203125">
        <ele>1172.5999755859375</ele>
        <time>2021-09-26T08:28:48.000Z</time>
      </trkpt>
      <trkpt lat="40.30114858411252498626708984375" lon="-0.99497322924435138702392578125">
        <ele>1173.199951171875</ele>
        <time>2021-09-26T08:28:49.000Z</time>
      </trkpt>
      <trkpt lat="40.30112042091786861419677734375" lon="-0.99497272633016109466552734375">
        <ele>1173.5999755859375</ele>
        <time>2021-09-26T08:28:50.000Z</time>
      </trkpt>
      <trkpt lat="40.3010556288063526153564453125" lon="-0.9949803538620471954345703125">
        <ele>1174.5999755859375</ele>
        <time>2021-09-26T08:28:52.000Z</time>
      </trkpt>
      <trkpt lat="40.3009905852377414703369140625" lon="-0.9949927590787410736083984375">
        <ele>1175</ele>
        <time>2021-09-26T08:28:54.000Z</time>
      </trkpt>
      <trkpt lat="40.30092260800302028656005859375" lon="-0.99500105716288089752197265625">
        <ele>1175.4000244140625</ele>
        <time>2021-09-26T08:28:56.000Z</time>
      </trkpt>
      <trkpt lat="40.30085789971053600311279296875" lon="-0.99500776268541812896728515625">
        <ele>1176</ele>
        <time>2021-09-26T08:28:58.000Z</time>
      </trkpt>
      <trkpt lat="40.300796292722225189208984375" lon="-0.99500927142798900604248046875">
        <ele>1176.5999755859375</ele>
        <time>2021-09-26T08:29:00.000Z</time>
      </trkpt>
      <trkpt lat="40.300763435661792755126953125" lon="-0.9950111992657184600830078125">
        <ele>1176.800048828125</ele>
        <time>2021-09-26T08:29:01.000Z</time>
      </trkpt>
      <trkpt lat="40.30072898603975772857666015625" lon="-0.99501681514084339141845703125">
        <ele>1177</ele>
        <time>2021-09-26T08:29:02.000Z</time>
      </trkpt>
      <trkpt lat="40.3006558120250701904296875" lon="-0.99503022618591785430908203125">
        <ele>1177</ele>
        <time>2021-09-26T08:29:04.000Z</time>
      </trkpt>
      <trkpt lat="40.30058414675295352935791015625" lon="-0.99503492005169391632080078125">
        <ele>1177.199951171875</ele>
        <time>2021-09-26T08:29:06.000Z</time>
      </trkpt>
      <trkpt lat="40.300517342984676361083984375" lon="-0.99503324367105960845947265625">
        <ele>1177.4000244140625</ele>
        <time>2021-09-26T08:29:08.000Z</time>
      </trkpt>
      <trkpt lat="40.300448276102542877197265625" lon="-0.9950410388410091400146484375">
        <ele>1177.199951171875</ele>
        <time>2021-09-26T08:29:10.000Z</time>
      </trkpt>
      <trkpt lat="40.3003810532391071319580078125" lon="-0.9950450621545314788818359375">
        <ele>1177</ele>
        <time>2021-09-26T08:29:12.000Z</time>
      </trkpt>
      <trkpt lat="40.30031207017600536346435546875" lon="-0.995046906173229217529296875">
        <ele>1176.5999755859375</ele>
        <time>2021-09-26T08:29:14.000Z</time>
      </trkpt>
      <trkpt lat="40.30023613013327121734619140625" lon="-0.99505235441029071807861328125">
        <ele>1176.199951171875</ele>
        <time>2021-09-26T08:29:16.000Z</time>
      </trkpt>
      <trkpt lat="40.3002000041306018829345703125" lon="-0.99505017511546611785888671875">
        <ele>1176.4000244140625</ele>
        <time>2021-09-26T08:29:17.000Z</time>
      </trkpt>
      <trkpt lat="40.30016521923243999481201171875" lon="-0.9950500912964344024658203125">
        <ele>1176.4000244140625</ele>
        <time>2021-09-26T08:29:18.000Z</time>
      </trkpt>
      <trkpt lat="40.3000940568745136260986328125" lon="-0.99504665471613407135009765625">
        <ele>1176.800048828125</ele>
        <time>2021-09-26T08:29:20.000Z</time>
      </trkpt>
      <trkpt lat="40.30002742074429988861083984375" lon="-0.9950351715087890625">
        <ele>1177.199951171875</ele>
        <time>2021-09-26T08:29:22.000Z</time>
      </trkpt>
      <trkpt lat="40.29999221675097942352294921875" lon="-0.9950333274900913238525390625">
        <ele>1177.199951171875</ele>
        <time>2021-09-26T08:29:23.000Z</time>
      </trkpt>
      <trkpt lat="40.29996086843311786651611328125" lon="-0.995027460157871246337890625">
        <ele>1177.199951171875</ele>
        <time>2021-09-26T08:29:24.000Z</time>
      </trkpt>
      <trkpt lat="40.29989649541676044464111328125" lon="-0.99502150900661945343017578125">
        <ele>1177.4000244140625</ele>
        <time>2021-09-26T08:29:26.000Z</time>
      </trkpt>
      <trkpt lat="40.29983866028487682342529296875" lon="-0.99501279182732105255126953125">
        <ele>1177.800048828125</ele>
        <time>2021-09-26T08:29:28.000Z</time>
      </trkpt>
      <trkpt lat="40.29977512545883655548095703125" lon="-0.99501262418925762176513671875">
        <ele>1178</ele>
        <time>2021-09-26T08:29:30.000Z</time>
      </trkpt>
      <trkpt lat="40.299710333347320556640625" lon="-0.9950071759521961212158203125">
        <ele>1178.5999755859375</ele>
        <time>2021-09-26T08:29:32.000Z</time>
      </trkpt>
      <trkpt lat="40.299649648368358612060546875" lon="-0.99499518983066082000732421875">
        <ele>1179</ele>
        <time>2021-09-26T08:29:34.000Z</time>
      </trkpt>
      <trkpt lat="40.29958435334265232086181640625" lon="-0.9949847124516963958740234375">
        <ele>1179</ele>
        <time>2021-09-26T08:29:36.000Z</time>
      </trkpt>
      <trkpt lat="40.29952450655400753021240234375" lon="-0.99497524090111255645751953125">
        <ele>1179</ele>
        <time>2021-09-26T08:29:38.000Z</time>
      </trkpt>
      <trkpt lat="40.29945862479507923126220703125" lon="-0.9949649311602115631103515625">
        <ele>1179.4000244140625</ele>
        <time>2021-09-26T08:29:40.000Z</time>
      </trkpt>
      <trkpt lat="40.29939592815935611724853515625" lon="-0.9949478320777416229248046875">
        <ele>1180</ele>
        <time>2021-09-26T08:29:42.000Z</time>
      </trkpt>
      <trkpt lat="40.29932904057204723358154296875" lon="-0.99494053982198238372802734375">
        <ele>1179.5999755859375</ele>
        <time>2021-09-26T08:29:44.000Z</time>
      </trkpt>
      <trkpt lat="40.299266092479228973388671875" lon="-0.994924195110797882080078125">
        <ele>1179.199951171875</ele>
        <time>2021-09-26T08:29:46.000Z</time>
      </trkpt>
      <trkpt lat="40.29920599423348903656005859375" lon="-0.9949131309986114501953125">
        <ele>1178.800048828125</ele>
        <time>2021-09-26T08:29:48.000Z</time>
      </trkpt>
      <trkpt lat="40.299147069454193115234375" lon="-0.99489904940128326416015625">
        <ele>1178.5999755859375</ele>
        <time>2021-09-26T08:29:50.000Z</time>
      </trkpt>
      <trkpt lat="40.29908596538007259368896484375" lon="-0.994883291423320770263671875">
        <ele>1178.199951171875</ele>
        <time>2021-09-26T08:29:52.000Z</time>
      </trkpt>
      <trkpt lat="40.299025364220142364501953125" lon="-0.9948723949491977691650390625">
        <ele>1178</ele>
        <time>2021-09-26T08:29:54.000Z</time>
      </trkpt>
      <trkpt lat="40.29896593652665615081787109375" lon="-0.99485370330512523651123046875">
        <ele>1178.199951171875</ele>
        <time>2021-09-26T08:29:56.000Z</time>
      </trkpt>
      <trkpt lat="40.29890810139477252960205078125" lon="-0.9948388673365116119384765625">
        <ele>1178</ele>
        <time>2021-09-26T08:29:58.000Z</time>
      </trkpt>
      <trkpt lat="40.29884540475904941558837890625" lon="-0.9948214329779148101806640625">
        <ele>1178</ele>
        <time>2021-09-26T08:30:00.000Z</time>
      </trkpt>
      <trkpt lat="40.29878832399845123291015625" lon="-0.994800813496112823486328125">
        <ele>1178.4000244140625</ele>
        <time>2021-09-26T08:30:02.000Z</time>
      </trkpt>
      <trkpt lat="40.298728980123996734619140625" lon="-0.994777679443359375">
        <ele>1178.5999755859375</ele>
        <time>2021-09-26T08:30:04.000Z</time>
      </trkpt>
      <trkpt lat="40.29866938479244709014892578125" lon="-0.99475412629544734954833984375">
        <ele>1179</ele>
        <time>2021-09-26T08:30:06.000Z</time>
      </trkpt>
      <trkpt lat="40.29860819689929485321044921875" lon="-0.9947302378714084625244140625">
        <ele>1179.199951171875</ele>
        <time>2021-09-26T08:30:08.000Z</time>
      </trkpt>
      <trkpt lat="40.298543907701969146728515625" lon="-0.99471129477024078369140625">
        <ele>1179.199951171875</ele>
        <time>2021-09-26T08:30:10.000Z</time>
      </trkpt>
      <trkpt lat="40.29848196543753147125244140625" lon="-0.994688160717487335205078125">
        <ele>1179.4000244140625</ele>
        <time>2021-09-26T08:30:12.000Z</time>
      </trkpt>
      <trkpt lat="40.29841809533536434173583984375" lon="-0.9946618415415287017822265625">
        <ele>1179.5999755859375</ele>
        <time>2021-09-26T08:30:14.000Z</time>
      </trkpt>
      <trkpt lat="40.2983519621193408966064453125" lon="-0.9946313314139842987060546875">
        <ele>1179.5999755859375</ele>
        <time>2021-09-26T08:30:16.000Z</time>
      </trkpt>
      <trkpt lat="40.29831935651600360870361328125" lon="-0.99461766891181468963623046875">
        <ele>1179.5999755859375</ele>
        <time>2021-09-26T08:30:17.000Z</time>
      </trkpt>
      <trkpt lat="40.29828901402652263641357421875" lon="-0.994601659476757049560546875">
        <ele>1179.800048828125</ele>
        <time>2021-09-26T08:30:18.000Z</time>
      </trkpt>
      <trkpt lat="40.298226065933704376220703125" lon="-0.9945652820169925689697265625">
        <ele>1179.800048828125</ele>
        <time>2021-09-26T08:30:20.000Z</time>
      </trkpt>
      <trkpt lat="40.2981626987457275390625" lon="-0.99453720264136791229248046875">
        <ele>1179.5999755859375</ele>
        <time>2021-09-26T08:30:22.000Z</time>
      </trkpt>
      <trkpt lat="40.29810360632836818695068359375" lon="-0.9945039264857769012451171875">
        <ele>1179.5999755859375</ele>
        <time>2021-09-26T08:30:24.000Z</time>
      </trkpt>
      <trkpt lat="40.29807309620082378387451171875" lon="-0.9944878332316875457763671875">
        <ele>1179.5999755859375</ele>
        <time>2021-09-26T08:30:25.000Z</time>
      </trkpt>
      <trkpt lat="40.29804141260683536529541015625" lon="-0.99447115324437618255615234375">
        <ele>1179.800048828125</ele>
        <time>2021-09-26T08:30:26.000Z</time>
      </trkpt>
      <trkpt lat="40.297979973256587982177734375" lon="-0.994436033070087432861328125">
        <ele>1179.800048828125</ele>
        <time>2021-09-26T08:30:28.000Z</time>
      </trkpt>
      <trkpt lat="40.29791635461151599884033203125" lon="-0.994404517114162445068359375">
        <ele>1179.5999755859375</ele>
        <time>2021-09-26T08:30:30.000Z</time>
      </trkpt>
      <trkpt lat="40.297856591641902923583984375" lon="-0.9943812154233455657958984375">
        <ele>1179.4000244140625</ele>
        <time>2021-09-26T08:30:32.000Z</time>
      </trkpt>
      <trkpt lat="40.29782867990434169769287109375" lon="-0.99436738528311252593994140625">
        <ele>1179.199951171875</ele>
        <time>2021-09-26T08:30:33.000Z</time>
      </trkpt>
      <trkpt lat="40.29779934324324131011962890625" lon="-0.994351208209991455078125">
        <ele>1179.199951171875</ele>
        <time>2021-09-26T08:30:34.000Z</time>
      </trkpt>
      <trkpt lat="40.29774184338748455047607421875" lon="-0.99431575275957584381103515625">
        <ele>1179</ele>
        <time>2021-09-26T08:30:36.000Z</time>
      </trkpt>
      <trkpt lat="40.29768534936010837554931640625" lon="-0.99427904002368450164794921875">
        <ele>1178.800048828125</ele>
        <time>2021-09-26T08:30:38.000Z</time>
      </trkpt>
      <trkpt lat="40.2976264245808124542236328125" lon="-0.99423629231750965118408203125">
        <ele>1178.800048828125</ele>
        <time>2021-09-26T08:30:40.000Z</time>
      </trkpt>
      <trkpt lat="40.29756397940218448638916015625" lon="-0.9941991604864597320556640625">
        <ele>1178.4000244140625</ele>
        <time>2021-09-26T08:30:42.000Z</time>
      </trkpt>
      <trkpt lat="40.29750262387096881866455078125" lon="-0.99416135810315608978271484375">
        <ele>1178.199951171875</ele>
        <time>2021-09-26T08:30:44.000Z</time>
      </trkpt>
      <trkpt lat="40.29743774794042110443115234375" lon="-0.99412196315824985504150390625">
        <ele>1178</ele>
        <time>2021-09-26T08:30:46.000Z</time>
      </trkpt>
      <trkpt lat="40.29737991280853748321533203125" lon="-0.9940741024911403656005859375">
        <ele>1178.199951171875</ele>
        <time>2021-09-26T08:30:48.000Z</time>
      </trkpt>
      <trkpt lat="40.2973189763724803924560546875" lon="-0.99403328262269496917724609375">
        <ele>1178.4000244140625</ele>
        <time>2021-09-26T08:30:50.000Z</time>
      </trkpt>
      <trkpt lat="40.29725820757448673248291015625" lon="-0.99399439059197902679443359375">
        <ele>1178.5999755859375</ele>
        <time>2021-09-26T08:30:52.000Z</time>
      </trkpt>
      <trkpt lat="40.2971979416906833648681640625" lon="-0.9939493797719478607177734375">
        <ele>1178.800048828125</ele>
        <time>2021-09-26T08:30:54.000Z</time>
      </trkpt>
      <trkpt lat="40.2971362508833408355712890625" lon="-0.99391224794089794158935546875">
        <ele>1179.199951171875</ele>
        <time>2021-09-26T08:30:56.000Z</time>
      </trkpt>
      <trkpt lat="40.2970805950462818145751953125" lon="-0.99386882968246936798095703125">
        <ele>1179.5999755859375</ele>
        <time>2021-09-26T08:30:58.000Z</time>
      </trkpt>
      <trkpt lat="40.29702099971473217010498046875" lon="-0.99382926709949970245361328125">
        <ele>1180.199951171875</ele>
        <time>2021-09-26T08:31:00.000Z</time>
      </trkpt>
      <trkpt lat="40.296959392726421356201171875" lon="-0.99378249607980251312255859375">
        <ele>1180.5999755859375</ele>
        <time>2021-09-26T08:31:02.000Z</time>
      </trkpt>
      <trkpt lat="40.29689996503293514251708984375" lon="-0.99373522214591503143310546875">
        <ele>1181.199951171875</ele>
        <time>2021-09-26T08:31:04.000Z</time>
      </trkpt>
      <trkpt lat="40.296841375529766082763671875" lon="-0.99369230680167675018310546875">
        <ele>1182.199951171875</ele>
        <time>2021-09-26T08:31:06.000Z</time>
      </trkpt>
      <trkpt lat="40.29679007828235626220703125" lon="-0.99363950081169605255126953125">
        <ele>1183.199951171875</ele>
        <time>2021-09-26T08:31:08.000Z</time>
      </trkpt>
      <trkpt lat="40.29674003832042217254638671875" lon="-0.99359055049717426300048828125">
        <ele>1184.199951171875</ele>
        <time>2021-09-26T08:31:10.000Z</time>
      </trkpt>
      <trkpt lat="40.29671422205865383148193359375" lon="-0.99357127211987972259521484375">
        <ele>1184.199951171875</ele>
        <time>2021-09-26T08:31:11.000Z</time>
      </trkpt>
      <trkpt lat="40.29668706469237804412841796875" lon="-0.99355735816061496734619140625">
        <ele>1184.4000244140625</ele>
        <time>2021-09-26T08:31:12.000Z</time>
      </trkpt>
      <trkpt lat="40.29663559980690479278564453125" lon="-0.99351896904408931732177734375">
        <ele>1184.5999755859375</ele>
        <time>2021-09-26T08:31:14.000Z</time>
      </trkpt>
      <trkpt lat="40.2965837158262729644775390625" lon="-0.993479155004024505615234375">
        <ele>1184.800048828125</ele>
        <time>2021-09-26T08:31:16.000Z</time>
      </trkpt>
      <trkpt lat="40.296534933149814605712890625" lon="-0.9934343956410884857177734375">
        <ele>1185.199951171875</ele>
        <time>2021-09-26T08:31:18.000Z</time>
      </trkpt>
      <trkpt lat="40.29648137278854846954345703125" lon="-0.99339558742940425872802734375">
        <ele>1185.4000244140625</ele>
        <time>2021-09-26T08:31:20.000Z</time>
      </trkpt>
      <trkpt lat="40.29643024317920207977294921875" lon="-0.99334965460002422332763671875">
        <ele>1185.5999755859375</ele>
        <time>2021-09-26T08:31:22.000Z</time>
      </trkpt>
      <trkpt lat="40.296374671161174774169921875" lon="-0.99330539815127849578857421875">
        <ele>1185.4000244140625</ele>
        <time>2021-09-26T08:31:24.000Z</time>
      </trkpt>
      <trkpt lat="40.29631935060024261474609375" lon="-0.99325477145612239837646484375">
        <ele>1185.4000244140625</ele>
        <time>2021-09-26T08:31:26.000Z</time>
      </trkpt>
      <trkpt lat="40.2962675504386425018310546875" lon="-0.99320389330387115478515625">
        <ele>1185</ele>
        <time>2021-09-26T08:31:28.000Z</time>
      </trkpt>
      <trkpt lat="40.2962075360119342803955078125" lon="-0.9931628219783306121826171875">
        <ele>1184.4000244140625</ele>
        <time>2021-09-26T08:31:30.000Z</time>
      </trkpt>
      <trkpt lat="40.29615146107971668243408203125" lon="-0.99311563186347484588623046875">
        <ele>1184</ele>
        <time>2021-09-26T08:31:32.000Z</time>
      </trkpt>
      <trkpt lat="40.29609463177621364593505859375" lon="-0.99306601099669933319091796875">
        <ele>1183.800048828125</ele>
        <time>2021-09-26T08:31:34.000Z</time>
      </trkpt>
      <trkpt lat="40.29602942056953907012939453125" lon="-0.99302343092858791351318359375">
        <ele>1183.5999755859375</ele>
        <time>2021-09-26T08:31:36.000Z</time>
      </trkpt>
      <trkpt lat="40.29597309418022632598876953125" lon="-0.99297246895730495452880859375">
        <ele>1183.4000244140625</ele>
        <time>2021-09-26T08:31:38.000Z</time>
      </trkpt>
      <trkpt lat="40.295915342867374420166015625" lon="-0.99292670376598834991455078125">
        <ele>1183.4000244140625</ele>
        <time>2021-09-26T08:31:40.000Z</time>
      </trkpt>
      <trkpt lat="40.29585742391645908355712890625" lon="-0.9928828664124011993408203125">
        <ele>1183</ele>
        <time>2021-09-26T08:31:42.000Z</time>
      </trkpt>
      <trkpt lat="40.295800678431987762451171875" lon="-0.99283768795430660247802734375">
        <ele>1182.800048828125</ele>
        <time>2021-09-26T08:31:44.000Z</time>
      </trkpt>
      <trkpt lat="40.29574192129075527191162109375" lon="-0.99279577843844890594482421875">
        <ele>1182.800048828125</ele>
        <time>2021-09-26T08:31:46.000Z</time>
      </trkpt>
      <trkpt lat="40.295691378414630889892578125" lon="-0.9927467443048954010009765625">
        <ele>1183</ele>
        <time>2021-09-26T08:31:48.000Z</time>
      </trkpt>
      <trkpt lat="40.29566447250545024871826171875" lon="-0.99272017367184162139892578125">
        <ele>1183</ele>
        <time>2021-09-26T08:31:49.000Z</time>
      </trkpt>
      <trkpt lat="40.29563614167273044586181640625" lon="-0.9926957823336124420166015625">
        <ele>1183.4000244140625</ele>
        <time>2021-09-26T08:31:50.000Z</time>
      </trkpt>
      <trkpt lat="40.29557981528341770172119140625" lon="-0.99264607764780521392822265625">
        <ele>1183.800048828125</ele>
        <time>2021-09-26T08:31:52.000Z</time>
      </trkpt>
      <trkpt lat="40.29552332125604152679443359375" lon="-0.99259645678102970123291015625">
        <ele>1184.4000244140625</ele>
        <time>2021-09-26T08:31:54.000Z</time>
      </trkpt>
      <trkpt lat="40.29546414501965045928955078125" lon="-0.9925566427409648895263671875">
        <ele>1184.800048828125</ele>
        <time>2021-09-26T08:31:56.000Z</time>
      </trkpt>
      <trkpt lat="40.29543631710112094879150390625" lon="-0.99253694526851177215576171875">
        <ele>1185</ele>
        <time>2021-09-26T08:31:57.000Z</time>
      </trkpt>
      <trkpt lat="40.2954065613448619842529296875" lon="-0.99251682870090007781982421875">
        <ele>1185.199951171875</ele>
        <time>2021-09-26T08:31:58.000Z</time>
      </trkpt>
      <trkpt lat="40.295354090631008148193359375" lon="-0.99247022531926631927490234375">
        <ele>1185.5999755859375</ele>
        <time>2021-09-26T08:32:00.000Z</time>
      </trkpt>
      <trkpt lat="40.29529273509979248046875" lon="-0.99242596887052059173583984375">
        <ele>1185.800048828125</ele>
        <time>2021-09-26T08:32:02.000Z</time>
      </trkpt>
      <trkpt lat="40.2952597104012966156005859375" lon="-0.9923990629613399505615234375">
        <ele>1185.800048828125</ele>
        <time>2021-09-26T08:32:03.000Z</time>
      </trkpt>
      <trkpt lat="40.29522710479795932769775390625" lon="-0.9923739172518253326416015625">
        <ele>1186</ele>
        <time>2021-09-26T08:32:04.000Z</time>
      </trkpt>
      <trkpt lat="40.29517404735088348388671875" lon="-0.99231750704348087310791015625">
        <ele>1186.4000244140625</ele>
        <time>2021-09-26T08:32:06.000Z</time>
      </trkpt>
      <trkpt lat="40.2951152063906192779541015625" lon="-0.992269814014434814453125">
        <ele>1187</ele>
        <time>2021-09-26T08:32:08.000Z</time>
      </trkpt>
      <trkpt lat="40.2950853668153285980224609375" lon="-0.9922448359429836273193359375">
        <ele>1187.199951171875</ele>
        <time>2021-09-26T08:32:09.000Z</time>
      </trkpt>
      <trkpt lat="40.2950553596019744873046875" lon="-0.992221869528293609619140625">
        <ele>1187.4000244140625</ele>
        <time>2021-09-26T08:32:10.000Z</time>
      </trkpt>
      <trkpt lat="40.29499911703169345855712890625" lon="-0.9921761043369770050048828125">
        <ele>1188</ele>
        <time>2021-09-26T08:32:12.000Z</time>
      </trkpt>
      <trkpt lat="40.294941365718841552734375" lon="-0.99213369190692901611328125">
        <ele>1188.4000244140625</ele>
        <time>2021-09-26T08:32:14.000Z</time>
      </trkpt>
      <trkpt lat="40.294887386262416839599609375" lon="-0.99209035746753215789794921875">
        <ele>1188.800048828125</ele>
        <time>2021-09-26T08:32:16.000Z</time>
      </trkpt>
      <trkpt lat="40.294841788709163665771484375" lon="-0.992049872875213623046875">
        <ele>1188.800048828125</ele>
        <time>2021-09-26T08:32:18.000Z</time>
      </trkpt>
      <trkpt lat="40.29479694552719593048095703125" lon="-0.99202103912830352783203125">
        <ele>1189</ele>
        <time>2021-09-26T08:32:20.000Z</time>
      </trkpt>
      <trkpt lat="40.294778086245059967041015625" lon="-0.99200704135000705718994140625">
        <ele>1189</ele>
        <time>2021-09-26T08:32:21.000Z</time>
      </trkpt>
      <trkpt lat="40.29476040042936801910400390625" lon="-0.99199396558105945587158203125">
        <ele>1189</ele>
        <time>2021-09-26T08:32:22.000Z</time>
      </trkpt>
      <trkpt lat="40.29473927803337574005126953125" lon="-0.99197812378406524658203125">
        <ele>1189.199951171875</ele>
        <time>2021-09-26T08:32:23.000Z</time>
      </trkpt>
      <trkpt lat="40.29471547342836856842041015625" lon="-0.99196261726319789886474609375">
        <ele>1189.199951171875</ele>
        <time>2021-09-26T08:32:24.000Z</time>
      </trkpt>
      <trkpt lat="40.29466819949448108673095703125" lon="-0.99192255176603794097900390625">
        <ele>1189.800048828125</ele>
        <time>2021-09-26T08:32:26.000Z</time>
      </trkpt>
      <trkpt lat="40.29462293721735477447509765625" lon="-0.9918850846588611602783203125">
        <ele>1189.800048828125</ele>
        <time>2021-09-26T08:32:28.000Z</time>
      </trkpt>
      <trkpt lat="40.2945777587592601776123046875" lon="-0.991856418550014495849609375">
        <ele>1189.5999755859375</ele>
        <time>2021-09-26T08:32:30.000Z</time>
      </trkpt>
      <trkpt lat="40.2945335023105144500732421875" lon="-0.991811491549015045166015625">
        <ele>1189.5999755859375</ele>
        <time>2021-09-26T08:32:32.000Z</time>
      </trkpt>
      <trkpt lat="40.2944848872721195220947265625" lon="-0.99176966585218906402587890625">
        <ele>1189.199951171875</ele>
        <time>2021-09-26T08:32:34.000Z</time>
      </trkpt>
      <trkpt lat="40.29443375766277313232421875" lon="-0.99173060618340969085693359375">
        <ele>1189.199951171875</ele>
        <time>2021-09-26T08:32:36.000Z</time>
      </trkpt>
      <trkpt lat="40.29438011348247528076171875" lon="-0.99169154651463031768798828125">
        <ele>1189.199951171875</ele>
        <time>2021-09-26T08:32:38.000Z</time>
      </trkpt>
      <trkpt lat="40.2943537943065166473388671875" lon="-0.9916705079376697540283203125">
        <ele>1189.199951171875</ele>
        <time>2021-09-26T08:32:39.000Z</time>
      </trkpt>
      <trkpt lat="40.29432521201670169830322265625" lon="-0.9916500560939311981201171875">
        <ele>1189.199951171875</ele>
        <time>2021-09-26T08:32:40.000Z</time>
      </trkpt>
      <trkpt lat="40.29427039436995983123779296875" lon="-0.9916111640632152557373046875">
        <ele>1189.199951171875</ele>
        <time>2021-09-26T08:32:42.000Z</time>
      </trkpt>
      <trkpt lat="40.29421540908515453338623046875" lon="-0.9915739484131336212158203125">
        <ele>1189.199951171875</ele>
        <time>2021-09-26T08:32:44.000Z</time>
      </trkpt>
      <trkpt lat="40.2941630221903324127197265625" lon="-0.99154000170528888702392578125">
        <ele>1189.199951171875</ele>
        <time>2021-09-26T08:32:46.000Z</time>
      </trkpt>
      <trkpt lat="40.294108204543590545654296875" lon="-0.99150446243584156036376953125">
        <ele>1189.199951171875</ele>
        <time>2021-09-26T08:32:48.000Z</time>
      </trkpt>
      <trkpt lat="40.2940548956394195556640625" lon="-0.99147378467023372650146484375">
        <ele>1189.199951171875</ele>
        <time>2021-09-26T08:32:50.000Z</time>
      </trkpt>
      <trkpt lat="40.29399731196463108062744140625" lon="-0.991439335048198699951171875">
        <ele>1189.199951171875</ele>
        <time>2021-09-26T08:32:52.000Z</time>
      </trkpt>
      <trkpt lat="40.29396965168416500091552734375" lon="-0.99142290651798248291015625">
        <ele>1189.199951171875</ele>
        <time>2021-09-26T08:32:53.000Z</time>
      </trkpt>
      <trkpt lat="40.29394215904176235198974609375" lon="-0.9914026223123073577880859375">
        <ele>1189.199951171875</ele>
        <time>2021-09-26T08:32:54.000Z</time>
      </trkpt>
      <trkpt lat="40.29388147406280040740966796875" lon="-0.9913751296699047088623046875">
        <ele>1189.199951171875</ele>
        <time>2021-09-26T08:32:56.000Z</time>
      </trkpt>
      <trkpt lat="40.2938203699886798858642578125" lon="-0.99134587682783603668212890625">
        <ele>1189.4000244140625</ele>
        <time>2021-09-26T08:32:58.000Z</time>
      </trkpt>
      <trkpt lat="40.2937623672187328338623046875" lon="-0.99131586961448192596435546875">
        <ele>1189.800048828125</ele>
        <time>2021-09-26T08:33:00.000Z</time>
      </trkpt>
      <trkpt lat="40.29370595701038837432861328125" lon="-0.9912849403917789459228515625">
        <ele>1189.800048828125</ele>
        <time>2021-09-26T08:33:02.000Z</time>
      </trkpt>
      <trkpt lat="40.29364845715463161468505859375" lon="-0.99125904031097888946533203125">
        <ele>1190</ele>
        <time>2021-09-26T08:33:04.000Z</time>
      </trkpt>
      <trkpt lat="40.29359020292758941650390625" lon="-0.99123272113502025604248046875">
        <ele>1190.199951171875</ele>
        <time>2021-09-26T08:33:06.000Z</time>
      </trkpt>
      <trkpt lat="40.29353211633861064910888671875" lon="-0.991208665072917938232421875">
        <ele>1190.4000244140625</ele>
        <time>2021-09-26T08:33:08.000Z</time>
      </trkpt>
      <trkpt lat="40.2934757061302661895751953125" lon="-0.99118561483919620513916015625">
        <ele>1191</ele>
        <time>2021-09-26T08:33:10.000Z</time>
      </trkpt>
      <trkpt lat="40.293414182960987091064453125" lon="-0.99116432480514049530029296875">
        <ele>1191.4000244140625</ele>
        <time>2021-09-26T08:33:12.000Z</time>
      </trkpt>
      <trkpt lat="40.29335089959204196929931640625" lon="-0.99113549105823040008544921875">
        <ele>1191.800048828125</ele>
        <time>2021-09-26T08:33:14.000Z</time>
      </trkpt>
      <trkpt lat="40.293289460241794586181640625" lon="-0.99112358875572681427001953125">
        <ele>1191.800048828125</ele>
        <time>2021-09-26T08:33:16.000Z</time>
      </trkpt>
      <trkpt lat="40.29326037503778934478759765625" lon="-0.9911179728806018829345703125">
        <ele>1191.800048828125</ele>
        <time>2021-09-26T08:33:17.000Z</time>
      </trkpt>
      <trkpt lat="40.29323036782443523406982421875" lon="-0.99111042916774749755859375">
        <ele>1191.800048828125</ele>
        <time>2021-09-26T08:33:18.000Z</time>
      </trkpt>
      <trkpt lat="40.2931679226458072662353515625" lon="-0.9910904802381992340087890625">
        <ele>1191.800048828125</ele>
        <time>2021-09-26T08:33:20.000Z</time>
      </trkpt>
      <trkpt lat="40.2931038849055767059326171875" lon="-0.99106793291866779327392578125">
        <ele>1191.5999755859375</ele>
        <time>2021-09-26T08:33:22.000Z</time>
      </trkpt>
      <trkpt lat="40.29303892515599727630615234375" lon="-0.9910480678081512451171875">
        <ele>1191.5999755859375</ele>
        <time>2021-09-26T08:33:24.000Z</time>
      </trkpt>
      <trkpt lat="40.29297354631125926971435546875" lon="-0.9910254366695880889892578125">
        <ele>1191.4000244140625</ele>
        <time>2021-09-26T08:33:26.000Z</time>
      </trkpt>
      <trkpt lat="40.29290892183780670166015625" lon="-0.99100875668227672576904296875">
        <ele>1191</ele>
        <time>2021-09-26T08:33:28.000Z</time>
      </trkpt>
      <trkpt lat="40.29284697957336902618408203125" lon="-0.99099299870431423187255859375">
        <ele>1190.800048828125</ele>
        <time>2021-09-26T08:33:30.000Z</time>
      </trkpt>
      <trkpt lat="40.29278646223247051239013671875" lon="-0.99097824655473232269287109375">
        <ele>1190.4000244140625</ele>
        <time>2021-09-26T08:33:32.000Z</time>
      </trkpt>
      <trkpt lat="40.29272410087287425994873046875" lon="-0.99096047692000865936279296875">
        <ele>1190.199951171875</ele>
        <time>2021-09-26T08:33:34.000Z</time>
      </trkpt>
      <trkpt lat="40.29266525991261005401611328125" lon="-0.99094421602785587310791015625">
        <ele>1190</ele>
        <time>2021-09-26T08:33:36.000Z</time>
      </trkpt>
      <trkpt lat="40.292600803077220916748046875" lon="-0.990923345088958740234375">
        <ele>1190</ele>
        <time>2021-09-26T08:33:38.000Z</time>
      </trkpt>
      <trkpt lat="40.29253617860376834869384765625" lon="-0.99090431816875934600830078125">
        <ele>1190</ele>
        <time>2021-09-26T08:33:40.000Z</time>
      </trkpt>
      <trkpt lat="40.2924723923206329345703125" lon="-0.99089090712368488311767578125">
        <ele>1190</ele>
        <time>2021-09-26T08:33:42.000Z</time>
      </trkpt>
      <trkpt lat="40.292410366237163543701171875" lon="-0.99087464623153209686279296875">
        <ele>1190</ele>
        <time>2021-09-26T08:33:44.000Z</time>
      </trkpt>
      <trkpt lat="40.29234674759209156036376953125" lon="-0.990855954587459564208984375">
        <ele>1190.199951171875</ele>
        <time>2021-09-26T08:33:46.000Z</time>
      </trkpt>
      <trkpt lat="40.29228371568024158477783203125" lon="-0.99084413610398769378662109375">
        <ele>1190.4000244140625</ele>
        <time>2021-09-26T08:33:48.000Z</time>
      </trkpt>
      <trkpt lat="40.29222168959677219390869140625" lon="-0.990827791392803192138671875">
        <ele>1190.199951171875</ele>
        <time>2021-09-26T08:33:50.000Z</time>
      </trkpt>
      <trkpt lat="40.292160920798778533935546875" lon="-0.99080943502485752105712890625">
        <ele>1190.199951171875</ele>
        <time>2021-09-26T08:33:52.000Z</time>
      </trkpt>
      <trkpt lat="40.29212865047156810760498046875" lon="-0.99079920910298824310302734375">
        <ele>1190</ele>
        <time>2021-09-26T08:33:53.000Z</time>
      </trkpt>
      <trkpt lat="40.2920957095921039581298828125" lon="-0.99079258739948272705078125">
        <ele>1189.800048828125</ele>
        <time>2021-09-26T08:33:54.000Z</time>
      </trkpt>
      <trkpt lat="40.29203125275671482086181640625" lon="-0.99077456630766391754150390625">
        <ele>1189.5999755859375</ele>
        <time>2021-09-26T08:33:56.000Z</time>
      </trkpt>
      <trkpt lat="40.29197006486356258392333984375" lon="-0.99076182581484317779541015625">
        <ele>1189.5999755859375</ele>
        <time>2021-09-26T08:33:58.000Z</time>
      </trkpt>
      <trkpt lat="40.29190770350396633148193359375" lon="-0.99074137397110462188720703125">
        <ele>1189.5999755859375</ele>
        <time>2021-09-26T08:34:00.000Z</time>
      </trkpt>
      <trkpt lat="40.29187618754804134368896484375" lon="-0.99073299206793308258056640625">
        <ele>1189.5999755859375</ele>
        <time>2021-09-26T08:34:01.000Z</time>
      </trkpt>
      <trkpt lat="40.29184333048760890960693359375" lon="-0.9907253645360469818115234375">
        <ele>1189.5999755859375</ele>
        <time>2021-09-26T08:34:02.000Z</time>
      </trkpt>
      <trkpt lat="40.2917818911373615264892578125" lon="-0.99070935510098934173583984375">
        <ele>1189.800048828125</ele>
        <time>2021-09-26T08:34:04.000Z</time>
      </trkpt>
      <trkpt lat="40.29171626083552837371826171875" lon="-0.990699045360088348388671875">
        <ele>1190</ele>
        <time>2021-09-26T08:34:06.000Z</time>
      </trkpt>
      <trkpt lat="40.291653983294963836669921875" lon="-0.99067951552569866180419921875">
        <ele>1190.199951171875</ele>
        <time>2021-09-26T08:34:08.000Z</time>
      </trkpt>
      <trkpt lat="40.29162146151065826416015625" lon="-0.99067046307027339935302734375">
        <ele>1190.199951171875</ele>
        <time>2021-09-26T08:34:09.000Z</time>
      </trkpt>
      <trkpt lat="40.29158852063119411468505859375" lon="-0.99066258408129215240478515625">
        <ele>1190.4000244140625</ele>
        <time>2021-09-26T08:34:10.000Z</time>
      </trkpt>
      <trkpt lat="40.2915210463106632232666015625" lon="-0.990646071732044219970703125">
        <ele>1190.4000244140625</ele>
        <time>2021-09-26T08:34:12.000Z</time>
      </trkpt>
      <trkpt lat="40.29145709238946437835693359375" lon="-0.9906323254108428955078125">
        <ele>1190.5999755859375</ele>
        <time>2021-09-26T08:34:14.000Z</time>
      </trkpt>
      <trkpt lat="40.2914248220622539520263671875" lon="-0.99062369205057621002197265625">
        <ele>1190.800048828125</ele>
        <time>2021-09-26T08:34:15.000Z</time>
      </trkpt>
      <trkpt lat="40.291395150125026702880859375" lon="-0.99061556160449981689453125">
        <ele>1190.800048828125</ele>
        <time>2021-09-26T08:34:16.000Z</time>
      </trkpt>
      <trkpt lat="40.29133454896509647369384765625" lon="-0.99059837870299816131591796875">
        <ele>1191</ele>
        <time>2021-09-26T08:34:18.000Z</time>
      </trkpt>
      <trkpt lat="40.2912732772529125213623046875" lon="-0.9905855543911457061767578125">
        <ele>1191.5999755859375</ele>
        <time>2021-09-26T08:34:20.000Z</time>
      </trkpt>
      <trkpt lat="40.2912102453410625457763671875" lon="-0.99056904204189777374267578125">
        <ele>1192.199951171875</ele>
        <time>2021-09-26T08:34:22.000Z</time>
      </trkpt>
      <trkpt lat="40.29114176519215106964111328125" lon="-0.9905493445694446563720703125">
        <ele>1192.5999755859375</ele>
        <time>2021-09-26T08:34:24.000Z</time>
      </trkpt>
      <trkpt lat="40.29111108742654323577880859375" lon="-0.99053911864757537841796875">
        <ele>1192.5999755859375</ele>
        <time>2021-09-26T08:34:25.000Z</time>
      </trkpt>
      <trkpt lat="40.2910794876515865325927734375" lon="-0.9905325807631015777587890625">
        <ele>1192.5999755859375</ele>
        <time>2021-09-26T08:34:26.000Z</time>
      </trkpt>
      <trkpt lat="40.2910157851874828338623046875" lon="-0.9905178286135196685791015625">
        <ele>1192.800048828125</ele>
        <time>2021-09-26T08:34:28.000Z</time>
      </trkpt>
      <trkpt lat="40.29095300473272800445556640625" lon="-0.990495868027210235595703125">
        <ele>1193.199951171875</ele>
        <time>2021-09-26T08:34:30.000Z</time>
      </trkpt>
      <trkpt lat="40.29088963754475116729736328125" lon="-0.99048119969666004180908203125">
        <ele>1193.5999755859375</ele>
        <time>2021-09-26T08:34:32.000Z</time>
      </trkpt>
      <trkpt lat="40.29082593508064746856689453125" lon="-0.9904601611196994781494140625">
        <ele>1194.4000244140625</ele>
        <time>2021-09-26T08:34:34.000Z</time>
      </trkpt>
      <trkpt lat="40.29075753875076770782470703125" lon="-0.990445576608180999755859375">
        <ele>1194.800048828125</ele>
        <time>2021-09-26T08:34:36.000Z</time>
      </trkpt>
      <trkpt lat="40.29069400392472743988037109375" lon="-0.990426801145076751708984375">
        <ele>1195</ele>
        <time>2021-09-26T08:34:38.000Z</time>
      </trkpt>
      <trkpt lat="40.2906342409551143646240234375" lon="-0.9904123842716217041015625">
        <ele>1195</ele>
        <time>2021-09-26T08:34:40.000Z</time>
      </trkpt>
      <trkpt lat="40.29057179577648639678955078125" lon="-0.99039855413138866424560546875">
        <ele>1195.199951171875</ele>
        <time>2021-09-26T08:34:42.000Z</time>
      </trkpt>
      <trkpt lat="40.2905105240643024444580078125" lon="-0.9903803654015064239501953125">
        <ele>1195.199951171875</ele>
        <time>2021-09-26T08:34:44.000Z</time>
      </trkpt>
      <trkpt lat="40.29045067727565765380859375" lon="-0.9903632663190364837646484375">
        <ele>1195.199951171875</ele>
        <time>2021-09-26T08:34:46.000Z</time>
      </trkpt>
      <trkpt lat="40.29038839973509311676025390625" lon="-0.990347675979137420654296875">
        <ele>1195</ele>
        <time>2021-09-26T08:34:48.000Z</time>
      </trkpt>
      <trkpt lat="40.2903185784816741943359375" lon="-0.99033166654407978057861328125">
        <ele>1195</ele>
        <time>2021-09-26T08:34:50.000Z</time>
      </trkpt>
      <trkpt lat="40.29025160707533359527587890625" lon="-0.99031138233840465545654296875">
        <ele>1195.199951171875</ele>
        <time>2021-09-26T08:34:52.000Z</time>
      </trkpt>
      <trkpt lat="40.29021942056715488433837890625" lon="-0.9903019107878208160400390625">
        <ele>1195.199951171875</ele>
        <time>2021-09-26T08:34:53.000Z</time>
      </trkpt>
      <trkpt lat="40.29018756933510303497314453125" lon="-0.99028992466628551483154296875">
        <ele>1195.5999755859375</ele>
        <time>2021-09-26T08:34:54.000Z</time>
      </trkpt>
      <trkpt lat="40.290123112499713897705078125" lon="-0.990269221365451812744140625">
        <ele>1196.199951171875</ele>
        <time>2021-09-26T08:34:56.000Z</time>
      </trkpt>
      <trkpt lat="40.290059410035610198974609375" lon="-0.990249775350093841552734375">
        <ele>1196.5999755859375</ele>
        <time>2021-09-26T08:34:58.000Z</time>
      </trkpt>
      <trkpt lat="40.2899967133998870849609375" lon="-0.99023125134408473968505859375">
        <ele>1196.5999755859375</ele>
        <time>2021-09-26T08:35:00.000Z</time>
      </trkpt>
      <trkpt lat="40.28996176086366176605224609375" lon="-0.9902241267263889312744140625">
        <ele>1196.5999755859375</ele>
        <time>2021-09-26T08:35:01.000Z</time>
      </trkpt>
      <trkpt lat="40.2899281494319438934326171875" lon="-0.99021700210869312286376953125">
        <ele>1196.800048828125</ele>
        <time>2021-09-26T08:35:02.000Z</time>
      </trkpt>
      <trkpt lat="40.2898654527962207794189453125" lon="-0.99019973538815975189208984375">
        <ele>1196.800048828125</ele>
        <time>2021-09-26T08:35:04.000Z</time>
      </trkpt>
      <trkpt lat="40.28979898430407047271728515625" lon="-0.99018372595310211181640625">
        <ele>1196.800048828125</ele>
        <time>2021-09-26T08:35:06.000Z</time>
      </trkpt>
      <trkpt lat="40.28973762877285480499267578125" lon="-0.99017341621220111846923828125">
        <ele>1196.800048828125</ele>
        <time>2021-09-26T08:35:08.000Z</time>
      </trkpt>
      <trkpt lat="40.289677865803241729736328125" lon="-0.99015346728265285491943359375">
        <ele>1197</ele>
        <time>2021-09-26T08:35:10.000Z</time>
      </trkpt>
      <trkpt lat="40.2896156720817089080810546875" lon="-0.99013670347630977630615234375">
        <ele>1196.800048828125</ele>
        <time>2021-09-26T08:35:12.000Z</time>
      </trkpt>
      <trkpt lat="40.2895523048937320709228515625" lon="-0.99011524580419063568115234375">
        <ele>1196.800048828125</ele>
        <time>2021-09-26T08:35:14.000Z</time>
      </trkpt>
      <trkpt lat="40.28948801569640636444091796875" lon="-0.99010116420686244964599609375">
        <ele>1196.5999755859375</ele>
        <time>2021-09-26T08:35:16.000Z</time>
      </trkpt>
      <trkpt lat="40.28942246921360492706298828125" lon="-0.9900846518576145172119140625">
        <ele>1196.5999755859375</ele>
        <time>2021-09-26T08:35:18.000Z</time>
      </trkpt>
      <trkpt lat="40.289359353482723236083984375" lon="-0.99006964825093746185302734375">
        <ele>1196.5999755859375</ele>
        <time>2021-09-26T08:35:20.000Z</time>
      </trkpt>
      <trkpt lat="40.28929808177053928375244140625" lon="-0.99005070514976978302001953125">
        <ele>1196.5999755859375</ele>
        <time>2021-09-26T08:35:22.000Z</time>
      </trkpt>
      <trkpt lat="40.289237983524799346923828125" lon="-0.99003260023891925811767578125">
        <ele>1196.5999755859375</ele>
        <time>2021-09-26T08:35:24.000Z</time>
      </trkpt>
      <trkpt lat="40.28920806013047695159912109375" lon="-0.9900234639644622802734375">
        <ele>1196.5999755859375</ele>
        <time>2021-09-26T08:35:25.000Z</time>
      </trkpt>
      <trkpt lat="40.2891771309077739715576171875" lon="-0.99001784808933734893798828125">
        <ele>1196.5999755859375</ele>
        <time>2021-09-26T08:35:26.000Z</time>
      </trkpt>
      <trkpt lat="40.28911652974784374237060546875" lon="-0.9900031797587871551513671875">
        <ele>1196.4000244140625</ele>
        <time>2021-09-26T08:35:28.000Z</time>
      </trkpt>
      <trkpt lat="40.289053581655025482177734375" lon="-0.98998432047665119171142578125">
        <ele>1196.5999755859375</ele>
        <time>2021-09-26T08:35:30.000Z</time>
      </trkpt>
      <trkpt lat="40.2889897115528583526611328125" lon="-0.98996671847999095916748046875">
        <ele>1196.800048828125</ele>
        <time>2021-09-26T08:35:32.000Z</time>
      </trkpt>
      <trkpt lat="40.2889250032603740692138671875" lon="-0.98994777537882328033447265625">
        <ele>1197</ele>
        <time>2021-09-26T08:35:34.000Z</time>
      </trkpt>
      <trkpt lat="40.288857109844684600830078125" lon="-0.98992832936346530914306640625">
        <ele>1197.199951171875</ele>
        <time>2021-09-26T08:35:36.000Z</time>
      </trkpt>
      <trkpt lat="40.28879466466605663299560546875" lon="-0.98990888334810733795166015625">
        <ele>1197.5999755859375</ele>
        <time>2021-09-26T08:35:38.000Z</time>
      </trkpt>
      <trkpt lat="40.28872962109744548797607421875" lon="-0.98989429883658885955810546875">
        <ele>1197.800048828125</ele>
        <time>2021-09-26T08:35:40.000Z</time>
      </trkpt>
      <trkpt lat="40.28866776265203952789306640625" lon="-0.9898761101067066192626953125">
        <ele>1197.800048828125</ele>
        <time>2021-09-26T08:35:42.000Z</time>
      </trkpt>
      <trkpt lat="40.28863607905805110931396484375" lon="-0.98986663855612277984619140625">
        <ele>1198</ele>
        <time>2021-09-26T08:35:43.000Z</time>
      </trkpt>
      <trkpt lat="40.28860406018793582916259765625" lon="-0.98985892720520496368408203125">
        <ele>1198</ele>
        <time>2021-09-26T08:35:44.000Z</time>
      </trkpt>
      <trkpt lat="40.2885404415428638458251953125" lon="-0.9898372180759906768798828125">
        <ele>1198.199951171875</ele>
        <time>2021-09-26T08:35:46.000Z</time>
      </trkpt>
      <trkpt lat="40.2884785830974578857421875" lon="-0.9898214600980281829833984375">
        <ele>1198.5999755859375</ele>
        <time>2021-09-26T08:35:48.000Z</time>
      </trkpt>
      <trkpt lat="40.28841429390013217926025390625" lon="-0.98980176262557506561279296875">
        <ele>1199.199951171875</ele>
        <time>2021-09-26T08:35:50.000Z</time>
      </trkpt>
      <trkpt lat="40.28834975324571132659912109375" lon="-0.9897862561047077178955078125">
        <ele>1199.800048828125</ele>
        <time>2021-09-26T08:35:52.000Z</time>
      </trkpt>
      <trkpt lat="40.28828470967710018157958984375" lon="-0.989773683249950408935546875">
        <ele>1200.4000244140625</ele>
        <time>2021-09-26T08:35:54.000Z</time>
      </trkpt>
      <trkpt lat="40.28822519816458225250244140625" lon="-0.98975658416748046875">
        <ele>1201</ele>
        <time>2021-09-26T08:35:56.000Z</time>
      </trkpt>
      <trkpt lat="40.28816300444304943084716796875" lon="-0.9897406585514545440673828125">
        <ele>1201.5999755859375</ele>
        <time>2021-09-26T08:35:58.000Z</time>
      </trkpt>
      <trkpt lat="40.28810097835958003997802734375" lon="-0.9897228889167308807373046875">
        <ele>1202.199951171875</ele>
        <time>2021-09-26T08:36:00.000Z</time>
      </trkpt>
      <trkpt lat="40.28804398141801357269287109375" lon="-0.98970805294811725616455078125">
        <ele>1202.4000244140625</ele>
        <time>2021-09-26T08:36:02.000Z</time>
      </trkpt>
      <trkpt lat="40.2879823744297027587890625" lon="-0.98969296552240848541259765625">
        <ele>1202.5999755859375</ele>
        <time>2021-09-26T08:36:04.000Z</time>
      </trkpt>
      <trkpt lat="40.28792261146008968353271484375" lon="-0.98967553116381168365478515625">
        <ele>1202.5999755859375</ele>
        <time>2021-09-26T08:36:06.000Z</time>
      </trkpt>
      <trkpt lat="40.28789428062736988067626953125" lon="-0.98966765217483043670654296875">
        <ele>1202.5999755859375</ele>
        <time>2021-09-26T08:36:07.000Z</time>
      </trkpt>
      <trkpt lat="40.28786544688045978546142578125" lon="-0.9896605275571346282958984375">
        <ele>1202.800048828125</ele>
        <time>2021-09-26T08:36:08.000Z</time>
      </trkpt>
      <trkpt lat="40.2878055162727832794189453125" lon="-0.989644266664981842041015625">
        <ele>1202.800048828125</ele>
        <time>2021-09-26T08:36:10.000Z</time>
      </trkpt>
      <trkpt lat="40.28774508275091648101806640625" lon="-0.989629514515399932861328125">
        <ele>1202.800048828125</ele>
        <time>2021-09-26T08:36:12.000Z</time>
      </trkpt>
      <trkpt lat="40.2876831404864788055419921875" lon="-0.98961199633777141571044921875">
        <ele>1202.5999755859375</ele>
        <time>2021-09-26T08:36:14.000Z</time>
      </trkpt>
      <trkpt lat="40.2876204438507556915283203125" lon="-0.98959623835980892181396484375">
        <ele>1202.199951171875</ele>
        <time>2021-09-26T08:36:16.000Z</time>
      </trkpt>
      <trkpt lat="40.287557579576969146728515625" lon="-0.989576540887355804443359375">
        <ele>1201.800048828125</ele>
        <time>2021-09-26T08:36:18.000Z</time>
      </trkpt>
      <trkpt lat="40.287494547665119171142578125" lon="-0.98956011235713958740234375">
        <ele>1201.5999755859375</ele>
        <time>2021-09-26T08:36:20.000Z</time>
      </trkpt>
      <trkpt lat="40.28743294067680835723876953125" lon="-0.9895451925694942474365234375">
        <ele>1201.199951171875</ele>
        <time>2021-09-26T08:36:22.000Z</time>
      </trkpt>
      <trkpt lat="40.28740025125443935394287109375" lon="-0.9895388223230838775634765625">
        <ele>1201</ele>
        <time>2021-09-26T08:36:23.000Z</time>
      </trkpt>
      <trkpt lat="40.2873681485652923583984375" lon="-0.98952792584896087646484375">
        <ele>1200.800048828125</ele>
        <time>2021-09-26T08:36:24.000Z</time>
      </trkpt>
      <trkpt lat="40.287303440272808074951171875" lon="-0.989508815109729766845703125">
        <ele>1200.5999755859375</ele>
        <time>2021-09-26T08:36:26.000Z</time>
      </trkpt>
      <trkpt lat="40.28724065981805324554443359375" lon="-0.9894881956279277801513671875">
        <ele>1200.199951171875</ele>
        <time>2021-09-26T08:36:28.000Z</time>
      </trkpt>
      <trkpt lat="40.28717896901071071624755859375" lon="-0.989477634429931640625">
        <ele>1199.800048828125</ele>
        <time>2021-09-26T08:36:30.000Z</time>
      </trkpt>
      <trkpt lat="40.28714351356029510498046875" lon="-0.98947025835514068603515625">
        <ele>1199.800048828125</ele>
        <time>2021-09-26T08:36:31.000Z</time>
      </trkpt>
      <trkpt lat="40.28711132705211639404296875" lon="-0.98945952951908111572265625">
        <ele>1199.5999755859375</ele>
        <time>2021-09-26T08:36:32.000Z</time>
      </trkpt>
      <trkpt lat="40.28704452328383922576904296875" lon="-0.9894348867237567901611328125">
        <ele>1199.5999755859375</ele>
        <time>2021-09-26T08:36:34.000Z</time>
      </trkpt>
      <trkpt lat="40.28697931207716464996337890625" lon="-0.98941602744162082672119140625">
        <ele>1199.800048828125</ele>
        <time>2021-09-26T08:36:36.000Z</time>
      </trkpt>
      <trkpt lat="40.2869121730327606201171875" lon="-0.98939809016883373260498046875">
        <ele>1200</ele>
        <time>2021-09-26T08:36:38.000Z</time>
      </trkpt>
      <trkpt lat="40.286878310143947601318359375" lon="-0.98938803188502788543701171875">
        <ele>1200.199951171875</ele>
        <time>2021-09-26T08:36:39.000Z</time>
      </trkpt>
      <trkpt lat="40.28684486635029315948486328125" lon="-0.9893799014389514923095703125">
        <ele>1200.4000244140625</ele>
        <time>2021-09-26T08:36:40.000Z</time>
      </trkpt>
      <trkpt lat="40.28678284026682376861572265625" lon="-0.98936188034713268280029296875">
        <ele>1200.5999755859375</ele>
        <time>2021-09-26T08:36:42.000Z</time>
      </trkpt>
      <trkpt lat="40.28671762906014919281005859375" lon="-0.98934394307434558868408203125">
        <ele>1200.800048828125</ele>
        <time>2021-09-26T08:36:44.000Z</time>
      </trkpt>
      <trkpt lat="40.28665392659604549407958984375" lon="-0.98932701162993907928466796875">
        <ele>1200.800048828125</ele>
        <time>2021-09-26T08:36:46.000Z</time>
      </trkpt>
      <trkpt lat="40.2866216562688350677490234375" lon="-0.989316366612911224365234375">
        <ele>1201</ele>
        <time>2021-09-26T08:36:47.000Z</time>
      </trkpt>
      <trkpt lat="40.2865887992084026336669921875" lon="-0.98930572159588336944580078125">
        <ele>1201</ele>
        <time>2021-09-26T08:36:48.000Z</time>
      </trkpt>
      <trkpt lat="40.2865234203636646270751953125" lon="-0.98929080180823802947998046875">
        <ele>1201</ele>
        <time>2021-09-26T08:36:50.000Z</time>
      </trkpt>
      <trkpt lat="40.2864561975002288818359375" lon="-0.9892737865447998046875">
        <ele>1201.199951171875</ele>
        <time>2021-09-26T08:36:52.000Z</time>
      </trkpt>
      <trkpt lat="40.2863891422748565673828125" lon="-0.98925626836717128753662109375">
        <ele>1201.199951171875</ele>
        <time>2021-09-26T08:36:54.000Z</time>
      </trkpt>
      <trkpt lat="40.2863209135830402374267578125" lon="-0.9892367385327816009521484375">
        <ele>1201.5999755859375</ele>
        <time>2021-09-26T08:36:56.000Z</time>
      </trkpt>
      <trkpt lat="40.28625880368053913116455078125" lon="-0.9892203100025653839111328125">
        <ele>1202.199951171875</ele>
        <time>2021-09-26T08:36:58.000Z</time>
      </trkpt>
      <trkpt lat="40.28619543649256229400634765625" lon="-0.98920815624296665191650390625">
        <ele>1202.5999755859375</ele>
        <time>2021-09-26T08:37:00.000Z</time>
      </trkpt>
      <trkpt lat="40.286132656037807464599609375" lon="-0.98919256590306758880615234375">
        <ele>1203.199951171875</ele>
        <time>2021-09-26T08:37:02.000Z</time>
      </trkpt>
      <trkpt lat="40.286072976887226104736328125" lon="-0.9891723655164241790771484375">
        <ele>1203.4000244140625</ele>
        <time>2021-09-26T08:37:04.000Z</time>
      </trkpt>
      <trkpt lat="40.28601103462278842926025390625" lon="-0.989158451557159423828125">
        <ele>1203.5999755859375</ele>
        <time>2021-09-26T08:37:06.000Z</time>
      </trkpt>
      <trkpt lat="40.285946242511272430419921875" lon="-0.98913858644664287567138671875">
        <ele>1203.5999755859375</ele>
        <time>2021-09-26T08:37:08.000Z</time>
      </trkpt>
      <trkpt lat="40.2858803607523441314697265625" lon="-0.98911930806934833526611328125">
        <ele>1203.5999755859375</ele>
        <time>2021-09-26T08:37:10.000Z</time>
      </trkpt>
      <trkpt lat="40.28584775514900684356689453125" lon="-0.98911344073712825775146484375">
        <ele>1203.5999755859375</ele>
        <time>2021-09-26T08:37:11.000Z</time>
      </trkpt>
      <trkpt lat="40.2858163230121135711669921875" lon="-0.98910271190106868743896484375">
        <ele>1203.800048828125</ele>
        <time>2021-09-26T08:37:12.000Z</time>
      </trkpt>
      <trkpt lat="40.28574935160577297210693359375" lon="-0.98908427171409130096435546875">
        <ele>1203.800048828125</ele>
        <time>2021-09-26T08:37:14.000Z</time>
      </trkpt>
      <trkpt lat="40.28568162582814693450927734375" lon="-0.9890731237828731536865234375">
        <ele>1204</ele>
        <time>2021-09-26T08:37:16.000Z</time>
      </trkpt>
      <trkpt lat="40.28561943210661411285400390625" lon="-0.9890551865100860595703125">
        <ele>1204.4000244140625</ele>
        <time>2021-09-26T08:37:18.000Z</time>
      </trkpt>
      <trkpt lat="40.28555656783282756805419921875" lon="-0.98903850652277469635009765625">
        <ele>1204.5999755859375</ele>
        <time>2021-09-26T08:37:20.000Z</time>
      </trkpt>
      <trkpt lat="40.28549018315970897674560546875" lon="-0.9890248440206050872802734375">
        <ele>1205</ele>
        <time>2021-09-26T08:37:22.000Z</time>
      </trkpt>
      <trkpt lat="40.285424888134002685546875" lon="-0.98900564946234226226806640625">
        <ele>1205.4000244140625</ele>
        <time>2021-09-26T08:37:24.000Z</time>
      </trkpt>
      <trkpt lat="40.2853606827557086944580078125" lon="-0.98898955620825290679931640625">
        <ele>1205.800048828125</ele>
        <time>2021-09-26T08:37:26.000Z</time>
      </trkpt>
      <trkpt lat="40.28528834693133831024169921875" lon="-0.9889715351164340972900390625">
        <ele>1206.199951171875</ele>
        <time>2021-09-26T08:37:28.000Z</time>
      </trkpt>
      <trkpt lat="40.28521710075438022613525390625" lon="-0.98895401693880558013916015625">
        <ele>1206.199951171875</ele>
        <time>2021-09-26T08:37:30.000Z</time>
      </trkpt>
      <trkpt lat="40.28514987789094448089599609375" lon="-0.9889344871044158935546875">
        <ele>1206.4000244140625</ele>
        <time>2021-09-26T08:37:32.000Z</time>
      </trkpt>
      <trkpt lat="40.2851159311830997467041015625" lon="-0.9889209084212779998779296875">
        <ele>1206.4000244140625</ele>
        <time>2021-09-26T08:37:33.000Z</time>
      </trkpt>
      <trkpt lat="40.28508248738944530487060546875" lon="-0.98891378380358219146728515625">
        <ele>1206.4000244140625</ele>
        <time>2021-09-26T08:37:34.000Z</time>
      </trkpt>
      <trkpt lat="40.285012833774089813232421875" lon="-0.988893248140811920166015625">
        <ele>1206.4000244140625</ele>
        <time>2021-09-26T08:37:36.000Z</time>
      </trkpt>
      <trkpt lat="40.2849442698061466217041015625" lon="-0.98887489177286624908447265625">
        <ele>1206.5999755859375</ele>
        <time>2021-09-26T08:37:38.000Z</time>
      </trkpt>
      <trkpt lat="40.28487897478044033050537109375" lon="-0.98885829560458660125732421875">
        <ele>1206.4000244140625</ele>
        <time>2021-09-26T08:37:40.000Z</time>
      </trkpt>
      <trkpt lat="40.284815020859241485595703125" lon="-0.98883859813213348388671875">
        <ele>1206</ele>
        <time>2021-09-26T08:37:42.000Z</time>
      </trkpt>
      <trkpt lat="40.28474704362452030181884765625" lon="-0.98882392980158329010009765625">
        <ele>1205.199951171875</ele>
        <time>2021-09-26T08:37:44.000Z</time>
      </trkpt>
      <trkpt lat="40.2846807427704334259033203125" lon="-0.9888075850903987884521484375">
        <ele>1204.4000244140625</ele>
        <time>2021-09-26T08:37:46.000Z</time>
      </trkpt>
      <trkpt lat="40.2846156992018222808837890625" lon="-0.9887918271124362945556640625">
        <ele>1204</ele>
        <time>2021-09-26T08:37:48.000Z</time>
      </trkpt>
      <trkpt lat="40.28454990126192569732666015625" lon="-0.9887743927538394927978515625">
        <ele>1204</ele>
        <time>2021-09-26T08:37:50.000Z</time>
      </trkpt>
      <trkpt lat="40.2844866178929805755615234375" lon="-0.988755114376544952392578125">
        <ele>1204</ele>
        <time>2021-09-26T08:37:52.000Z</time>
      </trkpt>
      <trkpt lat="40.28441746719181537628173828125" lon="-0.98873675800859928131103515625">
        <ele>1204</ele>
        <time>2021-09-26T08:37:54.000Z</time>
      </trkpt>
      <trkpt lat="40.28435091488063335418701171875" lon="-0.98871387541294097900390625">
        <ele>1203.800048828125</ele>
        <time>2021-09-26T08:37:56.000Z</time>
      </trkpt>
      <trkpt lat="40.28431780636310577392578125" lon="-0.988704822957515716552734375">
        <ele>1203.800048828125</ele>
        <time>2021-09-26T08:37:57.000Z</time>
      </trkpt>
      <trkpt lat="40.28428402729332447052001953125" lon="-0.9886962734162807464599609375">
        <ele>1203.800048828125</ele>
        <time>2021-09-26T08:37:58.000Z</time>
      </trkpt>
      <trkpt lat="40.28421378694474697113037109375" lon="-0.9886774979531764984130859375">
        <ele>1203.800048828125</ele>
        <time>2021-09-26T08:38:00.000Z</time>
      </trkpt>
      <trkpt lat="40.28414547443389892578125" lon="-0.98865578882396221160888671875">
        <ele>1204</ele>
        <time>2021-09-26T08:38:02.000Z</time>
      </trkpt>
      <trkpt lat="40.284080095589160919189453125" lon="-0.98864422179758548736572265625">
        <ele>1204.199951171875</ele>
        <time>2021-09-26T08:38:04.000Z</time>
      </trkpt>
      <trkpt lat="40.28401580639183521270751953125" lon="-0.9886218421161174774169921875">
        <ele>1203.800048828125</ele>
        <time>2021-09-26T08:38:06.000Z</time>
      </trkpt>
      <trkpt lat="40.2839562110602855682373046875" lon="-0.98860231228172779083251953125">
        <ele>1203.4000244140625</ele>
        <time>2021-09-26T08:38:08.000Z</time>
      </trkpt>
      <trkpt lat="40.28388806618750095367431640625" lon="-0.9885873086750507354736328125">
        <ele>1203.4000244140625</ele>
        <time>2021-09-26T08:38:10.000Z</time>
      </trkpt>
      <trkpt lat="40.28382151387631893157958984375" lon="-0.988566689193248748779296875">
        <ele>1203.199951171875</ele>
        <time>2021-09-26T08:38:12.000Z</time>
      </trkpt>
      <trkpt lat="40.28375311754643917083740234375" lon="-0.9885474108159542083740234375">
        <ele>1203.4000244140625</ele>
        <time>2021-09-26T08:38:14.000Z</time>
      </trkpt>
      <trkpt lat="40.28368706814944744110107421875" lon="-0.98852788098156452178955078125">
        <ele>1203.5999755859375</ele>
        <time>2021-09-26T08:38:16.000Z</time>
      </trkpt>
      <trkpt lat="40.2836184203624725341796875" lon="-0.98850793205201625823974609375">
        <ele>1203.800048828125</ele>
        <time>2021-09-26T08:38:18.000Z</time>
      </trkpt>
      <trkpt lat="40.28355329297482967376708984375" lon="-0.9884884022176265716552734375">
        <ele>1203.800048828125</ele>
        <time>2021-09-26T08:38:20.000Z</time>
      </trkpt>
      <trkpt lat="40.2834848128259181976318359375" lon="-0.98847004584968090057373046875">
        <ele>1205</ele>
        <time>2021-09-26T08:38:22.000Z</time>
      </trkpt>
      <trkpt lat="40.28345053084194660186767578125" lon="-0.98846116103231906890869140625">
        <ele>1205.5999755859375</ele>
        <time>2021-09-26T08:38:23.000Z</time>
      </trkpt>
      <trkpt lat="40.28341658413410186767578125" lon="-0.9884525276720523834228515625">
        <ele>1206.199951171875</ele>
        <time>2021-09-26T08:38:24.000Z</time>
      </trkpt>
      <trkpt lat="40.28334894217550754547119140625" lon="-0.98843735642731189727783203125">
        <ele>1207.199951171875</ele>
        <time>2021-09-26T08:38:26.000Z</time>
      </trkpt>
      <trkpt lat="40.28328557498753070831298828125" lon="-0.98841891624033451080322265625">
        <ele>1208.199951171875</ele>
        <time>2021-09-26T08:38:28.000Z</time>
      </trkpt>
      <trkpt lat="40.283220447599887847900390625" lon="-0.9884035773575305938720703125">
        <ele>1208.800048828125</ele>
        <time>2021-09-26T08:38:30.000Z</time>
      </trkpt>
      <trkpt lat="40.28315548785030841827392578125" lon="-0.98838589154183864593505859375">
        <ele>1209.4000244140625</ele>
        <time>2021-09-26T08:38:32.000Z</time>
      </trkpt>
      <trkpt lat="40.2830911986529827117919921875" lon="-0.98837055265903472900390625">
        <ele>1210</ele>
        <time>2021-09-26T08:38:34.000Z</time>
      </trkpt>
      <trkpt lat="40.28305850923061370849609375" lon="-0.98836543969810009002685546875">
        <ele>1210.199951171875</ele>
        <time>2021-09-26T08:38:35.000Z</time>
      </trkpt>
      <trkpt lat="40.2830258198082447052001953125" lon="-0.98835739307105541229248046875">
        <ele>1210.5999755859375</ele>
        <time>2021-09-26T08:38:36.000Z</time>
      </trkpt>
      <trkpt lat="40.2829601056873798370361328125" lon="-0.988337360322475433349609375">
        <ele>1211</ele>
        <time>2021-09-26T08:38:38.000Z</time>
      </trkpt>
      <trkpt lat="40.28289430774748325347900390625" lon="-0.9883200936019420623779296875">
        <ele>1211.4000244140625</ele>
        <time>2021-09-26T08:38:40.000Z</time>
      </trkpt>
      <trkpt lat="40.28282993473112583160400390625" lon="-0.9883036650717258453369140625">
        <ele>1211.800048828125</ele>
        <time>2021-09-26T08:38:42.000Z</time>
      </trkpt>
      <trkpt lat="40.2827643044292926788330078125" lon="-0.9882899187505245208740234375">
        <ele>1212.199951171875</ele>
        <time>2021-09-26T08:38:44.000Z</time>
      </trkpt>
      <trkpt lat="40.2827324531972408294677734375" lon="-0.9882838837802410125732421875">
        <ele>1212.199951171875</ele>
        <time>2021-09-26T08:38:45.000Z</time>
      </trkpt>
      <trkpt lat="40.28270043432712554931640625" lon="-0.9882768429815769195556640625">
        <ele>1212.4000244140625</ele>
        <time>2021-09-26T08:38:46.000Z</time>
      </trkpt>
      <trkpt lat="40.2826379053294658660888671875" lon="-0.98826150409877300262451171875">
        <ele>1212.800048828125</ele>
        <time>2021-09-26T08:38:48.000Z</time>
      </trkpt>
      <trkpt lat="40.28257512487471103668212890625" lon="-0.98824474029242992401123046875">
        <ele>1213.199951171875</ele>
        <time>2021-09-26T08:38:50.000Z</time>
      </trkpt>
      <trkpt lat="40.28251242823898792266845703125" lon="-0.98822797648608684539794921875">
        <ele>1213.4000244140625</ele>
        <time>2021-09-26T08:38:52.000Z</time>
      </trkpt>
      <trkpt lat="40.28244855813682079315185546875" lon="-0.98821003921329975128173828125">
        <ele>1213.800048828125</ele>
        <time>2021-09-26T08:38:54.000Z</time>
      </trkpt>
      <trkpt lat="40.28238669969141483306884765625" lon="-0.9881940297782421112060546875">
        <ele>1214.199951171875</ele>
        <time>2021-09-26T08:38:56.000Z</time>
      </trkpt>
      <trkpt lat="40.2823301218450069427490234375" lon="-0.98817332647740840911865234375">
        <ele>1214.5999755859375</ele>
        <time>2021-09-26T08:38:58.000Z</time>
      </trkpt>
      <trkpt lat="40.28226583264768123626708984375" lon="-0.9881554730236530303955078125">
        <ele>1214.800048828125</ele>
        <time>2021-09-26T08:39:00.000Z</time>
      </trkpt>
      <trkpt lat="40.2821986936032772064208984375" lon="-0.9881346859037876129150390625">
        <ele>1215.4000244140625</ele>
        <time>2021-09-26T08:39:02.000Z</time>
      </trkpt>
      <trkpt lat="40.2821297943592071533203125" lon="-0.988116078078746795654296875">
        <ele>1215.800048828125</ele>
        <time>2021-09-26T08:39:04.000Z</time>
      </trkpt>
      <trkpt lat="40.28206382878124713897705078125" lon="-0.98809738643467426300048828125">
        <ele>1216</ele>
        <time>2021-09-26T08:39:06.000Z</time>
      </trkpt>
      <trkpt lat="40.2820337377488613128662109375" lon="-0.98808347247540950775146484375">
        <ele>1216.199951171875</ele>
        <time>2021-09-26T08:39:07.000Z</time>
      </trkpt>
      <trkpt lat="40.28199928812682628631591796875" lon="-0.98807274363934993743896484375">
        <ele>1216.199951171875</ele>
        <time>2021-09-26T08:39:08.000Z</time>
      </trkpt>
      <trkpt lat="40.28193491511046886444091796875" lon="-0.9880558960139751434326171875">
        <ele>1216.4000244140625</ele>
        <time>2021-09-26T08:39:10.000Z</time>
      </trkpt>
      <trkpt lat="40.28187205083668231964111328125" lon="-0.98804491572082042694091796875">
        <ele>1216.5999755859375</ele>
        <time>2021-09-26T08:39:12.000Z</time>
      </trkpt>
      <trkpt lat="40.28183952905237674713134765625" lon="-0.9880361147224903106689453125">
        <ele>1216.5999755859375</ele>
        <time>2021-09-26T08:39:13.000Z</time>
      </trkpt>
      <trkpt lat="40.28180885128676891326904296875" lon="-0.98802664317190647125244140625">
        <ele>1216.800048828125</ele>
        <time>2021-09-26T08:39:14.000Z</time>
      </trkpt>
      <trkpt lat="40.281744897365570068359375" lon="-0.98800845444202423095703125">
        <ele>1216.800048828125</ele>
        <time>2021-09-26T08:39:16.000Z</time>
      </trkpt>
      <trkpt lat="40.28167976997792720794677734375" lon="-0.9879918582737445831298828125">
        <ele>1216.5999755859375</ele>
        <time>2021-09-26T08:39:18.000Z</time>
      </trkpt>
      <trkpt lat="40.2816186659038066864013671875" lon="-0.98797869868576526641845703125">
        <ele>1216.5999755859375</ele>
        <time>2021-09-26T08:39:20.000Z</time>
      </trkpt>
      <trkpt lat="40.281586982309818267822265625" lon="-0.9879727475345134735107421875">
        <ele>1216.5999755859375</ele>
        <time>2021-09-26T08:39:21.000Z</time>
      </trkpt>
      <trkpt lat="40.28155538253486156463623046875" lon="-0.98796444945037364959716796875">
        <ele>1216.800048828125</ele>
        <time>2021-09-26T08:39:22.000Z</time>
      </trkpt>
      <trkpt lat="40.28149285353720188140869140625" lon="-0.98794785328209400177001953125">
        <ele>1216.800048828125</ele>
        <time>2021-09-26T08:39:24.000Z</time>
      </trkpt>
      <trkpt lat="40.2814309112727642059326171875" lon="-0.98793025128543376922607421875">
        <ele>1217</ele>
        <time>2021-09-26T08:39:26.000Z</time>
      </trkpt>
      <trkpt lat="40.2813707292079925537109375" lon="-0.987911559641361236572265625">
        <ele>1217</ele>
        <time>2021-09-26T08:39:28.000Z</time>
      </trkpt>
      <trkpt lat="40.281308703124523162841796875" lon="-0.98789504729211330413818359375">
        <ele>1217</ele>
        <time>2021-09-26T08:39:30.000Z</time>
      </trkpt>
      <trkpt lat="40.28124743141233921051025390625" lon="-0.98788163624703884124755859375">
        <ele>1216.800048828125</ele>
        <time>2021-09-26T08:39:32.000Z</time>
      </trkpt>
      <trkpt lat="40.28118523769080638885498046875" lon="-0.9878691472113132476806640625">
        <ele>1216.4000244140625</ele>
        <time>2021-09-26T08:39:34.000Z</time>
      </trkpt>
      <trkpt lat="40.28112069703638553619384765625" lon="-0.9878554008901119232177734375">
        <ele>1216.199951171875</ele>
        <time>2021-09-26T08:39:36.000Z</time>
      </trkpt>
      <trkpt lat="40.2810617722570896148681640625" lon="-0.98784215748310089111328125">
        <ele>1216</ele>
        <time>2021-09-26T08:39:38.000Z</time>
      </trkpt>
      <trkpt lat="40.28099731542170047760009765625" lon="-0.9878218732774257659912109375">
        <ele>1215.4000244140625</ele>
        <time>2021-09-26T08:39:40.000Z</time>
      </trkpt>
      <trkpt lat="40.28092925436794757843017578125" lon="-0.987802259624004364013671875">
        <ele>1214.5999755859375</ele>
        <time>2021-09-26T08:39:42.000Z</time>
      </trkpt>
      <trkpt lat="40.2808686532080173492431640625" lon="-0.98777904175221920013427734375">
        <ele>1214.199951171875</ele>
        <time>2021-09-26T08:39:44.000Z</time>
      </trkpt>
      <trkpt lat="40.280811488628387451171875" lon="-0.9877702407538890838623046875">
        <ele>1213.800048828125</ele>
        <time>2021-09-26T08:39:46.000Z</time>
      </trkpt>
      <trkpt lat="40.280756168067455291748046875" lon="-0.987764708697795867919921875">
        <ele>1213.4000244140625</ele>
        <time>2021-09-26T08:39:48.000Z</time>
      </trkpt>
      <trkpt lat="40.2807258255779743194580078125" lon="-0.98775691352784633636474609375">
        <ele>1213.4000244140625</ele>
        <time>2021-09-26T08:39:49.000Z</time>
      </trkpt>
      <trkpt lat="40.2806959860026836395263671875" lon="-0.98774752579629421234130859375">
        <ele>1213.4000244140625</ele>
        <time>2021-09-26T08:39:50.000Z</time>
      </trkpt>
      <trkpt lat="40.28064141981303691864013671875" lon="-0.98772657103836536407470703125">
        <ele>1213.199951171875</ele>
        <time>2021-09-26T08:39:52.000Z</time>
      </trkpt>
      <trkpt lat="40.28058417141437530517578125" lon="-0.98770712502300739288330078125">
        <ele>1213</ele>
        <time>2021-09-26T08:39:54.000Z</time>
      </trkpt>
      <trkpt lat="40.28054301626980304718017578125" lon="-0.98769471980631351470947265625">
        <ele>1213</ele>
        <time>2021-09-26T08:39:56.000Z</time>
      </trkpt>
      <trkpt lat="40.280514769256114959716796875" lon="-0.9876834042370319366455078125">
        <ele>1212.800048828125</ele>
        <time>2021-09-26T08:39:58.000Z</time>
      </trkpt>
      <trkpt lat="40.2805025316774845123291015625" lon="-0.98768650554120540618896484375">
        <ele>1212.800048828125</ele>
        <time>2021-09-26T08:39:59.000Z</time>
      </trkpt>
      <trkpt lat="40.28048903681337833404541015625" lon="-0.98768432624638080596923828125">
        <ele>1212.800048828125</ele>
        <time>2021-09-26T08:40:00.000Z</time>
      </trkpt>
      <trkpt lat="40.28046875260770320892333984375" lon="-0.98766957409679889678955078125">
        <ele>1213</ele>
        <time>2021-09-26T08:40:02.000Z</time>
      </trkpt>
      <trkpt lat="40.28045785613358020782470703125" lon="-0.98764560185372829437255859375">
        <ele>1213.199951171875</ele>
        <time>2021-09-26T08:40:04.000Z</time>
      </trkpt>
      <trkpt lat="40.28043606318533420562744140625" lon="-0.987640656530857086181640625">
        <ele>1213.4000244140625</ele>
        <time>2021-09-26T08:40:06.000Z</time>
      </trkpt>
      <trkpt lat="40.2804234065115451812744140625" lon="-0.98766119219362735748291015625">
        <ele>1213.4000244140625</ele>
        <time>2021-09-26T08:40:08.000Z</time>
      </trkpt>
      <trkpt lat="40.2804234065115451812744140625" lon="-0.98766119219362735748291015625">
        <ele>1213.4000244140625</ele>
        <time>2021-09-26T08:40:09.000Z</time>
      </trkpt>
      <trkpt lat="40.28039666824042797088623046875" lon="-0.9877461008727550506591796875">
        <ele>1213</ele>
        <time>2021-09-26T08:40:52.000Z</time>
      </trkpt>
      <trkpt lat="40.28039197437465190887451171875" lon="-0.98778574727475643157958984375">
        <ele>1212.800048828125</ele>
        <time>2021-09-26T08:40:53.000Z</time>
      </trkpt>
      <trkpt lat="40.28038644231855869293212890625" lon="-0.9878289140760898590087890625">
        <ele>1212.5999755859375</ele>
        <time>2021-09-26T08:40:54.000Z</time>
      </trkpt>
      <trkpt lat="40.28037738986313343048095703125" lon="-0.98791935481131076812744140625">
        <ele>1212.4000244140625</ele>
        <time>2021-09-26T08:40:56.000Z</time>
      </trkpt>
      <trkpt lat="40.28037940151989459991455078125" lon="-0.9879670478403568267822265625">
        <ele>1212</ele>
        <time>2021-09-26T08:40:57.000Z</time>
      </trkpt>
      <trkpt lat="40.28038166463375091552734375" lon="-0.9880237095057964324951171875">
        <ele>1211.5999755859375</ele>
        <time>2021-09-26T08:40:58.000Z</time>
      </trkpt>
      <trkpt lat="40.2803855203092098236083984375" lon="-0.988087914884090423583984375">
        <ele>1211.199951171875</ele>
        <time>2021-09-26T08:40:59.000Z</time>
      </trkpt>
      <trkpt lat="40.2803939022123813629150390625" lon="-0.988161675631999969482421875">
        <ele>1210.5999755859375</ele>
        <time>2021-09-26T08:41:00.000Z</time>
      </trkpt>
      <trkpt lat="40.28042701072990894317626953125" lon="-0.988327302038669586181640625">
        <ele>1209.5999755859375</ele>
        <time>2021-09-26T08:41:02.000Z</time>
      </trkpt>
      <trkpt lat="40.28047696687281131744384765625" lon="-0.98849183879792690277099609375">
        <ele>1209</ele>
        <time>2021-09-26T08:41:04.000Z</time>
      </trkpt>
      <trkpt lat="40.28052516281604766845703125" lon="-0.988628380000591278076171875">
        <ele>1209.199951171875</ele>
        <time>2021-09-26T08:41:06.000Z</time>
      </trkpt>
      <trkpt lat="40.2805367298424243927001953125" lon="-0.98868126980960369110107421875">
        <ele>1209.4000244140625</ele>
        <time>2021-09-26T08:41:07.000Z</time>
      </trkpt>
      <trkpt lat="40.280549637973308563232421875" lon="-0.9887261129915714263916015625">
        <ele>1209.4000244140625</ele>
        <time>2021-09-26T08:41:08.000Z</time>
      </trkpt>
      <trkpt lat="40.2805561758577823638916015625" lon="-0.98875670693814754486083984375">
        <ele>1209.4000244140625</ele>
        <time>2021-09-26T08:41:09.000Z</time>
      </trkpt>
      <trkpt lat="40.2805454470217227935791015625" lon="-0.9887842833995819091796875">
        <ele>1209.5999755859375</ele>
        <time>2021-09-26T08:41:10.000Z</time>
      </trkpt>
      <trkpt lat="40.28053161688148975372314453125" lon="-0.988813452422618865966796875">
        <ele>1209.5999755859375</ele>
        <time>2021-09-26T08:41:12.000Z</time>
      </trkpt>
      <trkpt lat="40.28053161688148975372314453125" lon="-0.988813452422618865966796875">
        <ele>1209.5999755859375</ele>
        <time>2021-09-26T08:41:13.000Z</time>
      </trkpt>
      <trkpt lat="40.280510745942592620849609375" lon="-0.98884069360792636871337890625">
        <ele>1209.4000244140625</ele>
        <time>2021-09-26T08:41:20.000Z</time>
      </trkpt>
      <trkpt lat="40.28050345368683338165283203125" lon="-0.98885963670909404754638671875">
        <ele>1209.4000244140625</ele>
        <time>2021-09-26T08:41:22.000Z</time>
      </trkpt>
      <trkpt lat="40.2804857678711414337158203125" lon="-0.98890188150107860565185546875">
        <ele>1209.5999755859375</ele>
        <time>2021-09-26T08:41:42.000Z</time>
      </trkpt>
      <trkpt lat="40.280474536120891571044921875" lon="-0.98892769776284694671630859375">
        <ele>1209.5999755859375</ele>
        <time>2021-09-26T08:41:43.000Z</time>
      </trkpt>
      <trkpt lat="40.2804653160274028778076171875" lon="-0.988959632813930511474609375">
        <ele>1209.5999755859375</ele>
        <time>2021-09-26T08:41:44.000Z</time>
      </trkpt>
      <trkpt lat="40.28045517392456531524658203125" lon="-0.98902978934347629547119140625">
        <ele>1209.800048828125</ele>
        <time>2021-09-26T08:41:46.000Z</time>
      </trkpt>
      <trkpt lat="40.28021193109452724456787109375" lon="-0.98948643542826175689697265625">
        <ele>1207.4000244140625</ele>
        <time>2021-09-26T08:42:03.000Z</time>
      </trkpt>
      <trkpt lat="40.28013062663376331329345703125" lon="-0.98955877125263214111328125">
        <ele>1207.4000244140625</ele>
        <time>2021-09-26T08:42:05.000Z</time>
      </trkpt>
      <trkpt lat="40.2800886332988739013671875" lon="-0.9895579330623149871826171875">
        <ele>1207.5999755859375</ele>
        <time>2021-09-26T08:42:07.000Z</time>
      </trkpt>
      <trkpt lat="40.280045382678508758544921875" lon="-0.98954577930271625518798828125">
        <ele>1207.800048828125</ele>
        <time>2021-09-26T08:42:09.000Z</time>
      </trkpt>
      <trkpt lat="40.2800116874277591705322265625" lon="-0.98951962776482105255126953125">
        <ele>1208</ele>
        <time>2021-09-26T08:42:11.000Z</time>
      </trkpt>
      <trkpt lat="40.2799801714718341827392578125" lon="-0.98949599079787731170654296875">
        <ele>1208.199951171875</ele>
        <time>2021-09-26T08:42:13.000Z</time>
      </trkpt>
      <trkpt lat="40.279964916408061981201171875" lon="-0.9894821606576442718505859375">
        <ele>1208.199951171875</ele>
        <time>2021-09-26T08:42:14.000Z</time>
      </trkpt>
      <trkpt lat="40.2799469791352748870849609375" lon="-0.9894640557467937469482421875">
        <ele>1208.4000244140625</ele>
        <time>2021-09-26T08:42:15.000Z</time>
      </trkpt>
      <trkpt lat="40.2799097634851932525634765625" lon="-0.9894204698503017425537109375">
        <ele>1208.5999755859375</ele>
        <time>2021-09-26T08:42:17.000Z</time>
      </trkpt>
      <trkpt lat="40.2798722125589847564697265625" lon="-0.9893718548119068145751953125">
        <ele>1209</ele>
        <time>2021-09-26T08:42:19.000Z</time>
      </trkpt>
      <trkpt lat="40.27983994223177433013916015625" lon="-0.989331789314746856689453125">
        <ele>1209.5999755859375</ele>
        <time>2021-09-26T08:42:21.000Z</time>
      </trkpt>
      <trkpt lat="40.27979870326817035675048828125" lon="-0.9892930649220943450927734375">
        <ele>1210</ele>
        <time>2021-09-26T08:42:23.000Z</time>
      </trkpt>
      <trkpt lat="40.27975536882877349853515625" lon="-0.98925811238586902618408203125">
        <ele>1210.4000244140625</ele>
        <time>2021-09-26T08:42:25.000Z</time>
      </trkpt>
      <trkpt lat="40.27973466552793979644775390625" lon="-0.98924227058887481689453125">
        <ele>1210.5999755859375</ele>
        <time>2021-09-26T08:42:26.000Z</time>
      </trkpt>
      <trkpt lat="40.27971337549388408660888671875" lon="-0.9892263449728488922119140625">
        <ele>1210.800048828125</ele>
        <time>2021-09-26T08:42:27.000Z</time>
      </trkpt>
      <trkpt lat="40.279671885073184967041015625" lon="-0.98919910378754138946533203125">
        <ele>1211</ele>
        <time>2021-09-26T08:42:29.000Z</time>
      </trkpt>
      <trkpt lat="40.27962905354797840118408203125" lon="-0.98917278461158275604248046875">
        <ele>1211.199951171875</ele>
        <time>2021-09-26T08:42:31.000Z</time>
      </trkpt>
      <trkpt lat="40.27958278544247150421142578125" lon="-0.98914571106433868408203125">
        <ele>1211.199951171875</ele>
        <time>2021-09-26T08:42:33.000Z</time>
      </trkpt>
      <trkpt lat="40.27955730445683002471923828125" lon="-0.98913422785699367523193359375">
        <ele>1211.4000244140625</ele>
        <time>2021-09-26T08:42:34.000Z</time>
      </trkpt>
      <trkpt lat="40.2795305661857128143310546875" lon="-0.9891210682690143585205078125">
        <ele>1211.5999755859375</ele>
        <time>2021-09-26T08:42:35.000Z</time>
      </trkpt>
      <trkpt lat="40.27948002330958843231201171875" lon="-0.98909449763596057891845703125">
        <ele>1212</ele>
        <time>2021-09-26T08:42:37.000Z</time>
      </trkpt>
      <trkpt lat="40.27942889370024204254150390625" lon="-0.98906968720257282257080078125">
        <ele>1212.5999755859375</ele>
        <time>2021-09-26T08:42:39.000Z</time>
      </trkpt>
      <trkpt lat="40.27937944047152996063232421875" lon="-0.98905049264430999755859375">
        <ele>1213</ele>
        <time>2021-09-26T08:42:41.000Z</time>
      </trkpt>
      <trkpt lat="40.27933317236602306365966796875" lon="-0.98903649486601352691650390625">
        <ele>1213.199951171875</ele>
        <time>2021-09-26T08:42:43.000Z</time>
      </trkpt>
      <trkpt lat="40.27928774245083332061767578125" lon="-0.98902459256350994110107421875">
        <ele>1213.5999755859375</ele>
        <time>2021-09-26T08:42:45.000Z</time>
      </trkpt>
      <trkpt lat="40.2792368642985820770263671875" lon="-0.98901160061359405517578125">
        <ele>1214</ele>
        <time>2021-09-26T08:42:47.000Z</time>
      </trkpt>
      <trkpt lat="40.27918514795601367950439453125" lon="-0.9890017099678516387939453125">
        <ele>1214.4000244140625</ele>
        <time>2021-09-26T08:42:49.000Z</time>
      </trkpt>
      <trkpt lat="40.2791329286992549896240234375" lon="-0.98898134194314479827880859375">
        <ele>1214.800048828125</ele>
        <time>2021-09-26T08:42:51.000Z</time>
      </trkpt>
      <trkpt lat="40.27907668612897396087646484375" lon="-0.98897379823029041290283203125">
        <ele>1215.199951171875</ele>
        <time>2021-09-26T08:42:53.000Z</time>
      </trkpt>
      <trkpt lat="40.2790232934057712554931640625" lon="-0.98896189592778682708740234375">
        <ele>1215.5999755859375</ele>
        <time>2021-09-26T08:42:55.000Z</time>
      </trkpt>
      <trkpt lat="40.2789719961583614349365234375" lon="-0.988951586186885833740234375">
        <ele>1216</ele>
        <time>2021-09-26T08:42:57.000Z</time>
      </trkpt>
      <trkpt lat="40.2789218723773956298828125" lon="-0.98895259201526641845703125">
        <ele>1216.4000244140625</ele>
        <time>2021-09-26T08:42:59.000Z</time>
      </trkpt>
      <trkpt lat="40.27889731340110301971435546875" lon="-0.988952256739139556884765625">
        <ele>1216.4000244140625</ele>
        <time>2021-09-26T08:43:00.000Z</time>
      </trkpt>
      <trkpt lat="40.27887132950127124786376953125" lon="-0.9889473952353000640869140625">
        <ele>1216.5999755859375</ele>
        <time>2021-09-26T08:43:01.000Z</time>
      </trkpt>
      <trkpt lat="40.2788227982819080352783203125" lon="-0.98893809132277965545654296875">
        <ele>1217</ele>
        <time>2021-09-26T08:43:03.000Z</time>
      </trkpt>
      <trkpt lat="40.27877292595803737640380859375" lon="-0.98893406800925731658935546875">
        <ele>1217.199951171875</ele>
        <time>2021-09-26T08:43:05.000Z</time>
      </trkpt>
      <trkpt lat="40.27872565202414989471435546875" lon="-0.98893004469573497772216796875">
        <ele>1217.4000244140625</ele>
        <time>2021-09-26T08:43:07.000Z</time>
      </trkpt>
      <trkpt lat="40.27867971919476985931396484375" lon="-0.98892468027770519256591796875">
        <ele>1217.5999755859375</ele>
        <time>2021-09-26T08:43:09.000Z</time>
      </trkpt>
      <trkpt lat="40.2786320261657238006591796875" lon="-0.988930799067020416259765625">
        <ele>1217.800048828125</ele>
        <time>2021-09-26T08:43:11.000Z</time>
      </trkpt>
      <trkpt lat="40.2785847522318363189697265625" lon="-0.98892551846802234649658203125">
        <ele>1217.800048828125</ele>
        <time>2021-09-26T08:43:13.000Z</time>
      </trkpt>
      <trkpt lat="40.27853270061314105987548828125" lon="-0.9889309667050838470458984375">
        <ele>1218</ele>
        <time>2021-09-26T08:43:15.000Z</time>
      </trkpt>
      <trkpt lat="40.27848307974636554718017578125" lon="-0.988928787410259246826171875">
        <ele>1218.199951171875</ele>
        <time>2021-09-26T08:43:17.000Z</time>
      </trkpt>
      <trkpt lat="40.2784288488328456878662109375" lon="-0.9889370016753673553466796875">
        <ele>1218.4000244140625</ele>
        <time>2021-09-26T08:43:19.000Z</time>
      </trkpt>
      <trkpt lat="40.27839951217174530029296875" lon="-0.98893976770341396331787109375">
        <ele>1218.5999755859375</ele>
        <time>2021-09-26T08:43:20.000Z</time>
      </trkpt>
      <trkpt lat="40.27836808003485202789306640625" lon="-0.98894462920725345611572265625">
        <ele>1218.5999755859375</ele>
        <time>2021-09-26T08:43:21.000Z</time>
      </trkpt>
      <trkpt lat="40.2783049643039703369140625" lon="-0.98895753733813762664794921875">
        <ele>1218.800048828125</ele>
        <time>2021-09-26T08:43:23.000Z</time>
      </trkpt>
      <trkpt lat="40.2782447822391986846923828125" lon="-0.9889624826610088348388671875">
        <ele>1219</ele>
        <time>2021-09-26T08:43:25.000Z</time>
      </trkpt>
      <trkpt lat="40.27818485163152217864990234375" lon="-0.98896390758454799652099609375">
        <ele>1219.4000244140625</ele>
        <time>2021-09-26T08:43:27.000Z</time>
      </trkpt>
      <trkpt lat="40.27815585024654865264892578125" lon="-0.98896332085132598876953125">
        <ele>1219.4000244140625</ele>
        <time>2021-09-26T08:43:28.000Z</time>
      </trkpt>
      <trkpt lat="40.27812835760414600372314453125" lon="-0.988962985575199127197265625">
        <ele>1219.5999755859375</ele>
        <time>2021-09-26T08:43:29.000Z</time>
      </trkpt>
      <trkpt lat="40.2780684269964694976806640625" lon="-0.98896055482327938079833984375">
        <ele>1219.800048828125</ele>
        <time>2021-09-26T08:43:31.000Z</time>
      </trkpt>
      <trkpt lat="40.2780070714652538299560546875" lon="-0.98895653150975704193115234375">
        <ele>1220.199951171875</ele>
        <time>2021-09-26T08:43:33.000Z</time>
      </trkpt>
      <trkpt lat="40.27794982306659221649169921875" lon="-0.988952256739139556884765625">
        <ele>1220.4000244140625</ele>
        <time>2021-09-26T08:43:35.000Z</time>
      </trkpt>
      <trkpt lat="40.27788444422185420989990234375" lon="-0.988944880664348602294921875">
        <ele>1220.5999755859375</ele>
        <time>2021-09-26T08:43:37.000Z</time>
      </trkpt>
      <trkpt lat="40.2778149582445621490478515625" lon="-0.98893792368471622467041015625">
        <ele>1221</ele>
        <time>2021-09-26T08:43:39.000Z</time>
      </trkpt>
      <trkpt lat="40.27774865739047527313232421875" lon="-0.98892753012478351593017578125">
        <ele>1221</ele>
        <time>2021-09-26T08:43:41.000Z</time>
      </trkpt>
      <trkpt lat="40.277718566358089447021484375" lon="-0.9889212436974048614501953125">
        <ele>1221</ele>
        <time>2021-09-26T08:43:42.000Z</time>
      </trkpt>
      <trkpt lat="40.2776882238686084747314453125" lon="-0.9889121912419795989990234375">
        <ele>1221</ele>
        <time>2021-09-26T08:43:43.000Z</time>
      </trkpt>
      <trkpt lat="40.27763214893639087677001953125" lon="-0.98888813517987728118896484375">
        <ele>1221</ele>
        <time>2021-09-26T08:43:45.000Z</time>
      </trkpt>
      <trkpt lat="40.2775829471647739410400390625" lon="-0.98886332474648952484130859375">
        <ele>1221</ele>
        <time>2021-09-26T08:43:47.000Z</time>
      </trkpt>
      <trkpt lat="40.27753139846026897430419921875" lon="-0.9888367541134357452392578125">
        <ele>1221</ele>
        <time>2021-09-26T08:43:49.000Z</time>
      </trkpt>
      <trkpt lat="40.277479179203510284423828125" lon="-0.98880448378622531890869140625">
        <ele>1221</ele>
        <time>2021-09-26T08:43:51.000Z</time>
      </trkpt>
      <trkpt lat="40.277426205575466156005859375" lon="-0.98876995034515857696533203125">
        <ele>1221</ele>
        <time>2021-09-26T08:43:53.000Z</time>
      </trkpt>
      <trkpt lat="40.27737549506127834320068359375" lon="-0.9887230955064296722412109375">
        <ele>1221.5999755859375</ele>
        <time>2021-09-26T08:43:55.000Z</time>
      </trkpt>
      <trkpt lat="40.27735001407563686370849609375" lon="-0.9886992909014225006103515625">
        <ele>1221.800048828125</ele>
        <time>2021-09-26T08:43:56.000Z</time>
      </trkpt>
      <trkpt lat="40.27732386253774166107177734375" lon="-0.98867741413414478302001953125">
        <ele>1222</ele>
        <time>2021-09-26T08:43:57.000Z</time>
      </trkpt>
      <trkpt lat="40.27727172710001468658447265625" lon="-0.988631062209606170654296875">
        <ele>1222.5999755859375</ele>
        <time>2021-09-26T08:43:59.000Z</time>
      </trkpt>
      <trkpt lat="40.277219675481319427490234375" lon="-0.98857976496219635009765625">
        <ele>1222.800048828125</ele>
        <time>2021-09-26T08:44:01.000Z</time>
      </trkpt>
      <trkpt lat="40.27716712094843387603759765625" lon="-0.988524444401264190673828125">
        <ele>1223</ele>
        <time>2021-09-26T08:44:03.000Z</time>
      </trkpt>
      <trkpt lat="40.2771145664155483245849609375" lon="-0.98847113549709320068359375">
        <ele>1223</ele>
        <time>2021-09-26T08:44:05.000Z</time>
      </trkpt>
      <trkpt lat="40.27705949731171131134033203125" lon="-0.9884116239845752716064453125">
        <ele>1222.800048828125</ele>
        <time>2021-09-26T08:44:07.000Z</time>
      </trkpt>
      <trkpt lat="40.27701004408299922943115234375" lon="-0.988343060016632080078125">
        <ele>1222.5999755859375</ele>
        <time>2021-09-26T08:44:09.000Z</time>
      </trkpt>
      <trkpt lat="40.27696193195879459381103515625" lon="-0.9882687963545322418212890625">
        <ele>1222.199951171875</ele>
        <time>2021-09-26T08:44:11.000Z</time>
      </trkpt>
      <trkpt lat="40.2769155800342559814453125" lon="-0.988193191587924957275390625">
        <ele>1222</ele>
        <time>2021-09-26T08:44:13.000Z</time>
      </trkpt>
      <trkpt lat="40.27687467634677886962890625" lon="-0.98812018521130084991455078125">
        <ele>1222</ele>
        <time>2021-09-26T08:44:15.000Z</time>
      </trkpt>
      <trkpt lat="40.2768570743501186370849609375" lon="-0.98808565177023410797119140625">
        <ele>1222</ele>
        <time>2021-09-26T08:44:16.000Z</time>
      </trkpt>
      <trkpt lat="40.2768406458199024200439453125" lon="-0.98804726265370845794677734375">
        <ele>1221.800048828125</ele>
        <time>2021-09-26T08:44:17.000Z</time>
      </trkpt>
      <trkpt lat="40.27682329528033733367919921875" lon="-0.98800619132816791534423828125">
        <ele>1221.800048828125</ele>
        <time>2021-09-26T08:44:18.000Z</time>
      </trkpt>
      <trkpt lat="40.276806615293025970458984375" lon="-0.9879613481462001800537109375">
        <ele>1221.800048828125</ele>
        <time>2021-09-26T08:44:19.000Z</time>
      </trkpt>
      <trkpt lat="40.27676931582391262054443359375" lon="-0.987861268222332000732421875">
        <ele>1221.5999755859375</ele>
        <time>2021-09-26T08:44:21.000Z</time>
      </trkpt>
      <trkpt lat="40.2767256461083889007568359375" lon="-0.98775104619562625885009765625">
        <ele>1221.4000244140625</ele>
        <time>2021-09-26T08:44:23.000Z</time>
      </trkpt>
      <trkpt lat="40.2766820602118968963623046875" lon="-0.9876443445682525634765625">
        <ele>1221.199951171875</ele>
        <time>2021-09-26T08:44:25.000Z</time>
      </trkpt>
      <trkpt lat="40.27666169218719005584716796875" lon="-0.98758692853152751922607421875">
        <ele>1221</ele>
        <time>2021-09-26T08:44:26.000Z</time>
      </trkpt>
      <trkpt lat="40.27664224617183208465576171875" lon="-0.9875328652560710906982421875">
        <ele>1221</ele>
        <time>2021-09-26T08:44:27.000Z</time>
      </trkpt>
      <trkpt lat="40.276606790721416473388671875" lon="-0.98742398433387279510498046875">
        <ele>1221</ele>
        <time>2021-09-26T08:44:29.000Z</time>
      </trkpt>
      <trkpt lat="40.276573933660984039306640625" lon="-0.98731652833521366119384765625">
        <ele>1221.199951171875</ele>
        <time>2021-09-26T08:44:31.000Z</time>
      </trkpt>
      <trkpt lat="40.27653998695313930511474609375" lon="-0.98721812479197978973388671875">
        <ele>1221.199951171875</ele>
        <time>2021-09-26T08:44:33.000Z</time>
      </trkpt>
      <trkpt lat="40.27652305550873279571533203125" lon="-0.98716699518263339996337890625">
        <ele>1221.199951171875</ele>
        <time>2021-09-26T08:44:34.000Z</time>
      </trkpt>
      <trkpt lat="40.27650545351207256317138671875" lon="-0.987116955220699310302734375">
        <ele>1221.4000244140625</ele>
        <time>2021-09-26T08:44:35.000Z</time>
      </trkpt>
      <trkpt lat="40.276467315852642059326171875" lon="-0.98701561801135540008544921875">
        <ele>1221.800048828125</ele>
        <time>2021-09-26T08:44:37.000Z</time>
      </trkpt>
      <trkpt lat="40.27642699889838695526123046875" lon="-0.98690782673656940460205078125">
        <ele>1222.199951171875</ele>
        <time>2021-09-26T08:44:39.000Z</time>
      </trkpt>
      <trkpt lat="40.27638106606900691986083984375" lon="-0.98679634742438793182373046875">
        <ele>1222.800048828125</ele>
        <time>2021-09-26T08:44:41.000Z</time>
      </trkpt>
      <trkpt lat="40.27632943354547023773193359375" lon="-0.98667698912322521209716796875">
        <ele>1223</ele>
        <time>2021-09-26T08:44:43.000Z</time>
      </trkpt>
      <trkpt lat="40.2762706764042377471923828125" lon="-0.9865706227719783782958984375">
        <ele>1222.800048828125</ele>
        <time>2021-09-26T08:44:45.000Z</time>
      </trkpt>
      <trkpt lat="40.27621082961559295654296875" lon="-0.9864794276654720306396484375">
        <ele>1223</ele>
        <time>2021-09-26T08:44:47.000Z</time>
      </trkpt>
      <trkpt lat="40.276180990040302276611328125" lon="-0.98643659614026546478271484375">
        <ele>1223</ele>
        <time>2021-09-26T08:44:48.000Z</time>
      </trkpt>
      <trkpt lat="40.27615140192210674285888671875" lon="-0.9864026494324207305908203125">
        <ele>1223</ele>
        <time>2021-09-26T08:44:49.000Z</time>
      </trkpt>
      <trkpt lat="40.2760946564376354217529296875" lon="-0.986343808472156524658203125">
        <ele>1223</ele>
        <time>2021-09-26T08:44:51.000Z</time>
      </trkpt>
      <trkpt lat="40.2760420180857181549072265625" lon="-0.9862846322357654571533203125">
        <ele>1223</ele>
        <time>2021-09-26T08:44:53.000Z</time>
      </trkpt>
      <trkpt lat="40.27601662091910839080810546875" lon="-0.98625521175563335418701171875">
        <ele>1222.800048828125</ele>
        <time>2021-09-26T08:44:54.000Z</time>
      </trkpt>
      <trkpt lat="40.27598728425800800323486328125" lon="-0.9862249530851840972900390625">
        <ele>1222.800048828125</ele>
        <time>2021-09-26T08:44:55.000Z</time>
      </trkpt>
      <trkpt lat="40.2759193070232868194580078125" lon="-0.98615328781306743621826171875">
        <ele>1222.199951171875</ele>
        <time>2021-09-26T08:44:57.000Z</time>
      </trkpt>
      <trkpt lat="40.275844372808933258056640625" lon="-0.98607969470322132110595703125">
        <ele>1222</ele>
        <time>2021-09-26T08:44:59.000Z</time>
      </trkpt>
      <trkpt lat="40.275804810225963592529296875" lon="-0.9860445745289325714111328125">
        <ele>1222</ele>
        <time>2021-09-26T08:45:00.000Z</time>
      </trkpt>
      <trkpt lat="40.27576583437621593475341796875" lon="-0.9860076941549777984619140625">
        <ele>1222</ele>
        <time>2021-09-26T08:45:01.000Z</time>
      </trkpt>
      <trkpt lat="40.27569073252379894256591796875" lon="-0.98593720234930515289306640625">
        <ele>1221.4000244140625</ele>
        <time>2021-09-26T08:45:03.000Z</time>
      </trkpt>
      <trkpt lat="40.275621078908443450927734375" lon="-0.98587081767618656158447265625">
        <ele>1220.5999755859375</ele>
        <time>2021-09-26T08:45:05.000Z</time>
      </trkpt>
      <trkpt lat="40.27555125765502452850341796875" lon="-0.9858139045536518096923828125">
        <ele>1220.5999755859375</ele>
        <time>2021-09-26T08:45:07.000Z</time>
      </trkpt>
      <trkpt lat="40.275517813861370086669921875" lon="-0.98579001612961292266845703125">
        <ele>1220.5999755859375</ele>
        <time>2021-09-26T08:45:08.000Z</time>
      </trkpt>
      <trkpt lat="40.27548168785870075225830078125" lon="-0.985767804086208343505859375">
        <ele>1220.800048828125</ele>
        <time>2021-09-26T08:45:09.000Z</time>
      </trkpt>
      <trkpt lat="40.2754026465117931365966796875" lon="-0.98571625538170337677001953125">
        <ele>1221.199951171875</ele>
        <time>2021-09-26T08:45:11.000Z</time>
      </trkpt>
      <trkpt lat="40.27531757019460201263427734375" lon="-0.9856568276882171630859375">
        <ele>1221.800048828125</ele>
        <time>2021-09-26T08:45:13.000Z</time>
      </trkpt>
      <trkpt lat="40.27527431957423686981201171875" lon="-0.98562438972294330596923828125">
        <ele>1222.199951171875</ele>
        <time>2021-09-26T08:45:14.000Z</time>
      </trkpt>
      <trkpt lat="40.2752266265451908111572265625" lon="-0.98559455014765262603759765625">
        <ele>1222.4000244140625</ele>
        <time>2021-09-26T08:45:15.000Z</time>
      </trkpt>
      <trkpt lat="40.27513517998158931732177734375" lon="-0.98553470335900783538818359375">
        <ele>1222.800048828125</ele>
        <time>2021-09-26T08:45:17.000Z</time>
      </trkpt>
      <trkpt lat="40.2750460803508758544921875" lon="-0.98547703586518764495849609375">
        <ele>1223</ele>
        <time>2021-09-26T08:45:19.000Z</time>
      </trkpt>
      <trkpt lat="40.2749570645391941070556640625" lon="-0.9854176081717014312744140625">
        <ele>1223</ele>
        <time>2021-09-26T08:45:21.000Z</time>
      </trkpt>
      <trkpt lat="40.27487081475555896759033203125" lon="-0.9853596054017543792724609375">
        <ele>1222.800048828125</ele>
        <time>2021-09-26T08:45:23.000Z</time>
      </trkpt>
      <trkpt lat="40.27478867210447788238525390625" lon="-0.9853041172027587890625">
        <ele>1222.5999755859375</ele>
        <time>2021-09-26T08:45:25.000Z</time>
      </trkpt>
      <trkpt lat="40.27471155859529972076416015625" lon="-0.9852439351379871368408203125">
        <ele>1222.800048828125</ele>
        <time>2021-09-26T08:45:27.000Z</time>
      </trkpt>
      <trkpt lat="40.274634696543216705322265625" lon="-0.98519439809024333953857421875">
        <ele>1223</ele>
        <time>2021-09-26T08:45:29.000Z</time>
      </trkpt>
      <trkpt lat="40.27459555305540561676025390625" lon="-0.98517143167555332183837890625">
        <ele>1223</ele>
        <time>2021-09-26T08:45:30.000Z</time>
      </trkpt>
      <trkpt lat="40.27455800212919712066650390625" lon="-0.9851463697850704193115234375">
        <ele>1223.4000244140625</ele>
        <time>2021-09-26T08:45:31.000Z</time>
      </trkpt>
      <trkpt lat="40.27452078647911548614501953125" lon="-0.9851178713142871856689453125">
        <ele>1223.4000244140625</ele>
        <time>2021-09-26T08:45:32.000Z</time>
      </trkpt>
      <trkpt lat="40.27448122389614582061767578125" lon="-0.98509021103382110595703125">
        <ele>1223.5999755859375</ele>
        <time>2021-09-26T08:45:33.000Z</time>
      </trkpt>
      <trkpt lat="40.2743917889893054962158203125" lon="-0.98503145389258861541748046875">
        <ele>1224</ele>
        <time>2021-09-26T08:45:35.000Z</time>
      </trkpt>
      <trkpt lat="40.27434669435024261474609375" lon="-0.984995663166046142578125">
        <ele>1223.800048828125</ele>
        <time>2021-09-26T08:45:36.000Z</time>
      </trkpt>
      <trkpt lat="40.27430034242570400238037109375" lon="-0.98496255464851856231689453125">
        <ele>1223.800048828125</ele>
        <time>2021-09-26T08:45:37.000Z</time>
      </trkpt>
      <trkpt lat="40.27425189502537250518798828125" lon="-0.9849301166832447052001953125">
        <ele>1224</ele>
        <time>2021-09-26T08:45:38.000Z</time>
      </trkpt>
      <trkpt lat="40.274206884205341339111328125" lon="-0.98489784635603427886962890625">
        <ele>1224.4000244140625</ele>
        <time>2021-09-26T08:45:39.000Z</time>
      </trkpt>
      <trkpt lat="40.27411392889916896820068359375" lon="-0.9848345629870891571044921875">
        <ele>1225</ele>
        <time>2021-09-26T08:45:41.000Z</time>
      </trkpt>
      <trkpt lat="40.27402424253523349761962890625" lon="-0.9847765602171421051025390625">
        <ele>1224.800048828125</ele>
        <time>2021-09-26T08:45:43.000Z</time>
      </trkpt>
      <trkpt lat="40.273981578648090362548828125" lon="-0.98474713973701000213623046875">
        <ele>1224.5999755859375</ele>
        <time>2021-09-26T08:45:44.000Z</time>
      </trkpt>
      <trkpt lat="40.27393975295126438140869140625" lon="-0.98471780307590961456298828125">
        <ele>1224.5999755859375</ele>
        <time>2021-09-26T08:45:45.000Z</time>
      </trkpt>
      <trkpt lat="40.2738573588430881500244140625" lon="-0.98466315306723117828369140625">
        <ele>1225.199951171875</ele>
        <time>2021-09-26T08:45:47.000Z</time>
      </trkpt>
      <trkpt lat="40.2737812511622905731201171875" lon="-0.9846109338104724884033203125">
        <ele>1225.4000244140625</ele>
        <time>2021-09-26T08:45:49.000Z</time>
      </trkpt>
      <trkpt lat="40.27374629862606525421142578125" lon="-0.98458050750195980072021484375">
        <ele>1225.4000244140625</ele>
        <time>2021-09-26T08:45:50.000Z</time>
      </trkpt>
      <trkpt lat="40.27371277101337909698486328125" lon="-0.9845512546598911285400390625">
        <ele>1225.199951171875</ele>
        <time>2021-09-26T08:45:51.000Z</time>
      </trkpt>
      <trkpt lat="40.273644626140594482421875" lon="-0.98449903540313243865966796875">
        <ele>1224.5999755859375</ele>
        <time>2021-09-26T08:45:53.000Z</time>
      </trkpt>
      <trkpt lat="40.27357329614460468292236328125" lon="-0.9844597242772579193115234375">
        <ele>1224.5999755859375</ele>
        <time>2021-09-26T08:45:55.000Z</time>
      </trkpt>
      <trkpt lat="40.2735145390033721923828125" lon="-0.98441521637141704559326171875">
        <ele>1224.4000244140625</ele>
        <time>2021-09-26T08:45:57.000Z</time>
      </trkpt>
      <trkpt lat="40.27349048294126987457275390625" lon="-0.98439342342317104339599609375">
        <ele>1224.199951171875</ele>
        <time>2021-09-26T08:45:58.000Z</time>
      </trkpt>
      <trkpt lat="40.27346516959369182586669921875" lon="-0.98438235931098461151123046875">
        <ele>1224.199951171875</ele>
        <time>2021-09-26T08:45:59.000Z</time>
      </trkpt>
      <trkpt lat="40.27341504581272602081298828125" lon="-0.984381772577762603759765625">
        <ele>1223.5999755859375</ele>
        <time>2021-09-26T08:46:01.000Z</time>
      </trkpt>
      <trkpt lat="40.27339425869286060333251953125" lon="-0.98439711146056652069091796875">
        <ele>1223.4000244140625</ele>
        <time>2021-09-26T08:46:02.000Z</time>
      </trkpt>
      <trkpt lat="40.2733772434294223785400390625" lon="-0.984422676265239715576171875">
        <ele>1223.199951171875</ele>
        <time>2021-09-26T08:46:03.000Z</time>
      </trkpt>
      <trkpt lat="40.273353941738605499267578125" lon="-0.98448562435805797576904296875">
        <ele>1223</ele>
        <time>2021-09-26T08:46:05.000Z</time>
      </trkpt>
      <trkpt lat="40.2733430452644824981689453125" lon="-0.98451814614236354827880859375">
        <ele>1222.800048828125</ele>
        <time>2021-09-26T08:46:06.000Z</time>
      </trkpt>
      <trkpt lat="40.2733319811522960662841796875" lon="-0.98454832099378108978271484375">
        <ele>1222.5999755859375</ele>
        <time>2021-09-26T08:46:07.000Z</time>
      </trkpt>
      <trkpt lat="40.2733011357486248016357421875" lon="-0.9846129454672336578369140625">
        <ele>1222</ele>
        <time>2021-09-26T08:46:09.000Z</time>
      </trkpt>
      <trkpt lat="40.27326903305947780609130859375" lon="-0.9846937470138072967529296875">
        <ele>1221.5999755859375</ele>
        <time>2021-09-26T08:46:11.000Z</time>
      </trkpt>
      <trkpt lat="40.27324422262609004974365234375" lon="-0.98477614112198352813720703125">
        <ele>1221.199951171875</ele>
        <time>2021-09-26T08:46:13.000Z</time>
      </trkpt>
      <trkpt lat="40.27321773581206798553466796875" lon="-0.9848348982632160186767578125">
        <ele>1220.800048828125</ele>
        <time>2021-09-26T08:46:15.000Z</time>
      </trkpt>
      <trkpt lat="40.27319225482642650604248046875" lon="-0.98487119190394878387451171875">
        <ele>1220.800048828125</ele>
        <time>2021-09-26T08:46:17.000Z</time>
      </trkpt>
      <trkpt lat="40.27318035252392292022705078125" lon="-0.98488233983516693115234375">
        <ele>1220.800048828125</ele>
        <time>2021-09-26T08:46:18.000Z</time>
      </trkpt>
      <trkpt lat="40.273165516555309295654296875" lon="-0.98489399068057537078857421875">
        <ele>1220.800048828125</ele>
        <time>2021-09-26T08:46:19.000Z</time>
      </trkpt>
      <trkpt lat="40.273136012256145477294921875" lon="-0.98491108976304531097412109375">
        <ele>1220.800048828125</ele>
        <time>2021-09-26T08:46:21.000Z</time>
      </trkpt>
      <trkpt lat="40.27310122735798358917236328125" lon="-0.98493774421513080596923828125">
        <ele>1220.5999755859375</ele>
        <time>2021-09-26T08:46:23.000Z</time>
      </trkpt>
      <trkpt lat="40.27308404445648193359375" lon="-0.9849555976688861846923828125">
        <ele>1220.5999755859375</ele>
        <time>2021-09-26T08:46:24.000Z</time>
      </trkpt>
      <trkpt lat="40.27307138778269290924072265625" lon="-0.984970517456531524658203125">
        <ele>1220.5999755859375</ele>
        <time>2021-09-26T08:46:25.000Z</time>
      </trkpt>
      <trkpt lat="40.27306015603244304656982421875" lon="-0.98498166538774967193603515625">
        <ele>1220.5999755859375</ele>
        <time>2021-09-26T08:46:26.000Z</time>
      </trkpt>
      <trkpt lat="40.2730553783476352691650390625" lon="-0.9849985130131244659423828125">
        <ele>1220.800048828125</ele>
        <time>2021-09-26T08:46:27.000Z</time>
      </trkpt>
      <trkpt lat="40.27305445633828639984130859375" lon="-0.9850125946104526519775390625">
        <ele>1220.800048828125</ele>
        <time>2021-09-26T08:46:28.000Z</time>
      </trkpt>
      <trkpt lat="40.273054875433444976806640625" lon="-0.98502960987389087677001953125">
        <ele>1220.800048828125</ele>
        <time>2021-09-26T08:46:29.000Z</time>
      </trkpt>
      <trkpt lat="40.27305261231958866119384765625" lon="-0.98503681831061840057373046875">
        <ele>1220.800048828125</ele>
        <time>2021-09-26T08:46:31.000Z</time>
      </trkpt>
      <trkpt lat="40.272551290690898895263671875" lon="-0.98786495625972747802734375">
        <ele>1222</ele>
        <time>2021-09-26T09:00:25.000Z</time>
      </trkpt>
      <trkpt lat="40.272540561854839324951171875" lon="-0.98786721937358379364013671875">
        <ele>1222</ele>
        <time>2021-09-26T09:00:26.000Z</time>
      </trkpt>
      <trkpt lat="40.273072980344295501708984375" lon="-0.98496154882013797760009765625">
        <ele>1220.5999755859375</ele>
        <time>2021-09-26T09:01:11.000Z</time>
      </trkpt>
      <trkpt lat="40.27309988625347614288330078125" lon="-0.984928607940673828125">
        <ele>1220.5999755859375</ele>
        <time>2021-09-26T09:01:13.000Z</time>
      </trkpt>
      <trkpt lat="40.27311547659337520599365234375" lon="-0.98491259850561618804931640625">
        <ele>1220.5999755859375</ele>
        <time>2021-09-26T09:01:14.000Z</time>
      </trkpt>
      <trkpt lat="40.27313207276165485382080078125" lon="-0.984898097813129425048828125">
        <ele>1220.5999755859375</ele>
        <time>2021-09-26T09:01:15.000Z</time>
      </trkpt>
      <trkpt lat="40.27314917184412479400634765625" lon="-0.9848791547119617462158203125">
        <ele>1220.5999755859375</ele>
        <time>2021-09-26T09:01:16.000Z</time>
      </trkpt>
      <trkpt lat="40.2731653489172458648681640625" lon="-0.98485409282147884368896484375">
        <ele>1220.5999755859375</ele>
        <time>2021-09-26T09:01:17.000Z</time>
      </trkpt>
      <trkpt lat="40.27318337000906467437744140625" lon="-0.98483079113066196441650390625">
        <ele>1220.800048828125</ele>
        <time>2021-09-26T09:01:18.000Z</time>
      </trkpt>
      <trkpt lat="40.27319912798702716827392578125" lon="-0.98481117747724056243896484375">
        <ele>1221</ele>
        <time>2021-09-26T09:01:19.000Z</time>
      </trkpt>
      <trkpt lat="40.2732236869633197784423828125" lon="-0.98476809449493885040283203125">
        <ele>1221.199951171875</ele>
        <time>2021-09-26T09:01:21.000Z</time>
      </trkpt>
      <trkpt lat="40.27324589900672435760498046875" lon="-0.98472920246422290802001953125">
        <ele>1221.4000244140625</ele>
        <time>2021-09-26T09:01:23.000Z</time>
      </trkpt>
      <trkpt lat="40.27326249517500400543212890625" lon="-0.98467924632132053375244140625">
        <ele>1221.5999755859375</ele>
        <time>2021-09-26T09:01:25.000Z</time>
      </trkpt>
      <trkpt lat="40.2732850424945354461669921875" lon="-0.98462350666522979736328125">
        <ele>1222</ele>
        <time>2021-09-26T09:01:27.000Z</time>
      </trkpt>
      <trkpt lat="40.27331127785146236419677734375" lon="-0.9845656715333461761474609375">
        <ele>1222.4000244140625</ele>
        <time>2021-09-26T09:01:29.000Z</time>
      </trkpt>
      <trkpt lat="40.2733289636671543121337890625" lon="-0.98451965488493442535400390625">
        <ele>1222.5999755859375</ele>
        <time>2021-09-26T09:01:31.000Z</time>
      </trkpt>
      <trkpt lat="40.27335654012858867645263671875" lon="-0.98446282558143138885498046875">
        <ele>1223</ele>
        <time>2021-09-26T09:01:33.000Z</time>
      </trkpt>
      <trkpt lat="40.27336760424077510833740234375" lon="-0.9843921661376953125">
        <ele>1223</ele>
        <time>2021-09-26T09:01:35.000Z</time>
      </trkpt>
      <trkpt lat="40.27334581129252910614013671875" lon="-0.9843279607594013214111328125">
        <ele>1222.800048828125</ele>
        <time>2021-09-26T09:01:37.000Z</time>
      </trkpt>
      <trkpt lat="40.273303650319576263427734375" lon="-0.98427456803619861602783203125">
        <ele>1222.4000244140625</ele>
        <time>2021-09-26T09:01:39.000Z</time>
      </trkpt>
      <trkpt lat="40.2732543647289276123046875" lon="-0.98423198796808719635009765625">
        <ele>1222.199951171875</ele>
        <time>2021-09-26T09:01:41.000Z</time>
      </trkpt>
      <trkpt lat="40.27319661341607570648193359375" lon="-0.984189324080944061279296875">
        <ele>1222.199951171875</ele>
        <time>2021-09-26T09:01:43.000Z</time>
      </trkpt>
      <trkpt lat="40.27316987514495849609375" lon="-0.984168536961078643798828125">
        <ele>1222.199951171875</ele>
        <time>2021-09-26T09:01:44.000Z</time>
      </trkpt>
      <trkpt lat="40.2731415443122386932373046875" lon="-0.9841462410986423492431640625">
        <ele>1222</ele>
        <time>2021-09-26T09:01:45.000Z</time>
      </trkpt>
      <trkpt lat="40.27308882214128971099853515625" lon="-0.98409636877477169036865234375">
        <ele>1222</ele>
        <time>2021-09-26T09:01:47.000Z</time>
      </trkpt>
      <trkpt lat="40.273030065000057220458984375" lon="-0.9840503521263599395751953125">
        <ele>1222</ele>
        <time>2021-09-26T09:01:49.000Z</time>
      </trkpt>
      <trkpt lat="40.2729775942862033843994140625" lon="-0.98399595357477664947509765625">
        <ele>1221.800048828125</ele>
        <time>2021-09-26T09:01:51.000Z</time>
      </trkpt>
      <trkpt lat="40.272924788296222686767578125" lon="-0.98394088447093963623046875">
        <ele>1221.5999755859375</ele>
        <time>2021-09-26T09:01:53.000Z</time>
      </trkpt>
      <trkpt lat="40.2728575654327869415283203125" lon="-0.98388212732970714569091796875">
        <ele>1221</ele>
        <time>2021-09-26T09:01:55.000Z</time>
      </trkpt>
      <trkpt lat="40.27278975583612918853759765625" lon="-0.98382798023521900177001953125">
        <ele>1220.5999755859375</ele>
        <time>2021-09-26T09:01:57.000Z</time>
      </trkpt>
      <trkpt lat="40.27272823266685009002685546875" lon="-0.98377861082553863525390625">
        <ele>1220</ele>
        <time>2021-09-26T09:01:59.000Z</time>
      </trkpt>
      <trkpt lat="40.27266419492661952972412109375" lon="-0.9837338514626026153564453125">
        <ele>1219.4000244140625</ele>
        <time>2021-09-26T09:02:01.000Z</time>
      </trkpt>
      <trkpt lat="40.27263737283647060394287109375" lon="-0.98370979540050029754638671875">
        <ele>1219.199951171875</ele>
        <time>2021-09-26T09:02:02.000Z</time>
      </trkpt>
      <trkpt lat="40.2726087905466556549072265625" lon="-0.983685068786144256591796875">
        <ele>1218.800048828125</ele>
        <time>2021-09-26T09:02:03.000Z</time>
      </trkpt>
      <trkpt lat="40.27254131622612476348876953125" lon="-0.98363100551068782806396484375">
        <ele>1218.199951171875</ele>
        <time>2021-09-26T09:02:05.000Z</time>
      </trkpt>
      <trkpt lat="40.2724505402147769927978515625" lon="-0.983567722141742706298828125">
        <ele>1217.800048828125</ele>
        <time>2021-09-26T09:02:07.000Z</time>
      </trkpt>
      <trkpt lat="40.27240343391895294189453125" lon="-0.98353260196745395660400390625">
        <ele>1217.800048828125</ele>
        <time>2021-09-26T09:02:08.000Z</time>
      </trkpt>
      <trkpt lat="40.27235381305217742919921875" lon="-0.98349773325026035308837890625">
        <ele>1217.800048828125</ele>
        <time>2021-09-26T09:02:09.000Z</time>
      </trkpt>
      <trkpt lat="40.2723075449466705322265625" lon="-0.98346185870468616485595703125">
        <ele>1218</ele>
        <time>2021-09-26T09:02:10.000Z</time>
      </trkpt>
      <trkpt lat="40.27226286940276622772216796875" lon="-0.9834267385303974151611328125">
        <ele>1218.199951171875</ele>
        <time>2021-09-26T09:02:11.000Z</time>
      </trkpt>
      <trkpt lat="40.27217770926654338836669921875" lon="-0.9833603538572788238525390625">
        <ele>1218.800048828125</ele>
        <time>2021-09-26T09:02:13.000Z</time>
      </trkpt>
      <trkpt lat="40.27209900319576263427734375" lon="-0.9833045303821563720703125">
        <ele>1219.199951171875</ele>
        <time>2021-09-26T09:02:15.000Z</time>
      </trkpt>
      <trkpt lat="40.27202968485653400421142578125" lon="-0.98324929364025592803955078125">
        <ele>1219.4000244140625</ele>
        <time>2021-09-26T09:02:17.000Z</time>
      </trkpt>
      <trkpt lat="40.27195575647056102752685546875" lon="-0.98319548182189464569091796875">
        <ele>1219.199951171875</ele>
        <time>2021-09-26T09:02:19.000Z</time>
      </trkpt>
      <trkpt lat="40.27191669680178165435791015625" lon="-0.98316974937915802001953125">
        <ele>1219.199951171875</ele>
        <time>2021-09-26T09:02:20.000Z</time>
      </trkpt>
      <trkpt lat="40.2718772180378437042236328125" lon="-0.983143262565135955810546875">
        <ele>1219.4000244140625</ele>
        <time>2021-09-26T09:02:21.000Z</time>
      </trkpt>
      <trkpt lat="40.27179465629160404205322265625" lon="-0.98308986984193325042724609375">
        <ele>1219.4000244140625</ele>
        <time>2021-09-26T09:02:23.000Z</time>
      </trkpt>
      <trkpt lat="40.27171284891664981842041015625" lon="-0.98304527811706066131591796875">
        <ele>1219.4000244140625</ele>
        <time>2021-09-26T09:02:25.000Z</time>
      </trkpt>
      <trkpt lat="40.27163003571331501007080078125" lon="-0.98301040939986705780029296875">
        <ele>1219.4000244140625</ele>
        <time>2021-09-26T09:02:27.000Z</time>
      </trkpt>
      <trkpt lat="40.27155057527124881744384765625" lon="-0.9829774685204029083251953125">
        <ele>1219.5999755859375</ele>
        <time>2021-09-26T09:02:29.000Z</time>
      </trkpt>
      <trkpt lat="40.27150866575539112091064453125" lon="-0.98295693285763263702392578125">
        <ele>1219.4000244140625</ele>
        <time>2021-09-26T09:02:30.000Z</time>
      </trkpt>
      <trkpt lat="40.27146675623953342437744140625" lon="-0.98293631337583065032958984375">
        <ele>1219.4000244140625</ele>
        <time>2021-09-26T09:02:31.000Z</time>
      </trkpt>
      <trkpt lat="40.271375477313995361328125" lon="-0.98290957510471343994140625">
        <ele>1219.199951171875</ele>
        <time>2021-09-26T09:02:33.000Z</time>
      </trkpt>
      <trkpt lat="40.27127967216074466705322265625" lon="-0.9828762151300907135009765625">
        <ele>1218.800048828125</ele>
        <time>2021-09-26T09:02:35.000Z</time>
      </trkpt>
      <trkpt lat="40.271230302751064300537109375" lon="-0.98285953514277935028076171875">
        <ele>1218.5999755859375</ele>
        <time>2021-09-26T09:02:36.000Z</time>
      </trkpt>
      <trkpt lat="40.27118260972201824188232421875" lon="-0.9828431904315948486328125">
        <ele>1218.4000244140625</ele>
        <time>2021-09-26T09:02:37.000Z</time>
      </trkpt>
      <trkpt lat="40.27109258808195590972900390625" lon="-0.98281301558017730712890625">
        <ele>1218.4000244140625</ele>
        <time>2021-09-26T09:02:39.000Z</time>
      </trkpt>
      <trkpt lat="40.27100206352770328521728515625" lon="-0.98278225399553775787353515625">
        <ele>1218.5999755859375</ele>
        <time>2021-09-26T09:02:41.000Z</time>
      </trkpt>
      <trkpt lat="40.27095847763121128082275390625" lon="-0.98276549018919467926025390625">
        <ele>1218.800048828125</ele>
        <time>2021-09-26T09:02:42.000Z</time>
      </trkpt>
      <trkpt lat="40.2709139697253704071044921875" lon="-0.9827506542205810546875">
        <ele>1219</ele>
        <time>2021-09-26T09:02:43.000Z</time>
      </trkpt>
      <trkpt lat="40.27086652815341949462890625" lon="-0.98273632116615772247314453125">
        <ele>1219.199951171875</ele>
        <time>2021-09-26T09:02:44.000Z</time>
      </trkpt>
      <trkpt lat="40.2708167396485805511474609375" lon="-0.98271804861724376678466796875">
        <ele>1219.5999755859375</ele>
        <time>2021-09-26T09:02:45.000Z</time>
      </trkpt>
      <trkpt lat="40.27071774937212467193603515625" lon="-0.9826871193945407867431640625">
        <ele>1219.800048828125</ele>
        <time>2021-09-26T09:02:47.000Z</time>
      </trkpt>
      <trkpt lat="40.270630158483982086181640625" lon="-0.982653088867664337158203125">
        <ele>1220.4000244140625</ele>
        <time>2021-09-26T09:02:49.000Z</time>
      </trkpt>
      <trkpt lat="40.2705850638449192047119140625" lon="-0.98263867199420928955078125">
        <ele>1220.5999755859375</ele>
        <time>2021-09-26T09:02:50.000Z</time>
      </trkpt>
      <trkpt lat="40.2705411426723003387451171875" lon="-0.98262257874011993408203125">
        <ele>1220.800048828125</ele>
        <time>2021-09-26T09:02:51.000Z</time>
      </trkpt>
      <trkpt lat="40.270495712757110595703125" lon="-0.98260740749537944793701171875">
        <ele>1221</ele>
        <time>2021-09-26T09:02:52.000Z</time>
      </trkpt>
      <trkpt lat="40.27044734917581081390380859375" lon="-0.98259081132709980010986328125">
        <ele>1220.5999755859375</ele>
        <time>2021-09-26T09:02:53.000Z</time>
      </trkpt>
      <trkpt lat="40.27039756067097187042236328125" lon="-0.98257220350205898284912109375">
        <ele>1220.4000244140625</ele>
        <time>2021-09-26T09:02:54.000Z</time>
      </trkpt>
      <trkpt lat="40.27034944854676723480224609375" lon="-0.982553176581859588623046875">
        <ele>1220</ele>
        <time>2021-09-26T09:02:55.000Z</time>
      </trkpt>
      <trkpt lat="40.27025138027966022491455078125" lon="-0.98252090625464916229248046875">
        <ele>1219.5999755859375</ele>
        <time>2021-09-26T09:02:57.000Z</time>
      </trkpt>
      <trkpt lat="40.27020134031772613525390625" lon="-0.982506237924098968505859375">
        <ele>1219.4000244140625</ele>
        <time>2021-09-26T09:02:58.000Z</time>
      </trkpt>
      <trkpt lat="40.27015448547899723052978515625" lon="-0.98249123431742191314697265625">
        <ele>1218.800048828125</ele>
        <time>2021-09-26T09:02:59.000Z</time>
      </trkpt>
      <trkpt lat="40.2701052837073802947998046875" lon="-0.9824728779494762420654296875">
        <ele>1218.4000244140625</ele>
        <time>2021-09-26T09:03:00.000Z</time>
      </trkpt>
      <trkpt lat="40.2700580097734928131103515625" lon="-0.982456617057323455810546875">
        <ele>1217.5999755859375</ele>
        <time>2021-09-26T09:03:01.000Z</time>
      </trkpt>
      <trkpt lat="40.26996606029570102691650390625" lon="-0.98242769949138164520263671875">
        <ele>1215.800048828125</ele>
        <time>2021-09-26T09:03:03.000Z</time>
      </trkpt>
      <trkpt lat="40.26987486518919467926025390625" lon="-0.98240020684897899627685546875">
        <ele>1215</ele>
        <time>2021-09-26T09:03:05.000Z</time>
      </trkpt>
      <trkpt lat="40.26977880857884883880615234375" lon="-0.98237707279622554779052734375">
        <ele>1215</ele>
        <time>2021-09-26T09:03:07.000Z</time>
      </trkpt>
      <trkpt lat="40.26973170228302478790283203125" lon="-0.98236106336116790771484375">
        <ele>1215</ele>
        <time>2021-09-26T09:03:08.000Z</time>
      </trkpt>
      <trkpt lat="40.2696821652352809906005859375" lon="-0.98234505392611026763916015625">
        <ele>1215</ele>
        <time>2021-09-26T09:03:09.000Z</time>
      </trkpt>
      <trkpt lat="40.26958711445331573486328125" lon="-0.98230716772377490997314453125">
        <ele>1215.4000244140625</ele>
        <time>2021-09-26T09:03:11.000Z</time>
      </trkpt>
      <trkpt lat="40.26949835009872913360595703125" lon="-0.98227883689105510711669921875">
        <ele>1215.800048828125</ele>
        <time>2021-09-26T09:03:13.000Z</time>
      </trkpt>
      <trkpt lat="40.26941277086734771728515625" lon="-0.98225050605833530426025390625">
        <ele>1216.199951171875</ele>
        <time>2021-09-26T09:03:15.000Z</time>
      </trkpt>
      <trkpt lat="40.26932920329272747039794921875" lon="-0.982222594320774078369140625">
        <ele>1216.4000244140625</ele>
        <time>2021-09-26T09:03:17.000Z</time>
      </trkpt>
      <trkpt lat="40.26924722827970981597900390625" lon="-0.982195101678371429443359375">
        <ele>1216.5999755859375</ele>
        <time>2021-09-26T09:03:19.000Z</time>
      </trkpt>
      <trkpt lat="40.26916961185634136199951171875" lon="-0.9821694530546665191650390625">
        <ele>1216.199951171875</ele>
        <time>2021-09-26T09:03:21.000Z</time>
      </trkpt>
      <trkpt lat="40.2690920792520046234130859375" lon="-0.982145480811595916748046875">
        <ele>1216</ele>
        <time>2021-09-26T09:03:23.000Z</time>
      </trkpt>
      <trkpt lat="40.269052684307098388671875" lon="-0.9821325726807117462158203125">
        <ele>1216</ele>
        <time>2021-09-26T09:03:24.000Z</time>
      </trkpt>
      <trkpt lat="40.26901136152446269989013671875" lon="-0.9821211732923984527587890625">
        <ele>1215.800048828125</ele>
        <time>2021-09-26T09:03:25.000Z</time>
      </trkpt>
      <trkpt lat="40.26892184279859066009521484375" lon="-0.9820923395454883575439453125">
        <ele>1215.4000244140625</ele>
        <time>2021-09-26T09:03:27.000Z</time>
      </trkpt>
      <trkpt lat="40.2688206732273101806640625" lon="-0.982055962085723876953125">
        <ele>1215</ele>
        <time>2021-09-26T09:03:29.000Z</time>
      </trkpt>
      <trkpt lat="40.2687702141702175140380859375" lon="-0.98203492350876331329345703125">
        <ele>1215.199951171875</ele>
        <time>2021-09-26T09:03:30.000Z</time>
      </trkpt>
      <trkpt lat="40.26872151531279087066650390625" lon="-0.9820170700550079345703125">
        <ele>1215.4000244140625</ele>
        <time>2021-09-26T09:03:31.000Z</time>
      </trkpt>
      <trkpt lat="40.2686344273388385772705078125" lon="-0.98198379389941692352294921875">
        <ele>1215.5999755859375</ele>
        <time>2021-09-26T09:03:33.000Z</time>
      </trkpt>
      <trkpt lat="40.2685633487999439239501953125" lon="-0.9819582290947437286376953125">
        <ele>1215.5999755859375</ele>
        <time>2021-09-26T09:03:35.000Z</time>
      </trkpt>
      <trkpt lat="40.26852990500628948211669921875" lon="-0.98194808699190616607666015625">
        <ele>1215.5999755859375</ele>
        <time>2021-09-26T09:03:36.000Z</time>
      </trkpt>
      <trkpt lat="40.268498472869396209716796875" lon="-0.98193299956619739532470703125">
        <ele>1215.800048828125</ele>
        <time>2021-09-26T09:03:37.000Z</time>
      </trkpt>
      <trkpt lat="40.2684265561401844024658203125" lon="-0.981908775866031646728515625">
        <ele>1216.199951171875</ele>
        <time>2021-09-26T09:03:39.000Z</time>
      </trkpt>
      <trkpt lat="40.26835329830646514892578125" lon="-0.981873907148838043212890625">
        <ele>1216.5999755859375</ele>
        <time>2021-09-26T09:03:41.000Z</time>
      </trkpt>
      <trkpt lat="40.26827844791114330291748046875" lon="-0.98183711059391498565673828125">
        <ele>1217</ele>
        <time>2021-09-26T09:03:43.000Z</time>
      </trkpt>
      <trkpt lat="40.26824207045137882232666015625" lon="-0.98182101733982563018798828125">
        <ele>1217.199951171875</ele>
        <time>2021-09-26T09:03:44.000Z</time>
      </trkpt>
      <trkpt lat="40.26820753701031208038330078125" lon="-0.98180190660059452056884765625">
        <ele>1217.4000244140625</ele>
        <time>2021-09-26T09:03:45.000Z</time>
      </trkpt>
      <trkpt lat="40.26813578791916370391845703125" lon="-0.98176603205502033233642578125">
        <ele>1217.800048828125</ele>
        <time>2021-09-26T09:03:47.000Z</time>
      </trkpt>
      <trkpt lat="40.26806403882801532745361328125" lon="-0.9817292355000972747802734375">
        <ele>1218</ele>
        <time>2021-09-26T09:03:49.000Z</time>
      </trkpt>
      <trkpt lat="40.2679903618991374969482421875" lon="-0.9816876612603664398193359375">
        <ele>1218.199951171875</ele>
        <time>2021-09-26T09:03:51.000Z</time>
      </trkpt>
      <trkpt lat="40.26791349984705448150634765625" lon="-0.98165505565702915191650390625">
        <ele>1218.199951171875</ele>
        <time>2021-09-26T09:03:53.000Z</time>
      </trkpt>
      <trkpt lat="40.26783437468111515045166015625" lon="-0.981613062322139739990234375">
        <ele>1218.199951171875</ele>
        <time>2021-09-26T09:03:55.000Z</time>
      </trkpt>
      <trkpt lat="40.267750807106494903564453125" lon="-0.9815733321011066436767578125">
        <ele>1218.199951171875</ele>
        <time>2021-09-26T09:03:57.000Z</time>
      </trkpt>
      <trkpt lat="40.26766254566609859466552734375" lon="-0.98152932710945606231689453125">
        <ele>1218.199951171875</ele>
        <time>2021-09-26T09:03:59.000Z</time>
      </trkpt>
      <trkpt lat="40.2676185406744480133056640625" lon="-0.98150384612381458282470703125">
        <ele>1218.199951171875</ele>
        <time>2021-09-26T09:04:00.000Z</time>
      </trkpt>
      <trkpt lat="40.267574787139892578125" lon="-0.98147853277623653411865234375">
        <ele>1218.4000244140625</ele>
        <time>2021-09-26T09:04:01.000Z</time>
      </trkpt>
      <trkpt lat="40.26748451404273509979248046875" lon="-0.9814294986426830291748046875">
        <ele>1218.4000244140625</ele>
        <time>2021-09-26T09:04:03.000Z</time>
      </trkpt>
      <trkpt lat="40.2673959173262119293212890625" lon="-0.98137543536722660064697265625">
        <ele>1218.800048828125</ele>
        <time>2021-09-26T09:04:05.000Z</time>
      </trkpt>
      <trkpt lat="40.267306230962276458740234375" lon="-0.98132480867207050323486328125">
        <ele>1219.199951171875</ele>
        <time>2021-09-26T09:04:07.000Z</time>
      </trkpt>
      <trkpt lat="40.26726440526545047760009765625" lon="-0.98130117170512676239013671875">
        <ele>1219.4000244140625</ele>
        <time>2021-09-26T09:04:08.000Z</time>
      </trkpt>
      <trkpt lat="40.2672212384641170501708984375" lon="-0.98127401433885097503662109375">
        <ele>1219.5999755859375</ele>
        <time>2021-09-26T09:04:09.000Z</time>
      </trkpt>
      <trkpt lat="40.26713314466178417205810546875" lon="-0.9812219627201557159423828125">
        <ele>1220</ele>
        <time>2021-09-26T09:04:11.000Z</time>
      </trkpt>
      <trkpt lat="40.26704278774559497833251953125" lon="-0.981165468692779541015625">
        <ele>1219.800048828125</ele>
        <time>2021-09-26T09:04:13.000Z</time>
      </trkpt>
      <trkpt lat="40.2669526822865009307861328125" lon="-0.9811136685311794281005859375">
        <ele>1219.5999755859375</ele>
        <time>2021-09-26T09:04:15.000Z</time>
      </trkpt>
      <trkpt lat="40.26686224155128002166748046875" lon="-0.98106262274086475372314453125">
        <ele>1219.199951171875</ele>
        <time>2021-09-26T09:04:17.000Z</time>
      </trkpt>
      <trkpt lat="40.2667696215212345123291015625" lon="-0.98100730217993259429931640625">
        <ele>1218.4000244140625</ele>
        <time>2021-09-26T09:04:19.000Z</time>
      </trkpt>
      <trkpt lat="40.2666747383773326873779296875" lon="-0.9809500537812709808349609375">
        <ele>1217.4000244140625</ele>
        <time>2021-09-26T09:04:21.000Z</time>
      </trkpt>
      <trkpt lat="40.266582034528255462646484375" lon="-0.98089800216257572174072265625">
        <ele>1217</ele>
        <time>2021-09-26T09:04:23.000Z</time>
      </trkpt>
      <trkpt lat="40.2664896659553050994873046875" lon="-0.9808431006968021392822265625">
        <ele>1217.4000244140625</ele>
        <time>2021-09-26T09:04:25.000Z</time>
      </trkpt>
      <trkpt lat="40.26639394462108612060546875" lon="-0.98078769631683826446533203125">
        <ele>1217.800048828125</ele>
        <time>2021-09-26T09:04:27.000Z</time>
      </trkpt>
      <trkpt lat="40.2663475088775157928466796875" lon="-0.98076120950281620025634765625">
        <ele>1218</ele>
        <time>2021-09-26T09:04:28.000Z</time>
      </trkpt>
      <trkpt lat="40.2663009054958820343017578125" lon="-0.98073271103203296661376953125">
        <ele>1218</ele>
        <time>2021-09-26T09:04:29.000Z</time>
      </trkpt>
      <trkpt lat="40.2662113867700099945068359375" lon="-0.98068024031817913055419921875">
        <ele>1218</ele>
        <time>2021-09-26T09:04:31.000Z</time>
      </trkpt>
      <trkpt lat="40.26611692272126674652099609375" lon="-0.98062491975724697113037109375">
        <ele>1218</ele>
        <time>2021-09-26T09:04:33.000Z</time>
      </trkpt>
      <trkpt lat="40.266070067882537841796875" lon="-0.98059474490582942962646484375">
        <ele>1218</ele>
        <time>2021-09-26T09:04:34.000Z</time>
      </trkpt>
      <trkpt lat="40.266022793948650360107421875" lon="-0.9805634804069995880126953125">
        <ele>1218</ele>
        <time>2021-09-26T09:04:35.000Z</time>
      </trkpt>
      <trkpt lat="40.2659264020621776580810546875" lon="-0.9805068187415599822998046875">
        <ele>1218</ele>
        <time>2021-09-26T09:04:37.000Z</time>
      </trkpt>
      <trkpt lat="40.265834368765354156494140625" lon="-0.98045359365642070770263671875">
        <ele>1218</ele>
        <time>2021-09-26T09:04:39.000Z</time>
      </trkpt>
      <trkpt lat="40.26574007235467433929443359375" lon="-0.9803955070674419403076171875">
        <ele>1218</ele>
        <time>2021-09-26T09:04:41.000Z</time>
      </trkpt>
      <trkpt lat="40.265647955238819122314453125" lon="-0.9803380072116851806640625">
        <ele>1218</ele>
        <time>2021-09-26T09:04:43.000Z</time>
      </trkpt>
      <trkpt lat="40.26555365882813930511474609375" lon="-0.9802845306694507598876953125">
        <ele>1218.199951171875</ele>
        <time>2021-09-26T09:04:45.000Z</time>
      </trkpt>
      <trkpt lat="40.26550470851361751556396484375" lon="-0.9802570380270481109619140625">
        <ele>1218.5999755859375</ele>
        <time>2021-09-26T09:04:46.000Z</time>
      </trkpt>
      <trkpt lat="40.2654580213129520416259765625" lon="-0.98022744990885257720947265625">
        <ele>1218.800048828125</ele>
        <time>2021-09-26T09:04:47.000Z</time>
      </trkpt>
      <trkpt lat="40.26536137796938419342041015625" lon="-0.98017062060534954071044921875">
        <ele>1219</ele>
        <time>2021-09-26T09:04:49.000Z</time>
      </trkpt>
      <trkpt lat="40.26526800356805324554443359375" lon="-0.9801113605499267578125">
        <ele>1219</ele>
        <time>2021-09-26T09:04:51.000Z</time>
      </trkpt>
      <trkpt lat="40.26517077349126338958740234375" lon="-0.9800552017986774444580078125">
        <ele>1219.199951171875</ele>
        <time>2021-09-26T09:04:53.000Z</time>
      </trkpt>
      <trkpt lat="40.26506968773901462554931640625" lon="-0.9799945168197154998779296875">
        <ele>1219.4000244140625</ele>
        <time>2021-09-26T09:04:55.000Z</time>
      </trkpt>
      <trkpt lat="40.26501889340579509735107421875" lon="-0.97996341995894908905029296875">
        <ele>1219.5999755859375</ele>
        <time>2021-09-26T09:04:56.000Z</time>
      </trkpt>
      <trkpt lat="40.26496675796806812286376953125" lon="-0.97993073053658008575439453125">
        <ele>1219.800048828125</ele>
        <time>2021-09-26T09:04:57.000Z</time>
      </trkpt>
      <trkpt lat="40.26486181654036045074462890625" lon="-0.97986618988215923309326171875">
        <ele>1220</ele>
        <time>2021-09-26T09:04:59.000Z</time>
      </trkpt>
      <trkpt lat="40.26475419290363788604736328125" lon="-0.9797990508377552032470703125">
        <ele>1220.4000244140625</ele>
        <time>2021-09-26T09:05:01.000Z</time>
      </trkpt>
      <trkpt lat="40.26464506052434444427490234375" lon="-0.97973023541271686553955078125">
        <ele>1221</ele>
        <time>2021-09-26T09:05:03.000Z</time>
      </trkpt>
      <trkpt lat="40.264533497393131256103515625" lon="-0.979663096368312835693359375">
        <ele>1221</ele>
        <time>2021-09-26T09:05:05.000Z</time>
      </trkpt>
      <trkpt lat="40.26447742246091365814208984375" lon="-0.97962780855596065521240234375">
        <ele>1220.199951171875</ele>
        <time>2021-09-26T09:05:06.000Z</time>
      </trkpt>
      <trkpt lat="40.26442428119480609893798828125" lon="-0.97959428094327449798583984375">
        <ele>1219.5999755859375</ele>
        <time>2021-09-26T09:05:07.000Z</time>
      </trkpt>
      <trkpt lat="40.2643110416829586029052734375" lon="-0.9795294888317584991455078125">
        <ele>1218.800048828125</ele>
        <time>2021-09-26T09:05:09.000Z</time>
      </trkpt>
      <trkpt lat="40.26419964618980884552001953125" lon="-0.9794634394347667694091796875">
        <ele>1218.5999755859375</ele>
        <time>2021-09-26T09:05:11.000Z</time>
      </trkpt>
      <trkpt lat="40.26408984325826168060302734375" lon="-0.97939722239971160888671875">
        <ele>1217.5999755859375</ele>
        <time>2021-09-26T09:05:13.000Z</time>
      </trkpt>
      <trkpt lat="40.2639767713844776153564453125" lon="-0.97932589240372180938720703125">
        <ele>1217</ele>
        <time>2021-09-26T09:05:15.000Z</time>
      </trkpt>
      <trkpt lat="40.26391985826194286346435546875" lon="-0.9792904369533061981201171875">
        <ele>1217</ele>
        <time>2021-09-26T09:05:16.000Z</time>
      </trkpt>
      <trkpt lat="40.26386101730167865753173828125" lon="-0.97925598733127117156982421875">
        <ele>1216.800048828125</ele>
        <time>2021-09-26T09:05:17.000Z</time>
      </trkpt>
      <trkpt lat="40.2637501247227191925048828125" lon="-0.9791865013539791107177734375">
        <ele>1215.5999755859375</ele>
        <time>2021-09-26T09:05:19.000Z</time>
      </trkpt>
      <trkpt lat="40.26363738812506198883056640625" lon="-0.9791229665279388427734375">
        <ele>1214.4000244140625</ele>
        <time>2021-09-26T09:05:21.000Z</time>
      </trkpt>
      <trkpt lat="40.263524316251277923583984375" lon="-0.9790621139109134674072265625">
        <ele>1213.199951171875</ele>
        <time>2021-09-26T09:05:23.000Z</time>
      </trkpt>
      <trkpt lat="40.26341342367231845855712890625" lon="-0.97899933345615863800048828125">
        <ele>1213.4000244140625</ele>
        <time>2021-09-26T09:05:25.000Z</time>
      </trkpt>
      <trkpt lat="40.26330026797950267791748046875" lon="-0.97893026657402515411376953125">
        <ele>1213.5999755859375</ele>
        <time>2021-09-26T09:05:27.000Z</time>
      </trkpt>
      <trkpt lat="40.26318577118217945098876953125" lon="-0.97886321134865283966064453125">
        <ele>1214</ele>
        <time>2021-09-26T09:05:29.000Z</time>
      </trkpt>
      <trkpt lat="40.26306976564228534698486328125" lon="-0.978795401751995086669921875">
        <ele>1215.199951171875</ele>
        <time>2021-09-26T09:05:31.000Z</time>
      </trkpt>
      <trkpt lat="40.2629525028169155120849609375" lon="-0.97873128019273281097412109375">
        <ele>1216.199951171875</ele>
        <time>2021-09-26T09:05:33.000Z</time>
      </trkpt>
      <trkpt lat="40.26283155195415019989013671875" lon="-0.9786654822528362274169921875">
        <ele>1216.800048828125</ele>
        <time>2021-09-26T09:05:35.000Z</time>
      </trkpt>
      <trkpt lat="40.26271395385265350341796875" lon="-0.978597588837146759033203125">
        <ele>1217.4000244140625</ele>
        <time>2021-09-26T09:05:37.000Z</time>
      </trkpt>
      <trkpt lat="40.2625944279134273529052734375" lon="-0.9785256721079349517822265625">
        <ele>1217.4000244140625</ele>
        <time>2021-09-26T09:05:39.000Z</time>
      </trkpt>
      <trkpt lat="40.26247347705066204071044921875" lon="-0.97845484502613544464111328125">
        <ele>1217.800048828125</ele>
        <time>2021-09-26T09:05:41.000Z</time>
      </trkpt>
      <trkpt lat="40.26235395111143589019775390625" lon="-0.97838259302079677581787109375">
        <ele>1217.5999755859375</ele>
        <time>2021-09-26T09:05:43.000Z</time>
      </trkpt>
      <trkpt lat="40.262293182313442230224609375" lon="-0.97834789194166660308837890625">
        <ele>1217.5999755859375</ele>
        <time>2021-09-26T09:05:44.000Z</time>
      </trkpt>
      <trkpt lat="40.26223383843898773193359375" lon="-0.9783131070435047149658203125">
        <ele>1217.4000244140625</ele>
        <time>2021-09-26T09:05:45.000Z</time>
      </trkpt>
      <trkpt lat="40.26211448013782501220703125" lon="-0.97824119031429290771484375">
        <ele>1217</ele>
        <time>2021-09-26T09:05:47.000Z</time>
      </trkpt>
      <trkpt lat="40.26199101470410823822021484375" lon="-0.97817237488925457000732421875">
        <ele>1216.4000244140625</ele>
        <time>2021-09-26T09:05:49.000Z</time>
      </trkpt>
      <trkpt lat="40.261867046356201171875" lon="-0.978102721273899078369140625">
        <ele>1216</ele>
        <time>2021-09-26T09:05:51.000Z</time>
      </trkpt>
      <trkpt lat="40.2617424912750720977783203125" lon="-0.97802602685987949371337890625">
        <ele>1215.4000244140625</ele>
        <time>2021-09-26T09:05:53.000Z</time>
      </trkpt>
      <trkpt lat="40.2616181038320064544677734375" lon="-0.977946482598781585693359375">
        <ele>1214.199951171875</ele>
        <time>2021-09-26T09:05:55.000Z</time>
      </trkpt>
      <trkpt lat="40.261491872370243072509765625" lon="-0.97787381149828433990478515625">
        <ele>1213.800048828125</ele>
        <time>2021-09-26T09:05:57.000Z</time>
      </trkpt>
      <trkpt lat="40.26136656291782855987548828125" lon="-0.97779619507491588592529296875">
        <ele>1213.4000244140625</ele>
        <time>2021-09-26T09:05:59.000Z</time>
      </trkpt>
      <trkpt lat="40.261234380304813385009765625" lon="-0.977719165384769439697265625">
        <ele>1213</ele>
        <time>2021-09-26T09:06:01.000Z</time>
      </trkpt>
      <trkpt lat="40.2611054666340351104736328125" lon="-0.97763878293335437774658203125">
        <ele>1212.199951171875</ele>
        <time>2021-09-26T09:06:03.000Z</time>
      </trkpt>
      <trkpt lat="40.26097697205841541290283203125" lon="-0.97756049595773220062255859375">
        <ele>1212</ele>
        <time>2021-09-26T09:06:05.000Z</time>
      </trkpt>
      <trkpt lat="40.26084554381668567657470703125" lon="-0.97748304717242717742919921875">
        <ele>1211.800048828125</ele>
        <time>2021-09-26T09:06:07.000Z</time>
      </trkpt>
      <trkpt lat="40.26071595959365367889404296875" lon="-0.977406017482280731201171875">
        <ele>1211.4000244140625</ele>
        <time>2021-09-26T09:06:09.000Z</time>
      </trkpt>
      <trkpt lat="40.26058503426611423492431640625" lon="-0.977328233420848846435546875">
        <ele>1211</ele>
        <time>2021-09-26T09:06:11.000Z</time>
      </trkpt>
      <trkpt lat="40.26051831431686878204345703125" lon="-0.977289341390132904052734375">
        <ele>1210.800048828125</ele>
        <time>2021-09-26T09:06:12.000Z</time>
      </trkpt>
      <trkpt lat="40.2604503370821475982666015625" lon="-0.97725036554038524627685546875">
        <ele>1210.800048828125</ele>
        <time>2021-09-26T09:06:13.000Z</time>
      </trkpt>
      <trkpt lat="40.26031949557363986968994140625" lon="-0.97717459313571453094482421875">
        <ele>1211</ele>
        <time>2021-09-26T09:06:15.000Z</time>
      </trkpt>
      <trkpt lat="40.2601878158748149871826171875" lon="-0.9770984016358852386474609375">
        <ele>1211.199951171875</ele>
        <time>2021-09-26T09:06:17.000Z</time>
      </trkpt>
      <trkpt lat="40.26005588471889495849609375" lon="-0.97702137194573879241943359375">
        <ele>1211.199951171875</ele>
        <time>2021-09-26T09:06:19.000Z</time>
      </trkpt>
      <trkpt lat="40.2599273063242435455322265625" lon="-0.9769411571323871612548828125">
        <ele>1211</ele>
        <time>2021-09-26T09:06:21.000Z</time>
      </trkpt>
      <trkpt lat="40.25979478843510150909423828125" lon="-0.97686597146093845367431640625">
        <ele>1210.800048828125</ele>
        <time>2021-09-26T09:06:23.000Z</time>
      </trkpt>
      <trkpt lat="40.2596634440124034881591796875" lon="-0.9767854213714599609375">
        <ele>1210.800048828125</ele>
        <time>2021-09-26T09:06:25.000Z</time>
      </trkpt>
      <trkpt lat="40.2595279924571514129638671875" lon="-0.97670587711036205291748046875">
        <ele>1209.800048828125</ele>
        <time>2021-09-26T09:06:27.000Z</time>
      </trkpt>
      <trkpt lat="40.25939329527318477630615234375" lon="-0.97662440501153469085693359375">
        <ele>1208.800048828125</ele>
        <time>2021-09-26T09:06:29.000Z</time>
      </trkpt>
      <trkpt lat="40.25932741351425647735595703125" lon="-0.9765847586095333099365234375">
        <ele>1208</ele>
        <time>2021-09-26T09:06:30.000Z</time>
      </trkpt>
      <trkpt lat="40.259262286126613616943359375" lon="-0.9765465371310710906982421875">
        <ele>1207.5999755859375</ele>
        <time>2021-09-26T09:06:31.000Z</time>
      </trkpt>
      <trkpt lat="40.25913194753229618072509765625" lon="-0.97647001035511493682861328125">
        <ele>1206.800048828125</ele>
        <time>2021-09-26T09:06:33.000Z</time>
      </trkpt>
      <trkpt lat="40.2590009383857250213623046875" lon="-0.97639306448400020599365234375">
        <ele>1206.4000244140625</ele>
        <time>2021-09-26T09:06:35.000Z</time>
      </trkpt>
      <trkpt lat="40.2588691748678684234619140625" lon="-0.9763148613274097442626953125">
        <ele>1206.4000244140625</ele>
        <time>2021-09-26T09:06:37.000Z</time>
      </trkpt>
      <trkpt lat="40.25873917154967784881591796875" lon="-0.97623984329402446746826171875">
        <ele>1206.800048828125</ele>
        <time>2021-09-26T09:06:39.000Z</time>
      </trkpt>
      <trkpt lat="40.25861595757305622100830078125" lon="-0.97616457380354404449462890625">
        <ele>1208</ele>
        <time>2021-09-26T09:06:41.000Z</time>
      </trkpt>
      <trkpt lat="40.25849475525319576263427734375" lon="-0.9760939143598079681396484375">
        <ele>1208.4000244140625</ele>
        <time>2021-09-26T09:06:43.000Z</time>
      </trkpt>
      <trkpt lat="40.258373133838176727294921875" lon="-0.9760288707911968231201171875">
        <ele>1209</ele>
        <time>2021-09-26T09:06:45.000Z</time>
      </trkpt>
      <trkpt lat="40.25825209915637969970703125" lon="-0.975956618785858154296875">
        <ele>1209</ele>
        <time>2021-09-26T09:06:47.000Z</time>
      </trkpt>
      <trkpt lat="40.2581292204558849334716796875" lon="-0.97588344477117061614990234375">
        <ele>1209.5999755859375</ele>
        <time>2021-09-26T09:06:49.000Z</time>
      </trkpt>
      <trkpt lat="40.258001647889614105224609375" lon="-0.9758062474429607391357421875">
        <ele>1209.800048828125</ele>
        <time>2021-09-26T09:06:51.000Z</time>
      </trkpt>
      <trkpt lat="40.2578730694949626922607421875" lon="-0.97572519443929195404052734375">
        <ele>1209.5999755859375</ele>
        <time>2021-09-26T09:06:53.000Z</time>
      </trkpt>
      <trkpt lat="40.25774474255740642547607421875" lon="-0.975650846958160400390625">
        <ele>1209.5999755859375</ele>
        <time>2021-09-26T09:06:55.000Z</time>
      </trkpt>
      <trkpt lat="40.25762119330465793609619140625" lon="-0.9755759127438068389892578125">
        <ele>1208.4000244140625</ele>
        <time>2021-09-26T09:06:57.000Z</time>
      </trkpt>
      <trkpt lat="40.25749580003321170806884765625" lon="-0.97550592385232448577880859375">
        <ele>1207.5999755859375</ele>
        <time>2021-09-26T09:06:59.000Z</time>
      </trkpt>
      <trkpt lat="40.25737409479916095733642578125" lon="-0.97543166019022464752197265625">
        <ele>1207</ele>
        <time>2021-09-26T09:07:01.000Z</time>
      </trkpt>
      <trkpt lat="40.2572538144886493682861328125" lon="-0.97535538487136363983154296875">
        <ele>1206.5999755859375</ele>
        <time>2021-09-26T09:07:03.000Z</time>
      </trkpt>
      <trkpt lat="40.25713051669299602508544921875" lon="-0.9752833843231201171875">
        <ele>1206.5999755859375</ele>
        <time>2021-09-26T09:07:05.000Z</time>
      </trkpt>
      <trkpt lat="40.25701023638248443603515625" lon="-0.9752111323177814483642578125">
        <ele>1206.5999755859375</ele>
        <time>2021-09-26T09:07:07.000Z</time>
      </trkpt>
      <trkpt lat="40.256893895566463470458984375" lon="-0.975139550864696502685546875">
        <ele>1207</ele>
        <time>2021-09-26T09:07:09.000Z</time>
      </trkpt>
      <trkpt lat="40.25678048841655254364013671875" lon="-0.9750733338296413421630859375">
        <ele>1207.4000244140625</ele>
        <time>2021-09-26T09:07:11.000Z</time>
      </trkpt>
      <trkpt lat="40.2566657401621341705322265625" lon="-0.97500518895685672760009765625">
        <ele>1207.800048828125</ele>
        <time>2021-09-26T09:07:13.000Z</time>
      </trkpt>
      <trkpt lat="40.25655291974544525146484375" lon="-0.9749388881027698516845703125">
        <ele>1208</ele>
        <time>2021-09-26T09:07:15.000Z</time>
      </trkpt>
      <trkpt lat="40.2564427815377712249755859375" lon="-0.97487292252480983734130859375">
        <ele>1208.800048828125</ele>
        <time>2021-09-26T09:07:17.000Z</time>
      </trkpt>
      <trkpt lat="40.25633457116782665252685546875" lon="-0.97480720840394496917724609375">
        <ele>1209.5999755859375</ele>
        <time>2021-09-26T09:07:19.000Z</time>
      </trkpt>
      <trkpt lat="40.256224684417247772216796875" lon="-0.97474534995853900909423828125">
        <ele>1210</ele>
        <time>2021-09-26T09:07:21.000Z</time>
      </trkpt>
      <trkpt lat="40.25611496530473232269287109375" lon="-0.974684245884418487548828125">
        <ele>1210.199951171875</ele>
        <time>2021-09-26T09:07:23.000Z</time>
      </trkpt>
      <trkpt lat="40.2560092695057392120361328125" lon="-0.9746230579912662506103515625">
        <ele>1210.4000244140625</ele>
        <time>2021-09-26T09:07:25.000Z</time>
      </trkpt>
      <trkpt lat="40.25590390898287296295166015625" lon="-0.97456295974552631378173828125">
        <ele>1211</ele>
        <time>2021-09-26T09:07:27.000Z</time>
      </trkpt>
      <trkpt lat="40.25585093535482883453369140625" lon="-0.97453244961798191070556640625">
        <ele>1211.199951171875</ele>
        <time>2021-09-26T09:07:28.000Z</time>
      </trkpt>
      <trkpt lat="40.255796201527118682861328125" lon="-0.97450244240462779998779296875">
        <ele>1211.5999755859375</ele>
        <time>2021-09-26T09:07:29.000Z</time>
      </trkpt>
      <trkpt lat="40.25568463839590549468994140625" lon="-0.974456928670406341552734375">
        <ele>1212.800048828125</ele>
        <time>2021-09-26T09:07:31.000Z</time>
      </trkpt>
      <trkpt lat="40.25557667948305606842041015625" lon="-0.97441661171615123748779296875">
        <ele>1213.800048828125</ele>
        <time>2021-09-26T09:07:33.000Z</time>
      </trkpt>
      <trkpt lat="40.2555234543979167938232421875" lon="-0.97439012490212917327880859375">
        <ele>1214</ele>
        <time>2021-09-26T09:07:34.000Z</time>
      </trkpt>
      <trkpt lat="40.255468972027301788330078125" lon="-0.974360369145870208740234375">
        <ele>1214.199951171875</ele>
        <time>2021-09-26T09:07:35.000Z</time>
      </trkpt>
      <trkpt lat="40.25536042638123035430908203125" lon="-0.9743085689842700958251953125">
        <ele>1214.4000244140625</ele>
        <time>2021-09-26T09:07:37.000Z</time>
      </trkpt>
      <trkpt lat="40.25525799952447414398193359375" lon="-0.97424847073853015899658203125">
        <ele>1214.5999755859375</ele>
        <time>2021-09-26T09:07:39.000Z</time>
      </trkpt>
      <trkpt lat="40.255205444991588592529296875" lon="-0.97421896643936634063720703125">
        <ele>1214.800048828125</ele>
        <time>2021-09-26T09:07:40.000Z</time>
      </trkpt>
      <trkpt lat="40.25515255518257617950439453125" lon="-0.9741935692727565765380859375">
        <ele>1214.5999755859375</ele>
        <time>2021-09-26T09:07:41.000Z</time>
      </trkpt>
      <trkpt lat="40.25504711084067821502685546875" lon="-0.97412659786641597747802734375">
        <ele>1214.4000244140625</ele>
        <time>2021-09-26T09:07:43.000Z</time>
      </trkpt>
      <trkpt lat="40.25499598123133182525634765625" lon="-0.974092148244380950927734375">
        <ele>1214.199951171875</ele>
        <time>2021-09-26T09:07:44.000Z</time>
      </trkpt>
      <trkpt lat="40.2549410797655582427978515625" lon="-0.9740618057548999786376953125">
        <ele>1214.199951171875</ele>
        <time>2021-09-26T09:07:45.000Z</time>
      </trkpt>
      <trkpt lat="40.25488969869911670684814453125" lon="-0.97403020597994327545166015625">
        <ele>1214</ele>
        <time>2021-09-26T09:07:46.000Z</time>
      </trkpt>
      <trkpt lat="40.2548364736139774322509765625" lon="-0.97399801947176456451416015625">
        <ele>1214</ele>
        <time>2021-09-26T09:07:47.000Z</time>
      </trkpt>
      <trkpt lat="40.25473077781498432159423828125" lon="-0.9739374183118343353271484375">
        <ele>1213.800048828125</ele>
        <time>2021-09-26T09:07:49.000Z</time>
      </trkpt>
      <trkpt lat="40.25462952442467212677001953125" lon="-0.97387447021901607513427734375">
        <ele>1213.5999755859375</ele>
        <time>2021-09-26T09:07:51.000Z</time>
      </trkpt>
      <trkpt lat="40.25452240370213985443115234375" lon="-0.97381596453487873077392578125">
        <ele>1213.800048828125</ele>
        <time>2021-09-26T09:07:53.000Z</time>
      </trkpt>
      <trkpt lat="40.254471190273761749267578125" lon="-0.97378092817962169647216796875">
        <ele>1213.800048828125</ele>
        <time>2021-09-26T09:07:54.000Z</time>
      </trkpt>
      <trkpt lat="40.25442098267376422882080078125" lon="-0.97374505363404750823974609375">
        <ele>1213.800048828125</ele>
        <time>2021-09-26T09:07:55.000Z</time>
      </trkpt>
      <trkpt lat="40.25431604124605655670166015625" lon="-0.973684452474117279052734375">
        <ele>1214</ele>
        <time>2021-09-26T09:07:57.000Z</time>
      </trkpt>
      <trkpt lat="40.254213027656078338623046875" lon="-0.9736190736293792724609375">
        <ele>1214</ele>
        <time>2021-09-26T09:07:59.000Z</time>
      </trkpt>
      <trkpt lat="40.254110433161258697509765625" lon="-0.973556376993656158447265625">
        <ele>1213.4000244140625</ele>
        <time>2021-09-26T09:08:01.000Z</time>
      </trkpt>
      <trkpt lat="40.254056453704833984375" lon="-0.9735183231532573699951171875">
        <ele>1213</ele>
        <time>2021-09-26T09:08:02.000Z</time>
      </trkpt>
      <trkpt lat="40.2540026418864727020263671875" lon="-0.97348370589315891265869140625">
        <ele>1212.800048828125</ele>
        <time>2021-09-26T09:08:03.000Z</time>
      </trkpt>
      <trkpt lat="40.25389711372554302215576171875" lon="-0.973414890468120574951171875">
        <ele>1212.199951171875</ele>
        <time>2021-09-26T09:08:05.000Z</time>
      </trkpt>
      <trkpt lat="40.25378479622304439544677734375" lon="-0.97334406338632106781005859375">
        <ele>1210.800048828125</ele>
        <time>2021-09-26T09:08:07.000Z</time>
      </trkpt>
      <trkpt lat="40.25367482565343379974365234375" lon="-0.97327105700969696044921875">
        <ele>1209.5999755859375</ele>
        <time>2021-09-26T09:08:09.000Z</time>
      </trkpt>
      <trkpt lat="40.253560580313205718994140625" lon="-0.973198972642421722412109375">
        <ele>1208.199951171875</ele>
        <time>2021-09-26T09:08:11.000Z</time>
      </trkpt>
      <trkpt lat="40.2534467540681362152099609375" lon="-0.9731253795325756072998046875">
        <ele>1207.199951171875</ele>
        <time>2021-09-26T09:08:13.000Z</time>
      </trkpt>
      <trkpt lat="40.25333334691822528839111328125" lon="-0.97304231487214565277099609375">
        <ele>1206.4000244140625</ele>
        <time>2021-09-26T09:08:15.000Z</time>
      </trkpt>
      <trkpt lat="40.25321851484477519989013671875" lon="-0.972974002361297607421875">
        <ele>1206.199951171875</ele>
        <time>2021-09-26T09:08:17.000Z</time>
      </trkpt>
      <trkpt lat="40.25310334749519824981689453125" lon="-0.97290334291756153106689453125">
        <ele>1205.4000244140625</ele>
        <time>2021-09-26T09:08:19.000Z</time>
      </trkpt>
      <trkpt lat="40.2529911138117313385009765625" lon="-0.9728357009589672088623046875">
        <ele>1204.4000244140625</ele>
        <time>2021-09-26T09:08:21.000Z</time>
      </trkpt>
      <trkpt lat="40.25287485681474208831787109375" lon="-0.97277074120938777923583984375">
        <ele>1204.4000244140625</ele>
        <time>2021-09-26T09:08:23.000Z</time>
      </trkpt>
      <trkpt lat="40.252759270370006561279296875" lon="-0.97270242869853973388671875">
        <ele>1204.800048828125</ele>
        <time>2021-09-26T09:08:25.000Z</time>
      </trkpt>
      <trkpt lat="40.25264536030590534210205078125" lon="-0.972629003226757049560546875">
        <ele>1206</ele>
        <time>2021-09-26T09:08:27.000Z</time>
      </trkpt>
      <trkpt lat="40.25252558290958404541015625" lon="-0.9725601039826869964599609375">
        <ele>1207.4000244140625</ele>
        <time>2021-09-26T09:08:29.000Z</time>
      </trkpt>
      <trkpt lat="40.2524070627987384796142578125" lon="-0.97249246202409267425537109375">
        <ele>1209.199951171875</ele>
        <time>2021-09-26T09:08:31.000Z</time>
      </trkpt>
      <trkpt lat="40.25234998203814029693603515625" lon="-0.97246027551591396331787109375">
        <ele>1209.5999755859375</ele>
        <time>2021-09-26T09:08:32.000Z</time>
      </trkpt>
      <trkpt lat="40.252291224896907806396484375" lon="-0.97242875955998897552490234375">
        <ele>1210</ele>
        <time>2021-09-26T09:08:33.000Z</time>
      </trkpt>
      <trkpt lat="40.252175889909267425537109375" lon="-0.972364135086536407470703125">
        <ele>1210.800048828125</ele>
        <time>2021-09-26T09:08:35.000Z</time>
      </trkpt>
      <trkpt lat="40.2520560286939144134521484375" lon="-0.972298085689544677734375">
        <ele>1211</ele>
        <time>2021-09-26T09:08:37.000Z</time>
      </trkpt>
      <trkpt lat="40.25193440727889537811279296875" lon="-0.9722311981022357940673828125">
        <ele>1210.800048828125</ele>
        <time>2021-09-26T09:08:39.000Z</time>
      </trkpt>
      <trkpt lat="40.251813791692256927490234375" lon="-0.97215752117335796356201171875">
        <ele>1210</ele>
        <time>2021-09-26T09:08:41.000Z</time>
      </trkpt>
      <trkpt lat="40.25169015862047672271728515625" lon="-0.97208627499639987945556640625">
        <ele>1209.4000244140625</ele>
        <time>2021-09-26T09:08:43.000Z</time>
      </trkpt>
      <trkpt lat="40.251569710671901702880859375" lon="-0.972014777362346649169921875">
        <ele>1208.800048828125</ele>
        <time>2021-09-26T09:08:45.000Z</time>
      </trkpt>
      <trkpt lat="40.25144624523818492889404296875" lon="-0.971943028271198272705078125">
        <ele>1208.5999755859375</ele>
        <time>2021-09-26T09:08:47.000Z</time>
      </trkpt>
      <trkpt lat="40.25132118724286556243896484375" lon="-0.97186398692429065704345703125">
        <ele>1208.199951171875</ele>
        <time>2021-09-26T09:08:49.000Z</time>
      </trkpt>
      <trkpt lat="40.25119428522884845733642578125" lon="-0.97179173491895198822021484375">
        <ele>1207.5999755859375</ele>
        <time>2021-09-26T09:08:51.000Z</time>
      </trkpt>
      <trkpt lat="40.2510644495487213134765625" lon="-0.97171210683882236480712890625">
        <ele>1206.800048828125</ele>
        <time>2021-09-26T09:08:53.000Z</time>
      </trkpt>
      <trkpt lat="40.25093729607760906219482421875" lon="-0.971632897853851318359375">
        <ele>1206</ele>
        <time>2021-09-26T09:08:55.000Z</time>
      </trkpt>
      <trkpt lat="40.25081139989197254180908203125" lon="-0.971550084650516510009765625">
        <ele>1204.5999755859375</ele>
        <time>2021-09-26T09:08:57.000Z</time>
      </trkpt>
      <trkpt lat="40.2506760321557521820068359375" lon="-0.97145914100110530853271484375">
        <ele>1203.800048828125</ele>
        <time>2021-09-26T09:08:59.000Z</time>
      </trkpt>
      <trkpt lat="40.25053680874407291412353515625" lon="-0.971372388303279876708984375">
        <ele>1203.199951171875</ele>
        <time>2021-09-26T09:09:01.000Z</time>
      </trkpt>
      <trkpt lat="40.2504684962332248687744140625" lon="-0.97132955677807331085205078125">
        <ele>1202.5999755859375</ele>
        <time>2021-09-26T09:09:02.000Z</time>
      </trkpt>
      <trkpt lat="40.250400602817535400390625" lon="-0.9712857194244861602783203125">
        <ele>1202.199951171875</ele>
        <time>2021-09-26T09:09:03.000Z</time>
      </trkpt>
      <trkpt lat="40.250265486538410186767578125" lon="-0.971205420792102813720703125">
        <ele>1201</ele>
        <time>2021-09-26T09:09:05.000Z</time>
      </trkpt>
      <trkpt lat="40.2501271851360797882080078125" lon="-0.9711210988461971282958984375">
        <ele>1200.199951171875</ele>
        <time>2021-09-26T09:09:07.000Z</time>
      </trkpt>
      <trkpt lat="40.24998913519084453582763671875" lon="-0.97103954292833805084228515625">
        <ele>1200</ele>
        <time>2021-09-26T09:09:09.000Z</time>
      </trkpt>
      <trkpt lat="40.2498529292643070220947265625" lon="-0.97095723263919353485107421875">
        <ele>1200.5999755859375</ele>
        <time>2021-09-26T09:09:11.000Z</time>
      </trkpt>
      <trkpt lat="40.24971839971840381622314453125" lon="-0.97087257541716098785400390625">
        <ele>1201.199951171875</ele>
        <time>2021-09-26T09:09:13.000Z</time>
      </trkpt>
      <trkpt lat="40.24958328343927860260009765625" lon="-0.9707918576896190643310546875">
        <ele>1201.800048828125</ele>
        <time>2021-09-26T09:09:15.000Z</time>
      </trkpt>
      <trkpt lat="40.2494502626359462738037109375" lon="-0.9707090444862842559814453125">
        <ele>1201.199951171875</ele>
        <time>2021-09-26T09:09:17.000Z</time>
      </trkpt>
      <trkpt lat="40.2493183314800262451171875" lon="-0.97062497399747371673583984375">
        <ele>1200.800048828125</ele>
        <time>2021-09-26T09:09:19.000Z</time>
      </trkpt>
      <trkpt lat="40.2491823770105838775634765625" lon="-0.9705387242138385772705078125">
        <ele>1200.4000244140625</ele>
        <time>2021-09-26T09:09:21.000Z</time>
      </trkpt>
      <trkpt lat="40.24904080666601657867431640625" lon="-0.970449037849903106689453125">
        <ele>1200.4000244140625</ele>
        <time>2021-09-26T09:09:23.000Z</time>
      </trkpt>
      <trkpt lat="40.24889613501727581024169921875" lon="-0.97036421298980712890625">
        <ele>1200.800048828125</ele>
        <time>2021-09-26T09:09:25.000Z</time>
      </trkpt>
      <trkpt lat="40.2487550675868988037109375" lon="-0.97027712501585483551025390625">
        <ele>1201.4000244140625</ele>
        <time>2021-09-26T09:09:27.000Z</time>
      </trkpt>
      <trkpt lat="40.2486102283000946044921875" lon="-0.97018961794674396514892578125">
        <ele>1202</ele>
        <time>2021-09-26T09:09:29.000Z</time>
      </trkpt>
      <trkpt lat="40.24846329353749752044677734375" lon="-0.97010294906795024871826171875">
        <ele>1201.800048828125</ele>
        <time>2021-09-26T09:09:31.000Z</time>
      </trkpt>
      <trkpt lat="40.2483901195228099822998046875" lon="-0.970058776438236236572265625">
        <ele>1201.4000244140625</ele>
        <time>2021-09-26T09:09:32.000Z</time>
      </trkpt>
      <trkpt lat="40.24831929244101047515869140625" lon="-0.97001292742788791656494140625">
        <ele>1201.4000244140625</ele>
        <time>2021-09-26T09:09:33.000Z</time>
      </trkpt>
      <trkpt lat="40.24817462079226970672607421875" lon="-0.9699288569390773773193359375">
        <ele>1201.5999755859375</ele>
        <time>2021-09-26T09:09:35.000Z</time>
      </trkpt>
      <trkpt lat="40.248025842010974884033203125" lon="-0.96984042786061763763427734375">
        <ele>1201.800048828125</ele>
        <time>2021-09-26T09:09:37.000Z</time>
      </trkpt>
      <trkpt lat="40.24787035770714282989501953125" lon="-0.96975074149668216705322265625">
        <ele>1202</ele>
        <time>2021-09-26T09:09:39.000Z</time>
      </trkpt>
      <trkpt lat="40.24771034717559814453125" lon="-0.9696546010673046112060546875">
        <ele>1202.199951171875</ele>
        <time>2021-09-26T09:09:41.000Z</time>
      </trkpt>
      <trkpt lat="40.24755679070949554443359375" lon="-0.96955728717148303985595703125">
        <ele>1203</ele>
        <time>2021-09-26T09:09:43.000Z</time>
      </trkpt>
      <trkpt lat="40.24740901775658130645751953125" lon="-0.9694683551788330078125">
        <ele>1203.199951171875</ele>
        <time>2021-09-26T09:09:45.000Z</time>
      </trkpt>
      <trkpt lat="40.24726334027945995330810546875" lon="-0.96937322057783603668212890625">
        <ele>1202.5999755859375</ele>
        <time>2021-09-26T09:09:47.000Z</time>
      </trkpt>
      <trkpt lat="40.24711959064006805419921875" lon="-0.96928185783326625823974609375">
        <ele>1201.800048828125</ele>
        <time>2021-09-26T09:09:49.000Z</time>
      </trkpt>
      <trkpt lat="40.24697030894458293914794921875" lon="-0.96918948926031589508056640625">
        <ele>1201</ele>
        <time>2021-09-26T09:09:51.000Z</time>
      </trkpt>
      <trkpt lat="40.2468240447342395782470703125" lon="-0.969102568924427032470703125">
        <ele>1200.4000244140625</ele>
        <time>2021-09-26T09:09:53.000Z</time>
      </trkpt>
      <trkpt lat="40.24668331257998943328857421875" lon="-0.9690159000456333160400390625">
        <ele>1200.5999755859375</ele>
        <time>2021-09-26T09:09:55.000Z</time>
      </trkpt>
      <trkpt lat="40.24654936976730823516845703125" lon="-0.9689319133758544921875">
        <ele>1200.800048828125</ele>
        <time>2021-09-26T09:09:57.000Z</time>
      </trkpt>
      <trkpt lat="40.24648818187415599822998046875" lon="-0.968891680240631103515625">
        <ele>1201.199951171875</ele>
        <time>2021-09-26T09:09:58.000Z</time>
      </trkpt>
      <trkpt lat="40.24642749689519405364990234375" lon="-0.9688516147434711456298828125">
        <ele>1201.800048828125</ele>
        <time>2021-09-26T09:09:59.000Z</time>
      </trkpt>
      <trkpt lat="40.24630528874695301055908203125" lon="-0.96878196112811565399169921875">
        <ele>1203.199951171875</ele>
        <time>2021-09-26T09:10:01.000Z</time>
      </trkpt>
      <trkpt lat="40.2461840026080608367919921875" lon="-0.96871490590274333953857421875">
        <ele>1203.800048828125</ele>
        <time>2021-09-26T09:10:03.000Z</time>
      </trkpt>
      <trkpt lat="40.24606053717434406280517578125" lon="-0.96864650957286357879638671875">
        <ele>1204.199951171875</ele>
        <time>2021-09-26T09:10:05.000Z</time>
      </trkpt>
      <trkpt lat="40.24594168178737163543701171875" lon="-0.9685780294239521026611328125">
        <ele>1203.800048828125</ele>
        <time>2021-09-26T09:10:07.000Z</time>
      </trkpt>
      <trkpt lat="40.245828442275524139404296875" lon="-0.96851457841694355010986328125">
        <ele>1204.5999755859375</ele>
        <time>2021-09-26T09:10:09.000Z</time>
      </trkpt>
      <trkpt lat="40.2457134425640106201171875" lon="-0.9684479422867298126220703125">
        <ele>1205</ele>
        <time>2021-09-26T09:10:11.000Z</time>
      </trkpt>
      <trkpt lat="40.245657451450824737548828125" lon="-0.96841759979724884033203125">
        <ele>1204.800048828125</ele>
        <time>2021-09-26T09:10:12.000Z</time>
      </trkpt>
      <trkpt lat="40.24559953249990940093994140625" lon="-0.96838767640292644500732421875">
        <ele>1204.800048828125</ele>
        <time>2021-09-26T09:10:13.000Z</time>
      </trkpt>
      <trkpt lat="40.2454856224358081817626953125" lon="-0.96833135001361370086669921875">
        <ele>1205</ele>
        <time>2021-09-26T09:10:15.000Z</time>
      </trkpt>
      <trkpt lat="40.2453776635229587554931640625" lon="-0.96827183850109577178955078125">
        <ele>1205.4000244140625</ele>
        <time>2021-09-26T09:10:17.000Z</time>
      </trkpt>
      <trkpt lat="40.24526827968657016754150390625" lon="-0.96821685321629047393798828125">
        <ele>1206.4000244140625</ele>
        <time>2021-09-26T09:10:19.000Z</time>
      </trkpt>
      <trkpt lat="40.24515965022146701812744140625" lon="-0.9681693278253078460693359375">
        <ele>1207.199951171875</ele>
        <time>2021-09-26T09:10:21.000Z</time>
      </trkpt>
      <trkpt lat="40.24504884146153926849365234375" lon="-0.96813001669943332672119140625">
        <ele>1207.4000244140625</ele>
        <time>2021-09-26T09:10:23.000Z</time>
      </trkpt>
      <trkpt lat="40.244993604719638824462890625" lon="-0.9681103192269802093505859375">
        <ele>1207.4000244140625</ele>
        <time>2021-09-26T09:10:24.000Z</time>
      </trkpt>
      <trkpt lat="40.24493937380611896514892578125" lon="-0.968092046678066253662109375">
        <ele>1207.5999755859375</ele>
        <time>2021-09-26T09:10:25.000Z</time>
      </trkpt>
      <trkpt lat="40.24483040906488895416259765625" lon="-0.96806178800761699676513671875">
        <ele>1207.5999755859375</ele>
        <time>2021-09-26T09:10:27.000Z</time>
      </trkpt>
      <trkpt lat="40.24471976794302463531494140625" lon="-0.968023650348186492919921875">
        <ele>1207.4000244140625</ele>
        <time>2021-09-26T09:10:29.000Z</time>
      </trkpt>
      <trkpt lat="40.24466696195304393768310546875" lon="-0.96800814382731914520263671875">
        <ele>1207.4000244140625</ele>
        <time>2021-09-26T09:10:30.000Z</time>
      </trkpt>
      <trkpt lat="40.24461348541080951690673828125" lon="-0.96799138002097606658935546875">
        <ele>1207.199951171875</ele>
        <time>2021-09-26T09:10:31.000Z</time>
      </trkpt>
      <trkpt lat="40.24450435303151607513427734375" lon="-0.967957265675067901611328125">
        <ele>1206.199951171875</ele>
        <time>2021-09-26T09:10:33.000Z</time>
      </trkpt>
      <trkpt lat="40.24439170025289058685302734375" lon="-0.96793890930712223052978515625">
        <ele>1205.4000244140625</ele>
        <time>2021-09-26T09:10:35.000Z</time>
      </trkpt>
      <trkpt lat="40.24428206495940685272216796875" lon="-0.9679202176630496978759765625">
        <ele>1204.800048828125</ele>
        <time>2021-09-26T09:10:37.000Z</time>
      </trkpt>
      <trkpt lat="40.24417184293270111083984375" lon="-0.9679024480283260345458984375">
        <ele>1204.199951171875</ele>
        <time>2021-09-26T09:10:39.000Z</time>
      </trkpt>
      <trkpt lat="40.244057178497314453125" lon="-0.9678923897445201873779296875">
        <ele>1203.800048828125</ele>
        <time>2021-09-26T09:10:41.000Z</time>
      </trkpt>
      <trkpt lat="40.243948213756084442138671875" lon="-0.96787822432816028594970703125">
        <ele>1203.5999755859375</ele>
        <time>2021-09-26T09:10:43.000Z</time>
      </trkpt>
      <trkpt lat="40.24383815936744213104248046875" lon="-0.9678712673485279083251953125">
        <ele>1203.4000244140625</ele>
        <time>2021-09-26T09:10:45.000Z</time>
      </trkpt>
      <trkpt lat="40.2437371574342250823974609375" lon="-0.96786095760762691497802734375">
        <ele>1202.800048828125</ele>
        <time>2021-09-26T09:10:47.000Z</time>
      </trkpt>
      <trkpt lat="40.24365291930735111236572265625" lon="-0.96785701811313629150390625">
        <ele>1202.4000244140625</ele>
        <time>2021-09-26T09:10:49.000Z</time>
      </trkpt>
      <trkpt lat="40.24357094429433345794677734375" lon="-0.96786648966372013092041015625">
        <ele>1202.199951171875</ele>
        <time>2021-09-26T09:10:51.000Z</time>
      </trkpt>
      <trkpt lat="40.2435081638395786285400390625" lon="-0.96787621267139911651611328125">
        <ele>1202.4000244140625</ele>
        <time>2021-09-26T09:10:53.000Z</time>
      </trkpt>
      <trkpt lat="40.24345711804926395416259765625" lon="-0.96788157708942890167236328125">
        <ele>1202.4000244140625</ele>
        <time>2021-09-26T09:10:55.000Z</time>
      </trkpt>
      <trkpt lat="40.24343289434909820556640625" lon="-0.96788090653717517852783203125">
        <ele>1202.199951171875</ele>
        <time>2021-09-26T09:10:56.000Z</time>
      </trkpt>
      <trkpt lat="40.24340313859283924102783203125" lon="-0.96788442693650722503662109375">
        <ele>1202.199951171875</ele>
        <time>2021-09-26T09:10:57.000Z</time>
      </trkpt>
      <trkpt lat="40.243335328996181488037109375" lon="-0.96790001727640628814697265625">
        <ele>1202.199951171875</ele>
        <time>2021-09-26T09:10:59.000Z</time>
      </trkpt>
      <trkpt lat="40.24326249025762081146240234375" lon="-0.96790521405637264251708984375">
        <ele>1202</ele>
        <time>2021-09-26T09:11:01.000Z</time>
      </trkpt>
      <trkpt lat="40.2432261966168880462646484375" lon="-0.96791678108274936676025390625">
        <ele>1202</ele>
        <time>2021-09-26T09:11:02.000Z</time>
      </trkpt>
      <trkpt lat="40.2431896515190601348876953125" lon="-0.9679234027862548828125">
        <ele>1202.199951171875</ele>
        <time>2021-09-26T09:11:03.000Z</time>
      </trkpt>
      <trkpt lat="40.24311840534210205078125" lon="-0.9679393284022808074951171875">
        <ele>1202.4000244140625</ele>
        <time>2021-09-26T09:11:05.000Z</time>
      </trkpt>
      <trkpt lat="40.243046991527080535888671875" lon="-0.96795902587473392486572265625">
        <ele>1202.5999755859375</ele>
        <time>2021-09-26T09:11:07.000Z</time>
      </trkpt>
      <trkpt lat="40.24297197349369525909423828125" lon="-0.9679829142987728118896484375">
        <ele>1202.800048828125</ele>
        <time>2021-09-26T09:11:09.000Z</time>
      </trkpt>
      <trkpt lat="40.24289737455546855926513671875" lon="-0.9680100716650485992431640625">
        <ele>1202.4000244140625</ele>
        <time>2021-09-26T09:11:11.000Z</time>
      </trkpt>
      <trkpt lat="40.24285881780087947845458984375" lon="-0.96802675165235996246337890625">
        <ele>1202.4000244140625</ele>
        <time>2021-09-26T09:11:12.000Z</time>
      </trkpt>
      <trkpt lat="40.2428198419511318206787109375" lon="-0.96803999505937099456787109375">
        <ele>1202.4000244140625</ele>
        <time>2021-09-26T09:11:13.000Z</time>
      </trkpt>
      <trkpt lat="40.242738537490367889404296875" lon="-0.96807871945202350616455078125">
        <ele>1202.4000244140625</ele>
        <time>2021-09-26T09:11:15.000Z</time>
      </trkpt>
      <trkpt lat="40.24265597574412822723388671875" lon="-0.9681170247495174407958984375">
        <ele>1202.199951171875</ele>
        <time>2021-09-26T09:11:17.000Z</time>
      </trkpt>
      <trkpt lat="40.24261347949504852294921875" lon="-0.9681366384029388427734375">
        <ele>1202</ele>
        <time>2021-09-26T09:11:18.000Z</time>
      </trkpt>
      <trkpt lat="40.24257148616015911102294921875" lon="-0.96815742552280426025390625">
        <ele>1201.800048828125</ele>
        <time>2021-09-26T09:11:19.000Z</time>
      </trkpt>
      <trkpt lat="40.24248682893812656402587890625" lon="-0.9682008437812328338623046875">
        <ele>1201.5999755859375</ele>
        <time>2021-09-26T09:11:21.000Z</time>
      </trkpt>
      <trkpt lat="40.24240099824965000152587890625" lon="-0.968253314495086669921875">
        <ele>1201.5999755859375</ele>
        <time>2021-09-26T09:11:23.000Z</time>
      </trkpt>
      <trkpt lat="40.24231466464698314666748046875" lon="-0.96830721013247966766357421875">
        <ele>1201.4000244140625</ele>
        <time>2021-09-26T09:11:25.000Z</time>
      </trkpt>
      <trkpt lat="40.24227124638855457305908203125" lon="-0.968334786593914031982421875">
        <ele>1201.5999755859375</ele>
        <time>2021-09-26T09:11:26.000Z</time>
      </trkpt>
      <trkpt lat="40.24222900159657001495361328125" lon="-0.96836202777922153472900390625">
        <ele>1201.5999755859375</ele>
        <time>2021-09-26T09:11:27.000Z</time>
      </trkpt>
      <trkpt lat="40.24214208126068115234375" lon="-0.96841952763497829437255859375">
        <ele>1201.5999755859375</ele>
        <time>2021-09-26T09:11:29.000Z</time>
      </trkpt>
      <trkpt lat="40.24205801077187061309814453125" lon="-0.9684797935187816619873046875">
        <ele>1200.800048828125</ele>
        <time>2021-09-26T09:11:31.000Z</time>
      </trkpt>
      <trkpt lat="40.241973102092742919921875" lon="-0.968536622822284698486328125">
        <ele>1199.800048828125</ele>
        <time>2021-09-26T09:11:33.000Z</time>
      </trkpt>
      <trkpt lat="40.24193060584366321563720703125" lon="-0.96856780350208282470703125">
        <ele>1199.199951171875</ele>
        <time>2021-09-26T09:11:34.000Z</time>
      </trkpt>
      <trkpt lat="40.241890288889408111572265625" lon="-0.96860133111476898193359375">
        <ele>1198.800048828125</ele>
        <time>2021-09-26T09:11:35.000Z</time>
      </trkpt>
      <trkpt lat="40.2418042905628681182861328125" lon="-0.96866696141660213470458984375">
        <ele>1198.199951171875</ele>
        <time>2021-09-26T09:11:37.000Z</time>
      </trkpt>
      <trkpt lat="40.2417191304266452789306640625" lon="-0.9687386266887187957763671875">
        <ele>1197.800048828125</ele>
        <time>2021-09-26T09:11:39.000Z</time>
      </trkpt>
      <trkpt lat="40.24163472466170787811279296875" lon="-0.96882135607302188873291015625">
        <ele>1198.199951171875</ele>
        <time>2021-09-26T09:11:41.000Z</time>
      </trkpt>
      <trkpt lat="40.2415930666029453277587890625" lon="-0.9688633494079113006591796875">
        <ele>1198.4000244140625</ele>
        <time>2021-09-26T09:11:42.000Z</time>
      </trkpt>
      <trkpt lat="40.2415531687438488006591796875" lon="-0.96890215761959552764892578125">
        <ele>1198.4000244140625</ele>
        <time>2021-09-26T09:11:43.000Z</time>
      </trkpt>
      <trkpt lat="40.241479575634002685546875" lon="-0.96897549927234649658203125">
        <ele>1198.5999755859375</ele>
        <time>2021-09-26T09:11:45.000Z</time>
      </trkpt>
      <trkpt lat="40.24140514433383941650390625" lon="-0.96904884092509746551513671875">
        <ele>1199</ele>
        <time>2021-09-26T09:11:47.000Z</time>
      </trkpt>
      <trkpt lat="40.2413315512239933013916015625" lon="-0.9691198356449604034423828125">
        <ele>1199.199951171875</ele>
        <time>2021-09-26T09:11:49.000Z</time>
      </trkpt>
      <trkpt lat="40.2412929944694042205810546875" lon="-0.969156883656978607177734375">
        <ele>1199.4000244140625</ele>
        <time>2021-09-26T09:11:50.000Z</time>
      </trkpt>
      <trkpt lat="40.24125267751514911651611328125" lon="-0.96919166855514049530029296875">
        <ele>1199.5999755859375</ele>
        <time>2021-09-26T09:11:51.000Z</time>
      </trkpt>
      <trkpt lat="40.2411769889295101165771484375" lon="-0.9692629985511302947998046875">
        <ele>1200.199951171875</ele>
        <time>2021-09-26T09:11:53.000Z</time>
      </trkpt>
      <trkpt lat="40.24110314436256885528564453125" lon="-0.96934053115546703338623046875">
        <ele>1200.5999755859375</ele>
        <time>2021-09-26T09:11:55.000Z</time>
      </trkpt>
      <trkpt lat="40.241025276482105255126953125" lon="-0.96941538155078887939453125">
        <ele>1200.800048828125</ele>
        <time>2021-09-26T09:11:57.000Z</time>
      </trkpt>
      <trkpt lat="40.240952856838703155517578125" lon="-0.96948780119419097900390625">
        <ele>1201.4000244140625</ele>
        <time>2021-09-26T09:11:59.000Z</time>
      </trkpt>
      <trkpt lat="40.24087616242468357086181640625" lon="-0.969564914703369140625">
        <ele>1202</ele>
        <time>2021-09-26T09:12:01.000Z</time>
      </trkpt>
      <trkpt lat="40.24079762399196624755859375" lon="-0.96963942982256412506103515625">
        <ele>1202.199951171875</ele>
        <time>2021-09-26T09:12:03.000Z</time>
      </trkpt>
      <trkpt lat="40.24071715772151947021484375" lon="-0.96972023136913776397705078125">
        <ele>1202.4000244140625</ele>
        <time>2021-09-26T09:12:05.000Z</time>
      </trkpt>
      <trkpt lat="40.24063400924205780029296875" lon="-0.96980455331504344940185546875">
        <ele>1202.4000244140625</ele>
        <time>2021-09-26T09:12:07.000Z</time>
      </trkpt>
      <trkpt lat="40.2405931055545806884765625" lon="-0.969844870269298553466796875">
        <ele>1202.4000244140625</ele>
        <time>2021-09-26T09:12:08.000Z</time>
      </trkpt>
      <trkpt lat="40.24054960347712039947509765625" lon="-0.9698862768709659576416015625">
        <ele>1202.4000244140625</ele>
        <time>2021-09-26T09:12:09.000Z</time>
      </trkpt>
      <trkpt lat="40.240464694797992706298828125" lon="-0.96997101791203022003173828125">
        <ele>1202.4000244140625</ele>
        <time>2021-09-26T09:12:11.000Z</time>
      </trkpt>
      <trkpt lat="40.2403830550611019134521484375" lon="-0.97005181945860385894775390625">
        <ele>1202.800048828125</ele>
        <time>2021-09-26T09:12:13.000Z</time>
      </trkpt>
      <trkpt lat="40.240300409495830535888671875" lon="-0.97013345919549465179443359375">
        <ele>1203</ele>
        <time>2021-09-26T09:12:15.000Z</time>
      </trkpt>
      <trkpt lat="40.24025707505643367767333984375" lon="-0.9701742790639400482177734375">
        <ele>1203.4000244140625</ele>
        <time>2021-09-26T09:12:16.000Z</time>
      </trkpt>
      <trkpt lat="40.24021365679800510406494140625" lon="-0.97021359018981456756591796875">
        <ele>1203.5999755859375</ele>
        <time>2021-09-26T09:12:17.000Z</time>
      </trkpt>
      <trkpt lat="40.2401275746524333953857421875" lon="-0.97029782831668853759765625">
        <ele>1204</ele>
        <time>2021-09-26T09:12:19.000Z</time>
      </trkpt>
      <trkpt lat="40.2400437556207180023193359375" lon="-0.97038189880549907684326171875">
        <ele>1204.199951171875</ele>
        <time>2021-09-26T09:12:21.000Z</time>
      </trkpt>
      <trkpt lat="40.23995700292289257049560546875" lon="-0.97046538256108760833740234375">
        <ele>1204.5999755859375</ele>
        <time>2021-09-26T09:12:23.000Z</time>
      </trkpt>
      <trkpt lat="40.239871926605701446533203125" lon="-0.9705517999827861785888671875">
        <ele>1204.4000244140625</ele>
        <time>2021-09-26T09:12:25.000Z</time>
      </trkpt>
      <trkpt lat="40.23978852666914463043212890625" lon="-0.97063469700515270233154296875">
        <ele>1204.199951171875</ele>
        <time>2021-09-26T09:12:27.000Z</time>
      </trkpt>
      <trkpt lat="40.239702947437763214111328125" lon="-0.97071935422718524932861328125">
        <ele>1203.800048828125</ele>
        <time>2021-09-26T09:12:29.000Z</time>
      </trkpt>
      <trkpt lat="40.23961887694895267486572265625" lon="-0.9707987308502197265625">
        <ele>1203.4000244140625</ele>
        <time>2021-09-26T09:12:31.000Z</time>
      </trkpt>
      <trkpt lat="40.23953489027917385101318359375" lon="-0.970882214605808258056640625">
        <ele>1203.199951171875</ele>
        <time>2021-09-26T09:12:33.000Z</time>
      </trkpt>
      <trkpt lat="40.23945040069520473480224609375" lon="-0.97095957957208156585693359375">
        <ele>1202.800048828125</ele>
        <time>2021-09-26T09:12:35.000Z</time>
      </trkpt>
      <trkpt lat="40.2393664978444576263427734375" lon="-0.9710332565009593963623046875">
        <ele>1202.4000244140625</ele>
        <time>2021-09-26T09:12:37.000Z</time>
      </trkpt>
      <trkpt lat="40.23928309790790081024169921875" lon="-0.97111112438142299652099609375">
        <ele>1202</ele>
        <time>2021-09-26T09:12:39.000Z</time>
      </trkpt>
      <trkpt lat="40.23920346982777118682861328125" lon="-0.9711915068328380584716796875">
        <ele>1201.800048828125</ele>
        <time>2021-09-26T09:12:41.000Z</time>
      </trkpt>
      <trkpt lat="40.2391639910638332366943359375" lon="-0.9712303988635540008544921875">
        <ele>1201.5999755859375</ele>
        <time>2021-09-26T09:12:42.000Z</time>
      </trkpt>
      <trkpt lat="40.2391237579286098480224609375" lon="-0.97127071581780910491943359375">
        <ele>1201.5999755859375</ele>
        <time>2021-09-26T09:12:43.000Z</time>
      </trkpt>
      <trkpt lat="40.2390436269342899322509765625" lon="-0.97135302610695362091064453125">
        <ele>1201.199951171875</ele>
        <time>2021-09-26T09:12:45.000Z</time>
      </trkpt>
      <trkpt lat="40.23896173574030399322509765625" lon="-0.971429385244846343994140625">
        <ele>1201</ele>
        <time>2021-09-26T09:12:47.000Z</time>
      </trkpt>
      <trkpt lat="40.23887925781309604644775390625" lon="-0.9715043194591999053955078125">
        <ele>1200.5999755859375</ele>
        <time>2021-09-26T09:12:49.000Z</time>
      </trkpt>
      <trkpt lat="40.2387941814959049224853515625" lon="-0.97158352844417095184326171875">
        <ele>1200.199951171875</ele>
        <time>2021-09-26T09:12:51.000Z</time>
      </trkpt>
      <trkpt lat="40.2387552894651889801025390625" lon="-0.97162426449358463287353515625">
        <ele>1200</ele>
        <time>2021-09-26T09:12:52.000Z</time>
      </trkpt>
      <trkpt lat="40.2387153916060924530029296875" lon="-0.9716625697910785675048828125">
        <ele>1200</ele>
        <time>2021-09-26T09:12:53.000Z</time>
      </trkpt>
      <trkpt lat="40.23863433860242366790771484375" lon="-0.9717366658151149749755859375">
        <ele>1199.5999755859375</ele>
        <time>2021-09-26T09:12:55.000Z</time>
      </trkpt>
      <trkpt lat="40.23855454288423061370849609375" lon="-0.97180682234466075897216796875">
        <ele>1199.199951171875</ele>
        <time>2021-09-26T09:12:57.000Z</time>
      </trkpt>
      <trkpt lat="40.23847491480410099029541015625" lon="-0.971886031329631805419921875">
        <ele>1199</ele>
        <time>2021-09-26T09:12:59.000Z</time>
      </trkpt>
      <trkpt lat="40.23839696310460567474365234375" lon="-0.97195602022111415863037109375">
        <ele>1199</ele>
        <time>2021-09-26T09:13:01.000Z</time>
      </trkpt>
      <trkpt lat="40.23832839913666248321533203125" lon="-0.9720250032842159271240234375">
        <ele>1199</ele>
        <time>2021-09-26T09:13:03.000Z</time>
      </trkpt>
      <trkpt lat="40.2382594160735607147216796875" lon="-0.9720902144908905029296875">
        <ele>1199</ele>
        <time>2021-09-26T09:13:05.000Z</time>
      </trkpt>
      <trkpt lat="40.2381896786391735076904296875" lon="-0.97216037102043628692626953125">
        <ele>1199.800048828125</ele>
        <time>2021-09-26T09:13:07.000Z</time>
      </trkpt>
      <trkpt lat="40.23815506137907505035400390625" lon="-0.97219557501375675201416015625">
        <ele>1200.199951171875</ele>
        <time>2021-09-26T09:13:08.000Z</time>
      </trkpt>
      <trkpt lat="40.23812253959476947784423828125" lon="-0.972232036292552947998046875">
        <ele>1200.5999755859375</ele>
        <time>2021-09-26T09:13:09.000Z</time>
      </trkpt>
      <trkpt lat="40.2380542270839214324951171875" lon="-0.97230537794530391693115234375">
        <ele>1201.4000244140625</ele>
        <time>2021-09-26T09:13:11.000Z</time>
      </trkpt>
      <trkpt lat="40.23798909969627857208251953125" lon="-0.97236706875264644622802734375">
        <ele>1202</ele>
        <time>2021-09-26T09:13:13.000Z</time>
      </trkpt>
      <trkpt lat="40.23795993067324161529541015625" lon="-0.97239539958536624908447265625">
        <ele>1202.4000244140625</ele>
        <time>2021-09-26T09:13:14.000Z</time>
      </trkpt>
      <trkpt lat="40.23793243803083896636962890625" lon="-0.97242574207484722137451171875">
        <ele>1203</ele>
        <time>2021-09-26T09:13:15.000Z</time>
      </trkpt>
      <trkpt lat="40.23787259124219417572021484375" lon="-0.972485840320587158203125">
        <ele>1204</ele>
        <time>2021-09-26T09:13:17.000Z</time>
      </trkpt>
      <trkpt lat="40.23781140334904193878173828125" lon="-0.972546525299549102783203125">
        <ele>1205.199951171875</ele>
        <time>2021-09-26T09:13:19.000Z</time>
      </trkpt>
      <trkpt lat="40.23777854628860950469970703125" lon="-0.9725741855800151824951171875">
        <ele>1205.800048828125</ele>
        <time>2021-09-26T09:13:20.000Z</time>
      </trkpt>
      <trkpt lat="40.2377437613904476165771484375" lon="-0.9726070426404476165771484375">
        <ele>1206.4000244140625</ele>
        <time>2021-09-26T09:13:21.000Z</time>
      </trkpt>
      <trkpt lat="40.23767209611833095550537109375" lon="-0.97267753444612026214599609375">
        <ele>1207.4000244140625</ele>
        <time>2021-09-26T09:13:23.000Z</time>
      </trkpt>
      <trkpt lat="40.23759816773235797882080078125" lon="-0.9727498702704906463623046875">
        <ele>1208.199951171875</ele>
        <time>2021-09-26T09:13:25.000Z</time>
      </trkpt>
      <trkpt lat="40.23756279610097408294677734375" lon="-0.972785241901874542236328125">
        <ele>1208.5999755859375</ele>
        <time>2021-09-26T09:13:26.000Z</time>
      </trkpt>
      <trkpt lat="40.237524323165416717529296875" lon="-0.97282337956130504608154296875">
        <ele>1209</ele>
        <time>2021-09-26T09:13:27.000Z</time>
      </trkpt>
      <trkpt lat="40.23744997568428516387939453125" lon="-0.97289814613759517669677734375">
        <ele>1209.800048828125</ele>
        <time>2021-09-26T09:13:29.000Z</time>
      </trkpt>
      <trkpt lat="40.237385518848896026611328125" lon="-0.9729646146297454833984375">
        <ele>1209.800048828125</ele>
        <time>2021-09-26T09:13:31.000Z</time>
      </trkpt>
      <trkpt lat="40.2373531647026538848876953125" lon="-0.97300057299435138702392578125">
        <ele>1209.800048828125</ele>
        <time>2021-09-26T09:13:32.000Z</time>
      </trkpt>
      <trkpt lat="40.2373206429183483123779296875" lon="-0.9730375371873378753662109375">
        <ele>1209.800048828125</ele>
        <time>2021-09-26T09:13:33.000Z</time>
      </trkpt>
      <trkpt lat="40.237252749502658843994140625" lon="-0.9731121361255645751953125">
        <ele>1209.800048828125</ele>
        <time>2021-09-26T09:13:35.000Z</time>
      </trkpt>
      <trkpt lat="40.23717974312603473663330078125" lon="-0.97318212501704692840576171875">
        <ele>1209.800048828125</ele>
        <time>2021-09-26T09:13:37.000Z</time>
      </trkpt>
      <trkpt lat="40.23710229434072971343994140625" lon="-0.97325496375560760498046875">
        <ele>1210</ele>
        <time>2021-09-26T09:13:39.000Z</time>
      </trkpt>
      <trkpt lat="40.237022750079631805419921875" lon="-0.9733215160667896270751953125">
        <ele>1210.4000244140625</ele>
        <time>2021-09-26T09:13:41.000Z</time>
      </trkpt>
      <trkpt lat="40.2369370870292186737060546875" lon="-0.9733865596354007720947265625">
        <ele>1210.800048828125</ele>
        <time>2021-09-26T09:13:43.000Z</time>
      </trkpt>
      <trkpt lat="40.23689492605626583099365234375" lon="-0.9734163992106914520263671875">
        <ele>1211</ele>
        <time>2021-09-26T09:13:44.000Z</time>
      </trkpt>
      <trkpt lat="40.2368532679975032806396484375" lon="-0.97344146110117435455322265625">
        <ele>1211.199951171875</ele>
        <time>2021-09-26T09:13:45.000Z</time>
      </trkpt>
      <trkpt lat="40.23676819168031215667724609375" lon="-0.9734956920146942138671875">
        <ele>1211.5999755859375</ele>
        <time>2021-09-26T09:13:47.000Z</time>
      </trkpt>
      <trkpt lat="40.2366849593818187713623046875" lon="-0.97355377860367298126220703125">
        <ele>1212</ele>
        <time>2021-09-26T09:13:49.000Z</time>
      </trkpt>
      <trkpt lat="40.236581526696681976318359375" lon="-0.97361161373555660247802734375">
        <ele>1212.4000244140625</ele>
        <time>2021-09-26T09:13:51.000Z</time>
      </trkpt>
      <trkpt lat="40.23653634823858737945556640625" lon="-0.97363793291151523590087890625">
        <ele>1212.199951171875</ele>
        <time>2021-09-26T09:13:52.000Z</time>
      </trkpt>
      <trkpt lat="40.23649326525628566741943359375" lon="-0.97366190515458583831787109375">
        <ele>1212</ele>
        <time>2021-09-26T09:13:53.000Z</time>
      </trkpt>
      <trkpt lat="40.23641715757548809051513671875" lon="-0.97371337004005908966064453125">
        <ele>1211.4000244140625</ele>
        <time>2021-09-26T09:13:55.000Z</time>
      </trkpt>
      <trkpt lat="40.2363272197544574737548828125" lon="-0.9737627394497394561767578125">
        <ele>1211</ele>
        <time>2021-09-26T09:13:57.000Z</time>
      </trkpt>
      <trkpt lat="40.23623116314411163330078125" lon="-0.9738076664507389068603515625">
        <ele>1210.4000244140625</ele>
        <time>2021-09-26T09:13:59.000Z</time>
      </trkpt>
      <trkpt lat="40.23613460361957550048828125" lon="-0.97385636530816555023193359375">
        <ele>1210</ele>
        <time>2021-09-26T09:14:01.000Z</time>
      </trkpt>
      <trkpt lat="40.23603997193276882171630859375" lon="-0.9738926589488983154296875">
        <ele>1209.4000244140625</ele>
        <time>2021-09-26T09:14:03.000Z</time>
      </trkpt>
      <trkpt lat="40.23599387146532535552978515625" lon="-0.97390900366008281707763671875">
        <ele>1209.199951171875</ele>
        <time>2021-09-26T09:14:04.000Z</time>
      </trkpt>
      <trkpt lat="40.2359470166265964508056640625" lon="-0.973920486867427825927734375">
        <ele>1209</ele>
        <time>2021-09-26T09:14:05.000Z</time>
      </trkpt>
      <trkpt lat="40.23589991033077239990234375" lon="-0.97393062897026538848876953125">
        <ele>1208.800048828125</ele>
        <time>2021-09-26T09:14:06.000Z</time>
      </trkpt>
      <trkpt lat="40.23585163056850433349609375" lon="-0.973939597606658935546875">
        <ele>1208.5999755859375</ele>
        <time>2021-09-26T09:14:07.000Z</time>
      </trkpt>
      <trkpt lat="40.23575213737785816192626953125" lon="-0.973961390554904937744140625">
        <ele>1208</ele>
        <time>2021-09-26T09:14:09.000Z</time>
      </trkpt>
      <trkpt lat="40.23565046489238739013671875" lon="-0.97397706471383571624755859375">
        <ele>1207.5999755859375</ele>
        <time>2021-09-26T09:14:11.000Z</time>
      </trkpt>
      <trkpt lat="40.23554929532110691070556640625" lon="-0.97399449907243251800537109375">
        <ele>1207.199951171875</ele>
        <time>2021-09-26T09:14:13.000Z</time>
      </trkpt>
      <trkpt lat="40.2354481257498264312744140625" lon="-0.97400732338428497314453125">
        <ele>1206.5999755859375</ele>
        <time>2021-09-26T09:14:15.000Z</time>
      </trkpt>
      <trkpt lat="40.23534326814115047454833984375" lon="-0.97401394508779048919677734375">
        <ele>1206</ele>
        <time>2021-09-26T09:14:17.000Z</time>
      </trkpt>
      <trkpt lat="40.23523966781795024871826171875" lon="-0.974014364182949066162109375">
        <ele>1205.199951171875</ele>
        <time>2021-09-26T09:14:19.000Z</time>
      </trkpt>
      <trkpt lat="40.23518753238022327423095703125" lon="-0.97401134669780731201171875">
        <ele>1205</ele>
        <time>2021-09-26T09:14:20.000Z</time>
      </trkpt>
      <trkpt lat="40.235135145485401153564453125" lon="-0.9740058146417140960693359375">
        <ele>1204.800048828125</ele>
        <time>2021-09-26T09:14:21.000Z</time>
      </trkpt>
      <trkpt lat="40.23503079079091548919677734375" lon="-0.97399231977760791778564453125">
        <ele>1204.800048828125</ele>
        <time>2021-09-26T09:14:23.000Z</time>
      </trkpt>
      <trkpt lat="40.23492895066738128662109375" lon="-0.97398360259830951690673828125">
        <ele>1204.800048828125</ele>
        <time>2021-09-26T09:14:25.000Z</time>
      </trkpt>
      <trkpt lat="40.23482141084969043731689453125" lon="-0.97396952100098133087158203125">
        <ele>1204.5999755859375</ele>
        <time>2021-09-26T09:14:27.000Z</time>
      </trkpt>
      <trkpt lat="40.23476843722164630889892578125" lon="-0.97396147437393665313720703125">
        <ele>1204.5999755859375</ele>
        <time>2021-09-26T09:14:28.000Z</time>
      </trkpt>
      <trkpt lat="40.2347175590693950653076171875" lon="-0.9739545173943042755126953125">
        <ele>1204.5999755859375</ele>
        <time>2021-09-26T09:14:29.000Z</time>
      </trkpt>
      <trkpt lat="40.23460633121430873870849609375" lon="-0.97393213771283626556396484375">
        <ele>1204.5999755859375</ele>
        <time>2021-09-26T09:14:31.000Z</time>
      </trkpt>
      <trkpt lat="40.23449552245438098907470703125" lon="-0.9739069081842899322509765625">
        <ele>1204</ele>
        <time>2021-09-26T09:14:33.000Z</time>
      </trkpt>
      <trkpt lat="40.2343879826366901397705078125" lon="-0.973879583179950714111328125">
        <ele>1204</ele>
        <time>2021-09-26T09:14:35.000Z</time>
      </trkpt>
      <trkpt lat="40.23428446613252162933349609375" lon="-0.9738535992801189422607421875">
        <ele>1203.5999755859375</ele>
        <time>2021-09-26T09:14:37.000Z</time>
      </trkpt>
      <trkpt lat="40.234184302389621734619140625" lon="-0.9738160483539104461669921875">
        <ele>1203.800048828125</ele>
        <time>2021-09-26T09:14:39.000Z</time>
      </trkpt>
      <trkpt lat="40.23408045060932636260986328125" lon="-0.97377807833254337310791015625">
        <ele>1204</ele>
        <time>2021-09-26T09:14:41.000Z</time>
      </trkpt>
      <trkpt lat="40.233978442847728729248046875" lon="-0.97373533062636852264404296875">
        <ele>1203.5999755859375</ele>
        <time>2021-09-26T09:14:43.000Z</time>
      </trkpt>
      <trkpt lat="40.233873166143894195556640625" lon="-0.973679088056087493896484375">
        <ele>1203.199951171875</ele>
        <time>2021-09-26T09:14:45.000Z</time>
      </trkpt>
      <trkpt lat="40.23376428522169589996337890625" lon="-0.9736316464841365814208984375">
        <ele>1203.4000244140625</ele>
        <time>2021-09-26T09:14:47.000Z</time>
      </trkpt>
      <trkpt lat="40.23366202600300312042236328125" lon="-0.97357892431318759918212890625">
        <ele>1203.4000244140625</ele>
        <time>2021-09-26T09:14:49.000Z</time>
      </trkpt>
      <trkpt lat="40.233561694622039794921875" lon="-0.973516814410686492919921875">
        <ele>1203</ele>
        <time>2021-09-26T09:14:51.000Z</time>
      </trkpt>
      <trkpt lat="40.23346245288848876953125" lon="-0.97345939837396144866943359375">
        <ele>1203.5999755859375</ele>
        <time>2021-09-26T09:14:53.000Z</time>
      </trkpt>
      <trkpt lat="40.233368240296840667724609375" lon="-0.97339787520468235015869140625">
        <ele>1204.5999755859375</ele>
        <time>2021-09-26T09:14:55.000Z</time>
      </trkpt>
      <trkpt lat="40.23332658223807811737060546875" lon="-0.973366610705852508544921875">
        <ele>1205.199951171875</ele>
        <time>2021-09-26T09:14:56.000Z</time>
      </trkpt>
      <trkpt lat="40.2332839183509349822998046875" lon="-0.973335094749927520751953125">
        <ele>1205.4000244140625</ele>
        <time>2021-09-26T09:14:57.000Z</time>
      </trkpt>
      <trkpt lat="40.2332037873566150665283203125" lon="-0.97327449358999729156494140625">
        <ele>1205.5999755859375</ele>
        <time>2021-09-26T09:14:59.000Z</time>
      </trkpt>
      <trkpt lat="40.23312776349484920501708984375" lon="-0.973212383687496185302734375">
        <ele>1206</ele>
        <time>2021-09-26T09:15:01.000Z</time>
      </trkpt>
      <trkpt lat="40.2330475486814975738525390625" lon="-0.973150692880153656005859375">
        <ele>1206</ele>
        <time>2021-09-26T09:15:03.000Z</time>
      </trkpt>
      <trkpt lat="40.2329684235155582427978515625" lon="-0.97307835705578327178955078125">
        <ele>1205.5999755859375</ele>
        <time>2021-09-26T09:15:05.000Z</time>
      </trkpt>
      <trkpt lat="40.23288519121706485748291015625" lon="-0.9730040095746517181396484375">
        <ele>1205</ele>
        <time>2021-09-26T09:15:07.000Z</time>
      </trkpt>
      <trkpt lat="40.2327954210340976715087890625" lon="-0.972924046218395233154296875">
        <ele>1204.4000244140625</ele>
        <time>2021-09-26T09:15:09.000Z</time>
      </trkpt>
      <trkpt lat="40.23269726894795894622802734375" lon="-0.9728320129215717315673828125">
        <ele>1204</ele>
        <time>2021-09-26T09:15:11.000Z</time>
      </trkpt>
      <trkpt lat="40.23259316571056842803955078125" lon="-0.97273620776832103729248046875">
        <ele>1204</ele>
        <time>2021-09-26T09:15:13.000Z</time>
      </trkpt>
      <trkpt lat="40.23249006830155849456787109375" lon="-0.972634367644786834716796875">
        <ele>1203.199951171875</ele>
        <time>2021-09-26T09:15:15.000Z</time>
      </trkpt>
      <trkpt lat="40.2323748171329498291015625" lon="-0.972530432045459747314453125">
        <ele>1202.5999755859375</ele>
        <time>2021-09-26T09:15:17.000Z</time>
      </trkpt>
      <trkpt lat="40.232315473258495330810546875" lon="-0.97247536294162273406982421875">
        <ele>1202.4000244140625</ele>
        <time>2021-09-26T09:15:18.000Z</time>
      </trkpt>
      <trkpt lat="40.2322539500892162322998046875" lon="-0.97242104820907115936279296875">
        <ele>1202.199951171875</ele>
        <time>2021-09-26T09:15:19.000Z</time>
      </trkpt>
      <trkpt lat="40.2321238629519939422607421875" lon="-0.97231241874396800994873046875">
        <ele>1202</ele>
        <time>2021-09-26T09:15:21.000Z</time>
      </trkpt>
      <trkpt lat="40.23199771530926227569580078125" lon="-0.97220043651759624481201171875">
        <ele>1202</ele>
        <time>2021-09-26T09:15:23.000Z</time>
      </trkpt>
      <trkpt lat="40.23186963982880115509033203125" lon="-0.97208778373897075653076171875">
        <ele>1202</ele>
        <time>2021-09-26T09:15:25.000Z</time>
      </trkpt>
      <trkpt lat="40.231805182993412017822265625" lon="-0.9720325469970703125">
        <ele>1201.800048828125</ele>
        <time>2021-09-26T09:15:26.000Z</time>
      </trkpt>
      <trkpt lat="40.23174290545284748077392578125" lon="-0.9719767235219478607177734375">
        <ele>1201.5999755859375</ele>
        <time>2021-09-26T09:15:27.000Z</time>
      </trkpt>
      <trkpt lat="40.23161784745752811431884765625" lon="-0.971859209239482879638671875">
        <ele>1201.199951171875</ele>
        <time>2021-09-26T09:15:29.000Z</time>
      </trkpt>
      <trkpt lat="40.2314885146915912628173828125" lon="-0.971743203699588775634765625">
        <ele>1200.5999755859375</ele>
        <time>2021-09-26T09:15:31.000Z</time>
      </trkpt>
      <trkpt lat="40.2313550747931003570556640625" lon="-0.97162929363548755645751953125">
        <ele>1200.199951171875</ele>
        <time>2021-09-26T09:15:33.000Z</time>
      </trkpt>
      <trkpt lat="40.23129179142415523529052734375" lon="-0.971568524837493896484375">
        <ele>1200.199951171875</ele>
        <time>2021-09-26T09:15:34.000Z</time>
      </trkpt>
      <trkpt lat="40.2312280051410198211669921875" lon="-0.97150725312530994415283203125">
        <ele>1200</ele>
        <time>2021-09-26T09:15:35.000Z</time>
      </trkpt>
      <trkpt lat="40.23110009729862213134765625" lon="-0.97138253040611743927001953125">
        <ele>1199.199951171875</ele>
        <time>2021-09-26T09:15:37.000Z</time>
      </trkpt>
      <trkpt lat="40.23097076453268527984619140625" lon="-0.9712531976401805877685546875">
        <ele>1199.199951171875</ele>
        <time>2021-09-26T09:15:39.000Z</time>
      </trkpt>
      <trkpt lat="40.2308379113674163818359375" lon="-0.971124283969402313232421875">
        <ele>1198.800048828125</ele>
        <time>2021-09-26T09:15:41.000Z</time>
      </trkpt>
      <trkpt lat="40.2307029627263545989990234375" lon="-0.97099310718476772308349609375">
        <ele>1198.5999755859375</ele>
        <time>2021-09-26T09:15:43.000Z</time>
      </trkpt>
      <trkpt lat="40.230562984943389892578125" lon="-0.97086955793201923370361328125">
        <ele>1198.4000244140625</ele>
        <time>2021-09-26T09:15:45.000Z</time>
      </trkpt>
      <trkpt lat="40.23042711429297924041748046875" lon="-0.97075154073536396026611328125">
        <ele>1198.800048828125</ele>
        <time>2021-09-26T09:15:47.000Z</time>
      </trkpt>
      <trkpt lat="40.23035871796309947967529296875" lon="-0.970691107213497161865234375">
        <ele>1199</ele>
        <time>2021-09-26T09:15:48.000Z</time>
      </trkpt>
      <trkpt lat="40.23029250092804431915283203125" lon="-0.97063084132969379425048828125">
        <ele>1198.800048828125</ele>
        <time>2021-09-26T09:15:49.000Z</time>
      </trkpt>
      <trkpt lat="40.230156965553760528564453125" lon="-0.97050796262919902801513671875">
        <ele>1198</ele>
        <time>2021-09-26T09:15:51.000Z</time>
      </trkpt>
      <trkpt lat="40.23002159781754016876220703125" lon="-0.970386676490306854248046875">
        <ele>1197.4000244140625</ele>
        <time>2021-09-26T09:15:53.000Z</time>
      </trkpt>
      <trkpt lat="40.22988162003457546234130859375" lon="-0.97026824019849300384521484375">
        <ele>1197.800048828125</ele>
        <time>2021-09-26T09:15:55.000Z</time>
      </trkpt>
      <trkpt lat="40.2297454141080379486083984375" lon="-0.97014720551669597625732421875">
        <ele>1198.4000244140625</ele>
        <time>2021-09-26T09:15:57.000Z</time>
      </trkpt>
      <trkpt lat="40.22967877797782421112060546875" lon="-0.9700866043567657470703125">
        <ele>1198.199951171875</ele>
        <time>2021-09-26T09:15:58.000Z</time>
      </trkpt>
      <trkpt lat="40.22961289621889591217041015625" lon="-0.9700262546539306640625">
        <ele>1198</ele>
        <time>2021-09-26T09:15:59.000Z</time>
      </trkpt>
      <trkpt lat="40.2294845692813396453857421875" lon="-0.9699100814759731292724609375">
        <ele>1197.199951171875</ele>
        <time>2021-09-26T09:16:01.000Z</time>
      </trkpt>
      <trkpt lat="40.22935808636248111724853515625" lon="-0.969792902469635009765625">
        <ele>1196</ele>
        <time>2021-09-26T09:16:03.000Z</time>
      </trkpt>
      <trkpt lat="40.2292317710816860198974609375" lon="-0.96967882476747035980224609375">
        <ele>1194.199951171875</ele>
        <time>2021-09-26T09:16:05.000Z</time>
      </trkpt>
      <trkpt lat="40.229167900979518890380859375" lon="-0.96962082199752330780029296875">
        <ele>1194.5999755859375</ele>
        <time>2021-09-26T09:16:06.000Z</time>
      </trkpt>
      <trkpt lat="40.22910528816282749176025390625" lon="-0.9695627354085445404052734375">
        <ele>1194.800048828125</ele>
        <time>2021-09-26T09:16:07.000Z</time>
      </trkpt>
      <trkpt lat="40.22898525930941104888916015625" lon="-0.96945066936314105987548828125">
        <ele>1194.4000244140625</ele>
        <time>2021-09-26T09:16:09.000Z</time>
      </trkpt>
      <trkpt lat="40.2288666553795337677001953125" lon="-0.96934002824127674102783203125">
        <ele>1194.800048828125</ele>
        <time>2021-09-26T09:16:11.000Z</time>
      </trkpt>
      <trkpt lat="40.2288076467812061309814453125" lon="-0.9692857973277568817138671875">
        <ele>1195</ele>
        <time>2021-09-26T09:16:12.000Z</time>
      </trkpt>
      <trkpt lat="40.22874914109706878662109375" lon="-0.9692324884235858917236328125">
        <ele>1195</ele>
        <time>2021-09-26T09:16:13.000Z</time>
      </trkpt>
      <trkpt lat="40.2286356501281261444091796875" lon="-0.96912595443427562713623046875">
        <ele>1194.800048828125</ele>
        <time>2021-09-26T09:16:15.000Z</time>
      </trkpt>
      <trkpt lat="40.2285219915211200714111328125" lon="-0.96902520395815372467041015625">
        <ele>1194</ele>
        <time>2021-09-26T09:16:17.000Z</time>
      </trkpt>
      <trkpt lat="40.22840808145701885223388671875" lon="-0.96891992725431919097900390625">
        <ele>1193.5999755859375</ele>
        <time>2021-09-26T09:16:19.000Z</time>
      </trkpt>
      <trkpt lat="40.22829358465969562530517578125" lon="-0.96881314180791378021240234375">
        <ele>1192</ele>
        <time>2021-09-26T09:16:21.000Z</time>
      </trkpt>
      <trkpt lat="40.22817674092948436737060546875" lon="-0.96870535053312778472900390625">
        <ele>1191</ele>
        <time>2021-09-26T09:16:23.000Z</time>
      </trkpt>
      <trkpt lat="40.22805847227573394775390625" lon="-0.96859621815383434295654296875">
        <ele>1190.4000244140625</ele>
        <time>2021-09-26T09:16:25.000Z</time>
      </trkpt>
      <trkpt lat="40.2279962785542011260986328125" lon="-0.96854056231677532196044921875">
        <ele>1189.800048828125</ele>
        <time>2021-09-26T09:16:26.000Z</time>
      </trkpt>
      <trkpt lat="40.227935425937175750732421875" lon="-0.96848524175584316253662109375">
        <ele>1189.199951171875</ele>
        <time>2021-09-26T09:16:27.000Z</time>
      </trkpt>
      <trkpt lat="40.22781581617891788482666015625" lon="-0.9683726727962493896484375">
        <ele>1188.4000244140625</ele>
        <time>2021-09-26T09:16:29.000Z</time>
      </trkpt>
      <trkpt lat="40.22769075818359851837158203125" lon="-0.96825909800827503204345703125">
        <ele>1188.4000244140625</ele>
        <time>2021-09-26T09:16:31.000Z</time>
      </trkpt>
      <trkpt lat="40.2275637723505496978759765625" lon="-0.9681482054293155670166015625">
        <ele>1189.199951171875</ele>
        <time>2021-09-26T09:16:33.000Z</time>
      </trkpt>
      <trkpt lat="40.227437205612659454345703125" lon="-0.9680355526506900787353515625">
        <ele>1189.800048828125</ele>
        <time>2021-09-26T09:16:35.000Z</time>
      </trkpt>
      <trkpt lat="40.22737375460565090179443359375" lon="-0.9679778851568698883056640625">
        <ele>1189.5999755859375</ele>
        <time>2021-09-26T09:16:36.000Z</time>
      </trkpt>
      <trkpt lat="40.22730887867510318756103515625" lon="-0.967920720577239990234375">
        <ele>1189.800048828125</ele>
        <time>2021-09-26T09:16:37.000Z</time>
      </trkpt>
      <trkpt lat="40.2271798811852931976318359375" lon="-0.96780664287507534027099609375">
        <ele>1189.4000244140625</ele>
        <time>2021-09-26T09:16:39.000Z</time>
      </trkpt>
      <trkpt lat="40.22705205716192722320556640625" lon="-0.96768812276422977447509765625">
        <ele>1188.800048828125</ele>
        <time>2021-09-26T09:16:41.000Z</time>
      </trkpt>
      <trkpt lat="40.2269223891198635101318359375" lon="-0.96757245250046253204345703125">
        <ele>1189.4000244140625</ele>
        <time>2021-09-26T09:16:43.000Z</time>
      </trkpt>
      <trkpt lat="40.2267931401729583740234375" lon="-0.96745460294187068939208984375">
        <ele>1190.199951171875</ele>
        <time>2021-09-26T09:16:45.000Z</time>
      </trkpt>
      <trkpt lat="40.22672834806144237518310546875" lon="-0.96739576198160648345947265625">
        <ele>1190.4000244140625</ele>
        <time>2021-09-26T09:16:46.000Z</time>
      </trkpt>
      <trkpt lat="40.2266642265021800994873046875" lon="-0.9673365019261837005615234375">
        <ele>1190.800048828125</ele>
        <time>2021-09-26T09:16:47.000Z</time>
      </trkpt>
      <trkpt lat="40.2265371568500995635986328125" lon="-0.9672131203114986419677734375">
        <ele>1190.199951171875</ele>
        <time>2021-09-26T09:16:49.000Z</time>
      </trkpt>
      <trkpt lat="40.22640799172222614288330078125" lon="-0.96709703095257282257080078125">
        <ele>1189</ele>
        <time>2021-09-26T09:16:51.000Z</time>
      </trkpt>
      <trkpt lat="40.22628486156463623046875" lon="-0.96697381697595119476318359375">
        <ele>1188.199951171875</ele>
        <time>2021-09-26T09:16:53.000Z</time>
      </trkpt>
      <trkpt lat="40.22622342221438884735107421875" lon="-0.96691179089248180389404296875">
        <ele>1187.800048828125</ele>
        <time>2021-09-26T09:16:54.000Z</time>
      </trkpt>
      <trkpt lat="40.2261616475880146026611328125" lon="-0.966848842799663543701171875">
        <ele>1188</ele>
        <time>2021-09-26T09:16:55.000Z</time>
      </trkpt>
      <trkpt lat="40.22604010999202728271484375" lon="-0.9667231142520904541015625">
        <ele>1188.4000244140625</ele>
        <time>2021-09-26T09:16:57.000Z</time>
      </trkpt>
      <trkpt lat="40.22591932676732540130615234375" lon="-0.96660166047513484954833984375">
        <ele>1188.800048828125</ele>
        <time>2021-09-26T09:16:59.000Z</time>
      </trkpt>
      <trkpt lat="40.22580063901841640472412109375" lon="-0.966479368507862091064453125">
        <ele>1189.199951171875</ele>
        <time>2021-09-26T09:17:01.000Z</time>
      </trkpt>
      <trkpt lat="40.2256832085549831390380859375" lon="-0.96635925583541393280029296875">
        <ele>1188.5999755859375</ele>
        <time>2021-09-26T09:17:03.000Z</time>
      </trkpt>
      <trkpt lat="40.22556376643478870391845703125" lon="-0.96623637713491916656494140625">
        <ele>1188.4000244140625</ele>
        <time>2021-09-26T09:17:05.000Z</time>
      </trkpt>
      <trkpt lat="40.2254414744675159454345703125" lon="-0.966116599738597869873046875">
        <ele>1188.5999755859375</ele>
        <time>2021-09-26T09:17:07.000Z</time>
      </trkpt>
      <trkpt lat="40.22532320581376552581787109375" lon="-0.965993888676166534423828125">
        <ele>1189</ele>
        <time>2021-09-26T09:17:09.000Z</time>
      </trkpt>
      <trkpt lat="40.2252067811787128448486328125" lon="-0.965869165956974029541015625">
        <ele>1189.199951171875</ele>
        <time>2021-09-26T09:17:11.000Z</time>
      </trkpt>
      <trkpt lat="40.22508868016302585601806640625" lon="-0.965747125446796417236328125">
        <ele>1189.199951171875</ele>
        <time>2021-09-26T09:17:13.000Z</time>
      </trkpt>
      <trkpt lat="40.22496731020510196685791015625" lon="-0.96562701277434825897216796875">
        <ele>1189</ele>
        <time>2021-09-26T09:17:15.000Z</time>
      </trkpt>
      <trkpt lat="40.22484518587589263916015625" lon="-0.96550664864480495452880859375">
        <ele>1188.4000244140625</ele>
        <time>2021-09-26T09:17:17.000Z</time>
      </trkpt>
      <trkpt lat="40.22472641430795192718505859375" lon="-0.9653846919536590576171875">
        <ele>1188.800048828125</ele>
        <time>2021-09-26T09:17:19.000Z</time>
      </trkpt>
      <trkpt lat="40.2246086485683917999267578125" lon="-0.96526374109089374542236328125">
        <ele>1188.5999755859375</ele>
        <time>2021-09-26T09:17:21.000Z</time>
      </trkpt>
      <trkpt lat="40.22449540905654430389404296875" lon="-0.96514723263680934906005859375">
        <ele>1188.5999755859375</ele>
        <time>2021-09-26T09:17:23.000Z</time>
      </trkpt>
      <trkpt lat="40.22439113818109035491943359375" lon="-0.9650247730314731597900390625">
        <ele>1189.199951171875</ele>
        <time>2021-09-26T09:17:25.000Z</time>
      </trkpt>
      <trkpt lat="40.22428871132433414459228515625" lon="-0.9649017266929149627685546875">
        <ele>1190</ele>
        <time>2021-09-26T09:17:27.000Z</time>
      </trkpt>
      <trkpt lat="40.224236659705638885498046875" lon="-0.96483995206654071807861328125">
        <ele>1190.199951171875</ele>
        <time>2021-09-26T09:17:28.000Z</time>
      </trkpt>
      <trkpt lat="40.2241858653724193572998046875" lon="-0.96477842889726161956787109375">
        <ele>1190</ele>
        <time>2021-09-26T09:17:29.000Z</time>
      </trkpt>
      <trkpt lat="40.2240785770118236541748046875" lon="-0.964650772511959075927734375">
        <ele>1189.199951171875</ele>
        <time>2021-09-26T09:17:31.000Z</time>
      </trkpt>
      <trkpt lat="40.22397472523152828216552734375" lon="-0.9645144827663898468017578125">
        <ele>1187.4000244140625</ele>
        <time>2021-09-26T09:17:33.000Z</time>
      </trkpt>
      <trkpt lat="40.223868191242218017578125" lon="-0.964372493326663970947265625">
        <ele>1186.199951171875</ele>
        <time>2021-09-26T09:17:35.000Z</time>
      </trkpt>
      <trkpt lat="40.223758555948734283447265625" lon="-0.9642294980585575103759765625">
        <ele>1186</ele>
        <time>2021-09-26T09:17:37.000Z</time>
      </trkpt>
      <trkpt lat="40.223651267588138580322265625" lon="-0.96408273093402385711669921875">
        <ele>1185.5999755859375</ele>
        <time>2021-09-26T09:17:39.000Z</time>
      </trkpt>
      <trkpt lat="40.2235449850559234619140625" lon="-0.9639414958655834197998046875">
        <ele>1185.199951171875</ele>
        <time>2021-09-26T09:17:41.000Z</time>
      </trkpt>
      <trkpt lat="40.22343828342854976654052734375" lon="-0.96379539929330348968505859375">
        <ele>1183.800048828125</ele>
        <time>2021-09-26T09:17:43.000Z</time>
      </trkpt>
      <trkpt lat="40.22333183325827121734619140625" lon="-0.96365005709230899810791015625">
        <ele>1183.5999755859375</ele>
        <time>2021-09-26T09:17:45.000Z</time>
      </trkpt>
      <trkpt lat="40.22322454489767551422119140625" lon="-0.96350253559648990631103515625">
        <ele>1183.5999755859375</ele>
        <time>2021-09-26T09:17:47.000Z</time>
      </trkpt>
      <trkpt lat="40.2231180109083652496337890625" lon="-0.96335819922387599945068359375">
        <ele>1184.199951171875</ele>
        <time>2021-09-26T09:17:49.000Z</time>
      </trkpt>
      <trkpt lat="40.22301130928099155426025390625" lon="-0.9632102586328983306884765625">
        <ele>1184.800048828125</ele>
        <time>2021-09-26T09:17:51.000Z</time>
      </trkpt>
      <trkpt lat="40.222902931272983551025390625" lon="-0.963064245879650115966796875">
        <ele>1184.800048828125</ele>
        <time>2021-09-26T09:17:53.000Z</time>
      </trkpt>
      <trkpt lat="40.2228462696075439453125" lon="-0.9629919938743114471435546875">
        <ele>1184.5999755859375</ele>
        <time>2021-09-26T09:17:54.000Z</time>
      </trkpt>
      <trkpt lat="40.22279086522758007049560546875" lon="-0.96291798166930675506591796875">
        <ele>1184</ele>
        <time>2021-09-26T09:17:55.000Z</time>
      </trkpt>
      <trkpt lat="40.22267838008701801300048828125" lon="-0.9627697058022022247314453125">
        <ele>1184</ele>
        <time>2021-09-26T09:17:57.000Z</time>
      </trkpt>
      <trkpt lat="40.22256740368902683258056640625" lon="-0.9626161493360996246337890625">
        <ele>1184.4000244140625</ele>
        <time>2021-09-26T09:17:59.000Z</time>
      </trkpt>
      <trkpt lat="40.2224561758339405059814453125" lon="-0.96246846020221710205078125">
        <ele>1184.800048828125</ele>
        <time>2021-09-26T09:18:01.000Z</time>
      </trkpt>
      <trkpt lat="40.22234109230339527130126953125" lon="-0.96232085488736629486083984375">
        <ele>1184.800048828125</ele>
        <time>2021-09-26T09:18:03.000Z</time>
      </trkpt>
      <trkpt lat="40.22223497740924358367919921875" lon="-0.96217467449605464935302734375">
        <ele>1184.4000244140625</ele>
        <time>2021-09-26T09:18:05.000Z</time>
      </trkpt>
      <trkpt lat="40.2221302874386310577392578125" lon="-0.962032936513423919677734375">
        <ele>1183.5999755859375</ele>
        <time>2021-09-26T09:18:07.000Z</time>
      </trkpt>
      <trkpt lat="40.22202693857252597808837890625" lon="-0.96189321018755435943603515625">
        <ele>1182</ele>
        <time>2021-09-26T09:18:09.000Z</time>
      </trkpt>
      <trkpt lat="40.22192635573446750640869140625" lon="-0.96175172366201877593994140625">
        <ele>1180.4000244140625</ele>
        <time>2021-09-26T09:18:11.000Z</time>
      </trkpt>
      <trkpt lat="40.221825353801250457763671875" lon="-0.96161023713648319244384765625">
        <ele>1179.800048828125</ele>
        <time>2021-09-26T09:18:13.000Z</time>
      </trkpt>
      <trkpt lat="40.2217237651348114013671875" lon="-0.9614684991538524627685546875">
        <ele>1180</ele>
        <time>2021-09-26T09:18:15.000Z</time>
      </trkpt>
      <trkpt lat="40.2216245234012603759765625" lon="-0.96132944338023662567138671875">
        <ele>1179.800048828125</ele>
        <time>2021-09-26T09:18:17.000Z</time>
      </trkpt>
      <trkpt lat="40.22152519784867763519287109375" lon="-0.96119063906371593475341796875">
        <ele>1179.199951171875</ele>
        <time>2021-09-26T09:18:19.000Z</time>
      </trkpt>
      <trkpt lat="40.22142126224935054779052734375" lon="-0.96105518750846385955810546875">
        <ele>1178.5999755859375</ele>
        <time>2021-09-26T09:18:21.000Z</time>
      </trkpt>
      <trkpt lat="40.2213192544877529144287109375" lon="-0.96092619001865386962890625">
        <ele>1177.800048828125</ele>
        <time>2021-09-26T09:18:23.000Z</time>
      </trkpt>
      <trkpt lat="40.22121992893517017364501953125" lon="-0.96079585142433643341064453125">
        <ele>1178.4000244140625</ele>
        <time>2021-09-26T09:18:25.000Z</time>
      </trkpt>
      <trkpt lat="40.22111834026873111724853515625" lon="-0.96066869795322418212890625">
        <ele>1178</ele>
        <time>2021-09-26T09:18:27.000Z</time>
      </trkpt>
      <trkpt lat="40.221018679440021514892578125" lon="-0.96053861081600189208984375">
        <ele>1178.800048828125</ele>
        <time>2021-09-26T09:18:29.000Z</time>
      </trkpt>
      <trkpt lat="40.22091801278293132781982421875" lon="-0.9604132175445556640625">
        <ele>1179.800048828125</ele>
        <time>2021-09-26T09:18:31.000Z</time>
      </trkpt>
      <trkpt lat="40.22081759758293628692626953125" lon="-0.9602886624634265899658203125">
        <ele>1181.199951171875</ele>
        <time>2021-09-26T09:18:33.000Z</time>
      </trkpt>
      <trkpt lat="40.22071735002100467681884765625" lon="-0.96016519702970981597900390625">
        <ele>1182</ele>
        <time>2021-09-26T09:18:35.000Z</time>
      </trkpt>
      <trkpt lat="40.2206668071448802947998046875" lon="-0.96010132692754268646240234375">
        <ele>1182.4000244140625</ele>
        <time>2021-09-26T09:18:36.000Z</time>
      </trkpt>
      <trkpt lat="40.2206151746213436126708984375" lon="-0.96003879792988300323486328125">
        <ele>1183.4000244140625</ele>
        <time>2021-09-26T09:18:37.000Z</time>
      </trkpt>
      <trkpt lat="40.22051802836358547210693359375" lon="-0.95991759561002254486083984375">
        <ele>1184.5999755859375</ele>
        <time>2021-09-26T09:18:39.000Z</time>
      </trkpt>
      <trkpt lat="40.220422558486461639404296875" lon="-0.959800668060779571533203125">
        <ele>1185</ele>
        <time>2021-09-26T09:18:41.000Z</time>
      </trkpt>
      <trkpt lat="40.22032700479030609130859375" lon="-0.9596808068454265594482421875">
        <ele>1185</ele>
        <time>2021-09-26T09:18:43.000Z</time>
      </trkpt>
      <trkpt lat="40.22027981467545032501220703125" lon="-0.95962188206613063812255859375">
        <ele>1184.800048828125</ele>
        <time>2021-09-26T09:18:44.000Z</time>
      </trkpt>
      <trkpt lat="40.22023304365575313568115234375" lon="-0.95956270582973957061767578125">
        <ele>1185</ele>
        <time>2021-09-26T09:18:45.000Z</time>
      </trkpt>
      <trkpt lat="40.22013925015926361083984375" lon="-0.95943915657699108123779296875">
        <ele>1184.800048828125</ele>
        <time>2021-09-26T09:18:47.000Z</time>
      </trkpt>
      <trkpt lat="40.2200415171682834625244140625" lon="-0.9593213908374309539794921875">
        <ele>1184.199951171875</ele>
        <time>2021-09-26T09:18:49.000Z</time>
      </trkpt>
      <trkpt lat="40.21994822658598423004150390625" lon="-0.9592053852975368499755859375">
        <ele>1184.5999755859375</ele>
        <time>2021-09-26T09:18:51.000Z</time>
      </trkpt>
      <trkpt lat="40.2198998630046844482421875" lon="-0.959146879613399505615234375">
        <ele>1185.4000244140625</ele>
        <time>2021-09-26T09:18:52.000Z</time>
      </trkpt>
      <trkpt lat="40.21985552273690700531005859375" lon="-0.95908896066248416900634765625">
        <ele>1186.4000244140625</ele>
        <time>2021-09-26T09:18:53.000Z</time>
      </trkpt>
      <trkpt lat="40.219809003174304962158203125" lon="-0.959031879901885986328125">
        <ele>1187.199951171875</ele>
        <time>2021-09-26T09:18:54.000Z</time>
      </trkpt>
      <trkpt lat="40.21975879557430744171142578125" lon="-0.95897429622709751129150390625">
        <ele>1188.4000244140625</ele>
        <time>2021-09-26T09:18:55.000Z</time>
      </trkpt>
      <trkpt lat="40.21971277892589569091796875" lon="-0.95891461707651615142822265625">
        <ele>1189.4000244140625</ele>
        <time>2021-09-26T09:18:56.000Z</time>
      </trkpt>
      <trkpt lat="40.21966676227748394012451171875" lon="-0.95885577611625194549560546875">
        <ele>1190</ele>
        <time>2021-09-26T09:18:57.000Z</time>
      </trkpt>
      <trkpt lat="40.2195768244564533233642578125" lon="-0.958737842738628387451171875">
        <ele>1190.800048828125</ele>
        <time>2021-09-26T09:18:59.000Z</time>
      </trkpt>
      <trkpt lat="40.21948210895061492919921875" lon="-0.9586226753890514373779296875">
        <ele>1191.199951171875</ele>
        <time>2021-09-26T09:19:01.000Z</time>
      </trkpt>
      <trkpt lat="40.21938798017799854278564453125" lon="-0.95850549638271331787109375">
        <ele>1191</ele>
        <time>2021-09-26T09:19:03.000Z</time>
      </trkpt>
      <trkpt lat="40.21929795853793621063232421875" lon="-0.9583873115479946136474609375">
        <ele>1190.199951171875</ele>
        <time>2021-09-26T09:19:05.000Z</time>
      </trkpt>
      <trkpt lat="40.21921263076364994049072265625" lon="-0.95826736651360988616943359375">
        <ele>1189.4000244140625</ele>
        <time>2021-09-26T09:19:07.000Z</time>
      </trkpt>
      <trkpt lat="40.21913476288318634033203125" lon="-0.95813929103314876556396484375">
        <ele>1188.4000244140625</ele>
        <time>2021-09-26T09:19:09.000Z</time>
      </trkpt>
      <trkpt lat="40.21906024776399135589599609375" lon="-0.958009622991085052490234375">
        <ele>1187.5999755859375</ele>
        <time>2021-09-26T09:19:11.000Z</time>
      </trkpt>
      <trkpt lat="40.21898833103477954864501953125" lon="-0.95787391997873783111572265625">
        <ele>1187</ele>
        <time>2021-09-26T09:19:13.000Z</time>
      </trkpt>
      <trkpt lat="40.218916498124599456787109375" lon="-0.95773008652031421661376953125">
        <ele>1187</ele>
        <time>2021-09-26T09:19:15.000Z</time>
      </trkpt>
      <trkpt lat="40.21884240210056304931640625" lon="-0.9575853310525417327880859375">
        <ele>1187.199951171875</ele>
        <time>2021-09-26T09:19:17.000Z</time>
      </trkpt>
      <trkpt lat="40.2187661267817020416259765625" lon="-0.95744174905121326446533203125">
        <ele>1186.800048828125</ele>
        <time>2021-09-26T09:19:19.000Z</time>
      </trkpt>
      <trkpt lat="40.2186893485486507415771484375" lon="-0.9572996757924556732177734375">
        <ele>1186.199951171875</ele>
        <time>2021-09-26T09:19:21.000Z</time>
      </trkpt>
      <trkpt lat="40.218610055744647979736328125" lon="-0.957157351076602935791015625">
        <ele>1184.800048828125</ele>
        <time>2021-09-26T09:19:23.000Z</time>
      </trkpt>
      <trkpt lat="40.21852917037904262542724609375" lon="-0.95701175741851329803466796875">
        <ele>1183.4000244140625</ele>
        <time>2021-09-26T09:19:25.000Z</time>
      </trkpt>
      <trkpt lat="40.21844384260475635528564453125" lon="-0.9568607993423938751220703125">
        <ele>1181.4000244140625</ele>
        <time>2021-09-26T09:19:27.000Z</time>
      </trkpt>
      <trkpt lat="40.21835952065885066986083984375" lon="-0.95670682378113269805908203125">
        <ele>1180</ele>
        <time>2021-09-26T09:19:29.000Z</time>
      </trkpt>
      <trkpt lat="40.2182759530842304229736328125" lon="-0.9565523453056812286376953125">
        <ele>1178.4000244140625</ele>
        <time>2021-09-26T09:19:31.000Z</time>
      </trkpt>
      <trkpt lat="40.21819624118506908416748046875" lon="-0.956397615373134613037109375">
        <ele>1177.800048828125</ele>
        <time>2021-09-26T09:19:33.000Z</time>
      </trkpt>
      <trkpt lat="40.2181109972298145294189453125" lon="-0.95623525790870189666748046875">
        <ele>1177.5999755859375</ele>
        <time>2021-09-26T09:19:35.000Z</time>
      </trkpt>
      <trkpt lat="40.21802541799843311309814453125" lon="-0.9560747444629669189453125">
        <ele>1178</ele>
        <time>2021-09-26T09:19:37.000Z</time>
      </trkpt>
      <trkpt lat="40.2179383300244808197021484375" lon="-0.955913476645946502685546875">
        <ele>1178.199951171875</ele>
        <time>2021-09-26T09:19:39.000Z</time>
      </trkpt>
      <trkpt lat="40.21785174496471881866455078125" lon="-0.95575346611440181732177734375">
        <ele>1178.199951171875</ele>
        <time>2021-09-26T09:19:41.000Z</time>
      </trkpt>
      <trkpt lat="40.2177623100578784942626953125" lon="-0.95558934845030307769775390625">
        <ele>1177.5999755859375</ele>
        <time>2021-09-26T09:19:43.000Z</time>
      </trkpt>
      <trkpt lat="40.217669941484928131103515625" lon="-0.95542372204363346099853515625">
        <ele>1177.4000244140625</ele>
        <time>2021-09-26T09:19:45.000Z</time>
      </trkpt>
      <trkpt lat="40.21757497452199459075927734375" lon="-0.9552548266947269439697265625">
        <ele>1176.4000244140625</ele>
        <time>2021-09-26T09:19:47.000Z</time>
      </trkpt>
      <trkpt lat="40.21748118102550506591796875" lon="-0.95508836209774017333984375">
        <ele>1176.4000244140625</ele>
        <time>2021-09-26T09:19:49.000Z</time>
      </trkpt>
      <trkpt lat="40.217433236539363861083984375" lon="-0.955003537237644195556640625">
        <ele>1176.4000244140625</ele>
        <time>2021-09-26T09:19:50.000Z</time>
      </trkpt>
      <trkpt lat="40.21738654933869838714599609375" lon="-0.95491829328238964080810546875">
        <ele>1176.5999755859375</ele>
        <time>2021-09-26T09:19:51.000Z</time>
      </trkpt>
      <trkpt lat="40.21729434840381145477294921875" lon="-0.95474361442029476165771484375">
        <ele>1175.4000244140625</ele>
        <time>2021-09-26T09:19:53.000Z</time>
      </trkpt>
      <trkpt lat="40.21719963289797306060791015625" lon="-0.95457111485302448272705078125">
        <ele>1173.800048828125</ele>
        <time>2021-09-26T09:19:55.000Z</time>
      </trkpt>
      <trkpt lat="40.21710298955440521240234375" lon="-0.95439643599092960357666015625">
        <ele>1172.199951171875</ele>
        <time>2021-09-26T09:19:57.000Z</time>
      </trkpt>
      <trkpt lat="40.21700668148696422576904296875" lon="-0.9542221762239933013916015625">
        <ele>1171.800048828125</ele>
        <time>2021-09-26T09:19:59.000Z</time>
      </trkpt>
      <trkpt lat="40.21691012196242809295654296875" lon="-0.95404372550547122955322265625">
        <ele>1173.199951171875</ele>
        <time>2021-09-26T09:20:01.000Z</time>
      </trkpt>
      <trkpt lat="40.21681171841919422149658203125" lon="-0.9538667835295200347900390625">
        <ele>1174.5999755859375</ele>
        <time>2021-09-26T09:20:03.000Z</time>
      </trkpt>
      <trkpt lat="40.2167182601988315582275390625" lon="-0.9536897577345371246337890625">
        <ele>1176.199951171875</ele>
        <time>2021-09-26T09:20:05.000Z</time>
      </trkpt>
      <trkpt lat="40.21662823855876922607421875" lon="-0.9535063616931438446044921875">
        <ele>1176</ele>
        <time>2021-09-26T09:20:07.000Z</time>
      </trkpt>
      <trkpt lat="40.21654735319316387176513671875" lon="-0.953323803842067718505859375">
        <ele>1175.5999755859375</ele>
        <time>2021-09-26T09:20:09.000Z</time>
      </trkpt>
      <trkpt lat="40.21648046560585498809814453125" lon="-0.9531295113265514373779296875">
        <ele>1175</ele>
        <time>2021-09-26T09:20:11.000Z</time>
      </trkpt>
      <trkpt lat="40.216427408158779144287109375" lon="-0.95292759127914905548095703125">
        <ele>1173.199951171875</ele>
        <time>2021-09-26T09:20:13.000Z</time>
      </trkpt>
      <trkpt lat="40.216408632695674896240234375" lon="-0.95282633788883686065673828125">
        <ele>1172.4000244140625</ele>
        <time>2021-09-26T09:20:14.000Z</time>
      </trkpt>
      <trkpt lat="40.21639346145093441009521484375" lon="-0.95272474922239780426025390625">
        <ele>1171.800048828125</ele>
        <time>2021-09-26T09:20:15.000Z</time>
      </trkpt>
      <trkpt lat="40.21636010147631168365478515625" lon="-0.95251922495663166046142578125">
        <ele>1170.5999755859375</ele>
        <time>2021-09-26T09:20:17.000Z</time>
      </trkpt>
      <trkpt lat="40.21632908843457698822021484375" lon="-0.9523062407970428466796875">
        <ele>1169.800048828125</ele>
        <time>2021-09-26T09:20:19.000Z</time>
      </trkpt>
      <trkpt lat="40.21631282754242420196533203125" lon="-0.952197611331939697265625">
        <ele>1169.4000244140625</ele>
        <time>2021-09-26T09:20:20.000Z</time>
      </trkpt>
      <trkpt lat="40.2162968181073665618896484375" lon="-0.9520911611616611480712890625">
        <ele>1169.199951171875</ele>
        <time>2021-09-26T09:20:21.000Z</time>
      </trkpt>
      <trkpt lat="40.2162689901888370513916015625" lon="-0.951877422630786895751953125">
        <ele>1167</ele>
        <time>2021-09-26T09:20:23.000Z</time>
      </trkpt>
      <trkpt lat="40.2162384800612926483154296875" lon="-0.9516677074134349822998046875">
        <ele>1165.800048828125</ele>
        <time>2021-09-26T09:20:25.000Z</time>
      </trkpt>
      <trkpt lat="40.21620444953441619873046875" lon="-0.95146025530993938446044921875">
        <ele>1165.199951171875</ele>
        <time>2021-09-26T09:20:27.000Z</time>
      </trkpt>
      <trkpt lat="40.21617301739752292633056640625" lon="-0.95125623978674411773681640625">
        <ele>1166</ele>
        <time>2021-09-26T09:20:29.000Z</time>
      </trkpt>
      <trkpt lat="40.2161439321935176849365234375" lon="-0.951051972806453704833984375">
        <ele>1166.800048828125</ele>
        <time>2021-09-26T09:20:31.000Z</time>
      </trkpt>
      <trkpt lat="40.21612289361655712127685546875" lon="-0.9508409164845943450927734375">
        <ele>1166.5999755859375</ele>
        <time>2021-09-26T09:20:33.000Z</time>
      </trkpt>
      <trkpt lat="40.21609850227832794189453125" lon="-0.950626842677593231201171875">
        <ele>1167</ele>
        <time>2021-09-26T09:20:35.000Z</time>
      </trkpt>
      <trkpt lat="40.2160862646996974945068359375" lon="-0.95052181743085384368896484375">
        <ele>1166.800048828125</ele>
        <time>2021-09-26T09:20:36.000Z</time>
      </trkpt>
      <trkpt lat="40.21607461385428905487060546875" lon="-0.95041704364120960235595703125">
        <ele>1166.5999755859375</ele>
        <time>2021-09-26T09:20:37.000Z</time>
      </trkpt>
      <trkpt lat="40.21604393608868122100830078125" lon="-0.95021269284188747406005859375">
        <ele>1166.199951171875</ele>
        <time>2021-09-26T09:20:39.000Z</time>
      </trkpt>
      <trkpt lat="40.21601644344627857208251953125" lon="-0.95001161098480224609375">
        <ele>1166.199951171875</ele>
        <time>2021-09-26T09:20:41.000Z</time>
      </trkpt>
      <trkpt lat="40.2160041220486164093017578125" lon="-0.94991262070834636688232421875">
        <ele>1166.199951171875</ele>
        <time>2021-09-26T09:20:42.000Z</time>
      </trkpt>
      <trkpt lat="40.2159903757274150848388671875" lon="-0.949816145002841949462890625">
        <ele>1166.4000244140625</ele>
        <time>2021-09-26T09:20:43.000Z</time>
      </trkpt>
      <trkpt lat="40.215964056551456451416015625" lon="-0.9496221877634525299072265625">
        <ele>1166.4000244140625</ele>
        <time>2021-09-26T09:20:45.000Z</time>
      </trkpt>
      <trkpt lat="40.21593488752841949462890625" lon="-0.949429571628570556640625">
        <ele>1166.800048828125</ele>
        <time>2021-09-26T09:20:47.000Z</time>
      </trkpt>
      <trkpt lat="40.21590630523860454559326171875" lon="-0.94923578202724456787109375">
        <ele>1167.199951171875</ele>
        <time>2021-09-26T09:20:49.000Z</time>
      </trkpt>
      <trkpt lat="40.21587814204394817352294921875" lon="-0.94903788529336452484130859375">
        <ele>1166.800048828125</ele>
        <time>2021-09-26T09:20:51.000Z</time>
      </trkpt>
      <trkpt lat="40.215848386287689208984375" lon="-0.9488420002162456512451171875">
        <ele>1165.4000244140625</ele>
        <time>2021-09-26T09:20:53.000Z</time>
      </trkpt>
      <trkpt lat="40.215821564197540283203125" lon="-0.94864225946366786956787109375">
        <ele>1164.5999755859375</ele>
        <time>2021-09-26T09:20:55.000Z</time>
      </trkpt>
      <trkpt lat="40.2157934010028839111328125" lon="-0.9484493918716907501220703125">
        <ele>1165.199951171875</ele>
        <time>2021-09-26T09:20:57.000Z</time>
      </trkpt>
      <trkpt lat="40.21576984785497188568115234375" lon="-0.948357693850994110107421875">
        <ele>1165.800048828125</ele>
        <time>2021-09-26T09:20:58.000Z</time>
      </trkpt>
      <trkpt lat="40.215740762650966644287109375" lon="-0.94826859422028064727783203125">
        <ele>1166</ele>
        <time>2021-09-26T09:20:59.000Z</time>
      </trkpt>
      <trkpt lat="40.21570480428636074066162109375" lon="-0.9481821767985820770263671875">
        <ele>1166.4000244140625</ele>
        <time>2021-09-26T09:21:00.000Z</time>
      </trkpt>
      <trkpt lat="40.21566641516983509063720703125" lon="-0.948099531233310699462890625">
        <ele>1166.5999755859375</ele>
        <time>2021-09-26T09:21:01.000Z</time>
      </trkpt>
      <trkpt lat="40.2156333066523075103759765625" lon="-0.94801512546837329864501953125">
        <ele>1166.800048828125</ele>
        <time>2021-09-26T09:21:02.000Z</time>
      </trkpt>
      <trkpt lat="40.2156068198382854461669921875" lon="-0.94793197698891162872314453125">
        <ele>1167</ele>
        <time>2021-09-26T09:21:03.000Z</time>
      </trkpt>
      <trkpt lat="40.21556884981691837310791015625" lon="-0.9477691166102886199951171875">
        <ele>1167.800048828125</ele>
        <time>2021-09-26T09:21:05.000Z</time>
      </trkpt>
      <trkpt lat="40.215555019676685333251953125" lon="-0.947689823806285858154296875">
        <ele>1168.199951171875</ele>
        <time>2021-09-26T09:21:06.000Z</time>
      </trkpt>
      <trkpt lat="40.215539596974849700927734375" lon="-0.94761279411613941192626953125">
        <ele>1168.5999755859375</ele>
        <time>2021-09-26T09:21:07.000Z</time>
      </trkpt>
      <trkpt lat="40.21550296805799007415771484375" lon="-0.9474633447825908660888671875">
        <ele>1169</ele>
        <time>2021-09-26T09:21:09.000Z</time>
      </trkpt>
      <trkpt lat="40.21546055562794208526611328125" lon="-0.94731791876256465911865234375">
        <ele>1169.199951171875</ele>
        <time>2021-09-26T09:21:11.000Z</time>
      </trkpt>
      <trkpt lat="40.21541110239923000335693359375" lon="-0.94717291183769702911376953125">
        <ele>1169.4000244140625</ele>
        <time>2021-09-26T09:21:13.000Z</time>
      </trkpt>
      <trkpt lat="40.2153553627431392669677734375" lon="-0.947024635970592498779296875">
        <ele>1169.199951171875</ele>
        <time>2021-09-26T09:21:15.000Z</time>
      </trkpt>
      <trkpt lat="40.21529920399188995361328125" lon="-0.94687669537961483001708984375">
        <ele>1169</ele>
        <time>2021-09-26T09:21:17.000Z</time>
      </trkpt>
      <trkpt lat="40.2152443863451480865478515625" lon="-0.94673051498830318450927734375">
        <ele>1168.800048828125</ele>
        <time>2021-09-26T09:21:19.000Z</time>
      </trkpt>
      <trkpt lat="40.2151894010603427886962890625" lon="-0.94658835791051387786865234375">
        <ele>1169</ele>
        <time>2021-09-26T09:21:21.000Z</time>
      </trkpt>
      <trkpt lat="40.2151592262089252471923828125" lon="-0.94651736319065093994140625">
        <ele>1169.199951171875</ele>
        <time>2021-09-26T09:21:22.000Z</time>
      </trkpt>
      <trkpt lat="40.21513047628104686737060546875" lon="-0.94645433127880096435546875">
        <ele>1169.4000244140625</ele>
        <time>2021-09-26T09:21:23.000Z</time>
      </trkpt>
      <trkpt lat="40.21508194506168365478515625" lon="-0.94634595327079296112060546875">
        <ele>1170</ele>
        <time>2021-09-26T09:21:25.000Z</time>
      </trkpt>
      <trkpt lat="40.215062163770198822021484375" lon="-0.9463039599359035491943359375">
        <ele>1170.199951171875</ele>
        <time>2021-09-26T09:21:26.000Z</time>
      </trkpt>
      <trkpt lat="40.21504749543964862823486328125" lon="-0.94627101905643939971923828125">
        <ele>1170.4000244140625</ele>
        <time>2021-09-26T09:21:27.000Z</time>
      </trkpt>
      <trkpt lat="40.21502695977687835693359375" lon="-0.94622005708515644073486328125">
        <ele>1170.5999755859375</ele>
        <time>2021-09-26T09:21:29.000Z</time>
      </trkpt>
      <trkpt lat="40.21499737165868282318115234375" lon="-0.94616255722939968109130859375">
        <ele>1170.800048828125</ele>
        <time>2021-09-26T09:21:31.000Z</time>
      </trkpt>
      <trkpt lat="40.214958228170871734619140625" lon="-0.94608242623507976531982421875">
        <ele>1170.4000244140625</ele>
        <time>2021-09-26T09:21:33.000Z</time>
      </trkpt>
      <trkpt lat="40.21490667946636676788330078125" lon="-0.94597027637064456939697265625">
        <ele>1170</ele>
        <time>2021-09-26T09:21:35.000Z</time>
      </trkpt>
      <trkpt lat="40.21488740108907222747802734375" lon="-0.9459038078784942626953125">
        <ele>1170</ele>
        <time>2021-09-26T09:21:36.000Z</time>
      </trkpt>
      <trkpt lat="40.2148685418069362640380859375" lon="-0.94584974460303783416748046875">
        <ele>1169.800048828125</ele>
        <time>2021-09-26T09:21:37.000Z</time>
      </trkpt>
      <trkpt lat="40.21483543328940868377685546875" lon="-0.94576424919068813323974609375">
        <ele>1169.5999755859375</ele>
        <time>2021-09-26T09:21:39.000Z</time>
      </trkpt>
      <trkpt lat="40.21479385904967784881591796875" lon="-0.94569853506982326507568359375">
        <ele>1169.199951171875</ele>
        <time>2021-09-26T09:21:41.000Z</time>
      </trkpt>
      <trkpt lat="40.21474725566804409027099609375" lon="-0.94564623199403285980224609375">
        <ele>1168.800048828125</ele>
        <time>2021-09-26T09:21:43.000Z</time>
      </trkpt>
      <trkpt lat="40.21472311578691005706787109375" lon="-0.94562276266515254974365234375">
        <ele>1168.5999755859375</ele>
        <time>2021-09-26T09:21:44.000Z</time>
      </trkpt>
      <trkpt lat="40.2146972157061100006103515625" lon="-0.94560004770755767822265625">
        <ele>1168.4000244140625</ele>
        <time>2021-09-26T09:21:45.000Z</time>
      </trkpt>
      <trkpt lat="40.21464885212481021881103515625" lon="-0.94556040130555629730224609375">
        <ele>1168.199951171875</ele>
        <time>2021-09-26T09:21:47.000Z</time>
      </trkpt>
      <trkpt lat="40.21459973417222499847412109375" lon="-0.94553039409220218658447265625">
        <ele>1167.800048828125</ele>
        <time>2021-09-26T09:21:49.000Z</time>
      </trkpt>
      <trkpt lat="40.21458129398524761199951171875" lon="-0.9455153904855251312255859375">
        <ele>1167.5999755859375</ele>
        <time>2021-09-26T09:21:50.000Z</time>
      </trkpt>
      <trkpt lat="40.21456721238791942596435546875" lon="-0.94550223089754581451416015625">
        <ele>1167.4000244140625</ele>
        <time>2021-09-26T09:21:51.000Z</time>
      </trkpt>
      <trkpt lat="40.2145339362323284149169921875" lon="-0.94548873603343963623046875">
        <ele>1167.4000244140625</ele>
        <time>2021-09-26T09:21:53.000Z</time>
      </trkpt>
      <trkpt lat="40.21452044136822223663330078125" lon="-0.9454825334250926971435546875">
        <ele>1167.199951171875</ele>
        <time>2021-09-26T09:21:54.000Z</time>
      </trkpt>
      <trkpt lat="40.2145114727318286895751953125" lon="-0.9454674459993839263916015625">
        <ele>1167.199951171875</ele>
        <time>2021-09-26T09:21:55.000Z</time>
      </trkpt>
      <trkpt lat="40.2144997380673885345458984375" lon="-0.945451520383358001708984375">
        <ele>1167.199951171875</ele>
        <time>2021-09-26T09:21:56.000Z</time>
      </trkpt>
      <trkpt lat="40.21448649466037750244140625" lon="-0.94544054009020328521728515625">
        <ele>1167.199951171875</ele>
        <time>2021-09-26T09:21:57.000Z</time>
      </trkpt>
      <trkpt lat="40.214474089443683624267578125" lon="-0.94542964361608028411865234375">
        <ele>1167.199951171875</ele>
        <time>2021-09-26T09:21:58.000Z</time>
      </trkpt>
      <trkpt lat="40.21446126513183116912841796875" lon="-0.94541539438068866729736328125">
        <ele>1167</ele>
        <time>2021-09-26T09:21:59.000Z</time>
      </trkpt>
      <trkpt lat="40.21444785408675670623779296875" lon="-0.9454013966023921966552734375">
        <ele>1167</ele>
        <time>2021-09-26T09:22:00.000Z</time>
      </trkpt>
      <trkpt lat="40.21443544887006282806396484375" lon="-0.94538521952927112579345703125">
        <ele>1167</ele>
        <time>2021-09-26T09:22:01.000Z</time>
      </trkpt>
      <trkpt lat="40.21442078053951263427734375" lon="-0.9453722275793552398681640625">
        <ele>1166.800048828125</ele>
        <time>2021-09-26T09:22:02.000Z</time>
      </trkpt>
      <trkpt lat="40.214407034218311309814453125" lon="-0.9453564696013927459716796875">
        <ele>1166.800048828125</ele>
        <time>2021-09-26T09:22:03.000Z</time>
      </trkpt>
      <trkpt lat="40.2143914438784122467041015625" lon="-0.94533719122409820556640625">
        <ele>1166.800048828125</ele>
        <time>2021-09-26T09:22:04.000Z</time>
      </trkpt>
      <trkpt lat="40.2143797092139720916748046875" lon="-0.94530768692493438720703125">
        <ele>1166.5999755859375</ele>
        <time>2021-09-26T09:22:05.000Z</time>
      </trkpt>
      <trkpt lat="40.2143664658069610595703125" lon="-0.94527122564613819122314453125">
        <ele>1166.5999755859375</ele>
        <time>2021-09-26T09:22:06.000Z</time>
      </trkpt>
      <trkpt lat="40.2143468521535396575927734375" lon="-0.9452314116060733795166015625">
        <ele>1166.4000244140625</ele>
        <time>2021-09-26T09:22:07.000Z</time>
      </trkpt>
      <trkpt lat="40.214301086962223052978515625" lon="-0.9451371990144252777099609375">
        <ele>1166</ele>
        <time>2021-09-26T09:22:09.000Z</time>
      </trkpt>
      <trkpt lat="40.21425322629511356353759765625" lon="-0.945036113262176513671875">
        <ele>1165.4000244140625</ele>
        <time>2021-09-26T09:22:11.000Z</time>
      </trkpt>
      <trkpt lat="40.21421718411147594451904296875" lon="-0.94496780075132846832275390625">
        <ele>1164.800048828125</ele>
        <time>2021-09-26T09:22:13.000Z</time>
      </trkpt>
      <trkpt lat="40.21419455297291278839111328125" lon="-0.94490024261176586151123046875">
        <ele>1164.4000244140625</ele>
        <time>2021-09-26T09:22:15.000Z</time>
      </trkpt>
      <trkpt lat="40.21417946554720401763916015625" lon="-0.9448133222758769989013671875">
        <ele>1163.800048828125</ele>
        <time>2021-09-26T09:22:17.000Z</time>
      </trkpt>
      <trkpt lat="40.2141889370977878570556640625" lon="-0.94476319849491119384765625">
        <ele>1163.800048828125</ele>
        <time>2021-09-26T09:22:18.000Z</time>
      </trkpt>
      <trkpt lat="40.21420796401798725128173828125" lon="-0.94471634365618228912353515625">
        <ele>1163.5999755859375</ele>
        <time>2021-09-26T09:22:19.000Z</time>
      </trkpt>
      <trkpt lat="40.21422992460429668426513671875" lon="-0.94467560760676860809326171875">
        <ele>1163.4000244140625</ele>
        <time>2021-09-26T09:22:20.000Z</time>
      </trkpt>
      <trkpt lat="40.2142476104199886322021484375" lon="-0.94463872723281383514404296875">
        <ele>1163.199951171875</ele>
        <time>2021-09-26T09:22:21.000Z</time>
      </trkpt>
      <trkpt lat="40.214270241558551788330078125" lon="-0.94460134394466876983642578125">
        <ele>1163.199951171875</ele>
        <time>2021-09-26T09:22:22.000Z</time>
      </trkpt>
      <trkpt lat="40.214289017021656036376953125" lon="-0.94456412829458713531494140625">
        <ele>1163</ele>
        <time>2021-09-26T09:22:23.000Z</time>
      </trkpt>
      <trkpt lat="40.2143253944814205169677734375" lon="-0.94448651187121868133544921875">
        <ele>1162.4000244140625</ele>
        <time>2021-09-26T09:22:25.000Z</time>
      </trkpt>
      <trkpt lat="40.21435800008475780487060546875" lon="-0.94441006891429424285888671875">
        <ele>1161.800048828125</ele>
        <time>2021-09-26T09:22:27.000Z</time>
      </trkpt>
      <trkpt lat="40.21437157876789569854736328125" lon="-0.94437821768224239349365234375">
        <ele>1161.5999755859375</ele>
        <time>2021-09-26T09:22:28.000Z</time>
      </trkpt>
      <trkpt lat="40.2143887616693973541259765625" lon="-0.9443432651460170745849609375">
        <ele>1161.4000244140625</ele>
        <time>2021-09-26T09:22:29.000Z</time>
      </trkpt>
      <trkpt lat="40.21442371420562267303466796875" lon="-0.94427495263516902923583984375">
        <ele>1161.199951171875</ele>
        <time>2021-09-26T09:22:31.000Z</time>
      </trkpt>
      <trkpt lat="40.21445833146572113037109375" lon="-0.9442061372101306915283203125">
        <ele>1161</ele>
        <time>2021-09-26T09:22:33.000Z</time>
      </trkpt>
      <trkpt lat="40.214488171041011810302734375" lon="-0.94413212500512599945068359375">
        <ele>1160.800048828125</ele>
        <time>2021-09-26T09:22:35.000Z</time>
      </trkpt>
      <trkpt lat="40.214510969817638397216796875" lon="-0.944065153598785400390625">
        <ele>1160.800048828125</ele>
        <time>2021-09-26T09:22:37.000Z</time>
      </trkpt>
      <trkpt lat="40.21452932618558406829833984375" lon="-0.94400807283818721771240234375">
        <ele>1160.5999755859375</ele>
        <time>2021-09-26T09:22:39.000Z</time>
      </trkpt>
      <trkpt lat="40.21454927511513233184814453125" lon="-0.9439519979059696197509765625">
        <ele>1160.5999755859375</ele>
        <time>2021-09-26T09:22:41.000Z</time>
      </trkpt>
      <trkpt lat="40.2145580761134624481201171875" lon="-0.94392492435872554779052734375">
        <ele>1160.5999755859375</ele>
        <time>2021-09-26T09:22:42.000Z</time>
      </trkpt>
      <trkpt lat="40.21457090042531490325927734375" lon="-0.943896509706974029541015625">
        <ele>1160.800048828125</ele>
        <time>2021-09-26T09:22:43.000Z</time>
      </trkpt>
      <trkpt lat="40.21459604613482952117919921875" lon="-0.94384194351732730865478515625">
        <ele>1160.800048828125</ele>
        <time>2021-09-26T09:22:45.000Z</time>
      </trkpt>
      <trkpt lat="40.21462169475853443145751953125" lon="-0.9437736310064792633056640625">
        <ele>1161</ele>
        <time>2021-09-26T09:22:47.000Z</time>
      </trkpt>
      <trkpt lat="40.2146351896226406097412109375" lon="-0.943707413971424102783203125">
        <ele>1161</ele>
        <time>2021-09-26T09:22:49.000Z</time>
      </trkpt>
      <trkpt lat="40.21465681493282318115234375" lon="-0.94365016557276248931884765625">
        <ele>1161</ele>
        <time>2021-09-26T09:22:51.000Z</time>
      </trkpt>
      <trkpt lat="40.2146724052727222442626953125" lon="-0.943601466715335845947265625">
        <ele>1161.199951171875</ele>
        <time>2021-09-26T09:22:53.000Z</time>
      </trkpt>
      <trkpt lat="40.21467248909175395965576171875" lon="-0.94355176202952861785888671875">
        <ele>1161.199951171875</ele>
        <time>2021-09-26T09:22:55.000Z</time>
      </trkpt>
      <trkpt lat="40.21467131562530994415283203125" lon="-0.94350683502852916717529296875">
        <ele>1161.199951171875</ele>
        <time>2021-09-26T09:22:57.000Z</time>
      </trkpt>
      <trkpt lat="40.21468036808073520660400390625" lon="-0.9434852935373783111572265625">
        <ele>1161.199951171875</ele>
        <time>2021-09-26T09:22:58.000Z</time>
      </trkpt>
      <trkpt lat="40.21469377912580966949462890625" lon="-0.94346576370298862457275390625">
        <ele>1161.4000244140625</ele>
        <time>2021-09-26T09:22:59.000Z</time>
      </trkpt>
      <trkpt lat="40.21471054293215274810791015625" lon="-0.94345629215240478515625">
        <ele>1161.4000244140625</ele>
        <time>2021-09-26T09:23:00.000Z</time>
      </trkpt>
      <trkpt lat="40.2147263847291469573974609375" lon="-0.943461991846561431884765625">
        <ele>1161.5999755859375</ele>
        <time>2021-09-26T09:23:01.000Z</time>
      </trkpt>
      <trkpt lat="40.214735604822635650634765625" lon="-0.9435007162392139434814453125">
        <ele>1161.5999755859375</ele>
        <time>2021-09-26T09:23:03.000Z</time>
      </trkpt>
      <trkpt lat="40.21472848020493984222412109375" lon="-0.94352678395807743072509765625">
        <ele>1161.5999755859375</ele>
        <time>2021-09-26T09:23:04.000Z</time>
      </trkpt>
      <trkpt lat="40.2147180028259754180908203125" lon="-0.9435595571994781494140625">
        <ele>1161.5999755859375</ele>
        <time>2021-09-26T09:23:05.000Z</time>
      </trkpt>
      <trkpt lat="40.21470383740961551666259765625" lon="-0.94359853304922580718994140625">
        <ele>1161.4000244140625</ele>
        <time>2021-09-26T09:23:06.000Z</time>
      </trkpt>
      <trkpt lat="40.21468439139425754547119140625" lon="-0.94363675452768802642822265625">
        <ele>1161.199951171875</ele>
        <time>2021-09-26T09:23:07.000Z</time>
      </trkpt>
      <trkpt lat="40.2146449126303195953369140625" lon="-0.94372007064521312713623046875">
        <ele>1161</ele>
        <time>2021-09-26T09:23:09.000Z</time>
      </trkpt>
      <trkpt lat="40.21461800672113895416259765625" lon="-0.94379668124020099639892578125">
        <ele>1161</ele>
        <time>2021-09-26T09:23:11.000Z</time>
      </trkpt>
      <trkpt lat="40.2145905978977680206298828125" lon="-0.94386256299912929534912109375">
        <ele>1160.800048828125</ele>
        <time>2021-09-26T09:23:13.000Z</time>
      </trkpt>
      <trkpt lat="40.21455866284668445587158203125" lon="-0.9439315460622310638427734375">
        <ele>1160.5999755859375</ele>
        <time>2021-09-26T09:23:15.000Z</time>
      </trkpt>
      <trkpt lat="40.21454751491546630859375" lon="-0.94396390020847320556640625">
        <ele>1160.5999755859375</ele>
        <time>2021-09-26T09:23:16.000Z</time>
      </trkpt>
      <trkpt lat="40.214539803564548492431640625" lon="-0.9439913928508758544921875">
        <ele>1160.5999755859375</ele>
        <time>2021-09-26T09:23:17.000Z</time>
      </trkpt>
      <trkpt lat="40.21451809443533420562744140625" lon="-0.944052748382091522216796875">
        <ele>1160.5999755859375</ele>
        <time>2021-09-26T09:23:19.000Z</time>
      </trkpt>
      <trkpt lat="40.2144910208880901336669921875" lon="-0.94411049969494342803955078125">
        <ele>1160.800048828125</ele>
        <time>2021-09-26T09:23:21.000Z</time>
      </trkpt>
      <trkpt lat="40.21447350271046161651611328125" lon="-0.94413899816572666168212890625">
        <ele>1160.800048828125</ele>
        <time>2021-09-26T09:23:22.000Z</time>
      </trkpt>
      <trkpt lat="40.21445623598992824554443359375" lon="-0.94416364096105098724365234375">
        <ele>1160.800048828125</ele>
        <time>2021-09-26T09:23:23.000Z</time>
      </trkpt>
      <trkpt lat="40.214431174099445343017578125" lon="-0.944209657609462738037109375">
        <ele>1161</ele>
        <time>2021-09-26T09:23:25.000Z</time>
      </trkpt>
      <trkpt lat="40.214412398636341094970703125" lon="-0.944259278476238250732421875">
        <ele>1161</ele>
        <time>2021-09-26T09:23:27.000Z</time>
      </trkpt>
      <trkpt lat="40.21440066397190093994140625" lon="-0.94429121352732181549072265625">
        <ele>1161.199951171875</ele>
        <time>2021-09-26T09:23:28.000Z</time>
      </trkpt>
      <trkpt lat="40.2143874205648899078369140625" lon="-0.94432474114000797271728515625">
        <ele>1161.4000244140625</ele>
        <time>2021-09-26T09:23:29.000Z</time>
      </trkpt>
      <trkpt lat="40.21435732953250408172607421875" lon="-0.94439816661179065704345703125">
        <ele>1161.800048828125</ele>
        <time>2021-09-26T09:23:31.000Z</time>
      </trkpt>
      <trkpt lat="40.21432648412883281707763671875" lon="-0.94446237199008464813232421875">
        <ele>1162.199951171875</ele>
        <time>2021-09-26T09:23:33.000Z</time>
      </trkpt>
      <trkpt lat="40.21429605782032012939453125" lon="-0.94454401172697544097900390625">
        <ele>1162.800048828125</ele>
        <time>2021-09-26T09:23:35.000Z</time>
      </trkpt>
      <trkpt lat="40.21425942890346050262451171875" lon="-0.9446101449429988861083984375">
        <ele>1163.199951171875</ele>
        <time>2021-09-26T09:23:37.000Z</time>
      </trkpt>
      <trkpt lat="40.214228667318820953369140625" lon="-0.9446590952575206756591796875">
        <ele>1163.4000244140625</ele>
        <time>2021-09-26T09:23:39.000Z</time>
      </trkpt>
      <trkpt lat="40.21421835757791996002197265625" lon="-0.94468516297638416290283203125">
        <ele>1163.4000244140625</ele>
        <time>2021-09-26T09:23:40.000Z</time>
      </trkpt>
      <trkpt lat="40.21421181969344615936279296875" lon="-0.9447026811540126800537109375">
        <ele>1163.4000244140625</ele>
        <time>2021-09-26T09:23:41.000Z</time>
      </trkpt>
      <trkpt lat="40.2141969837248325347900390625" lon="-0.944736711680889129638671875">
        <ele>1163.5999755859375</ele>
        <time>2021-09-26T09:23:43.000Z</time>
      </trkpt>
      <trkpt lat="40.2141829021275043487548828125" lon="-0.94474702142179012298583984375">
        <ele>1163.5999755859375</ele>
        <time>2021-09-26T09:23:44.000Z</time>
      </trkpt>
      <trkpt lat="40.21415926516056060791015625" lon="-0.94474442303180694580078125">
        <ele>1163.5999755859375</ele>
        <time>2021-09-26T09:23:45.000Z</time>
      </trkpt>
      <trkpt lat="40.21411056630313396453857421875" lon="-0.94471491873264312744140625">
        <ele>1163.5999755859375</ele>
        <time>2021-09-26T09:23:47.000Z</time>
      </trkpt>
      <trkpt lat="40.21407075226306915283203125" lon="-0.944649875164031982421875">
        <ele>1163.4000244140625</ele>
        <time>2021-09-26T09:23:49.000Z</time>
      </trkpt>
      <trkpt lat="40.214050970971584320068359375" lon="-0.944616012275218963623046875">
        <ele>1163.4000244140625</ele>
        <time>2021-09-26T09:23:50.000Z</time>
      </trkpt>
      <trkpt lat="40.21402917802333831787109375" lon="-0.944584496319293975830078125">
        <ele>1163.199951171875</ele>
        <time>2021-09-26T09:23:51.000Z</time>
      </trkpt>
      <trkpt lat="40.2140045352280139923095703125" lon="-0.94455289654433727264404296875">
        <ele>1163.199951171875</ele>
        <time>2021-09-26T09:23:52.000Z</time>
      </trkpt>
      <trkpt lat="40.21397947333753108978271484375" lon="-0.94451903365552425384521484375">
        <ele>1163</ele>
        <time>2021-09-26T09:23:53.000Z</time>
      </trkpt>
      <trkpt lat="40.2139297686517238616943359375" lon="-0.94445650465786457061767578125">
        <ele>1162.800048828125</ele>
        <time>2021-09-26T09:23:55.000Z</time>
      </trkpt>
      <trkpt lat="40.2138838358223438262939453125" lon="-0.94439682550728321075439453125">
        <ele>1162.5999755859375</ele>
        <time>2021-09-26T09:23:57.000Z</time>
      </trkpt>
      <trkpt lat="40.21384653635323047637939453125" lon="-0.94434284605085849761962890625">
        <ele>1162.199951171875</ele>
        <time>2021-09-26T09:23:59.000Z</time>
      </trkpt>
      <trkpt lat="40.21380328573286533355712890625" lon="-0.9442953206598758697509765625">
        <ele>1162</ele>
        <time>2021-09-26T09:24:01.000Z</time>
      </trkpt>
      <trkpt lat="40.213750898838043212890625" lon="-0.94424226321280002593994140625">
        <ele>1161.800048828125</ele>
        <time>2021-09-26T09:24:03.000Z</time>
      </trkpt>
      <trkpt lat="40.21369599737226963043212890625" lon="-0.94419666565954685211181640625">
        <ele>1161.800048828125</ele>
        <time>2021-09-26T09:24:05.000Z</time>
      </trkpt>
      <trkpt lat="40.21364620886743068695068359375" lon="-0.94415341503918170928955078125">
        <ele>1161.5999755859375</ele>
        <time>2021-09-26T09:24:07.000Z</time>
      </trkpt>
      <trkpt lat="40.213597007095813751220703125" lon="-0.94411812722682952880859375">
        <ele>1161.5999755859375</ele>
        <time>2021-09-26T09:24:09.000Z</time>
      </trkpt>
      <trkpt lat="40.2135438658297061920166015625" lon="-0.94409222714602947235107421875">
        <ele>1161.5999755859375</ele>
        <time>2021-09-26T09:24:11.000Z</time>
      </trkpt>
      <trkpt lat="40.213494412600994110107421875" lon="-0.94406708143651485443115234375">
        <ele>1161.4000244140625</ele>
        <time>2021-09-26T09:24:13.000Z</time>
      </trkpt>
      <trkpt lat="40.21344755776226520538330078125" lon="-0.94404880888760089874267578125">
        <ele>1161.199951171875</ele>
        <time>2021-09-26T09:24:15.000Z</time>
      </trkpt>
      <trkpt lat="40.2134048938751220703125" lon="-0.944022238254547119140625">
        <ele>1161</ele>
        <time>2021-09-26T09:24:17.000Z</time>
      </trkpt>
      <trkpt lat="40.2133809216320514678955078125" lon="-0.944007150828838348388671875">
        <ele>1161</ele>
        <time>2021-09-26T09:24:18.000Z</time>
      </trkpt>
      <trkpt lat="40.213357619941234588623046875" lon="-0.94399248249828815460205078125">
        <ele>1160.800048828125</ele>
        <time>2021-09-26T09:24:19.000Z</time>
      </trkpt>
      <trkpt lat="40.21331571042537689208984375" lon="-0.94396884553134441375732421875">
        <ele>1160.5999755859375</ele>
        <time>2021-09-26T09:24:21.000Z</time>
      </trkpt>
      <trkpt lat="40.2132682688534259796142578125" lon="-0.94393481500446796417236328125">
        <ele>1160.4000244140625</ele>
        <time>2021-09-26T09:24:23.000Z</time>
      </trkpt>
      <trkpt lat="40.2132394351065158843994140625" lon="-0.94391386024653911590576171875">
        <ele>1160.4000244140625</ele>
        <time>2021-09-26T09:24:24.000Z</time>
      </trkpt>
      <trkpt lat="40.2132139541208744049072265625" lon="-0.94389491714537143707275390625">
        <ele>1160.199951171875</ele>
        <time>2021-09-26T09:24:25.000Z</time>
      </trkpt>
      <trkpt lat="40.2131616510450839996337890625" lon="-0.94385820440948009490966796875">
        <ele>1160.199951171875</ele>
        <time>2021-09-26T09:24:27.000Z</time>
      </trkpt>
      <trkpt lat="40.2131120301783084869384765625" lon="-0.94382484443485736846923828125">
        <ele>1160.4000244140625</ele>
        <time>2021-09-26T09:24:29.000Z</time>
      </trkpt>
      <trkpt lat="40.2130603976547718048095703125" lon="-0.94379031099379062652587890625">
        <ele>1160.5999755859375</ele>
        <time>2021-09-26T09:24:31.000Z</time>
      </trkpt>
      <trkpt lat="40.21301136352121829986572265625" lon="-0.9437588788568973541259765625">
        <ele>1160.800048828125</ele>
        <time>2021-09-26T09:24:33.000Z</time>
      </trkpt>
      <trkpt lat="40.212959311902523040771484375" lon="-0.943715460598468780517578125">
        <ele>1161.199951171875</ele>
        <time>2021-09-26T09:24:35.000Z</time>
      </trkpt>
      <trkpt lat="40.212899632751941680908203125" lon="-0.94366860575973987579345703125">
        <ele>1161.5999755859375</ele>
        <time>2021-09-26T09:24:37.000Z</time>
      </trkpt>
      <trkpt lat="40.21284070797264575958251953125" lon="-0.9436183981597423553466796875">
        <ele>1162</ele>
        <time>2021-09-26T09:24:39.000Z</time>
      </trkpt>
      <trkpt lat="40.21277080290019512176513671875" lon="-0.94356467016041278839111328125">
        <ele>1162.4000244140625</ele>
        <time>2021-09-26T09:24:41.000Z</time>
      </trkpt>
      <trkpt lat="40.21273501217365264892578125" lon="-0.9435392729938030242919921875">
        <ele>1162.800048828125</ele>
        <time>2021-09-26T09:24:42.000Z</time>
      </trkpt>
      <trkpt lat="40.21269871853291988372802734375" lon="-0.94350985251367092132568359375">
        <ele>1163</ele>
        <time>2021-09-26T09:24:43.000Z</time>
      </trkpt>
      <trkpt lat="40.21266032941639423370361328125" lon="-0.94348378479480743408203125">
        <ele>1163.199951171875</ele>
        <time>2021-09-26T09:24:44.000Z</time>
      </trkpt>
      <trkpt lat="40.2126208506524562835693359375" lon="-0.943459309637546539306640625">
        <ele>1163.199951171875</ele>
        <time>2021-09-26T09:24:45.000Z</time>
      </trkpt>
      <trkpt lat="40.2125410549342632293701171875" lon="-0.943412370979785919189453125">
        <ele>1163.199951171875</ele>
        <time>2021-09-26T09:24:47.000Z</time>
      </trkpt>
      <trkpt lat="40.2124620974063873291015625" lon="-0.94336383976042270660400390625">
        <ele>1163.4000244140625</ele>
        <time>2021-09-26T09:24:49.000Z</time>
      </trkpt>
      <trkpt lat="40.21237559616565704345703125" lon="-0.9433154761791229248046875">
        <ele>1163.800048828125</ele>
        <time>2021-09-26T09:24:51.000Z</time>
      </trkpt>
      <trkpt lat="40.21229085512459278106689453125" lon="-0.94325521029531955718994140625">
        <ele>1164.199951171875</ele>
        <time>2021-09-26T09:24:53.000Z</time>
      </trkpt>
      <trkpt lat="40.21220418624579906463623046875" lon="-0.94318983145058155059814453125">
        <ele>1164.5999755859375</ele>
        <time>2021-09-26T09:24:55.000Z</time>
      </trkpt>
      <trkpt lat="40.2121129073202610015869140625" lon="-0.9431181661784648895263671875">
        <ele>1164.5999755859375</ele>
        <time>2021-09-26T09:24:57.000Z</time>
      </trkpt>
      <trkpt lat="40.2120652981102466583251953125" lon="-0.94307902269065380096435546875">
        <ele>1164.199951171875</ele>
        <time>2021-09-26T09:24:58.000Z</time>
      </trkpt>
      <trkpt lat="40.2120176889002323150634765625" lon="-0.94304130412638187408447265625">
        <ele>1164</ele>
        <time>2021-09-26T09:24:59.000Z</time>
      </trkpt>
      <trkpt lat="40.21192364394664764404296875" lon="-0.94296821393072605133056640625">
        <ele>1163.4000244140625</ele>
        <time>2021-09-26T09:25:01.000Z</time>
      </trkpt>
      <trkpt lat="40.2118329517543315887451171875" lon="-0.94289143569767475128173828125">
        <ele>1163</ele>
        <time>2021-09-26T09:25:03.000Z</time>
      </trkpt>
      <trkpt lat="40.21174167282879352569580078125" lon="-0.942820608615875244140625">
        <ele>1162.4000244140625</ele>
        <time>2021-09-26T09:25:05.000Z</time>
      </trkpt>
      <trkpt lat="40.21164947189390659332275390625" lon="-0.94275179319083690643310546875">
        <ele>1162</ele>
        <time>2021-09-26T09:25:07.000Z</time>
      </trkpt>
      <trkpt lat="40.2115613780915737152099609375" lon="-0.9426782839000225067138671875">
        <ele>1161.4000244140625</ele>
        <time>2021-09-26T09:25:09.000Z</time>
      </trkpt>
      <trkpt lat="40.21147529594600200653076171875" lon="-0.94261047430336475372314453125">
        <ele>1161.4000244140625</ele>
        <time>2021-09-26T09:25:11.000Z</time>
      </trkpt>
      <trkpt lat="40.21143271587789058685302734375" lon="-0.94257744960486888885498046875">
        <ele>1161.4000244140625</ele>
        <time>2021-09-26T09:25:12.000Z</time>
      </trkpt>
      <trkpt lat="40.21138988435268402099609375" lon="-0.942549370229244232177734375">
        <ele>1161.4000244140625</ele>
        <time>2021-09-26T09:25:13.000Z</time>
      </trkpt>
      <trkpt lat="40.211346633732318878173828125" lon="-0.94252062030136585235595703125">
        <ele>1161.800048828125</ele>
        <time>2021-09-26T09:25:14.000Z</time>
      </trkpt>
      <trkpt lat="40.21130396984517574310302734375" lon="-0.94248943962156772613525390625">
        <ele>1162</ele>
        <time>2021-09-26T09:25:15.000Z</time>
      </trkpt>
      <trkpt lat="40.21122358739376068115234375" lon="-0.94242858700454235076904296875">
        <ele>1162.5999755859375</ele>
        <time>2021-09-26T09:25:17.000Z</time>
      </trkpt>
      <trkpt lat="40.211142785847187042236328125" lon="-0.94236857257783412933349609375">
        <ele>1162.5999755859375</ele>
        <time>2021-09-26T09:25:19.000Z</time>
      </trkpt>
      <trkpt lat="40.2110593020915985107421875" lon="-0.94230403192341327667236328125">
        <ele>1162.5999755859375</ele>
        <time>2021-09-26T09:25:21.000Z</time>
      </trkpt>
      <trkpt lat="40.210972465574741363525390625" lon="-0.94223613850772380828857421875">
        <ele>1162.5999755859375</ele>
        <time>2021-09-26T09:25:23.000Z</time>
      </trkpt>
      <trkpt lat="40.2108844555914402008056640625" lon="-0.94217143021523952484130859375">
        <ele>1162.800048828125</ele>
        <time>2021-09-26T09:25:25.000Z</time>
      </trkpt>
      <trkpt lat="40.21079845726490020751953125" lon="-0.942107141017913818359375">
        <ele>1163</ele>
        <time>2021-09-26T09:25:27.000Z</time>
      </trkpt>
      <trkpt lat="40.2107168175280094146728515625" lon="-0.9420422650873661041259765625">
        <ele>1163</ele>
        <time>2021-09-26T09:25:29.000Z</time>
      </trkpt>
      <trkpt lat="40.21067549474537372589111328125" lon="-0.9420077316462993621826171875">
        <ele>1163.199951171875</ele>
        <time>2021-09-26T09:25:30.000Z</time>
      </trkpt>
      <trkpt lat="40.21063257940113544464111328125" lon="-0.94197059981524944305419921875">
        <ele>1163.199951171875</ele>
        <time>2021-09-26T09:25:31.000Z</time>
      </trkpt>
      <trkpt lat="40.21054230630397796630859375" lon="-0.94189801253378391265869140625">
        <ele>1163.199951171875</ele>
        <time>2021-09-26T09:25:33.000Z</time>
      </trkpt>
      <trkpt lat="40.21045454777777194976806640625" lon="-0.9418307058513164520263671875">
        <ele>1163.199951171875</ele>
        <time>2021-09-26T09:25:35.000Z</time>
      </trkpt>
      <trkpt lat="40.2103674598038196563720703125" lon="-0.94175652600824832916259765625">
        <ele>1163.199951171875</ele>
        <time>2021-09-26T09:25:37.000Z</time>
      </trkpt>
      <trkpt lat="40.2103255502879619598388671875" lon="-0.94171830452978610992431640625">
        <ele>1163</ele>
        <time>2021-09-26T09:25:38.000Z</time>
      </trkpt>
      <trkpt lat="40.2102846466004848480224609375" lon="-0.94168008305132389068603515625">
        <ele>1162.800048828125</ele>
        <time>2021-09-26T09:25:39.000Z</time>
      </trkpt>
      <trkpt lat="40.21024449728429317474365234375" lon="-0.941638760268688201904296875">
        <ele>1162.800048828125</ele>
        <time>2021-09-26T09:25:40.000Z</time>
      </trkpt>
      <trkpt lat="40.210205353796482086181640625" lon="-0.94159542582929134368896484375">
        <ele>1162.5999755859375</ele>
        <time>2021-09-26T09:25:41.000Z</time>
      </trkpt>
      <trkpt lat="40.21012648008763790130615234375" lon="-0.94151043333113193511962890625">
        <ele>1162.5999755859375</ele>
        <time>2021-09-26T09:25:43.000Z</time>
      </trkpt>
      <trkpt lat="40.21008909679949283599853515625" lon="-0.94146902672946453094482421875">
        <ele>1162.5999755859375</ele>
        <time>2021-09-26T09:25:44.000Z</time>
      </trkpt>
      <trkpt lat="40.21005188114941120147705078125" lon="-0.941424854099750518798828125">
        <ele>1162.800048828125</ele>
        <time>2021-09-26T09:25:45.000Z</time>
      </trkpt>
      <trkpt lat="40.209989435970783233642578125" lon="-0.94132787548005580902099609375">
        <ele>1162.800048828125</ele>
        <time>2021-09-26T09:25:47.000Z</time>
      </trkpt>
      <trkpt lat="40.209925062954425811767578125" lon="-0.94123014248907566070556640625">
        <ele>1163</ele>
        <time>2021-09-26T09:25:49.000Z</time>
      </trkpt>
      <trkpt lat="40.2098898589611053466796875" lon="-0.9411816112697124481201171875">
        <ele>1163</ele>
        <time>2021-09-26T09:25:50.000Z</time>
      </trkpt>
      <trkpt lat="40.20985255949199199676513671875" lon="-0.9411333315074443817138671875">
        <ele>1163</ele>
        <time>2021-09-26T09:25:51.000Z</time>
      </trkpt>
      <trkpt lat="40.20978382788598537445068359375" lon="-0.9410317428410053253173828125">
        <ele>1162.800048828125</ele>
        <time>2021-09-26T09:25:53.000Z</time>
      </trkpt>
      <trkpt lat="40.20972113125026226043701171875" lon="-0.94092604704201221466064453125">
        <ele>1162.199951171875</ele>
        <time>2021-09-26T09:25:55.000Z</time>
      </trkpt>
      <trkpt lat="40.20965843461453914642333984375" lon="-0.94081825576722621917724609375">
        <ele>1161.5999755859375</ele>
        <time>2021-09-26T09:25:57.000Z</time>
      </trkpt>
      <trkpt lat="40.209589786827564239501953125" lon="-0.940710715949535369873046875">
        <ele>1161.4000244140625</ele>
        <time>2021-09-26T09:25:59.000Z</time>
      </trkpt>
      <trkpt lat="40.20953136496245861053466796875" lon="-0.9405989013612270355224609375">
        <ele>1161.199951171875</ele>
        <time>2021-09-26T09:26:01.000Z</time>
      </trkpt>
      <trkpt lat="40.2094652317464351654052734375" lon="-0.94048934988677501678466796875">
        <ele>1161</ele>
        <time>2021-09-26T09:26:03.000Z</time>
      </trkpt>
      <trkpt lat="40.20943187177181243896484375" lon="-0.94043620862066745758056640625">
        <ele>1160.800048828125</ele>
        <time>2021-09-26T09:26:04.000Z</time>
      </trkpt>
      <trkpt lat="40.209397338330745697021484375" lon="-0.94037971459329128265380859375">
        <ele>1160.800048828125</ele>
        <time>2021-09-26T09:26:05.000Z</time>
      </trkpt>
      <trkpt lat="40.20933019928634166717529296875" lon="-0.9402559138834476470947265625">
        <ele>1160.800048828125</ele>
        <time>2021-09-26T09:26:07.000Z</time>
      </trkpt>
      <trkpt lat="40.20926029421389102935791015625" lon="-0.9401290118694305419921875">
        <ele>1160.800048828125</ele>
        <time>2021-09-26T09:26:09.000Z</time>
      </trkpt>
      <trkpt lat="40.20922265946865081787109375" lon="-0.94006740488111972808837890625">
        <ele>1160.800048828125</ele>
        <time>2021-09-26T09:26:10.000Z</time>
      </trkpt>
      <trkpt lat="40.20918787457048892974853515625" lon="-0.94000361859798431396484375">
        <ele>1160.800048828125</ele>
        <time>2021-09-26T09:26:11.000Z</time>
      </trkpt>
      <trkpt lat="40.20911411382257938385009765625" lon="-0.93987177126109600067138671875">
        <ele>1160.800048828125</ele>
        <time>2021-09-26T09:26:13.000Z</time>
      </trkpt>
      <trkpt lat="40.2090395987033843994140625" lon="-0.9397469647228717803955078125">
        <ele>1161.4000244140625</ele>
        <time>2021-09-26T09:26:15.000Z</time>
      </trkpt>
      <trkpt lat="40.208967514336109161376953125" lon="-0.93962551094591617584228515625">
        <ele>1161.5999755859375</ele>
        <time>2021-09-26T09:26:17.000Z</time>
      </trkpt>
      <trkpt lat="40.20893122069537639617919921875" lon="-0.9395639039576053619384765625">
        <ele>1161.5999755859375</ele>
        <time>2021-09-26T09:26:18.000Z</time>
      </trkpt>
      <trkpt lat="40.20889517851173877716064453125" lon="-0.93950204551219940185546875">
        <ele>1161.5999755859375</ele>
        <time>2021-09-26T09:26:19.000Z</time>
      </trkpt>
      <trkpt lat="40.20882032811641693115234375" lon="-0.93937858007848262786865234375">
        <ele>1161.4000244140625</ele>
        <time>2021-09-26T09:26:21.000Z</time>
      </trkpt>
      <trkpt lat="40.2087490819394588470458984375" lon="-0.93924245797097682952880859375">
        <ele>1160.800048828125</ele>
        <time>2021-09-26T09:26:23.000Z</time>
      </trkpt>
      <trkpt lat="40.20866953767836093902587890625" lon="-0.9391045756638050079345703125">
        <ele>1160.4000244140625</ele>
        <time>2021-09-26T09:26:25.000Z</time>
      </trkpt>
      <trkpt lat="40.2085888199508190155029296875" lon="-0.938969291746616363525390625">
        <ele>1159.800048828125</ele>
        <time>2021-09-26T09:26:27.000Z</time>
      </trkpt>
      <trkpt lat="40.20850592292845249176025390625" lon="-0.93883090652525424957275390625">
        <ele>1159.5999755859375</ele>
        <time>2021-09-26T09:26:29.000Z</time>
      </trkpt>
      <trkpt lat="40.20842126570641994476318359375" lon="-0.93869260512292385101318359375">
        <ele>1159.800048828125</ele>
        <time>2021-09-26T09:26:31.000Z</time>
      </trkpt>
      <trkpt lat="40.20834079943597316741943359375" lon="-0.93855178914964199066162109375">
        <ele>1160.4000244140625</ele>
        <time>2021-09-26T09:26:33.000Z</time>
      </trkpt>
      <trkpt lat="40.20830023102462291717529296875" lon="-0.93848255462944507598876953125">
        <ele>1160.5999755859375</ele>
        <time>2021-09-26T09:26:34.000Z</time>
      </trkpt>
      <trkpt lat="40.2082582376897335052490234375" lon="-0.93841298483312129974365234375">
        <ele>1161</ele>
        <time>2021-09-26T09:26:35.000Z</time>
      </trkpt>
      <trkpt lat="40.20817919634282588958740234375" lon="-0.938275270164012908935546875">
        <ele>1161.5999755859375</ele>
        <time>2021-09-26T09:26:37.000Z</time>
      </trkpt>
      <trkpt lat="40.20810057409107685089111328125" lon="-0.93814593739807605743408203125">
        <ele>1161.4000244140625</ele>
        <time>2021-09-26T09:26:39.000Z</time>
      </trkpt>
      <trkpt lat="40.2080230414867401123046875" lon="-0.9380072169005870819091796875">
        <ele>1161.199951171875</ele>
        <time>2021-09-26T09:26:41.000Z</time>
      </trkpt>
      <trkpt lat="40.20795137621462345123291015625" lon="-0.93785516917705535888671875">
        <ele>1161</ele>
        <time>2021-09-26T09:26:43.000Z</time>
      </trkpt>
      <trkpt lat="40.20788985304534435272216796875" lon="-0.93770337291061878204345703125">
        <ele>1160.5999755859375</ele>
        <time>2021-09-26T09:26:45.000Z</time>
      </trkpt>
      <trkpt lat="40.20782665349543094635009765625" lon="-0.9375539235770702362060546875">
        <ele>1160.5999755859375</ele>
        <time>2021-09-26T09:26:47.000Z</time>
      </trkpt>
      <trkpt lat="40.2077992446720600128173828125" lon="-0.93748125247657299041748046875">
        <ele>1160.199951171875</ele>
        <time>2021-09-26T09:26:48.000Z</time>
      </trkpt>
      <trkpt lat="40.20777099765837192535400390625" lon="-0.93740724027156829833984375">
        <ele>1160</ele>
        <time>2021-09-26T09:26:49.000Z</time>
      </trkpt>
      <trkpt lat="40.2077415771782398223876953125" lon="-0.93733255751430988311767578125">
        <ele>1159.5999755859375</ele>
        <time>2021-09-26T09:26:50.000Z</time>
      </trkpt>
      <trkpt lat="40.20771215669810771942138671875" lon="-0.937257707118988037109375">
        <ele>1159.199951171875</ele>
        <time>2021-09-26T09:26:51.000Z</time>
      </trkpt>
      <trkpt lat="40.207655914127826690673828125" lon="-0.93711278401315212249755859375">
        <ele>1158.4000244140625</ele>
        <time>2021-09-26T09:26:53.000Z</time>
      </trkpt>
      <trkpt lat="40.207630433142185211181640625" lon="-0.937039442360401153564453125">
        <ele>1158</ele>
        <time>2021-09-26T09:26:54.000Z</time>
      </trkpt>
      <trkpt lat="40.20760796964168548583984375" lon="-0.9369645081460475921630859375">
        <ele>1157.5999755859375</ele>
        <time>2021-09-26T09:26:55.000Z</time>
      </trkpt>
      <trkpt lat="40.20756681449711322784423828125" lon="-0.93680801801383495330810546875">
        <ele>1157</ele>
        <time>2021-09-26T09:26:57.000Z</time>
      </trkpt>
      <trkpt lat="40.207533873617649078369140625" lon="-0.9366433136165142059326171875">
        <ele>1156.800048828125</ele>
        <time>2021-09-26T09:26:59.000Z</time>
      </trkpt>
      <trkpt lat="40.20749657414853572845458984375" lon="-0.9364790283143520355224609375">
        <ele>1157</ele>
        <time>2021-09-26T09:27:01.000Z</time>
      </trkpt>
      <trkpt lat="40.2074606157839298248291015625" lon="-0.9363123960793018341064453125">
        <ele>1157.199951171875</ele>
        <time>2021-09-26T09:27:03.000Z</time>
      </trkpt>
      <trkpt lat="40.207425914704799652099609375" lon="-0.93614517711102962493896484375">
        <ele>1157</ele>
        <time>2021-09-26T09:27:05.000Z</time>
      </trkpt>
      <trkpt lat="40.20738995634019374847412109375" lon="-0.9359818138182163238525390625">
        <ele>1155.5999755859375</ele>
        <time>2021-09-26T09:27:07.000Z</time>
      </trkpt>
      <trkpt lat="40.2073536626994609832763671875" lon="-0.9358135052025318145751953125">
        <ele>1155.5999755859375</ele>
        <time>2021-09-26T09:27:09.000Z</time>
      </trkpt>
      <trkpt lat="40.207315944135189056396484375" lon="-0.93564846552908420562744140625">
        <ele>1155</ele>
        <time>2021-09-26T09:27:11.000Z</time>
      </trkpt>
      <trkpt lat="40.2072788961231708526611328125" lon="-0.935485772788524627685546875">
        <ele>1154.800048828125</ele>
        <time>2021-09-26T09:27:13.000Z</time>
      </trkpt>
      <trkpt lat="40.207244195044040679931640625" lon="-0.9353236667811870574951171875">
        <ele>1154.800048828125</ele>
        <time>2021-09-26T09:27:15.000Z</time>
      </trkpt>
      <trkpt lat="40.20721008069813251495361328125" lon="-0.93515963293612003326416015625">
        <ele>1154.5999755859375</ele>
        <time>2021-09-26T09:27:17.000Z</time>
      </trkpt>
      <trkpt lat="40.20719331689178943634033203125" lon="-0.935079418122768402099609375">
        <ele>1154.5999755859375</ele>
        <time>2021-09-26T09:27:18.000Z</time>
      </trkpt>
      <trkpt lat="40.20717521198093891143798828125" lon="-0.93499836511909961700439453125">
        <ele>1154.800048828125</ele>
        <time>2021-09-26T09:27:19.000Z</time>
      </trkpt>
      <trkpt lat="40.20713849924504756927490234375" lon="-0.93483709730207920074462890625">
        <ele>1155</ele>
        <time>2021-09-26T09:27:21.000Z</time>
      </trkpt>
      <trkpt lat="40.207104720175266265869140625" lon="-0.9346749074757099151611328125">
        <ele>1155.199951171875</ele>
        <time>2021-09-26T09:27:23.000Z</time>
      </trkpt>
      <trkpt lat="40.2070716954767704010009765625" lon="-0.9345149807631969451904296875">
        <ele>1156</ele>
        <time>2021-09-26T09:27:25.000Z</time>
      </trkpt>
      <trkpt lat="40.2070549316704273223876953125" lon="-0.9344361908733844757080078125">
        <ele>1156.4000244140625</ele>
        <time>2021-09-26T09:27:26.000Z</time>
      </trkpt>
      <trkpt lat="40.20703640766441822052001953125" lon="-0.9343577362596988677978515625">
        <ele>1156.800048828125</ele>
        <time>2021-09-26T09:27:27.000Z</time>
      </trkpt>
      <trkpt lat="40.20700271241366863250732421875" lon="-0.93420602381229400634765625">
        <ele>1158</ele>
        <time>2021-09-26T09:27:29.000Z</time>
      </trkpt>
      <trkpt lat="40.206969268620014190673828125" lon="-0.934055149555206298828125">
        <ele>1159</ele>
        <time>2021-09-26T09:27:31.000Z</time>
      </trkpt>
      <trkpt lat="40.20693481899797916412353515625" lon="-0.93391374684870243072509765625">
        <ele>1159.800048828125</ele>
        <time>2021-09-26T09:27:33.000Z</time>
      </trkpt>
      <trkpt lat="40.20691855810582637786865234375" lon="-0.93384803272783756256103515625">
        <ele>1160.199951171875</ele>
        <time>2021-09-26T09:27:34.000Z</time>
      </trkpt>
      <trkpt lat="40.20690766163170337677001953125" lon="-0.93377963639795780181884765625">
        <ele>1160.5999755859375</ele>
        <time>2021-09-26T09:27:35.000Z</time>
      </trkpt>
      <trkpt lat="40.20688435994088649749755859375" lon="-0.93364435248076915740966796875">
        <ele>1161</ele>
        <time>2021-09-26T09:27:37.000Z</time>
      </trkpt>
      <trkpt lat="40.20686005242168903350830078125" lon="-0.93351267278194427490234375">
        <ele>1161</ele>
        <time>2021-09-26T09:27:39.000Z</time>
      </trkpt>
      <trkpt lat="40.20684613846242427825927734375" lon="-0.93345098197460174560546875">
        <ele>1161</ele>
        <time>2021-09-26T09:27:40.000Z</time>
      </trkpt>
      <trkpt lat="40.2068323083221912384033203125" lon="-0.93338987790048122406005859375">
        <ele>1161.199951171875</ele>
        <time>2021-09-26T09:27:41.000Z</time>
      </trkpt>
      <trkpt lat="40.2068054862320423126220703125" lon="-0.9332711063325405120849609375">
        <ele>1161.5999755859375</ele>
        <time>2021-09-26T09:27:43.000Z</time>
      </trkpt>
      <trkpt lat="40.20677740685641765594482421875" lon="-0.933156944811344146728515625">
        <ele>1161.800048828125</ele>
        <time>2021-09-26T09:27:45.000Z</time>
      </trkpt>
      <trkpt lat="40.20675779320299625396728515625" lon="-0.9331027977168560028076171875">
        <ele>1161.800048828125</ele>
        <time>2021-09-26T09:27:46.000Z</time>
      </trkpt>
      <trkpt lat="40.20673164166510105133056640625" lon="-0.93304856680333614349365234375">
        <ele>1162</ele>
        <time>2021-09-26T09:27:47.000Z</time>
      </trkpt>
      <trkpt lat="40.2066710405051708221435546875" lon="-0.93294940888881683349609375">
        <ele>1162.199951171875</ele>
        <time>2021-09-26T09:27:49.000Z</time>
      </trkpt>
      <trkpt lat="40.20659384317696094512939453125" lon="-0.93287070281803607940673828125">
        <ele>1162.199951171875</ele>
        <time>2021-09-26T09:27:51.000Z</time>
      </trkpt>
      <trkpt lat="40.20651371218264102935791015625" lon="-0.93281303532421588897705078125">
        <ele>1162</ele>
        <time>2021-09-26T09:27:53.000Z</time>
      </trkpt>
      <trkpt lat="40.20643676631152629852294921875" lon="-0.93277699314057826995849609375">
        <ele>1162</ele>
        <time>2021-09-26T09:27:55.000Z</time>
      </trkpt>
      <trkpt lat="40.20640139468014240264892578125" lon="-0.9327614866197109222412109375">
        <ele>1161.5999755859375</ele>
        <time>2021-09-26T09:27:56.000Z</time>
      </trkpt>
      <trkpt lat="40.2063696272671222686767578125" lon="-0.93274799175560474395751953125">
        <ele>1161.4000244140625</ele>
        <time>2021-09-26T09:27:57.000Z</time>
      </trkpt>
      <trkpt lat="40.206306092441082000732421875" lon="-0.93273273669183254241943359375">
        <ele>1161</ele>
        <time>2021-09-26T09:27:59.000Z</time>
      </trkpt>
      <trkpt lat="40.206251442432403564453125" lon="-0.93271664343774318695068359375">
        <ele>1161</ele>
        <time>2021-09-26T09:28:01.000Z</time>
      </trkpt>
      <trkpt lat="40.206203162670135498046875" lon="-0.93268697150051593780517578125">
        <ele>1160.800048828125</ele>
        <time>2021-09-26T09:28:03.000Z</time>
      </trkpt>
      <trkpt lat="40.20615362562239170074462890625" lon="-0.93266643583774566650390625">
        <ele>1160.5999755859375</ele>
        <time>2021-09-26T09:28:05.000Z</time>
      </trkpt>
      <trkpt lat="40.20609746687114238739013671875" lon="-0.932654701173305511474609375">
        <ele>1160.4000244140625</ele>
        <time>2021-09-26T09:28:07.000Z</time>
      </trkpt>
      <trkpt lat="40.206041894853115081787109375" lon="-0.932623855769634246826171875">
        <ele>1160</ele>
        <time>2021-09-26T09:28:09.000Z</time>
      </trkpt>
      <trkpt lat="40.20599923096597194671630859375" lon="-0.93257968313992023468017578125">
        <ele>1160.4000244140625</ele>
        <time>2021-09-26T09:28:11.000Z</time>
      </trkpt>
      <trkpt lat="40.20598062314093112945556640625" lon="-0.932558476924896240234375">
        <ele>1160.5999755859375</ele>
        <time>2021-09-26T09:28:12.000Z</time>
      </trkpt>
      <trkpt lat="40.20596017129719257354736328125" lon="-0.9325365163385868072509765625">
        <ele>1160.800048828125</ele>
        <time>2021-09-26T09:28:13.000Z</time>
      </trkpt>
      <trkpt lat="40.2059228718280792236328125" lon="-0.9324873983860015869140625">
        <ele>1161.199951171875</ele>
        <time>2021-09-26T09:28:15.000Z</time>
      </trkpt>
      <trkpt lat="40.20588758401572704315185546875" lon="-0.93243937008082866668701171875">
        <ele>1161.5999755859375</ele>
        <time>2021-09-26T09:28:17.000Z</time>
      </trkpt>
      <trkpt lat="40.2058603428304195404052734375" lon="-0.932396538555622100830078125">
        <ele>1161.5999755859375</ele>
        <time>2021-09-26T09:28:19.000Z</time>
      </trkpt>
      <trkpt lat="40.205833017826080322265625" lon="-0.93235932290554046630859375">
        <ele>1161.800048828125</ele>
        <time>2021-09-26T09:28:21.000Z</time>
      </trkpt>
      <trkpt lat="40.20579806528985500335693359375" lon="-0.93230727128684520721435546875">
        <ele>1161.800048828125</ele>
        <time>2021-09-26T09:28:23.000Z</time>
      </trkpt>
      <trkpt lat="40.2057792060077190399169921875" lon="-0.93227357603609561920166015625">
        <ele>1161.800048828125</ele>
        <time>2021-09-26T09:28:24.000Z</time>
      </trkpt>
      <trkpt lat="40.20575917325913906097412109375" lon="-0.93223460018634796142578125">
        <ele>1161.5999755859375</ele>
        <time>2021-09-26T09:28:25.000Z</time>
      </trkpt>
      <trkpt lat="40.205707289278507232666015625" lon="-0.93216679058969020843505859375">
        <ele>1161.5999755859375</ele>
        <time>2021-09-26T09:28:27.000Z</time>
      </trkpt>
      <trkpt lat="40.205647610127925872802734375" lon="-0.9321053512394428253173828125">
        <ele>1161.5999755859375</ele>
        <time>2021-09-26T09:28:29.000Z</time>
      </trkpt>
      <trkpt lat="40.20559824071824550628662109375" lon="-0.9320540539920330047607421875">
        <ele>1161.5999755859375</ele>
        <time>2021-09-26T09:28:31.000Z</time>
      </trkpt>
      <trkpt lat="40.205558426678180694580078125" lon="-0.932012982666492462158203125">
        <ele>1161.5999755859375</ele>
        <time>2021-09-26T09:28:33.000Z</time>
      </trkpt>
      <trkpt lat="40.2055237255990505218505859375" lon="-0.93197618611156940460205078125">
        <ele>1161.4000244140625</ele>
        <time>2021-09-26T09:28:35.000Z</time>
      </trkpt>
      <trkpt lat="40.20549095235764980316162109375" lon="-0.9319434128701686859130859375">
        <ele>1161.199951171875</ele>
        <time>2021-09-26T09:28:37.000Z</time>
      </trkpt>
      <trkpt lat="40.20545507781207561492919921875" lon="-0.93189940787851810455322265625">
        <ele>1160.800048828125</ele>
        <time>2021-09-26T09:28:39.000Z</time>
      </trkpt>
      <trkpt lat="40.20540210418403148651123046875" lon="-0.931836627423763275146484375">
        <ele>1160.4000244140625</ele>
        <time>2021-09-26T09:28:41.000Z</time>
      </trkpt>
      <trkpt lat="40.2053225599229335784912109375" lon="-0.93174266628921031951904296875">
        <ele>1159.5999755859375</ele>
        <time>2021-09-26T09:28:43.000Z</time>
      </trkpt>
      <trkpt lat="40.2052260003983974456787109375" lon="-0.93163487501442432403564453125">
        <ele>1159</ele>
        <time>2021-09-26T09:28:45.000Z</time>
      </trkpt>
      <trkpt lat="40.20512022078037261962890625" lon="-0.93153093941509723663330078125">
        <ele>1158.4000244140625</ele>
        <time>2021-09-26T09:28:47.000Z</time>
      </trkpt>
      <trkpt lat="40.2050141058862209320068359375" lon="-0.9314314462244510650634765625">
        <ele>1158.5999755859375</ele>
        <time>2021-09-26T09:28:49.000Z</time>
      </trkpt>
      <trkpt lat="40.2049081586301326751708984375" lon="-0.9313546679913997650146484375">
        <ele>1158.5999755859375</ele>
        <time>2021-09-26T09:28:51.000Z</time>
      </trkpt>
      <trkpt lat="40.20480950362980365753173828125" lon="-0.93128367327153682708740234375">
        <ele>1158.800048828125</ele>
        <time>2021-09-26T09:28:53.000Z</time>
      </trkpt>
      <trkpt lat="40.20470623858273029327392578125" lon="-0.9312141872942447662353515625">
        <ele>1158.800048828125</ele>
        <time>2021-09-26T09:28:55.000Z</time>
      </trkpt>
      <trkpt lat="40.20459023304283618927001953125" lon="-0.9311407618224620819091796875">
        <ele>1158.5999755859375</ele>
        <time>2021-09-26T09:28:57.000Z</time>
      </trkpt>
      <trkpt lat="40.2045282907783985137939453125" lon="-0.9311060607433319091796875">
        <ele>1158.5999755859375</ele>
        <time>2021-09-26T09:28:58.000Z</time>
      </trkpt>
      <trkpt lat="40.204464755952358245849609375" lon="-0.93107588589191436767578125">
        <ele>1158.4000244140625</ele>
        <time>2021-09-26T09:28:59.000Z</time>
      </trkpt>
      <trkpt lat="40.2044018916785717010498046875" lon="-0.931046716868877410888671875">
        <ele>1158.4000244140625</ele>
        <time>2021-09-26T09:29:00.000Z</time>
      </trkpt>
      <trkpt lat="40.2043422125279903411865234375" lon="-0.93101545237004756927490234375">
        <ele>1158</ele>
        <time>2021-09-26T09:29:01.000Z</time>
      </trkpt>
      <trkpt lat="40.2042848803102970123291015625" lon="-0.9309815056622028350830078125">
        <ele>1157.800048828125</ele>
        <time>2021-09-26T09:29:02.000Z</time>
      </trkpt>
      <trkpt lat="40.20423064939677715301513671875" lon="-0.93094370327889919281005859375">
        <ele>1157.4000244140625</ele>
        <time>2021-09-26T09:29:03.000Z</time>
      </trkpt>
      <trkpt lat="40.20417742431163787841796875" lon="-0.930898524820804595947265625">
        <ele>1157.199951171875</ele>
        <time>2021-09-26T09:29:04.000Z</time>
      </trkpt>
      <trkpt lat="40.20412771962583065032958984375" lon="-0.93084513209760189056396484375">
        <ele>1156.800048828125</ele>
        <time>2021-09-26T09:29:05.000Z</time>
      </trkpt>
      <trkpt lat="40.2040263824164867401123046875" lon="-0.93072610907256603240966796875">
        <ele>1156.199951171875</ele>
        <time>2021-09-26T09:29:07.000Z</time>
      </trkpt>
      <trkpt lat="40.20392672158777713775634765625" lon="-0.9305870532989501953125">
        <ele>1155.5999755859375</ele>
        <time>2021-09-26T09:29:09.000Z</time>
      </trkpt>
      <trkpt lat="40.2038771845400333404541015625" lon="-0.93051128089427947998046875">
        <ele>1155.4000244140625</ele>
        <time>2021-09-26T09:29:10.000Z</time>
      </trkpt>
      <trkpt lat="40.20382873713970184326171875" lon="-0.93043575994670391082763671875">
        <ele>1155.199951171875</ele>
        <time>2021-09-26T09:29:11.000Z</time>
      </trkpt>
      <trkpt lat="40.203748606145381927490234375" lon="-0.9302908368408679962158203125">
        <ele>1155.199951171875</ele>
        <time>2021-09-26T09:29:13.000Z</time>
      </trkpt>
      <trkpt lat="40.203662775456905364990234375" lon="-0.930144488811492919921875">
        <ele>1155</ele>
        <time>2021-09-26T09:29:15.000Z</time>
      </trkpt>
      <trkpt lat="40.20356722176074981689453125" lon="-0.929991938173770904541015625">
        <ele>1154.5999755859375</ele>
        <time>2021-09-26T09:29:17.000Z</time>
      </trkpt>
      <trkpt lat="40.2035174332559108734130859375" lon="-0.9299186803400516510009765625">
        <ele>1154.199951171875</ele>
        <time>2021-09-26T09:29:18.000Z</time>
      </trkpt>
      <trkpt lat="40.20346722565591335296630859375" lon="-0.92984877526760101318359375">
        <ele>1154.199951171875</ele>
        <time>2021-09-26T09:29:19.000Z</time>
      </trkpt>
      <trkpt lat="40.203415341675281524658203125" lon="-0.92977459542453289031982421875">
        <ele>1154.4000244140625</ele>
        <time>2021-09-26T09:29:20.000Z</time>
      </trkpt>
      <trkpt lat="40.20336144603788852691650390625" lon="-0.92970150522887706756591796875">
        <ele>1154.4000244140625</ele>
        <time>2021-09-26T09:29:21.000Z</time>
      </trkpt>
      <trkpt lat="40.20324996672570705413818359375" lon="-0.929557420313358306884765625">
        <ele>1153</ele>
        <time>2021-09-26T09:29:23.000Z</time>
      </trkpt>
      <trkpt lat="40.20319171249866485595703125" lon="-0.92948223464190959930419921875">
        <ele>1152.199951171875</ele>
        <time>2021-09-26T09:29:24.000Z</time>
      </trkpt>
      <trkpt lat="40.20313329063355922698974609375" lon="-0.92940780334174633026123046875">
        <ele>1151.4000244140625</ele>
        <time>2021-09-26T09:29:25.000Z</time>
      </trkpt>
      <trkpt lat="40.20307227037847042083740234375" lon="-0.9293336234986782073974609375">
        <ele>1150.800048828125</ele>
        <time>2021-09-26T09:29:26.000Z</time>
      </trkpt>
      <trkpt lat="40.20300957374274730682373046875" lon="-0.92926028184592723846435546875">
        <ele>1149.800048828125</ele>
        <time>2021-09-26T09:29:27.000Z</time>
      </trkpt>
      <trkpt lat="40.202945955097675323486328125" lon="-0.9291918016970157623291015625">
        <ele>1149.199951171875</ele>
        <time>2021-09-26T09:29:28.000Z</time>
      </trkpt>
      <trkpt lat="40.20287923514842987060546875" lon="-0.92912432737648487091064453125">
        <ele>1148.4000244140625</ele>
        <time>2021-09-26T09:29:29.000Z</time>
      </trkpt>
      <trkpt lat="40.20281025208532810211181640625" lon="-0.92905509285628795623779296875">
        <ele>1147.800048828125</ele>
        <time>2021-09-26T09:29:30.000Z</time>
      </trkpt>
      <trkpt lat="40.202738083899021148681640625" lon="-0.92899289913475513458251953125">
        <ele>1147</ele>
        <time>2021-09-26T09:29:31.000Z</time>
      </trkpt>
      <trkpt lat="40.20266038365662097930908203125" lon="-0.92893456108868122100830078125">
        <ele>1145.5999755859375</ele>
        <time>2021-09-26T09:29:32.000Z</time>
      </trkpt>
      <trkpt lat="40.2025749720633029937744140625" lon="-0.92888477258384227752685546875">
        <ele>1143.5999755859375</ele>
        <time>2021-09-26T09:29:33.000Z</time>
      </trkpt>
      <trkpt lat="40.20248671062290668487548828125" lon="-0.9288471378386020660400390625">
        <ele>1141.5999755859375</ele>
        <time>2021-09-26T09:29:34.000Z</time>
      </trkpt>
      <trkpt lat="40.20240054465830326080322265625" lon="-0.92881679534912109375">
        <ele>1139.800048828125</ele>
        <time>2021-09-26T09:29:35.000Z</time>
      </trkpt>
      <trkpt lat="40.2023137919604778289794921875" lon="-0.928786285221576690673828125">
        <ele>1138.800048828125</ele>
        <time>2021-09-26T09:29:36.000Z</time>
      </trkpt>
      <trkpt lat="40.20222653634846210479736328125" lon="-0.92875686474144458770751953125">
        <ele>1138</ele>
        <time>2021-09-26T09:29:37.000Z</time>
      </trkpt>
      <trkpt lat="40.20214171148836612701416015625" lon="-0.92872953973710536956787109375">
        <ele>1137</ele>
        <time>2021-09-26T09:29:38.000Z</time>
      </trkpt>
      <trkpt lat="40.20205671899020671844482421875" lon="-0.9287001192569732666015625">
        <ele>1136.199951171875</ele>
        <time>2021-09-26T09:29:39.000Z</time>
      </trkpt>
      <trkpt lat="40.2018930204212665557861328125" lon="-0.92864655889570713043212890625">
        <ele>1135</ele>
        <time>2021-09-26T09:29:41.000Z</time>
      </trkpt>
      <trkpt lat="40.20173485390841960906982421875" lon="-0.9285953454673290252685546875">
        <ele>1133.5999755859375</ele>
        <time>2021-09-26T09:29:43.000Z</time>
      </trkpt>
      <trkpt lat="40.20165748894214630126953125" lon="-0.928567014634609222412109375">
        <ele>1133.199951171875</ele>
        <time>2021-09-26T09:29:44.000Z</time>
      </trkpt>
      <trkpt lat="40.20157911814749240875244140625" lon="-0.92853826470673084259033203125">
        <ele>1132.800048828125</ele>
        <time>2021-09-26T09:29:45.000Z</time>
      </trkpt>
      <trkpt lat="40.20150066353380680084228515625" lon="-0.92851169407367706298828125">
        <ele>1133</ele>
        <time>2021-09-26T09:29:46.000Z</time>
      </trkpt>
      <trkpt lat="40.20142287947237491607666015625" lon="-0.92848529107868671417236328125">
        <ele>1133</ele>
        <time>2021-09-26T09:29:47.000Z</time>
      </trkpt>
      <trkpt lat="40.2013458497822284698486328125" lon="-0.92845863662660121917724609375">
        <ele>1133</ele>
        <time>2021-09-26T09:29:48.000Z</time>
      </trkpt>
      <trkpt lat="40.2012697421014308929443359375" lon="-0.92843365855515003204345703125">
        <ele>1133.800048828125</ele>
        <time>2021-09-26T09:29:49.000Z</time>
      </trkpt>
      <trkpt lat="40.2011228911578655242919921875" lon="-0.92838454060256481170654296875">
        <ele>1137.4000244140625</ele>
        <time>2021-09-26T09:29:51.000Z</time>
      </trkpt>
      <trkpt lat="40.20105390809476375579833984375" lon="-0.92836140654981136322021484375">
        <ele>1139</ele>
        <time>2021-09-26T09:29:52.000Z</time>
      </trkpt>
      <trkpt lat="40.20098601467907428741455078125" lon="-0.92833642847836017608642578125">
        <ele>1140.4000244140625</ele>
        <time>2021-09-26T09:29:53.000Z</time>
      </trkpt>
      <trkpt lat="40.2008546702563762664794921875" lon="-0.92828412540256977081298828125">
        <ele>1142.5999755859375</ele>
        <time>2021-09-26T09:29:55.000Z</time>
      </trkpt>
      <trkpt lat="40.2007309533655643463134765625" lon="-0.92822075821459293365478515625">
        <ele>1144.4000244140625</ele>
        <time>2021-09-26T09:29:57.000Z</time>
      </trkpt>
      <trkpt lat="40.20061100833117961883544921875" lon="-0.92814062722027301788330078125">
        <ele>1146.199951171875</ele>
        <time>2021-09-26T09:29:59.000Z</time>
      </trkpt>
      <trkpt lat="40.20055107772350311279296875" lon="-0.9280967898666858673095703125">
        <ele>1147</ele>
        <time>2021-09-26T09:30:00.000Z</time>
      </trkpt>
      <trkpt lat="40.2004932425916194915771484375" lon="-0.928048007190227508544921875">
        <ele>1147.4000244140625</ele>
        <time>2021-09-26T09:30:01.000Z</time>
      </trkpt>
      <trkpt lat="40.200381763279438018798828125" lon="-0.927937030792236328125">
        <ele>1147.800048828125</ele>
        <time>2021-09-26T09:30:03.000Z</time>
      </trkpt>
      <trkpt lat="40.20027707330882549285888671875" lon="-0.92781993560492992401123046875">
        <ele>1149.199951171875</ele>
        <time>2021-09-26T09:30:05.000Z</time>
      </trkpt>
      <trkpt lat="40.20017850212752819061279296875" lon="-0.92770434916019439697265625">
        <ele>1149.5999755859375</ele>
        <time>2021-09-26T09:30:07.000Z</time>
      </trkpt>
      <trkpt lat="40.2000915817916393280029296875" lon="-0.9275767765939235687255859375">
        <ele>1150.199951171875</ele>
        <time>2021-09-26T09:30:09.000Z</time>
      </trkpt>
      <trkpt lat="40.200021676719188690185546875" lon="-0.9274448454380035400390625">
        <ele>1150.5999755859375</ele>
        <time>2021-09-26T09:30:11.000Z</time>
      </trkpt>
      <trkpt lat="40.1999576389789581298828125" lon="-0.92730998061597347259521484375">
        <ele>1150.800048828125</ele>
        <time>2021-09-26T09:30:13.000Z</time>
      </trkpt>
      <trkpt lat="40.1998900808393955230712890625" lon="-0.9271633811295032501220703125">
        <ele>1151.199951171875</ele>
        <time>2021-09-26T09:30:15.000Z</time>
      </trkpt>
      <trkpt lat="40.19985898397862911224365234375" lon="-0.9270879440009593963623046875">
        <ele>1151.199951171875</ele>
        <time>2021-09-26T09:30:16.000Z</time>
      </trkpt>
      <trkpt lat="40.19982964731752872467041015625" lon="-0.92701091431081295013427734375">
        <ele>1150.800048828125</ele>
        <time>2021-09-26T09:30:17.000Z</time>
      </trkpt>
      <trkpt lat="40.19977482967078685760498046875" lon="-0.92685232870280742645263671875">
        <ele>1150</ele>
        <time>2021-09-26T09:30:19.000Z</time>
      </trkpt>
      <trkpt lat="40.1997190900146961212158203125" lon="-0.9266929887235164642333984375">
        <ele>1148.5999755859375</ele>
        <time>2021-09-26T09:30:21.000Z</time>
      </trkpt>
      <trkpt lat="40.19966083578765392303466796875" lon="-0.926528535783290863037109375">
        <ele>1147.199951171875</ele>
        <time>2021-09-26T09:30:23.000Z</time>
      </trkpt>
      <trkpt lat="40.1996309123933315277099609375" lon="-0.9264445491135120391845703125">
        <ele>1147</ele>
        <time>2021-09-26T09:30:24.000Z</time>
      </trkpt>
      <trkpt lat="40.1996004022657871246337890625" lon="-0.9263614006340503692626953125">
        <ele>1147</ele>
        <time>2021-09-26T09:30:25.000Z</time>
      </trkpt>
      <trkpt lat="40.1995397172868251800537109375" lon="-0.92619250528514385223388671875">
        <ele>1147</ele>
        <time>2021-09-26T09:30:27.000Z</time>
      </trkpt>
      <trkpt lat="40.19947593100368976593017578125" lon="-0.92602201737463474273681640625">
        <ele>1147.4000244140625</ele>
        <time>2021-09-26T09:30:29.000Z</time>
      </trkpt>
      <trkpt lat="40.19941507838666439056396484375" lon="-0.92585471458733081817626953125">
        <ele>1147.800048828125</ele>
        <time>2021-09-26T09:30:31.000Z</time>
      </trkpt>
      <trkpt lat="40.199355147778987884521484375" lon="-0.92568757943809032440185546875">
        <ele>1148</ele>
        <time>2021-09-26T09:30:33.000Z</time>
      </trkpt>
      <trkpt lat="40.19932664930820465087890625" lon="-0.92560417950153350830078125">
        <ele>1148.4000244140625</ele>
        <time>2021-09-26T09:30:34.000Z</time>
      </trkpt>
      <trkpt lat="40.1992986537516117095947265625" lon="-0.925522036850452423095703125">
        <ele>1149</ele>
        <time>2021-09-26T09:30:35.000Z</time>
      </trkpt>
      <trkpt lat="40.19923679530620574951171875" lon="-0.92536085285246372222900390625">
        <ele>1150</ele>
        <time>2021-09-26T09:30:37.000Z</time>
      </trkpt>
      <trkpt lat="40.19917787052690982818603515625" lon="-0.9252020157873630523681640625">
        <ele>1150.4000244140625</ele>
        <time>2021-09-26T09:30:39.000Z</time>
      </trkpt>
      <trkpt lat="40.1991229690611362457275390625" lon="-0.92504099942743778228759765625">
        <ele>1149.5999755859375</ele>
        <time>2021-09-26T09:30:41.000Z</time>
      </trkpt>
      <trkpt lat="40.1990948058664798736572265625" lon="-0.9249606169760227203369140625">
        <ele>1149.4000244140625</ele>
        <time>2021-09-26T09:30:42.000Z</time>
      </trkpt>
      <trkpt lat="40.19906739704310894012451171875" lon="-0.92488107271492481231689453125">
        <ele>1149</ele>
        <time>2021-09-26T09:30:43.000Z</time>
      </trkpt>
      <trkpt lat="40.19901283085346221923828125" lon="-0.92472718097269535064697265625">
        <ele>1147</ele>
        <time>2021-09-26T09:30:45.000Z</time>
      </trkpt>
      <trkpt lat="40.1989586837589740753173828125" lon="-0.9245789051055908203125">
        <ele>1145.5999755859375</ele>
        <time>2021-09-26T09:30:47.000Z</time>
      </trkpt>
      <trkpt lat="40.1989062130451202392578125" lon="-0.92442727647721767425537109375">
        <ele>1145</ele>
        <time>2021-09-26T09:30:49.000Z</time>
      </trkpt>
      <trkpt lat="40.19885231740772724151611328125" lon="-0.92427321709692478179931640625">
        <ele>1145</ele>
        <time>2021-09-26T09:30:51.000Z</time>
      </trkpt>
      <trkpt lat="40.19879423081874847412109375" lon="-0.9241100214421749114990234375">
        <ele>1145</ele>
        <time>2021-09-26T09:30:53.000Z</time>
      </trkpt>
      <trkpt lat="40.19873513840138912200927734375" lon="-0.92394246719777584075927734375">
        <ele>1145.199951171875</ele>
        <time>2021-09-26T09:30:55.000Z</time>
      </trkpt>
      <trkpt lat="40.19866825081408023834228515625" lon="-0.9237782657146453857421875">
        <ele>1145.4000244140625</ele>
        <time>2021-09-26T09:30:57.000Z</time>
      </trkpt>
      <trkpt lat="40.1985977590084075927734375" lon="-0.923623032867908477783203125">
        <ele>1145.800048828125</ele>
        <time>2021-09-26T09:30:59.000Z</time>
      </trkpt>
      <trkpt lat="40.19852827303111553192138671875" lon="-0.923476852476596832275390625">
        <ele>1146</ele>
        <time>2021-09-26T09:31:01.000Z</time>
      </trkpt>
      <trkpt lat="40.19845367409288883209228515625" lon="-0.9233383834362030029296875">
        <ele>1145.800048828125</ele>
        <time>2021-09-26T09:31:03.000Z</time>
      </trkpt>
      <trkpt lat="40.1984131895005702972412109375" lon="-0.92326973564922809600830078125">
        <ele>1145.800048828125</ele>
        <time>2021-09-26T09:31:04.000Z</time>
      </trkpt>
      <trkpt lat="40.19837035797536373138427734375" lon="-0.9232000820338726043701171875">
        <ele>1145.5999755859375</ele>
        <time>2021-09-26T09:31:05.000Z</time>
      </trkpt>
      <trkpt lat="40.1982787437736988067626953125" lon="-0.9230647981166839599609375">
        <ele>1145.800048828125</ele>
        <time>2021-09-26T09:31:07.000Z</time>
      </trkpt>
      <trkpt lat="40.198176316916942596435546875" lon="-0.92293982394039630889892578125">
        <ele>1146.199951171875</ele>
        <time>2021-09-26T09:31:09.000Z</time>
      </trkpt>
      <trkpt lat="40.19812376238405704498291015625" lon="-0.922876037657260894775390625">
        <ele>1146</ele>
        <time>2021-09-26T09:31:10.000Z</time>
      </trkpt>
      <trkpt lat="40.1980705372989177703857421875" lon="-0.9228125028312206268310546875">
        <ele>1146</ele>
        <time>2021-09-26T09:31:11.000Z</time>
      </trkpt>
      <trkpt lat="40.1979592256247997283935546875" lon="-0.92269800603389739990234375">
        <ele>1145.4000244140625</ele>
        <time>2021-09-26T09:31:13.000Z</time>
      </trkpt>
      <trkpt lat="40.1978445611894130706787109375" lon="-0.92258526943624019622802734375">
        <ele>1145</ele>
        <time>2021-09-26T09:31:15.000Z</time>
      </trkpt>
      <trkpt lat="40.1977858878672122955322265625" lon="-0.92253439128398895263671875">
        <ele>1145</ele>
        <time>2021-09-26T09:31:16.000Z</time>
      </trkpt>
      <trkpt lat="40.19772796891629695892333984375" lon="-0.92248267494142055511474609375">
        <ele>1145</ele>
        <time>2021-09-26T09:31:17.000Z</time>
      </trkpt>
      <trkpt lat="40.19760626368224620819091796875" lon="-0.92238578014075756072998046875">
        <ele>1145.199951171875</ele>
        <time>2021-09-26T09:31:19.000Z</time>
      </trkpt>
      <trkpt lat="40.19754298031330108642578125" lon="-0.922340266406536102294921875">
        <ele>1145</ele>
        <time>2021-09-26T09:31:20.000Z</time>
      </trkpt>
      <trkpt lat="40.197476930916309356689453125" lon="-0.92229693196713924407958984375">
        <ele>1145</ele>
        <time>2021-09-26T09:31:21.000Z</time>
      </trkpt>
      <trkpt lat="40.19733603112399578094482421875" lon="-0.92221495695412158966064453125">
        <ele>1144.5999755859375</ele>
        <time>2021-09-26T09:31:23.000Z</time>
      </trkpt>
      <trkpt lat="40.19719135947525501251220703125" lon="-0.92213465832173824310302734375">
        <ele>1143.800048828125</ele>
        <time>2021-09-26T09:31:25.000Z</time>
      </trkpt>
      <trkpt lat="40.19704970531165599822998046875" lon="-0.9220554493367671966552734375">
        <ele>1142.5999755859375</ele>
        <time>2021-09-26T09:31:27.000Z</time>
      </trkpt>
      <trkpt lat="40.1969094760715961456298828125" lon="-0.921975485980510711669921875">
        <ele>1142</ele>
        <time>2021-09-26T09:31:29.000Z</time>
      </trkpt>
      <trkpt lat="40.1967710070312023162841796875" lon="-0.9219039045274257659912109375">
        <ele>1141.4000244140625</ele>
        <time>2021-09-26T09:31:31.000Z</time>
      </trkpt>
      <trkpt lat="40.1966325379908084869384765625" lon="-0.9218234382569789886474609375">
        <ele>1139.5999755859375</ele>
        <time>2021-09-26T09:31:33.000Z</time>
      </trkpt>
      <trkpt lat="40.19649348221719264984130859375" lon="-0.92174339108169078826904296875">
        <ele>1137.800048828125</ele>
        <time>2021-09-26T09:31:35.000Z</time>
      </trkpt>
      <trkpt lat="40.19635199569165706634521484375" lon="-0.92166376300156116485595703125">
        <ele>1136</ele>
        <time>2021-09-26T09:31:37.000Z</time>
      </trkpt>
      <trkpt lat="40.19621101208031177520751953125" lon="-0.92158396728336811065673828125">
        <ele>1135.199951171875</ele>
        <time>2021-09-26T09:31:39.000Z</time>
      </trkpt>
      <trkpt lat="40.19613775424659252166748046875" lon="-0.921542309224605560302734375">
        <ele>1135.199951171875</ele>
        <time>2021-09-26T09:31:40.000Z</time>
      </trkpt>
      <trkpt lat="40.19606349058449268341064453125" lon="-0.9215010702610015869140625">
        <ele>1135</ele>
        <time>2021-09-26T09:31:41.000Z</time>
      </trkpt>
      <trkpt lat="40.19591446034610271453857421875" lon="-0.9214231185615062713623046875">
        <ele>1135.199951171875</ele>
        <time>2021-09-26T09:31:43.000Z</time>
      </trkpt>
      <trkpt lat="40.195839442312717437744140625" lon="-0.92138095758855342864990234375">
        <ele>1135.4000244140625</ele>
        <time>2021-09-26T09:31:44.000Z</time>
      </trkpt>
      <trkpt lat="40.1957680284976959228515625" lon="-0.92133854515850543975830078125">
        <ele>1135.199951171875</ele>
        <time>2021-09-26T09:31:45.000Z</time>
      </trkpt>
      <trkpt lat="40.1956997998058795928955078125" lon="-0.9212972223758697509765625">
        <ele>1135</ele>
        <time>2021-09-26T09:31:46.000Z</time>
      </trkpt>
      <trkpt lat="40.19563232548534870147705078125" lon="-0.92125757597386837005615234375">
        <ele>1134.800048828125</ele>
        <time>2021-09-26T09:31:47.000Z</time>
      </trkpt>
      <trkpt lat="40.19549385644495487213134765625" lon="-0.92118398286402225494384765625">
        <ele>1134.5999755859375</ele>
        <time>2021-09-26T09:31:49.000Z</time>
      </trkpt>
      <trkpt lat="40.19535739906132221221923828125" lon="-0.92111055739223957061767578125">
        <ele>1134.5999755859375</ele>
        <time>2021-09-26T09:31:51.000Z</time>
      </trkpt>
      <trkpt lat="40.1952887512743473052978515625" lon="-0.9210730902850627899169921875">
        <ele>1134.5999755859375</ele>
        <time>2021-09-26T09:31:52.000Z</time>
      </trkpt>
      <trkpt lat="40.19522211514413356781005859375" lon="-0.92103361152112483978271484375">
        <ele>1134.4000244140625</ele>
        <time>2021-09-26T09:31:53.000Z</time>
      </trkpt>
      <trkpt lat="40.1951556466519832611083984375" lon="-0.9209956414997577667236328125">
        <ele>1134.5999755859375</ele>
        <time>2021-09-26T09:31:54.000Z</time>
      </trkpt>
      <trkpt lat="40.19508884288370609283447265625" lon="-0.92095800675451755523681640625">
        <ele>1134.800048828125</ele>
        <time>2021-09-26T09:31:55.000Z</time>
      </trkpt>
      <trkpt lat="40.194959007203578948974609375" lon="-0.9208814799785614013671875">
        <ele>1135.4000244140625</ele>
        <time>2021-09-26T09:31:57.000Z</time>
      </trkpt>
      <trkpt lat="40.19482917152345180511474609375" lon="-0.92080763541162014007568359375">
        <ele>1136.4000244140625</ele>
        <time>2021-09-26T09:31:59.000Z</time>
      </trkpt>
      <trkpt lat="40.19469807855784893035888671875" lon="-0.92073420993983745574951171875">
        <ele>1137.5999755859375</ele>
        <time>2021-09-26T09:32:01.000Z</time>
      </trkpt>
      <trkpt lat="40.19463052041828632354736328125" lon="-0.9206969104707241058349609375">
        <ele>1138</ele>
        <time>2021-09-26T09:32:02.000Z</time>
      </trkpt>
      <trkpt lat="40.19456036388874053955078125" lon="-0.92065793462097644805908203125">
        <ele>1137.4000244140625</ele>
        <time>2021-09-26T09:32:03.000Z</time>
      </trkpt>
      <trkpt lat="40.19441594369709491729736328125" lon="-0.9205802343785762786865234375">
        <ele>1136.199951171875</ele>
        <time>2021-09-26T09:32:05.000Z</time>
      </trkpt>
      <trkpt lat="40.1942745409905910491943359375" lon="-0.920496247708797454833984375">
        <ele>1135.4000244140625</ele>
        <time>2021-09-26T09:32:07.000Z</time>
      </trkpt>
      <trkpt lat="40.1941380836069583892822265625" lon="-0.92041770927608013153076171875">
        <ele>1133.5999755859375</ele>
        <time>2021-09-26T09:32:09.000Z</time>
      </trkpt>
      <trkpt lat="40.1940079964697360992431640625" lon="-0.92034093104302883148193359375">
        <ele>1132.4000244140625</ele>
        <time>2021-09-26T09:32:11.000Z</time>
      </trkpt>
      <trkpt lat="40.19388184882700443267822265625" lon="-0.92027337290346622467041015625">
        <ele>1131.5999755859375</ele>
        <time>2021-09-26T09:32:13.000Z</time>
      </trkpt>
      <trkpt lat="40.19376047886908054351806640625" lon="-0.92020849697291851043701171875">
        <ele>1131.4000244140625</ele>
        <time>2021-09-26T09:32:15.000Z</time>
      </trkpt>
      <trkpt lat="40.19364363513886928558349609375" lon="-0.92014814727008342742919921875">
        <ele>1132.5999755859375</ele>
        <time>2021-09-26T09:32:17.000Z</time>
      </trkpt>
      <trkpt lat="40.1935865543782711029052734375" lon="-0.9201172180473804473876953125">
        <ele>1133.4000244140625</ele>
        <time>2021-09-26T09:32:18.000Z</time>
      </trkpt>
      <trkpt lat="40.19352997653186321258544921875" lon="-0.9200873784720897674560546875">
        <ele>1133.800048828125</ele>
        <time>2021-09-26T09:32:19.000Z</time>
      </trkpt>
      <trkpt lat="40.19341380335390567779541015625" lon="-0.9200260229408740997314453125">
        <ele>1134.199951171875</ele>
        <time>2021-09-26T09:32:21.000Z</time>
      </trkpt>
      <trkpt lat="40.19329444505274295806884765625" lon="-0.9199693612754344940185546875">
        <ele>1135.4000244140625</ele>
        <time>2021-09-26T09:32:23.000Z</time>
      </trkpt>
      <trkpt lat="40.1932355202734470367431640625" lon="-0.91994178481400012969970703125">
        <ele>1136</ele>
        <time>2021-09-26T09:32:24.000Z</time>
      </trkpt>
      <trkpt lat="40.1931775175034999847412109375" lon="-0.91991362161934375762939453125">
        <ele>1136.199951171875</ele>
        <time>2021-09-26T09:32:25.000Z</time>
      </trkpt>
      <trkpt lat="40.19306494854390621185302734375" lon="-0.919851176440715789794921875">
        <ele>1136</ele>
        <time>2021-09-26T09:32:27.000Z</time>
      </trkpt>
      <trkpt lat="40.19295095466077327728271484375" lon="-0.91978705488145351409912109375">
        <ele>1135.800048828125</ele>
        <time>2021-09-26T09:32:29.000Z</time>
      </trkpt>
      <trkpt lat="40.1928352005779743194580078125" lon="-0.9197189100086688995361328125">
        <ele>1136</ele>
        <time>2021-09-26T09:32:31.000Z</time>
      </trkpt>
      <trkpt lat="40.1927218772470951080322265625" lon="-0.91965638101100921630859375">
        <ele>1136.199951171875</ele>
        <time>2021-09-26T09:32:33.000Z</time>
      </trkpt>
      <trkpt lat="40.19261383451521396636962890625" lon="-0.919592678546905517578125">
        <ele>1136.199951171875</ele>
        <time>2021-09-26T09:32:35.000Z</time>
      </trkpt>
      <trkpt lat="40.19250235520303249359130859375" lon="-0.91952838934957981109619140625">
        <ele>1135.800048828125</ele>
        <time>2021-09-26T09:32:37.000Z</time>
      </trkpt>
      <trkpt lat="40.19239246845245361328125" lon="-0.9194625914096832275390625">
        <ele>1136</ele>
        <time>2021-09-26T09:32:39.000Z</time>
      </trkpt>
      <trkpt lat="40.19233756698668003082275390625" lon="-0.91942881233990192413330078125">
        <ele>1136.199951171875</ele>
        <time>2021-09-26T09:32:40.000Z</time>
      </trkpt>
      <trkpt lat="40.192281492054462432861328125" lon="-0.91939662583172321319580078125">
        <ele>1136.4000244140625</ele>
        <time>2021-09-26T09:32:41.000Z</time>
      </trkpt>
      <trkpt lat="40.1921710185706615447998046875" lon="-0.91933049261569976806640625">
        <ele>1136.800048828125</ele>
        <time>2021-09-26T09:32:43.000Z</time>
      </trkpt>
      <trkpt lat="40.1920647360384464263916015625" lon="-0.91926519758999347686767578125">
        <ele>1137</ele>
        <time>2021-09-26T09:32:45.000Z</time>
      </trkpt>
      <trkpt lat="40.1919557712972164154052734375" lon="-0.9192025847733020782470703125">
        <ele>1137.199951171875</ele>
        <time>2021-09-26T09:32:47.000Z</time>
      </trkpt>
      <trkpt lat="40.1918488182127475738525390625" lon="-0.91913628391921520233154296875">
        <ele>1137</ele>
        <time>2021-09-26T09:32:49.000Z</time>
      </trkpt>
      <trkpt lat="40.19173868000507354736328125" lon="-0.91906352899968624114990234375">
        <ele>1137</ele>
        <time>2021-09-26T09:32:51.000Z</time>
      </trkpt>
      <trkpt lat="40.191629715263843536376953125" lon="-0.9189870022237300872802734375">
        <ele>1137</ele>
        <time>2021-09-26T09:32:53.000Z</time>
      </trkpt>
      <trkpt lat="40.19152686931192874908447265625" lon="-0.9188968129456043243408203125">
        <ele>1135.800048828125</ele>
        <time>2021-09-26T09:32:55.000Z</time>
      </trkpt>
      <trkpt lat="40.1914769969880580902099609375" lon="-0.918848700821399688720703125">
        <ele>1135.199951171875</ele>
        <time>2021-09-26T09:32:56.000Z</time>
      </trkpt>
      <trkpt lat="40.19143181852996349334716796875" lon="-0.91879547573626041412353515625">
        <ele>1134.4000244140625</ele>
        <time>2021-09-26T09:32:57.000Z</time>
      </trkpt>
      <trkpt lat="40.191336683928966522216796875" lon="-0.91868466697633266448974609375">
        <ele>1133</ele>
        <time>2021-09-26T09:32:59.000Z</time>
      </trkpt>
      <trkpt lat="40.19128748215734958648681640625" lon="-0.91862683184444904327392578125">
        <ele>1132.199951171875</ele>
        <time>2021-09-26T09:33:00.000Z</time>
      </trkpt>
      <trkpt lat="40.19124138168990612030029296875" lon="-0.9185648895800113677978515625">
        <ele>1131.5999755859375</ele>
        <time>2021-09-26T09:33:01.000Z</time>
      </trkpt>
      <trkpt lat="40.191197209060192108154296875" lon="-0.9184995107352733612060546875">
        <ele>1131</ele>
        <time>2021-09-26T09:33:02.000Z</time>
      </trkpt>
      <trkpt lat="40.19115236587822437286376953125" lon="-0.91843488626182079315185546875">
        <ele>1130.4000244140625</ele>
        <time>2021-09-26T09:33:03.000Z</time>
      </trkpt>
      <trkpt lat="40.1910602487623691558837890625" lon="-0.9183073975145816802978515625">
        <ele>1129.199951171875</ele>
        <time>2021-09-26T09:33:05.000Z</time>
      </trkpt>
      <trkpt lat="40.19097249023616313934326171875" lon="-0.91818225570023059844970703125">
        <ele>1128.199951171875</ele>
        <time>2021-09-26T09:33:07.000Z</time>
      </trkpt>
      <trkpt lat="40.190888084471225738525390625" lon="-0.918062143027782440185546875">
        <ele>1128</ele>
        <time>2021-09-26T09:33:09.000Z</time>
      </trkpt>
      <trkpt lat="40.190806947648525238037109375" lon="-0.91794035397469997406005859375">
        <ele>1127.4000244140625</ele>
        <time>2021-09-26T09:33:11.000Z</time>
      </trkpt>
      <trkpt lat="40.1907241344451904296875" lon="-0.9178210794925689697265625">
        <ele>1126.5999755859375</ele>
        <time>2021-09-26T09:33:13.000Z</time>
      </trkpt>
      <trkpt lat="40.19063889048993587493896484375" lon="-0.9177062474191188812255859375">
        <ele>1126.199951171875</ele>
        <time>2021-09-26T09:33:15.000Z</time>
      </trkpt>
      <trkpt lat="40.19054752774536609649658203125" lon="-0.91759820468723773956298828125">
        <ele>1126.4000244140625</ele>
        <time>2021-09-26T09:33:17.000Z</time>
      </trkpt>
      <trkpt lat="40.19049891270697116851806640625" lon="-0.91754020191729068756103515625">
        <ele>1126.4000244140625</ele>
        <time>2021-09-26T09:33:18.000Z</time>
      </trkpt>
      <trkpt lat="40.190451554954051971435546875" lon="-0.91747934930026531219482421875">
        <ele>1126.5999755859375</ele>
        <time>2021-09-26T09:33:19.000Z</time>
      </trkpt>
      <trkpt lat="40.190406627953052520751953125" lon="-0.9174152277410030364990234375">
        <ele>1126.800048828125</ele>
        <time>2021-09-26T09:33:20.000Z</time>
      </trkpt>
      <trkpt lat="40.19036295823752880096435546875" lon="-0.91734942980110645294189453125">
        <ele>1127.199951171875</ele>
        <time>2021-09-26T09:33:21.000Z</time>
      </trkpt>
      <trkpt lat="40.1902780495584011077880859375" lon="-0.91721598990261554718017578125">
        <ele>1127.5999755859375</ele>
        <time>2021-09-26T09:33:23.000Z</time>
      </trkpt>
      <trkpt lat="40.19020018167793750762939453125" lon="-0.9170769341289997100830078125">
        <ele>1128</ele>
        <time>2021-09-26T09:33:25.000Z</time>
      </trkpt>
      <trkpt lat="40.19016380421817302703857421875" lon="-0.9170045144855976104736328125">
        <ele>1128.4000244140625</ele>
        <time>2021-09-26T09:33:26.000Z</time>
      </trkpt>
      <trkpt lat="40.1901271753013134002685546875" lon="-0.9169344417750835418701171875">
        <ele>1128.5999755859375</ele>
        <time>2021-09-26T09:33:27.000Z</time>
      </trkpt>
      <trkpt lat="40.190056264400482177734375" lon="-0.91679505072534084320068359375">
        <ele>1128.5999755859375</ele>
        <time>2021-09-26T09:33:29.000Z</time>
      </trkpt>
      <trkpt lat="40.1899907179176807403564453125" lon="-0.91664870269596576690673828125">
        <ele>1128.4000244140625</ele>
        <time>2021-09-26T09:33:31.000Z</time>
      </trkpt>
      <trkpt lat="40.18992207013070583343505859375" lon="-0.91649942100048065185546875">
        <ele>1129</ele>
        <time>2021-09-26T09:33:33.000Z</time>
      </trkpt>
      <trkpt lat="40.18985568545758724212646484375" lon="-0.916341841220855712890625">
        <ele>1128.5999755859375</ele>
        <time>2021-09-26T09:33:35.000Z</time>
      </trkpt>
      <trkpt lat="40.1897892169654369354248046875" lon="-0.9161770530045032501220703125">
        <ele>1128.800048828125</ele>
        <time>2021-09-26T09:33:37.000Z</time>
      </trkpt>
      <trkpt lat="40.1897271908819675445556640625" lon="-0.9160171262919902801513671875">
        <ele>1128.5999755859375</ele>
        <time>2021-09-26T09:33:39.000Z</time>
      </trkpt>
      <trkpt lat="40.1896970160305500030517578125" lon="-0.9159383364021778106689453125">
        <ele>1128.5999755859375</ele>
        <time>2021-09-26T09:33:40.000Z</time>
      </trkpt>
      <trkpt lat="40.1896660029888153076171875" lon="-0.9158588759601116180419921875">
        <ele>1128.800048828125</ele>
        <time>2021-09-26T09:33:41.000Z</time>
      </trkpt>
      <trkpt lat="40.18960808403789997100830078125" lon="-0.9156979434192180633544921875">
        <ele>1129</ele>
        <time>2021-09-26T09:33:43.000Z</time>
      </trkpt>
      <trkpt lat="40.1895491592586040496826171875" lon="-0.91553441248834133148193359375">
        <ele>1128.5999755859375</ele>
        <time>2021-09-26T09:33:45.000Z</time>
      </trkpt>
      <trkpt lat="40.18948436714708805084228515625" lon="-0.9153720550239086151123046875">
        <ele>1128</ele>
        <time>2021-09-26T09:33:47.000Z</time>
      </trkpt>
      <trkpt lat="40.1894157193601131439208984375" lon="-0.91519712470471858978271484375">
        <ele>1128</ele>
        <time>2021-09-26T09:33:49.000Z</time>
      </trkpt>
      <trkpt lat="40.18934841267764568328857421875" lon="-0.91502420604228973388671875">
        <ele>1128</ele>
        <time>2021-09-26T09:33:51.000Z</time>
      </trkpt>
      <trkpt lat="40.18928454257547855377197265625" lon="-0.914854221045970916748046875">
        <ele>1128.199951171875</ele>
        <time>2021-09-26T09:33:53.000Z</time>
      </trkpt>
      <trkpt lat="40.1892202533781528472900390625" lon="-0.91468348167836666107177734375">
        <ele>1128</ele>
        <time>2021-09-26T09:33:55.000Z</time>
      </trkpt>
      <trkpt lat="40.18915395252406597137451171875" lon="-0.91450427658855915069580078125">
        <ele>1128.199951171875</ele>
        <time>2021-09-26T09:33:57.000Z</time>
      </trkpt>
      <trkpt lat="40.18908019177615642547607421875" lon="-0.91432423330843448638916015625">
        <ele>1128</ele>
        <time>2021-09-26T09:33:59.000Z</time>
      </trkpt>
      <trkpt lat="40.18904565833508968353271484375" lon="-0.91423119418323040008544921875">
        <ele>1128.4000244140625</ele>
        <time>2021-09-26T09:34:00.000Z</time>
      </trkpt>
      <trkpt lat="40.1890107057988643646240234375" lon="-0.91413798741996288299560546875">
        <ele>1128.800048828125</ele>
        <time>2021-09-26T09:34:01.000Z</time>
      </trkpt>
      <trkpt lat="40.18897659145295619964599609375" lon="-0.9140446968376636505126953125">
        <ele>1129</ele>
        <time>2021-09-26T09:34:02.000Z</time>
      </trkpt>
      <trkpt lat="40.188941471278667449951171875" lon="-0.913951657712459564208984375">
        <ele>1128.800048828125</ele>
        <time>2021-09-26T09:34:03.000Z</time>
      </trkpt>
      <trkpt lat="40.18890450708568096160888671875" lon="-0.913858115673065185546875">
        <ele>1128.4000244140625</ele>
        <time>2021-09-26T09:34:04.000Z</time>
      </trkpt>
      <trkpt lat="40.18886846490204334259033203125" lon="-0.913762561976909637451171875">
        <ele>1127.5999755859375</ele>
        <time>2021-09-26T09:34:05.000Z</time>
      </trkpt>
      <trkpt lat="40.18879420123994350433349609375" lon="-0.91356969438493251800537109375">
        <ele>1125.199951171875</ele>
        <time>2021-09-26T09:34:07.000Z</time>
      </trkpt>
      <trkpt lat="40.1887216977775096893310546875" lon="-0.9133780002593994140625">
        <ele>1124</ele>
        <time>2021-09-26T09:34:09.000Z</time>
      </trkpt>
      <trkpt lat="40.188646428287029266357421875" lon="-0.913185887038707733154296875">
        <ele>1124</ele>
        <time>2021-09-26T09:34:11.000Z</time>
      </trkpt>
      <trkpt lat="40.18857409246265888214111328125" lon="-0.912987403571605682373046875">
        <ele>1123.4000244140625</ele>
        <time>2021-09-26T09:34:13.000Z</time>
      </trkpt>
      <trkpt lat="40.18850100226700305938720703125" lon="-0.912786237895488739013671875">
        <ele>1122.5999755859375</ele>
        <time>2021-09-26T09:34:15.000Z</time>
      </trkpt>
      <trkpt lat="40.1884300075471401214599609375" lon="-0.9125934541225433349609375">
        <ele>1122.199951171875</ele>
        <time>2021-09-26T09:34:17.000Z</time>
      </trkpt>
      <trkpt lat="40.1883572526276111602783203125" lon="-0.912410058081150054931640625">
        <ele>1122.199951171875</ele>
        <time>2021-09-26T09:34:19.000Z</time>
      </trkpt>
      <trkpt lat="40.18828122876584529876708984375" lon="-0.9122291766107082366943359375">
        <ele>1122.4000244140625</ele>
        <time>2021-09-26T09:34:21.000Z</time>
      </trkpt>
      <trkpt lat="40.18820763565599918365478515625" lon="-0.9120457805693149566650390625">
        <ele>1122</ele>
        <time>2021-09-26T09:34:23.000Z</time>
      </trkpt>
      <trkpt lat="40.1881352998316287994384765625" lon="-0.911861546337604522705078125">
        <ele>1121.800048828125</ele>
        <time>2021-09-26T09:34:25.000Z</time>
      </trkpt>
      <trkpt lat="40.18805709667503833770751953125" lon="-0.91167387552559375762939453125">
        <ele>1122</ele>
        <time>2021-09-26T09:34:27.000Z</time>
      </trkpt>
      <trkpt lat="40.18798031844198703765869140625" lon="-0.91147941537201404571533203125">
        <ele>1121.800048828125</ele>
        <time>2021-09-26T09:34:29.000Z</time>
      </trkpt>
      <trkpt lat="40.1879428513348102569580078125" lon="-0.911381430923938751220703125">
        <ele>1121.199951171875</ele>
        <time>2021-09-26T09:34:30.000Z</time>
      </trkpt>
      <trkpt lat="40.18790555186569690704345703125" lon="-0.911281518638134002685546875">
        <ele>1120.4000244140625</ele>
        <time>2021-09-26T09:34:31.000Z</time>
      </trkpt>
      <trkpt lat="40.18783698789775371551513671875" lon="-0.91108714230358600616455078125">
        <ele>1119.4000244140625</ele>
        <time>2021-09-26T09:34:33.000Z</time>
      </trkpt>
      <trkpt lat="40.18776766955852508544921875" lon="-0.9109014831483364105224609375">
        <ele>1119.199951171875</ele>
        <time>2021-09-26T09:34:35.000Z</time>
      </trkpt>
      <trkpt lat="40.18769583664834499359130859375" lon="-0.91071766801178455352783203125">
        <ele>1119.199951171875</ele>
        <time>2021-09-26T09:34:37.000Z</time>
      </trkpt>
      <trkpt lat="40.187620483338832855224609375" lon="-0.9105410613119602203369140625">
        <ele>1118</ele>
        <time>2021-09-26T09:34:39.000Z</time>
      </trkpt>
      <trkpt lat="40.1875509135425090789794921875" lon="-0.9103650413453578948974609375">
        <ele>1117.4000244140625</ele>
        <time>2021-09-26T09:34:41.000Z</time>
      </trkpt>
      <trkpt lat="40.18748880364000797271728515625" lon="-0.91018675826489925384521484375">
        <ele>1116.5999755859375</ele>
        <time>2021-09-26T09:34:43.000Z</time>
      </trkpt>
      <trkpt lat="40.18742300570011138916015625" lon="-0.9100019372999668121337890625">
        <ele>1115.5999755859375</ele>
        <time>2021-09-26T09:34:45.000Z</time>
      </trkpt>
      <trkpt lat="40.1873460598289966583251953125" lon="-0.9098148532211780548095703125">
        <ele>1115</ele>
        <time>2021-09-26T09:34:47.000Z</time>
      </trkpt>
      <trkpt lat="40.18726249225437641143798828125" lon="-0.9096331335604190826416015625">
        <ele>1114.5999755859375</ele>
        <time>2021-09-26T09:34:49.000Z</time>
      </trkpt>
      <trkpt lat="40.1872189901769161224365234375" lon="-0.909544788300991058349609375">
        <ele>1115</ele>
        <time>2021-09-26T09:34:50.000Z</time>
      </trkpt>
      <trkpt lat="40.18717515282332897186279296875" lon="-0.90945803560316562652587890625">
        <ele>1115.199951171875</ele>
        <time>2021-09-26T09:34:51.000Z</time>
      </trkpt>
      <trkpt lat="40.187085382640361785888671875" lon="-0.90929056517779827117919921875">
        <ele>1115.5999755859375</ele>
        <time>2021-09-26T09:34:53.000Z</time>
      </trkpt>
      <trkpt lat="40.18699385225772857666015625" lon="-0.909126698970794677734375">
        <ele>1116.5999755859375</ele>
        <time>2021-09-26T09:34:55.000Z</time>
      </trkpt>
      <trkpt lat="40.1868981309235095977783203125" lon="-0.9089709632098674774169921875">
        <ele>1117.5999755859375</ele>
        <time>2021-09-26T09:34:57.000Z</time>
      </trkpt>
      <trkpt lat="40.18680551089346408843994140625" lon="-0.9088249504566192626953125">
        <ele>1118</ele>
        <time>2021-09-26T09:34:59.000Z</time>
      </trkpt>
      <trkpt lat="40.1867053471505641937255859375" lon="-0.90868153609335422515869140625">
        <ele>1118.4000244140625</ele>
        <time>2021-09-26T09:35:01.000Z</time>
      </trkpt>
      <trkpt lat="40.18660627305507659912109375" lon="-0.90854709036648273468017578125">
        <ele>1118.5999755859375</ele>
        <time>2021-09-26T09:35:03.000Z</time>
      </trkpt>
      <trkpt lat="40.18650510348379611968994140625" lon="-0.908419601619243621826171875">
        <ele>1118</ele>
        <time>2021-09-26T09:35:05.000Z</time>
      </trkpt>
      <trkpt lat="40.1863963901996612548828125" lon="-0.9082893468439579010009765625">
        <ele>1117.4000244140625</ele>
        <time>2021-09-26T09:35:07.000Z</time>
      </trkpt>
      <trkpt lat="40.1863368786871433258056640625" lon="-0.908227153122425079345703125">
        <ele>1116.5999755859375</ele>
        <time>2021-09-26T09:35:08.000Z</time>
      </trkpt>
      <trkpt lat="40.1862756907939910888671875" lon="-0.9081646241247653961181640625">
        <ele>1116</ele>
        <time>2021-09-26T09:35:09.000Z</time>
      </trkpt>
      <trkpt lat="40.1861501298844814300537109375" lon="-0.9080479480326175689697265625">
        <ele>1115.5999755859375</ele>
        <time>2021-09-26T09:35:11.000Z</time>
      </trkpt>
      <trkpt lat="40.1860254071652889251708984375" lon="-0.90793286450207233428955078125">
        <ele>1116.199951171875</ele>
        <time>2021-09-26T09:35:13.000Z</time>
      </trkpt>
      <trkpt lat="40.18596044741570949554443359375" lon="-0.9078796394169330596923828125">
        <ele>1116.199951171875</ele>
        <time>2021-09-26T09:35:14.000Z</time>
      </trkpt>
      <trkpt lat="40.18589473329484462738037109375" lon="-0.9078276716172695159912109375">
        <ele>1116.199951171875</ele>
        <time>2021-09-26T09:35:15.000Z</time>
      </trkpt>
      <trkpt lat="40.185827426612377166748046875" lon="-0.9077726863324642181396484375">
        <ele>1116.199951171875</ele>
        <time>2021-09-26T09:35:16.000Z</time>
      </trkpt>
      <trkpt lat="40.1857612095773220062255859375" lon="-0.907721221446990966796875">
        <ele>1116.4000244140625</ele>
        <time>2021-09-26T09:35:17.000Z</time>
      </trkpt>
      <trkpt lat="40.18569122068583965301513671875" lon="-0.90767269022762775421142578125">
        <ele>1116.199951171875</ele>
        <time>2021-09-26T09:35:18.000Z</time>
      </trkpt>
      <trkpt lat="40.18562190234661102294921875" lon="-0.90762424282729625701904296875">
        <ele>1116</ele>
        <time>2021-09-26T09:35:19.000Z</time>
      </trkpt>
      <trkpt lat="40.18548703752458095550537109375" lon="-0.9075289405882358551025390625">
        <ele>1116</ele>
        <time>2021-09-26T09:35:21.000Z</time>
      </trkpt>
      <trkpt lat="40.1853498257696628570556640625" lon="-0.90744294226169586181640625">
        <ele>1116.4000244140625</ele>
        <time>2021-09-26T09:35:23.000Z</time>
      </trkpt>
      <trkpt lat="40.18521278165280818939208984375" lon="-0.90736323036253452301025390625">
        <ele>1117</ele>
        <time>2021-09-26T09:35:25.000Z</time>
      </trkpt>
      <trkpt lat="40.18507498316466808319091796875" lon="-0.9072848595678806304931640625">
        <ele>1117</ele>
        <time>2021-09-26T09:35:27.000Z</time>
      </trkpt>
      <trkpt lat="40.1849364303052425384521484375" lon="-0.9072209894657135009765625">
        <ele>1117</ele>
        <time>2021-09-26T09:35:29.000Z</time>
      </trkpt>
      <trkpt lat="40.1847868971526622772216796875" lon="-0.90715200640261173248291015625">
        <ele>1116</ele>
        <time>2021-09-26T09:35:31.000Z</time>
      </trkpt>
      <trkpt lat="40.1847111247479915618896484375" lon="-0.9071217477321624755859375">
        <ele>1115</ele>
        <time>2021-09-26T09:35:32.000Z</time>
      </trkpt>
      <trkpt lat="40.184638202190399169921875" lon="-0.9070893935859203338623046875">
        <ele>1114.199951171875</ele>
        <time>2021-09-26T09:35:33.000Z</time>
      </trkpt>
      <trkpt lat="40.1844925247132778167724609375" lon="-0.90701521374285221099853515625">
        <ele>1112.4000244140625</ele>
        <time>2021-09-26T09:35:35.000Z</time>
      </trkpt>
      <trkpt lat="40.18442119471728801727294921875" lon="-0.9069764055311679840087890625">
        <ele>1111.4000244140625</ele>
        <time>2021-09-26T09:35:36.000Z</time>
      </trkpt>
      <trkpt lat="40.18434944562613964080810546875" lon="-0.906937681138515472412109375">
        <ele>1110.5999755859375</ele>
        <time>2021-09-26T09:35:37.000Z</time>
      </trkpt>
      <trkpt lat="40.18427752889692783355712890625" lon="-0.90689904056489467620849609375">
        <ele>1109.800048828125</ele>
        <time>2021-09-26T09:35:38.000Z</time>
      </trkpt>
      <trkpt lat="40.18420259468257427215576171875" lon="-0.9068620763719081878662109375">
        <ele>1109.199951171875</ele>
        <time>2021-09-26T09:35:39.000Z</time>
      </trkpt>
      <trkpt lat="40.18412715755403041839599609375" lon="-0.9068262018263339996337890625">
        <ele>1108.5999755859375</ele>
        <time>2021-09-26T09:35:40.000Z</time>
      </trkpt>
      <trkpt lat="40.18405012786388397216796875" lon="-0.90678756125271320343017578125">
        <ele>1108</ele>
        <time>2021-09-26T09:35:41.000Z</time>
      </trkpt>
      <trkpt lat="40.183973349630832672119140625" lon="-0.9067490883171558380126953125">
        <ele>1108</ele>
        <time>2021-09-26T09:35:42.000Z</time>
      </trkpt>
      <trkpt lat="40.18389732576906681060791015625" lon="-0.90670743025839328765869140625">
        <ele>1108</ele>
        <time>2021-09-26T09:35:43.000Z</time>
      </trkpt>
      <trkpt lat="40.18382172100245952606201171875" lon="-0.90666501782834529876708984375">
        <ele>1107.5999755859375</ele>
        <time>2021-09-26T09:35:44.000Z</time>
      </trkpt>
      <trkpt lat="40.183745361864566802978515625" lon="-0.90662444941699504852294921875">
        <ele>1107.5999755859375</ele>
        <time>2021-09-26T09:35:45.000Z</time>
      </trkpt>
      <trkpt lat="40.18367051146924495697021484375" lon="-0.90658706612884998321533203125">
        <ele>1107.800048828125</ele>
        <time>2021-09-26T09:35:46.000Z</time>
      </trkpt>
      <trkpt lat="40.18359507434070110321044921875" lon="-0.90655085630714893341064453125">
        <ele>1108</ele>
        <time>2021-09-26T09:35:47.000Z</time>
      </trkpt>
      <trkpt lat="40.183444954454898834228515625" lon="-0.9064805321395397186279296875">
        <ele>1108</ele>
        <time>2021-09-26T09:35:49.000Z</time>
      </trkpt>
      <trkpt lat="40.1832999475300312042236328125" lon="-0.9064109623432159423828125">
        <ele>1107.5999755859375</ele>
        <time>2021-09-26T09:35:51.000Z</time>
      </trkpt>
      <trkpt lat="40.1831591315567493438720703125" lon="-0.90633812360465526580810546875">
        <ele>1107.4000244140625</ele>
        <time>2021-09-26T09:35:53.000Z</time>
      </trkpt>
      <trkpt lat="40.18302041105926036834716796875" lon="-0.90626084245741367340087890625">
        <ele>1106.4000244140625</ele>
        <time>2021-09-26T09:35:55.000Z</time>
      </trkpt>
      <trkpt lat="40.18295151181519031524658203125" lon="-0.9062206931412220001220703125">
        <ele>1106</ele>
        <time>2021-09-26T09:35:56.000Z</time>
      </trkpt>
      <trkpt lat="40.182885043323040008544921875" lon="-0.906177274882793426513671875">
        <ele>1105.800048828125</ele>
        <time>2021-09-26T09:35:57.000Z</time>
      </trkpt>
      <trkpt lat="40.1827539503574371337890625" lon="-0.90608985163271427154541015625">
        <ele>1105.5999755859375</ele>
        <time>2021-09-26T09:35:59.000Z</time>
      </trkpt>
      <trkpt lat="40.18262327648699283599853515625" lon="-0.9059994108974933624267578125">
        <ele>1105.5999755859375</ele>
        <time>2021-09-26T09:36:01.000Z</time>
      </trkpt>
      <trkpt lat="40.18249520100653171539306640625" lon="-0.90590125881135463714599609375">
        <ele>1106</ele>
        <time>2021-09-26T09:36:03.000Z</time>
      </trkpt>
      <trkpt lat="40.18237466923892498016357421875" lon="-0.90579883195459842681884765625">
        <ele>1106.199951171875</ele>
        <time>2021-09-26T09:36:05.000Z</time>
      </trkpt>
      <trkpt lat="40.1822579093277454376220703125" lon="-0.90568877756595611572265625">
        <ele>1106.800048828125</ele>
        <time>2021-09-26T09:36:07.000Z</time>
      </trkpt>
      <trkpt lat="40.18214366398751735687255859375" lon="-0.905570425093173980712890625">
        <ele>1107.199951171875</ele>
        <time>2021-09-26T09:36:09.000Z</time>
      </trkpt>
      <trkpt lat="40.18208683468401432037353515625" lon="-0.90551049448549747467041015625">
        <ele>1107</ele>
        <time>2021-09-26T09:36:10.000Z</time>
      </trkpt>
      <trkpt lat="40.1820305921137332916259765625" lon="-0.90545140206813812255859375">
        <ele>1107</ele>
        <time>2021-09-26T09:36:11.000Z</time>
      </trkpt>
      <trkpt lat="40.18191953189671039581298828125" lon="-0.90533011592924594879150390625">
        <ele>1107.199951171875</ele>
        <time>2021-09-26T09:36:13.000Z</time>
      </trkpt>
      <trkpt lat="40.18181308172643184661865234375" lon="-0.90520774014294147491455078125">
        <ele>1108.199951171875</ele>
        <time>2021-09-26T09:36:15.000Z</time>
      </trkpt>
      <trkpt lat="40.18171266652643680572509765625" lon="-0.90508167631924152374267578125">
        <ele>1108.5999755859375</ele>
        <time>2021-09-26T09:36:17.000Z</time>
      </trkpt>
      <trkpt lat="40.18166472204029560089111328125" lon="-0.90502015314996242523193359375">
        <ele>1108.5999755859375</ele>
        <time>2021-09-26T09:36:18.000Z</time>
      </trkpt>
      <trkpt lat="40.18161778338253498077392578125" lon="-0.90495997108519077301025390625">
        <ele>1108.800048828125</ele>
        <time>2021-09-26T09:36:19.000Z</time>
      </trkpt>
      <trkpt lat="40.18152390606701374053955078125" lon="-0.90485067106783390045166015625">
        <ele>1109</ele>
        <time>2021-09-26T09:36:21.000Z</time>
      </trkpt>
      <trkpt lat="40.1814358122646808624267578125" lon="-0.9047451429069042205810546875">
        <ele>1109</ele>
        <time>2021-09-26T09:36:23.000Z</time>
      </trkpt>
      <trkpt lat="40.1813918910920619964599609375" lon="-0.90469040907919406890869140625">
        <ele>1109</ele>
        <time>2021-09-26T09:36:24.000Z</time>
      </trkpt>
      <trkpt lat="40.1813472993671894073486328125" lon="-0.90463022701442241668701171875">
        <ele>1109</ele>
        <time>2021-09-26T09:36:25.000Z</time>
      </trkpt>
      <trkpt lat="40.181259624660015106201171875" lon="-0.904499553143978118896484375">
        <ele>1108.800048828125</ele>
        <time>2021-09-26T09:36:27.000Z</time>
      </trkpt>
      <trkpt lat="40.18118142150342464447021484375" lon="-0.90436602942645549774169921875">
        <ele>1108</ele>
        <time>2021-09-26T09:36:29.000Z</time>
      </trkpt>
      <trkpt lat="40.181144960224628448486328125" lon="-0.90429528616368770599365234375">
        <ele>1107.5999755859375</ele>
        <time>2021-09-26T09:36:30.000Z</time>
      </trkpt>
      <trkpt lat="40.181108415126800537109375" lon="-0.90422403998672962188720703125">
        <ele>1107.5999755859375</ele>
        <time>2021-09-26T09:36:31.000Z</time>
      </trkpt>
      <trkpt lat="40.18104630522429943084716796875" lon="-0.90407769195735454559326171875">
        <ele>1107.199951171875</ele>
        <time>2021-09-26T09:36:33.000Z</time>
      </trkpt>
      <trkpt lat="40.1809898950159549713134765625" lon="-0.90392447076737880706787109375">
        <ele>1107.5999755859375</ele>
        <time>2021-09-26T09:36:35.000Z</time>
      </trkpt>
      <trkpt lat="40.180961899459362030029296875" lon="-0.9038469381630420684814453125">
        <ele>1108</ele>
        <time>2021-09-26T09:36:36.000Z</time>
      </trkpt>
      <trkpt lat="40.18093231134116649627685546875" lon="-0.9037688188254833221435546875">
        <ele>1108.4000244140625</ele>
        <time>2021-09-26T09:36:37.000Z</time>
      </trkpt>
      <trkpt lat="40.180876739323139190673828125" lon="-0.90360931120812892913818359375">
        <ele>1109</ele>
        <time>2021-09-26T09:36:39.000Z</time>
      </trkpt>
      <trkpt lat="40.1808269508183002471923828125" lon="-0.90344904921948909759521484375">
        <ele>1109</ele>
        <time>2021-09-26T09:36:41.000Z</time>
      </trkpt>
      <trkpt lat="40.18077724613249301910400390625" lon="-0.9032873623073101043701171875">
        <ele>1109.5999755859375</ele>
        <time>2021-09-26T09:36:43.000Z</time>
      </trkpt>
      <trkpt lat="40.18072343431413173675537109375" lon="-0.9031281061470508575439453125">
        <ele>1110.4000244140625</ele>
        <time>2021-09-26T09:36:45.000Z</time>
      </trkpt>
      <trkpt lat="40.1806700415909290313720703125" lon="-0.90297245420515537261962890625">
        <ele>1111.5999755859375</ele>
        <time>2021-09-26T09:36:47.000Z</time>
      </trkpt>
      <trkpt lat="40.1806187443435192108154296875" lon="-0.9028213284909725189208984375">
        <ele>1111.5999755859375</ele>
        <time>2021-09-26T09:36:49.000Z</time>
      </trkpt>
      <trkpt lat="40.18056954257190227508544921875" lon="-0.902669616043567657470703125">
        <ele>1111.4000244140625</ele>
        <time>2021-09-26T09:36:51.000Z</time>
      </trkpt>
      <trkpt lat="40.18052612431347370147705078125" lon="-0.9025246091187000274658203125">
        <ele>1110.800048828125</ele>
        <time>2021-09-26T09:36:53.000Z</time>
      </trkpt>
      <trkpt lat="40.1804785989224910736083984375" lon="-0.90237968601286411285400390625">
        <ele>1110.199951171875</ele>
        <time>2021-09-26T09:36:55.000Z</time>
      </trkpt>
      <trkpt lat="40.18042922951281070709228515625" lon="-0.90223266743123531341552734375">
        <ele>1109.199951171875</ele>
        <time>2021-09-26T09:36:57.000Z</time>
      </trkpt>
      <trkpt lat="40.18040358088910579681396484375" lon="-0.90216158889234066009521484375">
        <ele>1108.800048828125</ele>
        <time>2021-09-26T09:36:58.000Z</time>
      </trkpt>
      <trkpt lat="40.18038078211247920989990234375" lon="-0.9020897559821605682373046875">
        <ele>1108.4000244140625</ele>
        <time>2021-09-26T09:36:59.000Z</time>
      </trkpt>
      <trkpt lat="40.18033635802567005157470703125" lon="-0.9019532985985279083251953125">
        <ele>1108</ele>
        <time>2021-09-26T09:37:01.000Z</time>
      </trkpt>
      <trkpt lat="40.18029277212917804718017578125" lon="-0.9018228761851787567138671875">
        <ele>1107.800048828125</ele>
        <time>2021-09-26T09:37:03.000Z</time>
      </trkpt>
      <trkpt lat="40.18024482764303684234619140625" lon="-0.9016877599060535430908203125">
        <ele>1108.199951171875</ele>
        <time>2021-09-26T09:37:05.000Z</time>
      </trkpt>
      <trkpt lat="40.180225633084774017333984375" lon="-0.90161777101457118988037109375">
        <ele>1108.4000244140625</ele>
        <time>2021-09-26T09:37:06.000Z</time>
      </trkpt>
      <trkpt lat="40.1802137307822704315185546875" lon="-0.90154878795146942138671875">
        <ele>1108.800048828125</ele>
        <time>2021-09-26T09:37:07.000Z</time>
      </trkpt>
      <trkpt lat="40.18019822426140308380126953125" lon="-0.90147636830806732177734375">
        <ele>1109</ele>
        <time>2021-09-26T09:37:08.000Z</time>
      </trkpt>
      <trkpt lat="40.18017425201833248138427734375" lon="-0.901403613388538360595703125">
        <ele>1109.4000244140625</ele>
        <time>2021-09-26T09:37:09.000Z</time>
      </trkpt>
      <trkpt lat="40.18012362532317638397216796875" lon="-0.901254750788211822509765625">
        <ele>1110.199951171875</ele>
        <time>2021-09-26T09:37:11.000Z</time>
      </trkpt>
      <trkpt lat="40.1800762675702571868896484375" lon="-0.90110848657786846160888671875">
        <ele>1110.4000244140625</ele>
        <time>2021-09-26T09:37:13.000Z</time>
      </trkpt>
      <trkpt lat="40.1800276525318622589111328125" lon="-0.90096666477620601654052734375">
        <ele>1110</ele>
        <time>2021-09-26T09:37:15.000Z</time>
      </trkpt>
      <trkpt lat="40.17998146824538707733154296875" lon="-0.90082459151744842529296875">
        <ele>1109.800048828125</ele>
        <time>2021-09-26T09:37:17.000Z</time>
      </trkpt>
      <trkpt lat="40.1799599267542362213134765625" lon="-0.90075443498790264129638671875">
        <ele>1109.4000244140625</ele>
        <time>2021-09-26T09:37:18.000Z</time>
      </trkpt>
      <trkpt lat="40.17993905581533908843994140625" lon="-0.900684781372547149658203125">
        <ele>1109.199951171875</ele>
        <time>2021-09-26T09:37:19.000Z</time>
      </trkpt>
      <trkpt lat="40.17989211715757846832275390625" lon="-0.90054019354283809661865234375">
        <ele>1108.5999755859375</ele>
        <time>2021-09-26T09:37:21.000Z</time>
      </trkpt>
      <trkpt lat="40.17984014935791492462158203125" lon="-0.9003848768770694732666015625">
        <ele>1108</ele>
        <time>2021-09-26T09:37:23.000Z</time>
      </trkpt>
      <trkpt lat="40.179788768291473388671875" lon="-0.9002262912690639495849609375">
        <ele>1107.4000244140625</ele>
        <time>2021-09-26T09:37:25.000Z</time>
      </trkpt>
      <trkpt lat="40.179740488529205322265625" lon="-0.90006795711815357208251953125">
        <ele>1106.800048828125</ele>
        <time>2021-09-26T09:37:27.000Z</time>
      </trkpt>
      <trkpt lat="40.17971006222069263458251953125" lon="-0.89998413808643817901611328125">
        <ele>1106.800048828125</ele>
        <time>2021-09-26T09:37:28.000Z</time>
      </trkpt>
      <trkpt lat="40.1796776242554187774658203125" lon="-0.8999061025679111480712890625">
        <ele>1106.800048828125</ele>
        <time>2021-09-26T09:37:29.000Z</time>
      </trkpt>
      <trkpt lat="40.1796521432697772979736328125" lon="-0.89982890523970127105712890625">
        <ele>1107</ele>
        <time>2021-09-26T09:37:30.000Z</time>
      </trkpt>
      <trkpt lat="40.17962624318897724151611328125" lon="-0.89974709786474704742431640625">
        <ele>1107</ele>
        <time>2021-09-26T09:37:31.000Z</time>
      </trkpt>
      <trkpt lat="40.1795770414173603057861328125" lon="-0.89958616532385349273681640625">
        <ele>1107.199951171875</ele>
        <time>2021-09-26T09:37:33.000Z</time>
      </trkpt>
      <trkpt lat="40.1795299351215362548828125" lon="-0.89942707680165767669677734375">
        <ele>1107.4000244140625</ele>
        <time>2021-09-26T09:37:35.000Z</time>
      </trkpt>
      <trkpt lat="40.17948140390217304229736328125" lon="-0.8992727659642696380615234375">
        <ele>1107</ele>
        <time>2021-09-26T09:37:37.000Z</time>
      </trkpt>
      <trkpt lat="40.17945525236427783966064453125" lon="-0.8991926349699497222900390625">
        <ele>1106.5999755859375</ele>
        <time>2021-09-26T09:37:38.000Z</time>
      </trkpt>
      <trkpt lat="40.17942742444574832916259765625" lon="-0.89910739101469516754150390625">
        <ele>1106.800048828125</ele>
        <time>2021-09-26T09:37:39.000Z</time>
      </trkpt>
      <trkpt lat="40.1793671585619449615478515625" lon="-0.8989441953599452972412109375">
        <ele>1106.800048828125</ele>
        <time>2021-09-26T09:37:41.000Z</time>
      </trkpt>
      <trkpt lat="40.1793368160724639892578125" lon="-0.8988654054701328277587890625">
        <ele>1106.4000244140625</ele>
        <time>2021-09-26T09:37:42.000Z</time>
      </trkpt>
      <trkpt lat="40.17930303700268268585205078125" lon="-0.89879172854125499725341796875">
        <ele>1106</ele>
        <time>2021-09-26T09:37:43.000Z</time>
      </trkpt>
      <trkpt lat="40.17922676168382167816162109375" lon="-0.89864655397832393646240234375">
        <ele>1106</ele>
        <time>2021-09-26T09:37:45.000Z</time>
      </trkpt>
      <trkpt lat="40.1791542582213878631591796875" lon="-0.89849450625479221343994140625">
        <ele>1105.4000244140625</ele>
        <time>2021-09-26T09:37:47.000Z</time>
      </trkpt>
      <trkpt lat="40.179072283208370208740234375" lon="-0.89833541773259639739990234375">
        <ele>1104.5999755859375</ele>
        <time>2021-09-26T09:37:49.000Z</time>
      </trkpt>
      <trkpt lat="40.1789799146354198455810546875" lon="-0.89817523956298828125">
        <ele>1103.5999755859375</ele>
        <time>2021-09-26T09:37:51.000Z</time>
      </trkpt>
      <trkpt lat="40.1789306290447711944580078125" lon="-0.898095779120922088623046875">
        <ele>1103</ele>
        <time>2021-09-26T09:37:52.000Z</time>
      </trkpt>
      <trkpt lat="40.178884528577327728271484375" lon="-0.8980178274214267730712890625">
        <ele>1102.4000244140625</ele>
        <time>2021-09-26T09:37:53.000Z</time>
      </trkpt>
      <trkpt lat="40.1788379251956939697265625" lon="-0.89794121682643890380859375">
        <ele>1102.199951171875</ele>
        <time>2021-09-26T09:37:54.000Z</time>
      </trkpt>
      <trkpt lat="40.17878654412925243377685546875" lon="-0.89786452241241931915283203125">
        <ele>1102</ele>
        <time>2021-09-26T09:37:55.000Z</time>
      </trkpt>
      <trkpt lat="40.17868277616798877716064453125" lon="-0.89770845137536525726318359375">
        <ele>1101.4000244140625</ele>
        <time>2021-09-26T09:37:57.000Z</time>
      </trkpt>
      <trkpt lat="40.17862762324512004852294921875" lon="-0.89763301424682140350341796875">
        <ele>1101.5999755859375</ele>
        <time>2021-09-26T09:37:58.000Z</time>
      </trkpt>
      <trkpt lat="40.1785723865032196044921875" lon="-0.89755942113697528839111328125">
        <ele>1101.5999755859375</ele>
        <time>2021-09-26T09:37:59.000Z</time>
      </trkpt>
      <trkpt lat="40.17845906317234039306640625" lon="-0.89740972034633159637451171875">
        <ele>1101.5999755859375</ele>
        <time>2021-09-26T09:38:01.000Z</time>
      </trkpt>
      <trkpt lat="40.17834062688052654266357421875" lon="-0.897258259356021881103515625">
        <ele>1100.4000244140625</ele>
        <time>2021-09-26T09:38:03.000Z</time>
      </trkpt>
      <trkpt lat="40.17822034657001495361328125" lon="-0.89710445143282413482666015625">
        <ele>1100.199951171875</ele>
        <time>2021-09-26T09:38:05.000Z</time>
      </trkpt>
      <trkpt lat="40.17809973098337650299072265625" lon="-0.8969534933567047119140625">
        <ele>1100</ele>
        <time>2021-09-26T09:38:07.000Z</time>
      </trkpt>
      <trkpt lat="40.177975594997406005859375" lon="-0.89679851196706295013427734375">
        <ele>1100</ele>
        <time>2021-09-26T09:38:09.000Z</time>
      </trkpt>
      <trkpt lat="40.1778520457446575164794921875" lon="-0.8966408483684062957763671875">
        <ele>1100</ele>
        <time>2021-09-26T09:38:11.000Z</time>
      </trkpt>
      <trkpt lat="40.17772489227354526519775390625" lon="-0.8964802511036396026611328125">
        <ele>1099.199951171875</ele>
        <time>2021-09-26T09:38:13.000Z</time>
      </trkpt>
      <trkpt lat="40.17760151065886020660400390625" lon="-0.8963256888091564178466796875">
        <ele>1099</ele>
        <time>2021-09-26T09:38:15.000Z</time>
      </trkpt>
      <trkpt lat="40.177473686635494232177734375" lon="-0.89616735465824604034423828125">
        <ele>1098.4000244140625</ele>
        <time>2021-09-26T09:38:17.000Z</time>
      </trkpt>
      <trkpt lat="40.17734527587890625" lon="-0.8960111998021602630615234375">
        <ele>1099</ele>
        <time>2021-09-26T09:38:19.000Z</time>
      </trkpt>
      <trkpt lat="40.1772173680365085601806640625" lon="-0.8958512730896472930908203125">
        <ele>1099.4000244140625</ele>
        <time>2021-09-26T09:38:21.000Z</time>
      </trkpt>
      <trkpt lat="40.1770882867276668548583984375" lon="-0.895690508186817169189453125">
        <ele>1099</ele>
        <time>2021-09-26T09:38:23.000Z</time>
      </trkpt>
      <trkpt lat="40.17696046270430088043212890625" lon="-0.89553167112171649932861328125">
        <ele>1099</ele>
        <time>2021-09-26T09:38:25.000Z</time>
      </trkpt>
      <trkpt lat="40.176831968128681182861328125" lon="-0.89537342078983783721923828125">
        <ele>1099</ele>
        <time>2021-09-26T09:38:27.000Z</time>
      </trkpt>
      <trkpt lat="40.17676700837910175323486328125" lon="-0.89529764838516712188720703125">
        <ele>1098.5999755859375</ele>
        <time>2021-09-26T09:38:28.000Z</time>
      </trkpt>
      <trkpt lat="40.17670263536274433135986328125" lon="-0.89522539637982845306396484375">
        <ele>1098.4000244140625</ele>
        <time>2021-09-26T09:38:29.000Z</time>
      </trkpt>
      <trkpt lat="40.17657673917710781097412109375" lon="-0.89507435448467731475830078125">
        <ele>1097.800048828125</ele>
        <time>2021-09-26T09:38:31.000Z</time>
      </trkpt>
      <trkpt lat="40.17645151354372501373291015625" lon="-0.89491903781890869140625">
        <ele>1096.4000244140625</ele>
        <time>2021-09-26T09:38:33.000Z</time>
      </trkpt>
      <trkpt lat="40.17638982273638248443603515625" lon="-0.89483966119587421417236328125">
        <ele>1096</ele>
        <time>2021-09-26T09:38:34.000Z</time>
      </trkpt>
      <trkpt lat="40.17632670700550079345703125" lon="-0.89475953020155429840087890625">
        <ele>1095.5999755859375</ele>
        <time>2021-09-26T09:38:35.000Z</time>
      </trkpt>
      <trkpt lat="40.176194608211517333984375" lon="-0.894602872431278228759765625">
        <ele>1094.4000244140625</ele>
        <time>2021-09-26T09:38:37.000Z</time>
      </trkpt>
      <trkpt lat="40.1760672032833099365234375" lon="-0.89444470591843128204345703125">
        <ele>1093.4000244140625</ele>
        <time>2021-09-26T09:38:39.000Z</time>
      </trkpt>
      <trkpt lat="40.17600509338080883026123046875" lon="-0.8943656645715236663818359375">
        <ele>1093.4000244140625</ele>
        <time>2021-09-26T09:38:40.000Z</time>
      </trkpt>
      <trkpt lat="40.17594340257346630096435546875" lon="-0.894287042319774627685546875">
        <ele>1093</ele>
        <time>2021-09-26T09:38:41.000Z</time>
      </trkpt>
      <trkpt lat="40.17581918276846408843994140625" lon="-0.89412921108305454254150390625">
        <ele>1092.199951171875</ele>
        <time>2021-09-26T09:38:43.000Z</time>
      </trkpt>
      <trkpt lat="40.17569596879184246063232421875" lon="-0.893975235521793365478515625">
        <ele>1092.199951171875</ele>
        <time>2021-09-26T09:38:45.000Z</time>
      </trkpt>
      <trkpt lat="40.175633691251277923583984375" lon="-0.8938989602029323577880859375">
        <ele>1092.4000244140625</ele>
        <time>2021-09-26T09:38:46.000Z</time>
      </trkpt>
      <trkpt lat="40.1755711622536182403564453125" lon="-0.8938211761415004730224609375">
        <ele>1092.5999755859375</ele>
        <time>2021-09-26T09:38:47.000Z</time>
      </trkpt>
      <trkpt lat="40.175448618829250335693359375" lon="-0.8936666138470172882080078125">
        <ele>1092.800048828125</ele>
        <time>2021-09-26T09:38:49.000Z</time>
      </trkpt>
      <trkpt lat="40.175327248871326446533203125" lon="-0.893517248332500457763671875">
        <ele>1092.5999755859375</ele>
        <time>2021-09-26T09:38:51.000Z</time>
      </trkpt>
      <trkpt lat="40.17520378343760967254638671875" lon="-0.89336176402866840362548828125">
        <ele>1091.5999755859375</ele>
        <time>2021-09-26T09:38:53.000Z</time>
      </trkpt>
      <trkpt lat="40.17508358694612979888916015625" lon="-0.89321357198059558868408203125">
        <ele>1091.5999755859375</ele>
        <time>2021-09-26T09:38:55.000Z</time>
      </trkpt>
      <trkpt lat="40.1749747060239315032958984375" lon="-0.89307342655956745147705078125">
        <ele>1091.4000244140625</ele>
        <time>2021-09-26T09:38:57.000Z</time>
      </trkpt>
      <trkpt lat="40.17486213706433773040771484375" lon="-0.89293411932885646820068359375">
        <ele>1091.4000244140625</ele>
        <time>2021-09-26T09:38:59.000Z</time>
      </trkpt>
      <trkpt lat="40.1747497357428073883056640625" lon="-0.89279581792652606964111328125">
        <ele>1091.5999755859375</ele>
        <time>2021-09-26T09:39:01.000Z</time>
      </trkpt>
      <trkpt lat="40.174633227288722991943359375" lon="-0.8926513977348804473876953125">
        <ele>1091.199951171875</ele>
        <time>2021-09-26T09:39:03.000Z</time>
      </trkpt>
      <trkpt lat="40.17457731999456882476806640625" lon="-0.89257973246276378631591796875">
        <ele>1091</ele>
        <time>2021-09-26T09:39:04.000Z</time>
      </trkpt>
      <trkpt lat="40.17452015541493892669677734375" lon="-0.8925055526196956634521484375">
        <ele>1091</ele>
        <time>2021-09-26T09:39:05.000Z</time>
      </trkpt>
      <trkpt lat="40.1744015514850616455078125" lon="-0.8923566900193691253662109375">
        <ele>1091</ele>
        <time>2021-09-26T09:39:07.000Z</time>
      </trkpt>
      <trkpt lat="40.1742820255458354949951171875" lon="-0.89220665395259857177734375">
        <ele>1091</ele>
        <time>2021-09-26T09:39:09.000Z</time>
      </trkpt>
      <trkpt lat="40.17416107468307018280029296875" lon="-0.89205703698098659515380859375">
        <ele>1091</ele>
        <time>2021-09-26T09:39:11.000Z</time>
      </trkpt>
      <trkpt lat="40.17404087819159030914306640625" lon="-0.89190901257097721099853515625">
        <ele>1090.800048828125</ele>
        <time>2021-09-26T09:39:13.000Z</time>
      </trkpt>
      <trkpt lat="40.173917748034000396728515625" lon="-0.89175730012357234954833984375">
        <ele>1089.800048828125</ele>
        <time>2021-09-26T09:39:15.000Z</time>
      </trkpt>
      <trkpt lat="40.17379160039126873016357421875" lon="-0.8915996365249156951904296875">
        <ele>1089</ele>
        <time>2021-09-26T09:39:17.000Z</time>
      </trkpt>
      <trkpt lat="40.173666290938854217529296875" lon="-0.891442559659481048583984375">
        <ele>1088.800048828125</ele>
        <time>2021-09-26T09:39:19.000Z</time>
      </trkpt>
      <trkpt lat="40.17354684881865978240966796875" lon="-0.891287326812744140625">
        <ele>1088.199951171875</ele>
        <time>2021-09-26T09:39:21.000Z</time>
      </trkpt>
      <trkpt lat="40.17348901368677616119384765625" lon="-0.891209207475185394287109375">
        <ele>1088</ele>
        <time>2021-09-26T09:39:22.000Z</time>
      </trkpt>
      <trkpt lat="40.17342346720397472381591796875" lon="-0.89113083668053150177001953125">
        <ele>1087.5999755859375</ele>
        <time>2021-09-26T09:39:23.000Z</time>
      </trkpt>
      <trkpt lat="40.17329514026641845703125" lon="-0.89097208343446254730224609375">
        <ele>1087.800048828125</ele>
        <time>2021-09-26T09:39:25.000Z</time>
      </trkpt>
      <trkpt lat="40.1731692440807819366455078125" lon="-0.890812911093235015869140625">
        <ele>1087.199951171875</ele>
        <time>2021-09-26T09:39:27.000Z</time>
      </trkpt>
      <trkpt lat="40.173044018447399139404296875" lon="-0.8906521461904048919677734375">
        <ele>1087</ele>
        <time>2021-09-26T09:39:29.000Z</time>
      </trkpt>
      <trkpt lat="40.1729808188974857330322265625" lon="-0.890573523938655853271484375">
        <ele>1086.5999755859375</ele>
        <time>2021-09-26T09:39:30.000Z</time>
      </trkpt>
      <trkpt lat="40.17291770316660404205322265625" lon="-0.890495069324970245361328125">
        <ele>1086.5999755859375</ele>
        <time>2021-09-26T09:39:31.000Z</time>
      </trkpt>
      <trkpt lat="40.17279155552387237548828125" lon="-0.8903353102505207061767578125">
        <ele>1086.199951171875</ele>
        <time>2021-09-26T09:39:33.000Z</time>
      </trkpt>
      <trkpt lat="40.17266205511987209320068359375" lon="-0.89017814956605434417724609375">
        <ele>1086.4000244140625</ele>
        <time>2021-09-26T09:39:35.000Z</time>
      </trkpt>
      <trkpt lat="40.17253196798264980316162109375" lon="-0.89001738466322422027587890625">
        <ele>1086</ele>
        <time>2021-09-26T09:39:37.000Z</time>
      </trkpt>
      <trkpt lat="40.17246625386178493499755859375" lon="-0.88993675075471401214599609375">
        <ele>1085.5999755859375</ele>
        <time>2021-09-26T09:39:38.000Z</time>
      </trkpt>
      <trkpt lat="40.172401964664459228515625" lon="-0.88985460810363292694091796875">
        <ele>1085.199951171875</ele>
        <time>2021-09-26T09:39:39.000Z</time>
      </trkpt>
      <trkpt lat="40.17227112315595149993896484375" lon="-0.8896885626018047332763671875">
        <ele>1084.4000244140625</ele>
        <time>2021-09-26T09:39:41.000Z</time>
      </trkpt>
      <trkpt lat="40.172138102352619171142578125" lon="-0.88952469639480113983154296875">
        <ele>1084</ele>
        <time>2021-09-26T09:39:43.000Z</time>
      </trkpt>
      <trkpt lat="40.17200541682541370391845703125" lon="-0.88935974054038524627685546875">
        <ele>1083.5999755859375</ele>
        <time>2021-09-26T09:39:45.000Z</time>
      </trkpt>
      <trkpt lat="40.1719381101429462432861328125" lon="-0.88927608914673328399658203125">
        <ele>1084</ele>
        <time>2021-09-26T09:39:46.000Z</time>
      </trkpt>
      <trkpt lat="40.1718720607459545135498046875" lon="-0.8891933597624301910400390625">
        <ele>1084</ele>
        <time>2021-09-26T09:39:47.000Z</time>
      </trkpt>
      <trkpt lat="40.1717406325042247772216796875" lon="-0.88903225958347320556640625">
        <ele>1084</ele>
        <time>2021-09-26T09:39:49.000Z</time>
      </trkpt>
      <trkpt lat="40.1716066896915435791015625" lon="-0.8888681419193744659423828125">
        <ele>1084</ele>
        <time>2021-09-26T09:39:51.000Z</time>
      </trkpt>
      <trkpt lat="40.17153888009488582611083984375" lon="-0.88878549635410308837890625">
        <ele>1084</ele>
        <time>2021-09-26T09:39:52.000Z</time>
      </trkpt>
      <trkpt lat="40.1714710704982280731201171875" lon="-0.8887021802365779876708984375">
        <ele>1084</ele>
        <time>2021-09-26T09:39:53.000Z</time>
      </trkpt>
      <trkpt lat="40.17133721150457859039306640625" lon="-0.88853764347732067108154296875">
        <ele>1083.4000244140625</ele>
        <time>2021-09-26T09:39:55.000Z</time>
      </trkpt>
      <trkpt lat="40.1712098903954029083251953125" lon="-0.8883705921471118927001953125">
        <ele>1083</ele>
        <time>2021-09-26T09:39:57.000Z</time>
      </trkpt>
      <trkpt lat="40.171080641448497772216796875" lon="-0.88820655830204486846923828125">
        <ele>1082.4000244140625</ele>
        <time>2021-09-26T09:39:59.000Z</time>
      </trkpt>
      <trkpt lat="40.170950554311275482177734375" lon="-0.8880447037518024444580078125">
        <ele>1082</ele>
        <time>2021-09-26T09:40:01.000Z</time>
      </trkpt>
      <trkpt lat="40.1708863489329814910888671875" lon="-0.8879665844142436981201171875">
        <ele>1081.800048828125</ele>
        <time>2021-09-26T09:40:02.000Z</time>
      </trkpt>
      <trkpt lat="40.1708208024501800537109375" lon="-0.887889973819255828857421875">
        <ele>1081.4000244140625</ele>
        <time>2021-09-26T09:40:03.000Z</time>
      </trkpt>
      <trkpt lat="40.170691050589084625244140625" lon="-0.88773080147802829742431640625">
        <ele>1080.4000244140625</ele>
        <time>2021-09-26T09:40:05.000Z</time>
      </trkpt>
      <trkpt lat="40.17056205309927463531494140625" lon="-0.88757104240357875823974609375">
        <ele>1079.800048828125</ele>
        <time>2021-09-26T09:40:07.000Z</time>
      </trkpt>
      <trkpt lat="40.17043280415236949920654296875" lon="-0.88740826584398746490478515625">
        <ele>1079.4000244140625</ele>
        <time>2021-09-26T09:40:09.000Z</time>
      </trkpt>
      <trkpt lat="40.1703029684722423553466796875" lon="-0.8872450701892375946044921875">
        <ele>1079.5999755859375</ele>
        <time>2021-09-26T09:40:11.000Z</time>
      </trkpt>
      <trkpt lat="40.17017145641148090362548828125" lon="-0.8870831318199634552001953125">
        <ele>1080</ele>
        <time>2021-09-26T09:40:13.000Z</time>
      </trkpt>
      <trkpt lat="40.17004036344587802886962890625" lon="-0.886918008327484130859375">
        <ele>1079</ele>
        <time>2021-09-26T09:40:15.000Z</time>
      </trkpt>
      <trkpt lat="40.169909857213497161865234375" lon="-0.88675648905336856842041015625">
        <ele>1077.800048828125</ele>
        <time>2021-09-26T09:40:17.000Z</time>
      </trkpt>
      <trkpt lat="40.1698429696261882781982421875" lon="-0.8866744302213191986083984375">
        <ele>1077</ele>
        <time>2021-09-26T09:40:18.000Z</time>
      </trkpt>
      <trkpt lat="40.1697789318859577178955078125" lon="-0.88659354485571384429931640625">
        <ele>1076.4000244140625</ele>
        <time>2021-09-26T09:40:19.000Z</time>
      </trkpt>
      <trkpt lat="40.16965127550065517425537109375" lon="-0.886428840458393096923828125">
        <ele>1075.5999755859375</ele>
        <time>2021-09-26T09:40:21.000Z</time>
      </trkpt>
      <trkpt lat="40.16952135600149631500244140625" lon="-0.88627000339329242706298828125">
        <ele>1075.5999755859375</ele>
        <time>2021-09-26T09:40:23.000Z</time>
      </trkpt>
      <trkpt lat="40.16939445398747920989990234375" lon="-0.8861101604998111724853515625">
        <ele>1075.199951171875</ele>
        <time>2021-09-26T09:40:25.000Z</time>
      </trkpt>
      <trkpt lat="40.16926939599215984344482421875" lon="-0.88595308363437652587890625">
        <ele>1074.5999755859375</ele>
        <time>2021-09-26T09:40:27.000Z</time>
      </trkpt>
      <trkpt lat="40.16914509236812591552734375" lon="-0.88579877279698848724365234375">
        <ele>1075</ele>
        <time>2021-09-26T09:40:29.000Z</time>
      </trkpt>
      <trkpt lat="40.1690264046192169189453125" lon="-0.885648988187313079833984375">
        <ele>1075.199951171875</ele>
        <time>2021-09-26T09:40:31.000Z</time>
      </trkpt>
      <trkpt lat="40.16891098581254482269287109375" lon="-0.88550406508147716522216796875">
        <ele>1075.5999755859375</ele>
        <time>2021-09-26T09:40:33.000Z</time>
      </trkpt>
      <trkpt lat="40.16885432414710521697998046875" lon="-0.88543265126645565032958984375">
        <ele>1075.800048828125</ele>
        <time>2021-09-26T09:40:34.000Z</time>
      </trkpt>
      <trkpt lat="40.16879933886229991912841796875" lon="-0.88535872288048267364501953125">
        <ele>1076</ele>
        <time>2021-09-26T09:40:35.000Z</time>
      </trkpt>
      <trkpt lat="40.16868643462657928466796875" lon="-0.88521572761237621307373046875">
        <ele>1075.4000244140625</ele>
        <time>2021-09-26T09:40:37.000Z</time>
      </trkpt>
      <trkpt lat="40.16857084818184375762939453125" lon="-0.8850781805813312530517578125">
        <ele>1075.800048828125</ele>
        <time>2021-09-26T09:40:39.000Z</time>
      </trkpt>
      <trkpt lat="40.16845987178385257720947265625" lon="-0.8849356882274150848388671875">
        <ele>1076.4000244140625</ele>
        <time>2021-09-26T09:40:41.000Z</time>
      </trkpt>
      <trkpt lat="40.1684032939374446868896484375" lon="-0.88486519642174243927001953125">
        <ele>1076.800048828125</ele>
        <time>2021-09-26T09:40:42.000Z</time>
      </trkpt>
      <trkpt lat="40.1683452911674976348876953125" lon="-0.88479378260672092437744140625">
        <ele>1077.4000244140625</ele>
        <time>2021-09-26T09:40:43.000Z</time>
      </trkpt>
      <trkpt lat="40.16823205165565013885498046875" lon="-0.88465414009988307952880859375">
        <ele>1078</ele>
        <time>2021-09-26T09:40:45.000Z</time>
      </trkpt>
      <trkpt lat="40.1681179739534854888916015625" lon="-0.88451617397367954254150390625">
        <ele>1077.800048828125</ele>
        <time>2021-09-26T09:40:47.000Z</time>
      </trkpt>
      <trkpt lat="40.16800523735582828521728515625" lon="-0.88437753729522228240966796875">
        <ele>1077.4000244140625</ele>
        <time>2021-09-26T09:40:49.000Z</time>
      </trkpt>
      <trkpt lat="40.16789174638688564300537109375" lon="-0.8842352963984012603759765625">
        <ele>1077</ele>
        <time>2021-09-26T09:40:51.000Z</time>
      </trkpt>
      <trkpt lat="40.1678343303501605987548828125" lon="-0.88416312821209430694580078125">
        <ele>1077</ele>
        <time>2021-09-26T09:40:52.000Z</time>
      </trkpt>
      <trkpt lat="40.16777909360826015472412109375" lon="-0.88409255258738994598388671875">
        <ele>1077</ele>
        <time>2021-09-26T09:40:53.000Z</time>
      </trkpt>
      <trkpt lat="40.1676665246486663818359375" lon="-0.883952490985393524169921875">
        <ele>1077.199951171875</ele>
        <time>2021-09-26T09:40:55.000Z</time>
      </trkpt>
      <trkpt lat="40.167552866041660308837890625" lon="-0.8838084898889064788818359375">
        <ele>1077.5999755859375</ele>
        <time>2021-09-26T09:40:57.000Z</time>
      </trkpt>
      <trkpt lat="40.16744331456720829010009765625" lon="-0.883668176829814910888671875">
        <ele>1077.4000244140625</ele>
        <time>2021-09-26T09:40:59.000Z</time>
      </trkpt>
      <trkpt lat="40.1673340983688831329345703125" lon="-0.88352970778942108154296875">
        <ele>1077.5999755859375</ele>
        <time>2021-09-26T09:41:01.000Z</time>
      </trkpt>
      <trkpt lat="40.1672258041799068450927734375" lon="-0.88339249603450298309326171875">
        <ele>1078</ele>
        <time>2021-09-26T09:41:03.000Z</time>
      </trkpt>
      <trkpt lat="40.16711960546672344207763671875" lon="-0.8832532726228237152099609375">
        <ele>1077.4000244140625</ele>
        <time>2021-09-26T09:41:05.000Z</time>
      </trkpt>
      <trkpt lat="40.16700879670679569244384765625" lon="-0.88311840780079364776611328125">
        <ele>1076.5999755859375</ele>
        <time>2021-09-26T09:41:07.000Z</time>
      </trkpt>
      <trkpt lat="40.1668965630233287811279296875" lon="-0.88298245333135128021240234375">
        <ele>1076.199951171875</ele>
        <time>2021-09-26T09:41:09.000Z</time>
      </trkpt>
      <trkpt lat="40.1667881011962890625" lon="-0.8828469179570674896240234375">
        <ele>1075.800048828125</ele>
        <time>2021-09-26T09:41:11.000Z</time>
      </trkpt>
      <trkpt lat="40.166680477559566497802734375" lon="-0.88271565735340118408203125">
        <ele>1075</ele>
        <time>2021-09-26T09:41:13.000Z</time>
      </trkpt>
      <trkpt lat="40.1665760390460491180419921875" lon="-0.88258330710232257843017578125">
        <ele>1075</ele>
        <time>2021-09-26T09:41:15.000Z</time>
      </trkpt>
      <trkpt lat="40.1664724387228488922119140625" lon="-0.88245171122252941131591796875">
        <ele>1074.4000244140625</ele>
        <time>2021-09-26T09:41:17.000Z</time>
      </trkpt>
      <trkpt lat="40.1664198003709316253662109375" lon="-0.882389433681964874267578125">
        <ele>1074.5999755859375</ele>
        <time>2021-09-26T09:41:18.000Z</time>
      </trkpt>
      <trkpt lat="40.16636841930449008941650390625" lon="-0.88232564739882946014404296875">
        <ele>1074.800048828125</ele>
        <time>2021-09-26T09:41:19.000Z</time>
      </trkpt>
      <trkpt lat="40.16626414842903614044189453125" lon="-0.88220335543155670166015625">
        <ele>1074.5999755859375</ele>
        <time>2021-09-26T09:41:21.000Z</time>
      </trkpt>
      <trkpt lat="40.16617094166576862335205078125" lon="-0.88208726607263088226318359375">
        <ele>1074.199951171875</ele>
        <time>2021-09-26T09:41:23.000Z</time>
      </trkpt>
      <trkpt lat="40.16607530415058135986328125" lon="-0.8819695003330707550048828125">
        <ele>1074</ele>
        <time>2021-09-26T09:41:25.000Z</time>
      </trkpt>
      <trkpt lat="40.1659799180924892425537109375" lon="-0.8818511478602886199951171875">
        <ele>1073.199951171875</ele>
        <time>2021-09-26T09:41:27.000Z</time>
      </trkpt>
      <trkpt lat="40.1658909022808074951171875" lon="-0.88174075819551944732666015625">
        <ele>1073.4000244140625</ele>
        <time>2021-09-26T09:41:29.000Z</time>
      </trkpt>
      <trkpt lat="40.165814794600009918212890625" lon="-0.88163330219686031341552734375">
        <ele>1073.4000244140625</ele>
        <time>2021-09-26T09:41:31.000Z</time>
      </trkpt>
      <trkpt lat="40.16573424451053142547607421875" lon="-0.88153322227299213409423828125">
        <ele>1073.199951171875</ele>
        <time>2021-09-26T09:41:33.000Z</time>
      </trkpt>
      <trkpt lat="40.1656513474881649017333984375" lon="-0.88143490254878997802734375">
        <ele>1073.800048828125</ele>
        <time>2021-09-26T09:41:35.000Z</time>
      </trkpt>
      <trkpt lat="40.16557314433157444000244140625" lon="-0.881333984434604644775390625">
        <ele>1074.5999755859375</ele>
        <time>2021-09-26T09:41:37.000Z</time>
      </trkpt>
      <trkpt lat="40.1655014790594577789306640625" lon="-0.88123633526265621185302734375">
        <ele>1074.800048828125</ele>
        <time>2021-09-26T09:41:39.000Z</time>
      </trkpt>
      <trkpt lat="40.16542830504477024078369140625" lon="-0.88115469552576541900634765625">
        <ele>1074.800048828125</ele>
        <time>2021-09-26T09:41:41.000Z</time>
      </trkpt>
      <trkpt lat="40.16535655595362186431884765625" lon="-0.881079174578189849853515625">
        <ele>1074.5999755859375</ele>
        <time>2021-09-26T09:41:43.000Z</time>
      </trkpt>
      <trkpt lat="40.16531783156096935272216796875" lon="-0.88105578906834125518798828125">
        <ele>1074.4000244140625</ele>
        <time>2021-09-26T09:41:44.000Z</time>
      </trkpt>
      <trkpt lat="40.165278017520904541015625" lon="-0.88104070164263248443603515625">
        <ele>1074.4000244140625</ele>
        <time>2021-09-26T09:41:45.000Z</time>
      </trkpt>
      <trkpt lat="40.16524407081305980682373046875" lon="-0.881036259233951568603515625">
        <ele>1074.4000244140625</ele>
        <time>2021-09-26T09:41:46.000Z</time>
      </trkpt>
      <trkpt lat="40.16521087847650051116943359375" lon="-0.88104958645999431610107421875">
        <ele>1074.4000244140625</ele>
        <time>2021-09-26T09:41:47.000Z</time>
      </trkpt>
      <trkpt lat="40.16515170224010944366455078125" lon="-0.88111312128603458404541015625">
        <ele>1074.5999755859375</ele>
        <time>2021-09-26T09:41:49.000Z</time>
      </trkpt>
      <trkpt lat="40.16509789042174816131591796875" lon="-0.88118570856750011444091796875">
        <ele>1074.800048828125</ele>
        <time>2021-09-26T09:41:51.000Z</time>
      </trkpt>
      <trkpt lat="40.165066458284854888916015625" lon="-0.88122644461691379547119140625">
        <ele>1075</ele>
        <time>2021-09-26T09:41:53.000Z</time>
      </trkpt>
      <trkpt lat="40.16504692845046520233154296875" lon="-0.881256870925426483154296875">
        <ele>1075</ele>
        <time>2021-09-26T09:41:55.000Z</time>
      </trkpt>
      <trkpt lat="40.16502513550221920013427734375" lon="-0.8812841959297657012939453125">
        <ele>1075</ele>
        <time>2021-09-26T09:41:57.000Z</time>
      </trkpt>
      <trkpt lat="40.16499680466949939727783203125" lon="-0.88131688535213470458984375">
        <ele>1075</ele>
        <time>2021-09-26T09:41:59.000Z</time>
      </trkpt>
      <trkpt lat="40.16495254822075366973876953125" lon="-0.88133222423493862152099609375">
        <ele>1075</ele>
        <time>2021-09-26T09:42:01.000Z</time>
      </trkpt>
      <trkpt lat="40.1648890972137451171875" lon="-0.881295092403888702392578125">
        <ele>1075</ele>
        <time>2021-09-26T09:42:03.000Z</time>
      </trkpt>
      <trkpt lat="40.16484425403177738189697265625" lon="-0.88122577406466007232666015625">
        <ele>1075</ele>
        <time>2021-09-26T09:42:05.000Z</time>
      </trkpt>
      <trkpt lat="40.16481935977935791015625" lon="-0.881186462938785552978515625">
        <ele>1074.800048828125</ele>
        <time>2021-09-26T09:42:06.000Z</time>
      </trkpt>
      <trkpt lat="40.16479329206049442291259765625" lon="-0.881144218146800994873046875">
        <ele>1074.800048828125</ele>
        <time>2021-09-26T09:42:07.000Z</time>
      </trkpt>
      <trkpt lat="40.16476462595164775848388671875" lon="-0.88110390119254589080810546875">
        <ele>1074.5999755859375</ele>
        <time>2021-09-26T09:42:08.000Z</time>
      </trkpt>
      <trkpt lat="40.16473830677568912506103515625" lon="-0.88106014765799045562744140625">
        <ele>1074.199951171875</ele>
        <time>2021-09-26T09:42:09.000Z</time>
      </trkpt>
      <trkpt lat="40.16468265093863010406494140625" lon="-0.880983285605907440185546875">
        <ele>1073.5999755859375</ele>
        <time>2021-09-26T09:42:11.000Z</time>
      </trkpt>
      <trkpt lat="40.16462582163512706756591796875" lon="-0.8809043280780315399169921875">
        <ele>1072.800048828125</ele>
        <time>2021-09-26T09:42:13.000Z</time>
      </trkpt>
      <trkpt lat="40.16456899233162403106689453125" lon="-0.88081841357052326202392578125">
        <ele>1073</ele>
        <time>2021-09-26T09:42:15.000Z</time>
      </trkpt>
      <trkpt lat="40.16450847499072551727294921875" lon="-0.8807319961488246917724609375">
        <ele>1073</ele>
        <time>2021-09-26T09:42:17.000Z</time>
      </trkpt>
      <trkpt lat="40.1644574292004108428955078125" lon="-0.88065915741026401519775390625">
        <ele>1072.5999755859375</ele>
        <time>2021-09-26T09:42:19.000Z</time>
      </trkpt>
      <trkpt lat="40.164414346218109130859375" lon="-0.88059847243130207061767578125">
        <ele>1072.800048828125</ele>
        <time>2021-09-26T09:42:21.000Z</time>
      </trkpt>
      <trkpt lat="40.1643675751984119415283203125" lon="-0.880546085536479949951171875">
        <ele>1073</ele>
        <time>2021-09-26T09:42:23.000Z</time>
      </trkpt>
      <trkpt lat="40.1643156073987483978271484375" lon="-0.88050417602062225341796875">
        <ele>1073.4000244140625</ele>
        <time>2021-09-26T09:42:25.000Z</time>
      </trkpt>
      <trkpt lat="40.164259783923625946044921875" lon="-0.88047333061695098876953125">
        <ele>1074</ele>
        <time>2021-09-26T09:42:27.000Z</time>
      </trkpt>
      <trkpt lat="40.16419867984950542449951171875" lon="-0.8804391324520111083984375">
        <ele>1074.199951171875</ele>
        <time>2021-09-26T09:42:29.000Z</time>
      </trkpt>
      <trkpt lat="40.16412877477705478668212890625" lon="-0.8803962171077728271484375">
        <ele>1074.5999755859375</ele>
        <time>2021-09-26T09:42:31.000Z</time>
      </trkpt>
      <trkpt lat="40.16408753581345081329345703125" lon="-0.8803766034543514251708984375">
        <ele>1074.800048828125</ele>
        <time>2021-09-26T09:42:32.000Z</time>
      </trkpt>
      <trkpt lat="40.16404177062213420867919921875" lon="-0.8803608454763889312744140625">
        <ele>1075</ele>
        <time>2021-09-26T09:42:33.000Z</time>
      </trkpt>
      <trkpt lat="40.16395099461078643798828125" lon="-0.8803296647965908050537109375">
        <ele>1075.199951171875</ele>
        <time>2021-09-26T09:42:35.000Z</time>
      </trkpt>
      <trkpt lat="40.1638633199036121368408203125" lon="-0.88029094040393829345703125">
        <ele>1075.4000244140625</ele>
        <time>2021-09-26T09:42:37.000Z</time>
      </trkpt>
      <trkpt lat="40.1637791655957698822021484375" lon="-0.88025380857288837432861328125">
        <ele>1075</ele>
        <time>2021-09-26T09:42:39.000Z</time>
      </trkpt>
      <trkpt lat="40.163690485060214996337890625" lon="-0.88021541945636272430419921875">
        <ele>1074.4000244140625</ele>
        <time>2021-09-26T09:42:41.000Z</time>
      </trkpt>
      <trkpt lat="40.16360700130462646484375" lon="-0.8801774494349956512451171875">
        <ele>1073.800048828125</ele>
        <time>2021-09-26T09:42:43.000Z</time>
      </trkpt>
      <trkpt lat="40.16352276317775249481201171875" lon="-0.88014249689877033233642578125">
        <ele>1073.199951171875</ele>
        <time>2021-09-26T09:42:45.000Z</time>
      </trkpt>
      <trkpt lat="40.16344062052667140960693359375" lon="-0.8801114000380039215087890625">
        <ele>1072.800048828125</ele>
        <time>2021-09-26T09:42:47.000Z</time>
      </trkpt>
      <trkpt lat="40.16335847787559032440185546875" lon="-0.880076698958873748779296875">
        <ele>1072.4000244140625</ele>
        <time>2021-09-26T09:42:49.000Z</time>
      </trkpt>
      <trkpt lat="40.16331665217876434326171875" lon="-0.88006169535219669342041015625">
        <ele>1072.199951171875</ele>
        <time>2021-09-26T09:42:50.000Z</time>
      </trkpt>
      <trkpt lat="40.16327482648193836212158203125" lon="-0.8800483681261539459228515625">
        <ele>1071.800048828125</ele>
        <time>2021-09-26T09:42:51.000Z</time>
      </trkpt>
      <trkpt lat="40.1632340066134929656982421875" lon="-0.8800326101481914520263671875">
        <ele>1071.4000244140625</ele>
        <time>2021-09-26T09:42:52.000Z</time>
      </trkpt>
      <trkpt lat="40.16319067217409610748291015625" lon="-0.88001894764602184295654296875">
        <ele>1071</ele>
        <time>2021-09-26T09:42:53.000Z</time>
      </trkpt>
      <trkpt lat="40.163105763494968414306640625" lon="-0.87998508475720882415771484375">
        <ele>1070.199951171875</ele>
        <time>2021-09-26T09:42:55.000Z</time>
      </trkpt>
      <trkpt lat="40.16302169300615787506103515625" lon="-0.879945941269397735595703125">
        <ele>1069.5999755859375</ele>
        <time>2021-09-26T09:42:57.000Z</time>
      </trkpt>
      <trkpt lat="40.16297944821417331695556640625" lon="-0.87992289103567600250244140625">
        <ele>1069.4000244140625</ele>
        <time>2021-09-26T09:42:58.000Z</time>
      </trkpt>
      <trkpt lat="40.1629346050322055816650390625" lon="-0.87990344502031803131103515625">
        <ele>1069.4000244140625</ele>
        <time>2021-09-26T09:42:59.000Z</time>
      </trkpt>
      <trkpt lat="40.1628450863063335418701171875" lon="-0.87986790575087070465087890625">
        <ele>1070</ele>
        <time>2021-09-26T09:43:01.000Z</time>
      </trkpt>
      <trkpt lat="40.16275648958981037139892578125" lon="-0.87982683442533016204833984375">
        <ele>1070.4000244140625</ele>
        <time>2021-09-26T09:43:03.000Z</time>
      </trkpt>
      <trkpt lat="40.16266889870166778564453125" lon="-0.8797828294336795806884765625">
        <ele>1071.4000244140625</ele>
        <time>2021-09-26T09:43:05.000Z</time>
      </trkpt>
      <trkpt lat="40.16259647905826568603515625" lon="-0.87973312474787235260009765625">
        <ele>1072.199951171875</ele>
        <time>2021-09-26T09:43:07.000Z</time>
      </trkpt>
      <trkpt lat="40.16256538219749927520751953125" lon="-0.8797037042677402496337890625">
        <ele>1072.800048828125</ele>
        <time>2021-09-26T09:43:09.000Z</time>
      </trkpt>
      <trkpt lat="40.1625450141727924346923828125" lon="-0.87969087995588779449462890625">
        <ele>1073</ele>
        <time>2021-09-26T09:43:11.000Z</time>
      </trkpt>
      <trkpt lat="40.1625435054302215576171875" lon="-0.87968702428042888641357421875">
        <ele>1073</ele>
        <time>2021-09-26T09:43:13.000Z</time>
      </trkpt>
      <trkpt lat="40.16248784959316253662109375" lon="-0.8796312846243381500244140625">
        <ele>1073.800048828125</ele>
        <time>2021-09-26T09:45:15.000Z</time>
      </trkpt>
      <trkpt lat="40.1624712534248828887939453125" lon="-0.87962332181632518768310546875">
        <ele>1074</ele>
        <time>2021-09-26T09:45:16.000Z</time>
      </trkpt>
      <trkpt lat="40.16244786791503429412841796875" lon="-0.87961410172283649444580078125">
        <ele>1074.4000244140625</ele>
        <time>2021-09-26T09:45:17.000Z</time>
      </trkpt>
      <trkpt lat="40.16239204443991184234619140625" lon="-0.879571437835693359375">
        <ele>1075</ele>
        <time>2021-09-26T09:45:19.000Z</time>
      </trkpt>
      <trkpt lat="40.16236245632171630859375" lon="-0.879540257155895233154296875">
        <ele>1075.4000244140625</ele>
        <time>2021-09-26T09:45:20.000Z</time>
      </trkpt>
      <trkpt lat="40.162327922880649566650390625" lon="-0.8795035444200038909912109375">
        <ele>1075.800048828125</ele>
        <time>2021-09-26T09:45:21.000Z</time>
      </trkpt>
      <trkpt lat="40.16229414381086826324462890625" lon="-0.8794601261615753173828125">
        <ele>1076.199951171875</ele>
        <time>2021-09-26T09:45:22.000Z</time>
      </trkpt>
      <trkpt lat="40.1622593589127063751220703125" lon="-0.8794143609702587127685546875">
        <ele>1076.5999755859375</ele>
        <time>2021-09-26T09:45:23.000Z</time>
      </trkpt>
      <trkpt lat="40.16222407110035419464111328125" lon="-0.87937102653086185455322265625">
        <ele>1076.4000244140625</ele>
        <time>2021-09-26T09:45:24.000Z</time>
      </trkpt>
      <trkpt lat="40.1621902920305728912353515625" lon="-0.87932559661567211151123046875">
        <ele>1076.199951171875</ele>
        <time>2021-09-26T09:45:25.000Z</time>
      </trkpt>
      <trkpt lat="40.1621259190142154693603515625" lon="-0.87922476232051849365234375">
        <ele>1076</ele>
        <time>2021-09-26T09:45:27.000Z</time>
      </trkpt>
      <trkpt lat="40.16206481494009494781494140625" lon="-0.87911956943571567535400390625">
        <ele>1076.4000244140625</ele>
        <time>2021-09-26T09:45:29.000Z</time>
      </trkpt>
      <trkpt lat="40.16200396232306957244873046875" lon="-0.87900440208613872528076171875">
        <ele>1076.4000244140625</ele>
        <time>2021-09-26T09:45:31.000Z</time>
      </trkpt>
      <trkpt lat="40.1619435288012027740478515625" lon="-0.87887817062437534332275390625">
        <ele>1076.199951171875</ele>
        <time>2021-09-26T09:45:33.000Z</time>
      </trkpt>
      <trkpt lat="40.1618888787925243377685546875" lon="-0.878746323287487030029296875">
        <ele>1076</ele>
        <time>2021-09-26T09:45:35.000Z</time>
      </trkpt>
      <trkpt lat="40.1618402637541294097900390625" lon="-0.87861196137964725494384765625">
        <ele>1075.5999755859375</ele>
        <time>2021-09-26T09:45:37.000Z</time>
      </trkpt>
      <trkpt lat="40.1618194766342639923095703125" lon="-0.87854255922138690948486328125">
        <ele>1075.4000244140625</ele>
        <time>2021-09-26T09:45:38.000Z</time>
      </trkpt>
      <trkpt lat="40.16180120408535003662109375" lon="-0.878474079072475433349609375">
        <ele>1075</ele>
        <time>2021-09-26T09:45:39.000Z</time>
      </trkpt>
      <trkpt lat="40.16176633536815643310546875" lon="-0.8783300779759883880615234375">
        <ele>1074</ele>
        <time>2021-09-26T09:45:41.000Z</time>
      </trkpt>
      <trkpt lat="40.16174093820154666900634765625" lon="-0.8781852386891841888427734375">
        <ele>1073</ele>
        <time>2021-09-26T09:45:43.000Z</time>
      </trkpt>
      <trkpt lat="40.16171813942492008209228515625" lon="-0.8780316822230815887451171875">
        <ele>1073</ele>
        <time>2021-09-26T09:45:45.000Z</time>
      </trkpt>
      <trkpt lat="40.1617093384265899658203125" lon="-0.87794995866715908050537109375">
        <ele>1072.800048828125</ele>
        <time>2021-09-26T09:45:46.000Z</time>
      </trkpt>
      <trkpt lat="40.1617028005421161651611328125" lon="-0.877861194312572479248046875">
        <ele>1072.4000244140625</ele>
        <time>2021-09-26T09:45:47.000Z</time>
      </trkpt>
      <trkpt lat="40.1617014594376087188720703125" lon="-0.87768249213695526123046875">
        <ele>1072.4000244140625</ele>
        <time>2021-09-26T09:45:49.000Z</time>
      </trkpt>
      <trkpt lat="40.1616994477808475494384765625" lon="-0.87759456597268581390380859375">
        <ele>1072.4000244140625</ele>
        <time>2021-09-26T09:45:50.000Z</time>
      </trkpt>
      <trkpt lat="40.16170020215213298797607421875" lon="-0.877502448856830596923828125">
        <ele>1072</ele>
        <time>2021-09-26T09:45:51.000Z</time>
      </trkpt>
      <trkpt lat="40.16170154325664043426513671875" lon="-0.87740966118872165679931640625">
        <ele>1071.800048828125</ele>
        <time>2021-09-26T09:45:52.000Z</time>
      </trkpt>
      <trkpt lat="40.161702968180179595947265625" lon="-0.87731712497770786285400390625">
        <ele>1071.4000244140625</ele>
        <time>2021-09-26T09:45:53.000Z</time>
      </trkpt>
      <trkpt lat="40.161702632904052734375" lon="-0.87722140364348888397216796875">
        <ele>1070.800048828125</ele>
        <time>2021-09-26T09:45:54.000Z</time>
      </trkpt>
      <trkpt lat="40.1617031358182430267333984375" lon="-0.8771227486431598663330078125">
        <ele>1070.199951171875</ele>
        <time>2021-09-26T09:45:55.000Z</time>
      </trkpt>
      <trkpt lat="40.16170389018952846527099609375" lon="-0.8769219182431697845458984375">
        <ele>1069</ele>
        <time>2021-09-26T09:45:57.000Z</time>
      </trkpt>
      <trkpt lat="40.1617058180272579193115234375" lon="-0.87672268040478229522705078125">
        <ele>1067.5999755859375</ele>
        <time>2021-09-26T09:45:59.000Z</time>
      </trkpt>
      <trkpt lat="40.16170992515981197357177734375" lon="-0.876517407596111297607421875">
        <ele>1066.5999755859375</ele>
        <time>2021-09-26T09:46:01.000Z</time>
      </trkpt>
      <trkpt lat="40.16171260736882686614990234375" lon="-0.876307189464569091796875">
        <ele>1065.4000244140625</ele>
        <time>2021-09-26T09:46:03.000Z</time>
      </trkpt>
      <trkpt lat="40.1617135293781757354736328125" lon="-0.876096300780773162841796875">
        <ele>1064.5999755859375</ele>
        <time>2021-09-26T09:46:05.000Z</time>
      </trkpt>
      <trkpt lat="40.16171311028301715850830078125" lon="-0.87588264606893062591552734375">
        <ele>1063.800048828125</ele>
        <time>2021-09-26T09:46:07.000Z</time>
      </trkpt>
      <trkpt lat="40.16171713359653949737548828125" lon="-0.87566547095775604248046875">
        <ele>1063.4000244140625</ele>
        <time>2021-09-26T09:46:09.000Z</time>
      </trkpt>
      <trkpt lat="40.16171914525330066680908203125" lon="-0.8754493854939937591552734375">
        <ele>1064</ele>
        <time>2021-09-26T09:46:11.000Z</time>
      </trkpt>
      <trkpt lat="40.16171964816749095916748046875" lon="-0.8752334676682949066162109375">
        <ele>1063.4000244140625</ele>
        <time>2021-09-26T09:46:13.000Z</time>
      </trkpt>
      <trkpt lat="40.161723084747791290283203125" lon="-0.8750210702419281005859375">
        <ele>1063.4000244140625</ele>
        <time>2021-09-26T09:46:15.000Z</time>
      </trkpt>
      <trkpt lat="40.16172585077583789825439453125" lon="-0.87480842135846614837646484375">
        <ele>1063.800048828125</ele>
        <time>2021-09-26T09:46:17.000Z</time>
      </trkpt>
      <trkpt lat="40.16172534786164760589599609375" lon="-0.87459401227533817291259765625">
        <ele>1063.5999755859375</ele>
        <time>2021-09-26T09:46:19.000Z</time>
      </trkpt>
      <trkpt lat="40.16172333620488643646240234375" lon="-0.87438044138252735137939453125">
        <ele>1063.800048828125</ele>
        <time>2021-09-26T09:46:21.000Z</time>
      </trkpt>
      <trkpt lat="40.16172283329069614410400390625" lon="-0.87416921742260456085205078125">
        <ele>1063.4000244140625</ele>
        <time>2021-09-26T09:46:23.000Z</time>
      </trkpt>
      <trkpt lat="40.16172434203326702117919921875" lon="-0.8739624358713626861572265625">
        <ele>1063.5999755859375</ele>
        <time>2021-09-26T09:46:25.000Z</time>
      </trkpt>
      <trkpt lat="40.16172476112842559814453125" lon="-0.87375347502529621124267578125">
        <ele>1063.5999755859375</ele>
        <time>2021-09-26T09:46:27.000Z</time>
      </trkpt>
      <trkpt lat="40.1617269404232501983642578125" lon="-0.87354158051311969757080078125">
        <ele>1064.800048828125</ele>
        <time>2021-09-26T09:46:29.000Z</time>
      </trkpt>
      <trkpt lat="40.1617286168038845062255859375" lon="-0.87333035655319690704345703125">
        <ele>1065.800048828125</ele>
        <time>2021-09-26T09:46:31.000Z</time>
      </trkpt>
      <trkpt lat="40.16173138283193111419677734375" lon="-0.8731167018413543701171875">
        <ele>1066.800048828125</ele>
        <time>2021-09-26T09:46:33.000Z</time>
      </trkpt>
      <trkpt lat="40.161729119718074798583984375" lon="-0.87290522642433643341064453125">
        <ele>1067.4000244140625</ele>
        <time>2021-09-26T09:46:35.000Z</time>
      </trkpt>
      <trkpt lat="40.1617329753935337066650390625" lon="-0.8726893924176692962646484375">
        <ele>1066.5999755859375</ele>
        <time>2021-09-26T09:46:37.000Z</time>
      </trkpt>
      <trkpt lat="40.16173272393643856048583984375" lon="-0.87247238494455814361572265625">
        <ele>1065.800048828125</ele>
        <time>2021-09-26T09:46:39.000Z</time>
      </trkpt>
      <trkpt lat="40.1617356576025485992431640625" lon="-0.87225546129047870635986328125">
        <ele>1065.199951171875</ele>
        <time>2021-09-26T09:46:41.000Z</time>
      </trkpt>
      <trkpt lat="40.16173641197383403778076171875" lon="-0.8720423094928264617919921875">
        <ele>1063.5999755859375</ele>
        <time>2021-09-26T09:46:43.000Z</time>
      </trkpt>
      <trkpt lat="40.161735825240612030029296875" lon="-0.87193678133189678192138671875">
        <ele>1062.800048828125</ele>
        <time>2021-09-26T09:46:44.000Z</time>
      </trkpt>
      <trkpt lat="40.16173674724996089935302734375" lon="-0.871832258999347686767578125">
        <ele>1062.199951171875</ele>
        <time>2021-09-26T09:46:45.000Z</time>
      </trkpt>
      <trkpt lat="40.1617443747818470001220703125" lon="-0.87163670919835567474365234375">
        <ele>1062</ele>
        <time>2021-09-26T09:46:47.000Z</time>
      </trkpt>
      <trkpt lat="40.1617468893527984619140625" lon="-0.87154702283442020416259765625">
        <ele>1061.5999755859375</ele>
        <time>2021-09-26T09:46:48.000Z</time>
      </trkpt>
      <trkpt lat="40.16174864955246448516845703125" lon="-0.8714549057185649871826171875">
        <ele>1061.5999755859375</ele>
        <time>2021-09-26T09:46:49.000Z</time>
      </trkpt>
      <trkpt lat="40.16175267286598682403564453125" lon="-0.87127259932458400726318359375">
        <ele>1062.199951171875</ele>
        <time>2021-09-26T09:46:51.000Z</time>
      </trkpt>
      <trkpt lat="40.161760635673999786376953125" lon="-0.8710867725312709808349609375">
        <ele>1062.199951171875</ele>
        <time>2021-09-26T09:46:53.000Z</time>
      </trkpt>
      <trkpt lat="40.16176390461623668670654296875" lon="-0.870904214680194854736328125">
        <ele>1062.4000244140625</ele>
        <time>2021-09-26T09:46:55.000Z</time>
      </trkpt>
      <trkpt lat="40.16176306642591953277587890625" lon="-0.8708148635923862457275390625">
        <ele>1062.199951171875</ele>
        <time>2021-09-26T09:46:56.000Z</time>
      </trkpt>
      <trkpt lat="40.16176206059753894805908203125" lon="-0.8707253448665142059326171875">
        <ele>1061.800048828125</ele>
        <time>2021-09-26T09:46:57.000Z</time>
      </trkpt>
      <trkpt lat="40.1617581211030483245849609375" lon="-0.870642699301242828369140625">
        <ele>1061.5999755859375</ele>
        <time>2021-09-26T09:46:58.000Z</time>
      </trkpt>
      <trkpt lat="40.16175351105630397796630859375" lon="-0.8705605566501617431640625">
        <ele>1061.800048828125</ele>
        <time>2021-09-26T09:46:59.000Z</time>
      </trkpt>
      <trkpt lat="40.16175367869436740875244140625" lon="-0.87039032019674777984619140625">
        <ele>1061.800048828125</ele>
        <time>2021-09-26T09:47:01.000Z</time>
      </trkpt>
      <trkpt lat="40.161755941808223724365234375" lon="-0.870207510888576507568359375">
        <ele>1061.800048828125</ele>
        <time>2021-09-26T09:47:03.000Z</time>
      </trkpt>
      <trkpt lat="40.1617557741701602935791015625" lon="-0.87002101354300975799560546875">
        <ele>1062</ele>
        <time>2021-09-26T09:47:05.000Z</time>
      </trkpt>
      <trkpt lat="40.16175367869436740875244140625" lon="-0.86983577348291873931884765625">
        <ele>1062</ele>
        <time>2021-09-26T09:47:07.000Z</time>
      </trkpt>
      <trkpt lat="40.16175200231373310089111328125" lon="-0.86964927613735198974609375">
        <ele>1062.199951171875</ele>
        <time>2021-09-26T09:47:09.000Z</time>
      </trkpt>
      <trkpt lat="40.16174730844795703887939453125" lon="-0.86946009658277034759521484375">
        <ele>1061.199951171875</ele>
        <time>2021-09-26T09:47:11.000Z</time>
      </trkpt>
      <trkpt lat="40.16174085438251495361328125" lon="-0.8692648820579051971435546875">
        <ele>1060.5999755859375</ele>
        <time>2021-09-26T09:47:13.000Z</time>
      </trkpt>
      <trkpt lat="40.16173205338418483734130859375" lon="-0.86907134391367435455322265625">
        <ele>1059.4000244140625</ele>
        <time>2021-09-26T09:47:15.000Z</time>
      </trkpt>
      <trkpt lat="40.161721073091030120849609375" lon="-0.86887822486460208892822265625">
        <ele>1058.5999755859375</ele>
        <time>2021-09-26T09:47:17.000Z</time>
      </trkpt>
      <trkpt lat="40.16170824877917766571044921875" lon="-0.8687814138829708099365234375">
        <ele>1058</ele>
        <time>2021-09-26T09:47:18.000Z</time>
      </trkpt>
      <trkpt lat="40.16169684939086437225341796875" lon="-0.8686811663210391998291015625">
        <ele>1057.800048828125</ele>
        <time>2021-09-26T09:47:19.000Z</time>
      </trkpt>
      <trkpt lat="40.16167673282325267791748046875" lon="-0.86848343722522258758544921875">
        <ele>1057.199951171875</ele>
        <time>2021-09-26T09:47:21.000Z</time>
      </trkpt>
      <trkpt lat="40.16165644861757755279541015625" lon="-0.86828109808266162872314453125">
        <ele>1056.5999755859375</ele>
        <time>2021-09-26T09:47:23.000Z</time>
      </trkpt>
      <trkpt lat="40.16163012944161891937255859375" lon="-0.86808010004460811614990234375">
        <ele>1056</ele>
        <time>2021-09-26T09:47:25.000Z</time>
      </trkpt>
      <trkpt lat="40.16161269508302211761474609375" lon="-0.86798069067299365997314453125">
        <ele>1055</ele>
        <time>2021-09-26T09:47:26.000Z</time>
      </trkpt>
      <trkpt lat="40.16159794293344020843505859375" lon="-0.8678795211017131805419921875">
        <ele>1054</ele>
        <time>2021-09-26T09:47:27.000Z</time>
      </trkpt>
      <trkpt lat="40.16156827099621295928955078125" lon="-0.86767994798719882965087890625">
        <ele>1053.4000244140625</ele>
        <time>2021-09-26T09:47:29.000Z</time>
      </trkpt>
      <trkpt lat="40.16153725795447826385498046875" lon="-0.86747744120657444000244140625">
        <ele>1052.5999755859375</ele>
        <time>2021-09-26T09:47:31.000Z</time>
      </trkpt>
      <trkpt lat="40.16150473617017269134521484375" lon="-0.86727661080658435821533203125">
        <ele>1052.5999755859375</ele>
        <time>2021-09-26T09:47:33.000Z</time>
      </trkpt>
      <trkpt lat="40.16147204674780368804931640625" lon="-0.8670822344720363616943359375">
        <ele>1053.5999755859375</ele>
        <time>2021-09-26T09:47:35.000Z</time>
      </trkpt>
      <trkpt lat="40.16143650747835636138916015625" lon="-0.86689288727939128875732421875">
        <ele>1054.5999755859375</ele>
        <time>2021-09-26T09:47:37.000Z</time>
      </trkpt>
      <trkpt lat="40.16139878891408443450927734375" lon="-0.86670513264834880828857421875">
        <ele>1055.4000244140625</ele>
        <time>2021-09-26T09:47:39.000Z</time>
      </trkpt>
      <trkpt lat="40.16136324964463710784912109375" lon="-0.86651134304702281951904296875">
        <ele>1055.800048828125</ele>
        <time>2021-09-26T09:47:41.000Z</time>
      </trkpt>
      <trkpt lat="40.16132603399455547332763671875" lon="-0.8663208223879337310791015625">
        <ele>1055.4000244140625</ele>
        <time>2021-09-26T09:47:43.000Z</time>
      </trkpt>
      <trkpt lat="40.1613065041601657867431640625" lon="-0.86622552014887332916259765625">
        <ele>1055</ele>
        <time>2021-09-26T09:47:44.000Z</time>
      </trkpt>
      <trkpt lat="40.16128898598253726959228515625" lon="-0.8661310561001300811767578125">
        <ele>1055</ele>
        <time>2021-09-26T09:47:45.000Z</time>
      </trkpt>
      <trkpt lat="40.1612555421888828277587890625" lon="-0.86594388820230960845947265625">
        <ele>1055</ele>
        <time>2021-09-26T09:47:47.000Z</time>
      </trkpt>
      <trkpt lat="40.16122343949973583221435546875" lon="-0.86575177498161792755126953125">
        <ele>1053.5999755859375</ele>
        <time>2021-09-26T09:47:49.000Z</time>
      </trkpt>
      <trkpt lat="40.16119234263896942138671875" lon="-0.8655577339231967926025390625">
        <ele>1053.800048828125</ele>
        <time>2021-09-26T09:47:51.000Z</time>
      </trkpt>
      <trkpt lat="40.1611559651792049407958984375" lon="-0.86536981165409088134765625">
        <ele>1054</ele>
        <time>2021-09-26T09:47:53.000Z</time>
      </trkpt>
      <trkpt lat="40.16112050972878932952880859375" lon="-0.86518666706979274749755859375">
        <ele>1054.800048828125</ele>
        <time>2021-09-26T09:47:55.000Z</time>
      </trkpt>
      <trkpt lat="40.16108773648738861083984375" lon="-0.86500645615160465240478515625">
        <ele>1056.4000244140625</ele>
        <time>2021-09-26T09:47:57.000Z</time>
      </trkpt>
      <trkpt lat="40.1610520295798778533935546875" lon="-0.8648358844220638275146484375">
        <ele>1057.4000244140625</ele>
        <time>2021-09-26T09:47:59.000Z</time>
      </trkpt>
      <trkpt lat="40.16100953333079814910888671875" lon="-0.8646752871572971343994140625">
        <ele>1058</ele>
        <time>2021-09-26T09:48:01.000Z</time>
      </trkpt>
      <trkpt lat="40.1609511114656925201416015625" lon="-0.86452080868184566497802734375">
        <ele>1058.199951171875</ele>
        <time>2021-09-26T09:48:03.000Z</time>
      </trkpt>
      <trkpt lat="40.160919092595577239990234375" lon="-0.86444235406816005706787109375">
        <ele>1058</ele>
        <time>2021-09-26T09:48:04.000Z</time>
      </trkpt>
      <trkpt lat="40.16088414005935192108154296875" lon="-0.86436255834996700286865234375">
        <ele>1058</ele>
        <time>2021-09-26T09:48:05.000Z</time>
      </trkpt>
      <trkpt lat="40.16080652363598346710205078125" lon="-0.86421101354062557220458984375">
        <ele>1058.5999755859375</ele>
        <time>2021-09-26T09:48:07.000Z</time>
      </trkpt>
      <trkpt lat="40.16072287224233150482177734375" lon="-0.8640630729496479034423828125">
        <ele>1058.4000244140625</ele>
        <time>2021-09-26T09:48:09.000Z</time>
      </trkpt>
      <trkpt lat="40.16067693941295146942138671875" lon="-0.8639945089817047119140625">
        <ele>1058</ele>
        <time>2021-09-26T09:48:10.000Z</time>
      </trkpt>
      <trkpt lat="40.16062832437455654144287109375" lon="-0.86392812430858612060546875">
        <ele>1057.800048828125</ele>
        <time>2021-09-26T09:48:11.000Z</time>
      </trkpt>
      <trkpt lat="40.16053025610744953155517578125" lon="-0.86380063556134700775146484375">
        <ele>1057.4000244140625</ele>
        <time>2021-09-26T09:48:13.000Z</time>
      </trkpt>
      <trkpt lat="40.16042145900428295135498046875" lon="-0.86368429474532604217529296875">
        <ele>1057</ele>
        <time>2021-09-26T09:48:15.000Z</time>
      </trkpt>
      <trkpt lat="40.16036094166338443756103515625" lon="-0.8636315725743770599365234375">
        <ele>1057</ele>
        <time>2021-09-26T09:48:16.000Z</time>
      </trkpt>
      <trkpt lat="40.160302855074405670166015625" lon="-0.8635749109089374542236328125">
        <ele>1057</ele>
        <time>2021-09-26T09:48:17.000Z</time>
      </trkpt>
      <trkpt lat="40.1601779647171497344970703125" lon="-0.86347223259508609771728515625">
        <ele>1057</ele>
        <time>2021-09-26T09:48:19.000Z</time>
      </trkpt>
      <trkpt lat="40.16004142351448535919189453125" lon="-0.86339495144784450531005859375">
        <ele>1056.4000244140625</ele>
        <time>2021-09-26T09:48:21.000Z</time>
      </trkpt>
      <trkpt lat="40.15990328975021839141845703125" lon="-0.86332873441278934478759765625">
        <ele>1056.4000244140625</ele>
        <time>2021-09-26T09:48:23.000Z</time>
      </trkpt>
      <trkpt lat="40.15976314432919025421142578125" lon="-0.8632842265069484710693359375">
        <ele>1056</ele>
        <time>2021-09-26T09:48:25.000Z</time>
      </trkpt>
      <trkpt lat="40.15962165780365467071533203125" lon="-0.8632359467446804046630859375">
        <ele>1055</ele>
        <time>2021-09-26T09:48:27.000Z</time>
      </trkpt>
      <trkpt lat="40.159553848206996917724609375" lon="-0.8632175065577030181884765625">
        <ele>1055.199951171875</ele>
        <time>2021-09-26T09:48:28.000Z</time>
      </trkpt>
      <trkpt lat="40.15948251821100711822509765625" lon="-0.8632086217403411865234375">
        <ele>1055.199951171875</ele>
        <time>2021-09-26T09:48:29.000Z</time>
      </trkpt>
      <trkpt lat="40.15934404917061328887939453125" lon="-0.86319898255169391632080078125">
        <ele>1055.199951171875</ele>
        <time>2021-09-26T09:48:31.000Z</time>
      </trkpt>
      <trkpt lat="40.15919812023639678955078125" lon="-0.8631980605423450469970703125">
        <ele>1054.800048828125</ele>
        <time>2021-09-26T09:48:33.000Z</time>
      </trkpt>
      <trkpt lat="40.1591236889362335205078125" lon="-0.86320350877940654754638671875">
        <ele>1054.5999755859375</ele>
        <time>2021-09-26T09:48:34.000Z</time>
      </trkpt>
      <trkpt lat="40.159049928188323974609375" lon="-0.863214991986751556396484375">
        <ele>1054.199951171875</ele>
        <time>2021-09-26T09:48:35.000Z</time>
      </trkpt>
      <trkpt lat="40.15897952020168304443359375" lon="-0.86322513408958911895751953125">
        <ele>1053.5999755859375</ele>
        <time>2021-09-26T09:48:36.000Z</time>
      </trkpt>
      <trkpt lat="40.15890835784375667572021484375" lon="-0.863236449658870697021484375">
        <ele>1053.199951171875</ele>
        <time>2021-09-26T09:48:37.000Z</time>
      </trkpt>
      <trkpt lat="40.158761255443096160888671875" lon="-0.86326687596738338470458984375">
        <ele>1052.199951171875</ele>
        <time>2021-09-26T09:48:39.000Z</time>
      </trkpt>
      <trkpt lat="40.15861700288951396942138671875" lon="-0.86330610327422618865966796875">
        <ele>1051.4000244140625</ele>
        <time>2021-09-26T09:48:41.000Z</time>
      </trkpt>
      <trkpt lat="40.1584693975746631622314453125" lon="-0.86334600113332271575927734375">
        <ele>1051.4000244140625</ele>
        <time>2021-09-26T09:48:43.000Z</time>
      </trkpt>
      <trkpt lat="40.15839437954127788543701171875" lon="-0.86336108855903148651123046875">
        <ele>1051.199951171875</ele>
        <time>2021-09-26T09:48:44.000Z</time>
      </trkpt>
      <trkpt lat="40.15831994824111461639404296875" lon="-0.8633776009082794189453125">
        <ele>1051.199951171875</ele>
        <time>2021-09-26T09:48:45.000Z</time>
      </trkpt>
      <trkpt lat="40.158170498907566070556640625" lon="-0.86340534500777721405029296875">
        <ele>1050.5999755859375</ele>
        <time>2021-09-26T09:48:47.000Z</time>
      </trkpt>
      <trkpt lat="40.158025659620761871337890625" lon="-0.863435268402099609375">
        <ele>1049.4000244140625</ele>
        <time>2021-09-26T09:48:49.000Z</time>
      </trkpt>
      <trkpt lat="40.157882161438465118408203125" lon="-0.8634669519960880279541015625">
        <ele>1048.4000244140625</ele>
        <time>2021-09-26T09:48:51.000Z</time>
      </trkpt>
      <trkpt lat="40.15781141817569732666015625" lon="-0.86348111741244792938232421875">
        <ele>1048</ele>
        <time>2021-09-26T09:48:52.000Z</time>
      </trkpt>
      <trkpt lat="40.15773992054164409637451171875" lon="-0.8634954504668712615966796875">
        <ele>1047.4000244140625</ele>
        <time>2021-09-26T09:48:53.000Z</time>
      </trkpt>
      <trkpt lat="40.15760262496769428253173828125" lon="-0.86352336220443248748779296875">
        <ele>1046.800048828125</ele>
        <time>2021-09-26T09:48:55.000Z</time>
      </trkpt>
      <trkpt lat="40.15747019089758396148681640625" lon="-0.86355261504650115966796875">
        <ele>1045.800048828125</ele>
        <time>2021-09-26T09:48:57.000Z</time>
      </trkpt>
      <trkpt lat="40.157336331903934478759765625" lon="-0.86358387954533100128173828125">
        <ele>1045.5999755859375</ele>
        <time>2021-09-26T09:48:59.000Z</time>
      </trkpt>
      <trkpt lat="40.15726952813565731048583984375" lon="-0.863601230084896087646484375">
        <ele>1045.5999755859375</ele>
        <time>2021-09-26T09:49:00.000Z</time>
      </trkpt>
      <trkpt lat="40.157202892005443572998046875" lon="-0.8636174909770488739013671875">
        <ele>1045.5999755859375</ele>
        <time>2021-09-26T09:49:01.000Z</time>
      </trkpt>
      <trkpt lat="40.15706735663115978240966796875" lon="-0.86364808492362499237060546875">
        <ele>1045.5999755859375</ele>
        <time>2021-09-26T09:49:03.000Z</time>
      </trkpt>
      <trkpt lat="40.15699577517807483673095703125" lon="-0.86366116069257259368896484375">
        <ele>1045.4000244140625</ele>
        <time>2021-09-26T09:49:04.000Z</time>
      </trkpt>
      <trkpt lat="40.15692654065787792205810546875" lon="-0.8636714704334735870361328125">
        <ele>1045.199951171875</ele>
        <time>2021-09-26T09:49:05.000Z</time>
      </trkpt>
      <trkpt lat="40.15685663558542728424072265625" lon="-0.86367943324148654937744140625">
        <ele>1044.800048828125</ele>
        <time>2021-09-26T09:49:06.000Z</time>
      </trkpt>
      <trkpt lat="40.15678874216973781585693359375" lon="-0.86368496529757976531982421875">
        <ele>1044.5999755859375</ele>
        <time>2021-09-26T09:49:07.000Z</time>
      </trkpt>
      <trkpt lat="40.1566505245864391326904296875" lon="-0.8636914193630218505859375">
        <ele>1044.199951171875</ele>
        <time>2021-09-26T09:49:09.000Z</time>
      </trkpt>
      <trkpt lat="40.1565174199640750885009765625" lon="-0.8636919222772121429443359375">
        <ele>1044</ele>
        <time>2021-09-26T09:49:11.000Z</time>
      </trkpt>
      <trkpt lat="40.15638473443686962127685546875" lon="-0.8636805228888988494873046875">
        <ele>1044.4000244140625</ele>
        <time>2021-09-26T09:49:13.000Z</time>
      </trkpt>
      <trkpt lat="40.15625364147126674652099609375" lon="-0.86365680210292339324951171875">
        <ele>1044.800048828125</ele>
        <time>2021-09-26T09:49:15.000Z</time>
      </trkpt>
      <trkpt lat="40.1561251468956470489501953125" lon="-0.86362277157604694366455078125">
        <ele>1045.800048828125</ele>
        <time>2021-09-26T09:49:17.000Z</time>
      </trkpt>
      <trkpt lat="40.15599480830132961273193359375" lon="-0.863583795726299285888671875">
        <ele>1047.4000244140625</ele>
        <time>2021-09-26T09:49:19.000Z</time>
      </trkpt>
      <trkpt lat="40.1558669842779636383056640625" lon="-0.86353660561144351959228515625">
        <ele>1048.800048828125</ele>
        <time>2021-09-26T09:49:21.000Z</time>
      </trkpt>
      <trkpt lat="40.15580671839416027069091796875" lon="-0.86350978352129459381103515625">
        <ele>1049.5999755859375</ele>
        <time>2021-09-26T09:49:22.000Z</time>
      </trkpt>
      <trkpt lat="40.1557466201484203338623046875" lon="-0.86348363198339939117431640625">
        <ele>1050.199951171875</ele>
        <time>2021-09-26T09:49:23.000Z</time>
      </trkpt>
      <trkpt lat="40.15562516637146472930908203125" lon="-0.86343149654567241668701171875">
        <ele>1050.4000244140625</ele>
        <time>2021-09-26T09:49:25.000Z</time>
      </trkpt>
      <trkpt lat="40.15556934289634227752685546875" lon="-0.8634017407894134521484375">
        <ele>1050.199951171875</ele>
        <time>2021-09-26T09:49:26.000Z</time>
      </trkpt>
      <trkpt lat="40.15551418997347354888916015625" lon="-0.86336846463382244110107421875">
        <ele>1049.800048828125</ele>
        <time>2021-09-26T09:49:27.000Z</time>
      </trkpt>
      <trkpt lat="40.15540757216513156890869140625" lon="-0.86329780519008636474609375">
        <ele>1049</ele>
        <time>2021-09-26T09:49:29.000Z</time>
      </trkpt>
      <trkpt lat="40.15529827214777469635009765625" lon="-0.863227732479572296142578125">
        <ele>1048.4000244140625</ele>
        <time>2021-09-26T09:49:31.000Z</time>
      </trkpt>
      <trkpt lat="40.1551870442926883697509765625" lon="-0.863151289522647857666015625">
        <ele>1048</ele>
        <time>2021-09-26T09:49:33.000Z</time>
      </trkpt>
      <trkpt lat="40.1550663448870182037353515625" lon="-0.86306847631931304931640625">
        <ele>1047.800048828125</ele>
        <time>2021-09-26T09:49:35.000Z</time>
      </trkpt>
      <trkpt lat="40.15494572930037975311279296875" lon="-0.86298532783985137939453125">
        <ele>1047.199951171875</ele>
        <time>2021-09-26T09:49:37.000Z</time>
      </trkpt>
      <trkpt lat="40.15482016839087009429931640625" lon="-0.8629067055881023406982421875">
        <ele>1046.199951171875</ele>
        <time>2021-09-26T09:49:39.000Z</time>
      </trkpt>
      <trkpt lat="40.1546928472816944122314453125" lon="-0.86282447911798954010009765625">
        <ele>1045.199951171875</ele>
        <time>2021-09-26T09:49:41.000Z</time>
      </trkpt>
      <trkpt lat="40.15456083230674266815185546875" lon="-0.86274216882884502410888671875">
        <ele>1044.5999755859375</ele>
        <time>2021-09-26T09:49:43.000Z</time>
      </trkpt>
      <trkpt lat="40.15443409793078899383544921875" lon="-0.86265809834003448486328125">
        <ele>1044.199951171875</ele>
        <time>2021-09-26T09:49:45.000Z</time>
      </trkpt>
      <trkpt lat="40.1543106324970722198486328125" lon="-0.8625731058418750762939453125">
        <ele>1044.199951171875</ele>
        <time>2021-09-26T09:49:47.000Z</time>
      </trkpt>
      <trkpt lat="40.1541892625391483306884765625" lon="-0.86249272339046001434326171875">
        <ele>1044.800048828125</ele>
        <time>2021-09-26T09:49:49.000Z</time>
      </trkpt>
      <trkpt lat="40.154074765741825103759765625" lon="-0.8624148555099964141845703125">
        <ele>1044.5999755859375</ele>
        <time>2021-09-26T09:49:51.000Z</time>
      </trkpt>
      <trkpt lat="40.15397124923765659332275390625" lon="-0.86233665235340595245361328125">
        <ele>1045.199951171875</ele>
        <time>2021-09-26T09:49:53.000Z</time>
      </trkpt>
      <trkpt lat="40.1538717560470104217529296875" lon="-0.8622519113123416900634765625">
        <ele>1045.5999755859375</ele>
        <time>2021-09-26T09:49:55.000Z</time>
      </trkpt>
      <trkpt lat="40.15377695672214031219482421875" lon="-0.86215786635875701904296875">
        <ele>1044.199951171875</ele>
        <time>2021-09-26T09:49:57.000Z</time>
      </trkpt>
      <trkpt lat="40.1536829955875873565673828125" lon="-0.8620520867407321929931640625">
        <ele>1042.5999755859375</ele>
        <time>2021-09-26T09:49:59.000Z</time>
      </trkpt>
      <trkpt lat="40.1535948179662227630615234375" lon="-0.86194991134107112884521484375">
        <ele>1041.5999755859375</ele>
        <time>2021-09-26T09:50:01.000Z</time>
      </trkpt>
      <trkpt lat="40.15350471250712871551513671875" lon="-0.8618351630866527557373046875">
        <ele>1040.199951171875</ele>
        <time>2021-09-26T09:50:03.000Z</time>
      </trkpt>
      <trkpt lat="40.15346162952482700347900390625" lon="-0.8617717958986759185791015625">
        <ele>1040</ele>
        <time>2021-09-26T09:50:04.000Z</time>
      </trkpt>
      <trkpt lat="40.1534208096563816070556640625" lon="-0.8617027290165424346923828125">
        <ele>1040.5999755859375</ele>
        <time>2021-09-26T09:50:05.000Z</time>
      </trkpt>
      <trkpt lat="40.1533463783562183380126953125" lon="-0.86156484670937061309814453125">
        <ele>1041.5999755859375</ele>
        <time>2021-09-26T09:50:07.000Z</time>
      </trkpt>
      <trkpt lat="40.1532786525785923004150390625" lon="-0.8614214323461055755615234375">
        <ele>1042.5999755859375</ele>
        <time>2021-09-26T09:50:09.000Z</time>
      </trkpt>
      <trkpt lat="40.1532468013465404510498046875" lon="-0.86134876124560832977294921875">
        <ele>1042.800048828125</ele>
        <time>2021-09-26T09:50:10.000Z</time>
      </trkpt>
      <trkpt lat="40.15321956016123294830322265625" lon="-0.8612759225070476531982421875">
        <ele>1043.199951171875</ele>
        <time>2021-09-26T09:50:11.000Z</time>
      </trkpt>
      <trkpt lat="40.1531733758747577667236328125" lon="-0.86111985146999359130859375">
        <ele>1042.800048828125</ele>
        <time>2021-09-26T09:50:13.000Z</time>
      </trkpt>
      <trkpt lat="40.1531338132917881011962890625" lon="-0.860959924757480621337890625">
        <ele>1042.4000244140625</ele>
        <time>2021-09-26T09:50:15.000Z</time>
      </trkpt>
      <trkpt lat="40.15311629511415958404541015625" lon="-0.86087987758219242095947265625">
        <ele>1042.199951171875</ele>
        <time>2021-09-26T09:50:16.000Z</time>
      </trkpt>
      <trkpt lat="40.153099782764911651611328125" lon="-0.86079798638820648193359375">
        <ele>1042</ele>
        <time>2021-09-26T09:50:17.000Z</time>
      </trkpt>
      <trkpt lat="40.1530868746340274810791015625" lon="-0.86071324534714221954345703125">
        <ele>1042</ele>
        <time>2021-09-26T09:50:18.000Z</time>
      </trkpt>
      <trkpt lat="40.15307472087442874908447265625" lon="-0.860629342496395111083984375">
        <ele>1042</ele>
        <time>2021-09-26T09:50:19.000Z</time>
      </trkpt>
      <trkpt lat="40.1530566997826099395751953125" lon="-0.86045709438621997833251953125">
        <ele>1042.4000244140625</ele>
        <time>2021-09-26T09:50:21.000Z</time>
      </trkpt>
      <trkpt lat="40.1530402712523937225341796875" lon="-0.860286019742488861083984375">
        <ele>1042.5999755859375</ele>
        <time>2021-09-26T09:50:23.000Z</time>
      </trkpt>
      <trkpt lat="40.15303247608244419097900390625" lon="-0.86011645384132862091064453125">
        <ele>1042.5999755859375</ele>
        <time>2021-09-26T09:50:25.000Z</time>
      </trkpt>
      <trkpt lat="40.153020322322845458984375" lon="-0.85995401255786418914794921875">
        <ele>1043.4000244140625</ele>
        <time>2021-09-26T09:50:27.000Z</time>
      </trkpt>
      <trkpt lat="40.1530154608190059661865234375" lon="-0.85987052880227565765380859375">
        <ele>1043.800048828125</ele>
        <time>2021-09-26T09:50:28.000Z</time>
      </trkpt>
      <trkpt lat="40.153012610971927642822265625" lon="-0.85978545248508453369140625">
        <ele>1044.4000244140625</ele>
        <time>2021-09-26T09:50:29.000Z</time>
      </trkpt>
      <trkpt lat="40.15300548635423183441162109375" lon="-0.859620831906795501708984375">
        <ele>1044.5999755859375</ele>
        <time>2021-09-26T09:50:31.000Z</time>
      </trkpt>
      <trkpt lat="40.15299710445106029510498046875" lon="-0.8594526909291744232177734375">
        <ele>1045</ele>
        <time>2021-09-26T09:50:33.000Z</time>
      </trkpt>
      <trkpt lat="40.15298872254788875579833984375" lon="-0.8592894114553928375244140625">
        <ele>1045.5999755859375</ele>
        <time>2021-09-26T09:50:35.000Z</time>
      </trkpt>
      <trkpt lat="40.152985118329524993896484375" lon="-0.8592082746326923370361328125">
        <ele>1045.800048828125</ele>
        <time>2021-09-26T09:50:36.000Z</time>
      </trkpt>
      <trkpt lat="40.15298344194889068603515625" lon="-0.85912839509546756744384765625">
        <ele>1045.800048828125</ele>
        <time>2021-09-26T09:50:37.000Z</time>
      </trkpt>
      <trkpt lat="40.152965001761913299560546875" lon="-0.85897215642035007476806640625">
        <ele>1046</ele>
        <time>2021-09-26T09:50:39.000Z</time>
      </trkpt>
      <trkpt lat="40.15293474309146404266357421875" lon="-0.85882295854389667510986328125">
        <ele>1046.199951171875</ele>
        <time>2021-09-26T09:50:41.000Z</time>
      </trkpt>
      <trkpt lat="40.1529185660183429718017578125" lon="-0.85866387002170085906982421875">
        <ele>1046</ele>
        <time>2021-09-26T09:50:43.000Z</time>
      </trkpt>
      <trkpt lat="40.152910687029361724853515625" lon="-0.85858373902738094329833984375">
        <ele>1045.800048828125</ele>
        <time>2021-09-26T09:50:44.000Z</time>
      </trkpt>
      <trkpt lat="40.152899287641048431396484375" lon="-0.85850612260401248931884765625">
        <ele>1045.4000244140625</ele>
        <time>2021-09-26T09:50:45.000Z</time>
      </trkpt>
      <trkpt lat="40.15288931317627429962158203125" lon="-0.85842951200902462005615234375">
        <ele>1045.199951171875</ele>
        <time>2021-09-26T09:50:46.000Z</time>
      </trkpt>
      <trkpt lat="40.1528776623308658599853515625" lon="-0.858353488147258758544921875">
        <ele>1045.199951171875</ele>
        <time>2021-09-26T09:50:47.000Z</time>
      </trkpt>
      <trkpt lat="40.15285260044038295745849609375" lon="-0.8582007698714733123779296875">
        <ele>1045.4000244140625</ele>
        <time>2021-09-26T09:50:49.000Z</time>
      </trkpt>
      <trkpt lat="40.15281840227544307708740234375" lon="-0.85804729722440242767333984375">
        <ele>1045.800048828125</ele>
        <time>2021-09-26T09:50:51.000Z</time>
      </trkpt>
      <trkpt lat="40.1527747325599193572998046875" lon="-0.85789055563509464263916015625">
        <ele>1046</ele>
        <time>2021-09-26T09:50:53.000Z</time>
      </trkpt>
      <trkpt lat="40.15275117941200733184814453125" lon="-0.857811011373996734619140625">
        <ele>1046</ele>
        <time>2021-09-26T09:50:54.000Z</time>
      </trkpt>
      <trkpt lat="40.1527210883796215057373046875" lon="-0.8577330596745014190673828125">
        <ele>1046</ele>
        <time>2021-09-26T09:50:55.000Z</time>
      </trkpt>
      <trkpt lat="40.15269384719431400299072265625" lon="-0.8576552756130695343017578125">
        <ele>1046</ele>
        <time>2021-09-26T09:50:56.000Z</time>
      </trkpt>
      <trkpt lat="40.15266786329448223114013671875" lon="-0.85757774300873279571533203125">
        <ele>1046</ele>
        <time>2021-09-26T09:50:57.000Z</time>
      </trkpt>
      <trkpt lat="40.15260365791618824005126953125" lon="-0.857424773275852203369140625">
        <ele>1046.199951171875</ele>
        <time>2021-09-26T09:50:59.000Z</time>
      </trkpt>
      <trkpt lat="40.1525402069091796875" lon="-0.8572720550000667572021484375">
        <ele>1045.4000244140625</ele>
        <time>2021-09-26T09:51:01.000Z</time>
      </trkpt>
      <trkpt lat="40.15250391326844692230224609375" lon="-0.85719737224280834197998046875">
        <ele>1045.199951171875</ele>
        <time>2021-09-26T09:51:02.000Z</time>
      </trkpt>
      <trkpt lat="40.15246368013322353363037109375" lon="-0.85712294094264507293701171875">
        <ele>1044.800048828125</ele>
        <time>2021-09-26T09:51:03.000Z</time>
      </trkpt>
      <trkpt lat="40.1523871533572673797607421875" lon="-0.8569739945232868194580078125">
        <ele>1043.5999755859375</ele>
        <time>2021-09-26T09:51:05.000Z</time>
      </trkpt>
      <trkpt lat="40.15234775841236114501953125" lon="-0.8569029159843921661376953125">
        <ele>1043.199951171875</ele>
        <time>2021-09-26T09:51:06.000Z</time>
      </trkpt>
      <trkpt lat="40.152306854724884033203125" lon="-0.85683175362646579742431640625">
        <ele>1042.800048828125</ele>
        <time>2021-09-26T09:51:07.000Z</time>
      </trkpt>
      <trkpt lat="40.152275674045085906982421875" lon="-0.85675396956503391265869140625">
        <ele>1042.5999755859375</ele>
        <time>2021-09-26T09:51:08.000Z</time>
      </trkpt>
      <trkpt lat="40.15224608592689037322998046875" lon="-0.85667735897004604339599609375">
        <ele>1042.4000244140625</ele>
        <time>2021-09-26T09:51:09.000Z</time>
      </trkpt>
      <trkpt lat="40.1521772705018520355224609375" lon="-0.8565270714461803436279296875">
        <ele>1041.5999755859375</ele>
        <time>2021-09-26T09:51:11.000Z</time>
      </trkpt>
      <trkpt lat="40.15210057608783245086669921875" lon="-0.85637661628425121307373046875">
        <ele>1040.5999755859375</ele>
        <time>2021-09-26T09:51:13.000Z</time>
      </trkpt>
      <trkpt lat="40.1520622707903385162353515625" lon="-0.856301598250865936279296875">
        <ele>1040.4000244140625</ele>
        <time>2021-09-26T09:51:14.000Z</time>
      </trkpt>
      <trkpt lat="40.15202480368316173553466796875" lon="-0.85622607730329036712646484375">
        <ele>1039.800048828125</ele>
        <time>2021-09-26T09:51:15.000Z</time>
      </trkpt>
      <trkpt lat="40.1519509591162204742431640625" lon="-0.85607805289328098297119140625">
        <ele>1039</ele>
        <time>2021-09-26T09:51:17.000Z</time>
      </trkpt>
      <trkpt lat="40.15191500075161457061767578125" lon="-0.85600412450730800628662109375">
        <ele>1039</ele>
        <time>2021-09-26T09:51:18.000Z</time>
      </trkpt>
      <trkpt lat="40.15187191776931285858154296875" lon="-0.85592885501682758331298828125">
        <ele>1039</ele>
        <time>2021-09-26T09:51:19.000Z</time>
      </trkpt>
      <trkpt lat="40.1517806388437747955322265625" lon="-0.8557760529220104217529296875">
        <ele>1038</ele>
        <time>2021-09-26T09:51:21.000Z</time>
      </trkpt>
      <trkpt lat="40.15173495747148990631103515625" lon="-0.85569567047059535980224609375">
        <ele>1037.5999755859375</ele>
        <time>2021-09-26T09:51:22.000Z</time>
      </trkpt>
      <trkpt lat="40.1516887731850147247314453125" lon="-0.8556121028959751129150390625">
        <ele>1037.199951171875</ele>
        <time>2021-09-26T09:51:23.000Z</time>
      </trkpt>
      <trkpt lat="40.15164367854595184326171875" lon="-0.8555309660732746124267578125">
        <ele>1036.4000244140625</ele>
        <time>2021-09-26T09:51:24.000Z</time>
      </trkpt>
      <trkpt lat="40.15159682370722293853759765625" lon="-0.85544697940349578857421875">
        <ele>1035.5999755859375</ele>
        <time>2021-09-26T09:51:25.000Z</time>
      </trkpt>
      <trkpt lat="40.15154988504946231842041015625" lon="-0.8553650043904781341552734375">
        <ele>1034.800048828125</ele>
        <time>2021-09-26T09:51:26.000Z</time>
      </trkpt>
      <trkpt lat="40.15150479041039943695068359375" lon="-0.85528043098747730255126953125">
        <ele>1034.4000244140625</ele>
        <time>2021-09-26T09:51:27.000Z</time>
      </trkpt>
      <trkpt lat="40.15145701356232166290283203125" lon="-0.8551950193941593170166015625">
        <ele>1034</ele>
        <time>2021-09-26T09:51:28.000Z</time>
      </trkpt>
      <trkpt lat="40.15136246569454669952392578125" lon="-0.8550213463604450225830078125">
        <ele>1033</ele>
        <time>2021-09-26T09:51:29.000Z</time>
      </trkpt>
      <trkpt lat="40.15136246569454669952392578125" lon="-0.8550213463604450225830078125">
        <ele>1033</ele>
        <time>2021-09-26T09:51:30.000Z</time>
      </trkpt>
      <trkpt lat="40.15131519176065921783447265625" lon="-0.85493342019617557525634765625">
        <ele>1033</ele>
        <time>2021-09-26T09:51:31.000Z</time>
      </trkpt>
      <trkpt lat="40.1512301154434680938720703125" lon="-0.85475974716246128082275390625">
        <ele>1033.4000244140625</ele>
        <time>2021-09-26T09:51:33.000Z</time>
      </trkpt>
      <trkpt lat="40.151115953922271728515625" lon="-0.85449756123125553131103515625">
        <ele>1034.4000244140625</ele>
        <time>2021-09-26T09:51:35.000Z</time>
      </trkpt>
      <trkpt lat="40.151088126003742218017578125" lon="-0.85440787486732006072998046875">
        <ele>1035</ele>
        <time>2021-09-26T09:51:37.000Z</time>
      </trkpt>
      <trkpt lat="40.15103816986083984375" lon="-0.854227580130100250244140625">
        <ele>1035.800048828125</ele>
        <time>2021-09-26T09:51:39.000Z</time>
      </trkpt>
      <trkpt lat="40.15097991563379764556884765625" lon="-0.8539508096873760223388671875">
        <ele>1037.5999755859375</ele>
        <time>2021-09-26T09:51:41.000Z</time>
      </trkpt>
      <trkpt lat="40.15095770359039306640625" lon="-0.85376397706568241119384765625">
        <ele>1038.5999755859375</ele>
        <time>2021-09-26T09:51:43.000Z</time>
      </trkpt>
      <trkpt lat="40.15094538219273090362548828125" lon="-0.8535826765000820159912109375">
        <ele>1038</ele>
        <time>2021-09-26T09:51:45.000Z</time>
      </trkpt>
      <trkpt lat="40.15094219706952571868896484375" lon="-0.85349106229841709136962890625">
        <ele>1037.800048828125</ele>
        <time>2021-09-26T09:51:47.000Z</time>
      </trkpt>
      <trkpt lat="40.15095761977136135101318359375" lon="-0.8532085083425045013427734375">
        <ele>1038.4000244140625</ele>
        <time>2021-09-26T09:51:49.000Z</time>
      </trkpt>
      <trkpt lat="40.150979496538639068603515625" lon="-0.85302452556788921356201171875">
        <ele>1038.199951171875</ele>
        <time>2021-09-26T09:51:51.000Z</time>
      </trkpt>
      <trkpt lat="40.15099282376468181610107421875" lon="-0.85293366573750972747802734375">
        <ele>1038.199951171875</ele>
        <time>2021-09-26T09:51:53.000Z</time>
      </trkpt>
      <trkpt lat="40.1510416902601718902587890625" lon="-0.8526693843305110931396484375">
        <ele>1037</ele>
        <time>2021-09-26T09:51:55.000Z</time>
      </trkpt>
      <trkpt lat="40.15107748098671436309814453125" lon="-0.85249193944036960601806640625">
        <ele>1036.5999755859375</ele>
        <time>2021-09-26T09:51:57.000Z</time>
      </trkpt>
      <trkpt lat="40.15111134387552738189697265625" lon="-0.85231524892151355743408203125">
        <ele>1037</ele>
        <time>2021-09-26T09:51:59.000Z</time>
      </trkpt>
      <trkpt lat="40.15114051289856433868408203125" lon="-0.85213981568813323974609375">
        <ele>1038</ele>
        <time>2021-09-26T09:52:01.000Z</time>
      </trkpt>
      <trkpt lat="40.15117186121642589569091796875" lon="-0.8519666455686092376708984375">
        <ele>1038.800048828125</ele>
        <time>2021-09-26T09:52:03.000Z</time>
      </trkpt>
      <trkpt lat="40.15118845738470554351806640625" lon="-0.85187855176627635955810546875">
        <ele>1039.199951171875</ele>
        <time>2021-09-26T09:52:04.000Z</time>
      </trkpt>
      <trkpt lat="40.15120337717235088348388671875" lon="-0.851789452135562896728515625">
        <ele>1039.5999755859375</ele>
        <time>2021-09-26T09:52:05.000Z</time>
      </trkpt>
      <trkpt lat="40.15122885815799236297607421875" lon="-0.85161519236862659454345703125">
        <ele>1038.4000244140625</ele>
        <time>2021-09-26T09:52:07.000Z</time>
      </trkpt>
      <trkpt lat="40.15125618316233158111572265625" lon="-0.85143498145043849945068359375">
        <ele>1037.199951171875</ele>
        <time>2021-09-26T09:52:09.000Z</time>
      </trkpt>
      <trkpt lat="40.15127093531191349029541015625" lon="-0.85134093649685382843017578125">
        <ele>1036.800048828125</ele>
        <time>2021-09-26T09:52:10.000Z</time>
      </trkpt>
      <trkpt lat="40.15129909850656986236572265625" lon="-0.85123783908784389495849609375">
        <ele>1036</ele>
        <time>2021-09-26T09:52:11.000Z</time>
      </trkpt>
      <trkpt lat="40.15134000219404697418212890625" lon="-0.85104723460972309112548828125">
        <ele>1034.4000244140625</ele>
        <time>2021-09-26T09:52:13.000Z</time>
      </trkpt>
      <trkpt lat="40.15138006769120693206787109375" lon="-0.8508619107306003570556640625">
        <ele>1033.199951171875</ele>
        <time>2021-09-26T09:52:15.000Z</time>
      </trkpt>
      <trkpt lat="40.1514185406267642974853515625" lon="-0.85068094544112682342529296875">
        <ele>1031.800048828125</ele>
        <time>2021-09-26T09:52:17.000Z</time>
      </trkpt>
      <trkpt lat="40.15143907628953456878662109375" lon="-0.85058975033462047576904296875">
        <ele>1031.199951171875</ele>
        <time>2021-09-26T09:52:18.000Z</time>
      </trkpt>
      <trkpt lat="40.1514601148664951324462890625" lon="-0.85049654357135295867919921875">
        <ele>1030.800048828125</ele>
        <time>2021-09-26T09:52:19.000Z</time>
      </trkpt>
      <trkpt lat="40.151495821774005889892578125" lon="-0.8503152430057525634765625">
        <ele>1030.199951171875</ele>
        <time>2021-09-26T09:52:21.000Z</time>
      </trkpt>
      <trkpt lat="40.15152691863477230072021484375" lon="-0.85012891329824924468994140625">
        <ele>1030.199951171875</ele>
        <time>2021-09-26T09:52:23.000Z</time>
      </trkpt>
      <trkpt lat="40.15154586173593997955322265625" lon="-0.85003436543047428131103515625">
        <ele>1030.800048828125</ele>
        <time>2021-09-26T09:52:24.000Z</time>
      </trkpt>
      <trkpt lat="40.15156514011323451995849609375" lon="-0.84993906319141387939453125">
        <ele>1031.199951171875</ele>
        <time>2021-09-26T09:52:25.000Z</time>
      </trkpt>
      <trkpt lat="40.15158391557633876800537109375" lon="-0.84984594024717807769775390625">
        <ele>1031.800048828125</ele>
        <time>2021-09-26T09:52:26.000Z</time>
      </trkpt>
      <trkpt lat="40.15160185284912586212158203125" lon="-0.84975340403616428375244140625">
        <ele>1031.5999755859375</ele>
        <time>2021-09-26T09:52:27.000Z</time>
      </trkpt>
      <trkpt lat="40.151633284986019134521484375" lon="-0.84956615231931209564208984375">
        <ele>1031.4000244140625</ele>
        <time>2021-09-26T09:52:29.000Z</time>
      </trkpt>
      <trkpt lat="40.15166790224611759185791015625" lon="-0.84937621839344501495361328125">
        <ele>1030.800048828125</ele>
        <time>2021-09-26T09:52:31.000Z</time>
      </trkpt>
      <trkpt lat="40.151687599718570709228515625" lon="-0.849281251430511474609375">
        <ele>1030.800048828125</ele>
        <time>2021-09-26T09:52:32.000Z</time>
      </trkpt>
      <trkpt lat="40.151687599718570709228515625" lon="-0.849281251430511474609375">
        <ele>1030.800048828125</ele>
        <time>2021-09-26T09:52:33.000Z</time>
      </trkpt>
      <trkpt lat="40.15174836851656436920166015625" lon="-0.8489991165697574615478515625">
        <ele>1029.4000244140625</ele>
        <time>2021-09-26T09:52:35.000Z</time>
      </trkpt>
      <trkpt lat="40.15178382396697998046875" lon="-0.84880859591066837310791015625">
        <ele>1029</ele>
        <time>2021-09-26T09:52:37.000Z</time>
      </trkpt>
      <trkpt lat="40.15181726776063442230224609375" lon="-0.84861966781318187713623046875">
        <ele>1028.4000244140625</ele>
        <time>2021-09-26T09:52:39.000Z</time>
      </trkpt>
      <trkpt lat="40.15184643678367137908935546875" lon="-0.84842897951602935791015625">
        <ele>1028</ele>
        <time>2021-09-26T09:52:41.000Z</time>
      </trkpt>
      <trkpt lat="40.15187560580670833587646484375" lon="-0.848232842981815338134765625">
        <ele>1027.4000244140625</ele>
        <time>2021-09-26T09:52:43.000Z</time>
      </trkpt>
      <trkpt lat="40.15189371071755886077880859375" lon="-0.84803176112473011016845703125">
        <ele>1026.800048828125</ele>
        <time>2021-09-26T09:52:45.000Z</time>
      </trkpt>
      <trkpt lat="40.1519073732197284698486328125" lon="-0.84782757796347141265869140625">
        <ele>1025.4000244140625</ele>
        <time>2021-09-26T09:52:47.000Z</time>
      </trkpt>
      <trkpt lat="40.15191030688583850860595703125" lon="-0.8477243967354297637939453125">
        <ele>1024.199951171875</ele>
        <time>2021-09-26T09:52:48.000Z</time>
      </trkpt>
      <trkpt lat="40.15190795995295047760009765625" lon="-0.8476234786212444305419921875">
        <ele>1023.20001220703125</ele>
        <time>2021-09-26T09:52:49.000Z</time>
      </trkpt>
      <trkpt lat="40.15190251171588897705078125" lon="-0.84742507897317409515380859375">
        <ele>1021.5999755859375</ele>
        <time>2021-09-26T09:52:51.000Z</time>
      </trkpt>
      <trkpt lat="40.15188147313892841339111328125" lon="-0.84722827188670635223388671875">
        <ele>1020.5999755859375</ele>
        <time>2021-09-26T09:52:53.000Z</time>
      </trkpt>
      <trkpt lat="40.15186839736998081207275390625" lon="-0.847129113972187042236328125">
        <ele>1020.79998779296875</ele>
        <time>2021-09-26T09:52:55.000Z</time>
      </trkpt>
      <trkpt lat="40.15182338654994964599609375" lon="-0.8468298800289630889892578125">
        <ele>1022.20001220703125</ele>
        <time>2021-09-26T09:52:57.000Z</time>
      </trkpt>
      <trkpt lat="40.15178290195763111114501953125" lon="-0.8466448076069355010986328125">
        <ele>1023.5999755859375</ele>
        <time>2021-09-26T09:52:59.000Z</time>
      </trkpt>
      <trkpt lat="40.15173546038568019866943359375" lon="-0.84647239185869693756103515625">
        <ele>1024.199951171875</ele>
        <time>2021-09-26T09:53:01.000Z</time>
      </trkpt>
      <trkpt lat="40.1516830734908580780029296875" lon="-0.84630760364234447479248046875">
        <ele>1024.199951171875</ele>
        <time>2021-09-26T09:53:03.000Z</time>
      </trkpt>
      <trkpt lat="40.15162548981606960296630859375" lon="-0.8461382053792476654052734375">
        <ele>1024</ele>
        <time>2021-09-26T09:53:05.000Z</time>
      </trkpt>
      <trkpt lat="40.151556842029094696044921875" lon="-0.84597400389611721038818359375">
        <ele>1023.5999755859375</ele>
        <time>2021-09-26T09:53:07.000Z</time>
      </trkpt>
      <trkpt lat="40.1514822430908679962158203125" lon="-0.84581826813519001007080078125">
        <ele>1024.5999755859375</ele>
        <time>2021-09-26T09:53:09.000Z</time>
      </trkpt>
      <trkpt lat="40.151443518698215484619140625" lon="-0.8457412384450435638427734375">
        <ele>1024.800048828125</ele>
        <time>2021-09-26T09:53:10.000Z</time>
      </trkpt>
      <trkpt lat="40.151443518698215484619140625" lon="-0.8457412384450435638427734375">
        <ele>1024.800048828125</ele>
        <time>2021-09-26T09:53:11.000Z</time>
      </trkpt>
      <trkpt lat="40.15132575295865535736083984375" lon="-0.8455162681639194488525390625">
        <ele>1024.199951171875</ele>
        <time>2021-09-26T09:53:13.000Z</time>
      </trkpt>
      <trkpt lat="40.1512529142200946807861328125" lon="-0.84536346606910228729248046875">
        <ele>1024</ele>
        <time>2021-09-26T09:53:15.000Z</time>
      </trkpt>
      <trkpt lat="40.15117563307285308837890625" lon="-0.84521192125976085662841796875">
        <ele>1023.20001220703125</ele>
        <time>2021-09-26T09:53:17.000Z</time>
      </trkpt>
      <trkpt lat="40.15110053122043609619140625" lon="-0.84505886770784854888916015625">
        <ele>1023.20001220703125</ele>
        <time>2021-09-26T09:53:19.000Z</time>
      </trkpt>
      <trkpt lat="40.1510282792150974273681640625" lon="-0.8449040539562702178955078125">
        <ele>1023.79998779296875</ele>
        <time>2021-09-26T09:53:21.000Z</time>
      </trkpt>
      <trkpt lat="40.150949321687221527099609375" lon="-0.84475728683173656463623046875">
        <ele>1023.79998779296875</ele>
        <time>2021-09-26T09:53:23.000Z</time>
      </trkpt>
      <trkpt lat="40.15087564475834369659423828125" lon="-0.84461244754493236541748046875">
        <ele>1023.20001220703125</ele>
        <time>2021-09-26T09:53:25.000Z</time>
      </trkpt>
      <trkpt lat="40.1507942564785480499267578125" lon="-0.84446693770587444305419921875">
        <ele>1023.20001220703125</ele>
        <time>2021-09-26T09:53:27.000Z</time>
      </trkpt>
      <trkpt lat="40.15071521513164043426513671875" lon="-0.844314135611057281494140625">
        <ele>1023.20001220703125</ele>
        <time>2021-09-26T09:53:29.000Z</time>
      </trkpt>
      <trkpt lat="40.15067682601511478424072265625" lon="-0.84423643536865711212158203125">
        <ele>1023.20001220703125</ele>
        <time>2021-09-26T09:53:30.000Z</time>
      </trkpt>
      <trkpt lat="40.150635503232479095458984375" lon="-0.844159238040447235107421875">
        <ele>1023</ele>
        <time>2021-09-26T09:53:31.000Z</time>
      </trkpt>
      <trkpt lat="40.15055210329592227935791015625" lon="-0.84400442428886890411376953125">
        <ele>1023</ele>
        <time>2021-09-26T09:53:33.000Z</time>
      </trkpt>
      <trkpt lat="40.150471888482570648193359375" lon="-0.84384785033762454986572265625">
        <ele>1022.4000244140625</ele>
        <time>2021-09-26T09:53:35.000Z</time>
      </trkpt>
      <trkpt lat="40.1503956131637096405029296875" lon="-0.84369395859539508819580078125">
        <ele>1021.79998779296875</ele>
        <time>2021-09-26T09:53:37.000Z</time>
      </trkpt>
      <trkpt lat="40.15032000839710235595703125" lon="-0.84354325197637081146240234375">
        <ele>1021.4000244140625</ele>
        <time>2021-09-26T09:53:39.000Z</time>
      </trkpt>
      <trkpt lat="40.150243230164051055908203125" lon="-0.8433976583182811737060546875">
        <ele>1022</ele>
        <time>2021-09-26T09:53:41.000Z</time>
      </trkpt>
      <trkpt lat="40.1501691341400146484375" lon="-0.84325910545885562896728515625">
        <ele>1022.5999755859375</ele>
        <time>2021-09-26T09:53:43.000Z</time>
      </trkpt>
      <trkpt lat="40.1501263864338397979736328125" lon="-0.8431894518435001373291015625">
        <ele>1022.79998779296875</ele>
        <time>2021-09-26T09:53:44.000Z</time>
      </trkpt>
      <trkpt lat="40.15008053742349147796630859375" lon="-0.8431193791329860687255859375">
        <ele>1023</ele>
        <time>2021-09-26T09:53:45.000Z</time>
      </trkpt>
      <trkpt lat="40.1499822176992893218994140625" lon="-0.84298602305352687835693359375">
        <ele>1023.20001220703125</ele>
        <time>2021-09-26T09:53:47.000Z</time>
      </trkpt>
      <trkpt lat="40.14988054521381855010986328125" lon="-0.84286272525787353515625">
        <ele>1023.20001220703125</ele>
        <time>2021-09-26T09:53:49.000Z</time>
      </trkpt>
      <trkpt lat="40.149824805557727813720703125" lon="-0.8428058959543704986572265625">
        <ele>1023.20001220703125</ele>
        <time>2021-09-26T09:53:50.000Z</time>
      </trkpt>
      <trkpt lat="40.14976537786424160003662109375" lon="-0.842747390270233154296875">
        <ele>1023.20001220703125</ele>
        <time>2021-09-26T09:53:51.000Z</time>
      </trkpt>
      <trkpt lat="40.1497005857527256011962890625" lon="-0.84269575774669647216796875">
        <ele>1023</ele>
        <time>2021-09-26T09:53:52.000Z</time>
      </trkpt>
      <trkpt lat="40.1496348716318607330322265625" lon="-0.8426468074321746826171875">
        <ele>1022.79998779296875</ele>
        <time>2021-09-26T09:53:53.000Z</time>
      </trkpt>
      <trkpt lat="40.14950587414205074310302734375" lon="-0.8425484038889408111572265625">
        <ele>1023</ele>
        <time>2021-09-26T09:53:55.000Z</time>
      </trkpt>
      <trkpt lat="40.14936908148229122161865234375" lon="-0.842478834092617034912109375">
        <ele>1023.20001220703125</ele>
        <time>2021-09-26T09:53:57.000Z</time>
      </trkpt>
      <trkpt lat="40.1492405869066715240478515625" lon="-0.84242695011198520660400390625">
        <ele>1023</ele>
        <time>2021-09-26T09:53:59.000Z</time>
      </trkpt>
      <trkpt lat="40.149177052080631256103515625" lon="-0.84240532480180263519287109375">
        <ele>1022.79998779296875</ele>
        <time>2021-09-26T09:54:00.000Z</time>
      </trkpt>
      <trkpt lat="40.14911175705492496490478515625" lon="-0.84238755516707897186279296875">
        <ele>1022.79998779296875</ele>
        <time>2021-09-26T09:54:01.000Z</time>
      </trkpt>
      <trkpt lat="40.1489804126322269439697265625" lon="-0.84235721267759799957275390625">
        <ele>1022.5999755859375</ele>
        <time>2021-09-26T09:54:03.000Z</time>
      </trkpt>
      <trkpt lat="40.14885091222822666168212890625" lon="-0.8423318155109882354736328125">
        <ele>1022.20001220703125</ele>
        <time>2021-09-26T09:54:05.000Z</time>
      </trkpt>
      <trkpt lat="40.148787461221218109130859375" lon="-0.8423195779323577880859375">
        <ele>1022</ele>
        <time>2021-09-26T09:54:06.000Z</time>
      </trkpt>
      <trkpt lat="40.14872048981487751007080078125" lon="-0.84230926819145679473876953125">
        <ele>1022.4000244140625</ele>
        <time>2021-09-26T09:54:07.000Z</time>
      </trkpt>
      <trkpt lat="40.14859308488667011260986328125" lon="-0.8422862179577350616455078125">
        <ele>1023</ele>
        <time>2021-09-26T09:54:09.000Z</time>
      </trkpt>
      <trkpt lat="40.14845998026430606842041015625" lon="-0.8422577194869518280029296875">
        <ele>1023.20001220703125</ele>
        <time>2021-09-26T09:54:11.000Z</time>
      </trkpt>
      <trkpt lat="40.14838747680187225341796875" lon="-0.8422456495463848114013671875">
        <ele>1023</ele>
        <time>2021-09-26T09:54:12.000Z</time>
      </trkpt>
      <trkpt lat="40.14831505715847015380859375" lon="-0.84223416633903980255126953125">
        <ele>1022.79998779296875</ele>
        <time>2021-09-26T09:54:13.000Z</time>
      </trkpt>
      <trkpt lat="40.1481737382709980010986328125" lon="-0.84220734424889087677001953125">
        <ele>1022.79998779296875</ele>
        <time>2021-09-26T09:54:15.000Z</time>
      </trkpt>
      <trkpt lat="40.1480205170810222625732421875" lon="-0.8421792648732662200927734375">
        <ele>1021.79998779296875</ele>
        <time>2021-09-26T09:54:17.000Z</time>
      </trkpt>
      <trkpt lat="40.147868134081363677978515625" lon="-0.84214665926992893218994140625">
        <ele>1021.4000244140625</ele>
        <time>2021-09-26T09:54:19.000Z</time>
      </trkpt>
      <trkpt lat="40.1477066986262798309326171875" lon="-0.84210298955440521240234375">
        <ele>1021.20001220703125</ele>
        <time>2021-09-26T09:54:21.000Z</time>
      </trkpt>
      <trkpt lat="40.14762665145099163055419921875" lon="-0.8420759998261928558349609375">
        <ele>1020.79998779296875</ele>
        <time>2021-09-26T09:54:22.000Z</time>
      </trkpt>
      <trkpt lat="40.14754786156117916107177734375" lon="-0.84204222075641155242919921875">
        <ele>1020</ele>
        <time>2021-09-26T09:54:23.000Z</time>
      </trkpt>
      <trkpt lat="40.14738407917320728302001953125" lon="-0.841965861618518829345703125">
        <ele>1018.4000244140625</ele>
        <time>2021-09-26T09:54:25.000Z</time>
      </trkpt>
      <trkpt lat="40.14723144471645355224609375" lon="-0.841871984302997589111328125">
        <ele>1016.79998779296875</ele>
        <time>2021-09-26T09:54:27.000Z</time>
      </trkpt>
      <trkpt lat="40.1470864377915859222412109375" lon="-0.84174851886928081512451171875">
        <ele>1015.79998779296875</ele>
        <time>2021-09-26T09:54:29.000Z</time>
      </trkpt>
      <trkpt lat="40.14701795764267444610595703125" lon="-0.84167744033038616180419921875">
        <ele>1015.4000244140625</ele>
        <time>2021-09-26T09:54:30.000Z</time>
      </trkpt>
      <trkpt lat="40.1469519920647144317626953125" lon="-0.84160518832504749298095703125">
        <ele>1014.79998779296875</ele>
        <time>2021-09-26T09:54:31.000Z</time>
      </trkpt>
      <trkpt lat="40.146824754774570465087890625" lon="-0.841451548039913177490234375">
        <ele>1014.20001220703125</ele>
        <time>2021-09-26T09:54:33.000Z</time>
      </trkpt>
      <trkpt lat="40.14670514501631259918212890625" lon="-0.84128567017614841461181640625">
        <ele>1015</ele>
        <time>2021-09-26T09:54:35.000Z</time>
      </trkpt>
      <trkpt lat="40.1466515846550464630126953125" lon="-0.8412002585828304290771484375">
        <ele>1015</ele>
        <time>2021-09-26T09:54:36.000Z</time>
      </trkpt>
      <trkpt lat="40.146604813635349273681640625" lon="-0.84111333824694156646728515625">
        <ele>1014.79998779296875</ele>
        <time>2021-09-26T09:54:37.000Z</time>
      </trkpt>
      <trkpt lat="40.1465213298797607421875" lon="-0.84093128331005573272705078125">
        <ele>1015.20001220703125</ele>
        <time>2021-09-26T09:54:39.000Z</time>
      </trkpt>
      <trkpt lat="40.14645167626440525054931640625" lon="-0.84073933772742748260498046875">
        <ele>1015.4000244140625</ele>
        <time>2021-09-26T09:54:41.000Z</time>
      </trkpt>
      <trkpt lat="40.14639467932283878326416015625" lon="-0.8405347354710102081298828125">
        <ele>1015.20001220703125</ele>
        <time>2021-09-26T09:54:43.000Z</time>
      </trkpt>
      <trkpt lat="40.1463481597602367401123046875" lon="-0.84032778628170490264892578125">
        <ele>1014.79998779296875</ele>
        <time>2021-09-26T09:54:45.000Z</time>
      </trkpt>
      <trkpt lat="40.1463290490210056304931640625" lon="-0.840222425758838653564453125">
        <ele>1014.79998779296875</ele>
        <time>2021-09-26T09:54:46.000Z</time>
      </trkpt>
      <trkpt lat="40.14631421305239200592041015625" lon="-0.84011547267436981201171875">
        <ele>1015</ele>
        <time>2021-09-26T09:54:47.000Z</time>
      </trkpt>
      <trkpt lat="40.1462946832180023193359375" lon="-0.839899219572544097900390625">
        <ele>1014.20001220703125</ele>
        <time>2021-09-26T09:54:49.000Z</time>
      </trkpt>
      <trkpt lat="40.146296359598636627197265625" lon="-0.839673578739166259765625">
        <ele>1014</ele>
        <time>2021-09-26T09:54:51.000Z</time>
      </trkpt>
      <trkpt lat="40.1463000476360321044921875" lon="-0.83945187740027904510498046875">
        <ele>1014</ele>
        <time>2021-09-26T09:54:53.000Z</time>
      </trkpt>
      <trkpt lat="40.1463049091398715972900390625" lon="-0.83923327736556529998779296875">
        <ele>1014</ele>
        <time>2021-09-26T09:54:55.000Z</time>
      </trkpt>
      <trkpt lat="40.14631144702434539794921875" lon="-0.839019119739532470703125">
        <ele>1014.79998779296875</ele>
        <time>2021-09-26T09:54:57.000Z</time>
      </trkpt>
      <trkpt lat="40.14631454832851886749267578125" lon="-0.8389156870543956756591796875">
        <ele>1014.5999755859375</ele>
        <time>2021-09-26T09:54:58.000Z</time>
      </trkpt>
      <trkpt lat="40.14631840400397777557373046875" lon="-0.8388130925595760345458984375">
        <ele>1014.20001220703125</ele>
        <time>2021-09-26T09:54:59.000Z</time>
      </trkpt>
      <trkpt lat="40.1463210023939609527587890625" lon="-0.8387135155498981475830078125">
        <ele>1014</ele>
        <time>2021-09-26T09:55:00.000Z</time>
      </trkpt>
      <trkpt lat="40.14632075093686580657958984375" lon="-0.83861670456826686859130859375">
        <ele>1013.79998779296875</ele>
        <time>2021-09-26T09:55:01.000Z</time>
      </trkpt>
      <trkpt lat="40.1463230140507221221923828125" lon="-0.8384255133569240570068359375">
        <ele>1013.79998779296875</ele>
        <time>2021-09-26T09:55:03.000Z</time>
      </trkpt>
      <trkpt lat="40.14632930047810077667236328125" lon="-0.83823390305042266845703125">
        <ele>1013.79998779296875</ele>
        <time>2021-09-26T09:55:05.000Z</time>
      </trkpt>
      <trkpt lat="40.1463344134390354156494140625" lon="-0.83804606460034847259521484375">
        <ele>1013.5999755859375</ele>
        <time>2021-09-26T09:55:07.000Z</time>
      </trkpt>
      <trkpt lat="40.1463367603719234466552734375" lon="-0.8378619141876697540283203125">
        <ele>1013.5999755859375</ele>
        <time>2021-09-26T09:55:09.000Z</time>
      </trkpt>
      <trkpt lat="40.14633935876190662384033203125" lon="-0.83767340518534183502197265625">
        <ele>1012</ele>
        <time>2021-09-26T09:55:11.000Z</time>
      </trkpt>
      <trkpt lat="40.14634187333285808563232421875" lon="-0.8374766819179058074951171875">
        <ele>1010.5999755859375</ele>
        <time>2021-09-26T09:55:13.000Z</time>
      </trkpt>
      <trkpt lat="40.14634455554187297821044921875" lon="-0.8372765220701694488525390625">
        <ele>1009.79998779296875</ele>
        <time>2021-09-26T09:55:15.000Z</time>
      </trkpt>
      <trkpt lat="40.14634757302701473236083984375" lon="-0.8371752686798572540283203125">
        <ele>1009.4000244140625</ele>
        <time>2021-09-26T09:55:16.000Z</time>
      </trkpt>
      <trkpt lat="40.14634757302701473236083984375" lon="-0.8371752686798572540283203125">
        <ele>1009.4000244140625</ele>
        <time>2021-09-26T09:55:17.000Z</time>
      </trkpt>
      <trkpt lat="40.14635570347309112548828125" lon="-0.83687544800341129302978515625">
        <ele>1008.79998779296875</ele>
        <time>2021-09-26T09:55:19.000Z</time>
      </trkpt>
      <trkpt lat="40.14635461382567882537841796875" lon="-0.83677989430725574493408203125">
        <ele>1008.79998779296875</ele>
        <time>2021-09-26T09:55:20.000Z</time>
      </trkpt>
      <trkpt lat="40.14635503292083740234375" lon="-0.836686603724956512451171875">
        <ele>1008.79998779296875</ele>
        <time>2021-09-26T09:55:21.000Z</time>
      </trkpt>
      <trkpt lat="40.14635930769145488739013671875" lon="-0.8364943228662014007568359375">
        <ele>1008</ele>
        <time>2021-09-26T09:55:23.000Z</time>
      </trkpt>
      <trkpt lat="40.146363079547882080078125" lon="-0.83630405366420745849609375">
        <ele>1008</ele>
        <time>2021-09-26T09:55:25.000Z</time>
      </trkpt>
      <trkpt lat="40.14636852778494358062744140625" lon="-0.8361107669770717620849609375">
        <ele>1007.5999755859375</ele>
        <time>2021-09-26T09:55:27.000Z</time>
      </trkpt>
      <trkpt lat="40.146379172801971435546875" lon="-0.83591647446155548095703125">
        <ele>1006.79998779296875</ele>
        <time>2021-09-26T09:55:29.000Z</time>
      </trkpt>
      <trkpt lat="40.146382190287113189697265625" lon="-0.83581991493701934814453125">
        <ele>1006</ele>
        <time>2021-09-26T09:55:30.000Z</time>
      </trkpt>
      <trkpt lat="40.1463830284774303436279296875" lon="-0.8357258699834346771240234375">
        <ele>1006</ele>
        <time>2021-09-26T09:55:31.000Z</time>
      </trkpt>
      <trkpt lat="40.14639149419963359832763671875" lon="-0.83553451113402843475341796875">
        <ele>1005.5999755859375</ele>
        <time>2021-09-26T09:55:33.000Z</time>
      </trkpt>
      <trkpt lat="40.14639384113252162933349609375" lon="-0.8353439904749393463134765625">
        <ele>1004.79998779296875</ele>
        <time>2021-09-26T09:55:35.000Z</time>
      </trkpt>
      <trkpt lat="40.14639819972217082977294921875" lon="-0.8351582475006580352783203125">
        <ele>1004.4000244140625</ele>
        <time>2021-09-26T09:55:37.000Z</time>
      </trkpt>
      <trkpt lat="40.14639995992183685302734375" lon="-0.83497577346861362457275390625">
        <ele>1004.4000244140625</ele>
        <time>2021-09-26T09:55:39.000Z</time>
      </trkpt>
      <trkpt lat="40.1464078389108180999755859375" lon="-0.83479137159883975982666015625">
        <ele>1003.79998779296875</ele>
        <time>2021-09-26T09:55:41.000Z</time>
      </trkpt>
      <trkpt lat="40.1464148797094821929931640625" lon="-0.8346055448055267333984375">
        <ele>1003.4000244140625</ele>
        <time>2021-09-26T09:55:43.000Z</time>
      </trkpt>
      <trkpt lat="40.14641814865171909332275390625" lon="-0.83442156203091144561767578125">
        <ele>1002.5999755859375</ele>
        <time>2021-09-26T09:55:45.000Z</time>
      </trkpt>
      <trkpt lat="40.146419070661067962646484375" lon="-0.834238417446613311767578125">
        <ele>1002.5999755859375</ele>
        <time>2021-09-26T09:55:47.000Z</time>
      </trkpt>
      <trkpt lat="40.146419070661067962646484375" lon="-0.834055356681346893310546875">
        <ele>1003</ele>
        <time>2021-09-26T09:55:49.000Z</time>
      </trkpt>
      <trkpt lat="40.14642141759395599365234375" lon="-0.833878330886363983154296875">
        <ele>1003</ele>
        <time>2021-09-26T09:55:51.000Z</time>
      </trkpt>
      <trkpt lat="40.1464209146797657012939453125" lon="-0.833705998957157135009765625">
        <ele>1003</ele>
        <time>2021-09-26T09:55:53.000Z</time>
      </trkpt>
      <trkpt lat="40.1464212499558925628662109375" lon="-0.83352536894381046295166015625">
        <ele>1003.79998779296875</ele>
        <time>2021-09-26T09:55:55.000Z</time>
      </trkpt>
      <trkpt lat="40.1464272849261760711669921875" lon="-0.83335152827203273773193359375">
        <ele>1003.79998779296875</ele>
        <time>2021-09-26T09:55:57.000Z</time>
      </trkpt>
      <trkpt lat="40.146432481706142425537109375" lon="-0.833182297646999359130859375">
        <ele>1003.20001220703125</ele>
        <time>2021-09-26T09:55:59.000Z</time>
      </trkpt>
      <trkpt lat="40.146437846124172210693359375" lon="-0.8330191858112812042236328125">
        <ele>1002.4000244140625</ele>
        <time>2021-09-26T09:56:01.000Z</time>
      </trkpt>
      <trkpt lat="40.14644094742834568023681640625" lon="-0.83293880335986614227294921875">
        <ele>1002.4000244140625</ele>
        <time>2021-09-26T09:56:02.000Z</time>
      </trkpt>
      <trkpt lat="40.14644228853285312652587890625" lon="-0.83286202512681484222412109375">
        <ele>1002.4000244140625</ele>
        <time>2021-09-26T09:56:03.000Z</time>
      </trkpt>
      <trkpt lat="40.14644061215221881866455078125" lon="-0.83271324634552001953125">
        <ele>1002.4000244140625</ele>
        <time>2021-09-26T09:56:05.000Z</time>
      </trkpt>
      <trkpt lat="40.14644019305706024169921875" lon="-0.8325554989278316497802734375">
        <ele>1002.4000244140625</ele>
        <time>2021-09-26T09:56:07.000Z</time>
      </trkpt>
      <trkpt lat="40.1464427076280117034912109375" lon="-0.83247830159962177276611328125">
        <ele>1002.4000244140625</ele>
        <time>2021-09-26T09:56:08.000Z</time>
      </trkpt>
      <trkpt lat="40.14644530601799488067626953125" lon="-0.83240185864269733428955078125">
        <ele>1002.4000244140625</ele>
        <time>2021-09-26T09:56:09.000Z</time>
      </trkpt>
      <trkpt lat="40.14645251445472240447998046875" lon="-0.8322425186634063720703125">
        <ele>1002.79998779296875</ele>
        <time>2021-09-26T09:56:11.000Z</time>
      </trkpt>
      <trkpt lat="40.14644782058894634246826171875" lon="-0.83206960000097751617431640625">
        <ele>1003.20001220703125</ele>
        <time>2021-09-26T09:56:13.000Z</time>
      </trkpt>
      <trkpt lat="40.14644547365605831146240234375" lon="-0.83198343403637409210205078125">
        <ele>1003</ele>
        <time>2021-09-26T09:56:14.000Z</time>
      </trkpt>
      <trkpt lat="40.1464390195906162261962890625" lon="-0.8318939991295337677001953125">
        <ele>1003</ele>
        <time>2021-09-26T09:56:15.000Z</time>
      </trkpt>
      <trkpt lat="40.14641848392784595489501953125" lon="-0.831716470420360565185546875">
        <ele>1003.5999755859375</ele>
        <time>2021-09-26T09:56:17.000Z</time>
      </trkpt>
      <trkpt lat="40.146395601332187652587890625" lon="-0.83153869025409221649169921875">
        <ele>1003.5999755859375</ele>
        <time>2021-09-26T09:56:19.000Z</time>
      </trkpt>
      <trkpt lat="40.1463816873729228973388671875" lon="-0.8314524404704570770263671875">
        <ele>1003.5999755859375</ele>
        <time>2021-09-26T09:56:20.000Z</time>
      </trkpt>
      <trkpt lat="40.146367438137531280517578125" lon="-0.8313659392297267913818359375">
        <ele>1003.79998779296875</ele>
        <time>2021-09-26T09:56:21.000Z</time>
      </trkpt>
      <trkpt lat="40.14633131213486194610595703125" lon="-0.831197798252105712890625">
        <ele>1003.79998779296875</ele>
        <time>2021-09-26T09:56:23.000Z</time>
      </trkpt>
      <trkpt lat="40.14628487639129161834716796875" lon="-0.83102856762707233428955078125">
        <ele>1004</ele>
        <time>2021-09-26T09:56:25.000Z</time>
      </trkpt>
      <trkpt lat="40.1462348364293575286865234375" lon="-0.83085590042173862457275390625">
        <ele>1003.79998779296875</ele>
        <time>2021-09-26T09:56:27.000Z</time>
      </trkpt>
      <trkpt lat="40.1461761631071567535400390625" lon="-0.830683149397373199462890625">
        <ele>1003.5999755859375</ele>
        <time>2021-09-26T09:56:29.000Z</time>
      </trkpt>
      <trkpt lat="40.14611036516726016998291015625" lon="-0.830510146915912628173828125">
        <ele>1002.5999755859375</ele>
        <time>2021-09-26T09:56:31.000Z</time>
      </trkpt>
      <trkpt lat="40.14603191055357456207275390625" lon="-0.83033873699605464935302734375">
        <ele>1001.79998779296875</ele>
        <time>2021-09-26T09:56:33.000Z</time>
      </trkpt>
      <trkpt lat="40.14598899520933628082275390625" lon="-0.83025424741208553314208984375">
        <ele>1001.5999755859375</ele>
        <time>2021-09-26T09:56:34.000Z</time>
      </trkpt>
      <trkpt lat="40.1459458284080028533935546875" lon="-0.83017118275165557861328125">
        <ele>1001.20001220703125</ele>
        <time>2021-09-26T09:56:35.000Z</time>
      </trkpt>
      <trkpt lat="40.1458573155105113983154296875" lon="-0.83000597544014453887939453125">
        <ele>999.5999755859375</ele>
        <time>2021-09-26T09:56:37.000Z</time>
      </trkpt>
      <trkpt lat="40.14576788060367107391357421875" lon="-0.82984705455601215362548828125">
        <ele>999</ele>
        <time>2021-09-26T09:56:39.000Z</time>
      </trkpt>
      <trkpt lat="40.145684145390987396240234375" lon="-0.8296942524611949920654296875">
        <ele>999</ele>
        <time>2021-09-26T09:56:41.000Z</time>
      </trkpt>
      <trkpt lat="40.14564357697963714599609375" lon="-0.82962208427488803863525390625">
        <ele>999</ele>
        <time>2021-09-26T09:56:42.000Z</time>
      </trkpt>
      <trkpt lat="40.14560468494892120361328125" lon="-0.829551927745342254638671875">
        <ele>999</ele>
        <time>2021-09-26T09:56:43.000Z</time>
      </trkpt>
      <trkpt lat="40.14552614651620388031005859375" lon="-0.82941957749426364898681640625">
        <ele>999.4000244140625</ele>
        <time>2021-09-26T09:56:45.000Z</time>
      </trkpt>
      <trkpt lat="40.145488679409027099609375" lon="-0.82935369573533535003662109375">
        <ele>999.20001220703125</ele>
        <time>2021-09-26T09:56:46.000Z</time>
      </trkpt>
      <trkpt lat="40.14545188285410404205322265625" lon="-0.82928949035704135894775390625">
        <ele>999.20001220703125</ele>
        <time>2021-09-26T09:56:47.000Z</time>
      </trkpt>
      <trkpt lat="40.14541768468916416168212890625" lon="-0.82923064939677715301513671875">
        <ele>999</ele>
        <time>2021-09-26T09:56:48.000Z</time>
      </trkpt>
      <trkpt lat="40.14538248069584369659423828125" lon="-0.829165019094944000244140625">
        <ele>998.5999755859375</ele>
        <time>2021-09-26T09:56:49.000Z</time>
      </trkpt>
      <trkpt lat="40.14534476213157176971435546875" lon="-0.8291011489927768707275390625">
        <ele>998.4000244140625</ele>
        <time>2021-09-26T09:56:50.000Z</time>
      </trkpt>
      <trkpt lat="40.14530268497765064239501953125" lon="-0.8290350995957851409912109375">
        <ele>998.5999755859375</ele>
        <time>2021-09-26T09:56:51.000Z</time>
      </trkpt>
      <trkpt lat="40.14522020705044269561767578125" lon="-0.82890476100146770477294921875">
        <ele>999</ele>
        <time>2021-09-26T09:56:53.000Z</time>
      </trkpt>
      <trkpt lat="40.14517762698233127593994140625" lon="-0.82883904688060283660888671875">
        <ele>999</ele>
        <time>2021-09-26T09:56:54.000Z</time>
      </trkpt>
      <trkpt lat="40.14513806439936161041259765625" lon="-0.82877148874104022979736328125">
        <ele>999.20001220703125</ele>
        <time>2021-09-26T09:56:55.000Z</time>
      </trkpt>
      <trkpt lat="40.14505525119602680206298828125" lon="-0.8286349475383758544921875">
        <ele>1000.4000244140625</ele>
        <time>2021-09-26T09:56:57.000Z</time>
      </trkpt>
      <trkpt lat="40.14501200057566165924072265625" lon="-0.82856713794171810150146484375">
        <ele>1001</ele>
        <time>2021-09-26T09:56:58.000Z</time>
      </trkpt>
      <trkpt lat="40.14497025869786739349365234375" lon="-0.82849790342152118682861328125">
        <ele>1001.4000244140625</ele>
        <time>2021-09-26T09:56:59.000Z</time>
      </trkpt>
      <trkpt lat="40.14489197172224521636962890625" lon="-0.82835474051535129547119140625">
        <ele>1002</ele>
        <time>2021-09-26T09:57:01.000Z</time>
      </trkpt>
      <trkpt lat="40.1448152773082256317138671875" lon="-0.82821543328464031219482421875">
        <ele>1002.5999755859375</ele>
        <time>2021-09-26T09:57:03.000Z</time>
      </trkpt>
      <trkpt lat="40.14474109746515750885009765625" lon="-0.8280837535858154296875">
        <ele>1003</ele>
        <time>2021-09-26T09:57:05.000Z</time>
      </trkpt>
      <trkpt lat="40.1446647383272647857666015625" lon="-0.82796179689466953277587890625">
        <ele>1003</ele>
        <time>2021-09-26T09:57:07.000Z</time>
      </trkpt>
      <trkpt lat="40.14458636753261089324951171875" lon="-0.82783925347030162811279296875">
        <ele>1003</ele>
        <time>2021-09-26T09:57:09.000Z</time>
      </trkpt>
      <trkpt lat="40.1445141993463039398193359375" lon="-0.827715285122394561767578125">
        <ele>1002.79998779296875</ele>
        <time>2021-09-26T09:57:11.000Z</time>
      </trkpt>
      <trkpt lat="40.14444001950323581695556640625" lon="-0.8275974355638027191162109375">
        <ele>1002.5999755859375</ele>
        <time>2021-09-26T09:57:13.000Z</time>
      </trkpt>
      <trkpt lat="40.1444032229483127593994140625" lon="-0.8275377564132213592529296875">
        <ele>1002.5999755859375</ele>
        <time>2021-09-26T09:57:14.000Z</time>
      </trkpt>
      <trkpt lat="40.1443663425743579864501953125" lon="-0.8274764008820056915283203125">
        <ele>1002.5999755859375</ele>
        <time>2021-09-26T09:57:15.000Z</time>
      </trkpt>
      <trkpt lat="40.1442892290651798248291015625" lon="-0.8273496665060520172119140625">
        <ele>1002.4000244140625</ele>
        <time>2021-09-26T09:57:17.000Z</time>
      </trkpt>
      <trkpt lat="40.14421370811760425567626953125" lon="-0.82721429876983165740966796875">
        <ele>1002.4000244140625</ele>
        <time>2021-09-26T09:57:19.000Z</time>
      </trkpt>
      <trkpt lat="40.14413776807487010955810546875" lon="-0.8270787633955478668212890625">
        <ele>1001.5999755859375</ele>
        <time>2021-09-26T09:57:21.000Z</time>
      </trkpt>
      <trkpt lat="40.1440568827092647552490234375" lon="-0.8269371092319488525390625">
        <ele>1000.5999755859375</ele>
        <time>2021-09-26T09:57:23.000Z</time>
      </trkpt>
      <trkpt lat="40.1439740695059299468994140625" lon="-0.8267921023070812225341796875">
        <ele>1000</ele>
        <time>2021-09-26T09:57:25.000Z</time>
      </trkpt>
      <trkpt lat="40.14389217831194400787353515625" lon="-0.82664080895483493804931640625">
        <ele>999.4000244140625</ele>
        <time>2021-09-26T09:57:27.000Z</time>
      </trkpt>
      <trkpt lat="40.1438060961663722991943359375" lon="-0.82649060525000095367431640625">
        <ele>999</ele>
        <time>2021-09-26T09:57:29.000Z</time>
      </trkpt>
      <trkpt lat="40.1437226124107837677001953125" lon="-0.82633755169808864593505859375">
        <ele>999</ele>
        <time>2021-09-26T09:57:31.000Z</time>
      </trkpt>
      <trkpt lat="40.1436391286551952362060546875" lon="-0.8261862583458423614501953125">
        <ele>999</ele>
        <time>2021-09-26T09:57:33.000Z</time>
      </trkpt>
      <trkpt lat="40.143557488918304443359375" lon="-0.82603521645069122314453125">
        <ele>999</ele>
        <time>2021-09-26T09:57:35.000Z</time>
      </trkpt>
      <trkpt lat="40.14346939511597156524658203125" lon="-0.82588903605937957763671875">
        <ele>998.5999755859375</ele>
        <time>2021-09-26T09:57:37.000Z</time>
      </trkpt>
      <trkpt lat="40.143377780914306640625" lon="-0.82573288120329380035400390625">
        <ele>997.4000244140625</ele>
        <time>2021-09-26T09:57:39.000Z</time>
      </trkpt>
      <trkpt lat="40.14328817836940288543701171875" lon="-0.82556121982634067535400390625">
        <ele>996.4000244140625</ele>
        <time>2021-09-26T09:57:41.000Z</time>
      </trkpt>
      <trkpt lat="40.1431928761303424835205078125" lon="-0.8253926597535610198974609375">
        <ele>995.4000244140625</ele>
        <time>2021-09-26T09:57:43.000Z</time>
      </trkpt>
      <trkpt lat="40.14309589751064777374267578125" lon="-0.82523189485073089599609375">
        <ele>995.5999755859375</ele>
        <time>2021-09-26T09:57:45.000Z</time>
      </trkpt>
      <trkpt lat="40.14299816451966762542724609375" lon="-0.82508697174489498138427734375">
        <ele>994.79998779296875</ele>
        <time>2021-09-26T09:57:47.000Z</time>
      </trkpt>
      <trkpt lat="40.1428951509296894073486328125" lon="-0.82495219074189662933349609375">
        <ele>994.79998779296875</ele>
        <time>2021-09-26T09:57:49.000Z</time>
      </trkpt>
      <trkpt lat="40.14279448427259922027587890625" lon="-0.82482579164206981658935546875">
        <ele>994</ele>
        <time>2021-09-26T09:57:51.000Z</time>
      </trkpt>
      <trkpt lat="40.14268803410232067108154296875" lon="-0.824702493846416473388671875">
        <ele>993.5999755859375</ele>
        <time>2021-09-26T09:57:53.000Z</time>
      </trkpt>
      <trkpt lat="40.14257521368563175201416015625" lon="-0.82457316108047962188720703125">
        <ele>993.20001220703125</ele>
        <time>2021-09-26T09:57:55.000Z</time>
      </trkpt>
      <trkpt lat="40.14251469634473323822021484375" lon="-0.82450794987380504608154296875">
        <ele>993</ele>
        <time>2021-09-26T09:57:56.000Z</time>
      </trkpt>
      <trkpt lat="40.142452418804168701171875" lon="-0.8244408108294010162353515625">
        <ele>992.5999755859375</ele>
        <time>2021-09-26T09:57:57.000Z</time>
      </trkpt>
      <trkpt lat="40.14232995919883251190185546875" lon="-0.82430946640670299530029296875">
        <ele>992.20001220703125</ele>
        <time>2021-09-26T09:57:59.000Z</time>
      </trkpt>
      <trkpt lat="40.142211019992828369140625" lon="-0.8241803012788295745849609375">
        <ele>991.4000244140625</ele>
        <time>2021-09-26T09:58:01.000Z</time>
      </trkpt>
      <trkpt lat="40.1420945115387439727783203125" lon="-0.82405750639736652374267578125">
        <ele>990.5999755859375</ele>
        <time>2021-09-26T09:58:03.000Z</time>
      </trkpt>
      <trkpt lat="40.14203961007297039031982421875" lon="-0.8239945583045482635498046875">
        <ele>990.20001220703125</ele>
        <time>2021-09-26T09:58:04.000Z</time>
      </trkpt>
      <trkpt lat="40.14198546297848224639892578125" lon="-0.8239330351352691650390625">
        <ele>989.5999755859375</ele>
        <time>2021-09-26T09:58:05.000Z</time>
      </trkpt>
      <trkpt lat="40.1418802700936794281005859375" lon="-0.82380873151123523712158203125">
        <ele>989.20001220703125</ele>
        <time>2021-09-26T09:58:07.000Z</time>
      </trkpt>
      <trkpt lat="40.14177507720887660980224609375" lon="-0.823689959943294525146484375">
        <ele>989.20001220703125</ele>
        <time>2021-09-26T09:58:09.000Z</time>
      </trkpt>
      <trkpt lat="40.14172361232340335845947265625" lon="-0.82363195717334747314453125">
        <ele>989.4000244140625</ele>
        <time>2021-09-26T09:58:10.000Z</time>
      </trkpt>
      <trkpt lat="40.14167256653308868408203125" lon="-0.82357454113662242889404296875">
        <ele>989.5999755859375</ele>
        <time>2021-09-26T09:58:11.000Z</time>
      </trkpt>
      <trkpt lat="40.1416211016476154327392578125" lon="-0.82351385615766048431396484375">
        <ele>989.4000244140625</ele>
        <time>2021-09-26T09:58:12.000Z</time>
      </trkpt>
      <trkpt lat="40.141569636762142181396484375" lon="-0.82345359027385711669921875">
        <ele>989.20001220703125</ele>
        <time>2021-09-26T09:58:13.000Z</time>
      </trkpt>
      <trkpt lat="40.14146863482892513275146484375" lon="-0.82333154976367950439453125">
        <ele>989</ele>
        <time>2021-09-26T09:58:15.000Z</time>
      </trkpt>
      <trkpt lat="40.14137190766632556915283203125" lon="-0.82320439629256725311279296875">
        <ele>989</ele>
        <time>2021-09-26T09:58:17.000Z</time>
      </trkpt>
      <trkpt lat="40.141326226294040679931640625" lon="-0.8231352455914020538330078125">
        <ele>988.79998779296875</ele>
        <time>2021-09-26T09:58:18.000Z</time>
      </trkpt>
      <trkpt lat="40.14128138311207294464111328125" lon="-0.823065340518951416015625">
        <ele>988.79998779296875</ele>
        <time>2021-09-26T09:58:19.000Z</time>
      </trkpt>
      <trkpt lat="40.14123762957751750946044921875" lon="-0.82299501635134220123291015625">
        <ele>988.5999755859375</ele>
        <time>2021-09-26T09:58:20.000Z</time>
      </trkpt>
      <trkpt lat="40.14119622297585010528564453125" lon="-0.8229226805269718170166015625">
        <ele>988.5999755859375</ele>
        <time>2021-09-26T09:58:21.000Z</time>
      </trkpt>
      <trkpt lat="40.1411155052483081817626953125" lon="-0.8227795176208019256591796875">
        <ele>989.5999755859375</ele>
        <time>2021-09-26T09:58:23.000Z</time>
      </trkpt>
      <trkpt lat="40.14104115776717662811279296875" lon="-0.8226350136101245880126953125">
        <ele>990.5999755859375</ele>
        <time>2021-09-26T09:58:25.000Z</time>
      </trkpt>
      <trkpt lat="40.14096974395215511322021484375" lon="-0.82249361090362071990966796875">
        <ele>991.20001220703125</ele>
        <time>2021-09-26T09:58:27.000Z</time>
      </trkpt>
      <trkpt lat="40.14093705452978610992431640625" lon="-0.822423957288265228271484375">
        <ele>991.4000244140625</ele>
        <time>2021-09-26T09:58:28.000Z</time>
      </trkpt>
      <trkpt lat="40.14090436510741710662841796875" lon="-0.822352878749370574951171875">
        <ele>992</ele>
        <time>2021-09-26T09:58:29.000Z</time>
      </trkpt>
      <trkpt lat="40.1408390700817108154296875" lon="-0.82221533171832561492919921875">
        <ele>993.5999755859375</ele>
        <time>2021-09-26T09:58:31.000Z</time>
      </trkpt>
      <trkpt lat="40.140774361789226531982421875" lon="-0.82208700478076934814453125">
        <ele>995.20001220703125</ele>
        <time>2021-09-26T09:58:33.000Z</time>
      </trkpt>
      <trkpt lat="40.1407151855528354644775390625" lon="-0.82196990959346294403076171875">
        <ele>996.20001220703125</ele>
        <time>2021-09-26T09:58:35.000Z</time>
      </trkpt>
      <trkpt lat="40.1406860165297985076904296875" lon="-0.821914337575435638427734375">
        <ele>996.4000244140625</ele>
        <time>2021-09-26T09:58:36.000Z</time>
      </trkpt>
      <trkpt lat="40.1406558416783809661865234375" lon="-0.82185490988194942474365234375">
        <ele>996.5999755859375</ele>
        <time>2021-09-26T09:58:37.000Z</time>
      </trkpt>
      <trkpt lat="40.14059440232813358306884765625" lon="-0.82172582857310771942138671875">
        <ele>997</ele>
        <time>2021-09-26T09:58:39.000Z</time>
      </trkpt>
      <trkpt lat="40.1405306160449981689453125" lon="-0.821585766971111297607421875">
        <ele>996.5999755859375</ele>
        <time>2021-09-26T09:58:41.000Z</time>
      </trkpt>
      <trkpt lat="40.14049666933715343475341796875" lon="-0.8215155266225337982177734375">
        <ele>996.20001220703125</ele>
        <time>2021-09-26T09:58:42.000Z</time>
      </trkpt>
      <trkpt lat="40.14046498574316501617431640625" lon="-0.82144671119749546051025390625">
        <ele>996</ele>
        <time>2021-09-26T09:58:43.000Z</time>
      </trkpt>
      <trkpt lat="40.14042911119759082794189453125" lon="-0.82137730903923511505126953125">
        <ele>995.5999755859375</ele>
        <time>2021-09-26T09:58:44.000Z</time>
      </trkpt>
      <trkpt lat="40.14039315283298492431640625" lon="-0.8213089965283870697021484375">
        <ele>995.20001220703125</ele>
        <time>2021-09-26T09:58:45.000Z</time>
      </trkpt>
      <trkpt lat="40.14032903127372264862060546875" lon="-0.82117949612438678741455078125">
        <ele>995</ele>
        <time>2021-09-26T09:58:47.000Z</time>
      </trkpt>
      <trkpt lat="40.14027111232280731201171875" lon="-0.82105971872806549072265625">
        <ele>995.5999755859375</ele>
        <time>2021-09-26T09:58:49.000Z</time>
      </trkpt>
      <trkpt lat="40.1402146182954311370849609375" lon="-0.820948742330074310302734375">
        <ele>996</ele>
        <time>2021-09-26T09:58:51.000Z</time>
      </trkpt>
      <trkpt lat="40.14015443623065948486328125" lon="-0.8208503387868404388427734375">
        <ele>996.20001220703125</ele>
        <time>2021-09-26T09:58:53.000Z</time>
      </trkpt>
      <trkpt lat="40.14012468047440052032470703125" lon="-0.82080423831939697265625">
        <ele>996.4000244140625</ele>
        <time>2021-09-26T09:58:54.000Z</time>
      </trkpt>
      <trkpt lat="40.140092074871063232421875" lon="-0.820752941071987152099609375">
        <ele>996.5999755859375</ele>
        <time>2021-09-26T09:58:55.000Z</time>
      </trkpt>
      <trkpt lat="40.14005578123033046722412109375" lon="-0.8207031525671482086181640625">
        <ele>996.5999755859375</ele>
        <time>2021-09-26T09:58:56.000Z</time>
      </trkpt>
      <trkpt lat="40.140015967190265655517578125" lon="-0.82065579481422901153564453125">
        <ele>996.5999755859375</ele>
        <time>2021-09-26T09:58:57.000Z</time>
      </trkpt>
      <trkpt lat="40.13993390835821628570556640625" lon="-0.8205606602132320404052734375">
        <ele>996.4000244140625</ele>
        <time>2021-09-26T09:58:59.000Z</time>
      </trkpt>
      <trkpt lat="40.13989233411848545074462890625" lon="-0.82051833160221576690673828125">
        <ele>996</ele>
        <time>2021-09-26T09:59:00.000Z</time>
      </trkpt>
      <trkpt lat="40.1398505084216594696044921875" lon="-0.8204771764576435089111328125">
        <ele>995.79998779296875</ele>
        <time>2021-09-26T09:59:01.000Z</time>
      </trkpt>
      <trkpt lat="40.1397643424570560455322265625" lon="-0.82040266133844852447509765625">
        <ele>995.5999755859375</ele>
        <time>2021-09-26T09:59:03.000Z</time>
      </trkpt>
      <trkpt lat="40.13968295417726039886474609375" lon="-0.820338539779186248779296875">
        <ele>995.5999755859375</ele>
        <time>2021-09-26T09:59:05.000Z</time>
      </trkpt>
      <trkpt lat="40.1396044157445430755615234375" lon="-0.82028564997017383575439453125">
        <ele>995.4000244140625</ele>
        <time>2021-09-26T09:59:07.000Z</time>
      </trkpt>
      <trkpt lat="40.13953006826341152191162109375" lon="-0.82023954950273036956787109375">
        <ele>995.4000244140625</ele>
        <time>2021-09-26T09:59:09.000Z</time>
      </trkpt>
      <trkpt lat="40.13949503190815448760986328125" lon="-0.82022027112543582916259765625">
        <ele>995.4000244140625</ele>
        <time>2021-09-26T09:59:10.000Z</time>
      </trkpt>
      <trkpt lat="40.13946318067610263824462890625" lon="-0.820204429328441619873046875">
        <ele>995.20001220703125</ele>
        <time>2021-09-26T09:59:11.000Z</time>
      </trkpt>
      <trkpt lat="40.1394364424049854278564453125" lon="-0.82019059918820858001708984375">
        <ele>995</ele>
        <time>2021-09-26T09:59:12.000Z</time>
      </trkpt>
      <trkpt lat="40.13941775076091289520263671875" lon="-0.820172242820262908935546875">
        <ele>994.79998779296875</ele>
        <time>2021-09-26T09:59:13.000Z</time>
      </trkpt>
      <trkpt lat="40.13941816985607147216796875" lon="-0.82013125531375408172607421875">
        <ele>994.4000244140625</ele>
        <time>2021-09-26T09:59:15.000Z</time>
      </trkpt>
      <trkpt lat="40.13943954370915889739990234375" lon="-0.82011700607836246490478515625">
        <ele>994.4000244140625</ele>
        <time>2021-09-26T09:59:16.000Z</time>
      </trkpt>
      <trkpt lat="40.13947055675089359283447265625" lon="-0.82010594196617603302001953125">
        <ele>994.20001220703125</ele>
        <time>2021-09-26T09:59:17.000Z</time>
      </trkpt>
      <trkpt lat="40.13954230584204196929931640625" lon="-0.82008163444697856903076171875">
        <ele>994</ele>
        <time>2021-09-26T09:59:19.000Z</time>
      </trkpt>
      <trkpt lat="40.13961573131382465362548828125" lon="-0.82005363889038562774658203125">
        <ele>993.79998779296875</ele>
        <time>2021-09-26T09:59:21.000Z</time>
      </trkpt>
      <trkpt lat="40.139655880630016326904296875" lon="-0.8200403116643428802490234375">
        <ele>993.79998779296875</ele>
        <time>2021-09-26T09:59:22.000Z</time>
      </trkpt>
      <trkpt lat="40.13969385065138339996337890625" lon="-0.82002832554280757904052734375">
        <ele>993.79998779296875</ele>
        <time>2021-09-26T09:59:23.000Z</time>
      </trkpt>
      <trkpt lat="40.1397660188376903533935546875" lon="-0.819991528987884521484375">
        <ele>993.4000244140625</ele>
        <time>2021-09-26T09:59:25.000Z</time>
      </trkpt>
      <trkpt lat="40.1398454792797565460205078125" lon="-0.81994400359690189361572265625">
        <ele>993.20001220703125</ele>
        <time>2021-09-26T09:59:27.000Z</time>
      </trkpt>
      <trkpt lat="40.1398934237658977508544921875" lon="-0.81991718150675296783447265625">
        <ele>993</ele>
        <time>2021-09-26T09:59:28.000Z</time>
      </trkpt>
      <trkpt lat="40.1399410329759120941162109375" lon="-0.81988818012177944183349609375">
        <ele>993</ele>
        <time>2021-09-26T09:59:29.000Z</time>
      </trkpt>
      <trkpt lat="40.13998436741530895233154296875" lon="-0.8198535628616809844970703125">
        <ele>993</ele>
        <time>2021-09-26T09:59:30.000Z</time>
      </trkpt>
      <trkpt lat="40.14002325944602489471435546875" lon="-0.81981441937386989593505859375">
        <ele>993</ele>
        <time>2021-09-26T09:59:31.000Z</time>
      </trkpt>
      <trkpt lat="40.1400952599942684173583984375" lon="-0.81973210908472537994384765625">
        <ele>992.79998779296875</ele>
        <time>2021-09-26T09:59:33.000Z</time>
      </trkpt>
      <trkpt lat="40.1401619799435138702392578125" lon="-0.81964711658656597137451171875">
        <ele>992.4000244140625</ele>
        <time>2021-09-26T09:59:35.000Z</time>
      </trkpt>
      <trkpt lat="40.140193998813629150390625" lon="-0.81960453651845455169677734375">
        <ele>992.4000244140625</ele>
        <time>2021-09-26T09:59:36.000Z</time>
      </trkpt>
      <trkpt lat="40.1402253471314907073974609375" lon="-0.81956614740192890167236328125">
        <ele>992.20001220703125</ele>
        <time>2021-09-26T09:59:37.000Z</time>
      </trkpt>
      <trkpt lat="40.14028745703399181365966796875" lon="-0.81948635168373584747314453125">
        <ele>992</ele>
        <time>2021-09-26T09:59:39.000Z</time>
      </trkpt>
      <trkpt lat="40.1403141953051090240478515625" lon="-0.81944628618657588958740234375">
        <ele>991.79998779296875</ele>
        <time>2021-09-26T09:59:40.000Z</time>
      </trkpt>
      <trkpt lat="40.14034294523298740386962890625" lon="-0.81940538249909877777099609375">
        <ele>991.5999755859375</ele>
        <time>2021-09-26T09:59:41.000Z</time>
      </trkpt>
      <trkpt lat="40.1403732039034366607666015625" lon="-0.819358527660369873046875">
        <ele>991.4000244140625</ele>
        <time>2021-09-26T09:59:42.000Z</time>
      </trkpt>
      <trkpt lat="40.14040078036487102508544921875" lon="-0.81930815242230892181396484375">
        <ele>991.20001220703125</ele>
        <time>2021-09-26T09:59:43.000Z</time>
      </trkpt>
      <trkpt lat="40.14042609371244907379150390625" lon="-0.81925953738391399383544921875">
        <ele>991</ele>
        <time>2021-09-26T09:59:44.000Z</time>
      </trkpt>
      <trkpt lat="40.14044855721294879913330078125" lon="-0.81921293400228023529052734375">
        <ele>990.5999755859375</ele>
        <time>2021-09-26T09:59:45.000Z</time>
      </trkpt>
      <trkpt lat="40.140498764812946319580078125" lon="-0.81911184825003147125244140625">
        <ele>990</ele>
        <time>2021-09-26T09:59:47.000Z</time>
      </trkpt>
      <trkpt lat="40.1405532471835613250732421875" lon="-0.819008834660053253173828125">
        <ele>989.20001220703125</ele>
        <time>2021-09-26T09:59:49.000Z</time>
      </trkpt>
      <trkpt lat="40.14058149419724941253662109375" lon="-0.8189629018306732177734375">
        <ele>989</ele>
        <time>2021-09-26T09:59:50.000Z</time>
      </trkpt>
      <trkpt lat="40.14061284251511096954345703125" lon="-0.8189225010573863983154296875">
        <ele>989.20001220703125</ele>
        <time>2021-09-26T09:59:51.000Z</time>
      </trkpt>
      <trkpt lat="40.140681155025959014892578125" lon="-0.8188467286527156829833984375">
        <ele>989.4000244140625</ele>
        <time>2021-09-26T09:59:53.000Z</time>
      </trkpt>
      <trkpt lat="40.1407148502767086029052734375" lon="-0.81881479360163211822509765625">
        <ele>989.5999755859375</ele>
        <time>2021-09-26T09:59:54.000Z</time>
      </trkpt>
      <trkpt lat="40.1407443545758724212646484375" lon="-0.8187813498079776763916015625">
        <ele>989.5999755859375</ele>
        <time>2021-09-26T09:59:55.000Z</time>
      </trkpt>
      <trkpt lat="40.140794478356838226318359375" lon="-0.8187072537839412689208984375">
        <ele>989.79998779296875</ele>
        <time>2021-09-26T09:59:57.000Z</time>
      </trkpt>
      <trkpt lat="40.14081769622862339019775390625" lon="-0.81861563958227634429931640625">
        <ele>990.4000244140625</ele>
        <time>2021-09-26T09:59:59.000Z</time>
      </trkpt>
      <trkpt lat="40.1408295147120952606201171875" lon="-0.81851455383002758026123046875">
        <ele>991</ele>
        <time>2021-09-26T10:00:01.000Z</time>
      </trkpt>
      <trkpt lat="40.14084485359489917755126953125" lon="-0.8184256218373775482177734375">
        <ele>991.5999755859375</ele>
        <time>2021-09-26T10:00:03.000Z</time>
      </trkpt>
      <trkpt lat="40.14085373841226100921630859375" lon="-0.81839066930115222930908203125">
        <ele>992</ele>
        <time>2021-09-26T10:00:04.000Z</time>
      </trkpt>
      <trkpt lat="40.140859186649322509765625" lon="-0.81835781224071979522705078125">
        <ele>992.20001220703125</ele>
        <time>2021-09-26T10:00:05.000Z</time>
      </trkpt>
      <trkpt lat="40.1408660598099231719970703125" lon="-0.81829612143337726593017578125">
        <ele>992.79998779296875</ele>
        <time>2021-09-26T10:00:07.000Z</time>
      </trkpt>
      <trkpt lat="40.1408704183995723724365234375" lon="-0.81823526881635189056396484375">
        <ele>993.5999755859375</ele>
        <time>2021-09-26T10:00:09.000Z</time>
      </trkpt>
      <trkpt lat="40.140880979597568511962890625" lon="-0.8181852288544178009033203125">
        <ele>994</ele>
        <time>2021-09-26T10:00:11.000Z</time>
      </trkpt>
      <trkpt lat="40.140881650149822235107421875" lon="-0.8181238733232021331787109375">
        <ele>994.5999755859375</ele>
        <time>2021-09-26T10:00:13.000Z</time>
      </trkpt>
      <trkpt lat="40.140880979597568511962890625" lon="-0.81808875314891338348388671875">
        <ele>995</ele>
        <time>2021-09-26T10:00:14.000Z</time>
      </trkpt>
      <trkpt lat="40.14087821356952190399169921875" lon="-0.81805338151752948760986328125">
        <ele>995.4000244140625</ele>
        <time>2021-09-26T10:00:15.000Z</time>
      </trkpt>
      <trkpt lat="40.14087988995015621185302734375" lon="-0.81798263825476169586181640625">
        <ele>996.20001220703125</ele>
        <time>2021-09-26T10:00:17.000Z</time>
      </trkpt>
      <trkpt lat="40.14087368734180927276611328125" lon="-0.81792287528514862060546875">
        <ele>996.79998779296875</ele>
        <time>2021-09-26T10:00:19.000Z</time>
      </trkpt>
      <trkpt lat="40.14086966402828693389892578125" lon="-0.8178915269672870635986328125">
        <ele>997.20001220703125</ele>
        <time>2021-09-26T10:00:20.000Z</time>
      </trkpt>
      <trkpt lat="40.14086530543863773345947265625" lon="-0.81785716116428375244140625">
        <ele>997.5999755859375</ele>
        <time>2021-09-26T10:00:21.000Z</time>
      </trkpt>
      <trkpt lat="40.14085742644965648651123046875" lon="-0.8178254775702953338623046875">
        <ele>998</ele>
        <time>2021-09-26T10:00:22.000Z</time>
      </trkpt>
      <trkpt lat="40.140845775604248046875" lon="-0.81779052503407001495361328125">
        <ele>998.4000244140625</ele>
        <time>2021-09-26T10:00:23.000Z</time>
      </trkpt>
      <trkpt lat="40.140824653208255767822265625" lon="-0.81772346980869770050048828125">
        <ele>999.20001220703125</ele>
        <time>2021-09-26T10:00:25.000Z</time>
      </trkpt>
      <trkpt lat="40.14080847613513469696044921875" lon="-0.81766496412456035614013671875">
        <ele>1000</ele>
        <time>2021-09-26T10:00:27.000Z</time>
      </trkpt>
      <trkpt lat="40.1407966576516628265380859375" lon="-0.81760545261204242706298828125">
        <ele>1000.5999755859375</ele>
        <time>2021-09-26T10:00:29.000Z</time>
      </trkpt>
      <trkpt lat="40.14078198932111263275146484375" lon="-0.81754711456596851348876953125">
        <ele>1001.20001220703125</ele>
        <time>2021-09-26T10:00:31.000Z</time>
      </trkpt>
      <trkpt lat="40.14077193103730678558349609375" lon="-0.81748927943408489227294921875">
        <ele>1001.5999755859375</ele>
        <time>2021-09-26T10:00:33.000Z</time>
      </trkpt>
      <trkpt lat="40.14076891355216503143310546875" lon="-0.81742675043642520904541015625">
        <ele>1002</ele>
        <time>2021-09-26T10:00:35.000Z</time>
      </trkpt>
      <trkpt lat="40.14076774008572101593017578125" lon="-0.8173678256571292877197265625">
        <ele>1002.4000244140625</ele>
        <time>2021-09-26T10:00:37.000Z</time>
      </trkpt>
      <trkpt lat="40.1407668180763721466064453125" lon="-0.817316360771656036376953125">
        <ele>1002.79998779296875</ele>
        <time>2021-09-26T10:00:39.000Z</time>
      </trkpt>
      <trkpt lat="40.14076463878154754638671875" lon="-0.81726548261940479278564453125">
        <ele>1002.79998779296875</ele>
        <time>2021-09-26T10:00:41.000Z</time>
      </trkpt>
      <trkpt lat="40.1407693326473236083984375" lon="-0.8172229863703250885009765625">
        <ele>1002.79998779296875</ele>
        <time>2021-09-26T10:00:43.000Z</time>
      </trkpt>
      <trkpt lat="40.14077268540859222412109375" lon="-0.81718669272959232330322265625">
        <ele>1002.79998779296875</ele>
        <time>2021-09-26T10:00:45.000Z</time>
      </trkpt>
      <trkpt lat="40.1407795585691928863525390625" lon="-0.817169845104217529296875">
        <ele>1002.79998779296875</ele>
        <time>2021-09-26T10:00:46.000Z</time>
      </trkpt>
      <trkpt lat="40.1407859288156032562255859375" lon="-0.81714629195630550384521484375">
        <ele>1002.79998779296875</ele>
        <time>2021-09-26T10:00:47.000Z</time>
      </trkpt>
      <trkpt lat="40.1407939754426479339599609375" lon="-0.81708242185413837432861328125">
        <ele>1002.79998779296875</ele>
        <time>2021-09-26T10:00:49.000Z</time>
      </trkpt>
      <trkpt lat="40.14079841785132884979248046875" lon="-0.81701737828552722930908203125">
        <ele>1002.79998779296875</ele>
        <time>2021-09-26T10:00:51.000Z</time>
      </trkpt>
      <trkpt lat="40.14080462045967578887939453125" lon="-0.81698619760572910308837890625">
        <ele>1002.79998779296875</ele>
        <time>2021-09-26T10:00:52.000Z</time>
      </trkpt>
      <trkpt lat="40.14081367291510105133056640625" lon="-0.81695250235497951507568359375">
        <ele>1002.79998779296875</ele>
        <time>2021-09-26T10:00:53.000Z</time>
      </trkpt>
      <trkpt lat="40.14082607813179492950439453125" lon="-0.8168756403028964996337890625">
        <ele>1002.4000244140625</ele>
        <time>2021-09-26T10:00:55.000Z</time>
      </trkpt>
      <trkpt lat="40.14082909561693668365478515625" lon="-0.81678251735866069793701171875">
        <ele>1002.20001220703125</ele>
        <time>2021-09-26T10:00:57.000Z</time>
      </trkpt>
      <trkpt lat="40.1408238150179386138916015625" lon="-0.816732309758663177490234375">
        <ele>1002</ele>
        <time>2021-09-26T10:00:58.000Z</time>
      </trkpt>
      <trkpt lat="40.1408124156296253204345703125" lon="-0.8166795037686824798583984375">
        <ele>1001.79998779296875</ele>
        <time>2021-09-26T10:00:59.000Z</time>
      </trkpt>
      <trkpt lat="40.1407956518232822418212890625" lon="-0.816628038883209228515625">
        <ele>1001.79998779296875</ele>
        <time>2021-09-26T10:01:00.000Z</time>
      </trkpt>
      <trkpt lat="40.1407772116363048553466796875" lon="-0.81657716073095798492431640625">
        <ele>1001.79998779296875</ele>
        <time>2021-09-26T10:01:01.000Z</time>
      </trkpt>
      <trkpt lat="40.1407674886286258697509765625" lon="-0.81651764921844005584716796875">
        <ele>1001.79998779296875</ele>
        <time>2021-09-26T10:01:02.000Z</time>
      </trkpt>
      <trkpt lat="40.14076036401093006134033203125" lon="-0.8164552040398120880126953125">
        <ele>1001.79998779296875</ele>
        <time>2021-09-26T10:01:03.000Z</time>
      </trkpt>
      <trkpt lat="40.1407624594867229461669921875" lon="-0.8163987100124359130859375">
        <ele>1001.5999755859375</ele>
        <time>2021-09-26T10:01:04.000Z</time>
      </trkpt>
      <trkpt lat="40.14075927436351776123046875" lon="-0.816338025033473968505859375">
        <ele>1001.4000244140625</ele>
        <time>2021-09-26T10:01:05.000Z</time>
      </trkpt>
      <trkpt lat="40.1407480426132678985595703125" lon="-0.816198885440826416015625">
        <ele>1001</ele>
        <time>2021-09-26T10:01:07.000Z</time>
      </trkpt>
      <trkpt lat="40.1407477073371410369873046875" lon="-0.81612034700810909271240234375">
        <ele>1000.4000244140625</ele>
        <time>2021-09-26T10:01:08.000Z</time>
      </trkpt>
      <trkpt lat="40.1407453604042530059814453125" lon="-0.8160384558141231536865234375">
        <ele>999.79998779296875</ele>
        <time>2021-09-26T10:01:09.000Z</time>
      </trkpt>
      <trkpt lat="40.14073119498789310455322265625" lon="-0.81587526015937328338623046875">
        <ele>998.5999755859375</ele>
        <time>2021-09-26T10:01:11.000Z</time>
      </trkpt>
      <trkpt lat="40.140712000429630279541015625" lon="-0.8157496154308319091796875">
        <ele>997.20001220703125</ele>
        <time>2021-09-26T10:01:13.000Z</time>
      </trkpt>
      <trkpt lat="40.1406870223581790924072265625" lon="-0.81566303037106990814208984375">
        <ele>996.4000244140625</ele>
        <time>2021-09-26T10:01:15.000Z</time>
      </trkpt>
      <trkpt lat="40.1406578533351421356201171875" lon="-0.81561273895204067230224609375">
        <ele>996</ele>
        <time>2021-09-26T10:01:16.000Z</time>
      </trkpt>
      <trkpt lat="40.14062792994081974029541015625" lon="-0.81556747667491436004638671875">
        <ele>995.5999755859375</ele>
        <time>2021-09-26T10:01:17.000Z</time>
      </trkpt>
      <trkpt lat="40.14059624634683132171630859375" lon="-0.81550880335271358489990234375">
        <ele>995</ele>
        <time>2021-09-26T10:01:19.000Z</time>
      </trkpt>
      <trkpt lat="40.140583924949169158935546875" lon="-0.81547929905354976654052734375">
        <ele>994.79998779296875</ele>
        <time>2021-09-26T10:01:21.000Z</time>
      </trkpt>
      <trkpt lat="40.14057445339858531951904296875" lon="-0.81546404398977756500244140625">
        <ele>994.5999755859375</ele>
        <time>2021-09-26T10:01:22.000Z</time>
      </trkpt>
      <trkpt lat="40.14056942425668239593505859375" lon="-0.815437473356723785400390625">
        <ele>994.4000244140625</ele>
        <time>2021-09-26T10:01:23.000Z</time>
      </trkpt>
      <trkpt lat="40.1405666582286357879638671875" lon="-0.8153826557099819183349609375">
        <ele>993.79998779296875</ele>
        <time>2021-09-26T10:01:25.000Z</time>
      </trkpt>
      <trkpt lat="40.14057277701795101165771484375" lon="-0.81535055302083492279052734375">
        <ele>993.4000244140625</ele>
        <time>2021-09-26T10:01:27.000Z</time>
      </trkpt>
      <trkpt lat="40.1405762135982513427734375" lon="-0.8153397403657436370849609375">
        <ele>993.20001220703125</ele>
        <time>2021-09-26T10:01:29.000Z</time>
      </trkpt>
      <trkpt lat="40.14058350585401058197021484375" lon="-0.81527821719646453857421875">
        <ele>992.5999755859375</ele>
        <time>2021-09-26T10:01:36.000Z</time>
      </trkpt>
      <trkpt lat="40.14060127548873424530029296875" lon="-0.8152482099831104278564453125">
        <ele>992.20001220703125</ele>
        <time>2021-09-26T10:01:37.000Z</time>
      </trkpt>
      <trkpt lat="40.14061485417187213897705078125" lon="-0.815208815038204193115234375">
        <ele>991.79998779296875</ele>
        <time>2021-09-26T10:01:39.000Z</time>
      </trkpt>
      <trkpt lat="40.14061870984733104705810546875" lon="-0.81519414670765399932861328125">
        <ele>991.5999755859375</ele>
        <time>2021-09-26T10:01:40.000Z</time>
      </trkpt>
      <trkpt lat="40.14062114059925079345703125" lon="-0.8151841722428798675537109375">
        <ele>991.5999755859375</ele>
        <time>2021-09-26T10:01:41.000Z</time>
      </trkpt>
      <trkpt lat="40.14061711728572845458984375" lon="-0.8151697553694248199462890625">
        <ele>991.4000244140625</ele>
        <time>2021-09-26T10:01:42.000Z</time>
      </trkpt>
      <trkpt lat="40.140614770352840423583984375" lon="-0.81516330130398273468017578125">
        <ele>991.4000244140625</ele>
        <time>2021-09-26T10:01:43.000Z</time>
      </trkpt>
      <trkpt lat="40.1406122557818889617919921875" lon="-0.8151664026081562042236328125">
        <ele>991.4000244140625</ele>
        <time>2021-09-26T10:01:44.000Z</time>
      </trkpt>
      <trkpt lat="40.1406018622219562530517578125" lon="-0.8152505569159984588623046875">
        <ele>992.20001220703125</ele>
        <time>2021-09-26T10:02:15.000Z</time>
      </trkpt>
      <trkpt lat="40.1406132616102695465087890625" lon="-0.81527679227292537689208984375">
        <ele>992.4000244140625</ele>
        <time>2021-09-26T10:02:16.000Z</time>
      </trkpt>
      <trkpt lat="40.14062792994081974029541015625" lon="-0.81529741175472736358642578125">
        <ele>992.5999755859375</ele>
        <time>2021-09-26T10:02:17.000Z</time>
      </trkpt>
      <trkpt lat="40.14064754359424114227294921875" lon="-0.8153058774769306182861328125">
        <ele>992.5999755859375</ele>
        <time>2021-09-26T10:02:18.000Z</time>
      </trkpt>
      <trkpt lat="40.1406675763428211212158203125" lon="-0.8153052069246768951416015625">
        <ele>992.5999755859375</ele>
        <time>2021-09-26T10:02:19.000Z</time>
      </trkpt>
      <trkpt lat="40.1406886987388134002685546875" lon="-0.81530177034437656402587890625">
        <ele>992.4000244140625</ele>
        <time>2021-09-26T10:02:20.000Z</time>
      </trkpt>
      <trkpt lat="40.140708982944488525390625" lon="-0.8153008483350276947021484375">
        <ele>992.4000244140625</ele>
        <time>2021-09-26T10:02:21.000Z</time>
      </trkpt>
      <trkpt lat="40.1407285965979099273681640625" lon="-0.815296657383441925048828125">
        <ele>992.20001220703125</ele>
        <time>2021-09-26T10:02:22.000Z</time>
      </trkpt>
      <trkpt lat="40.140746533870697021484375" lon="-0.81528358161449432373046875">
        <ele>992.20001220703125</ele>
        <time>2021-09-26T10:02:23.000Z</time>
      </trkpt>
      <trkpt lat="40.14076053164899349212646484375" lon="-0.81526639871299266815185546875">
        <ele>992</ele>
        <time>2021-09-26T10:02:24.000Z</time>
      </trkpt>
      <trkpt lat="40.14077712781727313995361328125" lon="-0.81524879671633243560791015625">
        <ele>991.79998779296875</ele>
        <time>2021-09-26T10:02:25.000Z</time>
      </trkpt>
      <trkpt lat="40.140832699835300445556640625" lon="-0.81523396074771881103515625">
        <ele>992</ele>
        <time>2021-09-26T10:02:27.000Z</time>
      </trkpt>
      <trkpt lat="40.1408605277538299560546875" lon="-0.81523798406124114990234375">
        <ele>992</ele>
        <time>2021-09-26T10:02:28.000Z</time>
      </trkpt>
      <trkpt lat="40.14088911004364490509033203125" lon="-0.81524460576474666595458984375">
        <ele>992.20001220703125</ele>
        <time>2021-09-26T10:02:29.000Z</time>
      </trkpt>
      <trkpt lat="40.14091107062995433807373046875" lon="-0.81525868736207485198974609375">
        <ele>992.20001220703125</ele>
        <time>2021-09-26T10:02:30.000Z</time>
      </trkpt>
      <trkpt lat="40.14092599041759967803955078125" lon="-0.8152736909687519073486328125">
        <ele>992.4000244140625</ele>
        <time>2021-09-26T10:02:31.000Z</time>
      </trkpt>
      <trkpt lat="40.140967480838298797607421875" lon="-0.81529288552701473236083984375">
        <ele>992.4000244140625</ele>
        <time>2021-09-26T10:02:33.000Z</time>
      </trkpt>
      <trkpt lat="40.14101131819188594818115234375" lon="-0.8153122477233409881591796875">
        <ele>992.5999755859375</ele>
        <time>2021-09-26T10:02:35.000Z</time>
      </trkpt>
      <trkpt lat="40.14105775393545627593994140625" lon="-0.81534862518310546875">
        <ele>992.79998779296875</ele>
        <time>2021-09-26T10:02:37.000Z</time>
      </trkpt>
      <trkpt lat="40.14108407311141490936279296875" lon="-0.8153548277914524078369140625">
        <ele>993</ele>
        <time>2021-09-26T10:02:38.000Z</time>
      </trkpt>
      <trkpt lat="40.14110335148870944976806640625" lon="-0.8153591863811016082763671875">
        <ele>993</ele>
        <time>2021-09-26T10:02:39.000Z</time>
      </trkpt>
      <trkpt lat="40.14113017357885837554931640625" lon="-0.81537536345422267913818359375">
        <ele>993.20001220703125</ele>
        <time>2021-09-26T10:02:41.000Z</time>
      </trkpt>
      <trkpt lat="40.141133107244968414306640625" lon="-0.8153870142996311187744140625">
        <ele>993.20001220703125</ele>
        <time>2021-09-26T10:02:42.000Z</time>
      </trkpt>
      <trkpt lat="40.1410833187401294708251953125" lon="-0.81560368649661540985107421875">
        <ele>995.4000244140625</ele>
        <time>2021-09-26T10:36:52.000Z</time>
      </trkpt>
      <trkpt lat="40.14108113944530487060546875" lon="-0.81560276448726654052734375">
        <ele>995.4000244140625</ele>
        <time>2021-09-26T10:36:53.000Z</time>
      </trkpt>
      <trkpt lat="40.141144506633281707763671875" lon="-0.81555783748626708984375">
        <ele>995</ele>
        <time>2021-09-26T10:38:01.000Z</time>
      </trkpt>
      <trkpt lat="40.14116940088570117950439453125" lon="-0.8155630342662334442138671875">
        <ele>994.79998779296875</ele>
        <time>2021-09-26T10:38:02.000Z</time>
      </trkpt>
      <trkpt lat="40.14119781553745269775390625" lon="-0.81557032652199268341064453125">
        <ele>994.79998779296875</ele>
        <time>2021-09-26T10:38:03.000Z</time>
      </trkpt>
      <trkpt lat="40.14127559959888458251953125" lon="-0.81556730903685092926025390625">
        <ele>994.5999755859375</ele>
        <time>2021-09-26T10:38:05.000Z</time>
      </trkpt>
      <trkpt lat="40.14133636839687824249267578125" lon="-0.81553277559578418731689453125">
        <ele>993.79998779296875</ele>
        <time>2021-09-26T10:38:06.000Z</time>
      </trkpt>
      <trkpt lat="40.141379535198211669921875" lon="-0.81554199568927288055419921875">
        <ele>993.5999755859375</ele>
        <time>2021-09-26T10:38:07.000Z</time>
      </trkpt>
      <trkpt lat="40.14147936366498470306396484375" lon="-0.81556546501815319061279296875">
        <ele>992.5999755859375</ele>
        <time>2021-09-26T10:38:09.000Z</time>
      </trkpt>
      <trkpt lat="40.1415315829217433929443359375" lon="-0.815585665404796600341796875">
        <ele>992.20001220703125</ele>
        <time>2021-09-26T10:38:10.000Z</time>
      </trkpt>
      <trkpt lat="40.14158003032207489013671875" lon="-0.8156173489987850189208984375">
        <ele>991.79998779296875</ele>
        <time>2021-09-26T10:38:11.000Z</time>
      </trkpt>
      <trkpt lat="40.14167114160954952239990234375" lon="-0.815694630146026611328125">
        <ele>990.5999755859375</ele>
        <time>2021-09-26T10:38:13.000Z</time>
      </trkpt>
      <trkpt lat="40.141762755811214447021484375" lon="-0.81576964817941188812255859375">
        <ele>989.79998779296875</ele>
        <time>2021-09-26T10:38:15.000Z</time>
      </trkpt>
      <trkpt lat="40.14180399477481842041015625" lon="-0.81580937840044498443603515625">
        <ele>989.5999755859375</ele>
        <time>2021-09-26T10:38:16.000Z</time>
      </trkpt>
      <trkpt lat="40.1418417133390903472900390625" lon="-0.815856568515300750732421875">
        <ele>989.5999755859375</ele>
        <time>2021-09-26T10:38:17.000Z</time>
      </trkpt>
      <trkpt lat="40.1418839581310749053955078125" lon="-0.81590317189693450927734375">
        <ele>989.4000244140625</ele>
        <time>2021-09-26T10:38:18.000Z</time>
      </trkpt>
      <trkpt lat="40.141932405531406402587890625" lon="-0.81593560986220836639404296875">
        <ele>988.79998779296875</ele>
        <time>2021-09-26T10:38:19.000Z</time>
      </trkpt>
      <trkpt lat="40.1419816911220550537109375" lon="-0.81596888601779937744140625">
        <ele>988.20001220703125</ele>
        <time>2021-09-26T10:38:20.000Z</time>
      </trkpt>
      <trkpt lat="40.14203122816979885101318359375" lon="-0.81600635312497615814208984375">
        <ele>987.5999755859375</ele>
        <time>2021-09-26T10:38:21.000Z</time>
      </trkpt>
      <trkpt lat="40.142081938683986663818359375" lon="-0.81604373641312122344970703125">
        <ele>987.4000244140625</ele>
        <time>2021-09-26T10:38:22.000Z</time>
      </trkpt>
      <trkpt lat="40.14212879352271556854248046875" lon="-0.81607080996036529541015625">
        <ele>987</ele>
        <time>2021-09-26T10:38:23.000Z</time>
      </trkpt>
      <trkpt lat="40.1422081701457500457763671875" lon="-0.816118419170379638671875">
        <ele>986.79998779296875</ele>
        <time>2021-09-26T10:38:25.000Z</time>
      </trkpt>
      <trkpt lat="40.142237506806850433349609375" lon="-0.816131494939327239990234375">
        <ele>986.5999755859375</ele>
        <time>2021-09-26T10:38:26.000Z</time>
      </trkpt>
      <trkpt lat="40.14227564446628093719482421875" lon="-0.81615152768790721893310546875">
        <ele>986.5999755859375</ele>
        <time>2021-09-26T10:38:27.000Z</time>
      </trkpt>
      <trkpt lat="40.1422862894833087921142578125" lon="-0.8162097819149494171142578125">
        <ele>987</ele>
        <time>2021-09-26T10:38:28.000Z</time>
      </trkpt>
      <trkpt lat="40.14230984263122081756591796875" lon="-0.81623836420476436614990234375">
        <ele>987</ele>
        <time>2021-09-26T10:38:29.000Z</time>
      </trkpt>
      <trkpt lat="40.1423384249210357666015625" lon="-0.81626434810459613800048828125">
        <ele>987</ele>
        <time>2021-09-26T10:38:30.000Z</time>
      </trkpt>
      <trkpt lat="40.14236985705792903900146484375" lon="-0.8162922598421573638916015625">
        <ele>987.20001220703125</ele>
        <time>2021-09-26T10:38:31.000Z</time>
      </trkpt>
      <trkpt lat="40.14241210184991359710693359375" lon="-0.8163492567837238311767578125">
        <ele>987.5999755859375</ele>
        <time>2021-09-26T10:38:33.000Z</time>
      </trkpt>
      <trkpt lat="40.14243892394006252288818359375" lon="-0.81640181131660938262939453125">
        <ele>988.20001220703125</ele>
        <time>2021-09-26T10:38:35.000Z</time>
      </trkpt>
      <trkpt lat="40.14244630001485347747802734375" lon="-0.8164324052631855010986328125">
        <ele>988.5999755859375</ele>
        <time>2021-09-26T10:38:36.000Z</time>
      </trkpt>
      <trkpt lat="40.14244881458580493927001953125" lon="-0.8164666034281253814697265625">
        <ele>988.5999755859375</ele>
        <time>2021-09-26T10:38:37.000Z</time>
      </trkpt>
      <trkpt lat="40.14244965277612209320068359375" lon="-0.8165457285940647125244140625">
        <ele>989.20001220703125</ele>
        <time>2021-09-26T10:38:39.000Z</time>
      </trkpt>
      <trkpt lat="40.1424415223300457000732421875" lon="-0.8165852911770343780517578125">
        <ele>989.4000244140625</ele>
        <time>2021-09-26T10:38:40.000Z</time>
      </trkpt>
      <trkpt lat="40.14243188314139842987060546875" lon="-0.8166225068271160125732421875">
        <ele>989.79998779296875</ele>
        <time>2021-09-26T10:38:41.000Z</time>
      </trkpt>
      <trkpt lat="40.14242500998079776763916015625" lon="-0.81666047684848308563232421875">
        <ele>990.20001220703125</ele>
        <time>2021-09-26T10:38:42.000Z</time>
      </trkpt>
      <trkpt lat="40.14241729862987995147705078125" lon="-0.8166989497840404510498046875">
        <ele>990.4000244140625</ele>
        <time>2021-09-26T10:38:43.000Z</time>
      </trkpt>
      <trkpt lat="40.14240724034607410430908203125" lon="-0.8167411945760250091552734375">
        <ele>990.79998779296875</ele>
        <time>2021-09-26T10:38:44.000Z</time>
      </trkpt>
      <trkpt lat="40.14239449985325336456298828125" lon="-0.81677983514964580535888671875">
        <ele>991.20001220703125</ele>
        <time>2021-09-26T10:38:45.000Z</time>
      </trkpt>
      <trkpt lat="40.14238058589398860931396484375" lon="-0.81681470386683940887451171875">
        <ele>991.20001220703125</ele>
        <time>2021-09-26T10:38:46.000Z</time>
      </trkpt>
      <trkpt lat="40.14236818067729473114013671875" lon="-0.816847644746303558349609375">
        <ele>991.4000244140625</ele>
        <time>2021-09-26T10:38:47.000Z</time>
      </trkpt>
      <trkpt lat="40.1423426158726215362548828125" lon="-0.8169074915349483489990234375">
        <ele>991.79998779296875</ele>
        <time>2021-09-26T10:38:49.000Z</time>
      </trkpt>
      <trkpt lat="40.14232057146728038787841796875" lon="-0.81696775741875171661376953125">
        <ele>992</ele>
        <time>2021-09-26T10:38:51.000Z</time>
      </trkpt>
      <trkpt lat="40.14229928143322467803955078125" lon="-0.81702567636966705322265625">
        <ele>992.4000244140625</ele>
        <time>2021-09-26T10:38:53.000Z</time>
      </trkpt>
      <trkpt lat="40.14228679239749908447265625" lon="-0.81705652177333831787109375">
        <ele>992.4000244140625</ele>
        <time>2021-09-26T10:38:54.000Z</time>
      </trkpt>
      <trkpt lat="40.142275057733058929443359375" lon="-0.81708979792892932891845703125">
        <ele>992.4000244140625</ele>
        <time>2021-09-26T10:38:55.000Z</time>
      </trkpt>
      <trkpt lat="40.14225594699382781982421875" lon="-0.8171545900404453277587890625">
        <ele>992.5999755859375</ele>
        <time>2021-09-26T10:38:57.000Z</time>
      </trkpt>
      <trkpt lat="40.1422356627881526947021484375" lon="-0.8172132633626461029052734375">
        <ele>992.5999755859375</ele>
        <time>2021-09-26T10:38:59.000Z</time>
      </trkpt>
      <trkpt lat="40.1422131992876529693603515625" lon="-0.81726095639169216156005859375">
        <ele>992.5999755859375</ele>
        <time>2021-09-26T10:39:01.000Z</time>
      </trkpt>
      <trkpt lat="40.1421937532722949981689453125" lon="-0.8173120021820068359375">
        <ele>992.4000244140625</ele>
        <time>2021-09-26T10:39:03.000Z</time>
      </trkpt>
      <trkpt lat="40.14217891730368137359619140625" lon="-0.8173725195229053497314453125">
        <ele>992.4000244140625</ele>
        <time>2021-09-26T10:39:05.000Z</time>
      </trkpt>
      <trkpt lat="40.14216349460184574127197265625" lon="-0.81743211485445499420166015625">
        <ele>992.20001220703125</ele>
        <time>2021-09-26T10:39:07.000Z</time>
      </trkpt>
      <trkpt lat="40.14213901944458484649658203125" lon="-0.81748425029218196868896484375">
        <ele>992.20001220703125</ele>
        <time>2021-09-26T10:39:09.000Z</time>
      </trkpt>
      <trkpt lat="40.14211177825927734375" lon="-0.81754694692790508270263671875">
        <ele>992.20001220703125</ele>
        <time>2021-09-26T10:39:11.000Z</time>
      </trkpt>
      <trkpt lat="40.14209727756679058074951171875" lon="-0.81762087531387805938720703125">
        <ele>992</ele>
        <time>2021-09-26T10:39:13.000Z</time>
      </trkpt>
      <trkpt lat="40.14208001084625720977783203125" lon="-0.81769765354692935943603515625">
        <ele>992</ele>
        <time>2021-09-26T10:39:15.000Z</time>
      </trkpt>
      <trkpt lat="40.14205737970769405364990234375" lon="-0.817779712378978729248046875">
        <ele>991.79998779296875</ele>
        <time>2021-09-26T10:39:17.000Z</time>
      </trkpt>
      <trkpt lat="40.14202284626662731170654296875" lon="-0.81784869544208049774169921875">
        <ele>991.79998779296875</ele>
        <time>2021-09-26T10:39:19.000Z</time>
      </trkpt>
      <trkpt lat="40.14198462478816509246826171875" lon="-0.81789563409984111785888671875">
        <ele>991.5999755859375</ele>
        <time>2021-09-26T10:39:21.000Z</time>
      </trkpt>
      <trkpt lat="40.14194271527230739593505859375" lon="-0.8179344423115253448486328125">
        <ele>991.4000244140625</ele>
        <time>2021-09-26T10:39:23.000Z</time>
      </trkpt>
      <trkpt lat="40.1419034041464328765869140625" lon="-0.8179672993719577789306640625">
        <ele>991.20001220703125</ele>
        <time>2021-09-26T10:39:25.000Z</time>
      </trkpt>
      <trkpt lat="40.14186526648700237274169921875" lon="-0.8180011622607707977294921875">
        <ele>991</ele>
        <time>2021-09-26T10:39:27.000Z</time>
      </trkpt>
      <trkpt lat="40.141827128827571868896484375" lon="-0.81804248504340648651123046875">
        <ele>990.5999755859375</ele>
        <time>2021-09-26T10:39:29.000Z</time>
      </trkpt>
      <trkpt lat="40.14178697951138019561767578125" lon="-0.81807576119899749755859375">
        <ele>990.20001220703125</ele>
        <time>2021-09-26T10:39:31.000Z</time>
      </trkpt>
      <trkpt lat="40.1417669467628002166748046875" lon="-0.8180977217853069305419921875">
        <ele>990</ele>
        <time>2021-09-26T10:39:32.000Z</time>
      </trkpt>
      <trkpt lat="40.1417441479861736297607421875" lon="-0.81811540760099887847900390625">
        <ele>989.79998779296875</ele>
        <time>2021-09-26T10:39:33.000Z</time>
      </trkpt>
      <trkpt lat="40.14170148409903049468994140625" lon="-0.8181540481746196746826171875">
        <ele>989.4000244140625</ele>
        <time>2021-09-26T10:39:35.000Z</time>
      </trkpt>
      <trkpt lat="40.141662843525409698486328125" lon="-0.81819151528179645538330078125">
        <ele>989</ele>
        <time>2021-09-26T10:39:37.000Z</time>
      </trkpt>
      <trkpt lat="40.1416298188269138336181640625" lon="-0.81822336651384830474853515625">
        <ele>988.5999755859375</ele>
        <time>2021-09-26T10:39:39.000Z</time>
      </trkpt>
      <trkpt lat="40.14161213301122188568115234375" lon="-0.81823535263538360595703125">
        <ele>988.5999755859375</ele>
        <time>2021-09-26T10:39:40.000Z</time>
      </trkpt>
      <trkpt lat="40.14159318991005420684814453125" lon="-0.8182449080049991607666015625">
        <ele>988.4000244140625</ele>
        <time>2021-09-26T10:39:41.000Z</time>
      </trkpt>
      <trkpt lat="40.1415470056235790252685546875" lon="-0.81826074980199337005615234375">
        <ele>988.5999755859375</ele>
        <time>2021-09-26T10:39:43.000Z</time>
      </trkpt>
      <trkpt lat="40.14149193651974201202392578125" lon="-0.81827566958963871002197265625">
        <ele>989</ele>
        <time>2021-09-26T10:39:45.000Z</time>
      </trkpt>
      <trkpt lat="40.1414618454873561859130859375" lon="-0.8182804472744464874267578125">
        <ele>989.20001220703125</ele>
        <time>2021-09-26T10:39:46.000Z</time>
      </trkpt>
      <trkpt lat="40.14143125154078006744384765625" lon="-0.818286649882793426513671875">
        <ele>989.4000244140625</ele>
        <time>2021-09-26T10:39:47.000Z</time>
      </trkpt>
      <trkpt lat="40.14137106947600841522216796875" lon="-0.818290673196315765380859375">
        <ele>989.79998779296875</ele>
        <time>2021-09-26T10:39:49.000Z</time>
      </trkpt>
      <trkpt lat="40.14130803756415843963623046875" lon="-0.81829830072820186614990234375">
        <ele>990.20001220703125</ele>
        <time>2021-09-26T10:39:51.000Z</time>
      </trkpt>
      <trkpt lat="40.141248442232608795166015625" lon="-0.81830014474689960479736328125">
        <ele>990.5999755859375</ele>
        <time>2021-09-26T10:39:53.000Z</time>
      </trkpt>
      <trkpt lat="40.14121801592409610748291015625" lon="-0.8182998932898044586181640625">
        <ele>990.79998779296875</ele>
        <time>2021-09-26T10:39:54.000Z</time>
      </trkpt>
      <trkpt lat="40.141187421977519989013671875" lon="-0.81829838454723358154296875">
        <ele>991</ele>
        <time>2021-09-26T10:39:55.000Z</time>
      </trkpt>
      <trkpt lat="40.1411275751888751983642578125" lon="-0.81829310394823551177978515625">
        <ele>991.5999755859375</ele>
        <time>2021-09-26T10:39:57.000Z</time>
      </trkpt>
      <trkpt lat="40.14106915332376956939697265625" lon="-0.81828723661601543426513671875">
        <ele>992</ele>
        <time>2021-09-26T10:39:59.000Z</time>
      </trkpt>
      <trkpt lat="40.14101550914347171783447265625" lon="-0.81828706897795200347900390625">
        <ele>992.4000244140625</ele>
        <time>2021-09-26T10:40:01.000Z</time>
      </trkpt>
      <trkpt lat="40.14098918996751308441162109375" lon="-0.81829360686242580413818359375">
        <ele>992.4000244140625</ele>
        <time>2021-09-26T10:40:02.000Z</time>
      </trkpt>
      <trkpt lat="40.140964798629283905029296875" lon="-0.81830249167978763580322265625">
        <ele>992.4000244140625</ele>
        <time>2021-09-26T10:40:03.000Z</time>
      </trkpt>
      <trkpt lat="40.14091375283896923065185546875" lon="-0.8183324150741100311279296875">
        <ele>992.4000244140625</ele>
        <time>2021-09-26T10:40:05.000Z</time>
      </trkpt>
      <trkpt lat="40.1408737711608409881591796875" lon="-0.8183987997472286224365234375">
        <ele>991.79998779296875</ele>
        <time>2021-09-26T10:40:07.000Z</time>
      </trkpt>
      <trkpt lat="40.14086144976317882537841796875" lon="-0.8184467442333698272705078125">
        <ele>991.4000244140625</ele>
        <time>2021-09-26T10:40:08.000Z</time>
      </trkpt>
      <trkpt lat="40.14085046947002410888671875" lon="-0.81850491464138031005859375">
        <ele>991</ele>
        <time>2021-09-26T10:40:09.000Z</time>
      </trkpt>
      <trkpt lat="40.140827000141143798828125" lon="-0.8186356723308563232421875">
        <ele>990.20001220703125</ele>
        <time>2021-09-26T10:40:11.000Z</time>
      </trkpt>
      <trkpt lat="40.140794478356838226318359375" lon="-0.81874337978661060333251953125">
        <ele>989.5999755859375</ele>
        <time>2021-09-26T10:40:13.000Z</time>
      </trkpt>
      <trkpt lat="40.14074896462261676788330078125" lon="-0.818806998431682586669921875">
        <ele>989.5999755859375</ele>
        <time>2021-09-26T10:40:15.000Z</time>
      </trkpt>
      <trkpt lat="40.140725411474704742431640625" lon="-0.81883055157959461212158203125">
        <ele>989.5999755859375</ele>
        <time>2021-09-26T10:40:16.000Z</time>
      </trkpt>
      <trkpt lat="40.14070185832679271697998046875" lon="-0.8188527636229991912841796875">
        <ele>989.4000244140625</ele>
        <time>2021-09-26T10:40:17.000Z</time>
      </trkpt>
      <trkpt lat="40.14068014919757843017578125" lon="-0.8188718743622303009033203125">
        <ele>989.4000244140625</ele>
        <time>2021-09-26T10:40:18.000Z</time>
      </trkpt>
      <trkpt lat="40.14065441675484180450439453125" lon="-0.8188896439969539642333984375">
        <ele>989.4000244140625</ele>
        <time>2021-09-26T10:40:19.000Z</time>
      </trkpt>
      <trkpt lat="40.14059959910809993743896484375" lon="-0.8189436234533786773681640625">
        <ele>989.20001220703125</ele>
        <time>2021-09-26T10:40:21.000Z</time>
      </trkpt>
      <trkpt lat="40.14055282808840274810791015625" lon="-0.81899818964302539825439453125">
        <ele>989.20001220703125</ele>
        <time>2021-09-26T10:40:23.000Z</time>
      </trkpt>
      <trkpt lat="40.14051829464733600616455078125" lon="-0.8190659992396831512451171875">
        <ele>989.5999755859375</ele>
        <time>2021-09-26T10:40:25.000Z</time>
      </trkpt>
      <trkpt lat="40.140503458678722381591796875" lon="-0.81910044886171817779541015625">
        <ele>989.79998779296875</ele>
        <time>2021-09-26T10:40:26.000Z</time>
      </trkpt>
      <trkpt lat="40.1404885388910770416259765625" lon="-0.81913649104535579681396484375">
        <ele>990.20001220703125</ele>
        <time>2021-09-26T10:40:27.000Z</time>
      </trkpt>
      <trkpt lat="40.1404662430286407470703125" lon="-0.8192034624516963958740234375">
        <ele>990.5999755859375</ele>
        <time>2021-09-26T10:40:29.000Z</time>
      </trkpt>
      <trkpt lat="40.14043204486370086669921875" lon="-0.8192634768784046173095703125">
        <ele>991</ele>
        <time>2021-09-26T10:40:31.000Z</time>
      </trkpt>
      <trkpt lat="40.14039717614650726318359375" lon="-0.8193303644657135009765625">
        <ele>991.4000244140625</ele>
        <time>2021-09-26T10:40:33.000Z</time>
      </trkpt>
      <trkpt lat="40.14035451225936412811279296875" lon="-0.81940303556621074676513671875">
        <ele>991.5999755859375</ele>
        <time>2021-09-26T10:40:35.000Z</time>
      </trkpt>
      <trkpt lat="40.1403098367154598236083984375" lon="-0.8194725215435028076171875">
        <ele>992</ele>
        <time>2021-09-26T10:40:37.000Z</time>
      </trkpt>
      <trkpt lat="40.14026449061930179595947265625" lon="-0.81954267807304859161376953125">
        <ele>992.4000244140625</ele>
        <time>2021-09-26T10:40:39.000Z</time>
      </trkpt>
      <trkpt lat="40.14021403156220912933349609375" lon="-0.81961275078356266021728515625">
        <ele>992.4000244140625</ele>
        <time>2021-09-26T10:40:41.000Z</time>
      </trkpt>
      <trkpt lat="40.140162818133831024169921875" lon="-0.81968349404633045196533203125">
        <ele>992.5999755859375</ele>
        <time>2021-09-26T10:40:43.000Z</time>
      </trkpt>
      <trkpt lat="40.14011143706738948822021484375" lon="-0.8197439275681972503662109375">
        <ele>992.79998779296875</ele>
        <time>2021-09-26T10:40:45.000Z</time>
      </trkpt>
      <trkpt lat="40.14006181620061397552490234375" lon="-0.819803774356842041015625">
        <ele>993</ele>
        <time>2021-09-26T10:40:47.000Z</time>
      </trkpt>
      <trkpt lat="40.14001102186739444732666015625" lon="-0.81985431723296642303466796875">
        <ele>993</ele>
        <time>2021-09-26T10:40:49.000Z</time>
      </trkpt>
      <trkpt lat="40.13996668159961700439453125" lon="-0.81990427337586879730224609375">
        <ele>993</ele>
        <time>2021-09-26T10:40:51.000Z</time>
      </trkpt>
      <trkpt lat="40.13992351479828357696533203125" lon="-0.81994584761559963226318359375">
        <ele>993</ele>
        <time>2021-09-26T10:40:53.000Z</time>
      </trkpt>
      <trkpt lat="40.13989535160362720489501953125" lon="-0.8199638687074184417724609375">
        <ele>993</ele>
        <time>2021-09-26T10:40:55.000Z</time>
      </trkpt>
      <trkpt lat="40.1398924179375171661376953125" lon="-0.81996629945933818817138671875">
        <ele>993</ele>
        <time>2021-09-26T10:40:57.000Z</time>
      </trkpt>
      <trkpt lat="40.1398520171642303466796875" lon="-0.81996738910675048828125">
        <ele>993.20001220703125</ele>
        <time>2021-09-26T10:41:16.000Z</time>
      </trkpt>
      <trkpt lat="40.139832235872745513916015625" lon="-0.81997476518154144287109375">
        <ele>993.20001220703125</ele>
        <time>2021-09-26T10:41:17.000Z</time>
      </trkpt>
      <trkpt lat="40.13979208655655384063720703125" lon="-0.8199880085885524749755859375">
        <ele>993.4000244140625</ele>
        <time>2021-09-26T10:41:19.000Z</time>
      </trkpt>
      <trkpt lat="40.13973735272884368896484375" lon="-0.8200143277645111083984375">
        <ele>993.5999755859375</ele>
        <time>2021-09-26T10:41:21.000Z</time>
      </trkpt>
      <trkpt lat="40.13970793224871158599853515625" lon="-0.82002949900925159454345703125">
        <ele>993.5999755859375</ele>
        <time>2021-09-26T10:41:22.000Z</time>
      </trkpt>
      <trkpt lat="40.13967826031148433685302734375" lon="-0.820043496787548065185546875">
        <ele>993.79998779296875</ele>
        <time>2021-09-26T10:41:23.000Z</time>
      </trkpt>
      <trkpt lat="40.13962092809379100799560546875" lon="-0.82007274962961673736572265625">
        <ele>993.79998779296875</ele>
        <time>2021-09-26T10:41:25.000Z</time>
      </trkpt>
      <trkpt lat="40.1395598240196704864501953125" lon="-0.8200956322252750396728515625">
        <ele>994</ele>
        <time>2021-09-26T10:41:27.000Z</time>
      </trkpt>
      <trkpt lat="40.139527134597301483154296875" lon="-0.82011155784130096435546875">
        <ele>994.20001220703125</ele>
        <time>2021-09-26T10:41:28.000Z</time>
      </trkpt>
      <trkpt lat="40.13949620537459850311279296875" lon="-0.82012773491442203521728515625">
        <ele>994.4000244140625</ele>
        <time>2021-09-26T10:41:29.000Z</time>
      </trkpt>
      <trkpt lat="40.13944222591817378997802734375" lon="-0.82015103660523891448974609375">
        <ele>994.5999755859375</ele>
        <time>2021-09-26T10:41:31.000Z</time>
      </trkpt>
      <trkpt lat="40.13939268887042999267578125" lon="-0.82016780041158199310302734375">
        <ele>994.79998779296875</ele>
        <time>2021-09-26T10:41:33.000Z</time>
      </trkpt>
      <trkpt lat="40.1393469236791133880615234375" lon="-0.82017903216183185577392578125">
        <ele>995</ele>
        <time>2021-09-26T10:41:35.000Z</time>
      </trkpt>
      <trkpt lat="40.1392979733645915985107421875" lon="-0.8201650343835353851318359375">
        <ele>994.5999755859375</ele>
        <time>2021-09-26T10:41:37.000Z</time>
      </trkpt>
      <trkpt lat="40.13927190564572811126708984375" lon="-0.820154137909412384033203125">
        <ele>994.4000244140625</ele>
        <time>2021-09-26T10:41:38.000Z</time>
      </trkpt>
      <trkpt lat="40.13924206607043743133544921875" lon="-0.82014131359755992889404296875">
        <ele>994</ele>
        <time>2021-09-26T10:41:39.000Z</time>
      </trkpt>
      <trkpt lat="40.13917651958763599395751953125" lon="-0.82012555561959743499755859375">
        <ele>993.4000244140625</ele>
        <time>2021-09-26T10:41:41.000Z</time>
      </trkpt>
      <trkpt lat="40.13910745270550251007080078125" lon="-0.820104517042636871337890625">
        <ele>992.5999755859375</ele>
        <time>2021-09-26T10:41:43.000Z</time>
      </trkpt>
      <trkpt lat="40.1390714943408966064453125" lon="-0.8200936205685138702392578125">
        <ele>992.20001220703125</ele>
        <time>2021-09-26T10:41:44.000Z</time>
      </trkpt>
      <trkpt lat="40.1390364579856395721435546875" lon="-0.8200828917324542999267578125">
        <ele>991.5999755859375</ele>
        <time>2021-09-26T10:41:45.000Z</time>
      </trkpt>
      <trkpt lat="40.13896412216126918792724609375" lon="-0.820056237280368804931640625">
        <ele>990.5999755859375</ele>
        <time>2021-09-26T10:41:47.000Z</time>
      </trkpt>
      <trkpt lat="40.13888767920434474945068359375" lon="-0.82002815790474414825439453125">
        <ele>989.5999755859375</ele>
        <time>2021-09-26T10:41:49.000Z</time>
      </trkpt>
      <trkpt lat="40.13881064951419830322265625" lon="-0.8199970610439777374267578125">
        <ele>988.5999755859375</ele>
        <time>2021-09-26T10:41:51.000Z</time>
      </trkpt>
      <trkpt lat="40.13872683048248291015625" lon="-0.8199642039835453033447265625">
        <ele>987.5999755859375</ele>
        <time>2021-09-26T10:41:53.000Z</time>
      </trkpt>
      <trkpt lat="40.13864167034626007080078125" lon="-0.81992992199957370758056640625">
        <ele>986.79998779296875</ele>
        <time>2021-09-26T10:41:55.000Z</time>
      </trkpt>
      <trkpt lat="40.138554833829402923583984375" lon="-0.819894969463348388671875">
        <ele>986.79998779296875</ele>
        <time>2021-09-26T10:41:57.000Z</time>
      </trkpt>
      <trkpt lat="40.13851149939000606536865234375" lon="-0.81988088786602020263671875">
        <ele>986.79998779296875</ele>
        <time>2021-09-26T10:41:58.000Z</time>
      </trkpt>
      <trkpt lat="40.13846866786479949951171875" lon="-0.81986504606902599334716796875">
        <ele>986.79998779296875</ele>
        <time>2021-09-26T10:41:59.000Z</time>
      </trkpt>
      <trkpt lat="40.13842709362506866455078125" lon="-0.81984878517687320709228515625">
        <ele>987</ele>
        <time>2021-09-26T10:42:00.000Z</time>
      </trkpt>
      <trkpt lat="40.13838476501405239105224609375" lon="-0.81983369775116443634033203125">
        <ele>987.20001220703125</ele>
        <time>2021-09-26T10:42:01.000Z</time>
      </trkpt>
      <trkpt lat="40.138298682868480682373046875" lon="-0.8198029361665248870849609375">
        <ele>987.4000244140625</ele>
        <time>2021-09-26T10:42:03.000Z</time>
      </trkpt>
      <trkpt lat="40.13820136897265911102294921875" lon="-0.81977225840091705322265625">
        <ele>987.5999755859375</ele>
        <time>2021-09-26T10:42:05.000Z</time>
      </trkpt>
      <trkpt lat="40.13809382915496826171875" lon="-0.81973747350275516510009765625">
        <ele>987.5999755859375</ele>
        <time>2021-09-26T10:42:07.000Z</time>
      </trkpt>
      <trkpt lat="40.1379806734621524810791015625" lon="-0.819697491824626922607421875">
        <ele>987.4000244140625</ele>
        <time>2021-09-26T10:42:09.000Z</time>
      </trkpt>
      <trkpt lat="40.137864835560321807861328125" lon="-0.81965625286102294921875">
        <ele>987.5999755859375</ele>
        <time>2021-09-26T10:42:11.000Z</time>
      </trkpt>
      <trkpt lat="40.13774924911558628082275390625" lon="-0.8196185342967510223388671875">
        <ele>988.4000244140625</ele>
        <time>2021-09-26T10:42:13.000Z</time>
      </trkpt>
      <trkpt lat="40.137691833078861236572265625" lon="-0.8196041174232959747314453125">
        <ele>989</ele>
        <time>2021-09-26T10:42:14.000Z</time>
      </trkpt>
      <trkpt lat="40.137634836137294769287109375" lon="-0.81959330476820468902587890625">
        <ele>989</ele>
        <time>2021-09-26T10:42:15.000Z</time>
      </trkpt>
      <trkpt lat="40.13757884502410888671875" lon="-0.81958450376987457275390625">
        <ele>989</ele>
        <time>2021-09-26T10:42:16.000Z</time>
      </trkpt>
      <trkpt lat="40.137522183358669281005859375" lon="-0.8195772953331470489501953125">
        <ele>989.20001220703125</ele>
        <time>2021-09-26T10:42:17.000Z</time>
      </trkpt>
      <trkpt lat="40.13740190304815769195556640625" lon="-0.81956966780126094818115234375">
        <ele>989.5999755859375</ele>
        <time>2021-09-26T10:42:19.000Z</time>
      </trkpt>
      <trkpt lat="40.13727910816669464111328125" lon="-0.8195637166500091552734375">
        <ele>988.5999755859375</ele>
        <time>2021-09-26T10:42:21.000Z</time>
      </trkpt>
      <trkpt lat="40.13715715147554874420166015625" lon="-0.81956262700259685516357421875">
        <ele>987.79998779296875</ele>
        <time>2021-09-26T10:42:23.000Z</time>
      </trkpt>
      <trkpt lat="40.13709629885852336883544921875" lon="-0.81956095062196254730224609375">
        <ele>987.20001220703125</ele>
        <time>2021-09-26T10:42:24.000Z</time>
      </trkpt>
      <trkpt lat="40.13703594915568828582763671875" lon="-0.81956170499324798583984375">
        <ele>987</ele>
        <time>2021-09-26T10:42:25.000Z</time>
      </trkpt>
      <trkpt lat="40.13691474683582782745361328125" lon="-0.8195717632770538330078125">
        <ele>986.5999755859375</ele>
        <time>2021-09-26T10:42:27.000Z</time>
      </trkpt>
      <trkpt lat="40.1367951370775699615478515625" lon="-0.8195856772363185882568359375">
        <ele>986.20001220703125</ele>
        <time>2021-09-26T10:42:29.000Z</time>
      </trkpt>
      <trkpt lat="40.13667552731931209564208984375" lon="-0.81960923038423061370849609375">
        <ele>985.5999755859375</ele>
        <time>2021-09-26T10:42:31.000Z</time>
      </trkpt>
      <trkpt lat="40.1366160996258258819580078125" lon="-0.81962331198155879974365234375">
        <ele>985.4000244140625</ele>
        <time>2021-09-26T10:42:32.000Z</time>
      </trkpt>
      <trkpt lat="40.13655700720846652984619140625" lon="-0.81963655538856983184814453125">
        <ele>985.20001220703125</ele>
        <time>2021-09-26T10:42:33.000Z</time>
      </trkpt>
      <trkpt lat="40.1364384032785892486572265625" lon="-0.81966823898255825042724609375">
        <ele>986</ele>
        <time>2021-09-26T10:42:35.000Z</time>
      </trkpt>
      <trkpt lat="40.13632164336740970611572265625" lon="-0.81970109604299068450927734375">
        <ele>986.5999755859375</ele>
        <time>2021-09-26T10:42:37.000Z</time>
      </trkpt>
      <trkpt lat="40.136205218732357025146484375" lon="-0.81973596476018428802490234375">
        <ele>987.20001220703125</ele>
        <time>2021-09-26T10:42:39.000Z</time>
      </trkpt>
      <trkpt lat="40.1360887102782726287841796875" lon="-0.8197684027254581451416015625">
        <ele>987.5999755859375</ele>
        <time>2021-09-26T10:42:41.000Z</time>
      </trkpt>
      <trkpt lat="40.13603188097476959228515625" lon="-0.81978424452245235443115234375">
        <ele>987.79998779296875</ele>
        <time>2021-09-26T10:42:42.000Z</time>
      </trkpt>
      <trkpt lat="40.1359740458428859710693359375" lon="-0.81979949958622455596923828125">
        <ele>987.5999755859375</ele>
        <time>2021-09-26T10:42:43.000Z</time>
      </trkpt>
      <trkpt lat="40.135857202112674713134765625" lon="-0.819825567305088043212890625">
        <ele>987</ele>
        <time>2021-09-26T10:42:45.000Z</time>
      </trkpt>
      <trkpt lat="40.13574060983955860137939453125" lon="-0.81985808908939361572265625">
        <ele>986.4000244140625</ele>
        <time>2021-09-26T10:42:47.000Z</time>
      </trkpt>
      <trkpt lat="40.135678164660930633544921875" lon="-0.81987493671476840972900390625">
        <ele>986.20001220703125</ele>
        <time>2021-09-26T10:42:48.000Z</time>
      </trkpt>
      <trkpt lat="40.1356153003871440887451171875" lon="-0.8198921196162700653076171875">
        <ele>986</ele>
        <time>2021-09-26T10:42:49.000Z</time>
      </trkpt>
      <trkpt lat="40.13555251993238925933837890625" lon="-0.81990905106067657470703125">
        <ele>985.79998779296875</ele>
        <time>2021-09-26T10:42:50.000Z</time>
      </trkpt>
      <trkpt lat="40.13549007475376129150390625" lon="-0.81992640160024166107177734375">
        <ele>985.5999755859375</ele>
        <time>2021-09-26T10:42:51.000Z</time>
      </trkpt>
      <trkpt lat="40.13542838394641876220703125" lon="-0.81994266249239444732666015625">
        <ele>985.5999755859375</ele>
        <time>2021-09-26T10:42:52.000Z</time>
      </trkpt>
      <trkpt lat="40.135369710624217987060546875" lon="-0.81995992921292781829833984375">
        <ele>986</ele>
        <time>2021-09-26T10:42:53.000Z</time>
      </trkpt>
      <trkpt lat="40.13524733483791351318359375" lon="-0.8199957199394702911376953125">
        <ele>986.79998779296875</ele>
        <time>2021-09-26T10:42:55.000Z</time>
      </trkpt>
      <trkpt lat="40.13512663543224334716796875" lon="-0.82002572715282440185546875">
        <ele>987.5999755859375</ele>
        <time>2021-09-26T10:42:57.000Z</time>
      </trkpt>
      <trkpt lat="40.135004930198192596435546875" lon="-0.8200585842132568359375">
        <ele>989</ele>
        <time>2021-09-26T10:42:59.000Z</time>
      </trkpt>
      <trkpt lat="40.13488464988768100738525390625" lon="-0.820090435445308685302734375">
        <ele>990</ele>
        <time>2021-09-26T10:43:01.000Z</time>
      </trkpt>
      <trkpt lat="40.1347673870623111724853515625" lon="-0.82012438215315341949462890625">
        <ele>990.5999755859375</ele>
        <time>2021-09-26T10:43:03.000Z</time>
      </trkpt>
      <trkpt lat="40.13464987277984619140625" lon="-0.8201543055474758148193359375">
        <ele>991.20001220703125</ele>
        <time>2021-09-26T10:43:05.000Z</time>
      </trkpt>
      <trkpt lat="40.13452741317451000213623046875" lon="-0.8201831392943859100341796875">
        <ele>991.4000244140625</ele>
        <time>2021-09-26T10:43:07.000Z</time>
      </trkpt>
      <trkpt lat="40.13446438126266002655029296875" lon="-0.82019730471074581146240234375">
        <ele>991.20001220703125</ele>
        <time>2021-09-26T10:43:08.000Z</time>
      </trkpt>
      <trkpt lat="40.13440243899822235107421875" lon="-0.82021239213645458221435546875">
        <ele>991</ele>
        <time>2021-09-26T10:43:09.000Z</time>
      </trkpt>
      <trkpt lat="40.1342802308499813079833984375" lon="-0.82024323754012584686279296875">
        <ele>990.4000244140625</ele>
        <time>2021-09-26T10:43:11.000Z</time>
      </trkpt>
      <trkpt lat="40.13415726833045482635498046875" lon="-0.82027592696249485015869140625">
        <ele>989.4000244140625</ele>
        <time>2021-09-26T10:43:13.000Z</time>
      </trkpt>
      <trkpt lat="40.1340358145534992218017578125" lon="-0.82030811347067356109619140625">
        <ele>988.4000244140625</ele>
        <time>2021-09-26T10:43:15.000Z</time>
      </trkpt>
      <trkpt lat="40.1339184679090976715087890625" lon="-0.8203356899321079254150390625">
        <ele>986.79998779296875</ele>
        <time>2021-09-26T10:43:17.000Z</time>
      </trkpt>
      <trkpt lat="40.13385803438723087310791015625" lon="-0.82035086117684841156005859375">
        <ele>986</ele>
        <time>2021-09-26T10:43:18.000Z</time>
      </trkpt>
      <trkpt lat="40.13379952870309352874755859375" lon="-0.82036745734512805938720703125">
        <ele>985.20001220703125</ele>
        <time>2021-09-26T10:43:19.000Z</time>
      </trkpt>
      <trkpt lat="40.1336800865828990936279296875" lon="-0.82040417008101940155029296875">
        <ele>984</ele>
        <time>2021-09-26T10:43:21.000Z</time>
      </trkpt>
      <trkpt lat="40.13356198556721210479736328125" lon="-0.82043350674211978912353515625">
        <ele>982.5999755859375</ele>
        <time>2021-09-26T10:43:23.000Z</time>
      </trkpt>
      <trkpt lat="40.13350247405469417572021484375" lon="-0.82044524140655994415283203125">
        <ele>982</ele>
        <time>2021-09-26T10:43:24.000Z</time>
      </trkpt>
      <trkpt lat="40.1334400288760662078857421875" lon="-0.82045731134712696075439453125">
        <ele>981.5999755859375</ele>
        <time>2021-09-26T10:43:25.000Z</time>
      </trkpt>
      <trkpt lat="40.13331237249076366424560546875" lon="-0.82048413343727588653564453125">
        <ele>982</ele>
        <time>2021-09-26T10:43:27.000Z</time>
      </trkpt>
      <trkpt lat="40.13317910023033618927001953125" lon="-0.8205046691000461578369140625">
        <ele>982.4000244140625</ele>
        <time>2021-09-26T10:43:29.000Z</time>
      </trkpt>
      <trkpt lat="40.13311087153851985931396484375" lon="-0.8205086924135684967041015625">
        <ele>982.5999755859375</ele>
        <time>2021-09-26T10:43:30.000Z</time>
      </trkpt>
      <trkpt lat="40.13304029591381549835205078125" lon="-0.8205103687942028045654296875">
        <ele>982.5999755859375</ele>
        <time>2021-09-26T10:43:31.000Z</time>
      </trkpt>
      <trkpt lat="40.1329694688320159912109375" lon="-0.82050986588001251220703125">
        <ele>982.5999755859375</ele>
        <time>2021-09-26T10:43:32.000Z</time>
      </trkpt>
      <trkpt lat="40.13289864175021648406982421875" lon="-0.82050860859453678131103515625">
        <ele>981.79998779296875</ele>
        <time>2021-09-26T10:43:33.000Z</time>
      </trkpt>
      <trkpt lat="40.13275564648211002349853515625" lon="-0.82049989141523838043212890625">
        <ele>979.79998779296875</ele>
        <time>2021-09-26T10:43:35.000Z</time>
      </trkpt>
      <trkpt lat="40.1326127350330352783203125" lon="-0.82048212178051471710205078125">
        <ele>978.5999755859375</ele>
        <time>2021-09-26T10:43:37.000Z</time>
      </trkpt>
      <trkpt lat="40.1324734278023242950439453125" lon="-0.82044926472008228302001953125">
        <ele>977.79998779296875</ele>
        <time>2021-09-26T10:43:39.000Z</time>
      </trkpt>
      <trkpt lat="40.1323391497135162353515625" lon="-0.82040836103260517120361328125">
        <ele>977.4000244140625</ele>
        <time>2021-09-26T10:43:41.000Z</time>
      </trkpt>
      <trkpt lat="40.13221417553722858428955078125" lon="-0.820361338555812835693359375">
        <ele>977.5999755859375</ele>
        <time>2021-09-26T10:43:43.000Z</time>
      </trkpt>
      <trkpt lat="40.1321022771298885345458984375" lon="-0.82030358724296092987060546875">
        <ele>977.5999755859375</ele>
        <time>2021-09-26T10:43:45.000Z</time>
      </trkpt>
      <trkpt lat="40.1319933123886585235595703125" lon="-0.82024323754012584686279296875">
        <ele>977.20001220703125</ele>
        <time>2021-09-26T10:43:47.000Z</time>
      </trkpt>
      <trkpt lat="40.13188962824642658233642578125" lon="-0.8201663754880428314208984375">
        <ele>976.5999755859375</ele>
        <time>2021-09-26T10:43:49.000Z</time>
      </trkpt>
      <trkpt lat="40.13179088942706584930419921875" lon="-0.82008096389472484588623046875">
        <ele>976.20001220703125</ele>
        <time>2021-09-26T10:43:51.000Z</time>
      </trkpt>
      <trkpt lat="40.131691731512546539306640625" lon="-0.819989852607250213623046875">
        <ele>976.20001220703125</ele>
        <time>2021-09-26T10:43:53.000Z</time>
      </trkpt>
      <trkpt lat="40.1315970160067081451416015625" lon="-0.8198884315788745880126953125">
        <ele>976.20001220703125</ele>
        <time>2021-09-26T10:43:55.000Z</time>
      </trkpt>
      <trkpt lat="40.131507329642772674560546875" lon="-0.81977485679090023040771484375">
        <ele>975.5999755859375</ele>
        <time>2021-09-26T10:43:57.000Z</time>
      </trkpt>
      <trkpt lat="40.13142409734427928924560546875" lon="-0.8196570910513401031494140625">
        <ele>974.4000244140625</ele>
        <time>2021-09-26T10:43:59.000Z</time>
      </trkpt>
      <trkpt lat="40.1313435472548007965087890625" lon="-0.81952675245702266693115234375">
        <ele>973.20001220703125</ele>
        <time>2021-09-26T10:44:01.000Z</time>
      </trkpt>
      <trkpt lat="40.1312664337456226348876953125" lon="-0.8193831704556941986083984375">
        <ele>972.4000244140625</ele>
        <time>2021-09-26T10:44:03.000Z</time>
      </trkpt>
      <trkpt lat="40.13122879900038242340087890625" lon="-0.81930513493716716766357421875">
        <ele>972.20001220703125</ele>
        <time>2021-09-26T10:44:04.000Z</time>
      </trkpt>
      <trkpt lat="40.13119225390255451202392578125" lon="-0.81922642886638641357421875">
        <ele>972.4000244140625</ele>
        <time>2021-09-26T10:44:05.000Z</time>
      </trkpt>
      <trkpt lat="40.13115922920405864715576171875" lon="-0.81914755515754222869873046875">
        <ele>972.4000244140625</ele>
        <time>2021-09-26T10:44:06.000Z</time>
      </trkpt>
      <trkpt lat="40.1311293058097362518310546875" lon="-0.81906524486839771270751953125">
        <ele>972.5999755859375</ele>
        <time>2021-09-26T10:44:07.000Z</time>
      </trkpt>
      <trkpt lat="40.13107306323945522308349609375" lon="-0.818904228508472442626953125">
        <ele>972.4000244140625</ele>
        <time>2021-09-26T10:44:09.000Z</time>
      </trkpt>
      <trkpt lat="40.1310464926064014434814453125" lon="-0.8188235945999622344970703125">
        <ele>972.5999755859375</ele>
        <time>2021-09-26T10:44:10.000Z</time>
      </trkpt>
      <trkpt lat="40.1310246996581554412841796875" lon="-0.8187401108443737030029296875">
        <ele>972.79998779296875</ele>
        <time>2021-09-26T10:44:11.000Z</time>
      </trkpt>
      <trkpt lat="40.13098656199872493743896484375" lon="-0.818568952381610870361328125">
        <ele>971.79998779296875</ele>
        <time>2021-09-26T10:44:13.000Z</time>
      </trkpt>
      <trkpt lat="40.13096091337502002716064453125" lon="-0.8183867298066616058349609375">
        <ele>969.79998779296875</ele>
        <time>2021-09-26T10:44:15.000Z</time>
      </trkpt>
      <trkpt lat="40.13095202855765819549560546875" lon="-0.8182948641479015350341796875">
        <ele>968.5999755859375</ele>
        <time>2021-09-26T10:44:16.000Z</time>
      </trkpt>
      <trkpt lat="40.13094314374029636383056640625" lon="-0.81820174120366573333740234375">
        <ele>967.4000244140625</ele>
        <time>2021-09-26T10:44:17.000Z</time>
      </trkpt>
      <trkpt lat="40.13093526475131511688232421875" lon="-0.81801784224808216094970703125">
        <ele>965.5999755859375</ele>
        <time>2021-09-26T10:44:19.000Z</time>
      </trkpt>
      <trkpt lat="40.1309381984174251556396484375" lon="-0.8178419061005115509033203125">
        <ele>964.5999755859375</ele>
        <time>2021-09-26T10:44:21.000Z</time>
      </trkpt>
      <trkpt lat="40.13094951398670673370361328125" lon="-0.81767032854259014129638671875">
        <ele>965.20001220703125</ele>
        <time>2021-09-26T10:44:23.000Z</time>
      </trkpt>
      <trkpt lat="40.1309712231159210205078125" lon="-0.8175076358020305633544921875">
        <ele>965.4000244140625</ele>
        <time>2021-09-26T10:44:25.000Z</time>
      </trkpt>
      <trkpt lat="40.13099662028253078460693359375" lon="-0.8173534087836742401123046875">
        <ele>965.79998779296875</ele>
        <time>2021-09-26T10:44:27.000Z</time>
      </trkpt>
      <trkpt lat="40.13101975433528423309326171875" lon="-0.81719809211790561676025390625">
        <ele>967.20001220703125</ele>
        <time>2021-09-26T10:44:29.000Z</time>
      </trkpt>
      <trkpt lat="40.13104431331157684326171875" lon="-0.81704118289053440093994140625">
        <ele>968.5999755859375</ele>
        <time>2021-09-26T10:44:31.000Z</time>
      </trkpt>
      <trkpt lat="40.13107742182910442352294921875" lon="-0.81689081154763698577880859375">
        <ele>969.79998779296875</ele>
        <time>2021-09-26T10:44:33.000Z</time>
      </trkpt>
      <trkpt lat="40.1311068423092365264892578125" lon="-0.81674882210791110992431640625">
        <ele>970.79998779296875</ele>
        <time>2021-09-26T10:44:35.000Z</time>
      </trkpt>
      <trkpt lat="40.131136514246463775634765625" lon="-0.816617310047149658203125">
        <ele>972.4000244140625</ele>
        <time>2021-09-26T10:44:37.000Z</time>
      </trkpt>
      <trkpt lat="40.13114967383444309234619140625" lon="-0.81655352376401424407958984375">
        <ele>973</ele>
        <time>2021-09-26T10:44:38.000Z</time>
      </trkpt>
      <trkpt lat="40.13116342015564441680908203125" lon="-0.81649183295667171478271484375">
        <ele>973.4000244140625</ele>
        <time>2021-09-26T10:44:39.000Z</time>
      </trkpt>
      <trkpt lat="40.13119091279804706573486328125" lon="-0.81637398339807987213134765625">
        <ele>975.20001220703125</ele>
        <time>2021-09-26T10:44:41.000Z</time>
      </trkpt>
      <trkpt lat="40.13121664524078369140625" lon="-0.8162600733339786529541015625">
        <ele>976.79998779296875</ele>
        <time>2021-09-26T10:44:43.000Z</time>
      </trkpt>
      <trkpt lat="40.13124640099704265594482421875" lon="-0.8161433972418308258056640625">
        <ele>978.5999755859375</ele>
        <time>2021-09-26T10:44:45.000Z</time>
      </trkpt>
      <trkpt lat="40.13127523474395275115966796875" lon="-0.8160156570374965667724609375">
        <ele>980.5999755859375</ele>
        <time>2021-09-26T10:44:47.000Z</time>
      </trkpt>
      <trkpt lat="40.13130582869052886962890625" lon="-0.81588707864284515380859375">
        <ele>983</ele>
        <time>2021-09-26T10:44:49.000Z</time>
      </trkpt>
      <trkpt lat="40.13133927248418331146240234375" lon="-0.81575992517173290252685546875">
        <ele>986</ele>
        <time>2021-09-26T10:44:51.000Z</time>
      </trkpt>
      <trkpt lat="40.13136911205947399139404296875" lon="-0.8156401477754116058349609375">
        <ele>988.79998779296875</ele>
        <time>2021-09-26T10:44:53.000Z</time>
      </trkpt>
      <trkpt lat="40.131395347416400909423828125" lon="-0.81552523188292980194091796875">
        <ele>990.79998779296875</ele>
        <time>2021-09-26T10:44:55.000Z</time>
      </trkpt>
      <trkpt lat="40.13142325915396213531494140625" lon="-0.81541559658944606781005859375">
        <ele>993.4000244140625</ele>
        <time>2021-09-26T10:44:57.000Z</time>
      </trkpt>
      <trkpt lat="40.13145158998668193817138671875" lon="-0.8153070509433746337890625">
        <ele>995.79998779296875</ele>
        <time>2021-09-26T10:44:59.000Z</time>
      </trkpt>
      <trkpt lat="40.1314803399145603179931640625" lon="-0.81521107815206050872802734375">
        <ele>997.79998779296875</ele>
        <time>2021-09-26T10:45:01.000Z</time>
      </trkpt>
      <trkpt lat="40.13150070793926715850830078125" lon="-0.8151275105774402618408203125">
        <ele>999.5999755859375</ele>
        <time>2021-09-26T10:45:03.000Z</time>
      </trkpt>
      <trkpt lat="40.1325049437582492828369140625" lon="-0.81116915680468082427978515625">
        <ele>992</ele>
        <time>2021-09-26T10:46:10.000Z</time>
      </trkpt>
      <trkpt lat="40.13253000564873218536376953125" lon="-0.8111082203686237335205078125">
        <ele>991</ele>
        <time>2021-09-26T10:46:11.000Z</time>
      </trkpt>
      <trkpt lat="40.132544673979282379150390625" lon="-0.8110612817108631134033203125">
        <ele>990.4000244140625</ele>
        <time>2021-09-26T10:46:12.000Z</time>
      </trkpt>
      <trkpt lat="40.13257124461233615875244140625" lon="-0.81097771413624286651611328125">
        <ele>989.79998779296875</ele>
        <time>2021-09-26T10:46:14.000Z</time>
      </trkpt>
      <trkpt lat="40.1325887627899646759033203125" lon="-0.8108933083713054656982421875">
        <ele>989</ele>
        <time>2021-09-26T10:46:16.000Z</time>
      </trkpt>
      <trkpt lat="40.13261164538562297821044921875" lon="-0.8107964135706424713134765625">
        <ele>988</ele>
        <time>2021-09-26T10:46:18.000Z</time>
      </trkpt>
      <trkpt lat="40.13263444416224956512451171875" lon="-0.8106981776654720306396484375">
        <ele>987</ele>
        <time>2021-09-26T10:46:20.000Z</time>
      </trkpt>
      <trkpt lat="40.1326427422463893890380859375" lon="-0.8106453716754913330078125">
        <ele>986.5999755859375</ele>
        <time>2021-09-26T10:46:21.000Z</time>
      </trkpt>
      <trkpt lat="40.13265389017760753631591796875" lon="-0.81058862619102001190185546875">
        <ele>986</ele>
        <time>2021-09-26T10:46:22.000Z</time>
      </trkpt>
      <trkpt lat="40.13268054462969303131103515625" lon="-0.810467340052127838134765625">
        <ele>984.79998779296875</ele>
        <time>2021-09-26T10:46:24.000Z</time>
      </trkpt>
      <trkpt lat="40.13270518742501735687255859375" lon="-0.81034471280872821807861328125">
        <ele>984.20001220703125</ele>
        <time>2021-09-26T10:46:26.000Z</time>
      </trkpt>
      <trkpt lat="40.1327168382704257965087890625" lon="-0.81028352491557598114013671875">
        <ele>984.20001220703125</ele>
        <time>2021-09-26T10:46:27.000Z</time>
      </trkpt>
      <trkpt lat="40.132728405296802520751953125" lon="-0.8102215826511383056640625">
        <ele>984.20001220703125</ele>
        <time>2021-09-26T10:46:28.000Z</time>
      </trkpt>
      <trkpt lat="40.1327580772340297698974609375" lon="-0.810093171894550323486328125">
        <ele>984.20001220703125</ele>
        <time>2021-09-26T10:46:30.000Z</time>
      </trkpt>
      <trkpt lat="40.13279177248477935791015625" lon="-0.809957049787044525146484375">
        <ele>984.4000244140625</ele>
        <time>2021-09-26T10:46:32.000Z</time>
      </trkpt>
      <trkpt lat="40.13282404281198978424072265625" lon="-0.8098123781383037567138671875">
        <ele>984</ele>
        <time>2021-09-26T10:46:34.000Z</time>
      </trkpt>
      <trkpt lat="40.132857821881771087646484375" lon="-0.809664018452167510986328125">
        <ele>983.20001220703125</ele>
        <time>2021-09-26T10:46:36.000Z</time>
      </trkpt>
      <trkpt lat="40.13289394788444042205810546875" lon="-0.8095153234899044036865234375">
        <ele>983</ele>
        <time>2021-09-26T10:46:38.000Z</time>
      </trkpt>
      <trkpt lat="40.13292630203068256378173828125" lon="-0.8093698136508464813232421875">
        <ele>982.4000244140625</ele>
        <time>2021-09-26T10:46:40.000Z</time>
      </trkpt>
      <trkpt lat="40.13294273056089878082275390625" lon="-0.80929932184517383575439453125">
        <ele>982.20001220703125</ele>
        <time>2021-09-26T10:46:41.000Z</time>
      </trkpt>
      <trkpt lat="40.1329595781862735748291015625" lon="-0.80922941677272319793701171875">
        <ele>981.79998779296875</ele>
        <time>2021-09-26T10:46:42.000Z</time>
      </trkpt>
      <trkpt lat="40.13299235142767429351806640625" lon="-0.8090968988835811614990234375">
        <ele>981.20001220703125</ele>
        <time>2021-09-26T10:46:44.000Z</time>
      </trkpt>
      <trkpt lat="40.1330222748219966888427734375" lon="-0.80896773375570774078369140625">
        <ele>980.5999755859375</ele>
        <time>2021-09-26T10:46:46.000Z</time>
      </trkpt>
      <trkpt lat="40.1330541260540485382080078125" lon="-0.8088330365717411041259765625">
        <ele>979.79998779296875</ele>
        <time>2021-09-26T10:46:48.000Z</time>
      </trkpt>
      <trkpt lat="40.1330863125622272491455078125" lon="-0.80869280733168125152587890625">
        <ele>979.4000244140625</ele>
        <time>2021-09-26T10:46:50.000Z</time>
      </trkpt>
      <trkpt lat="40.13312076218426227569580078125" lon="-0.8085517399013042449951171875">
        <ele>978.5999755859375</ele>
        <time>2021-09-26T10:46:52.000Z</time>
      </trkpt>
      <trkpt lat="40.13315864838659763336181640625" lon="-0.80840564332902431488037109375">
        <ele>978</ele>
        <time>2021-09-26T10:46:54.000Z</time>
      </trkpt>
      <trkpt lat="40.13319586403667926788330078125" lon="-0.80825082957744598388671875">
        <ele>978</ele>
        <time>2021-09-26T10:46:56.000Z</time>
      </trkpt>
      <trkpt lat="40.133238025009632110595703125" lon="-0.80808813683688640594482421875">
        <ele>977.79998779296875</ele>
        <time>2021-09-26T10:46:58.000Z</time>
      </trkpt>
      <trkpt lat="40.13327985070645809173583984375" lon="-0.80792519263923168182373046875">
        <ele>977.5999755859375</ele>
        <time>2021-09-26T10:47:00.000Z</time>
      </trkpt>
      <trkpt lat="40.13331949710845947265625" lon="-0.80776107497513294219970703125">
        <ele>977</ele>
        <time>2021-09-26T10:47:02.000Z</time>
      </trkpt>
      <trkpt lat="40.13334095478057861328125" lon="-0.80767842940986156463623046875">
        <ele>976.79998779296875</ele>
        <time>2021-09-26T10:47:03.000Z</time>
      </trkpt>
      <trkpt lat="40.1333635859191417694091796875" lon="-0.80759494565427303314208984375">
        <ele>976.5999755859375</ele>
        <time>2021-09-26T10:47:04.000Z</time>
      </trkpt>
      <trkpt lat="40.13340474106371402740478515625" lon="-0.8074258826673030853271484375">
        <ele>975.4000244140625</ele>
        <time>2021-09-26T10:47:06.000Z</time>
      </trkpt>
      <trkpt lat="40.1334276236593723297119140625" lon="-0.80734365619719028472900390625">
        <ele>975.20001220703125</ele>
        <time>2021-09-26T10:47:07.000Z</time>
      </trkpt>
      <trkpt lat="40.1334507577121257781982421875" lon="-0.807264111936092376708984375">
        <ele>974.79998779296875</ele>
        <time>2021-09-26T10:47:08.000Z</time>
      </trkpt>
      <trkpt lat="40.13349425978958606719970703125" lon="-0.80710058100521564483642578125">
        <ele>974.20001220703125</ele>
        <time>2021-09-26T10:47:10.000Z</time>
      </trkpt>
      <trkpt lat="40.13353616930544376373291015625" lon="-0.8069256506860256195068359375">
        <ele>974</ele>
        <time>2021-09-26T10:47:12.000Z</time>
      </trkpt>
      <trkpt lat="40.13355528004467487335205078125" lon="-0.8068312704563140869140625">
        <ele>973.79998779296875</ele>
        <time>2021-09-26T10:47:13.000Z</time>
      </trkpt>
      <trkpt lat="40.13357388786971569061279296875" lon="-0.806735046207904815673828125">
        <ele>973.5999755859375</ele>
        <time>2021-09-26T10:47:14.000Z</time>
      </trkpt>
      <trkpt lat="40.133612863719463348388671875" lon="-0.806541256606578826904296875">
        <ele>973.4000244140625</ele>
        <time>2021-09-26T10:47:16.000Z</time>
      </trkpt>
      <trkpt lat="40.13364831916987895965576171875" lon="-0.8063484728336334228515625">
        <ele>971.20001220703125</ele>
        <time>2021-09-26T10:47:18.000Z</time>
      </trkpt>
      <trkpt lat="40.13367866165935993194580078125" lon="-0.80615602433681488037109375">
        <ele>970.20001220703125</ele>
        <time>2021-09-26T10:47:20.000Z</time>
      </trkpt>
      <trkpt lat="40.1337022148072719573974609375" lon="-0.80595695413649082183837890625">
        <ele>968.4000244140625</ele>
        <time>2021-09-26T10:47:22.000Z</time>
      </trkpt>
      <trkpt lat="40.13372140936553478240966796875" lon="-0.80576081760227680206298828125">
        <ele>966.79998779296875</ele>
        <time>2021-09-26T10:47:24.000Z</time>
      </trkpt>
      <trkpt lat="40.13374018482863903045654296875" lon="-0.80556191504001617431640625">
        <ele>966.20001220703125</ele>
        <time>2021-09-26T10:47:26.000Z</time>
      </trkpt>
      <trkpt lat="40.13375007547438144683837890625" lon="-0.8053511939942836761474609375">
        <ele>966</ele>
        <time>2021-09-26T10:47:28.000Z</time>
      </trkpt>
      <trkpt lat="40.1337471418082714080810546875" lon="-0.80513552762567996978759765625">
        <ele>965.20001220703125</ele>
        <time>2021-09-26T10:47:30.000Z</time>
      </trkpt>
      <trkpt lat="40.13373532332479953765869140625" lon="-0.80491776578128337860107421875">
        <ele>965.4000244140625</ele>
        <time>2021-09-26T10:47:32.000Z</time>
      </trkpt>
      <trkpt lat="40.13372023589909076690673828125" lon="-0.80469799228012561798095703125">
        <ele>965</ele>
        <time>2021-09-26T10:47:34.000Z</time>
      </trkpt>
      <trkpt lat="40.133696012198925018310546875" lon="-0.80447754822671413421630859375">
        <ele>964.5999755859375</ele>
        <time>2021-09-26T10:47:36.000Z</time>
      </trkpt>
      <trkpt lat="40.133659131824970245361328125" lon="-0.8042548410594463348388671875">
        <ele>965.4000244140625</ele>
        <time>2021-09-26T10:47:38.000Z</time>
      </trkpt>
      <trkpt lat="40.1336137019097805023193359375" lon="-0.804035402834415435791015625">
        <ele>966.79998779296875</ele>
        <time>2021-09-26T10:47:40.000Z</time>
      </trkpt>
      <trkpt lat="40.133558213710784912109375" lon="-0.80381956882774829864501953125">
        <ele>967.79998779296875</ele>
        <time>2021-09-26T10:47:42.000Z</time>
      </trkpt>
      <trkpt lat="40.1334953494369983673095703125" lon="-0.803604908287525177001953125">
        <ele>967.79998779296875</ele>
        <time>2021-09-26T10:47:44.000Z</time>
      </trkpt>
      <trkpt lat="40.13342821039259433746337890625" lon="-0.80339494161307811737060546875">
        <ele>967.20001220703125</ele>
        <time>2021-09-26T10:47:46.000Z</time>
      </trkpt>
      <trkpt lat="40.13339258730411529541015625" lon="-0.803293101489543914794921875">
        <ele>967</ele>
        <time>2021-09-26T10:47:47.000Z</time>
      </trkpt>
      <trkpt lat="40.1333538629114627838134765625" lon="-0.80319025553762912750244140625">
        <ele>966.79998779296875</ele>
        <time>2021-09-26T10:47:48.000Z</time>
      </trkpt>
      <trkpt lat="40.13326861895620822906494140625" lon="-0.80299663357436656951904296875">
        <ele>966.79998779296875</ele>
        <time>2021-09-26T10:47:50.000Z</time>
      </trkpt>
      <trkpt lat="40.13322494924068450927734375" lon="-0.8029003255069255828857421875">
        <ele>967</ele>
        <time>2021-09-26T10:47:51.000Z</time>
      </trkpt>
      <trkpt lat="40.1331791840493679046630859375" lon="-0.802804268896579742431640625">
        <ele>966.79998779296875</ele>
        <time>2021-09-26T10:47:52.000Z</time>
      </trkpt>
      <trkpt lat="40.13313266448676586151123046875" lon="-0.80271181650459766387939453125">
        <ele>966.4000244140625</ele>
        <time>2021-09-26T10:47:53.000Z</time>
      </trkpt>
      <trkpt lat="40.13308547437191009521484375" lon="-0.80261995084583759307861328125">
        <ele>966.5999755859375</ele>
        <time>2021-09-26T10:47:54.000Z</time>
      </trkpt>
      <trkpt lat="40.13303593732416629791259765625" lon="-0.8025318570435047149658203125">
        <ele>966.4000244140625</ele>
        <time>2021-09-26T10:47:55.000Z</time>
      </trkpt>
      <trkpt lat="40.13298757374286651611328125" lon="-0.80244678072631359100341796875">
        <ele>966.5999755859375</ele>
        <time>2021-09-26T10:47:56.000Z</time>
      </trkpt>
      <trkpt lat="40.132885314524173736572265625" lon="-0.80228132195770740509033203125">
        <ele>967.20001220703125</ele>
        <time>2021-09-26T10:47:58.000Z</time>
      </trkpt>
      <trkpt lat="40.132783390581607818603515625" lon="-0.80212893895804882049560546875">
        <ele>967</ele>
        <time>2021-09-26T10:48:00.000Z</time>
      </trkpt>
      <trkpt lat="40.1327265612781047821044921875" lon="-0.80205467529594898223876953125">
        <ele>967</ele>
        <time>2021-09-26T10:48:01.000Z</time>
      </trkpt>
      <trkpt lat="40.13267132453620433807373046875" lon="-0.801983177661895751953125">
        <ele>966.5999755859375</ele>
        <time>2021-09-26T10:48:02.000Z</time>
      </trkpt>
      <trkpt lat="40.1325548999011516571044921875" lon="-0.80183959566056728363037109375">
        <ele>965.20001220703125</ele>
        <time>2021-09-26T10:48:04.000Z</time>
      </trkpt>
      <trkpt lat="40.13243294321000576019287109375" lon="-0.80170799978077411651611328125">
        <ele>963.79998779296875</ele>
        <time>2021-09-26T10:48:06.000Z</time>
      </trkpt>
      <trkpt lat="40.13230905868113040924072265625" lon="-0.80158227123320102691650390625">
        <ele>963</ele>
        <time>2021-09-26T10:48:08.000Z</time>
      </trkpt>
      <trkpt lat="40.1322451047599315643310546875" lon="-0.80152141861617565155029296875">
        <ele>963</ele>
        <time>2021-09-26T10:48:09.000Z</time>
      </trkpt>
      <trkpt lat="40.13218131847679615020751953125" lon="-0.801462829113006591796875">
        <ele>963</ele>
        <time>2021-09-26T10:48:10.000Z</time>
      </trkpt>
      <trkpt lat="40.13205349445343017578125" lon="-0.801347158849239349365234375">
        <ele>963.20001220703125</ele>
        <time>2021-09-26T10:48:12.000Z</time>
      </trkpt>
      <trkpt lat="40.13192650862038135528564453125" lon="-0.8012343384325504302978515625">
        <ele>963.5999755859375</ele>
        <time>2021-09-26T10:48:14.000Z</time>
      </trkpt>
      <trkpt lat="40.131798349320888519287109375" lon="-0.8011273853480815887451171875">
        <ele>963.79998779296875</ele>
        <time>2021-09-26T10:48:16.000Z</time>
      </trkpt>
      <trkpt lat="40.13166918419301509857177734375" lon="-0.80101917497813701629638671875">
        <ele>963.4000244140625</ele>
        <time>2021-09-26T10:48:18.000Z</time>
      </trkpt>
      <trkpt lat="40.1316050626337528228759765625" lon="-0.8009641058743000030517578125">
        <ele>963.20001220703125</ele>
        <time>2021-09-26T10:48:19.000Z</time>
      </trkpt>
      <trkpt lat="40.131541192531585693359375" lon="-0.80091071315109729766845703125">
        <ele>963.20001220703125</ele>
        <time>2021-09-26T10:48:20.000Z</time>
      </trkpt>
      <trkpt lat="40.1314152963459491729736328125" lon="-0.800808705389499664306640625">
        <ele>963.5999755859375</ele>
        <time>2021-09-26T10:48:22.000Z</time>
      </trkpt>
      <trkpt lat="40.13128973543643951416015625" lon="-0.8006999082863330841064453125">
        <ele>963.4000244140625</ele>
        <time>2021-09-26T10:48:24.000Z</time>
      </trkpt>
      <trkpt lat="40.13116559945046901702880859375" lon="-0.8005924522876739501953125">
        <ele>963.79998779296875</ele>
        <time>2021-09-26T10:48:26.000Z</time>
      </trkpt>
      <trkpt lat="40.13104020617902278900146484375" lon="-0.8004873432219028472900390625">
        <ele>964.20001220703125</ele>
        <time>2021-09-26T10:48:28.000Z</time>
      </trkpt>
      <trkpt lat="40.13091296888887882232666015625" lon="-0.8003830723464488983154296875">
        <ele>964.4000244140625</ele>
        <time>2021-09-26T10:48:30.000Z</time>
      </trkpt>
      <trkpt lat="40.13078841380774974822998046875" lon="-0.800281651318073272705078125">
        <ele>964.5999755859375</ele>
        <time>2021-09-26T10:48:32.000Z</time>
      </trkpt>
      <trkpt lat="40.13066402636468410491943359375" lon="-0.80017578788101673126220703125">
        <ele>965.20001220703125</ele>
        <time>2021-09-26T10:48:34.000Z</time>
      </trkpt>
      <trkpt lat="40.13053997419774532318115234375" lon="-0.80006816424429416656494140625">
        <ele>965.5999755859375</ele>
        <time>2021-09-26T10:48:36.000Z</time>
      </trkpt>
      <trkpt lat="40.13041893951594829559326171875" lon="-0.79996473155915737152099609375">
        <ele>965.5999755859375</ele>
        <time>2021-09-26T10:48:38.000Z</time>
      </trkpt>
      <trkpt lat="40.13029622845351696014404296875" lon="-0.7998561859130859375">
        <ele>965.20001220703125</ele>
        <time>2021-09-26T10:48:40.000Z</time>
      </trkpt>
      <trkpt lat="40.1301704160869121551513671875" lon="-0.79974822700023651123046875">
        <ele>964.79998779296875</ele>
        <time>2021-09-26T10:48:42.000Z</time>
      </trkpt>
      <trkpt lat="40.1300433464348316192626953125" lon="-0.799640603363513946533203125">
        <ele>964.4000244140625</ele>
        <time>2021-09-26T10:48:44.000Z</time>
      </trkpt>
      <trkpt lat="40.1299166120588779449462890625" lon="-0.79953440465033054351806640625">
        <ele>964</ele>
        <time>2021-09-26T10:48:46.000Z</time>
      </trkpt>
      <trkpt lat="40.1297885365784168243408203125" lon="-0.799424685537815093994140625">
        <ele>962.4000244140625</ele>
        <time>2021-09-26T10:48:48.000Z</time>
      </trkpt>
      <trkpt lat="40.129724331200122833251953125" lon="-0.799369700253009796142578125">
        <ele>961.79998779296875</ele>
        <time>2021-09-26T10:48:49.000Z</time>
      </trkpt>
      <trkpt lat="40.1296596229076385498046875" lon="-0.79931379295885562896728515625">
        <ele>961.4000244140625</ele>
        <time>2021-09-26T10:48:50.000Z</time>
      </trkpt>
      <trkpt lat="40.12952626682817935943603515625" lon="-0.7992029003798961639404296875">
        <ele>960.5999755859375</ele>
        <time>2021-09-26T10:48:52.000Z</time>
      </trkpt>
      <trkpt lat="40.12939207255840301513671875" lon="-0.79908907413482666015625">
        <ele>961</ele>
        <time>2021-09-26T10:48:54.000Z</time>
      </trkpt>
      <trkpt lat="40.129258967936038970947265625" lon="-0.798974074423313140869140625">
        <ele>962.5999755859375</ele>
        <time>2021-09-26T10:48:56.000Z</time>
      </trkpt>
      <trkpt lat="40.12912712059915065765380859375" lon="-0.7988575659692287445068359375">
        <ele>963.4000244140625</ele>
        <time>2021-09-26T10:48:58.000Z</time>
      </trkpt>
      <trkpt lat="40.1289922557771205902099609375" lon="-0.798745416104793548583984375">
        <ele>964.4000244140625</ele>
        <time>2021-09-26T10:49:00.000Z</time>
      </trkpt>
      <trkpt lat="40.1288621686398983001708984375" lon="-0.798635445535182952880859375">
        <ele>963.4000244140625</ele>
        <time>2021-09-26T10:49:02.000Z</time>
      </trkpt>
      <trkpt lat="40.12873216532170772552490234375" lon="-0.7985243014991283416748046875">
        <ele>962</ele>
        <time>2021-09-26T10:49:04.000Z</time>
      </trkpt>
      <trkpt lat="40.12860224582254886627197265625" lon="-0.7984225451946258544921875">
        <ele>961</ele>
        <time>2021-09-26T10:49:06.000Z</time>
      </trkpt>
      <trkpt lat="40.1285382919013500213623046875" lon="-0.79837225377559661865234375">
        <ele>960.79998779296875</ele>
        <time>2021-09-26T10:49:07.000Z</time>
      </trkpt>
      <trkpt lat="40.12847299687564373016357421875" lon="-0.79831668175756931304931640625">
        <ele>960.5999755859375</ele>
        <time>2021-09-26T10:49:08.000Z</time>
      </trkpt>
      <trkpt lat="40.1283367909491062164306640625" lon="-0.79820059239864349365234375">
        <ele>960.5999755859375</ele>
        <time>2021-09-26T10:49:10.000Z</time>
      </trkpt>
      <trkpt lat="40.128198154270648956298828125" lon="-0.79808391630649566650390625">
        <ele>960.5999755859375</ele>
        <time>2021-09-26T10:49:12.000Z</time>
      </trkpt>
      <trkpt lat="40.12805742211639881134033203125" lon="-0.79796313308179378509521484375">
        <ele>959.79998779296875</ele>
        <time>2021-09-26T10:49:14.000Z</time>
      </trkpt>
      <trkpt lat="40.12791191227734088897705078125" lon="-0.7978416793048381805419921875">
        <ele>958.79998779296875</ele>
        <time>2021-09-26T10:49:16.000Z</time>
      </trkpt>
      <trkpt lat="40.1277661509811878204345703125" lon="-0.7977179624140262603759765625">
        <ele>958</ele>
        <time>2021-09-26T10:49:18.000Z</time>
      </trkpt>
      <trkpt lat="40.12761921621859073638916015625" lon="-0.79759349115192890167236328125">
        <ele>957.20001220703125</ele>
        <time>2021-09-26T10:49:20.000Z</time>
      </trkpt>
      <trkpt lat="40.12746884487569332122802734375" lon="-0.79746457748115062713623046875">
        <ele>957.4000244140625</ele>
        <time>2021-09-26T10:49:22.000Z</time>
      </trkpt>
      <trkpt lat="40.12732207775115966796875" lon="-0.7973380945622920989990234375">
        <ele>957.20001220703125</ele>
        <time>2021-09-26T10:49:24.000Z</time>
      </trkpt>
      <trkpt lat="40.12717748992145061492919921875" lon="-0.79721890389919281005859375">
        <ele>957.4000244140625</ele>
        <time>2021-09-26T10:49:26.000Z</time>
      </trkpt>
      <trkpt lat="40.1270305551588535308837890625" lon="-0.79710088670253753662109375">
        <ele>957.5999755859375</ele>
        <time>2021-09-26T10:49:28.000Z</time>
      </trkpt>
      <trkpt lat="40.126879177987575531005859375" lon="-0.7969833724200725555419921875">
        <ele>957.79998779296875</ele>
        <time>2021-09-26T10:49:30.000Z</time>
      </trkpt>
      <trkpt lat="40.126726627349853515625" lon="-0.79686778597533702850341796875">
        <ele>957.79998779296875</ele>
        <time>2021-09-26T10:49:32.000Z</time>
      </trkpt>
      <trkpt lat="40.12657105922698974609375" lon="-0.796755887567996978759765625">
        <ele>957</ele>
        <time>2021-09-26T10:49:34.000Z</time>
      </trkpt>
      <trkpt lat="40.1264126412570476531982421875" lon="-0.796647258102893829345703125">
        <ele>956.20001220703125</ele>
        <time>2021-09-26T10:49:36.000Z</time>
      </trkpt>
      <trkpt lat="40.12625229544937610626220703125" lon="-0.79654005356132984161376953125">
        <ele>955.79998779296875</ele>
        <time>2021-09-26T10:49:38.000Z</time>
      </trkpt>
      <trkpt lat="40.126090943813323974609375" lon="-0.79643175937235355377197265625">
        <ele>956.20001220703125</ele>
        <time>2021-09-26T10:49:40.000Z</time>
      </trkpt>
      <trkpt lat="40.125930011272430419921875" lon="-0.79632564447820186614990234375">
        <ele>956</ele>
        <time>2021-09-26T10:49:42.000Z</time>
      </trkpt>
      <trkpt lat="40.125769414007663726806640625" lon="-0.796216428279876708984375">
        <ele>955.20001220703125</ele>
        <time>2021-09-26T10:49:44.000Z</time>
      </trkpt>
      <trkpt lat="40.12560219503939151763916015625" lon="-0.79610419459640979766845703125">
        <ele>953.5999755859375</ele>
        <time>2021-09-26T10:49:46.000Z</time>
      </trkpt>
      <trkpt lat="40.12543774209916591644287109375" lon="-0.79599045217037200927734375">
        <ele>953.4000244140625</ele>
        <time>2021-09-26T10:49:48.000Z</time>
      </trkpt>
      <trkpt lat="40.12527647428214550018310546875" lon="-0.7958824932575225830078125">
        <ele>953.5999755859375</ele>
        <time>2021-09-26T10:49:50.000Z</time>
      </trkpt>
      <trkpt lat="40.12511302717030048370361328125" lon="-0.795781910419464111328125">
        <ele>954.20001220703125</ele>
        <time>2021-09-26T10:49:52.000Z</time>
      </trkpt>
      <trkpt lat="40.12495729140937328338623046875" lon="-0.795668922364711761474609375">
        <ele>953.4000244140625</ele>
        <time>2021-09-26T10:49:54.000Z</time>
      </trkpt>
      <trkpt lat="40.1248026452958583831787109375" lon="-0.7955497317016124725341796875">
        <ele>952.4000244140625</ele>
        <time>2021-09-26T10:49:56.000Z</time>
      </trkpt>
      <trkpt lat="40.12465721927583217620849609375" lon="-0.7954166270792484283447265625">
        <ele>951.4000244140625</ele>
        <time>2021-09-26T10:49:58.000Z</time>
      </trkpt>
      <trkpt lat="40.12452428229153156280517578125" lon="-0.79528125934302806854248046875">
        <ele>950.79998779296875</ele>
        <time>2021-09-26T10:50:00.000Z</time>
      </trkpt>
      <trkpt lat="40.124400816857814788818359375" lon="-0.79513616859912872314453125">
        <ele>950.79998779296875</ele>
        <time>2021-09-26T10:50:02.000Z</time>
      </trkpt>
      <trkpt lat="40.124286822974681854248046875" lon="-0.7949971966445446014404296875">
        <ele>950.79998779296875</ele>
        <time>2021-09-26T10:50:04.000Z</time>
      </trkpt>
      <trkpt lat="40.1241793669760227203369140625" lon="-0.79485612921416759490966796875">
        <ele>950.79998779296875</ele>
        <time>2021-09-26T10:50:06.000Z</time>
      </trkpt>
      <trkpt lat="40.124070905148983001708984375" lon="-0.79471481032669544219970703125">
        <ele>951</ele>
        <time>2021-09-26T10:50:08.000Z</time>
      </trkpt>
      <trkpt lat="40.1239611022174358367919921875" lon="-0.7945720665156841278076171875">
        <ele>952.20001220703125</ele>
        <time>2021-09-26T10:50:10.000Z</time>
      </trkpt>
      <trkpt lat="40.123852305114269256591796875" lon="-0.79443166963756084442138671875">
        <ele>953.5999755859375</ele>
        <time>2021-09-26T10:50:12.000Z</time>
      </trkpt>
      <trkpt lat="40.12374627403914928436279296875" lon="-0.7942911051213741302490234375">
        <ele>954.4000244140625</ele>
        <time>2021-09-26T10:50:14.000Z</time>
      </trkpt>
      <trkpt lat="40.1236399076879024505615234375" lon="-0.79415154643356800079345703125">
        <ele>954.5999755859375</ele>
        <time>2021-09-26T10:50:16.000Z</time>
      </trkpt>
      <trkpt lat="40.12353412806987762451171875" lon="-0.7940118201076984405517578125">
        <ele>954.20001220703125</ele>
        <time>2021-09-26T10:50:18.000Z</time>
      </trkpt>
      <trkpt lat="40.12348115444183349609375" lon="-0.793941579759120941162109375">
        <ele>954</ele>
        <time>2021-09-26T10:50:19.000Z</time>
      </trkpt>
      <trkpt lat="40.123425833880901336669921875" lon="-0.793873853981494903564453125">
        <ele>954</ele>
        <time>2021-09-26T10:50:20.000Z</time>
      </trkpt>
      <trkpt lat="40.12331661768257617950439453125" lon="-0.79373815096914768218994140625">
        <ele>953.79998779296875</ele>
        <time>2021-09-26T10:50:22.000Z</time>
      </trkpt>
      <trkpt lat="40.12320958077907562255859375" lon="-0.79359767027199268341064453125">
        <ele>953.20001220703125</ele>
        <time>2021-09-26T10:50:24.000Z</time>
      </trkpt>
      <trkpt lat="40.12310363352298736572265625" lon="-0.7934572733938694000244140625">
        <ele>952.4000244140625</ele>
        <time>2021-09-26T10:50:26.000Z</time>
      </trkpt>
      <trkpt lat="40.12299944646656513214111328125" lon="-0.79332089982926845550537109375">
        <ele>952.4000244140625</ele>
        <time>2021-09-26T10:50:28.000Z</time>
      </trkpt>
      <trkpt lat="40.122950077056884765625" lon="-0.7932510785758495330810546875">
        <ele>952.4000244140625</ele>
        <time>2021-09-26T10:50:29.000Z</time>
      </trkpt>
      <trkpt lat="40.12289936654269695281982421875" lon="-0.79318142496049404144287109375">
        <ele>951.79998779296875</ele>
        <time>2021-09-26T10:50:30.000Z</time>
      </trkpt>
      <trkpt lat="40.12279492802917957305908203125" lon="-0.79304077662527561187744140625">
        <ele>950.79998779296875</ele>
        <time>2021-09-26T10:50:32.000Z</time>
      </trkpt>
      <trkpt lat="40.12268881313502788543701171875" lon="-0.7929033972322940826416015625">
        <ele>950.20001220703125</ele>
        <time>2021-09-26T10:50:34.000Z</time>
      </trkpt>
      <trkpt lat="40.1225800998508930206298828125" lon="-0.792769454419612884521484375">
        <ele>948.4000244140625</ele>
        <time>2021-09-26T10:50:36.000Z</time>
      </trkpt>
      <trkpt lat="40.1224758289754390716552734375" lon="-0.79263676889240741729736328125">
        <ele>947.20001220703125</ele>
        <time>2021-09-26T10:50:38.000Z</time>
      </trkpt>
      <trkpt lat="40.12242495082318782806396484375" lon="-0.7925724796950817108154296875">
        <ele>946.79998779296875</ele>
        <time>2021-09-26T10:50:39.000Z</time>
      </trkpt>
      <trkpt lat="40.12237608432769775390625" lon="-0.7925094477832317352294921875">
        <ele>946</ele>
        <time>2021-09-26T10:50:40.000Z</time>
      </trkpt>
      <trkpt lat="40.12228145264089107513427734375" lon="-0.7923827134072780609130859375">
        <ele>944.5999755859375</ele>
        <time>2021-09-26T10:50:42.000Z</time>
      </trkpt>
      <trkpt lat="40.12218874879181385040283203125" lon="-0.792251788079738616943359375">
        <ele>944.79998779296875</ele>
        <time>2021-09-26T10:50:44.000Z</time>
      </trkpt>
      <trkpt lat="40.1220979727804660797119140625" lon="-0.79212673008441925048828125">
        <ele>945.5999755859375</ele>
        <time>2021-09-26T10:50:46.000Z</time>
      </trkpt>
      <trkpt lat="40.12201742269098758697509765625" lon="-0.791996307671070098876953125">
        <ele>945.79998779296875</ele>
        <time>2021-09-26T10:50:48.000Z</time>
      </trkpt>
      <trkpt lat="40.12194651179015636444091796875" lon="-0.79186077229678630828857421875">
        <ele>946</ele>
        <time>2021-09-26T10:50:50.000Z</time>
      </trkpt>
      <trkpt lat="40.121886245906352996826171875" lon="-0.7917259074747562408447265625">
        <ele>947.20001220703125</ele>
        <time>2021-09-26T10:50:52.000Z</time>
      </trkpt>
      <trkpt lat="40.12183570303022861480712890625" lon="-0.7915871031582355499267578125">
        <ele>947.4000244140625</ele>
        <time>2021-09-26T10:50:54.000Z</time>
      </trkpt>
      <trkpt lat="40.12181256897747516632080078125" lon="-0.791513510048389434814453125">
        <ele>947.20001220703125</ele>
        <time>2021-09-26T10:50:55.000Z</time>
      </trkpt>
      <trkpt lat="40.12178977020084857940673828125" lon="-0.791439749300479888916015625">
        <ele>947.20001220703125</ele>
        <time>2021-09-26T10:50:56.000Z</time>
      </trkpt>
      <trkpt lat="40.12174668721854686737060546875" lon="-0.7912890426814556121826171875">
        <ele>947.4000244140625</ele>
        <time>2021-09-26T10:50:58.000Z</time>
      </trkpt>
      <trkpt lat="40.12171600945293903350830078125" lon="-0.79112936742603778839111328125">
        <ele>947.4000244140625</ele>
        <time>2021-09-26T10:51:00.000Z</time>
      </trkpt>
      <trkpt lat="40.12170226313173770904541015625" lon="-0.79104839824140071868896484375">
        <ele>947.4000244140625</ele>
        <time>2021-09-26T10:51:01.000Z</time>
      </trkpt>
      <trkpt lat="40.12168918736279010772705078125" lon="-0.7909671775996685028076171875">
        <ele>947.5999755859375</ele>
        <time>2021-09-26T10:51:02.000Z</time>
      </trkpt>
      <trkpt lat="40.12166337110102176666259765625" lon="-0.790812112390995025634765625">
        <ele>947.20001220703125</ele>
        <time>2021-09-26T10:51:04.000Z</time>
      </trkpt>
      <trkpt lat="40.12163621373474597930908203125" lon="-0.79066350124776363372802734375">
        <ele>946.79998779296875</ele>
        <time>2021-09-26T10:51:06.000Z</time>
      </trkpt>
      <trkpt lat="40.1216108165681362152099609375" lon="-0.79051472246646881103515625">
        <ele>946</ele>
        <time>2021-09-26T10:51:08.000Z</time>
      </trkpt>
      <trkpt lat="40.1215980760753154754638671875" lon="-0.79044205136597156524658203125">
        <ele>945.4000244140625</ele>
        <time>2021-09-26T10:51:09.000Z</time>
      </trkpt>
      <trkpt lat="40.12158625759184360504150390625" lon="-0.790368877351284027099609375">
        <ele>945</ele>
        <time>2021-09-26T10:51:10.000Z</time>
      </trkpt>
      <trkpt lat="40.12156345881521701812744140625" lon="-0.7902285642921924591064453125">
        <ele>945</ele>
        <time>2021-09-26T10:51:12.000Z</time>
      </trkpt>
      <trkpt lat="40.12153814546763896942138671875" lon="-0.7900907658040523529052734375">
        <ele>945.4000244140625</ele>
        <time>2021-09-26T10:51:14.000Z</time>
      </trkpt>
      <trkpt lat="40.12151719070971012115478515625" lon="-0.7899494469165802001953125">
        <ele>946.20001220703125</ele>
        <time>2021-09-26T10:51:16.000Z</time>
      </trkpt>
      <trkpt lat="40.121504366397857666015625" lon="-0.78988029621541500091552734375">
        <ele>946.5999755859375</ele>
        <time>2021-09-26T10:51:17.000Z</time>
      </trkpt>
      <trkpt lat="40.12149305082857608795166015625" lon="-0.78981173224747180938720703125">
        <ele>947</ele>
        <time>2021-09-26T10:51:18.000Z</time>
      </trkpt>
      <trkpt lat="40.121470503509044647216796875" lon="-0.789672844111919403076171875">
        <ele>947.79998779296875</ele>
        <time>2021-09-26T10:51:20.000Z</time>
      </trkpt>
      <trkpt lat="40.1214468665421009063720703125" lon="-0.789536051452159881591796875">
        <ele>948.5999755859375</ele>
        <time>2021-09-26T10:51:22.000Z</time>
      </trkpt>
      <trkpt lat="40.1214227266609668731689453125" lon="-0.789403282105922698974609375">
        <ele>949</ele>
        <time>2021-09-26T10:51:24.000Z</time>
      </trkpt>
      <trkpt lat="40.121402442455291748046875" lon="-0.78927160240709781646728515625">
        <ele>949.79998779296875</ele>
        <time>2021-09-26T10:51:26.000Z</time>
      </trkpt>
      <trkpt lat="40.1213794760406017303466796875" lon="-0.78914185054600238800048828125">
        <ele>951</ele>
        <time>2021-09-26T10:51:28.000Z</time>
      </trkpt>
      <trkpt lat="40.1213550008833408355712890625" lon="-0.78901343978941440582275390625">
        <ele>951.79998779296875</ele>
        <time>2021-09-26T10:51:30.000Z</time>
      </trkpt>
      <trkpt lat="40.12132608331739902496337890625" lon="-0.78889575786888599395751953125">
        <ele>952.5999755859375</ele>
        <time>2021-09-26T10:51:32.000Z</time>
      </trkpt>
      <trkpt lat="40.12131602503359317779541015625" lon="-0.788838677108287811279296875">
        <ele>952.79998779296875</ele>
        <time>2021-09-26T10:51:33.000Z</time>
      </trkpt>
      <trkpt lat="40.121305547654628753662109375" lon="-0.7887828536331653594970703125">
        <ele>952.79998779296875</ele>
        <time>2021-09-26T10:51:34.000Z</time>
      </trkpt>
      <trkpt lat="40.121284425258636474609375" lon="-0.7886688597500324249267578125">
        <ele>953</ele>
        <time>2021-09-26T10:51:36.000Z</time>
      </trkpt>
      <trkpt lat="40.12126003392040729522705078125" lon="-0.78854254446923732757568359375">
        <ele>953.79998779296875</ele>
        <time>2021-09-26T10:51:38.000Z</time>
      </trkpt>
      <trkpt lat="40.12124544940888881683349609375" lon="-0.78847867436707019805908203125">
        <ele>954</ele>
        <time>2021-09-26T10:51:39.000Z</time>
      </trkpt>
      <trkpt lat="40.12123388238251209259033203125" lon="-0.78841321170330047607421875">
        <ele>954</ele>
        <time>2021-09-26T10:51:40.000Z</time>
      </trkpt>
      <trkpt lat="40.12121208943426609039306640625" lon="-0.78828354366123676300048828125">
        <ele>953.5999755859375</ele>
        <time>2021-09-26T10:51:42.000Z</time>
      </trkpt>
      <trkpt lat="40.1211897097527980804443359375" lon="-0.78815974295139312744140625">
        <ele>953.4000244140625</ele>
        <time>2021-09-26T10:51:44.000Z</time>
      </trkpt>
      <trkpt lat="40.1211672462522983551025390625" lon="-0.78803904354572296142578125">
        <ele>953.4000244140625</ele>
        <time>2021-09-26T10:51:46.000Z</time>
      </trkpt>
      <trkpt lat="40.1211565174162387847900390625" lon="-0.78797928057610988616943359375">
        <ele>953.4000244140625</ele>
        <time>2021-09-26T10:51:47.000Z</time>
      </trkpt>
      <trkpt lat="40.121146626770496368408203125" lon="-0.7879181765019893646240234375">
        <ele>953.79998779296875</ele>
        <time>2021-09-26T10:51:48.000Z</time>
      </trkpt>
      <trkpt lat="40.121128521859645843505859375" lon="-0.78779253177344799041748046875">
        <ele>954.20001220703125</ele>
        <time>2021-09-26T10:51:50.000Z</time>
      </trkpt>
      <trkpt lat="40.12110647745430469512939453125" lon="-0.78768054954707622528076171875">
        <ele>954.20001220703125</ele>
        <time>2021-09-26T10:51:52.000Z</time>
      </trkpt>
      <trkpt lat="40.12108636088669300079345703125" lon="-0.78757460229098796844482421875">
        <ele>954.4000244140625</ele>
        <time>2021-09-26T10:51:54.000Z</time>
      </trkpt>
      <trkpt lat="40.12106557376682758331298828125" lon="-0.787470079958438873291015625">
        <ele>954.4000244140625</ele>
        <time>2021-09-26T10:51:56.000Z</time>
      </trkpt>
      <trkpt lat="40.12104847468435764312744140625" lon="-0.78735918737947940826416015625">
        <ele>954.5999755859375</ele>
        <time>2021-09-26T10:51:58.000Z</time>
      </trkpt>
      <trkpt lat="40.1210255920886993408203125" lon="-0.78725374303758144378662109375">
        <ele>954.79998779296875</ele>
        <time>2021-09-26T10:52:00.000Z</time>
      </trkpt>
      <trkpt lat="40.121015198528766632080078125" lon="-0.787204205989837646484375">
        <ele>955</ele>
        <time>2021-09-26T10:52:01.000Z</time>
      </trkpt>
      <trkpt lat="40.121003128588199615478515625" lon="-0.78715718351304531097412109375">
        <ele>955</ele>
        <time>2021-09-26T10:52:02.000Z</time>
      </trkpt>
      <trkpt lat="40.1209828443825244903564453125" lon="-0.78706146217882633209228515625">
        <ele>955</ele>
        <time>2021-09-26T10:52:04.000Z</time>
      </trkpt>
      <trkpt lat="40.12096599675714969635009765625" lon="-0.786968171596527099609375">
        <ele>955.4000244140625</ele>
        <time>2021-09-26T10:52:06.000Z</time>
      </trkpt>
      <trkpt lat="40.12094889767467975616455078125" lon="-0.78688108362257480621337890625">
        <ele>955.79998779296875</ele>
        <time>2021-09-26T10:52:08.000Z</time>
      </trkpt>
      <trkpt lat="40.1209412701427936553955078125" lon="-0.7868416048586368560791015625">
        <ele>955.79998779296875</ele>
        <time>2021-09-26T10:52:09.000Z</time>
      </trkpt>
      <trkpt lat="40.1209345646202564239501953125" lon="-0.78680547885596752166748046875">
        <ele>956</ele>
        <time>2021-09-26T10:52:10.000Z</time>
      </trkpt>
      <trkpt lat="40.12092324905097484588623046875" lon="-0.7867443747818470001220703125">
        <ele>956.4000244140625</ele>
        <time>2021-09-26T10:52:12.000Z</time>
      </trkpt>
      <trkpt lat="40.120919644832611083984375" lon="-0.7867202349007129669189453125">
        <ele>956.5999755859375</ele>
        <time>2021-09-26T10:52:13.000Z</time>
      </trkpt>
      <trkpt lat="40.12091604061424732208251953125" lon="-0.78671026043593883514404296875">
        <ele>956.79998779296875</ele>
        <time>2021-09-26T10:52:14.000Z</time>
      </trkpt>
      <trkpt lat="40.12091604061424732208251953125" lon="-0.78671026043593883514404296875">
        <ele>956.79998779296875</ele>
        <time>2021-09-26T10:52:15.000Z</time>
      </trkpt>
      <trkpt lat="40.12091696262359619140625" lon="-0.78659911639988422393798828125">
        <ele>958</ele>
        <time>2021-09-26T10:54:26.000Z</time>
      </trkpt>
      <trkpt lat="40.12091235257685184478759765625" lon="-0.78657112084329128265380859375">
        <ele>958.20001220703125</ele>
        <time>2021-09-26T10:54:27.000Z</time>
      </trkpt>
      <trkpt lat="40.12090380303561687469482421875" lon="-0.78654178418219089508056640625">
        <ele>958.4000244140625</ele>
        <time>2021-09-26T10:54:28.000Z</time>
      </trkpt>
      <trkpt lat="40.12089081108570098876953125" lon="-0.7864721305668354034423828125">
        <ele>959</ele>
        <time>2021-09-26T10:54:30.000Z</time>
      </trkpt>
      <trkpt lat="40.1208742149174213409423828125" lon="-0.78640549443662166595458984375">
        <ele>960</ele>
        <time>2021-09-26T10:54:32.000Z</time>
      </trkpt>
      <trkpt lat="40.12085770256817340850830078125" lon="-0.78634120523929595947265625">
        <ele>960.79998779296875</ele>
        <time>2021-09-26T10:54:34.000Z</time>
      </trkpt>
      <trkpt lat="40.1208520866930484771728515625" lon="-0.78630893491208553314208984375">
        <ele>961.20001220703125</ele>
        <time>2021-09-26T10:54:35.000Z</time>
      </trkpt>
      <trkpt lat="40.12084714137017726898193359375" lon="-0.7862775027751922607421875">
        <ele>961.4000244140625</ele>
        <time>2021-09-26T10:54:36.000Z</time>
      </trkpt>
      <trkpt lat="40.12083792127668857574462890625" lon="-0.786242969334125518798828125">
        <ele>961.79998779296875</ele>
        <time>2021-09-26T10:54:37.000Z</time>
      </trkpt>
      <trkpt lat="40.12083046138286590576171875" lon="-0.78620843589305877685546875">
        <ele>962.20001220703125</ele>
        <time>2021-09-26T10:54:38.000Z</time>
      </trkpt>
      <trkpt lat="40.12081931345164775848388671875" lon="-0.78617080114781856536865234375">
        <ele>962.5999755859375</ele>
        <time>2021-09-26T10:54:39.000Z</time>
      </trkpt>
      <trkpt lat="40.12080942280590534210205078125" lon="-0.78613056801259517669677734375">
        <ele>963</ele>
        <time>2021-09-26T10:54:40.000Z</time>
      </trkpt>
      <trkpt lat="40.1207873784005641937255859375" lon="-0.78604540787637233734130859375">
        <ele>963.79998779296875</ele>
        <time>2021-09-26T10:54:42.000Z</time>
      </trkpt>
      <trkpt lat="40.12076013721525669097900390625" lon="-0.7859641872346401214599609375">
        <ele>964.5999755859375</ele>
        <time>2021-09-26T10:54:44.000Z</time>
      </trkpt>
      <trkpt lat="40.12073113583028316497802734375" lon="-0.78588916920125484466552734375">
        <ele>965.20001220703125</ele>
        <time>2021-09-26T10:54:46.000Z</time>
      </trkpt>
      <trkpt lat="40.120703391730785369873046875" lon="-0.78581255860626697540283203125">
        <ele>965.5999755859375</ele>
        <time>2021-09-26T10:54:48.000Z</time>
      </trkpt>
      <trkpt lat="40.12067061848938465118408203125" lon="-0.785727314651012420654296875">
        <ele>966.20001220703125</ele>
        <time>2021-09-26T10:54:50.000Z</time>
      </trkpt>
      <trkpt lat="40.12063625268638134002685546875" lon="-0.7856453396379947662353515625">
        <ele>966.79998779296875</ele>
        <time>2021-09-26T10:54:52.000Z</time>
      </trkpt>
      <trkpt lat="40.12060071341693401336669921875" lon="-0.7855658791959285736083984375">
        <ele>967.20001220703125</ele>
        <time>2021-09-26T10:54:54.000Z</time>
      </trkpt>
      <trkpt lat="40.12056752108037471771240234375" lon="-0.78548616729676723480224609375">
        <ele>967.5999755859375</ele>
        <time>2021-09-26T10:54:56.000Z</time>
      </trkpt>
      <trkpt lat="40.12052946723997592926025390625" lon="-0.78540855087339878082275390625">
        <ele>967.79998779296875</ele>
        <time>2021-09-26T10:54:58.000Z</time>
      </trkpt>
      <trkpt lat="40.12049728073179721832275390625" lon="-0.78533001244068145751953125">
        <ele>968.20001220703125</ele>
        <time>2021-09-26T10:55:00.000Z</time>
      </trkpt>
      <trkpt lat="40.12046207673847675323486328125" lon="-0.78525365330278873443603515625">
        <ele>968.4000244140625</ele>
        <time>2021-09-26T10:55:02.000Z</time>
      </trkpt>
      <trkpt lat="40.12042335234582424163818359375" lon="-0.78517570160329341888427734375">
        <ele>968.79998779296875</ele>
        <time>2021-09-26T10:55:04.000Z</time>
      </trkpt>
      <trkpt lat="40.12038513086736202239990234375" lon="-0.78509422950446605682373046875">
        <ele>969</ele>
        <time>2021-09-26T10:55:06.000Z</time>
      </trkpt>
      <trkpt lat="40.12034707702696323394775390625" lon="-0.785020887851715087890625">
        <ele>969.4000244140625</ele>
        <time>2021-09-26T10:55:08.000Z</time>
      </trkpt>
      <trkpt lat="40.12030684389173984527587890625" lon="-0.78494251705706119537353515625">
        <ele>970</ele>
        <time>2021-09-26T10:55:10.000Z</time>
      </trkpt>
      <trkpt lat="40.120262838900089263916015625" lon="-0.78486456535756587982177734375">
        <ele>970</ele>
        <time>2021-09-26T10:55:12.000Z</time>
      </trkpt>
      <trkpt lat="40.1202177442610263824462890625" lon="-0.7847893796861171722412109375">
        <ele>970.20001220703125</ele>
        <time>2021-09-26T10:55:14.000Z</time>
      </trkpt>
      <trkpt lat="40.1201754994690418243408203125" lon="-0.78471033833920955657958984375">
        <ele>970</ele>
        <time>2021-09-26T10:55:16.000Z</time>
      </trkpt>
      <trkpt lat="40.1201268844306468963623046875" lon="-0.78463003970682621002197265625">
        <ele>970</ele>
        <time>2021-09-26T10:55:18.000Z</time>
      </trkpt>
      <trkpt lat="40.12007785029709339141845703125" lon="-0.7845459692180156707763671875">
        <ele>970</ele>
        <time>2021-09-26T10:55:20.000Z</time>
      </trkpt>
      <trkpt lat="40.12002638541162014007568359375" lon="-0.78445829451084136962890625">
        <ele>970</ele>
        <time>2021-09-26T10:55:22.000Z</time>
      </trkpt>
      <trkpt lat="40.1199682988226413726806640625" lon="-0.7843632437288761138916015625">
        <ele>970</ele>
        <time>2021-09-26T10:55:24.000Z</time>
      </trkpt>
      <trkpt lat="40.11993736959993839263916015625" lon="-0.7843142934143543243408203125">
        <ele>970</ele>
        <time>2021-09-26T10:55:25.000Z</time>
      </trkpt>
      <trkpt lat="40.11990685947239398956298828125" lon="-0.7842631638050079345703125">
        <ele>970</ele>
        <time>2021-09-26T10:55:26.000Z</time>
      </trkpt>
      <trkpt lat="40.1198522932827472686767578125" lon="-0.78416417352855205535888671875">
        <ele>969.79998779296875</ele>
        <time>2021-09-26T10:55:28.000Z</time>
      </trkpt>
      <trkpt lat="40.1197966374456882476806640625" lon="-0.784057639539241790771484375">
        <ele>969.4000244140625</ele>
        <time>2021-09-26T10:55:30.000Z</time>
      </trkpt>
      <trkpt lat="40.11973720975220203399658203125" lon="-0.78395026735961437225341796875">
        <ele>969</ele>
        <time>2021-09-26T10:55:32.000Z</time>
      </trkpt>
      <trkpt lat="40.119708292186260223388671875" lon="-0.78389595262706279754638671875">
        <ele>969</ele>
        <time>2021-09-26T10:55:33.000Z</time>
      </trkpt>
      <trkpt lat="40.119676776230335235595703125" lon="-0.7838382013142108917236328125">
        <ele>968.79998779296875</ele>
        <time>2021-09-26T10:55:34.000Z</time>
      </trkpt>
      <trkpt lat="40.11961047537624835968017578125" lon="-0.7837221957743167877197265625">
        <ele>968.20001220703125</ele>
        <time>2021-09-26T10:55:36.000Z</time>
      </trkpt>
      <trkpt lat="40.1195736788213253021240234375" lon="-0.78366436064243316650390625">
        <ele>967.5999755859375</ele>
        <time>2021-09-26T10:55:37.000Z</time>
      </trkpt>
      <trkpt lat="40.11953855864703655242919921875" lon="-0.78360493294894695281982421875">
        <ele>967.20001220703125</ele>
        <time>2021-09-26T10:55:38.000Z</time>
      </trkpt>
      <trkpt lat="40.11946278624236583709716796875" lon="-0.783476270735263824462890625">
        <ele>965.5999755859375</ele>
        <time>2021-09-26T10:55:40.000Z</time>
      </trkpt>
      <trkpt lat="40.1193832419812679290771484375" lon="-0.783337466418743133544921875">
        <ele>963.79998779296875</ele>
        <time>2021-09-26T10:55:42.000Z</time>
      </trkpt>
      <trkpt lat="40.11930068023502826690673828125" lon="-0.7831884361803531646728515625">
        <ele>961.5999755859375</ele>
        <time>2021-09-26T10:55:44.000Z</time>
      </trkpt>
      <trkpt lat="40.11925826780498027801513671875" lon="-0.7831096462905406951904296875">
        <ele>960.5999755859375</ele>
        <time>2021-09-26T10:55:45.000Z</time>
      </trkpt>
      <trkpt lat="40.11921082623302936553955078125" lon="-0.7830305211246013641357421875">
        <ele>959.79998779296875</ele>
        <time>2021-09-26T10:55:46.000Z</time>
      </trkpt>
      <trkpt lat="40.1191636361181735992431640625" lon="-0.78294946812093257904052734375">
        <ele>958.4000244140625</ele>
        <time>2021-09-26T10:55:47.000Z</time>
      </trkpt>
      <trkpt lat="40.1191180385649204254150390625" lon="-0.78286665491759777069091796875">
        <ele>956.79998779296875</ele>
        <time>2021-09-26T10:55:48.000Z</time>
      </trkpt>
      <trkpt lat="40.11902659200131893157958984375" lon="-0.7827012799680233001708984375">
        <ele>954.4000244140625</ele>
        <time>2021-09-26T10:55:50.000Z</time>
      </trkpt>
      <trkpt lat="40.11893020011484622955322265625" lon="-0.78253674320876598358154296875">
        <ele>953</ele>
        <time>2021-09-26T10:55:52.000Z</time>
      </trkpt>
      <trkpt lat="40.11883213184773921966552734375" lon="-0.7823683507740497589111328125">
        <ele>952.20001220703125</ele>
        <time>2021-09-26T10:55:54.000Z</time>
      </trkpt>
      <trkpt lat="40.11873297393321990966796875" lon="-0.7822000421583652496337890625">
        <ele>951</ele>
        <time>2021-09-26T10:55:56.000Z</time>
      </trkpt>
      <trkpt lat="40.1186379231512546539306640625" lon="-0.7820324040949344635009765625">
        <ele>950.20001220703125</ele>
        <time>2021-09-26T10:55:58.000Z</time>
      </trkpt>
      <trkpt lat="40.1185453869402408599853515625" lon="-0.78186920844018459320068359375">
        <ele>949.79998779296875</ele>
        <time>2021-09-26T10:56:00.000Z</time>
      </trkpt>
      <trkpt lat="40.1184565387666225433349609375" lon="-0.781713388860225677490234375">
        <ele>948.79998779296875</ele>
        <time>2021-09-26T10:56:02.000Z</time>
      </trkpt>
      <trkpt lat="40.118412114679813385009765625" lon="-0.781634263694286346435546875">
        <ele>948.20001220703125</ele>
        <time>2021-09-26T10:56:03.000Z</time>
      </trkpt>
      <trkpt lat="40.11836928315460681915283203125" lon="-0.7815568149089813232421875">
        <ele>947.79998779296875</ele>
        <time>2021-09-26T10:56:04.000Z</time>
      </trkpt>
      <trkpt lat="40.11828227899968624114990234375" lon="-0.7814034260809421539306640625">
        <ele>948.5999755859375</ele>
        <time>2021-09-26T10:56:06.000Z</time>
      </trkpt>
      <trkpt lat="40.11820114217698574066162109375" lon="-0.78126470558345317840576171875">
        <ele>951.4000244140625</ele>
        <time>2021-09-26T10:56:08.000Z</time>
      </trkpt>
      <trkpt lat="40.118127800524234771728515625" lon="-0.781135372817516326904296875">
        <ele>953.79998779296875</ele>
        <time>2021-09-26T10:56:10.000Z</time>
      </trkpt>
      <trkpt lat="40.11805563233792781829833984375" lon="-0.781008303165435791015625">
        <ele>956.4000244140625</ele>
        <time>2021-09-26T10:56:12.000Z</time>
      </trkpt>
      <trkpt lat="40.11799394153058528900146484375" lon="-0.78089238144457340240478515625">
        <ele>958.79998779296875</ele>
        <time>2021-09-26T10:56:14.000Z</time>
      </trkpt>
      <trkpt lat="40.11792906560003757476806640625" lon="-0.7807895354926586151123046875">
        <ele>961</ele>
        <time>2021-09-26T10:56:16.000Z</time>
      </trkpt>
      <trkpt lat="40.1178986392915248870849609375" lon="-0.7807429321110248565673828125">
        <ele>962</ele>
        <time>2021-09-26T10:56:17.000Z</time>
      </trkpt>
      <trkpt lat="40.11787123046815395355224609375" lon="-0.78069574199616909027099609375">
        <ele>962.79998779296875</ele>
        <time>2021-09-26T10:56:18.000Z</time>
      </trkpt>
      <trkpt lat="40.1178211905062198638916015625" lon="-0.78060328960418701171875">
        <ele>964.4000244140625</ele>
        <time>2021-09-26T10:56:20.000Z</time>
      </trkpt>
      <trkpt lat="40.1177732460200786590576171875" lon="-0.78050865791738033294677734375">
        <ele>966</ele>
        <time>2021-09-26T10:56:22.000Z</time>
      </trkpt>
      <trkpt lat="40.11772312223911285400390625" lon="-0.780417881906032562255859375">
        <ele>967.20001220703125</ele>
        <time>2021-09-26T10:56:24.000Z</time>
      </trkpt>
      <trkpt lat="40.11767241172492504119873046875" lon="-0.780330039560794830322265625">
        <ele>968</ele>
        <time>2021-09-26T10:56:26.000Z</time>
      </trkpt>
      <trkpt lat="40.11762614361941814422607421875" lon="-0.7802463881671428680419921875">
        <ele>968</ele>
        <time>2021-09-26T10:56:28.000Z</time>
      </trkpt>
      <trkpt lat="40.11760099790990352630615234375" lon="-0.780203305184841156005859375">
        <ele>968</ele>
        <time>2021-09-26T10:56:29.000Z</time>
      </trkpt>
      <trkpt lat="40.1175750978291034698486328125" lon="-0.780162401497364044189453125">
        <ele>968</ele>
        <time>2021-09-26T10:56:30.000Z</time>
      </trkpt>
      <trkpt lat="40.11752489022910594940185546875" lon="-0.780076570808887481689453125">
        <ele>968</ele>
        <time>2021-09-26T10:56:32.000Z</time>
      </trkpt>
      <trkpt lat="40.1174778677523136138916015625" lon="-0.77998101711273193359375">
        <ele>968</ele>
        <time>2021-09-26T10:56:34.000Z</time>
      </trkpt>
      <trkpt lat="40.11743101291358470916748046875" lon="-0.7798933424055576324462890625">
        <ele>967.4000244140625</ele>
        <time>2021-09-26T10:56:36.000Z</time>
      </trkpt>
      <trkpt lat="40.11738440953195095062255859375" lon="-0.77979661524295806884765625">
        <ele>967</ele>
        <time>2021-09-26T10:56:38.000Z</time>
      </trkpt>
      <trkpt lat="40.1173429191112518310546875" lon="-0.77969293110072612762451171875">
        <ele>966.5999755859375</ele>
        <time>2021-09-26T10:56:40.000Z</time>
      </trkpt>
      <trkpt lat="40.11729740537703037261962890625" lon="-0.77958782203495502471923828125">
        <ele>966.20001220703125</ele>
        <time>2021-09-26T10:56:42.000Z</time>
      </trkpt>
      <trkpt lat="40.11727376841008663177490234375" lon="-0.7795339263975620269775390625">
        <ele>966</ele>
        <time>2021-09-26T10:56:43.000Z</time>
      </trkpt>
      <trkpt lat="40.1172465272247791290283203125" lon="-0.77947583980858325958251953125">
        <ele>966</ele>
        <time>2021-09-26T10:56:44.000Z</time>
      </trkpt>
      <trkpt lat="40.1171922124922275543212890625" lon="-0.779345333576202392578125">
        <ele>965.5999755859375</ele>
        <time>2021-09-26T10:56:46.000Z</time>
      </trkpt>
      <trkpt lat="40.11713395826518535614013671875" lon="-0.7791895978152751922607421875">
        <ele>964.4000244140625</ele>
        <time>2021-09-26T10:56:48.000Z</time>
      </trkpt>
      <trkpt lat="40.1170705072581768035888671875" lon="-0.77901349402964115142822265625">
        <ele>961.4000244140625</ele>
        <time>2021-09-26T10:56:50.000Z</time>
      </trkpt>
      <trkpt lat="40.11699917726218700408935546875" lon="-0.77880931086838245391845703125">
        <ele>957.4000244140625</ele>
        <time>2021-09-26T10:56:52.000Z</time>
      </trkpt>
      <trkpt lat="40.11696129105985164642333984375" lon="-0.77869892120361328125">
        <ele>955</ele>
        <time>2021-09-26T10:56:53.000Z</time>
      </trkpt>
      <trkpt lat="40.1169226504862308502197265625" lon="-0.778588950634002685546875">
        <ele>952.79998779296875</ele>
        <time>2021-09-26T10:56:54.000Z</time>
      </trkpt>
      <trkpt lat="40.11684360913932323455810546875" lon="-0.778358615934848785400390625">
        <ele>949.79998779296875</ele>
        <time>2021-09-26T10:56:56.000Z</time>
      </trkpt>
      <trkpt lat="40.1167620532214641571044921875" lon="-0.7781301252543926239013671875">
        <ele>949.5999755859375</ele>
        <time>2021-09-26T10:56:58.000Z</time>
      </trkpt>
      <trkpt lat="40.1166822575032711029052734375" lon="-0.777905322611331939697265625">
        <ele>950.5999755859375</ele>
        <time>2021-09-26T10:57:00.000Z</time>
      </trkpt>
      <trkpt lat="40.11664378456771373748779296875" lon="-0.7777965255081653594970703125">
        <ele>951.79998779296875</ele>
        <time>2021-09-26T10:57:01.000Z</time>
      </trkpt>
      <trkpt lat="40.11660598218441009521484375" lon="-0.77768814750015735626220703125">
        <ele>952.79998779296875</ele>
        <time>2021-09-26T10:57:02.000Z</time>
      </trkpt>
      <trkpt lat="40.116533897817134857177734375" lon="-0.7774766720831394195556640625">
        <ele>954.79998779296875</ele>
        <time>2021-09-26T10:57:04.000Z</time>
      </trkpt>
      <trkpt lat="40.1164619810879230499267578125" lon="-0.77726704068481922149658203125">
        <ele>955.5999755859375</ele>
        <time>2021-09-26T10:57:06.000Z</time>
      </trkpt>
      <trkpt lat="40.11638947762548923492431640625" lon="-0.7770636118948459625244140625">
        <ele>954</ele>
        <time>2021-09-26T10:57:08.000Z</time>
      </trkpt>
      <trkpt lat="40.1163536868989467620849609375" lon="-0.77696294523775577545166015625">
        <ele>952.4000244140625</ele>
        <time>2021-09-26T10:57:09.000Z</time>
      </trkpt>
      <trkpt lat="40.11631621979176998138427734375" lon="-0.7768600992858409881591796875">
        <ele>951.20001220703125</ele>
        <time>2021-09-26T10:57:10.000Z</time>
      </trkpt>
      <trkpt lat="40.1162809319794178009033203125" lon="-0.776758678257465362548828125">
        <ele>950.20001220703125</ele>
        <time>2021-09-26T10:57:11.000Z</time>
      </trkpt>
      <trkpt lat="40.1162467338144779205322265625" lon="-0.7766606099903583526611328125">
        <ele>949.20001220703125</ele>
        <time>2021-09-26T10:57:12.000Z</time>
      </trkpt>
      <trkpt lat="40.116210691630840301513671875" lon="-0.77656044624745845794677734375">
        <ele>948</ele>
        <time>2021-09-26T10:57:13.000Z</time>
      </trkpt>
      <trkpt lat="40.11617741547524929046630859375" lon="-0.77645936049520969390869140625">
        <ele>947</ele>
        <time>2021-09-26T10:57:14.000Z</time>
      </trkpt>
      <trkpt lat="40.11610901914536952972412109375" lon="-0.77626573853194713592529296875">
        <ele>945.20001220703125</ele>
        <time>2021-09-26T10:57:16.000Z</time>
      </trkpt>
      <trkpt lat="40.11603676714003086090087890625" lon="-0.77606725506484508514404296875">
        <ele>944.20001220703125</ele>
        <time>2021-09-26T10:57:18.000Z</time>
      </trkpt>
      <trkpt lat="40.1159674488008022308349609375" lon="-0.7758730463683605194091796875">
        <ele>943.79998779296875</ele>
        <time>2021-09-26T10:57:20.000Z</time>
      </trkpt>
      <trkpt lat="40.11589745990931987762451171875" lon="-0.77566978521645069122314453125">
        <ele>943</ele>
        <time>2021-09-26T10:57:22.000Z</time>
      </trkpt>
      <trkpt lat="40.11583308689296245574951171875" lon="-0.77546996064484119415283203125">
        <ele>942.4000244140625</ele>
        <time>2021-09-26T10:57:24.000Z</time>
      </trkpt>
      <trkpt lat="40.11576569639146327972412109375" lon="-0.7752732373774051666259765625">
        <ele>943.20001220703125</ele>
        <time>2021-09-26T10:57:26.000Z</time>
      </trkpt>
      <trkpt lat="40.1156975515186786651611328125" lon="-0.77508129179477691650390625">
        <ele>943.20001220703125</ele>
        <time>2021-09-26T10:57:28.000Z</time>
      </trkpt>
      <trkpt lat="40.115631334483623504638671875" lon="-0.77489647082984447479248046875">
        <ele>943</ele>
        <time>2021-09-26T10:57:30.000Z</time>
      </trkpt>
      <trkpt lat="40.11556955985724925994873046875" lon="-0.77471877448260784149169921875">
        <ele>943.20001220703125</ele>
        <time>2021-09-26T10:57:32.000Z</time>
      </trkpt>
      <trkpt lat="40.11550870724022388458251953125" lon="-0.77454082667827606201171875">
        <ele>943.20001220703125</ele>
        <time>2021-09-26T10:57:34.000Z</time>
      </trkpt>
      <trkpt lat="40.1154787838459014892578125" lon="-0.77445105649530887603759765625">
        <ele>943.4000244140625</ele>
        <time>2021-09-26T10:57:35.000Z</time>
      </trkpt>
      <trkpt lat="40.1154481060802936553955078125" lon="-0.77436002902686595916748046875">
        <ele>944</ele>
        <time>2021-09-26T10:57:36.000Z</time>
      </trkpt>
      <trkpt lat="40.115388929843902587890625" lon="-0.77418367378413677215576171875">
        <ele>944.5999755859375</ele>
        <time>2021-09-26T10:57:38.000Z</time>
      </trkpt>
      <trkpt lat="40.11532782576978206634521484375" lon="-0.77400882728397846221923828125">
        <ele>945.5999755859375</ele>
        <time>2021-09-26T10:57:40.000Z</time>
      </trkpt>
      <trkpt lat="40.1152680628001689910888671875" lon="-0.77384789474308490753173828125">
        <ele>947.20001220703125</ele>
        <time>2021-09-26T10:57:42.000Z</time>
      </trkpt>
      <trkpt lat="40.1152400672435760498046875" lon="-0.773770697414875030517578125">
        <ele>948.5999755859375</ele>
        <time>2021-09-26T10:57:43.000Z</time>
      </trkpt>
      <trkpt lat="40.11521014384925365447998046875" lon="-0.7736967690289020538330078125">
        <ele>950</ele>
        <time>2021-09-26T10:57:44.000Z</time>
      </trkpt>
      <trkpt lat="40.11515297926962375640869140625" lon="-0.77355318702757358551025390625">
        <ele>951.20001220703125</ele>
        <time>2021-09-26T10:57:46.000Z</time>
      </trkpt>
      <trkpt lat="40.1150819845497608184814453125" lon="-0.773422680795192718505859375">
        <ele>952</ele>
        <time>2021-09-26T10:57:48.000Z</time>
      </trkpt>
      <trkpt lat="40.11504451744258403778076171875" lon="-0.77336065471172332763671875">
        <ele>952.20001220703125</ele>
        <time>2021-09-26T10:57:49.000Z</time>
      </trkpt>
      <trkpt lat="40.11500646360218524932861328125" lon="-0.77330340631306171417236328125">
        <ele>952.4000244140625</ele>
        <time>2021-09-26T10:57:50.000Z</time>
      </trkpt>
      <trkpt lat="40.1149289309978485107421875" lon="-0.7731936872005462646484375">
        <ele>952.20001220703125</ele>
        <time>2021-09-26T10:57:52.000Z</time>
      </trkpt>
      <trkpt lat="40.11484905146062374114990234375" lon="-0.77308715321123600006103515625">
        <ele>952.20001220703125</ele>
        <time>2021-09-26T10:57:54.000Z</time>
      </trkpt>
      <trkpt lat="40.11475869454443454742431640625" lon="-0.77299009077250957489013671875">
        <ele>952.4000244140625</ele>
        <time>2021-09-26T10:57:56.000Z</time>
      </trkpt>
      <trkpt lat="40.1146602071821689605712890625" lon="-0.77290224842727184295654296875">
        <ele>951.5999755859375</ele>
        <time>2021-09-26T10:57:58.000Z</time>
      </trkpt>
      <trkpt lat="40.11455501429736614227294921875" lon="-0.77282161451876163482666015625">
        <ele>951.20001220703125</ele>
        <time>2021-09-26T10:58:00.000Z</time>
      </trkpt>
      <trkpt lat="40.1144421100616455078125" lon="-0.77275355346500873565673828125">
        <ele>951.20001220703125</ele>
        <time>2021-09-26T10:58:02.000Z</time>
      </trkpt>
      <trkpt lat="40.11438603512942790985107421875" lon="-0.7727237977087497711181640625">
        <ele>950.79998779296875</ele>
        <time>2021-09-26T10:58:03.000Z</time>
      </trkpt>
      <trkpt lat="40.11432736180722713470458984375" lon="-0.772689767181873321533203125">
        <ele>950.20001220703125</ele>
        <time>2021-09-26T10:58:04.000Z</time>
      </trkpt>
      <trkpt lat="40.11421152390539646148681640625" lon="-0.7726336084306240081787109375">
        <ele>950.4000244140625</ele>
        <time>2021-09-26T10:58:06.000Z</time>
      </trkpt>
      <trkpt lat="40.11409266851842403411865234375" lon="-0.772587843239307403564453125">
        <ele>950.79998779296875</ele>
        <time>2021-09-26T10:58:08.000Z</time>
      </trkpt>
      <trkpt lat="40.1139767467975616455078125" lon="-0.7725558243691921234130859375">
        <ele>950.79998779296875</ele>
        <time>2021-09-26T10:58:10.000Z</time>
      </trkpt>
      <trkpt lat="40.1138622500002384185791015625" lon="-0.77253243885934352874755859375">
        <ele>950.5999755859375</ele>
        <time>2021-09-26T10:58:12.000Z</time>
      </trkpt>
      <trkpt lat="40.11375068686902523040771484375" lon="-0.77251282520592212677001953125">
        <ele>950.20001220703125</ele>
        <time>2021-09-26T10:58:14.000Z</time>
      </trkpt>
      <trkpt lat="40.1136433146893978118896484375" lon="-0.77250880189239978790283203125">
        <ele>949.79998779296875</ele>
        <time>2021-09-26T10:58:16.000Z</time>
      </trkpt>
      <trkpt lat="40.113590173423290252685546875" lon="-0.7725125737488269805908203125">
        <ele>949.5999755859375</ele>
        <time>2021-09-26T10:58:17.000Z</time>
      </trkpt>
      <trkpt lat="40.1135407201945781707763671875" lon="-0.7725152559578418731689453125">
        <ele>949.4000244140625</ele>
        <time>2021-09-26T10:58:18.000Z</time>
      </trkpt>
      <trkpt lat="40.11343234218657016754150390625" lon="-0.772529505193233489990234375">
        <ele>949</ele>
        <time>2021-09-26T10:58:20.000Z</time>
      </trkpt>
      <trkpt lat="40.1133234612643718719482421875" lon="-0.7725454308092594146728515625">
        <ele>948.4000244140625</ele>
        <time>2021-09-26T10:58:22.000Z</time>
      </trkpt>
      <trkpt lat="40.1132108084857463836669921875" lon="-0.77257082797586917877197265625">
        <ele>947.79998779296875</ele>
        <time>2021-09-26T10:58:24.000Z</time>
      </trkpt>
      <trkpt lat="40.113153643906116485595703125" lon="-0.77258876524865627288818359375">
        <ele>947.5999755859375</ele>
        <time>2021-09-26T10:58:25.000Z</time>
      </trkpt>
      <trkpt lat="40.1130984909832477569580078125" lon="-0.772607289254665374755859375">
        <ele>947.4000244140625</ele>
        <time>2021-09-26T10:58:26.000Z</time>
      </trkpt>
      <trkpt lat="40.11298709549009799957275390625" lon="-0.77264727093279361724853515625">
        <ele>946.79998779296875</ele>
        <time>2021-09-26T10:58:28.000Z</time>
      </trkpt>
      <trkpt lat="40.11287041939795017242431640625" lon="-0.77269320376217365264892578125">
        <ele>946.20001220703125</ele>
        <time>2021-09-26T10:58:30.000Z</time>
      </trkpt>
      <trkpt lat="40.1127563416957855224609375" lon="-0.77274735085666179656982421875">
        <ele>946</ele>
        <time>2021-09-26T10:58:32.000Z</time>
      </trkpt>
      <trkpt lat="40.1126988418400287628173828125" lon="-0.772775597870349884033203125">
        <ele>945.79998779296875</ele>
        <time>2021-09-26T10:58:33.000Z</time>
      </trkpt>
      <trkpt lat="40.11264058761298656463623046875" lon="-0.7728039287030696868896484375">
        <ele>945.79998779296875</ele>
        <time>2021-09-26T10:58:34.000Z</time>
      </trkpt>
      <trkpt lat="40.11252290569245815277099609375" lon="-0.77286444604396820068359375">
        <ele>945.5999755859375</ele>
        <time>2021-09-26T10:58:36.000Z</time>
      </trkpt>
      <trkpt lat="40.11240966618061065673828125" lon="-0.772937871515750885009765625">
        <ele>945.5999755859375</ele>
        <time>2021-09-26T10:58:38.000Z</time>
      </trkpt>
      <trkpt lat="40.11229223571717739105224609375" lon="-0.773017667233943939208984375">
        <ele>946.20001220703125</ele>
        <time>2021-09-26T10:58:40.000Z</time>
      </trkpt>
      <trkpt lat="40.11223800480365753173828125" lon="-0.773062594234943389892578125">
        <ele>946.5999755859375</ele>
        <time>2021-09-26T10:58:41.000Z</time>
      </trkpt>
      <trkpt lat="40.1121821813285350799560546875" lon="-0.77310928143560886383056640625">
        <ele>946.79998779296875</ele>
        <time>2021-09-26T10:58:42.000Z</time>
      </trkpt>
      <trkpt lat="40.1120745576918125152587890625" lon="-0.773212797939777374267578125">
        <ele>947.5999755859375</ele>
        <time>2021-09-26T10:58:44.000Z</time>
      </trkpt>
      <trkpt lat="40.1119731366634368896484375" lon="-0.77332922257483005523681640625">
        <ele>948.4000244140625</ele>
        <time>2021-09-26T10:58:46.000Z</time>
      </trkpt>
      <trkpt lat="40.11187833733856678009033203125" lon="-0.7734644226729869842529296875">
        <ele>949.4000244140625</ele>
        <time>2021-09-26T10:58:48.000Z</time>
      </trkpt>
      <trkpt lat="40.11179116554558277130126953125" lon="-0.77360632829368114471435546875">
        <ele>950.20001220703125</ele>
        <time>2021-09-26T10:58:50.000Z</time>
      </trkpt>
      <trkpt lat="40.111706256866455078125" lon="-0.773751921951770782470703125">
        <ele>951</ele>
        <time>2021-09-26T10:58:52.000Z</time>
      </trkpt>
      <trkpt lat="40.11161749251186847686767578125" lon="-0.7738910615444183349609375">
        <ele>951.5999755859375</ele>
        <time>2021-09-26T10:58:54.000Z</time>
      </trkpt>
      <trkpt lat="40.11157172732055187225341796875" lon="-0.77396306209266185760498046875">
        <ele>952.20001220703125</ele>
        <time>2021-09-26T10:58:55.000Z</time>
      </trkpt>
      <trkpt lat="40.1115267165005207061767578125" lon="-0.77403229661285877227783203125">
        <ele>952.5999755859375</ele>
        <time>2021-09-26T10:58:56.000Z</time>
      </trkpt>
      <trkpt lat="40.1114393770694732666015625" lon="-0.77417411841452121734619140625">
        <ele>953.79998779296875</ele>
        <time>2021-09-26T10:58:58.000Z</time>
      </trkpt>
      <trkpt lat="40.1113508641719818115234375" lon="-0.7743093185126781463623046875">
        <ele>954.4000244140625</ele>
        <time>2021-09-26T10:59:00.000Z</time>
      </trkpt>
      <trkpt lat="40.1112588308751583099365234375" lon="-0.77443890273571014404296875">
        <ele>954.79998779296875</ele>
        <time>2021-09-26T10:59:02.000Z</time>
      </trkpt>
      <trkpt lat="40.11120946146547794342041015625" lon="-0.7745007611811161041259765625">
        <ele>955.4000244140625</ele>
        <time>2021-09-26T10:59:03.000Z</time>
      </trkpt>
      <trkpt lat="40.1111589185893535614013671875" lon="-0.7745607756078243255615234375">
        <ele>955.79998779296875</ele>
        <time>2021-09-26T10:59:04.000Z</time>
      </trkpt>
      <trkpt lat="40.11110804043710231781005859375" lon="-0.77462171204388141632080078125">
        <ele>956.20001220703125</ele>
        <time>2021-09-26T10:59:05.000Z</time>
      </trkpt>
      <trkpt lat="40.11105917394161224365234375" lon="-0.77468164265155792236328125">
        <ele>956.5999755859375</ele>
        <time>2021-09-26T10:59:06.000Z</time>
      </trkpt>
      <trkpt lat="40.11100561358034610748291015625" lon="-0.774734951555728912353515625">
        <ele>957</ele>
        <time>2021-09-26T10:59:07.000Z</time>
      </trkpt>
      <trkpt lat="40.1109517179429531097412109375" lon="-0.7747761905193328857421875">
        <ele>957.20001220703125</ele>
        <time>2021-09-26T10:59:08.000Z</time>
      </trkpt>
      <trkpt lat="40.11084618978202342987060546875" lon="-0.7748343609273433685302734375">
        <ele>958</ele>
        <time>2021-09-26T10:59:10.000Z</time>
      </trkpt>
      <trkpt lat="40.11079506017267704010009765625" lon="-0.77486336231231689453125">
        <ele>958.4000244140625</ele>
        <time>2021-09-26T10:59:11.000Z</time>
      </trkpt>
      <trkpt lat="40.10740860365331172943115234375" lon="-0.77560608275234699249267578125">
        <ele>949.20001220703125</ele>
        <time>2021-09-26T11:00:04.000Z</time>
      </trkpt>
      <trkpt lat="40.10728622786700725555419921875" lon="-0.775684453547000885009765625">
        <ele>946.20001220703125</ele>
        <time>2021-09-26T11:00:06.000Z</time>
      </trkpt>
      <trkpt lat="40.1072177477180957794189453125" lon="-0.77570565976202487945556640625">
        <ele>944</ele>
        <time>2021-09-26T11:00:07.000Z</time>
      </trkpt>
      <trkpt lat="40.1071449927985668182373046875" lon="-0.77571705915033817291259765625">
        <ele>941.5999755859375</ele>
        <time>2021-09-26T11:00:08.000Z</time>
      </trkpt>
      <trkpt lat="40.10700074024498462677001953125" lon="-0.77574874274432659149169921875">
        <ele>938.5999755859375</ele>
        <time>2021-09-26T11:00:10.000Z</time>
      </trkpt>
      <trkpt lat="40.106859840452671051025390625" lon="-0.77577942050993442535400390625">
        <ele>934.5999755859375</ele>
        <time>2021-09-26T11:00:12.000Z</time>
      </trkpt>
      <trkpt lat="40.1067155040800571441650390625" lon="-0.77580003999173641204833984375">
        <ele>931.79998779296875</ele>
        <time>2021-09-26T11:00:14.000Z</time>
      </trkpt>
      <trkpt lat="40.1066440902650356292724609375" lon="-0.77580951154232025146484375">
        <ele>930.79998779296875</ele>
        <time>2021-09-26T11:00:15.000Z</time>
      </trkpt>
      <trkpt lat="40.1065711677074432373046875" lon="-0.77581495977938175201416015625">
        <ele>929.79998779296875</ele>
        <time>2021-09-26T11:00:16.000Z</time>
      </trkpt>
      <trkpt lat="40.10643278248608112335205078125" lon="-0.77581898309290409088134765625">
        <ele>928</ele>
        <time>2021-09-26T11:00:18.000Z</time>
      </trkpt>
      <trkpt lat="40.1062994264066219329833984375" lon="-0.775809176266193389892578125">
        <ele>926.4000244140625</ele>
        <time>2021-09-26T11:00:20.000Z</time>
      </trkpt>
      <trkpt lat="40.1062380708754062652587890625" lon="-0.7758026383817195892333984375">
        <ele>926</ele>
        <time>2021-09-26T11:00:21.000Z</time>
      </trkpt>
      <trkpt lat="40.1061797328293323516845703125" lon="-0.7757914066314697265625">
        <ele>925.79998779296875</ele>
        <time>2021-09-26T11:00:22.000Z</time>
      </trkpt>
      <trkpt lat="40.10605978779494762420654296875" lon="-0.77576785348355770111083984375">
        <ele>926.4000244140625</ele>
        <time>2021-09-26T11:00:24.000Z</time>
      </trkpt>
      <trkpt lat="40.105941854417324066162109375" lon="-0.77573063783347606658935546875">
        <ele>927.4000244140625</ele>
        <time>2021-09-26T11:00:26.000Z</time>
      </trkpt>
      <trkpt lat="40.105828531086444854736328125" lon="-0.775683112442493438720703125">
        <ele>928.20001220703125</ele>
        <time>2021-09-26T11:00:28.000Z</time>
      </trkpt>
      <trkpt lat="40.10572149418294429779052734375" lon="-0.77562251128256320953369140625">
        <ele>929</ele>
        <time>2021-09-26T11:00:30.000Z</time>
      </trkpt>
      <trkpt lat="40.10561906732618808746337890625" lon="-0.775548331439495086669921875">
        <ele>930.20001220703125</ele>
        <time>2021-09-26T11:00:32.000Z</time>
      </trkpt>
      <trkpt lat="40.1055199094116687774658203125" lon="-0.77547633089125156402587890625">
        <ele>931</ele>
        <time>2021-09-26T11:00:34.000Z</time>
      </trkpt>
      <trkpt lat="40.105422846972942352294921875" lon="-0.7753952778875827789306640625">
        <ele>931.4000244140625</ele>
        <time>2021-09-26T11:00:36.000Z</time>
      </trkpt>
      <trkpt lat="40.10532670654356479644775390625" lon="-0.77530257403850555419921875">
        <ele>931.5999755859375</ele>
        <time>2021-09-26T11:00:38.000Z</time>
      </trkpt>
      <trkpt lat="40.10523484088480472564697265625" lon="-0.77520542778074741363525390625">
        <ele>931</ele>
        <time>2021-09-26T11:00:40.000Z</time>
      </trkpt>
      <trkpt lat="40.1051457412540912628173828125" lon="-0.77509612776339054107666015625">
        <ele>929.20001220703125</ele>
        <time>2021-09-26T11:00:42.000Z</time>
      </trkpt>
      <trkpt lat="40.1050676219165325164794921875" lon="-0.77497676946222782135009765625">
        <ele>926.4000244140625</ele>
        <time>2021-09-26T11:00:44.000Z</time>
      </trkpt>
      <trkpt lat="40.10499461553990840911865234375" lon="-0.7748512923717498779296875">
        <ele>923</ele>
        <time>2021-09-26T11:00:46.000Z</time>
      </trkpt>
      <trkpt lat="40.104927308857440948486328125" lon="-0.7747143320739269256591796875">
        <ele>918.5999755859375</ele>
        <time>2021-09-26T11:00:48.000Z</time>
      </trkpt>
      <trkpt lat="40.1048974692821502685546875" lon="-0.77464601956307888031005859375">
        <ele>916.20001220703125</ele>
        <time>2021-09-26T11:00:49.000Z</time>
      </trkpt>
      <trkpt lat="40.10487056337296962738037109375" lon="-0.7745772041380405426025390625">
        <ele>914</ele>
        <time>2021-09-26T11:00:50.000Z</time>
      </trkpt>
      <trkpt lat="40.10482043959200382232666015625" lon="-0.7744316942989826202392578125">
        <ele>909</ele>
        <time>2021-09-26T11:00:52.000Z</time>
      </trkpt>
      <trkpt lat="40.10477542877197265625" lon="-0.77429004013538360595703125">
        <ele>904.20001220703125</ele>
        <time>2021-09-26T11:00:54.000Z</time>
      </trkpt>
      <trkpt lat="40.10475455783307552337646484375" lon="-0.77422122471034526824951171875">
        <ele>902</ele>
        <time>2021-09-26T11:00:55.000Z</time>
      </trkpt>
      <trkpt lat="40.1047363691031932830810546875" lon="-0.77415785752236843109130859375">
        <ele>900.4000244140625</ele>
        <time>2021-09-26T11:00:56.000Z</time>
      </trkpt>
      <trkpt lat="40.10470879264175891876220703125" lon="-0.7740535028278827667236328125">
        <ele>898.20001220703125</ele>
        <time>2021-09-26T11:00:58.000Z</time>
      </trkpt>
      <trkpt lat="40.104699991643428802490234375" lon="-0.77401603572070598602294921875">
        <ele>897.4000244140625</ele>
        <time>2021-09-26T11:00:59.000Z</time>
      </trkpt>
      <trkpt lat="40.10469018481671810150146484375" lon="-0.7739911414682865142822265625">
        <ele>897</ele>
        <time>2021-09-26T11:01:00.000Z</time>
      </trkpt>
      <trkpt lat="40.10467979125678539276123046875" lon="-0.7739616371691226959228515625">
        <ele>896.4000244140625</ele>
        <time>2021-09-26T11:01:02.000Z</time>
      </trkpt>
      <trkpt lat="40.1046773605048656463623046875" lon="-0.77395903877913951873779296875">
        <ele>896.4000244140625</ele>
        <time>2021-09-26T11:01:03.000Z</time>
      </trkpt>
      <trkpt lat="40.10465565137565135955810546875" lon="-0.77383004128932952880859375">
        <ele>895</ele>
        <time>2021-09-26T11:01:53.000Z</time>
      </trkpt>
      <trkpt lat="40.1046507060527801513671875" lon="-0.7738157920539379119873046875">
        <ele>895</ele>
        <time>2021-09-26T11:01:54.000Z</time>
      </trkpt>
      <trkpt lat="40.10463888756930828094482421875" lon="-0.77378167770802974700927734375">
        <ele>894.79998779296875</ele>
        <time>2021-09-26T11:01:56.000Z</time>
      </trkpt>
      <trkpt lat="40.10463033802807331085205078125" lon="-0.77375334687530994415283203125">
        <ele>894.5999755859375</ele>
        <time>2021-09-26T11:01:58.000Z</time>
      </trkpt>
      <trkpt lat="40.10461843572556972503662109375" lon="-0.77370640821754932403564453125">
        <ele>894.20001220703125</ele>
        <time>2021-09-26T11:02:00.000Z</time>
      </trkpt>
      <trkpt lat="40.1046109758317470550537109375" lon="-0.773672126233577728271484375">
        <ele>894.20001220703125</ele>
        <time>2021-09-26T11:02:01.000Z</time>
      </trkpt>
      <trkpt lat="40.1046022586524486541748046875" lon="-0.773635916411876678466796875">
        <ele>894.5999755859375</ele>
        <time>2021-09-26T11:02:02.000Z</time>
      </trkpt>
      <trkpt lat="40.10458172298967838287353515625" lon="-0.77356693334877490997314453125">
        <ele>895.4000244140625</ele>
        <time>2021-09-26T11:02:04.000Z</time>
      </trkpt>
      <trkpt lat="40.10456378571689128875732421875" lon="-0.77350641600787639617919921875">
        <ele>896.20001220703125</ele>
        <time>2021-09-26T11:02:06.000Z</time>
      </trkpt>
      <trkpt lat="40.104548446834087371826171875" lon="-0.773448161780834197998046875">
        <ele>897</ele>
        <time>2021-09-26T11:02:08.000Z</time>
      </trkpt>
      <trkpt lat="40.104540400207042694091796875" lon="-0.77341622672975063323974609375">
        <ele>897.4000244140625</ele>
        <time>2021-09-26T11:02:09.000Z</time>
      </trkpt>
      <trkpt lat="40.10453327558934688568115234375" lon="-0.7733849622309207916259765625">
        <ele>898</ele>
        <time>2021-09-26T11:02:10.000Z</time>
      </trkpt>
      <trkpt lat="40.1045157574117183685302734375" lon="-0.773326456546783447265625">
        <ele>899.4000244140625</ele>
        <time>2021-09-26T11:02:12.000Z</time>
      </trkpt>
      <trkpt lat="40.1045046932995319366455078125" lon="-0.773301981389522552490234375">
        <ele>900</ele>
        <time>2021-09-26T11:02:13.000Z</time>
      </trkpt>
      <trkpt lat="40.1044976525008678436279296875" lon="-0.773278512060642242431640625">
        <ele>900.5999755859375</ele>
        <time>2021-09-26T11:02:14.000Z</time>
      </trkpt>
      <trkpt lat="40.10447728447616100311279296875" lon="-0.7732186652719974517822265625">
        <ele>903.4000244140625</ele>
        <time>2021-09-26T11:02:16.000Z</time>
      </trkpt>
      <trkpt lat="40.10445750318467617034912109375" lon="-0.77314465306699275970458984375">
        <ele>908</ele>
        <time>2021-09-26T11:02:18.000Z</time>
      </trkpt>
      <trkpt lat="40.10443939827382564544677734375" lon="-0.773067958652973175048828125">
        <ele>911.20001220703125</ele>
        <time>2021-09-26T11:02:20.000Z</time>
      </trkpt>
      <trkpt lat="40.10443017818033695220947265625" lon="-0.77303149737417697906494140625">
        <ele>912.79998779296875</ele>
        <time>2021-09-26T11:02:21.000Z</time>
      </trkpt>
      <trkpt lat="40.10442011989653110504150390625" lon="-0.7729960419237613677978515625">
        <ele>914.5999755859375</ele>
        <time>2021-09-26T11:02:22.000Z</time>
      </trkpt>
      <trkpt lat="40.10440000332891941070556640625" lon="-0.77291633002460002899169921875">
        <ele>918.5999755859375</ele>
        <time>2021-09-26T11:02:24.000Z</time>
      </trkpt>
      <trkpt lat="40.1043771207332611083984375" lon="-0.772829912602901458740234375">
        <ele>922.5999755859375</ele>
        <time>2021-09-26T11:02:26.000Z</time>
      </trkpt>
      <trkpt lat="40.10436580516397953033447265625" lon="-0.77279076911509037017822265625">
        <ele>923.79998779296875</ele>
        <time>2021-09-26T11:02:27.000Z</time>
      </trkpt>
      <trkpt lat="40.104355998337268829345703125" lon="-0.77275581657886505126953125">
        <ele>925</ele>
        <time>2021-09-26T11:02:28.000Z</time>
      </trkpt>
      <trkpt lat="40.10433898307383060455322265625" lon="-0.772690437734127044677734375">
        <ele>926.79998779296875</ele>
        <time>2021-09-26T11:02:30.000Z</time>
      </trkpt>
      <trkpt lat="40.104325152933597564697265625" lon="-0.77261541970074176788330078125">
        <ele>928.5999755859375</ele>
        <time>2021-09-26T11:02:32.000Z</time>
      </trkpt>
      <trkpt lat="40.1043206267058849334716796875" lon="-0.7725766114890575408935546875">
        <ele>929.20001220703125</ele>
        <time>2021-09-26T11:02:33.000Z</time>
      </trkpt>
      <trkpt lat="40.10431744158267974853515625" lon="-0.7725360430777072906494140625">
        <ele>929.79998779296875</ele>
        <time>2021-09-26T11:02:34.000Z</time>
      </trkpt>
      <trkpt lat="40.10430914349853992462158203125" lon="-0.77245297841727733612060546875">
        <ele>930.79998779296875</ele>
        <time>2021-09-26T11:02:36.000Z</time>
      </trkpt>
      <trkpt lat="40.1043038628995418548583984375" lon="-0.77235658653080463409423828125">
        <ele>932</ele>
        <time>2021-09-26T11:02:38.000Z</time>
      </trkpt>
      <trkpt lat="40.10430042631924152374267578125" lon="-0.77225265093147754669189453125">
        <ele>932.5999755859375</ele>
        <time>2021-09-26T11:02:40.000Z</time>
      </trkpt>
      <trkpt lat="40.104298330843448638916015625" lon="-0.7721484638750553131103515625">
        <ele>932.20001220703125</ele>
        <time>2021-09-26T11:02:42.000Z</time>
      </trkpt>
      <trkpt lat="40.104303695261478424072265625" lon="-0.77204897068440914154052734375">
        <ele>931.79998779296875</ele>
        <time>2021-09-26T11:02:44.000Z</time>
      </trkpt>
      <trkpt lat="40.10431484319269657135009765625" lon="-0.77195207588374614715576171875">
        <ele>931.4000244140625</ele>
        <time>2021-09-26T11:02:46.000Z</time>
      </trkpt>
      <trkpt lat="40.10433093644678592681884765625" lon="-0.77184361405670642852783203125">
        <ele>930.4000244140625</ele>
        <time>2021-09-26T11:02:48.000Z</time>
      </trkpt>
      <trkpt lat="40.1043494604527950286865234375" lon="-0.77172341756522655487060546875">
        <ele>929.5999755859375</ele>
        <time>2021-09-26T11:02:50.000Z</time>
      </trkpt>
      <trkpt lat="40.10436329059302806854248046875" lon="-0.7715977728366851806640625">
        <ele>929.4000244140625</ele>
        <time>2021-09-26T11:02:52.000Z</time>
      </trkpt>
      <trkpt lat="40.104392878711223602294921875" lon="-0.77146709896624088287353515625">
        <ele>928.79998779296875</ele>
        <time>2021-09-26T11:02:54.000Z</time>
      </trkpt>
      <trkpt lat="40.10443185456097126007080078125" lon="-0.77133634127676486968994140625">
        <ele>928.79998779296875</ele>
        <time>2021-09-26T11:02:56.000Z</time>
      </trkpt>
      <trkpt lat="40.10447703301906585693359375" lon="-0.77120893634855747222900390625">
        <ele>928</ele>
        <time>2021-09-26T11:02:58.000Z</time>
      </trkpt>
      <trkpt lat="40.1045030169188976287841796875" lon="-0.7711516879498958587646484375">
        <ele>928.20001220703125</ele>
        <time>2021-09-26T11:02:59.000Z</time>
      </trkpt>
      <trkpt lat="40.1045261509716510772705078125" lon="-0.77109846286475658416748046875">
        <ele>928.5999755859375</ele>
        <time>2021-09-26T11:03:00.000Z</time>
      </trkpt>
      <trkpt lat="40.10457149706780910491943359375" lon="-0.77098865993320941925048828125">
        <ele>929.4000244140625</ele>
        <time>2021-09-26T11:03:02.000Z</time>
      </trkpt>
      <trkpt lat="40.1046210341155529022216796875" lon="-0.770877264440059661865234375">
        <ele>930.5999755859375</ele>
        <time>2021-09-26T11:03:04.000Z</time>
      </trkpt>
      <trkpt lat="40.104647688567638397216796875" lon="-0.77082370407879352569580078125">
        <ele>931.4000244140625</ele>
        <time>2021-09-26T11:03:05.000Z</time>
      </trkpt>
      <trkpt lat="40.10467392392456531524658203125" lon="-0.77077123336493968963623046875">
        <ele>932.4000244140625</ele>
        <time>2021-09-26T11:03:06.000Z</time>
      </trkpt>
      <trkpt lat="40.1047259755432605743408203125" lon="-0.7706695608794689178466796875">
        <ele>934</ele>
        <time>2021-09-26T11:03:08.000Z</time>
      </trkpt>
      <trkpt lat="40.10475053451955318450927734375" lon="-0.77062203548848628997802734375">
        <ele>934.5999755859375</ele>
        <time>2021-09-26T11:03:09.000Z</time>
      </trkpt>
      <trkpt lat="40.104772411286830902099609375" lon="-0.77057174406945705413818359375">
        <ele>935.20001220703125</ele>
        <time>2021-09-26T11:03:10.000Z</time>
      </trkpt>
      <trkpt lat="40.10481901466846466064453125" lon="-0.77047786675393581390380859375">
        <ele>936</ele>
        <time>2021-09-26T11:03:12.000Z</time>
      </trkpt>
      <trkpt lat="40.10484156198799610137939453125" lon="-0.7704341970384120941162109375">
        <ele>936.4000244140625</ele>
        <time>2021-09-26T11:03:13.000Z</time>
      </trkpt>
      <trkpt lat="40.10486436076462268829345703125" lon="-0.7703906111419200897216796875">
        <ele>936.79998779296875</ele>
        <time>2021-09-26T11:03:14.000Z</time>
      </trkpt>
      <trkpt lat="40.1049028337001800537109375" lon="-0.770308636128902435302734375">
        <ele>937.20001220703125</ele>
        <time>2021-09-26T11:03:16.000Z</time>
      </trkpt>
      <trkpt lat="40.1049479283392429351806640625" lon="-0.770226828753948211669921875">
        <ele>937.20001220703125</ele>
        <time>2021-09-26T11:03:18.000Z</time>
      </trkpt>
      <trkpt lat="40.10497190058231353759765625" lon="-0.77018558979034423828125">
        <ele>937</ele>
        <time>2021-09-26T11:03:19.000Z</time>
      </trkpt>
      <trkpt lat="40.10499394498765468597412109375" lon="-0.77014124952256679534912109375">
        <ele>937</ele>
        <time>2021-09-26T11:03:20.000Z</time>
      </trkpt>
      <trkpt lat="40.105033926665782928466796875" lon="-0.77005491591989994049072265625">
        <ele>936.79998779296875</ele>
        <time>2021-09-26T11:03:22.000Z</time>
      </trkpt>
      <trkpt lat="40.1050760038197040557861328125" lon="-0.769967995584011077880859375">
        <ele>935.5999755859375</ele>
        <time>2021-09-26T11:03:24.000Z</time>
      </trkpt>
      <trkpt lat="40.10509603656828403472900390625" lon="-0.76992264948785305023193359375">
        <ele>935</ele>
        <time>2021-09-26T11:03:25.000Z</time>
      </trkpt>
      <trkpt lat="40.105113051831722259521484375" lon="-0.76988107524812221527099609375">
        <ele>934.5999755859375</ele>
        <time>2021-09-26T11:03:26.000Z</time>
      </trkpt>
      <trkpt lat="40.1051460765302181243896484375" lon="-0.76980731450021266937255859375">
        <ele>933.5999755859375</ele>
        <time>2021-09-26T11:03:28.000Z</time>
      </trkpt>
      <trkpt lat="40.10516242124140262603759765625" lon="-0.76976272277534008026123046875">
        <ele>933.20001220703125</ele>
        <time>2021-09-26T11:03:29.000Z</time>
      </trkpt>
      <trkpt lat="40.1051791012287139892578125" lon="-0.76970321126282215118408203125">
        <ele>933</ele>
        <time>2021-09-26T11:03:30.000Z</time>
      </trkpt>
      <trkpt lat="40.10521740652620792388916015625" lon="-0.7695628143846988677978515625">
        <ele>932.5999755859375</ele>
        <time>2021-09-26T11:03:32.000Z</time>
      </trkpt>
      <trkpt lat="40.10524791665375232696533203125" lon="-0.7694028876721858978271484375">
        <ele>932.5999755859375</ele>
        <time>2021-09-26T11:03:34.000Z</time>
      </trkpt>
      <trkpt lat="40.10526384226977825164794921875" lon="-0.7693207450211048126220703125">
        <ele>932.5999755859375</ele>
        <time>2021-09-26T11:03:35.000Z</time>
      </trkpt>
      <trkpt lat="40.105282701551914215087890625" lon="-0.769243799149990081787109375">
        <ele>932.5999755859375</ele>
        <time>2021-09-26T11:03:36.000Z</time>
      </trkpt>
      <trkpt lat="40.1053185760974884033203125" lon="-0.76909870840609073638916015625">
        <ele>932.20001220703125</ele>
        <time>2021-09-26T11:03:38.000Z</time>
      </trkpt>
      <trkpt lat="40.1053512655198574066162109375" lon="-0.76896174810826778411865234375">
        <ele>932.4000244140625</ele>
        <time>2021-09-26T11:03:40.000Z</time>
      </trkpt>
      <trkpt lat="40.10538588277995586395263671875" lon="-0.768831409513950347900390625">
        <ele>931.5999755859375</ele>
        <time>2021-09-26T11:03:42.000Z</time>
      </trkpt>
      <trkpt lat="40.10541672818362712860107421875" lon="-0.76870945282280445098876953125">
        <ele>931</ele>
        <time>2021-09-26T11:03:44.000Z</time>
      </trkpt>
      <trkpt lat="40.10544606484472751617431640625" lon="-0.76858288608491420745849609375">
        <ele>930.79998779296875</ele>
        <time>2021-09-26T11:03:46.000Z</time>
      </trkpt>
      <trkpt lat="40.10547892190515995025634765625" lon="-0.76844860799610614776611328125">
        <ele>930.79998779296875</ele>
        <time>2021-09-26T11:03:48.000Z</time>
      </trkpt>
      <trkpt lat="40.1055168919265270233154296875" lon="-0.76831298880279064178466796875">
        <ele>930.5999755859375</ele>
        <time>2021-09-26T11:03:50.000Z</time>
      </trkpt>
      <trkpt lat="40.1055519282817840576171875" lon="-0.76817384921014308929443359375">
        <ele>930.20001220703125</ele>
        <time>2021-09-26T11:03:52.000Z</time>
      </trkpt>
      <trkpt lat="40.10558503679931163787841796875" lon="-0.768038146197795867919921875">
        <ele>930.20001220703125</ele>
        <time>2021-09-26T11:03:54.000Z</time>
      </trkpt>
      <trkpt lat="40.1056204922497272491455078125" lon="-0.767913423478603363037109375">
        <ele>930.20001220703125</ele>
        <time>2021-09-26T11:03:56.000Z</time>
      </trkpt>
      <trkpt lat="40.10563549585640430450439453125" lon="-0.767854414880275726318359375">
        <ele>930.20001220703125</ele>
        <time>2021-09-26T11:03:57.000Z</time>
      </trkpt>
      <trkpt lat="40.1056489907205104827880859375" lon="-0.76779331080615520477294921875">
        <ele>930.4000244140625</ele>
        <time>2021-09-26T11:03:58.000Z</time>
      </trkpt>
      <trkpt lat="40.1056753098964691162109375" lon="-0.76767898164689540863037109375">
        <ele>930.4000244140625</ele>
        <time>2021-09-26T11:04:00.000Z</time>
      </trkpt>
      <trkpt lat="40.105708502233028411865234375" lon="-0.76756171882152557373046875">
        <ele>930.5999755859375</ele>
        <time>2021-09-26T11:04:02.000Z</time>
      </trkpt>
      <trkpt lat="40.105742029845714569091796875" lon="-0.76744093559682369232177734375">
        <ele>930.79998779296875</ele>
        <time>2021-09-26T11:04:04.000Z</time>
      </trkpt>
      <trkpt lat="40.10577865876257419586181640625" lon="-0.76732459478080272674560546875">
        <ele>930.5999755859375</ele>
        <time>2021-09-26T11:04:06.000Z</time>
      </trkpt>
      <trkpt lat="40.10580078698694705963134765625" lon="-0.76726642437279224395751953125">
        <ele>931.20001220703125</ele>
        <time>2021-09-26T11:04:07.000Z</time>
      </trkpt>
      <trkpt lat="40.1058226637542247772216796875" lon="-0.7672078348696231842041015625">
        <ele>932.5999755859375</ele>
        <time>2021-09-26T11:04:08.000Z</time>
      </trkpt>
      <trkpt lat="40.105870775878429412841796875" lon="-0.76709560118615627288818359375">
        <ele>934</ele>
        <time>2021-09-26T11:04:10.000Z</time>
      </trkpt>
      <trkpt lat="40.1059274375438690185546875" lon="-0.76698898337781429290771484375">
        <ele>934.79998779296875</ele>
        <time>2021-09-26T11:04:12.000Z</time>
      </trkpt>
      <trkpt lat="40.10595358908176422119140625" lon="-0.76693475246429443359375">
        <ele>935</ele>
        <time>2021-09-26T11:04:13.000Z</time>
      </trkpt>
      <trkpt lat="40.10597697459161281585693359375" lon="-0.766878761351108551025390625">
        <ele>935.4000244140625</ele>
        <time>2021-09-26T11:04:14.000Z</time>
      </trkpt>
      <trkpt lat="40.1060320436954498291015625" lon="-0.76677256263792514801025390625">
        <ele>935.79998779296875</ele>
        <time>2021-09-26T11:04:16.000Z</time>
      </trkpt>
      <trkpt lat="40.10606163181364536285400390625" lon="-0.76672445051372051239013671875">
        <ele>936</ele>
        <time>2021-09-26T11:04:17.000Z</time>
      </trkpt>
      <trkpt lat="40.10609432123601436614990234375" lon="-0.76668069697916507720947265625">
        <ele>936</ele>
        <time>2021-09-26T11:04:18.000Z</time>
      </trkpt>
      <trkpt lat="40.1061267592012882232666015625" lon="-0.76663962565362453460693359375">
        <ele>936.20001220703125</ele>
        <time>2021-09-26T11:04:19.000Z</time>
      </trkpt>
      <trkpt lat="40.1061606220901012420654296875" lon="-0.7666003145277500152587890625">
        <ele>936</ele>
        <time>2021-09-26T11:04:20.000Z</time>
      </trkpt>
      <trkpt lat="40.1062330417335033416748046875" lon="-0.76651775278151035308837890625">
        <ele>936</ele>
        <time>2021-09-26T11:04:22.000Z</time>
      </trkpt>
      <trkpt lat="40.10630738921463489532470703125" lon="-0.76643007807433605194091796875">
        <ele>936.20001220703125</ele>
        <time>2021-09-26T11:04:24.000Z</time>
      </trkpt>
      <trkpt lat="40.1063485443592071533203125" lon="-0.76638959348201751708984375">
        <ele>936.20001220703125</ele>
        <time>2021-09-26T11:04:25.000Z</time>
      </trkpt>
      <trkpt lat="40.10639078915119171142578125" lon="-0.76635329984128475189208984375">
        <ele>936.4000244140625</ele>
        <time>2021-09-26T11:04:26.000Z</time>
      </trkpt>
      <trkpt lat="40.10647167451679706573486328125" lon="-0.7662831433117389678955078125">
        <ele>936.4000244140625</ele>
        <time>2021-09-26T11:04:28.000Z</time>
      </trkpt>
      <trkpt lat="40.1065470278263092041015625" lon="-0.76621885411441326141357421875">
        <ele>936.4000244140625</ele>
        <time>2021-09-26T11:04:30.000Z</time>
      </trkpt>
      <trkpt lat="40.10658667422831058502197265625" lon="-0.7661865837872028350830078125">
        <ele>937</ele>
        <time>2021-09-26T11:04:31.000Z</time>
      </trkpt>
      <trkpt lat="40.106628499925136566162109375" lon="-0.7661540620028972625732421875">
        <ele>938.20001220703125</ele>
        <time>2021-09-26T11:04:32.000Z</time>
      </trkpt>
      <trkpt lat="40.1067161746323108673095703125" lon="-0.76608424074947834014892578125">
        <ele>940.4000244140625</ele>
        <time>2021-09-26T11:04:34.000Z</time>
      </trkpt>
      <trkpt lat="40.10680158622562885284423828125" lon="-0.76601299457252025604248046875">
        <ele>942.79998779296875</ele>
        <time>2021-09-26T11:04:36.000Z</time>
      </trkpt>
      <trkpt lat="40.10688490234315395355224609375" lon="-0.765941999852657318115234375">
        <ele>945</ele>
        <time>2021-09-26T11:04:38.000Z</time>
      </trkpt>
      <trkpt lat="40.10692731477320194244384765625" lon="-0.76590553857386112213134765625">
        <ele>946</ele>
        <time>2021-09-26T11:04:39.000Z</time>
      </trkpt>
      <trkpt lat="40.10696972720324993133544921875" lon="-0.7658727653324604034423828125">
        <ele>946.4000244140625</ele>
        <time>2021-09-26T11:04:40.000Z</time>
      </trkpt>
      <trkpt lat="40.1070568151772022247314453125" lon="-0.7658077217638492584228515625">
        <ele>947.4000244140625</ele>
        <time>2021-09-26T11:04:42.000Z</time>
      </trkpt>
      <trkpt lat="40.1070933602750301361083984375" lon="-0.765775032341480255126953125">
        <ele>948</ele>
        <time>2021-09-26T11:04:43.000Z</time>
      </trkpt>
      <trkpt lat="40.1071292348206043243408203125" lon="-0.76574645005166530609130859375">
        <ele>948</ele>
        <time>2021-09-26T11:04:44.000Z</time>
      </trkpt>
      <trkpt lat="40.10720442049205303192138671875" lon="-0.765682160854339599609375">
        <ele>947</ele>
        <time>2021-09-26T11:04:46.000Z</time>
      </trkpt>
      <trkpt lat="40.10728103108704090118408203125" lon="-0.76562382280826568603515625">
        <ele>945.79998779296875</ele>
        <time>2021-09-26T11:04:48.000Z</time>
      </trkpt>
      <trkpt lat="40.1073193363845348358154296875" lon="-0.765596330165863037109375">
        <ele>945</ele>
        <time>2021-09-26T11:04:49.000Z</time>
      </trkpt>
      <trkpt lat="40.10735646821558475494384765625" lon="-0.76557110063731670379638671875">
        <ele>944.20001220703125</ele>
        <time>2021-09-26T11:04:50.000Z</time>
      </trkpt>
      <trkpt lat="40.10742746293544769287109375" lon="-0.765518210828304290771484375">
        <ele>942.79998779296875</ele>
        <time>2021-09-26T11:04:52.000Z</time>
      </trkpt>
      <trkpt lat="40.10749728418886661529541015625" lon="-0.765467248857021331787109375">
        <ele>941.4000244140625</ele>
        <time>2021-09-26T11:04:54.000Z</time>
      </trkpt>
      <trkpt lat="40.10753206908702850341796875" lon="-0.76543631963431835174560546875">
        <ele>940.79998779296875</ele>
        <time>2021-09-26T11:04:55.000Z</time>
      </trkpt>
      <trkpt lat="40.10756635107100009918212890625" lon="-0.76540664769709110260009765625">
        <ele>940.20001220703125</ele>
        <time>2021-09-26T11:04:56.000Z</time>
      </trkpt>
      <trkpt lat="40.10762728750705718994140625" lon="-0.7653447054326534271240234375">
        <ele>939.20001220703125</ele>
        <time>2021-09-26T11:04:58.000Z</time>
      </trkpt>
      <trkpt lat="40.107655115425586700439453125" lon="-0.765306651592254638671875">
        <ele>938.79998779296875</ele>
        <time>2021-09-26T11:04:59.000Z</time>
      </trkpt>
      <trkpt lat="40.1076841168105602264404296875" lon="-0.76526465825736522674560546875">
        <ele>938.5999755859375</ele>
        <time>2021-09-26T11:05:00.000Z</time>
      </trkpt>
      <trkpt lat="40.107711441814899444580078125" lon="-0.765223838388919830322265625">
        <ele>938.5999755859375</ele>
        <time>2021-09-26T11:05:01.000Z</time>
      </trkpt>
      <trkpt lat="40.10773985646665096282958984375" lon="-0.76517916284501552581787109375">
        <ele>938.5999755859375</ele>
        <time>2021-09-26T11:05:02.000Z</time>
      </trkpt>
      <trkpt lat="40.10780355893075466156005859375" lon="-0.7650892250239849090576171875">
        <ele>938.4000244140625</ele>
        <time>2021-09-26T11:05:04.000Z</time>
      </trkpt>
      <trkpt lat="40.107864998281002044677734375" lon="-0.76500079594552516937255859375">
        <ele>937.79998779296875</ele>
        <time>2021-09-26T11:05:06.000Z</time>
      </trkpt>
      <trkpt lat="40.1079201512038707733154296875" lon="-0.76490976847708225250244140625">
        <ele>937</ele>
        <time>2021-09-26T11:05:08.000Z</time>
      </trkpt>
      <trkpt lat="40.10794839821755886077880859375" lon="-0.76486400328576564788818359375">
        <ele>936.79998779296875</ele>
        <time>2021-09-26T11:05:09.000Z</time>
      </trkpt>
      <trkpt lat="40.10797203518450260162353515625" lon="-0.7648142985999584197998046875">
        <ele>936.4000244140625</ele>
        <time>2021-09-26T11:05:10.000Z</time>
      </trkpt>
      <trkpt lat="40.1080115139484405517578125" lon="-0.7647066749632358551025390625">
        <ele>936.4000244140625</ele>
        <time>2021-09-26T11:05:12.000Z</time>
      </trkpt>
      <trkpt lat="40.10805015452206134796142578125" lon="-0.76459980569779872894287109375">
        <ele>936.20001220703125</ele>
        <time>2021-09-26T11:05:14.000Z</time>
      </trkpt>
      <trkpt lat="40.10808854363858699798583984375" lon="-0.7644927687942981719970703125">
        <ele>936.20001220703125</ele>
        <time>2021-09-26T11:05:16.000Z</time>
      </trkpt>
      <trkpt lat="40.1081276871263980865478515625" lon="-0.76437332667410373687744140625">
        <ele>936.4000244140625</ele>
        <time>2021-09-26T11:05:18.000Z</time>
      </trkpt>
      <trkpt lat="40.108159370720386505126953125" lon="-0.764255225658416748046875">
        <ele>936.79998779296875</ele>
        <time>2021-09-26T11:05:20.000Z</time>
      </trkpt>
      <trkpt lat="40.1081887073814868927001953125" lon="-0.764131508767604827880859375">
        <ele>937</ele>
        <time>2021-09-26T11:05:22.000Z</time>
      </trkpt>
      <trkpt lat="40.1082099974155426025390625" lon="-0.76400418765842914581298828125">
        <ele>937</ele>
        <time>2021-09-26T11:05:24.000Z</time>
      </trkpt>
      <trkpt lat="40.10822542011737823486328125" lon="-0.76387703418731689453125">
        <ele>936.5999755859375</ele>
        <time>2021-09-26T11:05:26.000Z</time>
      </trkpt>
      <trkpt lat="40.10823707096278667449951171875" lon="-0.76374853961169719696044921875">
        <ele>936.20001220703125</ele>
        <time>2021-09-26T11:05:28.000Z</time>
      </trkpt>
      <trkpt lat="40.10823807679116725921630859375" lon="-0.76368458569049835205078125">
        <ele>936</ele>
        <time>2021-09-26T11:05:29.000Z</time>
      </trkpt>
      <trkpt lat="40.10823673568665981292724609375" lon="-0.76361878775060176849365234375">
        <ele>935.4000244140625</ele>
        <time>2021-09-26T11:05:30.000Z</time>
      </trkpt>
      <trkpt lat="40.10823505930602550506591796875" lon="-0.76355374418199062347412109375">
        <ele>935</ele>
        <time>2021-09-26T11:05:31.000Z</time>
      </trkpt>
      <trkpt lat="40.10823137126863002777099609375" lon="-0.76349255628883838653564453125">
        <ele>934.5999755859375</ele>
        <time>2021-09-26T11:05:32.000Z</time>
      </trkpt>
      <trkpt lat="40.108225084841251373291015625" lon="-0.7633714377880096435546875">
        <ele>933.79998779296875</ele>
        <time>2021-09-26T11:05:34.000Z</time>
      </trkpt>
      <trkpt lat="40.10821829549968242645263671875" lon="-0.76324579305946826934814453125">
        <ele>933.5999755859375</ele>
        <time>2021-09-26T11:05:36.000Z</time>
      </trkpt>
      <trkpt lat="40.10821930132806301116943359375" lon="-0.76318125240504741668701171875">
        <ele>933.20001220703125</ele>
        <time>2021-09-26T11:05:37.000Z</time>
      </trkpt>
      <trkpt lat="40.10821896605193614959716796875" lon="-0.7631193101406097412109375">
        <ele>933.20001220703125</ele>
        <time>2021-09-26T11:05:38.000Z</time>
      </trkpt>
      <trkpt lat="40.1082182116806507110595703125" lon="-0.76298654079437255859375">
        <ele>932.5999755859375</ele>
        <time>2021-09-26T11:05:40.000Z</time>
      </trkpt>
      <trkpt lat="40.108213685452938079833984375" lon="-0.76286114752292633056640625">
        <ele>932.4000244140625</ele>
        <time>2021-09-26T11:05:42.000Z</time>
      </trkpt>
      <trkpt lat="40.108211673796176910400390625" lon="-0.7627275399863719940185546875">
        <ele>932.79998779296875</ele>
        <time>2021-09-26T11:05:44.000Z</time>
      </trkpt>
      <trkpt lat="40.10821226052939891815185546875" lon="-0.7625927589833736419677734375">
        <ele>933.4000244140625</ele>
        <time>2021-09-26T11:05:46.000Z</time>
      </trkpt>
      <trkpt lat="40.1082155294716358184814453125" lon="-0.76246158219873905181884765625">
        <ele>932.79998779296875</ele>
        <time>2021-09-26T11:05:48.000Z</time>
      </trkpt>
      <trkpt lat="40.10821360163390636444091796875" lon="-0.76233400963246822357177734375">
        <ele>932.4000244140625</ele>
        <time>2021-09-26T11:05:50.000Z</time>
      </trkpt>
      <trkpt lat="40.108208321034908294677734375" lon="-0.762204341590404510498046875">
        <ele>933</ele>
        <time>2021-09-26T11:05:52.000Z</time>
      </trkpt>
      <trkpt lat="40.10820672847330570220947265625" lon="-0.762140639126300811767578125">
        <ele>933.5999755859375</ele>
        <time>2021-09-26T11:05:53.000Z</time>
      </trkpt>
      <trkpt lat="40.1082037948071956634521484375" lon="-0.76208087615668773651123046875">
        <ele>934</ele>
        <time>2021-09-26T11:05:54.000Z</time>
      </trkpt>
      <trkpt lat="40.1082024537026882171630859375" lon="-0.7619664631783962249755859375">
        <ele>934.79998779296875</ele>
        <time>2021-09-26T11:05:56.000Z</time>
      </trkpt>
      <trkpt lat="40.10820371098816394805908203125" lon="-0.761843584477901458740234375">
        <ele>935.5999755859375</ele>
        <time>2021-09-26T11:05:58.000Z</time>
      </trkpt>
      <trkpt lat="40.10820287279784679412841796875" lon="-0.76172531582415103912353515625">
        <ele>936.5999755859375</ele>
        <time>2021-09-26T11:06:00.000Z</time>
      </trkpt>
      <trkpt lat="40.1082034595310688018798828125" lon="-0.761670581996440887451171875">
        <ele>937</ele>
        <time>2021-09-26T11:06:01.000Z</time>
      </trkpt>
      <trkpt lat="40.1082044653594493865966796875" lon="-0.7616174407303333282470703125">
        <ele>937.4000244140625</ele>
        <time>2021-09-26T11:06:02.000Z</time>
      </trkpt>
      <trkpt lat="40.10820253752171993255615234375" lon="-0.761500932276248931884765625">
        <ele>938.20001220703125</ele>
        <time>2021-09-26T11:06:04.000Z</time>
      </trkpt>
      <trkpt lat="40.10820019058883190155029296875" lon="-0.76138081960380077362060546875">
        <ele>938.4000244140625</ele>
        <time>2021-09-26T11:06:06.000Z</time>
      </trkpt>
      <trkpt lat="40.10819247923791408538818359375" lon="-0.76125341467559337615966796875">
        <ele>938.5999755859375</ele>
        <time>2021-09-26T11:06:08.000Z</time>
      </trkpt>
      <trkpt lat="40.1081912219524383544921875" lon="-0.76112332753837108612060546875">
        <ele>937.79998779296875</ele>
        <time>2021-09-26T11:06:10.000Z</time>
      </trkpt>
      <trkpt lat="40.10818912647664546966552734375" lon="-0.7609944976866245269775390625">
        <ele>936.4000244140625</ele>
        <time>2021-09-26T11:06:12.000Z</time>
      </trkpt>
      <trkpt lat="40.1081964187324047088623046875" lon="-0.76086265034973621368408203125">
        <ele>934.79998779296875</ele>
        <time>2021-09-26T11:06:14.000Z</time>
      </trkpt>
      <trkpt lat="40.1082054711878299713134765625" lon="-0.7607321441173553466796875">
        <ele>933.4000244140625</ele>
        <time>2021-09-26T11:06:16.000Z</time>
      </trkpt>
      <trkpt lat="40.10821863077580928802490234375" lon="-0.76060566119849681854248046875">
        <ele>932</ele>
        <time>2021-09-26T11:06:18.000Z</time>
      </trkpt>
      <trkpt lat="40.10823740623891353607177734375" lon="-0.760476998984813690185546875">
        <ele>931.79998779296875</ele>
        <time>2021-09-26T11:06:20.000Z</time>
      </trkpt>
      <trkpt lat="40.1082624681293964385986328125" lon="-0.76035219244658946990966796875">
        <ele>931.4000244140625</ele>
        <time>2021-09-26T11:06:22.000Z</time>
      </trkpt>
      <trkpt lat="40.10829205624759197235107421875" lon="-0.760221518576145172119140625">
        <ele>932.4000244140625</ele>
        <time>2021-09-26T11:06:24.000Z</time>
      </trkpt>
      <trkpt lat="40.10832373984158039093017578125" lon="-0.76010459102690219879150390625">
        <ele>933.4000244140625</ele>
        <time>2021-09-26T11:06:26.000Z</time>
      </trkpt>
      <trkpt lat="40.108361542224884033203125" lon="-0.7599933631718158721923828125">
        <ele>934.4000244140625</ele>
        <time>2021-09-26T11:06:28.000Z</time>
      </trkpt>
      <trkpt lat="40.1084042899310588836669921875" lon="-0.7598840631544589996337890625">
        <ele>935.5999755859375</ele>
        <time>2021-09-26T11:06:30.000Z</time>
      </trkpt>
      <trkpt lat="40.10845206677913665771484375" lon="-0.75978272594511508941650390625">
        <ele>936.4000244140625</ele>
        <time>2021-09-26T11:06:32.000Z</time>
      </trkpt>
      <trkpt lat="40.10850780643522739410400390625" lon="-0.75968381948769092559814453125">
        <ele>937.20001220703125</ele>
        <time>2021-09-26T11:06:34.000Z</time>
      </trkpt>
      <trkpt lat="40.10856413282454013824462890625" lon="-0.75958608649671077728271484375">
        <ele>938</ele>
        <time>2021-09-26T11:06:36.000Z</time>
      </trkpt>
      <trkpt lat="40.108620040118694305419921875" lon="-0.75948935933411121368408203125">
        <ele>938.20001220703125</ele>
        <time>2021-09-26T11:06:38.000Z</time>
      </trkpt>
      <trkpt lat="40.10865063406527042388916015625" lon="-0.75944208540022373199462890625">
        <ele>937.79998779296875</ele>
        <time>2021-09-26T11:06:39.000Z</time>
      </trkpt>
      <trkpt lat="40.1086815632879734039306640625" lon="-0.75939573347568511962890625">
        <ele>937.4000244140625</ele>
        <time>2021-09-26T11:06:40.000Z</time>
      </trkpt>
      <trkpt lat="40.10871349833905696868896484375" lon="-0.75935055501759052276611328125">
        <ele>936.79998779296875</ele>
        <time>2021-09-26T11:06:41.000Z</time>
      </trkpt>
      <trkpt lat="40.10874702595174312591552734375" lon="-0.75930680148303508758544921875">
        <ele>936.4000244140625</ele>
        <time>2021-09-26T11:06:42.000Z</time>
      </trkpt>
      <trkpt lat="40.10881994850933551788330078125" lon="-0.75921728275716304779052734375">
        <ele>935.4000244140625</ele>
        <time>2021-09-26T11:06:44.000Z</time>
      </trkpt>
      <trkpt lat="40.108896978199481964111328125" lon="-0.75913128443062305450439453125">
        <ele>934.5999755859375</ele>
        <time>2021-09-26T11:06:46.000Z</time>
      </trkpt>
      <trkpt lat="40.1089779473841190338134765625" lon="-0.75904746539890766143798828125">
        <ele>933.79998779296875</ele>
        <time>2021-09-26T11:06:48.000Z</time>
      </trkpt>
      <trkpt lat="40.1090171746909618377685546875" lon="-0.75900413095951080322265625">
        <ele>933.4000244140625</ele>
        <time>2021-09-26T11:06:49.000Z</time>
      </trkpt>
      <trkpt lat="40.109055228531360626220703125" lon="-0.758964233100414276123046875">
        <ele>933</ele>
        <time>2021-09-26T11:06:50.000Z</time>
      </trkpt>
      <trkpt lat="40.10912957601249217987060546875" lon="-0.758884437382221221923828125">
        <ele>933.79998779296875</ele>
        <time>2021-09-26T11:06:52.000Z</time>
      </trkpt>
      <trkpt lat="40.10920316912233829498291015625" lon="-0.75880522839725017547607421875">
        <ele>934.5999755859375</ele>
        <time>2021-09-26T11:06:54.000Z</time>
      </trkpt>
      <trkpt lat="40.10927843861281871795654296875" lon="-0.75872610323131084442138671875">
        <ele>935.5999755859375</ele>
        <time>2021-09-26T11:06:56.000Z</time>
      </trkpt>
      <trkpt lat="40.10934851132333278656005859375" lon="-0.7586438767611980438232421875">
        <ele>936.79998779296875</ele>
        <time>2021-09-26T11:06:58.000Z</time>
      </trkpt>
      <trkpt lat="40.10942009277641773223876953125" lon="-0.758567266166210174560546875">
        <ele>938.79998779296875</ele>
        <time>2021-09-26T11:07:00.000Z</time>
      </trkpt>
      <trkpt lat="40.10949251241981983184814453125" lon="-0.7584883086383342742919921875">
        <ele>940.79998779296875</ele>
        <time>2021-09-26T11:07:02.000Z</time>
      </trkpt>
      <trkpt lat="40.10955990292131900787353515625" lon="-0.75840490870177745819091796875">
        <ele>942.79998779296875</ele>
        <time>2021-09-26T11:07:04.000Z</time>
      </trkpt>
      <trkpt lat="40.109626539051532745361328125" lon="-0.758325867354869842529296875">
        <ele>944.20001220703125</ele>
        <time>2021-09-26T11:07:06.000Z</time>
      </trkpt>
      <trkpt lat="40.109691582620143890380859375" lon="-0.75825252570211887359619140625">
        <ele>943.79998779296875</ele>
        <time>2021-09-26T11:07:08.000Z</time>
      </trkpt>
      <trkpt lat="40.1097227632999420166015625" lon="-0.75821715407073497772216796875">
        <ele>943.5999755859375</ele>
        <time>2021-09-26T11:07:09.000Z</time>
      </trkpt>
      <trkpt lat="40.10975386016070842742919921875" lon="-0.758183039724826812744140625">
        <ele>943.4000244140625</ele>
        <time>2021-09-26T11:07:10.000Z</time>
      </trkpt>
      <trkpt lat="40.1098164729773998260498046875" lon="-0.75810885988175868988037109375">
        <ele>943</ele>
        <time>2021-09-26T11:07:12.000Z</time>
      </trkpt>
      <trkpt lat="40.10988730005919933319091796875" lon="-0.75803107582032680511474609375">
        <ele>942.20001220703125</ele>
        <time>2021-09-26T11:07:14.000Z</time>
      </trkpt>
      <trkpt lat="40.10996391065418720245361328125" lon="-0.75794775970280170440673828125">
        <ele>941.79998779296875</ele>
        <time>2021-09-26T11:07:16.000Z</time>
      </trkpt>
      <trkpt lat="40.11004538275301456451416015625" lon="-0.75786343775689601898193359375">
        <ele>941.5999755859375</ele>
        <time>2021-09-26T11:07:18.000Z</time>
      </trkpt>
      <trkpt lat="40.1101289503276348114013671875" lon="-0.7577761821448802947998046875">
        <ele>942</ele>
        <time>2021-09-26T11:07:20.000Z</time>
      </trkpt>
      <trkpt lat="40.1102104224264621734619140625" lon="-0.7576980628073215484619140625">
        <ele>942.5999755859375</ele>
        <time>2021-09-26T11:07:22.000Z</time>
      </trkpt>
      <trkpt lat="40.11025241576135158538818359375" lon="-0.75766327790915966033935546875">
        <ele>943</ele>
        <time>2021-09-26T11:07:23.000Z</time>
      </trkpt>
      <trkpt lat="40.11029331944882869720458984375" lon="-0.75762773863971233367919921875">
        <ele>943.5999755859375</ele>
        <time>2021-09-26T11:07:24.000Z</time>
      </trkpt>
      <trkpt lat="40.11036716401576995849609375" lon="-0.75756403617560863494873046875">
        <ele>944.4000244140625</ele>
        <time>2021-09-26T11:07:26.000Z</time>
      </trkpt>
      <trkpt lat="40.11044201441109180450439453125" lon="-0.7575086317956447601318359375">
        <ele>944.5999755859375</ele>
        <time>2021-09-26T11:07:28.000Z</time>
      </trkpt>
      <trkpt lat="40.11048073880374431610107421875" lon="-0.75748055242002010345458984375">
        <ele>944.5999755859375</ele>
        <time>2021-09-26T11:07:29.000Z</time>
      </trkpt>
      <trkpt lat="40.110517702996730804443359375" lon="-0.75745104812085628509521484375">
        <ele>944.5999755859375</ele>
        <time>2021-09-26T11:07:30.000Z</time>
      </trkpt>
      <trkpt lat="40.11059657670557498931884765625" lon="-0.75738918967545032501220703125">
        <ele>944.4000244140625</ele>
        <time>2021-09-26T11:07:32.000Z</time>
      </trkpt>
      <trkpt lat="40.11067830026149749755859375" lon="-0.757340490818023681640625">
        <ele>944</ele>
        <time>2021-09-26T11:07:34.000Z</time>
      </trkpt>
      <trkpt lat="40.110766477882862091064453125" lon="-0.757303275167942047119140625">
        <ele>943</ele>
        <time>2021-09-26T11:07:36.000Z</time>
      </trkpt>
      <trkpt lat="40.11085675098001956939697265625" lon="-0.75726832263171672821044921875">
        <ele>941.5999755859375</ele>
        <time>2021-09-26T11:07:38.000Z</time>
      </trkpt>
      <trkpt lat="40.1109483651816844940185546875" lon="-0.757230855524539947509765625">
        <ele>940</ele>
        <time>2021-09-26T11:07:40.000Z</time>
      </trkpt>
      <trkpt lat="40.1110486127436161041259765625" lon="-0.7572038657963275909423828125">
        <ele>938.5999755859375</ele>
        <time>2021-09-26T11:07:42.000Z</time>
      </trkpt>
      <trkpt lat="40.11115112341940402984619140625" lon="-0.75717679224908351898193359375">
        <ele>937.5999755859375</ele>
        <time>2021-09-26T11:07:44.000Z</time>
      </trkpt>
      <trkpt lat="40.111257322132587432861328125" lon="-0.75715608894824981689453125">
        <ele>936.4000244140625</ele>
        <time>2021-09-26T11:07:46.000Z</time>
      </trkpt>
      <trkpt lat="40.1113637723028659820556640625" lon="-0.75714829377830028533935546875">
        <ele>936</ele>
        <time>2021-09-26T11:07:48.000Z</time>
      </trkpt>
      <trkpt lat="40.11147013865411281585693359375" lon="-0.75714611448347568511962890625">
        <ele>936.20001220703125</ele>
        <time>2021-09-26T11:07:50.000Z</time>
      </trkpt>
      <trkpt lat="40.111520178616046905517578125" lon="-0.7571465335786342620849609375">
        <ele>936.20001220703125</ele>
        <time>2021-09-26T11:07:51.000Z</time>
      </trkpt>
      <trkpt lat="40.11156988330185413360595703125" lon="-0.757147036492824554443359375">
        <ele>936.20001220703125</ele>
        <time>2021-09-26T11:07:52.000Z</time>
      </trkpt>
      <trkpt lat="40.11166309006512165069580078125" lon="-0.75714779086410999298095703125">
        <ele>937.20001220703125</ele>
        <time>2021-09-26T11:07:54.000Z</time>
      </trkpt>
      <trkpt lat="40.11174707673490047454833984375" lon="-0.75714779086410999298095703125">
        <ele>938.20001220703125</ele>
        <time>2021-09-26T11:07:56.000Z</time>
      </trkpt>
      <trkpt lat="40.11178814806044101715087890625" lon="-0.75715013779699802398681640625">
        <ele>938.5999755859375</ele>
        <time>2021-09-26T11:07:57.000Z</time>
      </trkpt>
      <trkpt lat="40.11182536371052265167236328125" lon="-0.75715516693890094757080078125">
        <ele>938.79998779296875</ele>
        <time>2021-09-26T11:07:58.000Z</time>
      </trkpt>
      <trkpt lat="40.11188906617462635040283203125" lon="-0.75716388411819934844970703125">
        <ele>939.4000244140625</ele>
        <time>2021-09-26T11:08:00.000Z</time>
      </trkpt>
      <trkpt lat="40.1119605638086795806884765625" lon="-0.75716681778430938720703125">
        <ele>940.20001220703125</ele>
        <time>2021-09-26T11:08:02.000Z</time>
      </trkpt>
      <trkpt lat="40.11200004257261753082275390625" lon="-0.75716740451753139495849609375">
        <ele>940.5999755859375</ele>
        <time>2021-09-26T11:08:03.000Z</time>
      </trkpt>
      <trkpt lat="40.11204086244106292724609375" lon="-0.75717008672654628753662109375">
        <ele>941</ele>
        <time>2021-09-26T11:08:04.000Z</time>
      </trkpt>
      <trkpt lat="40.11211420409381389617919921875" lon="-0.757175199687480926513671875">
        <ele>941.79998779296875</ele>
        <time>2021-09-26T11:08:06.000Z</time>
      </trkpt>
      <trkpt lat="40.1121841929852962493896484375" lon="-0.75717863626778125762939453125">
        <ele>943.20001220703125</ele>
        <time>2021-09-26T11:08:08.000Z</time>
      </trkpt>
      <trkpt lat="40.11226206086575984954833984375" lon="-0.75718316249549388885498046875">
        <ele>944.20001220703125</ele>
        <time>2021-09-26T11:08:10.000Z</time>
      </trkpt>
      <trkpt lat="40.11234688572585582733154296875" lon="-0.75719037093222141265869140625">
        <ele>944.5999755859375</ele>
        <time>2021-09-26T11:08:12.000Z</time>
      </trkpt>
      <trkpt lat="40.11243154294788837432861328125" lon="-0.75720143504440784454345703125">
        <ele>945</ele>
        <time>2021-09-26T11:08:14.000Z</time>
      </trkpt>
      <trkpt lat="40.11251335032284259796142578125" lon="-0.75721031986176967620849609375">
        <ele>945.79998779296875</ele>
        <time>2021-09-26T11:08:16.000Z</time>
      </trkpt>
      <trkpt lat="40.11255224235355854034423828125" lon="-0.7572162710130214691162109375">
        <ele>946.20001220703125</ele>
        <time>2021-09-26T11:08:17.000Z</time>
      </trkpt>
      <trkpt lat="40.11259096674621105194091796875" lon="-0.75722373090684413909912109375">
        <ele>946.5999755859375</ele>
        <time>2021-09-26T11:08:18.000Z</time>
      </trkpt>
      <trkpt lat="40.11267294175922870635986328125" lon="-0.75723261572420597076416015625">
        <ele>947.5999755859375</ele>
        <time>2021-09-26T11:08:20.000Z</time>
      </trkpt>
      <trkpt lat="40.11275407858192920684814453125" lon="-0.757236219942569732666015625">
        <ele>947.20001220703125</ele>
        <time>2021-09-26T11:08:22.000Z</time>
      </trkpt>
      <trkpt lat="40.11282817460596561431884765625" lon="-0.75723261572420597076416015625">
        <ele>947.4000244140625</ele>
        <time>2021-09-26T11:08:24.000Z</time>
      </trkpt>
      <trkpt lat="40.1129077188670635223388671875" lon="-0.75724133290350437164306640625">
        <ele>947.5999755859375</ele>
        <time>2021-09-26T11:08:26.000Z</time>
      </trkpt>
      <trkpt lat="40.112994723021984100341796875" lon="-0.75725558213889598846435546875">
        <ele>947</ele>
        <time>2021-09-26T11:08:28.000Z</time>
      </trkpt>
      <trkpt lat="40.11303654871881008148193359375" lon="-0.75725935399532318115234375">
        <ele>946.4000244140625</ele>
        <time>2021-09-26T11:08:29.000Z</time>
      </trkpt>
      <trkpt lat="40.113076530396938323974609375" lon="-0.75726698152720928192138671875">
        <ele>945.5999755859375</ele>
        <time>2021-09-26T11:08:30.000Z</time>
      </trkpt>
      <trkpt lat="40.1131585054099559783935546875" lon="-0.75727318413555622100830078125">
        <ele>944.4000244140625</ele>
        <time>2021-09-26T11:08:32.000Z</time>
      </trkpt>
      <trkpt lat="40.11323704384267330169677734375" lon="-0.7572675682604312896728515625">
        <ele>943.4000244140625</ele>
        <time>2021-09-26T11:08:34.000Z</time>
      </trkpt>
      <trkpt lat="40.11331683956086635589599609375" lon="-0.7572702504694461822509765625">
        <ele>942.79998779296875</ele>
        <time>2021-09-26T11:08:36.000Z</time>
      </trkpt>
      <trkpt lat="40.1133988983929157257080078125" lon="-0.757270418107509613037109375">
        <ele>942.20001220703125</ele>
        <time>2021-09-26T11:08:38.000Z</time>
      </trkpt>
      <trkpt lat="40.1134783588349819183349609375" lon="-0.75726429931819438934326171875">
        <ele>941.79998779296875</ele>
        <time>2021-09-26T11:08:40.000Z</time>
      </trkpt>
      <trkpt lat="40.113574080169200897216796875" lon="-0.75726396404206752777099609375">
        <ele>941.20001220703125</ele>
        <time>2021-09-26T11:08:42.000Z</time>
      </trkpt>
      <trkpt lat="40.11367206461727619171142578125" lon="-0.75726069509983062744140625">
        <ele>941</ele>
        <time>2021-09-26T11:08:44.000Z</time>
      </trkpt>
      <trkpt lat="40.11376594193279743194580078125" lon="-0.75725189410150051116943359375">
        <ele>940.79998779296875</ele>
        <time>2021-09-26T11:08:46.000Z</time>
      </trkpt>
      <trkpt lat="40.11385562829673290252685546875" lon="-0.75724049471318721771240234375">
        <ele>940.4000244140625</ele>
        <time>2021-09-26T11:08:48.000Z</time>
      </trkpt>
      <trkpt lat="40.1139410398900508880615234375" lon="-0.7572229765355587005615234375">
        <ele>940.4000244140625</ele>
        <time>2021-09-26T11:08:50.000Z</time>
      </trkpt>
      <trkpt lat="40.1140255294740200042724609375" lon="-0.75720369815826416015625">
        <ele>940.4000244140625</ele>
        <time>2021-09-26T11:08:52.000Z</time>
      </trkpt>
      <trkpt lat="40.11406785808503627777099609375" lon="-0.75719087384641170501708984375">
        <ele>940.5999755859375</ele>
        <time>2021-09-26T11:08:53.000Z</time>
      </trkpt>
      <trkpt lat="40.11410926468670368194580078125" lon="-0.75717461295425891876220703125">
        <ele>941</ele>
        <time>2021-09-26T11:08:54.000Z</time>
      </trkpt>
      <trkpt lat="40.11419375427067279815673828125" lon="-0.7571438513696193695068359375">
        <ele>942.20001220703125</ele>
        <time>2021-09-26T11:08:56.000Z</time>
      </trkpt>
      <trkpt lat="40.114275477826595306396484375" lon="-0.75710286386311054229736328125">
        <ele>943.4000244140625</ele>
        <time>2021-09-26T11:08:58.000Z</time>
      </trkpt>
      <trkpt lat="40.1143497414886951446533203125" lon="-0.7570476271212100982666015625">
        <ele>944.5999755859375</ele>
        <time>2021-09-26T11:09:00.000Z</time>
      </trkpt>
      <trkpt lat="40.11442459188401699066162109375" lon="-0.756995491683483123779296875">
        <ele>945.79998779296875</ele>
        <time>2021-09-26T11:09:02.000Z</time>
      </trkpt>
      <trkpt lat="40.11449198238551616668701171875" lon="-0.75694126076996326446533203125">
        <ele>947</ele>
        <time>2021-09-26T11:09:04.000Z</time>
      </trkpt>
      <trkpt lat="40.114560462534427642822265625" lon="-0.75688895769417285919189453125">
        <ele>948</ele>
        <time>2021-09-26T11:09:06.000Z</time>
      </trkpt>
      <trkpt lat="40.11462609283626079559326171875" lon="-0.75683288276195526123046875">
        <ele>949</ele>
        <time>2021-09-26T11:09:08.000Z</time>
      </trkpt>
      <trkpt lat="40.1146937347948551177978515625" lon="-0.75676985085010528564453125">
        <ele>949.4000244140625</ele>
        <time>2021-09-26T11:09:10.000Z</time>
      </trkpt>
      <trkpt lat="40.1147524081170558929443359375" lon="-0.75670874677598476409912109375">
        <ele>949.5999755859375</ele>
        <time>2021-09-26T11:09:12.000Z</time>
      </trkpt>
      <trkpt lat="40.11480965651571750640869140625" lon="-0.7566359080374240875244140625">
        <ele>949.5999755859375</ele>
        <time>2021-09-26T11:09:14.000Z</time>
      </trkpt>
      <trkpt lat="40.1148664020001888275146484375" lon="-0.7565611414611339569091796875">
        <ele>949.79998779296875</ele>
        <time>2021-09-26T11:09:16.000Z</time>
      </trkpt>
      <trkpt lat="40.11492826044559478759765625" lon="-0.75647405348718166351318359375">
        <ele>949.5999755859375</ele>
        <time>2021-09-26T11:09:18.000Z</time>
      </trkpt>
      <trkpt lat="40.11498718522489070892333984375" lon="-0.75638252310454845428466796875">
        <ele>949.5999755859375</ele>
        <time>2021-09-26T11:09:20.000Z</time>
      </trkpt>
      <trkpt lat="40.1150169409811496734619140625" lon="-0.7563395239412784576416015625">
        <ele>949.5999755859375</ele>
        <time>2021-09-26T11:09:21.000Z</time>
      </trkpt>
      <trkpt lat="40.1150487922132015228271484375" lon="-0.75628931634128093719482421875">
        <ele>949.4000244140625</ele>
        <time>2021-09-26T11:09:22.000Z</time>
      </trkpt>
      <trkpt lat="40.115099586546421051025390625" lon="-0.75619057752192020416259765625">
        <ele>949.4000244140625</ele>
        <time>2021-09-26T11:09:24.000Z</time>
      </trkpt>
      <trkpt lat="40.11514644138514995574951171875" lon="-0.75608898885548114776611328125">
        <ele>950.20001220703125</ele>
        <time>2021-09-26T11:09:26.000Z</time>
      </trkpt>
      <trkpt lat="40.115182064473628997802734375" lon="-0.75599477626383304595947265625">
        <ele>951</ele>
        <time>2021-09-26T11:09:28.000Z</time>
      </trkpt>
      <trkpt lat="40.11521684937179088592529296875" lon="-0.75590576045215129852294921875">
        <ele>951.5999755859375</ele>
        <time>2021-09-26T11:09:30.000Z</time>
      </trkpt>
      <trkpt lat="40.11524635367095470428466796875" lon="-0.75580936856567859649658203125">
        <ele>952.20001220703125</ele>
        <time>2021-09-26T11:09:32.000Z</time>
      </trkpt>
      <trkpt lat="40.11525926180183887481689453125" lon="-0.75575622729957103729248046875">
        <ele>952.4000244140625</ele>
        <time>2021-09-26T11:09:33.000Z</time>
      </trkpt>
      <trkpt lat="40.11527384631335735321044921875" lon="-0.75570224784314632415771484375">
        <ele>952.79998779296875</ele>
        <time>2021-09-26T11:09:34.000Z</time>
      </trkpt>
      <trkpt lat="40.11530251242220401763916015625" lon="-0.75558699667453765869140625">
        <ele>953.20001220703125</ele>
        <time>2021-09-26T11:09:36.000Z</time>
      </trkpt>
      <trkpt lat="40.11533017270267009735107421875" lon="-0.7554654590785503387451171875">
        <ele>953.4000244140625</ele>
        <time>2021-09-26T11:09:38.000Z</time>
      </trkpt>
      <trkpt lat="40.11534961871802806854248046875" lon="-0.75533964671194553375244140625">
        <ele>953.20001220703125</ele>
        <time>2021-09-26T11:09:40.000Z</time>
      </trkpt>
      <trkpt lat="40.11536353267729282379150390625" lon="-0.7552126608788967132568359375">
        <ele>952.4000244140625</ele>
        <time>2021-09-26T11:09:42.000Z</time>
      </trkpt>
      <trkpt lat="40.115371160209178924560546875" lon="-0.75508735142648220062255859375">
        <ele>951.4000244140625</ele>
        <time>2021-09-26T11:09:44.000Z</time>
      </trkpt>
      <trkpt lat="40.1153746806085109710693359375" lon="-0.75496095232665538787841796875">
        <ele>950.4000244140625</ele>
        <time>2021-09-26T11:09:46.000Z</time>
      </trkpt>
      <trkpt lat="40.1153750158846378326416015625" lon="-0.75483019463717937469482421875">
        <ele>949.4000244140625</ele>
        <time>2021-09-26T11:09:48.000Z</time>
      </trkpt>
      <trkpt lat="40.11536604724824428558349609375" lon="-0.754700191318988800048828125">
        <ele>948.4000244140625</ele>
        <time>2021-09-26T11:09:50.000Z</time>
      </trkpt>
      <trkpt lat="40.11535297147929668426513671875" lon="-0.75456717051565647125244140625">
        <ele>947.20001220703125</ele>
        <time>2021-09-26T11:09:52.000Z</time>
      </trkpt>
      <trkpt lat="40.1153448410332202911376953125" lon="-0.75450045056641101837158203125">
        <ele>946.5999755859375</ele>
        <time>2021-09-26T11:09:53.000Z</time>
      </trkpt>
      <trkpt lat="40.1153334416449069976806640625" lon="-0.7544385083019733428955078125">
        <ele>946</ele>
        <time>2021-09-26T11:09:54.000Z</time>
      </trkpt>
      <trkpt lat="40.11530402116477489471435546875" lon="-0.75431185774505138397216796875">
        <ele>945</ele>
        <time>2021-09-26T11:09:56.000Z</time>
      </trkpt>
      <trkpt lat="40.11527166701853275299072265625" lon="-0.75417875312268733978271484375">
        <ele>943.79998779296875</ele>
        <time>2021-09-26T11:09:58.000Z</time>
      </trkpt>
      <trkpt lat="40.11525414884090423583984375" lon="-0.75411119498312473297119140625">
        <ele>943</ele>
        <time>2021-09-26T11:09:59.000Z</time>
      </trkpt>
      <trkpt lat="40.11524048633873462677001953125" lon="-0.75404682196676731109619140625">
        <ele>942.20001220703125</ele>
        <time>2021-09-26T11:10:00.000Z</time>
      </trkpt>
      <trkpt lat="40.11521383188664913177490234375" lon="-0.75392042286694049835205078125">
        <ele>940.79998779296875</ele>
        <time>2021-09-26T11:10:02.000Z</time>
      </trkpt>
      <trkpt lat="40.115185417234897613525390625" lon="-0.75379838235676288604736328125">
        <ele>940.4000244140625</ele>
        <time>2021-09-26T11:10:04.000Z</time>
      </trkpt>
      <trkpt lat="40.11515532620251178741455078125" lon="-0.75367231853306293487548828125">
        <ele>940</ele>
        <time>2021-09-26T11:10:06.000Z</time>
      </trkpt>
      <trkpt lat="40.11512674391269683837890625" lon="-0.75354290194809436798095703125">
        <ele>939.5999755859375</ele>
        <time>2021-09-26T11:10:08.000Z</time>
      </trkpt>
      <trkpt lat="40.11510134674608707427978515625" lon="-0.7534118928015232086181640625">
        <ele>939.79998779296875</ele>
        <time>2021-09-26T11:10:10.000Z</time>
      </trkpt>
      <trkpt lat="40.11507452465593814849853515625" lon="-0.753284990787506103515625">
        <ele>940.4000244140625</ele>
        <time>2021-09-26T11:10:12.000Z</time>
      </trkpt>
      <trkpt lat="40.11504493653774261474609375" lon="-0.75316722504794597625732421875">
        <ele>941.5999755859375</ele>
        <time>2021-09-26T11:10:14.000Z</time>
      </trkpt>
      <trkpt lat="40.11501518078148365020751953125" lon="-0.753053985536098480224609375">
        <ele>942.5999755859375</ele>
        <time>2021-09-26T11:10:16.000Z</time>
      </trkpt>
      <trkpt lat="40.11498928070068359375" lon="-0.752929262816905975341796875">
        <ele>943.4000244140625</ele>
        <time>2021-09-26T11:10:18.000Z</time>
      </trkpt>
      <trkpt lat="40.1149579323828220367431640625" lon="-0.752797834575176239013671875">
        <ele>944</ele>
        <time>2021-09-26T11:10:20.000Z</time>
      </trkpt>
      <trkpt lat="40.11493094265460968017578125" lon="-0.752663053572177886962890625">
        <ele>945</ele>
        <time>2021-09-26T11:10:22.000Z</time>
      </trkpt>
      <trkpt lat="40.11490185745060443878173828125" lon="-0.752536319196224212646484375">
        <ele>945.79998779296875</ele>
        <time>2021-09-26T11:10:24.000Z</time>
      </trkpt>
      <trkpt lat="40.11487218551337718963623046875" lon="-0.7524154521524906158447265625">
        <ele>945.79998779296875</ele>
        <time>2021-09-26T11:10:26.000Z</time>
      </trkpt>
      <trkpt lat="40.114848129451274871826171875" lon="-0.75230154208838939666748046875">
        <ele>945.79998779296875</ele>
        <time>2021-09-26T11:10:28.000Z</time>
      </trkpt>
      <trkpt lat="40.11482072062790393829345703125" lon="-0.7521908171474933624267578125">
        <ele>946</ele>
        <time>2021-09-26T11:10:30.000Z</time>
      </trkpt>
      <trkpt lat="40.11479306034743785858154296875" lon="-0.75207003392279148101806640625">
        <ele>946.4000244140625</ele>
        <time>2021-09-26T11:10:32.000Z</time>
      </trkpt>
      <trkpt lat="40.11476456187665462493896484375" lon="-0.75194464065134525299072265625">
        <ele>946.5999755859375</ele>
        <time>2021-09-26T11:10:34.000Z</time>
      </trkpt>
      <trkpt lat="40.11473924852907657623291015625" lon="-0.751825869083404541015625">
        <ele>946.5999755859375</ele>
        <time>2021-09-26T11:10:36.000Z</time>
      </trkpt>
      <trkpt lat="40.1147116720676422119140625" lon="-0.75170491822063922882080078125">
        <ele>946.5999755859375</ele>
        <time>2021-09-26T11:10:38.000Z</time>
      </trkpt>
      <trkpt lat="40.11468241922557353973388671875" lon="-0.751579441130161285400390625">
        <ele>947</ele>
        <time>2021-09-26T11:10:40.000Z</time>
      </trkpt>
      <trkpt lat="40.11465777643024921417236328125" lon="-0.75145580805838108062744140625">
        <ele>947.4000244140625</ele>
        <time>2021-09-26T11:10:42.000Z</time>
      </trkpt>
      <trkpt lat="40.1146471314132213592529296875" lon="-0.751395039260387420654296875">
        <ele>947.5999755859375</ele>
        <time>2021-09-26T11:10:43.000Z</time>
      </trkpt>
      <trkpt lat="40.114636905491352081298828125" lon="-0.7513321749866008758544921875">
        <ele>947.79998779296875</ele>
        <time>2021-09-26T11:10:44.000Z</time>
      </trkpt>
      <trkpt lat="40.11461201123893260955810546875" lon="-0.751204602420330047607421875">
        <ele>948</ele>
        <time>2021-09-26T11:10:46.000Z</time>
      </trkpt>
      <trkpt lat="40.1145763881504535675048828125" lon="-0.75108951888978481292724609375">
        <ele>948.5999755859375</ele>
        <time>2021-09-26T11:10:48.000Z</time>
      </trkpt>
      <trkpt lat="40.11453841812908649444580078125" lon="-0.7509734295308589935302734375">
        <ele>949.4000244140625</ele>
        <time>2021-09-26T11:10:50.000Z</time>
      </trkpt>
      <trkpt lat="40.11450581252574920654296875" lon="-0.7508642971515655517578125">
        <ele>949.5999755859375</ele>
        <time>2021-09-26T11:10:52.000Z</time>
      </trkpt>
      <trkpt lat="40.11447588913142681121826171875" lon="-0.7507544942200183868408203125">
        <ele>950</ele>
        <time>2021-09-26T11:10:54.000Z</time>
      </trkpt>
      <trkpt lat="40.11444546282291412353515625" lon="-0.7506428472697734832763671875">
        <ele>949.79998779296875</ele>
        <time>2021-09-26T11:10:56.000Z</time>
      </trkpt>
      <trkpt lat="40.114410258829593658447265625" lon="-0.75053497217595577239990234375">
        <ele>950</ele>
        <time>2021-09-26T11:10:58.000Z</time>
      </trkpt>
      <trkpt lat="40.114395506680011749267578125" lon="-0.75047814287245273590087890625">
        <ele>949.79998779296875</ele>
        <time>2021-09-26T11:10:59.000Z</time>
      </trkpt>
      <trkpt lat="40.114378742873668670654296875" lon="-0.75042164884507656097412109375">
        <ele>949.4000244140625</ele>
        <time>2021-09-26T11:11:00.000Z</time>
      </trkpt>
      <trkpt lat="40.1143477298319339752197265625" lon="-0.7503162883222103118896484375">
        <ele>948.79998779296875</ele>
        <time>2021-09-26T11:11:02.000Z</time>
      </trkpt>
      <trkpt lat="40.1143313013017177581787109375" lon="-0.75026909820735454559326171875">
        <ele>948.79998779296875</ele>
        <time>2021-09-26T11:11:03.000Z</time>
      </trkpt>
      <trkpt lat="40.1143155433237552642822265625" lon="-0.75021830387413501739501953125">
        <ele>948.5999755859375</ele>
        <time>2021-09-26T11:11:04.000Z</time>
      </trkpt>
      <trkpt lat="40.11429886333644390106201171875" lon="-0.75016851536929607391357421875">
        <ele>948.4000244140625</ele>
        <time>2021-09-26T11:11:05.000Z</time>
      </trkpt>
      <trkpt lat="40.11428226716816425323486328125" lon="-0.7501157931983470916748046875">
        <ele>948.4000244140625</ele>
        <time>2021-09-26T11:11:06.000Z</time>
      </trkpt>
      <trkpt lat="40.1142498292028903961181640625" lon="-0.75000104494392871856689453125">
        <ele>947</ele>
        <time>2021-09-26T11:11:08.000Z</time>
      </trkpt>
      <trkpt lat="40.114233903586864471435546875" lon="-0.74994253925979137420654296875">
        <ele>946.20001220703125</ele>
        <time>2021-09-26T11:11:09.000Z</time>
      </trkpt>
      <trkpt lat="40.11421504430472850799560546875" lon="-0.74988269247114658355712890625">
        <ele>945.5999755859375</ele>
        <time>2021-09-26T11:11:10.000Z</time>
      </trkpt>
      <trkpt lat="40.11419601738452911376953125" lon="-0.74982720427215099334716796875">
        <ele>944.79998779296875</ele>
        <time>2021-09-26T11:11:11.000Z</time>
      </trkpt>
      <trkpt lat="40.11418051086366176605224609375" lon="-0.749786384403705596923828125">
        <ele>944.4000244140625</ele>
        <time>2021-09-26T11:11:12.000Z</time>
      </trkpt>
      <trkpt lat="40.11415787972509860992431640625" lon="-0.74972695671021938323974609375">
        <ele>943.79998779296875</ele>
        <time>2021-09-26T11:11:14.000Z</time>
      </trkpt>
      <trkpt lat="40.11413558386266231536865234375" lon="-0.74965059757232666015625">
        <ele>943.20001220703125</ele>
        <time>2021-09-26T11:11:16.000Z</time>
      </trkpt>
      <trkpt lat="40.114097781479358673095703125" lon="-0.74953417293727397918701171875">
        <ele>942.20001220703125</ele>
        <time>2021-09-26T11:11:18.000Z</time>
      </trkpt>
      <trkpt lat="40.11404774151742458343505859375" lon="-0.74937994591891765594482421875">
        <ele>940.5999755859375</ele>
        <time>2021-09-26T11:11:20.000Z</time>
      </trkpt>
      <trkpt lat="40.1139928400516510009765625" lon="-0.74922337196767330169677734375">
        <ele>939.20001220703125</ele>
        <time>2021-09-26T11:11:22.000Z</time>
      </trkpt>
      <trkpt lat="40.1139443926513195037841796875" lon="-0.7490714080631732940673828125">
        <ele>938.20001220703125</ele>
        <time>2021-09-26T11:11:24.000Z</time>
      </trkpt>
      <trkpt lat="40.11390097439289093017578125" lon="-0.748933441936969757080078125">
        <ele>937.4000244140625</ele>
        <time>2021-09-26T11:11:26.000Z</time>
      </trkpt>
      <trkpt lat="40.11385914869606494903564453125" lon="-0.7487976551055908203125">
        <ele>937.4000244140625</ele>
        <time>2021-09-26T11:11:28.000Z</time>
      </trkpt>
      <trkpt lat="40.11383970268070697784423828125" lon="-0.748727582395076751708984375">
        <ele>937.5999755859375</ele>
        <time>2021-09-26T11:11:29.000Z</time>
      </trkpt>
      <trkpt lat="40.11381807737052440643310546875" lon="-0.74865843169391155242919921875">
        <ele>937.79998779296875</ele>
        <time>2021-09-26T11:11:30.000Z</time>
      </trkpt>
      <trkpt lat="40.113775916397571563720703125" lon="-0.74851795099675655364990234375">
        <ele>938</ele>
        <time>2021-09-26T11:11:32.000Z</time>
      </trkpt>
      <trkpt lat="40.1137381978332996368408203125" lon="-0.7483743689954280853271484375">
        <ele>938.4000244140625</ele>
        <time>2021-09-26T11:11:34.000Z</time>
      </trkpt>
      <trkpt lat="40.11370542459189891815185546875" lon="-0.7482348941266536712646484375">
        <ele>938.5999755859375</ele>
        <time>2021-09-26T11:11:36.000Z</time>
      </trkpt>
      <trkpt lat="40.1136919297277927398681640625" lon="-0.74816691689193248748779296875">
        <ele>938.5999755859375</ele>
        <time>2021-09-26T11:11:37.000Z</time>
      </trkpt>
      <trkpt lat="40.11367893777787685394287109375" lon="-0.7480997778475284576416015625">
        <ele>938.5999755859375</ele>
        <time>2021-09-26T11:11:38.000Z</time>
      </trkpt>
      <trkpt lat="40.1136567257344722747802734375" lon="-0.747968852519989013671875">
        <ele>938.4000244140625</ele>
        <time>2021-09-26T11:11:40.000Z</time>
      </trkpt>
      <trkpt lat="40.11363602243363857269287109375" lon="-0.74784521944820880889892578125">
        <ele>938</ele>
        <time>2021-09-26T11:11:42.000Z</time>
      </trkpt>
      <trkpt lat="40.113629065454006195068359375" lon="-0.74777598492801189422607421875">
        <ele>937.79998779296875</ele>
        <time>2021-09-26T11:11:43.000Z</time>
      </trkpt>
      <trkpt lat="40.11362093500792980194091796875" lon="-0.74770876206457614898681640625">
        <ele>937.79998779296875</ele>
        <time>2021-09-26T11:11:44.000Z</time>
      </trkpt>
      <trkpt lat="40.1136097870767116546630859375" lon="-0.74757901020348072052001953125">
        <ele>937.79998779296875</ele>
        <time>2021-09-26T11:11:46.000Z</time>
      </trkpt>
      <trkpt lat="40.1135923527181148529052734375" lon="-0.74746099300682544708251953125">
        <ele>938.20001220703125</ele>
        <time>2021-09-26T11:11:48.000Z</time>
      </trkpt>
      <trkpt lat="40.11358070187270641326904296875" lon="-0.74733710847795009613037109375">
        <ele>937.79998779296875</ele>
        <time>2021-09-26T11:11:50.000Z</time>
      </trkpt>
      <trkpt lat="40.113568715751171112060546875" lon="-0.7472123019397258758544921875">
        <ele>937.79998779296875</ele>
        <time>2021-09-26T11:11:52.000Z</time>
      </trkpt>
      <trkpt lat="40.113555304706096649169921875" lon="-0.74708716012537479400634765625">
        <ele>938.4000244140625</ele>
        <time>2021-09-26T11:11:54.000Z</time>
      </trkpt>
      <trkpt lat="40.11354415677487850189208984375" lon="-0.7469648681581020355224609375">
        <ele>938.79998779296875</ele>
        <time>2021-09-26T11:11:56.000Z</time>
      </trkpt>
      <trkpt lat="40.11353543959558010101318359375" lon="-0.74683964252471923828125">
        <ele>939.20001220703125</ele>
        <time>2021-09-26T11:11:58.000Z</time>
      </trkpt>
      <trkpt lat="40.11352303437888622283935546875" lon="-0.746712572872638702392578125">
        <ele>939.79998779296875</ele>
        <time>2021-09-26T11:12:00.000Z</time>
      </trkpt>
      <trkpt lat="40.11351247318089008331298828125" lon="-0.74658240191638469696044921875">
        <ele>940.4000244140625</ele>
        <time>2021-09-26T11:12:02.000Z</time>
      </trkpt>
      <trkpt lat="40.11350090615451335906982421875" lon="-0.7464498840272426605224609375">
        <ele>941</ele>
        <time>2021-09-26T11:12:04.000Z</time>
      </trkpt>
      <trkpt lat="40.11348498053848743438720703125" lon="-0.74631116352975368499755859375">
        <ele>941.5999755859375</ele>
        <time>2021-09-26T11:12:06.000Z</time>
      </trkpt>
      <trkpt lat="40.11347257532179355621337890625" lon="-0.746171772480010986328125">
        <ele>942</ele>
        <time>2021-09-26T11:12:08.000Z</time>
      </trkpt>
      <trkpt lat="40.1134602539241313934326171875" lon="-0.7460321299731731414794921875">
        <ele>942</ele>
        <time>2021-09-26T11:12:10.000Z</time>
      </trkpt>
      <trkpt lat="40.1134451664984226226806640625" lon="-0.74590061791241168975830078125">
        <ele>942.20001220703125</ele>
        <time>2021-09-26T11:12:12.000Z</time>
      </trkpt>
      <trkpt lat="40.11343720369040966033935546875" lon="-0.7457743026316165924072265625">
        <ele>942.20001220703125</ele>
        <time>2021-09-26T11:12:14.000Z</time>
      </trkpt>
      <trkpt lat="40.11342429555952548980712890625" lon="-0.7456445507705211639404296875">
        <ele>942.4000244140625</ele>
        <time>2021-09-26T11:12:16.000Z</time>
      </trkpt>
      <trkpt lat="40.1134109683334827423095703125" lon="-0.7455151341855525970458984375">
        <ele>943</ele>
        <time>2021-09-26T11:12:18.000Z</time>
      </trkpt>
      <trkpt lat="40.1134027540683746337890625" lon="-0.74545168317854404449462890625">
        <ele>943.4000244140625</ele>
        <time>2021-09-26T11:12:19.000Z</time>
      </trkpt>
      <trkpt lat="40.113396383821964263916015625" lon="-0.74538529850542545318603515625">
        <ele>943.79998779296875</ele>
        <time>2021-09-26T11:12:20.000Z</time>
      </trkpt>
      <trkpt lat="40.11338389478623867034912109375" lon="-0.745250768959522247314453125">
        <ele>944.5999755859375</ele>
        <time>2021-09-26T11:12:22.000Z</time>
      </trkpt>
      <trkpt lat="40.1133653707802295684814453125" lon="-0.74511657468974590301513671875">
        <ele>946</ele>
        <time>2021-09-26T11:12:24.000Z</time>
      </trkpt>
      <trkpt lat="40.1133529655635356903076171875" lon="-0.7449753396213054656982421875">
        <ele>947</ele>
        <time>2021-09-26T11:12:26.000Z</time>
      </trkpt>
      <trkpt lat="40.11334081180393695831298828125" lon="-0.74490870349109172821044921875">
        <ele>947.5999755859375</ele>
        <time>2021-09-26T11:12:27.000Z</time>
      </trkpt>
      <trkpt lat="40.11332966387271881103515625" lon="-0.74484399519860744476318359375">
        <ele>948</ele>
        <time>2021-09-26T11:12:28.000Z</time>
      </trkpt>
      <trkpt lat="40.113311894237995147705078125" lon="-0.744719021022319793701171875">
        <ele>948.4000244140625</ele>
        <time>2021-09-26T11:12:30.000Z</time>
      </trkpt>
      <trkpt lat="40.11329856701195240020751953125" lon="-0.74466344900429248809814453125">
        <ele>948.5999755859375</ele>
        <time>2021-09-26T11:12:31.000Z</time>
      </trkpt>
      <trkpt lat="40.11328347958624362945556640625" lon="-0.744605697691440582275390625">
        <ele>949</ele>
        <time>2021-09-26T11:12:32.000Z</time>
      </trkpt>
      <trkpt lat="40.11325347237288951873779296875" lon="-0.7444888539612293243408203125">
        <ele>949.4000244140625</ele>
        <time>2021-09-26T11:12:34.000Z</time>
      </trkpt>
      <trkpt lat="40.11321240104734897613525390625" lon="-0.7443738542497158050537109375">
        <ele>949.79998779296875</ele>
        <time>2021-09-26T11:12:36.000Z</time>
      </trkpt>
      <trkpt lat="40.1131662167608737945556640625" lon="-0.74427209794521331787109375">
        <ele>950.20001220703125</ele>
        <time>2021-09-26T11:12:38.000Z</time>
      </trkpt>
      <trkpt lat="40.11311751790344715118408203125" lon="-0.74416673742234706878662109375">
        <ele>950.4000244140625</ele>
        <time>2021-09-26T11:12:40.000Z</time>
      </trkpt>
      <trkpt lat="40.113063119351863861083984375" lon="-0.7440633885562419891357421875">
        <ele>950.79998779296875</ele>
        <time>2021-09-26T11:12:42.000Z</time>
      </trkpt>
      <trkpt lat="40.11300302110612392425537109375" lon="-0.74395635165274143218994140625">
        <ele>951.20001220703125</ele>
        <time>2021-09-26T11:12:44.000Z</time>
      </trkpt>
      <trkpt lat="40.1129670627415180206298828125" lon="-0.74390270747244358062744140625">
        <ele>951.5999755859375</ele>
        <time>2021-09-26T11:12:45.000Z</time>
      </trkpt>
      <trkpt lat="40.11293177492916584014892578125" lon="-0.74385006912052631378173828125">
        <ele>951.79998779296875</ele>
        <time>2021-09-26T11:12:46.000Z</time>
      </trkpt>
      <trkpt lat="40.1128609478473663330078125" lon="-0.743752419948577880859375">
        <ele>951.79998779296875</ele>
        <time>2021-09-26T11:12:48.000Z</time>
      </trkpt>
      <trkpt lat="40.1127850078046321868896484375" lon="-0.74365711770951747894287109375">
        <ele>952</ele>
        <time>2021-09-26T11:12:50.000Z</time>
      </trkpt>
      <trkpt lat="40.112701356410980224609375" lon="-0.74355804361402988433837890625">
        <ele>952.4000244140625</ele>
        <time>2021-09-26T11:12:52.000Z</time>
      </trkpt>
      <trkpt lat="40.11260949075222015380859375" lon="-0.743474476039409637451171875">
        <ele>952</ele>
        <time>2021-09-26T11:12:54.000Z</time>
      </trkpt>
      <trkpt lat="40.11251267977058887481689453125" lon="-0.7433945126831531524658203125">
        <ele>950.79998779296875</ele>
        <time>2021-09-26T11:12:56.000Z</time>
      </trkpt>
      <trkpt lat="40.112407989799976348876953125" lon="-0.7433204166591167449951171875">
        <ele>949.79998779296875</ele>
        <time>2021-09-26T11:12:58.000Z</time>
      </trkpt>
      <trkpt lat="40.11235275305807590484619140625" lon="-0.74328378774225711822509765625">
        <ele>949.20001220703125</ele>
        <time>2021-09-26T11:12:59.000Z</time>
      </trkpt>
      <trkpt lat="40.11229558847844600677490234375" lon="-0.74325084686279296875">
        <ele>948.79998779296875</ele>
        <time>2021-09-26T11:13:00.000Z</time>
      </trkpt>
      <trkpt lat="40.112180672585964202880859375" lon="-0.74319041334092617034912109375">
        <ele>947.79998779296875</ele>
        <time>2021-09-26T11:13:02.000Z</time>
      </trkpt>
      <trkpt lat="40.11206307448446750640869140625" lon="-0.7431360147893428802490234375">
        <ele>946.79998779296875</ele>
        <time>2021-09-26T11:13:04.000Z</time>
      </trkpt>
      <trkpt lat="40.11194405145943164825439453125" lon="-0.7430776767432689666748046875">
        <ele>946.20001220703125</ele>
        <time>2021-09-26T11:13:06.000Z</time>
      </trkpt>
      <trkpt lat="40.1118214242160320281982421875" lon="-0.74302260763943195343017578125">
        <ele>945.20001220703125</ele>
        <time>2021-09-26T11:13:08.000Z</time>
      </trkpt>
      <trkpt lat="40.1116946898400783538818359375" lon="-0.74296720325946807861328125">
        <ele>944.4000244140625</ele>
        <time>2021-09-26T11:13:10.000Z</time>
      </trkpt>
      <trkpt lat="40.1115692965686321258544921875" lon="-0.7429130561649799346923828125">
        <ele>944.20001220703125</ele>
        <time>2021-09-26T11:13:12.000Z</time>
      </trkpt>
      <trkpt lat="40.1114459149539470672607421875" lon="-0.742863602936267852783203125">
        <ele>944</ele>
        <time>2021-09-26T11:13:14.000Z</time>
      </trkpt>
      <trkpt lat="40.11132580228149890899658203125" lon="-0.7428107969462871551513671875">
        <ele>943.79998779296875</ele>
        <time>2021-09-26T11:13:16.000Z</time>
      </trkpt>
      <trkpt lat="40.11121046729385852813720703125" lon="-0.74276125989854335784912109375">
        <ele>943.4000244140625</ele>
        <time>2021-09-26T11:13:18.000Z</time>
      </trkpt>
      <trkpt lat="40.11109882034361362457275390625" lon="-0.742711722850799560546875">
        <ele>943.20001220703125</ele>
        <time>2021-09-26T11:13:20.000Z</time>
      </trkpt>
      <trkpt lat="40.1109912805259227752685546875" lon="-0.74266453273594379425048828125">
        <ele>943.4000244140625</ele>
        <time>2021-09-26T11:13:22.000Z</time>
      </trkpt>
      <trkpt lat="40.1109373010694980621337890625" lon="-0.74264399707317352294921875">
        <ele>943.5999755859375</ele>
        <time>2021-09-26T11:13:23.000Z</time>
      </trkpt>
      <trkpt lat="40.1108836568892002105712890625" lon="-0.74262413196265697479248046875">
        <ele>943.5999755859375</ele>
        <time>2021-09-26T11:13:24.000Z</time>
      </trkpt>
      <trkpt lat="40.11078030802309513092041015625" lon="-0.74258121661841869354248046875">
        <ele>943.79998779296875</ele>
        <time>2021-09-26T11:13:26.000Z</time>
      </trkpt>
      <trkpt lat="40.1106791384518146514892578125" lon="-0.74254550971090793609619140625">
        <ele>943.79998779296875</ele>
        <time>2021-09-26T11:13:28.000Z</time>
      </trkpt>
      <trkpt lat="40.11058551259338855743408203125" lon="-0.74251231737434864044189453125">
        <ele>943.5999755859375</ele>
        <time>2021-09-26T11:13:30.000Z</time>
      </trkpt>
      <trkpt lat="40.11049347929656505584716796875" lon="-0.74248264543712139129638671875">
        <ele>943.5999755859375</ele>
        <time>2021-09-26T11:13:32.000Z</time>
      </trkpt>
      <trkpt lat="40.11044234968721866607666015625" lon="-0.74246806092560291290283203125">
        <ele>943.5999755859375</ele>
        <time>2021-09-26T11:13:33.000Z</time>
      </trkpt>
      <trkpt lat="40.110389627516269683837890625" lon="-0.7424523867666721343994140625">
        <ele>943.79998779296875</ele>
        <time>2021-09-26T11:13:34.000Z</time>
      </trkpt>
      <trkpt lat="40.11028208769857883453369140625" lon="-0.74242732487618923187255859375">
        <ele>944</ele>
        <time>2021-09-26T11:13:36.000Z</time>
      </trkpt>
      <trkpt lat="40.110170356929302215576171875" lon="-0.74240083806216716766357421875">
        <ele>943.79998779296875</ele>
        <time>2021-09-26T11:13:38.000Z</time>
      </trkpt>
      <trkpt lat="40.11005627922713756561279296875" lon="-0.7423742674291133880615234375">
        <ele>944</ele>
        <time>2021-09-26T11:13:40.000Z</time>
      </trkpt>
      <trkpt lat="40.1099391840398311614990234375" lon="-0.74235708452761173248291015625">
        <ele>944.4000244140625</ele>
        <time>2021-09-26T11:13:42.000Z</time>
      </trkpt>
      <trkpt lat="40.10982342995703220367431640625" lon="-0.742346942424774169921875">
        <ele>944.4000244140625</ele>
        <time>2021-09-26T11:13:44.000Z</time>
      </trkpt>
      <trkpt lat="40.10971429757773876190185546875" lon="-0.74234199710190296173095703125">
        <ele>944.4000244140625</ele>
        <time>2021-09-26T11:13:46.000Z</time>
      </trkpt>
      <trkpt lat="40.10966249741613864898681640625" lon="-0.7423410750925540924072265625">
        <ele>944.4000244140625</ele>
        <time>2021-09-26T11:13:47.000Z</time>
      </trkpt>
      <trkpt lat="40.109611786901950836181640625" lon="-0.7423407398164272308349609375">
        <ele>944.4000244140625</ele>
        <time>2021-09-26T11:13:48.000Z</time>
      </trkpt>
      <trkpt lat="40.109511874616146087646484375" lon="-0.74234333820641040802001953125">
        <ele>944.4000244140625</ele>
        <time>2021-09-26T11:13:50.000Z</time>
      </trkpt>
      <trkpt lat="40.10941472835838794708251953125" lon="-0.742344595491886138916015625">
        <ele>944.4000244140625</ele>
        <time>2021-09-26T11:13:52.000Z</time>
      </trkpt>
      <trkpt lat="40.10932487435638904571533203125" lon="-0.74234819971024990081787109375">
        <ele>944.4000244140625</ele>
        <time>2021-09-26T11:13:54.000Z</time>
      </trkpt>
      <trkpt lat="40.10928229428827762603759765625" lon="-0.74235155247151851654052734375">
        <ele>944.4000244140625</ele>
        <time>2021-09-26T11:13:55.000Z</time>
      </trkpt>
      <trkpt lat="40.1092401333153247833251953125" lon="-0.7423561625182628631591796875">
        <ele>944.5999755859375</ele>
        <time>2021-09-26T11:13:56.000Z</time>
      </trkpt>
      <trkpt lat="40.10916151106357574462890625" lon="-0.74236630462110042572021484375">
        <ele>945</ele>
        <time>2021-09-26T11:13:58.000Z</time>
      </trkpt>
      <trkpt lat="40.10908632539212703704833984375" lon="-0.74237250722944736480712890625">
        <ele>945.20001220703125</ele>
        <time>2021-09-26T11:14:00.000Z</time>
      </trkpt>
      <trkpt lat="40.109014995396137237548828125" lon="-0.74237988330423831939697265625">
        <ele>945.4000244140625</ele>
        <time>2021-09-26T11:14:02.000Z</time>
      </trkpt>
      <trkpt lat="40.10898104868829250335693359375" lon="-0.74238189496099948883056640625">
        <ele>945.5999755859375</ele>
        <time>2021-09-26T11:14:03.000Z</time>
      </trkpt>
      <trkpt lat="40.1089489459991455078125" lon="-0.7423806376755237579345703125">
        <ele>945.79998779296875</ele>
        <time>2021-09-26T11:14:04.000Z</time>
      </trkpt>
      <trkpt lat="40.1088750176131725311279296875" lon="-0.74238575063645839691162109375">
        <ele>946</ele>
        <time>2021-09-26T11:14:06.000Z</time>
      </trkpt>
      <trkpt lat="40.10880234651267528533935546875" lon="-0.74239530600607395172119140625">
        <ele>946.4000244140625</ele>
        <time>2021-09-26T11:14:08.000Z</time>
      </trkpt>
      <trkpt lat="40.1087328605353832244873046875" lon="-0.742402262985706329345703125">
        <ele>946.5999755859375</ele>
        <time>2021-09-26T11:14:10.000Z</time>
      </trkpt>
      <trkpt lat="40.1086631231009960174560546875" lon="-0.74240871705114841461181640625">
        <ele>946.79998779296875</ele>
        <time>2021-09-26T11:14:12.000Z</time>
      </trkpt>
      <trkpt lat="40.10858307592570781707763671875" lon="-0.74241173453629016876220703125">
        <ele>947.20001220703125</ele>
        <time>2021-09-26T11:14:14.000Z</time>
      </trkpt>
      <trkpt lat="40.1085387356579303741455078125" lon="-0.74241642840206623077392578125">
        <ele>947.4000244140625</ele>
        <time>2021-09-26T11:14:15.000Z</time>
      </trkpt>
      <trkpt lat="40.10849221609532833099365234375" lon="-0.74242028407752513885498046875">
        <ele>947.5999755859375</ele>
        <time>2021-09-26T11:14:16.000Z</time>
      </trkpt>
      <trkpt lat="40.10840152390301227569580078125" lon="-0.7424242235720157623291015625">
        <ele>947.79998779296875</ele>
        <time>2021-09-26T11:14:18.000Z</time>
      </trkpt>
      <trkpt lat="40.1083154417574405670166015625" lon="-0.742427408695220947265625">
        <ele>948</ele>
        <time>2021-09-26T11:14:20.000Z</time>
      </trkpt>
      <trkpt lat="40.10822734795510768890380859375" lon="-0.7424322701990604400634765625">
        <ele>948</ele>
        <time>2021-09-26T11:14:22.000Z</time>
      </trkpt>
      <trkpt lat="40.108180828392505645751953125" lon="-0.7424376346170902252197265625">
        <ele>948</ele>
        <time>2021-09-26T11:14:23.000Z</time>
      </trkpt>
      <trkpt lat="40.108130872249603271484375" lon="-0.74244090355932712554931640625">
        <ele>947.79998779296875</ele>
        <time>2021-09-26T11:14:24.000Z</time>
      </trkpt>
      <trkpt lat="40.1080227456986904144287109375" lon="-0.742441825568675994873046875">
        <ele>947.5999755859375</ele>
        <time>2021-09-26T11:14:26.000Z</time>
      </trkpt>
      <trkpt lat="40.10796885006129741668701171875" lon="-0.7424453459680080413818359375">
        <ele>947.5999755859375</ele>
        <time>2021-09-26T11:14:27.000Z</time>
      </trkpt>
      <trkpt lat="40.107914619147777557373046875" lon="-0.74245112948119640350341796875">
        <ele>947.4000244140625</ele>
        <time>2021-09-26T11:14:28.000Z</time>
      </trkpt>
      <trkpt lat="40.1078608073294162750244140625" lon="-0.74245783500373363494873046875">
        <ele>947.20001220703125</ele>
        <time>2021-09-26T11:14:29.000Z</time>
      </trkpt>
      <trkpt lat="40.10780774988234043121337890625" lon="-0.74246353469789028167724609375">
        <ele>947.20001220703125</ele>
        <time>2021-09-26T11:14:30.000Z</time>
      </trkpt>
      <trkpt lat="40.10770431719720363616943359375" lon="-0.74248130433261394500732421875">
        <ele>947</ele>
        <time>2021-09-26T11:14:32.000Z</time>
      </trkpt>
      <trkpt lat="40.10759468190371990203857421875" lon="-0.74250561185181140899658203125">
        <ele>947</ele>
        <time>2021-09-26T11:14:34.000Z</time>
      </trkpt>
      <trkpt lat="40.10748244822025299072265625" lon="-0.7425254769623279571533203125">
        <ele>947</ele>
        <time>2021-09-26T11:14:36.000Z</time>
      </trkpt>
      <trkpt lat="40.10742620564997196197509765625" lon="-0.742528997361660003662109375">
        <ele>947</ele>
        <time>2021-09-26T11:14:37.000Z</time>
      </trkpt>
      <trkpt lat="40.10737054981291294097900390625" lon="-0.74253243394196033477783203125">
        <ele>946.79998779296875</ele>
        <time>2021-09-26T11:14:38.000Z</time>
      </trkpt>
      <trkpt lat="40.107256472110748291015625" lon="-0.74253939092159271240234375">
        <ele>946.4000244140625</ele>
        <time>2021-09-26T11:14:40.000Z</time>
      </trkpt>
      <trkpt lat="40.10714557953178882598876953125" lon="-0.74254182167351245880126953125">
        <ele>946</ele>
        <time>2021-09-26T11:14:42.000Z</time>
      </trkpt>
      <trkpt lat="40.10703326202929019927978515625" lon="-0.742541737854480743408203125">
        <ele>945.20001220703125</ele>
        <time>2021-09-26T11:14:44.000Z</time>
      </trkpt>
      <trkpt lat="40.10697643272578716278076171875" lon="-0.7425412349402904510498046875">
        <ele>944.79998779296875</ele>
        <time>2021-09-26T11:14:45.000Z</time>
      </trkpt>
      <trkpt lat="40.106921531260013580322265625" lon="-0.742541067302227020263671875">
        <ele>944.4000244140625</ele>
        <time>2021-09-26T11:14:46.000Z</time>
      </trkpt>
      <trkpt lat="40.106811225414276123046875" lon="-0.7425298355519771575927734375">
        <ele>943.5999755859375</ele>
        <time>2021-09-26T11:14:48.000Z</time>
      </trkpt>
      <trkpt lat="40.10670083574950695037841796875" lon="-0.7425118982791900634765625">
        <ele>943.20001220703125</ele>
        <time>2021-09-26T11:14:50.000Z</time>
      </trkpt>
      <trkpt lat="40.10658449493348598480224609375" lon="-0.7424909435212612152099609375">
        <ele>942.5999755859375</ele>
        <time>2021-09-26T11:14:52.000Z</time>
      </trkpt>
      <trkpt lat="40.10646547190845012664794921875" lon="-0.74246772564947605133056640625">
        <ele>942</ele>
        <time>2021-09-26T11:14:54.000Z</time>
      </trkpt>
      <trkpt lat="40.10634678415954113006591796875" lon="-0.74244291521608829498291015625">
        <ele>941.79998779296875</ele>
        <time>2021-09-26T11:14:56.000Z</time>
      </trkpt>
      <trkpt lat="40.1062266714870929718017578125" lon="-0.74242028407752513885498046875">
        <ele>942.20001220703125</ele>
        <time>2021-09-26T11:14:58.000Z</time>
      </trkpt>
      <trkpt lat="40.106108151376247406005859375" lon="-0.74239513836801052093505859375">
        <ele>942.4000244140625</ele>
        <time>2021-09-26T11:15:00.000Z</time>
      </trkpt>
      <trkpt lat="40.1059960015118122100830078125" lon="-0.74236772954463958740234375">
        <ele>942.4000244140625</ele>
        <time>2021-09-26T11:15:02.000Z</time>
      </trkpt>
      <trkpt lat="40.105885528028011322021484375" lon="-0.742347948253154754638671875">
        <ele>942.79998779296875</ele>
        <time>2021-09-26T11:15:04.000Z</time>
      </trkpt>
      <trkpt lat="40.10577731765806674957275390625" lon="-0.74232657440006732940673828125">
        <ele>943.5999755859375</ele>
        <time>2021-09-26T11:15:06.000Z</time>
      </trkpt>
      <trkpt lat="40.10566852055490016937255859375" lon="-0.74230335652828216552734375">
        <ele>944</ele>
        <time>2021-09-26T11:15:08.000Z</time>
      </trkpt>
      <trkpt lat="40.1055577956140041351318359375" lon="-0.7422763668000698089599609375">
        <ele>944</ele>
        <time>2021-09-26T11:15:10.000Z</time>
      </trkpt>
      <trkpt lat="40.1054488308727741241455078125" lon="-0.74225247837603092193603515625">
        <ele>943.79998779296875</ele>
        <time>2021-09-26T11:15:12.000Z</time>
      </trkpt>
      <trkpt lat="40.10533860884606838226318359375" lon="-0.7422280870378017425537109375">
        <ele>943.79998779296875</ele>
        <time>2021-09-26T11:15:14.000Z</time>
      </trkpt>
      <trkpt lat="40.105231739580631256103515625" lon="-0.742207802832126617431640625">
        <ele>943.79998779296875</ele>
        <time>2021-09-26T11:15:16.000Z</time>
      </trkpt>
      <trkpt lat="40.1051232777535915374755859375" lon="-0.742185004055500030517578125">
        <ele>943.5999755859375</ele>
        <time>2021-09-26T11:15:18.000Z</time>
      </trkpt>
      <trkpt lat="40.10501707904040813446044921875" lon="-0.7421663962304592132568359375">
        <ele>943.5999755859375</ele>
        <time>2021-09-26T11:15:20.000Z</time>
      </trkpt>
      <trkpt lat="40.10491155087947845458984375" lon="-0.7421432621777057647705078125">
        <ele>944</ele>
        <time>2021-09-26T11:15:22.000Z</time>
      </trkpt>
      <trkpt lat="40.10480803437530994415283203125" lon="-0.74211484752595424652099609375">
        <ele>944.20001220703125</ele>
        <time>2021-09-26T11:15:24.000Z</time>
      </trkpt>
      <trkpt lat="40.10470309294760227203369140625" lon="-0.74209146201610565185546875">
        <ele>944</ele>
        <time>2021-09-26T11:15:26.000Z</time>
      </trkpt>
      <trkpt lat="40.10459647513926029205322265625" lon="-0.74206824414432048797607421875">
        <ele>943.4000244140625</ele>
        <time>2021-09-26T11:15:28.000Z</time>
      </trkpt>
      <trkpt lat="40.1044951379299163818359375" lon="-0.74204695411026477813720703125">
        <ele>943.5999755859375</ele>
        <time>2021-09-26T11:15:30.000Z</time>
      </trkpt>
      <trkpt lat="40.10439313016831874847412109375" lon="-0.742030106484889984130859375">
        <ele>944</ele>
        <time>2021-09-26T11:15:32.000Z</time>
      </trkpt>
      <trkpt lat="40.10429103858768939971923828125" lon="-0.74201770126819610595703125">
        <ele>944.5999755859375</ele>
        <time>2021-09-26T11:15:34.000Z</time>
      </trkpt>
      <trkpt lat="40.10418643243610858917236328125" lon="-0.74200370348989963531494140625">
        <ele>945.5999755859375</ele>
        <time>2021-09-26T11:15:36.000Z</time>
      </trkpt>
      <trkpt lat="40.1041328720748424530029296875" lon="-0.74199532158672809600830078125">
        <ele>946</ele>
        <time>2021-09-26T11:15:37.000Z</time>
      </trkpt>
      <trkpt lat="40.1040772162377834320068359375" lon="-0.741984844207763671875">
        <ele>946.5999755859375</ele>
        <time>2021-09-26T11:15:38.000Z</time>
      </trkpt>
      <trkpt lat="40.10396699421107769012451171875" lon="-0.741963051259517669677734375">
        <ele>947.20001220703125</ele>
        <time>2021-09-26T11:15:40.000Z</time>
      </trkpt>
      <trkpt lat="40.10385735891759395599365234375" lon="-0.74194268323481082916259765625">
        <ele>948</ele>
        <time>2021-09-26T11:15:42.000Z</time>
      </trkpt>
      <trkpt lat="40.1037442870438098907470703125" lon="-0.7419189624488353729248046875">
        <ele>948</ele>
        <time>2021-09-26T11:15:44.000Z</time>
      </trkpt>
      <trkpt lat="40.1036319695413112640380859375" lon="-0.7418964989483356475830078125">
        <ele>947.79998779296875</ele>
        <time>2021-09-26T11:15:46.000Z</time>
      </trkpt>
      <trkpt lat="40.10351235978305339813232421875" lon="-0.7418690063059329986572265625">
        <ele>948</ele>
        <time>2021-09-26T11:15:48.000Z</time>
      </trkpt>
      <trkpt lat="40.1033902354538440704345703125" lon="-0.7418431900441646575927734375">
        <ele>948.20001220703125</ele>
        <time>2021-09-26T11:15:50.000Z</time>
      </trkpt>
      <trkpt lat="40.103265680372714996337890625" lon="-0.74181578122079372406005859375">
        <ele>948.4000244140625</ele>
        <time>2021-09-26T11:15:52.000Z</time>
      </trkpt>
      <trkpt lat="40.1031525246798992156982421875" lon="-0.74178745038807392120361328125">
        <ele>948.79998779296875</ele>
        <time>2021-09-26T11:15:54.000Z</time>
      </trkpt>
      <trkpt lat="40.1030462421476840972900390625" lon="-0.7417627237737178802490234375">
        <ele>949.4000244140625</ele>
        <time>2021-09-26T11:15:56.000Z</time>
      </trkpt>
      <trkpt lat="40.10294473730027675628662109375" lon="-0.741742439568042755126953125">
        <ele>950</ele>
        <time>2021-09-26T11:15:58.000Z</time>
      </trkpt>
      <trkpt lat="40.10284197516739368438720703125" lon="-0.74172324500977993011474609375">
        <ele>950</ele>
        <time>2021-09-26T11:16:00.000Z</time>
      </trkpt>
      <trkpt lat="40.102724544703960418701171875" lon="-0.74169860221445560455322265625">
        <ele>949.79998779296875</ele>
        <time>2021-09-26T11:16:02.000Z</time>
      </trkpt>
      <trkpt lat="40.10260996408760547637939453125" lon="-0.74167580343782901763916015625">
        <ele>949.20001220703125</ele>
        <time>2021-09-26T11:16:04.000Z</time>
      </trkpt>
      <trkpt lat="40.10248876176774501800537109375" lon="-0.741658620536327362060546875">
        <ele>948.5999755859375</ele>
        <time>2021-09-26T11:16:06.000Z</time>
      </trkpt>
      <trkpt lat="40.1024303399026393890380859375" lon="-0.74164755642414093017578125">
        <ele>948.4000244140625</ele>
        <time>2021-09-26T11:16:07.000Z</time>
      </trkpt>
      <trkpt lat="40.10237242095172405242919921875" lon="-0.74163640849292278289794921875">
        <ele>948.20001220703125</ele>
        <time>2021-09-26T11:16:08.000Z</time>
      </trkpt>
      <trkpt lat="40.10225842706859111785888671875" lon="-0.74161277152597904205322265625">
        <ele>948.20001220703125</ele>
        <time>2021-09-26T11:16:10.000Z</time>
      </trkpt>
      <trkpt lat="40.1021453551948070526123046875" lon="-0.74158829636871814727783203125">
        <ele>948.4000244140625</ele>
        <time>2021-09-26T11:16:12.000Z</time>
      </trkpt>
      <trkpt lat="40.10202876292169094085693359375" lon="-0.74156750924885272979736328125">
        <ele>948.79998779296875</ele>
        <time>2021-09-26T11:16:14.000Z</time>
      </trkpt>
      <trkpt lat="40.10191191919147968292236328125" lon="-0.74154135771095752716064453125">
        <ele>949</ele>
        <time>2021-09-26T11:16:16.000Z</time>
      </trkpt>
      <trkpt lat="40.1017936505377292633056640625" lon="-0.741517134010791778564453125">
        <ele>949.20001220703125</ele>
        <time>2021-09-26T11:16:18.000Z</time>
      </trkpt>
      <trkpt lat="40.10167814791202545166015625" lon="-0.74148821644484996795654296875">
        <ele>949.20001220703125</ele>
        <time>2021-09-26T11:16:20.000Z</time>
      </trkpt>
      <trkpt lat="40.10156021453440189361572265625" lon="-0.7414653338491916656494140625">
        <ele>949</ele>
        <time>2021-09-26T11:16:22.000Z</time>
      </trkpt>
      <trkpt lat="40.1014473102986812591552734375" lon="-0.74144261889159679412841796875">
        <ele>947.79998779296875</ele>
        <time>2021-09-26T11:16:24.000Z</time>
      </trkpt>
      <trkpt lat="40.10133457370102405548095703125" lon="-0.74142266996204853057861328125">
        <ele>946.4000244140625</ele>
        <time>2021-09-26T11:16:26.000Z</time>
      </trkpt>
      <trkpt lat="40.101223178207874298095703125" lon="-0.7414039783179759979248046875">
        <ele>945</ele>
        <time>2021-09-26T11:16:28.000Z</time>
      </trkpt>
      <trkpt lat="40.101114213466644287109375" lon="-0.74137933552265167236328125">
        <ele>943.4000244140625</ele>
        <time>2021-09-26T11:16:30.000Z</time>
      </trkpt>
      <trkpt lat="40.10100734420120716094970703125" lon="-0.74135310016572475433349609375">
        <ele>942</ele>
        <time>2021-09-26T11:16:32.000Z</time>
      </trkpt>
      <trkpt lat="40.1009041629731655120849609375" lon="-0.741319991648197174072265625">
        <ele>941.5999755859375</ele>
        <time>2021-09-26T11:16:34.000Z</time>
      </trkpt>
      <trkpt lat="40.10080651380121707916259765625" lon="-0.741297192871570587158203125">
        <ele>941.4000244140625</ele>
        <time>2021-09-26T11:16:36.000Z</time>
      </trkpt>
      <trkpt lat="40.10070442222058773040771484375" lon="-0.741279758512973785400390625">
        <ele>941</ele>
        <time>2021-09-26T11:16:38.000Z</time>
      </trkpt>
      <trkpt lat="40.10060098953545093536376953125" lon="-0.74126089923083782196044921875">
        <ele>940.79998779296875</ele>
        <time>2021-09-26T11:16:40.000Z</time>
      </trkpt>
      <trkpt lat="40.10054918937385082244873046875" lon="-0.74125033803284168243408203125">
        <ele>940.79998779296875</ele>
        <time>2021-09-26T11:16:41.000Z</time>
      </trkpt>
      <trkpt lat="40.1004981435835361480712890625" lon="-0.74123919010162353515625">
        <ele>940.79998779296875</ele>
        <time>2021-09-26T11:16:42.000Z</time>
      </trkpt>
      <trkpt lat="40.1003962196409702301025390625" lon="-0.7412155531346797943115234375">
        <ele>940.79998779296875</ele>
        <time>2021-09-26T11:16:44.000Z</time>
      </trkpt>
      <trkpt lat="40.100292451679706573486328125" lon="-0.7411954365670680999755859375">
        <ele>941</ele>
        <time>2021-09-26T11:16:46.000Z</time>
      </trkpt>
      <trkpt lat="40.10018683969974517822265625" lon="-0.741173140704631805419921875">
        <ele>941</ele>
        <time>2021-09-26T11:16:48.000Z</time>
      </trkpt>
      <trkpt lat="40.10008089244365692138671875" lon="-0.74114732444286346435546875">
        <ele>941.20001220703125</ele>
        <time>2021-09-26T11:16:50.000Z</time>
      </trkpt>
      <trkpt lat="40.10002817027270793914794921875" lon="-0.74113751761615276336669921875">
        <ele>941.4000244140625</ele>
        <time>2021-09-26T11:16:51.000Z</time>
      </trkpt>
      <trkpt lat="40.09997586719691753387451171875" lon="-0.7411278784275054931640625">
        <ele>941.5999755859375</ele>
        <time>2021-09-26T11:16:52.000Z</time>
      </trkpt>
      <trkpt lat="40.0998708419501781463623046875" lon="-0.7411065883934497833251953125">
        <ele>942.20001220703125</ele>
        <time>2021-09-26T11:16:54.000Z</time>
      </trkpt>
      <trkpt lat="40.0997638888657093048095703125" lon="-0.7410841248929500579833984375">
        <ele>942.79998779296875</ele>
        <time>2021-09-26T11:16:56.000Z</time>
      </trkpt>
      <trkpt lat="40.099659450352191925048828125" lon="-0.74106174521148204803466796875">
        <ele>943.5999755859375</ele>
        <time>2021-09-26T11:16:58.000Z</time>
      </trkpt>
      <trkpt lat="40.0995571911334991455078125" lon="-0.74103810824453830718994140625">
        <ele>944.4000244140625</ele>
        <time>2021-09-26T11:17:00.000Z</time>
      </trkpt>
      <trkpt lat="40.099506564438343048095703125" lon="-0.741027295589447021484375">
        <ele>944.79998779296875</ele>
        <time>2021-09-26T11:17:01.000Z</time>
      </trkpt>
      <trkpt lat="40.09945652447640895843505859375" lon="-0.74102050624787807464599609375">
        <ele>945.20001220703125</ele>
        <time>2021-09-26T11:17:02.000Z</time>
      </trkpt>
      <trkpt lat="40.099355019629001617431640625" lon="-0.74099904857575893402099609375">
        <ele>946.4000244140625</ele>
        <time>2021-09-26T11:17:04.000Z</time>
      </trkpt>
      <trkpt lat="40.099253766238689422607421875" lon="-0.74098312295973300933837890625">
        <ele>947.5999755859375</ele>
        <time>2021-09-26T11:17:06.000Z</time>
      </trkpt>
      <trkpt lat="40.09915125556290149688720703125" lon="-0.74096568860113620758056640625">
        <ele>949.5999755859375</ele>
        <time>2021-09-26T11:17:08.000Z</time>
      </trkpt>
      <trkpt lat="40.0990490801632404327392578125" lon="-0.7409454882144927978515625">
        <ele>951.5999755859375</ele>
        <time>2021-09-26T11:17:10.000Z</time>
      </trkpt>
      <trkpt lat="40.09894221089780330657958984375" lon="-0.74092344380915164947509765625">
        <ele>952.4000244140625</ele>
        <time>2021-09-26T11:17:12.000Z</time>
      </trkpt>
      <trkpt lat="40.09883768856525421142578125" lon="-0.74090190231800079345703125">
        <ele>952.79998779296875</ele>
        <time>2021-09-26T11:17:14.000Z</time>
      </trkpt>
      <trkpt lat="40.09873576462268829345703125" lon="-0.7408853061497211456298828125">
        <ele>952.79998779296875</ele>
        <time>2021-09-26T11:17:16.000Z</time>
      </trkpt>
      <trkpt lat="40.0986303202807903289794921875" lon="-0.740865357220172882080078125">
        <ele>952.20001220703125</ele>
        <time>2021-09-26T11:17:18.000Z</time>
      </trkpt>
      <trkpt lat="40.09852328337728977203369140625" lon="-0.7408474199473857879638671875">
        <ele>951.79998779296875</ele>
        <time>2021-09-26T11:17:20.000Z</time>
      </trkpt>
      <trkpt lat="40.0984140671789646148681640625" lon="-0.740819089114665985107421875">
        <ele>951.4000244140625</ele>
        <time>2021-09-26T11:17:22.000Z</time>
      </trkpt>
      <trkpt lat="40.09831172414124011993408203125" lon="-0.74079100973904132843017578125">
        <ele>951.20001220703125</ele>
        <time>2021-09-26T11:17:24.000Z</time>
      </trkpt>
      <trkpt lat="40.09826327674090862274169921875" lon="-0.7407818734645843505859375">
        <ele>951.20001220703125</ele>
        <time>2021-09-26T11:17:25.000Z</time>
      </trkpt>
      <trkpt lat="40.09821231476962566375732421875" lon="-0.74077508412301540374755859375">
        <ele>951</ele>
        <time>2021-09-26T11:17:26.000Z</time>
      </trkpt>
      <trkpt lat="40.09811223484575748443603515625" lon="-0.74075697921216487884521484375">
        <ele>950.5999755859375</ele>
        <time>2021-09-26T11:17:28.000Z</time>
      </trkpt>
      <trkpt lat="40.09801215492188930511474609375" lon="-0.74073770083487033843994140625">
        <ele>950.4000244140625</ele>
        <time>2021-09-26T11:17:30.000Z</time>
      </trkpt>
      <trkpt lat="40.09791157208383083343505859375" lon="-0.7407153211534023284912109375">
        <ele>950.20001220703125</ele>
        <time>2021-09-26T11:17:32.000Z</time>
      </trkpt>
      <trkpt lat="40.0978102348744869232177734375" lon="-0.74069009162485599517822265625">
        <ele>950</ele>
        <time>2021-09-26T11:17:34.000Z</time>
      </trkpt>
      <trkpt lat="40.0977064669132232666015625" lon="-0.74067165143787860870361328125">
        <ele>950</ele>
        <time>2021-09-26T11:17:36.000Z</time>
      </trkpt>
      <trkpt lat="40.09759892709553241729736328125" lon="-0.74065036140382289886474609375">
        <ele>949.79998779296875</ele>
        <time>2021-09-26T11:17:38.000Z</time>
      </trkpt>
      <trkpt lat="40.0974933989346027374267578125" lon="-0.7406274788081645965576171875">
        <ele>950</ele>
        <time>2021-09-26T11:17:40.000Z</time>
      </trkpt>
      <trkpt lat="40.0973887927830219268798828125" lon="-0.740597806870937347412109375">
        <ele>950</ele>
        <time>2021-09-26T11:17:42.000Z</time>
      </trkpt>
      <trkpt lat="40.09728997014462947845458984375" lon="-0.74057274498045444488525390625">
        <ele>949.20001220703125</ele>
        <time>2021-09-26T11:17:44.000Z</time>
      </trkpt>
      <trkpt lat="40.09719550609588623046875" lon="-0.740552209317684173583984375">
        <ele>948.4000244140625</ele>
        <time>2021-09-26T11:17:46.000Z</time>
      </trkpt>
      <trkpt lat="40.09709735400974750518798828125" lon="-0.7405322603881359100341796875">
        <ele>947.5999755859375</ele>
        <time>2021-09-26T11:17:48.000Z</time>
      </trkpt>
      <trkpt lat="40.0969884730875492095947265625" lon="-0.7405087910592555999755859375">
        <ele>947.20001220703125</ele>
        <time>2021-09-26T11:17:50.000Z</time>
      </trkpt>
      <trkpt lat="40.09688235819339752197265625" lon="-0.74048423208296298980712890625">
        <ele>946.5999755859375</ele>
        <time>2021-09-26T11:17:52.000Z</time>
      </trkpt>
      <trkpt lat="40.0967792607843875885009765625" lon="-0.74046763591468334197998046875">
        <ele>946.5999755859375</ele>
        <time>2021-09-26T11:17:54.000Z</time>
      </trkpt>
      <trkpt lat="40.09672838263213634490966796875" lon="-0.74046478606760501861572265625">
        <ele>946.79998779296875</ele>
        <time>2021-09-26T11:17:55.000Z</time>
      </trkpt>
      <trkpt lat="40.096678175032138824462890625" lon="-0.7404574938118457794189453125">
        <ele>947</ele>
        <time>2021-09-26T11:17:56.000Z</time>
      </trkpt>
      <trkpt lat="40.09657901711761951446533203125" lon="-0.7404407300055027008056640625">
        <ele>947.20001220703125</ele>
        <time>2021-09-26T11:17:58.000Z</time>
      </trkpt>
      <trkpt lat="40.09648270905017852783203125" lon="-0.74042388238012790679931640625">
        <ele>947.20001220703125</ele>
        <time>2021-09-26T11:18:00.000Z</time>
      </trkpt>
      <trkpt lat="40.0963846407830715179443359375" lon="-0.74040678329765796661376953125">
        <ele>947.20001220703125</ele>
        <time>2021-09-26T11:18:02.000Z</time>
      </trkpt>
      <trkpt lat="40.09628632105886936187744140625" lon="-0.740390606224536895751953125">
        <ele>947.20001220703125</ele>
        <time>2021-09-26T11:18:04.000Z</time>
      </trkpt>
      <trkpt lat="40.096233598887920379638671875" lon="-0.7403795421123504638671875">
        <ele>947.20001220703125</ele>
        <time>2021-09-26T11:18:05.000Z</time>
      </trkpt>
      <trkpt lat="40.0961801223456859588623046875" lon="-0.74036889709532260894775390625">
        <ele>947</ele>
        <time>2021-09-26T11:18:06.000Z</time>
      </trkpt>
      <trkpt lat="40.0960765220224857330322265625" lon="-0.74034810997545719146728515625">
        <ele>947</ele>
        <time>2021-09-26T11:18:08.000Z</time>
      </trkpt>
      <trkpt lat="40.0959715805947780609130859375" lon="-0.74032631702721118927001953125">
        <ele>947</ele>
        <time>2021-09-26T11:18:10.000Z</time>
      </trkpt>
      <trkpt lat="40.0958726741373538970947265625" lon="-0.74030511081218719482421875">
        <ele>946.79998779296875</ele>
        <time>2021-09-26T11:18:12.000Z</time>
      </trkpt>
      <trkpt lat="40.09577485732734203338623046875" lon="-0.7402821443974971771240234375">
        <ele>946.79998779296875</ele>
        <time>2021-09-26T11:18:14.000Z</time>
      </trkpt>
      <trkpt lat="40.09566840715706348419189453125" lon="-0.74026194401085376739501953125">
        <ele>946.4000244140625</ele>
        <time>2021-09-26T11:18:16.000Z</time>
      </trkpt>
      <trkpt lat="40.0955585204064846038818359375" lon="-0.7402400672435760498046875">
        <ele>945.4000244140625</ele>
        <time>2021-09-26T11:18:18.000Z</time>
      </trkpt>
      <trkpt lat="40.095447041094303131103515625" lon="-0.74021735228598117828369140625">
        <ele>944.20001220703125</ele>
        <time>2021-09-26T11:18:20.000Z</time>
      </trkpt>
      <trkpt lat="40.09534411132335662841796875" lon="-0.740199498832225799560546875">
        <ele>942.5999755859375</ele>
        <time>2021-09-26T11:18:22.000Z</time>
      </trkpt>
      <trkpt lat="40.0952359847724437713623046875" lon="-0.74017544277012348175048828125">
        <ele>941.5999755859375</ele>
        <time>2021-09-26T11:18:24.000Z</time>
      </trkpt>
      <trkpt lat="40.09512341581284999847412109375" lon="-0.74015566147863864898681640625">
        <ele>940.5999755859375</ele>
        <time>2021-09-26T11:18:26.000Z</time>
      </trkpt>
      <trkpt lat="40.0950096733868122100830078125" lon="-0.7401292584836483001708984375">
        <ele>939.79998779296875</ele>
        <time>2021-09-26T11:18:28.000Z</time>
      </trkpt>
      <trkpt lat="40.09489618241786956787109375" lon="-0.7400997541844844818115234375">
        <ele>939</ele>
        <time>2021-09-26T11:18:30.000Z</time>
      </trkpt>
      <trkpt lat="40.0947803445160388946533203125" lon="-0.7400715909898281097412109375">
        <ele>939.4000244140625</ele>
        <time>2021-09-26T11:18:32.000Z</time>
      </trkpt>
      <trkpt lat="40.09466744028031826019287109375" lon="-0.74003362096846103668212890625">
        <ele>939.79998779296875</ele>
        <time>2021-09-26T11:18:34.000Z</time>
      </trkpt>
      <trkpt lat="40.09455529041588306427001953125" lon="-0.73998718522489070892333984375">
        <ele>940.20001220703125</ele>
        <time>2021-09-26T11:18:36.000Z</time>
      </trkpt>
      <trkpt lat="40.094500891864299774169921875" lon="-0.73996388353407382965087890625">
        <ele>940.4000244140625</ele>
        <time>2021-09-26T11:18:37.000Z</time>
      </trkpt>
      <trkpt lat="40.09444959461688995361328125" lon="-0.7399371452629566192626953125">
        <ele>940.5999755859375</ele>
        <time>2021-09-26T11:18:38.000Z</time>
      </trkpt>
      <trkpt lat="40.09434725157916545867919921875" lon="-0.73987620882689952850341796875">
        <ele>941.20001220703125</ele>
        <time>2021-09-26T11:18:40.000Z</time>
      </trkpt>
      <trkpt lat="40.094249434769153594970703125" lon="-0.7398114167153835296630859375">
        <ele>941.5999755859375</ele>
        <time>2021-09-26T11:18:42.000Z</time>
      </trkpt>
      <trkpt lat="40.09415513835847377777099609375" lon="-0.739738829433917999267578125">
        <ele>942</ele>
        <time>2021-09-26T11:18:44.000Z</time>
      </trkpt>
      <trkpt lat="40.0941087864339351654052734375" lon="-0.7396984286606311798095703125">
        <ele>942.20001220703125</ele>
        <time>2021-09-26T11:18:45.000Z</time>
      </trkpt>
      <trkpt lat="40.09406377561390399932861328125" lon="-0.73965274728834629058837890625">
        <ele>942.4000244140625</ele>
        <time>2021-09-26T11:18:46.000Z</time>
      </trkpt>
      <trkpt lat="40.09397475980222225189208984375" lon="-0.73955534957349300384521484375">
        <ele>942.5999755859375</ele>
        <time>2021-09-26T11:18:48.000Z</time>
      </trkpt>
      <trkpt lat="40.0938925333321094512939453125" lon="-0.739452838897705078125">
        <ele>943.20001220703125</ele>
        <time>2021-09-26T11:18:50.000Z</time>
      </trkpt>
      <trkpt lat="40.0938140787184238433837890625" lon="-0.7393443770706653594970703125">
        <ele>943.79998779296875</ele>
        <time>2021-09-26T11:18:52.000Z</time>
      </trkpt>
      <trkpt lat="40.09373805485665798187255859375" lon="-0.73923197574913501739501953125">
        <ele>944.4000244140625</ele>
        <time>2021-09-26T11:18:54.000Z</time>
      </trkpt>
      <trkpt lat="40.0936678983271121978759765625" lon="-0.739119239151477813720703125">
        <ele>945.5999755859375</ele>
        <time>2021-09-26T11:18:56.000Z</time>
      </trkpt>
      <trkpt lat="40.09359933435916900634765625" lon="-0.7390060834586620330810546875">
        <ele>946.20001220703125</ele>
        <time>2021-09-26T11:18:58.000Z</time>
      </trkpt>
      <trkpt lat="40.093528926372528076171875" lon="-0.7388924248516559600830078125">
        <ele>946.79998779296875</ele>
        <time>2021-09-26T11:19:00.000Z</time>
      </trkpt>
      <trkpt lat="40.09346262551844120025634765625" lon="-0.7387787662446498870849609375">
        <ele>948</ele>
        <time>2021-09-26T11:19:02.000Z</time>
      </trkpt>
      <trkpt lat="40.0933943130075931549072265625" lon="-0.73866284452378749847412109375">
        <ele>949.5999755859375</ele>
        <time>2021-09-26T11:19:04.000Z</time>
      </trkpt>
      <trkpt lat="40.0933265872299671173095703125" lon="-0.73854700662195682525634765625">
        <ele>951.79998779296875</ele>
        <time>2021-09-26T11:19:06.000Z</time>
      </trkpt>
      <trkpt lat="40.09325810708105564117431640625" lon="-0.73843158781528472900390625">
        <ele>952.5999755859375</ele>
        <time>2021-09-26T11:19:08.000Z</time>
      </trkpt>
      <trkpt lat="40.0931877829134464263916015625" lon="-0.7383194379508495330810546875">
        <ele>954</ele>
        <time>2021-09-26T11:19:10.000Z</time>
      </trkpt>
      <trkpt lat="40.09312047623097896575927734375" lon="-0.73820686899125576019287109375">
        <ele>955.79998779296875</ele>
        <time>2021-09-26T11:19:12.000Z</time>
      </trkpt>
      <trkpt lat="40.0930536724627017974853515625" lon="-0.738093964755535125732421875">
        <ele>956.79998779296875</ele>
        <time>2021-09-26T11:19:14.000Z</time>
      </trkpt>
      <trkpt lat="40.09299022145569324493408203125" lon="-0.737987346947193145751953125">
        <ele>957.4000244140625</ele>
        <time>2021-09-26T11:19:16.000Z</time>
      </trkpt>
      <trkpt lat="40.092960633337497711181640625" lon="-0.7379362173378467559814453125">
        <ele>957.20001220703125</ele>
        <time>2021-09-26T11:19:17.000Z</time>
      </trkpt>
      <trkpt lat="40.09292878210544586181640625" lon="-0.73788349516689777374267578125">
        <ele>957.20001220703125</ele>
        <time>2021-09-26T11:19:18.000Z</time>
      </trkpt>
      <trkpt lat="40.0928629003465175628662109375" lon="-0.7377759553492069244384765625">
        <ele>956.79998779296875</ele>
        <time>2021-09-26T11:19:20.000Z</time>
      </trkpt>
      <trkpt lat="40.09279559366405010223388671875" lon="-0.7376599498093128204345703125">
        <ele>956</ele>
        <time>2021-09-26T11:19:22.000Z</time>
      </trkpt>
      <trkpt lat="40.09276072494685649871826171875" lon="-0.73760320432484149932861328125">
        <ele>955.4000244140625</ele>
        <time>2021-09-26T11:19:23.000Z</time>
      </trkpt>
      <trkpt lat="40.09272300638258457183837890625" lon="-0.7375439442694187164306640625">
        <ele>954.79998779296875</ele>
        <time>2021-09-26T11:19:24.000Z</time>
      </trkpt>
      <trkpt lat="40.09263985790312290191650390625" lon="-0.73742844164371490478515625">
        <ele>954</ele>
        <time>2021-09-26T11:19:26.000Z</time>
      </trkpt>
      <trkpt lat="40.09255100972950458526611328125" lon="-0.7373209856450557708740234375">
        <ele>953.4000244140625</ele>
        <time>2021-09-26T11:19:28.000Z</time>
      </trkpt>
      <trkpt lat="40.092504657804965972900390625" lon="-0.73727019131183624267578125">
        <ele>952.79998779296875</ele>
        <time>2021-09-26T11:19:29.000Z</time>
      </trkpt>
      <trkpt lat="40.09245813824236392974853515625" lon="-0.73722057044506072998046875">
        <ele>952.5999755859375</ele>
        <time>2021-09-26T11:19:30.000Z</time>
      </trkpt>
      <trkpt lat="40.09236308746039867401123046875" lon="-0.73713004589080810546875">
        <ele>952</ele>
        <time>2021-09-26T11:19:32.000Z</time>
      </trkpt>
      <trkpt lat="40.0922607444226741790771484375" lon="-0.73705427348613739013671875">
        <ele>951.79998779296875</ele>
        <time>2021-09-26T11:19:34.000Z</time>
      </trkpt>
      <trkpt lat="40.0921558029949665069580078125" lon="-0.73698679916560649871826171875">
        <ele>951.5999755859375</ele>
        <time>2021-09-26T11:19:36.000Z</time>
      </trkpt>
      <trkpt lat="40.09205094538629055023193359375" lon="-0.73692510835826396942138671875">
        <ele>951.5999755859375</ele>
        <time>2021-09-26T11:19:38.000Z</time>
      </trkpt>
      <trkpt lat="40.09194298647344112396240234375" lon="-0.7368723861873149871826171875">
        <ele>951.4000244140625</ele>
        <time>2021-09-26T11:19:40.000Z</time>
      </trkpt>
      <trkpt lat="40.09182899259030818939208984375" lon="-0.73683156631886959075927734375">
        <ele>950.79998779296875</ele>
        <time>2021-09-26T11:19:42.000Z</time>
      </trkpt>
      <trkpt lat="40.09171642363071441650390625" lon="-0.736800469458103179931640625">
        <ele>950</ele>
        <time>2021-09-26T11:19:44.000Z</time>
      </trkpt>
      <trkpt lat="40.0916032679378986358642578125" lon="-0.7367771677672863006591796875">
        <ele>949.5999755859375</ele>
        <time>2021-09-26T11:19:46.000Z</time>
      </trkpt>
      <trkpt lat="40.09148617275059223175048828125" lon="-0.73676417581737041473388671875">
        <ele>949.20001220703125</ele>
        <time>2021-09-26T11:19:48.000Z</time>
      </trkpt>
      <trkpt lat="40.091368742287158966064453125" lon="-0.73674992658197879791259765625">
        <ele>949</ele>
        <time>2021-09-26T11:19:50.000Z</time>
      </trkpt>
      <trkpt lat="40.0912525691092014312744140625" lon="-0.7367372699081897735595703125">
        <ele>949</ele>
        <time>2021-09-26T11:19:52.000Z</time>
      </trkpt>
      <trkpt lat="40.091194398701190948486328125" lon="-0.73673240840435028076171875">
        <ele>949</ele>
        <time>2021-09-26T11:19:53.000Z</time>
      </trkpt>
      <trkpt lat="40.09113547392189502716064453125" lon="-0.73672830127179622650146484375">
        <ele>949</ele>
        <time>2021-09-26T11:19:54.000Z</time>
      </trkpt>
      <trkpt lat="40.09102198295295238494873046875" lon="-0.7367210090160369873046875">
        <ele>949</ele>
        <time>2021-09-26T11:19:56.000Z</time>
      </trkpt>
      <trkpt lat="40.0909139402210712432861328125" lon="-0.7367168180644512176513671875">
        <ele>948.5999755859375</ele>
        <time>2021-09-26T11:19:58.000Z</time>
      </trkpt>
      <trkpt lat="40.09080807678401470184326171875" lon="-0.73670868761837482452392578125">
        <ele>948.20001220703125</ele>
        <time>2021-09-26T11:20:00.000Z</time>
      </trkpt>
      <trkpt lat="40.09069609455764293670654296875" lon="-0.73669410310685634613037109375">
        <ele>948</ele>
        <time>2021-09-26T11:20:02.000Z</time>
      </trkpt>
      <trkpt lat="40.090642869472503662109375" lon="-0.73668873868882656097412109375">
        <ele>948.20001220703125</ele>
        <time>2021-09-26T11:20:03.000Z</time>
      </trkpt>
      <trkpt lat="40.09058863855898380279541015625" lon="-0.73668546974658966064453125">
        <ele>948.4000244140625</ele>
        <time>2021-09-26T11:20:04.000Z</time>
      </trkpt>
      <trkpt lat="40.090535916388034820556640625" lon="-0.73667901568114757537841796875">
        <ele>948.4000244140625</ele>
        <time>2021-09-26T11:20:05.000Z</time>
      </trkpt>
      <trkpt lat="40.09048663079738616943359375" lon="-0.736673735082149505615234375">
        <ele>948.5999755859375</ele>
        <time>2021-09-26T11:20:06.000Z</time>
      </trkpt>
      <trkpt lat="40.09038898162543773651123046875" lon="-0.73666275478899478912353515625">
        <ele>948.4000244140625</ele>
        <time>2021-09-26T11:20:08.000Z</time>
      </trkpt>
      <trkpt lat="40.0902901589870452880859375" lon="-0.7366566359996795654296875">
        <ele>948.4000244140625</ele>
        <time>2021-09-26T11:20:10.000Z</time>
      </trkpt>
      <trkpt lat="40.0901890732347965240478515625" lon="-0.7366485893726348876953125">
        <ele>948.5999755859375</ele>
        <time>2021-09-26T11:20:12.000Z</time>
      </trkpt>
      <trkpt lat="40.0900831259787082672119140625" lon="-0.73664213530719280242919921875">
        <ele>948.5999755859375</ele>
        <time>2021-09-26T11:20:14.000Z</time>
      </trkpt>
      <trkpt lat="40.08997692726552486419677734375" lon="-0.7366319932043552398681640625">
        <ele>948.5999755859375</ele>
        <time>2021-09-26T11:20:16.000Z</time>
      </trkpt>
      <trkpt lat="40.0898702256381511688232421875" lon="-0.7366226054728031158447265625">
        <ele>948.5999755859375</ele>
        <time>2021-09-26T11:20:18.000Z</time>
      </trkpt>
      <trkpt lat="40.0897676311433315277099609375" lon="-0.736611373722553253173828125">
        <ele>948.20001220703125</ele>
        <time>2021-09-26T11:20:20.000Z</time>
      </trkpt>
      <trkpt lat="40.08966277353465557098388671875" lon="-0.73660240508615970611572265625">
        <ele>948</ele>
        <time>2021-09-26T11:20:22.000Z</time>
      </trkpt>
      <trkpt lat="40.0895597599446773529052734375" lon="-0.73659921996295452117919921875">
        <ele>948.20001220703125</ele>
        <time>2021-09-26T11:20:24.000Z</time>
      </trkpt>
      <trkpt lat="40.08945465087890625" lon="-0.736585557460784912109375">
        <ele>948.5999755859375</ele>
        <time>2021-09-26T11:20:26.000Z</time>
      </trkpt>
      <trkpt lat="40.08934945799410343170166015625" lon="-0.736575834453105926513671875">
        <ele>949</ele>
        <time>2021-09-26T11:20:28.000Z</time>
      </trkpt>
      <trkpt lat="40.0892440974712371826171875" lon="-0.73656636290252208709716796875">
        <ele>949.5999755859375</ele>
        <time>2021-09-26T11:20:30.000Z</time>
      </trkpt>
      <trkpt lat="40.0891396589577198028564453125" lon="-0.73655781336128711700439453125">
        <ele>950.4000244140625</ele>
        <time>2021-09-26T11:20:32.000Z</time>
      </trkpt>
      <trkpt lat="40.0890340469777584075927734375" lon="-0.73654842562973499298095703125">
        <ele>951.20001220703125</ele>
        <time>2021-09-26T11:20:34.000Z</time>
      </trkpt>
      <trkpt lat="40.08892851881682872772216796875" lon="-0.73653903789818286895751953125">
        <ele>952</ele>
        <time>2021-09-26T11:20:36.000Z</time>
      </trkpt>
      <trkpt lat="40.0888283550739288330078125" lon="-0.73652948252856731414794921875">
        <ele>953.20001220703125</ele>
        <time>2021-09-26T11:20:38.000Z</time>
      </trkpt>
      <trkpt lat="40.0887269340455532073974609375" lon="-0.73651858605444431304931640625">
        <ele>954</ele>
        <time>2021-09-26T11:20:40.000Z</time>
      </trkpt>
      <trkpt lat="40.08862475864589214324951171875" lon="-0.7365117967128753662109375">
        <ele>954</ele>
        <time>2021-09-26T11:20:42.000Z</time>
      </trkpt>
      <trkpt lat="40.08851923048496246337890625" lon="-0.73650232516229152679443359375">
        <ele>954</ele>
        <time>2021-09-26T11:20:44.000Z</time>
      </trkpt>
      <trkpt lat="40.08841755799949169158935546875" lon="-0.73649545200169086456298828125">
        <ele>953.4000244140625</ele>
        <time>2021-09-26T11:20:46.000Z</time>
      </trkpt>
      <trkpt lat="40.08832451887428760528564453125" lon="-0.736492685973644256591796875">
        <ele>952.4000244140625</ele>
        <time>2021-09-26T11:20:48.000Z</time>
      </trkpt>
      <trkpt lat="40.08828093297779560089111328125" lon="-0.73648707009851932525634765625">
        <ele>952</ele>
        <time>2021-09-26T11:20:49.000Z</time>
      </trkpt>
      <trkpt lat="40.0882347486913204193115234375" lon="-0.73648220859467983245849609375">
        <ele>951.4000244140625</ele>
        <time>2021-09-26T11:20:50.000Z</time>
      </trkpt>
      <trkpt lat="40.08813089691102504730224609375" lon="-0.73647952638566493988037109375">
        <ele>950.79998779296875</ele>
        <time>2021-09-26T11:20:52.000Z</time>
      </trkpt>
      <trkpt lat="40.0880272127687931060791015625" lon="-0.73646728880703449249267578125">
        <ele>950.4000244140625</ele>
        <time>2021-09-26T11:20:54.000Z</time>
      </trkpt>
      <trkpt lat="40.087923444807529449462890625" lon="-0.7364599965512752532958984375">
        <ele>950</ele>
        <time>2021-09-26T11:20:56.000Z</time>
      </trkpt>
      <trkpt lat="40.087820850312709808349609375" lon="-0.7364512793719768524169921875">
        <ele>950.4000244140625</ele>
        <time>2021-09-26T11:20:58.000Z</time>
      </trkpt>
      <trkpt lat="40.0877207703888416290283203125" lon="-0.73644499294459819793701171875">
        <ele>950.79998779296875</ele>
        <time>2021-09-26T11:21:00.000Z</time>
      </trkpt>
      <trkpt lat="40.08762161247432231903076171875" lon="-0.73643426410853862762451171875">
        <ele>951</ele>
        <time>2021-09-26T11:21:02.000Z</time>
      </trkpt>
      <trkpt lat="40.08757132105529308319091796875" lon="-0.73642923496663570404052734375">
        <ele>951.20001220703125</ele>
        <time>2021-09-26T11:21:03.000Z</time>
      </trkpt>
      <trkpt lat="40.08751734159886837005615234375" lon="-0.73642655275762081146240234375">
        <ele>951.4000244140625</ele>
        <time>2021-09-26T11:21:04.000Z</time>
      </trkpt>
      <trkpt lat="40.08740887977182865142822265625" lon="-0.73641766794025897979736328125">
        <ele>951.79998779296875</ele>
        <time>2021-09-26T11:21:06.000Z</time>
      </trkpt>
      <trkpt lat="40.08729748427867889404296875" lon="-0.7364073581993579864501953125">
        <ele>952.20001220703125</ele>
        <time>2021-09-26T11:21:08.000Z</time>
      </trkpt>
      <trkpt lat="40.0871873460710048675537109375" lon="-0.73639738373458385467529296875">
        <ele>952.5999755859375</ele>
        <time>2021-09-26T11:21:10.000Z</time>
      </trkpt>
      <trkpt lat="40.08707963861525058746337890625" lon="-0.7363912649452686309814453125">
        <ele>953</ele>
        <time>2021-09-26T11:21:12.000Z</time>
      </trkpt>
      <trkpt lat="40.08696815930306911468505859375" lon="-0.736382715404033660888671875">
        <ele>953.79998779296875</ele>
        <time>2021-09-26T11:21:14.000Z</time>
      </trkpt>
      <trkpt lat="40.08685701526701450347900390625" lon="-0.7363698072731494903564453125">
        <ele>954.20001220703125</ele>
        <time>2021-09-26T11:21:16.000Z</time>
      </trkpt>
      <trkpt lat="40.0867504812777042388916015625" lon="-0.73635698296129703521728515625">
        <ele>954.5999755859375</ele>
        <time>2021-09-26T11:21:18.000Z</time>
      </trkpt>
      <trkpt lat="40.086647383868694305419921875" lon="-0.73635094799101352691650390625">
        <ele>954.79998779296875</ele>
        <time>2021-09-26T11:21:20.000Z</time>
      </trkpt>
      <trkpt lat="40.08655040524899959564208984375" lon="-0.7363470084965229034423828125">
        <ele>954.79998779296875</ele>
        <time>2021-09-26T11:21:22.000Z</time>
      </trkpt>
      <trkpt lat="40.0864467211067676544189453125" lon="-0.73633552528917789459228515625">
        <ele>954.79998779296875</ele>
        <time>2021-09-26T11:21:24.000Z</time>
      </trkpt>
      <trkpt lat="40.0863431207835674285888671875" lon="-0.73632278479635715484619140625">
        <ele>954.79998779296875</ele>
        <time>2021-09-26T11:21:26.000Z</time>
      </trkpt>
      <trkpt lat="40.0862358324229717254638671875" lon="-0.73631423525512218475341796875">
        <ele>954.79998779296875</ele>
        <time>2021-09-26T11:21:28.000Z</time>
      </trkpt>
      <trkpt lat="40.086132399737834930419921875" lon="-0.73630459606647491455078125">
        <ele>954.4000244140625</ele>
        <time>2021-09-26T11:21:30.000Z</time>
      </trkpt>
      <trkpt lat="40.0860323198139667510986328125" lon="-0.7362933643162250518798828125">
        <ele>954.4000244140625</ele>
        <time>2021-09-26T11:21:32.000Z</time>
      </trkpt>
      <trkpt lat="40.0859250314533710479736328125" lon="-0.73628716170787811279296875">
        <ele>954.20001220703125</ele>
        <time>2021-09-26T11:21:34.000Z</time>
      </trkpt>
      <trkpt lat="40.08581950329244136810302734375" lon="-0.736280791461467742919921875">
        <ele>953.79998779296875</ele>
        <time>2021-09-26T11:21:36.000Z</time>
      </trkpt>
      <trkpt lat="40.08571766316890716552734375" lon="-0.7362655363976955413818359375">
        <ele>953.4000244140625</ele>
        <time>2021-09-26T11:21:38.000Z</time>
      </trkpt>
      <trkpt lat="40.085612721741199493408203125" lon="-0.7362548075616359710693359375">
        <ele>953.20001220703125</ele>
        <time>2021-09-26T11:21:40.000Z</time>
      </trkpt>
      <trkpt lat="40.08550702594220638275146484375" lon="-0.7362413965165615081787109375">
        <ele>952.79998779296875</ele>
        <time>2021-09-26T11:21:42.000Z</time>
      </trkpt>
      <trkpt lat="40.08540518581867218017578125" lon="-0.736238546669483184814453125">
        <ele>952.4000244140625</ele>
        <time>2021-09-26T11:21:44.000Z</time>
      </trkpt>
      <trkpt lat="40.08535330183804035186767578125" lon="-0.7362370379269123077392578125">
        <ele>952.4000244140625</ele>
        <time>2021-09-26T11:21:45.000Z</time>
      </trkpt>
      <trkpt lat="40.0853034295141696929931640625" lon="-0.736234523355960845947265625">
        <ele>952.4000244140625</ele>
        <time>2021-09-26T11:21:46.000Z</time>
      </trkpt>
      <trkpt lat="40.08520259521901607513427734375" lon="-0.736229158937931060791015625">
        <ele>952.4000244140625</ele>
        <time>2021-09-26T11:21:48.000Z</time>
      </trkpt>
      <trkpt lat="40.08509849198162555694580078125" lon="-0.73622320778667926788330078125">
        <ele>952.20001220703125</ele>
        <time>2021-09-26T11:21:50.000Z</time>
      </trkpt>
      <trkpt lat="40.0849896110594272613525390625" lon="-0.7362179271876811981201171875">
        <ele>951.5999755859375</ele>
        <time>2021-09-26T11:21:52.000Z</time>
      </trkpt>
      <trkpt lat="40.08493638597428798675537109375" lon="-0.73621398769319057464599609375">
        <ele>951.4000244140625</ele>
        <time>2021-09-26T11:21:53.000Z</time>
      </trkpt>
      <trkpt lat="40.0848823226988315582275390625" lon="-0.73620912618935108184814453125">
        <ele>951.20001220703125</ele>
        <time>2021-09-26T11:21:54.000Z</time>
      </trkpt>
      <trkpt lat="40.0847770459949970245361328125" lon="-0.73620007373392581939697265625">
        <ele>950.79998779296875</ele>
        <time>2021-09-26T11:21:56.000Z</time>
      </trkpt>
      <trkpt lat="40.0846754573285579681396484375" lon="-0.73618968017399311065673828125">
        <ele>950.4000244140625</ele>
        <time>2021-09-26T11:21:58.000Z</time>
      </trkpt>
      <trkpt lat="40.08457378484308719635009765625" lon="-0.7361803762614727020263671875">
        <ele>950.20001220703125</ele>
        <time>2021-09-26T11:22:00.000Z</time>
      </trkpt>
      <trkpt lat="40.08452131412923336029052734375" lon="-0.7361753471195697784423828125">
        <ele>950.5999755859375</ele>
        <time>2021-09-26T11:22:01.000Z</time>
      </trkpt>
      <trkpt lat="40.0844692625105381011962890625" lon="-0.7361706532537937164306640625">
        <ele>951</ele>
        <time>2021-09-26T11:22:02.000Z</time>
      </trkpt>
      <trkpt lat="40.0843619741499423980712890625" lon="-0.7361646182835102081298828125">
        <ele>951.79998779296875</ele>
        <time>2021-09-26T11:22:04.000Z</time>
      </trkpt>
      <trkpt lat="40.084258206188678741455078125" lon="-0.73615531437098979949951171875">
        <ele>952.4000244140625</ele>
        <time>2021-09-26T11:22:06.000Z</time>
      </trkpt>
      <trkpt lat="40.08415904827415943145751953125" lon="-0.7361381314694881439208984375">
        <ele>953</ele>
        <time>2021-09-26T11:22:08.000Z</time>
      </trkpt>
      <trkpt lat="40.08405662141740322113037109375" lon="-0.73611742816865444183349609375">
        <ele>954</ele>
        <time>2021-09-26T11:22:10.000Z</time>
      </trkpt>
      <trkpt lat="40.08395754732191562652587890625" lon="-0.73609513230621814727783203125">
        <ele>955</ele>
        <time>2021-09-26T11:22:12.000Z</time>
      </trkpt>
      <trkpt lat="40.08386065252125263214111328125" lon="-0.7360657118260860443115234375">
        <ele>956</ele>
        <time>2021-09-26T11:22:14.000Z</time>
      </trkpt>
      <trkpt lat="40.08376308716833591461181640625" lon="-0.73603344149887561798095703125">
        <ele>956.5999755859375</ele>
        <time>2021-09-26T11:22:16.000Z</time>
      </trkpt>
      <trkpt lat="40.08366971276700496673583984375" lon="-0.73599337600171566009521484375">
        <ele>957.20001220703125</ele>
        <time>2021-09-26T11:22:18.000Z</time>
      </trkpt>
      <trkpt lat="40.08357281796634197235107421875" lon="-0.7359445095062255859375">
        <ele>958.20001220703125</ele>
        <time>2021-09-26T11:22:20.000Z</time>
      </trkpt>
      <trkpt lat="40.083472989499568939208984375" lon="-0.7358863390982151031494140625">
        <ele>959</ele>
        <time>2021-09-26T11:22:22.000Z</time>
      </trkpt>
      <trkpt lat="40.0833779387176036834716796875" lon="-0.7358263246715068817138671875">
        <ele>958.4000244140625</ele>
        <time>2021-09-26T11:22:24.000Z</time>
      </trkpt>
      <trkpt lat="40.08328749798238277435302734375" lon="-0.73576354421675205230712890625">
        <ele>958</ele>
        <time>2021-09-26T11:22:26.000Z</time>
      </trkpt>
      <trkpt lat="40.083197392523288726806640625" lon="-0.7356925494968891143798828125">
        <ele>957.4000244140625</ele>
        <time>2021-09-26T11:22:28.000Z</time>
      </trkpt>
      <trkpt lat="40.083114914596080780029296875" lon="-0.7356241531670093536376953125">
        <ele>956.20001220703125</ele>
        <time>2021-09-26T11:22:30.000Z</time>
      </trkpt>
      <trkpt lat="40.0830379687249660491943359375" lon="-0.73554955422878265380859375">
        <ele>955.4000244140625</ele>
        <time>2021-09-26T11:22:32.000Z</time>
      </trkpt>
      <trkpt lat="40.0829578377306461334228515625" lon="-0.73546104133129119873046875">
        <ele>955</ele>
        <time>2021-09-26T11:22:34.000Z</time>
      </trkpt>
      <trkpt lat="40.08288214914500713348388671875" lon="-0.73536842130124568939208984375">
        <ele>955</ele>
        <time>2021-09-26T11:22:36.000Z</time>
      </trkpt>
      <trkpt lat="40.082845352590084075927734375" lon="-0.73532424867153167724609375">
        <ele>955</ele>
        <time>2021-09-26T11:22:37.000Z</time>
      </trkpt>
      <trkpt lat="40.0828103162348270416259765625" lon="-0.7352791540324687957763671875">
        <ele>954.79998779296875</ele>
        <time>2021-09-26T11:22:38.000Z</time>
      </trkpt>
      <trkpt lat="40.08274384774267673492431640625" lon="-0.73518787510693073272705078125">
        <ele>954.79998779296875</ele>
        <time>2021-09-26T11:22:40.000Z</time>
      </trkpt>
      <trkpt lat="40.08267813362181186676025390625" lon="-0.7350947521626949310302734375">
        <ele>955</ele>
        <time>2021-09-26T11:22:42.000Z</time>
      </trkpt>
      <trkpt lat="40.0826463662087917327880859375" lon="-0.7350427843630313873291015625">
        <ele>955</ele>
        <time>2021-09-26T11:22:43.000Z</time>
      </trkpt>
      <trkpt lat="40.0826158560812473297119140625" lon="-0.7349861226975917816162109375">
        <ele>955.20001220703125</ele>
        <time>2021-09-26T11:22:44.000Z</time>
      </trkpt>
      <trkpt lat="40.0825524888932704925537109375" lon="-0.73488126508891582489013671875">
        <ele>955.4000244140625</ele>
        <time>2021-09-26T11:22:46.000Z</time>
      </trkpt>
      <trkpt lat="40.08249205537140369415283203125" lon="-0.73477548547089099884033203125">
        <ele>956.20001220703125</ele>
        <time>2021-09-26T11:22:48.000Z</time>
      </trkpt>
      <trkpt lat="40.0824331305921077728271484375" lon="-0.73467381298542022705078125">
        <ele>956.4000244140625</ele>
        <time>2021-09-26T11:22:50.000Z</time>
      </trkpt>
      <trkpt lat="40.0823818333446979522705078125" lon="-0.73457566089928150177001953125">
        <ele>956.20001220703125</ele>
        <time>2021-09-26T11:22:52.000Z</time>
      </trkpt>
      <trkpt lat="40.08232391439378261566162109375" lon="-0.73448069393634796142578125">
        <ele>956.20001220703125</ele>
        <time>2021-09-26T11:22:54.000Z</time>
      </trkpt>
      <trkpt lat="40.08226406760513782501220703125" lon="-0.7343755848705768585205078125">
        <ele>956</ele>
        <time>2021-09-26T11:22:56.000Z</time>
      </trkpt>
      <trkpt lat="40.082233138382434844970703125" lon="-0.73432168923318386077880859375">
        <ele>955.79998779296875</ele>
        <time>2021-09-26T11:22:57.000Z</time>
      </trkpt>
      <trkpt lat="40.08220195770263671875" lon="-0.73426586575806140899658203125">
        <ele>955.79998779296875</ele>
        <time>2021-09-26T11:22:58.000Z</time>
      </trkpt>
      <trkpt lat="40.0821427814662456512451171875" lon="-0.7341610081493854522705078125">
        <ele>955.4000244140625</ele>
        <time>2021-09-26T11:23:00.000Z</time>
      </trkpt>
      <trkpt lat="40.0820854492485523223876953125" lon="-0.73405564762651920318603515625">
        <ele>955.5999755859375</ele>
        <time>2021-09-26T11:23:02.000Z</time>
      </trkpt>
      <trkpt lat="40.0820247642695903778076171875" lon="-0.7339489459991455078125">
        <ele>955.79998779296875</ele>
        <time>2021-09-26T11:23:04.000Z</time>
      </trkpt>
      <trkpt lat="40.08196617476642131805419921875" lon="-0.73384635150432586669921875">
        <ele>956.5999755859375</ele>
        <time>2021-09-26T11:23:06.000Z</time>
      </trkpt>
      <trkpt lat="40.08193750865757465362548828125" lon="-0.73379446752369403839111328125">
        <ele>956.5999755859375</ele>
        <time>2021-09-26T11:23:07.000Z</time>
      </trkpt>
      <trkpt lat="40.08190733380615711212158203125" lon="-0.73374702595174312591552734375">
        <ele>956.5999755859375</ele>
        <time>2021-09-26T11:23:08.000Z</time>
      </trkpt>
      <trkpt lat="40.08184866048395633697509765625" lon="-0.73364560492336750030517578125">
        <ele>956.79998779296875</ele>
        <time>2021-09-26T11:23:10.000Z</time>
      </trkpt>
      <trkpt lat="40.0817900709807872772216796875" lon="-0.73353982530534267425537109375">
        <ele>956.79998779296875</ele>
        <time>2021-09-26T11:23:12.000Z</time>
      </trkpt>
      <trkpt lat="40.0817310623824596405029296875" lon="-0.7334327884018421173095703125">
        <ele>956.79998779296875</ele>
        <time>2021-09-26T11:23:14.000Z</time>
      </trkpt>
      <trkpt lat="40.08170013315975666046142578125" lon="-0.73337855748832225799560546875">
        <ele>956.79998779296875</ele>
        <time>2021-09-26T11:23:15.000Z</time>
      </trkpt>
      <trkpt lat="40.081669874489307403564453125" lon="-0.73332675732672214508056640625">
        <ele>956.79998779296875</ele>
        <time>2021-09-26T11:23:16.000Z</time>
      </trkpt>
      <trkpt lat="40.081610195338726043701171875" lon="-0.73321913368999958038330078125">
        <ele>956.4000244140625</ele>
        <time>2021-09-26T11:23:18.000Z</time>
      </trkpt>
      <trkpt lat="40.08155286312103271484375" lon="-0.73312441818416118621826171875">
        <ele>956</ele>
        <time>2021-09-26T11:23:20.000Z</time>
      </trkpt>
      <trkpt lat="40.08149745874106884002685546875" lon="-0.7330249249935150146484375">
        <ele>956.79998779296875</ele>
        <time>2021-09-26T11:23:22.000Z</time>
      </trkpt>
      <trkpt lat="40.08147080428898334503173828125" lon="-0.7329734601080417633056640625">
        <ele>957.20001220703125</ele>
        <time>2021-09-26T11:23:23.000Z</time>
      </trkpt>
      <trkpt lat="40.08144046179950237274169921875" lon="-0.732921995222568511962890625">
        <ele>957.4000244140625</ele>
        <time>2021-09-26T11:23:24.000Z</time>
      </trkpt>
      <trkpt lat="40.08138178847730159759521484375" lon="-0.73281898163259029388427734375">
        <ele>957.79998779296875</ele>
        <time>2021-09-26T11:23:26.000Z</time>
      </trkpt>
      <trkpt lat="40.0813237018883228302001953125" lon="-0.73271404020488262176513671875">
        <ele>958.4000244140625</ele>
        <time>2021-09-26T11:23:28.000Z</time>
      </trkpt>
      <trkpt lat="40.08126326836645603179931640625" lon="-0.7326110266149044036865234375">
        <ele>959.20001220703125</ele>
        <time>2021-09-26T11:23:30.000Z</time>
      </trkpt>
      <trkpt lat="40.081203170120716094970703125" lon="-0.73250633664429187774658203125">
        <ele>960.20001220703125</ele>
        <time>2021-09-26T11:23:32.000Z</time>
      </trkpt>
      <trkpt lat="40.08117425255477428436279296875" lon="-0.73245487175881862640380859375">
        <ele>960.79998779296875</ele>
        <time>2021-09-26T11:23:33.000Z</time>
      </trkpt>
      <trkpt lat="40.0811433233320713043212890625" lon="-0.73240206576883792877197265625">
        <ele>961.20001220703125</ele>
        <time>2021-09-26T11:23:34.000Z</time>
      </trkpt>
      <trkpt lat="40.0810816325247287750244140625" lon="-0.7322941906750202178955078125">
        <ele>961.79998779296875</ele>
        <time>2021-09-26T11:23:36.000Z</time>
      </trkpt>
      <trkpt lat="40.0810186006128787994384765625" lon="-0.73218598030507564544677734375">
        <ele>962.4000244140625</ele>
        <time>2021-09-26T11:23:38.000Z</time>
      </trkpt>
      <trkpt lat="40.08095431141555309295654296875" lon="-0.7320807874202728271484375">
        <ele>962.5999755859375</ele>
        <time>2021-09-26T11:23:40.000Z</time>
      </trkpt>
      <trkpt lat="40.08089446462690830230712890625" lon="-0.7319734990596771240234375">
        <ele>962.4000244140625</ele>
        <time>2021-09-26T11:23:42.000Z</time>
      </trkpt>
      <trkpt lat="40.08086378686130046844482421875" lon="-0.73192195035517215728759765625">
        <ele>962.4000244140625</ele>
        <time>2021-09-26T11:23:43.000Z</time>
      </trkpt>
      <trkpt lat="40.08083445020020008087158203125" lon="-0.73186947964131832122802734375">
        <ele>962.20001220703125</ele>
        <time>2021-09-26T11:23:44.000Z</time>
      </trkpt>
      <trkpt lat="40.0807763636112213134765625" lon="-0.7317642867565155029296875">
        <ele>962.4000244140625</ele>
        <time>2021-09-26T11:23:46.000Z</time>
      </trkpt>
      <trkpt lat="40.08071668446063995361328125" lon="-0.73165859095752239227294921875">
        <ele>962.4000244140625</ele>
        <time>2021-09-26T11:23:48.000Z</time>
      </trkpt>
      <trkpt lat="40.080655999481678009033203125" lon="-0.7315619476139545440673828125">
        <ele>962.20001220703125</ele>
        <time>2021-09-26T11:23:50.000Z</time>
      </trkpt>
      <trkpt lat="40.0805944763123989105224609375" lon="-0.73146949522197246551513671875">
        <ele>961.5999755859375</ele>
        <time>2021-09-26T11:23:52.000Z</time>
      </trkpt>
      <trkpt lat="40.0805277563631534576416015625" lon="-0.73137863539159297943115234375">
        <ele>960.79998779296875</ele>
        <time>2021-09-26T11:23:54.000Z</time>
      </trkpt>
      <trkpt lat="40.08045827038586139678955078125" lon="-0.7312816567718982696533203125">
        <ele>960</ele>
        <time>2021-09-26T11:23:56.000Z</time>
      </trkpt>
      <trkpt lat="40.080383755266666412353515625" lon="-0.7311921380460262298583984375">
        <ele>959.4000244140625</ele>
        <time>2021-09-26T11:23:58.000Z</time>
      </trkpt>
      <trkpt lat="40.08034628815948963165283203125" lon="-0.7311522401869297027587890625">
        <ele>959</ele>
        <time>2021-09-26T11:23:59.000Z</time>
      </trkpt>
      <trkpt lat="40.0803111679852008819580078125" lon="-0.73111393488943576812744140625">
        <ele>958.79998779296875</ele>
        <time>2021-09-26T11:24:00.000Z</time>
      </trkpt>
      <trkpt lat="40.08023254573345184326171875" lon="-0.73103648610413074493408203125">
        <ele>958</ele>
        <time>2021-09-26T11:24:02.000Z</time>
      </trkpt>
      <trkpt lat="40.08014830760657787322998046875" lon="-0.73096037842333316802978515625">
        <ele>956.79998779296875</ele>
        <time>2021-09-26T11:24:04.000Z</time>
      </trkpt>
      <trkpt lat="40.08005627430975437164306640625" lon="-0.730897597968578338623046875">
        <ele>956.4000244140625</ele>
        <time>2021-09-26T11:24:06.000Z</time>
      </trkpt>
      <trkpt lat="40.0799551047384738922119140625" lon="-0.73084755800664424896240234375">
        <ele>956.5999755859375</ele>
        <time>2021-09-26T11:24:08.000Z</time>
      </trkpt>
      <trkpt lat="40.07985075004398822784423828125" lon="-0.73079709894955158233642578125">
        <ele>956.5999755859375</ele>
        <time>2021-09-26T11:24:10.000Z</time>
      </trkpt>
      <trkpt lat="40.0798000395298004150390625" lon="-0.7307693548500537872314453125">
        <ele>956.5999755859375</ele>
        <time>2021-09-26T11:24:11.000Z</time>
      </trkpt>
      <trkpt lat="40.0797495804727077484130859375" lon="-0.73073423467576503753662109375">
        <ele>956.4000244140625</ele>
        <time>2021-09-26T11:24:12.000Z</time>
      </trkpt>
      <trkpt lat="40.07970524020493030548095703125" lon="-0.73069567792117595672607421875">
        <ele>956.5999755859375</ele>
        <time>2021-09-26T11:24:13.000Z</time>
      </trkpt>
      <trkpt lat="40.0796634145081043243408203125" lon="-0.73065443895757198333740234375">
        <ele>956.79998779296875</ele>
        <time>2021-09-26T11:24:14.000Z</time>
      </trkpt>
      <trkpt lat="40.07958470843732357025146484375" lon="-0.730582773685455322265625">
        <ele>956.79998779296875</ele>
        <time>2021-09-26T11:24:16.000Z</time>
      </trkpt>
      <trkpt lat="40.07954196073114871978759765625" lon="-0.73054698295891284942626953125">
        <ele>956.5999755859375</ele>
        <time>2021-09-26T11:24:17.000Z</time>
      </trkpt>
      <trkpt lat="40.079497285187244415283203125" lon="-0.73051244951784610748291015625">
        <ele>956.20001220703125</ele>
        <time>2021-09-26T11:24:18.000Z</time>
      </trkpt>
      <trkpt lat="40.07940952666103839874267578125" lon="-0.730454027652740478515625">
        <ele>956.4000244140625</ele>
        <time>2021-09-26T11:24:20.000Z</time>
      </trkpt>
      <trkpt lat="40.07931699045002460479736328125" lon="-0.73039476759731769561767578125">
        <ele>956.79998779296875</ele>
        <time>2021-09-26T11:24:22.000Z</time>
      </trkpt>
      <trkpt lat="40.079224370419979095458984375" lon="-0.73032855056226253509521484375">
        <ele>957</ele>
        <time>2021-09-26T11:24:24.000Z</time>
      </trkpt>
      <trkpt lat="40.07912957109510898590087890625" lon="-0.73027004487812519073486328125">
        <ele>956.79998779296875</ele>
        <time>2021-09-26T11:24:26.000Z</time>
      </trkpt>
      <trkpt lat="40.07903653196990489959716796875" lon="-0.730206258594989776611328125">
        <ele>957</ele>
        <time>2021-09-26T11:24:28.000Z</time>
      </trkpt>
      <trkpt lat="40.07894483394920825958251953125" lon="-0.730143226683139801025390625">
        <ele>957</ele>
        <time>2021-09-26T11:24:30.000Z</time>
      </trkpt>
      <trkpt lat="40.078856237232685089111328125" lon="-0.7300813682377338409423828125">
        <ele>957</ele>
        <time>2021-09-26T11:24:32.000Z</time>
      </trkpt>
      <trkpt lat="40.07876931689679622650146484375" lon="-0.730022527277469635009765625">
        <ele>956.79998779296875</ele>
        <time>2021-09-26T11:24:34.000Z</time>
      </trkpt>
      <trkpt lat="40.07868398912250995635986328125" lon="-0.7299656979739665985107421875">
        <ele>956.5999755859375</ele>
        <time>2021-09-26T11:24:36.000Z</time>
      </trkpt>
      <trkpt lat="40.0785908661782741546630859375" lon="-0.72990694083273410797119140625">
        <ele>956.20001220703125</ele>
        <time>2021-09-26T11:24:38.000Z</time>
      </trkpt>
      <trkpt lat="40.07854300551116466522216796875" lon="-0.72987659834325313568115234375">
        <ele>955.79998779296875</ele>
        <time>2021-09-26T11:24:39.000Z</time>
      </trkpt>
      <trkpt lat="40.078495480120182037353515625" lon="-0.729844830930233001708984375">
        <ele>955.4000244140625</ele>
        <time>2021-09-26T11:24:40.000Z</time>
      </trkpt>
      <trkpt lat="40.0783997587859630584716796875" lon="-0.7297794520854949951171875">
        <ele>955.4000244140625</ele>
        <time>2021-09-26T11:24:42.000Z</time>
      </trkpt>
      <trkpt lat="40.0783005170524120330810546875" lon="-0.729716084897518157958984375">
        <ele>955.4000244140625</ele>
        <time>2021-09-26T11:24:44.000Z</time>
      </trkpt>
      <trkpt lat="40.07820202969014644622802734375" lon="-0.72965179570019245147705078125">
        <ele>955.79998779296875</ele>
        <time>2021-09-26T11:24:46.000Z</time>
      </trkpt>
      <trkpt lat="40.078104548156261444091796875" lon="-0.72958842851221561431884765625">
        <ele>956.79998779296875</ele>
        <time>2021-09-26T11:24:48.000Z</time>
      </trkpt>
      <trkpt lat="40.07800639607012271881103515625" lon="-0.72952539660036563873291015625">
        <ele>957.4000244140625</ele>
        <time>2021-09-26T11:24:50.000Z</time>
      </trkpt>
      <trkpt lat="40.07790748961269855499267578125" lon="-0.72946370579302310943603515625">
        <ele>958</ele>
        <time>2021-09-26T11:24:52.000Z</time>
      </trkpt>
      <trkpt lat="40.0778147019445896148681640625" lon="-0.7293957285583019256591796875">
        <ele>958</ele>
        <time>2021-09-26T11:24:54.000Z</time>
      </trkpt>
      <trkpt lat="40.07773163728415966033935546875" lon="-0.72933621704578399658203125">
        <ele>958.20001220703125</ele>
        <time>2021-09-26T11:24:56.000Z</time>
      </trkpt>
      <trkpt lat="40.07769023068249225616455078125" lon="-0.7293100655078887939453125">
        <ele>958.4000244140625</ele>
        <time>2021-09-26T11:24:57.000Z</time>
      </trkpt>
      <trkpt lat="40.07765091955661773681640625" lon="-0.729282908141613006591796875">
        <ele>958.4000244140625</ele>
        <time>2021-09-26T11:24:58.000Z</time>
      </trkpt>
      <trkpt lat="40.0775753147900104522705078125" lon="-0.72923135943710803985595703125">
        <ele>959</ele>
        <time>2021-09-26T11:25:00.000Z</time>
      </trkpt>
      <trkpt lat="40.077487640082836151123046875" lon="-0.729174949228763580322265625">
        <ele>959.79998779296875</ele>
        <time>2021-09-26T11:25:02.000Z</time>
      </trkpt>
      <trkpt lat="40.077442713081836700439453125" lon="-0.72914619930088520050048828125">
        <ele>960.4000244140625</ele>
        <time>2021-09-26T11:25:03.000Z</time>
      </trkpt>
      <trkpt lat="40.07740122266113758087158203125" lon="-0.72911703027784824371337890625">
        <ele>960.79998779296875</ele>
        <time>2021-09-26T11:25:04.000Z</time>
      </trkpt>
      <trkpt lat="40.07732327096164226531982421875" lon="-0.7290624640882015228271484375">
        <ele>961.5999755859375</ele>
        <time>2021-09-26T11:25:06.000Z</time>
      </trkpt>
      <trkpt lat="40.077246241271495819091796875" lon="-0.72901477105915546417236328125">
        <ele>962</ele>
        <time>2021-09-26T11:25:08.000Z</time>
      </trkpt>
      <trkpt lat="40.0771689601242542266845703125" lon="-0.728965736925601959228515625">
        <ele>961.79998779296875</ele>
        <time>2021-09-26T11:25:10.000Z</time>
      </trkpt>
      <trkpt lat="40.0770844705402851104736328125" lon="-0.72891645133495330810546875">
        <ele>962</ele>
        <time>2021-09-26T11:25:12.000Z</time>
      </trkpt>
      <trkpt lat="40.07700056768953800201416015625" lon="-0.7288567721843719482421875">
        <ele>962.4000244140625</ele>
        <time>2021-09-26T11:25:14.000Z</time>
      </trkpt>
      <trkpt lat="40.076959915459156036376953125" lon="-0.728828273713588714599609375">
        <ele>962.5999755859375</ele>
        <time>2021-09-26T11:25:15.000Z</time>
      </trkpt>
      <trkpt lat="40.07692127488553524017333984375" lon="-0.728799439966678619384765625">
        <ele>962.20001220703125</ele>
        <time>2021-09-26T11:25:16.000Z</time>
      </trkpt>
      <trkpt lat="40.07684013806283473968505859375" lon="-0.728737078607082366943359375">
        <ele>961.4000244140625</ele>
        <time>2021-09-26T11:25:18.000Z</time>
      </trkpt>
      <trkpt lat="40.0767656229436397552490234375" lon="-0.72868150658905506134033203125">
        <ele>961</ele>
        <time>2021-09-26T11:25:20.000Z</time>
      </trkpt>
      <trkpt lat="40.076696388423442840576171875" lon="-0.7286366634070873260498046875">
        <ele>961.20001220703125</ele>
        <time>2021-09-26T11:25:22.000Z</time>
      </trkpt>
      <trkpt lat="40.0766281597316265106201171875" lon="-0.72858880273997783660888671875">
        <ele>961.20001220703125</ele>
        <time>2021-09-26T11:25:24.000Z</time>
      </trkpt>
      <trkpt lat="40.07655733264982700347900390625" lon="-0.728539265692234039306640625">
        <ele>961</ele>
        <time>2021-09-26T11:25:26.000Z</time>
      </trkpt>
      <trkpt lat="40.0764799676835536956787109375" lon="-0.728493668138980865478515625">
        <ele>961.20001220703125</ele>
        <time>2021-09-26T11:25:28.000Z</time>
      </trkpt>
      <trkpt lat="40.0764028541743755340576171875" lon="-0.72844429872930049896240234375">
        <ele>961.79998779296875</ele>
        <time>2021-09-26T11:25:30.000Z</time>
      </trkpt>
      <trkpt lat="40.07632590830326080322265625" lon="-0.728394091129302978515625">
        <ele>962.5999755859375</ele>
        <time>2021-09-26T11:25:32.000Z</time>
      </trkpt>
      <trkpt lat="40.07624954916536808013916015625" lon="-0.72834220714867115020751953125">
        <ele>963</ele>
        <time>2021-09-26T11:25:34.000Z</time>
      </trkpt>
      <trkpt lat="40.07617159746587276458740234375" lon="-0.7282936759293079376220703125">
        <ele>963.4000244140625</ele>
        <time>2021-09-26T11:25:36.000Z</time>
      </trkpt>
      <trkpt lat="40.076092220842838287353515625" lon="-0.72824212722480297088623046875">
        <ele>963.79998779296875</ele>
        <time>2021-09-26T11:25:38.000Z</time>
      </trkpt>
      <trkpt lat="40.076015777885913848876953125" lon="-0.7281880639493465423583984375">
        <ele>964.5999755859375</ele>
        <time>2021-09-26T11:25:40.000Z</time>
      </trkpt>
      <trkpt lat="40.0759364850819110870361328125" lon="-0.72813517414033412933349609375">
        <ele>965.20001220703125</ele>
        <time>2021-09-26T11:25:42.000Z</time>
      </trkpt>
      <trkpt lat="40.07585861720144748687744140625" lon="-0.72808203287422657012939453125">
        <ele>965.5999755859375</ele>
        <time>2021-09-26T11:25:44.000Z</time>
      </trkpt>
      <trkpt lat="40.075779072940349578857421875" lon="-0.7280291430652141571044921875">
        <ele>966</ele>
        <time>2021-09-26T11:25:46.000Z</time>
      </trkpt>
      <trkpt lat="40.0756984390318393707275390625" lon="-0.72798044420778751373291015625">
        <ele>966</ele>
        <time>2021-09-26T11:25:48.000Z</time>
      </trkpt>
      <trkpt lat="40.075618810951709747314453125" lon="-0.7279278896749019622802734375">
        <ele>966</ele>
        <time>2021-09-26T11:25:50.000Z</time>
      </trkpt>
      <trkpt lat="40.07554127834737300872802734375" lon="-0.727874748408794403076171875">
        <ele>966.5999755859375</ele>
        <time>2021-09-26T11:25:52.000Z</time>
      </trkpt>
      <trkpt lat="40.075468607246875762939453125" lon="-0.72782755829393863677978515625">
        <ele>966.79998779296875</ele>
        <time>2021-09-26T11:25:54.000Z</time>
      </trkpt>
      <trkpt lat="40.075397193431854248046875" lon="-0.72778053581714630126953125">
        <ele>967.20001220703125</ele>
        <time>2021-09-26T11:25:56.000Z</time>
      </trkpt>
      <trkpt lat="40.07533089257776737213134765625" lon="-0.727741308510303497314453125">
        <ele>967.4000244140625</ele>
        <time>2021-09-26T11:25:58.000Z</time>
      </trkpt>
      <trkpt lat="40.07526618428528308868408203125" lon="-0.7276982255280017852783203125">
        <ele>967.5999755859375</ele>
        <time>2021-09-26T11:26:00.000Z</time>
      </trkpt>
      <trkpt lat="40.0751985423266887664794921875" lon="-0.727653801441192626953125">
        <ele>967.79998779296875</ele>
        <time>2021-09-26T11:26:02.000Z</time>
      </trkpt>
      <trkpt lat="40.07516384124755859375" lon="-0.7276278175413608551025390625">
        <ele>968</ele>
        <time>2021-09-26T11:26:03.000Z</time>
      </trkpt>
      <trkpt lat="40.07512972690165042877197265625" lon="-0.7276023365557193756103515625">
        <ele>968</ele>
        <time>2021-09-26T11:26:04.000Z</time>
      </trkpt>
      <trkpt lat="40.0750721432268619537353515625" lon="-0.72753972373902797698974609375">
        <ele>967.79998779296875</ele>
        <time>2021-09-26T11:26:06.000Z</time>
      </trkpt>
      <trkpt lat="40.07501405663788318634033203125" lon="-0.72748390026390552520751953125">
        <ele>967.79998779296875</ele>
        <time>2021-09-26T11:26:08.000Z</time>
      </trkpt>
      <trkpt lat="40.0749628432095050811767578125" lon="-0.7274276576936244964599609375">
        <ele>967.5999755859375</ele>
        <time>2021-09-26T11:26:10.000Z</time>
      </trkpt>
      <trkpt lat="40.07490676827728748321533203125" lon="-0.72737895883619785308837890625">
        <ele>967.20001220703125</ele>
        <time>2021-09-26T11:26:12.000Z</time>
      </trkpt>
      <trkpt lat="40.07484490983188152313232421875" lon="-0.72733151726424694061279296875">
        <ele>967</ele>
        <time>2021-09-26T11:26:14.000Z</time>
      </trkpt>
      <trkpt lat="40.074785649776458740234375" lon="-0.72727837599813938140869140625">
        <ele>966.5999755859375</ele>
        <time>2021-09-26T11:26:16.000Z</time>
      </trkpt>
      <trkpt lat="40.07471448741853237152099609375" lon="-0.72723244316875934600830078125">
        <ele>966.20001220703125</ele>
        <time>2021-09-26T11:26:18.000Z</time>
      </trkpt>
      <trkpt lat="40.074637122452259063720703125" lon="-0.72718533687293529510498046875">
        <ele>966</ele>
        <time>2021-09-26T11:26:20.000Z</time>
      </trkpt>
      <trkpt lat="40.07455154322087764739990234375" lon="-0.7271374762058258056640625">
        <ele>966.20001220703125</ele>
        <time>2021-09-26T11:26:22.000Z</time>
      </trkpt>
      <trkpt lat="40.07450745441019535064697265625" lon="-0.72711224667727947235107421875">
        <ele>966.4000244140625</ele>
        <time>2021-09-26T11:26:23.000Z</time>
      </trkpt>
      <trkpt lat="40.07446504198014736175537109375" lon="-0.7270865142345428466796875">
        <ele>966.20001220703125</ele>
        <time>2021-09-26T11:26:24.000Z</time>
      </trkpt>
      <trkpt lat="40.07438072003424167633056640625" lon="-0.72703664191067218780517578125">
        <ele>966.20001220703125</ele>
        <time>2021-09-26T11:26:26.000Z</time>
      </trkpt>
      <trkpt lat="40.0743016786873340606689453125" lon="-0.7269926369190216064453125">
        <ele>966</ele>
        <time>2021-09-26T11:26:28.000Z</time>
      </trkpt>
      <trkpt lat="40.07422682829201221466064453125" lon="-0.72694947011768817901611328125">
        <ele>966.20001220703125</ele>
        <time>2021-09-26T11:26:30.000Z</time>
      </trkpt>
      <trkpt lat="40.07418609224259853363037109375" lon="-0.72692801244556903839111328125">
        <ele>966.20001220703125</ele>
        <time>2021-09-26T11:26:31.000Z</time>
      </trkpt>
      <trkpt lat="40.07414393126964569091796875" lon="-0.72690689004957675933837890625">
        <ele>966.4000244140625</ele>
        <time>2021-09-26T11:26:32.000Z</time>
      </trkpt>
      <trkpt lat="40.07406421937048435211181640625" lon="-0.72686967439949512481689453125">
        <ele>965.5999755859375</ele>
        <time>2021-09-26T11:26:34.000Z</time>
      </trkpt>
      <trkpt lat="40.07398090325295925140380859375" lon="-0.726822651922702789306640625">
        <ele>965</ele>
        <time>2021-09-26T11:26:36.000Z</time>
      </trkpt>
      <trkpt lat="40.07389356382191181182861328125" lon="-0.7267807424068450927734375">
        <ele>964.5999755859375</ele>
        <time>2021-09-26T11:26:38.000Z</time>
      </trkpt>
      <trkpt lat="40.07384763099253177642822265625" lon="-0.72676054202020168304443359375">
        <ele>964.4000244140625</ele>
        <time>2021-09-26T11:26:39.000Z</time>
      </trkpt>
      <trkpt lat="40.07379926741123199462890625" lon="-0.72674126364290714263916015625">
        <ele>964.20001220703125</ele>
        <time>2021-09-26T11:26:40.000Z</time>
      </trkpt>
      <trkpt lat="40.07370228879153728485107421875" lon="-0.72670170105993747711181640625">
        <ele>964</ele>
        <time>2021-09-26T11:26:42.000Z</time>
      </trkpt>
      <trkpt lat="40.0736039690673351287841796875" lon="-0.72666415013372898101806640625">
        <ele>964</ele>
        <time>2021-09-26T11:26:44.000Z</time>
      </trkpt>
      <trkpt lat="40.0735040567815303802490234375" lon="-0.726628862321376800537109375">
        <ele>964</ele>
        <time>2021-09-26T11:26:46.000Z</time>
      </trkpt>
      <trkpt lat="40.0734038092195987701416015625" lon="-0.7265867851674556732177734375">
        <ele>964</ele>
        <time>2021-09-26T11:26:48.000Z</time>
      </trkpt>
      <trkpt lat="40.073298700153827667236328125" lon="-0.72654529474675655364990234375">
        <ele>964</ele>
        <time>2021-09-26T11:26:50.000Z</time>
      </trkpt>
      <trkpt lat="40.0731925852596759796142578125" lon="-0.72650916874408721923828125">
        <ele>964.20001220703125</ele>
        <time>2021-09-26T11:26:52.000Z</time>
      </trkpt>
      <trkpt lat="40.073088146746158599853515625" lon="-0.726473629474639892578125">
        <ele>964.5999755859375</ele>
        <time>2021-09-26T11:26:54.000Z</time>
      </trkpt>
      <trkpt lat="40.073038525879383087158203125" lon="-0.72645996697247028350830078125">
        <ele>964.5999755859375</ele>
        <time>2021-09-26T11:26:55.000Z</time>
      </trkpt>
      <trkpt lat="40.07298999466001987457275390625" lon="-0.72644856758415699005126953125">
        <ele>964.79998779296875</ele>
        <time>2021-09-26T11:26:56.000Z</time>
      </trkpt>
      <trkpt lat="40.07288572378456592559814453125" lon="-0.726426355540752410888671875">
        <ele>965</ele>
        <time>2021-09-26T11:26:58.000Z</time>
      </trkpt>
      <trkpt lat="40.0727677904069423675537109375" lon="-0.7263940013945102691650390625">
        <ele>965</ele>
        <time>2021-09-26T11:27:00.000Z</time>
      </trkpt>
      <trkpt lat="40.0727057643234729766845703125" lon="-0.7263748906552791595458984375">
        <ele>965</ele>
        <time>2021-09-26T11:27:01.000Z</time>
      </trkpt>
      <trkpt lat="40.07264449261128902435302734375" lon="-0.72635829448699951171875">
        <ele>964.79998779296875</ele>
        <time>2021-09-26T11:27:02.000Z</time>
      </trkpt>
      <trkpt lat="40.07252546958625316619873046875" lon="-0.72632552124559879302978515625">
        <ele>964</ele>
        <time>2021-09-26T11:27:04.000Z</time>
      </trkpt>
      <trkpt lat="40.0724105536937713623046875" lon="-0.72630071081221103668212890625">
        <ele>963.20001220703125</ele>
        <time>2021-09-26T11:27:06.000Z</time>
      </trkpt>
      <trkpt lat="40.0723004154860973358154296875" lon="-0.72628118097782135009765625">
        <ele>962.79998779296875</ele>
        <time>2021-09-26T11:27:08.000Z</time>
      </trkpt>
      <trkpt lat="40.07224685512483119964599609375" lon="-0.72627439163625240325927734375">
        <ele>962.4000244140625</ele>
        <time>2021-09-26T11:27:09.000Z</time>
      </trkpt>
      <trkpt lat="40.0721948035061359405517578125" lon="-0.7262670993804931640625">
        <ele>962</ele>
        <time>2021-09-26T11:27:10.000Z</time>
      </trkpt>
      <trkpt lat="40.0721445120871067047119140625" lon="-0.72625947184860706329345703125">
        <ele>961.5999755859375</ele>
        <time>2021-09-26T11:27:11.000Z</time>
      </trkpt>
      <trkpt lat="40.07209463976323604583740234375" lon="-0.72625561617314815521240234375">
        <ele>961.20001220703125</ele>
        <time>2021-09-26T11:27:12.000Z</time>
      </trkpt>
      <trkpt lat="40.07204501889646053314208984375" lon="-0.72625259868800640106201171875">
        <ele>961</ele>
        <time>2021-09-26T11:27:13.000Z</time>
      </trkpt>
      <trkpt lat="40.07199305109679698944091796875" lon="-0.72624790482223033905029296875">
        <ele>960.79998779296875</ele>
        <time>2021-09-26T11:27:14.000Z</time>
      </trkpt>
      <trkpt lat="40.07188492454588413238525390625" lon="-0.7262380979955196380615234375">
        <ele>960.4000244140625</ele>
        <time>2021-09-26T11:27:16.000Z</time>
      </trkpt>
      <trkpt lat="40.07182943634688854217529296875" lon="-0.72623164393007755279541015625">
        <ele>960.20001220703125</ele>
        <time>2021-09-26T11:27:17.000Z</time>
      </trkpt>
      <trkpt lat="40.0717730261385440826416015625" lon="-0.72622661478817462921142578125">
        <ele>960.4000244140625</ele>
        <time>2021-09-26T11:27:18.000Z</time>
      </trkpt>
      <trkpt lat="40.07171477191150188446044921875" lon="-0.726221837103366851806640625">
        <ele>960.4000244140625</ele>
        <time>2021-09-26T11:27:19.000Z</time>
      </trkpt>
      <trkpt lat="40.07165777496993541717529296875" lon="-0.7262132875621318817138671875">
        <ele>960.20001220703125</ele>
        <time>2021-09-26T11:27:20.000Z</time>
      </trkpt>
      <trkpt lat="40.07154612801969051361083984375" lon="-0.726204402744770050048828125">
        <ele>960.20001220703125</ele>
        <time>2021-09-26T11:27:22.000Z</time>
      </trkpt>
      <trkpt lat="40.07143850438296794891357421875" lon="-0.72620264254510402679443359375">
        <ele>961</ele>
        <time>2021-09-26T11:27:24.000Z</time>
      </trkpt>
      <trkpt lat="40.07138569839298725128173828125" lon="-0.726201720535755157470703125">
        <ele>961.4000244140625</ele>
        <time>2021-09-26T11:27:25.000Z</time>
      </trkpt>
      <trkpt lat="40.07133205421268939971923828125" lon="-0.72620180435478687286376953125">
        <ele>961.79998779296875</ele>
        <time>2021-09-26T11:27:26.000Z</time>
      </trkpt>
      <trkpt lat="40.0712223351001739501953125" lon="-0.726199038326740264892578125">
        <ele>962.4000244140625</ele>
        <time>2021-09-26T11:27:28.000Z</time>
      </trkpt>
      <trkpt lat="40.071110017597675323486328125" lon="-0.726193003356456756591796875">
        <ele>962.20001220703125</ele>
        <time>2021-09-26T11:27:30.000Z</time>
      </trkpt>
      <trkpt lat="40.07099979557096958160400390625" lon="-0.72619006969034671783447265625">
        <ele>962.20001220703125</ele>
        <time>2021-09-26T11:27:32.000Z</time>
      </trkpt>
      <trkpt lat="40.0708949379622936248779296875" lon="-0.7261960208415985107421875">
        <ele>962.4000244140625</ele>
        <time>2021-09-26T11:27:34.000Z</time>
      </trkpt>
      <trkpt lat="40.07079117000102996826171875" lon="-0.7262159697711467742919921875">
        <ele>962.5999755859375</ele>
        <time>2021-09-26T11:27:36.000Z</time>
      </trkpt>
      <trkpt lat="40.07068983279168605804443359375" lon="-0.72623600251972675323486328125">
        <ele>963</ele>
        <time>2021-09-26T11:27:38.000Z</time>
      </trkpt>
      <trkpt lat="40.07058857940137386322021484375" lon="-0.7262692786753177642822265625">
        <ele>964</ele>
        <time>2021-09-26T11:27:40.000Z</time>
      </trkpt>
      <trkpt lat="40.0704835541546344757080078125" lon="-0.7263113558292388916015625">
        <ele>965.20001220703125</ele>
        <time>2021-09-26T11:27:42.000Z</time>
      </trkpt>
      <trkpt lat="40.07036444731056690216064453125" lon="-0.72637598030269145965576171875">
        <ele>965.5999755859375</ele>
        <time>2021-09-26T11:27:44.000Z</time>
      </trkpt>
      <trkpt lat="40.07023821584880352020263671875" lon="-0.72644689120352268218994140625">
        <ele>965.5999755859375</ele>
        <time>2021-09-26T11:27:46.000Z</time>
      </trkpt>
      <trkpt lat="40.07011701352894306182861328125" lon="-0.72653255425393581390380859375">
        <ele>965.20001220703125</ele>
        <time>2021-09-26T11:27:48.000Z</time>
      </trkpt>
      <trkpt lat="40.07000234909355640411376953125" lon="-0.72662693448364734649658203125">
        <ele>965.20001220703125</ele>
        <time>2021-09-26T11:27:50.000Z</time>
      </trkpt>
      <trkpt lat="40.069888941943645477294921875" lon="-0.726724080741405487060546875">
        <ele>965</ele>
        <time>2021-09-26T11:27:52.000Z</time>
      </trkpt>
      <trkpt lat="40.069779641926288604736328125" lon="-0.72682960890233516693115234375">
        <ele>964.5999755859375</ele>
        <time>2021-09-26T11:27:54.000Z</time>
      </trkpt>
      <trkpt lat="40.06967009045183658599853515625" lon="-0.7269247435033321380615234375">
        <ele>964.20001220703125</ele>
        <time>2021-09-26T11:27:56.000Z</time>
      </trkpt>
      <trkpt lat="40.06961544044315814971923828125" lon="-0.72696983814239501953125">
        <ele>964</ele>
        <time>2021-09-26T11:27:57.000Z</time>
      </trkpt>
      <trkpt lat="40.06956296972930431365966796875" lon="-0.72701451368629932403564453125">
        <ele>963.4000244140625</ele>
        <time>2021-09-26T11:27:58.000Z</time>
      </trkpt>
      <trkpt lat="40.06945945322513580322265625" lon="-0.72710034437477588653564453125">
        <ele>962.20001220703125</ele>
        <time>2021-09-26T11:28:00.000Z</time>
      </trkpt>
      <trkpt lat="40.0694083236157894134521484375" lon="-0.72714543901383876800537109375">
        <ele>961.5999755859375</ele>
        <time>2021-09-26T11:28:01.000Z</time>
      </trkpt>
      <trkpt lat="40.06935828365385532379150390625" lon="-0.727190114557743072509765625">
        <ele>961.20001220703125</ele>
        <time>2021-09-26T11:28:02.000Z</time>
      </trkpt>
      <trkpt lat="40.0692524202167987823486328125" lon="-0.72728038765490055084228515625">
        <ele>959.5999755859375</ele>
        <time>2021-09-26T11:28:04.000Z</time>
      </trkpt>
      <trkpt lat="40.0691444613039493560791015625" lon="-0.7273730076849460601806640625">
        <ele>958</ele>
        <time>2021-09-26T11:28:06.000Z</time>
      </trkpt>
      <trkpt lat="40.0690363347530364990234375" lon="-0.727466046810150146484375">
        <ele>956.5999755859375</ele>
        <time>2021-09-26T11:28:08.000Z</time>
      </trkpt>
      <trkpt lat="40.068926028907299041748046875" lon="-0.7275604270398616790771484375">
        <ele>956.20001220703125</ele>
        <time>2021-09-26T11:28:10.000Z</time>
      </trkpt>
      <trkpt lat="40.068867690861225128173828125" lon="-0.72760527022182941436767578125">
        <ele>955.79998779296875</ele>
        <time>2021-09-26T11:28:11.000Z</time>
      </trkpt>
      <trkpt lat="40.06880993954837322235107421875" lon="-0.727653801441192626953125">
        <ele>955.5999755859375</ele>
        <time>2021-09-26T11:28:12.000Z</time>
      </trkpt>
      <trkpt lat="40.0687495060265064239501953125" lon="-0.72770367376506328582763671875">
        <ele>955.4000244140625</ele>
        <time>2021-09-26T11:28:13.000Z</time>
      </trkpt>
      <trkpt lat="40.06868689320981502532958984375" lon="-0.72775010950863361358642578125">
        <ele>955</ele>
        <time>2021-09-26T11:28:14.000Z</time>
      </trkpt>
      <trkpt lat="40.068563260138034820556640625" lon="-0.72785161435604095458984375">
        <ele>954.5999755859375</ele>
        <time>2021-09-26T11:28:16.000Z</time>
      </trkpt>
      <trkpt lat="40.068443901836872100830078125" lon="-0.72795295156538486480712890625">
        <ele>954</ele>
        <time>2021-09-26T11:28:18.000Z</time>
      </trkpt>
      <trkpt lat="40.06832144223153591156005859375" lon="-0.72806023992598056793212890625">
        <ele>953.5999755859375</ele>
        <time>2021-09-26T11:28:20.000Z</time>
      </trkpt>
      <trkpt lat="40.06819638423621654510498046875" lon="-0.72816199623048305511474609375">
        <ele>953</ele>
        <time>2021-09-26T11:28:22.000Z</time>
      </trkpt>
      <trkpt lat="40.06807275116443634033203125" lon="-0.72826735675334930419921875">
        <ele>952.5999755859375</ele>
        <time>2021-09-26T11:28:24.000Z</time>
      </trkpt>
      <trkpt lat="40.068014748394489288330078125" lon="-0.72832192294299602508544921875">
        <ele>952.4000244140625</ele>
        <time>2021-09-26T11:28:25.000Z</time>
      </trkpt>
      <trkpt lat="40.06795465014874935150146484375" lon="-0.728374980390071868896484375">
        <ele>952</ele>
        <time>2021-09-26T11:28:26.000Z</time>
      </trkpt>
      <trkpt lat="40.0678335316479206085205078125" lon="-0.7284673489630222320556640625">
        <ele>951.20001220703125</ele>
        <time>2021-09-26T11:28:28.000Z</time>
      </trkpt>
      <trkpt lat="40.0677059590816497802734375" lon="-0.72855242528021335601806640625">
        <ele>950.4000244140625</ele>
        <time>2021-09-26T11:28:30.000Z</time>
      </trkpt>
      <trkpt lat="40.067640244960784912109375" lon="-0.728588886559009552001953125">
        <ele>949.79998779296875</ele>
        <time>2021-09-26T11:28:31.000Z</time>
      </trkpt>
      <trkpt lat="40.06756874732673168182373046875" lon="-0.72862140834331512451171875">
        <ele>949</ele>
        <time>2021-09-26T11:28:32.000Z</time>
      </trkpt>
      <trkpt lat="40.0674211420118808746337890625" lon="-0.72867865674197673797607421875">
        <ele>947.4000244140625</ele>
        <time>2021-09-26T11:28:34.000Z</time>
      </trkpt>
      <trkpt lat="40.067345537245273590087890625" lon="-0.728701539337635040283203125">
        <ele>946.5999755859375</ele>
        <time>2021-09-26T11:28:35.000Z</time>
      </trkpt>
      <trkpt lat="40.067270435392856597900390625" lon="-0.72872090153396129608154296875">
        <ele>945.79998779296875</ele>
        <time>2021-09-26T11:28:36.000Z</time>
      </trkpt>
      <trkpt lat="40.06719675846397876739501953125" lon="-0.7287348993122577667236328125">
        <ele>945</ele>
        <time>2021-09-26T11:28:37.000Z</time>
      </trkpt>
      <trkpt lat="40.0671267695724964141845703125" lon="-0.72874546051025390625">
        <ele>944.20001220703125</ele>
        <time>2021-09-26T11:28:38.000Z</time>
      </trkpt>
      <trkpt lat="40.0669950060546398162841796875" lon="-0.72875644080340862274169921875">
        <ele>944</ele>
        <time>2021-09-26T11:28:40.000Z</time>
      </trkpt>
      <trkpt lat="40.0668717920780181884765625" lon="-0.7287536747753620147705078125">
        <ele>944</ele>
        <time>2021-09-26T11:28:42.000Z</time>
      </trkpt>
      <trkpt lat="40.0667537748813629150390625" lon="-0.72873515076935291290283203125">
        <ele>944.5999755859375</ele>
        <time>2021-09-26T11:28:44.000Z</time>
      </trkpt>
      <trkpt lat="40.0666411221027374267578125" lon="-0.728704892098903656005859375">
        <ele>945.4000244140625</ele>
        <time>2021-09-26T11:28:46.000Z</time>
      </trkpt>
      <trkpt lat="40.06653224118053913116455078125" lon="-0.728678405284881591796875">
        <ele>946</ele>
        <time>2021-09-26T11:28:48.000Z</time>
      </trkpt>
      <trkpt lat="40.06642461754381656646728515625" lon="-0.72864077053964138031005859375">
        <ele>946.79998779296875</ele>
        <time>2021-09-26T11:28:50.000Z</time>
      </trkpt>
      <trkpt lat="40.0663138926029205322265625" lon="-0.7285927422344684600830078125">
        <ele>947.4000244140625</ele>
        <time>2021-09-26T11:28:52.000Z</time>
      </trkpt>
      <trkpt lat="40.06625614129006862640380859375" lon="-0.72856818325817584991455078125">
        <ele>947.79998779296875</ele>
        <time>2021-09-26T11:28:53.000Z</time>
      </trkpt>
      <trkpt lat="40.06619947962462902069091796875" lon="-0.7285377569496631622314453125">
        <ele>948.20001220703125</ele>
        <time>2021-09-26T11:28:54.000Z</time>
      </trkpt>
      <trkpt lat="40.0661457516252994537353515625" lon="-0.72850515134632587432861328125">
        <ele>948.79998779296875</ele>
        <time>2021-09-26T11:28:55.000Z</time>
      </trkpt>
      <trkpt lat="40.06608833558857440948486328125" lon="-0.7284700311720371246337890625">
        <ele>949.20001220703125</ele>
        <time>2021-09-26T11:28:56.000Z</time>
      </trkpt>
      <trkpt lat="40.065978281199932098388671875" lon="-0.72839987464249134063720703125">
        <ele>950.20001220703125</ele>
        <time>2021-09-26T11:28:58.000Z</time>
      </trkpt>
      <trkpt lat="40.0658728368580341339111328125" lon="-0.72831991128623485565185546875">
        <ele>950.20001220703125</ele>
        <time>2021-09-26T11:29:00.000Z</time>
      </trkpt>
      <trkpt lat="40.06576579995453357696533203125" lon="-0.7282437197864055633544921875">
        <ele>950.79998779296875</ele>
        <time>2021-09-26T11:29:02.000Z</time>
      </trkpt>
      <trkpt lat="40.0656653009355068206787109375" lon="-0.728161744773387908935546875">
        <ele>951.79998779296875</ele>
        <time>2021-09-26T11:29:04.000Z</time>
      </trkpt>
      <trkpt lat="40.0655734352767467498779296875" lon="-0.7280821166932582855224609375">
        <ele>952.79998779296875</ele>
        <time>2021-09-26T11:29:06.000Z</time>
      </trkpt>
      <trkpt lat="40.06548131816089153289794921875" lon="-0.7279996387660503387451171875">
        <ele>953.5999755859375</ele>
        <time>2021-09-26T11:29:08.000Z</time>
      </trkpt>
      <trkpt lat="40.0653917156159877777099609375" lon="-0.7279181666672229766845703125">
        <ele>953.79998779296875</ele>
        <time>2021-09-26T11:29:10.000Z</time>
      </trkpt>
      <trkpt lat="40.06529406644403934478759765625" lon="-0.727833174169063568115234375">
        <ele>954.4000244140625</ele>
        <time>2021-09-26T11:29:12.000Z</time>
      </trkpt>
      <trkpt lat="40.0651972554624080657958984375" lon="-0.72773837484419345855712890625">
        <ele>954.79998779296875</ele>
        <time>2021-09-26T11:29:14.000Z</time>
      </trkpt>
      <trkpt lat="40.065105892717838287353515625" lon="-0.72764399461448192596435546875">
        <ele>955</ele>
        <time>2021-09-26T11:29:16.000Z</time>
      </trkpt>
      <trkpt lat="40.06501226685941219329833984375" lon="-0.727550871670246124267578125">
        <ele>955</ele>
        <time>2021-09-26T11:29:18.000Z</time>
      </trkpt>
      <trkpt lat="40.0649183057248592376708984375" lon="-0.72745003737509250640869140625">
        <ele>954.4000244140625</ele>
        <time>2021-09-26T11:29:20.000Z</time>
      </trkpt>
      <trkpt lat="40.06483222357928752899169921875" lon="-0.7273538969457149505615234375">
        <ele>954.4000244140625</ele>
        <time>2021-09-26T11:29:22.000Z</time>
      </trkpt>
      <trkpt lat="40.06474505178630352020263671875" lon="-0.72726865299046039581298828125">
        <ele>954.20001220703125</ele>
        <time>2021-09-26T11:29:24.000Z</time>
      </trkpt>
      <trkpt lat="40.06466022692620754241943359375" lon="-0.72718734852969646453857421875">
        <ele>954.4000244140625</ele>
        <time>2021-09-26T11:29:26.000Z</time>
      </trkpt>
      <trkpt lat="40.06457389332354068756103515625" lon="-0.7270990870893001556396484375">
        <ele>954.20001220703125</ele>
        <time>2021-09-26T11:29:28.000Z</time>
      </trkpt>
      <trkpt lat="40.06448605097830295562744140625" lon="-0.7270139269530773162841796875">
        <ele>953.79998779296875</ele>
        <time>2021-09-26T11:29:30.000Z</time>
      </trkpt>
      <trkpt lat="40.064397789537906646728515625" lon="-0.72693069465458393096923828125">
        <ele>954</ele>
        <time>2021-09-26T11:29:32.000Z</time>
      </trkpt>
      <trkpt lat="40.0643081031739711761474609375" lon="-0.72684804908931255340576171875">
        <ele>954.5999755859375</ele>
        <time>2021-09-26T11:29:34.000Z</time>
      </trkpt>
      <trkpt lat="40.06421347148716449737548828125" lon="-0.7267735339701175689697265625">
        <ele>955.79998779296875</ele>
        <time>2021-09-26T11:29:36.000Z</time>
      </trkpt>
      <trkpt lat="40.06416569463908672332763671875" lon="-0.7267405092716217041015625">
        <ele>956.4000244140625</ele>
        <time>2021-09-26T11:29:37.000Z</time>
      </trkpt>
      <trkpt lat="40.064120851457118988037109375" lon="-0.7267078198492527008056640625">
        <ele>956.79998779296875</ele>
        <time>2021-09-26T11:29:38.000Z</time>
      </trkpt>
      <trkpt lat="40.06403158418834209442138671875" lon="-0.72664772160351276397705078125">
        <ele>957.79998779296875</ele>
        <time>2021-09-26T11:29:40.000Z</time>
      </trkpt>
      <trkpt lat="40.06394944153726100921630859375" lon="-0.72659642435610294342041015625">
        <ele>958.20001220703125</ele>
        <time>2021-09-26T11:29:42.000Z</time>
      </trkpt>
      <trkpt lat="40.06386444903910160064697265625" lon="-0.726546384394168853759765625">
        <ele>958.4000244140625</ele>
        <time>2021-09-26T11:29:44.000Z</time>
      </trkpt>
      <trkpt lat="40.06377040408551692962646484375" lon="-0.7265031337738037109375">
        <ele>958.4000244140625</ele>
        <time>2021-09-26T11:29:46.000Z</time>
      </trkpt>
      <trkpt lat="40.06367661058902740478515625" lon="-0.72646214626729488372802734375">
        <ele>958.20001220703125</ele>
        <time>2021-09-26T11:29:48.000Z</time>
      </trkpt>
      <trkpt lat="40.063576363027095794677734375" lon="-0.72642358951270580291748046875">
        <ele>957.79998779296875</ele>
        <time>2021-09-26T11:29:50.000Z</time>
      </trkpt>
      <trkpt lat="40.063475780189037322998046875" lon="-0.7263852842152118682861328125">
        <ele>957.79998779296875</ele>
        <time>2021-09-26T11:29:52.000Z</time>
      </trkpt>
      <trkpt lat="40.06337821483612060546875" lon="-0.72635225951671600341796875">
        <ele>957.5999755859375</ele>
        <time>2021-09-26T11:29:54.000Z</time>
      </trkpt>
      <trkpt lat="40.06328190676867961883544921875" lon="-0.726324431598186492919921875">
        <ele>957.5999755859375</ele>
        <time>2021-09-26T11:29:56.000Z</time>
      </trkpt>
      <trkpt lat="40.06318819709122180938720703125" lon="-0.7263059914112091064453125">
        <ele>957.4000244140625</ele>
        <time>2021-09-26T11:29:58.000Z</time>
      </trkpt>
      <trkpt lat="40.0630964152514934539794921875" lon="-0.72628545574843883514404296875">
        <ele>957</ele>
        <time>2021-09-26T11:30:00.000Z</time>
      </trkpt>
      <trkpt lat="40.0630011968314647674560546875" lon="-0.7262676022946834564208984375">
        <ele>957</ele>
        <time>2021-09-26T11:30:02.000Z</time>
      </trkpt>
      <trkpt lat="40.0628905557096004486083984375" lon="-0.72623952291905879974365234375">
        <ele>956.79998779296875</ele>
        <time>2021-09-26T11:30:04.000Z</time>
      </trkpt>
      <trkpt lat="40.06284085102379322052001953125" lon="-0.72622510604560375213623046875">
        <ele>956.79998779296875</ele>
        <time>2021-09-26T11:30:05.000Z</time>
      </trkpt>
      <trkpt lat="40.06279324181377887725830078125" lon="-0.72621286846697330474853515625">
        <ele>956.79998779296875</ele>
        <time>2021-09-26T11:30:06.000Z</time>
      </trkpt>
      <trkpt lat="40.0626991130411624908447265625" lon="-0.72618705220520496368408203125">
        <ele>957</ele>
        <time>2021-09-26T11:30:08.000Z</time>
      </trkpt>
      <trkpt lat="40.06260816939175128936767578125" lon="-0.72616986930370330810546875">
        <ele>957.20001220703125</ele>
        <time>2021-09-26T11:30:10.000Z</time>
      </trkpt>
      <trkpt lat="40.062509514391422271728515625" lon="-0.726150088012218475341796875">
        <ele>957.5999755859375</ele>
        <time>2021-09-26T11:30:12.000Z</time>
      </trkpt>
      <trkpt lat="40.06240365095436573028564453125" lon="-0.7261358387768268585205078125">
        <ele>957.79998779296875</ele>
        <time>2021-09-26T11:30:14.000Z</time>
      </trkpt>
      <trkpt lat="40.0623091869056224822998046875" lon="-0.7261338271200656890869140625">
        <ele>957.4000244140625</ele>
        <time>2021-09-26T11:30:16.000Z</time>
      </trkpt>
      <trkpt lat="40.06221438758075237274169921875" lon="-0.72614145465195178985595703125">
        <ele>957.20001220703125</ele>
        <time>2021-09-26T11:30:18.000Z</time>
      </trkpt>
      <trkpt lat="40.06211682222783565521240234375" lon="-0.726154111325740814208984375">
        <ele>957</ele>
        <time>2021-09-26T11:30:20.000Z</time>
      </trkpt>
      <trkpt lat="40.06202478893101215362548828125" lon="-0.72616986930370330810546875">
        <ele>957</ele>
        <time>2021-09-26T11:30:22.000Z</time>
      </trkpt>
      <trkpt lat="40.061930827796459197998046875" lon="-0.72619442827999591827392578125">
        <ele>957.20001220703125</ele>
        <time>2021-09-26T11:30:24.000Z</time>
      </trkpt>
      <trkpt lat="40.06188330240547657012939453125" lon="-0.726205408573150634765625">
        <ele>957.4000244140625</ele>
        <time>2021-09-26T11:30:25.000Z</time>
      </trkpt>
      <trkpt lat="40.06183669902384281158447265625" lon="-0.72621823288500308990478515625">
        <ele>957.5999755859375</ele>
        <time>2021-09-26T11:30:26.000Z</time>
      </trkpt>
      <trkpt lat="40.06174047477543354034423828125" lon="-0.7262484915554523468017578125">
        <ele>958.5999755859375</ele>
        <time>2021-09-26T11:30:28.000Z</time>
      </trkpt>
      <trkpt lat="40.0616453401744365692138671875" lon="-0.7262816838920116424560546875">
        <ele>959.5999755859375</ele>
        <time>2021-09-26T11:30:30.000Z</time>
      </trkpt>
      <trkpt lat="40.0615544803440570831298828125" lon="-0.726318061351776123046875">
        <ele>960.5999755859375</ele>
        <time>2021-09-26T11:30:32.000Z</time>
      </trkpt>
      <trkpt lat="40.061509050428867340087890625" lon="-0.72633859701454639434814453125">
        <ele>961</ele>
        <time>2021-09-26T11:30:33.000Z</time>
      </trkpt>
      <trkpt lat="40.0614659674465656280517578125" lon="-0.726361311972141265869140625">
        <ele>961.4000244140625</ele>
        <time>2021-09-26T11:30:34.000Z</time>
      </trkpt>
      <trkpt lat="40.06137770600616931915283203125" lon="-0.72641118429601192474365234375">
        <ele>962.20001220703125</ele>
        <time>2021-09-26T11:30:36.000Z</time>
      </trkpt>
      <trkpt lat="40.06128701381385326385498046875" lon="-0.72647237218916416168212890625">
        <ele>963</ele>
        <time>2021-09-26T11:30:38.000Z</time>
      </trkpt>
      <trkpt lat="40.0611984170973300933837890625" lon="-0.7265381701290607452392578125">
        <ele>963</ele>
        <time>2021-09-26T11:30:40.000Z</time>
      </trkpt>
      <trkpt lat="40.06115541793406009674072265625" lon="-0.72657287120819091796875">
        <ele>963</ele>
        <time>2021-09-26T11:30:41.000Z</time>
      </trkpt>
      <trkpt lat="40.061111412942409515380859375" lon="-0.72661017067730426788330078125">
        <ele>963</ele>
        <time>2021-09-26T11:30:42.000Z</time>
      </trkpt>
      <trkpt lat="40.061020553112030029296875" lon="-0.7266877032816410064697265625">
        <ele>963</ele>
        <time>2021-09-26T11:30:44.000Z</time>
      </trkpt>
      <trkpt lat="40.06093380041420459747314453125" lon="-0.72676322422921657562255859375">
        <ele>962.79998779296875</ele>
        <time>2021-09-26T11:30:46.000Z</time>
      </trkpt>
      <trkpt lat="40.06085014902055263519287109375" lon="-0.7268382422626018524169921875">
        <ele>962.5999755859375</ele>
        <time>2021-09-26T11:30:48.000Z</time>
      </trkpt>
      <trkpt lat="40.06076834164559841156005859375" lon="-0.7269079796969890594482421875">
        <ele>962.4000244140625</ele>
        <time>2021-09-26T11:30:50.000Z</time>
      </trkpt>
      <trkpt lat="40.06069089286029338836669921875" lon="-0.72698065079748630523681640625">
        <ele>962</ele>
        <time>2021-09-26T11:30:52.000Z</time>
      </trkpt>
      <trkpt lat="40.06061059422791004180908203125" lon="-0.72704921476542949676513671875">
        <ele>961.5999755859375</ele>
        <time>2021-09-26T11:30:54.000Z</time>
      </trkpt>
      <trkpt lat="40.06053046323359012603759765625" lon="-0.72712733410298824310302734375">
        <ele>961.4000244140625</ele>
        <time>2021-09-26T11:30:56.000Z</time>
      </trkpt>
      <trkpt lat="40.0604440458118915557861328125" lon="-0.72720461525022983551025390625">
        <ele>961</ele>
        <time>2021-09-26T11:30:58.000Z</time>
      </trkpt>
      <trkpt lat="40.06035268306732177734375" lon="-0.7272858358919620513916015625">
        <ele>960.20001220703125</ele>
        <time>2021-09-26T11:31:00.000Z</time>
      </trkpt>
      <trkpt lat="40.06025754846632480621337890625" lon="-0.72736135683953762054443359375">
        <ele>959.20001220703125</ele>
        <time>2021-09-26T11:31:02.000Z</time>
      </trkpt>
      <trkpt lat="40.060165934264659881591796875" lon="-0.72744190692901611328125">
        <ele>958.20001220703125</ele>
        <time>2021-09-26T11:31:04.000Z</time>
      </trkpt>
      <trkpt lat="40.06007096730172634124755859375" lon="-0.727518685162067413330078125">
        <ele>956.79998779296875</ele>
        <time>2021-09-26T11:31:06.000Z</time>
      </trkpt>
      <trkpt lat="40.0599823705852031707763671875" lon="-0.72759722359478473663330078125">
        <ele>955.5999755859375</ele>
        <time>2021-09-26T11:31:08.000Z</time>
      </trkpt>
      <trkpt lat="40.05989335477352142333984375" lon="-0.7276764325797557830810546875">
        <ele>954.5999755859375</ele>
        <time>2021-09-26T11:31:10.000Z</time>
      </trkpt>
      <trkpt lat="40.0598056800663471221923828125" lon="-0.72775698266923427581787109375">
        <ele>954.20001220703125</ele>
        <time>2021-09-26T11:31:12.000Z</time>
      </trkpt>
      <trkpt lat="40.05971725098788738250732421875" lon="-0.7278326712548732757568359375">
        <ele>953.79998779296875</ele>
        <time>2021-09-26T11:31:14.000Z</time>
      </trkpt>
      <trkpt lat="40.0596306659281253814697265625" lon="-0.7279064320027828216552734375">
        <ele>953.4000244140625</ele>
        <time>2021-09-26T11:31:16.000Z</time>
      </trkpt>
      <trkpt lat="40.059545673429965972900390625" lon="-0.72798362933099269866943359375">
        <ele>953.79998779296875</ele>
        <time>2021-09-26T11:31:18.000Z</time>
      </trkpt>
      <trkpt lat="40.0594613514840602874755859375" lon="-0.72805772535502910614013671875">
        <ele>954.20001220703125</ele>
        <time>2021-09-26T11:31:20.000Z</time>
      </trkpt>
      <trkpt lat="40.0593761913478374481201171875" lon="-0.72813433595001697540283203125">
        <ele>954.79998779296875</ele>
        <time>2021-09-26T11:31:22.000Z</time>
      </trkpt>
      <trkpt lat="40.0592930428683757781982421875" lon="-0.72821027599275112152099609375">
        <ele>955.20001220703125</ele>
        <time>2021-09-26T11:31:24.000Z</time>
      </trkpt>
      <trkpt lat="40.05920712836086750030517578125" lon="-0.7282839529216289520263671875">
        <ele>955.4000244140625</ele>
        <time>2021-09-26T11:31:26.000Z</time>
      </trkpt>
      <trkpt lat="40.059123225510120391845703125" lon="-0.72836366482079029083251953125">
        <ele>955.79998779296875</ele>
        <time>2021-09-26T11:31:28.000Z</time>
      </trkpt>
      <trkpt lat="40.059038065373897552490234375" lon="-0.7284408621490001678466796875">
        <ele>956</ele>
        <time>2021-09-26T11:31:30.000Z</time>
      </trkpt>
      <trkpt lat="40.05895433016121387481689453125" lon="-0.7285149581730365753173828125">
        <ele>956.5999755859375</ele>
        <time>2021-09-26T11:31:32.000Z</time>
      </trkpt>
      <trkpt lat="40.0588712655007839202880859375" lon="-0.728587210178375244140625">
        <ele>957.20001220703125</ele>
        <time>2021-09-26T11:31:34.000Z</time>
      </trkpt>
      <trkpt lat="40.0588320381939411163330078125" lon="-0.7286239229142665863037109375">
        <ele>957.5999755859375</ele>
        <time>2021-09-26T11:31:35.000Z</time>
      </trkpt>
      <trkpt lat="40.058794654905796051025390625" lon="-0.7286582887172698974609375">
        <ele>957.79998779296875</ele>
        <time>2021-09-26T11:31:36.000Z</time>
      </trkpt>
      <trkpt lat="40.05872483365237712860107421875" lon="-0.72872333228588104248046875">
        <ele>958.5999755859375</ele>
        <time>2021-09-26T11:31:38.000Z</time>
      </trkpt>
      <trkpt lat="40.05865995772182941436767578125" lon="-0.72878275997936725616455078125">
        <ele>959.20001220703125</ele>
        <time>2021-09-26T11:31:40.000Z</time>
      </trkpt>
      <trkpt lat="40.0586281903088092803955078125" lon="-0.72880907915532588958740234375">
        <ele>959.4000244140625</ele>
        <time>2021-09-26T11:31:41.000Z</time>
      </trkpt>
      <trkpt lat="40.05859809927642345428466796875" lon="-0.728833638131618499755859375">
        <ele>959.79998779296875</ele>
        <time>2021-09-26T11:31:42.000Z</time>
      </trkpt>
      <trkpt lat="40.05853842012584209442138671875" lon="-0.7288864441215991973876953125">
        <ele>960.4000244140625</ele>
        <time>2021-09-26T11:31:44.000Z</time>
      </trkpt>
      <trkpt lat="40.0584769807755947113037109375" lon="-0.7289424352347850799560546875">
        <ele>960.79998779296875</ele>
        <time>2021-09-26T11:31:46.000Z</time>
      </trkpt>
      <trkpt lat="40.058445632457733154296875" lon="-0.72896867059171199798583984375">
        <ele>960.79998779296875</ele>
        <time>2021-09-26T11:31:47.000Z</time>
      </trkpt>
      <trkpt lat="40.05841285921633243560791015625" lon="-0.72899691760540008544921875">
        <ele>960.79998779296875</ele>
        <time>2021-09-26T11:31:48.000Z</time>
      </trkpt>
      <trkpt lat="40.0583777390420436859130859375" lon="-0.729027092456817626953125">
        <ele>960.79998779296875</ele>
        <time>2021-09-26T11:31:49.000Z</time>
      </trkpt>
      <trkpt lat="40.05834379233419895172119140625" lon="-0.72905651293694972991943359375">
        <ele>960.79998779296875</ele>
        <time>2021-09-26T11:31:50.000Z</time>
      </trkpt>
      <trkpt lat="40.058281682431697845458984375" lon="-0.72911082766950130462646484375">
        <ele>960.5999755859375</ele>
        <time>2021-09-26T11:31:52.000Z</time>
      </trkpt>
      <trkpt lat="40.05822024308145046234130859375" lon="-0.729168914258480072021484375">
        <ele>960.5999755859375</ele>
        <time>2021-09-26T11:31:54.000Z</time>
      </trkpt>
      <trkpt lat="40.05815151147544384002685546875" lon="-0.7292230613529682159423828125">
        <ele>960.4000244140625</ele>
        <time>2021-09-26T11:31:56.000Z</time>
      </trkpt>
      <trkpt lat="40.0580875575542449951171875" lon="-0.7292847521603107452392578125">
        <ele>959.79998779296875</ele>
        <time>2021-09-26T11:31:58.000Z</time>
      </trkpt>
      <trkpt lat="40.05801438353955745697021484375" lon="-0.72934937663376331329345703125">
        <ele>959.4000244140625</ele>
        <time>2021-09-26T11:32:00.000Z</time>
      </trkpt>
      <trkpt lat="40.0579774193465709686279296875" lon="-0.72937971912324428558349609375">
        <ele>959</ele>
        <time>2021-09-26T11:32:01.000Z</time>
      </trkpt>
      <trkpt lat="40.05794179625809192657470703125" lon="-0.72941056452691555023193359375">
        <ele>958.79998779296875</ele>
        <time>2021-09-26T11:32:02.000Z</time>
      </trkpt>
      <trkpt lat="40.057875998318195343017578125" lon="-0.72946898639202117919921875">
        <ele>958.4000244140625</ele>
        <time>2021-09-26T11:32:04.000Z</time>
      </trkpt>
      <trkpt lat="40.0578456558287143707275390625" lon="-0.729495473206043243408203125">
        <ele>958.4000244140625</ele>
        <time>2021-09-26T11:32:05.000Z</time>
      </trkpt>
      <trkpt lat="40.05781673826277256011962890625" lon="-0.72952128946781158447265625">
        <ele>958.20001220703125</ele>
        <time>2021-09-26T11:32:06.000Z</time>
      </trkpt>
      <trkpt lat="40.05776242353022098541259765625" lon="-0.729569233953952789306640625">
        <ele>957.79998779296875</ele>
        <time>2021-09-26T11:32:08.000Z</time>
      </trkpt>
      <trkpt lat="40.0577034987509250640869140625" lon="-0.729619525372982025146484375">
        <ele>957.4000244140625</ele>
        <time>2021-09-26T11:32:10.000Z</time>
      </trkpt>
      <trkpt lat="40.05766938440501689910888671875" lon="-0.72964978404343128204345703125">
        <ele>957.20001220703125</ele>
        <time>2021-09-26T11:32:11.000Z</time>
      </trkpt>
      <trkpt lat="40.0576371140778064727783203125" lon="-0.72967995889484882354736328125">
        <ele>957</ele>
        <time>2021-09-26T11:32:12.000Z</time>
      </trkpt>
      <trkpt lat="40.0576025806367397308349609375" lon="-0.7297075353562831878662109375">
        <ele>956.79998779296875</ele>
        <time>2021-09-26T11:32:13.000Z</time>
      </trkpt>
      <trkpt lat="40.0575680471956729888916015625" lon="-0.72973729111254215240478515625">
        <ele>956.5999755859375</ele>
        <time>2021-09-26T11:32:14.000Z</time>
      </trkpt>
      <trkpt lat="40.057499147951602935791015625" lon="-0.72980032302439212799072265625">
        <ele>956.4000244140625</ele>
        <time>2021-09-26T11:32:16.000Z</time>
      </trkpt>
      <trkpt lat="40.05742815323173999786376953125" lon="-0.72986058890819549560546875">
        <ele>956.20001220703125</ele>
        <time>2021-09-26T11:32:18.000Z</time>
      </trkpt>
      <trkpt lat="40.05739009939134120941162109375" lon="-0.7298949547111988067626953125">
        <ele>956</ele>
        <time>2021-09-26T11:32:19.000Z</time>
      </trkpt>
      <trkpt lat="40.0573554821312427520751953125" lon="-0.72992739267647266387939453125">
        <ele>956</ele>
        <time>2021-09-26T11:32:20.000Z</time>
      </trkpt>
      <trkpt lat="40.05728482268750667572021484375" lon="-0.729987323284149169921875">
        <ele>955.5999755859375</ele>
        <time>2021-09-26T11:32:22.000Z</time>
      </trkpt>
      <trkpt lat="40.05721726454794406890869140625" lon="-0.73004473932087421417236328125">
        <ele>955.4000244140625</ele>
        <time>2021-09-26T11:32:24.000Z</time>
      </trkpt>
      <trkpt lat="40.05715138278901576995849609375" lon="-0.7301018200814723968505859375">
        <ele>955</ele>
        <time>2021-09-26T11:32:26.000Z</time>
      </trkpt>
      <trkpt lat="40.05708131007850170135498046875" lon="-0.7301611639559268951416015625">
        <ele>954.5999755859375</ele>
        <time>2021-09-26T11:32:28.000Z</time>
      </trkpt>
      <trkpt lat="40.05704350769519805908203125" lon="-0.7301898300647735595703125">
        <ele>954.4000244140625</ele>
        <time>2021-09-26T11:32:29.000Z</time>
      </trkpt>
      <trkpt lat="40.05700671114027500152587890625" lon="-0.73022126220166683197021484375">
        <ele>954.20001220703125</ele>
        <time>2021-09-26T11:32:30.000Z</time>
      </trkpt>
      <trkpt lat="40.05696815438568592071533203125" lon="-0.73025244288146495819091796875">
        <ele>953.79998779296875</ele>
        <time>2021-09-26T11:32:31.000Z</time>
      </trkpt>
      <trkpt lat="40.0569293461740016937255859375" lon="-0.73028245009481906890869140625">
        <ele>953.5999755859375</ele>
        <time>2021-09-26T11:32:32.000Z</time>
      </trkpt>
      <trkpt lat="40.05685709416866302490234375" lon="-0.73034129105508327484130859375">
        <ele>953.20001220703125</ele>
        <time>2021-09-26T11:32:34.000Z</time>
      </trkpt>
      <trkpt lat="40.0568215548992156982421875" lon="-0.73036341927945613861083984375">
        <ele>953</ele>
        <time>2021-09-26T11:32:35.000Z</time>
      </trkpt>
      <trkpt lat="40.0567848421633243560791015625" lon="-0.7303844578564167022705078125">
        <ele>952.79998779296875</ele>
        <time>2021-09-26T11:32:36.000Z</time>
      </trkpt>
      <trkpt lat="40.05671435035765171051025390625" lon="-0.73042628355324268341064453125">
        <ele>952.5999755859375</ele>
        <time>2021-09-26T11:32:38.000Z</time>
      </trkpt>
      <trkpt lat="40.05664042197167873382568359375" lon="-0.73046517558395862579345703125">
        <ele>952.4000244140625</ele>
        <time>2021-09-26T11:32:40.000Z</time>
      </trkpt>
      <trkpt lat="40.0565618835389614105224609375" lon="-0.73050004430115222930908203125">
        <ele>952</ele>
        <time>2021-09-26T11:32:42.000Z</time>
      </trkpt>
      <trkpt lat="40.0565226562321186065673828125" lon="-0.73051848448812961578369140625">
        <ele>952</ele>
        <time>2021-09-26T11:32:43.000Z</time>
      </trkpt>
      <trkpt lat="40.056482590734958648681640625" lon="-0.73053508065640926361083984375">
        <ele>952.20001220703125</ele>
        <time>2021-09-26T11:32:44.000Z</time>
      </trkpt>
      <trkpt lat="40.05640220828354358673095703125" lon="-0.730565674602985382080078125">
        <ele>952.5999755859375</ele>
        <time>2021-09-26T11:32:46.000Z</time>
      </trkpt>
      <trkpt lat="40.05632593296468257904052734375" lon="-0.730588138103485107421875">
        <ele>952.79998779296875</ele>
        <time>2021-09-26T11:32:48.000Z</time>
      </trkpt>
      <trkpt lat="40.05624345503747463226318359375" lon="-0.73061035014688968658447265625">
        <ele>953.4000244140625</ele>
        <time>2021-09-26T11:32:50.000Z</time>
      </trkpt>
      <trkpt lat="40.0561608932912349700927734375" lon="-0.7306328974664211273193359375">
        <ele>954.4000244140625</ele>
        <time>2021-09-26T11:32:52.000Z</time>
      </trkpt>
      <trkpt lat="40.0560737214982509613037109375" lon="-0.73065108619630336761474609375">
        <ele>955.5999755859375</ele>
        <time>2021-09-26T11:32:54.000Z</time>
      </trkpt>
      <trkpt lat="40.05598445422947406768798828125" lon="-0.73065997101366519927978515625">
        <ele>956.79998779296875</ele>
        <time>2021-09-26T11:32:56.000Z</time>
      </trkpt>
      <trkpt lat="40.0558977015316486358642578125" lon="-0.73066701181232929229736328125">
        <ele>957.4000244140625</ele>
        <time>2021-09-26T11:32:58.000Z</time>
      </trkpt>
      <trkpt lat="40.05585118196904659271240234375" lon="-0.73067019693553447723388671875">
        <ele>957.79998779296875</ele>
        <time>2021-09-26T11:32:59.000Z</time>
      </trkpt>
      <trkpt lat="40.05580407567322254180908203125" lon="-0.73067019693553447723388671875">
        <ele>958.20001220703125</ele>
        <time>2021-09-26T11:33:00.000Z</time>
      </trkpt>
      <trkpt lat="40.05570785142481327056884765625" lon="-0.73066701181232929229736328125">
        <ele>958.79998779296875</ele>
        <time>2021-09-26T11:33:02.000Z</time>
      </trkpt>
      <trkpt lat="40.0556103698909282684326171875" lon="-0.7306583784520626068115234375">
        <ele>959.4000244140625</ele>
        <time>2021-09-26T11:33:04.000Z</time>
      </trkpt>
      <trkpt lat="40.05551590584218502044677734375" lon="-0.730640776455402374267578125">
        <ele>959.5999755859375</ele>
        <time>2021-09-26T11:33:06.000Z</time>
      </trkpt>
      <trkpt lat="40.0554182566702365875244140625" lon="-0.73062610812485218048095703125">
        <ele>960</ele>
        <time>2021-09-26T11:33:08.000Z</time>
      </trkpt>
      <trkpt lat="40.05532178096473217010498046875" lon="-0.73060615919530391693115234375">
        <ele>960.4000244140625</ele>
        <time>2021-09-26T11:33:10.000Z</time>
      </trkpt>
      <trkpt lat="40.0552248023450374603271484375" lon="-0.73058604262769222259521484375">
        <ele>960.5999755859375</ele>
        <time>2021-09-26T11:33:12.000Z</time>
      </trkpt>
      <trkpt lat="40.0551751814782619476318359375" lon="-0.730575732886791229248046875">
        <ele>960.79998779296875</ele>
        <time>2021-09-26T11:33:13.000Z</time>
      </trkpt>
      <trkpt lat="40.0551265664398670196533203125" lon="-0.73056609369814395904541015625">
        <ele>961</ele>
        <time>2021-09-26T11:33:14.000Z</time>
      </trkpt>
      <trkpt lat="40.0550276599824428558349609375" lon="-0.7305453903973102569580078125">
        <ele>961.20001220703125</ele>
        <time>2021-09-26T11:33:16.000Z</time>
      </trkpt>
      <trkpt lat="40.05493395030498504638671875" lon="-0.7305279560387134552001953125">
        <ele>961.5999755859375</ele>
        <time>2021-09-26T11:33:18.000Z</time>
      </trkpt>
      <trkpt lat="40.05484183318912982940673828125" lon="-0.73051261715590953826904296875">
        <ele>962.4000244140625</ele>
        <time>2021-09-26T11:33:20.000Z</time>
      </trkpt>
      <trkpt lat="40.0547436811029911041259765625" lon="-0.7304950989782810211181640625">
        <ele>963.4000244140625</ele>
        <time>2021-09-26T11:33:22.000Z</time>
      </trkpt>
      <trkpt lat="40.05464334972202777862548828125" lon="-0.73047422803938388824462890625">
        <ele>964.5999755859375</ele>
        <time>2021-09-26T11:33:24.000Z</time>
      </trkpt>
      <trkpt lat="40.0545431859791278839111328125" lon="-0.73045461438596248626708984375">
        <ele>965.20001220703125</ele>
        <time>2021-09-26T11:33:26.000Z</time>
      </trkpt>
      <trkpt lat="40.054442100226879119873046875" lon="-0.730436928570270538330078125">
        <ele>965.79998779296875</ele>
        <time>2021-09-26T11:33:28.000Z</time>
      </trkpt>
      <trkpt lat="40.05434109829366207122802734375" lon="-0.7304169796407222747802734375">
        <ele>966.5999755859375</ele>
        <time>2021-09-26T11:33:30.000Z</time>
      </trkpt>
      <trkpt lat="40.05429030396044254302978515625" lon="-0.73040666989982128143310546875">
        <ele>966.79998779296875</ele>
        <time>2021-09-26T11:33:31.000Z</time>
      </trkpt>
      <trkpt lat="40.0542404316365718841552734375" lon="-0.73039493523538112640380859375">
        <ele>967</ele>
        <time>2021-09-26T11:33:32.000Z</time>
      </trkpt>
      <trkpt lat="40.0541445426642894744873046875" lon="-0.73037330992519855499267578125">
        <ele>966.4000244140625</ele>
        <time>2021-09-26T11:33:34.000Z</time>
      </trkpt>
      <trkpt lat="40.054046809673309326171875" lon="-0.730349756777286529541015625">
        <ele>966</ele>
        <time>2021-09-26T11:33:36.000Z</time>
      </trkpt>
      <trkpt lat="40.053942538797855377197265625" lon="-0.73032720945775508880615234375">
        <ele>966</ele>
        <time>2021-09-26T11:33:38.000Z</time>
      </trkpt>
      <trkpt lat="40.053889565169811248779296875" lon="-0.730318240821361541748046875">
        <ele>966</ele>
        <time>2021-09-26T11:33:39.000Z</time>
      </trkpt>
      <trkpt lat="40.053836591541767120361328125" lon="-0.7303106971085071563720703125">
        <ele>966.20001220703125</ele>
        <time>2021-09-26T11:33:40.000Z</time>
      </trkpt>
      <trkpt lat="40.05373005755245685577392578125" lon="-0.73029485531151294708251953125">
        <ele>966.20001220703125</ele>
        <time>2021-09-26T11:33:42.000Z</time>
      </trkpt>
      <trkpt lat="40.05363115109503269195556640625" lon="-0.73027499020099639892578125">
        <ele>966.20001220703125</ele>
        <time>2021-09-26T11:33:44.000Z</time>
      </trkpt>
      <trkpt lat="40.0535842962563037872314453125" lon="-0.73026702739298343658447265625">
        <ele>966.20001220703125</ele>
        <time>2021-09-26T11:33:45.000Z</time>
      </trkpt>
      <trkpt lat="40.053537189960479736328125" lon="-0.730258561670780181884765625">
        <ele>966.20001220703125</ele>
        <time>2021-09-26T11:33:46.000Z</time>
      </trkpt>
      <trkpt lat="40.05343937315046787261962890625" lon="-0.73023886419832706451416015625">
        <ele>966.4000244140625</ele>
        <time>2021-09-26T11:33:48.000Z</time>
      </trkpt>
      <trkpt lat="40.053331665694713592529296875" lon="-0.73022008873522281646728515625">
        <ele>966.4000244140625</ele>
        <time>2021-09-26T11:33:50.000Z</time>
      </trkpt>
      <trkpt lat="40.05322270095348358154296875" lon="-0.7301997207105159759521484375">
        <ele>966</ele>
        <time>2021-09-26T11:33:52.000Z</time>
      </trkpt>
      <trkpt lat="40.0531169213354587554931640625" lon="-0.7301792688667774200439453125">
        <ele>965</ele>
        <time>2021-09-26T11:33:54.000Z</time>
      </trkpt>
      <trkpt lat="40.05300736986100673675537109375" lon="-0.73015906848013401031494140625">
        <ele>963.79998779296875</ele>
        <time>2021-09-26T11:33:56.000Z</time>
      </trkpt>
      <trkpt lat="40.05290008150041103363037109375" lon="-0.730140544474124908447265625">
        <ele>962.79998779296875</ele>
        <time>2021-09-26T11:33:58.000Z</time>
      </trkpt>
      <trkpt lat="40.0527950562536716461181640625" lon="-0.730119757354259490966796875">
        <ele>961.79998779296875</ele>
        <time>2021-09-26T11:34:00.000Z</time>
      </trkpt>
      <trkpt lat="40.05269019864499568939208984375" lon="-0.7300984673202037811279296875">
        <ele>960.5999755859375</ele>
        <time>2021-09-26T11:34:02.000Z</time>
      </trkpt>
      <trkpt lat="40.0525868497788906097412109375" lon="-0.7300825417041778564453125">
        <ele>959.5999755859375</ele>
        <time>2021-09-26T11:34:04.000Z</time>
      </trkpt>
      <trkpt lat="40.05248903296887874603271484375" lon="-0.73006452061235904693603515625">
        <ele>958.79998779296875</ele>
        <time>2021-09-26T11:34:06.000Z</time>
      </trkpt>
      <trkpt lat="40.05240001715719699859619140625" lon="-0.73004272766411304473876953125">
        <ele>958</ele>
        <time>2021-09-26T11:34:08.000Z</time>
      </trkpt>
      <trkpt lat="40.05230605602264404296875" lon="-0.73002227582037448883056640625">
        <ele>957.4000244140625</ele>
        <time>2021-09-26T11:34:10.000Z</time>
      </trkpt>
      <trkpt lat="40.0522056408226490020751953125" lon="-0.730002410709857940673828125">
        <ele>957</ele>
        <time>2021-09-26T11:34:12.000Z</time>
      </trkpt>
      <trkpt lat="40.05211251787841320037841796875" lon="-0.72998623363673686981201171875">
        <ele>956.4000244140625</ele>
        <time>2021-09-26T11:34:14.000Z</time>
      </trkpt>
      <trkpt lat="40.05202065221965312957763671875" lon="-0.7299720682203769683837890625">
        <ele>956</ele>
        <time>2021-09-26T11:34:16.000Z</time>
      </trkpt>
      <trkpt lat="40.051923505961894989013671875" lon="-0.7299583218991756439208984375">
        <ele>955.5999755859375</ele>
        <time>2021-09-26T11:34:18.000Z</time>
      </trkpt>
      <trkpt lat="40.05182124674320220947265625" lon="-0.7299388758838176727294921875">
        <ele>955.20001220703125</ele>
        <time>2021-09-26T11:34:20.000Z</time>
      </trkpt>
      <trkpt lat="40.05172795616090297698974609375" lon="-0.72992353700101375579833984375">
        <ele>955.4000244140625</ele>
        <time>2021-09-26T11:34:22.000Z</time>
      </trkpt>
      <trkpt lat="40.05164145492017269134521484375" lon="-0.72990912012755870819091796875">
        <ele>955.79998779296875</ele>
        <time>2021-09-26T11:34:24.000Z</time>
      </trkpt>
      <trkpt lat="40.051556713879108428955078125" lon="-0.72989470325410366058349609375">
        <ele>956.20001220703125</ele>
        <time>2021-09-26T11:34:26.000Z</time>
      </trkpt>
      <trkpt lat="40.05151539109647274017333984375" lon="-0.72988783009350299835205078125">
        <ele>956.5999755859375</ele>
        <time>2021-09-26T11:34:27.000Z</time>
      </trkpt>
      <trkpt lat="40.051469542086124420166015625" lon="-0.72987626306712627410888671875">
        <ele>956.79998779296875</ele>
        <time>2021-09-26T11:34:28.000Z</time>
      </trkpt>
      <trkpt lat="40.0513768382370471954345703125" lon="-0.7298543862998485565185546875">
        <ele>958.20001220703125</ele>
        <time>2021-09-26T11:34:30.000Z</time>
      </trkpt>
      <trkpt lat="40.05129058845341205596923828125" lon="-0.72983720339834690093994140625">
        <ele>959.4000244140625</ele>
        <time>2021-09-26T11:34:32.000Z</time>
      </trkpt>
      <trkpt lat="40.05120827816426753997802734375" lon="-0.72982530109584331512451171875">
        <ele>960.20001220703125</ele>
        <time>2021-09-26T11:34:34.000Z</time>
      </trkpt>
      <trkpt lat="40.05112546496093273162841796875" lon="-0.72980853728950023651123046875">
        <ele>961</ele>
        <time>2021-09-26T11:34:36.000Z</time>
      </trkpt>
      <trkpt lat="40.051033012568950653076171875" lon="-0.72978925891220569610595703125">
        <ele>961.5999755859375</ele>
        <time>2021-09-26T11:34:38.000Z</time>
      </trkpt>
      <trkpt lat="40.050935447216033935546875" lon="-0.72977165691554546356201171875">
        <ele>961.79998779296875</ele>
        <time>2021-09-26T11:34:40.000Z</time>
      </trkpt>
      <trkpt lat="40.050842575728893280029296875" lon="-0.72975271381437778472900390625">
        <ele>961.4000244140625</ele>
        <time>2021-09-26T11:34:42.000Z</time>
      </trkpt>
      <trkpt lat="40.0507543981075286865234375" lon="-0.7297346927225589752197265625">
        <ele>961</ele>
        <time>2021-09-26T11:34:44.000Z</time>
      </trkpt>
      <trkpt lat="40.05067099817097187042236328125" lon="-0.72971700690686702728271484375">
        <ele>961</ele>
        <time>2021-09-26T11:34:46.000Z</time>
      </trkpt>
      <trkpt lat="40.0506288371980190277099609375" lon="-0.72970745153725147247314453125">
        <ele>961</ele>
        <time>2021-09-26T11:34:47.000Z</time>
      </trkpt>
      <trkpt lat="40.05058784969151020050048828125" lon="-0.72969940491020679473876953125">
        <ele>961</ele>
        <time>2021-09-26T11:34:48.000Z</time>
      </trkpt>
      <trkpt lat="40.05050151608884334564208984375" lon="-0.72968264110386371612548828125">
        <ele>961</ele>
        <time>2021-09-26T11:34:50.000Z</time>
      </trkpt>
      <trkpt lat="40.0504095666110515594482421875" lon="-0.72966503910720348358154296875">
        <ele>961.20001220703125</ele>
        <time>2021-09-26T11:34:52.000Z</time>
      </trkpt>
      <trkpt lat="40.05032449029386043548583984375" lon="-0.72964844293892383575439453125">
        <ele>961.79998779296875</ele>
        <time>2021-09-26T11:34:54.000Z</time>
      </trkpt>
      <trkpt lat="40.050279982388019561767578125" lon="-0.72963796555995941162109375">
        <ele>962</ele>
        <time>2021-09-26T11:34:55.000Z</time>
      </trkpt>
      <trkpt lat="40.0502375699579715728759765625" lon="-0.7296274043619632720947265625">
        <ele>962.4000244140625</ele>
        <time>2021-09-26T11:34:56.000Z</time>
      </trkpt>
      <trkpt lat="40.05014612339437007904052734375" lon="-0.72960904799401760101318359375">
        <ele>963</ele>
        <time>2021-09-26T11:34:58.000Z</time>
      </trkpt>
      <trkpt lat="40.0500555150210857391357421875" lon="-0.72959261946380138397216796875">
        <ele>963.79998779296875</ele>
        <time>2021-09-26T11:35:00.000Z</time>
      </trkpt>
      <trkpt lat="40.0499631464481353759765625" lon="-0.72957686148583889007568359375">
        <ele>964.79998779296875</ele>
        <time>2021-09-26T11:35:02.000Z</time>
      </trkpt>
      <trkpt lat="40.04987061023712158203125" lon="-0.729562528431415557861328125">
        <ele>965.79998779296875</ele>
        <time>2021-09-26T11:35:04.000Z</time>
      </trkpt>
      <trkpt lat="40.04977698437869548797607421875" lon="-0.7295472733676433563232421875">
        <ele>966.79998779296875</ele>
        <time>2021-09-26T11:35:06.000Z</time>
      </trkpt>
      <trkpt lat="40.0496846996247768402099609375" lon="-0.72953042574226856231689453125">
        <ele>967.4000244140625</ele>
        <time>2021-09-26T11:35:08.000Z</time>
      </trkpt>
      <trkpt lat="40.04959375597536563873291015625" lon="-0.7295130752027034759521484375">
        <ele>968</ele>
        <time>2021-09-26T11:35:10.000Z</time>
      </trkpt>
      <trkpt lat="40.04950105212628841400146484375" lon="-0.72949287481606006622314453125">
        <ele>967.79998779296875</ele>
        <time>2021-09-26T11:35:12.000Z</time>
      </trkpt>
      <trkpt lat="40.0494520179927349090576171875" lon="-0.7294829003512859344482421875">
        <ele>967.79998779296875</ele>
        <time>2021-09-26T11:35:13.000Z</time>
      </trkpt>
      <trkpt lat="40.04940482787787914276123046875" lon="-0.7294741831719875335693359375">
        <ele>967.79998779296875</ele>
        <time>2021-09-26T11:35:14.000Z</time>
      </trkpt>
      <trkpt lat="40.04930910654366016387939453125" lon="-0.7294577546417713165283203125">
        <ele>967.5999755859375</ele>
        <time>2021-09-26T11:35:16.000Z</time>
      </trkpt>
      <trkpt lat="40.04920986481010913848876953125" lon="-0.72943537496030330657958984375">
        <ele>967</ele>
        <time>2021-09-26T11:35:18.000Z</time>
      </trkpt>
      <trkpt lat="40.04910743795335292816162109375" lon="-0.729419700801372528076171875">
        <ele>966.5999755859375</ele>
        <time>2021-09-26T11:35:20.000Z</time>
      </trkpt>
      <trkpt lat="40.049055553972721099853515625" lon="-0.7294094748795032501220703125">
        <ele>966.4000244140625</ele>
        <time>2021-09-26T11:35:21.000Z</time>
      </trkpt>
      <trkpt lat="40.04900316707789897918701171875" lon="-0.72939598001539707183837890625">
        <ele>966.20001220703125</ele>
        <time>2021-09-26T11:35:22.000Z</time>
      </trkpt>
      <trkpt lat="40.04889763891696929931640625" lon="-0.72937376797199249267578125">
        <ele>966</ele>
        <time>2021-09-26T11:35:24.000Z</time>
      </trkpt>
      <trkpt lat="40.0487925298511981964111328125" lon="-0.72935205884277820587158203125">
        <ele>965.79998779296875</ele>
        <time>2021-09-26T11:35:26.000Z</time>
      </trkpt>
      <trkpt lat="40.04868951626121997833251953125" lon="-0.72933395393192768096923828125">
        <ele>966</ele>
        <time>2021-09-26T11:35:28.000Z</time>
      </trkpt>
      <trkpt lat="40.04858239553868770599365234375" lon="-0.72931299917399883270263671875">
        <ele>965.79998779296875</ele>
        <time>2021-09-26T11:35:30.000Z</time>
      </trkpt>
      <trkpt lat="40.0484743528068065643310546875" lon="-0.7292926311492919921875">
        <ele>965.79998779296875</ele>
        <time>2021-09-26T11:35:32.000Z</time>
      </trkpt>
      <trkpt lat="40.04836614243686199188232421875" lon="-0.72927125729620456695556640625">
        <ele>966.4000244140625</ele>
        <time>2021-09-26T11:35:34.000Z</time>
      </trkpt>
      <trkpt lat="40.0482594408094882965087890625" lon="-0.72925164364278316497802734375">
        <ele>966.79998779296875</ele>
        <time>2021-09-26T11:35:36.000Z</time>
      </trkpt>
      <trkpt lat="40.04815156571567058563232421875" lon="-0.72923152707517147064208984375">
        <ele>967.20001220703125</ele>
        <time>2021-09-26T11:35:38.000Z</time>
      </trkpt>
      <trkpt lat="40.04804737865924835205078125" lon="-0.72921208105981349945068359375">
        <ele>967.4000244140625</ele>
        <time>2021-09-26T11:35:40.000Z</time>
      </trkpt>
      <trkpt lat="40.04794771783053874969482421875" lon="-0.72919565252959728240966796875">
        <ele>967.5999755859375</ele>
        <time>2021-09-26T11:35:42.000Z</time>
      </trkpt>
      <trkpt lat="40.04785065539181232452392578125" lon="-0.72917285375297069549560546875">
        <ele>967.5999755859375</ele>
        <time>2021-09-26T11:35:44.000Z</time>
      </trkpt>
      <trkpt lat="40.04775912500917911529541015625" lon="-0.72915491648018360137939453125">
        <ele>967.4000244140625</ele>
        <time>2021-09-26T11:35:46.000Z</time>
      </trkpt>
      <trkpt lat="40.04766843281686305999755859375" lon="-0.72913915850222110748291015625">
        <ele>967.5999755859375</ele>
        <time>2021-09-26T11:35:48.000Z</time>
      </trkpt>
      <trkpt lat="40.047571957111358642578125" lon="-0.7291184552013874053955078125">
        <ele>967.79998779296875</ele>
        <time>2021-09-26T11:35:50.000Z</time>
      </trkpt>
      <trkpt lat="40.0474702008068561553955078125" lon="-0.72910026647150516510009765625">
        <ele>968.20001220703125</ele>
        <time>2021-09-26T11:35:52.000Z</time>
      </trkpt>
      <trkpt lat="40.04737121053040027618408203125" lon="-0.7290832512080669403076171875">
        <ele>968.4000244140625</ele>
        <time>2021-09-26T11:35:54.000Z</time>
      </trkpt>
      <trkpt lat="40.0472780875861644744873046875" lon="-0.72906523011624813079833984375">
        <ele>968.4000244140625</ele>
        <time>2021-09-26T11:35:56.000Z</time>
      </trkpt>
      <trkpt lat="40.04717431962490081787109375" lon="-0.72904913686215877532958984375">
        <ele>968</ele>
        <time>2021-09-26T11:35:58.000Z</time>
      </trkpt>
      <trkpt lat="40.04707264713943004608154296875" lon="-0.72903237305581569671630859375">
        <ele>967.4000244140625</ele>
        <time>2021-09-26T11:36:00.000Z</time>
      </trkpt>
      <trkpt lat="40.04696753807365894317626953125" lon="-0.729017369449138641357421875">
        <ele>967.20001220703125</ele>
        <time>2021-09-26T11:36:02.000Z</time>
      </trkpt>
      <trkpt lat="40.04686226136982440948486328125" lon="-0.72900437749922275543212890625">
        <ele>967.20001220703125</ele>
        <time>2021-09-26T11:36:04.000Z</time>
      </trkpt>
      <trkpt lat="40.04675857722759246826171875" lon="-0.72899767197668552398681640625">
        <ele>967.20001220703125</ele>
        <time>2021-09-26T11:36:06.000Z</time>
      </trkpt>
      <trkpt lat="40.046658329665660858154296875" lon="-0.7289923913776874542236328125">
        <ele>967.5999755859375</ele>
        <time>2021-09-26T11:36:08.000Z</time>
      </trkpt>
      <trkpt lat="40.0465572439134120941162109375" lon="-0.72899130173027515411376953125">
        <ele>968</ele>
        <time>2021-09-26T11:36:10.000Z</time>
      </trkpt>
      <trkpt lat="40.04650334827601909637451171875" lon="-0.72899197228252887725830078125">
        <ele>968</ele>
        <time>2021-09-26T11:36:11.000Z</time>
      </trkpt>
      <trkpt lat="40.04644987173378467559814453125" lon="-0.72899113409221172332763671875">
        <ele>967.79998779296875</ele>
        <time>2021-09-26T11:36:12.000Z</time>
      </trkpt>
      <trkpt lat="40.04634283483028411865234375" lon="-0.72899884544312953948974609375">
        <ele>967.4000244140625</ele>
        <time>2021-09-26T11:36:14.000Z</time>
      </trkpt>
      <trkpt lat="40.0462400726974010467529296875" lon="-0.72901678271591663360595703125">
        <ele>967.20001220703125</ele>
        <time>2021-09-26T11:36:16.000Z</time>
      </trkpt>
      <trkpt lat="40.0461418367922306060791015625" lon="-0.7290363125503063201904296875">
        <ele>967.4000244140625</ele>
        <time>2021-09-26T11:36:18.000Z</time>
      </trkpt>
      <trkpt lat="40.046048797667026519775390625" lon="-0.7290565967559814453125">
        <ele>967.4000244140625</ele>
        <time>2021-09-26T11:36:20.000Z</time>
      </trkpt>
      <trkpt lat="40.04595902748405933380126953125" lon="-0.72907595895230770111083984375">
        <ele>967.4000244140625</ele>
        <time>2021-09-26T11:36:22.000Z</time>
      </trkpt>
      <trkpt lat="40.04587587900459766387939453125" lon="-0.7290966622531414031982421875">
        <ele>967.5999755859375</ele>
        <time>2021-09-26T11:36:24.000Z</time>
      </trkpt>
      <trkpt lat="40.04583765752613544464111328125" lon="-0.72910822927951812744140625">
        <ele>967.5999755859375</ele>
        <time>2021-09-26T11:36:25.000Z</time>
      </trkpt>
      <trkpt lat="40.0458001904189586639404296875" lon="-0.729123987257480621337890625">
        <ele>967.5999755859375</ele>
        <time>2021-09-26T11:36:26.000Z</time>
      </trkpt>
      <trkpt lat="40.04572601057589054107666015625" lon="-0.72915022261440753936767578125">
        <ele>967.79998779296875</ele>
        <time>2021-09-26T11:36:28.000Z</time>
      </trkpt>
      <trkpt lat="40.045656524598598480224609375" lon="-0.729181654751300811767578125">
        <ele>967.79998779296875</ele>
        <time>2021-09-26T11:36:30.000Z</time>
      </trkpt>
      <trkpt lat="40.04558268003165721893310546875" lon="-0.7292163558304309844970703125">
        <ele>968</ele>
        <time>2021-09-26T11:36:32.000Z</time>
      </trkpt>
      <trkpt lat="40.04554512910544872283935546875" lon="-0.72923538275063037872314453125">
        <ele>968</ele>
        <time>2021-09-26T11:36:33.000Z</time>
      </trkpt>
      <trkpt lat="40.04550757817924022674560546875" lon="-0.7292552478611469268798828125">
        <ele>968</ele>
        <time>2021-09-26T11:36:34.000Z</time>
      </trkpt>
      <trkpt lat="40.04542560316622257232666015625" lon="-0.72929087094962596893310546875">
        <ele>968.20001220703125</ele>
        <time>2021-09-26T11:36:36.000Z</time>
      </trkpt>
      <trkpt lat="40.0453837774693965911865234375" lon="-0.7293119095265865325927734375">
        <ele>968.20001220703125</ele>
        <time>2021-09-26T11:36:37.000Z</time>
      </trkpt>
      <trkpt lat="40.04534530453383922576904296875" lon="-0.7293380610644817352294921875">
        <ele>968</ele>
        <time>2021-09-26T11:36:38.000Z</time>
      </trkpt>
      <trkpt lat="40.04527154378592967987060546875" lon="-0.729386508464813232421875">
        <ele>968</ele>
        <time>2021-09-26T11:36:40.000Z</time>
      </trkpt>
      <trkpt lat="40.04520918242633342742919921875" lon="-0.72942933999001979827880859375">
        <ele>968</ele>
        <time>2021-09-26T11:36:42.000Z</time>
      </trkpt>
      <trkpt lat="40.04514992237091064453125" lon="-0.72947141714394092559814453125">
        <ele>967.79998779296875</ele>
        <time>2021-09-26T11:36:44.000Z</time>
      </trkpt>
      <trkpt lat="40.04512117244303226470947265625" lon="-0.72949136607348918914794921875">
        <ele>967.79998779296875</ele>
        <time>2021-09-26T11:36:45.000Z</time>
      </trkpt>
      <trkpt lat="40.04509292542934417724609375" lon="-0.729509890079498291015625">
        <ele>967.5999755859375</ele>
        <time>2021-09-26T11:36:46.000Z</time>
      </trkpt>
      <trkpt lat="40.04504255019128322601318359375" lon="-0.729539729654788970947265625">
        <ele>967.4000244140625</ele>
        <time>2021-09-26T11:36:48.000Z</time>
      </trkpt>
      <trkpt lat="40.04498924128711223602294921875" lon="-0.7295757718384265899658203125">
        <ele>967</ele>
        <time>2021-09-26T11:36:50.000Z</time>
      </trkpt>
      <trkpt lat="40.044963844120502471923828125" lon="-0.72959530167281627655029296875">
        <ele>967</ele>
        <time>2021-09-26T11:36:51.000Z</time>
      </trkpt>
      <trkpt lat="40.0449385307729244232177734375" lon="-0.7296143285930156707763671875">
        <ele>966.79998779296875</ele>
        <time>2021-09-26T11:36:52.000Z</time>
      </trkpt>
      <trkpt lat="40.0448749959468841552734375" lon="-0.7296565733850002288818359375">
        <ele>966.5999755859375</ele>
        <time>2021-09-26T11:36:54.000Z</time>
      </trkpt>
      <trkpt lat="40.0448144786059856414794921875" lon="-0.7297016680240631103515625">
        <ele>966.20001220703125</ele>
        <time>2021-09-26T11:36:56.000Z</time>
      </trkpt>
      <trkpt lat="40.0447568111121654510498046875" lon="-0.7297417335212230682373046875">
        <ele>966</ele>
        <time>2021-09-26T11:36:58.000Z</time>
      </trkpt>
      <trkpt lat="40.0446974672377109527587890625" lon="-0.7297782786190509796142578125">
        <ele>965.79998779296875</ele>
        <time>2021-09-26T11:37:00.000Z</time>
      </trkpt>
      <trkpt lat="40.04463586024940013885498046875" lon="-0.7298211939632892608642578125">
        <ele>965.5999755859375</ele>
        <time>2021-09-26T11:37:02.000Z</time>
      </trkpt>
      <trkpt lat="40.044604428112506866455078125" lon="-0.72984072379767894744873046875">
        <ele>965.4000244140625</ele>
        <time>2021-09-26T11:37:03.000Z</time>
      </trkpt>
      <trkpt lat="40.04457048140466213226318359375" lon="-0.72986251674592494964599609375">
        <ele>965.4000244140625</ele>
        <time>2021-09-26T11:37:04.000Z</time>
      </trkpt>
      <trkpt lat="40.04450141452252864837646484375" lon="-0.72991079650819301605224609375">
        <ele>965.5999755859375</ele>
        <time>2021-09-26T11:37:06.000Z</time>
      </trkpt>
      <trkpt lat="40.04443176090717315673828125" lon="-0.7299583218991756439208984375">
        <ele>965.5999755859375</ele>
        <time>2021-09-26T11:37:08.000Z</time>
      </trkpt>
      <trkpt lat="40.04440032877027988433837890625" lon="-0.72997667826712131500244140625">
        <ele>965.79998779296875</ele>
        <time>2021-09-26T11:37:09.000Z</time>
      </trkpt>
      <trkpt lat="40.04436864517629146575927734375" lon="-0.72999411262571811676025390625">
        <ele>965.79998779296875</ele>
        <time>2021-09-26T11:37:10.000Z</time>
      </trkpt>
      <trkpt lat="40.04430226050317287445068359375" lon="-0.7300478406250476837158203125">
        <ele>966</ele>
        <time>2021-09-26T11:37:12.000Z</time>
      </trkpt>
      <trkpt lat="40.044219195842742919921875" lon="-0.73010743595659732818603515625">
        <ele>966.5999755859375</ele>
        <time>2021-09-26T11:37:14.000Z</time>
      </trkpt>
      <trkpt lat="40.0441345386207103729248046875" lon="-0.73016627691686153411865234375">
        <ele>967</ele>
        <time>2021-09-26T11:37:16.000Z</time>
      </trkpt>
      <trkpt lat="40.04409371875226497650146484375" lon="-0.73019427247345447540283203125">
        <ele>967.20001220703125</ele>
        <time>2021-09-26T11:37:17.000Z</time>
      </trkpt>
      <trkpt lat="40.04405700601637363433837890625" lon="-0.730217657983303070068359375">
        <ele>967.4000244140625</ele>
        <time>2021-09-26T11:37:18.000Z</time>
      </trkpt>
      <trkpt lat="40.04398760385811328887939453125" lon="-0.73025713674724102020263671875">
        <ele>967.5999755859375</ele>
        <time>2021-09-26T11:37:20.000Z</time>
      </trkpt>
      <trkpt lat="40.0439102388918399810791015625" lon="-0.7303086854517459869384765625">
        <ele>967.79998779296875</ele>
        <time>2021-09-26T11:37:22.000Z</time>
      </trkpt>
      <trkpt lat="40.04383639432489871978759765625" lon="-0.7303603179752826690673828125">
        <ele>968</ele>
        <time>2021-09-26T11:37:24.000Z</time>
      </trkpt>
      <trkpt lat="40.043766237795352935791015625" lon="-0.73041354306042194366455078125">
        <ele>968</ele>
        <time>2021-09-26T11:37:26.000Z</time>
      </trkpt>
      <trkpt lat="40.0436869449913501739501953125" lon="-0.73047154583036899566650390625">
        <ele>967.79998779296875</ele>
        <time>2021-09-26T11:37:28.000Z</time>
      </trkpt>
      <trkpt lat="40.0436103343963623046875" lon="-0.7305256091058254241943359375">
        <ele>967.4000244140625</ele>
        <time>2021-09-26T11:37:30.000Z</time>
      </trkpt>
      <trkpt lat="40.04353347234427928924560546875" lon="-0.73057749308645725250244140625">
        <ele>967.20001220703125</ele>
        <time>2021-09-26T11:37:32.000Z</time>
      </trkpt>
      <trkpt lat="40.043462477624416351318359375" lon="-0.7306241802871227264404296875">
        <ele>967</ele>
        <time>2021-09-26T11:37:34.000Z</time>
      </trkpt>
      <trkpt lat="40.0433957576751708984375" lon="-0.7306691072881221771240234375">
        <ele>966.5999755859375</ele>
        <time>2021-09-26T11:37:36.000Z</time>
      </trkpt>
      <trkpt lat="40.04333331249654293060302734375" lon="-0.730711519718170166015625">
        <ele>966.20001220703125</ele>
        <time>2021-09-26T11:37:38.000Z</time>
      </trkpt>
      <trkpt lat="40.04328251816332340240478515625" lon="-0.730743706226348876953125">
        <ele>965.79998779296875</ele>
        <time>2021-09-26T11:37:40.000Z</time>
      </trkpt>
      <trkpt lat="40.043266676366329193115234375" lon="-0.73075703345239162445068359375">
        <ele>965.79998779296875</ele>
        <time>2021-09-26T11:37:42.000Z</time>
      </trkpt>
      <trkpt lat="40.043266676366329193115234375" lon="-0.73075703345239162445068359375">
        <ele>965.79998779296875</ele>
        <time>2021-09-26T11:37:43.000Z</time>
      </trkpt>
      <trkpt lat="40.04323658533394336700439453125" lon="-0.73077765293419361114501953125">
        <ele>965.5999755859375</ele>
        <time>2021-09-26T11:37:48.000Z</time>
      </trkpt>
      <trkpt lat="40.043198280036449432373046875" lon="-0.73079810477793216705322265625">
        <ele>965.4000244140625</ele>
        <time>2021-09-26T11:37:50.000Z</time>
      </trkpt>
      <trkpt lat="40.04315980710089206695556640625" lon="-0.73081805370748043060302734375">
        <ele>965.20001220703125</ele>
        <time>2021-09-26T11:37:52.000Z</time>
      </trkpt>
      <trkpt lat="40.04313650541007518768310546875" lon="-0.73083330877125263214111328125">
        <ele>965.20001220703125</ele>
        <time>2021-09-26T11:37:54.000Z</time>
      </trkpt>
      <trkpt lat="40.04312544129788875579833984375" lon="-0.73084085248410701751708984375">
        <ele>965.20001220703125</ele>
        <time>2021-09-26T11:37:55.000Z</time>
      </trkpt>
      <trkpt lat="40.04311571829020977020263671875" lon="-0.7308468036353588104248046875">
        <ele>965.20001220703125</ele>
        <time>2021-09-26T11:37:56.000Z</time>
      </trkpt>
      <trkpt lat="40.043106414377689361572265625" lon="-0.7308523356914520263671875">
        <ele>965.20001220703125</ele>
        <time>2021-09-26T11:37:58.000Z</time>
      </trkpt>
      <trkpt lat="40.043106414377689361572265625" lon="-0.7308523356914520263671875">
        <ele>965.20001220703125</ele>
        <time>2021-09-26T11:37:59.000Z</time>
      </trkpt>
      <trkpt lat="40.043080933392047882080078125" lon="-0.730886198580265045166015625">
        <ele>965</ele>
        <time>2021-09-26T11:38:17.000Z</time>
      </trkpt>
      <trkpt lat="40.0430717132985591888427734375" lon="-0.73089458048343658447265625">
        <ele>965</ele>
        <time>2021-09-26T11:38:18.000Z</time>
      </trkpt>
      <trkpt lat="40.04306945018470287322998046875" lon="-0.73089860379695892333984375">
        <ele>965</ele>
        <time>2021-09-26T11:38:19.000Z</time>
      </trkpt>
      <trkpt lat="40.04304396919906139373779296875" lon="-0.73090530931949615478515625">
        <ele>965</ele>
        <time>2021-09-26T11:41:03.000Z</time>
      </trkpt>
      <trkpt lat="40.04303005523979663848876953125" lon="-0.73091058991849422454833984375">
        <ele>965</ele>
        <time>2021-09-26T11:41:04.000Z</time>
      </trkpt>
      <trkpt lat="40.04299342632293701171875" lon="-0.73093506507575511932373046875">
        <ele>964.79998779296875</ele>
        <time>2021-09-26T11:41:06.000Z</time>
      </trkpt>
      <trkpt lat="40.04294120706617832183837890625" lon="-0.73096959851682186126708984375">
        <ele>964.79998779296875</ele>
        <time>2021-09-26T11:41:08.000Z</time>
      </trkpt>
      <trkpt lat="40.0428705476224422454833984375" lon="-0.731007568538188934326171875">
        <ele>964.5999755859375</ele>
        <time>2021-09-26T11:41:10.000Z</time>
      </trkpt>
      <trkpt lat="40.0428313203155994415283203125" lon="-0.7310244999825954437255859375">
        <ele>964.5999755859375</ele>
        <time>2021-09-26T11:41:11.000Z</time>
      </trkpt>
      <trkpt lat="40.0427951104938983917236328125" lon="-0.731042437255382537841796875">
        <ele>964.4000244140625</ele>
        <time>2021-09-26T11:41:12.000Z</time>
      </trkpt>
      <trkpt lat="40.04276166670024394989013671875" lon="-0.73105827905237674713134765625">
        <ele>964.4000244140625</ele>
        <time>2021-09-26T11:41:13.000Z</time>
      </trkpt>
      <trkpt lat="40.04272663034498691558837890625" lon="-0.73107806034386157989501953125">
        <ele>964.4000244140625</ele>
        <time>2021-09-26T11:41:14.000Z</time>
      </trkpt>
      <trkpt lat="40.04265136085450649261474609375" lon="-0.73111225850880146026611328125">
        <ele>964.20001220703125</ele>
        <time>2021-09-26T11:41:16.000Z</time>
      </trkpt>
      <trkpt lat="40.04257055930793285369873046875" lon="-0.73114276863634586334228515625">
        <ele>964.5999755859375</ele>
        <time>2021-09-26T11:41:18.000Z</time>
      </trkpt>
      <trkpt lat="40.04252948798239231109619140625" lon="-0.7311581075191497802734375">
        <ele>965</ele>
        <time>2021-09-26T11:41:19.000Z</time>
      </trkpt>
      <trkpt lat="40.04248959012329578399658203125" lon="-0.73116959072649478912353515625">
        <ele>965.20001220703125</ele>
        <time>2021-09-26T11:41:20.000Z</time>
      </trkpt>
      <trkpt lat="40.04240174777805805206298828125" lon="-0.7311934791505336761474609375">
        <ele>965.79998779296875</ele>
        <time>2021-09-26T11:41:22.000Z</time>
      </trkpt>
      <trkpt lat="40.042317174375057220458984375" lon="-0.73121703229844570159912109375">
        <ele>966.20001220703125</ele>
        <time>2021-09-26T11:41:24.000Z</time>
      </trkpt>
      <trkpt lat="40.04222740419209003448486328125" lon="-0.73123312555253505706787109375">
        <ele>966.20001220703125</ele>
        <time>2021-09-26T11:41:26.000Z</time>
      </trkpt>
      <trkpt lat="40.0421364605426788330078125" lon="-0.73125039227306842803955078125">
        <ele>966.20001220703125</ele>
        <time>2021-09-26T11:41:28.000Z</time>
      </trkpt>
      <trkpt lat="40.04204325377941131591796875" lon="-0.73126413859426975250244140625">
        <ele>966.5999755859375</ele>
        <time>2021-09-26T11:41:30.000Z</time>
      </trkpt>
      <trkpt lat="40.04194929264485836029052734375" lon="-0.73127805255353450775146484375">
        <ele>966.79998779296875</ele>
        <time>2021-09-26T11:41:32.000Z</time>
      </trkpt>
      <trkpt lat="40.04185608588159084320068359375" lon="-0.73128274641931056976318359375">
        <ele>966.79998779296875</ele>
        <time>2021-09-26T11:41:34.000Z</time>
      </trkpt>
      <trkpt lat="40.041761957108974456787109375" lon="-0.7312813214957714080810546875">
        <ele>966.79998779296875</ele>
        <time>2021-09-26T11:41:36.000Z</time>
      </trkpt>
      <trkpt lat="40.0416670739650726318359375" lon="-0.73127754963934421539306640625">
        <ele>966.5999755859375</ele>
        <time>2021-09-26T11:41:38.000Z</time>
      </trkpt>
      <trkpt lat="40.04161938093602657318115234375" lon="-0.73127218522131443023681640625">
        <ele>966.4000244140625</ele>
        <time>2021-09-26T11:41:39.000Z</time>
      </trkpt>
      <trkpt lat="40.0415716879069805145263671875" lon="-0.73126765899360179901123046875">
        <ele>966.20001220703125</ele>
        <time>2021-09-26T11:41:40.000Z</time>
      </trkpt>
      <trkpt lat="40.0414778105914592742919921875" lon="-0.73125273920595645904541015625">
        <ele>965.5999755859375</ele>
        <time>2021-09-26T11:41:42.000Z</time>
      </trkpt>
      <trkpt lat="40.0413866154849529266357421875" lon="-0.73123496957123279571533203125">
        <ele>965.4000244140625</ele>
        <time>2021-09-26T11:41:44.000Z</time>
      </trkpt>
      <trkpt lat="40.04129131324589252471923828125" lon="-0.731213428080081939697265625">
        <ele>965.20001220703125</ele>
        <time>2021-09-26T11:41:46.000Z</time>
      </trkpt>
      <trkpt lat="40.04124554805457592010498046875" lon="-0.73120261542499065399169921875">
        <ele>965.20001220703125</ele>
        <time>2021-09-26T11:41:47.000Z</time>
      </trkpt>
      <trkpt lat="40.04120028577744960784912109375" lon="-0.73118937201797962188720703125">
        <ele>965.4000244140625</ele>
        <time>2021-09-26T11:41:48.000Z</time>
      </trkpt>
      <trkpt lat="40.041110515594482421875" lon="-0.731162466108798980712890625">
        <ele>965.4000244140625</ele>
        <time>2021-09-26T11:41:50.000Z</time>
      </trkpt>
      <trkpt lat="40.04102124832570552825927734375" lon="-0.73112499900162220001220703125">
        <ele>965.79998779296875</ele>
        <time>2021-09-26T11:41:52.000Z</time>
      </trkpt>
      <trkpt lat="40.04093281924724578857421875" lon="-0.731086023151874542236328125">
        <ele>966.5999755859375</ele>
        <time>2021-09-26T11:41:54.000Z</time>
      </trkpt>
      <trkpt lat="40.04084656946361064910888671875" lon="-0.731043778359889984130859375">
        <ele>967.4000244140625</ele>
        <time>2021-09-26T11:41:56.000Z</time>
      </trkpt>
      <trkpt lat="40.040761493146419525146484375" lon="-0.73100010864436626434326171875">
        <ele>968.4000244140625</ele>
        <time>2021-09-26T11:41:58.000Z</time>
      </trkpt>
      <trkpt lat="40.04067725501954555511474609375" lon="-0.73094864375889301300048828125">
        <ele>969.20001220703125</ele>
        <time>2021-09-26T11:42:00.000Z</time>
      </trkpt>
      <trkpt lat="40.0405906699597835540771484375" lon="-0.73089198209345340728759765625">
        <ele>969</ele>
        <time>2021-09-26T11:42:02.000Z</time>
      </trkpt>
      <trkpt lat="40.040506683290004730224609375" lon="-0.7308308780193328857421875">
        <ele>968.79998779296875</ele>
        <time>2021-09-26T11:42:04.000Z</time>
      </trkpt>
      <trkpt lat="40.0404253788292407989501953125" lon="-0.7307643257081508636474609375">
        <ele>968</ele>
        <time>2021-09-26T11:42:06.000Z</time>
      </trkpt>
      <trkpt lat="40.04034482873976230621337890625" lon="-0.73070489801466464996337890625">
        <ele>967.4000244140625</ele>
        <time>2021-09-26T11:42:08.000Z</time>
      </trkpt>
      <trkpt lat="40.040306188166141510009765625" lon="-0.73067723773419857025146484375">
        <ele>967</ele>
        <time>2021-09-26T11:42:09.000Z</time>
      </trkpt>
      <trkpt lat="40.04026402719318866729736328125" lon="-0.7306416146457195281982421875">
        <ele>966.5999755859375</ele>
        <time>2021-09-26T11:42:10.000Z</time>
      </trkpt>
      <trkpt lat="40.040184147655963897705078125" lon="-0.73056089691817760467529296875">
        <ele>965.79998779296875</ele>
        <time>2021-09-26T11:42:12.000Z</time>
      </trkpt>
      <trkpt lat="40.040111057460308074951171875" lon="-0.73047892190515995025634765625">
        <ele>966.20001220703125</ele>
        <time>2021-09-26T11:42:14.000Z</time>
      </trkpt>
      <trkpt lat="40.04003721289336681365966796875" lon="-0.73039795272052288055419921875">
        <ele>966.79998779296875</ele>
        <time>2021-09-26T11:42:16.000Z</time>
      </trkpt>
      <trkpt lat="40.03996294923126697540283203125" lon="-0.73031497187912464141845703125">
        <ele>967.4000244140625</ele>
        <time>2021-09-26T11:42:18.000Z</time>
      </trkpt>
      <trkpt lat="40.03989212214946746826171875" lon="-0.73022344149649143218994140625">
        <ele>968.20001220703125</ele>
        <time>2021-09-26T11:42:20.000Z</time>
      </trkpt>
      <trkpt lat="40.03982313908636569976806640625" lon="-0.73012939654290676116943359375">
        <ele>969.20001220703125</ele>
        <time>2021-09-26T11:42:22.000Z</time>
      </trkpt>
      <trkpt lat="40.03975708968937397003173828125" lon="-0.73003585450351238250732421875">
        <ele>969.79998779296875</ele>
        <time>2021-09-26T11:42:24.000Z</time>
      </trkpt>
      <trkpt lat="40.03969472832977771759033203125" lon="-0.72993812151253223419189453125">
        <ele>970.20001220703125</ele>
        <time>2021-09-26T11:42:26.000Z</time>
      </trkpt>
      <trkpt lat="40.0396649725735187530517578125" lon="-0.729886405169963836669921875">
        <ele>970.4000244140625</ele>
        <time>2021-09-26T11:42:27.000Z</time>
      </trkpt>
      <trkpt lat="40.03963622264564037322998046875" lon="-0.72983586229383945465087890625">
        <ele>970.5999755859375</ele>
        <time>2021-09-26T11:42:28.000Z</time>
      </trkpt>
      <trkpt lat="40.03957805223762989044189453125" lon="-0.729730166494846343994140625">
        <ele>970.79998779296875</ele>
        <time>2021-09-26T11:42:30.000Z</time>
      </trkpt>
      <trkpt lat="40.03954703919589519500732421875" lon="-0.72968113236129283905029296875">
        <ele>970.79998779296875</ele>
        <time>2021-09-26T11:42:31.000Z</time>
      </trkpt>
      <trkpt lat="40.03951820544898509979248046875" lon="-0.72963017039000988006591796875">
        <ele>970.79998779296875</ele>
        <time>2021-09-26T11:42:32.000Z</time>
      </trkpt>
      <trkpt lat="40.03946372307837009429931640625" lon="-0.72953210212290287017822265625">
        <ele>970.20001220703125</ele>
        <time>2021-09-26T11:42:34.000Z</time>
      </trkpt>
      <trkpt lat="40.0394148565828800201416015625" lon="-0.72944308631122112274169921875">
        <ele>969.79998779296875</ele>
        <time>2021-09-26T11:42:36.000Z</time>
      </trkpt>
      <trkpt lat="40.0393628887832164764404296875" lon="-0.72935272939503192901611328125">
        <ele>969.4000244140625</ele>
        <time>2021-09-26T11:42:38.000Z</time>
      </trkpt>
      <trkpt lat="40.039310418069362640380859375" lon="-0.729258097708225250244140625">
        <ele>969.20001220703125</ele>
        <time>2021-09-26T11:42:40.000Z</time>
      </trkpt>
      <trkpt lat="40.0392569415271282196044921875" lon="-0.729162208735942840576171875">
        <ele>969.4000244140625</ele>
        <time>2021-09-26T11:42:42.000Z</time>
      </trkpt>
      <trkpt lat="40.03920455463230609893798828125" lon="-0.729066990315914154052734375">
        <ele>969.79998779296875</ele>
        <time>2021-09-26T11:42:44.000Z</time>
      </trkpt>
      <trkpt lat="40.03914889879524707794189453125" lon="-0.728967748582363128662109375">
        <ele>969.5999755859375</ele>
        <time>2021-09-26T11:42:46.000Z</time>
      </trkpt>
      <trkpt lat="40.03908888436853885650634765625" lon="-0.7288675010204315185546875">
        <ele>969.20001220703125</ele>
        <time>2021-09-26T11:42:48.000Z</time>
      </trkpt>
      <trkpt lat="40.03905971534550189971923828125" lon="-0.7288167066872119903564453125">
        <ele>969.5999755859375</ele>
        <time>2021-09-26T11:42:49.000Z</time>
      </trkpt>
      <trkpt lat="40.03902903757989406585693359375" lon="-0.72876415215432643890380859375">
        <ele>970.20001220703125</ele>
        <time>2021-09-26T11:42:50.000Z</time>
      </trkpt>
      <trkpt lat="40.0389743037521839141845703125" lon="-0.72865619324147701263427734375">
        <ele>970.4000244140625</ele>
        <time>2021-09-26T11:42:52.000Z</time>
      </trkpt>
      <trkpt lat="40.0389196537435054779052734375" lon="-0.72855108417570590972900390625">
        <ele>970</ele>
        <time>2021-09-26T11:42:54.000Z</time>
      </trkpt>
      <trkpt lat="40.0388668477535247802734375" lon="-0.72844413109123706817626953125">
        <ele>969.5999755859375</ele>
        <time>2021-09-26T11:42:56.000Z</time>
      </trkpt>
      <trkpt lat="40.03883977420628070831298828125" lon="-0.7283902354538440704345703125">
        <ele>969.4000244140625</ele>
        <time>2021-09-26T11:42:57.000Z</time>
      </trkpt>
      <trkpt lat="40.03881261684000492095947265625" lon="-0.72833348996937274932861328125">
        <ele>969.20001220703125</ele>
        <time>2021-09-26T11:42:58.000Z</time>
      </trkpt>
      <trkpt lat="40.0387607328593730926513671875" lon="-0.7282209210097789764404296875">
        <ele>968.20001220703125</ele>
        <time>2021-09-26T11:43:00.000Z</time>
      </trkpt>
      <trkpt lat="40.03870549611747264862060546875" lon="-0.7281084358692169189453125">
        <ele>968</ele>
        <time>2021-09-26T11:43:02.000Z</time>
      </trkpt>
      <trkpt lat="40.0386549532413482666015625" lon="-0.72799687273800373077392578125">
        <ele>968.4000244140625</ele>
        <time>2021-09-26T11:43:04.000Z</time>
      </trkpt>
      <trkpt lat="40.0386282987892627716064453125" lon="-0.72794012725353240966796875">
        <ele>968.5999755859375</ele>
        <time>2021-09-26T11:43:05.000Z</time>
      </trkpt>
      <trkpt lat="40.03860306926071643829345703125" lon="-0.7278806157410144805908203125">
        <ele>968.20001220703125</ele>
        <time>2021-09-26T11:43:06.000Z</time>
      </trkpt>
      <trkpt lat="40.0385572202503681182861328125" lon="-0.7277592457830905914306640625">
        <ele>967.4000244140625</ele>
        <time>2021-09-26T11:43:08.000Z</time>
      </trkpt>
      <trkpt lat="40.0385129638016223907470703125" lon="-0.7276375405490398406982421875">
        <ele>966.4000244140625</ele>
        <time>2021-09-26T11:43:10.000Z</time>
      </trkpt>
      <trkpt lat="40.0384683720767498016357421875" lon="-0.727522708475589752197265625">
        <ele>966</ele>
        <time>2021-09-26T11:43:12.000Z</time>
      </trkpt>
      <trkpt lat="40.0384455733001232147216796875" lon="-0.72746403515338897705078125">
        <ele>966.20001220703125</ele>
        <time>2021-09-26T11:43:13.000Z</time>
      </trkpt>
      <trkpt lat="40.03842352889478206634521484375" lon="-0.727404691278934478759765625">
        <ele>966.20001220703125</ele>
        <time>2021-09-26T11:43:14.000Z</time>
      </trkpt>
      <trkpt lat="40.0383781827986240386962890625" lon="-0.72728030383586883544921875">
        <ele>966.5999755859375</ele>
        <time>2021-09-26T11:43:16.000Z</time>
      </trkpt>
      <trkpt lat="40.0383357703685760498046875" lon="-0.72715180926024913787841796875">
        <ele>967.20001220703125</ele>
        <time>2021-09-26T11:43:18.000Z</time>
      </trkpt>
      <trkpt lat="40.0383143126964569091796875" lon="-0.72708852589130401611328125">
        <ele>967.4000244140625</ele>
        <time>2021-09-26T11:43:19.000Z</time>
      </trkpt>
      <trkpt lat="40.03829427994787693023681640625" lon="-0.72702641598880290985107421875">
        <ele>967.79998779296875</ele>
        <time>2021-09-26T11:43:20.000Z</time>
      </trkpt>
      <trkpt lat="40.03825622610747814178466796875" lon="-0.72690085507929325103759765625">
        <ele>968.20001220703125</ele>
        <time>2021-09-26T11:43:22.000Z</time>
      </trkpt>
      <trkpt lat="40.03822068683803081512451171875" lon="-0.72677629999816417694091796875">
        <ele>968.79998779296875</ele>
        <time>2021-09-26T11:43:24.000Z</time>
      </trkpt>
      <trkpt lat="40.038179866969585418701171875" lon="-0.7266518287360668182373046875">
        <ele>968.79998779296875</ele>
        <time>2021-09-26T11:43:26.000Z</time>
      </trkpt>
      <trkpt lat="40.0381386280059814453125" lon="-0.72652165777981281280517578125">
        <ele>968.4000244140625</ele>
        <time>2021-09-26T11:43:28.000Z</time>
      </trkpt>
      <trkpt lat="40.03809931688010692596435546875" lon="-0.7263943366706371307373046875">
        <ele>967.5999755859375</ele>
        <time>2021-09-26T11:43:30.000Z</time>
      </trkpt>
      <trkpt lat="40.03805807791650295257568359375" lon="-0.72626651264727115631103515625">
        <ele>968</ele>
        <time>2021-09-26T11:43:32.000Z</time>
      </trkpt>
      <trkpt lat="40.038016922771930694580078125" lon="-0.7261381857097148895263671875">
        <ele>968.5999755859375</ele>
        <time>2021-09-26T11:43:34.000Z</time>
      </trkpt>
      <trkpt lat="40.03797702491283416748046875" lon="-0.72600633837282657623291015625">
        <ele>969.79998779296875</ele>
        <time>2021-09-26T11:43:36.000Z</time>
      </trkpt>
      <trkpt lat="40.03793100826442241668701171875" lon="-0.7258793525397777557373046875">
        <ele>971</ele>
        <time>2021-09-26T11:43:38.000Z</time>
      </trkpt>
      <trkpt lat="40.037889182567596435546875" lon="-0.7257532887160778045654296875">
        <ele>971.20001220703125</ele>
        <time>2021-09-26T11:43:40.000Z</time>
      </trkpt>
      <trkpt lat="40.03784735687077045440673828125" lon="-0.72562362067401409149169921875">
        <ele>971</ele>
        <time>2021-09-26T11:43:42.000Z</time>
      </trkpt>
      <trkpt lat="40.03780913539230823516845703125" lon="-0.72549797594547271728515625">
        <ele>969.79998779296875</ele>
        <time>2021-09-26T11:43:44.000Z</time>
      </trkpt>
      <trkpt lat="40.0377693213522434234619140625" lon="-0.72536654770374298095703125">
        <ele>968.20001220703125</ele>
        <time>2021-09-26T11:43:46.000Z</time>
      </trkpt>
      <trkpt lat="40.03774912096560001373291015625" lon="-0.72530125267803668975830078125">
        <ele>967.79998779296875</ele>
        <time>2021-09-26T11:43:47.000Z</time>
      </trkpt>
      <trkpt lat="40.03772900439798831939697265625" lon="-0.7252379693090915679931640625">
        <ele>967.20001220703125</ele>
        <time>2021-09-26T11:43:48.000Z</time>
      </trkpt>
      <trkpt lat="40.037690363824367523193359375" lon="-0.72511215694248676300048828125">
        <ele>966.4000244140625</ele>
        <time>2021-09-26T11:43:50.000Z</time>
      </trkpt>
      <trkpt lat="40.03764971159398555755615234375" lon="-0.72498475201427936553955078125">
        <ele>966</ele>
        <time>2021-09-26T11:43:52.000Z</time>
      </trkpt>
      <trkpt lat="40.0376080535352230072021484375" lon="-0.72486120276153087615966796875">
        <ele>966.4000244140625</ele>
        <time>2021-09-26T11:43:54.000Z</time>
      </trkpt>
      <trkpt lat="40.037567317485809326171875" lon="-0.72473128326237201690673828125">
        <ele>967</ele>
        <time>2021-09-26T11:43:56.000Z</time>
      </trkpt>
      <trkpt lat="40.03752733580768108367919921875" lon="-0.72460136376321315765380859375">
        <ele>967.20001220703125</ele>
        <time>2021-09-26T11:43:58.000Z</time>
      </trkpt>
      <trkpt lat="40.03748307935893535614013671875" lon="-0.72447362355887889862060546875">
        <ele>968.20001220703125</ele>
        <time>2021-09-26T11:44:00.000Z</time>
      </trkpt>
      <trkpt lat="40.03744670189917087554931640625" lon="-0.72434923611581325531005859375">
        <ele>967.5999755859375</ele>
        <time>2021-09-26T11:44:02.000Z</time>
      </trkpt>
      <trkpt lat="40.0374306924641132354736328125" lon="-0.72429207153618335723876953125">
        <ele>967.4000244140625</ele>
        <time>2021-09-26T11:44:03.000Z</time>
      </trkpt>
      <trkpt lat="40.0374132581055164337158203125" lon="-0.72423172183334827423095703125">
        <ele>967.20001220703125</ele>
        <time>2021-09-26T11:44:04.000Z</time>
      </trkpt>
      <trkpt lat="40.037375874817371368408203125" lon="-0.72410448454320430755615234375">
        <ele>966.5999755859375</ele>
        <time>2021-09-26T11:44:06.000Z</time>
      </trkpt>
      <trkpt lat="40.0373311154544353485107421875" lon="-0.72397825308144092559814453125">
        <ele>966</ele>
        <time>2021-09-26T11:44:08.000Z</time>
      </trkpt>
      <trkpt lat="40.037290714681148529052734375" lon="-0.723850764334201812744140625">
        <ele>967.20001220703125</ele>
        <time>2021-09-26T11:44:10.000Z</time>
      </trkpt>
      <trkpt lat="40.0372506491839885711669921875" lon="-0.7237248681485652923583984375">
        <ele>968.20001220703125</ele>
        <time>2021-09-26T11:44:12.000Z</time>
      </trkpt>
      <trkpt lat="40.03720697946846485137939453125" lon="-0.72359721176326274871826171875">
        <ele>969.20001220703125</ele>
        <time>2021-09-26T11:44:14.000Z</time>
      </trkpt>
      <trkpt lat="40.037165321409702301025390625" lon="-0.7234673760831356048583984375">
        <ele>969.4000244140625</ele>
        <time>2021-09-26T11:44:16.000Z</time>
      </trkpt>
      <trkpt lat="40.0371269322931766510009765625" lon="-0.72334558703005313873291015625">
        <ele>969.4000244140625</ele>
        <time>2021-09-26T11:44:18.000Z</time>
      </trkpt>
      <trkpt lat="40.03709415905177593231201171875" lon="-0.723219774663448333740234375">
        <ele>969.4000244140625</ele>
        <time>2021-09-26T11:44:20.000Z</time>
      </trkpt>
      <trkpt lat="40.03705493174493312835693359375" lon="-0.7230878435075283050537109375">
        <ele>969.20001220703125</ele>
        <time>2021-09-26T11:44:22.000Z</time>
      </trkpt>
      <trkpt lat="40.0370107591152191162109375" lon="-0.7229594327509403228759765625">
        <ele>969</ele>
        <time>2021-09-26T11:44:24.000Z</time>
      </trkpt>
      <trkpt lat="40.0369887985289096832275390625" lon="-0.72288952767848968505859375">
        <ele>969</ele>
        <time>2021-09-26T11:44:25.000Z</time>
      </trkpt>
      <trkpt lat="40.0369690172374248504638671875" lon="-0.722822807729244232177734375">
        <ele>968.79998779296875</ele>
        <time>2021-09-26T11:44:26.000Z</time>
      </trkpt>
      <trkpt lat="40.036928951740264892578125" lon="-0.72269096039235591888427734375">
        <ele>968.5999755859375</ele>
        <time>2021-09-26T11:44:28.000Z</time>
      </trkpt>
      <trkpt lat="40.0368872098624706268310546875" lon="-0.7225624658167362213134765625">
        <ele>968.4000244140625</ele>
        <time>2021-09-26T11:44:30.000Z</time>
      </trkpt>
      <trkpt lat="40.03684781491756439208984375" lon="-0.722431875765323638916015625">
        <ele>968.5999755859375</ele>
        <time>2021-09-26T11:44:32.000Z</time>
      </trkpt>
      <trkpt lat="40.03680548630654811859130859375" lon="-0.72230271063745021820068359375">
        <ele>969.20001220703125</ele>
        <time>2021-09-26T11:44:34.000Z</time>
      </trkpt>
      <trkpt lat="40.036761648952960968017578125" lon="-0.72217530570924282073974609375">
        <ele>969.20001220703125</ele>
        <time>2021-09-26T11:44:36.000Z</time>
      </trkpt>
      <trkpt lat="40.03672401420772075653076171875" lon="-0.7220535166561603546142578125">
        <ele>969.20001220703125</ele>
        <time>2021-09-26T11:44:38.000Z</time>
      </trkpt>
      <trkpt lat="40.0366862118244171142578125" lon="-0.72193508036434650421142578125">
        <ele>969.20001220703125</ele>
        <time>2021-09-26T11:44:40.000Z</time>
      </trkpt>
      <trkpt lat="40.036645643413066864013671875" lon="-0.72180784307420253753662109375">
        <ele>968.79998779296875</ele>
        <time>2021-09-26T11:44:42.000Z</time>
      </trkpt>
      <trkpt lat="40.03660348244011402130126953125" lon="-0.7216830365359783172607421875">
        <ele>968.20001220703125</ele>
        <time>2021-09-26T11:44:44.000Z</time>
      </trkpt>
      <trkpt lat="40.03656039945781230926513671875" lon="-0.72154817171394824981689453125">
        <ele>967.5999755859375</ele>
        <time>2021-09-26T11:44:46.000Z</time>
      </trkpt>
      <trkpt lat="40.03651631064713001251220703125" lon="-0.72141339071094989776611328125">
        <ele>967.5999755859375</ele>
        <time>2021-09-26T11:44:48.000Z</time>
      </trkpt>
      <trkpt lat="40.03647004254162311553955078125" lon="-0.72128196246922016143798828125">
        <ele>968.79998779296875</ele>
        <time>2021-09-26T11:44:50.000Z</time>
      </trkpt>
      <trkpt lat="40.0364265404641628265380859375" lon="-0.7211519591510295867919921875">
        <ele>970.4000244140625</ele>
        <time>2021-09-26T11:44:52.000Z</time>
      </trkpt>
      <trkpt lat="40.03638370893895626068115234375" lon="-0.72102078236639499664306640625">
        <ele>971.5999755859375</ele>
        <time>2021-09-26T11:44:54.000Z</time>
      </trkpt>
      <trkpt lat="40.036341212689876556396484375" lon="-0.720886252820491790771484375">
        <ele>971.20001220703125</ele>
        <time>2021-09-26T11:44:56.000Z</time>
      </trkpt>
      <trkpt lat="40.0363215990364551544189453125" lon="-0.72081752121448516845703125">
        <ele>971.20001220703125</ele>
        <time>2021-09-26T11:44:57.000Z</time>
      </trkpt>
      <trkpt lat="40.03630039282143115997314453125" lon="-0.72074719704687595367431640625">
        <ele>971.20001220703125</ele>
        <time>2021-09-26T11:44:58.000Z</time>
      </trkpt>
      <trkpt lat="40.03626066260039806365966796875" lon="-0.72061291895806789398193359375">
        <ele>971</ele>
        <time>2021-09-26T11:45:00.000Z</time>
      </trkpt>
      <trkpt lat="40.03621908836066722869873046875" lon="-0.7204829156398773193359375">
        <ele>970.20001220703125</ele>
        <time>2021-09-26T11:45:02.000Z</time>
      </trkpt>
      <trkpt lat="40.0361740775406360626220703125" lon="-0.72035375051200389862060546875">
        <ele>969.4000244140625</ele>
        <time>2021-09-26T11:45:04.000Z</time>
      </trkpt>
      <trkpt lat="40.03613434731960296630859375" lon="-0.720227099955081939697265625">
        <ele>969</ele>
        <time>2021-09-26T11:45:06.000Z</time>
      </trkpt>
      <trkpt lat="40.0360972993075847625732421875" lon="-0.72010095231235027313232421875">
        <ele>968.20001220703125</ele>
        <time>2021-09-26T11:45:08.000Z</time>
      </trkpt>
      <trkpt lat="40.036056898534297943115234375" lon="-0.71998293511569499969482421875">
        <ele>967.4000244140625</ele>
        <time>2021-09-26T11:45:10.000Z</time>
      </trkpt>
      <trkpt lat="40.03601658158004283905029296875" lon="-0.719861648976802825927734375">
        <ele>967.20001220703125</ele>
        <time>2021-09-26T11:45:12.000Z</time>
      </trkpt>
      <trkpt lat="40.0359928607940673828125" lon="-0.71979601867496967315673828125">
        <ele>967</ele>
        <time>2021-09-26T11:45:13.000Z</time>
      </trkpt>
      <trkpt lat="40.03596478141844272613525390625" lon="-0.71973516605794429779052734375">
        <ele>967.4000244140625</ele>
        <time>2021-09-26T11:45:14.000Z</time>
      </trkpt>
      <trkpt lat="40.0359058566391468048095703125" lon="-0.71961396373808383941650390625">
        <ele>968.4000244140625</ele>
        <time>2021-09-26T11:45:16.000Z</time>
      </trkpt>
      <trkpt lat="40.03584810532629489898681640625" lon="-0.7195079326629638671875">
        <ele>969</ele>
        <time>2021-09-26T11:45:18.000Z</time>
      </trkpt>
      <trkpt lat="40.03579529933631420135498046875" lon="-0.71941338479518890380859375">
        <ele>969.4000244140625</ele>
        <time>2021-09-26T11:45:20.000Z</time>
      </trkpt>
      <trkpt lat="40.03574115224182605743408203125" lon="-0.7193133048713207244873046875">
        <ele>969.79998779296875</ele>
        <time>2021-09-26T11:45:22.000Z</time>
      </trkpt>
      <trkpt lat="40.0356748513877391815185546875" lon="-0.719216577708721160888671875">
        <ele>970.20001220703125</ele>
        <time>2021-09-26T11:45:24.000Z</time>
      </trkpt>
      <trkpt lat="40.0356054492294788360595703125" lon="-0.71912311948835849761962890625">
        <ele>970.4000244140625</ele>
        <time>2021-09-26T11:45:26.000Z</time>
      </trkpt>
      <trkpt lat="40.03553143702447414398193359375" lon="-0.71903259493410587310791015625">
        <ele>970.4000244140625</ele>
        <time>2021-09-26T11:45:28.000Z</time>
      </trkpt>
      <trkpt lat="40.03545080311596393585205078125" lon="-0.71893570013344287872314453125">
        <ele>970.5999755859375</ele>
        <time>2021-09-26T11:45:30.000Z</time>
      </trkpt>
      <trkpt lat="40.035365559160709381103515625" lon="-0.718850791454315185546875">
        <ele>970.5999755859375</ele>
        <time>2021-09-26T11:45:32.000Z</time>
      </trkpt>
      <trkpt lat="40.03528014756739139556884765625" lon="-0.7187698222696781158447265625">
        <ele>970.20001220703125</ele>
        <time>2021-09-26T11:45:34.000Z</time>
      </trkpt>
      <trkpt lat="40.0351897068321704864501953125" lon="-0.7186933793127536773681640625">
        <ele>970</ele>
        <time>2021-09-26T11:45:36.000Z</time>
      </trkpt>
      <trkpt lat="40.03510446287691593170166015625" lon="-0.71862271986901760101318359375">
        <ele>970</ele>
        <time>2021-09-26T11:45:38.000Z</time>
      </trkpt>
      <trkpt lat="40.0350197218358516693115234375" lon="-0.71856454946100711822509765625">
        <ele>970.20001220703125</ele>
        <time>2021-09-26T11:45:40.000Z</time>
      </trkpt>
      <trkpt lat="40.03492643125355243682861328125" lon="-0.7185066305100917816162109375">
        <ele>970.79998779296875</ele>
        <time>2021-09-26T11:45:42.000Z</time>
      </trkpt>
      <trkpt lat="40.0348349846899509429931640625" lon="-0.71845608763396739959716796875">
        <ele>971.4000244140625</ele>
        <time>2021-09-26T11:45:44.000Z</time>
      </trkpt>
      <trkpt lat="40.03474605269730091094970703125" lon="-0.71840914897620677947998046875">
        <ele>971.5999755859375</ele>
        <time>2021-09-26T11:45:46.000Z</time>
      </trkpt>
      <trkpt lat="40.0346968509256839752197265625" lon="-0.718388445675373077392578125">
        <ele>971.5999755859375</ele>
        <time>2021-09-26T11:45:47.000Z</time>
      </trkpt>
      <trkpt lat="40.03465083427727222442626953125" lon="-0.718366988003253936767578125">
        <ele>971.5999755859375</ele>
        <time>2021-09-26T11:45:48.000Z</time>
      </trkpt>
      <trkpt lat="40.034558884799480438232421875" lon="-0.718338154256343841552734375">
        <ele>971.4000244140625</ele>
        <time>2021-09-26T11:45:50.000Z</time>
      </trkpt>
      <trkpt lat="40.034456960856914520263671875" lon="-0.71830672211945056915283203125">
        <ele>970.79998779296875</ele>
        <time>2021-09-26T11:45:52.000Z</time>
      </trkpt>
      <trkpt lat="40.03440298140048980712890625" lon="-0.71829565800726413726806640625">
        <ele>970.5999755859375</ele>
        <time>2021-09-26T11:45:53.000Z</time>
      </trkpt>
      <trkpt lat="40.03435428254306316375732421875" lon="-0.7182850129902362823486328125">
        <ele>970.4000244140625</ele>
        <time>2021-09-26T11:45:54.000Z</time>
      </trkpt>
      <trkpt lat="40.0342599861323833465576171875" lon="-0.71826145984232425689697265625">
        <ele>970</ele>
        <time>2021-09-26T11:45:56.000Z</time>
      </trkpt>
      <trkpt lat="40.03417289815843105316162109375" lon="-0.71824754588305950164794921875">
        <ele>970</ele>
        <time>2021-09-26T11:45:58.000Z</time>
      </trkpt>
      <trkpt lat="40.03408773802220821380615234375" lon="-0.71824528276920318603515625">
        <ele>969.5999755859375</ele>
        <time>2021-09-26T11:46:00.000Z</time>
      </trkpt>
      <trkpt lat="40.03399302251636981964111328125" lon="-0.7182390801608562469482421875">
        <ele>969.4000244140625</ele>
        <time>2021-09-26T11:46:02.000Z</time>
      </trkpt>
      <trkpt lat="40.033903755247592926025390625" lon="-0.71824067272245883941650390625">
        <ele>969.4000244140625</ele>
        <time>2021-09-26T11:46:04.000Z</time>
      </trkpt>
      <trkpt lat="40.0338190980255603790283203125" lon="-0.718247629702091217041015625">
        <ele>969.79998779296875</ele>
        <time>2021-09-26T11:46:06.000Z</time>
      </trkpt>
      <trkpt lat="40.03377542831003665924072265625" lon="-0.718257687985897064208984375">
        <ele>970</ele>
        <time>2021-09-26T11:46:07.000Z</time>
      </trkpt>
      <trkpt lat="40.03372664563357830047607421875" lon="-0.7182652316987514495849609375">
        <ele>970.20001220703125</ele>
        <time>2021-09-26T11:46:08.000Z</time>
      </trkpt>
      <trkpt lat="40.03362589515745639801025390625" lon="-0.7182826660573482513427734375">
        <ele>970.5999755859375</ele>
        <time>2021-09-26T11:46:10.000Z</time>
      </trkpt>
      <trkpt lat="40.033535622060298919677734375" lon="-0.71830018423497676849365234375">
        <ele>971.20001220703125</ele>
        <time>2021-09-26T11:46:12.000Z</time>
      </trkpt>
      <trkpt lat="40.03349103033542633056640625" lon="-0.7183091528713703155517578125">
        <ele>971.4000244140625</ele>
        <time>2021-09-26T11:46:13.000Z</time>
      </trkpt>
      <trkpt lat="40.0334442593157291412353515625" lon="-0.71832130663096904754638671875">
        <ele>971.4000244140625</ele>
        <time>2021-09-26T11:46:14.000Z</time>
      </trkpt>
      <trkpt lat="40.0333443470299243927001953125" lon="-0.71834293194115161895751953125">
        <ele>971.20001220703125</ele>
        <time>2021-09-26T11:46:16.000Z</time>
      </trkpt>
      <trkpt lat="40.0332494638860225677490234375" lon="-0.7183695025742053985595703125">
        <ele>971</ele>
        <time>2021-09-26T11:46:18.000Z</time>
      </trkpt>
      <trkpt lat="40.03315667621791362762451171875" lon="-0.71839204989373683929443359375">
        <ele>971</ele>
        <time>2021-09-26T11:46:20.000Z</time>
      </trkpt>
      <trkpt lat="40.03306590020656585693359375" lon="-0.71841836906969547271728515625">
        <ele>971.20001220703125</ele>
        <time>2021-09-26T11:46:22.000Z</time>
      </trkpt>
      <trkpt lat="40.0329685024917125701904296875" lon="-0.71844242513179779052734375">
        <ele>971.4000244140625</ele>
        <time>2021-09-26T11:46:24.000Z</time>
      </trkpt>
      <trkpt lat="40.032871775329113006591796875" lon="-0.71846631355583667755126953125">
        <ele>971.5999755859375</ele>
        <time>2021-09-26T11:46:26.000Z</time>
      </trkpt>
      <trkpt lat="40.03276976756751537322998046875" lon="-0.7184900343418121337890625">
        <ele>971.5999755859375</ele>
        <time>2021-09-26T11:46:28.000Z</time>
      </trkpt>
      <trkpt lat="40.0326709449291229248046875" lon="-0.718514509499073028564453125">
        <ele>971.79998779296875</ele>
        <time>2021-09-26T11:46:30.000Z</time>
      </trkpt>
      <trkpt lat="40.0325690209865570068359375" lon="-0.718539655208587646484375">
        <ele>972</ele>
        <time>2021-09-26T11:46:32.000Z</time>
      </trkpt>
      <trkpt lat="40.0324622355401515960693359375" lon="-0.71856220252811908721923828125">
        <ele>972.20001220703125</ele>
        <time>2021-09-26T11:46:34.000Z</time>
      </trkpt>
      <trkpt lat="40.0323569588363170623779296875" lon="-0.71858986280858516693115234375">
        <ele>972.79998779296875</ele>
        <time>2021-09-26T11:46:36.000Z</time>
      </trkpt>
      <trkpt lat="40.032256208360195159912109375" lon="-0.71862640790641307830810546875">
        <ele>972.79998779296875</ele>
        <time>2021-09-26T11:46:38.000Z</time>
      </trkpt>
      <trkpt lat="40.03215721808373928070068359375" lon="-0.71865641511976718902587890625">
        <ele>973</ele>
        <time>2021-09-26T11:46:40.000Z</time>
      </trkpt>
      <trkpt lat="40.03205873072147369384765625" lon="-0.718694217503070831298828125">
        <ele>973</ele>
        <time>2021-09-26T11:46:42.000Z</time>
      </trkpt>
      <trkpt lat="40.03195622004568576812744140625" lon="-0.7187305949628353118896484375">
        <ele>973</ele>
        <time>2021-09-26T11:46:44.000Z</time>
      </trkpt>
      <trkpt lat="40.0319036655128002166748046875" lon="-0.71875247173011302947998046875">
        <ele>973</ele>
        <time>2021-09-26T11:46:45.000Z</time>
      </trkpt>
      <trkpt lat="40.03185396082699298858642578125" lon="-0.7187765277922153472900390625">
        <ele>973</ele>
        <time>2021-09-26T11:46:46.000Z</time>
      </trkpt>
      <trkpt lat="40.0317561440169811248779296875" lon="-0.71882606483995914459228515625">
        <ele>973.20001220703125</ele>
        <time>2021-09-26T11:46:48.000Z</time>
      </trkpt>
      <trkpt lat="40.03166000358760356903076171875" lon="-0.7188784517347812652587890625">
        <ele>973.5999755859375</ele>
        <time>2021-09-26T11:46:50.000Z</time>
      </trkpt>
      <trkpt lat="40.03161490894854068756103515625" lon="-0.71890519000589847564697265625">
        <ele>973.79998779296875</ele>
        <time>2021-09-26T11:46:51.000Z</time>
      </trkpt>
      <trkpt lat="40.03157182596623897552490234375" lon="-0.7189320959150791168212890625">
        <ele>973.79998779296875</ele>
        <time>2021-09-26T11:46:52.000Z</time>
      </trkpt>
      <trkpt lat="40.0314867496490478515625" lon="-0.71899152360856533050537109375">
        <ele>974</ele>
        <time>2021-09-26T11:46:54.000Z</time>
      </trkpt>
      <trkpt lat="40.031399913132190704345703125" lon="-0.71906067430973052978515625">
        <ele>974</ele>
        <time>2021-09-26T11:46:56.000Z</time>
      </trkpt>
      <trkpt lat="40.0313541479408740997314453125" lon="-0.7190962135791778564453125">
        <ele>974</ele>
        <time>2021-09-26T11:46:57.000Z</time>
      </trkpt>
      <trkpt lat="40.03130980767309665679931640625" lon="-0.71913585998117923736572265625">
        <ele>974</ele>
        <time>2021-09-26T11:46:58.000Z</time>
      </trkpt>
      <trkpt lat="40.0312233902513980865478515625" lon="-0.7192164100706577301025390625">
        <ele>974</ele>
        <time>2021-09-26T11:47:00.000Z</time>
      </trkpt>
      <trkpt lat="40.03113362006843090057373046875" lon="-0.71929763071238994598388671875">
        <ele>974</ele>
        <time>2021-09-26T11:47:02.000Z</time>
      </trkpt>
      <trkpt lat="40.0310477055609226226806640625" lon="-0.719393603503704071044921875">
        <ele>974</ele>
        <time>2021-09-26T11:47:04.000Z</time>
      </trkpt>
      <trkpt lat="40.03095944412052631378173828125" lon="-0.71948639117181301116943359375">
        <ele>973.79998779296875</ele>
        <time>2021-09-26T11:47:06.000Z</time>
      </trkpt>
      <trkpt lat="40.0308814086019992828369140625" lon="-0.7195832021534442901611328125">
        <ele>973.20001220703125</ele>
        <time>2021-09-26T11:47:08.000Z</time>
      </trkpt>
      <trkpt lat="40.0308106653392314910888671875" lon="-0.7196827791631221771240234375">
        <ele>972.79998779296875</ele>
        <time>2021-09-26T11:47:10.000Z</time>
      </trkpt>
      <trkpt lat="40.0307429395616054534912109375" lon="-0.71978026069700717926025390625">
        <ele>972.20001220703125</ele>
        <time>2021-09-26T11:47:12.000Z</time>
      </trkpt>
      <trkpt lat="40.03068015910685062408447265625" lon="-0.7198789156973361968994140625">
        <ele>972.20001220703125</ele>
        <time>2021-09-26T11:47:14.000Z</time>
      </trkpt>
      <trkpt lat="40.030625760555267333984375" lon="-0.71997304446995258331298828125">
        <ele>972.20001220703125</ele>
        <time>2021-09-26T11:47:16.000Z</time>
      </trkpt>
      <trkpt lat="40.0306001119315624237060546875" lon="-0.72001847438514232635498046875">
        <ele>972.20001220703125</ele>
        <time>2021-09-26T11:47:17.000Z</time>
      </trkpt>
      <trkpt lat="40.030574798583984375" lon="-0.72006206028163433074951171875">
        <ele>972</ele>
        <time>2021-09-26T11:47:18.000Z</time>
      </trkpt>
      <trkpt lat="40.03052475862205028533935546875" lon="-0.72014671750366687774658203125">
        <ele>972.4000244140625</ele>
        <time>2021-09-26T11:47:20.000Z</time>
      </trkpt>
      <trkpt lat="40.030474551022052764892578125" lon="-0.7202229090034961700439453125">
        <ele>972.5999755859375</ele>
        <time>2021-09-26T11:47:22.000Z</time>
      </trkpt>
      <trkpt lat="40.03042995929718017578125" lon="-0.720299184322357177734375">
        <ele>972.79998779296875</ele>
        <time>2021-09-26T11:47:24.000Z</time>
      </trkpt>
      <trkpt lat="40.030382014811038970947265625" lon="-0.72037235833704471588134765625">
        <ele>973</ele>
        <time>2021-09-26T11:47:26.000Z</time>
      </trkpt>
      <trkpt lat="40.03033013083040714263916015625" lon="-0.72045315988361835479736328125">
        <ele>973.20001220703125</ele>
        <time>2021-09-26T11:47:28.000Z</time>
      </trkpt>
      <trkpt lat="40.03027447499334812164306640625" lon="-0.7205233164131641387939453125">
        <ele>973.20001220703125</ele>
        <time>2021-09-26T11:47:30.000Z</time>
      </trkpt>
      <trkpt lat="40.03022552467882633209228515625" lon="-0.72057888843119144439697265625">
        <ele>973.20001220703125</ele>
        <time>2021-09-26T11:47:32.000Z</time>
      </trkpt>
      <trkpt lat="40.03018646501004695892333984375" lon="-0.72062909603118896484375">
        <ele>973.4000244140625</ele>
        <time>2021-09-26T11:47:34.000Z</time>
      </trkpt>
      <trkpt lat="40.03016685135662555694580078125" lon="-0.7206510566174983978271484375">
        <ele>973.20001220703125</ele>
        <time>2021-09-26T11:47:35.000Z</time>
      </trkpt>
      <trkpt lat="40.03014765679836273193359375" lon="-0.720675699412822723388671875">
        <ele>973.20001220703125</ele>
        <time>2021-09-26T11:47:36.000Z</time>
      </trkpt>
      <trkpt lat="40.0301094353199005126953125" lon="-0.72072188369929790496826171875">
        <ele>973.20001220703125</ele>
        <time>2021-09-26T11:47:38.000Z</time>
      </trkpt>
      <trkpt lat="40.03007657825946807861328125" lon="-0.72077033109962940216064453125">
        <ele>973.20001220703125</ele>
        <time>2021-09-26T11:47:40.000Z</time>
      </trkpt>
      <trkpt lat="40.03006174229085445404052734375" lon="-0.7207989133894443511962890625">
        <ele>973.4000244140625</ele>
        <time>2021-09-26T11:47:41.000Z</time>
      </trkpt>
      <trkpt lat="40.03004749305546283721923828125" lon="-0.72082498110830783843994140625">
        <ele>973.4000244140625</ele>
        <time>2021-09-26T11:47:42.000Z</time>
      </trkpt>
      <trkpt lat="40.030019916594028472900390625" lon="-0.7208745181560516357421875">
        <ele>973.4000244140625</ele>
        <time>2021-09-26T11:47:44.000Z</time>
      </trkpt>
      <trkpt lat="40.0299932621419429779052734375" lon="-0.72092070244252681732177734375">
        <ele>973.5999755859375</ele>
        <time>2021-09-26T11:47:46.000Z</time>
      </trkpt>
      <trkpt lat="40.0299672782421112060546875" lon="-0.72096428833901882171630859375">
        <ele>973.5999755859375</ele>
        <time>2021-09-26T11:47:48.000Z</time>
      </trkpt>
      <trkpt lat="40.0299516879022121429443359375" lon="-0.720986165106296539306640625">
        <ele>973.5999755859375</ele>
        <time>2021-09-26T11:47:49.000Z</time>
      </trkpt>
      <trkpt lat="40.02993651665747165679931640625" lon="-0.7210098020732402801513671875">
        <ele>973.5999755859375</ele>
        <time>2021-09-26T11:47:50.000Z</time>
      </trkpt>
      <trkpt lat="40.02989829517900943756103515625" lon="-0.72107040323317050933837890625">
        <ele>973.79998779296875</ele>
        <time>2021-09-26T11:47:52.000Z</time>
      </trkpt>
      <trkpt lat="40.02986468374729156494140625" lon="-0.72113075293600559234619140625">
        <ele>973.79998779296875</ele>
        <time>2021-09-26T11:47:54.000Z</time>
      </trkpt>
      <trkpt lat="40.0298219360411167144775390625" lon="-0.72118925862014293670654296875">
        <ele>973.79998779296875</ele>
        <time>2021-09-26T11:47:56.000Z</time>
      </trkpt>
      <trkpt lat="40.02977541647851467132568359375" lon="-0.72125446982681751251220703125">
        <ele>973.5999755859375</ele>
        <time>2021-09-26T11:47:58.000Z</time>
      </trkpt>
      <trkpt lat="40.02973032183945178985595703125" lon="-0.72131481952965259552001953125">
        <ele>973.4000244140625</ele>
        <time>2021-09-26T11:48:00.000Z</time>
      </trkpt>
      <trkpt lat="40.02967969514429569244384765625" lon="-0.72137902490794658660888671875">
        <ele>973.4000244140625</ele>
        <time>2021-09-26T11:48:02.000Z</time>
      </trkpt>
      <trkpt lat="40.0296284817159175872802734375" lon="-0.7214553840458393096923828125">
        <ele>973.20001220703125</ele>
        <time>2021-09-26T11:48:04.000Z</time>
      </trkpt>
      <trkpt lat="40.02960124053061008453369140625" lon="-0.72149385698139667510986328125">
        <ele>973.20001220703125</ele>
        <time>2021-09-26T11:48:05.000Z</time>
      </trkpt>
      <trkpt lat="40.0295728258788585662841796875" lon="-0.7215318270027637481689453125">
        <ele>973.20001220703125</ele>
        <time>2021-09-26T11:48:06.000Z</time>
      </trkpt>
      <trkpt lat="40.02951909787952899932861328125" lon="-0.7216067612171173095703125">
        <ele>973</ele>
        <time>2021-09-26T11:48:08.000Z</time>
      </trkpt>
      <trkpt lat="40.02949428744614124298095703125" lon="-0.72164758108556270599365234375">
        <ele>973</ele>
        <time>2021-09-26T11:48:09.000Z</time>
      </trkpt>
      <trkpt lat="40.02947081811726093292236328125" lon="-0.72168664075434207916259765625">
        <ele>973</ele>
        <time>2021-09-26T11:48:10.000Z</time>
      </trkpt>
      <trkpt lat="40.02942270599305629730224609375" lon="-0.7217641733586788177490234375">
        <ele>972.79998779296875</ele>
        <time>2021-09-26T11:48:12.000Z</time>
      </trkpt>
      <trkpt lat="40.02937023527920246124267578125" lon="-0.7218449749052524566650390625">
        <ele>972.4000244140625</ele>
        <time>2021-09-26T11:48:14.000Z</time>
      </trkpt>
      <trkpt lat="40.02931416034698486328125" lon="-0.721924938261508941650390625">
        <ele>972</ele>
        <time>2021-09-26T11:48:16.000Z</time>
      </trkpt>
      <trkpt lat="40.02926076762378215789794921875" lon="-0.72200783528387546539306640625">
        <ele>971.79998779296875</ele>
        <time>2021-09-26T11:48:18.000Z</time>
      </trkpt>
      <trkpt lat="40.02920888364315032958984375" lon="-0.7220873795449733734130859375">
        <ele>971.4000244140625</ele>
        <time>2021-09-26T11:48:20.000Z</time>
      </trkpt>
      <trkpt lat="40.0291795469820499420166015625" lon="-0.72212585248053073883056640625">
        <ele>971</ele>
        <time>2021-09-26T11:48:21.000Z</time>
      </trkpt>
      <trkpt lat="40.02914828248322010040283203125" lon="-0.72216625325381755828857421875">
        <ele>970.79998779296875</ele>
        <time>2021-09-26T11:48:22.000Z</time>
      </trkpt>
      <trkpt lat="40.029089860618114471435546875" lon="-0.722252838313579559326171875">
        <ele>970.4000244140625</ele>
        <time>2021-09-26T11:48:24.000Z</time>
      </trkpt>
      <trkpt lat="40.029062367975711822509765625" lon="-0.72229516692459583282470703125">
        <ele>970.20001220703125</ele>
        <time>2021-09-26T11:48:25.000Z</time>
      </trkpt>
      <trkpt lat="40.0290353782474994659423828125" lon="-0.72233204729855060577392578125">
        <ele>970</ele>
        <time>2021-09-26T11:48:26.000Z</time>
      </trkpt>
      <trkpt lat="40.02898014150559902191162109375" lon="-0.72240279056131839752197265625">
        <ele>970</ele>
        <time>2021-09-26T11:48:28.000Z</time>
      </trkpt>
      <trkpt lat="40.028925240039825439453125" lon="-0.72248074226081371307373046875">
        <ele>970</ele>
        <time>2021-09-26T11:48:30.000Z</time>
      </trkpt>
      <trkpt lat="40.0288633815944194793701171875" lon="-0.722559951245784759521484375">
        <ele>970</ele>
        <time>2021-09-26T11:48:32.000Z</time>
      </trkpt>
      <trkpt lat="40.02879691310226917266845703125" lon="-0.7226367294788360595703125">
        <ele>970.20001220703125</ele>
        <time>2021-09-26T11:48:34.000Z</time>
      </trkpt>
      <trkpt lat="40.02876405604183673858642578125" lon="-0.7226764596998691558837890625">
        <ele>970.4000244140625</ele>
        <time>2021-09-26T11:48:35.000Z</time>
      </trkpt>
      <trkpt lat="40.02873052842915058135986328125" lon="-0.72271392680704593658447265625">
        <ele>970.79998779296875</ele>
        <time>2021-09-26T11:48:36.000Z</time>
      </trkpt>
      <trkpt lat="40.0286637246608734130859375" lon="-0.72277897037565708160400390625">
        <ele>971.4000244140625</ele>
        <time>2021-09-26T11:48:38.000Z</time>
      </trkpt>
      <trkpt lat="40.02859331667423248291015625" lon="-0.7228378951549530029296875">
        <ele>972.20001220703125</ele>
        <time>2021-09-26T11:48:40.000Z</time>
      </trkpt>
      <trkpt lat="40.02852433361113071441650390625" lon="-0.722895227372646331787109375">
        <ele>972.5999755859375</ele>
        <time>2021-09-26T11:48:42.000Z</time>
      </trkpt>
      <trkpt lat="40.028450489044189453125" lon="-0.72295079939067363739013671875">
        <ele>973.20001220703125</ele>
        <time>2021-09-26T11:48:44.000Z</time>
      </trkpt>
      <trkpt lat="40.0283767282962799072265625" lon="-0.723011232912540435791015625">
        <ele>973.4000244140625</ele>
        <time>2021-09-26T11:48:46.000Z</time>
      </trkpt>
      <trkpt lat="40.02829751931130886077880859375" lon="-0.72306797839701175689697265625">
        <ele>973.5999755859375</ele>
        <time>2021-09-26T11:48:48.000Z</time>
      </trkpt>
      <trkpt lat="40.028218142688274383544921875" lon="-0.72311609052121639251708984375">
        <ele>974</ele>
        <time>2021-09-26T11:48:50.000Z</time>
      </trkpt>
      <trkpt lat="40.02813600003719329833984375" lon="-0.72316269390285015106201171875">
        <ele>973.5999755859375</ele>
        <time>2021-09-26T11:48:52.000Z</time>
      </trkpt>
      <trkpt lat="40.028062574565410614013671875" lon="-0.72319890372455120086669921875">
        <ele>973.20001220703125</ele>
        <time>2021-09-26T11:48:54.000Z</time>
      </trkpt>
      <trkpt lat="40.02799459733068943023681640625" lon="-0.7232377119362354278564453125">
        <ele>973</ele>
        <time>2021-09-26T11:48:56.000Z</time>
      </trkpt>
      <trkpt lat="40.02792838029563426971435546875" lon="-0.72326579131186008453369140625">
        <ele>972.5999755859375</ele>
        <time>2021-09-26T11:48:58.000Z</time>
      </trkpt>
      <trkpt lat="40.02785981632769107818603515625" lon="-0.7233027555048465728759765625">
        <ele>972.5999755859375</ele>
        <time>2021-09-26T11:49:00.000Z</time>
      </trkpt>
      <trkpt lat="40.02782142721116542816162109375" lon="-0.72331599891185760498046875">
        <ele>972.79998779296875</ele>
        <time>2021-09-26T11:49:01.000Z</time>
      </trkpt>
      <trkpt lat="40.0277824513614177703857421875" lon="-0.72332446463406085968017578125">
        <ele>972.79998779296875</ele>
        <time>2021-09-26T11:49:02.000Z</time>
      </trkpt>
      <trkpt lat="40.02770240418612957000732421875" lon="-0.72333888150751590728759765625">
        <ele>972.79998779296875</ele>
        <time>2021-09-26T11:49:04.000Z</time>
      </trkpt>
      <trkpt lat="40.0276225246489048004150390625" lon="-0.7233476825058460235595703125">
        <ele>973</ele>
        <time>2021-09-26T11:49:06.000Z</time>
      </trkpt>
      <trkpt lat="40.02755069173872470855712890625" lon="-0.72335598058998584747314453125">
        <ele>972.5999755859375</ele>
        <time>2021-09-26T11:49:08.000Z</time>
      </trkpt>
      <trkpt lat="40.02747676335275173187255859375" lon="-0.7233636081218719482421875">
        <ele>972.4000244140625</ele>
        <time>2021-09-26T11:49:10.000Z</time>
      </trkpt>
      <trkpt lat="40.02739629708230495452880859375" lon="-0.72337274439632892608642578125">
        <ele>972</ele>
        <time>2021-09-26T11:49:12.000Z</time>
      </trkpt>
      <trkpt lat="40.02731583081185817718505859375" lon="-0.72338104248046875">
        <ele>972.20001220703125</ele>
        <time>2021-09-26T11:49:14.000Z</time>
      </trkpt>
      <trkpt lat="40.027237124741077423095703125" lon="-0.72337978519499301910400390625">
        <ele>972.5999755859375</ele>
        <time>2021-09-26T11:49:16.000Z</time>
      </trkpt>
      <trkpt lat="40.02716110087931156158447265625" lon="-0.723374001681804656982421875">
        <ele>972.79998779296875</ele>
        <time>2021-09-26T11:49:18.000Z</time>
      </trkpt>
      <trkpt lat="40.02708314917981624603271484375" lon="-0.7233677990734577178955078125">
        <ele>973</ele>
        <time>2021-09-26T11:49:20.000Z</time>
      </trkpt>
      <trkpt lat="40.0270066224038600921630859375" lon="-0.7233590818941593170166015625">
        <ele>973</ele>
        <time>2021-09-26T11:49:22.000Z</time>
      </trkpt>
      <trkpt lat="40.02693613059818744659423828125" lon="-0.7233486883342266082763671875">
        <ele>973</ele>
        <time>2021-09-26T11:49:24.000Z</time>
      </trkpt>
      <trkpt lat="40.02687511034309864044189453125" lon="-0.72333552874624729156494140625">
        <ele>973</ele>
        <time>2021-09-26T11:49:26.000Z</time>
      </trkpt>
      <trkpt lat="40.02681098878383636474609375" lon="-0.72331138886511325836181640625">
        <ele>973.4000244140625</ele>
        <time>2021-09-26T11:49:28.000Z</time>
      </trkpt>
      <trkpt lat="40.0267427600920200347900390625" lon="-0.72328842245042324066162109375">
        <ele>973.4000244140625</ele>
        <time>2021-09-26T11:49:30.000Z</time>
      </trkpt>
      <trkpt lat="40.0266710110008716583251953125" lon="-0.723264031112194061279296875">
        <ele>973.4000244140625</ele>
        <time>2021-09-26T11:49:32.000Z</time>
      </trkpt>
      <trkpt lat="40.0265905447304248809814453125" lon="-0.72322555817663669586181640625">
        <ele>973.20001220703125</ele>
        <time>2021-09-26T11:49:34.000Z</time>
      </trkpt>
      <trkpt lat="40.026521980762481689453125" lon="-0.72319236584007740020751953125">
        <ele>973</ele>
        <time>2021-09-26T11:49:36.000Z</time>
      </trkpt>
      <trkpt lat="40.02646037377417087554931640625" lon="-0.72316369973123073577880859375">
        <ele>972.79998779296875</ele>
        <time>2021-09-26T11:49:38.000Z</time>
      </trkpt>
      <trkpt lat="40.0263729505240917205810546875" lon="-0.7231183536350727081298828125">
        <ele>972.4000244140625</ele>
        <time>2021-09-26T11:49:40.000Z</time>
      </trkpt>
      <trkpt lat="40.02630061469972133636474609375" lon="-0.7230712473392486572265625">
        <ele>972.20001220703125</ele>
        <time>2021-09-26T11:49:42.000Z</time>
      </trkpt>
      <trkpt lat="40.02623758278787136077880859375" lon="-0.72302472777664661407470703125">
        <ele>972.4000244140625</ele>
        <time>2021-09-26T11:49:44.000Z</time>
      </trkpt>
      <trkpt lat="40.02616700716316699981689453125" lon="-0.72297175414860248565673828125">
        <ele>972.79998779296875</ele>
        <time>2021-09-26T11:49:46.000Z</time>
      </trkpt>
      <trkpt lat="40.0260876305401325225830078125" lon="-0.72291291318833827972412109375">
        <ele>973</ele>
        <time>2021-09-26T11:49:48.000Z</time>
      </trkpt>
      <trkpt lat="40.02601546235382556915283203125" lon="-0.72285239584743976593017578125">
        <ele>973</ele>
        <time>2021-09-26T11:49:50.000Z</time>
      </trkpt>
      <trkpt lat="40.02598227001726627349853515625" lon="-0.72282406501471996307373046875">
        <ele>973</ele>
        <time>2021-09-26T11:49:51.000Z</time>
      </trkpt>
      <trkpt lat="40.0259468145668506622314453125" lon="-0.72279338724911212921142578125">
        <ele>973.4000244140625</ele>
        <time>2021-09-26T11:49:52.000Z</time>
      </trkpt>
      <trkpt lat="40.02588252536952495574951171875" lon="-0.72272985242307186126708984375">
        <ele>974</ele>
        <time>2021-09-26T11:49:54.000Z</time>
      </trkpt>
      <trkpt lat="40.02580977044999599456787109375" lon="-0.7226581871509552001953125">
        <ele>974.79998779296875</ele>
        <time>2021-09-26T11:49:56.000Z</time>
      </trkpt>
      <trkpt lat="40.0257449783384799957275390625" lon="-0.72258434258401393890380859375">
        <ele>975.5999755859375</ele>
        <time>2021-09-26T11:49:58.000Z</time>
      </trkpt>
      <trkpt lat="40.0256893225014209747314453125" lon="-0.7225079834461212158203125">
        <ele>976</ele>
        <time>2021-09-26T11:50:00.000Z</time>
      </trkpt>
      <trkpt lat="40.0256356783211231231689453125" lon="-0.722430534660816192626953125">
        <ele>976</ele>
        <time>2021-09-26T11:50:02.000Z</time>
      </trkpt>
      <trkpt lat="40.0255863927304744720458984375" lon="-0.72235384024679660797119140625">
        <ele>976</ele>
        <time>2021-09-26T11:50:04.000Z</time>
      </trkpt>
      <trkpt lat="40.02555546350777149200439453125" lon="-0.7222992740571498870849609375">
        <ele>976</ele>
        <time>2021-09-26T11:50:06.000Z</time>
      </trkpt>
      <trkpt lat="40.02554205246269702911376953125" lon="-0.7222771458327770233154296875">
        <ele>976</ele>
        <time>2021-09-26T11:50:07.000Z</time>
      </trkpt>
      <trkpt lat="40.025524534285068511962890625" lon="-0.722252167761325836181640625">
        <ele>975.79998779296875</ele>
        <time>2021-09-26T11:50:08.000Z</time>
      </trkpt>
      <trkpt lat="40.02547684125602245330810546875" lon="-0.72218410670757293701171875">
        <ele>975.5999755859375</ele>
        <time>2021-09-26T11:50:10.000Z</time>
      </trkpt>
      <trkpt lat="40.025456808507442474365234375" lon="-0.7221477292478084564208984375">
        <ele>975.5999755859375</ele>
        <time>2021-09-26T11:50:11.000Z</time>
      </trkpt>
      <trkpt lat="40.02543962560594081878662109375" lon="-0.7221192307770252227783203125">
        <ele>975.4000244140625</ele>
        <time>2021-09-26T11:50:12.000Z</time>
      </trkpt>
      <trkpt lat="40.0254026614129543304443359375" lon="-0.7220515049993991851806640625">
        <ele>975</ele>
        <time>2021-09-26T11:50:14.000Z</time>
      </trkpt>
      <trkpt lat="40.02536955289542675018310546875" lon="-0.72197933681309223175048828125">
        <ele>975</ele>
        <time>2021-09-26T11:50:16.000Z</time>
      </trkpt>
      <trkpt lat="40.0253356061875820159912109375" lon="-0.72190272621810436248779296875">
        <ele>974.5999755859375</ele>
        <time>2021-09-26T11:50:18.000Z</time>
      </trkpt>
      <trkpt lat="40.0253067724406719207763671875" lon="-0.72182293049991130828857421875">
        <ele>974.4000244140625</ele>
        <time>2021-09-26T11:50:20.000Z</time>
      </trkpt>
      <trkpt lat="40.02527366392314434051513671875" lon="-0.72173743508756160736083984375">
        <ele>974</ele>
        <time>2021-09-26T11:50:22.000Z</time>
      </trkpt>
      <trkpt lat="40.02526192925870418548583984375" lon="-0.72169720195233821868896484375">
        <ele>973.79998779296875</ele>
        <time>2021-09-26T11:50:23.000Z</time>
      </trkpt>
      <trkpt lat="40.02524617128074169158935546875" lon="-0.72165277786552906036376953125">
        <ele>973.79998779296875</ele>
        <time>2021-09-26T11:50:24.000Z</time>
      </trkpt>
      <trkpt lat="40.0252192653715610504150390625" lon="-0.72156460024416446685791015625">
        <ele>973.4000244140625</ele>
        <time>2021-09-26T11:50:26.000Z</time>
      </trkpt>
      <trkpt lat="40.02519235946238040924072265625" lon="-0.721472986042499542236328125">
        <ele>973</ele>
        <time>2021-09-26T11:50:28.000Z</time>
      </trkpt>
      <trkpt lat="40.025180876255035400390625" lon="-0.721426717936992645263671875">
        <ele>973</ele>
        <time>2021-09-26T11:50:29.000Z</time>
      </trkpt>
      <trkpt lat="40.0251669622957706451416015625" lon="-0.72137583978474140167236328125">
        <ele>972.79998779296875</ele>
        <time>2021-09-26T11:50:30.000Z</time>
      </trkpt>
      <trkpt lat="40.025142319500446319580078125" lon="-0.72126184590160846710205078125">
        <ele>972.4000244140625</ele>
        <time>2021-09-26T11:50:32.000Z</time>
      </trkpt>
      <trkpt lat="40.02511641941964626312255859375" lon="-0.721135027706623077392578125">
        <ele>972</ele>
        <time>2021-09-26T11:50:34.000Z</time>
      </trkpt>
      <trkpt lat="40.02508842386305332183837890625" lon="-0.7210138253867626190185546875">
        <ele>972</ele>
        <time>2021-09-26T11:50:36.000Z</time>
      </trkpt>
      <trkpt lat="40.025066547095775604248046875" lon="-0.720893628895282745361328125">
        <ele>972</ele>
        <time>2021-09-26T11:50:38.000Z</time>
      </trkpt>
      <trkpt lat="40.02504634670913219451904296875" lon="-0.72077569551765918731689453125">
        <ele>971.5999755859375</ele>
        <time>2021-09-26T11:50:40.000Z</time>
      </trkpt>
      <trkpt lat="40.02502673305571079254150390625" lon="-0.7206577621400356292724609375">
        <ele>971.79998779296875</ele>
        <time>2021-09-26T11:50:42.000Z</time>
      </trkpt>
      <trkpt lat="40.02500460483133792877197265625" lon="-0.72054368443787097930908203125">
        <ele>972</ele>
        <time>2021-09-26T11:50:44.000Z</time>
      </trkpt>
      <trkpt lat="40.024983398616313934326171875" lon="-0.7204304449260234832763671875">
        <ele>972.4000244140625</ele>
        <time>2021-09-26T11:50:46.000Z</time>
      </trkpt>
      <trkpt lat="40.02496386878192424774169921875" lon="-0.7203124277293682098388671875">
        <ele>972.79998779296875</ele>
        <time>2021-09-26T11:50:48.000Z</time>
      </trkpt>
      <trkpt lat="40.024953223764896392822265625" lon="-0.72025350295007228851318359375">
        <ele>972.4000244140625</ele>
        <time>2021-09-26T11:50:49.000Z</time>
      </trkpt>
      <trkpt lat="40.02494509331881999969482421875" lon="-0.72019298560917377471923828125">
        <ele>972.5999755859375</ele>
        <time>2021-09-26T11:50:50.000Z</time>
      </trkpt>
      <trkpt lat="40.024930424988269805908203125" lon="-0.72007656097412109375">
        <ele>972.79998779296875</ele>
        <time>2021-09-26T11:50:52.000Z</time>
      </trkpt>
      <trkpt lat="40.0249121524393558502197265625" lon="-0.71996323764324188232421875">
        <ele>973</ele>
        <time>2021-09-26T11:50:54.000Z</time>
      </trkpt>
      <trkpt lat="40.02488692291080951690673828125" lon="-0.71984379552304744720458984375">
        <ele>973</ele>
        <time>2021-09-26T11:50:56.000Z</time>
      </trkpt>
      <trkpt lat="40.02487485297024250030517578125" lon="-0.719785206019878387451171875">
        <ele>973</ele>
        <time>2021-09-26T11:50:57.000Z</time>
      </trkpt>
      <trkpt lat="40.02486496232450008392333984375" lon="-0.71972661651670932769775390625">
        <ele>972.79998779296875</ele>
        <time>2021-09-26T11:50:58.000Z</time>
      </trkpt>
      <trkpt lat="40.02484358847141265869140625" lon="-0.71961052715778350830078125">
        <ele>972.5999755859375</ele>
        <time>2021-09-26T11:51:00.000Z</time>
      </trkpt>
      <trkpt lat="40.0248276628553867340087890625" lon="-0.7194879837334156036376953125">
        <ele>972.4000244140625</ele>
        <time>2021-09-26T11:51:02.000Z</time>
      </trkpt>
      <trkpt lat="40.02480913884937763214111328125" lon="-0.71936736814677715301513671875">
        <ele>973.20001220703125</ele>
        <time>2021-09-26T11:51:04.000Z</time>
      </trkpt>
      <trkpt lat="40.02479874528944492340087890625" lon="-0.71930567733943462371826171875">
        <ele>973.4000244140625</ele>
        <time>2021-09-26T11:51:05.000Z</time>
      </trkpt>
      <trkpt lat="40.024790279567241668701171875" lon="-0.71924599818885326385498046875">
        <ele>973.5999755859375</ele>
        <time>2021-09-26T11:51:06.000Z</time>
      </trkpt>
      <trkpt lat="40.02476848661899566650390625" lon="-0.71912764571607112884521484375">
        <ele>974</ele>
        <time>2021-09-26T11:51:08.000Z</time>
      </trkpt>
      <trkpt lat="40.0247458554804325103759765625" lon="-0.71900325827300548553466796875">
        <ele>974.5999755859375</ele>
        <time>2021-09-26T11:51:10.000Z</time>
      </trkpt>
      <trkpt lat="40.0247294269502162933349609375" lon="-0.718883983790874481201171875">
        <ele>975.4000244140625</ele>
        <time>2021-09-26T11:51:12.000Z</time>
      </trkpt>
      <trkpt lat="40.02470755018293857574462890625" lon="-0.7187600992619991302490234375">
        <ele>976.5999755859375</ele>
        <time>2021-09-26T11:51:14.000Z</time>
      </trkpt>
      <trkpt lat="40.0246858410537242889404296875" lon="-0.71863847784698009490966796875">
        <ele>977.4000244140625</ele>
        <time>2021-09-26T11:51:16.000Z</time>
      </trkpt>
      <trkpt lat="40.024669580161571502685546875" lon="-0.71852481923997402191162109375">
        <ele>978.20001220703125</ele>
        <time>2021-09-26T11:51:18.000Z</time>
      </trkpt>
      <trkpt lat="40.024658851325511932373046875" lon="-0.71846849285066127777099609375">
        <ele>978.79998779296875</ele>
        <time>2021-09-26T11:51:19.000Z</time>
      </trkpt>
      <trkpt lat="40.024649798870086669921875" lon="-0.71841300465166568756103515625">
        <ele>979.20001220703125</ele>
        <time>2021-09-26T11:51:20.000Z</time>
      </trkpt>
      <trkpt lat="40.0246345438063144683837890625" lon="-0.71830370463430881500244140625">
        <ele>979.5999755859375</ele>
        <time>2021-09-26T11:51:22.000Z</time>
      </trkpt>
      <trkpt lat="40.0246177799999713897705078125" lon="-0.71818904019892215728759765625">
        <ele>979.79998779296875</ele>
        <time>2021-09-26T11:51:24.000Z</time>
      </trkpt>
      <trkpt lat="40.02459858544170856475830078125" lon="-0.71806850843131542205810546875">
        <ele>979.79998779296875</ele>
        <time>2021-09-26T11:51:26.000Z</time>
      </trkpt>
      <trkpt lat="40.024581067264080047607421875" lon="-0.71795132942497730255126953125">
        <ele>979.5999755859375</ele>
        <time>2021-09-26T11:51:28.000Z</time>
      </trkpt>
      <trkpt lat="40.02456237562000751495361328125" lon="-0.71783465333282947540283203125">
        <ele>979.4000244140625</ele>
        <time>2021-09-26T11:51:30.000Z</time>
      </trkpt>
      <trkpt lat="40.0245460309088230133056640625" lon="-0.7177173905074596405029296875">
        <ele>979.5999755859375</ele>
        <time>2021-09-26T11:51:32.000Z</time>
      </trkpt>
      <trkpt lat="40.024528093636035919189453125" lon="-0.71760431863367557525634765625">
        <ele>979.79998779296875</ele>
        <time>2021-09-26T11:51:34.000Z</time>
      </trkpt>
      <trkpt lat="40.02451258711516857147216796875" lon="-0.7174910791218280792236328125">
        <ele>980.4000244140625</ele>
        <time>2021-09-26T11:51:36.000Z</time>
      </trkpt>
      <trkpt lat="40.02449163235723972320556640625" lon="-0.7173700444400310516357421875">
        <ele>981</ele>
        <time>2021-09-26T11:51:38.000Z</time>
      </trkpt>
      <trkpt lat="40.0244715996086597442626953125" lon="-0.71724674664437770843505859375">
        <ele>981.20001220703125</ele>
        <time>2021-09-26T11:51:40.000Z</time>
      </trkpt>
      <trkpt lat="40.0244588591158390045166015625" lon="-0.71718103252351284027099609375">
        <ele>981.4000244140625</ele>
        <time>2021-09-26T11:51:41.000Z</time>
      </trkpt>
      <trkpt lat="40.02444687299430370330810546875" lon="-0.7171219401061534881591796875">
        <ele>981.4000244140625</ele>
        <time>2021-09-26T11:51:42.000Z</time>
      </trkpt>
      <trkpt lat="40.02441845834255218505859375" lon="-0.71699344553053379058837890625">
        <ele>981.20001220703125</ele>
        <time>2021-09-26T11:51:44.000Z</time>
      </trkpt>
      <trkpt lat="40.02438987605273723602294921875" lon="-0.716865621507167816162109375">
        <ele>981.4000244140625</ele>
        <time>2021-09-26T11:51:46.000Z</time>
      </trkpt>
      <trkpt lat="40.024370513856410980224609375" lon="-0.71674567647278308868408203125">
        <ele>981.5999755859375</ele>
        <time>2021-09-26T11:51:48.000Z</time>
      </trkpt>
      <trkpt lat="40.024355761706829071044921875" lon="-0.71663352660834789276123046875">
        <ele>981.5999755859375</ele>
        <time>2021-09-26T11:51:50.000Z</time>
      </trkpt>
      <trkpt lat="40.0243445299565792083740234375" lon="-0.71652003563940525054931640625">
        <ele>981.20001220703125</ele>
        <time>2021-09-26T11:51:52.000Z</time>
      </trkpt>
      <trkpt lat="40.024322904646396636962890625" lon="-0.71639548055827617645263671875">
        <ele>980.79998779296875</ele>
        <time>2021-09-26T11:51:54.000Z</time>
      </trkpt>
      <trkpt lat="40.0242985971271991729736328125" lon="-0.71627461351454257965087890625">
        <ele>980.4000244140625</ele>
        <time>2021-09-26T11:51:56.000Z</time>
      </trkpt>
      <trkpt lat="40.02427370287477970123291015625" lon="-0.7161499746143817901611328125">
        <ele>980.20001220703125</ele>
        <time>2021-09-26T11:51:58.000Z</time>
      </trkpt>
      <trkpt lat="40.02425308339297771453857421875" lon="-0.71603187359869480133056640625">
        <ele>980</ele>
        <time>2021-09-26T11:52:00.000Z</time>
      </trkpt>
      <trkpt lat="40.02423983998596668243408203125" lon="-0.71596900932490825653076171875">
        <ele>979.79998779296875</ele>
        <time>2021-09-26T11:52:01.000Z</time>
      </trkpt>
      <trkpt lat="40.0242255069315433502197265625" lon="-0.715908743441104888916015625">
        <ele>979.4000244140625</ele>
        <time>2021-09-26T11:52:02.000Z</time>
      </trkpt>
      <trkpt lat="40.0241963379085063934326171875" lon="-0.71578276343643665313720703125">
        <ele>979</ele>
        <time>2021-09-26T11:52:04.000Z</time>
      </trkpt>
      <trkpt lat="40.02417043782770633697509765625" lon="-0.71566508151590824127197265625">
        <ele>978.5999755859375</ele>
        <time>2021-09-26T11:52:06.000Z</time>
      </trkpt>
      <trkpt lat="40.02414965070784091949462890625" lon="-0.71555108763277530670166015625">
        <ele>978.20001220703125</ele>
        <time>2021-09-26T11:52:08.000Z</time>
      </trkpt>
      <trkpt lat="40.02413992770016193389892578125" lon="-0.7154953479766845703125">
        <ele>977.79998779296875</ele>
        <time>2021-09-26T11:52:09.000Z</time>
      </trkpt>
      <trkpt lat="40.02412836067378520965576171875" lon="-0.71543969213962554931640625">
        <ele>977.20001220703125</ele>
        <time>2021-09-26T11:52:10.000Z</time>
      </trkpt>
      <trkpt lat="40.02410866320133209228515625" lon="-0.71533835493028163909912109375">
        <ele>976</ele>
        <time>2021-09-26T11:52:12.000Z</time>
      </trkpt>
      <trkpt lat="40.02409650944173336029052734375" lon="-0.71524129249155521392822265625">
        <ele>975.4000244140625</ele>
        <time>2021-09-26T11:52:14.000Z</time>
      </trkpt>
      <trkpt lat="40.02408921718597412109375" lon="-0.71513417176902294158935546875">
        <ele>974.5999755859375</ele>
        <time>2021-09-26T11:52:16.000Z</time>
      </trkpt>
      <trkpt lat="40.0240838527679443359375" lon="-0.71502101607620716094970703125">
        <ele>973.79998779296875</ele>
        <time>2021-09-26T11:52:18.000Z</time>
      </trkpt>
      <trkpt lat="40.0240746326744556427001953125" lon="-0.714897550642490386962890625">
        <ele>973</ele>
        <time>2021-09-26T11:52:20.000Z</time>
      </trkpt>
      <trkpt lat="40.0240746326744556427001953125" lon="-0.71477718651294708251953125">
        <ele>972.20001220703125</ele>
        <time>2021-09-26T11:52:22.000Z</time>
      </trkpt>
      <trkpt lat="40.02407337538897991180419921875" lon="-0.71465807966887950897216796875">
        <ele>972</ele>
        <time>2021-09-26T11:52:24.000Z</time>
      </trkpt>
      <trkpt lat="40.02407756634056568145751953125" lon="-0.71453587152063846588134765625">
        <ele>972</ele>
        <time>2021-09-26T11:52:26.000Z</time>
      </trkpt>
      <trkpt lat="40.02408184111118316650390625" lon="-0.71441240608692169189453125">
        <ele>971.5999755859375</ele>
        <time>2021-09-26T11:52:28.000Z</time>
      </trkpt>
      <trkpt lat="40.0240873731672763824462890625" lon="-0.7142932154238224029541015625">
        <ele>971.20001220703125</ele>
        <time>2021-09-26T11:52:30.000Z</time>
      </trkpt>
      <trkpt lat="40.02409818582236766815185546875" lon="-0.71417561732232570648193359375">
        <ele>970.79998779296875</ele>
        <time>2021-09-26T11:52:32.000Z</time>
      </trkpt>
      <trkpt lat="40.024105645716190338134765625" lon="-0.71411610580980777740478515625">
        <ele>970.79998779296875</ele>
        <time>2021-09-26T11:52:33.000Z</time>
      </trkpt>
      <trkpt lat="40.02411327324807643890380859375" lon="-0.71405776776373386383056640625">
        <ele>970.79998779296875</ele>
        <time>2021-09-26T11:52:34.000Z</time>
      </trkpt>
      <trkpt lat="40.02413154579699039459228515625" lon="-0.71394394151866436004638671875">
        <ele>970.5999755859375</ele>
        <time>2021-09-26T11:52:36.000Z</time>
      </trkpt>
      <trkpt lat="40.024153254926204681396484375" lon="-0.71383413858711719512939453125">
        <ele>970.5999755859375</ele>
        <time>2021-09-26T11:52:38.000Z</time>
      </trkpt>
      <trkpt lat="40.0241763889789581298828125" lon="-0.713722072541713714599609375">
        <ele>970.79998779296875</ele>
        <time>2021-09-26T11:52:40.000Z</time>
      </trkpt>
      <trkpt lat="40.024206899106502532958984375" lon="-0.713609419763088226318359375">
        <ele>971</ele>
        <time>2021-09-26T11:52:42.000Z</time>
      </trkpt>
      <trkpt lat="40.02423816360533237457275390625" lon="-0.7134965993463993072509765625">
        <ele>971.20001220703125</ele>
        <time>2021-09-26T11:52:44.000Z</time>
      </trkpt>
      <trkpt lat="40.0242657400667667388916015625" lon="-0.71338755078613758087158203125">
        <ele>971.5999755859375</ele>
        <time>2021-09-26T11:52:46.000Z</time>
      </trkpt>
      <trkpt lat="40.02428275533020496368408203125" lon="-0.71333541534841060638427734375">
        <ele>971.79998779296875</ele>
        <time>2021-09-26T11:52:47.000Z</time>
      </trkpt>
      <trkpt lat="40.0243009440600872039794921875" lon="-0.71328428573906421661376953125">
        <ele>972</ele>
        <time>2021-09-26T11:52:48.000Z</time>
      </trkpt>
      <trkpt lat="40.02432835288345813751220703125" lon="-0.7131764106452465057373046875">
        <ele>972.4000244140625</ele>
        <time>2021-09-26T11:52:50.000Z</time>
      </trkpt>
      <trkpt lat="40.024357773363590240478515625" lon="-0.7130738161504268646240234375">
        <ele>973</ele>
        <time>2021-09-26T11:52:52.000Z</time>
      </trkpt>
      <trkpt lat="40.02439021132886409759521484375" lon="-0.7129646837711334228515625">
        <ele>973.5999755859375</ele>
        <time>2021-09-26T11:52:54.000Z</time>
      </trkpt>
      <trkpt lat="40.02442290075123310089111328125" lon="-0.71285270154476165771484375">
        <ele>974</ele>
        <time>2021-09-26T11:52:56.000Z</time>
      </trkpt>
      <trkpt lat="40.02443983219563961029052734375" lon="-0.7127965427935123443603515625">
        <ele>974.20001220703125</ele>
        <time>2021-09-26T11:52:57.000Z</time>
      </trkpt>
      <trkpt lat="40.02445341087877750396728515625" lon="-0.7127393782138824462890625">
        <ele>974.4000244140625</ele>
        <time>2021-09-26T11:52:58.000Z</time>
      </trkpt>
      <trkpt lat="40.02448542974889278411865234375" lon="-0.7126265577971935272216796875">
        <ele>974.5999755859375</ele>
        <time>2021-09-26T11:53:00.000Z</time>
      </trkpt>
      <trkpt lat="40.02451367676258087158203125" lon="-0.71251885034143924713134765625">
        <ele>974.5999755859375</ele>
        <time>2021-09-26T11:53:02.000Z</time>
      </trkpt>
      <trkpt lat="40.02454376779496669769287109375" lon="-0.71240611374378204345703125">
        <ele>974.79998779296875</ele>
        <time>2021-09-26T11:53:04.000Z</time>
      </trkpt>
      <trkpt lat="40.02456053160130977630615234375" lon="-0.71235255338251590728759765625">
        <ele>975</ele>
        <time>2021-09-26T11:53:05.000Z</time>
      </trkpt>
      <trkpt lat="40.0245773792266845703125" lon="-0.712294466793537139892578125">
        <ele>975</ele>
        <time>2021-09-26T11:53:06.000Z</time>
      </trkpt>
      <trkpt lat="40.024609901010990142822265625" lon="-0.71217519231140613555908203125">
        <ele>975</ele>
        <time>2021-09-26T11:53:08.000Z</time>
      </trkpt>
      <trkpt lat="40.0246446020901203155517578125" lon="-0.7120609469711780548095703125">
        <ele>974.79998779296875</ele>
        <time>2021-09-26T11:53:10.000Z</time>
      </trkpt>
      <trkpt lat="40.0246727652847766876220703125" lon="-0.71195826865732669830322265625">
        <ele>974.79998779296875</ele>
        <time>2021-09-26T11:53:12.000Z</time>
      </trkpt>
      <trkpt lat="40.02470101229846477508544921875" lon="-0.71185584180057048797607421875">
        <ele>975.20001220703125</ele>
        <time>2021-09-26T11:53:14.000Z</time>
      </trkpt>
      <trkpt lat="40.0247275829315185546875" lon="-0.71174922399222850799560546875">
        <ele>975.4000244140625</ele>
        <time>2021-09-26T11:53:16.000Z</time>
      </trkpt>
      <trkpt lat="40.0247609429061412811279296875" lon="-0.7116448692977428436279296875">
        <ele>975.5999755859375</ele>
        <time>2021-09-26T11:53:18.000Z</time>
      </trkpt>
      <trkpt lat="40.02479254268109798431396484375" lon="-0.71153481490910053253173828125">
        <ele>976</ele>
        <time>2021-09-26T11:53:20.000Z</time>
      </trkpt>
      <trkpt lat="40.024816431105136871337890625" lon="-0.71143590845167636871337890625">
        <ele>976.4000244140625</ele>
        <time>2021-09-26T11:53:22.000Z</time>
      </trkpt>
      <trkpt lat="40.02482288517057895660400390625" lon="-0.71140171028673648834228515625">
        <ele>976.79998779296875</ele>
        <time>2021-09-26T11:53:24.000Z</time>
      </trkpt>
      <trkpt lat="40.02482288517057895660400390625" lon="-0.71140171028673648834228515625">
        <ele>976.79998779296875</ele>
        <time>2021-09-26T11:53:25.000Z</time>
      </trkpt>
      <trkpt lat="40.0248348712921142578125" lon="-0.71136566810309886932373046875">
        <ele>977.20001220703125</ele>
        <time>2021-09-26T11:54:15.000Z</time>
      </trkpt>
      <trkpt lat="40.02484266646206378936767578125" lon="-0.7113417796790599822998046875">
        <ele>977.4000244140625</ele>
        <time>2021-09-26T11:54:16.000Z</time>
      </trkpt>
      <trkpt lat="40.02486797980964183807373046875" lon="-0.71126357652246952056884765625">
        <ele>978</ele>
        <time>2021-09-26T11:54:18.000Z</time>
      </trkpt>
      <trkpt lat="40.0248873420059680938720703125" lon="-0.71121278218924999237060546875">
        <ele>978.4000244140625</ele>
        <time>2021-09-26T11:54:19.000Z</time>
      </trkpt>
      <trkpt lat="40.0249059498310089111328125" lon="-0.71115226484835147857666015625">
        <ele>978.79998779296875</ele>
        <time>2021-09-26T11:54:20.000Z</time>
      </trkpt>
      <trkpt lat="40.0249242223799228668212890625" lon="-0.7110893167555332183837890625">
        <ele>978.79998779296875</ele>
        <time>2021-09-26T11:54:21.000Z</time>
      </trkpt>
      <trkpt lat="40.02494174055755138397216796875" lon="-0.7110262848436832427978515625">
        <ele>979</ele>
        <time>2021-09-26T11:54:22.000Z</time>
      </trkpt>
      <trkpt lat="40.0249560736119747161865234375" lon="-0.7109639234840869903564453125">
        <ele>979.20001220703125</ele>
        <time>2021-09-26T11:54:23.000Z</time>
      </trkpt>
      <trkpt lat="40.02497099339962005615234375" lon="-0.7109039090573787689208984375">
        <ele>979.20001220703125</ele>
        <time>2021-09-26T11:54:24.000Z</time>
      </trkpt>
      <trkpt lat="40.024985410273075103759765625" lon="-0.71084381081163883209228515625">
        <ele>979.5999755859375</ele>
        <time>2021-09-26T11:54:25.000Z</time>
      </trkpt>
      <trkpt lat="40.02500225789844989776611328125" lon="-0.71078865788877010345458984375">
        <ele>979.79998779296875</ele>
        <time>2021-09-26T11:54:26.000Z</time>
      </trkpt>
      <trkpt lat="40.0250362046062946319580078125" lon="-0.7106752507388591766357421875">
        <ele>980.20001220703125</ele>
        <time>2021-09-26T11:54:28.000Z</time>
      </trkpt>
      <trkpt lat="40.0250667147338390350341796875" lon="-0.71055983193218708038330078125">
        <ele>980.4000244140625</ele>
        <time>2021-09-26T11:54:30.000Z</time>
      </trkpt>
      <trkpt lat="40.02508364617824554443359375" lon="-0.71050367318093776702880859375">
        <ele>980.5999755859375</ele>
        <time>2021-09-26T11:54:31.000Z</time>
      </trkpt>
      <trkpt lat="40.025100074708461761474609375" lon="-0.7104425691068172454833984375">
        <ele>980.79998779296875</ele>
        <time>2021-09-26T11:54:32.000Z</time>
      </trkpt>
      <trkpt lat="40.02513284794986248016357421875" lon="-0.71032647974789142608642578125">
        <ele>981</ele>
        <time>2021-09-26T11:54:34.000Z</time>
      </trkpt>
      <trkpt lat="40.02516536973416805267333984375" lon="-0.71021097712218761444091796875">
        <ele>981.20001220703125</ele>
        <time>2021-09-26T11:54:36.000Z</time>
      </trkpt>
      <trkpt lat="40.02519805915653705596923828125" lon="-0.7101027667522430419921875">
        <ele>981.20001220703125</ele>
        <time>2021-09-26T11:54:38.000Z</time>
      </trkpt>
      <trkpt lat="40.0252310000360012054443359375" lon="-0.7099901139736175537109375">
        <ele>981</ele>
        <time>2021-09-26T11:54:40.000Z</time>
      </trkpt>
      <trkpt lat="40.0252635218203067779541015625" lon="-0.70987201295793056488037109375">
        <ele>981.20001220703125</ele>
        <time>2021-09-26T11:54:42.000Z</time>
      </trkpt>
      <trkpt lat="40.025296546518802642822265625" lon="-0.70975298993289470672607421875">
        <ele>981.20001220703125</ele>
        <time>2021-09-26T11:54:44.000Z</time>
      </trkpt>
      <trkpt lat="40.025326050817966461181640625" lon="-0.709633715450763702392578125">
        <ele>980.79998779296875</ele>
        <time>2021-09-26T11:54:46.000Z</time>
      </trkpt>
      <trkpt lat="40.0253604166209697723388671875" lon="-0.70951427333056926727294921875">
        <ele>980</ele>
        <time>2021-09-26T11:54:48.000Z</time>
      </trkpt>
      <trkpt lat="40.0253885798156261444091796875" lon="-0.7093867845833301544189453125">
        <ele>979</ele>
        <time>2021-09-26T11:54:50.000Z</time>
      </trkpt>
      <trkpt lat="40.025410540401935577392578125" lon="-0.7092613913118839263916015625">
        <ele>978.4000244140625</ele>
        <time>2021-09-26T11:54:52.000Z</time>
      </trkpt>
      <trkpt lat="40.02543141134083271026611328125" lon="-0.70913490839302539825439453125">
        <ele>978</ele>
        <time>2021-09-26T11:54:54.000Z</time>
      </trkpt>
      <trkpt lat="40.02544063143432140350341796875" lon="-0.70907405577600002288818359375">
        <ele>977.79998779296875</ele>
        <time>2021-09-26T11:54:55.000Z</time>
      </trkpt>
      <trkpt lat="40.0254485942423343658447265625" lon="-0.70901337079703807830810546875">
        <ele>977.79998779296875</ele>
        <time>2021-09-26T11:54:56.000Z</time>
      </trkpt>
      <trkpt lat="40.0254606641829013824462890625" lon="-0.70889099501073360443115234375">
        <ele>977.5999755859375</ele>
        <time>2021-09-26T11:54:58.000Z</time>
      </trkpt>
      <trkpt lat="40.0254717282950878143310546875" lon="-0.70876660756766796112060546875">
        <ele>977.4000244140625</ele>
        <time>2021-09-26T11:55:00.000Z</time>
      </trkpt>
      <trkpt lat="40.02548052929341793060302734375" lon="-0.7086444832384586334228515625">
        <ele>977.4000244140625</ele>
        <time>2021-09-26T11:55:02.000Z</time>
      </trkpt>
      <trkpt lat="40.025481618940830230712890625" lon="-0.70857985876500606536865234375">
        <ele>977.4000244140625</ele>
        <time>2021-09-26T11:55:03.000Z</time>
      </trkpt>
      <trkpt lat="40.0254811160266399383544921875" lon="-0.70851783268153667449951171875">
        <ele>977.79998779296875</ele>
        <time>2021-09-26T11:55:04.000Z</time>
      </trkpt>
      <trkpt lat="40.02548002637922763824462890625" lon="-0.7083970494568347930908203125">
        <ele>978.20001220703125</ele>
        <time>2021-09-26T11:55:06.000Z</time>
      </trkpt>
      <trkpt lat="40.02548019401729106903076171875" lon="-0.708277858793735504150390625">
        <ele>978</ele>
        <time>2021-09-26T11:55:08.000Z</time>
      </trkpt>
      <trkpt lat="40.02547382377088069915771484375" lon="-0.7081596739590167999267578125">
        <ele>978</ele>
        <time>2021-09-26T11:55:10.000Z</time>
      </trkpt>
      <trkpt lat="40.025472231209278106689453125" lon="-0.70809722878038883209228515625">
        <ele>978.20001220703125</ele>
        <time>2021-09-26T11:55:11.000Z</time>
      </trkpt>
      <trkpt lat="40.0254660286009311676025390625" lon="-0.708035789430141448974609375">
        <ele>978.20001220703125</ele>
        <time>2021-09-26T11:55:12.000Z</time>
      </trkpt>
      <trkpt lat="40.02544683404266834259033203125" lon="-0.7079139165580272674560546875">
        <ele>978</ele>
        <time>2021-09-26T11:55:14.000Z</time>
      </trkpt>
      <trkpt lat="40.0254288129508495330810546875" lon="-0.707791708409786224365234375">
        <ele>978</ele>
        <time>2021-09-26T11:55:16.000Z</time>
      </trkpt>
      <trkpt lat="40.02541179768741130828857421875" lon="-0.70767327211797237396240234375">
        <ele>978.20001220703125</ele>
        <time>2021-09-26T11:55:18.000Z</time>
      </trkpt>
      <trkpt lat="40.0253862328827381134033203125" lon="-0.70755357854068279266357421875">
        <ele>978.5999755859375</ele>
        <time>2021-09-26T11:55:20.000Z</time>
      </trkpt>
      <trkpt lat="40.025357566773891448974609375" lon="-0.70743329823017120361328125">
        <ele>979</ele>
        <time>2021-09-26T11:55:22.000Z</time>
      </trkpt>
      <trkpt lat="40.02532160840928554534912109375" lon="-0.70730932988226413726806640625">
        <ele>979.4000244140625</ele>
        <time>2021-09-26T11:55:24.000Z</time>
      </trkpt>
      <trkpt lat="40.02530316822230815887451171875" lon="-0.7072477228939533233642578125">
        <ele>979.79998779296875</ele>
        <time>2021-09-26T11:55:25.000Z</time>
      </trkpt>
      <trkpt lat="40.02528422512114048004150390625" lon="-0.70718762464821338653564453125">
        <ele>980</ele>
        <time>2021-09-26T11:55:26.000Z</time>
      </trkpt>
      <trkpt lat="40.025244913995265960693359375" lon="-0.70706608705222606658935546875">
        <ele>980.20001220703125</ele>
        <time>2021-09-26T11:55:28.000Z</time>
      </trkpt>
      <trkpt lat="40.02520677633583545684814453125" lon="-0.7069513387978076934814453125">
        <ele>980.4000244140625</ele>
        <time>2021-09-26T11:55:30.000Z</time>
      </trkpt>
      <trkpt lat="40.02516486681997776031494140625" lon="-0.7068406976759433746337890625">
        <ele>980.20001220703125</ele>
        <time>2021-09-26T11:55:32.000Z</time>
      </trkpt>
      <trkpt lat="40.0251193530857563018798828125" lon="-0.70673466660082340240478515625">
        <ele>980.20001220703125</ele>
        <time>2021-09-26T11:55:34.000Z</time>
      </trkpt>
      <trkpt lat="40.0250707380473613739013671875" lon="-0.70663274265825748443603515625">
        <ele>980</ele>
        <time>2021-09-26T11:55:36.000Z</time>
      </trkpt>
      <trkpt lat="40.02501818351447582244873046875" lon="-0.706531740725040435791015625">
        <ele>979.79998779296875</ele>
        <time>2021-09-26T11:55:38.000Z</time>
      </trkpt>
      <trkpt lat="40.0249649584293365478515625" lon="-0.706434510648250579833984375">
        <ele>979.5999755859375</ele>
        <time>2021-09-26T11:55:40.000Z</time>
      </trkpt>
      <trkpt lat="40.024905614554882049560546875" lon="-0.70633719675242900848388671875">
        <ele>979</ele>
        <time>2021-09-26T11:55:42.000Z</time>
      </trkpt>
      <trkpt lat="40.0248554907739162445068359375" lon="-0.706241391599178314208984375">
        <ele>978.5999755859375</ele>
        <time>2021-09-26T11:55:44.000Z</time>
      </trkpt>
      <trkpt lat="40.02480142749845981597900390625" lon="-0.70614122785627841949462890625">
        <ele>978</ele>
        <time>2021-09-26T11:55:46.000Z</time>
      </trkpt>
      <trkpt lat="40.024748705327510833740234375" lon="-0.70604902692139148712158203125">
        <ele>977.5999755859375</ele>
        <time>2021-09-26T11:55:48.000Z</time>
      </trkpt>
      <trkpt lat="40.02470319159328937530517578125" lon="-0.70595900528132915496826171875">
        <ele>977</ele>
        <time>2021-09-26T11:55:50.000Z</time>
      </trkpt>
      <trkpt lat="40.02465692348778247833251953125" lon="-0.705869905650615692138671875">
        <ele>976.4000244140625</ele>
        <time>2021-09-26T11:55:52.000Z</time>
      </trkpt>
      <trkpt lat="40.0246053747832775115966796875" lon="-0.7057790458202362060546875">
        <ele>976</ele>
        <time>2021-09-26T11:55:54.000Z</time>
      </trkpt>
      <trkpt lat="40.024554915726184844970703125" lon="-0.70568609051406383514404296875">
        <ele>975.5999755859375</ele>
        <time>2021-09-26T11:55:56.000Z</time>
      </trkpt>
      <trkpt lat="40.02452834509313106536865234375" lon="-0.705644600093364715576171875">
        <ele>975.5999755859375</ele>
        <time>2021-09-26T11:55:57.000Z</time>
      </trkpt>
      <trkpt lat="40.0245024450123310089111328125" lon="-0.70560000836849212646484375">
        <ele>975.5999755859375</ele>
        <time>2021-09-26T11:55:58.000Z</time>
      </trkpt>
      <trkpt lat="40.02445173449814319610595703125" lon="-0.705506801605224609375">
        <ele>975.20001220703125</ele>
        <time>2021-09-26T11:56:00.000Z</time>
      </trkpt>
      <trkpt lat="40.02440077252686023712158203125" lon="-0.70541183464229106903076171875">
        <ele>975.4000244140625</ele>
        <time>2021-09-26T11:56:02.000Z</time>
      </trkpt>
      <trkpt lat="40.02435148693621158599853515625" lon="-0.70531879551708698272705078125">
        <ele>975.4000244140625</ele>
        <time>2021-09-26T11:56:04.000Z</time>
      </trkpt>
      <trkpt lat="40.02430873923003673553466796875" lon="-0.70523732341825962066650390625">
        <ele>975.5999755859375</ele>
        <time>2021-09-26T11:56:06.000Z</time>
      </trkpt>
      <trkpt lat="40.02426515333354473114013671875" lon="-0.70515233092010021209716796875">
        <ele>975.79998779296875</ele>
        <time>2021-09-26T11:56:08.000Z</time>
      </trkpt>
      <trkpt lat="40.02421335317194461822509765625" lon="-0.70505862124264240264892578125">
        <ele>976.4000244140625</ele>
        <time>2021-09-26T11:56:10.000Z</time>
      </trkpt>
      <trkpt lat="40.0241614691913127899169921875" lon="-0.70496206171810626983642578125">
        <ele>976.79998779296875</ele>
        <time>2021-09-26T11:56:12.000Z</time>
      </trkpt>
      <trkpt lat="40.02411000430583953857421875" lon="-0.7048652507364749908447265625">
        <ele>977.20001220703125</ele>
        <time>2021-09-26T11:56:14.000Z</time>
      </trkpt>
      <trkpt lat="40.02405560575425624847412109375" lon="-0.7047733850777149200439453125">
        <ele>977.5999755859375</ele>
        <time>2021-09-26T11:56:16.000Z</time>
      </trkpt>
      <trkpt lat="40.02400464378297328948974609375" lon="-0.70467866957187652587890625">
        <ele>978</ele>
        <time>2021-09-26T11:56:18.000Z</time>
      </trkpt>
      <trkpt lat="40.02397589385509490966796875" lon="-0.70462862960994243621826171875">
        <ele>978</ele>
        <time>2021-09-26T11:56:19.000Z</time>
      </trkpt>
      <trkpt lat="40.02394898794591426849365234375" lon="-0.7045816071331501007080078125">
        <ele>978.20001220703125</ele>
        <time>2021-09-26T11:56:20.000Z</time>
      </trkpt>
      <trkpt lat="40.023893415927886962890625" lon="-0.7044835388660430908203125">
        <ele>979</ele>
        <time>2021-09-26T11:56:22.000Z</time>
      </trkpt>
      <trkpt lat="40.0238409452140331268310546875" lon="-0.7043888233602046966552734375">
        <ele>979.79998779296875</ele>
        <time>2021-09-26T11:56:24.000Z</time>
      </trkpt>
      <trkpt lat="40.02379124052822589874267578125" lon="-0.70428974926471710205078125">
        <ele>981.20001220703125</ele>
        <time>2021-09-26T11:56:26.000Z</time>
      </trkpt>
      <trkpt lat="40.02374061383306980133056640625" lon="-0.70419997908174991607666015625">
        <ele>982</ele>
        <time>2021-09-26T11:56:28.000Z</time>
      </trkpt>
      <trkpt lat="40.023691244423389434814453125" lon="-0.70410174317657947540283203125">
        <ele>981.5999755859375</ele>
        <time>2021-09-26T11:56:30.000Z</time>
      </trkpt>
      <trkpt lat="40.02363122999668121337890625" lon="-0.70399604737758636474609375">
        <ele>981.5999755859375</ele>
        <time>2021-09-26T11:56:32.000Z</time>
      </trkpt>
      <trkpt lat="40.02360331825911998748779296875" lon="-0.7039444148540496826171875">
        <ele>981.5999755859375</ele>
        <time>2021-09-26T11:56:33.000Z</time>
      </trkpt>
      <trkpt lat="40.02357549034059047698974609375" lon="-0.70389680564403533935546875">
        <ele>981.5999755859375</ele>
        <time>2021-09-26T11:56:34.000Z</time>
      </trkpt>
      <trkpt lat="40.02352058887481689453125" lon="-0.70379555225372314453125">
        <ele>981</ele>
        <time>2021-09-26T11:56:36.000Z</time>
      </trkpt>
      <trkpt lat="40.02346686087548732757568359375" lon="-0.70369672961533069610595703125">
        <ele>980.4000244140625</ele>
        <time>2021-09-26T11:56:38.000Z</time>
      </trkpt>
      <trkpt lat="40.0234121270477771759033203125" lon="-0.70359899662435054779052734375">
        <ele>980</ele>
        <time>2021-09-26T11:56:40.000Z</time>
      </trkpt>
      <trkpt lat="40.0233542919158935546875" lon="-0.70349975489079952239990234375">
        <ele>979.5999755859375</ele>
        <time>2021-09-26T11:56:42.000Z</time>
      </trkpt>
      <trkpt lat="40.02329888753592967987060546875" lon="-0.70339565165340900421142578125">
        <ele>979.4000244140625</ele>
        <time>2021-09-26T11:56:44.000Z</time>
      </trkpt>
      <trkpt lat="40.0232414714992046356201171875" lon="-0.70329523645341396331787109375">
        <ele>979</ele>
        <time>2021-09-26T11:56:46.000Z</time>
      </trkpt>
      <trkpt lat="40.0231868214905261993408203125" lon="-0.7031915523111820220947265625">
        <ele>978.5999755859375</ele>
        <time>2021-09-26T11:56:48.000Z</time>
      </trkpt>
      <trkpt lat="40.02313124947249889373779296875" lon="-0.70309390313923358917236328125">
        <ele>978.20001220703125</ele>
        <time>2021-09-26T11:56:50.000Z</time>
      </trkpt>
      <trkpt lat="40.0230694748461246490478515625" lon="-0.70299625396728515625">
        <ele>978</ele>
        <time>2021-09-26T11:56:52.000Z</time>
      </trkpt>
      <trkpt lat="40.0230108015239238739013671875" lon="-0.70289625786244869232177734375">
        <ele>978</ele>
        <time>2021-09-26T11:56:54.000Z</time>
      </trkpt>
      <trkpt lat="40.0229470990598201751708984375" lon="-0.70280271582305431365966796875">
        <ele>977.79998779296875</ele>
        <time>2021-09-26T11:56:56.000Z</time>
      </trkpt>
      <trkpt lat="40.0228840671479701995849609375" lon="-0.7027141191065311431884765625">
        <ele>977.79998779296875</ele>
        <time>2021-09-26T11:56:58.000Z</time>
      </trkpt>
      <trkpt lat="40.022820197045803070068359375" lon="-0.7026207447052001953125">
        <ele>978</ele>
        <time>2021-09-26T11:57:00.000Z</time>
      </trkpt>
      <trkpt lat="40.02276026643812656402587890625" lon="-0.7025367580354213714599609375">
        <ele>978.20001220703125</ele>
        <time>2021-09-26T11:57:02.000Z</time>
      </trkpt>
      <trkpt lat="40.02269371412694454193115234375" lon="-0.702452771365642547607421875">
        <ele>978.20001220703125</ele>
        <time>2021-09-26T11:57:04.000Z</time>
      </trkpt>
      <trkpt lat="40.0226259045302867889404296875" lon="-0.70236434228718280792236328125">
        <ele>978.4000244140625</ele>
        <time>2021-09-26T11:57:06.000Z</time>
      </trkpt>
      <trkpt lat="40.0225565023720264434814453125" lon="-0.70227683521807193756103515625">
        <ele>978.5999755859375</ele>
        <time>2021-09-26T11:57:08.000Z</time>
      </trkpt>
      <trkpt lat="40.02248081378638744354248046875" lon="-0.70219351910054683685302734375">
        <ele>978.79998779296875</ele>
        <time>2021-09-26T11:57:10.000Z</time>
      </trkpt>
      <trkpt lat="40.022411830723285675048828125" lon="-0.702120177447795867919921875">
        <ele>978.79998779296875</ele>
        <time>2021-09-26T11:57:12.000Z</time>
      </trkpt>
      <trkpt lat="40.0223449431359767913818359375" lon="-0.70204784162342548370361328125">
        <ele>978.4000244140625</ele>
        <time>2021-09-26T11:57:14.000Z</time>
      </trkpt>
      <trkpt lat="40.022275708615779876708984375" lon="-0.70197575725615024566650390625">
        <ele>978.20001220703125</ele>
        <time>2021-09-26T11:57:16.000Z</time>
      </trkpt>
      <trkpt lat="40.02220706082880496978759765625" lon="-0.7019107975065708160400390625">
        <ele>978.20001220703125</ele>
        <time>2021-09-26T11:57:18.000Z</time>
      </trkpt>
      <trkpt lat="40.0221312046051025390625" lon="-0.70183946751058101654052734375">
        <ele>978.20001220703125</ele>
        <time>2021-09-26T11:57:20.000Z</time>
      </trkpt>
      <trkpt lat="40.022058784961700439453125" lon="-0.70176503621041774749755859375">
        <ele>978.4000244140625</ele>
        <time>2021-09-26T11:57:22.000Z</time>
      </trkpt>
      <trkpt lat="40.0219932384788990020751953125" lon="-0.701699070632457733154296875">
        <ele>978.5999755859375</ele>
        <time>2021-09-26T11:57:24.000Z</time>
      </trkpt>
      <trkpt lat="40.02196147106587886810302734375" lon="-0.70166696794331073760986328125">
        <ele>978.5999755859375</ele>
        <time>2021-09-26T11:57:25.000Z</time>
      </trkpt>
      <trkpt lat="40.02192676998674869537353515625" lon="-0.7016331888735294342041015625">
        <ele>978.5999755859375</ele>
        <time>2021-09-26T11:57:26.000Z</time>
      </trkpt>
      <trkpt lat="40.02185233868658542633056640625" lon="-0.70155733264982700347900390625">
        <ele>979</ele>
        <time>2021-09-26T11:57:28.000Z</time>
      </trkpt>
      <trkpt lat="40.02177254296839237213134765625" lon="-0.70148415863513946533203125">
        <ele>979.4000244140625</ele>
        <time>2021-09-26T11:57:30.000Z</time>
      </trkpt>
      <trkpt lat="40.02173465676605701446533203125" lon="-0.70145063102245330810546875">
        <ele>979</ele>
        <time>2021-09-26T11:57:31.000Z</time>
      </trkpt>
      <trkpt lat="40.021699368953704833984375" lon="-0.7014177739620208740234375">
        <ele>978.79998779296875</ele>
        <time>2021-09-26T11:57:32.000Z</time>
      </trkpt>
      <trkpt lat="40.02163055352866649627685546875" lon="-0.70135968737304210662841796875">
        <ele>978</ele>
        <time>2021-09-26T11:57:34.000Z</time>
      </trkpt>
      <trkpt lat="40.02155293710529804229736328125" lon="-0.70129665546119213104248046875">
        <ele>977.4000244140625</ele>
        <time>2021-09-26T11:57:36.000Z</time>
      </trkpt>
      <trkpt lat="40.02150951884686946868896484375" lon="-0.70125977508723735809326171875">
        <ele>977</ele>
        <time>2021-09-26T11:57:37.000Z</time>
      </trkpt>
      <trkpt lat="40.0214635021984577178955078125" lon="-0.701223313808441162109375">
        <ele>976.79998779296875</ele>
        <time>2021-09-26T11:57:38.000Z</time>
      </trkpt>
      <trkpt lat="40.0213770009577274322509765625" lon="-0.70115282200276851654052734375">
        <ele>976.4000244140625</ele>
        <time>2021-09-26T11:57:40.000Z</time>
      </trkpt>
      <trkpt lat="40.02129594795405864715576171875" lon="-0.701088868081569671630859375">
        <ele>976.20001220703125</ele>
        <time>2021-09-26T11:57:42.000Z</time>
      </trkpt>
      <trkpt lat="40.02121347002685070037841796875" lon="-0.70103229023516178131103515625">
        <ele>975.5999755859375</ele>
        <time>2021-09-26T11:57:44.000Z</time>
      </trkpt>
      <trkpt lat="40.02112981863319873809814453125" lon="-0.7009720243513584136962890625">
        <ele>975.79998779296875</ele>
        <time>2021-09-26T11:57:46.000Z</time>
      </trkpt>
      <trkpt lat="40.02104667015373706817626953125" lon="-0.70092089474201202392578125">
        <ele>977</ele>
        <time>2021-09-26T11:57:48.000Z</time>
      </trkpt>
      <trkpt lat="40.02095916308462619781494140625" lon="-0.70086683146655559539794921875">
        <ele>978.20001220703125</ele>
        <time>2021-09-26T11:57:50.000Z</time>
      </trkpt>
      <trkpt lat="40.02087433822453022003173828125" lon="-0.70081704296171665191650390625">
        <ele>978.79998779296875</ele>
        <time>2021-09-26T11:57:52.000Z</time>
      </trkpt>
      <trkpt lat="40.02078498713672161102294921875" lon="-0.70076524280011653900146484375">
        <ele>979.79998779296875</ele>
        <time>2021-09-26T11:57:54.000Z</time>
      </trkpt>
      <trkpt lat="40.02069312147796154022216796875" lon="-0.7007165439426898956298828125">
        <ele>981.20001220703125</ele>
        <time>2021-09-26T11:57:56.000Z</time>
      </trkpt>
      <trkpt lat="40.02060125581920146942138671875" lon="-0.700669772922992706298828125">
        <ele>982.4000244140625</ele>
        <time>2021-09-26T11:57:58.000Z</time>
      </trkpt>
      <trkpt lat="40.0205083005130290985107421875" lon="-0.700626857578754425048828125">
        <ele>982.5999755859375</ele>
        <time>2021-09-26T11:58:00.000Z</time>
      </trkpt>
      <trkpt lat="40.02041886560618877410888671875" lon="-0.7005864568054676055908203125">
        <ele>982.79998779296875</ele>
        <time>2021-09-26T11:58:02.000Z</time>
      </trkpt>
      <trkpt lat="40.020326413214206695556640625" lon="-0.7005472294986248016357421875">
        <ele>982.79998779296875</ele>
        <time>2021-09-26T11:58:04.000Z</time>
      </trkpt>
      <trkpt lat="40.0202373974025249481201171875" lon="-0.70050842128694057464599609375">
        <ele>982.79998779296875</ele>
        <time>2021-09-26T11:58:06.000Z</time>
      </trkpt>
      <trkpt lat="40.0201602838933467864990234375" lon="-0.7004694454371929168701171875">
        <ele>982.4000244140625</ele>
        <time>2021-09-26T11:58:08.000Z</time>
      </trkpt>
      <trkpt lat="40.02008534967899322509765625" lon="-0.70043918676674365997314453125">
        <ele>982.4000244140625</ele>
        <time>2021-09-26T11:58:10.000Z</time>
      </trkpt>
      <trkpt lat="40.0200084038078784942626953125" lon="-0.700407586991786956787109375">
        <ele>982.20001220703125</ele>
        <time>2021-09-26T11:58:12.000Z</time>
      </trkpt>
      <trkpt lat="40.01993237994611263275146484375" lon="-0.70037330500781536102294921875">
        <ele>982.20001220703125</ele>
        <time>2021-09-26T11:58:14.000Z</time>
      </trkpt>
      <trkpt lat="40.01989549957215785980224609375" lon="-0.700359307229518890380859375">
        <ele>982.20001220703125</ele>
        <time>2021-09-26T11:58:15.000Z</time>
      </trkpt>
      <trkpt lat="40.019861049950122833251953125" lon="-0.700347237288951873779296875">
        <ele>982.20001220703125</ele>
        <time>2021-09-26T11:58:16.000Z</time>
      </trkpt>
      <trkpt lat="40.019798688590526580810546875" lon="-0.7003212533891201019287109375">
        <ele>982</ele>
        <time>2021-09-26T11:58:18.000Z</time>
      </trkpt>
      <trkpt lat="40.0197324715554714202880859375" lon="-0.7002883963286876678466796875">
        <ele>981.5999755859375</ele>
        <time>2021-09-26T11:58:20.000Z</time>
      </trkpt>
      <trkpt lat="40.01969374716281890869140625" lon="-0.7002702914178371429443359375">
        <ele>981.5999755859375</ele>
        <time>2021-09-26T11:58:21.000Z</time>
      </trkpt>
      <trkpt lat="40.01965242438018321990966796875" lon="-0.70025210268795490264892578125">
        <ele>981.4000244140625</ele>
        <time>2021-09-26T11:58:22.000Z</time>
      </trkpt>
      <trkpt lat="40.019580759108066558837890625" lon="-0.7002196647226810455322265625">
        <ele>981.20001220703125</ele>
        <time>2021-09-26T11:58:24.000Z</time>
      </trkpt>
      <trkpt lat="40.01950238831341266632080078125" lon="-0.70018689148128032684326171875">
        <ele>981.20001220703125</ele>
        <time>2021-09-26T11:58:26.000Z</time>
      </trkpt>
      <trkpt lat="40.01941337250173091888427734375" lon="-0.70014900527894496917724609375">
        <ele>981.4000244140625</ele>
        <time>2021-09-26T11:58:28.000Z</time>
      </trkpt>
      <trkpt lat="40.01937146298587322235107421875" lon="-0.70012855343520641326904296875">
        <ele>981.4000244140625</ele>
        <time>2021-09-26T11:58:29.000Z</time>
      </trkpt>
      <trkpt lat="40.01933055929839611053466796875" lon="-0.7001100294291973114013671875">
        <ele>981.4000244140625</ele>
        <time>2021-09-26T11:58:30.000Z</time>
      </trkpt>
      <trkpt lat="40.01925243996083736419677734375" lon="-0.7000798545777797698974609375">
        <ele>981.5999755859375</ele>
        <time>2021-09-26T11:58:32.000Z</time>
      </trkpt>
      <trkpt lat="40.019176416099071502685546875" lon="-0.700042806565761566162109375">
        <ele>982</ele>
        <time>2021-09-26T11:58:34.000Z</time>
      </trkpt>
      <trkpt lat="40.01913190819323062896728515625" lon="-0.7000231929123401641845703125">
        <ele>982.20001220703125</ele>
        <time>2021-09-26T11:58:35.000Z</time>
      </trkpt>
      <trkpt lat="40.019087903201580047607421875" lon="-0.700000561773777008056640625">
        <ele>982.5999755859375</ele>
        <time>2021-09-26T11:58:36.000Z</time>
      </trkpt>
      <trkpt lat="40.01904523931443691253662109375" lon="-0.69998321123421192169189453125">
        <ele>982.5999755859375</ele>
        <time>2021-09-26T11:58:37.000Z</time>
      </trkpt>
      <trkpt lat="40.019000060856342315673828125" lon="-0.69996477104723453521728515625">
        <ele>983</ele>
        <time>2021-09-26T11:58:38.000Z</time>
      </trkpt>
      <trkpt lat="40.018904842436313629150390625" lon="-0.69991950877010822296142578125">
        <ele>983.4000244140625</ele>
        <time>2021-09-26T11:58:40.000Z</time>
      </trkpt>
      <trkpt lat="40.01886318437755107879638671875" lon="-0.6998969614505767822265625">
        <ele>983.5999755859375</ele>
        <time>2021-09-26T11:58:41.000Z</time>
      </trkpt>
      <trkpt lat="40.01882345415651798248291015625" lon="-0.699873827397823333740234375">
        <ele>983.79998779296875</ele>
        <time>2021-09-26T11:58:42.000Z</time>
      </trkpt>
      <trkpt lat="40.01874902285635471343994140625" lon="-0.69983602501451969146728515625">
        <ele>984.20001220703125</ele>
        <time>2021-09-26T11:58:44.000Z</time>
      </trkpt>
      <trkpt lat="40.0186693109571933746337890625" lon="-0.69979663006961345672607421875">
        <ele>983.79998779296875</ele>
        <time>2021-09-26T11:58:46.000Z</time>
      </trkpt>
      <trkpt lat="40.0186237134039402008056640625" lon="-0.69977751933038234710693359375">
        <ele>983.5999755859375</ele>
        <time>2021-09-26T11:58:47.000Z</time>
      </trkpt>
      <trkpt lat="40.01857752911746501922607421875" lon="-0.69975405000150203704833984375">
        <ele>983.20001220703125</ele>
        <time>2021-09-26T11:58:48.000Z</time>
      </trkpt>
      <trkpt lat="40.01848733983933925628662109375" lon="-0.6997063569724559783935546875">
        <ele>982.79998779296875</ele>
        <time>2021-09-26T11:58:50.000Z</time>
      </trkpt>
      <trkpt lat="40.0184074603021144866943359375" lon="-0.69966821931302547454833984375">
        <ele>982.5999755859375</ele>
        <time>2021-09-26T11:58:52.000Z</time>
      </trkpt>
      <trkpt lat="40.0183223001658916473388671875" lon="-0.69962362758815288543701171875">
        <ele>982.5999755859375</ele>
        <time>2021-09-26T11:58:54.000Z</time>
      </trkpt>
      <trkpt lat="40.01823856495320796966552734375" lon="-0.69958473555743694305419921875">
        <ele>982.79998779296875</ele>
        <time>2021-09-26T11:58:56.000Z</time>
      </trkpt>
      <trkpt lat="40.01817117445170879364013671875" lon="-0.69955539889633655548095703125">
        <ele>983.20001220703125</ele>
        <time>2021-09-26T11:58:58.000Z</time>
      </trkpt>
      <trkpt lat="40.01810411922633647918701171875" lon="-0.69952438585460186004638671875">
        <ele>983.4000244140625</ele>
        <time>2021-09-26T11:59:00.000Z</time>
      </trkpt>
      <trkpt lat="40.0180403329432010650634765625" lon="-0.699490942060947418212890625">
        <ele>983.5999755859375</ele>
        <time>2021-09-26T11:59:02.000Z</time>
      </trkpt>
      <trkpt lat="40.0179789774119853973388671875" lon="-0.69946168921887874603271484375">
        <ele>983.5999755859375</ele>
        <time>2021-09-26T11:59:04.000Z</time>
      </trkpt>
      <trkpt lat="40.01795542426407337188720703125" lon="-0.6994498707354068756103515625">
        <ele>983.5999755859375</ele>
        <time>2021-09-26T11:59:05.000Z</time>
      </trkpt>
      <trkpt lat="40.0179400853812694549560546875" lon="-0.69944609887897968292236328125">
        <ele>983.79998779296875</ele>
        <time>2021-09-26T11:59:06.000Z</time>
      </trkpt>
      <trkpt lat="40.01793296076357364654541015625" lon="-0.69944324903190135955810546875">
        <ele>983.79998779296875</ele>
        <time>2021-09-26T11:59:08.000Z</time>
      </trkpt>
      <trkpt lat="40.0179534964263439178466796875" lon="-0.69945967756211757659912109375">
        <ele>983.79998779296875</ele>
        <time>2021-09-26T11:59:31.000Z</time>
      </trkpt>
      <trkpt lat="40.017964728176593780517578125" lon="-0.69946839474141597747802734375">
        <ele>983.79998779296875</ele>
        <time>2021-09-26T11:59:32.000Z</time>
      </trkpt>
      <trkpt lat="40.01797378063201904296875" lon="-0.69948297925293445587158203125">
        <ele>983.79998779296875</ele>
        <time>2021-09-26T11:59:33.000Z</time>
      </trkpt>
      <trkpt lat="40.017974786460399627685546875" lon="-0.6995048560202121734619140625">
        <ele>983.79998779296875</ele>
        <time>2021-09-26T11:59:34.000Z</time>
      </trkpt>
      <trkpt lat="40.01794955693185329437255859375" lon="-0.6995367072522640228271484375">
        <ele>984</ele>
        <time>2021-09-26T11:59:36.000Z</time>
      </trkpt>
      <trkpt lat="40.01790563575923442840576171875" lon="-0.699537210166454315185546875">
        <ele>984.20001220703125</ele>
        <time>2021-09-26T11:59:38.000Z</time>
      </trkpt>
      <trkpt lat="40.0178492255508899688720703125" lon="-0.6995068676769733428955078125">
        <ele>984.20001220703125</ele>
        <time>2021-09-26T11:59:40.000Z</time>
      </trkpt>
      <trkpt lat="40.0177714414894580841064453125" lon="-0.6994411535561084747314453125">
        <ele>984.4000244140625</ele>
        <time>2021-09-26T11:59:42.000Z</time>
      </trkpt>
      <trkpt lat="40.017720647156238555908203125" lon="-0.69940553046762943267822265625">
        <ele>984.4000244140625</ele>
        <time>2021-09-26T11:59:43.000Z</time>
      </trkpt>
      <trkpt lat="40.01766574569046497344970703125" lon="-0.6993744336068630218505859375">
        <ele>984.79998779296875</ele>
        <time>2021-09-26T11:59:44.000Z</time>
      </trkpt>
      <trkpt lat="40.01755242235958576202392578125" lon="-0.69931450299918651580810546875">
        <ele>985.4000244140625</ele>
        <time>2021-09-26T11:59:46.000Z</time>
      </trkpt>
      <trkpt lat="40.0174306333065032958984375" lon="-0.69926303811371326446533203125">
        <ele>985.20001220703125</ele>
        <time>2021-09-26T11:59:48.000Z</time>
      </trkpt>
      <trkpt lat="40.0173134543001651763916015625" lon="-0.69920855574309825897216796875">
        <ele>985</ele>
        <time>2021-09-26T11:59:50.000Z</time>
      </trkpt>
      <trkpt lat="40.01720440573990345001220703125" lon="-0.69915558211505413055419921875">
        <ele>985</ele>
        <time>2021-09-26T11:59:52.000Z</time>
      </trkpt>
      <trkpt lat="40.0171005539596080780029296875" lon="-0.69909431040287017822265625">
        <ele>985</ele>
        <time>2021-09-26T11:59:54.000Z</time>
      </trkpt>
      <trkpt lat="40.01704774796962738037109375" lon="-0.6990612857043743133544921875">
        <ele>985.20001220703125</ele>
        <time>2021-09-26T11:59:55.000Z</time>
      </trkpt>
      <trkpt lat="40.016995109617710113525390625" lon="-0.699033625423908233642578125">
        <ele>985.4000244140625</ele>
        <time>2021-09-26T11:59:56.000Z</time>
      </trkpt>
      <trkpt lat="40.0168829597532749176025390625" lon="-0.698986351490020751953125">
        <ele>985.79998779296875</ele>
        <time>2021-09-26T11:59:58.000Z</time>
      </trkpt>
      <trkpt lat="40.01678296364843845367431640625" lon="-0.69893631152808666229248046875">
        <ele>986</ele>
        <time>2021-09-26T12:00:00.000Z</time>
      </trkpt>
      <trkpt lat="40.01674407161772251129150390625" lon="-0.69891066290438175201416015625">
        <ele>986.20001220703125</ele>
        <time>2021-09-26T12:00:01.000Z</time>
      </trkpt>
      <trkpt lat="40.01671909354627132415771484375" lon="-0.69886992685496807098388671875">
        <ele>986</ele>
        <time>2021-09-26T12:00:02.000Z</time>
      </trkpt>
      <trkpt lat="40.0167163275182247161865234375" lon="-0.6988229043781757354736328125">
        <ele>986</ele>
        <time>2021-09-26T12:00:03.000Z</time>
      </trkpt>
      <trkpt lat="40.016726218163967132568359375" lon="-0.69877051748335361480712890625">
        <ele>985.5999755859375</ele>
        <time>2021-09-26T12:00:04.000Z</time>
      </trkpt>
      <trkpt lat="40.01674641855061054229736328125" lon="-0.6987112574279308319091796875">
        <ele>985.4000244140625</ele>
        <time>2021-09-26T12:00:05.000Z</time>
      </trkpt>
      <trkpt lat="40.01677156426012516021728515625" lon="-0.69864763878285884857177734375">
        <ele>985.20001220703125</ele>
        <time>2021-09-26T12:00:06.000Z</time>
      </trkpt>
      <trkpt lat="40.0168212689459323883056640625" lon="-0.6985198147594928741455078125">
        <ele>985.4000244140625</ele>
        <time>2021-09-26T12:00:08.000Z</time>
      </trkpt>
      <trkpt lat="40.01684582792222499847412109375" lon="-0.69845569320023059844970703125">
        <ele>985.5999755859375</ele>
        <time>2021-09-26T12:00:09.000Z</time>
      </trkpt>
      <trkpt lat="40.01688052900135517120361328125" lon="-0.698418729007244110107421875">
        <ele>985.5999755859375</ele>
        <time>2021-09-26T12:00:10.000Z</time>
      </trkpt>
      <trkpt lat="40.016918666660785675048828125" lon="-0.69840489886701107025146484375">
        <ele>985.5999755859375</ele>
        <time>2021-09-26T12:00:11.000Z</time>
      </trkpt>
      <trkpt lat="40.0169577263295650482177734375" lon="-0.6984064914286136627197265625">
        <ele>985.4000244140625</ele>
        <time>2021-09-26T12:00:12.000Z</time>
      </trkpt>
      <trkpt lat="40.0170254521071910858154296875" lon="-0.698433481156826019287109375">
        <ele>985</ele>
        <time>2021-09-26T12:00:14.000Z</time>
      </trkpt>
      <trkpt lat="40.01705185510218143463134765625" lon="-0.69842937402427196502685546875">
        <ele>985</ele>
        <time>2021-09-26T12:00:15.000Z</time>
      </trkpt>
      <trkpt lat="40.01706660725176334381103515625" lon="-0.6984051503241062164306640625">
        <ele>985</ele>
        <time>2021-09-26T12:00:16.000Z</time>
      </trkpt>
      <trkpt lat="40.01706694252789020538330078125" lon="-0.69838494993746280670166015625">
        <ele>985</ele>
        <time>2021-09-26T12:00:17.000Z</time>
      </trkpt>
      <trkpt lat="40.0170593149960041046142578125" lon="-0.6983719579875469207763671875">
        <ele>985.20001220703125</ele>
        <time>2021-09-26T12:00:18.000Z</time>
      </trkpt>
      <trkpt lat="40.0170194171369075775146484375" lon="-0.6983562000095844268798828125">
        <ele>985.4000244140625</ele>
        <time>2021-09-26T12:00:20.000Z</time>
      </trkpt>
      <trkpt lat="40.01696116290986537933349609375" lon="-0.6983414478600025177001953125">
        <ele>985.5999755859375</ele>
        <time>2021-09-26T12:00:22.000Z</time>
      </trkpt>
      <trkpt lat="40.01691103912889957427978515625" lon="-0.69832443259656429290771484375">
        <ele>985.79998779296875</ele>
        <time>2021-09-26T12:00:24.000Z</time>
      </trkpt>
      <trkpt lat="40.01685823313891887664794921875" lon="-0.6982921622693538665771484375">
        <ele>986.20001220703125</ele>
        <time>2021-09-26T12:00:26.000Z</time>
      </trkpt>
      <trkpt lat="40.0168142281472682952880859375" lon="-0.69826416671276092529296875">
        <ele>986.4000244140625</ele>
        <time>2021-09-26T12:00:28.000Z</time>
      </trkpt>
      <trkpt lat="40.01675915904343128204345703125" lon="-0.698234327137470245361328125">
        <ele>986.79998779296875</ele>
        <time>2021-09-26T12:00:30.000Z</time>
      </trkpt>
      <trkpt lat="40.01672261394560337066650390625" lon="-0.69822317920625209808349609375">
        <ele>987</ele>
        <time>2021-09-26T12:00:31.000Z</time>
      </trkpt>
      <trkpt lat="40.01668875105679035186767578125" lon="-0.6982170604169368743896484375">
        <ele>987</ele>
        <time>2021-09-26T12:00:32.000Z</time>
      </trkpt>
      <trkpt lat="40.0166291557252407073974609375" lon="-0.6982059963047504425048828125">
        <ele>987.4000244140625</ele>
        <time>2021-09-26T12:00:34.000Z</time>
      </trkpt>
      <trkpt lat="40.01660786569118499755859375" lon="-0.69820205681025981903076171875">
        <ele>987.4000244140625</ele>
        <time>2021-09-26T12:00:36.000Z</time>
      </trkpt>
      <trkpt lat="40.0166019983589649200439453125" lon="-0.698196776211261749267578125">
        <ele>987.4000244140625</ele>
        <time>2021-09-26T12:00:37.000Z</time>
      </trkpt>
      <trkpt lat="40.0166211090981960296630859375" lon="-0.69818948395550251007080078125">
        <ele>987.4000244140625</ele>
        <time>2021-09-26T12:01:56.000Z</time>
      </trkpt>
      <trkpt lat="40.0166563130915164947509765625" lon="-0.698204152286052703857421875">
        <ele>987.20001220703125</ele>
        <time>2021-09-26T12:01:58.000Z</time>
      </trkpt>
      <trkpt lat="40.01670987345278263092041015625" lon="-0.698226280510425567626953125">
        <ele>987</ele>
        <time>2021-09-26T12:02:00.000Z</time>
      </trkpt>
      <trkpt lat="40.0167397968471050262451171875" lon="-0.69823374040424823760986328125">
        <ele>986.79998779296875</ele>
        <time>2021-09-26T12:02:01.000Z</time>
      </trkpt>
      <trkpt lat="40.0167746655642986297607421875" lon="-0.69823944009840488433837890625">
        <ele>986.5999755859375</ele>
        <time>2021-09-26T12:02:02.000Z</time>
      </trkpt>
      <trkpt lat="40.016820766031742095947265625" lon="-0.6982519291341304779052734375">
        <ele>986.4000244140625</ele>
        <time>2021-09-26T12:02:03.000Z</time>
      </trkpt>
      <trkpt lat="40.01686577685177326202392578125" lon="-0.69827280007302761077880859375">
        <ele>986.20001220703125</ele>
        <time>2021-09-26T12:02:04.000Z</time>
      </trkpt>
      <trkpt lat="40.01695211045444011688232421875" lon="-0.69830683059990406036376953125">
        <ele>985.79998779296875</ele>
        <time>2021-09-26T12:02:06.000Z</time>
      </trkpt>
      <trkpt lat="40.0170415453612804412841796875" lon="-0.69834941066801548004150390625">
        <ele>985.4000244140625</ele>
        <time>2021-09-26T12:02:08.000Z</time>
      </trkpt>
      <trkpt lat="40.0171302258968353271484375" lon="-0.698387213051319122314453125">
        <ele>985</ele>
        <time>2021-09-26T12:02:10.000Z</time>
      </trkpt>
      <trkpt lat="40.0172172300517559051513671875" lon="-0.6984242610633373260498046875">
        <ele>985</ele>
        <time>2021-09-26T12:02:12.000Z</time>
      </trkpt>
      <trkpt lat="40.01730197109282016754150390625" lon="-0.698452927172183990478515625">
        <ele>985</ele>
        <time>2021-09-26T12:02:14.000Z</time>
      </trkpt>
      <trkpt lat="40.01738394610583782196044921875" lon="-0.69848368875682353973388671875">
        <ele>985</ele>
        <time>2021-09-26T12:02:16.000Z</time>
      </trkpt>
      <trkpt lat="40.01745921559631824493408203125" lon="-0.69852107204496860504150390625">
        <ele>984.5999755859375</ele>
        <time>2021-09-26T12:02:18.000Z</time>
      </trkpt>
      <trkpt lat="40.01752828247845172882080078125" lon="-0.69855116307735443115234375">
        <ele>984.4000244140625</ele>
        <time>2021-09-26T12:02:20.000Z</time>
      </trkpt>
      <trkpt lat="40.01758762635290622711181640625" lon="-0.69856935180723667144775390625">
        <ele>984.20001220703125</ele>
        <time>2021-09-26T12:02:22.000Z</time>
      </trkpt>
      <trkpt lat="40.01760824583470821380615234375" lon="-0.69858259521424770355224609375">
        <ele>984.20001220703125</ele>
        <time>2021-09-26T12:02:24.000Z</time>
      </trkpt>
      <trkpt lat="40.01760824583470821380615234375" lon="-0.69858259521424770355224609375">
        <ele>984.20001220703125</ele>
        <time>2021-09-26T12:02:25.000Z</time>
      </trkpt>
      <trkpt lat="40.01760824583470821380615234375" lon="-0.69858259521424770355224609375">
        <ele>984.20001220703125</ele>
        <time>2021-09-26T12:02:26.000Z</time>
      </trkpt>
      <trkpt lat="40.01760824583470821380615234375" lon="-0.69858259521424770355224609375">
        <ele>984.20001220703125</ele>
        <time>2021-09-26T12:02:27.000Z</time>
      </trkpt>
      <trkpt lat="40.0176064856350421905517578125" lon="-0.698613189160823822021484375">
        <ele>984.20001220703125</ele>
        <time>2021-09-26T12:02:28.000Z</time>
      </trkpt>
      <trkpt lat="40.017593242228031158447265625" lon="-0.698620565235614776611328125">
        <ele>984.20001220703125</ele>
        <time>2021-09-26T12:02:29.000Z</time>
      </trkpt>
      <trkpt lat="40.01758041791617870330810546875" lon="-0.69861528463661670684814453125">
        <ele>984.20001220703125</ele>
        <time>2021-09-26T12:02:30.000Z</time>
      </trkpt>
      <trkpt lat="40.01754538156092166900634765625" lon="-0.6986063160002231597900390625">
        <ele>984.4000244140625</ele>
        <time>2021-09-26T12:02:32.000Z</time>
      </trkpt>
      <trkpt lat="40.01750296913087368011474609375" lon="-0.69858829490840435028076171875">
        <ele>984.5999755859375</ele>
        <time>2021-09-26T12:02:34.000Z</time>
      </trkpt>
      <trkpt lat="40.01746256835758686065673828125" lon="-0.6985665857791900634765625">
        <ele>984.5999755859375</ele>
        <time>2021-09-26T12:02:36.000Z</time>
      </trkpt>
      <trkpt lat="40.01742183230817317962646484375" lon="-0.69853867404162883758544921875">
        <ele>984.79998779296875</ele>
        <time>2021-09-26T12:02:38.000Z</time>
      </trkpt>
      <trkpt lat="40.017383359372615814208984375" lon="-0.69851486943662166595458984375">
        <ele>985</ele>
        <time>2021-09-26T12:02:40.000Z</time>
      </trkpt>
      <trkpt lat="40.0173510052263736724853515625" lon="-0.6984976865351200103759765625">
        <ele>985</ele>
        <time>2021-09-26T12:02:42.000Z</time>
      </trkpt>
      <trkpt lat="40.01734388060867786407470703125" lon="-0.698487795889377593994140625">
        <ele>985</ele>
        <time>2021-09-26T12:02:44.000Z</time>
      </trkpt>
      <trkpt lat="40.01739903353154659271240234375" lon="-0.698515288531780242919921875">
        <ele>984.79998779296875</ele>
        <time>2021-09-26T12:03:23.000Z</time>
      </trkpt>
      <trkpt lat="40.0174064934253692626953125" lon="-0.6985312141478061676025390625">
        <ele>984.79998779296875</ele>
        <time>2021-09-26T12:03:24.000Z</time>
      </trkpt>
      <trkpt lat="40.0174234248697757720947265625" lon="-0.69856457412242889404296875">
        <ele>984.79998779296875</ele>
        <time>2021-09-26T12:03:26.000Z</time>
      </trkpt>
      <trkpt lat="40.0174576230347156524658203125" lon="-0.698576979339122772216796875">
        <ele>984.5999755859375</ele>
        <time>2021-09-26T12:03:28.000Z</time>
      </trkpt>
      <trkpt lat="40.01749810762703418731689453125" lon="-0.69856968708336353302001953125">
        <ele>984.5999755859375</ele>
        <time>2021-09-26T12:03:30.000Z</time>
      </trkpt>
      <trkpt lat="40.01754663884639739990234375" lon="-0.6985788233578205108642578125">
        <ele>984.4000244140625</ele>
        <time>2021-09-26T12:03:32.000Z</time>
      </trkpt>
      <trkpt lat="40.01756985671818256378173828125" lon="-0.69858544506132602691650390625">
        <ele>984.20001220703125</ele>
        <time>2021-09-26T12:03:33.000Z</time>
      </trkpt>
      <trkpt lat="40.0175942480564117431640625" lon="-0.6985918991267681121826171875">
        <ele>984.20001220703125</ele>
        <time>2021-09-26T12:03:34.000Z</time>
      </trkpt>
      <trkpt lat="40.0176467187702655792236328125" lon="-0.6986086629331111907958984375">
        <ele>984</ele>
        <time>2021-09-26T12:03:36.000Z</time>
      </trkpt>
      <trkpt lat="40.01768410205841064453125" lon="-0.69862894713878631591796875">
        <ele>983.79998779296875</ele>
        <time>2021-09-26T12:03:38.000Z</time>
      </trkpt>
      <trkpt lat="40.01772693358361721038818359375" lon="-0.69863908924162387847900390625">
        <ele>983.4000244140625</ele>
        <time>2021-09-26T12:03:40.000Z</time>
      </trkpt>
      <trkpt lat="40.017772950232028961181640625" lon="-0.69865317083895206451416015625">
        <ele>983</ele>
        <time>2021-09-26T12:03:42.000Z</time>
      </trkpt>
      <trkpt lat="40.01782366074621677398681640625" lon="-0.6986753828823566436767578125">
        <ele>982.79998779296875</ele>
        <time>2021-09-26T12:03:44.000Z</time>
      </trkpt>
      <trkpt lat="40.01785316504538059234619140625" lon="-0.6986841000616550445556640625">
        <ele>982.4000244140625</ele>
        <time>2021-09-26T12:03:45.000Z</time>
      </trkpt>
      <trkpt lat="40.0178844295442104339599609375" lon="-0.6986926496028900146484375">
        <ele>982.20001220703125</ele>
        <time>2021-09-26T12:03:46.000Z</time>
      </trkpt>
      <trkpt lat="40.017950646579265594482421875" lon="-0.69871586747467517852783203125">
        <ele>981.79998779296875</ele>
        <time>2021-09-26T12:03:48.000Z</time>
      </trkpt>
      <trkpt lat="40.01801736652851104736328125" lon="-0.698717795312404632568359375">
        <ele>981.4000244140625</ele>
        <time>2021-09-26T12:03:50.000Z</time>
      </trkpt>
      <trkpt lat="40.0180416740477085113525390625" lon="-0.69869172759354114532470703125">
        <ele>981.20001220703125</ele>
        <time>2021-09-26T12:03:51.000Z</time>
      </trkpt>
      <trkpt lat="40.01805759966373443603515625" lon="-0.6986542604863643646240234375">
        <ele>981</ele>
        <time>2021-09-26T12:03:52.000Z</time>
      </trkpt>
      <trkpt lat="40.0180912949144840240478515625" lon="-0.69856532849371433258056640625">
        <ele>980.79998779296875</ele>
        <time>2021-09-26T12:03:54.000Z</time>
      </trkpt>
      <trkpt lat="40.0181184522807598114013671875" lon="-0.69848251529037952423095703125">
        <ele>980.5999755859375</ele>
        <time>2021-09-26T12:03:56.000Z</time>
      </trkpt>
      <trkpt lat="40.01813731156289577484130859375" lon="-0.69843406789004802703857421875">
        <ele>980.4000244140625</ele>
        <time>2021-09-26T12:03:58.000Z</time>
      </trkpt>
      <trkpt lat="40.01815441064536571502685546875" lon="-0.6984289549291133880615234375">
        <ele>980.4000244140625</ele>
        <time>2021-09-26T12:03:59.000Z</time>
      </trkpt>
      <trkpt lat="40.01816832460463047027587890625" lon="-0.6984199024736881256103515625">
        <ele>980.20001220703125</ele>
        <time>2021-09-26T12:04:00.000Z</time>
      </trkpt>
      <trkpt lat="40.01822381280362606048583984375" lon="-0.69843314588069915771484375">
        <ele>980</ele>
        <time>2021-09-26T12:04:02.000Z</time>
      </trkpt>
      <trkpt lat="40.0182589329779148101806640625" lon="-0.6984463892877101898193359375">
        <ele>980</ele>
        <time>2021-09-26T12:04:03.000Z</time>
      </trkpt>
      <trkpt lat="40.0182954780757427215576171875" lon="-0.6984587945044040679931640625">
        <ele>980</ele>
        <time>2021-09-26T12:04:04.000Z</time>
      </trkpt>
      <trkpt lat="40.01833386719226837158203125" lon="-0.6984668411314487457275390625">
        <ele>980</ele>
        <time>2021-09-26T12:04:05.000Z</time>
      </trkpt>
      <trkpt lat="40.0183967314660549163818359375" lon="-0.69848905317485332489013671875">
        <ele>980</ele>
        <time>2021-09-26T12:04:06.000Z</time>
      </trkpt>
      <trkpt lat="40.018488429486751556396484375" lon="-0.6985033862292766571044921875">
        <ele>980</ele>
        <time>2021-09-26T12:04:08.000Z</time>
      </trkpt>
      <trkpt lat="40.01852304674685001373291015625" lon="-0.69848167710006237030029296875">
        <ele>979.79998779296875</ele>
        <time>2021-09-26T12:04:09.000Z</time>
      </trkpt>
      <trkpt lat="40.0185539759695529937744140625" lon="-0.6984378397464752197265625">
        <ele>979.79998779296875</ele>
        <time>2021-09-26T12:04:10.000Z</time>
      </trkpt>
      <trkpt lat="40.01859228126704692840576171875" lon="-0.69832879118621349334716796875">
        <ele>979.4000244140625</ele>
        <time>2021-09-26T12:04:12.000Z</time>
      </trkpt>
      <trkpt lat="40.0186243839561939239501953125" lon="-0.69823038764297962188720703125">
        <ele>979</ele>
        <time>2021-09-26T12:04:14.000Z</time>
      </trkpt>
      <trkpt lat="40.018654726445674896240234375" lon="-0.6981696188449859619140625">
        <ele>978.5999755859375</ele>
        <time>2021-09-26T12:04:16.000Z</time>
      </trkpt>
      <trkpt lat="40.018687583506107330322265625" lon="-0.69811999797821044921875">
        <ele>978.20001220703125</ele>
        <time>2021-09-26T12:04:18.000Z</time>
      </trkpt>
      <trkpt lat="40.0187239609658718109130859375" lon="-0.6980457343161106109619140625">
        <ele>978.20001220703125</ele>
        <time>2021-09-26T12:04:20.000Z</time>
      </trkpt>
      <trkpt lat="40.0187454186379909515380859375" lon="-0.6979974545538425445556640625">
        <ele>978</ele>
        <time>2021-09-26T12:04:21.000Z</time>
      </trkpt>
      <trkpt lat="40.01875874586403369903564453125" lon="-0.697935260832309722900390625">
        <ele>978</ele>
        <time>2021-09-26T12:04:22.000Z</time>
      </trkpt>
      <trkpt lat="40.0187797844409942626953125" lon="-0.69788455031812191009521484375">
        <ele>978</ele>
        <time>2021-09-26T12:04:23.000Z</time>
      </trkpt>
      <trkpt lat="40.01880233176052570343017578125" lon="-0.69783677347004413604736328125">
        <ele>977.79998779296875</ele>
        <time>2021-09-26T12:04:24.000Z</time>
      </trkpt>
      <trkpt lat="40.0188225321471691131591796875" lon="-0.69778949953615665435791015625">
        <ele>977.79998779296875</ele>
        <time>2021-09-26T12:04:25.000Z</time>
      </trkpt>
      <trkpt lat="40.01883837394416332244873046875" lon="-0.69773971103131771087646484375">
        <ele>977.79998779296875</ele>
        <time>2021-09-26T12:04:26.000Z</time>
      </trkpt>
      <trkpt lat="40.0188506953418254852294921875" lon="-0.6976546347141265869140625">
        <ele>977.5999755859375</ele>
        <time>2021-09-26T12:04:28.000Z</time>
      </trkpt>
      <trkpt lat="40.01884692348539829254150390625" lon="-0.69760241545736789703369140625">
        <ele>977.5999755859375</ele>
        <time>2021-09-26T12:04:30.000Z</time>
      </trkpt>
      <trkpt lat="40.01884826458990573883056640625" lon="-0.6975508667528629302978515625">
        <ele>977.5999755859375</ele>
        <time>2021-09-26T12:04:32.000Z</time>
      </trkpt>
      <trkpt lat="40.01884792931377887725830078125" lon="-0.6974978931248188018798828125">
        <ele>977.4000244140625</ele>
        <time>2021-09-26T12:04:34.000Z</time>
      </trkpt>
      <trkpt lat="40.01881892792880535125732421875" lon="-0.69746696390211582183837890625">
        <ele>977.4000244140625</ele>
        <time>2021-09-26T12:04:36.000Z</time>
      </trkpt>
      <trkpt lat="40.0187698937952518463134765625" lon="-0.69745707325637340545654296875">
        <ele>977.5999755859375</ele>
        <time>2021-09-26T12:04:38.000Z</time>
      </trkpt>
      <trkpt lat="40.0187279842793941497802734375" lon="-0.69744408130645751953125">
        <ele>977.5999755859375</ele>
        <time>2021-09-26T12:04:40.000Z</time>
      </trkpt>
      <trkpt lat="40.01871817745268344879150390625" lon="-0.69744475185871124267578125">
        <ele>977.5999755859375</ele>
        <time>2021-09-26T12:04:41.000Z</time>
      </trkpt>
      <trkpt lat="40.01871314831078052520751953125" lon="-0.69744701497256755828857421875">
        <ele>977.5999755859375</ele>
        <time>2021-09-26T12:04:42.000Z</time>
      </trkpt>
      <trkpt lat="40.01871314831078052520751953125" lon="-0.69744701497256755828857421875">
        <ele>977.5999755859375</ele>
        <time>2021-09-26T12:04:43.000Z</time>
      </trkpt>
      <trkpt lat="40.0185392238199710845947265625" lon="-0.69745036773383617401123046875">
        <ele>977.5999755859375</ele>
        <time>2021-09-26T12:20:52.000Z</time>
      </trkpt>
      <trkpt lat="40.0185315124690532684326171875" lon="-0.6974405609071254730224609375">
        <ele>977.5999755859375</ele>
        <time>2021-09-26T12:20:53.000Z</time>
      </trkpt>
      <trkpt lat="40.01853176392614841461181640625" lon="-0.69744634442031383514404296875">
        <ele>977.5999755859375</ele>
        <time>2021-09-26T12:20:54.000Z</time>
      </trkpt>
      <trkpt lat="40.0185623578727245330810546875" lon="-0.69734274409711360931396484375">
        <ele>977.20001220703125</ele>
        <time>2021-09-26T12:21:46.000Z</time>
      </trkpt>
      <trkpt lat="40.01854970119893550872802734375" lon="-0.697314999997615814208984375">
        <ele>977.20001220703125</ele>
        <time>2021-09-26T12:21:47.000Z</time>
      </trkpt>
      <trkpt lat="40.0185224600136280059814453125" lon="-0.69726546294987201690673828125">
        <ele>977</ele>
        <time>2021-09-26T12:21:49.000Z</time>
      </trkpt>
      <trkpt lat="40.01850728876888751983642578125" lon="-0.69724517874419689178466796875">
        <ele>976.79998779296875</ele>
        <time>2021-09-26T12:21:50.000Z</time>
      </trkpt>
      <trkpt lat="40.01848935149610042572021484375" lon="-0.6972256489098072052001953125">
        <ele>977</ele>
        <time>2021-09-26T12:21:51.000Z</time>
      </trkpt>
      <trkpt lat="40.018468983471393585205078125" lon="-0.69721098057925701141357421875">
        <ele>977</ele>
        <time>2021-09-26T12:21:52.000Z</time>
      </trkpt>
      <trkpt lat="40.01844760961830615997314453125" lon="-0.6971974857151508331298828125">
        <ele>977</ele>
        <time>2021-09-26T12:21:53.000Z</time>
      </trkpt>
      <trkpt lat="40.01841072924435138702392578125" lon="-0.6971773691475391387939453125">
        <ele>977</ele>
        <time>2021-09-26T12:21:55.000Z</time>
      </trkpt>
      <trkpt lat="40.01837535761296749114990234375" lon="-0.69717384874820709228515625">
        <ele>977</ele>
        <time>2021-09-26T12:21:57.000Z</time>
      </trkpt>
      <trkpt lat="40.018353648483753204345703125" lon="-0.69716856814920902252197265625">
        <ele>977</ele>
        <time>2021-09-26T12:21:58.000Z</time>
      </trkpt>
      <trkpt lat="40.01832925714552402496337890625" lon="-0.69716043770313262939453125">
        <ele>977</ele>
        <time>2021-09-26T12:21:59.000Z</time>
      </trkpt>
      <trkpt lat="40.0182743556797504425048828125" lon="-0.69713671691715717315673828125">
        <ele>977.20001220703125</ele>
        <time>2021-09-26T12:22:01.000Z</time>
      </trkpt>
      <trkpt lat="40.01824543811380863189697265625" lon="-0.69712850265204906463623046875">
        <ele>977.4000244140625</ele>
        <time>2021-09-26T12:22:02.000Z</time>
      </trkpt>
      <trkpt lat="40.0182227231562137603759765625" lon="-0.69712481461465358734130859375">
        <ele>977.4000244140625</ele>
        <time>2021-09-26T12:22:03.000Z</time>
      </trkpt>
      <trkpt lat="40.01817503012716770172119140625" lon="-0.697121210396289825439453125">
        <ele>977.5999755859375</ele>
        <time>2021-09-26T12:22:05.000Z</time>
      </trkpt>
      <trkpt lat="40.0181171111762523651123046875" lon="-0.697107799351215362548828125">
        <ele>978</ele>
        <time>2021-09-26T12:22:07.000Z</time>
      </trkpt>
      <trkpt lat="40.01805759966373443603515625" lon="-0.6970962323248386383056640625">
        <ele>978</ele>
        <time>2021-09-26T12:22:09.000Z</time>
      </trkpt>
      <trkpt lat="40.01800035126507282257080078125" lon="-0.6970833241939544677734375">
        <ele>978</ele>
        <time>2021-09-26T12:22:11.000Z</time>
      </trkpt>
      <trkpt lat="40.01793958246707916259765625" lon="-0.697068907320499420166015625">
        <ele>978</ele>
        <time>2021-09-26T12:22:13.000Z</time>
      </trkpt>
      <trkpt lat="40.01787546090781688690185546875" lon="-0.697054155170917510986328125">
        <ele>978.4000244140625</ele>
        <time>2021-09-26T12:22:15.000Z</time>
      </trkpt>
      <trkpt lat="40.017814524471759796142578125" lon="-0.69703697226941585540771484375">
        <ele>978.5999755859375</ele>
        <time>2021-09-26T12:22:17.000Z</time>
      </trkpt>
      <trkpt lat="40.01775274984538555145263671875" lon="-0.6970278359949588775634765625">
        <ele>978.79998779296875</ele>
        <time>2021-09-26T12:22:19.000Z</time>
      </trkpt>
      <trkpt lat="40.0176926515996456146240234375" lon="-0.69701869972050189971923828125">
        <ele>978.79998779296875</ele>
        <time>2021-09-26T12:22:21.000Z</time>
      </trkpt>
      <trkpt lat="40.0176339782774448394775390625" lon="-0.697001516819000244140625">
        <ele>979</ele>
        <time>2021-09-26T12:22:23.000Z</time>
      </trkpt>
      <trkpt lat="40.01757144927978515625" lon="-0.69698550738394260406494140625">
        <ele>979.20001220703125</ele>
        <time>2021-09-26T12:22:25.000Z</time>
      </trkpt>
      <trkpt lat="40.017540939152240753173828125" lon="-0.6969775445759296417236328125">
        <ele>979.20001220703125</ele>
        <time>2021-09-26T12:22:26.000Z</time>
      </trkpt>
      <trkpt lat="40.017510093748569488525390625" lon="-0.69696941412985324859619140625">
        <ele>979.4000244140625</ele>
        <time>2021-09-26T12:22:27.000Z</time>
      </trkpt>
      <trkpt lat="40.017455779016017913818359375" lon="-0.6969540752470493316650390625">
        <ele>979.5999755859375</ele>
        <time>2021-09-26T12:22:29.000Z</time>
      </trkpt>
      <trkpt lat="40.01740045845508575439453125" lon="-0.6969413347542285919189453125">
        <ele>979.5999755859375</ele>
        <time>2021-09-26T12:22:31.000Z</time>
      </trkpt>
      <trkpt lat="40.01734220422804355621337890625" lon="-0.69692985154688358306884765625">
        <ele>979.79998779296875</ele>
        <time>2021-09-26T12:22:33.000Z</time>
      </trkpt>
      <trkpt lat="40.01728252507746219635009765625" lon="-0.69692197255790233612060546875">
        <ele>980</ele>
        <time>2021-09-26T12:22:35.000Z</time>
      </trkpt>
      <trkpt lat="40.01723013818264007568359375" lon="-0.69690772332251071929931640625">
        <ele>980.20001220703125</ele>
        <time>2021-09-26T12:22:37.000Z</time>
      </trkpt>
      <trkpt lat="40.0172001309692859649658203125" lon="-0.6969000957906246185302734375">
        <ele>980.20001220703125</ele>
        <time>2021-09-26T12:22:38.000Z</time>
      </trkpt>
      <trkpt lat="40.0171692855656147003173828125" lon="-0.69689246825873851776123046875">
        <ele>980.4000244140625</ele>
        <time>2021-09-26T12:22:39.000Z</time>
      </trkpt>
      <trkpt lat="40.01710818149149417877197265625" lon="-0.6968794763088226318359375">
        <ele>980.4000244140625</ele>
        <time>2021-09-26T12:22:41.000Z</time>
      </trkpt>
      <trkpt lat="40.01704866997897624969482421875" lon="-0.6968648917973041534423828125">
        <ele>980.5999755859375</ele>
        <time>2021-09-26T12:22:43.000Z</time>
      </trkpt>
      <trkpt lat="40.01701983623206615447998046875" lon="-0.69686137139797210693359375">
        <ele>980.5999755859375</ele>
        <time>2021-09-26T12:22:44.000Z</time>
      </trkpt>
      <trkpt lat="40.01698882319033145904541015625" lon="-0.69685600697994232177734375">
        <ele>980.4000244140625</ele>
        <time>2021-09-26T12:22:45.000Z</time>
      </trkpt>
      <trkpt lat="40.01692931167781352996826171875" lon="-0.69684368558228015899658203125">
        <ele>980.5999755859375</ele>
        <time>2021-09-26T12:22:47.000Z</time>
      </trkpt>
      <trkpt lat="40.0168700516223907470703125" lon="-0.6968280114233493804931640625">
        <ele>980.79998779296875</ele>
        <time>2021-09-26T12:22:49.000Z</time>
      </trkpt>
      <trkpt lat="40.0168189220130443572998046875" lon="-0.69681770168244838714599609375">
        <ele>981</ele>
        <time>2021-09-26T12:22:51.000Z</time>
      </trkpt>
      <trkpt lat="40.01679184846580028533935546875" lon="-0.696809403598308563232421875">
        <ele>981.20001220703125</ele>
        <time>2021-09-26T12:22:52.000Z</time>
      </trkpt>
      <trkpt lat="40.01675882376730442047119140625" lon="-0.69680110551416873931884765625">
        <ele>981.4000244140625</ele>
        <time>2021-09-26T12:22:53.000Z</time>
      </trkpt>
      <trkpt lat="40.01670668832957744598388671875" lon="-0.6967850960791110992431640625">
        <ele>981.5999755859375</ele>
        <time>2021-09-26T12:22:55.000Z</time>
      </trkpt>
      <trkpt lat="40.01665103249251842498779296875" lon="-0.69677612744271755218505859375">
        <ele>981.79998779296875</ele>
        <time>2021-09-26T12:22:57.000Z</time>
      </trkpt>
      <trkpt lat="40.016621612012386322021484375" lon="-0.69677696563303470611572265625">
        <ele>981.79998779296875</ele>
        <time>2021-09-26T12:22:58.000Z</time>
      </trkpt>
      <trkpt lat="40.0165932811796665191650390625" lon="-0.69676891900599002838134765625">
        <ele>982</ele>
        <time>2021-09-26T12:22:59.000Z</time>
      </trkpt>
      <trkpt lat="40.016533769667148590087890625" lon="-0.69675835780799388885498046875">
        <ele>982.20001220703125</ele>
        <time>2021-09-26T12:23:01.000Z</time>
      </trkpt>
      <trkpt lat="40.01647836528718471527099609375" lon="-0.6967485509812831878662109375">
        <ele>982.4000244140625</ele>
        <time>2021-09-26T12:23:03.000Z</time>
      </trkpt>
      <trkpt lat="40.01643209718167781829833984375" lon="-0.69675332866609096527099609375">
        <ele>982.5999755859375</ele>
        <time>2021-09-26T12:23:05.000Z</time>
      </trkpt>
      <trkpt lat="40.01640208996832370758056640625" lon="-0.6967576034367084503173828125">
        <ele>982.79998779296875</ele>
        <time>2021-09-26T12:23:07.000Z</time>
      </trkpt>
      <trkpt lat="40.01637996174395084381103515625" lon="-0.69676824845373630523681640625">
        <ele>982.79998779296875</ele>
        <time>2021-09-26T12:23:09.000Z</time>
      </trkpt>
      <trkpt lat="40.01635163091123104095458984375" lon="-0.69677445106208324432373046875">
        <ele>983</ele>
        <time>2021-09-26T12:23:11.000Z</time>
      </trkpt>
      <trkpt lat="40.0163237191736698150634765625" lon="-0.6967800669372081756591796875">
        <ele>983.20001220703125</ele>
        <time>2021-09-26T12:23:13.000Z</time>
      </trkpt>
      <trkpt lat="40.01629538834095001220703125" lon="-0.69678300060331821441650390625">
        <ele>983.20001220703125</ele>
        <time>2021-09-26T12:23:15.000Z</time>
      </trkpt>
      <trkpt lat="40.01627661287784576416015625" lon="-0.69678115658462047576904296875">
        <ele>983.4000244140625</ele>
        <time>2021-09-26T12:23:17.000Z</time>
      </trkpt>
      <trkpt lat="40.01627166755497455596923828125" lon="-0.696786604821681976318359375">
        <ele>983.4000244140625</ele>
        <time>2021-09-26T12:23:18.000Z</time>
      </trkpt>
      <trkpt lat="40.016242749989032745361328125" lon="-0.69675617851316928863525390625">
        <ele>983.20001220703125</ele>
        <time>2021-09-26T12:23:40.000Z</time>
      </trkpt>
      <trkpt lat="40.01621752046048641204833984375" lon="-0.69675005972385406494140625">
        <ele>983.20001220703125</ele>
        <time>2021-09-26T12:23:41.000Z</time>
      </trkpt>
      <trkpt lat="40.01619304530322551727294921875" lon="-0.69675131700932979583740234375">
        <ele>983.4000244140625</ele>
        <time>2021-09-26T12:23:42.000Z</time>
      </trkpt>
      <trkpt lat="40.01617225818336009979248046875" lon="-0.696767158806324005126953125">
        <ele>983.4000244140625</ele>
        <time>2021-09-26T12:23:43.000Z</time>
      </trkpt>
      <trkpt lat="40.016163624823093414306640625" lon="-0.69678937084972858428955078125">
        <ele>983.5999755859375</ele>
        <time>2021-09-26T12:23:44.000Z</time>
      </trkpt>
      <trkpt lat="40.016152895987033843994140625" lon="-0.69680144079029560089111328125">
        <ele>983.5999755859375</ele>
        <time>2021-09-26T12:23:45.000Z</time>
      </trkpt>
      <trkpt lat="40.01612372696399688720703125" lon="-0.6968125887215137481689453125">
        <ele>983.79998779296875</ele>
        <time>2021-09-26T12:23:47.000Z</time>
      </trkpt>
      <trkpt lat="40.0161198712885379791259765625" lon="-0.69680579937994480133056640625">
        <ele>983.79998779296875</ele>
        <time>2021-09-26T12:23:48.000Z</time>
      </trkpt>
      <trkpt lat="40.0161181949079036712646484375" lon="-0.69679431617259979248046875">
        <ele>983.79998779296875</ele>
        <time>2021-09-26T12:23:49.000Z</time>
      </trkpt>
      <trkpt lat="40.01611836254596710205078125" lon="-0.69678065367043018341064453125">
        <ele>983.79998779296875</ele>
        <time>2021-09-26T12:23:50.000Z</time>
      </trkpt>
      <trkpt lat="40.01611526124179363250732421875" lon="-0.69676305167376995086669921875">
        <ele>983.5999755859375</ele>
        <time>2021-09-26T12:23:51.000Z</time>
      </trkpt>
      <trkpt lat="40.01610201783478260040283203125" lon="-0.696703456342220306396484375">
        <ele>983.4000244140625</ele>
        <time>2021-09-26T12:23:53.000Z</time>
      </trkpt>
      <trkpt lat="40.016085840761661529541015625" lon="-0.6966603733599185943603515625">
        <ele>983.4000244140625</ele>
        <time>2021-09-26T12:23:55.000Z</time>
      </trkpt>
      <trkpt lat="40.0160732679069042205810546875" lon="-0.69665056653320789337158203125">
        <ele>983.4000244140625</ele>
        <time>2021-09-26T12:23:56.000Z</time>
      </trkpt>
      <trkpt lat="40.016057007014751434326171875" lon="-0.69664369337260723114013671875">
        <ele>983.4000244140625</ele>
        <time>2021-09-26T12:23:57.000Z</time>
      </trkpt>
      <trkpt lat="40.01601031981408596038818359375" lon="-0.696635060012340545654296875">
        <ele>983.4000244140625</ele>
        <time>2021-09-26T12:23:59.000Z</time>
      </trkpt>
      <trkpt lat="40.0159639678895473480224609375" lon="-0.69663464091718196868896484375">
        <ele>983.4000244140625</ele>
        <time>2021-09-26T12:24:01.000Z</time>
      </trkpt>
      <trkpt lat="40.01592130400240421295166015625" lon="-0.69662441499531269073486328125">
        <ele>983.4000244140625</ele>
        <time>2021-09-26T12:24:03.000Z</time>
      </trkpt>
      <trkpt lat="40.0158724375069141387939453125" lon="-0.69661796092987060546875">
        <ele>983.20001220703125</ele>
        <time>2021-09-26T12:24:05.000Z</time>
      </trkpt>
      <trkpt lat="40.015827678143978118896484375" lon="-0.69661301560699939727783203125">
        <ele>983.20001220703125</ele>
        <time>2021-09-26T12:24:07.000Z</time>
      </trkpt>
      <trkpt lat="40.01579524017870426177978515625" lon="-0.696611590683460235595703125">
        <ele>983.20001220703125</ele>
        <time>2021-09-26T12:24:09.000Z</time>
      </trkpt>
      <trkpt lat="40.015758611261844635009765625" lon="-0.6966087408363819122314453125">
        <ele>983.20001220703125</ele>
        <time>2021-09-26T12:24:11.000Z</time>
      </trkpt>
      <trkpt lat="40.01572784967720508575439453125" lon="-0.6966090761125087738037109375">
        <ele>983.20001220703125</ele>
        <time>2021-09-26T12:24:13.000Z</time>
      </trkpt>
      <trkpt lat="40.01571276225149631500244140625" lon="-0.69660362787544727325439453125">
        <ele>983.20001220703125</ele>
        <time>2021-09-26T12:24:14.000Z</time>
      </trkpt>
      <trkpt lat="40.0156950764358043670654296875" lon="-0.69659625180065631866455078125">
        <ele>983</ele>
        <time>2021-09-26T12:24:15.000Z</time>
      </trkpt>
      <trkpt lat="40.0156732834875583648681640625" lon="-0.69658669643104076385498046875">
        <ele>983</ele>
        <time>2021-09-26T12:24:16.000Z</time>
      </trkpt>
      <trkpt lat="40.015650652348995208740234375" lon="-0.69657144136726856231689453125">
        <ele>983</ele>
        <time>2021-09-26T12:24:17.000Z</time>
      </trkpt>
      <trkpt lat="40.01562911085784435272216796875" lon="-0.69656230509281158447265625">
        <ele>982.79998779296875</ele>
        <time>2021-09-26T12:24:18.000Z</time>
      </trkpt>
      <trkpt lat="40.0156122632324695587158203125" lon="-0.6965527497231960296630859375">
        <ele>982.79998779296875</ele>
        <time>2021-09-26T12:24:19.000Z</time>
      </trkpt>
      <trkpt lat="40.015585608780384063720703125" lon="-0.69653590209782123565673828125">
        <ele>982.79998779296875</ele>
        <time>2021-09-26T12:24:21.000Z</time>
      </trkpt>
      <trkpt lat="40.01556993462145328521728515625" lon="-0.6965302862226963043212890625">
        <ele>982.79998779296875</ele>
        <time>2021-09-26T12:24:22.000Z</time>
      </trkpt>
      <trkpt lat="40.01555568538606166839599609375" lon="-0.69652877748012542724609375">
        <ele>982.79998779296875</ele>
        <time>2021-09-26T12:24:23.000Z</time>
      </trkpt>
      <trkpt lat="40.0155187211930751800537109375" lon="-0.69651762954890727996826171875">
        <ele>983</ele>
        <time>2021-09-26T12:24:25.000Z</time>
      </trkpt>
      <trkpt lat="40.01548293046653270721435546875" lon="-0.69649566896259784698486328125">
        <ele>983</ele>
        <time>2021-09-26T12:24:27.000Z</time>
      </trkpt>
      <trkpt lat="40.015454851090908050537109375" lon="-0.69649793207645416259765625">
        <ele>983</ele>
        <time>2021-09-26T12:24:29.000Z</time>
      </trkpt>
      <trkpt lat="40.01542660407721996307373046875" lon="-0.69648728705942630767822265625">
        <ele>983.20001220703125</ele>
        <time>2021-09-26T12:24:31.000Z</time>
      </trkpt>
      <trkpt lat="40.015394501388072967529296875" lon="-0.696497596800327301025390625">
        <ele>983.20001220703125</ele>
        <time>2021-09-26T12:24:33.000Z</time>
      </trkpt>
      <trkpt lat="40.01537413336336612701416015625" lon="-0.69651377387344837188720703125">
        <ele>983.4000244140625</ele>
        <time>2021-09-26T12:24:35.000Z</time>
      </trkpt>
      <trkpt lat="40.0153701938688755035400390625" lon="-0.6965202279388904571533203125">
        <ele>983.4000244140625</ele>
        <time>2021-09-26T12:24:37.000Z</time>
      </trkpt>
      <trkpt lat="40.0156075693666934967041015625" lon="-0.69670655764639377593994140625">
        <ele>983.79998779296875</ele>
        <time>2021-09-26T13:09:50.000Z</time>
      </trkpt>
      <trkpt lat="40.01560346223413944244384765625" lon="-0.69670756347477436065673828125">
        <ele>984</ele>
        <time>2021-09-26T13:09:51.000Z</time>
      </trkpt>
      <trkpt lat="40.01558301039040088653564453125" lon="-0.69668811745941638946533203125">
        <ele>983.79998779296875</ele>
        <time>2021-09-26T13:09:59.000Z</time>
      </trkpt>
      <trkpt lat="40.0155817531049251556396484375" lon="-0.6966888718307018280029296875">
        <ele>983.79998779296875</ele>
        <time>2021-09-26T13:10:00.000Z</time>
      </trkpt>
      <trkpt lat="40.01559122465550899505615234375" lon="-0.69669012911617755889892578125">
        <ele>983.79998779296875</ele>
        <time>2021-09-26T13:10:06.000Z</time>
      </trkpt>
      <trkpt lat="40.0155864469707012176513671875" lon="-0.6966729462146759033203125">
        <ele>983.5999755859375</ele>
        <time>2021-09-26T13:10:07.000Z</time>
      </trkpt>
      <trkpt lat="40.015571527183055877685546875" lon="-0.6966407597064971923828125">
        <ele>983.4000244140625</ele>
        <time>2021-09-26T13:10:09.000Z</time>
      </trkpt>
      <trkpt lat="40.01556104980409145355224609375" lon="-0.696614272892475128173828125">
        <ele>983.20001220703125</ele>
        <time>2021-09-26T13:10:11.000Z</time>
      </trkpt>
      <trkpt lat="40.015551410615444183349609375" lon="-0.69660781882703304290771484375">
        <ele>983.20001220703125</ele>
        <time>2021-09-26T13:10:12.000Z</time>
      </trkpt>
      <trkpt lat="40.015533305704593658447265625" lon="-0.69660228677093982696533203125">
        <ele>983.20001220703125</ele>
        <time>2021-09-26T13:10:13.000Z</time>
      </trkpt>
      <trkpt lat="40.0154929049313068389892578125" lon="-0.696586780250072479248046875">
        <ele>983.20001220703125</ele>
        <time>2021-09-26T13:10:15.000Z</time>
      </trkpt>
      <trkpt lat="40.015464238822460174560546875" lon="-0.696576721966266632080078125">
        <ele>983.4000244140625</ele>
        <time>2021-09-26T13:10:17.000Z</time>
      </trkpt>
      <trkpt lat="40.0154540129005908966064453125" lon="-0.69657035171985626220703125">
        <ele>983.4000244140625</ele>
        <time>2021-09-26T13:10:18.000Z</time>
      </trkpt>
      <trkpt lat="40.01543682999908924102783203125" lon="-0.6965678371489048004150390625">
        <ele>983.4000244140625</ele>
        <time>2021-09-26T13:10:19.000Z</time>
      </trkpt>
      <trkpt lat="40.015411935746669769287109375" lon="-0.69656364619731903076171875">
        <ele>983.4000244140625</ele>
        <time>2021-09-26T13:10:20.000Z</time>
      </trkpt>
      <trkpt lat="40.01538653858006000518798828125" lon="-0.69655501283705234527587890625">
        <ele>983.5999755859375</ele>
        <time>2021-09-26T13:10:21.000Z</time>
      </trkpt>
      <trkpt lat="40.015326775610446929931640625" lon="-0.69654093123972415924072265625">
        <ele>983.5999755859375</ele>
        <time>2021-09-26T13:10:23.000Z</time>
      </trkpt>
      <trkpt lat="40.015281178057193756103515625" lon="-0.6965262629091739654541015625">
        <ele>983.79998779296875</ele>
        <time>2021-09-26T13:10:25.000Z</time>
      </trkpt>
      <trkpt lat="40.01524236984550952911376953125" lon="-0.6965173780918121337890625">
        <ele>984</ele>
        <time>2021-09-26T13:10:27.000Z</time>
      </trkpt>
      <trkpt lat="40.0152043998241424560546875" lon="-0.6965202279388904571533203125">
        <ele>984</ele>
        <time>2021-09-26T13:10:29.000Z</time>
      </trkpt>
      <trkpt lat="40.01516190357506275177001953125" lon="-0.6965061463415622711181640625">
        <ele>984.20001220703125</ele>
        <time>2021-09-26T13:10:31.000Z</time>
      </trkpt>
      <trkpt lat="40.01514136791229248046875" lon="-0.69650203920900821685791015625">
        <ele>984.20001220703125</ele>
        <time>2021-09-26T13:10:32.000Z</time>
      </trkpt>
      <trkpt lat="40.01511923968791961669921875" lon="-0.69647848606109619140625">
        <ele>984.20001220703125</ele>
        <time>2021-09-26T13:10:33.000Z</time>
      </trkpt>
      <trkpt lat="40.0150649249553680419921875" lon="-0.69644697010517120361328125">
        <ele>984.5999755859375</ele>
        <time>2021-09-26T13:10:35.000Z</time>
      </trkpt>
      <trkpt lat="40.01500784419476985931396484375" lon="-0.6964342296123504638671875">
        <ele>985</ele>
        <time>2021-09-26T13:10:37.000Z</time>
      </trkpt>
      <trkpt lat="40.01494749449193477630615234375" lon="-0.696415118873119354248046875">
        <ele>985.20001220703125</ele>
        <time>2021-09-26T13:10:39.000Z</time>
      </trkpt>
      <trkpt lat="40.01488647423684597015380859375" lon="-0.6963948346674442291259765625">
        <ele>985.4000244140625</ele>
        <time>2021-09-26T13:10:41.000Z</time>
      </trkpt>
      <trkpt lat="40.0148337520658969879150390625" lon="-0.69638133980333805084228515625">
        <ele>985.5999755859375</ele>
        <time>2021-09-26T13:10:43.000Z</time>
      </trkpt>
      <trkpt lat="40.01478890888392925262451171875" lon="-0.69636474363505840301513671875">
        <ele>985.79998779296875</ele>
        <time>2021-09-26T13:10:45.000Z</time>
      </trkpt>
      <trkpt lat="40.01475990749895572662353515625" lon="-0.6963559426367282867431640625">
        <ele>985.79998779296875</ele>
        <time>2021-09-26T13:10:46.000Z</time>
      </trkpt>
      <trkpt lat="40.01473442651331424713134765625" lon="-0.69634714163839817047119140625">
        <ele>986</ele>
        <time>2021-09-26T13:10:47.000Z</time>
      </trkpt>
      <trkpt lat="40.01468413509428501129150390625" lon="-0.69632685743272304534912109375">
        <ele>986.20001220703125</ele>
        <time>2021-09-26T13:10:49.000Z</time>
      </trkpt>
      <trkpt lat="40.01463920809328556060791015625" lon="-0.69631285965442657470703125">
        <ele>986.5999755859375</ele>
        <time>2021-09-26T13:10:51.000Z</time>
      </trkpt>
      <trkpt lat="40.01459419727325439453125" lon="-0.69629098288714885711669921875">
        <ele>986.79998779296875</ele>
        <time>2021-09-26T13:10:53.000Z</time>
      </trkpt>
      <trkpt lat="40.0145688839256763458251953125" lon="-0.69627908058464527130126953125">
        <ele>987</ele>
        <time>2021-09-26T13:10:54.000Z</time>
      </trkpt>
      <trkpt lat="40.01454432494938373565673828125" lon="-0.69627002812922000885009765625">
        <ele>987</ele>
        <time>2021-09-26T13:10:55.000Z</time>
      </trkpt>
      <trkpt lat="40.01449537463486194610595703125" lon="-0.696252845227718353271484375">
        <ele>987.20001220703125</ele>
        <time>2021-09-26T13:10:57.000Z</time>
      </trkpt>
      <trkpt lat="40.01444206573069095611572265625" lon="-0.696236081421375274658203125">
        <ele>987.5999755859375</ele>
        <time>2021-09-26T13:10:59.000Z</time>
      </trkpt>
      <trkpt lat="40.0143898464739322662353515625" lon="-0.6962194852530956268310546875">
        <ele>987.79998779296875</ele>
        <time>2021-09-26T13:11:01.000Z</time>
      </trkpt>
      <trkpt lat="40.0143620185554027557373046875" lon="-0.69620884023606777191162109375">
        <ele>988</ele>
        <time>2021-09-26T13:11:02.000Z</time>
      </trkpt>
      <trkpt lat="40.014331005513668060302734375" lon="-0.69619844667613506317138671875">
        <ele>988</ele>
        <time>2021-09-26T13:11:03.000Z</time>
      </trkpt>
      <trkpt lat="40.014274679124355316162109375" lon="-0.69618168286979198455810546875">
        <ele>988.4000244140625</ele>
        <time>2021-09-26T13:11:05.000Z</time>
      </trkpt>
      <trkpt lat="40.01422078348696231842041015625" lon="-0.6961633265018463134765625">
        <ele>988.5999755859375</ele>
        <time>2021-09-26T13:11:07.000Z</time>
      </trkpt>
      <trkpt lat="40.0141610205173492431640625" lon="-0.6961474008858203887939453125">
        <ele>988.79998779296875</ele>
        <time>2021-09-26T13:11:09.000Z</time>
      </trkpt>
      <trkpt lat="40.01412816345691680908203125" lon="-0.69613692350685596466064453125">
        <ele>989</ele>
        <time>2021-09-26T13:11:10.000Z</time>
      </trkpt>
      <trkpt lat="40.01409756951034069061279296875" lon="-0.6961262784898281097412109375">
        <ele>989.20001220703125</ele>
        <time>2021-09-26T13:11:11.000Z</time>
      </trkpt>
      <trkpt lat="40.01403805799782276153564453125" lon="-0.6961061619222164154052734375">
        <ele>989.4000244140625</ele>
        <time>2021-09-26T13:11:13.000Z</time>
      </trkpt>
      <trkpt lat="40.01398508436977863311767578125" lon="-0.6960890628397464752197265625">
        <ele>989.20001220703125</ele>
        <time>2021-09-26T13:11:15.000Z</time>
      </trkpt>
      <trkpt lat="40.01393915154039859771728515625" lon="-0.6960776634514331817626953125">
        <ele>989</ele>
        <time>2021-09-26T13:11:17.000Z</time>
      </trkpt>
      <trkpt lat="40.01388953067362308502197265625" lon="-0.69606182165443897247314453125">
        <ele>988.79998779296875</ele>
        <time>2021-09-26T13:11:19.000Z</time>
      </trkpt>
      <trkpt lat="40.0138418376445770263671875" lon="-0.69604991935193538665771484375">
        <ele>988.79998779296875</ele>
        <time>2021-09-26T13:11:21.000Z</time>
      </trkpt>
      <trkpt lat="40.013797245919704437255859375" lon="-0.69603885523974895477294921875">
        <ele>988.5999755859375</ele>
        <time>2021-09-26T13:11:23.000Z</time>
      </trkpt>
      <trkpt lat="40.01374234445393085479736328125" lon="-0.69603525102138519287109375">
        <ele>988.5999755859375</ele>
        <time>2021-09-26T13:11:25.000Z</time>
      </trkpt>
      <trkpt lat="40.0137256644666194915771484375" lon="-0.69604195654392242431640625">
        <ele>988.5999755859375</ele>
        <time>2021-09-26T13:11:26.000Z</time>
      </trkpt>
      <trkpt lat="40.01371485181152820587158203125" lon="-0.69604958407580852508544921875">
        <ele>988.5999755859375</ele>
        <time>2021-09-26T13:11:27.000Z</time>
      </trkpt>
      <trkpt lat="40.01370730809867382049560546875" lon="-0.6960551999509334564208984375">
        <ele>988.5999755859375</ele>
        <time>2021-09-26T13:11:29.000Z</time>
      </trkpt>
      <trkpt lat="40.01364762894809246063232421875" lon="-0.69613256491720676422119140625">
        <ele>990.4000244140625</ele>
        <time>2021-09-27T06:23:16.000Z</time>
      </trkpt>
      <trkpt lat="40.01364762894809246063232421875" lon="-0.69613256491720676422119140625">
        <ele>990.4000244140625</ele>
        <time>2021-09-27T06:23:17.000Z</time>
      </trkpt>
      <trkpt lat="40.01373119652271270751953125" lon="-0.696047656238079071044921875">
        <ele>990</ele>
        <time>2021-09-27T06:31:11.000Z</time>
      </trkpt>
      <trkpt lat="40.0137648917734622955322265625" lon="-0.69605075754225254058837890625">
        <ele>990</ele>
        <time>2021-09-27T06:31:12.000Z</time>
      </trkpt>
      <trkpt lat="40.01382951624691486358642578125" lon="-0.6960635818541049957275390625">
        <ele>989.5999755859375</ele>
        <time>2021-09-27T06:31:14.000Z</time>
      </trkpt>
      <trkpt lat="40.01385918818414211273193359375" lon="-0.69606877863407135009765625">
        <ele>989.4000244140625</ele>
        <time>2021-09-27T06:31:15.000Z</time>
      </trkpt>
      <trkpt lat="40.0138912908732891082763671875" lon="-0.69607757963240146636962890625">
        <ele>989.20001220703125</ele>
        <time>2021-09-27T06:31:16.000Z</time>
      </trkpt>
      <trkpt lat="40.013923309743404388427734375" lon="-0.69608344696462154388427734375">
        <ele>989</ele>
        <time>2021-09-27T06:31:17.000Z</time>
      </trkpt>
      <trkpt lat="40.01395490951836109161376953125" lon="-0.69609099067747592926025390625">
        <ele>988.79998779296875</ele>
        <time>2021-09-27T06:31:18.000Z</time>
      </trkpt>
      <trkpt lat="40.01398609019815921783447265625" lon="-0.696098618209362030029296875">
        <ele>988.79998779296875</ele>
        <time>2021-09-27T06:31:19.000Z</time>
      </trkpt>
      <trkpt lat="40.01401743851602077484130859375" lon="-0.696107335388660430908203125">
        <ele>988.5999755859375</ele>
        <time>2021-09-27T06:31:20.000Z</time>
      </trkpt>
      <trkpt lat="40.0140431709587574005126953125" lon="-0.6961177289485931396484375">
        <ele>988.4000244140625</ele>
        <time>2021-09-27T06:31:21.000Z</time>
      </trkpt>
      <trkpt lat="40.014075525104999542236328125" lon="-0.69612351246178150177001953125">
        <ele>988.4000244140625</ele>
        <time>2021-09-27T06:31:22.000Z</time>
      </trkpt>
      <trkpt lat="40.01413797028362751007080078125" lon="-0.69613583385944366455078125">
        <ele>988</ele>
        <time>2021-09-27T06:31:24.000Z</time>
      </trkpt>
      <trkpt lat="40.0141705758869647979736328125" lon="-0.696147568523883819580078125">
        <ele>988</ele>
        <time>2021-09-27T06:31:25.000Z</time>
      </trkpt>
      <trkpt lat="40.01420251093804836273193359375" lon="-0.6961611472070217132568359375">
        <ele>987.79998779296875</ele>
        <time>2021-09-27T06:31:26.000Z</time>
      </trkpt>
      <trkpt lat="40.0142624415457248687744140625" lon="-0.69617548026144504547119140625">
        <ele>987.5999755859375</ele>
        <time>2021-09-27T06:31:28.000Z</time>
      </trkpt>
      <trkpt lat="40.01428197138011455535888671875" lon="-0.696183778345584869384765625">
        <ele>987.5999755859375</ele>
        <time>2021-09-27T06:31:29.000Z</time>
      </trkpt>
      <trkpt lat="40.01430091448128223419189453125" lon="-0.6961928308010101318359375">
        <ele>987.4000244140625</ele>
        <time>2021-09-27T06:31:30.000Z</time>
      </trkpt>
      <trkpt lat="40.014339387416839599609375" lon="-0.6962089240550994873046875">
        <ele>987.4000244140625</ele>
        <time>2021-09-27T06:31:32.000Z</time>
      </trkpt>
      <trkpt lat="40.01435958780348300933837890625" lon="-0.69621504284441471099853515625">
        <ele>987.20001220703125</ele>
        <time>2021-09-27T06:31:33.000Z</time>
      </trkpt>
      <trkpt lat="40.01438020728528499603271484375" lon="-0.69621772505342960357666015625">
        <ele>987.20001220703125</ele>
        <time>2021-09-27T06:31:34.000Z</time>
      </trkpt>
      <trkpt lat="40.0144183449447154998779296875" lon="-0.69623775780200958251953125">
        <ele>987</ele>
        <time>2021-09-27T06:31:36.000Z</time>
      </trkpt>
      <trkpt lat="40.0144646130502223968505859375" lon="-0.6962478160858154296875">
        <ele>986.79998779296875</ele>
        <time>2021-09-27T06:31:38.000Z</time>
      </trkpt>
      <trkpt lat="40.01449453644454479217529296875" lon="-0.6962516717612743377685546875">
        <ele>986.79998779296875</ele>
        <time>2021-09-27T06:31:39.000Z</time>
      </trkpt>
      <trkpt lat="40.01452370546758174896240234375" lon="-0.69625795818865299224853515625">
        <ele>986.5999755859375</ele>
        <time>2021-09-27T06:31:40.000Z</time>
      </trkpt>
      <trkpt lat="40.0145688839256763458251953125" lon="-0.69627522490918636322021484375">
        <ele>986.4000244140625</ele>
        <time>2021-09-27T06:31:42.000Z</time>
      </trkpt>
      <trkpt lat="40.0146161578595638275146484375" lon="-0.696289725601673126220703125">
        <ele>986.4000244140625</ele>
        <time>2021-09-27T06:31:44.000Z</time>
      </trkpt>
      <trkpt lat="40.0146652758121490478515625" lon="-0.6963073275983333587646484375">
        <ele>986.5999755859375</ele>
        <time>2021-09-27T06:31:46.000Z</time>
      </trkpt>
      <trkpt lat="40.0147083587944507598876953125" lon="-0.69632702507078647613525390625">
        <ele>986.5999755859375</ele>
        <time>2021-09-27T06:31:48.000Z</time>
      </trkpt>
      <trkpt lat="40.0147532857954502105712890625" lon="-0.696353428065776824951171875">
        <ele>986.5999755859375</ele>
        <time>2021-09-27T06:31:50.000Z</time>
      </trkpt>
      <trkpt lat="40.01479980535805225372314453125" lon="-0.69638301618397235870361328125">
        <ele>986.5999755859375</ele>
        <time>2021-09-27T06:31:52.000Z</time>
      </trkpt>
      <trkpt lat="40.014825202524662017822265625" lon="-0.6964012049138545989990234375">
        <ele>986.4000244140625</ele>
        <time>2021-09-27T06:31:53.000Z</time>
      </trkpt>
      <trkpt lat="40.01485101878643035888671875" lon="-0.6964223273098468780517578125">
        <ele>986.4000244140625</ele>
        <time>2021-09-27T06:31:54.000Z</time>
      </trkpt>
      <trkpt lat="40.01490625552833080291748046875" lon="-0.69647957570850849151611328125">
        <ele>986.4000244140625</ele>
        <time>2021-09-27T06:31:56.000Z</time>
      </trkpt>
      <trkpt lat="40.014964006841182708740234375" lon="-0.69654076360166072845458984375">
        <ele>986.4000244140625</ele>
        <time>2021-09-27T06:31:58.000Z</time>
      </trkpt>
      <trkpt lat="40.01499007456004619598388671875" lon="-0.696576051414012908935546875">
        <ele>986.20001220703125</ele>
        <time>2021-09-27T06:31:59.000Z</time>
      </trkpt>
      <trkpt lat="40.01501471735537052154541015625" lon="-0.69661770947277545928955078125">
        <ele>986.20001220703125</ele>
        <time>2021-09-27T06:32:00.000Z</time>
      </trkpt>
      <trkpt lat="40.01507322303950786590576171875" lon="-0.69668442942202091217041015625">
        <ele>986.20001220703125</ele>
        <time>2021-09-27T06:32:02.000Z</time>
      </trkpt>
      <trkpt lat="40.01513206399977207183837890625" lon="-0.69675064645707607269287109375">
        <ele>986.20001220703125</ele>
        <time>2021-09-27T06:32:04.000Z</time>
      </trkpt>
      <trkpt lat="40.01519224606454372406005859375" lon="-0.6968182884156703948974609375">
        <ele>986.4000244140625</ele>
        <time>2021-09-27T06:32:06.000Z</time>
      </trkpt>
      <trkpt lat="40.0152231752872467041015625" lon="-0.69685466587543487548828125">
        <ele>986.4000244140625</ele>
        <time>2021-09-27T06:32:07.000Z</time>
      </trkpt>
      <trkpt lat="40.0152518413960933685302734375" lon="-0.6968903727829456329345703125">
        <ele>986.4000244140625</ele>
        <time>2021-09-27T06:32:08.000Z</time>
      </trkpt>
      <trkpt lat="40.01530791632831096649169921875" lon="-0.69696656428277492523193359375">
        <ele>986.5999755859375</ele>
        <time>2021-09-27T06:32:10.000Z</time>
      </trkpt>
      <trkpt lat="40.01536424271762371063232421875" lon="-0.69704133085906505584716796875">
        <ele>986.5999755859375</ele>
        <time>2021-09-27T06:32:12.000Z</time>
      </trkpt>
      <trkpt lat="40.01541964709758758544921875" lon="-0.6971166841685771942138671875">
        <ele>986.79998779296875</ele>
        <time>2021-09-27T06:32:14.000Z</time>
      </trkpt>
      <trkpt lat="40.01547597348690032958984375" lon="-0.69719220511615276336669921875">
        <ele>987</ele>
        <time>2021-09-27T06:32:16.000Z</time>
      </trkpt>
      <trkpt lat="40.0155056454241275787353515625" lon="-0.6972286663949489593505859375">
        <ele>987</ele>
        <time>2021-09-27T06:32:17.000Z</time>
      </trkpt>
      <trkpt lat="40.015532970428466796875" lon="-0.697265379130840301513671875">
        <ele>987</ele>
        <time>2021-09-27T06:32:18.000Z</time>
      </trkpt>
      <trkpt lat="40.015597678720951080322265625" lon="-0.69732631556689739227294921875">
        <ele>987</ele>
        <time>2021-09-27T06:32:20.000Z</time>
      </trkpt>
      <trkpt lat="40.0156581960618495941162109375" lon="-0.69738750346004962921142578125">
        <ele>987</ele>
        <time>2021-09-27T06:32:22.000Z</time>
      </trkpt>
      <trkpt lat="40.01572885550558567047119140625" lon="-0.69742941297590732574462890625">
        <ele>987</ele>
        <time>2021-09-27T06:32:24.000Z</time>
      </trkpt>
      <trkpt lat="40.01580093987286090850830078125" lon="-0.69746889173984527587890625">
        <ele>986.79998779296875</ele>
        <time>2021-09-27T06:32:26.000Z</time>
      </trkpt>
      <trkpt lat="40.01583999954164028167724609375" lon="-0.6974811293184757232666015625">
        <ele>986.79998779296875</ele>
        <time>2021-09-27T06:32:27.000Z</time>
      </trkpt>
      <trkpt lat="40.01587805338203907012939453125" lon="-0.69749127142131328582763671875">
        <ele>986.79998779296875</ele>
        <time>2021-09-27T06:32:28.000Z</time>
      </trkpt>
      <trkpt lat="40.01591543667018413543701171875" lon="-0.69750308990478515625">
        <ele>986.79998779296875</ele>
        <time>2021-09-27T06:32:29.000Z</time>
      </trkpt>
      <trkpt lat="40.01594929955899715423583984375" lon="-0.69751658476889133453369140625">
        <ele>986.79998779296875</ele>
        <time>2021-09-27T06:32:30.000Z</time>
      </trkpt>
      <trkpt lat="40.015969164669513702392578125" lon="-0.69752865470945835113525390625">
        <ele>986.79998779296875</ele>
        <time>2021-09-27T06:32:31.000Z</time>
      </trkpt>
      <trkpt lat="40.0159800611436367034912109375" lon="-0.6975304149091243743896484375">
        <ele>986.79998779296875</ele>
        <time>2021-09-27T06:32:32.000Z</time>
      </trkpt>
      <trkpt lat="40.01598165370523929595947265625" lon="-0.69754131138324737548828125">
        <ele>986.79998779296875</ele>
        <time>2021-09-27T06:32:33.000Z</time>
      </trkpt>
      <trkpt lat="40.0159793905913829803466796875" lon="-0.6975652836263179779052734375">
        <ele>986.79998779296875</ele>
        <time>2021-09-27T06:32:34.000Z</time>
      </trkpt>
      <trkpt lat="40.01597729511559009552001953125" lon="-0.69759738631546497344970703125">
        <ele>986.79998779296875</ele>
        <time>2021-09-27T06:32:35.000Z</time>
      </trkpt>
      <trkpt lat="40.01597176305949687957763671875" lon="-0.6976323388516902923583984375">
        <ele>986.79998779296875</ele>
        <time>2021-09-27T06:32:36.000Z</time>
      </trkpt>
      <trkpt lat="40.01596371643245220184326171875" lon="-0.69766762666404247283935546875">
        <ele>987</ele>
        <time>2021-09-27T06:32:37.000Z</time>
      </trkpt>
      <trkpt lat="40.0159562565386295318603515625" lon="-0.6977020762860774993896484375">
        <ele>987</ele>
        <time>2021-09-27T06:32:38.000Z</time>
      </trkpt>
      <trkpt lat="40.0159488804638385772705078125" lon="-0.69773987866938114166259765625">
        <ele>987</ele>
        <time>2021-09-27T06:32:39.000Z</time>
      </trkpt>
      <trkpt lat="40.01594075001776218414306640625" lon="-0.6977744959294795989990234375">
        <ele>987</ele>
        <time>2021-09-27T06:32:40.000Z</time>
      </trkpt>
      <trkpt lat="40.01593521796166896820068359375" lon="-0.69780492223799228668212890625">
        <ele>987.20001220703125</ele>
        <time>2021-09-27T06:32:41.000Z</time>
      </trkpt>
      <trkpt lat="40.0159301050007343292236328125" lon="-0.6978324986994266510009765625">
        <ele>987.20001220703125</ele>
        <time>2021-09-27T06:32:42.000Z</time>
      </trkpt>
      <trkpt lat="40.01592390239238739013671875" lon="-0.6978599913418292999267578125">
        <ele>987.20001220703125</ele>
        <time>2021-09-27T06:32:43.000Z</time>
      </trkpt>
      <trkpt lat="40.015923567116260528564453125" lon="-0.697886981070041656494140625">
        <ele>987.20001220703125</ele>
        <time>2021-09-27T06:32:44.000Z</time>
      </trkpt>
      <trkpt lat="40.01593387685716152191162109375" lon="-0.69791145622730255126953125">
        <ele>987.20001220703125</ele>
        <time>2021-09-27T06:32:45.000Z</time>
      </trkpt>
      <trkpt lat="40.01594678498804569244384765625" lon="-0.69794020615518093109130859375">
        <ele>987.20001220703125</ele>
        <time>2021-09-27T06:32:46.000Z</time>
      </trkpt>
      <trkpt lat="40.01600177027285099029541015625" lon="-0.69796510040760040283203125">
        <ele>987.20001220703125</ele>
        <time>2021-09-27T06:32:48.000Z</time>
      </trkpt>
      <trkpt lat="40.0160333700478076934814453125" lon="-0.69797591306269168853759765625">
        <ele>987.20001220703125</ele>
        <time>2021-09-27T06:32:49.000Z</time>
      </trkpt>
      <trkpt lat="40.0160618685185909271240234375" lon="-0.69798312149941921234130859375">
        <ele>987.20001220703125</ele>
        <time>2021-09-27T06:32:50.000Z</time>
      </trkpt>
      <trkpt lat="40.016115009784698486328125" lon="-0.6979934312403202056884765625">
        <ele>987.20001220703125</ele>
        <time>2021-09-27T06:32:52.000Z</time>
      </trkpt>
      <trkpt lat="40.01617041416466236114501953125" lon="-0.69800323806703090667724609375">
        <ele>987</ele>
        <time>2021-09-27T06:32:54.000Z</time>
      </trkpt>
      <trkpt lat="40.01620159484446048736572265625" lon="-0.6980115361511707305908203125">
        <ele>987</ele>
        <time>2021-09-27T06:32:55.000Z</time>
      </trkpt>
      <trkpt lat="40.016232691705226898193359375" lon="-0.6980205886065959930419921875">
        <ele>987</ele>
        <time>2021-09-27T06:32:56.000Z</time>
      </trkpt>
      <trkpt lat="40.01629161648452281951904296875" lon="-0.698043219745159149169921875">
        <ele>987</ele>
        <time>2021-09-27T06:32:58.000Z</time>
      </trkpt>
      <trkpt lat="40.01635297201573848724365234375" lon="-0.69807381369173526763916015625">
        <ele>986.79998779296875</ele>
        <time>2021-09-27T06:33:00.000Z</time>
      </trkpt>
      <trkpt lat="40.01638884656131267547607421875" lon="-0.6980889849364757537841796875">
        <ele>986.5999755859375</ele>
        <time>2021-09-27T06:33:01.000Z</time>
      </trkpt>
      <trkpt lat="40.0164239667356014251708984375" lon="-0.6981050781905651092529296875">
        <ele>986.5999755859375</ele>
        <time>2021-09-27T06:33:02.000Z</time>
      </trkpt>
      <trkpt lat="40.016492865979671478271484375" lon="-0.6981355883181095123291015625">
        <ele>986.4000244140625</ele>
        <time>2021-09-27T06:33:04.000Z</time>
      </trkpt>
      <trkpt lat="40.01656570471823215484619140625" lon="-0.69816551171243190765380859375">
        <ele>986.20001220703125</ele>
        <time>2021-09-27T06:33:06.000Z</time>
      </trkpt>
      <trkpt lat="40.0166046805679798126220703125" lon="-0.6981811858713626861572265625">
        <ele>986.20001220703125</ele>
        <time>2021-09-27T06:33:07.000Z</time>
      </trkpt>
      <trkpt lat="40.01664541661739349365234375" lon="-0.6981992907822132110595703125">
        <ele>986</ele>
        <time>2021-09-27T06:33:08.000Z</time>
      </trkpt>
      <trkpt lat="40.01671892590820789337158203125" lon="-0.6982366740703582763671875">
        <ele>985.79998779296875</ele>
        <time>2021-09-27T06:33:10.000Z</time>
      </trkpt>
      <trkpt lat="40.016784556210041046142578125" lon="-0.69826760329306125640869140625">
        <ele>985.79998779296875</ele>
        <time>2021-09-27T06:33:12.000Z</time>
      </trkpt>
      <trkpt lat="40.0168554671108722686767578125" lon="-0.698296688497066497802734375">
        <ele>985.5999755859375</ele>
        <time>2021-09-27T06:33:14.000Z</time>
      </trkpt>
      <trkpt lat="40.01692612655460834503173828125" lon="-0.69831839762628078460693359375">
        <ele>985.4000244140625</ele>
        <time>2021-09-27T06:33:16.000Z</time>
      </trkpt>
      <trkpt lat="40.01695680432021617889404296875" lon="-0.69833549670875072479248046875">
        <ele>985.4000244140625</ele>
        <time>2021-09-27T06:33:17.000Z</time>
      </trkpt>
      <trkpt lat="40.0169858895242214202880859375" lon="-0.69836365990340709686279296875">
        <ele>985.20001220703125</ele>
        <time>2021-09-27T06:33:18.000Z</time>
      </trkpt>
      <trkpt lat="40.0170080177485942840576171875" lon="-0.69842736236751079559326171875">
        <ele>985.20001220703125</ele>
        <time>2021-09-27T06:33:20.000Z</time>
      </trkpt>
      <trkpt lat="40.01698127947747707366943359375" lon="-0.69843742065131664276123046875">
        <ele>985.20001220703125</ele>
        <time>2021-09-27T06:33:22.000Z</time>
      </trkpt>
      <trkpt lat="40.0169607438147068023681640625" lon="-0.69842836819589138031005859375">
        <ele>985.4000244140625</ele>
        <time>2021-09-27T06:33:23.000Z</time>
      </trkpt>
      <trkpt lat="40.016941130161285400390625" lon="-0.6984199024736881256103515625">
        <ele>985.4000244140625</ele>
        <time>2021-09-27T06:33:24.000Z</time>
      </trkpt>
      <trkpt lat="40.0169070996344089508056640625" lon="-0.69840171374380588531494140625">
        <ele>985.4000244140625</ele>
        <time>2021-09-27T06:33:26.000Z</time>
      </trkpt>
      <trkpt lat="40.01687516458332538604736328125" lon="-0.69838754832744598388671875">
        <ele>985.5999755859375</ele>
        <time>2021-09-27T06:33:28.000Z</time>
      </trkpt>
      <trkpt lat="40.01683593727648258209228515625" lon="-0.698394589126110076904296875">
        <ele>985.5999755859375</ele>
        <time>2021-09-27T06:33:30.000Z</time>
      </trkpt>
      <trkpt lat="40.01682202331721782684326171875" lon="-0.69841034710407257080078125">
        <ele>985.5999755859375</ele>
        <time>2021-09-27T06:33:31.000Z</time>
      </trkpt>
      <trkpt lat="40.01681498251855373382568359375" lon="-0.69843591190874576568603515625">
        <ele>985.5999755859375</ele>
        <time>2021-09-27T06:33:32.000Z</time>
      </trkpt>
      <trkpt lat="40.01680643297731876373291015625" lon="-0.6984976865351200103759765625">
        <ele>985.5999755859375</ele>
        <time>2021-09-27T06:33:34.000Z</time>
      </trkpt>
      <trkpt lat="40.01678329892456531524658203125" lon="-0.6985731236636638641357421875">
        <ele>985.79998779296875</ele>
        <time>2021-09-27T06:33:36.000Z</time>
      </trkpt>
      <trkpt lat="40.01676603220403194427490234375" lon="-0.6986214034259319305419921875">
        <ele>985.79998779296875</ele>
        <time>2021-09-27T06:33:37.000Z</time>
      </trkpt>
      <trkpt lat="40.0167515315115451812744140625" lon="-0.69867412559688091278076171875">
        <ele>985.79998779296875</ele>
        <time>2021-09-27T06:33:38.000Z</time>
      </trkpt>
      <trkpt lat="40.0167386233806610107421875" lon="-0.69872408173978328704833984375">
        <ele>985.79998779296875</ele>
        <time>2021-09-27T06:33:39.000Z</time>
      </trkpt>
      <trkpt lat="40.01672898419201374053955078125" lon="-0.69875190965831279754638671875">
        <ele>985.79998779296875</ele>
        <time>2021-09-27T06:33:40.000Z</time>
      </trkpt>
      <trkpt lat="40.01672898419201374053955078125" lon="-0.6987689249217510223388671875">
        <ele>985.79998779296875</ele>
        <time>2021-09-27T06:33:41.000Z</time>
      </trkpt>
      <trkpt lat="40.01673082821071147918701171875" lon="-0.69879448972642421722412109375">
        <ele>985.79998779296875</ele>
        <time>2021-09-27T06:33:42.000Z</time>
      </trkpt>
      <trkpt lat="40.016736276447772979736328125" lon="-0.6988269276916980743408203125">
        <ele>985.79998779296875</ele>
        <time>2021-09-27T06:33:43.000Z</time>
      </trkpt>
      <trkpt lat="40.01674759201705455780029296875" lon="-0.6988547556102275848388671875">
        <ele>985.79998779296875</ele>
        <time>2021-09-27T06:33:44.000Z</time>
      </trkpt>
      <trkpt lat="40.01679687760770320892333984375" lon="-0.69889876060187816619873046875">
        <ele>985.79998779296875</ele>
        <time>2021-09-27T06:33:46.000Z</time>
      </trkpt>
      <trkpt lat="40.01686669886112213134765625" lon="-0.69893396459519863128662109375">
        <ele>985.79998779296875</ele>
        <time>2021-09-27T06:33:48.000Z</time>
      </trkpt>
      <trkpt lat="40.01692931167781352996826171875" lon="-0.69898777641355991363525390625">
        <ele>986</ele>
        <time>2021-09-27T06:33:50.000Z</time>
      </trkpt>
      <trkpt lat="40.01699955202639102935791015625" lon="-0.69903085939586162567138671875">
        <ele>986</ele>
        <time>2021-09-27T06:33:52.000Z</time>
      </trkpt>
      <trkpt lat="40.017071552574634552001953125" lon="-0.69906874559819698333740234375">
        <ele>986</ele>
        <time>2021-09-27T06:33:54.000Z</time>
      </trkpt>
      <trkpt lat="40.01713684760034084320068359375" lon="-0.699098668992519378662109375">
        <ele>986</ele>
        <time>2021-09-27T06:33:56.000Z</time>
      </trkpt>
      <trkpt lat="40.01720063388347625732421875" lon="-0.69913144223392009735107421875">
        <ele>985.79998779296875</ele>
        <time>2021-09-27T06:33:58.000Z</time>
      </trkpt>
      <trkpt lat="40.01726576127111911773681640625" lon="-0.6991660594940185546875">
        <ele>985.79998779296875</ele>
        <time>2021-09-27T06:34:00.000Z</time>
      </trkpt>
      <trkpt lat="40.01733114011585712432861328125" lon="-0.6992031075060367584228515625">
        <ele>985.79998779296875</ele>
        <time>2021-09-27T06:34:02.000Z</time>
      </trkpt>
      <trkpt lat="40.01739484257996082305908203125" lon="-0.699238479137420654296875">
        <ele>985.5999755859375</ele>
        <time>2021-09-27T06:34:04.000Z</time>
      </trkpt>
      <trkpt lat="40.01745770685374736785888671875" lon="-0.69927259348332881927490234375">
        <ele>985.5999755859375</ele>
        <time>2021-09-27T06:34:06.000Z</time>
      </trkpt>
      <trkpt lat="40.01751738600432872772216796875" lon="-0.69930394180119037628173828125">
        <ele>985.5999755859375</ele>
        <time>2021-09-27T06:34:08.000Z</time>
      </trkpt>
      <trkpt lat="40.01757748425006866455078125" lon="-0.699334703385829925537109375">
        <ele>985.4000244140625</ele>
        <time>2021-09-27T06:34:10.000Z</time>
      </trkpt>
      <trkpt lat="40.01763775013387203216552734375" lon="-0.69936680607497692108154296875">
        <ele>985.4000244140625</ele>
        <time>2021-09-27T06:34:12.000Z</time>
      </trkpt>
      <trkpt lat="40.0176973454654216766357421875" lon="-0.69940050132572650909423828125">
        <ele>985.4000244140625</ele>
        <time>2021-09-27T06:34:14.000Z</time>
      </trkpt>
      <trkpt lat="40.0177503190934658050537109375" lon="-0.69943469949066638946533203125">
        <ele>985.4000244140625</ele>
        <time>2021-09-27T06:34:16.000Z</time>
      </trkpt>
      <trkpt lat="40.01777504570782184600830078125" lon="-0.69945313967764377593994140625">
        <ele>985.4000244140625</ele>
        <time>2021-09-27T06:34:17.000Z</time>
      </trkpt>
      <trkpt lat="40.0177972577512264251708984375" lon="-0.69947392679750919342041015625">
        <ele>985.4000244140625</ele>
        <time>2021-09-27T06:34:18.000Z</time>
      </trkpt>
      <trkpt lat="40.0178348086774349212646484375" lon="-0.6995134055614471435546875">
        <ele>985.4000244140625</ele>
        <time>2021-09-27T06:34:20.000Z</time>
      </trkpt>
      <trkpt lat="40.01787965185940265655517578125" lon="-0.69954064674675464630126953125">
        <ele>985.4000244140625</ele>
        <time>2021-09-27T06:34:22.000Z</time>
      </trkpt>
      <trkpt lat="40.01790613867342472076416015625" lon="-0.69954835809767246246337890625">
        <ele>985.4000244140625</ele>
        <time>2021-09-27T06:34:23.000Z</time>
      </trkpt>
      <trkpt lat="40.01793078146874904632568359375" lon="-0.699549950659275054931640625">
        <ele>985.20001220703125</ele>
        <time>2021-09-27T06:34:24.000Z</time>
      </trkpt>
      <trkpt lat="40.017968080937862396240234375" lon="-0.69953821599483489990234375">
        <ele>985.20001220703125</ele>
        <time>2021-09-27T06:34:26.000Z</time>
      </trkpt>
      <trkpt lat="40.01798828132450580596923828125" lon="-0.69950510747730731964111328125">
        <ele>985</ele>
        <time>2021-09-27T06:34:28.000Z</time>
      </trkpt>
      <trkpt lat="40.01797671429812908172607421875" lon="-0.69947711192071437835693359375">
        <ele>984.79998779296875</ele>
        <time>2021-09-27T06:34:30.000Z</time>
      </trkpt>
      <trkpt lat="40.017941929399967193603515625" lon="-0.699455402791500091552734375">
        <ele>984.79998779296875</ele>
        <time>2021-09-27T06:34:32.000Z</time>
      </trkpt>
      <trkpt lat="40.01788820140063762664794921875" lon="-0.69942682050168514251708984375">
        <ele>984.79998779296875</ele>
        <time>2021-09-27T06:34:34.000Z</time>
      </trkpt>
      <trkpt lat="40.017829947173595428466796875" lon="-0.69939262233674526214599609375">
        <ele>984.79998779296875</ele>
        <time>2021-09-27T06:34:36.000Z</time>
      </trkpt>
      <trkpt lat="40.01776657998561859130859375" lon="-0.69935289211571216583251953125">
        <ele>984.79998779296875</ele>
        <time>2021-09-27T06:34:38.000Z</time>
      </trkpt>
      <trkpt lat="40.01770514063537120819091796875" lon="-0.69931165315210819244384765625">
        <ele>985</ele>
        <time>2021-09-27T06:34:40.000Z</time>
      </trkpt>
      <trkpt lat="40.01764629967510700225830078125" lon="-0.6992741860449314117431640625">
        <ele>985</ele>
        <time>2021-09-27T06:34:42.000Z</time>
      </trkpt>
      <trkpt lat="40.01758930273354053497314453125" lon="-0.699234791100025177001953125">
        <ele>985</ele>
        <time>2021-09-27T06:34:44.000Z</time>
      </trkpt>
      <trkpt lat="40.01752828247845172882080078125" lon="-0.69919665344059467315673828125">
        <ele>985</ele>
        <time>2021-09-27T06:34:46.000Z</time>
      </trkpt>
      <trkpt lat="40.0174673460423946380615234375" lon="-0.69915776140987873077392578125">
        <ele>985</ele>
        <time>2021-09-27T06:34:48.000Z</time>
      </trkpt>
      <trkpt lat="40.01740322448313236236572265625" lon="-0.6991244852542877197265625">
        <ele>985.20001220703125</ele>
        <time>2021-09-27T06:34:50.000Z</time>
      </trkpt>
      <trkpt lat="40.0173453055322170257568359375" lon="-0.69909506477415561676025390625">
        <ele>985.20001220703125</ele>
        <time>2021-09-27T06:34:52.000Z</time>
      </trkpt>
      <trkpt lat="40.01729761250317096710205078125" lon="-0.6990760378539562225341796875">
        <ele>985.20001220703125</ele>
        <time>2021-09-27T06:34:54.000Z</time>
      </trkpt>
      <trkpt lat="40.0172750651836395263671875" lon="-0.6990653090178966522216796875">
        <ele>985.20001220703125</ele>
        <time>2021-09-27T06:34:55.000Z</time>
      </trkpt>
      <trkpt lat="40.017253272235393524169921875" lon="-0.6990522332489490509033203125">
        <ele>985.20001220703125</ele>
        <time>2021-09-27T06:34:56.000Z</time>
      </trkpt>
      <trkpt lat="40.0171951018273830413818359375" lon="-0.69901677779853343963623046875">
        <ele>985.4000244140625</ele>
        <time>2021-09-27T06:34:58.000Z</time>
      </trkpt>
      <trkpt lat="40.0171213410794734954833984375" lon="-0.698973946273326873779296875">
        <ele>985.4000244140625</ele>
        <time>2021-09-27T06:35:00.000Z</time>
      </trkpt>
      <trkpt lat="40.017040707170963287353515625" lon="-0.69893346168100833892822265625">
        <ele>985.4000244140625</ele>
        <time>2021-09-27T06:35:02.000Z</time>
      </trkpt>
      <trkpt lat="40.01699938438832759857177734375" lon="-0.6989140994846820831298828125">
        <ele>985.4000244140625</ele>
        <time>2021-09-27T06:35:03.000Z</time>
      </trkpt>
      <trkpt lat="40.01696049235761165618896484375" lon="-0.69889574311673641204833984375">
        <ele>985.4000244140625</ele>
        <time>2021-09-27T06:35:04.000Z</time>
      </trkpt>
      <trkpt lat="40.0169277191162109375" lon="-0.69887612946331501007080078125">
        <ele>985.4000244140625</ele>
        <time>2021-09-27T06:35:05.000Z</time>
      </trkpt>
      <trkpt lat="40.01689528115093708038330078125" lon="-0.69885685108602046966552734375">
        <ele>985.4000244140625</ele>
        <time>2021-09-27T06:35:06.000Z</time>
      </trkpt>
      <trkpt lat="40.0168229453265666961669921875" lon="-0.698813684284687042236328125">
        <ele>985.5999755859375</ele>
        <time>2021-09-27T06:35:08.000Z</time>
      </trkpt>
      <trkpt lat="40.0167448259890079498291015625" lon="-0.69877135567367076873779296875">
        <ele>985.79998779296875</ele>
        <time>2021-09-27T06:35:10.000Z</time>
      </trkpt>
      <trkpt lat="40.0166673772037029266357421875" lon="-0.6987290270626544952392578125">
        <ele>986</ele>
        <time>2021-09-27T06:35:12.000Z</time>
      </trkpt>
      <trkpt lat="40.01659453846514225006103515625" lon="-0.69868418388068675994873046875">
        <ele>986.20001220703125</ele>
        <time>2021-09-27T06:35:14.000Z</time>
      </trkpt>
      <trkpt lat="40.016559250652790069580078125" lon="-0.69866440258920192718505859375">
        <ele>986.20001220703125</ele>
        <time>2021-09-27T06:35:15.000Z</time>
      </trkpt>
      <trkpt lat="40.01652379520237445831298828125" lon="-0.69864881224930286407470703125">
        <ele>986.4000244140625</ele>
        <time>2021-09-27T06:35:16.000Z</time>
      </trkpt>
      <trkpt lat="40.01645741052925586700439453125" lon="-0.6986197270452976226806640625">
        <ele>986.5999755859375</ele>
        <time>2021-09-27T06:35:18.000Z</time>
      </trkpt>
      <trkpt lat="40.01638851128518581390380859375" lon="-0.69858812727034091949462890625">
        <ele>986.5999755859375</ele>
        <time>2021-09-27T06:35:20.000Z</time>
      </trkpt>
      <trkpt lat="40.01632950268685817718505859375" lon="-0.69855459965765476226806640625">
        <ele>986.79998779296875</ele>
        <time>2021-09-27T06:35:22.000Z</time>
      </trkpt>
      <trkpt lat="40.016268901526927947998046875" lon="-0.69852258078753948211669921875">
        <ele>987</ele>
        <time>2021-09-27T06:35:24.000Z</time>
      </trkpt>
      <trkpt lat="40.0162100605666637420654296875" lon="-0.6984936632215976715087890625">
        <ele>987</ele>
        <time>2021-09-27T06:35:26.000Z</time>
      </trkpt>
      <trkpt lat="40.01617711968719959259033203125" lon="-0.698475055396556854248046875">
        <ele>987</ele>
        <time>2021-09-27T06:35:27.000Z</time>
      </trkpt>
      <trkpt lat="40.01614275388419628143310546875" lon="-0.69845451973378658294677734375">
        <ele>987</ele>
        <time>2021-09-27T06:35:28.000Z</time>
      </trkpt>
      <trkpt lat="40.01607117243111133575439453125" lon="-0.6984148733317852020263671875">
        <ele>987</ele>
        <time>2021-09-27T06:35:30.000Z</time>
      </trkpt>
      <trkpt lat="40.01599975861608982086181640625" lon="-0.69837790913879871368408203125">
        <ele>987</ele>
        <time>2021-09-27T06:35:32.000Z</time>
      </trkpt>
      <trkpt lat="40.01593236811459064483642578125" lon="-0.69833164103329181671142578125">
        <ele>987</ele>
        <time>2021-09-27T06:35:34.000Z</time>
      </trkpt>
      <trkpt lat="40.01585776917636394500732421875" lon="-0.698282606899738311767578125">
        <ele>987.20001220703125</ele>
        <time>2021-09-27T06:35:36.000Z</time>
      </trkpt>
      <trkpt lat="40.01577177084982395172119140625" lon="-0.6982334889471530914306640625">
        <ele>987.4000244140625</ele>
        <time>2021-09-27T06:35:38.000Z</time>
      </trkpt>
      <trkpt lat="40.01568091101944446563720703125" lon="-0.69818562828004360198974609375">
        <ele>987.5999755859375</ele>
        <time>2021-09-27T06:35:40.000Z</time>
      </trkpt>
      <trkpt lat="40.01558720134198665618896484375" lon="-0.69813433103263378143310546875">
        <ele>987.5999755859375</ele>
        <time>2021-09-27T06:35:42.000Z</time>
      </trkpt>
      <trkpt lat="40.0154979340732097625732421875" lon="-0.69807984866201877593994140625">
        <ele>987.79998779296875</ele>
        <time>2021-09-27T06:35:44.000Z</time>
      </trkpt>
      <trkpt lat="40.0154109299182891845703125" lon="-0.69803349673748016357421875">
        <ele>988</ele>
        <time>2021-09-27T06:35:46.000Z</time>
      </trkpt>
      <trkpt lat="40.01532099209725856781005859375" lon="-0.69798328913748264312744140625">
        <ele>988.20001220703125</ele>
        <time>2021-09-27T06:35:48.000Z</time>
      </trkpt>
      <trkpt lat="40.01523113809525966644287109375" lon="-0.69794154725968837738037109375">
        <ele>988.5999755859375</ele>
        <time>2021-09-27T06:35:50.000Z</time>
      </trkpt>
      <trkpt lat="40.015146732330322265625" lon="-0.69789745844900608062744140625">
        <ele>988.79998779296875</ele>
        <time>2021-09-27T06:35:52.000Z</time>
      </trkpt>
      <trkpt lat="40.015060566365718841552734375" lon="-0.69785018451511859893798828125">
        <ele>989</ele>
        <time>2021-09-27T06:35:54.000Z</time>
      </trkpt>
      <trkpt lat="40.0149775855243206024169921875" lon="-0.6978066824376583099365234375">
        <ele>989.4000244140625</ele>
        <time>2021-09-27T06:35:56.000Z</time>
      </trkpt>
      <trkpt lat="40.0148941017687320709228515625" lon="-0.6977627612650394439697265625">
        <ele>989.5999755859375</ele>
        <time>2021-09-27T06:35:58.000Z</time>
      </trkpt>
      <trkpt lat="40.01481405459344387054443359375" lon="-0.69771523587405681610107421875">
        <ele>989.5999755859375</ele>
        <time>2021-09-27T06:36:00.000Z</time>
      </trkpt>
      <trkpt lat="40.0147341750562191009521484375" lon="-0.69766645319759845733642578125">
        <ele>989.5999755859375</ele>
        <time>2021-09-27T06:36:02.000Z</time>
      </trkpt>
      <trkpt lat="40.0146570615470409393310546875" lon="-0.69762320257723331451416015625">
        <ele>989.4000244140625</ele>
        <time>2021-09-27T06:36:04.000Z</time>
      </trkpt>
      <trkpt lat="40.01457617618143558502197265625" lon="-0.69757726974785327911376953125">
        <ele>989.4000244140625</ele>
        <time>2021-09-27T06:36:06.000Z</time>
      </trkpt>
      <trkpt lat="40.0144978053867816925048828125" lon="-0.6975357793271541595458984375">
        <ele>989.79998779296875</ele>
        <time>2021-09-27T06:36:08.000Z</time>
      </trkpt>
      <trkpt lat="40.01442027278244495391845703125" lon="-0.697503425180912017822265625">
        <ele>990</ele>
        <time>2021-09-27T06:36:10.000Z</time>
      </trkpt>
      <trkpt lat="40.01437936909496784210205078125" lon="-0.6974864937365055084228515625">
        <ele>990.20001220703125</ele>
        <time>2021-09-27T06:36:11.000Z</time>
      </trkpt>
      <trkpt lat="40.0143355317413806915283203125" lon="-0.6974707357585430145263671875">
        <ele>990.4000244140625</ele>
        <time>2021-09-27T06:36:12.000Z</time>
      </trkpt>
      <trkpt lat="40.0142389722168445587158203125" lon="-0.697433017194271087646484375">
        <ele>991</ele>
        <time>2021-09-27T06:36:14.000Z</time>
      </trkpt>
      <trkpt lat="40.0141910277307033538818359375" lon="-0.69741231389343738555908203125">
        <ele>991.20001220703125</ele>
        <time>2021-09-27T06:36:15.000Z</time>
      </trkpt>
      <trkpt lat="40.014145262539386749267578125" lon="-0.69739068858325481414794921875">
        <ele>991.4000244140625</ele>
        <time>2021-09-27T06:36:16.000Z</time>
      </trkpt>
      <trkpt lat="40.0140528939664363861083984375" lon="-0.6973567418754100799560546875">
        <ele>991.79998779296875</ele>
        <time>2021-09-27T06:36:18.000Z</time>
      </trkpt>
      <trkpt lat="40.01396429724991321563720703125" lon="-0.69732028059661388397216796875">
        <ele>992.20001220703125</ele>
        <time>2021-09-27T06:36:20.000Z</time>
      </trkpt>
      <trkpt lat="40.0138748623430728912353515625" lon="-0.6972836516797542572021484375">
        <ele>992.5999755859375</ele>
        <time>2021-09-27T06:36:22.000Z</time>
      </trkpt>
      <trkpt lat="40.01378861255943775177001953125" lon="-0.697251297533512115478515625">
        <ele>993</ele>
        <time>2021-09-27T06:36:24.000Z</time>
      </trkpt>
      <trkpt lat="40.013702698051929473876953125" lon="-0.697219781577587127685546875">
        <ele>993.20001220703125</ele>
        <time>2021-09-27T06:36:26.000Z</time>
      </trkpt>
      <trkpt lat="40.01361460424959659576416015625" lon="-0.69719103164970874786376953125">
        <ele>993.4000244140625</ele>
        <time>2021-09-27T06:36:28.000Z</time>
      </trkpt>
      <trkpt lat="40.0135694257915019989013671875" lon="-0.69717577658593654632568359375">
        <ele>993.4000244140625</ele>
        <time>2021-09-27T06:36:29.000Z</time>
      </trkpt>
      <trkpt lat="40.0135255046188831329345703125" lon="-0.6971589289605617523193359375">
        <ele>993.4000244140625</ele>
        <time>2021-09-27T06:36:30.000Z</time>
      </trkpt>
      <trkpt lat="40.0134393386542797088623046875" lon="-0.69712514989078044891357421875">
        <ele>993.5999755859375</ele>
        <time>2021-09-27T06:36:32.000Z</time>
      </trkpt>
      <trkpt lat="40.01335040666162967681884765625" lon="-0.69709606468677520751953125">
        <ele>993.79998779296875</ele>
        <time>2021-09-27T06:36:34.000Z</time>
      </trkpt>
      <trkpt lat="40.01326055265963077545166015625" lon="-0.69706999696791172027587890625">
        <ele>994</ele>
        <time>2021-09-27T06:36:36.000Z</time>
      </trkpt>
      <trkpt lat="40.01317120157182216644287109375" lon="-0.69704686291515827178955078125">
        <ele>994.20001220703125</ele>
        <time>2021-09-27T06:36:38.000Z</time>
      </trkpt>
      <trkpt lat="40.01308285631239414215087890625" lon="-0.697025991976261138916015625">
        <ele>994.4000244140625</ele>
        <time>2021-09-27T06:36:40.000Z</time>
      </trkpt>
      <trkpt lat="40.01299652270972728729248046875" lon="-0.697012245655059814453125">
        <ele>994.20001220703125</ele>
        <time>2021-09-27T06:36:42.000Z</time>
      </trkpt>
      <trkpt lat="40.01295327208936214447021484375" lon="-0.69699975661933422088623046875">
        <ele>994</ele>
        <time>2021-09-27T06:36:43.000Z</time>
      </trkpt>
      <trkpt lat="40.012909434735774993896484375" lon="-0.69698735140264034271240234375">
        <ele>994</ele>
        <time>2021-09-27T06:36:44.000Z</time>
      </trkpt>
      <trkpt lat="40.01282033510506153106689453125" lon="-0.6969634629786014556884765625">
        <ele>994</ele>
        <time>2021-09-27T06:36:46.000Z</time>
      </trkpt>
      <trkpt lat="40.012729726731777191162109375" lon="-0.69694024510681629180908203125">
        <ele>994</ele>
        <time>2021-09-27T06:36:48.000Z</time>
      </trkpt>
      <trkpt lat="40.01263861544430255889892578125" lon="-0.69692012853920459747314453125">
        <ele>994</ele>
        <time>2021-09-27T06:36:50.000Z</time>
      </trkpt>
      <trkpt lat="40.0125490128993988037109375" lon="-0.6968954019248485565185546875">
        <ele>994</ele>
        <time>2021-09-27T06:36:52.000Z</time>
      </trkpt>
      <trkpt lat="40.01246511004865169525146484375" lon="-0.6968741118907928466796875">
        <ele>994</ele>
        <time>2021-09-27T06:36:54.000Z</time>
      </trkpt>
      <trkpt lat="40.0123778544366359710693359375" lon="-0.69685290567576885223388671875">
        <ele>994</ele>
        <time>2021-09-27T06:36:56.000Z</time>
      </trkpt>
      <trkpt lat="40.0122861564159393310546875" lon="-0.696837902069091796875">
        <ele>993.79998779296875</ele>
        <time>2021-09-27T06:36:58.000Z</time>
      </trkpt>
      <trkpt lat="40.0121924467384815216064453125" lon="-0.6968239881098270416259765625">
        <ele>993.79998779296875</ele>
        <time>2021-09-27T06:37:00.000Z</time>
      </trkpt>
      <trkpt lat="40.01210200600326061248779296875" lon="-0.69681066088378429412841796875">
        <ele>993.5999755859375</ele>
        <time>2021-09-27T06:37:02.000Z</time>
      </trkpt>
      <trkpt lat="40.0120134092867374420166015625" lon="-0.69679842330515384674072265625">
        <ele>993.4000244140625</ele>
        <time>2021-09-27T06:37:04.000Z</time>
      </trkpt>
      <trkpt lat="40.01196957193315029144287109375" lon="-0.6967934779822826385498046875">
        <ele>993.20001220703125</ele>
        <time>2021-09-27T06:37:05.000Z</time>
      </trkpt>
      <trkpt lat="40.01193151809275150299072265625" lon="-0.69679037667810916900634765625">
        <ele>993</ele>
        <time>2021-09-27T06:37:06.000Z</time>
      </trkpt>
      <trkpt lat="40.0118601880967617034912109375" lon="-0.69678115658462047576904296875">
        <ele>992.5999755859375</ele>
        <time>2021-09-27T06:37:08.000Z</time>
      </trkpt>
      <trkpt lat="40.01178232021629810333251953125" lon="-0.69677889347076416015625">
        <ele>992.4000244140625</ele>
        <time>2021-09-27T06:37:10.000Z</time>
      </trkpt>
      <trkpt lat="40.01169816590845584869384765625" lon="-0.69677310995757579803466796875">
        <ele>992</ele>
        <time>2021-09-27T06:37:12.000Z</time>
      </trkpt>
      <trkpt lat="40.01165122725069522857666015625" lon="-0.69676824845373630523681640625">
        <ele>991.79998779296875</ele>
        <time>2021-09-27T06:37:13.000Z</time>
      </trkpt>
      <trkpt lat="40.01160428859293460845947265625" lon="-0.69676271639764308929443359375">
        <ele>991.79998779296875</ele>
        <time>2021-09-27T06:37:14.000Z</time>
      </trkpt>
      <trkpt lat="40.011512003839015960693359375" lon="-0.6967555917799472808837890625">
        <ele>991.4000244140625</ele>
        <time>2021-09-27T06:37:16.000Z</time>
      </trkpt>
      <trkpt lat="40.01141284592449665069580078125" lon="-0.6967515684664249420166015625">
        <ele>991.20001220703125</ele>
        <time>2021-09-27T06:37:18.000Z</time>
      </trkpt>
      <trkpt lat="40.0113156996667385101318359375" lon="-0.69675265811383724212646484375">
        <ele>991</ele>
        <time>2021-09-27T06:37:20.000Z</time>
      </trkpt>
      <trkpt lat="40.01126892864704132080078125" lon="-0.69674880243837833404541015625">
        <ele>990.79998779296875</ele>
        <time>2021-09-27T06:37:21.000Z</time>
      </trkpt>
      <trkpt lat="40.0112194754183292388916015625" lon="-0.69674712605774402618408203125">
        <ele>990.79998779296875</ele>
        <time>2021-09-27T06:37:22.000Z</time>
      </trkpt>
      <trkpt lat="40.01111872494220733642578125" lon="-0.69674410857260227203369140625">
        <ele>990.5999755859375</ele>
        <time>2021-09-27T06:37:24.000Z</time>
      </trkpt>
      <trkpt lat="40.01101688481867313385009765625" lon="-0.69673807360231876373291015625">
        <ele>990.5999755859375</ele>
        <time>2021-09-27T06:37:26.000Z</time>
      </trkpt>
      <trkpt lat="40.010916553437709808349609375" lon="-0.69673052988946437835693359375">
        <ele>990.4000244140625</ele>
        <time>2021-09-27T06:37:28.000Z</time>
      </trkpt>
      <trkpt lat="40.0108164735138416290283203125" lon="-0.6967291049659252166748046875">
        <ele>990.4000244140625</ele>
        <time>2021-09-27T06:37:30.000Z</time>
      </trkpt>
      <trkpt lat="40.010708011686801910400390625" lon="-0.69672751240432262420654296875">
        <ele>990.4000244140625</ele>
        <time>2021-09-27T06:37:32.000Z</time>
      </trkpt>
      <trkpt lat="40.010596029460430145263671875" lon="-0.6967250816524028778076171875">
        <ele>990.20001220703125</ele>
        <time>2021-09-27T06:37:34.000Z</time>
      </trkpt>
      <trkpt lat="40.01049150712788105010986328125" lon="-0.696722902357578277587890625">
        <ele>990.20001220703125</ele>
        <time>2021-09-27T06:37:36.000Z</time>
      </trkpt>
      <trkpt lat="40.01039410941302776336669921875" lon="-0.696724243462085723876953125">
        <ele>990.20001220703125</ele>
        <time>2021-09-27T06:37:38.000Z</time>
      </trkpt>
      <trkpt lat="40.01034683547914028167724609375" lon="-0.69671913050115108489990234375">
        <ele>990.20001220703125</ele>
        <time>2021-09-27T06:37:39.000Z</time>
      </trkpt>
      <trkpt lat="40.0103014893829822540283203125" lon="-0.69671443663537502288818359375">
        <ele>990</ele>
        <time>2021-09-27T06:37:40.000Z</time>
      </trkpt>
      <trkpt lat="40.01025647856295108795166015625" lon="-0.69670982658863067626953125">
        <ele>989.79998779296875</ele>
        <time>2021-09-27T06:37:41.000Z</time>
      </trkpt>
      <trkpt lat="40.0102092884480953216552734375" lon="-0.6967046298086643218994140625">
        <ele>989.79998779296875</ele>
        <time>2021-09-27T06:37:42.000Z</time>
      </trkpt>
      <trkpt lat="40.010109208524227142333984375" lon="-0.69670052267611026763916015625">
        <ele>989.4000244140625</ele>
        <time>2021-09-27T06:37:44.000Z</time>
      </trkpt>
      <trkpt lat="40.0100067816674709320068359375" lon="-0.69669616408646106719970703125">
        <ele>989.4000244140625</ele>
        <time>2021-09-27T06:37:46.000Z</time>
      </trkpt>
      <trkpt lat="40.0099082104861736297607421875" lon="-0.6966932304203510284423828125">
        <ele>989.4000244140625</ele>
        <time>2021-09-27T06:37:48.000Z</time>
      </trkpt>
      <trkpt lat="40.009807460010051727294921875" lon="-0.696688033640384674072265625">
        <ele>989.4000244140625</ele>
        <time>2021-09-27T06:37:50.000Z</time>
      </trkpt>
      <trkpt lat="40.00970629043877124786376953125" lon="-0.69668694399297237396240234375">
        <ele>989.4000244140625</ele>
        <time>2021-09-27T06:37:52.000Z</time>
      </trkpt>
      <trkpt lat="40.00960252247750759124755859375" lon="-0.6966836750507354736328125">
        <ele>989.4000244140625</ele>
        <time>2021-09-27T06:37:54.000Z</time>
      </trkpt>
      <trkpt lat="40.0095005147159099578857421875" lon="-0.6966794840991497039794921875">
        <ele>989</ele>
        <time>2021-09-27T06:37:56.000Z</time>
      </trkpt>
      <trkpt lat="40.00939029268920421600341796875" lon="-0.696673281490802764892578125">
        <ele>988.4000244140625</ele>
        <time>2021-09-27T06:37:58.000Z</time>
      </trkpt>
      <trkpt lat="40.00928065739572048187255859375" lon="-0.6966727785766124725341796875">
        <ele>988</ele>
        <time>2021-09-27T06:38:00.000Z</time>
      </trkpt>
      <trkpt lat="40.00917420722544193267822265625" lon="-0.69666950963437557220458984375">
        <ele>987.79998779296875</ele>
        <time>2021-09-27T06:38:02.000Z</time>
      </trkpt>
      <trkpt lat="40.00906951725482940673828125" lon="-0.69666783325374126434326171875">
        <ele>987.5999755859375</ele>
        <time>2021-09-27T06:38:04.000Z</time>
      </trkpt>
      <trkpt lat="40.008956529200077056884765625" lon="-0.6966650672256946563720703125">
        <ele>987.5999755859375</ele>
        <time>2021-09-27T06:38:06.000Z</time>
      </trkpt>
      <trkpt lat="40.00884630717337131500244140625" lon="-0.6966633908450603485107421875">
        <ele>987.4000244140625</ele>
        <time>2021-09-27T06:38:08.000Z</time>
      </trkpt>
      <trkpt lat="40.0087357498705387115478515625" lon="-0.69665609858930110931396484375">
        <ele>987.4000244140625</ele>
        <time>2021-09-27T06:38:10.000Z</time>
      </trkpt>
      <trkpt lat="40.00862217508256435394287109375" lon="-0.696648471057415008544921875">
        <ele>987.4000244140625</ele>
        <time>2021-09-27T06:38:12.000Z</time>
      </trkpt>
      <trkpt lat="40.00851698219776153564453125" lon="-0.6966434419155120849609375">
        <ele>987.5999755859375</ele>
        <time>2021-09-27T06:38:14.000Z</time>
      </trkpt>
      <trkpt lat="40.00840692780911922454833984375" lon="-0.69663598202168941497802734375">
        <ele>987.5999755859375</ele>
        <time>2021-09-27T06:38:16.000Z</time>
      </trkpt>
      <trkpt lat="40.0082925148308277130126953125" lon="-0.69663011468946933746337890625">
        <ele>987.5999755859375</ele>
        <time>2021-09-27T06:38:18.000Z</time>
      </trkpt>
      <trkpt lat="40.008172653615474700927734375" lon="-0.69662399590015411376953125">
        <ele>987.5999755859375</ele>
        <time>2021-09-27T06:38:20.000Z</time>
      </trkpt>
      <trkpt lat="40.00805237330496311187744140625" lon="-0.69661838002502918243408203125">
        <ele>987.5999755859375</ele>
        <time>2021-09-27T06:38:22.000Z</time>
      </trkpt>
      <trkpt lat="40.0079337693750858306884765625" lon="-0.69661670364439487457275390625">
        <ele>987.5999755859375</ele>
        <time>2021-09-27T06:38:24.000Z</time>
      </trkpt>
      <trkpt lat="40.00781902112066745758056640625" lon="-0.69661703892052173614501953125">
        <ele>987.4000244140625</ele>
        <time>2021-09-27T06:38:26.000Z</time>
      </trkpt>
      <trkpt lat="40.00775992870330810546875" lon="-0.69661586545407772064208984375">
        <ele>987.4000244140625</ele>
        <time>2021-09-27T06:38:27.000Z</time>
      </trkpt>
      <trkpt lat="40.00770234502851963043212890625" lon="-0.6966134347021579742431640625">
        <ele>987.20001220703125</ele>
        <time>2021-09-27T06:38:28.000Z</time>
      </trkpt>
      <trkpt lat="40.00759698450565338134765625" lon="-0.69661167450249195098876953125">
        <ele>987</ele>
        <time>2021-09-27T06:38:30.000Z</time>
      </trkpt>
      <trkpt lat="40.0074811466038227081298828125" lon="-0.6966043822467327117919921875">
        <ele>987</ele>
        <time>2021-09-27T06:38:32.000Z</time>
      </trkpt>
      <trkpt lat="40.0073589384555816650390625" lon="-0.69660161621868610382080078125">
        <ele>986.79998779296875</ele>
        <time>2021-09-27T06:38:34.000Z</time>
      </trkpt>
      <trkpt lat="40.00723463483154773712158203125" lon="-0.69659356959164142608642578125">
        <ele>986.5999755859375</ele>
        <time>2021-09-27T06:38:36.000Z</time>
      </trkpt>
      <trkpt lat="40.00711544416844844818115234375" lon="-0.696588791906833648681640625">
        <ele>986.5999755859375</ele>
        <time>2021-09-27T06:38:38.000Z</time>
      </trkpt>
      <trkpt lat="40.00700094737112522125244140625" lon="-0.69658334366977214813232421875">
        <ele>986</ele>
        <time>2021-09-27T06:38:40.000Z</time>
      </trkpt>
      <trkpt lat="40.00694327987730503082275390625" lon="-0.6965809129178524017333984375">
        <ele>985.5999755859375</ele>
        <time>2021-09-27T06:38:41.000Z</time>
      </trkpt>
      <trkpt lat="40.00688896514475345611572265625" lon="-0.6965762190520763397216796875">
        <ele>985.4000244140625</ele>
        <time>2021-09-27T06:38:42.000Z</time>
      </trkpt>
      <trkpt lat="40.0067857839167118072509765625" lon="-0.6965735368430614471435546875">
        <ele>985</ele>
        <time>2021-09-27T06:38:44.000Z</time>
      </trkpt>
      <trkpt lat="40.006676651537418365478515625" lon="-0.69656901061534881591796875">
        <ele>984.5999755859375</ele>
        <time>2021-09-27T06:38:46.000Z</time>
      </trkpt>
      <trkpt lat="40.00662359409034252166748046875" lon="-0.69656909443438053131103515625">
        <ele>984.4000244140625</ele>
        <time>2021-09-27T06:38:47.000Z</time>
      </trkpt>
      <trkpt lat="40.00656894408166408538818359375" lon="-0.696567334234714508056640625">
        <ele>984.20001220703125</ele>
        <time>2021-09-27T06:38:48.000Z</time>
      </trkpt>
      <trkpt lat="40.0064555369317531585693359375" lon="-0.69656222127377986907958984375">
        <ele>983.79998779296875</ele>
        <time>2021-09-27T06:38:50.000Z</time>
      </trkpt>
      <trkpt lat="40.00634447671473026275634765625" lon="-0.6965591199696063995361328125">
        <ele>983.4000244140625</ele>
        <time>2021-09-27T06:38:52.000Z</time>
      </trkpt>
      <trkpt lat="40.00623081810772418975830078125" lon="-0.69655166007578372955322265625">
        <ele>983.20001220703125</ele>
        <time>2021-09-27T06:38:54.000Z</time>
      </trkpt>
      <trkpt lat="40.00616996549069881439208984375" lon="-0.69654897786676883697509765625">
        <ele>983.4000244140625</ele>
        <time>2021-09-27T06:38:55.000Z</time>
      </trkpt>
      <trkpt lat="40.00610877759754657745361328125" lon="-0.69654596038162708282470703125">
        <ele>983.4000244140625</ele>
        <time>2021-09-27T06:38:56.000Z</time>
      </trkpt>
      <trkpt lat="40.005989335477352142333984375" lon="-0.69654109887778759002685546875">
        <ele>983.5999755859375</ele>
        <time>2021-09-27T06:38:58.000Z</time>
      </trkpt>
      <trkpt lat="40.00587341375648975372314453125" lon="-0.69653690792620182037353515625">
        <ele>983.79998779296875</ele>
        <time>2021-09-27T06:39:00.000Z</time>
      </trkpt>
      <trkpt lat="40.00576092861592769622802734375" lon="-0.69653741084039211273193359375">
        <ele>984</ele>
        <time>2021-09-27T06:39:02.000Z</time>
      </trkpt>
      <trkpt lat="40.0056491978466510772705078125" lon="-0.6965343095362186431884765625">
        <ele>984.20001220703125</ele>
        <time>2021-09-27T06:39:04.000Z</time>
      </trkpt>
      <trkpt lat="40.005532689392566680908203125" lon="-0.69653087295591831207275390625">
        <ele>984.20001220703125</ele>
        <time>2021-09-27T06:39:06.000Z</time>
      </trkpt>
      <trkpt lat="40.0054156780242919921875" lon="-0.696526430547237396240234375">
        <ele>984.4000244140625</ele>
        <time>2021-09-27T06:39:08.000Z</time>
      </trkpt>
      <trkpt lat="40.00530394725501537322998046875" lon="-0.696519725024700164794921875">
        <ele>984.4000244140625</ele>
        <time>2021-09-27T06:39:10.000Z</time>
      </trkpt>
      <trkpt lat="40.0051962397992610931396484375" lon="-0.69652114994823932647705078125">
        <ele>984.20001220703125</ele>
        <time>2021-09-27T06:39:12.000Z</time>
      </trkpt>
      <trkpt lat="40.00507570803165435791015625" lon="-0.69651813246309757232666015625">
        <ele>984.20001220703125</ele>
        <time>2021-09-27T06:39:14.000Z</time>
      </trkpt>
      <trkpt lat="40.005013681948184967041015625" lon="-0.69651461206376552581787109375">
        <ele>984.20001220703125</ele>
        <time>2021-09-27T06:39:15.000Z</time>
      </trkpt>
      <trkpt lat="40.00495643354952335357666015625" lon="-0.69650908000767230987548828125">
        <ele>984.4000244140625</ele>
        <time>2021-09-27T06:39:16.000Z</time>
      </trkpt>
      <trkpt lat="40.00484847463667392730712890625" lon="-0.69649885408580303192138671875">
        <ele>984.4000244140625</ele>
        <time>2021-09-27T06:39:18.000Z</time>
      </trkpt>
      <trkpt lat="40.004737414419651031494140625" lon="-0.6964940764009952545166015625">
        <ele>984.4000244140625</ele>
        <time>2021-09-27T06:39:20.000Z</time>
      </trkpt>
      <trkpt lat="40.00468150712549686431884765625" lon="-0.69649114273488521575927734375">
        <ele>984.4000244140625</ele>
        <time>2021-09-27T06:39:21.000Z</time>
      </trkpt>
      <trkpt lat="40.004626102745532989501953125" lon="-0.696489550173282623291015625">
        <ele>984.4000244140625</ele>
        <time>2021-09-27T06:39:22.000Z</time>
      </trkpt>
      <trkpt lat="40.00451370142400264739990234375" lon="-0.69648410193622112274169921875">
        <ele>984.5999755859375</ele>
        <time>2021-09-27T06:39:24.000Z</time>
      </trkpt>
      <trkpt lat="40.00440943054854869842529296875" lon="-0.6964786536991596221923828125">
        <ele>984.79998779296875</ele>
        <time>2021-09-27T06:39:26.000Z</time>
      </trkpt>
      <trkpt lat="40.004311613738536834716796875" lon="-0.6964736245572566986083984375">
        <ele>984.79998779296875</ele>
        <time>2021-09-27T06:39:28.000Z</time>
      </trkpt>
      <trkpt lat="40.00421061180531978607177734375" lon="-0.69647370837628841400146484375">
        <ele>984.79998779296875</ele>
        <time>2021-09-27T06:39:30.000Z</time>
      </trkpt>
      <trkpt lat="40.00410315580666065216064453125" lon="-0.69647270254790782928466796875">
        <ele>984.79998779296875</ele>
        <time>2021-09-27T06:39:32.000Z</time>
      </trkpt>
      <trkpt lat="40.00399167649447917938232421875" lon="-0.69646465592086315155029296875">
        <ele>984.79998779296875</ele>
        <time>2021-09-27T06:39:34.000Z</time>
      </trkpt>
      <trkpt lat="40.003934763371944427490234375" lon="-0.69646365009248256683349609375">
        <ele>984.79998779296875</ele>
        <time>2021-09-27T06:39:35.000Z</time>
      </trkpt>
      <trkpt lat="40.00387852080166339874267578125" lon="-0.69646247662603855133056640625">
        <ele>984.79998779296875</ele>
        <time>2021-09-27T06:39:36.000Z</time>
      </trkpt>
      <trkpt lat="40.00376570038497447967529296875" lon="-0.69646046496927738189697265625">
        <ele>984.79998779296875</ele>
        <time>2021-09-27T06:39:38.000Z</time>
      </trkpt>
      <trkpt lat="40.00364935956895351409912109375" lon="-0.6964555196464061737060546875">
        <ele>984.79998779296875</ele>
        <time>2021-09-27T06:39:40.000Z</time>
      </trkpt>
      <trkpt lat="40.00352916307747364044189453125" lon="-0.6964474730193614959716796875">
        <ele>985</ele>
        <time>2021-09-27T06:39:42.000Z</time>
      </trkpt>
      <trkpt lat="40.0034134089946746826171875" lon="-0.69644085131585597991943359375">
        <ele>985</ele>
        <time>2021-09-27T06:39:44.000Z</time>
      </trkpt>
      <trkpt lat="40.0033049471676349639892578125" lon="-0.69643582217395305633544921875">
        <ele>985</ele>
        <time>2021-09-27T06:39:46.000Z</time>
      </trkpt>
      <trkpt lat="40.0031988322734832763671875" lon="-0.6964369118213653564453125">
        <ele>985</ele>
        <time>2021-09-27T06:39:48.000Z</time>
      </trkpt>
      <trkpt lat="40.00308777205646038055419921875" lon="-0.6964350678026676177978515625">
        <ele>985</ele>
        <time>2021-09-27T06:39:50.000Z</time>
      </trkpt>
      <trkpt lat="40.0029743649065494537353515625" lon="-0.6964323855936527252197265625">
        <ele>985</ele>
        <time>2021-09-27T06:39:52.000Z</time>
      </trkpt>
      <trkpt lat="40.00286213122308254241943359375" lon="-0.696433223783969879150390625">
        <ele>985</ele>
        <time>2021-09-27T06:39:54.000Z</time>
      </trkpt>
      <trkpt lat="40.00275157392024993896484375" lon="-0.69642777554690837860107421875">
        <ele>984.79998779296875</ele>
        <time>2021-09-27T06:39:56.000Z</time>
      </trkpt>
      <trkpt lat="40.0026417709887027740478515625" lon="-0.69642324931919574737548828125">
        <ele>984.79998779296875</ele>
        <time>2021-09-27T06:39:58.000Z</time>
      </trkpt>
      <trkpt lat="40.0025291182100772857666015625" lon="-0.6964162923395633697509765625">
        <ele>984.5999755859375</ele>
        <time>2021-09-27T06:40:00.000Z</time>
      </trkpt>
      <trkpt lat="40.00241654925048351287841796875" lon="-0.69641235284507274627685546875">
        <ele>984.4000244140625</ele>
        <time>2021-09-27T06:40:02.000Z</time>
      </trkpt>
      <trkpt lat="40.00230188481509685516357421875" lon="-0.6964085809886455535888671875">
        <ele>984.4000244140625</ele>
        <time>2021-09-27T06:40:04.000Z</time>
      </trkpt>
      <trkpt lat="40.00224539078772068023681640625" lon="-0.69640631787478923797607421875">
        <ele>984.20001220703125</ele>
        <time>2021-09-27T06:40:05.000Z</time>
      </trkpt>
      <trkpt lat="40.00218738801777362823486328125" lon="-0.696403048932552337646484375">
        <ele>984.20001220703125</ele>
        <time>2021-09-27T06:40:06.000Z</time>
      </trkpt>
      <trkpt lat="40.002070628106594085693359375" lon="-0.69640195928514003753662109375">
        <ele>984</ele>
        <time>2021-09-27T06:40:08.000Z</time>
      </trkpt>
      <trkpt lat="40.0020107813179492950439453125" lon="-0.69639961235225200653076171875">
        <ele>984</ele>
        <time>2021-09-27T06:40:09.000Z</time>
      </trkpt>
      <trkpt lat="40.00195085071027278900146484375" lon="-0.6963961757719516754150390625">
        <ele>983.79998779296875</ele>
        <time>2021-09-27T06:40:10.000Z</time>
      </trkpt>
      <trkpt lat="40.001892261207103729248046875" lon="-0.69639391265809535980224609375">
        <ele>983.79998779296875</ele>
        <time>2021-09-27T06:40:11.000Z</time>
      </trkpt>
      <trkpt lat="40.001834928989410400390625" lon="-0.69639022462069988250732421875">
        <ele>983.79998779296875</ele>
        <time>2021-09-27T06:40:12.000Z</time>
      </trkpt>
      <trkpt lat="40.00177860260009765625" lon="-0.69638787768781185150146484375">
        <ele>983.5999755859375</ele>
        <time>2021-09-27T06:40:13.000Z</time>
      </trkpt>
      <trkpt lat="40.0017211027443408966064453125" lon="-0.69638620130717754364013671875">
        <ele>983.5999755859375</ele>
        <time>2021-09-27T06:40:14.000Z</time>
      </trkpt>
      <trkpt lat="40.00160492956638336181640625" lon="-0.69638192653656005859375">
        <ele>983.4000244140625</ele>
        <time>2021-09-27T06:40:16.000Z</time>
      </trkpt>
      <trkpt lat="40.0014911033213138580322265625" lon="-0.6963765621185302734375">
        <ele>983.4000244140625</ele>
        <time>2021-09-27T06:40:18.000Z</time>
      </trkpt>
      <trkpt lat="40.00137962400913238525390625" lon="-0.69637320935726165771484375">
        <ele>983.20001220703125</ele>
        <time>2021-09-27T06:40:20.000Z</time>
      </trkpt>
      <trkpt lat="40.00126889906823635101318359375" lon="-0.6963686831295490264892578125">
        <ele>983</ele>
        <time>2021-09-27T06:40:22.000Z</time>
      </trkpt>
      <trkpt lat="40.001213662326335906982421875" lon="-0.6963698565959930419921875">
        <ele>983</ele>
        <time>2021-09-27T06:40:23.000Z</time>
      </trkpt>
      <trkpt lat="40.0011554919183254241943359375" lon="-0.69636692292988300323486328125">
        <ele>982.79998779296875</ele>
        <time>2021-09-27T06:40:24.000Z</time>
      </trkpt>
      <trkpt lat="40.00103588216006755828857421875" lon="-0.6963618099689483642578125">
        <ele>982.79998779296875</ele>
        <time>2021-09-27T06:40:26.000Z</time>
      </trkpt>
      <trkpt lat="40.0009181164205074310302734375" lon="-0.696350745856761932373046875">
        <ele>982.5999755859375</ele>
        <time>2021-09-27T06:40:28.000Z</time>
      </trkpt>
      <trkpt lat="40.000801943242549896240234375" lon="-0.696341358125209808349609375">
        <ele>982.4000244140625</ele>
        <time>2021-09-27T06:40:30.000Z</time>
      </trkpt>
      <trkpt lat="40.0007427670061588287353515625" lon="-0.69634026847779750823974609375">
        <ele>982.4000244140625</ele>
        <time>2021-09-27T06:40:31.000Z</time>
      </trkpt>
      <trkpt lat="40.000685267150402069091796875" lon="-0.69633909501135349273681640625">
        <ele>982.4000244140625</ele>
        <time>2021-09-27T06:40:32.000Z</time>
      </trkpt>
      <trkpt lat="40.0005756318569183349609375" lon="-0.69633624516427516937255859375">
        <ele>982.20001220703125</ele>
        <time>2021-09-27T06:40:34.000Z</time>
      </trkpt>
      <trkpt lat="40.0004668347537517547607421875" lon="-0.696330964565277099609375">
        <ele>982.20001220703125</ele>
        <time>2021-09-27T06:40:36.000Z</time>
      </trkpt>
      <trkpt lat="40.00035376287996768951416015625" lon="-0.69632501341402530670166015625">
        <ele>981.79998779296875</ele>
        <time>2021-09-27T06:40:38.000Z</time>
      </trkpt>
      <trkpt lat="40.0002971850335597991943359375" lon="-0.696321912109851837158203125">
        <ele>981.79998779296875</ele>
        <time>2021-09-27T06:40:39.000Z</time>
      </trkpt>
      <trkpt lat="40.00023876316845417022705078125" lon="-0.69631746970117092132568359375">
        <ele>981.79998779296875</ele>
        <time>2021-09-27T06:40:40.000Z</time>
      </trkpt>
      <trkpt lat="40.000122673809528350830078125" lon="-0.69631428457796573638916015625">
        <ele>981.5999755859375</ele>
        <time>2021-09-27T06:40:42.000Z</time>
      </trkpt>
      <trkpt lat="40.0000048242509365081787109375" lon="-0.69630908779799938201904296875">
        <ele>981.4000244140625</ele>
        <time>2021-09-27T06:40:44.000Z</time>
      </trkpt>
      <trkpt lat="39.99988806433975696563720703125" lon="-0.69630615413188934326171875">
        <ele>981.20001220703125</ele>
        <time>2021-09-27T06:40:46.000Z</time>
      </trkpt>
      <trkpt lat="39.99977222643792629241943359375" lon="-0.69630481302738189697265625">
        <ele>981.20001220703125</ele>
        <time>2021-09-27T06:40:48.000Z</time>
      </trkpt>
      <trkpt lat="39.99971489422023296356201171875" lon="-0.6963026337325572967529296875">
        <ele>981</ele>
        <time>2021-09-27T06:40:49.000Z</time>
      </trkpt>
      <trkpt lat="39.999658651649951934814453125" lon="-0.696298442780971527099609375">
        <ele>981</ele>
        <time>2021-09-27T06:40:50.000Z</time>
      </trkpt>
      <trkpt lat="39.99954960308969020843505859375" lon="-0.69629433564841747283935546875">
        <ele>982.20001220703125</ele>
        <time>2021-09-27T06:40:52.000Z</time>
      </trkpt>
      <trkpt lat="39.99943762086331844329833984375" lon="-0.6962912343442440032958984375">
        <ele>982</ele>
        <time>2021-09-27T06:40:54.000Z</time>
      </trkpt>
      <trkpt lat="39.99932027421891689300537109375" lon="-0.69628310389816761016845703125">
        <ele>981.79998779296875</ele>
        <time>2021-09-27T06:40:56.000Z</time>
      </trkpt>
      <trkpt lat="39.99926143325865268707275390625" lon="-0.69628042168915271759033203125">
        <ele>981.79998779296875</ele>
        <time>2021-09-27T06:40:57.000Z</time>
      </trkpt>
      <trkpt lat="39.99920208938419818878173828125" lon="-0.6962786614894866943359375">
        <ele>981.79998779296875</ele>
        <time>2021-09-27T06:40:58.000Z</time>
      </trkpt>
      <trkpt lat="39.9990851618349552154541015625" lon="-0.69627396762371063232421875">
        <ele>981.5999755859375</ele>
        <time>2021-09-27T06:41:00.000Z</time>
      </trkpt>
      <trkpt lat="39.99896639026701450347900390625" lon="-0.69627036340534687042236328125">
        <ele>981.4000244140625</ele>
        <time>2021-09-27T06:41:02.000Z</time>
      </trkpt>
      <trkpt lat="39.99884367920458316802978515625" lon="-0.69626634009182453155517578125">
        <ele>981.4000244140625</ele>
        <time>2021-09-27T06:41:04.000Z</time>
      </trkpt>
      <trkpt lat="39.9987222254276275634765625" lon="-0.69626181386411190032958984375">
        <ele>981.4000244140625</ele>
        <time>2021-09-27T06:41:06.000Z</time>
      </trkpt>
      <trkpt lat="39.99860228039324283599853515625" lon="-0.69625644944608211517333984375">
        <ele>981</ele>
        <time>2021-09-27T06:41:08.000Z</time>
      </trkpt>
      <trkpt lat="39.99847973696887493133544921875" lon="-0.6962526775896549224853515625">
        <ele>980.79998779296875</ele>
        <time>2021-09-27T06:41:10.000Z</time>
      </trkpt>
      <trkpt lat="39.99835249967873096466064453125" lon="-0.69624437950551509857177734375">
        <ele>980.4000244140625</ele>
        <time>2021-09-27T06:41:12.000Z</time>
      </trkpt>
      <trkpt lat="39.99822559766471385955810546875" lon="-0.69624152965843677520751953125">
        <ele>980.20001220703125</ele>
        <time>2021-09-27T06:41:14.000Z</time>
      </trkpt>
      <trkpt lat="39.99809517525136470794677734375" lon="-0.69623700343072414398193359375">
        <ele>979.79998779296875</ele>
        <time>2021-09-27T06:41:16.000Z</time>
      </trkpt>
      <trkpt lat="39.9979656748473644256591796875" lon="-0.696228034794330596923828125">
        <ele>979.5999755859375</ele>
        <time>2021-09-27T06:41:18.000Z</time>
      </trkpt>
      <trkpt lat="39.99784003011882305145263671875" lon="-0.6962238438427448272705078125">
        <ele>979.20001220703125</ele>
        <time>2021-09-27T06:41:20.000Z</time>
      </trkpt>
      <trkpt lat="39.99771773815155029296875" lon="-0.69621898233890533447265625">
        <ele>979.20001220703125</ele>
        <time>2021-09-27T06:41:22.000Z</time>
      </trkpt>
      <trkpt lat="39.99759913422167301177978515625" lon="-0.69621755741536617279052734375">
        <ele>979</ele>
        <time>2021-09-27T06:41:24.000Z</time>
      </trkpt>
      <trkpt lat="39.99753794632852077484130859375" lon="-0.6962141208350658416748046875">
        <ele>979</ele>
        <time>2021-09-27T06:41:25.000Z</time>
      </trkpt>
      <trkpt lat="39.997476674616336822509765625" lon="-0.69621504284441471099853515625">
        <ele>978.79998779296875</ele>
        <time>2021-09-27T06:41:26.000Z</time>
      </trkpt>
      <trkpt lat="39.9973541311919689178466796875" lon="-0.696211941540241241455078125">
        <ele>978.5999755859375</ele>
        <time>2021-09-27T06:41:28.000Z</time>
      </trkpt>
      <trkpt lat="39.99722748063504695892333984375" lon="-0.69620599038898944854736328125">
        <ele>978.5999755859375</ele>
        <time>2021-09-27T06:41:30.000Z</time>
      </trkpt>
      <trkpt lat="39.997100830078125" lon="-0.69620263762772083282470703125">
        <ele>978.20001220703125</ele>
        <time>2021-09-27T06:41:32.000Z</time>
      </trkpt>
      <trkpt lat="39.99697602353990077972412109375" lon="-0.69619760848581790924072265625">
        <ele>978</ele>
        <time>2021-09-27T06:41:34.000Z</time>
      </trkpt>
      <trkpt lat="39.99685331247746944427490234375" lon="-0.6961929984390735626220703125">
        <ele>977.5999755859375</ele>
        <time>2021-09-27T06:41:36.000Z</time>
      </trkpt>
      <trkpt lat="39.99673294834792613983154296875" lon="-0.696191824972629547119140625">
        <ele>977.4000244140625</ele>
        <time>2021-09-27T06:41:38.000Z</time>
      </trkpt>
      <trkpt lat="39.9966711737215518951416015625" lon="-0.6961916573345661163330078125">
        <ele>977.20001220703125</ele>
        <time>2021-09-27T06:41:39.000Z</time>
      </trkpt>
      <trkpt lat="39.996608980000019073486328125" lon="-0.69619174115359783172607421875">
        <ele>977</ele>
        <time>2021-09-27T06:41:40.000Z</time>
      </trkpt>
      <trkpt lat="39.99648182652890682220458984375" lon="-0.6961955130100250244140625">
        <ele>976.79998779296875</ele>
        <time>2021-09-27T06:41:42.000Z</time>
      </trkpt>
      <trkpt lat="39.99635584652423858642578125" lon="-0.69619308225810527801513671875">
        <ele>976.4000244140625</ele>
        <time>2021-09-27T06:41:44.000Z</time>
      </trkpt>
      <trkpt lat="39.9962929822504520416259765625" lon="-0.6961906515061855316162109375">
        <ele>976.4000244140625</ele>
        <time>2021-09-27T06:41:45.000Z</time>
      </trkpt>
      <trkpt lat="39.99623070470988750457763671875" lon="-0.69619023241102695465087890625">
        <ele>976.20001220703125</ele>
        <time>2021-09-27T06:41:46.000Z</time>
      </trkpt>
      <trkpt lat="39.9961655773222446441650390625" lon="-0.69619073532521724700927734375">
        <ele>976.20001220703125</ele>
        <time>2021-09-27T06:41:47.000Z</time>
      </trkpt>
      <trkpt lat="39.99609894119203090667724609375" lon="-0.6961893104016780853271484375">
        <ele>976.20001220703125</ele>
        <time>2021-09-27T06:41:48.000Z</time>
      </trkpt>
      <trkpt lat="39.99595820903778076171875" lon="-0.6961856223642826080322265625">
        <ele>976.20001220703125</ele>
        <time>2021-09-27T06:41:50.000Z</time>
      </trkpt>
      <trkpt lat="39.99588754959404468536376953125" lon="-0.69618235342204570770263671875">
        <ele>976.20001220703125</ele>
        <time>2021-09-27T06:41:51.000Z</time>
      </trkpt>
      <trkpt lat="39.99581781215965747833251953125" lon="-0.69617807865142822265625">
        <ele>976.20001220703125</ele>
        <time>2021-09-27T06:41:52.000Z</time>
      </trkpt>
      <trkpt lat="39.9957481585443019866943359375" lon="-0.69617514498531818389892578125">
        <ele>976.20001220703125</ele>
        <time>2021-09-27T06:41:53.000Z</time>
      </trkpt>
      <trkpt lat="39.99568018130958080291748046875" lon="-0.696173049509525299072265625">
        <ele>976.20001220703125</ele>
        <time>2021-09-27T06:41:54.000Z</time>
      </trkpt>
      <trkpt lat="39.99561346136033535003662109375" lon="-0.696170367300510406494140625">
        <ele>976.20001220703125</ele>
        <time>2021-09-27T06:41:55.000Z</time>
      </trkpt>
      <trkpt lat="39.99554716050624847412109375" lon="-0.6961685232818126678466796875">
        <ele>976.4000244140625</ele>
        <time>2021-09-27T06:41:56.000Z</time>
      </trkpt>
      <trkpt lat="39.99541715718805789947509765625" lon="-0.69616265594959259033203125">
        <ele>976.79998779296875</ele>
        <time>2021-09-27T06:41:58.000Z</time>
      </trkpt>
      <trkpt lat="39.9952888302505016326904296875" lon="-0.69615318439900875091552734375">
        <ele>976.5999755859375</ele>
        <time>2021-09-27T06:42:00.000Z</time>
      </trkpt>
      <trkpt lat="39.99516754411160945892333984375" lon="-0.6961433775722980499267578125">
        <ele>976.5999755859375</ele>
        <time>2021-09-27T06:42:02.000Z</time>
      </trkpt>
      <trkpt lat="39.9950494430959224700927734375" lon="-0.69613675586879253387451171875">
        <ele>976.4000244140625</ele>
        <time>2021-09-27T06:42:04.000Z</time>
      </trkpt>
      <trkpt lat="39.994990937411785125732421875" lon="-0.69613306783139705657958984375">
        <ele>976.4000244140625</ele>
        <time>2021-09-27T06:42:05.000Z</time>
      </trkpt>
      <trkpt lat="39.99493251554667949676513671875" lon="-0.6961311399936676025390625">
        <ele>976.20001220703125</ele>
        <time>2021-09-27T06:42:06.000Z</time>
      </trkpt>
      <trkpt lat="39.99481198377907276153564453125" lon="-0.69612569175660610198974609375">
        <ele>976.20001220703125</ele>
        <time>2021-09-27T06:42:08.000Z</time>
      </trkpt>
      <trkpt lat="39.994691871106624603271484375" lon="-0.6961205787956714630126953125">
        <ele>975.79998779296875</ele>
        <time>2021-09-27T06:42:10.000Z</time>
      </trkpt>
      <trkpt lat="39.994571506977081298828125" lon="-0.6961145438253879547119140625">
        <ele>975.5999755859375</ele>
        <time>2021-09-27T06:42:12.000Z</time>
      </trkpt>
      <trkpt lat="39.99445189721882343292236328125" lon="-0.69611060433089733123779296875">
        <ele>976</ele>
        <time>2021-09-27T06:42:14.000Z</time>
      </trkpt>
      <trkpt lat="39.99433438293635845184326171875" lon="-0.6961051560938358306884765625">
        <ele>976.20001220703125</ele>
        <time>2021-09-27T06:42:16.000Z</time>
      </trkpt>
      <trkpt lat="39.994213096797466278076171875" lon="-0.6961007975041866302490234375">
        <ele>976.5999755859375</ele>
        <time>2021-09-27T06:42:18.000Z</time>
      </trkpt>
      <trkpt lat="39.99408309347927570343017578125" lon="-0.6960897333920001983642578125">
        <ele>976.79998779296875</ele>
        <time>2021-09-27T06:42:20.000Z</time>
      </trkpt>
      <trkpt lat="39.99395434744656085968017578125" lon="-0.696086883544921875">
        <ele>976.79998779296875</ele>
        <time>2021-09-27T06:42:22.000Z</time>
      </trkpt>
      <trkpt lat="39.9938266910612583160400390625" lon="-0.69608093239367008209228515625">
        <ele>976.5999755859375</ele>
        <time>2021-09-27T06:42:24.000Z</time>
      </trkpt>
      <trkpt lat="39.9937650002539157867431640625" lon="-0.69607757963240146636962890625">
        <ele>976.4000244140625</ele>
        <time>2021-09-27T06:42:25.000Z</time>
      </trkpt>
      <trkpt lat="39.99370205216109752655029296875" lon="-0.69607305340468883514404296875">
        <ele>976.20001220703125</ele>
        <time>2021-09-27T06:42:26.000Z</time>
      </trkpt>
      <trkpt lat="39.9935785867273807525634765625" lon="-0.69606634788215160369873046875">
        <ele>975.79998779296875</ele>
        <time>2021-09-27T06:42:28.000Z</time>
      </trkpt>
      <trkpt lat="39.99345998279750347137451171875" lon="-0.69605997763574123382568359375">
        <ele>975.5999755859375</ele>
        <time>2021-09-27T06:42:30.000Z</time>
      </trkpt>
      <trkpt lat="39.99334179796278476715087890625" lon="-0.6960568763315677642822265625">
        <ele>975.20001220703125</ele>
        <time>2021-09-27T06:42:32.000Z</time>
      </trkpt>
      <trkpt lat="39.9932188354432582855224609375" lon="-0.69605310447514057159423828125">
        <ele>975</ele>
        <time>2021-09-27T06:42:34.000Z</time>
      </trkpt>
      <trkpt lat="39.993096627295017242431640625" lon="-0.6960501708090305328369140625">
        <ele>975.20001220703125</ele>
        <time>2021-09-27T06:42:36.000Z</time>
      </trkpt>
      <trkpt lat="39.9929764308035373687744140625" lon="-0.6960438005626201629638671875">
        <ele>975.4000244140625</ele>
        <time>2021-09-27T06:42:38.000Z</time>
      </trkpt>
      <trkpt lat="39.992860257625579833984375" lon="-0.696037597954273223876953125">
        <ele>975.4000244140625</ele>
        <time>2021-09-27T06:42:40.000Z</time>
      </trkpt>
      <trkpt lat="39.99280485324561595916748046875" lon="-0.69603717885911464691162109375">
        <ele>975.5999755859375</ele>
        <time>2021-09-27T06:42:41.000Z</time>
      </trkpt>
      <trkpt lat="39.9927538074553012847900390625" lon="-0.69603416137397289276123046875">
        <ele>975.5999755859375</ele>
        <time>2021-09-27T06:42:42.000Z</time>
      </trkpt>
      <trkpt lat="39.9926497042179107666015625" lon="-0.6960317306220531463623046875">
        <ele>975.79998779296875</ele>
        <time>2021-09-27T06:42:44.000Z</time>
      </trkpt>
      <trkpt lat="39.992536716163158416748046875" lon="-0.696030892431735992431640625">
        <ele>975.79998779296875</ele>
        <time>2021-09-27T06:42:46.000Z</time>
      </trkpt>
      <trkpt lat="39.99247946776449680328369140625" lon="-0.6960283778607845306396484375">
        <ele>976</ele>
        <time>2021-09-27T06:42:47.000Z</time>
      </trkpt>
      <trkpt lat="39.99242196790874004364013671875" lon="-0.6960267014801502227783203125">
        <ele>976</ele>
        <time>2021-09-27T06:42:48.000Z</time>
      </trkpt>
      <trkpt lat="39.99230478890240192413330078125" lon="-0.6960213370621204376220703125">
        <ele>976</ele>
        <time>2021-09-27T06:42:50.000Z</time>
      </trkpt>
      <trkpt lat="39.99224779196083545684814453125" lon="-0.69601957686245441436767578125">
        <ele>976</ele>
        <time>2021-09-27T06:42:51.000Z</time>
      </trkpt>
      <trkpt lat="39.99218928627669811248779296875" lon="-0.6960184872150421142578125">
        <ele>976</ele>
        <time>2021-09-27T06:42:52.000Z</time>
      </trkpt>
      <trkpt lat="39.9921305291354656219482421875" lon="-0.69601672701537609100341796875">
        <ele>976</ele>
        <time>2021-09-27T06:42:53.000Z</time>
      </trkpt>
      <trkpt lat="39.99207101762294769287109375" lon="-0.6960159726440906524658203125">
        <ele>976</ele>
        <time>2021-09-27T06:42:54.000Z</time>
      </trkpt>
      <trkpt lat="39.9919548444449901580810546875" lon="-0.69600985385477542877197265625">
        <ele>975.5999755859375</ele>
        <time>2021-09-27T06:42:56.000Z</time>
      </trkpt>
      <trkpt lat="39.9918965063989162445068359375" lon="-0.69600633345544338226318359375">
        <ele>975.5999755859375</ele>
        <time>2021-09-27T06:42:57.000Z</time>
      </trkpt>
      <trkpt lat="39.99183833599090576171875" lon="-0.69600398652255535125732421875">
        <ele>975.4000244140625</ele>
        <time>2021-09-27T06:42:58.000Z</time>
      </trkpt>
      <trkpt lat="39.991721324622631072998046875" lon="-0.69600147195160388946533203125">
        <ele>975.20001220703125</ele>
        <time>2021-09-27T06:43:00.000Z</time>
      </trkpt>
      <trkpt lat="39.99160674400627613067626953125" lon="-0.69599325768649578094482421875">
        <ele>974.79998779296875</ele>
        <time>2021-09-27T06:43:02.000Z</time>
      </trkpt>
      <trkpt lat="39.99149912036955356597900390625" lon="-0.69598403759300708770751953125">
        <ele>974.79998779296875</ele>
        <time>2021-09-27T06:43:04.000Z</time>
      </trkpt>
      <trkpt lat="39.99139241874217987060546875" lon="-0.6959809362888336181640625">
        <ele>974.5999755859375</ele>
        <time>2021-09-27T06:43:06.000Z</time>
      </trkpt>
      <trkpt lat="39.99128437601029872894287109375" lon="-0.695984624326229095458984375">
        <ele>974.5999755859375</ele>
        <time>2021-09-27T06:43:08.000Z</time>
      </trkpt>
      <trkpt lat="39.99117071740329265594482421875" lon="-0.6959807686507701873779296875">
        <ele>974.4000244140625</ele>
        <time>2021-09-27T06:43:10.000Z</time>
      </trkpt>
      <trkpt lat="39.9910542927682399749755859375" lon="-0.69597330875694751739501953125">
        <ele>974.20001220703125</ele>
        <time>2021-09-27T06:43:12.000Z</time>
      </trkpt>
      <trkpt lat="39.99099603854119777679443359375" lon="-0.69597045890986919403076171875">
        <ele>974.20001220703125</ele>
        <time>2021-09-27T06:43:13.000Z</time>
      </trkpt>
      <trkpt lat="39.9909372813999652862548828125" lon="-0.6959690339863300323486328125">
        <ele>974.20001220703125</ele>
        <time>2021-09-27T06:43:14.000Z</time>
      </trkpt>
      <trkpt lat="39.99082203023135662078857421875" lon="-0.69596559740602970123291015625">
        <ele>974</ele>
        <time>2021-09-27T06:43:16.000Z</time>
      </trkpt>
      <trkpt lat="39.99070451594889163970947265625" lon="-0.69596123881638050079345703125">
        <ele>974</ele>
        <time>2021-09-27T06:43:18.000Z</time>
      </trkpt>
      <trkpt lat="39.990588091313838958740234375" lon="-0.69595553912222385406494140625">
        <ele>974</ele>
        <time>2021-09-27T06:43:20.000Z</time>
      </trkpt>
      <trkpt lat="39.99047082848846912384033203125" lon="-0.69595185108482837677001953125">
        <ele>974</ele>
        <time>2021-09-27T06:43:22.000Z</time>
      </trkpt>
      <trkpt lat="39.99035666696727275848388671875" lon="-0.69595017470419406890869140625">
        <ele>974</ele>
        <time>2021-09-27T06:43:24.000Z</time>
      </trkpt>
      <trkpt lat="39.990244098007678985595703125" lon="-0.6959460675716400146484375">
        <ele>974</ele>
        <time>2021-09-27T06:43:26.000Z</time>
      </trkpt>
      <trkpt lat="39.99013387598097324371337890625" lon="-0.69594137370586395263671875">
        <ele>974</ele>
        <time>2021-09-27T06:43:28.000Z</time>
      </trkpt>
      <trkpt lat="39.99002180993556976318359375" lon="-0.69593760184943675994873046875">
        <ele>974</ele>
        <time>2021-09-27T06:43:30.000Z</time>
      </trkpt>
      <trkpt lat="39.98990773223340511322021484375" lon="-0.69593324325978755950927734375">
        <ele>974.20001220703125</ele>
        <time>2021-09-27T06:43:32.000Z</time>
      </trkpt>
      <trkpt lat="39.9897943250834941864013671875" lon="-0.6959247775375843048095703125">
        <ele>974.4000244140625</ele>
        <time>2021-09-27T06:43:34.000Z</time>
      </trkpt>
      <trkpt lat="39.9896867014467716217041015625" lon="-0.6959219276905059814453125">
        <ele>974.4000244140625</ele>
        <time>2021-09-27T06:43:36.000Z</time>
      </trkpt>
      <trkpt lat="39.9895847775042057037353515625" lon="-0.6959207542240619659423828125">
        <ele>974.5999755859375</ele>
        <time>2021-09-27T06:43:38.000Z</time>
      </trkpt>
      <trkpt lat="39.989531300961971282958984375" lon="-0.6959163956344127655029296875">
        <ele>974.4000244140625</ele>
        <time>2021-09-27T06:43:39.000Z</time>
      </trkpt>
      <trkpt lat="39.98947941698133945465087890625" lon="-0.6959100253880023956298828125">
        <ele>974.20001220703125</ele>
        <time>2021-09-27T06:43:40.000Z</time>
      </trkpt>
      <trkpt lat="39.989438094198703765869140625" lon="-0.6959066726267337799072265625">
        <ele>974.20001220703125</ele>
        <time>2021-09-27T06:43:41.000Z</time>
      </trkpt>
      <trkpt lat="39.989398531615734100341796875" lon="-0.6959043256938457489013671875">
        <ele>974</ele>
        <time>2021-09-27T06:43:42.000Z</time>
      </trkpt>
      <trkpt lat="39.98931965790688991546630859375" lon="-0.6958989612758159637451171875">
        <ele>973.79998779296875</ele>
        <time>2021-09-27T06:43:44.000Z</time>
      </trkpt>
      <trkpt lat="39.98926467262208461761474609375" lon="-0.6958922557532787322998046875">
        <ele>973.5999755859375</ele>
        <time>2021-09-27T06:43:45.000Z</time>
      </trkpt>
      <trkpt lat="39.9892075918614864349365234375" lon="-0.6958882324397563934326171875">
        <ele>973.4000244140625</ele>
        <time>2021-09-27T06:43:46.000Z</time>
      </trkpt>
      <trkpt lat="39.9891150556504726409912109375" lon="-0.6958862207829952239990234375">
        <ele>973.4000244140625</ele>
        <time>2021-09-27T06:43:48.000Z</time>
      </trkpt>
      <trkpt lat="39.989004917442798614501953125" lon="-0.6958858855068683624267578125">
        <ele>973.20001220703125</ele>
        <time>2021-09-27T06:43:50.000Z</time>
      </trkpt>
      <trkpt lat="39.9888981319963932037353515625" lon="-0.69588429294526576995849609375">
        <ele>973</ele>
        <time>2021-09-27T06:43:52.000Z</time>
      </trkpt>
      <trkpt lat="39.98884742148220539093017578125" lon="-0.695882700383663177490234375">
        <ele>973</ele>
        <time>2021-09-27T06:43:53.000Z</time>
      </trkpt>
      <trkpt lat="39.98879696242511272430419921875" lon="-0.69588127546012401580810546875">
        <ele>973</ele>
        <time>2021-09-27T06:43:54.000Z</time>
      </trkpt>
      <trkpt lat="39.98869218863546848297119140625" lon="-0.6958791799843311309814453125">
        <ele>973</ele>
        <time>2021-09-27T06:43:56.000Z</time>
      </trkpt>
      <trkpt lat="39.988581798970699310302734375" lon="-0.69587691687047481536865234375">
        <ele>973</ele>
        <time>2021-09-27T06:43:58.000Z</time>
      </trkpt>
      <trkpt lat="39.9884730018675327301025390625" lon="-0.69587557576596736907958984375">
        <ele>973</ele>
        <time>2021-09-27T06:44:00.000Z</time>
      </trkpt>
      <trkpt lat="39.9883662164211273193359375" lon="-0.695877335965633392333984375">
        <ele>972.79998779296875</ele>
        <time>2021-09-27T06:44:02.000Z</time>
      </trkpt>
      <trkpt lat="39.98825951479375362396240234375" lon="-0.695873983204364776611328125">
        <ele>972.5999755859375</ele>
        <time>2021-09-27T06:44:04.000Z</time>
      </trkpt>
      <trkpt lat="39.988151974976062774658203125" lon="-0.69587205536663532257080078125">
        <ele>972.4000244140625</ele>
        <time>2021-09-27T06:44:06.000Z</time>
      </trkpt>
      <trkpt lat="39.98804577626287937164306640625" lon="-0.69586719386279582977294921875">
        <ele>972.20001220703125</ele>
        <time>2021-09-27T06:44:08.000Z</time>
      </trkpt>
      <trkpt lat="39.98794184066355228424072265625" lon="-0.69586224853992462158203125">
        <ele>971.79998779296875</ele>
        <time>2021-09-27T06:44:10.000Z</time>
      </trkpt>
      <trkpt lat="39.98783673159778118133544921875" lon="-0.695858560502529144287109375">
        <ele>972.20001220703125</ele>
        <time>2021-09-27T06:44:12.000Z</time>
      </trkpt>
      <trkpt lat="39.98772843740880489349365234375" lon="-0.69585361517965793609619140625">
        <ele>972.5999755859375</ele>
        <time>2021-09-27T06:44:14.000Z</time>
      </trkpt>
      <trkpt lat="39.98762190341949462890625" lon="-0.69584875367581844329833984375">
        <ele>973</ele>
        <time>2021-09-27T06:44:16.000Z</time>
      </trkpt>
      <trkpt lat="39.98751469887793064117431640625" lon="-0.695844478905200958251953125">
        <ele>973.20001220703125</ele>
        <time>2021-09-27T06:44:18.000Z</time>
      </trkpt>
      <trkpt lat="39.9874041415750980377197265625" lon="-0.69583944976329803466796875">
        <ele>973.20001220703125</ele>
        <time>2021-09-27T06:44:20.000Z</time>
      </trkpt>
      <trkpt lat="39.987349323928356170654296875" lon="-0.6958355940878391265869140625">
        <ele>973.4000244140625</ele>
        <time>2021-09-27T06:44:21.000Z</time>
      </trkpt>
      <trkpt lat="39.987294338643550872802734375" lon="-0.6958334147930145263671875">
        <ele>973.4000244140625</ele>
        <time>2021-09-27T06:44:22.000Z</time>
      </trkpt>
      <trkpt lat="39.98718545772135257720947265625" lon="-0.6958285532891750335693359375">
        <ele>973.5999755859375</ele>
        <time>2021-09-27T06:44:24.000Z</time>
      </trkpt>
      <trkpt lat="39.9870769120752811431884765625" lon="-0.69582830183207988739013671875">
        <ele>973.5999755859375</ele>
        <time>2021-09-27T06:44:26.000Z</time>
      </trkpt>
      <trkpt lat="39.9869676120579242706298828125" lon="-0.6958235241472721099853515625">
        <ele>973.5999755859375</ele>
        <time>2021-09-27T06:44:28.000Z</time>
      </trkpt>
      <trkpt lat="39.9868596531450748443603515625" lon="-0.6958186626434326171875">
        <ele>973.5999755859375</ele>
        <time>2021-09-27T06:44:30.000Z</time>
      </trkpt>
      <trkpt lat="39.98675177805125713348388671875" lon="-0.69581237621605396270751953125">
        <ele>973.79998779296875</ele>
        <time>2021-09-27T06:44:32.000Z</time>
      </trkpt>
      <trkpt lat="39.98664465732872486114501953125" lon="-0.69580801762640476226806640625">
        <ele>974</ele>
        <time>2021-09-27T06:44:34.000Z</time>
      </trkpt>
      <trkpt lat="39.986535608768463134765625" lon="-0.69580684415996074676513671875">
        <ele>974.4000244140625</ele>
        <time>2021-09-27T06:44:36.000Z</time>
      </trkpt>
      <trkpt lat="39.9864251352846622467041015625" lon="-0.6958017311990261077880859375">
        <ele>974.5999755859375</ele>
        <time>2021-09-27T06:44:38.000Z</time>
      </trkpt>
      <trkpt lat="39.9863143265247344970703125" lon="-0.69579695351421833038330078125">
        <ele>974.79998779296875</ele>
        <time>2021-09-27T06:44:40.000Z</time>
      </trkpt>
      <trkpt lat="39.98620368540287017822265625" lon="-0.69579259492456912994384765625">
        <ele>975.20001220703125</ele>
        <time>2021-09-27T06:44:42.000Z</time>
      </trkpt>
      <trkpt lat="39.98609212227165699005126953125" lon="-0.6957842968404293060302734375">
        <ele>975.20001220703125</ele>
        <time>2021-09-27T06:44:44.000Z</time>
      </trkpt>
      <trkpt lat="39.985980726778507232666015625" lon="-0.695776753127574920654296875">
        <ele>975.4000244140625</ele>
        <time>2021-09-27T06:44:46.000Z</time>
      </trkpt>
      <trkpt lat="39.98587234877049922943115234375" lon="-0.69577599875628948211669921875">
        <ele>975.4000244140625</ele>
        <time>2021-09-27T06:44:48.000Z</time>
      </trkpt>
      <trkpt lat="39.985817782580852508544921875" lon="-0.6957752443850040435791015625">
        <ele>975.4000244140625</ele>
        <time>2021-09-27T06:44:49.000Z</time>
      </trkpt>
      <trkpt lat="39.98576170764863491058349609375" lon="-0.69577214308083057403564453125">
        <ele>975.4000244140625</ele>
        <time>2021-09-27T06:44:50.000Z</time>
      </trkpt>
      <trkpt lat="39.98565115034580230712890625" lon="-0.6957658566534519195556640625">
        <ele>975.4000244140625</ele>
        <time>2021-09-27T06:44:52.000Z</time>
      </trkpt>
      <trkpt lat="39.98553858138620853424072265625" lon="-0.695762671530246734619140625">
        <ele>975.4000244140625</ele>
        <time>2021-09-27T06:44:54.000Z</time>
      </trkpt>
      <trkpt lat="39.98542592860758304595947265625" lon="-0.6957604922354221343994140625">
        <ele>975.4000244140625</ele>
        <time>2021-09-27T06:44:56.000Z</time>
      </trkpt>
      <trkpt lat="39.98531210236251354217529296875" lon="-0.69575454108417034149169921875">
        <ele>975</ele>
        <time>2021-09-27T06:44:58.000Z</time>
      </trkpt>
      <trkpt lat="39.98525711707770824432373046875" lon="-0.6957541219890117645263671875">
        <ele>974.79998779296875</ele>
        <time>2021-09-27T06:44:59.000Z</time>
      </trkpt>
      <trkpt lat="39.98520364053547382354736328125" lon="-0.6957541219890117645263671875">
        <ele>974.4000244140625</ele>
        <time>2021-09-27T06:45:00.000Z</time>
      </trkpt>
      <trkpt lat="39.985100291669368743896484375" lon="-0.6957507692277431488037109375">
        <ele>974</ele>
        <time>2021-09-27T06:45:02.000Z</time>
      </trkpt>
      <trkpt lat="39.9849946796894073486328125" lon="-0.69574381224811077117919921875">
        <ele>973.79998779296875</ele>
        <time>2021-09-27T06:45:04.000Z</time>
      </trkpt>
      <trkpt lat="39.98487875796854496002197265625" lon="-0.695739202201366424560546875">
        <ele>973.4000244140625</ele>
        <time>2021-09-27T06:45:06.000Z</time>
      </trkpt>
      <trkpt lat="39.98475856147706508636474609375" lon="-0.695735178887844085693359375">
        <ele>973</ele>
        <time>2021-09-27T06:45:08.000Z</time>
      </trkpt>
      <trkpt lat="39.98464071191847324371337890625" lon="-0.69573040120303630828857421875">
        <ele>972.5999755859375</ele>
        <time>2021-09-27T06:45:10.000Z</time>
      </trkpt>
      <trkpt lat="39.98453191481530666351318359375" lon="-0.69572688080370426177978515625">
        <ele>972.4000244140625</ele>
        <time>2021-09-27T06:45:12.000Z</time>
      </trkpt>
      <trkpt lat="39.9844265542924404144287109375" lon="-0.69572168402373790740966796875">
        <ele>972.5999755859375</ele>
        <time>2021-09-27T06:45:14.000Z</time>
      </trkpt>
      <trkpt lat="39.9843729101121425628662109375" lon="-0.69572185166180133819580078125">
        <ele>972.5999755859375</ele>
        <time>2021-09-27T06:45:15.000Z</time>
      </trkpt>
      <trkpt lat="39.98431750573217868804931640625" lon="-0.6957212649285793304443359375">
        <ele>972.5999755859375</ele>
        <time>2021-09-27T06:45:16.000Z</time>
      </trkpt>
      <trkpt lat="39.98420686461031436920166015625" lon="-0.69571933709084987640380859375">
        <ele>972.79998779296875</ele>
        <time>2021-09-27T06:45:18.000Z</time>
      </trkpt>
      <trkpt lat="39.98409488238394260406494140625" lon="-0.695714056491851806640625">
        <ele>973</ele>
        <time>2021-09-27T06:45:20.000Z</time>
      </trkpt>
      <trkpt lat="39.98398558236658573150634765625" lon="-0.69570877589285373687744140625">
        <ele>973</ele>
        <time>2021-09-27T06:45:22.000Z</time>
      </trkpt>
      <trkpt lat="39.98387678526341915130615234375" lon="-0.695703327655792236328125">
        <ele>973.20001220703125</ele>
        <time>2021-09-27T06:45:24.000Z</time>
      </trkpt>
      <trkpt lat="39.98377067036926746368408203125" lon="-0.6956954486668109893798828125">
        <ele>973.4000244140625</ele>
        <time>2021-09-27T06:45:26.000Z</time>
      </trkpt>
      <trkpt lat="39.9836654774844646453857421875" lon="-0.6956912577152252197265625">
        <ele>973.5999755859375</ele>
        <time>2021-09-27T06:45:28.000Z</time>
      </trkpt>
      <trkpt lat="39.983558021485805511474609375" lon="-0.69568765349686145782470703125">
        <ele>973.5999755859375</ele>
        <time>2021-09-27T06:45:30.000Z</time>
      </trkpt>
      <trkpt lat="39.9834502302110195159912109375" lon="-0.69568119943141937255859375">
        <ele>973.20001220703125</ele>
        <time>2021-09-27T06:45:32.000Z</time>
      </trkpt>
      <trkpt lat="39.98334285803139209747314453125" lon="-0.69567985832691192626953125">
        <ele>973</ele>
        <time>2021-09-27T06:45:34.000Z</time>
      </trkpt>
      <trkpt lat="39.98323121108114719390869140625" lon="-0.6956716440618038177490234375">
        <ele>972.79998779296875</ele>
        <time>2021-09-27T06:45:36.000Z</time>
      </trkpt>
      <trkpt lat="39.9831763096153736114501953125" lon="-0.695671141147613525390625">
        <ele>972.5999755859375</ele>
        <time>2021-09-27T06:45:37.000Z</time>
      </trkpt>
      <trkpt lat="39.98312006704509258270263671875" lon="-0.6956679560244083404541015625">
        <ele>972.4000244140625</ele>
        <time>2021-09-27T06:45:38.000Z</time>
      </trkpt>
      <trkpt lat="39.98300858773291110992431640625" lon="-0.6956656090915203094482421875">
        <ele>972.20001220703125</ele>
        <time>2021-09-27T06:45:40.000Z</time>
      </trkpt>
      <trkpt lat="39.9828946776688098907470703125" lon="-0.6956615857779979705810546875">
        <ele>972</ele>
        <time>2021-09-27T06:45:42.000Z</time>
      </trkpt>
      <trkpt lat="39.98278110288083553314208984375" lon="-0.6956582330167293548583984375">
        <ele>972</ele>
        <time>2021-09-27T06:45:44.000Z</time>
      </trkpt>
      <trkpt lat="39.98266744427382946014404296875" lon="-0.6956515274941921234130859375">
        <ele>972</ele>
        <time>2021-09-27T06:45:46.000Z</time>
      </trkpt>
      <trkpt lat="39.98255596496164798736572265625" lon="-0.6956470012664794921875">
        <ele>972</ele>
        <time>2021-09-27T06:45:48.000Z</time>
      </trkpt>
      <trkpt lat="39.98244448564946651458740234375" lon="-0.69564004428684711456298828125">
        <ele>972</ele>
        <time>2021-09-27T06:45:50.000Z</time>
      </trkpt>
      <trkpt lat="39.982330240309238433837890625" lon="-0.6956350989639759063720703125">
        <ele>972</ele>
        <time>2021-09-27T06:45:52.000Z</time>
      </trkpt>
      <trkpt lat="39.98221934773027896881103515625" lon="-0.69562965072691440582275390625">
        <ele>972</ele>
        <time>2021-09-27T06:45:54.000Z</time>
      </trkpt>
      <trkpt lat="39.98211122117936611175537109375" lon="-0.69562713615596294403076171875">
        <ele>972</ele>
        <time>2021-09-27T06:45:56.000Z</time>
      </trkpt>
      <trkpt lat="39.98200544156134128570556640625" lon="-0.69562545977532863616943359375">
        <ele>972</ele>
        <time>2021-09-27T06:45:58.000Z</time>
      </trkpt>
      <trkpt lat="39.98191793449223041534423828125" lon="-0.69562529213726520538330078125">
        <ele>972</ele>
        <time>2021-09-27T06:46:00.000Z</time>
      </trkpt>
      <trkpt lat="39.981847107410430908203125" lon="-0.695621855556964874267578125">
        <ele>972.20001220703125</ele>
        <time>2021-09-27T06:46:02.000Z</time>
      </trkpt>
      <trkpt lat="39.98178340494632720947265625" lon="-0.6956223584711551666259765625">
        <ele>972.20001220703125</ele>
        <time>2021-09-27T06:46:04.000Z</time>
      </trkpt>
      <trkpt lat="39.9817235581576824188232421875" lon="-0.6956206820905208587646484375">
        <ele>972.4000244140625</ele>
        <time>2021-09-27T06:46:06.000Z</time>
      </trkpt>
      <trkpt lat="39.98166949488222599029541015625" lon="-0.695617496967315673828125">
        <ele>972.4000244140625</ele>
        <time>2021-09-27T06:46:08.000Z</time>
      </trkpt>
      <trkpt lat="39.981654994189739227294921875" lon="-0.69561707787215709686279296875">
        <ele>972.4000244140625</ele>
        <time>2021-09-27T06:46:09.000Z</time>
      </trkpt>
      <trkpt lat="39.981654994189739227294921875" lon="-0.69561707787215709686279296875">
        <ele>972.4000244140625</ele>
        <time>2021-09-27T06:46:10.000Z</time>
      </trkpt>
      <trkpt lat="39.981612078845500946044921875" lon="-0.69562629796564579010009765625">
        <ele>972.4000244140625</ele>
        <time>2021-09-27T06:46:42.000Z</time>
      </trkpt>
      <trkpt lat="39.9815850891172885894775390625" lon="-0.695629231631755828857421875">
        <ele>972.4000244140625</ele>
        <time>2021-09-27T06:46:43.000Z</time>
      </trkpt>
      <trkpt lat="39.98155139386653900146484375" lon="-0.69563099183142185211181640625">
        <ele>972.5999755859375</ele>
        <time>2021-09-27T06:46:44.000Z</time>
      </trkpt>
      <trkpt lat="39.9814744479954242706298828125" lon="-0.69562629796564579010009765625">
        <ele>972.5999755859375</ele>
        <time>2021-09-27T06:46:46.000Z</time>
      </trkpt>
      <trkpt lat="39.98138233087956905364990234375" lon="-0.69561640731990337371826171875">
        <ele>972.79998779296875</ele>
        <time>2021-09-27T06:46:48.000Z</time>
      </trkpt>
      <trkpt lat="39.98127990402281284332275390625" lon="-0.6956102885305881500244140625">
        <ele>972.79998779296875</ele>
        <time>2021-09-27T06:46:50.000Z</time>
      </trkpt>
      <trkpt lat="39.981227852404117584228515625" lon="-0.69560919888317584991455078125">
        <ele>973</ele>
        <time>2021-09-27T06:46:51.000Z</time>
      </trkpt>
      <trkpt lat="39.9811740405857563018798828125" lon="-0.6956092827022075653076171875">
        <ele>973</ele>
        <time>2021-09-27T06:46:52.000Z</time>
      </trkpt>
      <trkpt lat="39.98112048022449016571044921875" lon="-0.695606768131256103515625">
        <ele>973</ele>
        <time>2021-09-27T06:46:53.000Z</time>
      </trkpt>
      <trkpt lat="39.9810664169490337371826171875" lon="-0.69560416974127292633056640625">
        <ele>973.20001220703125</ele>
        <time>2021-09-27T06:46:54.000Z</time>
      </trkpt>
      <trkpt lat="39.98101335950195789337158203125" lon="-0.69559997878968715667724609375">
        <ele>973.4000244140625</ele>
        <time>2021-09-27T06:46:55.000Z</time>
      </trkpt>
      <trkpt lat="39.98096005059778690338134765625" lon="-0.6955945305526256561279296875">
        <ele>973.4000244140625</ele>
        <time>2021-09-27T06:46:56.000Z</time>
      </trkpt>
      <trkpt lat="39.98085309751331806182861328125" lon="-0.695590674877166748046875">
        <ele>973.79998779296875</ele>
        <time>2021-09-27T06:46:58.000Z</time>
      </trkpt>
      <trkpt lat="39.98074815608561038970947265625" lon="-0.69558589719235897064208984375">
        <ele>974</ele>
        <time>2021-09-27T06:47:00.000Z</time>
      </trkpt>
      <trkpt lat="39.98064748942852020263671875" lon="-0.6955817900598049163818359375">
        <ele>974.20001220703125</ele>
        <time>2021-09-27T06:47:02.000Z</time>
      </trkpt>
      <trkpt lat="39.9805581383407115936279296875" lon="-0.6955791078507900238037109375">
        <ele>974.4000244140625</ele>
        <time>2021-09-27T06:47:04.000Z</time>
      </trkpt>
      <trkpt lat="39.980524443089962005615234375" lon="-0.6955754198133945465087890625">
        <ele>974.5999755859375</ele>
        <time>2021-09-27T06:47:05.000Z</time>
      </trkpt>
      <trkpt lat="39.98049669899046421051025390625" lon="-0.69557198323309421539306640625">
        <ele>974.5999755859375</ele>
        <time>2021-09-27T06:47:06.000Z</time>
      </trkpt>
      <trkpt lat="39.98045663349330425262451171875" lon="-0.69556511007249355316162109375">
        <ele>974.79998779296875</ele>
        <time>2021-09-27T06:47:08.000Z</time>
      </trkpt>
      <trkpt lat="39.9804456532001495361328125" lon="-0.69556594826281070709228515625">
        <ele>974.79998779296875</ele>
        <time>2021-09-27T06:47:09.000Z</time>
      </trkpt>
      <trkpt lat="39.98043693602085113525390625" lon="-0.695569552481174468994140625">
        <ele>974.79998779296875</ele>
        <time>2021-09-27T06:47:10.000Z</time>
      </trkpt>
      <trkpt lat="39.98041438870131969451904296875" lon="-0.69557013921439647674560546875">
        <ele>974.79998779296875</ele>
        <time>2021-09-27T06:47:12.000Z</time>
      </trkpt>
      <trkpt lat="39.98038589023053646087646484375" lon="-0.695572234690189361572265625">
        <ele>974.79998779296875</ele>
        <time>2021-09-27T06:47:14.000Z</time>
      </trkpt>
      <trkpt lat="39.98034699819982051849365234375" lon="-0.6955740787088871002197265625">
        <ele>974.79998779296875</ele>
        <time>2021-09-27T06:47:16.000Z</time>
      </trkpt>
      <trkpt lat="39.98030089773237705230712890625" lon="-0.69556997157633304595947265625">
        <ele>975</ele>
        <time>2021-09-27T06:47:18.000Z</time>
      </trkpt>
      <trkpt lat="39.98024373315274715423583984375" lon="-0.69556930102407932281494140625">
        <ele>975</ele>
        <time>2021-09-27T06:47:20.000Z</time>
      </trkpt>
      <trkpt lat="39.98018078505992889404296875" lon="-0.6955643557012081146240234375">
        <ele>975</ele>
        <time>2021-09-27T06:47:22.000Z</time>
      </trkpt>
      <trkpt lat="39.9801182560622692108154296875" lon="-0.69556184113025665283203125">
        <ele>975</ele>
        <time>2021-09-27T06:47:24.000Z</time>
      </trkpt>
      <trkpt lat="39.98005446977913379669189453125" lon="-0.6955636851489543914794921875">
        <ele>975</ele>
        <time>2021-09-27T06:47:26.000Z</time>
      </trkpt>
      <trkpt lat="39.98002387583255767822265625" lon="-0.69556091912090778350830078125">
        <ele>975</ele>
        <time>2021-09-27T06:47:27.000Z</time>
      </trkpt>
      <trkpt lat="39.9799952097237110137939453125" lon="-0.6955576501786708831787109375">
        <ele>975</ele>
        <time>2021-09-27T06:47:28.000Z</time>
      </trkpt>
      <trkpt lat="39.97994248755276203155517578125" lon="-0.6955569796264171600341796875">
        <ele>975</ele>
        <time>2021-09-27T06:47:30.000Z</time>
      </trkpt>
      <trkpt lat="39.97989253140985965728759765625" lon="-0.69555169902741909027099609375">
        <ele>975</ele>
        <time>2021-09-27T06:47:32.000Z</time>
      </trkpt>
      <trkpt lat="39.97984508983790874481201171875" lon="-0.6955509446561336517333984375">
        <ele>975</ele>
        <time>2021-09-27T06:47:34.000Z</time>
      </trkpt>
      <trkpt lat="39.979819022119045257568359375" lon="-0.695549435913562774658203125">
        <ele>975</ele>
        <time>2021-09-27T06:47:35.000Z</time>
      </trkpt>
      <trkpt lat="39.9797893501818180084228515625" lon="-0.695548094809055328369140625">
        <ele>975</ele>
        <time>2021-09-27T06:47:36.000Z</time>
      </trkpt>
      <trkpt lat="39.97972874902188777923583984375" lon="-0.695544742047786712646484375">
        <ele>975</ele>
        <time>2021-09-27T06:47:38.000Z</time>
      </trkpt>
      <trkpt lat="39.9796679802238941192626953125" lon="-0.695542395114898681640625">
        <ele>975</ele>
        <time>2021-09-27T06:47:40.000Z</time>
      </trkpt>
      <trkpt lat="39.97960587032139301300048828125" lon="-0.695540718734264373779296875">
        <ele>975</ele>
        <time>2021-09-27T06:47:42.000Z</time>
      </trkpt>
      <trkpt lat="39.97954317368566989898681640625" lon="-0.6955398805439472198486328125">
        <ele>975</ele>
        <time>2021-09-27T06:47:44.000Z</time>
      </trkpt>
      <trkpt lat="39.9794773757457733154296875" lon="-0.69553929381072521209716796875">
        <ele>974.79998779296875</ele>
        <time>2021-09-27T06:47:46.000Z</time>
      </trkpt>
      <trkpt lat="39.97940956614911556243896484375" lon="-0.69553778506815433502197265625">
        <ele>974.79998779296875</ele>
        <time>2021-09-27T06:47:48.000Z</time>
      </trkpt>
      <trkpt lat="39.9793410860002040863037109375" lon="-0.69553560577332973480224609375">
        <ele>974.79998779296875</ele>
        <time>2021-09-27T06:47:50.000Z</time>
      </trkpt>
      <trkpt lat="39.9792708456516265869140625" lon="-0.69553325884044170379638671875">
        <ele>974.5999755859375</ele>
        <time>2021-09-27T06:47:52.000Z</time>
      </trkpt>
      <trkpt lat="39.97919884510338306427001953125" lon="-0.6955298222601413726806640625">
        <ele>974.5999755859375</ele>
        <time>2021-09-27T06:47:54.000Z</time>
      </trkpt>
      <trkpt lat="39.9791181273758411407470703125" lon="-0.6955221109092235565185546875">
        <ele>974.4000244140625</ele>
        <time>2021-09-27T06:47:56.000Z</time>
      </trkpt>
      <trkpt lat="39.9790312908589839935302734375" lon="-0.6955184228718280792236328125">
        <ele>974.4000244140625</ele>
        <time>2021-09-27T06:47:58.000Z</time>
      </trkpt>
      <trkpt lat="39.97893716208636760711669921875" lon="-0.69551079533994197845458984375">
        <ele>974.20001220703125</ele>
        <time>2021-09-27T06:48:00.000Z</time>
      </trkpt>
      <trkpt lat="39.9788881279528141021728515625" lon="-0.6955086998641490936279296875">
        <ele>974.20001220703125</ele>
        <time>2021-09-27T06:48:01.000Z</time>
      </trkpt>
      <trkpt lat="39.978837333619594573974609375" lon="-0.695506520569324493408203125">
        <ele>974.20001220703125</ele>
        <time>2021-09-27T06:48:02.000Z</time>
      </trkpt>
      <trkpt lat="39.9787369184195995330810546875" lon="-0.69549906067550182342529296875">
        <ele>974</ele>
        <time>2021-09-27T06:48:04.000Z</time>
      </trkpt>
      <trkpt lat="39.97863717377185821533203125" lon="-0.69549637846648693084716796875">
        <ele>974.20001220703125</ele>
        <time>2021-09-27T06:48:06.000Z</time>
      </trkpt>
      <trkpt lat="39.97853499837219715118408203125" lon="-0.6954939477145671844482421875">
        <ele>974.4000244140625</ele>
        <time>2021-09-27T06:48:08.000Z</time>
      </trkpt>
      <trkpt lat="39.9784318171441555023193359375" lon="-0.69548799656331539154052734375">
        <ele>974.4000244140625</ele>
        <time>2021-09-27T06:48:10.000Z</time>
      </trkpt>
      <trkpt lat="39.9783315695822238922119140625" lon="-0.6954835541546344757080078125">
        <ele>974.5999755859375</ele>
        <time>2021-09-27T06:48:12.000Z</time>
      </trkpt>
      <trkpt lat="39.9782313220202922821044921875" lon="-0.695479698479175567626953125">
        <ele>974.79998779296875</ele>
        <time>2021-09-27T06:48:14.000Z</time>
      </trkpt>
      <trkpt lat="39.97813157737255096435546875" lon="-0.695478357374668121337890625">
        <ele>974.79998779296875</ele>
        <time>2021-09-27T06:48:16.000Z</time>
      </trkpt>
      <trkpt lat="39.978029318153858184814453125" lon="-0.6954755075275897979736328125">
        <ele>975</ele>
        <time>2021-09-27T06:48:18.000Z</time>
      </trkpt>
      <trkpt lat="39.9779278971254825592041015625" lon="-0.6954713165760040283203125">
        <ele>975</ele>
        <time>2021-09-27T06:48:20.000Z</time>
      </trkpt>
      <trkpt lat="39.97782982885837554931640625" lon="-0.69546871818602085113525390625">
        <ele>974.79998779296875</ele>
        <time>2021-09-27T06:48:22.000Z</time>
      </trkpt>
      <trkpt lat="39.97773285023868083953857421875" lon="-0.69546662271022796630859375">
        <ele>974.79998779296875</ele>
        <time>2021-09-27T06:48:24.000Z</time>
      </trkpt>
      <trkpt lat="39.97763461433351039886474609375" lon="-0.6954659521579742431640625">
        <ele>974.5999755859375</ele>
        <time>2021-09-27T06:48:26.000Z</time>
      </trkpt>
      <trkpt lat="39.97753587551414966583251953125" lon="-0.6954631023108959197998046875">
        <ele>974.4000244140625</ele>
        <time>2021-09-27T06:48:28.000Z</time>
      </trkpt>
      <trkpt lat="39.9774373881518840789794921875" lon="-0.6954620964825153350830078125">
        <ele>974.4000244140625</ele>
        <time>2021-09-27T06:48:30.000Z</time>
      </trkpt>
      <trkpt lat="39.97733856551349163055419921875" lon="-0.69545899517834186553955078125">
        <ele>974.20001220703125</ele>
        <time>2021-09-27T06:48:32.000Z</time>
      </trkpt>
      <trkpt lat="39.97728961519896984100341796875" lon="-0.69545648060739040374755859375">
        <ele>974.20001220703125</ele>
        <time>2021-09-27T06:48:33.000Z</time>
      </trkpt>
      <trkpt lat="39.9772399105131626129150390625" lon="-0.69545547477900981903076171875">
        <ele>974.20001220703125</ele>
        <time>2021-09-27T06:48:34.000Z</time>
      </trkpt>
      <trkpt lat="39.9771384894847869873046875" lon="-0.6954503618180751800537109375">
        <ele>974</ele>
        <time>2021-09-27T06:48:36.000Z</time>
      </trkpt>
      <trkpt lat="39.97703857719898223876953125" lon="-0.695446170866489410400390625">
        <ele>974.20001220703125</ele>
        <time>2021-09-27T06:48:38.000Z</time>
      </trkpt>
      <trkpt lat="39.97693824581801891326904296875" lon="-0.69544382393360137939453125">
        <ele>973.79998779296875</ele>
        <time>2021-09-27T06:48:40.000Z</time>
      </trkpt>
      <trkpt lat="39.9768395908176898956298828125" lon="-0.6954418122768402099609375">
        <ele>973.5999755859375</ele>
        <time>2021-09-27T06:48:42.000Z</time>
      </trkpt>
      <trkpt lat="39.97673523612320423126220703125" lon="-0.6954366154968738555908203125">
        <ele>973.4000244140625</ele>
        <time>2021-09-27T06:48:44.000Z</time>
      </trkpt>
      <trkpt lat="39.9766320548951625823974609375" lon="-0.695429407060146331787109375">
        <ele>973.20001220703125</ele>
        <time>2021-09-27T06:48:46.000Z</time>
      </trkpt>
      <trkpt lat="39.97652686201035976409912109375" lon="-0.695427395403385162353515625">
        <ele>973</ele>
        <time>2021-09-27T06:48:48.000Z</time>
      </trkpt>
      <trkpt lat="39.976422004401683807373046875" lon="-0.6954235397279262542724609375">
        <ele>972.5999755859375</ele>
        <time>2021-09-27T06:48:50.000Z</time>
      </trkpt>
      <trkpt lat="39.976316057145595550537109375" lon="-0.69541574455797672271728515625">
        <ele>972.4000244140625</ele>
        <time>2021-09-27T06:48:52.000Z</time>
      </trkpt>
      <trkpt lat="39.97621002607047557830810546875" lon="-0.69540669210255146026611328125">
        <ele>972</ele>
        <time>2021-09-27T06:48:54.000Z</time>
      </trkpt>
      <trkpt lat="39.9761086888611316680908203125" lon="-0.6954050995409488677978515625">
        <ele>971.5999755859375</ele>
        <time>2021-09-27T06:48:56.000Z</time>
      </trkpt>
      <trkpt lat="39.9760047532618045806884765625" lon="-0.69540166296064853668212890625">
        <ele>971.4000244140625</ele>
        <time>2021-09-27T06:48:58.000Z</time>
      </trkpt>
      <trkpt lat="39.97590123675763607025146484375" lon="-0.6953947059810161590576171875">
        <ele>971.20001220703125</ele>
        <time>2021-09-27T06:49:00.000Z</time>
      </trkpt>
      <trkpt lat="39.97579813934862613677978515625" lon="-0.695388503372669219970703125">
        <ele>971</ele>
        <time>2021-09-27T06:49:02.000Z</time>
      </trkpt>
      <trkpt lat="39.97569772414863109588623046875" lon="-0.6953853182494640350341796875">
        <ele>970.5999755859375</ele>
        <time>2021-09-27T06:49:04.000Z</time>
      </trkpt>
      <trkpt lat="39.9755977280437946319580078125" lon="-0.69537769071757793426513671875">
        <ele>970.4000244140625</ele>
        <time>2021-09-27T06:49:06.000Z</time>
      </trkpt>
      <trkpt lat="39.975502677261829376220703125" lon="-0.695376098155975341796875">
        <ele>970.20001220703125</ele>
        <time>2021-09-27T06:49:08.000Z</time>
      </trkpt>
      <trkpt lat="39.97540418989956378936767578125" lon="-0.69537500850856304168701171875">
        <ele>970.20001220703125</ele>
        <time>2021-09-27T06:49:10.000Z</time>
      </trkpt>
      <trkpt lat="39.9753013439476490020751953125" lon="-0.69537349976599216461181640625">
        <ele>970.20001220703125</ele>
        <time>2021-09-27T06:49:12.000Z</time>
      </trkpt>
      <trkpt lat="39.97520201839506626129150390625" lon="-0.6953678838908672332763671875">
        <ele>970.20001220703125</ele>
        <time>2021-09-27T06:49:14.000Z</time>
      </trkpt>
      <trkpt lat="39.97510411776602268218994140625" lon="-0.69536830298602581024169921875">
        <ele>970.20001220703125</ele>
        <time>2021-09-27T06:49:16.000Z</time>
      </trkpt>
      <trkpt lat="39.97500102035701274871826171875" lon="-0.6953662075102329254150390625">
        <ele>970.20001220703125</ele>
        <time>2021-09-27T06:49:18.000Z</time>
      </trkpt>
      <trkpt lat="39.97489708475768566131591796875" lon="-0.69535941816866397857666015625">
        <ele>970.20001220703125</ele>
        <time>2021-09-27T06:49:20.000Z</time>
      </trkpt>
      <trkpt lat="39.97479214332997798919677734375" lon="-0.69535153917968273162841796875">
        <ele>970.20001220703125</ele>
        <time>2021-09-27T06:49:22.000Z</time>
      </trkpt>
      <trkpt lat="39.9746837653219699859619140625" lon="-0.69534952752292156219482421875">
        <ele>970.4000244140625</ele>
        <time>2021-09-27T06:49:24.000Z</time>
      </trkpt>
      <trkpt lat="39.97463221661746501922607421875" lon="-0.6953465938568115234375">
        <ele>970.5999755859375</ele>
        <time>2021-09-27T06:49:25.000Z</time>
      </trkpt>
      <trkpt lat="39.9745781533420085906982421875" lon="-0.69534458220005035400390625">
        <ele>970.5999755859375</ele>
        <time>2021-09-27T06:49:26.000Z</time>
      </trkpt>
      <trkpt lat="39.97447145171463489532470703125" lon="-0.6953398883342742919921875">
        <ele>970.79998779296875</ele>
        <time>2021-09-27T06:49:28.000Z</time>
      </trkpt>
      <trkpt lat="39.9743649177253246307373046875" lon="-0.69533561356365680694580078125">
        <ele>971</ele>
        <time>2021-09-27T06:49:30.000Z</time>
      </trkpt>
      <trkpt lat="39.9742593057453632354736328125" lon="-0.69532991386950016021728515625">
        <ele>971.20001220703125</ele>
        <time>2021-09-27T06:49:32.000Z</time>
      </trkpt>
      <trkpt lat="39.97415092773735523223876953125" lon="-0.69532605819404125213623046875">
        <ele>971.20001220703125</ele>
        <time>2021-09-27T06:49:34.000Z</time>
      </trkpt>
      <trkpt lat="39.9740440584719181060791015625" lon="-0.6953202746808528900146484375">
        <ele>971.4000244140625</ele>
        <time>2021-09-27T06:49:36.000Z</time>
      </trkpt>
      <trkpt lat="39.973989911377429962158203125" lon="-0.6953185983002185821533203125">
        <ele>971.4000244140625</ele>
        <time>2021-09-27T06:49:37.000Z</time>
      </trkpt>
      <trkpt lat="39.9739350937306880950927734375" lon="-0.69531700573861598968505859375">
        <ele>971.4000244140625</ele>
        <time>2021-09-27T06:49:38.000Z</time>
      </trkpt>
      <trkpt lat="39.97382797300815582275390625" lon="-0.69531650282442569732666015625">
        <ele>971.4000244140625</ele>
        <time>2021-09-27T06:49:40.000Z</time>
      </trkpt>
      <trkpt lat="39.97371808625757694244384765625" lon="-0.695310719311237335205078125">
        <ele>971.4000244140625</ele>
        <time>2021-09-27T06:49:42.000Z</time>
      </trkpt>
      <trkpt lat="39.97360224835574626922607421875" lon="-0.695310048758983612060546875">
        <ele>971.5999755859375</ele>
        <time>2021-09-27T06:49:44.000Z</time>
      </trkpt>
      <trkpt lat="39.9734898470342159271240234375" lon="-0.69530711509287357330322265625">
        <ele>971.79998779296875</ele>
        <time>2021-09-27T06:49:46.000Z</time>
      </trkpt>
      <trkpt lat="39.973371326923370361328125" lon="-0.695306025445461273193359375">
        <ele>972.20001220703125</ele>
        <time>2021-09-27T06:49:48.000Z</time>
      </trkpt>
      <trkpt lat="39.97324182651937007904052734375" lon="-0.695306025445461273193359375">
        <ele>972.4000244140625</ele>
        <time>2021-09-27T06:49:50.000Z</time>
      </trkpt>
      <trkpt lat="39.97312330640852451324462890625" lon="-0.695299319922924041748046875">
        <ele>972.79998779296875</ele>
        <time>2021-09-27T06:49:52.000Z</time>
      </trkpt>
      <trkpt lat="39.973035715520381927490234375" lon="-0.69528691470623016357421875">
        <ele>973</ele>
        <time>2021-09-27T06:49:54.000Z</time>
      </trkpt>
      <trkpt lat="39.97297528199851512908935546875" lon="-0.69523553363978862762451171875">
        <ele>973.20001220703125</ele>
        <time>2021-09-27T06:49:56.000Z</time>
      </trkpt>
      <trkpt lat="39.97295684181153774261474609375" lon="-0.69519060663878917694091796875">
        <ele>973.4000244140625</ele>
        <time>2021-09-27T06:49:57.000Z</time>
      </trkpt>
      <trkpt lat="39.9729477055370807647705078125" lon="-0.69513495080173015594482421875">
        <ele>973.4000244140625</ele>
        <time>2021-09-27T06:49:58.000Z</time>
      </trkpt>
      <trkpt lat="39.97294292785227298736572265625" lon="-0.69506370462477207183837890625">
        <ele>973.4000244140625</ele>
        <time>2021-09-27T06:49:59.000Z</time>
      </trkpt>
      <trkpt lat="39.972945190966129302978515625" lon="-0.69498407654464244842529296875">
        <ele>973.5999755859375</ele>
        <time>2021-09-27T06:50:00.000Z</time>
      </trkpt>
      <trkpt lat="39.97296790592372417449951171875" lon="-0.69482079707086086273193359375">
        <ele>973.79998779296875</ele>
        <time>2021-09-27T06:50:02.000Z</time>
      </trkpt>
      <trkpt lat="39.972970001399517059326171875" lon="-0.6947409175336360931396484375">
        <ele>973.79998779296875</ele>
        <time>2021-09-27T06:50:03.000Z</time>
      </trkpt>
      <trkpt lat="39.97296254150569438934326171875" lon="-0.69467294029891490936279296875">
        <ele>973.79998779296875</ele>
        <time>2021-09-27T06:50:04.000Z</time>
      </trkpt>
      <trkpt lat="39.97294711880385875701904296875" lon="-0.69461233913898468017578125">
        <ele>974</ele>
        <time>2021-09-27T06:50:05.000Z</time>
      </trkpt>
      <trkpt lat="39.972919709980487823486328125" lon="-0.6945561803877353668212890625">
        <ele>974</ele>
        <time>2021-09-27T06:50:06.000Z</time>
      </trkpt>
      <trkpt lat="39.97288509272038936614990234375" lon="-0.69450681097805500030517578125">
        <ele>974</ele>
        <time>2021-09-27T06:50:07.000Z</time>
      </trkpt>
      <trkpt lat="39.97284519486129283905029296875" lon="-0.6944616325199604034423828125">
        <ele>974</ele>
        <time>2021-09-27T06:50:08.000Z</time>
      </trkpt>
      <trkpt lat="39.97277378104627132415771484375" lon="-0.69437689147889614105224609375">
        <ele>974</ele>
        <time>2021-09-27T06:50:10.000Z</time>
      </trkpt>
      <trkpt lat="39.97272692620754241943359375" lon="-0.69429676048457622528076171875">
        <ele>974</ele>
        <time>2021-09-27T06:50:12.000Z</time>
      </trkpt>
      <trkpt lat="39.97270806692540645599365234375" lon="-0.69425451569259166717529296875">
        <ele>974</ele>
        <time>2021-09-27T06:50:13.000Z</time>
      </trkpt>
      <trkpt lat="39.97269180603325366973876953125" lon="-0.69421579129993915557861328125">
        <ele>974</ele>
        <time>2021-09-27T06:50:14.000Z</time>
      </trkpt>
      <trkpt lat="39.97265961952507495880126953125" lon="-0.6941360794007778167724609375">
        <ele>974</ele>
        <time>2021-09-27T06:50:16.000Z</time>
      </trkpt>
      <trkpt lat="39.972629360854625701904296875" lon="-0.69405443966388702392578125">
        <ele>974.20001220703125</ele>
        <time>2021-09-27T06:50:18.000Z</time>
      </trkpt>
      <trkpt lat="39.972601197659969329833984375" lon="-0.69397053681313991546630859375">
        <ele>974.20001220703125</ele>
        <time>2021-09-27T06:50:20.000Z</time>
      </trkpt>
      <trkpt lat="39.97257328592240810394287109375" lon="-0.6938888132572174072265625">
        <ele>974.4000244140625</ele>
        <time>2021-09-27T06:50:22.000Z</time>
      </trkpt>
      <trkpt lat="39.97255568392574787139892578125" lon="-0.6937987916171550750732421875">
        <ele>974.4000244140625</ele>
        <time>2021-09-27T06:50:24.000Z</time>
      </trkpt>
      <trkpt lat="39.97253539972007274627685546875" lon="-0.69371053017675876617431640625">
        <ele>974.20001220703125</ele>
        <time>2021-09-27T06:50:26.000Z</time>
      </trkpt>
      <trkpt lat="39.97249818406999111175537109375" lon="-0.69363324902951717376708984375">
        <ele>974.20001220703125</ele>
        <time>2021-09-27T06:50:28.000Z</time>
      </trkpt>
      <trkpt lat="39.9724499881267547607421875" lon="-0.693550519645214080810546875">
        <ele>974.20001220703125</ele>
        <time>2021-09-27T06:50:30.000Z</time>
      </trkpt>
      <trkpt lat="39.97239374555647373199462890625" lon="-0.6934635154902935028076171875">
        <ele>974.20001220703125</ele>
        <time>2021-09-27T06:50:32.000Z</time>
      </trkpt>
      <trkpt lat="39.972330294549465179443359375" lon="-0.69338866509497165679931640625">
        <ele>974.4000244140625</ele>
        <time>2021-09-27T06:50:34.000Z</time>
      </trkpt>
      <trkpt lat="39.97226734645664691925048828125" lon="-0.6933201849460601806640625">
        <ele>974.5999755859375</ele>
        <time>2021-09-27T06:50:36.000Z</time>
      </trkpt>
      <trkpt lat="39.9722037278115749359130859375" lon="-0.69325271062552928924560546875">
        <ele>974.79998779296875</ele>
        <time>2021-09-27T06:50:38.000Z</time>
      </trkpt>
      <trkpt lat="39.97213910333812236785888671875" lon="-0.693183057010173797607421875">
        <ele>974.79998779296875</ele>
        <time>2021-09-27T06:50:40.000Z</time>
      </trkpt>
      <trkpt lat="39.972067773342132568359375" lon="-0.6931171752512454986572265625">
        <ele>975</ele>
        <time>2021-09-27T06:50:42.000Z</time>
      </trkpt>
      <trkpt lat="39.97203248552978038787841796875" lon="-0.69308616220951080322265625">
        <ele>975</ele>
        <time>2021-09-27T06:50:43.000Z</time>
      </trkpt>
      <trkpt lat="39.97199510224163532257080078125" lon="-0.6930538080632686614990234375">
        <ele>975.20001220703125</ele>
        <time>2021-09-27T06:50:44.000Z</time>
      </trkpt>
      <trkpt lat="39.971919916570186614990234375" lon="-0.69299354217946529388427734375">
        <ele>975.4000244140625</ele>
        <time>2021-09-27T06:50:46.000Z</time>
      </trkpt>
      <trkpt lat="39.97184724546968936920166015625" lon="-0.6929314322769641876220703125">
        <ele>975.79998779296875</ele>
        <time>2021-09-27T06:50:48.000Z</time>
      </trkpt>
      <trkpt lat="39.97177599929273128509521484375" lon="-0.692870914936065673828125">
        <ele>976.20001220703125</ele>
        <time>2021-09-27T06:50:50.000Z</time>
      </trkpt>
      <trkpt lat="39.9717034958302974700927734375" lon="-0.69281349889934062957763671875">
        <ele>976.4000244140625</ele>
        <time>2021-09-27T06:50:52.000Z</time>
      </trkpt>
      <trkpt lat="39.971630237996578216552734375" lon="-0.69275666959583759307861328125">
        <ele>976.79998779296875</ele>
        <time>2021-09-27T06:50:54.000Z</time>
      </trkpt>
      <trkpt lat="39.9715589918196201324462890625" lon="-0.692700259387493133544921875">
        <ele>977</ele>
        <time>2021-09-27T06:50:56.000Z</time>
      </trkpt>
      <trkpt lat="39.97148464433848857879638671875" lon="-0.692651309072971343994140625">
        <ele>977</ele>
        <time>2021-09-27T06:50:58.000Z</time>
      </trkpt>
      <trkpt lat="39.9714104644954204559326171875" lon="-0.69259791634976863861083984375">
        <ele>977</ele>
        <time>2021-09-27T06:51:00.000Z</time>
      </trkpt>
      <trkpt lat="39.97137366794049739837646484375" lon="-0.692574866116046905517578125">
        <ele>977</ele>
        <time>2021-09-27T06:51:01.000Z</time>
      </trkpt>
      <trkpt lat="39.97133544646203517913818359375" lon="-0.69255240261554718017578125">
        <ele>977</ele>
        <time>2021-09-27T06:51:02.000Z</time>
      </trkpt>
      <trkpt lat="39.9712592549622058868408203125" lon="-0.69251342676579952239990234375">
        <ele>977</ele>
        <time>2021-09-27T06:51:04.000Z</time>
      </trkpt>
      <trkpt lat="39.9711771123111248016357421875" lon="-0.69249750114977359771728515625">
        <ele>977</ele>
        <time>2021-09-27T06:51:06.000Z</time>
      </trkpt>
      <trkpt lat="39.97113704681396484375" lon="-0.6924975849688053131103515625">
        <ele>977.20001220703125</ele>
        <time>2021-09-27T06:51:07.000Z</time>
      </trkpt>
      <trkpt lat="39.97109572403132915496826171875" lon="-0.692506469786167144775390625">
        <ele>977.20001220703125</ele>
        <time>2021-09-27T06:51:08.000Z</time>
      </trkpt>
      <trkpt lat="39.971057586371898651123046875" lon="-0.69252147339284420013427734375">
        <ele>977.20001220703125</ele>
        <time>2021-09-27T06:51:09.000Z</time>
      </trkpt>
      <trkpt lat="39.97101894579827785491943359375" lon="-0.69253991357982158660888671875">
        <ele>977.20001220703125</ele>
        <time>2021-09-27T06:51:10.000Z</time>
      </trkpt>
      <trkpt lat="39.970981143414974212646484375" lon="-0.69256204180419445037841796875">
        <ele>977.4000244140625</ele>
        <time>2021-09-27T06:51:11.000Z</time>
      </trkpt>
      <trkpt lat="39.97094317339360713958740234375" lon="-0.69258634932339191436767578125">
        <ele>977.4000244140625</ele>
        <time>2021-09-27T06:51:12.000Z</time>
      </trkpt>
      <trkpt lat="39.970867149531841278076171875" lon="-0.6926417537033557891845703125">
        <ele>977.4000244140625</ele>
        <time>2021-09-27T06:51:14.000Z</time>
      </trkpt>
      <trkpt lat="39.97079095803201198577880859375" lon="-0.69269229657948017120361328125">
        <ele>977.5999755859375</ele>
        <time>2021-09-27T06:51:16.000Z</time>
      </trkpt>
      <trkpt lat="39.9707147665321826934814453125" lon="-0.6927413307130336761474609375">
        <ele>977.5999755859375</ele>
        <time>2021-09-27T06:51:18.000Z</time>
      </trkpt>
      <trkpt lat="39.970637150108814239501953125" lon="-0.69279422052204608917236328125">
        <ele>977.79998779296875</ele>
        <time>2021-09-27T06:51:20.000Z</time>
      </trkpt>
      <trkpt lat="39.970560707151889801025390625" lon="-0.692846439778804779052734375">
        <ele>977.79998779296875</ele>
        <time>2021-09-27T06:51:22.000Z</time>
      </trkpt>
      <trkpt lat="39.97048568911850452423095703125" lon="-0.6928942166268825531005859375">
        <ele>978</ele>
        <time>2021-09-27T06:51:24.000Z</time>
      </trkpt>
      <trkpt lat="39.9704106710851192474365234375" lon="-0.69294610060751438140869140625">
        <ele>978.20001220703125</ele>
        <time>2021-09-27T06:51:26.000Z</time>
      </trkpt>
      <trkpt lat="39.97033464722335338592529296875" lon="-0.6929968111217021942138671875">
        <ele>978.4000244140625</ele>
        <time>2021-09-27T06:51:28.000Z</time>
      </trkpt>
      <trkpt lat="39.9702604673802852630615234375" lon="-0.69304785691201686859130859375">
        <ele>978.5999755859375</ele>
        <time>2021-09-27T06:51:30.000Z</time>
      </trkpt>
      <trkpt lat="39.97022308409214019775390625" lon="-0.69307283498346805572509765625">
        <ele>978.79998779296875</ele>
        <time>2021-09-27T06:51:31.000Z</time>
      </trkpt>
      <trkpt lat="39.97018528170883655548095703125" lon="-0.69309965707361698150634765625">
        <ele>978.79998779296875</ele>
        <time>2021-09-27T06:51:32.000Z</time>
      </trkpt>
      <trkpt lat="39.97011135332286357879638671875" lon="-0.6931512057781219482421875">
        <ele>978.79998779296875</ele>
        <time>2021-09-27T06:51:34.000Z</time>
      </trkpt>
      <trkpt lat="39.970038346946239471435546875" lon="-0.69320208393037319183349609375">
        <ele>979</ele>
        <time>2021-09-27T06:51:36.000Z</time>
      </trkpt>
      <trkpt lat="39.96996349655091762542724609375" lon="-0.6932435743510723114013671875">
        <ele>979.20001220703125</ele>
        <time>2021-09-27T06:51:38.000Z</time>
      </trkpt>
      <trkpt lat="39.96988688595592975616455078125" lon="-0.69329612888395786285400390625">
        <ele>979.20001220703125</ele>
        <time>2021-09-27T06:51:40.000Z</time>
      </trkpt>
      <trkpt lat="39.96980910189449787139892578125" lon="-0.69334994070231914520263671875">
        <ele>979.4000244140625</ele>
        <time>2021-09-27T06:51:42.000Z</time>
      </trkpt>
      <trkpt lat="39.9697716347873210906982421875" lon="-0.6933765113353729248046875">
        <ele>979.4000244140625</ele>
        <time>2021-09-27T06:51:43.000Z</time>
      </trkpt>
      <trkpt lat="39.96973517350852489471435546875" lon="-0.6934041716158390045166015625">
        <ele>979.4000244140625</ele>
        <time>2021-09-27T06:51:44.000Z</time>
      </trkpt>
      <trkpt lat="39.9696609936654567718505859375" lon="-0.6934581510722637176513671875">
        <ele>979.5999755859375</ele>
        <time>2021-09-27T06:51:46.000Z</time>
      </trkpt>
      <trkpt lat="39.96958547271788120269775390625" lon="-0.6935091130435466766357421875">
        <ele>979.5999755859375</ele>
        <time>2021-09-27T06:51:48.000Z</time>
      </trkpt>
      <trkpt lat="39.9695101194083690643310546875" lon="-0.69356636144220829010009765625">
        <ele>979.79998779296875</ele>
        <time>2021-09-27T06:51:50.000Z</time>
      </trkpt>
      <trkpt lat="39.96943795122206211090087890625" lon="-0.69362126290798187255859375">
        <ele>979.79998779296875</ele>
        <time>2021-09-27T06:51:52.000Z</time>
      </trkpt>
      <trkpt lat="39.9693585745990276336669921875" lon="-0.69367096759378910064697265625">
        <ele>980</ele>
        <time>2021-09-27T06:51:54.000Z</time>
      </trkpt>
      <trkpt lat="39.96927483938634395599365234375" lon="-0.69371237419545650482177734375">
        <ele>980.20001220703125</ele>
        <time>2021-09-27T06:51:56.000Z</time>
      </trkpt>
      <trkpt lat="39.96919118799269199371337890625" lon="-0.6937511824071407318115234375">
        <ele>980.4000244140625</ele>
        <time>2021-09-27T06:51:58.000Z</time>
      </trkpt>
      <trkpt lat="39.96910770423710346221923828125" lon="-0.693785883486270904541015625">
        <ele>980.5999755859375</ele>
        <time>2021-09-27T06:52:00.000Z</time>
      </trkpt>
      <trkpt lat="39.9690226279199123382568359375" lon="-0.69381094537675380706787109375">
        <ele>981</ele>
        <time>2021-09-27T06:52:02.000Z</time>
      </trkpt>
      <trkpt lat="39.96893738396465778350830078125" lon="-0.69382703863084316253662109375">
        <ele>981.20001220703125</ele>
        <time>2021-09-27T06:52:04.000Z</time>
      </trkpt>
      <trkpt lat="39.968848116695880889892578125" lon="-0.69384011439979076385498046875">
        <ele>981.5999755859375</ele>
        <time>2021-09-27T06:52:06.000Z</time>
      </trkpt>
      <trkpt lat="39.96880461461842060089111328125" lon="-0.69384531117975711822509765625">
        <ele>981.79998779296875</ele>
        <time>2021-09-27T06:52:07.000Z</time>
      </trkpt>
      <trkpt lat="39.968758933246135711669921875" lon="-0.693848915398120880126953125">
        <ele>982</ele>
        <time>2021-09-27T06:52:08.000Z</time>
      </trkpt>
      <trkpt lat="39.96867050416767597198486328125" lon="-0.6938524357974529266357421875">
        <ele>981.79998779296875</ele>
        <time>2021-09-27T06:52:10.000Z</time>
      </trkpt>
      <trkpt lat="39.9685840867459774017333984375" lon="-0.6938619911670684814453125">
        <ele>981.5999755859375</ele>
        <time>2021-09-27T06:52:12.000Z</time>
      </trkpt>
      <trkpt lat="39.9684982560575008392333984375" lon="-0.69387204945087432861328125">
        <ele>981.4000244140625</ele>
        <time>2021-09-27T06:52:14.000Z</time>
      </trkpt>
      <trkpt lat="39.9684134311974048614501953125" lon="-0.69388085044920444488525390625">
        <ele>981.20001220703125</ele>
        <time>2021-09-27T06:52:16.000Z</time>
      </trkpt>
      <trkpt lat="39.96833003126084804534912109375" lon="-0.6938883103430271148681640625">
        <ele>981</ele>
        <time>2021-09-27T06:52:18.000Z</time>
      </trkpt>
      <trkpt lat="39.96824570931494235992431640625" lon="-0.6938990391790866851806640625">
        <ele>980.79998779296875</ele>
        <time>2021-09-27T06:52:20.000Z</time>
      </trkpt>
      <trkpt lat="39.9681646563112735748291015625" lon="-0.693907253444194793701171875">
        <ele>980.5999755859375</ele>
        <time>2021-09-27T06:52:22.000Z</time>
      </trkpt>
      <trkpt lat="39.96808175928890705108642578125" lon="-0.69392242468893527984619140625">
        <ele>980.4000244140625</ele>
        <time>2021-09-27T06:52:24.000Z</time>
      </trkpt>
      <trkpt lat="39.9680395983159542083740234375" lon="-0.69392963312566280364990234375">
        <ele>980.4000244140625</ele>
        <time>2021-09-27T06:52:25.000Z</time>
      </trkpt>
      <trkpt lat="39.96799685060977935791015625" lon="-0.693941451609134674072265625">
        <ele>980.20001220703125</ele>
        <time>2021-09-27T06:52:26.000Z</time>
      </trkpt>
      <trkpt lat="39.9679135344922542572021484375" lon="-0.69397623650729656219482421875">
        <ele>980</ele>
        <time>2021-09-27T06:52:28.000Z</time>
      </trkpt>
      <trkpt lat="39.96782544068992137908935546875" lon="-0.69401244632899761199951171875">
        <ele>980.4000244140625</ele>
        <time>2021-09-27T06:52:30.000Z</time>
      </trkpt>
      <trkpt lat="39.96772821061313152313232421875" lon="-0.69405335001647472381591796875">
        <ele>980.5999755859375</ele>
        <time>2021-09-27T06:52:32.000Z</time>
      </trkpt>
      <trkpt lat="39.96764237992465496063232421875" lon="-0.6940931640565395355224609375">
        <ele>980.79998779296875</ele>
        <time>2021-09-27T06:52:34.000Z</time>
      </trkpt>
      <trkpt lat="39.96756727807223796844482421875" lon="-0.69412820041179656982421875">
        <ele>981</ele>
        <time>2021-09-27T06:52:36.000Z</time>
      </trkpt>
      <trkpt lat="39.96753810904920101165771484375" lon="-0.69414102472364902496337890625">
        <ele>981.20001220703125</ele>
        <time>2021-09-27T06:52:37.000Z</time>
      </trkpt>
      <trkpt lat="39.96751916594803333282470703125" lon="-0.69414588622748851776123046875">
        <ele>981.20001220703125</ele>
        <time>2021-09-27T06:52:38.000Z</time>
      </trkpt>
      <trkpt lat="39.9675039947032928466796875" lon="-0.69415368139743804931640625">
        <ele>981.20001220703125</ele>
        <time>2021-09-27T06:52:40.000Z</time>
      </trkpt>
      <trkpt lat="39.9675039947032928466796875" lon="-0.69415368139743804931640625">
        <ele>981.20001220703125</ele>
        <time>2021-09-27T06:52:41.000Z</time>
      </trkpt>
      <trkpt lat="39.96746233664453029632568359375" lon="-0.69417874328792095184326171875">
        <ele>981.20001220703125</ele>
        <time>2021-09-27T06:54:01.000Z</time>
      </trkpt>
      <trkpt lat="39.96742713265120983123779296875" lon="-0.69419131614267826080322265625">
        <ele>981.4000244140625</ele>
        <time>2021-09-27T06:54:02.000Z</time>
      </trkpt>
      <trkpt lat="39.96738723479211330413818359375" lon="-0.694196932017803192138671875">
        <ele>981.4000244140625</ele>
        <time>2021-09-27T06:54:03.000Z</time>
      </trkpt>
      <trkpt lat="39.9673415534198284149169921875" lon="-0.694194249808788299560546875">
        <ele>981.4000244140625</ele>
        <time>2021-09-27T06:54:04.000Z</time>
      </trkpt>
      <trkpt lat="39.96730215847492218017578125" lon="-0.69418980740010738372802734375">
        <ele>981.5999755859375</ele>
        <time>2021-09-27T06:54:05.000Z</time>
      </trkpt>
      <trkpt lat="39.967257566750049591064453125" lon="-0.6941776536405086517333984375">
        <ele>981.5999755859375</ele>
        <time>2021-09-27T06:54:06.000Z</time>
      </trkpt>
      <trkpt lat="39.96717802248895168304443359375" lon="-0.6941474787890911102294921875">
        <ele>981.5999755859375</ele>
        <time>2021-09-27T06:54:08.000Z</time>
      </trkpt>
      <trkpt lat="39.9671541340649127960205078125" lon="-0.694133229553699493408203125">
        <ele>981.5999755859375</ele>
        <time>2021-09-27T06:54:09.000Z</time>
      </trkpt>
      <trkpt lat="39.96714055538177490234375" lon="-0.69412551820278167724609375">
        <ele>981.5999755859375</ele>
        <time>2021-09-27T06:54:10.000Z</time>
      </trkpt>
      <trkpt lat="39.967130161821842193603515625" lon="-0.694120824337005615234375">
        <ele>981.5999755859375</ele>
        <time>2021-09-27T06:54:11.000Z</time>
      </trkpt>
      <trkpt lat="39.9671206064522266387939453125" lon="-0.69412015378475189208984375">
        <ele>981.5999755859375</ele>
        <time>2021-09-27T06:54:12.000Z</time>
      </trkpt>
      <trkpt lat="39.96711784042418003082275390625" lon="-0.6941223330795764923095703125">
        <ele>981.5999755859375</ele>
        <time>2021-09-27T06:54:13.000Z</time>
      </trkpt>
      <trkpt lat="39.96711784042418003082275390625" lon="-0.6941223330795764923095703125">
        <ele>981.5999755859375</ele>
        <time>2021-09-27T06:54:14.000Z</time>
      </trkpt>
      <trkpt lat="39.96703301556408405303955078125" lon="-0.694080255925655364990234375">
        <ele>981.5999755859375</ele>
        <time>2021-09-27T06:55:31.000Z</time>
      </trkpt>
      <trkpt lat="39.96701239608228206634521484375" lon="-0.69407748989760875701904296875">
        <ele>981.5999755859375</ele>
        <time>2021-09-27T06:55:32.000Z</time>
      </trkpt>
      <trkpt lat="39.96698590926826000213623046875" lon="-0.69407195784151554107666015625">
        <ele>981.79998779296875</ele>
        <time>2021-09-27T06:55:33.000Z</time>
      </trkpt>
      <trkpt lat="39.96695774607360363006591796875" lon="-0.6940639950335025787353515625">
        <ele>981.79998779296875</ele>
        <time>2021-09-27T06:55:34.000Z</time>
      </trkpt>
      <trkpt lat="39.96689186431467533111572265625" lon="-0.69404329173266887664794921875">
        <ele>981.79998779296875</ele>
        <time>2021-09-27T06:55:36.000Z</time>
      </trkpt>
      <trkpt lat="39.96685951016843318939208984375" lon="-0.69403574801981449127197265625">
        <ele>982</ele>
        <time>2021-09-27T06:55:37.000Z</time>
      </trkpt>
      <trkpt lat="39.9668269045650959014892578125" lon="-0.694029629230499267578125">
        <ele>982</ele>
        <time>2021-09-27T06:55:38.000Z</time>
      </trkpt>
      <trkpt lat="39.966789186000823974609375" lon="-0.69402317516505718231201171875">
        <ele>982</ele>
        <time>2021-09-27T06:55:39.000Z</time>
      </trkpt>
      <trkpt lat="39.9667476117610931396484375" lon="-0.69401781074702739715576171875">
        <ele>982.20001220703125</ele>
        <time>2021-09-27T06:55:40.000Z</time>
      </trkpt>
      <trkpt lat="39.966662786900997161865234375" lon="-0.6940162181854248046875">
        <ele>982.4000244140625</ele>
        <time>2021-09-27T06:55:42.000Z</time>
      </trkpt>
      <trkpt lat="39.966572932898998260498046875" lon="-0.69401294924318790435791015625">
        <ele>982.5999755859375</ele>
        <time>2021-09-27T06:55:44.000Z</time>
      </trkpt>
      <trkpt lat="39.96648282743990421295166015625" lon="-0.69401110522449016571044921875">
        <ele>982.79998779296875</ele>
        <time>2021-09-27T06:55:46.000Z</time>
      </trkpt>
      <trkpt lat="39.96643806807696819305419921875" lon="-0.69400372914969921112060546875">
        <ele>982.79998779296875</ele>
        <time>2021-09-27T06:55:47.000Z</time>
      </trkpt>
      <trkpt lat="39.96639196760952472686767578125" lon="-0.69399769417941570281982421875">
        <ele>983</ele>
        <time>2021-09-27T06:55:48.000Z</time>
      </trkpt>
      <trkpt lat="39.96629926376044750213623046875" lon="-0.69397397339344024658203125">
        <ele>983.20001220703125</ele>
        <time>2021-09-27T06:55:50.000Z</time>
      </trkpt>
      <trkpt lat="39.96625048108398914337158203125" lon="-0.69396232254803180694580078125">
        <ele>983.20001220703125</ele>
        <time>2021-09-27T06:55:51.000Z</time>
      </trkpt>
      <trkpt lat="39.96620320715010166168212890625" lon="-0.6939493305981159210205078125">
        <ele>983.4000244140625</ele>
        <time>2021-09-27T06:55:52.000Z</time>
      </trkpt>
      <trkpt lat="39.9661092460155487060546875" lon="-0.6939288787543773651123046875">
        <ele>983.4000244140625</ele>
        <time>2021-09-27T06:55:54.000Z</time>
      </trkpt>
      <trkpt lat="39.9660259298980236053466796875" lon="-0.6939075887203216552734375">
        <ele>983.20001220703125</ele>
        <time>2021-09-27T06:55:56.000Z</time>
      </trkpt>
      <trkpt lat="39.96594102121889591217041015625" lon="-0.69389208219945430755615234375">
        <ele>983.20001220703125</ele>
        <time>2021-09-27T06:55:58.000Z</time>
      </trkpt>
      <trkpt lat="39.96585871092975139617919921875" lon="-0.69388814270496368408203125">
        <ele>983.20001220703125</ele>
        <time>2021-09-27T06:56:00.000Z</time>
      </trkpt>
      <trkpt lat="39.96577170677483081817626953125" lon="-0.69388168863952159881591796875">
        <ele>983</ele>
        <time>2021-09-27T06:56:02.000Z</time>
      </trkpt>
      <trkpt lat="39.96568520553410053253173828125" lon="-0.69388185627758502960205078125">
        <ele>983</ele>
        <time>2021-09-27T06:56:04.000Z</time>
      </trkpt>
      <trkpt lat="39.96560758911073207855224609375" lon="-0.69388571195304393768310546875">
        <ele>983</ele>
        <time>2021-09-27T06:56:06.000Z</time>
      </trkpt>
      <trkpt lat="39.9655352532863616943359375" lon="-0.69388453848659992218017578125">
        <ele>983</ele>
        <time>2021-09-27T06:56:08.000Z</time>
      </trkpt>
      <trkpt lat="39.96546442620456218719482421875" lon="-0.6938805989921092987060546875">
        <ele>983</ele>
        <time>2021-09-27T06:56:10.000Z</time>
      </trkpt>
      <trkpt lat="39.96542469598352909088134765625" lon="-0.69387800060212612152099609375">
        <ele>983</ele>
        <time>2021-09-27T06:56:11.000Z</time>
      </trkpt>
      <trkpt lat="39.9653808586299419403076171875" lon="-0.6938782520592212677001953125">
        <ele>983</ele>
        <time>2021-09-27T06:56:12.000Z</time>
      </trkpt>
      <trkpt lat="39.965294860303401947021484375" lon="-0.69389258511364459991455078125">
        <ele>983.4000244140625</ele>
        <time>2021-09-27T06:56:14.000Z</time>
      </trkpt>
      <trkpt lat="39.96520735323429107666015625" lon="-0.69393047131597995758056640625">
        <ele>983.5999755859375</ele>
        <time>2021-09-27T06:56:16.000Z</time>
      </trkpt>
      <trkpt lat="39.96511615812778472900390625" lon="-0.69397933781147003173828125">
        <ele>983.79998779296875</ele>
        <time>2021-09-27T06:56:18.000Z</time>
      </trkpt>
      <trkpt lat="39.965028651058673858642578125" lon="-0.6940368376672267913818359375">
        <ele>984.20001220703125</ele>
        <time>2021-09-27T06:56:20.000Z</time>
      </trkpt>
      <trkpt lat="39.96493921615183353424072265625" lon="-0.6941018812358379364013671875">
        <ele>984.4000244140625</ele>
        <time>2021-09-27T06:56:22.000Z</time>
      </trkpt>
      <trkpt lat="39.96484793722629547119140625" lon="-0.69416281767189502716064453125">
        <ele>984.79998779296875</ele>
        <time>2021-09-27T06:56:24.000Z</time>
      </trkpt>
      <trkpt lat="39.964802674949169158935546875" lon="-0.69418829865753650665283203125">
        <ele>984.79998779296875</ele>
        <time>2021-09-27T06:56:25.000Z</time>
      </trkpt>
      <trkpt lat="39.964756406843662261962890625" lon="-0.69420271553099155426025390625">
        <ele>985</ele>
        <time>2021-09-27T06:56:26.000Z</time>
      </trkpt>
      <trkpt lat="39.96471106074750423431396484375" lon="-0.6942125223577022552490234375">
        <ele>985</ele>
        <time>2021-09-27T06:56:27.000Z</time>
      </trkpt>
      <trkpt lat="39.96466613374650478363037109375" lon="-0.6942115165293216705322265625">
        <ele>985.20001220703125</ele>
        <time>2021-09-27T06:56:28.000Z</time>
      </trkpt>
      <trkpt lat="39.96462556533515453338623046875" lon="-0.69420288316905498504638671875">
        <ele>985.20001220703125</ele>
        <time>2021-09-27T06:56:29.000Z</time>
      </trkpt>
      <trkpt lat="39.96458373963832855224609375" lon="-0.6941816769540309906005859375">
        <ele>985.4000244140625</ele>
        <time>2021-09-27T06:56:30.000Z</time>
      </trkpt>
      <trkpt lat="39.96454543434083461761474609375" lon="-0.69415510632097721099853515625">
        <ele>985.4000244140625</ele>
        <time>2021-09-27T06:56:31.000Z</time>
      </trkpt>
      <trkpt lat="39.96450872160494327545166015625" lon="-0.6941166333854198455810546875">
        <ele>985.20001220703125</ele>
        <time>2021-09-27T06:56:32.000Z</time>
      </trkpt>
      <trkpt lat="39.96447603218257427215576171875" lon="-0.6940720416605472564697265625">
        <ele>985.20001220703125</ele>
        <time>2021-09-27T06:56:33.000Z</time>
      </trkpt>
      <trkpt lat="39.96445138938724994659423828125" lon="-0.694021247327327728271484375">
        <ele>985</ele>
        <time>2021-09-27T06:56:34.000Z</time>
      </trkpt>
      <trkpt lat="39.9644266627728939056396484375" lon="-0.69396735168993473052978515625">
        <ele>985</ele>
        <time>2021-09-27T06:56:35.000Z</time>
      </trkpt>
      <trkpt lat="39.9643984995782375335693359375" lon="-0.6939131207764148712158203125">
        <ele>985.20001220703125</ele>
        <time>2021-09-27T06:56:36.000Z</time>
      </trkpt>
      <trkpt lat="39.9643363058567047119140625" lon="-0.69381865672767162322998046875">
        <ele>985.20001220703125</ele>
        <time>2021-09-27T06:56:38.000Z</time>
      </trkpt>
      <trkpt lat="39.96425592340528964996337890625" lon="-0.6937488354742527008056640625">
        <ele>985.4000244140625</ele>
        <time>2021-09-27T06:56:40.000Z</time>
      </trkpt>
      <trkpt lat="39.964167661964893341064453125" lon="-0.69371907971799373626708984375">
        <ele>985.4000244140625</ele>
        <time>2021-09-27T06:56:42.000Z</time>
      </trkpt>
      <trkpt lat="39.96408292092382907867431640625" lon="-0.6937377713620662689208984375">
        <ele>985.5999755859375</ele>
        <time>2021-09-27T06:56:44.000Z</time>
      </trkpt>
      <trkpt lat="39.96401553042232990264892578125" lon="-0.6937974505126476287841796875">
        <ele>985.5999755859375</ele>
        <time>2021-09-27T06:56:46.000Z</time>
      </trkpt>
      <trkpt lat="39.9639619700610637664794921875" lon="-0.69386878050863742828369140625">
        <ele>985.79998779296875</ele>
        <time>2021-09-27T06:56:48.000Z</time>
      </trkpt>
      <trkpt lat="39.96393925510346889495849609375" lon="-0.69391320459544658660888671875">
        <ele>985.79998779296875</ele>
        <time>2021-09-27T06:56:49.000Z</time>
      </trkpt>
      <trkpt lat="39.96391980908811092376708984375" lon="-0.693959891796112060546875">
        <ele>985.5999755859375</ele>
        <time>2021-09-27T06:56:50.000Z</time>
      </trkpt>
      <trkpt lat="39.96386624872684478759765625" lon="-0.6940512545406818389892578125">
        <ele>985.5999755859375</ele>
        <time>2021-09-27T06:56:52.000Z</time>
      </trkpt>
      <trkpt lat="39.96383816935122013092041015625" lon="-0.69409324787557125091552734375">
        <ele>985.5999755859375</ele>
        <time>2021-09-27T06:56:53.000Z</time>
      </trkpt>
      <trkpt lat="39.96380514465272426605224609375" lon="-0.69413616321980953216552734375">
        <ele>985.5999755859375</ele>
        <time>2021-09-27T06:56:54.000Z</time>
      </trkpt>
      <trkpt lat="39.9637272767722606658935546875" lon="-0.69421327672898769378662109375">
        <ele>985.5999755859375</ele>
        <time>2021-09-27T06:56:56.000Z</time>
      </trkpt>
      <trkpt lat="39.96368511579930782318115234375" lon="-0.694247223436832427978515625">
        <ele>985.4000244140625</ele>
        <time>2021-09-27T06:56:57.000Z</time>
      </trkpt>
      <trkpt lat="39.9636380933225154876708984375" lon="-0.69427479989826679229736328125">
        <ele>985.4000244140625</ele>
        <time>2021-09-27T06:56:58.000Z</time>
      </trkpt>
      <trkpt lat="39.9635398574173450469970703125" lon="-0.6943137757480144500732421875">
        <ele>985.20001220703125</ele>
        <time>2021-09-27T06:57:00.000Z</time>
      </trkpt>
      <trkpt lat="39.963487051427364349365234375" lon="-0.6943251751363277435302734375">
        <ele>985.20001220703125</ele>
        <time>2021-09-27T06:57:01.000Z</time>
      </trkpt>
      <trkpt lat="39.96343801729381084442138671875" lon="-0.694330371916294097900390625">
        <ele>985</ele>
        <time>2021-09-27T06:57:02.000Z</time>
      </trkpt>
      <trkpt lat="39.96338638477027416229248046875" lon="-0.69432995282113552093505859375">
        <ele>985</ele>
        <time>2021-09-27T06:57:03.000Z</time>
      </trkpt>
      <trkpt lat="39.9633339978754520416259765625" lon="-0.69432475604116916656494140625">
        <ele>985</ele>
        <time>2021-09-27T06:57:04.000Z</time>
      </trkpt>
      <trkpt lat="39.96328286826610565185546875" lon="-0.69432106800377368927001953125">
        <ele>984.79998779296875</ele>
        <time>2021-09-27T06:57:05.000Z</time>
      </trkpt>
      <trkpt lat="39.96323551051318645477294921875" lon="-0.69432735443115234375">
        <ele>984.79998779296875</ele>
        <time>2021-09-27T06:57:06.000Z</time>
      </trkpt>
      <trkpt lat="39.963193349540233612060546875" lon="-0.694351159036159515380859375">
        <ele>984.79998779296875</ele>
        <time>2021-09-27T06:57:07.000Z</time>
      </trkpt>
      <trkpt lat="39.963152110576629638671875" lon="-0.6943895481526851654052734375">
        <ele>984.5999755859375</ele>
        <time>2021-09-27T06:57:08.000Z</time>
      </trkpt>
      <trkpt lat="39.96306871064007282257080078125" lon="-0.69448493421077728271484375">
        <ele>984.4000244140625</ele>
        <time>2021-09-27T06:57:10.000Z</time>
      </trkpt>
      <trkpt lat="39.9630248732864856719970703125" lon="-0.6945276819169521331787109375">
        <ele>984.4000244140625</ele>
        <time>2021-09-27T06:57:11.000Z</time>
      </trkpt>
      <trkpt lat="39.96297466568648815155029296875" lon="-0.6945662386715412139892578125">
        <ele>984.20001220703125</ele>
        <time>2021-09-27T06:57:12.000Z</time>
      </trkpt>
      <trkpt lat="39.96286922134459018707275390625" lon="-0.6946349702775478363037109375">
        <ele>984</ele>
        <time>2021-09-27T06:57:14.000Z</time>
      </trkpt>
      <trkpt lat="39.9627576582133769989013671875" lon="-0.69469490088522434234619140625">
        <ele>984</ele>
        <time>2021-09-27T06:57:16.000Z</time>
      </trkpt>
      <trkpt lat="39.96263913810253143310546875" lon="-0.69475273601710796356201171875">
        <ele>984</ele>
        <time>2021-09-27T06:57:18.000Z</time>
      </trkpt>
      <trkpt lat="39.962520785629749298095703125" lon="-0.6948032788932323455810546875">
        <ele>983.79998779296875</ele>
        <time>2021-09-27T06:57:20.000Z</time>
      </trkpt>
      <trkpt lat="39.96240151114761829376220703125" lon="-0.69485373795032501220703125">
        <ele>983.79998779296875</ele>
        <time>2021-09-27T06:57:22.000Z</time>
      </trkpt>
      <trkpt lat="39.96227645315229892730712890625" lon="-0.69489891640841960906982421875">
        <ele>983.79998779296875</ele>
        <time>2021-09-27T06:57:24.000Z</time>
      </trkpt>
      <trkpt lat="39.9622146785259246826171875" lon="-0.69492213428020477294921875">
        <ele>983.79998779296875</ele>
        <time>2021-09-27T06:57:25.000Z</time>
      </trkpt>
      <trkpt lat="39.96215173043310642242431640625" lon="-0.69494627416133880615234375">
        <ele>983.79998779296875</ele>
        <time>2021-09-27T06:57:26.000Z</time>
      </trkpt>
      <trkpt lat="39.9620327912271022796630859375" lon="-0.6950084678828716278076171875">
        <ele>983.5999755859375</ele>
        <time>2021-09-27T06:57:28.000Z</time>
      </trkpt>
      <trkpt lat="39.96192810125648975372314453125" lon="-0.69509455002844333648681640625">
        <ele>983.5999755859375</ele>
        <time>2021-09-27T06:57:30.000Z</time>
      </trkpt>
      <trkpt lat="39.96183489449322223663330078125" lon="-0.6951843202114105224609375">
        <ele>983.4000244140625</ele>
        <time>2021-09-27T06:57:32.000Z</time>
      </trkpt>
      <trkpt lat="39.96178342960774898529052734375" lon="-0.695225894451141357421875">
        <ele>983.4000244140625</ele>
        <time>2021-09-27T06:57:33.000Z</time>
      </trkpt>
      <trkpt lat="39.96173095889389514923095703125" lon="-0.69525799714028835296630859375">
        <ele>983.4000244140625</ele>
        <time>2021-09-27T06:57:34.000Z</time>
      </trkpt>
      <trkpt lat="39.96167513541877269744873046875" lon="-0.69529093801975250244140625">
        <ele>983.20001220703125</ele>
        <time>2021-09-27T06:57:35.000Z</time>
      </trkpt>
      <trkpt lat="39.96161277405917644500732421875" lon="-0.695323459804058074951171875">
        <ele>983.20001220703125</ele>
        <time>2021-09-27T06:57:36.000Z</time>
      </trkpt>
      <trkpt lat="39.96147480793297290802001953125" lon="-0.69538506679236888885498046875">
        <ele>983.20001220703125</ele>
        <time>2021-09-27T06:57:38.000Z</time>
      </trkpt>
      <trkpt lat="39.96133566834032535552978515625" lon="-0.6954391300678253173828125">
        <ele>983.20001220703125</ele>
        <time>2021-09-27T06:57:40.000Z</time>
      </trkpt>
      <trkpt lat="39.96126794256269931793212890625" lon="-0.695468299090862274169921875">
        <ele>983.20001220703125</ele>
        <time>2021-09-27T06:57:41.000Z</time>
      </trkpt>
      <trkpt lat="39.96120172552764415740966796875" lon="-0.69549453444778919219970703125">
        <ele>983.20001220703125</ele>
        <time>2021-09-27T06:57:42.000Z</time>
      </trkpt>
      <trkpt lat="39.9610752426087856292724609375" lon="-0.69554801099002361297607421875">
        <ele>983</ele>
        <time>2021-09-27T06:57:44.000Z</time>
      </trkpt>
      <trkpt lat="39.96095311827957630157470703125" lon="-0.69560031406581401824951171875">
        <ele>982.5999755859375</ele>
        <time>2021-09-27T06:57:46.000Z</time>
      </trkpt>
      <trkpt lat="39.96083091013133525848388671875" lon="-0.6956495158374309539794921875">
        <ele>982.20001220703125</ele>
        <time>2021-09-27T06:57:48.000Z</time>
      </trkpt>
      <trkpt lat="39.96071306057274341583251953125" lon="-0.69570743478834629058837890625">
        <ele>982</ele>
        <time>2021-09-27T06:57:50.000Z</time>
      </trkpt>
      <trkpt lat="39.960592277348041534423828125" lon="-0.69575755856931209564208984375">
        <ele>981.5999755859375</ele>
        <time>2021-09-27T06:57:52.000Z</time>
      </trkpt>
      <trkpt lat="39.96047333814203739166259765625" lon="-0.69580952636897563934326171875">
        <ele>981.4000244140625</ele>
        <time>2021-09-27T06:57:54.000Z</time>
      </trkpt>
      <trkpt lat="39.96041449718177318572998046875" lon="-0.6958360970020294189453125">
        <ele>981.20001220703125</ele>
        <time>2021-09-27T06:57:55.000Z</time>
      </trkpt>
      <trkpt lat="39.96035330928862094879150390625" lon="-0.695864595472812652587890625">
        <ele>981</ele>
        <time>2021-09-27T06:57:56.000Z</time>
      </trkpt>
      <trkpt lat="39.960232861340045928955078125" lon="-0.69591899402439594268798828125">
        <ele>980.79998779296875</ele>
        <time>2021-09-27T06:57:58.000Z</time>
      </trkpt>
      <trkpt lat="39.960114844143390655517578125" lon="-0.69597464986145496368408203125">
        <ele>980.5999755859375</ele>
        <time>2021-09-27T06:58:00.000Z</time>
      </trkpt>
      <trkpt lat="39.95999523438513278961181640625" lon="-0.69603131152689456939697265625">
        <ele>980.5999755859375</ele>
        <time>2021-09-27T06:58:02.000Z</time>
      </trkpt>
      <trkpt lat="39.95986984111368656158447265625" lon="-0.69608948193490505218505859375">
        <ele>980.4000244140625</ele>
        <time>2021-09-27T06:58:04.000Z</time>
      </trkpt>
      <trkpt lat="39.9597363173961639404296875" lon="-0.6961440481245517730712890625">
        <ele>980</ele>
        <time>2021-09-27T06:58:06.000Z</time>
      </trkpt>
      <trkpt lat="39.95960162021219730377197265625" lon="-0.69620096124708652496337890625">
        <ele>979.4000244140625</ele>
        <time>2021-09-27T06:58:08.000Z</time>
      </trkpt>
      <trkpt lat="39.95947237126529216766357421875" lon="-0.696256868541240692138671875">
        <ele>979.20001220703125</ele>
        <time>2021-09-27T06:58:10.000Z</time>
      </trkpt>
      <trkpt lat="39.959408082067966461181640625" lon="-0.69628494791686534881591796875">
        <ele>979.20001220703125</ele>
        <time>2021-09-27T06:58:11.000Z</time>
      </trkpt>
      <trkpt lat="39.959343038499355316162109375" lon="-0.69631193764507770538330078125">
        <ele>979.20001220703125</ele>
        <time>2021-09-27T06:58:12.000Z</time>
      </trkpt>
      <trkpt lat="39.9592117778956890106201171875" lon="-0.69636139087378978729248046875">
        <ele>979</ele>
        <time>2021-09-27T06:58:14.000Z</time>
      </trkpt>
      <trkpt lat="39.9590800143778324127197265625" lon="-0.69640581496059894561767578125">
        <ele>979</ele>
        <time>2021-09-27T06:58:16.000Z</time>
      </trkpt>
      <trkpt lat="39.95894908905029296875" lon="-0.6964484788477420806884765625">
        <ele>979</ele>
        <time>2021-09-27T06:58:18.000Z</time>
      </trkpt>
      <trkpt lat="39.95881120674312114715576171875" lon="-0.6964813359081745147705078125">
        <ele>979</ele>
        <time>2021-09-27T06:58:20.000Z</time>
      </trkpt>
      <trkpt lat="39.958670139312744140625" lon="-0.69650187157094478607177734375">
        <ele>979</ele>
        <time>2021-09-27T06:58:22.000Z</time>
      </trkpt>
      <trkpt lat="39.95852999389171600341796875" lon="-0.69652198813855648040771484375">
        <ele>978.5999755859375</ele>
        <time>2021-09-27T06:58:24.000Z</time>
      </trkpt>
      <trkpt lat="39.9583950452506542205810546875" lon="-0.6965333037078380584716796875">
        <ele>978.4000244140625</ele>
        <time>2021-09-27T06:58:26.000Z</time>
      </trkpt>
      <trkpt lat="39.95826235972344875335693359375" lon="-0.696535147726535797119140625">
        <ele>978</ele>
        <time>2021-09-27T06:58:28.000Z</time>
      </trkpt>
      <trkpt lat="39.9581999145448207855224609375" lon="-0.6965333037078380584716796875">
        <ele>977.79998779296875</ele>
        <time>2021-09-27T06:58:29.000Z</time>
      </trkpt>
      <trkpt lat="39.95813478715717792510986328125" lon="-0.69653137587010860443115234375">
        <ele>977.79998779296875</ele>
        <time>2021-09-27T06:58:30.000Z</time>
      </trkpt>
      <trkpt lat="39.9580733478069305419921875" lon="-0.69652743637561798095703125">
        <ele>977.5999755859375</ele>
        <time>2021-09-27T06:58:31.000Z</time>
      </trkpt>
      <trkpt lat="39.95800838805735111236572265625" lon="-0.6965225748717784881591796875">
        <ele>977.4000244140625</ele>
        <time>2021-09-27T06:58:32.000Z</time>
      </trkpt>
      <trkpt lat="39.957879893481731414794921875" lon="-0.69651042111217975616455078125">
        <ele>977</ele>
        <time>2021-09-27T06:58:34.000Z</time>
      </trkpt>
      <trkpt lat="39.95781250298023223876953125" lon="-0.69650463759899139404296875">
        <ele>976.79998779296875</ele>
        <time>2021-09-27T06:58:35.000Z</time>
      </trkpt>
      <trkpt lat="39.95774737559258937835693359375" lon="-0.69649432785809040069580078125">
        <ele>976.5999755859375</ele>
        <time>2021-09-27T06:58:36.000Z</time>
      </trkpt>
      <trkpt lat="39.95768266730010509490966796875" lon="-0.696480162441730499267578125">
        <ele>976.4000244140625</ele>
        <time>2021-09-27T06:58:37.000Z</time>
      </trkpt>
      <trkpt lat="39.957615025341510772705078125" lon="-0.69646566174924373626708984375">
        <ele>976</ele>
        <time>2021-09-27T06:58:38.000Z</time>
      </trkpt>
      <trkpt lat="39.95748032815754413604736328125" lon="-0.6964330561459064483642578125">
        <ele>975.5999755859375</ele>
        <time>2021-09-27T06:58:40.000Z</time>
      </trkpt>
      <trkpt lat="39.9573491513729095458984375" lon="-0.6963971816003322601318359375">
        <ele>975</ele>
        <time>2021-09-27T06:58:42.000Z</time>
      </trkpt>
      <trkpt lat="39.9572846107184886932373046875" lon="-0.696380920708179473876953125">
        <ele>974.79998779296875</ele>
        <time>2021-09-27T06:58:43.000Z</time>
      </trkpt>
      <trkpt lat="39.95722032152116298675537109375" lon="-0.6963666714727878570556640625">
        <ele>974.5999755859375</ele>
        <time>2021-09-27T06:58:44.000Z</time>
      </trkpt>
      <trkpt lat="39.957091994583606719970703125" lon="-0.6963418610394001007080078125">
        <ele>974.20001220703125</ele>
        <time>2021-09-27T06:58:46.000Z</time>
      </trkpt>
      <trkpt lat="39.9570281244814395904541015625" lon="-0.69632886908948421478271484375">
        <ele>974.20001220703125</ele>
        <time>2021-09-27T06:58:47.000Z</time>
      </trkpt>
      <trkpt lat="39.956963919103145599365234375" lon="-0.69631361402571201324462890625">
        <ele>974.20001220703125</ele>
        <time>2021-09-27T06:58:48.000Z</time>
      </trkpt>
      <trkpt lat="39.956832490861415863037109375" lon="-0.69628377445042133331298828125">
        <ele>974.20001220703125</ele>
        <time>2021-09-27T06:58:50.000Z</time>
      </trkpt>
      <trkpt lat="39.95676501654088497161865234375" lon="-0.69627187214791774749755859375">
        <ele>974.4000244140625</ele>
        <time>2021-09-27T06:58:51.000Z</time>
      </trkpt>
      <trkpt lat="39.95669938623905181884765625" lon="-0.69625946693122386932373046875">
        <ele>974.4000244140625</ele>
        <time>2021-09-27T06:58:52.000Z</time>
      </trkpt>
      <trkpt lat="39.95656586252152919769287109375" lon="-0.69623465649783611297607421875">
        <ele>974.4000244140625</ele>
        <time>2021-09-27T06:58:54.000Z</time>
      </trkpt>
      <trkpt lat="39.95642806403338909149169921875" lon="-0.696206577122211456298828125">
        <ele>974.4000244140625</ele>
        <time>2021-09-27T06:58:56.000Z</time>
      </trkpt>
      <trkpt lat="39.956292696297168731689453125" lon="-0.6961772404611110687255859375">
        <ele>973.5999755859375</ele>
        <time>2021-09-27T06:58:58.000Z</time>
      </trkpt>
      <trkpt lat="39.9562261439859867095947265625" lon="-0.69616399705410003662109375">
        <ele>973.20001220703125</ele>
        <time>2021-09-27T06:58:59.000Z</time>
      </trkpt>
      <trkpt lat="39.9561595916748046875" lon="-0.69614949636161327362060546875">
        <ele>973</ele>
        <time>2021-09-27T06:59:00.000Z</time>
      </trkpt>
      <trkpt lat="39.95602707378566265106201171875" lon="-0.6961282901465892791748046875">
        <ele>972.79998779296875</ele>
        <time>2021-09-27T06:59:02.000Z</time>
      </trkpt>
      <trkpt lat="39.95588843710720539093017578125" lon="-0.6961044855415821075439453125">
        <ele>972.4000244140625</ele>
        <time>2021-09-27T06:59:04.000Z</time>
      </trkpt>
      <trkpt lat="39.955749548971652984619140625" lon="-0.696079172194004058837890625">
        <ele>972.20001220703125</ele>
        <time>2021-09-27T06:59:06.000Z</time>
      </trkpt>
      <trkpt lat="39.9556092359125614166259765625" lon="-0.69605008698999881744384765625">
        <ele>971.79998779296875</ele>
        <time>2021-09-27T06:59:08.000Z</time>
      </trkpt>
      <trkpt lat="39.95546498335897922515869140625" lon="-0.69602024741470813751220703125">
        <ele>971.5999755859375</ele>
        <time>2021-09-27T06:59:10.000Z</time>
      </trkpt>
      <trkpt lat="39.9553188867866992950439453125" lon="-0.69599191658198833465576171875">
        <ele>971.20001220703125</ele>
        <time>2021-09-27T06:59:12.000Z</time>
      </trkpt>
      <trkpt lat="39.95524420402944087982177734375" lon="-0.69597490131855010986328125">
        <ele>971</ele>
        <time>2021-09-27T06:59:13.000Z</time>
      </trkpt>
      <trkpt lat="39.95517211966216564178466796875" lon="-0.69595721550285816192626953125">
        <ele>971</ele>
        <time>2021-09-27T06:59:14.000Z</time>
      </trkpt>
      <trkpt lat="39.95509919710457324981689453125" lon="-0.69594162516295909881591796875">
        <ele>970.79998779296875</ele>
        <time>2021-09-27T06:59:15.000Z</time>
      </trkpt>
      <trkpt lat="39.95502476580440998077392578125" lon="-0.69592569954693317413330078125">
        <ele>970.5999755859375</ele>
        <time>2021-09-27T06:59:16.000Z</time>
      </trkpt>
      <trkpt lat="39.95488143526017665863037109375" lon="-0.6958922557532787322998046875">
        <ele>969.79998779296875</ele>
        <time>2021-09-27T06:59:18.000Z</time>
      </trkpt>
      <trkpt lat="39.9547368474304676055908203125" lon="-0.69585956633090972900390625">
        <ele>969.20001220703125</ele>
        <time>2021-09-27T06:59:20.000Z</time>
      </trkpt>
      <trkpt lat="39.9545916728675365447998046875" lon="-0.69582947529852390289306640625">
        <ele>968.4000244140625</ele>
        <time>2021-09-27T06:59:22.000Z</time>
      </trkpt>
      <trkpt lat="39.95444901287555694580078125" lon="-0.6957997195422649383544921875">
        <ele>968.4000244140625</ele>
        <time>2021-09-27T06:59:24.000Z</time>
      </trkpt>
      <trkpt lat="39.95430677197873592376708984375" lon="-0.69576811976730823516845703125">
        <ele>968.20001220703125</ele>
        <time>2021-09-27T06:59:26.000Z</time>
      </trkpt>
      <trkpt lat="39.95415941812098026275634765625" lon="-0.69573509506881237030029296875">
        <ele>967.4000244140625</ele>
        <time>2021-09-27T06:59:28.000Z</time>
      </trkpt>
      <trkpt lat="39.95408423244953155517578125" lon="-0.6957152299582958221435546875">
        <ele>967.20001220703125</ele>
        <time>2021-09-27T06:59:29.000Z</time>
      </trkpt>
      <trkpt lat="39.9540082924067974090576171875" lon="-0.6956954486668109893798828125">
        <ele>966.79998779296875</ele>
        <time>2021-09-27T06:59:30.000Z</time>
      </trkpt>
      <trkpt lat="39.95386068709194660186767578125" lon="-0.695651359856128692626953125">
        <ele>966</ele>
        <time>2021-09-27T06:59:32.000Z</time>
      </trkpt>
      <trkpt lat="39.9537162669003009796142578125" lon="-0.69559427909553050994873046875">
        <ele>965.4000244140625</ele>
        <time>2021-09-27T06:59:34.000Z</time>
      </trkpt>
      <trkpt lat="39.95357151143252849578857421875" lon="-0.69552839733660221099853515625">
        <ele>966.20001220703125</ele>
        <time>2021-09-27T06:59:36.000Z</time>
      </trkpt>
      <trkpt lat="39.95342172682285308837890625" lon="-0.69544675759971141815185546875">
        <ele>967.79998779296875</ele>
        <time>2021-09-27T06:59:38.000Z</time>
      </trkpt>
      <trkpt lat="39.95327495969831943511962890625" lon="-0.69534852169454097747802734375">
        <ele>969.4000244140625</ele>
        <time>2021-09-27T06:59:40.000Z</time>
      </trkpt>
      <trkpt lat="39.9531375803053379058837890625" lon="-0.6952361203730106353759765625">
        <ele>970.20001220703125</ele>
        <time>2021-09-27T06:59:42.000Z</time>
      </trkpt>
      <trkpt lat="39.95301025919616222381591796875" lon="-0.69511567242443561553955078125">
        <ele>968.20001220703125</ele>
        <time>2021-09-27T06:59:44.000Z</time>
      </trkpt>
      <trkpt lat="39.95288285426795482635498046875" lon="-0.69498918950557708740234375">
        <ele>966.5999755859375</ele>
        <time>2021-09-27T06:59:46.000Z</time>
      </trkpt>
      <trkpt lat="39.9527540244162082672119140625" lon="-0.69484644569456577301025390625">
        <ele>966</ele>
        <time>2021-09-27T06:59:48.000Z</time>
      </trkpt>
      <trkpt lat="39.95269074104726314544677734375" lon="-0.69477017037570476531982421875">
        <ele>967.5999755859375</ele>
        <time>2021-09-27T06:59:49.000Z</time>
      </trkpt>
      <trkpt lat="39.9526272900402545928955078125" lon="-0.6946956552565097808837890625">
        <ele>969</ele>
        <time>2021-09-27T06:59:50.000Z</time>
      </trkpt>
      <trkpt lat="39.9525005556643009185791015625" lon="-0.69454637356102466583251953125">
        <ele>971.79998779296875</ele>
        <time>2021-09-27T06:59:52.000Z</time>
      </trkpt>
      <trkpt lat="39.952376671135425567626953125" lon="-0.69440069608390331268310546875">
        <ele>974.20001220703125</ele>
        <time>2021-09-27T06:59:54.000Z</time>
      </trkpt>
      <trkpt lat="39.95224817655980587005615234375" lon="-0.69425904192030429840087890625">
        <ele>972.20001220703125</ele>
        <time>2021-09-27T06:59:56.000Z</time>
      </trkpt>
      <trkpt lat="39.95211758650839328765869140625" lon="-0.69411386735737323760986328125">
        <ele>969.79998779296875</ele>
        <time>2021-09-27T06:59:58.000Z</time>
      </trkpt>
      <trkpt lat="39.951993785798549652099609375" lon="-0.693973638117313385009765625">
        <ele>968.79998779296875</ele>
        <time>2021-09-27T07:00:00.000Z</time>
      </trkpt>
      <trkpt lat="39.95187467895448207855224609375" lon="-0.693834833800792694091796875">
        <ele>970.4000244140625</ele>
        <time>2021-09-27T07:00:02.000Z</time>
      </trkpt>
      <trkpt lat="39.95175364427268505096435546875" lon="-0.69369636476039886474609375">
        <ele>972.4000244140625</ele>
        <time>2021-09-27T07:00:04.000Z</time>
      </trkpt>
      <trkpt lat="39.9516335316002368927001953125" lon="-0.69355865009129047393798828125">
        <ele>974.20001220703125</ele>
        <time>2021-09-27T07:00:06.000Z</time>
      </trkpt>
      <trkpt lat="39.9515151791274547576904296875" lon="-0.69342018105089664459228515625">
        <ele>973</ele>
        <time>2021-09-27T07:00:08.000Z</time>
      </trkpt>
      <trkpt lat="39.95145038701593875885009765625" lon="-0.69335161708295345306396484375">
        <ele>971.5999755859375</ele>
        <time>2021-09-27T07:00:09.000Z</time>
      </trkpt>
      <trkpt lat="39.95138383470475673675537109375" lon="-0.693282969295978546142578125">
        <ele>970.4000244140625</ele>
        <time>2021-09-27T07:00:10.000Z</time>
      </trkpt>
      <trkpt lat="39.95125408284366130828857421875" lon="-0.693146176636219024658203125">
        <ele>967.5999755859375</ele>
        <time>2021-09-27T07:00:12.000Z</time>
      </trkpt>
      <trkpt lat="39.95112240314483642578125" lon="-0.69301466457545757293701171875">
        <ele>965.79998779296875</ele>
        <time>2021-09-27T07:00:14.000Z</time>
      </trkpt>
      <trkpt lat="39.950987957417964935302734375" lon="-0.6928865052759647369384765625">
        <ele>967.4000244140625</ele>
        <time>2021-09-27T07:00:16.000Z</time>
      </trkpt>
      <trkpt lat="39.9509198963642120361328125" lon="-0.69282707758247852325439453125">
        <ele>968.20001220703125</ele>
        <time>2021-09-27T07:00:17.000Z</time>
      </trkpt>
      <trkpt lat="39.9508540146052837371826171875" lon="-0.692765302956104278564453125">
        <ele>969</ele>
        <time>2021-09-27T07:00:18.000Z</time>
      </trkpt>
      <trkpt lat="39.95071881450712680816650390625" lon="-0.69264787249267101287841796875">
        <ele>969.20001220703125</ele>
        <time>2021-09-27T07:00:20.000Z</time>
      </trkpt>
      <trkpt lat="39.95058436878025531768798828125" lon="-0.69253421388566493988037109375">
        <ele>966.20001220703125</ele>
        <time>2021-09-27T07:00:22.000Z</time>
      </trkpt>
      <trkpt lat="39.9504392780363559722900390625" lon="-0.6924221478402614593505859375">
        <ele>963</ele>
        <time>2021-09-27T07:00:24.000Z</time>
      </trkpt>
      <trkpt lat="39.95029167272150516510009765625" lon="-0.69231569766998291015625">
        <ele>963</ele>
        <time>2021-09-27T07:00:26.000Z</time>
      </trkpt>
      <trkpt lat="39.95014381594955921173095703125" lon="-0.69221578538417816162109375">
        <ele>963.20001220703125</ele>
        <time>2021-09-27T07:00:28.000Z</time>
      </trkpt>
      <trkpt lat="39.9500000663101673126220703125" lon="-0.6921131908893585205078125">
        <ele>965</ele>
        <time>2021-09-27T07:00:30.000Z</time>
      </trkpt>
      <trkpt lat="39.94985246099531650543212890625" lon="-0.6920188106596469879150390625">
        <ele>967</ele>
        <time>2021-09-27T07:00:32.000Z</time>
      </trkpt>
      <trkpt lat="39.9496973119676113128662109375" lon="-0.6919306330382823944091796875">
        <ele>966</ele>
        <time>2021-09-27T07:00:34.000Z</time>
      </trkpt>
      <trkpt lat="39.94962095282971858978271484375" lon="-0.6918897293508052825927734375">
        <ele>964.4000244140625</ele>
        <time>2021-09-27T07:00:35.000Z</time>
      </trkpt>
      <trkpt lat="39.9495410732924938201904296875" lon="-0.69185142405331134796142578125">
        <ele>963.4000244140625</ele>
        <time>2021-09-27T07:00:36.000Z</time>
      </trkpt>
      <trkpt lat="39.9493868462741374969482421875" lon="-0.69177514873445034027099609375">
        <ele>963.20001220703125</ele>
        <time>2021-09-27T07:00:38.000Z</time>
      </trkpt>
      <trkpt lat="39.94923270307481288909912109375" lon="-0.69170323200523853302001953125">
        <ele>963.20001220703125</ele>
        <time>2021-09-27T07:00:40.000Z</time>
      </trkpt>
      <trkpt lat="39.94907981716096401214599609375" lon="-0.69163567386567592620849609375">
        <ele>962</ele>
        <time>2021-09-27T07:00:42.000Z</time>
      </trkpt>
      <trkpt lat="39.9490039609372615814208984375" lon="-0.6916007213294506072998046875">
        <ele>961.4000244140625</ele>
        <time>2021-09-27T07:00:43.000Z</time>
      </trkpt>
      <trkpt lat="39.948928691446781158447265625" lon="-0.691565014421939849853515625">
        <ele>960.79998779296875</ele>
        <time>2021-09-27T07:00:44.000Z</time>
      </trkpt>
      <trkpt lat="39.94877723045647144317626953125" lon="-0.6914909183979034423828125">
        <ele>959.5999755859375</ele>
        <time>2021-09-27T07:00:46.000Z</time>
      </trkpt>
      <trkpt lat="39.94862082414329051971435546875" lon="-0.69141858257353305816650390625">
        <ele>958</ele>
        <time>2021-09-27T07:00:48.000Z</time>
      </trkpt>
      <trkpt lat="39.9484621547162532806396484375" lon="-0.69134666584432125091552734375">
        <ele>957</ele>
        <time>2021-09-27T07:00:50.000Z</time>
      </trkpt>
      <trkpt lat="39.9483002163469791412353515625" lon="-0.6912721507251262664794921875">
        <ele>957.4000244140625</ele>
        <time>2021-09-27T07:00:52.000Z</time>
      </trkpt>
      <trkpt lat="39.9481355957686901092529296875" lon="-0.6912044249475002288818359375">
        <ele>957.5999755859375</ele>
        <time>2021-09-27T07:00:54.000Z</time>
      </trkpt>
      <trkpt lat="39.94797474704682826995849609375" lon="-0.69112923927605152130126953125">
        <ele>956.4000244140625</ele>
        <time>2021-09-27T07:00:56.000Z</time>
      </trkpt>
      <trkpt lat="39.9478192627429962158203125" lon="-0.6910542212426662445068359375">
        <ele>955.20001220703125</ele>
        <time>2021-09-27T07:00:58.000Z</time>
      </trkpt>
      <trkpt lat="39.94774156250059604644775390625" lon="-0.69101960398256778717041015625">
        <ele>954.79998779296875</ele>
        <time>2021-09-27T07:00:59.000Z</time>
      </trkpt>
      <trkpt lat="39.94766428135335445404052734375" lon="-0.69098389707505702972412109375">
        <ele>954.20001220703125</ele>
        <time>2021-09-27T07:01:00.000Z</time>
      </trkpt>
      <trkpt lat="39.947512485086917877197265625" lon="-0.6909073702991008758544921875">
        <ele>953.4000244140625</ele>
        <time>2021-09-27T07:01:02.000Z</time>
      </trkpt>
      <trkpt lat="39.9473668076097965240478515625" lon="-0.69082866422832012176513671875">
        <ele>951.79998779296875</ele>
        <time>2021-09-27T07:01:04.000Z</time>
      </trkpt>
      <trkpt lat="39.94722339324653148651123046875" lon="-0.6907383911311626434326171875">
        <ele>950.4000244140625</ele>
        <time>2021-09-27T07:01:06.000Z</time>
      </trkpt>
      <trkpt lat="39.94707654230296611785888671875" lon="-0.69063873030245304107666015625">
        <ele>948.79998779296875</ele>
        <time>2021-09-27T07:01:08.000Z</time>
      </trkpt>
      <trkpt lat="39.9469339661300182342529296875" lon="-0.690511576831340789794921875">
        <ele>948.20001220703125</ele>
        <time>2021-09-27T07:01:10.000Z</time>
      </trkpt>
      <trkpt lat="39.9468625523149967193603515625" lon="-0.69044142030179500579833984375">
        <ele>948.5999755859375</ele>
        <time>2021-09-27T07:01:11.000Z</time>
      </trkpt>
      <trkpt lat="39.9467904679477214813232421875" lon="-0.69036774337291717529296875">
        <ele>949.20001220703125</ele>
        <time>2021-09-27T07:01:12.000Z</time>
      </trkpt>
      <trkpt lat="39.94672198779881000518798828125" lon="-0.69029130041599273681640625">
        <ele>949.79998779296875</ele>
        <time>2021-09-27T07:01:13.000Z</time>
      </trkpt>
      <trkpt lat="39.9466607160866260528564453125" lon="-0.690209157764911651611328125">
        <ele>950.4000244140625</ele>
        <time>2021-09-27T07:01:14.000Z</time>
      </trkpt>
      <trkpt lat="39.94660799391567707061767578125" lon="-0.69012056104838848114013671875">
        <ele>950.5999755859375</ele>
        <time>2021-09-27T07:01:15.000Z</time>
      </trkpt>
      <trkpt lat="39.94655988179147243499755859375" lon="-0.69002836011350154876708984375">
        <ele>949.79998779296875</ele>
        <time>2021-09-27T07:01:16.000Z</time>
      </trkpt>
      <trkpt lat="39.9465157091617584228515625" lon="-0.68992760963737964630126953125">
        <ele>949.20001220703125</ele>
        <time>2021-09-27T07:01:17.000Z</time>
      </trkpt>
      <trkpt lat="39.94647237472236156463623046875" lon="-0.6898267753422260284423828125">
        <ele>948.5999755859375</ele>
        <time>2021-09-27T07:01:18.000Z</time>
      </trkpt>
      <trkpt lat="39.94642828591167926788330078125" lon="-0.68972711451351642608642578125">
        <ele>947.79998779296875</ele>
        <time>2021-09-27T07:01:19.000Z</time>
      </trkpt>
      <trkpt lat="39.94638226926326751708984375" lon="-0.689626447856426239013671875">
        <ele>947.4000244140625</ele>
        <time>2021-09-27T07:01:20.000Z</time>
      </trkpt>
      <trkpt lat="39.94629652239382266998291015625" lon="-0.68942201323807239532470703125">
        <ele>946</ele>
        <time>2021-09-27T07:01:22.000Z</time>
      </trkpt>
      <trkpt lat="39.94621337391436100006103515625" lon="-0.6892128847539424896240234375">
        <ele>944.5999755859375</ele>
        <time>2021-09-27T07:01:24.000Z</time>
      </trkpt>
      <trkpt lat="39.94614430703222751617431640625" lon="-0.688995458185672760009765625">
        <ele>943.5999755859375</ele>
        <time>2021-09-27T07:01:26.000Z</time>
      </trkpt>
      <trkpt lat="39.946090243756771087646484375" lon="-0.688783563673496246337890625">
        <ele>942.5999755859375</ele>
        <time>2021-09-27T07:01:28.000Z</time>
      </trkpt>
      <trkpt lat="39.94605445303022861480712890625" lon="-0.68857468664646148681640625">
        <ele>941.20001220703125</ele>
        <time>2021-09-27T07:01:30.000Z</time>
      </trkpt>
      <trkpt lat="39.9460428021848201751708984375" lon="-0.6884799711406230926513671875">
        <ele>940.79998779296875</ele>
        <time>2021-09-27T07:01:31.000Z</time>
      </trkpt>
      <trkpt lat="39.94603760540485382080078125" lon="-0.68838416598737239837646484375">
        <ele>940.20001220703125</ele>
        <time>2021-09-27T07:01:32.000Z</time>
      </trkpt>
      <trkpt lat="39.9460315704345703125" lon="-0.68817906081676483154296875">
        <ele>939.20001220703125</ele>
        <time>2021-09-27T07:01:34.000Z</time>
      </trkpt>
      <trkpt lat="39.9460471607744693756103515625" lon="-0.6879599578678607940673828125">
        <ele>938.4000244140625</ele>
        <time>2021-09-27T07:01:36.000Z</time>
      </trkpt>
      <trkpt lat="39.9460723064839839935302734375" lon="-0.6877331435680389404296875">
        <ele>936.79998779296875</ele>
        <time>2021-09-27T07:01:38.000Z</time>
      </trkpt>
      <trkpt lat="39.94608697481453418731689453125" lon="-0.68762057460844516754150390625">
        <ele>936.20001220703125</ele>
        <time>2021-09-27T07:01:39.000Z</time>
      </trkpt>
      <trkpt lat="39.94610491208732128143310546875" lon="-0.68750741891562938690185546875">
        <ele>935.4000244140625</ele>
        <time>2021-09-27T07:01:40.000Z</time>
      </trkpt>
      <trkpt lat="39.9461551196873188018798828125" lon="-0.68728588521480560302734375">
        <ele>934.20001220703125</ele>
        <time>2021-09-27T07:01:42.000Z</time>
      </trkpt>
      <trkpt lat="39.9462241865694522857666015625" lon="-0.68707172758877277374267578125">
        <ele>933.4000244140625</ele>
        <time>2021-09-27T07:01:44.000Z</time>
      </trkpt>
      <trkpt lat="39.9462620727717876434326171875" lon="-0.68696678616106510162353515625">
        <ele>933</ele>
        <time>2021-09-27T07:01:45.000Z</time>
      </trkpt>
      <trkpt lat="39.94630171917378902435302734375" lon="-0.68686519749462604522705078125">
        <ele>932.5999755859375</ele>
        <time>2021-09-27T07:01:46.000Z</time>
      </trkpt>
      <trkpt lat="39.94638302363455295562744140625" lon="-0.686665959656238555908203125">
        <ele>931.79998779296875</ele>
        <time>2021-09-27T07:01:48.000Z</time>
      </trkpt>
      <trkpt lat="39.946458376944065093994140625" lon="-0.68647175095975399017333984375">
        <ele>931</ele>
        <time>2021-09-27T07:01:50.000Z</time>
      </trkpt>
      <trkpt lat="39.94653691537678241729736328125" lon="-0.686276368796825408935546875">
        <ele>930.20001220703125</ele>
        <time>2021-09-27T07:01:52.000Z</time>
      </trkpt>
      <trkpt lat="39.946575723588466644287109375" lon="-0.68618073128163814544677734375">
        <ele>930</ele>
        <time>2021-09-27T07:01:53.000Z</time>
      </trkpt>
      <trkpt lat="39.94661453180015087127685546875" lon="-0.68608668632805347442626953125">
        <ele>929.5999755859375</ele>
        <time>2021-09-27T07:01:54.000Z</time>
      </trkpt>
      <trkpt lat="39.94669332168996334075927734375" lon="-0.68589725531637668609619140625">
        <ele>928.79998779296875</ele>
        <time>2021-09-27T07:01:56.000Z</time>
      </trkpt>
      <trkpt lat="39.94676976464688777923583984375" lon="-0.68571218289434909820556640625">
        <ele>928.20001220703125</ele>
        <time>2021-09-27T07:01:58.000Z</time>
      </trkpt>
      <trkpt lat="39.9468484707176685333251953125" lon="-0.68552912212908267974853515625">
        <ele>927.4000244140625</ele>
        <time>2021-09-27T07:02:00.000Z</time>
      </trkpt>
      <trkpt lat="39.94688627310097217559814453125" lon="-0.6854356639087200164794921875">
        <ele>927.5999755859375</ele>
        <time>2021-09-27T07:02:01.000Z</time>
      </trkpt>
      <trkpt lat="39.9469222314655780792236328125" lon="-0.6853406131267547607421875">
        <ele>927.5999755859375</ele>
        <time>2021-09-27T07:02:02.000Z</time>
      </trkpt>
      <trkpt lat="39.9469919688999652862548828125" lon="-0.68515612743794918060302734375">
        <ele>927.79998779296875</ele>
        <time>2021-09-27T07:02:04.000Z</time>
      </trkpt>
      <trkpt lat="39.94706581346690654754638671875" lon="-0.68497776053845882415771484375">
        <ele>928</ele>
        <time>2021-09-27T07:02:06.000Z</time>
      </trkpt>
      <trkpt lat="39.94714510627090930938720703125" lon="-0.6848070211708545684814453125">
        <ele>928.4000244140625</ele>
        <time>2021-09-27T07:02:08.000Z</time>
      </trkpt>
      <trkpt lat="39.94718559086322784423828125" lon="-0.6847232021391391754150390625">
        <ele>928.5999755859375</ele>
        <time>2021-09-27T07:02:09.000Z</time>
      </trkpt>
      <trkpt lat="39.94722909294068813323974609375" lon="-0.6846410594880580902099609375">
        <ele>928.5999755859375</ele>
        <time>2021-09-27T07:02:10.000Z</time>
      </trkpt>
      <trkpt lat="39.947313331067562103271484375" lon="-0.68448607809841632843017578125">
        <ele>928.79998779296875</ele>
        <time>2021-09-27T07:02:12.000Z</time>
      </trkpt>
      <trkpt lat="39.9473981559276580810546875" lon="-0.68433721549808979034423828125">
        <ele>929.20001220703125</ele>
        <time>2021-09-27T07:02:14.000Z</time>
      </trkpt>
      <trkpt lat="39.9474814720451831817626953125" lon="-0.684196315705776214599609375">
        <ele>929.4000244140625</ele>
        <time>2021-09-27T07:02:16.000Z</time>
      </trkpt>
      <trkpt lat="39.947558082640171051025390625" lon="-0.68406580947339534759521484375">
        <ele>929.79998779296875</ele>
        <time>2021-09-27T07:02:18.000Z</time>
      </trkpt>
      <trkpt lat="39.947630502283573150634765625" lon="-0.68394913338124752044677734375">
        <ele>930</ele>
        <time>2021-09-27T07:02:20.000Z</time>
      </trkpt>
      <trkpt lat="39.94769847951829433441162109375" lon="-0.683838240802288055419921875">
        <ele>930.20001220703125</ele>
        <time>2021-09-27T07:02:22.000Z</time>
      </trkpt>
      <trkpt lat="39.94777123443782329559326171875" lon="-0.68372684530913829803466796875">
        <ele>930.4000244140625</ele>
        <time>2021-09-27T07:02:24.000Z</time>
      </trkpt>
      <trkpt lat="39.94784315116703510284423828125" lon="-0.6836131028831005096435546875">
        <ele>930.4000244140625</ele>
        <time>2021-09-27T07:02:26.000Z</time>
      </trkpt>
      <trkpt lat="39.94791707955300807952880859375" lon="-0.683491565287113189697265625">
        <ele>930.5999755859375</ele>
        <time>2021-09-27T07:02:28.000Z</time>
      </trkpt>
      <trkpt lat="39.947996623814105987548828125" lon="-0.68337229080498218536376953125">
        <ele>931</ele>
        <time>2021-09-27T07:02:30.000Z</time>
      </trkpt>
      <trkpt lat="39.948073737323284149169921875" lon="-0.6832550279796123504638671875">
        <ele>931.20001220703125</ele>
        <time>2021-09-27T07:02:32.000Z</time>
      </trkpt>
      <trkpt lat="39.94815110228955745697021484375" lon="-0.683133490383625030517578125">
        <ele>931.5999755859375</ele>
        <time>2021-09-27T07:02:34.000Z</time>
      </trkpt>
      <trkpt lat="39.94823525659739971160888671875" lon="-0.68301840685307979583740234375">
        <ele>931.79998779296875</ele>
        <time>2021-09-27T07:02:36.000Z</time>
      </trkpt>
      <trkpt lat="39.9483102746307849884033203125" lon="-0.6829174049198627471923828125">
        <ele>931.79998779296875</ele>
        <time>2021-09-27T07:02:38.000Z</time>
      </trkpt>
      <trkpt lat="39.94838143698871135711669921875" lon="-0.68281623534858226776123046875">
        <ele>931.5999755859375</ele>
        <time>2021-09-27T07:02:40.000Z</time>
      </trkpt>
      <trkpt lat="39.948464334011077880859375" lon="-0.68270961754024028778076171875">
        <ele>931.4000244140625</ele>
        <time>2021-09-27T07:02:42.000Z</time>
      </trkpt>
      <trkpt lat="39.948559217154979705810546875" lon="-0.6826049275696277618408203125">
        <ele>931.4000244140625</ele>
        <time>2021-09-27T07:02:44.000Z</time>
      </trkpt>
      <trkpt lat="39.94860825128853321075439453125" lon="-0.68255044519901275634765625">
        <ele>931.4000244140625</ele>
        <time>2021-09-27T07:02:45.000Z</time>
      </trkpt>
      <trkpt lat="39.94865502230823040008544921875" lon="-0.68248934112489223480224609375">
        <ele>931.20001220703125</ele>
        <time>2021-09-27T07:02:46.000Z</time>
      </trkpt>
      <trkpt lat="39.94874739088118076324462890625" lon="-0.68234483711421489715576171875">
        <ele>931</ele>
        <time>2021-09-27T07:02:48.000Z</time>
      </trkpt>
      <trkpt lat="39.94883917272090911865234375" lon="-0.6821838207542896270751953125">
        <ele>930.5999755859375</ele>
        <time>2021-09-27T07:02:50.000Z</time>
      </trkpt>
      <trkpt lat="39.94892424903810024261474609375" lon="-0.6820141710340976715087890625">
        <ele>930.4000244140625</ele>
        <time>2021-09-27T07:02:52.000Z</time>
      </trkpt>
      <trkpt lat="39.94900018908083438873291015625" lon="-0.68186120130121707916259765625">
        <ele>930.4000244140625</ele>
        <time>2021-09-27T07:02:54.000Z</time>
      </trkpt>
      <trkpt lat="39.94903254322707653045654296875" lon="-0.6817920506000518798828125">
        <ele>930.4000244140625</ele>
        <time>2021-09-27T07:02:55.000Z</time>
      </trkpt>
      <trkpt lat="39.949058108031749725341796875" lon="-0.68172306753695011138916015625">
        <ele>930.4000244140625</ele>
        <time>2021-09-27T07:02:56.000Z</time>
      </trkpt>
      <trkpt lat="39.94908015243709087371826171875" lon="-0.68166003562510013580322265625">
        <ele>930.4000244140625</ele>
        <time>2021-09-27T07:02:57.000Z</time>
      </trkpt>
      <trkpt lat="39.949104376137256622314453125" lon="-0.6816037930548191070556640625">
        <ele>930.4000244140625</ele>
        <time>2021-09-27T07:02:58.000Z</time>
      </trkpt>
      <trkpt lat="39.9491286836564540863037109375" lon="-0.68155090324580669403076171875">
        <ele>930.4000244140625</ele>
        <time>2021-09-27T07:02:59.000Z</time>
      </trkpt>
      <trkpt lat="39.94915273971855640411376953125" lon="-0.68150212056934833526611328125">
        <ele>930.4000244140625</ele>
        <time>2021-09-27T07:03:00.000Z</time>
      </trkpt>
      <trkpt lat="39.9492061324417591094970703125" lon="-0.6814120151102542877197265625">
        <ele>930.4000244140625</ele>
        <time>2021-09-27T07:03:02.000Z</time>
      </trkpt>
      <trkpt lat="39.94926589541137218475341796875" lon="-0.681327693164348602294921875">
        <ele>930.4000244140625</ele>
        <time>2021-09-27T07:03:04.000Z</time>
      </trkpt>
      <trkpt lat="39.94929523207247257232666015625" lon="-0.68128586746752262115478515625">
        <ele>930.5999755859375</ele>
        <time>2021-09-27T07:03:05.000Z</time>
      </trkpt>
      <trkpt lat="39.94932155124843120574951171875" lon="-0.68124529905617237091064453125">
        <ele>930.5999755859375</ele>
        <time>2021-09-27T07:03:06.000Z</time>
      </trkpt>
      <trkpt lat="39.94936396367847919464111328125" lon="-0.68116567097604274749755859375">
        <ele>930.79998779296875</ele>
        <time>2021-09-27T07:03:08.000Z</time>
      </trkpt>
      <trkpt lat="39.94941509328782558441162109375" lon="-0.681088976562023162841796875">
        <ele>931</ele>
        <time>2021-09-27T07:03:10.000Z</time>
      </trkpt>
      <trkpt lat="39.94944007135927677154541015625" lon="-0.68104631267488002777099609375">
        <ele>931</ele>
        <time>2021-09-27T07:03:12.000Z</time>
      </trkpt>
      <trkpt lat="39.94944007135927677154541015625" lon="-0.68104631267488002777099609375">
        <ele>931</ele>
        <time>2021-09-27T07:03:13.000Z</time>
      </trkpt>
      <trkpt lat="39.94950058870017528533935546875" lon="-0.68098227493464946746826171875">
        <ele>931.20001220703125</ele>
        <time>2021-09-27T07:05:37.000Z</time>
      </trkpt>
      <trkpt lat="39.9495169334113597869873046875" lon="-0.680956542491912841796875">
        <ele>931.20001220703125</ele>
        <time>2021-09-27T07:05:38.000Z</time>
      </trkpt>
      <trkpt lat="39.94953730143606662750244140625" lon="-0.68092544563114643096923828125">
        <ele>931.20001220703125</ele>
        <time>2021-09-27T07:05:39.000Z</time>
      </trkpt>
      <trkpt lat="39.9495652131736278533935546875" lon="-0.68088487721979618072509765625">
        <ele>931.4000244140625</ele>
        <time>2021-09-27T07:05:40.000Z</time>
      </trkpt>
      <trkpt lat="39.94959496892988681793212890625" lon="-0.68083827383816242218017578125">
        <ele>931.5999755859375</ele>
        <time>2021-09-27T07:05:41.000Z</time>
      </trkpt>
      <trkpt lat="39.9496309272944927215576171875" lon="-0.68078412674367427825927734375">
        <ele>931.79998779296875</ele>
        <time>2021-09-27T07:05:42.000Z</time>
      </trkpt>
      <trkpt lat="39.94966537691652774810791015625" lon="-0.6807267107069492340087890625">
        <ele>931.79998779296875</ele>
        <time>2021-09-27T07:05:43.000Z</time>
      </trkpt>
      <trkpt lat="39.94969521649181842803955078125" lon="-0.6806643493473529815673828125">
        <ele>932</ele>
        <time>2021-09-27T07:05:44.000Z</time>
      </trkpt>
      <trkpt lat="39.949725307524204254150390625" lon="-0.680596120655536651611328125">
        <ele>932.20001220703125</ele>
        <time>2021-09-27T07:05:45.000Z</time>
      </trkpt>
      <trkpt lat="39.94976411573588848114013671875" lon="-0.68052981980144977569580078125">
        <ele>932.4000244140625</ele>
        <time>2021-09-27T07:05:46.000Z</time>
      </trkpt>
      <trkpt lat="39.94980585761368274688720703125" lon="-0.68046636879444122314453125">
        <ele>932.20001220703125</ele>
        <time>2021-09-27T07:05:47.000Z</time>
      </trkpt>
      <trkpt lat="39.949846006929874420166015625" lon="-0.68040191195905208587646484375">
        <ele>932</ele>
        <time>2021-09-27T07:05:48.000Z</time>
      </trkpt>
      <trkpt lat="39.94992320425808429718017578125" lon="-0.6802724115550518035888671875">
        <ele>931.5999755859375</ele>
        <time>2021-09-27T07:05:50.000Z</time>
      </trkpt>
      <trkpt lat="39.95000459253787994384765625" lon="-0.68014341406524181365966796875">
        <ele>931.4000244140625</ele>
        <time>2021-09-27T07:05:52.000Z</time>
      </trkpt>
      <trkpt lat="39.95004172436892986297607421875" lon="-0.68007946014404296875">
        <ele>931.20001220703125</ele>
        <time>2021-09-27T07:05:53.000Z</time>
      </trkpt>
      <trkpt lat="39.950076006352901458740234375" lon="-0.68001735024154186248779296875">
        <ele>931</ele>
        <time>2021-09-27T07:05:54.000Z</time>
      </trkpt>
      <trkpt lat="39.9501472525298595428466796875" lon="-0.67990176379680633544921875">
        <ele>930.79998779296875</ele>
        <time>2021-09-27T07:05:56.000Z</time>
      </trkpt>
      <trkpt lat="39.95022260583937168121337890625" lon="-0.6797849200665950775146484375">
        <ele>930.79998779296875</ele>
        <time>2021-09-27T07:05:58.000Z</time>
      </trkpt>
      <trkpt lat="39.95029318146407604217529296875" lon="-0.67966229282319545745849609375">
        <ele>930.5999755859375</ele>
        <time>2021-09-27T07:06:00.000Z</time>
      </trkpt>
      <trkpt lat="39.950367696583271026611328125" lon="-0.67952667362987995147705078125">
        <ele>930.4000244140625</ele>
        <time>2021-09-27T07:06:02.000Z</time>
      </trkpt>
      <trkpt lat="39.9504359252750873565673828125" lon="-0.679386444389820098876953125">
        <ele>930.4000244140625</ele>
        <time>2021-09-27T07:06:04.000Z</time>
      </trkpt>
      <trkpt lat="39.95050189085304737091064453125" lon="-0.6792533397674560546875">
        <ele>930.20001220703125</ele>
        <time>2021-09-27T07:06:06.000Z</time>
      </trkpt>
      <trkpt lat="39.95056592859327793121337890625" lon="-0.6791214086115360260009765625">
        <ele>930.20001220703125</ele>
        <time>2021-09-27T07:06:08.000Z</time>
      </trkpt>
      <trkpt lat="39.9506199918687343597412109375" lon="-0.678980089724063873291015625">
        <ele>930</ele>
        <time>2021-09-27T07:06:10.000Z</time>
      </trkpt>
      <trkpt lat="39.95067673735320568084716796875" lon="-0.678832232952117919921875">
        <ele>929.79998779296875</ele>
        <time>2021-09-27T07:06:12.000Z</time>
      </trkpt>
      <trkpt lat="39.95070523582398891448974609375" lon="-0.67875444889068603515625">
        <ele>929.5999755859375</ele>
        <time>2021-09-27T07:06:13.000Z</time>
      </trkpt>
      <trkpt lat="39.95073147118091583251953125" lon="-0.67867523990571498870849609375">
        <ele>929.4000244140625</ele>
        <time>2021-09-27T07:06:14.000Z</time>
      </trkpt>
      <trkpt lat="39.95077949948608875274658203125" lon="-0.67851774394512176513671875">
        <ele>929</ele>
        <time>2021-09-27T07:06:16.000Z</time>
      </trkpt>
      <trkpt lat="39.95082878507673740386962890625" lon="-0.678355805575847625732421875">
        <ele>928.5999755859375</ele>
        <time>2021-09-27T07:06:18.000Z</time>
      </trkpt>
      <trkpt lat="39.95087371207773685455322265625" lon="-0.67819244228303432464599609375">
        <ele>928</ele>
        <time>2021-09-27T07:06:20.000Z</time>
      </trkpt>
      <trkpt lat="39.95091092772781848907470703125" lon="-0.67803092300891876220703125">
        <ele>927.4000244140625</ele>
        <time>2021-09-27T07:06:22.000Z</time>
      </trkpt>
      <trkpt lat="39.950947724282741546630859375" lon="-0.6778634525835514068603515625">
        <ele>927</ele>
        <time>2021-09-27T07:06:24.000Z</time>
      </trkpt>
      <trkpt lat="39.9509767256677150726318359375" lon="-0.67768835462629795074462890625">
        <ele>926.5999755859375</ele>
        <time>2021-09-27T07:06:26.000Z</time>
      </trkpt>
      <trkpt lat="39.95099759660661220550537109375" lon="-0.67751417867839336395263671875">
        <ele>926</ele>
        <time>2021-09-27T07:06:28.000Z</time>
      </trkpt>
      <trkpt lat="39.9510149471461772918701171875" lon="-0.67733715288341045379638671875">
        <ele>925.5999755859375</ele>
        <time>2021-09-27T07:06:30.000Z</time>
      </trkpt>
      <trkpt lat="39.951020143926143646240234375" lon="-0.677156187593936920166015625">
        <ele>925.20001220703125</ele>
        <time>2021-09-27T07:06:32.000Z</time>
      </trkpt>
      <trkpt lat="39.9510219879448413848876953125" lon="-0.67697639577090740203857421875">
        <ele>924.5999755859375</ele>
        <time>2021-09-27T07:06:34.000Z</time>
      </trkpt>
      <trkpt lat="39.9510223232209682464599609375" lon="-0.6768881343305110931396484375">
        <ele>924.4000244140625</ele>
        <time>2021-09-27T07:06:35.000Z</time>
      </trkpt>
      <trkpt lat="39.9510199762880802154541015625" lon="-0.6767996214330196380615234375">
        <ele>924.20001220703125</ele>
        <time>2021-09-27T07:06:36.000Z</time>
      </trkpt>
      <trkpt lat="39.95101151056587696075439453125" lon="-0.6766152195632457733154296875">
        <ele>923.79998779296875</ele>
        <time>2021-09-27T07:06:38.000Z</time>
      </trkpt>
      <trkpt lat="39.951000027358531951904296875" lon="-0.67643056623637676239013671875">
        <ele>923.5999755859375</ele>
        <time>2021-09-27T07:06:40.000Z</time>
      </trkpt>
      <trkpt lat="39.95099206455051898956298828125" lon="-0.676337443292140960693359375">
        <ele>923.4000244140625</ele>
        <time>2021-09-27T07:06:41.000Z</time>
      </trkpt>
      <trkpt lat="39.95098167099058628082275390625" lon="-0.6762433983385562896728515625">
        <ele>923.4000244140625</ele>
        <time>2021-09-27T07:06:42.000Z</time>
      </trkpt>
      <trkpt lat="39.950955770909786224365234375" lon="-0.6760573200881481170654296875">
        <ele>923.4000244140625</ele>
        <time>2021-09-27T07:06:44.000Z</time>
      </trkpt>
      <trkpt lat="39.95092199184000492095947265625" lon="-0.67586998455226421356201171875">
        <ele>923.20001220703125</ele>
        <time>2021-09-27T07:06:46.000Z</time>
      </trkpt>
      <trkpt lat="39.9508774839341640472412109375" lon="-0.675680302083492279052734375">
        <ele>922.5999755859375</ele>
        <time>2021-09-27T07:06:48.000Z</time>
      </trkpt>
      <trkpt lat="39.95083079673349857330322265625" lon="-0.67549355328083038330078125">
        <ele>922.20001220703125</ele>
        <time>2021-09-27T07:06:50.000Z</time>
      </trkpt>
      <trkpt lat="39.9507752247154712677001953125" lon="-0.6753145158290863037109375">
        <ele>922.20001220703125</ele>
        <time>2021-09-27T07:06:52.000Z</time>
      </trkpt>
      <trkpt lat="39.95071914978325366973876953125" lon="-0.67515986971557140350341796875">
        <ele>922</ele>
        <time>2021-09-27T07:06:54.000Z</time>
      </trkpt>
      <trkpt lat="39.9506702832877635955810546875" lon="-0.67502860911190509796142578125">
        <ele>921.4000244140625</ele>
        <time>2021-09-27T07:06:56.000Z</time>
      </trkpt>
      <trkpt lat="39.950613789260387420654296875" lon="-0.67489164881408214569091796875">
        <ele>920.4000244140625</ele>
        <time>2021-09-27T07:06:58.000Z</time>
      </trkpt>
      <trkpt lat="39.9505489133298397064208984375" lon="-0.67475368268787860870361328125">
        <ele>919.4000244140625</ele>
        <time>2021-09-27T07:07:00.000Z</time>
      </trkpt>
      <trkpt lat="39.95047573931515216827392578125" lon="-0.67460968159139156341552734375">
        <ele>918.5999755859375</ele>
        <time>2021-09-27T07:07:02.000Z</time>
      </trkpt>
      <trkpt lat="39.95040382258594036102294921875" lon="-0.67445780150592327117919921875">
        <ele>918</ele>
        <time>2021-09-27T07:07:04.000Z</time>
      </trkpt>
      <trkpt lat="39.95032511651515960693359375" lon="-0.67430608905851840972900390625">
        <ele>917.5999755859375</ele>
        <time>2021-09-27T07:07:06.000Z</time>
      </trkpt>
      <trkpt lat="39.9502441473305225372314453125" lon="-0.67415387369692325592041015625">
        <ele>917.20001220703125</ele>
        <time>2021-09-27T07:07:08.000Z</time>
      </trkpt>
      <trkpt lat="39.950152449309825897216796875" lon="-0.674010626971721649169921875">
        <ele>916.5999755859375</ele>
        <time>2021-09-27T07:07:10.000Z</time>
      </trkpt>
      <trkpt lat="39.95005547069013118743896484375" lon="-0.67387484014034271240234375">
        <ele>915.79998779296875</ele>
        <time>2021-09-27T07:07:12.000Z</time>
      </trkpt>
      <trkpt lat="39.94995296001434326171875" lon="-0.6737435795366764068603515625">
        <ele>915.4000244140625</ele>
        <time>2021-09-27T07:07:14.000Z</time>
      </trkpt>
      <trkpt lat="39.94986453093588352203369140625" lon="-0.67363754846155643463134765625">
        <ele>915</ele>
        <time>2021-09-27T07:07:16.000Z</time>
      </trkpt>
      <trkpt lat="39.9497828073799610137939453125" lon="-0.67354534752666950225830078125">
        <ele>914.4000244140625</ele>
        <time>2021-09-27T07:07:18.000Z</time>
      </trkpt>
      <trkpt lat="39.94968147017061710357666015625" lon="-0.67344862036406993865966796875">
        <ele>913.79998779296875</ele>
        <time>2021-09-27T07:07:20.000Z</time>
      </trkpt>
      <trkpt lat="39.94962866418063640594482421875" lon="-0.67339749075472354888916015625">
        <ele>913.4000244140625</ele>
        <time>2021-09-27T07:07:21.000Z</time>
      </trkpt>
      <trkpt lat="39.94957149960100650787353515625" lon="-0.673339068889617919921875">
        <ele>913</ele>
        <time>2021-09-27T07:07:22.000Z</time>
      </trkpt>
      <trkpt lat="39.94945205748081207275390625" lon="-0.673229433596134185791015625">
        <ele>912.5999755859375</ele>
        <time>2021-09-27T07:07:24.000Z</time>
      </trkpt>
      <trkpt lat="39.94932373054325580596923828125" lon="-0.67312859930098056793212890625">
        <ele>912</ele>
        <time>2021-09-27T07:07:26.000Z</time>
      </trkpt>
      <trkpt lat="39.94919096119701862335205078125" lon="-0.67303321324288845062255859375">
        <ele>911.20001220703125</ele>
        <time>2021-09-27T07:07:28.000Z</time>
      </trkpt>
      <trkpt lat="39.94912491180002689361572265625" lon="-0.67298971116542816162109375">
        <ele>910.79998779296875</ele>
        <time>2021-09-27T07:07:29.000Z</time>
      </trkpt>
      <trkpt lat="39.94905735366046428680419921875" lon="-0.6729466281831264495849609375">
        <ele>910.4000244140625</ele>
        <time>2021-09-27T07:07:30.000Z</time>
      </trkpt>
      <trkpt lat="39.948920309543609619140625" lon="-0.67286171950399875640869140625">
        <ele>909.5999755859375</ele>
        <time>2021-09-27T07:07:32.000Z</time>
      </trkpt>
      <trkpt lat="39.94878351688385009765625" lon="-0.67278913222253322601318359375">
        <ele>909</ele>
        <time>2021-09-27T07:07:34.000Z</time>
      </trkpt>
      <trkpt lat="39.94864697568118572235107421875" lon="-0.6727276928722858428955078125">
        <ele>908.5999755859375</ele>
        <time>2021-09-27T07:07:36.000Z</time>
      </trkpt>
      <trkpt lat="39.94857841171324253082275390625" lon="-0.67270212806761264801025390625">
        <ele>908.4000244140625</ele>
        <time>2021-09-27T07:07:37.000Z</time>
      </trkpt>
      <trkpt lat="39.9485064111649990081787109375" lon="-0.67267832346260547637939453125">
        <ele>908.20001220703125</ele>
        <time>2021-09-27T07:07:38.000Z</time>
      </trkpt>
      <trkpt lat="39.948356710374355316162109375" lon="-0.67263322882354259490966796875">
        <ele>908</ele>
        <time>2021-09-27T07:07:40.000Z</time>
      </trkpt>
      <trkpt lat="39.948204495012760162353515625" lon="-0.672593414783477783203125">
        <ele>907.5999755859375</ele>
        <time>2021-09-27T07:07:42.000Z</time>
      </trkpt>
      <trkpt lat="39.9480457417666912078857421875" lon="-0.67256131209433078765869140625">
        <ele>907.20001220703125</ele>
        <time>2021-09-27T07:07:44.000Z</time>
      </trkpt>
      <trkpt lat="39.94788204319775104522705078125" lon="-0.6725375913083553314208984375">
        <ele>906.5999755859375</ele>
        <time>2021-09-27T07:07:46.000Z</time>
      </trkpt>
      <trkpt lat="39.9477195180952548980712890625" lon="-0.672523342072963714599609375">
        <ele>905.79998779296875</ele>
        <time>2021-09-27T07:07:48.000Z</time>
      </trkpt>
      <trkpt lat="39.9475590884685516357421875" lon="-0.6725201569497585296630859375">
        <ele>905.20001220703125</ele>
        <time>2021-09-27T07:07:50.000Z</time>
      </trkpt>
      <trkpt lat="39.94740159250795841217041015625" lon="-0.67252946086227893829345703125">
        <ele>904.5999755859375</ele>
        <time>2021-09-27T07:07:52.000Z</time>
      </trkpt>
      <trkpt lat="39.9472424201667308807373046875" lon="-0.67253935150802135467529296875">
        <ele>904</ele>
        <time>2021-09-27T07:07:54.000Z</time>
      </trkpt>
      <trkpt lat="39.94708643294870853424072265625" lon="-0.67255091853439807891845703125">
        <ele>903.4000244140625</ele>
        <time>2021-09-27T07:07:56.000Z</time>
      </trkpt>
      <trkpt lat="39.9469296075403690338134765625" lon="-0.67256365902721881866455078125">
        <ele>903.4000244140625</ele>
        <time>2021-09-27T07:07:58.000Z</time>
      </trkpt>
      <trkpt lat="39.9467713572084903717041015625" lon="-0.67257220856845378875732421875">
        <ele>903.4000244140625</ele>
        <time>2021-09-27T07:08:00.000Z</time>
      </trkpt>
      <trkpt lat="39.94660883210599422454833984375" lon="-0.672585703432559967041015625">
        <ele>903.4000244140625</ele>
        <time>2021-09-27T07:08:02.000Z</time>
      </trkpt>
      <trkpt lat="39.9464491568505764007568359375" lon="-0.6725972704589366912841796875">
        <ele>903.20001220703125</ele>
        <time>2021-09-27T07:08:04.000Z</time>
      </trkpt>
      <trkpt lat="39.94629166088998317718505859375" lon="-0.67260825075209140777587890625">
        <ele>903</ele>
        <time>2021-09-27T07:08:06.000Z</time>
      </trkpt>
      <trkpt lat="39.94613039307296276092529296875" lon="-0.67261914722621440887451171875">
        <ele>902.5999755859375</ele>
        <time>2021-09-27T07:08:08.000Z</time>
      </trkpt>
      <trkpt lat="39.94605344720184803009033203125" lon="-0.67262300290167331695556640625">
        <ele>902.4000244140625</ele>
        <time>2021-09-27T07:08:09.000Z</time>
      </trkpt>
      <trkpt lat="39.94597549550235271453857421875" lon="-0.672626607120037078857421875">
        <ele>902</ele>
        <time>2021-09-27T07:08:10.000Z</time>
      </trkpt>
      <trkpt lat="39.94582143612205982208251953125" lon="-0.6726361624896526336669921875">
        <ele>901.5999755859375</ele>
        <time>2021-09-27T07:08:12.000Z</time>
      </trkpt>
      <trkpt lat="39.945659749209880828857421875" lon="-0.67264379002153873443603515625">
        <ele>901</ele>
        <time>2021-09-27T07:08:14.000Z</time>
      </trkpt>
      <trkpt lat="39.94558204896748065948486328125" lon="-0.6726478971540927886962890625">
        <ele>900.79998779296875</ele>
        <time>2021-09-27T07:08:15.000Z</time>
      </trkpt>
      <trkpt lat="39.945501498878002166748046875" lon="-0.67265066318213939666748046875">
        <ele>900.4000244140625</ele>
        <time>2021-09-27T07:08:16.000Z</time>
      </trkpt>
      <trkpt lat="39.94534333236515522003173828125" lon="-0.67265284247696399688720703125">
        <ele>900</ele>
        <time>2021-09-27T07:08:18.000Z</time>
      </trkpt>
      <trkpt lat="39.94518466293811798095703125" lon="-0.6726418621838092803955078125">
        <ele>899.79998779296875</ele>
        <time>2021-09-27T07:08:20.000Z</time>
      </trkpt>
      <trkpt lat="39.94502699933946132659912109375" lon="-0.672621242702007293701171875">
        <ele>899.5999755859375</ele>
        <time>2021-09-27T07:08:22.000Z</time>
      </trkpt>
      <trkpt lat="39.944871179759502410888671875" lon="-0.6725895591080188751220703125">
        <ele>899.4000244140625</ele>
        <time>2021-09-27T07:08:24.000Z</time>
      </trkpt>
      <trkpt lat="39.9447171203792095184326171875" lon="-0.6725429557263851165771484375">
        <ele>899.4000244140625</ele>
        <time>2021-09-27T07:08:26.000Z</time>
      </trkpt>
      <trkpt lat="39.94456415064632892608642578125" lon="-0.67248545587062835693359375">
        <ele>899.4000244140625</ele>
        <time>2021-09-27T07:08:28.000Z</time>
      </trkpt>
      <trkpt lat="39.9444891326129436492919921875" lon="-0.67245184443891048431396484375">
        <ele>899.4000244140625</ele>
        <time>2021-09-27T07:08:29.000Z</time>
      </trkpt>
      <trkpt lat="39.94441377930343151092529296875" lon="-0.67241680808365345001220703125">
        <ele>899.4000244140625</ele>
        <time>2021-09-27T07:08:30.000Z</time>
      </trkpt>
      <trkpt lat="39.94426223449409008026123046875" lon="-0.67233365960419178009033203125">
        <ele>899</ele>
        <time>2021-09-27T07:08:32.000Z</time>
      </trkpt>
      <trkpt lat="39.94418428279459476470947265625" lon="-0.672289989888668060302734375">
        <ele>898.5999755859375</ele>
        <time>2021-09-27T07:08:33.000Z</time>
      </trkpt>
      <trkpt lat="39.94411052204668521881103515625" lon="-0.6722462363541126251220703125">
        <ele>898.20001220703125</ele>
        <time>2021-09-27T07:08:34.000Z</time>
      </trkpt>
      <trkpt lat="39.94404128752648830413818359375" lon="-0.67219887860119342803955078125">
        <ele>897.79998779296875</ele>
        <time>2021-09-27T07:08:35.000Z</time>
      </trkpt>
      <trkpt lat="39.94397289119660854339599609375" lon="-0.67214707843959331512451171875">
        <ele>897.4000244140625</ele>
        <time>2021-09-27T07:08:36.000Z</time>
      </trkpt>
      <trkpt lat="39.9438390322029590606689453125" lon="-0.67203350365161895751953125">
        <ele>896.5999755859375</ele>
        <time>2021-09-27T07:08:38.000Z</time>
      </trkpt>
      <trkpt lat="39.94370768778026103973388671875" lon="-0.67191976122558116912841796875">
        <ele>895.5999755859375</ele>
        <time>2021-09-27T07:08:40.000Z</time>
      </trkpt>
      <trkpt lat="39.9436432309448719024658203125" lon="-0.6718599982559680938720703125">
        <ele>895.5999755859375</ele>
        <time>2021-09-27T07:08:41.000Z</time>
      </trkpt>
      <trkpt lat="39.943583048880100250244140625" lon="-0.671796463429927825927734375">
        <ele>895.79998779296875</ele>
        <time>2021-09-27T07:08:42.000Z</time>
      </trkpt>
      <trkpt lat="39.94352512992918491363525390625" lon="-0.671732760965824127197265625">
        <ele>895.79998779296875</ele>
        <time>2021-09-27T07:08:43.000Z</time>
      </trkpt>
      <trkpt lat="39.9434658698737621307373046875" lon="-0.67166947759687900543212890625">
        <ele>895.79998779296875</ele>
        <time>2021-09-27T07:08:44.000Z</time>
      </trkpt>
      <trkpt lat="39.94341038167476654052734375" lon="-0.67160560749471187591552734375">
        <ele>895.79998779296875</ele>
        <time>2021-09-27T07:08:45.000Z</time>
      </trkpt>
      <trkpt lat="39.94335581548511981964111328125" lon="-0.67153972573578357696533203125">
        <ele>895.79998779296875</ele>
        <time>2021-09-27T07:08:46.000Z</time>
      </trkpt>
      <trkpt lat="39.94325053878128528594970703125" lon="-0.67139958031475543975830078125">
        <ele>895.79998779296875</ele>
        <time>2021-09-27T07:08:48.000Z</time>
      </trkpt>
      <trkpt lat="39.94314475916326045989990234375" lon="-0.6712484546005725860595703125">
        <ele>895.79998779296875</ele>
        <time>2021-09-27T07:08:50.000Z</time>
      </trkpt>
      <trkpt lat="39.943045936524868011474609375" lon="-0.67109129391610622406005859375">
        <ele>895.5999755859375</ele>
        <time>2021-09-27T07:08:52.000Z</time>
      </trkpt>
      <trkpt lat="39.94295415468513965606689453125" lon="-0.6709265895187854766845703125">
        <ele>894.79998779296875</ele>
        <time>2021-09-27T07:08:54.000Z</time>
      </trkpt>
      <trkpt lat="39.94291140697896480560302734375" lon="-0.67084117792546749114990234375">
        <ele>894.20001220703125</ele>
        <time>2021-09-27T07:08:55.000Z</time>
      </trkpt>
      <trkpt lat="39.94287050329148769378662109375" lon="-0.67075383849442005157470703125">
        <ele>893.79998779296875</ele>
        <time>2021-09-27T07:08:56.000Z</time>
      </trkpt>
      <trkpt lat="39.9427936412394046783447265625" lon="-0.6705779023468494415283203125">
        <ele>893.20001220703125</ele>
        <time>2021-09-27T07:08:58.000Z</time>
      </trkpt>
      <trkpt lat="39.94272381998598575592041015625" lon="-0.670395009219646453857421875">
        <ele>893.4000244140625</ele>
        <time>2021-09-27T07:09:00.000Z</time>
      </trkpt>
      <trkpt lat="39.9426618777215480804443359375" lon="-0.6702075898647308349609375">
        <ele>893.5999755859375</ele>
        <time>2021-09-27T07:09:02.000Z</time>
      </trkpt>
      <trkpt lat="39.9426350556313991546630859375" lon="-0.67010843195021152496337890625">
        <ele>893.79998779296875</ele>
        <time>2021-09-27T07:09:03.000Z</time>
      </trkpt>
      <trkpt lat="39.94260882027447223663330078125" lon="-0.67000868730247020721435546875">
        <ele>893.79998779296875</ele>
        <time>2021-09-27T07:09:04.000Z</time>
      </trkpt>
      <trkpt lat="39.94256540201604366302490234375" lon="-0.66980366595089435577392578125">
        <ele>894</ele>
        <time>2021-09-27T07:09:06.000Z</time>
      </trkpt>
      <trkpt lat="39.94252483360469341278076171875" lon="-0.6695948727428913116455078125">
        <ele>894</ele>
        <time>2021-09-27T07:09:08.000Z</time>
      </trkpt>
      <trkpt lat="39.94250521995127201080322265625" lon="-0.6694906018674373626708984375">
        <ele>894.20001220703125</ele>
        <time>2021-09-27T07:09:09.000Z</time>
      </trkpt>
      <trkpt lat="39.942491389811038970947265625" lon="-0.66938591189682483673095703125">
        <ele>894.20001220703125</ele>
        <time>2021-09-27T07:09:10.000Z</time>
      </trkpt>
      <trkpt lat="39.94248007424175739288330078125" lon="-0.66927996464073657989501953125">
        <ele>894</ele>
        <time>2021-09-27T07:09:11.000Z</time>
      </trkpt>
      <trkpt lat="39.94247085414826869964599609375" lon="-0.66917150281369686126708984375">
        <ele>893.5999755859375</ele>
        <time>2021-09-27T07:09:12.000Z</time>
      </trkpt>
      <trkpt lat="39.9424563534557819366455078125" lon="-0.668962039053440093994140625">
        <ele>892.5999755859375</ele>
        <time>2021-09-27T07:09:14.000Z</time>
      </trkpt>
      <trkpt lat="39.9424530006945133209228515625" lon="-0.66875358112156391143798828125">
        <ele>892.20001220703125</ele>
        <time>2021-09-27T07:09:16.000Z</time>
      </trkpt>
      <trkpt lat="39.942457862198352813720703125" lon="-0.66864931024610996246337890625">
        <ele>892.20001220703125</ele>
        <time>2021-09-27T07:09:17.000Z</time>
      </trkpt>
      <trkpt lat="39.94246490299701690673828125" lon="-0.66854638047516345977783203125">
        <ele>892.20001220703125</ele>
        <time>2021-09-27T07:09:18.000Z</time>
      </trkpt>
      <trkpt lat="39.94248099625110626220703125" lon="-0.66834538243710994720458984375">
        <ele>891.5999755859375</ele>
        <time>2021-09-27T07:09:20.000Z</time>
      </trkpt>
      <trkpt lat="39.9425059743225574493408203125" lon="-0.66814488731324672698974609375">
        <ele>891</ele>
        <time>2021-09-27T07:09:22.000Z</time>
      </trkpt>
      <trkpt lat="39.94253673590719699859619140625" lon="-0.66794757731258869171142578125">
        <ele>890.5999755859375</ele>
        <time>2021-09-27T07:09:24.000Z</time>
      </trkpt>
      <trkpt lat="39.9425737001001834869384765625" lon="-0.66774825565516948699951171875">
        <ele>890.79998779296875</ele>
        <time>2021-09-27T07:09:26.000Z</time>
      </trkpt>
      <trkpt lat="39.94261871092021465301513671875" lon="-0.667550526559352874755859375">
        <ele>891</ele>
        <time>2021-09-27T07:09:28.000Z</time>
      </trkpt>
      <trkpt lat="39.94266833178699016571044921875" lon="-0.667357407510280609130859375">
        <ele>891</ele>
        <time>2021-09-27T07:09:30.000Z</time>
      </trkpt>
      <trkpt lat="39.94269750081002712249755859375" lon="-0.66726185381412506103515625">
        <ele>891</ele>
        <time>2021-09-27T07:09:31.000Z</time>
      </trkpt>
      <trkpt lat="39.94272817857563495635986328125" lon="-0.66716722212731838226318359375">
        <ele>891</ele>
        <time>2021-09-27T07:09:32.000Z</time>
      </trkpt>
      <trkpt lat="39.942795149981975555419921875" lon="-0.66698064096271991729736328125">
        <ele>891.20001220703125</ele>
        <time>2021-09-27T07:09:34.000Z</time>
      </trkpt>
      <trkpt lat="39.94287033565342426300048828125" lon="-0.66680076532065868377685546875">
        <ele>891.4000244140625</ele>
        <time>2021-09-27T07:09:36.000Z</time>
      </trkpt>
      <trkpt lat="39.94295264594256877899169921875" lon="-0.66662591882050037384033203125">
        <ele>891.4000244140625</ele>
        <time>2021-09-27T07:09:38.000Z</time>
      </trkpt>
      <trkpt lat="39.94304023683071136474609375" lon="-0.6664593704044818878173828125">
        <ele>891.20001220703125</ele>
        <time>2021-09-27T07:09:40.000Z</time>
      </trkpt>
      <trkpt lat="39.94313905946910381317138671875" lon="-0.6662960909307003021240234375">
        <ele>890.79998779296875</ele>
        <time>2021-09-27T07:09:42.000Z</time>
      </trkpt>
      <trkpt lat="39.9432439170777797698974609375" lon="-0.66613641567528247833251953125">
        <ele>890.20001220703125</ele>
        <time>2021-09-27T07:09:44.000Z</time>
      </trkpt>
      <trkpt lat="39.9433533847332000732421875" lon="-0.665977410972118377685546875">
        <ele>889.4000244140625</ele>
        <time>2021-09-27T07:09:46.000Z</time>
      </trkpt>
      <trkpt lat="39.9434601701796054840087890625" lon="-0.66582343541085720062255859375">
        <ele>888.79998779296875</ele>
        <time>2021-09-27T07:09:48.000Z</time>
      </trkpt>
      <trkpt lat="39.9435641057789325714111328125" lon="-0.66567691974341869354248046875">
        <ele>888</ele>
        <time>2021-09-27T07:09:50.000Z</time>
      </trkpt>
      <trkpt lat="39.94366778992116451263427734375" lon="-0.66552269272506237030029296875">
        <ele>887.20001220703125</ele>
        <time>2021-09-27T07:09:52.000Z</time>
      </trkpt>
      <trkpt lat="39.9437749944627285003662109375" lon="-0.66536896862089633941650390625">
        <ele>886.5999755859375</ele>
        <time>2021-09-27T07:09:54.000Z</time>
      </trkpt>
      <trkpt lat="39.9438779242336750030517578125" lon="-0.66521876491606235504150390625">
        <ele>885.79998779296875</ele>
        <time>2021-09-27T07:09:56.000Z</time>
      </trkpt>
      <trkpt lat="39.94398303329944610595703125" lon="-0.66507183015346527099609375">
        <ele>885</ele>
        <time>2021-09-27T07:09:58.000Z</time>
      </trkpt>
      <trkpt lat="39.94408654980361461639404296875" lon="-0.66492254845798015594482421875">
        <ele>884.20001220703125</ele>
        <time>2021-09-27T07:10:00.000Z</time>
      </trkpt>
      <trkpt lat="39.944192580878734588623046875" lon="-0.66476865671575069427490234375">
        <ele>883.4000244140625</ele>
        <time>2021-09-27T07:10:02.000Z</time>
      </trkpt>
      <trkpt lat="39.94429760612547397613525390625" lon="-0.6646153517067432403564453125">
        <ele>882.5999755859375</ele>
        <time>2021-09-27T07:10:04.000Z</time>
      </trkpt>
      <trkpt lat="39.944400452077388763427734375" lon="-0.664461292326450347900390625">
        <ele>882</ele>
        <time>2021-09-27T07:10:06.000Z</time>
      </trkpt>
      <trkpt lat="39.9445038847625255584716796875" lon="-0.66430681385099887847900390625">
        <ele>881.4000244140625</ele>
        <time>2021-09-27T07:10:08.000Z</time>
      </trkpt>
      <trkpt lat="39.944611676037311553955078125" lon="-0.664148814976215362548828125">
        <ele>881</ele>
        <time>2021-09-27T07:10:10.000Z</time>
      </trkpt>
      <trkpt lat="39.94472055695950984954833984375" lon="-0.66398419439792633056640625">
        <ele>881</ele>
        <time>2021-09-27T07:10:12.000Z</time>
      </trkpt>
      <trkpt lat="39.94482130743563175201416015625" lon="-0.6638158857822418212890625">
        <ele>881</ele>
        <time>2021-09-27T07:10:14.000Z</time>
      </trkpt>
      <trkpt lat="39.94491644203662872314453125" lon="-0.66364347003400325775146484375">
        <ele>880.79998779296875</ele>
        <time>2021-09-27T07:10:16.000Z</time>
      </trkpt>
      <trkpt lat="39.94500855915248394012451171875" lon="-0.66346627660095691680908203125">
        <ele>880.5999755859375</ele>
        <time>2021-09-27T07:10:18.000Z</time>
      </trkpt>
      <trkpt lat="39.9450976587831974029541015625" lon="-0.66328036598861217498779296875">
        <ele>880.4000244140625</ele>
        <time>2021-09-27T07:10:20.000Z</time>
      </trkpt>
      <trkpt lat="39.94518742896616458892822265625" lon="-0.663093365728855133056640625">
        <ele>880.4000244140625</ele>
        <time>2021-09-27T07:10:22.000Z</time>
      </trkpt>
      <trkpt lat="39.9452792108058929443359375" lon="-0.6629121489822864532470703125">
        <ele>879.79998779296875</ele>
        <time>2021-09-27T07:10:24.000Z</time>
      </trkpt>
      <trkpt lat="39.94536361657083034515380859375" lon="-0.66273696720600128173828125">
        <ele>879</ele>
        <time>2021-09-27T07:10:26.000Z</time>
      </trkpt>
      <trkpt lat="39.94544844143092632293701171875" lon="-0.6625674851238727569580078125">
        <ele>878.5999755859375</ele>
        <time>2021-09-27T07:10:28.000Z</time>
      </trkpt>
      <trkpt lat="39.94553695432841777801513671875" lon="-0.66239121370017528533935546875">
        <ele>878.5999755859375</ele>
        <time>2021-09-27T07:10:30.000Z</time>
      </trkpt>
      <trkpt lat="39.94562194682657718658447265625" lon="-0.66220580600202083587646484375">
        <ele>878.5999755859375</ele>
        <time>2021-09-27T07:10:32.000Z</time>
      </trkpt>
      <trkpt lat="39.94570828042924404144287109375" lon="-0.66202391870319843292236328125">
        <ele>878.5999755859375</ele>
        <time>2021-09-27T07:10:34.000Z</time>
      </trkpt>
      <trkpt lat="39.945750273764133453369140625" lon="-0.6619338132441043853759765625">
        <ele>878.5999755859375</ele>
        <time>2021-09-27T07:10:35.000Z</time>
      </trkpt>
      <trkpt lat="39.94579293765127658843994140625" lon="-0.66184119321405887603759765625">
        <ele>878.5999755859375</ele>
        <time>2021-09-27T07:10:36.000Z</time>
      </trkpt>
      <trkpt lat="39.94588027708232402801513671875" lon="-0.661651678383350372314453125">
        <ele>878.79998779296875</ele>
        <time>2021-09-27T07:10:38.000Z</time>
      </trkpt>
      <trkpt lat="39.945969879627227783203125" lon="-0.6614624150097370147705078125">
        <ele>879</ele>
        <time>2021-09-27T07:10:40.000Z</time>
      </trkpt>
      <trkpt lat="39.9460619129240512847900390625" lon="-0.66127491183578968048095703125">
        <ele>879</ele>
        <time>2021-09-27T07:10:42.000Z</time>
      </trkpt>
      <trkpt lat="39.9461041577160358428955078125" lon="-0.66118170507252216339111328125">
        <ele>878.5999755859375</ele>
        <time>2021-09-27T07:10:43.000Z</time>
      </trkpt>
      <trkpt lat="39.9461490847170352935791015625" lon="-0.6610885821282863616943359375">
        <ele>878.4000244140625</ele>
        <time>2021-09-27T07:10:44.000Z</time>
      </trkpt>
      <trkpt lat="39.94624069891870021820068359375" lon="-0.6609014980494976043701171875">
        <ele>877.79998779296875</ele>
        <time>2021-09-27T07:10:46.000Z</time>
      </trkpt>
      <trkpt lat="39.946335665881633758544921875" lon="-0.66071986220777034759521484375">
        <ele>878</ele>
        <time>2021-09-27T07:10:48.000Z</time>
      </trkpt>
      <trkpt lat="39.94642761535942554473876953125" lon="-0.6605355441570281982421875">
        <ele>878.20001220703125</ele>
        <time>2021-09-27T07:10:50.000Z</time>
      </trkpt>
      <trkpt lat="39.9464706145226955413818359375" lon="-0.6604438461363315582275390625">
        <ele>878</ele>
        <time>2021-09-27T07:10:51.000Z</time>
      </trkpt>
      <trkpt lat="39.946513362228870391845703125" lon="-0.66035189665853977203369140625">
        <ele>877.5999755859375</ele>
        <time>2021-09-27T07:10:52.000Z</time>
      </trkpt>
      <trkpt lat="39.94659483432769775390625" lon="-0.660172440111637115478515625">
        <ele>876.79998779296875</ele>
        <time>2021-09-27T07:10:54.000Z</time>
      </trkpt>
      <trkpt lat="39.94668041355907917022705078125" lon="-0.66000002436339855194091796875">
        <ele>876.79998779296875</ele>
        <time>2021-09-27T07:10:56.000Z</time>
      </trkpt>
      <trkpt lat="39.9467651546001434326171875" lon="-0.659831464290618896484375">
        <ele>876.79998779296875</ele>
        <time>2021-09-27T07:10:58.000Z</time>
      </trkpt>
      <trkpt lat="39.9468062259256839752197265625" lon="-0.65974756143987178802490234375">
        <ele>876.79998779296875</ele>
        <time>2021-09-27T07:10:59.000Z</time>
      </trkpt>
      <trkpt lat="39.94684956036508083343505859375" lon="-0.65966189838945865631103515625">
        <ele>876.79998779296875</ele>
        <time>2021-09-27T07:11:00.000Z</time>
      </trkpt>
      <trkpt lat="39.946936480700969696044921875" lon="-0.65949124284088611602783203125">
        <ele>876.5999755859375</ele>
        <time>2021-09-27T07:11:02.000Z</time>
      </trkpt>
      <trkpt lat="39.9470268376171588897705078125" lon="-0.6593220122158527374267578125">
        <ele>876.4000244140625</ele>
        <time>2021-09-27T07:11:04.000Z</time>
      </trkpt>
      <trkpt lat="39.94711811654269695281982421875" lon="-0.65915311686694622039794921875">
        <ele>876.4000244140625</ele>
        <time>2021-09-27T07:11:06.000Z</time>
      </trkpt>
      <trkpt lat="39.94721710681915283203125" lon="-0.65898950211703777313232421875">
        <ele>876.4000244140625</ele>
        <time>2021-09-27T07:11:08.000Z</time>
      </trkpt>
      <trkpt lat="39.947323389351367950439453125" lon="-0.65883477218449115753173828125">
        <ele>876.5999755859375</ele>
        <time>2021-09-27T07:11:10.000Z</time>
      </trkpt>
      <trkpt lat="39.9474445916712284088134765625" lon="-0.6586863286793231964111328125">
        <ele>876</ele>
        <time>2021-09-27T07:11:12.000Z</time>
      </trkpt>
      <trkpt lat="39.9475797079503536224365234375" lon="-0.65854643471539020538330078125">
        <ele>875.5999755859375</ele>
        <time>2021-09-27T07:11:14.000Z</time>
      </trkpt>
      <trkpt lat="39.94772831909358501434326171875" lon="-0.65841215662658214569091796875">
        <ele>875.4000244140625</ele>
        <time>2021-09-27T07:11:16.000Z</time>
      </trkpt>
      <trkpt lat="39.9478891678154468536376953125" lon="-0.65828508697450160980224609375">
        <ele>875.4000244140625</ele>
        <time>2021-09-27T07:11:18.000Z</time>
      </trkpt>
      <trkpt lat="39.94797189719974994659423828125" lon="-0.6582226417958736419677734375">
        <ele>875.20001220703125</ele>
        <time>2021-09-27T07:11:19.000Z</time>
      </trkpt>
      <trkpt lat="39.94805906899273395538330078125" lon="-0.6581619568169116973876953125">
        <ele>875.20001220703125</ele>
        <time>2021-09-27T07:11:20.000Z</time>
      </trkpt>
      <trkpt lat="39.9482368491590023040771484375" lon="-0.65806447528302669525146484375">
        <ele>875.4000244140625</ele>
        <time>2021-09-27T07:11:22.000Z</time>
      </trkpt>
      <trkpt lat="39.948323182761669158935546875" lon="-0.65802407450973987579345703125">
        <ele>875.4000244140625</ele>
        <time>2021-09-27T07:11:23.000Z</time>
      </trkpt>
      <trkpt lat="39.9484101869165897369384765625" lon="-0.65798786468803882598876953125">
        <ele>875.20001220703125</ele>
        <time>2021-09-27T07:11:24.000Z</time>
      </trkpt>
      <trkpt lat="39.9485831893980503082275390625" lon="-0.6579218991100788116455078125">
        <ele>875</ele>
        <time>2021-09-27T07:11:26.000Z</time>
      </trkpt>
      <trkpt lat="39.94875242002308368682861328125" lon="-0.65784973092377185821533203125">
        <ele>874.4000244140625</ele>
        <time>2021-09-27T07:11:28.000Z</time>
      </trkpt>
      <trkpt lat="39.9488420225679874420166015625" lon="-0.65781251527369022369384765625">
        <ele>874</ele>
        <time>2021-09-27T07:11:29.000Z</time>
      </trkpt>
      <trkpt lat="39.9489362351596355438232421875" lon="-0.65777496434748172760009765625">
        <ele>873.5999755859375</ele>
        <time>2021-09-27T07:11:30.000Z</time>
      </trkpt>
      <trkpt lat="39.949119798839092254638671875" lon="-0.6576999463140964508056640625">
        <ele>872.5999755859375</ele>
        <time>2021-09-27T07:11:32.000Z</time>
      </trkpt>
      <trkpt lat="39.9493000097572803497314453125" lon="-0.65763481892645359039306640625">
        <ele>871.79998779296875</ele>
        <time>2021-09-27T07:11:34.000Z</time>
      </trkpt>
      <trkpt lat="39.94947862811386585235595703125" lon="-0.6575695239007472991943359375">
        <ele>871</ele>
        <time>2021-09-27T07:11:36.000Z</time>
      </trkpt>
      <trkpt lat="39.9496503733098506927490234375" lon="-0.65750590525567531585693359375">
        <ele>870.20001220703125</ele>
        <time>2021-09-27T07:11:38.000Z</time>
      </trkpt>
      <trkpt lat="39.94981792755424976348876953125" lon="-0.65744287334382534027099609375">
        <ele>869.4000244140625</ele>
        <time>2021-09-27T07:11:40.000Z</time>
      </trkpt>
      <trkpt lat="39.94998288340866565704345703125" lon="-0.657373555004596710205078125">
        <ele>868.4000244140625</ele>
        <time>2021-09-27T07:11:42.000Z</time>
      </trkpt>
      <trkpt lat="39.9501462467014789581298828125" lon="-0.65730172209441661834716796875">
        <ele>867.4000244140625</ele>
        <time>2021-09-27T07:11:44.000Z</time>
      </trkpt>
      <trkpt lat="39.95030902326107025146484375" lon="-0.65723433159291744232177734375">
        <ele>866.5999755859375</ele>
        <time>2021-09-27T07:11:46.000Z</time>
      </trkpt>
      <trkpt lat="39.95046802796423435211181640625" lon="-0.6571722216904163360595703125">
        <ele>866.20001220703125</ele>
        <time>2021-09-27T07:11:48.000Z</time>
      </trkpt>
      <trkpt lat="39.9505472369492053985595703125" lon="-0.65713793970644474029541015625">
        <ele>866.20001220703125</ele>
        <time>2021-09-27T07:11:49.000Z</time>
      </trkpt>
      <trkpt lat="39.950626194477081298828125" lon="-0.65710323862731456756591796875">
        <ele>866.4000244140625</ele>
        <time>2021-09-27T07:11:50.000Z</time>
      </trkpt>
      <trkpt lat="39.95078377425670623779296875" lon="-0.6570391170680522918701171875">
        <ele>866.5999755859375</ele>
        <time>2021-09-27T07:11:52.000Z</time>
      </trkpt>
      <trkpt lat="39.95094110257923603057861328125" lon="-0.6569762527942657470703125">
        <ele>866.79998779296875</ele>
        <time>2021-09-27T07:11:54.000Z</time>
      </trkpt>
      <trkpt lat="39.9511044658720493316650390625" lon="-0.65691053867340087890625">
        <ele>867.20001220703125</ele>
        <time>2021-09-27T07:11:56.000Z</time>
      </trkpt>
      <trkpt lat="39.95118417777121067047119140625" lon="-0.65687709487974643707275390625">
        <ele>867.20001220703125</ele>
        <time>2021-09-27T07:11:57.000Z</time>
      </trkpt>
      <trkpt lat="39.95126187801361083984375" lon="-0.65684641711413860321044921875">
        <ele>867.20001220703125</ele>
        <time>2021-09-27T07:11:58.000Z</time>
      </trkpt>
      <trkpt lat="39.95141551829874515533447265625" lon="-0.65678422339260578155517578125">
        <ele>866.5999755859375</ele>
        <time>2021-09-27T07:12:00.000Z</time>
      </trkpt>
      <trkpt lat="39.951570667326450347900390625" lon="-0.6567226164042949676513671875">
        <ele>866</ele>
        <time>2021-09-27T07:12:02.000Z</time>
      </trkpt>
      <trkpt lat="39.951727576553821563720703125" lon="-0.65666201524436473846435546875">
        <ele>865.20001220703125</ele>
        <time>2021-09-27T07:12:04.000Z</time>
      </trkpt>
      <trkpt lat="39.951889514923095703125" lon="-0.65660250373184680938720703125">
        <ele>864.5999755859375</ele>
        <time>2021-09-27T07:12:06.000Z</time>
      </trkpt>
      <trkpt lat="39.95204566977918148040771484375" lon="-0.6565435789525508880615234375">
        <ele>864</ele>
        <time>2021-09-27T07:12:08.000Z</time>
      </trkpt>
      <trkpt lat="39.95219972915947437286376953125" lon="-0.65648834221065044403076171875">
        <ele>863.5999755859375</ele>
        <time>2021-09-27T07:12:10.000Z</time>
      </trkpt>
      <trkpt lat="39.952355213463306427001953125" lon="-0.65642128698527812957763671875">
        <ele>863.20001220703125</ele>
        <time>2021-09-27T07:12:12.000Z</time>
      </trkpt>
      <trkpt lat="39.9525089375674724578857421875" lon="-0.65635574050247669219970703125">
        <ele>863</ele>
        <time>2021-09-27T07:12:14.000Z</time>
      </trkpt>
      <trkpt lat="39.9526594765484333038330078125" lon="-0.65629270859062671661376953125">
        <ele>862.20001220703125</ele>
        <time>2021-09-27T07:12:16.000Z</time>
      </trkpt>
      <trkpt lat="39.9528073333203792572021484375" lon="-0.65623336471617221832275390625">
        <ele>861.5999755859375</ele>
        <time>2021-09-27T07:12:18.000Z</time>
      </trkpt>
      <trkpt lat="39.95294831693172454833984375" lon="-0.65617536194622516632080078125">
        <ele>861</ele>
        <time>2021-09-27T07:12:20.000Z</time>
      </trkpt>
      <trkpt lat="39.95309005491435527801513671875" lon="-0.65611987374722957611083984375">
        <ele>860</ele>
        <time>2021-09-27T07:12:22.000Z</time>
      </trkpt>
      <trkpt lat="39.95323137380182743072509765625" lon="-0.656060613691806793212890625">
        <ele>859</ele>
        <time>2021-09-27T07:12:24.000Z</time>
      </trkpt>
      <trkpt lat="39.95337487198412418365478515625" lon="-0.6560007669031620025634765625">
        <ele>858.20001220703125</ele>
        <time>2021-09-27T07:12:26.000Z</time>
      </trkpt>
      <trkpt lat="39.9535177834331989288330078125" lon="-0.65594821237027645111083984375">
        <ele>857.4000244140625</ele>
        <time>2021-09-27T07:12:28.000Z</time>
      </trkpt>
      <trkpt lat="39.95366103015840053558349609375" lon="-0.65589331090450286865234375">
        <ele>856.5999755859375</ele>
        <time>2021-09-27T07:12:30.000Z</time>
      </trkpt>
      <trkpt lat="39.9537994153797626495361328125" lon="-0.655842013657093048095703125">
        <ele>855.5999755859375</ele>
        <time>2021-09-27T07:12:32.000Z</time>
      </trkpt>
      <trkpt lat="39.9539382196962833404541015625" lon="-0.65578577108681201934814453125">
        <ele>854.20001220703125</ele>
        <time>2021-09-27T07:12:34.000Z</time>
      </trkpt>
      <trkpt lat="39.9540776945650577545166015625" lon="-0.65572793595492839813232421875">
        <ele>852.79998779296875</ele>
        <time>2021-09-27T07:12:36.000Z</time>
      </trkpt>
      <trkpt lat="39.95421322993934154510498046875" lon="-0.65567412413656711578369140625">
        <ele>851.5999755859375</ele>
        <time>2021-09-27T07:12:38.000Z</time>
      </trkpt>
      <trkpt lat="39.95427927933633327484130859375" lon="-0.65564663149416446685791015625">
        <ele>850.79998779296875</ele>
        <time>2021-09-27T07:12:39.000Z</time>
      </trkpt>
      <trkpt lat="39.954346083104610443115234375" lon="-0.65561763010919094085693359375">
        <ele>850.20001220703125</ele>
        <time>2021-09-27T07:12:40.000Z</time>
      </trkpt>
      <trkpt lat="39.954478852450847625732421875" lon="-0.65556465648114681243896484375">
        <ele>849</ele>
        <time>2021-09-27T07:12:42.000Z</time>
      </trkpt>
      <trkpt lat="39.9546094425022602081298828125" lon="-0.655515454709529876708984375">
        <ele>848.20001220703125</ele>
        <time>2021-09-27T07:12:44.000Z</time>
      </trkpt>
      <trkpt lat="39.9547365121543407440185546875" lon="-0.6554683484137058258056640625">
        <ele>848.5999755859375</ele>
        <time>2021-09-27T07:12:46.000Z</time>
      </trkpt>
      <trkpt lat="39.95485612191259860992431640625" lon="-0.655416212975978851318359375">
        <ele>849</ele>
        <time>2021-09-27T07:12:48.000Z</time>
      </trkpt>
      <trkpt lat="39.95491010136902332305908203125" lon="-0.65539467148482799530029296875">
        <ele>849.20001220703125</ele>
        <time>2021-09-27T07:12:49.000Z</time>
      </trkpt>
      <trkpt lat="39.95496374554932117462158203125" lon="-0.65537388436496257781982421875">
        <ele>849.4000244140625</ele>
        <time>2021-09-27T07:12:50.000Z</time>
      </trkpt>
      <trkpt lat="39.9550701119005680084228515625" lon="-0.65533080138266086578369140625">
        <ele>849.5999755859375</ele>
        <time>2021-09-27T07:12:52.000Z</time>
      </trkpt>
      <trkpt lat="39.95517111383378505706787109375" lon="-0.65529325045645236968994140625">
        <ele>850</ele>
        <time>2021-09-27T07:12:54.000Z</time>
      </trkpt>
      <trkpt lat="39.955267421901226043701171875" lon="-0.65524832345545291900634765625">
        <ele>850.4000244140625</ele>
        <time>2021-09-27T07:12:56.000Z</time>
      </trkpt>
      <trkpt lat="39.95536490343511104583740234375" lon="-0.65520507283508777618408203125">
        <ele>850.5999755859375</ele>
        <time>2021-09-27T07:12:58.000Z</time>
      </trkpt>
      <trkpt lat="39.95546557009220123291015625" lon="-0.65516618080437183380126953125">
        <ele>851.20001220703125</ele>
        <time>2021-09-27T07:13:00.000Z</time>
      </trkpt>
      <trkpt lat="39.955565817654132843017578125" lon="-0.65512477420270442962646484375">
        <ele>852</ele>
        <time>2021-09-27T07:13:02.000Z</time>
      </trkpt>
      <trkpt lat="39.95566614903509616851806640625" lon="-0.6550841219723224639892578125">
        <ele>852.79998779296875</ele>
        <time>2021-09-27T07:13:04.000Z</time>
      </trkpt>
      <trkpt lat="39.95571811683475971221923828125" lon="-0.65506509505212306976318359375">
        <ele>853.4000244140625</ele>
        <time>2021-09-27T07:13:05.000Z</time>
      </trkpt>
      <trkpt lat="39.955771006643772125244140625" lon="-0.65504263155162334442138671875">
        <ele>853.79998779296875</ele>
        <time>2021-09-27T07:13:06.000Z</time>
      </trkpt>
      <trkpt lat="39.955880306661128997802734375" lon="-0.65500013530254364013671875">
        <ele>854.5999755859375</ele>
        <time>2021-09-27T07:13:08.000Z</time>
      </trkpt>
      <trkpt lat="39.9559968151152133941650390625" lon="-0.65495587885379791259765625">
        <ele>855.79998779296875</ele>
        <time>2021-09-27T07:13:10.000Z</time>
      </trkpt>
      <trkpt lat="39.95605523698031902313232421875" lon="-0.65493383444845676422119140625">
        <ele>856.4000244140625</ele>
        <time>2021-09-27T07:13:11.000Z</time>
      </trkpt>
      <trkpt lat="39.9561171792447566986083984375" lon="-0.654909946024417877197265625">
        <ele>857.20001220703125</ele>
        <time>2021-09-27T07:13:12.000Z</time>
      </trkpt>
      <trkpt lat="39.9561771936714649200439453125" lon="-0.65488169901072978973388671875">
        <ele>858</ele>
        <time>2021-09-27T07:13:13.000Z</time>
      </trkpt>
      <trkpt lat="39.956239052116870880126953125" lon="-0.65485035069286823272705078125">
        <ele>858.5999755859375</ele>
        <time>2021-09-27T07:13:14.000Z</time>
      </trkpt>
      <trkpt lat="39.9563004076480865478515625" lon="-0.65481917001307010650634765625">
        <ele>859.20001220703125</ele>
        <time>2021-09-27T07:13:15.000Z</time>
      </trkpt>
      <trkpt lat="39.9563612602651119232177734375" lon="-0.65478421747684478759765625">
        <ele>859.79998779296875</ele>
        <time>2021-09-27T07:13:16.000Z</time>
      </trkpt>
      <trkpt lat="39.9564853124320507049560546875" lon="-0.654716156423091888427734375">
        <ele>860.79998779296875</ele>
        <time>2021-09-27T07:13:18.000Z</time>
      </trkpt>
      <trkpt lat="39.9565463326871395111083984375" lon="-0.65468036569654941558837890625">
        <ele>861</ele>
        <time>2021-09-27T07:13:19.000Z</time>
      </trkpt>
      <trkpt lat="39.956606514751911163330078125" lon="-0.65464264713227748870849609375">
        <ele>861</ele>
        <time>2021-09-27T07:13:20.000Z</time>
      </trkpt>
      <trkpt lat="39.95666678063571453094482421875" lon="-0.65460358746349811553955078125">
        <ele>860.79998779296875</ele>
        <time>2021-09-27T07:13:21.000Z</time>
      </trkpt>
      <trkpt lat="39.95672754943370819091796875" lon="-0.654561258852481842041015625">
        <ele>860.5999755859375</ele>
        <time>2021-09-27T07:13:22.000Z</time>
      </trkpt>
      <trkpt lat="39.956787563860416412353515625" lon="-0.6545151583850383758544921875">
        <ele>860.4000244140625</ele>
        <time>2021-09-27T07:13:23.000Z</time>
      </trkpt>
      <trkpt lat="39.95684799738228321075439453125" lon="-0.65446243621408939361572265625">
        <ele>860</ele>
        <time>2021-09-27T07:13:24.000Z</time>
      </trkpt>
      <trkpt lat="39.9569117836654186248779296875" lon="-0.65440912730991840362548828125">
        <ele>859.5999755859375</ele>
        <time>2021-09-27T07:13:25.000Z</time>
      </trkpt>
      <trkpt lat="39.95697741396725177764892578125" lon="-0.65435372292995452880859375">
        <ele>859</ele>
        <time>2021-09-27T07:13:26.000Z</time>
      </trkpt>
      <trkpt lat="39.9571072496473789215087890625" lon="-0.65423436462879180908203125">
        <ele>857.79998779296875</ele>
        <time>2021-09-27T07:13:28.000Z</time>
      </trkpt>
      <trkpt lat="39.95717254467308521270751953125" lon="-0.65417460165917873382568359375">
        <ele>857.20001220703125</ele>
        <time>2021-09-27T07:13:29.000Z</time>
      </trkpt>
      <trkpt lat="39.9572366662323474884033203125" lon="-0.65411031246185302734375">
        <ele>856.4000244140625</ele>
        <time>2021-09-27T07:13:30.000Z</time>
      </trkpt>
      <trkpt lat="39.95730011723935604095458984375" lon="-0.6540387310087680816650390625">
        <ele>855.4000244140625</ele>
        <time>2021-09-27T07:13:31.000Z</time>
      </trkpt>
      <trkpt lat="39.957360886037349700927734375" lon="-0.65396639518439769744873046875">
        <ele>854.4000244140625</ele>
        <time>2021-09-27T07:13:32.000Z</time>
      </trkpt>
      <trkpt lat="39.95742492377758026123046875" lon="-0.6538992561399936676025390625">
        <ele>853.5999755859375</ele>
        <time>2021-09-27T07:13:33.000Z</time>
      </trkpt>
      <trkpt lat="39.9574854411184787750244140625" lon="-0.65383211709558963775634765625">
        <ele>853.20001220703125</ele>
        <time>2021-09-27T07:13:34.000Z</time>
      </trkpt>
      <trkpt lat="39.95754470117390155792236328125" lon="-0.6537537463009357452392578125">
        <ele>853.4000244140625</ele>
        <time>2021-09-27T07:13:35.000Z</time>
      </trkpt>
      <trkpt lat="39.9576024524867534637451171875" lon="-0.65367118455469608306884765625">
        <ele>853.4000244140625</ele>
        <time>2021-09-27T07:13:36.000Z</time>
      </trkpt>
      <trkpt lat="39.957706220448017120361328125" lon="-0.653513856232166290283203125">
        <ele>853.4000244140625</ele>
        <time>2021-09-27T07:13:38.000Z</time>
      </trkpt>
      <trkpt lat="39.95779867283999919891357421875" lon="-0.65336801111698150634765625">
        <ele>853.4000244140625</ele>
        <time>2021-09-27T07:13:40.000Z</time>
      </trkpt>
      <trkpt lat="39.957842342555522918701171875" lon="-0.6532950885593891143798828125">
        <ele>853.4000244140625</ele>
        <time>2021-09-27T07:13:41.000Z</time>
      </trkpt>
      <trkpt lat="39.95788467116653919219970703125" lon="-0.65322057344019412994384765625">
        <ele>853.4000244140625</ele>
        <time>2021-09-27T07:13:42.000Z</time>
      </trkpt>
      <trkpt lat="39.95796111412346363067626953125" lon="-0.6530701182782649993896484375">
        <ele>853.20001220703125</ele>
        <time>2021-09-27T07:13:44.000Z</time>
      </trkpt>
      <trkpt lat="39.9580034427344799041748046875" lon="-0.65299929119646549224853515625">
        <ele>853.5999755859375</ele>
        <time>2021-09-27T07:13:45.000Z</time>
      </trkpt>
      <trkpt lat="39.9580507166683673858642578125" lon="-0.65293760038912296295166015625">
        <ele>854.5999755859375</ele>
        <time>2021-09-27T07:13:46.000Z</time>
      </trkpt>
      <trkpt lat="39.95813897810876369476318359375" lon="-0.652815140783786773681640625">
        <ele>856.4000244140625</ele>
        <time>2021-09-27T07:13:48.000Z</time>
      </trkpt>
      <trkpt lat="39.9588832072913646697998046875" lon="-0.65034189261496067047119140625">
        <ele>853.79998779296875</ele>
        <time>2021-09-27T07:14:12.000Z</time>
      </trkpt>
      <trkpt lat="39.958906508982181549072265625" lon="-0.65016805194318294525146484375">
        <ele>852.4000244140625</ele>
        <time>2021-09-27T07:14:13.000Z</time>
      </trkpt>
      <trkpt lat="39.95892117731273174285888671875" lon="-0.65003830008208751678466796875">
        <ele>851.4000244140625</ele>
        <time>2021-09-27T07:14:14.000Z</time>
      </trkpt>
      <trkpt lat="39.9589931778609752655029296875" lon="-0.6498172692954540252685546875">
        <ele>849.5999755859375</ele>
        <time>2021-09-27T07:14:16.000Z</time>
      </trkpt>
      <trkpt lat="39.9590783379971981048583984375" lon="-0.64961970783770084381103515625">
        <ele>848</ele>
        <time>2021-09-27T07:14:18.000Z</time>
      </trkpt>
      <trkpt lat="39.95916693471372127532958984375" lon="-0.6494303606450557708740234375">
        <ele>845.79998779296875</ele>
        <time>2021-09-27T07:14:20.000Z</time>
      </trkpt>
      <trkpt lat="39.959267266094684600830078125" lon="-0.64924486912786960601806640625">
        <ele>844</ele>
        <time>2021-09-27T07:14:22.000Z</time>
      </trkpt>
      <trkpt lat="39.959326274693012237548828125" lon="-0.64915685914456844329833984375">
        <ele>843</ele>
        <time>2021-09-27T07:14:23.000Z</time>
      </trkpt>
      <trkpt lat="39.9593891389667987823486328125" lon="-0.64906951971352100372314453125">
        <ele>842</ele>
        <time>2021-09-27T07:14:24.000Z</time>
      </trkpt>
      <trkpt lat="39.9595182202756404876708984375" lon="-0.64889299683272838592529296875">
        <ele>840.4000244140625</ele>
        <time>2021-09-27T07:14:26.000Z</time>
      </trkpt>
      <trkpt lat="39.95965652167797088623046875" lon="-0.64870691858232021331787109375">
        <ele>839.4000244140625</ele>
        <time>2021-09-27T07:14:28.000Z</time>
      </trkpt>
      <trkpt lat="39.95972357690334320068359375" lon="-0.64861647784709930419921875">
        <ele>839</ele>
        <time>2021-09-27T07:14:29.000Z</time>
      </trkpt>
      <trkpt lat="39.9597904644906520843505859375" lon="-0.64852662384510040283203125">
        <ele>838.79998779296875</ele>
        <time>2021-09-27T07:14:30.000Z</time>
      </trkpt>
      <trkpt lat="39.9599212221801280975341796875" lon="-0.64835504628717899322509765625">
        <ele>838.20001220703125</ele>
        <time>2021-09-27T07:14:32.000Z</time>
      </trkpt>
      <trkpt lat="39.96004519052803516387939453125" lon="-0.648190341889858245849609375">
        <ele>837.79998779296875</ele>
        <time>2021-09-27T07:14:34.000Z</time>
      </trkpt>
      <trkpt lat="39.9601656384766101837158203125" lon="-0.648030079901218414306640625">
        <ele>837.20001220703125</ele>
        <time>2021-09-27T07:14:36.000Z</time>
      </trkpt>
      <trkpt lat="39.9602833203971385955810546875" lon="-0.64787509851157665252685546875">
        <ele>836.20001220703125</ele>
        <time>2021-09-27T07:14:38.000Z</time>
      </trkpt>
      <trkpt lat="39.96039303950965404510498046875" lon="-0.6477100588381290435791015625">
        <ele>835.20001220703125</ele>
        <time>2021-09-27T07:14:40.000Z</time>
      </trkpt>
      <trkpt lat="39.96050585992634296417236328125" lon="-0.64755004830658435821533203125">
        <ele>833.4000244140625</ele>
        <time>2021-09-27T07:14:42.000Z</time>
      </trkpt>
      <trkpt lat="39.9606219492852687835693359375" lon="-0.64739397726953029632568359375">
        <ele>831.4000244140625</ele>
        <time>2021-09-27T07:14:44.000Z</time>
      </trkpt>
      <trkpt lat="39.96073870919644832611083984375" lon="-0.64724310301244258880615234375">
        <ele>829.5999755859375</ele>
        <time>2021-09-27T07:14:46.000Z</time>
      </trkpt>
      <trkpt lat="39.9608589895069599151611328125" lon="-0.64709206111729145050048828125">
        <ele>828.20001220703125</ele>
        <time>2021-09-27T07:14:48.000Z</time>
      </trkpt>
      <trkpt lat="39.960917495191097259521484375" lon="-0.6470140255987644195556640625">
        <ele>827.79998779296875</ele>
        <time>2021-09-27T07:14:49.000Z</time>
      </trkpt>
      <trkpt lat="39.9609760008752346038818359375" lon="-0.646935403347015380859375">
        <ele>827.20001220703125</ele>
        <time>2021-09-27T07:14:50.000Z</time>
      </trkpt>
      <trkpt lat="39.96109209023416042327880859375" lon="-0.64677648246288299560546875">
        <ele>826</ele>
        <time>2021-09-27T07:14:52.000Z</time>
      </trkpt>
      <trkpt lat="39.96121128089725971221923828125" lon="-0.6466207467019557952880859375">
        <ele>824.79998779296875</ele>
        <time>2021-09-27T07:14:54.000Z</time>
      </trkpt>
      <trkpt lat="39.96126987040042877197265625" lon="-0.64654313027858734130859375">
        <ele>824.79998779296875</ele>
        <time>2021-09-27T07:14:55.000Z</time>
      </trkpt>
      <trkpt lat="39.96132711879909038543701171875" lon="-0.64646777696907520294189453125">
        <ele>825.20001220703125</ele>
        <time>2021-09-27T07:14:56.000Z</time>
      </trkpt>
      <trkpt lat="39.96144245378673076629638671875" lon="-0.64632159657776355743408203125">
        <ele>826.20001220703125</ele>
        <time>2021-09-27T07:14:58.000Z</time>
      </trkpt>
      <trkpt lat="39.96155309490859508514404296875" lon="-0.6461704708635807037353515625">
        <ele>827.4000244140625</ele>
        <time>2021-09-27T07:15:00.000Z</time>
      </trkpt>
      <trkpt lat="39.96166792698204517364501953125" lon="-0.64601875841617584228515625">
        <ele>828.5999755859375</ele>
        <time>2021-09-27T07:15:02.000Z</time>
      </trkpt>
      <trkpt lat="39.96178091503679752349853515625" lon="-0.6458606757223606109619140625">
        <ele>829.5999755859375</ele>
        <time>2021-09-27T07:15:04.000Z</time>
      </trkpt>
      <trkpt lat="39.9618815816938877105712890625" lon="-0.645694546401500701904296875">
        <ele>830.4000244140625</ele>
        <time>2021-09-27T07:15:06.000Z</time>
      </trkpt>
      <trkpt lat="39.9619737826287746429443359375" lon="-0.64552531577646732330322265625">
        <ele>831</ele>
        <time>2021-09-27T07:15:08.000Z</time>
      </trkpt>
      <trkpt lat="39.96242724359035491943359375" lon="-0.64466935582458972930908203125">
        <ele>832.20001220703125</ele>
        <time>2021-09-27T07:15:16.000Z</time>
      </trkpt>
      <trkpt lat="39.96247326023876667022705078125" lon="-0.64457296393811702728271484375">
        <ele>831.4000244140625</ele>
        <time>2021-09-27T07:15:18.000Z</time>
      </trkpt>
      <trkpt lat="39.96256445534527301788330078125" lon="-0.6443884782493114471435546875">
        <ele>829.79998779296875</ele>
        <time>2021-09-27T07:15:20.000Z</time>
      </trkpt>
      <trkpt lat="39.9626315943896770477294921875" lon="-0.6441802717745304107666015625">
        <ele>827.5999755859375</ele>
        <time>2021-09-27T07:15:22.000Z</time>
      </trkpt>
      <trkpt lat="39.96270309202373027801513671875" lon="-0.64398371614515781402587890625">
        <ele>826.4000244140625</ele>
        <time>2021-09-27T07:15:24.000Z</time>
      </trkpt>
      <trkpt lat="39.9627645313739776611328125" lon="-0.64378908835351467132568359375">
        <ele>825.20001220703125</ele>
        <time>2021-09-27T07:15:26.000Z</time>
      </trkpt>
      <trkpt lat="39.96282094158232212066650390625" lon="-0.6435942091047763824462890625">
        <ele>824.4000244140625</ele>
        <time>2021-09-27T07:15:28.000Z</time>
      </trkpt>
      <trkpt lat="39.9628793634474277496337890625" lon="-0.64340293407440185546875">
        <ele>823.4000244140625</ele>
        <time>2021-09-27T07:15:30.000Z</time>
      </trkpt>
      <trkpt lat="39.96290559880435466766357421875" lon="-0.64330947585403919219970703125">
        <ele>823</ele>
        <time>2021-09-27T07:15:31.000Z</time>
      </trkpt>
      <trkpt lat="39.96293124742805957794189453125" lon="-0.643218867480754852294921875">
        <ele>823</ele>
        <time>2021-09-27T07:15:32.000Z</time>
      </trkpt>
      <trkpt lat="39.9629844725131988525390625" lon="-0.64303857274353504180908203125">
        <ele>823.4000244140625</ele>
        <time>2021-09-27T07:15:34.000Z</time>
      </trkpt>
      <trkpt lat="39.96300886385142803192138671875" lon="-0.64295810647308826446533203125">
        <ele>824</ele>
        <time>2021-09-27T07:15:35.000Z</time>
      </trkpt>
      <trkpt lat="39.96302763931453227996826171875" lon="-0.6428840942680835723876953125">
        <ele>824.79998779296875</ele>
        <time>2021-09-27T07:15:36.000Z</time>
      </trkpt>
      <trkpt lat="39.963045157492160797119140625" lon="-0.642809160053730010986328125">
        <ele>825.5999755859375</ele>
        <time>2021-09-27T07:15:37.000Z</time>
      </trkpt>
      <trkpt lat="39.96360096149146556854248046875" lon="-0.6412486173212528228759765625">
        <ele>829.4000244140625</ele>
        <time>2021-09-27T07:15:51.000Z</time>
      </trkpt>
      <trkpt lat="39.96362644247710704803466796875" lon="-0.64113135449588298797607421875">
        <ele>827.4000244140625</ele>
        <time>2021-09-27T07:15:53.000Z</time>
      </trkpt>
      <trkpt lat="39.9636810086667537689208984375" lon="-0.64093890599906444549560546875">
        <ele>824.20001220703125</ele>
        <time>2021-09-27T07:15:55.000Z</time>
      </trkpt>
      <trkpt lat="39.96373523958027362823486328125" lon="-0.6407500617206096649169921875">
        <ele>821</ele>
        <time>2021-09-27T07:15:57.000Z</time>
      </trkpt>
      <trkpt lat="39.963795840740203857421875" lon="-0.64056180417537689208984375">
        <ele>818</ele>
        <time>2021-09-27T07:15:59.000Z</time>
      </trkpt>
      <trkpt lat="39.96384956873953342437744140625" lon="-0.6403708644211292266845703125">
        <ele>815.79998779296875</ele>
        <time>2021-09-27T07:16:00.000Z</time>
      </trkpt>
      <trkpt lat="39.96387404389679431915283203125" lon="-0.64027388580143451690673828125">
        <ele>815</ele>
        <time>2021-09-27T07:16:01.000Z</time>
      </trkpt>
      <trkpt lat="39.96392098255455493927001953125" lon="-0.6400748156011104583740234375">
        <ele>813.20001220703125</ele>
        <time>2021-09-27T07:16:03.000Z</time>
      </trkpt>
      <trkpt lat="39.9639519117772579193115234375" lon="-0.63997230492532253265380859375">
        <ele>812.4000244140625</ele>
        <time>2021-09-27T07:16:05.000Z</time>
      </trkpt>
      <trkpt lat="39.964019469916820526123046875" lon="-0.63977365382015705108642578125">
        <ele>811</ele>
        <time>2021-09-27T07:16:06.000Z</time>
      </trkpt>
      <trkpt lat="39.96405593119561672210693359375" lon="-0.63967592082917690277099609375">
        <ele>810.5999755859375</ele>
        <time>2021-09-27T07:16:07.000Z</time>
      </trkpt>
      <trkpt lat="39.9641212262213230133056640625" lon="-0.63947659917175769805908203125">
        <ele>810.5999755859375</ele>
        <time>2021-09-27T07:16:09.000Z</time>
      </trkpt>
      <trkpt lat="39.9641852639615535736083984375" lon="-0.63927325420081615447998046875">
        <ele>810.4000244140625</ele>
        <time>2021-09-27T07:16:11.000Z</time>
      </trkpt>
      <trkpt lat="39.964217282831668853759765625" lon="-0.63916839659214019775390625">
        <ele>810.5999755859375</ele>
        <time>2021-09-27T07:16:12.000Z</time>
      </trkpt>
      <trkpt lat="39.96425122953951358795166015625" lon="-0.63906286843121051788330078125">
        <ele>810.79998779296875</ele>
        <time>2021-09-27T07:16:13.000Z</time>
      </trkpt>
      <trkpt lat="39.96432163752615451812744140625" lon="-0.6388540752232074737548828125">
        <ele>811.4000244140625</ele>
        <time>2021-09-27T07:16:15.000Z</time>
      </trkpt>
      <trkpt lat="39.964390285313129425048828125" lon="-0.63864494673907756805419921875">
        <ele>811</ele>
        <time>2021-09-27T07:16:17.000Z</time>
      </trkpt>
      <trkpt lat="39.9644618667662143707275390625" lon="-0.638439171016216278076171875">
        <ele>810.79998779296875</ele>
        <time>2021-09-27T07:16:19.000Z</time>
      </trkpt>
      <trkpt lat="39.96453571133315563201904296875" lon="-0.63824026845395565032958984375">
        <ele>810.79998779296875</ele>
        <time>2021-09-27T07:16:21.000Z</time>
      </trkpt>
      <trkpt lat="39.96460762806236743927001953125" lon="-0.63804379664361476898193359375">
        <ele>810.5999755859375</ele>
        <time>2021-09-27T07:16:23.000Z</time>
      </trkpt>
      <trkpt lat="39.96469127945601940155029296875" lon="-0.63784296624362468719482421875">
        <ele>810.4000244140625</ele>
        <time>2021-09-27T07:16:25.000Z</time>
      </trkpt>
      <trkpt lat="39.96473587118089199066162109375" lon="-0.63774171285331249237060546875">
        <ele>810.5999755859375</ele>
        <time>2021-09-27T07:16:27.000Z</time>
      </trkpt>
      <trkpt lat="39.9648655392229557037353515625" lon="-0.63743040896952152252197265625">
        <ele>810.5999755859375</ele>
        <time>2021-09-27T07:16:29.000Z</time>
      </trkpt>
      <trkpt lat="39.96491289697587490081787109375" lon="-0.63732613809406757354736328125">
        <ele>810.79998779296875</ele>
        <time>2021-09-27T07:16:31.000Z</time>
      </trkpt>
      <trkpt lat="39.96502135880291461944580078125" lon="-0.63712161965668201446533203125">
        <ele>811</ele>
        <time>2021-09-27T07:16:32.000Z</time>
      </trkpt>
      <trkpt lat="39.96507835574448108673095703125" lon="-0.63702975399792194366455078125">
        <ele>811.20001220703125</ele>
        <time>2021-09-27T07:16:33.000Z</time>
      </trkpt>
      <trkpt lat="39.9651920981705188751220703125" lon="-0.63684769906103610992431640625">
        <ele>811.5999755859375</ele>
        <time>2021-09-27T07:16:35.000Z</time>
      </trkpt>
      <trkpt lat="39.965276084840297698974609375" lon="-0.63664888031780719757080078125">
        <ele>811.79998779296875</ele>
        <time>2021-09-27T07:16:37.000Z</time>
      </trkpt>
      <trkpt lat="39.96536401100456714630126953125" lon="-0.6364484690129756927490234375">
        <ele>811.79998779296875</ele>
        <time>2021-09-27T07:16:39.000Z</time>
      </trkpt>
      <trkpt lat="39.96545939706265926361083984375" lon="-0.63625543378293514251708984375">
        <ele>811.4000244140625</ele>
        <time>2021-09-27T07:16:41.000Z</time>
      </trkpt>
      <trkpt lat="39.96555738151073455810546875" lon="-0.63607639633119106292724609375">
        <ele>810.4000244140625</ele>
        <time>2021-09-27T07:16:43.000Z</time>
      </trkpt>
      <trkpt lat="39.96565821580588817596435546875" lon="-0.63589383848011493682861328125">
        <ele>809.20001220703125</ele>
        <time>2021-09-27T07:16:45.000Z</time>
      </trkpt>
      <trkpt lat="39.9657677672803401947021484375" lon="-0.63572569750249385833740234375">
        <ele>808.4000244140625</ele>
        <time>2021-09-27T07:16:47.000Z</time>
      </trkpt>
      <trkpt lat="39.96588720940053462982177734375" lon="-0.63557465560734272003173828125">
        <ele>807.5999755859375</ele>
        <time>2021-09-27T07:16:49.000Z</time>
      </trkpt>
      <trkpt lat="39.96593900956213474273681640625" lon="-0.63550173304975032806396484375">
        <ele>807</ele>
        <time>2021-09-27T07:16:50.000Z</time>
      </trkpt>
      <trkpt lat="39.96598930098116397857666015625" lon="-0.6354275532066822052001953125">
        <ele>806.5999755859375</ele>
        <time>2021-09-27T07:16:51.000Z</time>
      </trkpt>
      <trkpt lat="39.9660939909517765045166015625" lon="-0.6352890841662883758544921875">
        <ele>805.5999755859375</ele>
        <time>2021-09-27T07:16:53.000Z</time>
      </trkpt>
      <trkpt lat="39.966204464435577392578125" lon="-0.63515505753457546234130859375">
        <ele>804.79998779296875</ele>
        <time>2021-09-27T07:16:55.000Z</time>
      </trkpt>
      <trkpt lat="39.9663172848522663116455078125" lon="-0.6350116431713104248046875">
        <ele>804.20001220703125</ele>
        <time>2021-09-27T07:16:57.000Z</time>
      </trkpt>
      <trkpt lat="39.96637436561286449432373046875" lon="-0.63493712805211544036865234375">
        <ele>803.79998779296875</ele>
        <time>2021-09-27T07:16:58.000Z</time>
      </trkpt>
      <trkpt lat="39.96643312275409698486328125" lon="-0.63486487604677677154541015625">
        <ele>803.5999755859375</ele>
        <time>2021-09-27T07:16:59.000Z</time>
      </trkpt>
      <trkpt lat="39.96654720045626163482666015625" lon="-0.634720958769321441650390625">
        <ele>803</ele>
        <time>2021-09-27T07:17:01.000Z</time>
      </trkpt>
      <trkpt lat="39.9665989167988300323486328125" lon="-0.6346426717936992645263671875">
        <ele>802.79998779296875</ele>
        <time>2021-09-27T07:17:02.000Z</time>
      </trkpt>
      <trkpt lat="39.96664375998079776763916015625" lon="-0.6345588527619838714599609375">
        <ele>802.5999755859375</ele>
        <time>2021-09-27T07:17:03.000Z</time>
      </trkpt>
      <trkpt lat="39.96668818406760692596435546875" lon="-0.63448316417634487152099609375">
        <ele>802.4000244140625</ele>
        <time>2021-09-27T07:17:04.000Z</time>
      </trkpt>
      <trkpt lat="39.9667489528656005859375" lon="-0.634434632956981658935546875">
        <ele>802.5999755859375</ele>
        <time>2021-09-27T07:17:05.000Z</time>
      </trkpt>
      <trkpt lat="39.9668131582438945770263671875" lon="-0.634373612701892852783203125">
        <ele>802.5999755859375</ele>
        <time>2021-09-27T07:17:06.000Z</time>
      </trkpt>
      <trkpt lat="39.9668711610138416290283203125" lon="-0.63430915586650371551513671875">
        <ele>802.4000244140625</ele>
        <time>2021-09-27T07:17:07.000Z</time>
      </trkpt>
      <trkpt lat="39.96697627007961273193359375" lon="-0.6341746263206005096435546875">
        <ele>802.4000244140625</ele>
        <time>2021-09-27T07:17:09.000Z</time>
      </trkpt>
      <trkpt lat="39.96707425452768802642822265625" lon="-0.6340348161756992340087890625">
        <ele>802</ele>
        <time>2021-09-27T07:17:11.000Z</time>
      </trkpt>
      <trkpt lat="39.9671641923487186431884765625" lon="-0.63389207236468791961669921875">
        <ele>801.4000244140625</ele>
        <time>2021-09-27T07:17:13.000Z</time>
      </trkpt>
      <trkpt lat="39.96724809519946575164794921875" lon="-0.63374807126820087432861328125">
        <ele>801.20001220703125</ele>
        <time>2021-09-27T07:17:15.000Z</time>
      </trkpt>
      <trkpt lat="39.96731883846223354339599609375" lon="-0.633613876998424530029296875">
        <ele>801</ele>
        <time>2021-09-27T07:17:17.000Z</time>
      </trkpt>
      <trkpt lat="39.96735957451164722442626953125" lon="-0.63351790420711040496826171875">
        <ele>800.79998779296875</ele>
        <time>2021-09-27T07:17:19.000Z</time>
      </trkpt>
      <trkpt lat="39.96739679016172885894775390625" lon="-0.63343643210828304290771484375">
        <ele>800.79998779296875</ele>
        <time>2021-09-27T07:17:21.000Z</time>
      </trkpt>
      <trkpt lat="39.967432580888271331787109375" lon="-0.63336166553199291229248046875">
        <ele>800.5999755859375</ele>
        <time>2021-09-27T07:17:23.000Z</time>
      </trkpt>
      <trkpt lat="39.967459738254547119140625" lon="-0.633294023573398590087890625">
        <ele>800.5999755859375</ele>
        <time>2021-09-27T07:17:25.000Z</time>
      </trkpt>
      <trkpt lat="39.9674959480762481689453125" lon="-0.63321255147457122802734375">
        <ele>800.4000244140625</ele>
        <time>2021-09-27T07:17:27.000Z</time>
      </trkpt>
      <trkpt lat="39.96753274463117122650146484375" lon="-0.63312009908258914947509765625">
        <ele>800.4000244140625</ele>
        <time>2021-09-27T07:17:29.000Z</time>
      </trkpt>
      <trkpt lat="39.967568032443523406982421875" lon="-0.6330283172428607940673828125">
        <ele>800.20001220703125</ele>
        <time>2021-09-27T07:17:31.000Z</time>
      </trkpt>
      <trkpt lat="39.96758781373500823974609375" lon="-0.6329766847193241119384765625">
        <ele>800</ele>
        <time>2021-09-27T07:17:33.000Z</time>
      </trkpt>
      <trkpt lat="39.9676369316875934600830078125" lon="-0.63282824121415615081787109375">
        <ele>799.4000244140625</ele>
        <time>2021-09-27T07:17:35.000Z</time>
      </trkpt>
      <trkpt lat="39.96766786091029644012451171875" lon="-0.63272832892835140228271484375">
        <ele>799</ele>
        <time>2021-09-27T07:17:37.000Z</time>
      </trkpt>
      <trkpt lat="39.96770172379910945892333984375" lon="-0.632628835737705230712890625">
        <ele>798.5999755859375</ele>
        <time>2021-09-27T07:17:39.000Z</time>
      </trkpt>
      <trkpt lat="39.967724271118640899658203125" lon="-0.63257661648094654083251953125">
        <ele>798.4000244140625</ele>
        <time>2021-09-27T07:17:40.000Z</time>
      </trkpt>
      <trkpt lat="39.96774338185787200927734375" lon="-0.6325237266719341278076171875">
        <ele>798.20001220703125</ele>
        <time>2021-09-27T07:17:41.000Z</time>
      </trkpt>
      <trkpt lat="39.9677780829370021820068359375" lon="-0.63241484574973583221435546875">
        <ele>797.79998779296875</ele>
        <time>2021-09-27T07:17:43.000Z</time>
      </trkpt>
      <trkpt lat="39.9678183160722255706787109375" lon="-0.63230738975107669830322265625">
        <ele>797.4000244140625</ele>
        <time>2021-09-27T07:17:45.000Z</time>
      </trkpt>
      <trkpt lat="39.96784002520143985748291015625" lon="-0.6322565115988254547119140625">
        <ele>797.20001220703125</ele>
        <time>2021-09-27T07:17:46.000Z</time>
      </trkpt>
      <trkpt lat="39.96785913594067096710205078125" lon="-0.63220529817044734954833984375">
        <ele>797</ele>
        <time>2021-09-27T07:17:47.000Z</time>
      </trkpt>
      <trkpt lat="39.96789953671395778656005859375" lon="-0.63209834508597850799560546875">
        <ele>796.5999755859375</ele>
        <time>2021-09-27T07:17:49.000Z</time>
      </trkpt>
      <trkpt lat="39.96794563718140125274658203125" lon="-0.631985776126384735107421875">
        <ele>796.4000244140625</ele>
        <time>2021-09-27T07:17:51.000Z</time>
      </trkpt>
      <trkpt lat="39.9679842777550220489501953125" lon="-0.63186901621520519256591796875">
        <ele>796.20001220703125</ele>
        <time>2021-09-27T07:17:53.000Z</time>
      </trkpt>
      <trkpt lat="39.96800447814166545867919921875" lon="-0.6318062357604503631591796875">
        <ele>796</ele>
        <time>2021-09-27T07:17:54.000Z</time>
      </trkpt>
      <trkpt lat="39.96802811510860919952392578125" lon="-0.63174244947731494903564453125">
        <ele>795.79998779296875</ele>
        <time>2021-09-27T07:17:55.000Z</time>
      </trkpt>
      <trkpt lat="39.96807589195668697357177734375" lon="-0.63161194324493408203125">
        <ele>795.5999755859375</ele>
        <time>2021-09-27T07:17:57.000Z</time>
      </trkpt>
      <trkpt lat="39.96810271404683589935302734375" lon="-0.63153977505862712860107421875">
        <ele>795.4000244140625</ele>
        <time>2021-09-27T07:17:58.000Z</time>
      </trkpt>
      <trkpt lat="39.96813138015568256378173828125" lon="-0.631470791995525360107421875">
        <ele>795.20001220703125</ele>
        <time>2021-09-27T07:17:59.000Z</time>
      </trkpt>
      <trkpt lat="39.96816088445484638214111328125" lon="-0.6314049102365970611572265625">
        <ele>795</ele>
        <time>2021-09-27T07:18:00.000Z</time>
      </trkpt>
      <trkpt lat="39.968193657696247100830078125" lon="-0.631342045962810516357421875">
        <ele>795</ele>
        <time>2021-09-27T07:18:01.000Z</time>
      </trkpt>
      <trkpt lat="39.96825777925550937652587890625" lon="-0.63122075982391834259033203125">
        <ele>795.4000244140625</ele>
        <time>2021-09-27T07:18:03.000Z</time>
      </trkpt>
      <trkpt lat="39.968286864459514617919921875" lon="-0.63115990720689296722412109375">
        <ele>795.5999755859375</ele>
        <time>2021-09-27T07:18:04.000Z</time>
      </trkpt>
      <trkpt lat="39.96832014061510562896728515625" lon="-0.6310929358005523681640625">
        <ele>795.79998779296875</ele>
        <time>2021-09-27T07:18:05.000Z</time>
      </trkpt>
      <trkpt lat="39.96838535182178020477294921875" lon="-0.63096083700656890869140625">
        <ele>796.20001220703125</ele>
        <time>2021-09-27T07:18:07.000Z</time>
      </trkpt>
      <trkpt lat="39.968456514179706573486328125" lon="-0.6308268941938877105712890625">
        <ele>796.5999755859375</ele>
        <time>2021-09-27T07:18:09.000Z</time>
      </trkpt>
      <trkpt lat="39.96852465905249118804931640625" lon="-0.63069487921893596649169921875">
        <ele>796.79998779296875</ele>
        <time>2021-09-27T07:18:11.000Z</time>
      </trkpt>
      <trkpt lat="39.96855902485549449920654296875" lon="-0.6306260637938976287841796875">
        <ele>796.79998779296875</ele>
        <time>2021-09-27T07:18:12.000Z</time>
      </trkpt>
      <trkpt lat="39.96859121136367321014404296875" lon="-0.63055984675884246826171875">
        <ele>796.79998779296875</ele>
        <time>2021-09-27T07:18:13.000Z</time>
      </trkpt>
      <trkpt lat="39.968614764511585235595703125" lon="-0.630497820675373077392578125">
        <ele>796.79998779296875</ele>
        <time>2021-09-27T07:18:14.000Z</time>
      </trkpt>
      <trkpt lat="39.9686313606798648834228515625" lon="-0.630439482629299163818359375">
        <ele>796.79998779296875</ele>
        <time>2021-09-27T07:18:15.000Z</time>
      </trkpt>
      <trkpt lat="39.968645609915256500244140625" lon="-0.6303850002586841583251953125">
        <ele>796.79998779296875</ele>
        <time>2021-09-27T07:18:16.000Z</time>
      </trkpt>
      <trkpt lat="39.96866664849221706390380859375" lon="-0.63033445738255977630615234375">
        <ele>797</ele>
        <time>2021-09-27T07:18:17.000Z</time>
      </trkpt>
      <trkpt lat="39.96873320080339908599853515625" lon="-0.63023974187672138214111328125">
        <ele>797.5999755859375</ele>
        <time>2021-09-27T07:18:19.000Z</time>
      </trkpt>
      <trkpt lat="39.96877276338636875152587890625" lon="-0.63019682653248310089111328125">
        <ele>797.79998779296875</ele>
        <time>2021-09-27T07:18:20.000Z</time>
      </trkpt>
      <trkpt lat="39.96914391405880451202392578125" lon="-0.629936568439006805419921875">
        <ele>799.5999755859375</ele>
        <time>2021-09-27T07:18:28.000Z</time>
      </trkpt>
      <trkpt lat="39.96917459182441234588623046875" lon="-0.62978745438158512115478515625">
        <ele>799.5999755859375</ele>
        <time>2021-09-27T07:18:29.000Z</time>
      </trkpt>
      <trkpt lat="39.9691952951252460479736328125" lon="-0.62968502752482891082763671875">
        <ele>799.5999755859375</ele>
        <time>2021-09-27T07:18:30.000Z</time>
      </trkpt>
      <trkpt lat="39.96921448968350887298583984375" lon="-0.629601962864398956298828125">
        <ele>798.79998779296875</ele>
        <time>2021-09-27T07:18:31.000Z</time>
      </trkpt>
      <trkpt lat="39.969255141913890838623046875" lon="-0.6294542737305164337158203125">
        <ele>797.5999755859375</ele>
        <time>2021-09-27T07:18:33.000Z</time>
      </trkpt>
      <trkpt lat="39.96931456960737705230712890625" lon="-0.62931798398494720458984375">
        <ele>796.4000244140625</ele>
        <time>2021-09-27T07:18:35.000Z</time>
      </trkpt>
      <trkpt lat="39.96934122405946254730224609375" lon="-0.62925403006374835968017578125">
        <ele>795.79998779296875</ele>
        <time>2021-09-27T07:18:36.000Z</time>
      </trkpt>
      <trkpt lat="39.96937190182507038116455078125" lon="-0.629192255437374114990234375">
        <ele>795.4000244140625</ele>
        <time>2021-09-27T07:18:37.000Z</time>
      </trkpt>
      <trkpt lat="39.96943979524075984954833984375" lon="-0.6290687061846256256103515625">
        <ele>794.4000244140625</ele>
        <time>2021-09-27T07:18:39.000Z</time>
      </trkpt>
      <trkpt lat="39.96946762315928936004638671875" lon="-0.62900441698729991912841796875">
        <ele>794</ele>
        <time>2021-09-27T07:18:40.000Z</time>
      </trkpt>
      <trkpt lat="39.9694970436394214630126953125" lon="-0.62893434427678585052490234375">
        <ele>793.4000244140625</ele>
        <time>2021-09-27T07:18:41.000Z</time>
      </trkpt>
      <trkpt lat="39.9695547111332416534423828125" lon="-0.628792606294155120849609375">
        <ele>792.5999755859375</ele>
        <time>2021-09-27T07:18:43.000Z</time>
      </trkpt>
      <trkpt lat="39.9696026556193828582763671875" lon="-0.62865036539733409881591796875">
        <ele>791.20001220703125</ele>
        <time>2021-09-27T07:18:45.000Z</time>
      </trkpt>
      <trkpt lat="39.96962805278599262237548828125" lon="-0.62857710756361484527587890625">
        <ele>790.79998779296875</ele>
        <time>2021-09-27T07:18:46.000Z</time>
      </trkpt>
      <trkpt lat="39.969648756086826324462890625" lon="-0.62850552611052989959716796875">
        <ele>790.20001220703125</ele>
        <time>2021-09-27T07:18:47.000Z</time>
      </trkpt>
      <trkpt lat="39.96969477273523807525634765625" lon="-0.6283609382808208465576171875">
        <ele>789.20001220703125</ele>
        <time>2021-09-27T07:18:49.000Z</time>
      </trkpt>
      <trkpt lat="39.969735257327556610107421875" lon="-0.62821559607982635498046875">
        <ele>788.20001220703125</ele>
        <time>2021-09-27T07:18:51.000Z</time>
      </trkpt>
      <trkpt lat="39.96975646354258060455322265625" lon="-0.6281436793506145477294921875">
        <ele>787.5999755859375</ele>
        <time>2021-09-27T07:18:52.000Z</time>
      </trkpt>
      <trkpt lat="39.96977842412889003753662109375" lon="-0.62807419337332248687744140625">
        <ele>787.20001220703125</ele>
        <time>2021-09-27T07:18:53.000Z</time>
      </trkpt>
      <trkpt lat="39.969820417463779449462890625" lon="-0.6279274262487888336181640625">
        <ele>786.4000244140625</ele>
        <time>2021-09-27T07:18:55.000Z</time>
      </trkpt>
      <trkpt lat="39.96983550488948822021484375" lon="-0.62785073183476924896240234375">
        <ele>786.20001220703125</ele>
        <time>2021-09-27T07:18:56.000Z</time>
      </trkpt>
      <trkpt lat="39.96984732337296009063720703125" lon="-0.62777160666882991790771484375">
        <ele>785.79998779296875</ele>
        <time>2021-09-27T07:18:57.000Z</time>
      </trkpt>
      <trkpt lat="39.9698722176253795623779296875" lon="-0.62760195694863796234130859375">
        <ele>785.20001220703125</ele>
        <time>2021-09-27T07:18:59.000Z</time>
      </trkpt>
      <trkpt lat="39.96989878825843334197998046875" lon="-0.62742442823946475982666015625">
        <ele>784.4000244140625</ele>
        <time>2021-09-27T07:19:01.000Z</time>
      </trkpt>
      <trkpt lat="39.96992276050150394439697265625" lon="-0.62724036164581775665283203125">
        <ele>783.79998779296875</ele>
        <time>2021-09-27T07:19:03.000Z</time>
      </trkpt>
      <trkpt lat="39.9699389375746250152587890625" lon="-0.6270493380725383758544921875">
        <ele>784</ele>
        <time>2021-09-27T07:19:05.000Z</time>
      </trkpt>
      <trkpt lat="39.9699436314404010772705078125" lon="-0.626951269805431365966796875">
        <ele>784.4000244140625</ele>
        <time>2021-09-27T07:19:06.000Z</time>
      </trkpt>
      <trkpt lat="39.9699422903358936309814453125" lon="-0.62685026787221431732177734375">
        <ele>784.79998779296875</ele>
        <time>2021-09-27T07:19:07.000Z</time>
      </trkpt>
      <trkpt lat="39.96993340551853179931640625" lon="-0.6266503594815731048583984375">
        <ele>786.4000244140625</ele>
        <time>2021-09-27T07:19:09.000Z</time>
      </trkpt>
      <trkpt lat="39.969931058585643768310546875" lon="-0.6265440769493579864501953125">
        <ele>787.20001220703125</ele>
        <time>2021-09-27T07:19:10.000Z</time>
      </trkpt>
      <trkpt lat="39.96993164531886577606201171875" lon="-0.62643804587423801422119140625">
        <ele>788.20001220703125</ele>
        <time>2021-09-27T07:19:11.000Z</time>
      </trkpt>
      <trkpt lat="39.96992896310985088348388671875" lon="-0.62633360736072063446044921875">
        <ele>788.79998779296875</ele>
        <time>2021-09-27T07:19:12.000Z</time>
      </trkpt>
      <trkpt lat="39.96991739608347415924072265625" lon="-0.62623134814202785491943359375">
        <ele>789</ele>
        <time>2021-09-27T07:19:13.000Z</time>
      </trkpt>
      <trkpt lat="39.96990079991519451141357421875" lon="-0.62612942419946193695068359375">
        <ele>789</ele>
        <time>2021-09-27T07:19:14.000Z</time>
      </trkpt>
      <trkpt lat="39.969879426062107086181640625" lon="-0.62602984718978404998779296875">
        <ele>789.20001220703125</ele>
        <time>2021-09-27T07:19:15.000Z</time>
      </trkpt>
      <trkpt lat="39.969841875135898590087890625" lon="-0.625822730362415313720703125">
        <ele>789.5999755859375</ele>
        <time>2021-09-27T07:19:17.000Z</time>
      </trkpt>
      <trkpt lat="39.96981346048414707183837890625" lon="-0.62559918500483036041259765625">
        <ele>790</ele>
        <time>2021-09-27T07:19:19.000Z</time>
      </trkpt>
      <trkpt lat="39.969780854880809783935546875" lon="-0.62537438236176967620849609375">
        <ele>790</ele>
        <time>2021-09-27T07:19:21.000Z</time>
      </trkpt>
      <trkpt lat="39.9697409570217132568359375" lon="-0.625155530869960784912109375">
        <ele>789.20001220703125</ele>
        <time>2021-09-27T07:19:23.000Z</time>
      </trkpt>
      <trkpt lat="39.9696985445916652679443359375" lon="-0.6249427981674671173095703125">
        <ele>788.4000244140625</ele>
        <time>2021-09-27T07:19:25.000Z</time>
      </trkpt>
      <trkpt lat="39.9696767516434192657470703125" lon="-0.62483492307364940643310546875">
        <ele>787.79998779296875</ele>
        <time>2021-09-27T07:19:26.000Z</time>
      </trkpt>
      <trkpt lat="39.96965453960001468658447265625" lon="-0.62472796998918056488037109375">
        <ele>787.4000244140625</ele>
        <time>2021-09-27T07:19:27.000Z</time>
      </trkpt>
      <trkpt lat="39.9696033261716365814208984375" lon="-0.6245242059230804443359375">
        <ele>786.79998779296875</ele>
        <time>2021-09-27T07:19:29.000Z</time>
      </trkpt>
      <trkpt lat="39.969576336443424224853515625" lon="-0.62442135997116565704345703125">
        <ele>786.4000244140625</ele>
        <time>2021-09-27T07:19:30.000Z</time>
      </trkpt>
      <trkpt lat="39.96953886933624744415283203125" lon="-0.62431843020021915435791015625">
        <ele>786</ele>
        <time>2021-09-27T07:19:31.000Z</time>
      </trkpt>
      <trkpt lat="39.9695000611245632171630859375" lon="-0.624213404953479766845703125">
        <ele>785.4000244140625</ele>
        <time>2021-09-27T07:19:32.000Z</time>
      </trkpt>
      <trkpt lat="39.9694725684821605682373046875" lon="-0.6241066195070743560791015625">
        <ele>785.20001220703125</ele>
        <time>2021-09-27T07:19:33.000Z</time>
      </trkpt>
      <trkpt lat="39.9694313295185565948486328125" lon="-0.6238912045955657958984375">
        <ele>785</ele>
        <time>2021-09-27T07:19:35.000Z</time>
      </trkpt>
      <trkpt lat="39.96939562261104583740234375" lon="-0.623672939836978912353515625">
        <ele>784.79998779296875</ele>
        <time>2021-09-27T07:19:37.000Z</time>
      </trkpt>
      <trkpt lat="39.96935497038066387176513671875" lon="-0.62345325015485286712646484375">
        <ele>784.5999755859375</ele>
        <time>2021-09-27T07:19:39.000Z</time>
      </trkpt>
      <trkpt lat="39.96931624598801136016845703125" lon="-0.62323465012013912200927734375">
        <ele>784.20001220703125</ele>
        <time>2021-09-27T07:19:41.000Z</time>
      </trkpt>
      <trkpt lat="39.969276599586009979248046875" lon="-0.6230248510837554931640625">
        <ele>783.5999755859375</ele>
        <time>2021-09-27T07:19:43.000Z</time>
      </trkpt>
      <trkpt lat="39.9692422337830066680908203125" lon="-0.62282779254019260406494140625">
        <ele>783</ele>
        <time>2021-09-27T07:19:45.000Z</time>
      </trkpt>
      <trkpt lat="39.96921147219836711883544921875" lon="-0.6226377747952938079833984375">
        <ele>782.20001220703125</ele>
        <time>2021-09-27T07:19:47.000Z</time>
      </trkpt>
      <trkpt lat="39.96917945332825183868408203125" lon="-0.62245530076324939727783203125">
        <ele>781</ele>
        <time>2021-09-27T07:19:49.000Z</time>
      </trkpt>
      <trkpt lat="39.96914215385913848876953125" lon="-0.62228732742369174957275390625">
        <ele>779.5999755859375</ele>
        <time>2021-09-27T07:19:51.000Z</time>
      </trkpt>
      <trkpt lat="39.96912094764411449432373046875" lon="-0.62220803461968898773193359375">
        <ele>779</ele>
        <time>2021-09-27T07:19:52.000Z</time>
      </trkpt>
      <trkpt lat="39.969098232686519622802734375" lon="-0.6221234612166881561279296875">
        <ele>778.5999755859375</ele>
        <time>2021-09-27T07:19:53.000Z</time>
      </trkpt>
      <trkpt lat="39.969040565192699432373046875" lon="-0.62196562997996807098388671875">
        <ele>778.20001220703125</ele>
        <time>2021-09-27T07:19:55.000Z</time>
      </trkpt>
      <trkpt lat="39.96897208504378795623779296875" lon="-0.62181316316127777099609375">
        <ele>777.4000244140625</ele>
        <time>2021-09-27T07:19:57.000Z</time>
      </trkpt>
      <trkpt lat="39.968936629593372344970703125" lon="-0.62173931859433650970458984375">
        <ele>777</ele>
        <time>2021-09-27T07:19:58.000Z</time>
      </trkpt>
      <trkpt lat="39.96890083886682987213134765625" lon="-0.62166455201804637908935546875">
        <ele>776.5999755859375</ele>
        <time>2021-09-27T07:19:59.000Z</time>
      </trkpt>
      <trkpt lat="39.9688625335693359375" lon="-0.6215903721749782562255859375">
        <ele>776.20001220703125</ele>
        <time>2021-09-27T07:20:00.000Z</time>
      </trkpt>
      <trkpt lat="39.968819282948970794677734375" lon="-0.62151954509317874908447265625">
        <ele>775.79998779296875</ele>
        <time>2021-09-27T07:20:01.000Z</time>
      </trkpt>
      <trkpt lat="39.968735463917255401611328125" lon="-0.62138459645211696624755859375">
        <ele>775</ele>
        <time>2021-09-27T07:20:03.000Z</time>
      </trkpt>
      <trkpt lat="39.9686950631439685821533203125" lon="-0.62132022343575954437255859375">
        <ele>775.20001220703125</ele>
        <time>2021-09-27T07:20:04.000Z</time>
      </trkpt>
      <trkpt lat="39.96865021996200084686279296875" lon="-0.62125836499035358428955078125">
        <ele>775.4000244140625</ele>
        <time>2021-09-27T07:20:05.000Z</time>
      </trkpt>
      <trkpt lat="39.96855718083679676055908203125" lon="-0.6211365759372711181640625">
        <ele>775.79998779296875</ele>
        <time>2021-09-27T07:20:07.000Z</time>
      </trkpt>
      <trkpt lat="39.96846087276935577392578125" lon="-0.6210180558264255523681640625">
        <ele>776.20001220703125</ele>
        <time>2021-09-27T07:20:09.000Z</time>
      </trkpt>
      <trkpt lat="39.96835760772228240966796875" lon="-0.620905570685863494873046875">
        <ele>776.5999755859375</ele>
        <time>2021-09-27T07:20:11.000Z</time>
      </trkpt>
      <trkpt lat="39.9682481400668621063232421875" lon="-0.62080658040940761566162109375">
        <ele>775.79998779296875</ele>
        <time>2021-09-27T07:20:13.000Z</time>
      </trkpt>
      <trkpt lat="39.96813154779374599456787109375" lon="-0.62071186490356922149658203125">
        <ele>774.79998779296875</ele>
        <time>2021-09-27T07:20:15.000Z</time>
      </trkpt>
      <trkpt lat="39.96806818060576915740966796875" lon="-0.62066542915999889373779296875">
        <ele>774.20001220703125</ele>
        <time>2021-09-27T07:20:16.000Z</time>
      </trkpt>
      <trkpt lat="39.96800397522747516632080078125" lon="-0.62062050215899944305419921875">
        <ele>773.79998779296875</ele>
        <time>2021-09-27T07:20:17.000Z</time>
      </trkpt>
      <trkpt lat="39.96786550618708133697509765625" lon="-0.62052913941442966461181640625">
        <ele>773</ele>
        <time>2021-09-27T07:20:19.000Z</time>
      </trkpt>
      <trkpt lat="39.96772058308124542236328125" lon="-0.6204437278211116790771484375">
        <ele>773.79998779296875</ele>
        <time>2021-09-27T07:20:21.000Z</time>
      </trkpt>
      <trkpt lat="39.96756526641547679901123046875" lon="-0.62036904506385326385498046875">
        <ele>774.5999755859375</ele>
        <time>2021-09-27T07:20:23.000Z</time>
      </trkpt>
      <trkpt lat="39.96740852482616901397705078125" lon="-0.6203112937510013580322265625">
        <ele>775.20001220703125</ele>
        <time>2021-09-27T07:20:25.000Z</time>
      </trkpt>
      <trkpt lat="39.96733166277408599853515625" lon="-0.6202801130712032318115234375">
        <ele>775.5999755859375</ele>
        <time>2021-09-27T07:20:26.000Z</time>
      </trkpt>
      <trkpt lat="39.9672547169029712677001953125" lon="-0.62025136314332485198974609375">
        <ele>775.4000244140625</ele>
        <time>2021-09-27T07:20:27.000Z</time>
      </trkpt>
      <trkpt lat="39.96709571219980716705322265625" lon="-0.62021045945584774017333984375">
        <ele>774.5999755859375</ele>
        <time>2021-09-27T07:20:29.000Z</time>
      </trkpt>
      <trkpt lat="39.96692840941250324249267578125" lon="-0.6201996468007564544677734375">
        <ele>773.79998779296875</ele>
        <time>2021-09-27T07:20:31.000Z</time>
      </trkpt>
      <trkpt lat="39.9667628668248653411865234375" lon="-0.620196126401424407958984375">
        <ele>772.79998779296875</ele>
        <time>2021-09-27T07:20:33.000Z</time>
      </trkpt>
      <trkpt lat="39.9665928818285465240478515625" lon="-0.62019587494432926177978515625">
        <ele>771.79998779296875</ele>
        <time>2021-09-27T07:20:35.000Z</time>
      </trkpt>
      <trkpt lat="39.96650495566427707672119140625" lon="-0.620199143886566162109375">
        <ele>771.79998779296875</ele>
        <time>2021-09-27T07:20:36.000Z</time>
      </trkpt>
      <trkpt lat="39.96641895733773708343505859375" lon="-0.620208866894245147705078125">
        <ele>772</ele>
        <time>2021-09-27T07:20:37.000Z</time>
      </trkpt>
      <trkpt lat="39.96624712832272052764892578125" lon="-0.6202353537082672119140625">
        <ele>772.4000244140625</ele>
        <time>2021-09-27T07:20:39.000Z</time>
      </trkpt>
      <trkpt lat="39.9661654047667980194091796875" lon="-0.62025077641010284423828125">
        <ele>772</ele>
        <time>2021-09-27T07:20:40.000Z</time>
      </trkpt>
      <trkpt lat="39.96609273366630077362060546875" lon="-0.6202650256454944610595703125">
        <ele>771.5999755859375</ele>
        <time>2021-09-27T07:20:41.000Z</time>
      </trkpt>
      <trkpt lat="39.96603691019117832183837890625" lon="-0.6202784366905689239501953125">
        <ele>771.20001220703125</ele>
        <time>2021-09-27T07:20:42.000Z</time>
      </trkpt>
      <trkpt lat="39.96599055826663970947265625" lon="-0.62028740532696247100830078125">
        <ele>771</ele>
        <time>2021-09-27T07:20:43.000Z</time>
      </trkpt>
      <trkpt lat="39.965921826660633087158203125" lon="-0.62029964290559291839599609375">
        <ele>770.5999755859375</ele>
        <time>2021-09-27T07:20:45.000Z</time>
      </trkpt>
      <trkpt lat="39.9658941663801670074462890625" lon="-0.6203042529523372650146484375">
        <ele>770.5999755859375</ele>
        <time>2021-09-27T07:20:46.000Z</time>
      </trkpt>
      <trkpt lat="39.9658733792603015899658203125" lon="-0.62030442059040069580078125">
        <ele>770.4000244140625</ele>
        <time>2021-09-27T07:20:47.000Z</time>
      </trkpt>
      <trkpt lat="39.965848065912723541259765625" lon="-0.62030919827520847320556640625">
        <ele>770.4000244140625</ele>
        <time>2021-09-27T07:20:49.000Z</time>
      </trkpt>
      <trkpt lat="39.965843372046947479248046875" lon="-0.620310120284557342529296875">
        <ele>770.4000244140625</ele>
        <time>2021-09-27T07:20:50.000Z</time>
      </trkpt>
      <trkpt lat="39.965843372046947479248046875" lon="-0.620310120284557342529296875">
        <ele>770.4000244140625</ele>
        <time>2021-09-27T07:20:51.000Z</time>
      </trkpt>
      <trkpt lat="39.96572191826999187469482421875" lon="-0.62035680748522281646728515625">
        <ele>769.4000244140625</ele>
        <time>2021-09-27T07:21:13.000Z</time>
      </trkpt>
      <trkpt lat="39.96566592715680599212646484375" lon="-0.620361082255840301513671875">
        <ele>769.20001220703125</ele>
        <time>2021-09-27T07:21:15.000Z</time>
      </trkpt>
      <trkpt lat="39.965624101459980010986328125" lon="-0.62036468647420406341552734375">
        <ele>769</ele>
        <time>2021-09-27T07:21:16.000Z</time>
      </trkpt>
      <trkpt lat="39.96558177284896373748779296875" lon="-0.62037457711994647979736328125">
        <ele>768.79998779296875</ele>
        <time>2021-09-27T07:21:17.000Z</time>
      </trkpt>
      <trkpt lat="39.96549166738986968994140625" lon="-0.62039704062044620513916015625">
        <ele>768.4000244140625</ele>
        <time>2021-09-27T07:21:19.000Z</time>
      </trkpt>
      <trkpt lat="39.96539368294179439544677734375" lon="-0.6204231083393096923828125">
        <ele>768</ele>
        <time>2021-09-27T07:21:21.000Z</time>
      </trkpt>
      <trkpt lat="39.9653473310172557830810546875" lon="-0.62043358571827411651611328125">
        <ele>767.5999755859375</ele>
        <time>2021-09-27T07:21:22.000Z</time>
      </trkpt>
      <trkpt lat="39.965309612452983856201171875" lon="-0.6204370222985744476318359375">
        <ele>767.4000244140625</ele>
        <time>2021-09-27T07:21:23.000Z</time>
      </trkpt>
      <trkpt lat="39.9652474187314510345458984375" lon="-0.6204257905483245849609375">
        <ele>767.20001220703125</ele>
        <time>2021-09-27T07:21:25.000Z</time>
      </trkpt>
      <trkpt lat="39.9652205966413021087646484375" lon="-0.6204276345670223236083984375">
        <ele>767</ele>
        <time>2021-09-27T07:21:26.000Z</time>
      </trkpt>
      <trkpt lat="39.9651999771595001220703125" lon="-0.62042872421443462371826171875">
        <ele>766.79998779296875</ele>
        <time>2021-09-27T07:21:27.000Z</time>
      </trkpt>
      <trkpt lat="39.965182207524776458740234375" lon="-0.62042914330959320068359375">
        <ele>766.79998779296875</ele>
        <time>2021-09-27T07:21:28.000Z</time>
      </trkpt>
      <trkpt lat="39.96516552753746509552001953125" lon="-0.62042922712862491607666015625">
        <ele>766.5999755859375</ele>
        <time>2021-09-27T07:21:29.000Z</time>
      </trkpt>
      <trkpt lat="39.96514826081693172454833984375" lon="-0.62042688019573688507080078125">
        <ele>766.5999755859375</ele>
        <time>2021-09-27T07:21:30.000Z</time>
      </trkpt>
      <trkpt lat="39.96512495912611484527587890625" lon="-0.62042755074799060821533203125">
        <ele>766.4000244140625</ele>
        <time>2021-09-27T07:21:31.000Z</time>
      </trkpt>
      <trkpt lat="39.965093694627285003662109375" lon="-0.62043048441410064697265625">
        <ele>766.20001220703125</ele>
        <time>2021-09-27T07:21:33.000Z</time>
      </trkpt>
      <trkpt lat="39.96504968963563442230224609375" lon="-0.6204474158585071563720703125">
        <ele>765.5999755859375</ele>
        <time>2021-09-27T07:21:35.000Z</time>
      </trkpt>
      <trkpt lat="39.96501482091844081878662109375" lon="-0.62045604921877384185791015625">
        <ele>765.4000244140625</ele>
        <time>2021-09-27T07:21:36.000Z</time>
      </trkpt>
      <trkpt lat="39.9649661220610141754150390625" lon="-0.6204631738364696502685546875">
        <ele>765</ele>
        <time>2021-09-27T07:21:37.000Z</time>
      </trkpt>
      <trkpt lat="39.96491708792746067047119140625" lon="-0.6204675324261188507080078125">
        <ele>764.5999755859375</ele>
        <time>2021-09-27T07:21:38.000Z</time>
      </trkpt>
      <trkpt lat="39.9648652039468288421630859375" lon="-0.62046845443546772003173828125">
        <ele>764.4000244140625</ele>
        <time>2021-09-27T07:21:39.000Z</time>
      </trkpt>
      <trkpt lat="39.96475699357688426971435546875" lon="-0.6204876489937305450439453125">
        <ele>763.4000244140625</ele>
        <time>2021-09-27T07:21:41.000Z</time>
      </trkpt>
      <trkpt lat="39.96461726725101470947265625" lon="-0.62053869478404521942138671875">
        <ele>762.20001220703125</ele>
        <time>2021-09-27T07:21:43.000Z</time>
      </trkpt>
      <trkpt lat="39.9644410796463489532470703125" lon="-0.6206054985523223876953125">
        <ele>761.79998779296875</ele>
        <time>2021-09-27T07:21:45.000Z</time>
      </trkpt>
      <trkpt lat="39.96430168859660625457763671875" lon="-0.62063223682343959808349609375">
        <ele>761.4000244140625</ele>
        <time>2021-09-27T07:21:47.000Z</time>
      </trkpt>
      <trkpt lat="39.9642322026193141937255859375" lon="-0.62064598314464092254638671875">
        <ele>761.4000244140625</ele>
        <time>2021-09-27T07:21:48.000Z</time>
      </trkpt>
      <trkpt lat="39.96416154317557811737060546875" lon="-0.62066358514130115509033203125">
        <ele>761.20001220703125</ele>
        <time>2021-09-27T07:21:49.000Z</time>
      </trkpt>
      <trkpt lat="39.96403950266540050506591796875" lon="-0.620687641203403472900390625">
        <ele>761</ele>
        <time>2021-09-27T07:21:51.000Z</time>
      </trkpt>
      <trkpt lat="39.963919557631015777587890625" lon="-0.62070968560874462127685546875">
        <ele>760.5999755859375</ele>
        <time>2021-09-27T07:21:53.000Z</time>
      </trkpt>
      <trkpt lat="39.96380145661532878875732421875" lon="-0.6207327358424663543701171875">
        <ele>760.4000244140625</ele>
        <time>2021-09-27T07:21:55.000Z</time>
      </trkpt>
      <trkpt lat="39.96374244801700115203857421875" lon="-0.62074321322143077850341796875">
        <ele>760.20001220703125</ele>
        <time>2021-09-27T07:21:56.000Z</time>
      </trkpt>
      <trkpt lat="39.96368377469480037689208984375" lon="-0.62074924819171428680419921875">
        <ele>760</ele>
        <time>2021-09-27T07:21:57.000Z</time>
      </trkpt>
      <trkpt lat="39.96357212774455547332763671875" lon="-0.6207476556301116943359375">
        <ele>759.4000244140625</ele>
        <time>2021-09-27T07:21:59.000Z</time>
      </trkpt>
      <trkpt lat="39.9635053239762783050537109375" lon="-0.62075494788587093353271484375">
        <ele>759.20001220703125</ele>
        <time>2021-09-27T07:22:00.000Z</time>
      </trkpt>
      <trkpt lat="39.96344019658863544464111328125" lon="-0.62076014466583728790283203125">
        <ele>759</ele>
        <time>2021-09-27T07:22:01.000Z</time>
      </trkpt>
      <trkpt lat="39.9633085168898105621337890625" lon="-0.62077087350189685821533203125">
        <ele>758.5999755859375</ele>
        <time>2021-09-27T07:22:03.000Z</time>
      </trkpt>
      <trkpt lat="39.96316962875425815582275390625" lon="-0.62077648937702178955078125">
        <ele>758.4000244140625</ele>
        <time>2021-09-27T07:22:05.000Z</time>
      </trkpt>
      <trkpt lat="39.9630986340343952178955078125" lon="-0.62077917158603668212890625">
        <ele>758.20001220703125</ele>
        <time>2021-09-27T07:22:06.000Z</time>
      </trkpt>
      <trkpt lat="39.96302830986678600311279296875" lon="-0.6207786686718463897705078125">
        <ele>758</ele>
        <time>2021-09-27T07:22:07.000Z</time>
      </trkpt>
      <trkpt lat="39.96288397349417209625244140625" lon="-0.62076978385448455810546875">
        <ele>757.5999755859375</ele>
        <time>2021-09-27T07:22:09.000Z</time>
      </trkpt>
      <trkpt lat="39.962740056216716766357421875" lon="-0.6207545287907123565673828125">
        <ele>757.4000244140625</ele>
        <time>2021-09-27T07:22:11.000Z</time>
      </trkpt>
      <trkpt lat="39.9626000784337520599365234375" lon="-0.620732568204402923583984375">
        <ele>757</ele>
        <time>2021-09-27T07:22:13.000Z</time>
      </trkpt>
      <trkpt lat="39.9625313468277454376220703125" lon="-0.6207181513309478759765625">
        <ele>756.79998779296875</ele>
        <time>2021-09-27T07:22:14.000Z</time>
      </trkpt>
      <trkpt lat="39.9624626152217388153076171875" lon="-0.620699711143970489501953125">
        <ele>756.79998779296875</ele>
        <time>2021-09-27T07:22:15.000Z</time>
      </trkpt>
      <trkpt lat="39.962394051253795623779296875" lon="-0.62068336643278598785400390625">
        <ele>756.5999755859375</ele>
        <time>2021-09-27T07:22:16.000Z</time>
      </trkpt>
      <trkpt lat="39.96232607401907444000244140625" lon="-0.6206660158932209014892578125">
        <ele>756.4000244140625</ele>
        <time>2021-09-27T07:22:17.000Z</time>
      </trkpt>
      <trkpt lat="39.96218609623610973358154296875" lon="-0.62062838114798069000244140625">
        <ele>756.20001220703125</ele>
        <time>2021-09-27T07:22:19.000Z</time>
      </trkpt>
      <trkpt lat="39.96204058639705181121826171875" lon="-0.6205872260034084320068359375">
        <ele>756</ele>
        <time>2021-09-27T07:22:21.000Z</time>
      </trkpt>
      <trkpt lat="39.96188719756901264190673828125" lon="-0.620544813573360443115234375">
        <ele>755.79998779296875</ele>
        <time>2021-09-27T07:22:23.000Z</time>
      </trkpt>
      <trkpt lat="39.961809329688549041748046875" lon="-0.62052494846284389495849609375">
        <ele>755.5999755859375</ele>
        <time>2021-09-27T07:22:24.000Z</time>
      </trkpt>
      <trkpt lat="39.96172894723713397979736328125" lon="-0.62050583772361278533935546875">
        <ele>755.5999755859375</ele>
        <time>2021-09-27T07:22:25.000Z</time>
      </trkpt>
      <trkpt lat="39.9615677632391452789306640625" lon="-0.62046342529356479644775390625">
        <ele>755.4000244140625</ele>
        <time>2021-09-27T07:22:27.000Z</time>
      </trkpt>
      <trkpt lat="39.961412362754344940185546875" lon="-0.62042151577770709991455078125">
        <ele>755.20001220703125</ele>
        <time>2021-09-27T07:22:29.000Z</time>
      </trkpt>
      <trkpt lat="39.96125821955502033233642578125" lon="-0.620375163853168487548828125">
        <ele>755.20001220703125</ele>
        <time>2021-09-27T07:22:31.000Z</time>
      </trkpt>
      <trkpt lat="39.96109778992831707000732421875" lon="-0.620330907404422760009765625">
        <ele>754.4000244140625</ele>
        <time>2021-09-27T07:22:33.000Z</time>
      </trkpt>
      <trkpt lat="39.96093937195837497711181640625" lon="-0.6202827952802181243896484375">
        <ele>753.4000244140625</ele>
        <time>2021-09-27T07:22:35.000Z</time>
      </trkpt>
      <trkpt lat="39.96079168282449245452880859375" lon="-0.6202246248722076416015625">
        <ele>752.5999755859375</ele>
        <time>2021-09-27T07:22:37.000Z</time>
      </trkpt>
      <trkpt lat="39.960718341171741485595703125" lon="-0.62019369564950466156005859375">
        <ele>752.20001220703125</ele>
        <time>2021-09-27T07:22:38.000Z</time>
      </trkpt>
      <trkpt lat="39.96064717881381511688232421875" lon="-0.62015899457037448883056640625">
        <ele>751.79998779296875</ele>
        <time>2021-09-27T07:22:39.000Z</time>
      </trkpt>
      <trkpt lat="39.96057794429361820220947265625" lon="-0.62011926434934139251708984375">
        <ele>751.4000244140625</ele>
        <time>2021-09-27T07:22:40.000Z</time>
      </trkpt>
      <trkpt lat="39.960509799420833587646484375" lon="-0.6200769357383251190185546875">
        <ele>751.20001220703125</ele>
        <time>2021-09-27T07:22:41.000Z</time>
      </trkpt>
      <trkpt lat="39.96044567786157131195068359375" lon="-0.6200343556702136993408203125">
        <ele>750.79998779296875</ele>
        <time>2021-09-27T07:22:42.000Z</time>
      </trkpt>
      <trkpt lat="39.96038298122584819793701171875" lon="-0.619986914098262786865234375">
        <ele>750.4000244140625</ele>
        <time>2021-09-27T07:22:43.000Z</time>
      </trkpt>
      <trkpt lat="39.9603183567523956298828125" lon="-0.619939975440502166748046875">
        <ele>750</ele>
        <time>2021-09-27T07:22:44.000Z</time>
      </trkpt>
      <trkpt lat="39.96025255881249904632568359375" lon="-0.6198901869356632232666015625">
        <ele>749.5999755859375</ele>
        <time>2021-09-27T07:22:45.000Z</time>
      </trkpt>
      <trkpt lat="39.96011786162853240966796875" lon="-0.61978046782314777374267578125">
        <ele>749.20001220703125</ele>
        <time>2021-09-27T07:22:47.000Z</time>
      </trkpt>
      <trkpt lat="39.959982074797153472900390625" lon="-0.6196559965610504150390625">
        <ele>749</ele>
        <time>2021-09-27T07:22:49.000Z</time>
      </trkpt>
      <trkpt lat="39.95985106565058231353759765625" lon="-0.61952163465321063995361328125">
        <ele>748.79998779296875</ele>
        <time>2021-09-27T07:22:51.000Z</time>
      </trkpt>
      <trkpt lat="39.95972667820751667022705078125" lon="-0.61937595717608928680419921875">
        <ele>749</ele>
        <time>2021-09-27T07:22:53.000Z</time>
      </trkpt>
      <trkpt lat="39.959613941609859466552734375" lon="-0.61922005377709865570068359375">
        <ele>749.79998779296875</ele>
        <time>2021-09-27T07:22:55.000Z</time>
      </trkpt>
      <trkpt lat="39.95950472541153430938720703125" lon="-0.61904847621917724609375">
        <ele>750.79998779296875</ele>
        <time>2021-09-27T07:22:57.000Z</time>
      </trkpt>
      <trkpt lat="39.95940045453608036041259765625" lon="-0.61885527335107326507568359375">
        <ele>752</ele>
        <time>2021-09-27T07:22:59.000Z</time>
      </trkpt>
      <trkpt lat="39.9593512527644634246826171875" lon="-0.6187549419701099395751953125">
        <ele>751.5999755859375</ele>
        <time>2021-09-27T07:23:00.000Z</time>
      </trkpt>
      <trkpt lat="39.95930288918316364288330078125" lon="-0.61865217983722686767578125">
        <ele>751.20001220703125</ele>
        <time>2021-09-27T07:23:01.000Z</time>
      </trkpt>
      <trkpt lat="39.95925829745829105377197265625" lon="-0.61854715459048748016357421875">
        <ele>751</ele>
        <time>2021-09-27T07:23:02.000Z</time>
      </trkpt>
      <trkpt lat="39.95921487919986248016357421875" lon="-0.6184451468288898468017578125">
        <ele>750.5999755859375</ele>
        <time>2021-09-27T07:23:03.000Z</time>
      </trkpt>
      <trkpt lat="39.9591242708265781402587890625" lon="-0.618240125477313995361328125">
        <ele>749.79998779296875</ele>
        <time>2021-09-27T07:23:05.000Z</time>
      </trkpt>
      <trkpt lat="39.9590381048619747161865234375" lon="-0.61803719960153102874755859375">
        <ele>749</ele>
        <time>2021-09-27T07:23:07.000Z</time>
      </trkpt>
      <trkpt lat="39.958951771259307861328125" lon="-0.61783351935446262359619140625">
        <ele>748.79998779296875</ele>
        <time>2021-09-27T07:23:09.000Z</time>
      </trkpt>
      <trkpt lat="39.95886267162859439849853515625" lon="-0.61763285659253597259521484375">
        <ele>748.20001220703125</ele>
        <time>2021-09-27T07:23:11.000Z</time>
      </trkpt>
      <trkpt lat="39.9587760865688323974609375" lon="-0.6174379773437976837158203125">
        <ele>747.5999755859375</ele>
        <time>2021-09-27T07:23:13.000Z</time>
      </trkpt>
      <trkpt lat="39.95869251899421215057373046875" lon="-0.61724510975182056427001953125">
        <ele>747</ele>
        <time>2021-09-27T07:23:15.000Z</time>
      </trkpt>
      <trkpt lat="39.95865010656416416168212890625" lon="-0.61714737676084041595458984375">
        <ele>746.79998779296875</ele>
        <time>2021-09-27T07:23:16.000Z</time>
      </trkpt>
      <trkpt lat="39.95860886760056018829345703125" lon="-0.61704914085566997528076171875">
        <ele>746.5999755859375</ele>
        <time>2021-09-27T07:23:17.000Z</time>
      </trkpt>
      <trkpt lat="39.95852823369204998016357421875" lon="-0.6168562732636928558349609375">
        <ele>746</ele>
        <time>2021-09-27T07:23:19.000Z</time>
      </trkpt>
      <trkpt lat="39.9584433250129222869873046875" lon="-0.616669356822967529296875">
        <ele>745.5999755859375</ele>
        <time>2021-09-27T07:23:21.000Z</time>
      </trkpt>
      <trkpt lat="39.9583549797534942626953125" lon="-0.61648436821997165679931640625">
        <ele>745.5999755859375</ele>
        <time>2021-09-27T07:23:23.000Z</time>
      </trkpt>
      <trkpt lat="39.95831013657152652740478515625" lon="-0.616396106779575347900390625">
        <ele>745.4000244140625</ele>
        <time>2021-09-27T07:23:24.000Z</time>
      </trkpt>
      <trkpt lat="39.95826588012278079986572265625" lon="-0.6163084320724010467529296875">
        <ele>745.4000244140625</ele>
        <time>2021-09-27T07:23:25.000Z</time>
      </trkpt>
      <trkpt lat="39.95816244743764400482177734375" lon="-0.6161421351134777069091796875">
        <ele>745.5999755859375</ele>
        <time>2021-09-27T07:23:27.000Z</time>
      </trkpt>
      <trkpt lat="39.95805390179157257080078125" lon="-0.615985058248043060302734375">
        <ele>744.79998779296875</ele>
        <time>2021-09-27T07:23:29.000Z</time>
      </trkpt>
      <trkpt lat="39.95793747715651988983154296875" lon="-0.61583477072417736053466796875">
        <ele>743.79998779296875</ele>
        <time>2021-09-27T07:23:31.000Z</time>
      </trkpt>
      <trkpt lat="39.9578093178570270538330078125" lon="-0.615685991942882537841796875">
        <ele>743.20001220703125</ele>
        <time>2021-09-27T07:23:33.000Z</time>
      </trkpt>
      <trkpt lat="39.95767277665436267852783203125" lon="-0.61554442159831523895263671875">
        <ele>742.79998779296875</ele>
        <time>2021-09-27T07:23:35.000Z</time>
      </trkpt>
      <trkpt lat="39.957519471645355224609375" lon="-0.6154129095375537872314453125">
        <ele>742.5999755859375</ele>
        <time>2021-09-27T07:23:37.000Z</time>
      </trkpt>
      <trkpt lat="39.9573620595037937164306640625" lon="-0.6152908690273761749267578125">
        <ele>742.4000244140625</ele>
        <time>2021-09-27T07:23:39.000Z</time>
      </trkpt>
      <trkpt lat="39.957281760871410369873046875" lon="-0.615231357514858245849609375">
        <ele>742.20001220703125</ele>
        <time>2021-09-27T07:23:40.000Z</time>
      </trkpt>
      <trkpt lat="39.9571991153061389923095703125" lon="-0.6151745282113552093505859375">
        <ele>741.79998779296875</ele>
        <time>2021-09-27T07:23:41.000Z</time>
      </trkpt>
      <trkpt lat="39.957026280462741851806640625" lon="-0.6150729395449161529541015625">
        <ele>741.4000244140625</ele>
        <time>2021-09-27T07:23:43.000Z</time>
      </trkpt>
      <trkpt lat="39.9568396992981433868408203125" lon="-0.6149810738861560821533203125">
        <ele>741</ele>
        <time>2021-09-27T07:23:45.000Z</time>
      </trkpt>
      <trkpt lat="39.95674272067844867706298828125" lon="-0.61494293622672557830810546875">
        <ele>740.79998779296875</ele>
        <time>2021-09-27T07:23:46.000Z</time>
      </trkpt>
      <trkpt lat="39.95664599351584911346435546875" lon="-0.61490823514759540557861328125">
        <ele>740.20001220703125</ele>
        <time>2021-09-27T07:23:47.000Z</time>
      </trkpt>
      <trkpt lat="39.9564524553716182708740234375" lon="-0.6148483045399188995361328125">
        <ele>739.4000244140625</ele>
        <time>2021-09-27T07:23:49.000Z</time>
      </trkpt>
      <trkpt lat="39.9562573246657848358154296875" lon="-0.61480497010052204132080078125">
        <ele>738.4000244140625</ele>
        <time>2021-09-27T07:23:51.000Z</time>
      </trkpt>
      <trkpt lat="39.9561607651412487030029296875" lon="-0.61479239724576473236083984375">
        <ele>738</ele>
        <time>2021-09-27T07:23:52.000Z</time>
      </trkpt>
      <trkpt lat="39.95606177486479282379150390625" lon="-0.61478577554225921630859375">
        <ele>737.79998779296875</ele>
        <time>2021-09-27T07:23:53.000Z</time>
      </trkpt>
      <trkpt lat="39.95586697943508625030517578125" lon="-0.61478686518967151641845703125">
        <ele>737.4000244140625</ele>
        <time>2021-09-27T07:23:55.000Z</time>
      </trkpt>
      <trkpt lat="39.95567453093826770782470703125" lon="-0.6148010306060314178466796875">
        <ele>737</ele>
        <time>2021-09-27T07:23:57.000Z</time>
      </trkpt>
      <trkpt lat="39.955577887594699859619140625" lon="-0.614812932908535003662109375">
        <ele>736.79998779296875</ele>
        <time>2021-09-27T07:23:58.000Z</time>
      </trkpt>
      <trkpt lat="39.95548074133694171905517578125" lon="-0.61482827179133892059326171875">
        <ele>736.5999755859375</ele>
        <time>2021-09-27T07:23:59.000Z</time>
      </trkpt>
      <trkpt lat="39.95528879575431346893310546875" lon="-0.61487051658332347869873046875">
        <ele>736</ele>
        <time>2021-09-27T07:24:01.000Z</time>
      </trkpt>
      <trkpt lat="39.95510674081742763519287109375" lon="-0.61493706889450550079345703125">
        <ele>735.5999755859375</ele>
        <time>2021-09-27T07:24:03.000Z</time>
      </trkpt>
      <trkpt lat="39.95492988266050815582275390625" lon="-0.6150102429091930389404296875">
        <ele>735</ele>
        <time>2021-09-27T07:24:05.000Z</time>
      </trkpt>
      <trkpt lat="39.9547569639980792999267578125" lon="-0.615095235407352447509765625">
        <ele>734.5999755859375</ele>
        <time>2021-09-27T07:24:07.000Z</time>
      </trkpt>
      <trkpt lat="39.95458454824984073638916015625" lon="-0.6151912920176982879638671875">
        <ele>734.20001220703125</ele>
        <time>2021-09-27T07:24:09.000Z</time>
      </trkpt>
      <trkpt lat="39.954498298466205596923828125" lon="-0.61523764394223690032958984375">
        <ele>734.20001220703125</ele>
        <time>2021-09-27T07:24:10.000Z</time>
      </trkpt>
      <trkpt lat="39.9544119648635387420654296875" lon="-0.6152848340570926666259765625">
        <ele>734</ele>
        <time>2021-09-27T07:24:11.000Z</time>
      </trkpt>
      <trkpt lat="39.95424374006688594818115234375" lon="-0.6153713352978229522705078125">
        <ele>733.79998779296875</ele>
        <time>2021-09-27T07:24:13.000Z</time>
      </trkpt>
      <trkpt lat="39.95407945476472377777099609375" lon="-0.6154610216617584228515625">
        <ele>733.5999755859375</ele>
        <time>2021-09-27T07:24:15.000Z</time>
      </trkpt>
      <trkpt lat="39.953918270766735076904296875" lon="-0.6155495345592498779296875">
        <ele>733.4000244140625</ele>
        <time>2021-09-27T07:24:17.000Z</time>
      </trkpt>
      <trkpt lat="39.9538423307240009307861328125" lon="-0.61559421010315418243408203125">
        <ele>733.20001220703125</ele>
        <time>2021-09-27T07:24:18.000Z</time>
      </trkpt>
      <trkpt lat="39.953764379024505615234375" lon="-0.61563670635223388671875">
        <ele>733</ele>
        <time>2021-09-27T07:24:19.000Z</time>
      </trkpt>
      <trkpt lat="39.95360520668327808380126953125" lon="-0.61572077684104442596435546875">
        <ele>732.20001220703125</ele>
        <time>2021-09-27T07:24:21.000Z</time>
      </trkpt>
      <trkpt lat="39.95344913564622402191162109375" lon="-0.6158004887402057647705078125">
        <ele>731.5999755859375</ele>
        <time>2021-09-27T07:24:23.000Z</time>
      </trkpt>
      <trkpt lat="39.95329541154205799102783203125" lon="-0.61586393974721431732177734375">
        <ele>730.79998779296875</ele>
        <time>2021-09-27T07:24:25.000Z</time>
      </trkpt>
      <trkpt lat="39.95313079096376895904541015625" lon="-0.61590450815856456756591796875">
        <ele>729.79998779296875</ele>
        <time>2021-09-27T07:24:27.000Z</time>
      </trkpt>
      <trkpt lat="39.95296441018581390380859375" lon="-0.61593971215188503265380859375">
        <ele>728.79998779296875</ele>
        <time>2021-09-27T07:24:29.000Z</time>
      </trkpt>
      <trkpt lat="39.9527969397604465484619140625" lon="-0.61596435494720935821533203125">
        <ele>728.20001220703125</ele>
        <time>2021-09-27T07:24:31.000Z</time>
      </trkpt>
      <trkpt lat="39.95262050069868564605712890625" lon="-0.61597399413585662841796875">
        <ele>727.5999755859375</ele>
        <time>2021-09-27T07:24:33.000Z</time>
      </trkpt>
      <trkpt lat="39.952437691390514373779296875" lon="-0.6159647740423679351806640625">
        <ele>726.79998779296875</ele>
        <time>2021-09-27T07:24:35.000Z</time>
      </trkpt>
      <trkpt lat="39.95234641246497631072998046875" lon="-0.6159523688256740570068359375">
        <ele>726.4000244140625</ele>
        <time>2021-09-27T07:24:36.000Z</time>
      </trkpt>
      <trkpt lat="39.95225496590137481689453125" lon="-0.61593267135322093963623046875">
        <ele>726.20001220703125</ele>
        <time>2021-09-27T07:24:37.000Z</time>
      </trkpt>
      <trkpt lat="39.9521652795374393463134765625" lon="-0.6159114651381969451904296875">
        <ele>725.79998779296875</ele>
        <time>2021-09-27T07:24:38.000Z</time>
      </trkpt>
      <trkpt lat="39.952077604830265045166015625" lon="-0.6158856488764286041259765625">
        <ele>725.4000244140625</ele>
        <time>2021-09-27T07:24:39.000Z</time>
      </trkpt>
      <trkpt lat="39.9519017525017261505126953125" lon="-0.6158192642033100128173828125">
        <ele>723.5999755859375</ele>
        <time>2021-09-27T07:24:41.000Z</time>
      </trkpt>
      <trkpt lat="39.95173059403896331787109375" lon="-0.61573703773319721221923828125">
        <ele>722.5999755859375</ele>
        <time>2021-09-27T07:24:43.000Z</time>
      </trkpt>
      <trkpt lat="39.95156136341392993927001953125" lon="-0.61564098112285137176513671875">
        <ele>722</ele>
        <time>2021-09-27T07:24:45.000Z</time>
      </trkpt>
      <trkpt lat="39.95140068233013153076171875" lon="-0.61552665196359157562255859375">
        <ele>721.79998779296875</ele>
        <time>2021-09-27T07:24:47.000Z</time>
      </trkpt>
      <trkpt lat="39.9512479640543460845947265625" lon="-0.6153964810073375701904296875">
        <ele>721</ele>
        <time>2021-09-27T07:24:49.000Z</time>
      </trkpt>
      <trkpt lat="39.9511007778346538543701171875" lon="-0.61525424011051654815673828125">
        <ele>719.5999755859375</ele>
        <time>2021-09-27T07:24:51.000Z</time>
      </trkpt>
      <trkpt lat="39.951031208038330078125" lon="-0.61517880298197269439697265625">
        <ele>719</ele>
        <time>2021-09-27T07:24:52.000Z</time>
      </trkpt>
      <trkpt lat="39.95096490718424320220947265625" lon="-0.6151000969111919403076171875">
        <ele>718.4000244140625</ele>
        <time>2021-09-27T07:24:53.000Z</time>
      </trkpt>
      <trkpt lat="39.95083750225603580474853515625" lon="-0.6149311177432537078857421875">
        <ele>718.5999755859375</ele>
        <time>2021-09-27T07:24:55.000Z</time>
      </trkpt>
      <trkpt lat="39.950722754001617431640625" lon="-0.6147477217018604278564453125">
        <ele>720.4000244140625</ele>
        <time>2021-09-27T07:24:57.000Z</time>
      </trkpt>
      <trkpt lat="39.95061906985938549041748046875" lon="-0.61455778777599334716796875">
        <ele>720.79998779296875</ele>
        <time>2021-09-27T07:24:59.000Z</time>
      </trkpt>
      <trkpt lat="39.9505241028964519500732421875" lon="-0.6143559515476226806640625">
        <ele>720</ele>
        <time>2021-09-27T07:25:01.000Z</time>
      </trkpt>
      <trkpt lat="39.95044120587408542633056640625" lon="-0.614148080348968505859375">
        <ele>719.20001220703125</ele>
        <time>2021-09-27T07:25:03.000Z</time>
      </trkpt>
      <trkpt lat="39.950364343822002410888671875" lon="-0.613940544426441192626953125">
        <ele>718.4000244140625</ele>
        <time>2021-09-27T07:25:05.000Z</time>
      </trkpt>
      <trkpt lat="39.9503011442720890045166015625" lon="-0.61372496187686920166015625">
        <ele>718</ele>
        <time>2021-09-27T07:25:07.000Z</time>
      </trkpt>
      <trkpt lat="39.95025428943336009979248046875" lon="-0.61350158415734767913818359375">
        <ele>718.20001220703125</ele>
        <time>2021-09-27T07:25:09.000Z</time>
      </trkpt>
      <trkpt lat="39.95021724142134189605712890625" lon="-0.613296814262866973876953125">
        <ele>718.4000244140625</ele>
        <time>2021-09-27T07:25:11.000Z</time>
      </trkpt>
      <trkpt lat="39.95018991641700267791748046875" lon="-0.61309137381613254547119140625">
        <ele>718.20001220703125</ele>
        <time>2021-09-27T07:25:13.000Z</time>
      </trkpt>
      <trkpt lat="39.95018337853252887725830078125" lon="-0.612987689673900604248046875">
        <ele>717.79998779296875</ele>
        <time>2021-09-27T07:25:14.000Z</time>
      </trkpt>
      <trkpt lat="39.95017893612384796142578125" lon="-0.6128861010074615478515625">
        <ele>717.79998779296875</ele>
        <time>2021-09-27T07:25:15.000Z</time>
      </trkpt>
      <trkpt lat="39.95017533190548419952392578125" lon="-0.61269541271030902862548828125">
        <ele>717.4000244140625</ele>
        <time>2021-09-27T07:25:17.000Z</time>
      </trkpt>
      <trkpt lat="39.9501849710941314697265625" lon="-0.61250866390764713287353515625">
        <ele>717.4000244140625</ele>
        <time>2021-09-27T07:25:19.000Z</time>
      </trkpt>
      <trkpt lat="39.95020307600498199462890625" lon="-0.61232141219079494476318359375">
        <ele>717.4000244140625</ele>
        <time>2021-09-27T07:25:21.000Z</time>
      </trkpt>
      <trkpt lat="39.9502270482480525970458984375" lon="-0.6121295504271984100341796875">
        <ele>717.4000244140625</ele>
        <time>2021-09-27T07:25:23.000Z</time>
      </trkpt>
      <trkpt lat="39.950266778469085693359375" lon="-0.611939616501331329345703125">
        <ele>716.79998779296875</ele>
        <time>2021-09-27T07:25:25.000Z</time>
      </trkpt>
      <trkpt lat="39.95031304657459259033203125" lon="-0.61174825765192508697509765625">
        <ele>716.20001220703125</ele>
        <time>2021-09-27T07:25:27.000Z</time>
      </trkpt>
      <trkpt lat="39.95036660693585872650146484375" lon="-0.61155907809734344482421875">
        <ele>715.5999755859375</ele>
        <time>2021-09-27T07:25:29.000Z</time>
      </trkpt>
      <trkpt lat="39.95042963884770870208740234375" lon="-0.61137291602790355682373046875">
        <ele>715</ele>
        <time>2021-09-27T07:25:31.000Z</time>
      </trkpt>
      <trkpt lat="39.95046190917491912841796875" lon="-0.61128146946430206298828125">
        <ele>714.79998779296875</ele>
        <time>2021-09-27T07:25:32.000Z</time>
      </trkpt>
      <trkpt lat="39.95049652643501758575439453125" lon="-0.6111894361674785614013671875">
        <ele>714.5999755859375</ele>
        <time>2021-09-27T07:25:33.000Z</time>
      </trkpt>
      <trkpt lat="39.95056291110813617706298828125" lon="-0.6109969876706600189208984375">
        <ele>714</ele>
        <time>2021-09-27T07:25:35.000Z</time>
      </trkpt>
      <trkpt lat="39.95063222944736480712890625" lon="-0.61080747283995151519775390625">
        <ele>713.4000244140625</ele>
        <time>2021-09-27T07:25:37.000Z</time>
      </trkpt>
      <trkpt lat="39.950702302157878875732421875" lon="-0.61061737127602100372314453125">
        <ele>712.79998779296875</ele>
        <time>2021-09-27T07:25:39.000Z</time>
      </trkpt>
      <trkpt lat="39.95073440484702587127685546875" lon="-0.61052106320858001708984375">
        <ele>712.4000244140625</ele>
        <time>2021-09-27T07:25:40.000Z</time>
      </trkpt>
      <trkpt lat="39.950768686830997467041015625" lon="-0.61042441986501216888427734375">
        <ele>712.5999755859375</ele>
        <time>2021-09-27T07:25:41.000Z</time>
      </trkpt>
      <trkpt lat="39.95083875954151153564453125" lon="-0.6102312169969081878662109375">
        <ele>712.79998779296875</ele>
        <time>2021-09-27T07:25:43.000Z</time>
      </trkpt>
      <trkpt lat="39.9509076587855815887451171875" lon="-0.61003583483397960662841796875">
        <ele>713.20001220703125</ele>
        <time>2021-09-27T07:25:45.000Z</time>
      </trkpt>
      <trkpt lat="39.950977899134159088134765625" lon="-0.609840452671051025390625">
        <ele>713.20001220703125</ele>
        <time>2021-09-27T07:25:47.000Z</time>
      </trkpt>
      <trkpt lat="39.9510459601879119873046875" lon="-0.60964540578424930572509765625">
        <ele>713</ele>
        <time>2021-09-27T07:25:49.000Z</time>
      </trkpt>
      <trkpt lat="39.95111946947872638702392578125" lon="-0.60944876633584499359130859375">
        <ele>712.79998779296875</ele>
        <time>2021-09-27T07:25:51.000Z</time>
      </trkpt>
      <trkpt lat="39.951191805303096771240234375" lon="-0.60925279743969440460205078125">
        <ele>712.79998779296875</ele>
        <time>2021-09-27T07:25:53.000Z</time>
      </trkpt>
      <trkpt lat="39.95126112364232540130615234375" lon="-0.60906018130481243133544921875">
        <ele>712.5999755859375</ele>
        <time>2021-09-27T07:25:55.000Z</time>
      </trkpt>
      <trkpt lat="39.951331280171871185302734375" lon="-0.6088733486831188201904296875">
        <ele>712.20001220703125</ele>
        <time>2021-09-27T07:25:57.000Z</time>
      </trkpt>
      <trkpt lat="39.9513985030353069305419921875" lon="-0.6086902879178524017333984375">
        <ele>712.20001220703125</ele>
        <time>2021-09-27T07:25:59.000Z</time>
      </trkpt>
      <trkpt lat="39.95146505534648895263671875" lon="-0.60850563459098339080810546875">
        <ele>712.20001220703125</ele>
        <time>2021-09-27T07:26:01.000Z</time>
      </trkpt>
      <trkpt lat="39.9515279196202754974365234375" lon="-0.60832458548247814178466796875">
        <ele>712</ele>
        <time>2021-09-27T07:26:03.000Z</time>
      </trkpt>
      <trkpt lat="39.95155968703329563140869140625" lon="-0.60823523439466953277587890625">
        <ele>712</ele>
        <time>2021-09-27T07:26:04.000Z</time>
      </trkpt>
      <trkpt lat="39.951592124998569488525390625" lon="-0.6081434525549411773681640625">
        <ele>712</ele>
        <time>2021-09-27T07:26:05.000Z</time>
      </trkpt>
      <trkpt lat="39.95162724517285823822021484375" lon="-0.60804831795394420623779296875">
        <ele>712</ele>
        <time>2021-09-27T07:26:06.000Z</time>
      </trkpt>
      <trkpt lat="39.951661191880702972412109375" lon="-0.6079513393342494964599609375">
        <ele>712</ele>
        <time>2021-09-27T07:26:07.000Z</time>
      </trkpt>
      <trkpt lat="39.951728917658329010009765625" lon="-0.6077603995800018310546875">
        <ele>711.79998779296875</ele>
        <time>2021-09-27T07:26:09.000Z</time>
      </trkpt>
      <trkpt lat="39.9517619423568248748779296875" lon="-0.60766543261706829071044921875">
        <ele>711.79998779296875</ele>
        <time>2021-09-27T07:26:10.000Z</time>
      </trkpt>
      <trkpt lat="39.951794631779193878173828125" lon="-0.60756920836865901947021484375">
        <ele>711.79998779296875</ele>
        <time>2021-09-27T07:26:11.000Z</time>
      </trkpt>
      <trkpt lat="39.9518263153731822967529296875" lon="-0.607472397387027740478515625">
        <ele>711.79998779296875</ele>
        <time>2021-09-27T07:26:12.000Z</time>
      </trkpt>
      <trkpt lat="39.951856993138790130615234375" lon="-0.60737214982509613037109375">
        <ele>711.5999755859375</ele>
        <time>2021-09-27T07:26:13.000Z</time>
      </trkpt>
      <trkpt lat="39.95191432535648345947265625" lon="-0.60717366635799407958984375">
        <ele>711.4000244140625</ele>
        <time>2021-09-27T07:26:15.000Z</time>
      </trkpt>
      <trkpt lat="39.95194274000823497772216796875" lon="-0.60707316733896732330322265625">
        <ele>711</ele>
        <time>2021-09-27T07:26:16.000Z</time>
      </trkpt>
      <trkpt lat="39.9519661255180835723876953125" lon="-0.606970489025115966796875">
        <ele>710.5999755859375</ele>
        <time>2021-09-27T07:26:17.000Z</time>
      </trkpt>
      <trkpt lat="39.95200644247233867645263671875" lon="-0.6067624501883983612060546875">
        <ele>709.79998779296875</ele>
        <time>2021-09-27T07:26:19.000Z</time>
      </trkpt>
      <trkpt lat="39.952031336724758148193359375" lon="-0.60655348934233188629150390625">
        <ele>708.79998779296875</ele>
        <time>2021-09-27T07:26:21.000Z</time>
      </trkpt>
      <trkpt lat="39.9520415626466274261474609375" lon="-0.60644603334367275238037109375">
        <ele>708.4000244140625</ele>
        <time>2021-09-27T07:26:22.000Z</time>
      </trkpt>
      <trkpt lat="39.9520465917885303497314453125" lon="-0.60633874498307704925537109375">
        <ele>707.79998779296875</ele>
        <time>2021-09-27T07:26:23.000Z</time>
      </trkpt>
      <trkpt lat="39.95204416103661060333251953125" lon="-0.60611947439610958099365234375">
        <ele>706.5999755859375</ele>
        <time>2021-09-27T07:26:25.000Z</time>
      </trkpt>
      <trkpt lat="39.95203678496181964874267578125" lon="-0.60589852742850780487060546875">
        <ele>705.20001220703125</ele>
        <time>2021-09-27T07:26:27.000Z</time>
      </trkpt>
      <trkpt lat="39.9520321749150753021240234375" lon="-0.60579006560146808624267578125">
        <ele>704.5999755859375</ele>
        <time>2021-09-27T07:26:28.000Z</time>
      </trkpt>
      <trkpt lat="39.95202697813510894775390625" lon="-0.60568126849830150604248046875">
        <ele>704</ele>
        <time>2021-09-27T07:26:29.000Z</time>
      </trkpt>
      <trkpt lat="39.95201331563293933868408203125" lon="-0.60546300373971462249755859375">
        <ele>703</ele>
        <time>2021-09-27T07:26:31.000Z</time>
      </trkpt>
      <trkpt lat="39.9519983120262622833251953125" lon="-0.60525060631334781646728515625">
        <ele>703</ele>
        <time>2021-09-27T07:26:33.000Z</time>
      </trkpt>
      <trkpt lat="39.9519892595708370208740234375" lon="-0.6050394661724567413330078125">
        <ele>703</ele>
        <time>2021-09-27T07:26:35.000Z</time>
      </trkpt>
      <trkpt lat="39.9519865773618221282958984375" lon="-0.6049301661550998687744140625">
        <ele>703</ele>
        <time>2021-09-27T07:26:36.000Z</time>
      </trkpt>
      <trkpt lat="39.95198247022926807403564453125" lon="-0.60482379980385303497314453125">
        <ele>703</ele>
        <time>2021-09-27T07:26:37.000Z</time>
      </trkpt>
      <trkpt lat="39.9519728310406208038330078125" lon="-0.60460017062723636627197265625">
        <ele>702.5999755859375</ele>
        <time>2021-09-27T07:26:39.000Z</time>
      </trkpt>
      <trkpt lat="39.95195950381457805633544921875" lon="-0.60437478125095367431640625">
        <ele>703.4000244140625</ele>
        <time>2021-09-27T07:26:41.000Z</time>
      </trkpt>
      <trkpt lat="39.95194709859788417816162109375" lon="-0.60414184816181659698486328125">
        <ele>704.20001220703125</ele>
        <time>2021-09-27T07:26:43.000Z</time>
      </trkpt>
      <trkpt lat="39.951936788856983184814453125" lon="-0.6039058975875377655029296875">
        <ele>705.20001220703125</ele>
        <time>2021-09-27T07:26:45.000Z</time>
      </trkpt>
      <trkpt lat="39.95192262344062328338623046875" lon="-0.60367329977452754974365234375">
        <ele>705</ele>
        <time>2021-09-27T07:26:47.000Z</time>
      </trkpt>
      <trkpt lat="39.9519071169197559356689453125" lon="-0.60344137251377105712890625">
        <ele>704.4000244140625</ele>
        <time>2021-09-27T07:26:49.000Z</time>
      </trkpt>
      <trkpt lat="39.95190250687301158905029296875" lon="-0.6033268757164478302001953125">
        <ele>704.20001220703125</ele>
        <time>2021-09-27T07:26:50.000Z</time>
      </trkpt>
      <trkpt lat="39.95189764536917209625244140625" lon="-0.60321045108139514923095703125">
        <ele>703.79998779296875</ele>
        <time>2021-09-27T07:26:51.000Z</time>
      </trkpt>
      <trkpt lat="39.9518886767327785491943359375" lon="-0.60297408141195774078369140625">
        <ele>703.5999755859375</ele>
        <time>2021-09-27T07:26:53.000Z</time>
      </trkpt>
      <trkpt lat="39.95188155211508274078369140625" lon="-0.60273838229477405548095703125">
        <ele>703</ele>
        <time>2021-09-27T07:26:55.000Z</time>
      </trkpt>
      <trkpt lat="39.9518675543367862701416015625" lon="-0.6025027669966220855712890625">
        <ele>702.5999755859375</ele>
        <time>2021-09-27T07:26:57.000Z</time>
      </trkpt>
      <trkpt lat="39.9518585018813610076904296875" lon="-0.6023870967328548431396484375">
        <ele>702.20001220703125</ele>
        <time>2021-09-27T07:26:58.000Z</time>
      </trkpt>
      <trkpt lat="39.95185188017785549163818359375" lon="-0.60227184556424617767333984375">
        <ele>702</ele>
        <time>2021-09-27T07:26:59.000Z</time>
      </trkpt>
      <trkpt lat="39.9518430791795253753662109375" lon="-0.60205525718629360198974609375">
        <ele>701.5999755859375</ele>
        <time>2021-09-27T07:27:01.000Z</time>
      </trkpt>
      <trkpt lat="39.95184232480823993682861328125" lon="-0.60183783061802387237548828125">
        <ele>701.4000244140625</ele>
        <time>2021-09-27T07:27:03.000Z</time>
      </trkpt>
      <trkpt lat="39.95184903033077716827392578125" lon="-0.60173188336193561553955078125">
        <ele>701.20001220703125</ele>
        <time>2021-09-27T07:27:04.000Z</time>
      </trkpt>
      <trkpt lat="39.9518564902245998382568359375" lon="-0.60162073932588100433349609375">
        <ele>701</ele>
        <time>2021-09-27T07:27:05.000Z</time>
      </trkpt>
      <trkpt lat="39.95187769643962383270263671875" lon="-0.60139291919767856597900390625">
        <ele>701</ele>
        <time>2021-09-27T07:27:07.000Z</time>
      </trkpt>
      <trkpt lat="39.9519067816436290740966796875" lon="-0.6011606566607952117919921875">
        <ele>701</ele>
        <time>2021-09-27T07:27:09.000Z</time>
      </trkpt>
      <trkpt lat="39.9519423209130764007568359375" lon="-0.60092906467616558074951171875">
        <ele>701</ele>
        <time>2021-09-27T07:27:11.000Z</time>
      </trkpt>
      <trkpt lat="39.9519828893244266510009765625" lon="-0.6007036752998828887939453125">
        <ele>701</ele>
        <time>2021-09-27T07:27:13.000Z</time>
      </trkpt>
      <trkpt lat="39.95202588848769664764404296875" lon="-0.60048767365515232086181640625">
        <ele>700.79998779296875</ele>
        <time>2021-09-27T07:27:15.000Z</time>
      </trkpt>
      <trkpt lat="39.9520804546773433685302734375" lon="-0.60027376748621463775634765625">
        <ele>700.20001220703125</ele>
        <time>2021-09-27T07:27:17.000Z</time>
      </trkpt>
      <trkpt lat="39.95214709080755710601806640625" lon="-0.6000706739723682403564453125">
        <ele>699.5999755859375</ele>
        <time>2021-09-27T07:27:19.000Z</time>
      </trkpt>
      <trkpt lat="39.95221481658518314361572265625" lon="-0.5998829193413257598876953125">
        <ele>699</ele>
        <time>2021-09-27T07:27:21.000Z</time>
      </trkpt>
      <trkpt lat="39.952288158237934112548828125" lon="-0.59969834983348846435546875">
        <ele>698.5999755859375</ele>
        <time>2021-09-27T07:27:23.000Z</time>
      </trkpt>
      <trkpt lat="39.9523245356976985931396484375" lon="-0.5996130220592021942138671875">
        <ele>698.5999755859375</ele>
        <time>2021-09-27T07:27:24.000Z</time>
      </trkpt>
      <trkpt lat="39.9523604102432727813720703125" lon="-0.5995273590087890625">
        <ele>698.4000244140625</ele>
        <time>2021-09-27T07:27:25.000Z</time>
      </trkpt>
      <trkpt lat="39.9523982964456081390380859375" lon="-0.59944764710962772369384765625">
        <ele>698.4000244140625</ele>
        <time>2021-09-27T07:27:26.000Z</time>
      </trkpt>
      <trkpt lat="39.95243844576179981231689453125" lon="-0.59937271289527416229248046875">
        <ele>698.4000244140625</ele>
        <time>2021-09-27T07:27:27.000Z</time>
      </trkpt>
      <trkpt lat="39.952524192631244659423828125" lon="-0.5992237664759159088134765625">
        <ele>698.5999755859375</ele>
        <time>2021-09-27T07:27:29.000Z</time>
      </trkpt>
      <trkpt lat="39.9526150524616241455078125" lon="-0.59908286668360233306884765625">
        <ele>698.4000244140625</ele>
        <time>2021-09-27T07:27:31.000Z</time>
      </trkpt>
      <trkpt lat="39.9527060799300670623779296875" lon="-0.59893350116908550262451171875">
        <ele>698.4000244140625</ele>
        <time>2021-09-27T07:27:33.000Z</time>
      </trkpt>
      <trkpt lat="39.9528009630739688873291015625" lon="-0.59878463856875896453857421875">
        <ele>697.79998779296875</ele>
        <time>2021-09-27T07:27:35.000Z</time>
      </trkpt>
      <trkpt lat="39.95290028862655162811279296875" lon="-0.5986491031944751739501953125">
        <ele>696.79998779296875</ele>
        <time>2021-09-27T07:27:37.000Z</time>
      </trkpt>
      <trkpt lat="39.953004978597164154052734375" lon="-0.5985146574676036834716796875">
        <ele>696.4000244140625</ele>
        <time>2021-09-27T07:27:39.000Z</time>
      </trkpt>
      <trkpt lat="39.953108914196491241455078125" lon="-0.59839471243321895599365234375">
        <ele>696</ele>
        <time>2021-09-27T07:27:41.000Z</time>
      </trkpt>
      <trkpt lat="39.95321662165224552154541015625" lon="-0.59827820397913455963134765625">
        <ele>695.79998779296875</ele>
        <time>2021-09-27T07:27:43.000Z</time>
      </trkpt>
      <trkpt lat="39.95332114398479461669921875" lon="-0.598172843456268310546875">
        <ele>695.5999755859375</ele>
        <time>2021-09-27T07:27:45.000Z</time>
      </trkpt>
      <trkpt lat="39.95341904461383819580078125" lon="-0.5980804748833179473876953125">
        <ele>695.5999755859375</ele>
        <time>2021-09-27T07:27:47.000Z</time>
      </trkpt>
      <trkpt lat="39.95351602323353290557861328125" lon="-0.597997494041919708251953125">
        <ele>695.79998779296875</ele>
        <time>2021-09-27T07:27:49.000Z</time>
      </trkpt>
      <trkpt lat="39.95360068045556545257568359375" lon="-0.59793077409267425537109375">
        <ele>696.20001220703125</ele>
        <time>2021-09-27T07:27:51.000Z</time>
      </trkpt>
      <trkpt lat="39.95364208705723285675048828125" lon="-0.5978980846703052520751953125">
        <ele>696.4000244140625</ele>
        <time>2021-09-27T07:27:52.000Z</time>
      </trkpt>
      <trkpt lat="39.95368030853569507598876953125" lon="-0.59786514379084110260009765625">
        <ele>696.5999755859375</ele>
        <time>2021-09-27T07:27:53.000Z</time>
      </trkpt>
      <trkpt lat="39.9537561647593975067138671875" lon="-0.59780613519251346588134765625">
        <ele>696.79998779296875</ele>
        <time>2021-09-27T07:27:55.000Z</time>
      </trkpt>
      <trkpt lat="39.9537863396108150482177734375" lon="-0.59778769500553607940673828125">
        <ele>696.79998779296875</ele>
        <time>2021-09-27T07:27:56.000Z</time>
      </trkpt>
      <trkpt lat="39.953812994062900543212890625" lon="-0.59776824899017810821533203125">
        <ele>696.79998779296875</ele>
        <time>2021-09-27T07:27:57.000Z</time>
      </trkpt>
      <trkpt lat="39.95387963019311428070068359375" lon="-0.59772483073174953460693359375">
        <ele>697</ele>
        <time>2021-09-27T07:27:59.000Z</time>
      </trkpt>
      <trkpt lat="39.95392707176506519317626953125" lon="-0.5976975895464420318603515625">
        <ele>697</ele>
        <time>2021-09-27T07:28:00.000Z</time>
      </trkpt>
      <trkpt lat="39.95398373343050479888916015625" lon="-0.597670264542102813720703125">
        <ele>697</ele>
        <time>2021-09-27T07:28:01.000Z</time>
      </trkpt>
      <trkpt lat="39.95411113835871219635009765625" lon="-0.59761083684861660003662109375">
        <ele>697.4000244140625</ele>
        <time>2021-09-27T07:28:03.000Z</time>
      </trkpt>
      <trkpt lat="39.95418154634535312652587890625" lon="-0.59757965616881847381591796875">
        <ele>697.4000244140625</ele>
        <time>2021-09-27T07:28:04.000Z</time>
      </trkpt>
      <trkpt lat="39.95425446890294551849365234375" lon="-0.59754696674644947052001953125">
        <ele>697.5999755859375</ele>
        <time>2021-09-27T07:28:05.000Z</time>
      </trkpt>
      <trkpt lat="39.95432831346988677978515625" lon="-0.5975078232586383819580078125">
        <ele>697.5999755859375</ele>
        <time>2021-09-27T07:28:06.000Z</time>
      </trkpt>
      <trkpt lat="39.95440584607422351837158203125" lon="-0.59746650047600269317626953125">
        <ele>697.79998779296875</ele>
        <time>2021-09-27T07:28:07.000Z</time>
      </trkpt>
      <trkpt lat="39.95448388159275054931640625" lon="-0.5974273569881916046142578125">
        <ele>697.79998779296875</ele>
        <time>2021-09-27T07:28:08.000Z</time>
      </trkpt>
      <trkpt lat="39.9545611627399921417236328125" lon="-0.5973894707858562469482421875">
        <ele>698</ele>
        <time>2021-09-27T07:28:09.000Z</time>
      </trkpt>
      <trkpt lat="39.954708181321620941162109375" lon="-0.5973230861127376556396484375">
        <ele>695.5999755859375</ele>
        <time>2021-09-27T07:28:11.000Z</time>
      </trkpt>
      <trkpt lat="39.95476257987320423126220703125" lon="-0.59728972613811492919921875">
        <ele>694.5999755859375</ele>
        <time>2021-09-27T07:28:12.000Z</time>
      </trkpt>
      <trkpt lat="39.95482494123280048370361328125" lon="-0.5972660891711711883544921875">
        <ele>693.5999755859375</ele>
        <time>2021-09-27T07:28:13.000Z</time>
      </trkpt>
      <trkpt lat="39.9550000391900539398193359375" lon="-0.59719459153711795806884765625">
        <ele>690.4000244140625</ele>
        <time>2021-09-27T07:28:15.000Z</time>
      </trkpt>
      <trkpt lat="39.955087043344974517822265625" lon="-0.59718654491007328033447265625">
        <ele>689</ele>
        <time>2021-09-27T07:28:16.000Z</time>
      </trkpt>
      <trkpt lat="39.95516072027385234832763671875" lon="-0.5971775762736797332763671875">
        <ele>687.79998779296875</ele>
        <time>2021-09-27T07:28:17.000Z</time>
      </trkpt>
      <trkpt lat="39.95529147796332836151123046875" lon="-0.59712686575949192047119140625">
        <ele>685.79998779296875</ele>
        <time>2021-09-27T07:28:19.000Z</time>
      </trkpt>
      <trkpt lat="39.9553668312728404998779296875" lon="-0.59709903784096240997314453125">
        <ele>684.5999755859375</ele>
        <time>2021-09-27T07:28:20.000Z</time>
      </trkpt>
      <trkpt lat="39.95544335804879665374755859375" lon="-0.5970722995698451995849609375">
        <ele>683.5999755859375</ele>
        <time>2021-09-27T07:28:21.000Z</time>
      </trkpt>
      <trkpt lat="39.9555207230150699615478515625" lon="-0.59704237617552280426025390625">
        <ele>682.79998779296875</ele>
        <time>2021-09-27T07:28:22.000Z</time>
      </trkpt>
      <trkpt lat="39.95559574104845523834228515625" lon="-0.5970122851431369781494140625">
        <ele>682.20001220703125</ele>
        <time>2021-09-27T07:28:23.000Z</time>
      </trkpt>
      <trkpt lat="39.95567050762474536895751953125" lon="-0.59698219411075115203857421875">
        <ele>681.4000244140625</ele>
        <time>2021-09-27T07:28:24.000Z</time>
      </trkpt>
      <trkpt lat="39.95574326254427433013916015625" lon="-0.59695553965866565704345703125">
        <ele>680.5999755859375</ele>
        <time>2021-09-27T07:28:25.000Z</time>
      </trkpt>
      <trkpt lat="39.95581333525478839874267578125" lon="-0.596927963197231292724609375">
        <ele>680</ele>
        <time>2021-09-27T07:28:26.000Z</time>
      </trkpt>
      <trkpt lat="39.95588642545044422149658203125" lon="-0.59690088964998722076416015625">
        <ele>679.20001220703125</ele>
        <time>2021-09-27T07:28:27.000Z</time>
      </trkpt>
      <trkpt lat="39.9560233019292354583740234375" lon="-0.596845485270023345947265625">
        <ele>677.79998779296875</ele>
        <time>2021-09-27T07:28:29.000Z</time>
      </trkpt>
      <trkpt lat="39.9561510421335697174072265625" lon="-0.596793182194232940673828125">
        <ele>676.4000244140625</ele>
        <time>2021-09-27T07:28:31.000Z</time>
      </trkpt>
      <trkpt lat="39.95620795525610446929931640625" lon="-0.59676828794181346893310546875">
        <ele>675.79998779296875</ele>
        <time>2021-09-27T07:28:32.000Z</time>
      </trkpt>
      <trkpt lat="39.95626009069383144378662109375" lon="-0.59673995710909366607666015625">
        <ele>675.79998779296875</ele>
        <time>2021-09-27T07:28:33.000Z</time>
      </trkpt>
      <trkpt lat="39.95630518533289432525634765625" lon="-0.5967102013528347015380859375">
        <ele>676.4000244140625</ele>
        <time>2021-09-27T07:28:34.000Z</time>
      </trkpt>
      <trkpt lat="39.9563421495258808135986328125" lon="-0.59668849222362041473388671875">
        <ele>677</ele>
        <time>2021-09-27T07:28:35.000Z</time>
      </trkpt>
      <trkpt lat="39.95637291111052036285400390625" lon="-0.59667658992111682891845703125">
        <ele>677.4000244140625</ele>
        <time>2021-09-27T07:28:36.000Z</time>
      </trkpt>
      <trkpt lat="39.956399984657764434814453125" lon="-0.59667306952178478240966796875">
        <ele>677.79998779296875</ele>
        <time>2021-09-27T07:28:37.000Z</time>
      </trkpt>
      <trkpt lat="39.95645035989582538604736328125" lon="-0.59668111614882946014404296875">
        <ele>678.5999755859375</ele>
        <time>2021-09-27T07:28:39.000Z</time>
      </trkpt>
      <trkpt lat="39.95645790360867977142333984375" lon="-0.5966853909194469451904296875">
        <ele>678.5999755859375</ele>
        <time>2021-09-27T07:28:40.000Z</time>
      </trkpt>
      <trkpt lat="39.95645790360867977142333984375" lon="-0.5966853909194469451904296875">
        <ele>678.5999755859375</ele>
        <time>2021-09-27T07:28:41.000Z</time>
      </trkpt>
      <trkpt lat="39.9565203487873077392578125" lon="-0.59659193269908428192138671875">
        <ele>679.79998779296875</ele>
        <time>2021-09-27T07:34:50.000Z</time>
      </trkpt>
      <trkpt lat="39.9565429799258708953857421875" lon="-0.5965700559318065643310546875">
        <ele>680</ele>
        <time>2021-09-27T07:34:51.000Z</time>
      </trkpt>
      <trkpt lat="39.95660726912319660186767578125" lon="-0.5965147353708744049072265625">
        <ele>681</ele>
        <time>2021-09-27T07:34:53.000Z</time>
      </trkpt>
      <trkpt lat="39.95664331130683422088623046875" lon="-0.596484057605266571044921875">
        <ele>681.5999755859375</ele>
        <time>2021-09-27T07:34:54.000Z</time>
      </trkpt>
      <trkpt lat="39.9566881544888019561767578125" lon="-0.59645145200192928314208984375">
        <ele>682.20001220703125</ele>
        <time>2021-09-27T07:34:55.000Z</time>
      </trkpt>
      <trkpt lat="39.95673936791718006134033203125" lon="-0.59641490690410137176513671875">
        <ele>683</ele>
        <time>2021-09-27T07:34:56.000Z</time>
      </trkpt>
      <trkpt lat="39.95679418556392192840576171875" lon="-0.59637769125401973724365234375">
        <ele>684</ele>
        <time>2021-09-27T07:34:57.000Z</time>
      </trkpt>
      <trkpt lat="39.95689258910715579986572265625" lon="-0.59629973955452442169189453125">
        <ele>685</ele>
        <time>2021-09-27T07:34:59.000Z</time>
      </trkpt>
      <trkpt lat="39.9569868855178356170654296875" lon="-0.59621860273182392120361328125">
        <ele>686</ele>
        <time>2021-09-27T07:35:01.000Z</time>
      </trkpt>
      <trkpt lat="39.9570730514824390411376953125" lon="-0.59612522833049297332763671875">
        <ele>686.5999755859375</ele>
        <time>2021-09-27T07:35:03.000Z</time>
      </trkpt>
      <trkpt lat="39.95715829543769359588623046875" lon="-0.5960319377481937408447265625">
        <ele>686.5999755859375</ele>
        <time>2021-09-27T07:35:05.000Z</time>
      </trkpt>
      <trkpt lat="39.95724881999194622039794921875" lon="-0.595935881137847900390625">
        <ele>686.79998779296875</ele>
        <time>2021-09-27T07:35:07.000Z</time>
      </trkpt>
      <trkpt lat="39.95733372867107391357421875" lon="-0.595847703516483306884765625">
        <ele>686.79998779296875</ele>
        <time>2021-09-27T07:35:09.000Z</time>
      </trkpt>
      <trkpt lat="39.9574271030724048614501953125" lon="-0.5957529880106449127197265625">
        <ele>687</ele>
        <time>2021-09-27T07:35:11.000Z</time>
      </trkpt>
      <trkpt lat="39.957515783607959747314453125" lon="-0.59564108960330486297607421875">
        <ele>687</ele>
        <time>2021-09-27T07:35:13.000Z</time>
      </trkpt>
      <trkpt lat="39.95760823599994182586669921875" lon="-0.595517121255397796630859375">
        <ele>686.79998779296875</ele>
        <time>2021-09-27T07:35:15.000Z</time>
      </trkpt>
      <trkpt lat="39.9576996825635433197021484375" lon="-0.5953825078904628753662109375">
        <ele>686.4000244140625</ele>
        <time>2021-09-27T07:35:17.000Z</time>
      </trkpt>
      <trkpt lat="39.95779515244066715240478515625" lon="-0.59524244628846645355224609375">
        <ele>685.79998779296875</ele>
        <time>2021-09-27T07:35:19.000Z</time>
      </trkpt>
      <trkpt lat="39.957887269556522369384765625" lon="-0.59509241022169589996337890625">
        <ele>685.20001220703125</ele>
        <time>2021-09-27T07:35:21.000Z</time>
      </trkpt>
      <trkpt lat="39.95797234587371349334716796875" lon="-0.59493080712854862213134765625">
        <ele>684.5999755859375</ele>
        <time>2021-09-27T07:35:23.000Z</time>
      </trkpt>
      <trkpt lat="39.95805448852479457855224609375" lon="-0.59476132504642009735107421875">
        <ele>684</ele>
        <time>2021-09-27T07:35:25.000Z</time>
      </trkpt>
      <trkpt lat="39.95813327841460704803466796875" lon="-0.59459083713591098785400390625">
        <ele>683.79998779296875</ele>
        <time>2021-09-27T07:35:27.000Z</time>
      </trkpt>
      <trkpt lat="39.9582059495151042938232421875" lon="-0.5944118835031986236572265625">
        <ele>683.5999755859375</ele>
        <time>2021-09-27T07:35:29.000Z</time>
      </trkpt>
      <trkpt lat="39.9582696519792079925537109375" lon="-0.59422873891890048980712890625">
        <ele>683.5999755859375</ele>
        <time>2021-09-27T07:35:31.000Z</time>
      </trkpt>
      <trkpt lat="39.95833016932010650634765625" lon="-0.5940474383533000946044921875">
        <ele>683.79998779296875</ele>
        <time>2021-09-27T07:35:33.000Z</time>
      </trkpt>
      <trkpt lat="39.95835824869573116302490234375" lon="-0.59395615942776203155517578125">
        <ele>683.79998779296875</ele>
        <time>2021-09-27T07:35:34.000Z</time>
      </trkpt>
      <trkpt lat="39.95838523842394351959228515625" lon="-0.5938620306551456451416015625">
        <ele>683.79998779296875</ele>
        <time>2021-09-27T07:35:35.000Z</time>
      </trkpt>
      <trkpt lat="39.95843402110040187835693359375" lon="-0.59367452748119831085205078125">
        <ele>683.20001220703125</ele>
        <time>2021-09-27T07:35:37.000Z</time>
      </trkpt>
      <trkpt lat="39.95847375132143497467041015625" lon="-0.5934922210872173309326171875">
        <ele>682.20001220703125</ele>
        <time>2021-09-27T07:35:39.000Z</time>
      </trkpt>
      <trkpt lat="39.9584892578423023223876953125" lon="-0.5934011936187744140625">
        <ele>681.79998779296875</ele>
        <time>2021-09-27T07:35:40.000Z</time>
      </trkpt>
      <trkpt lat="39.95850392617285251617431640625" lon="-0.59330672957003116607666015625">
        <ele>681.4000244140625</ele>
        <time>2021-09-27T07:35:41.000Z</time>
      </trkpt>
      <trkpt lat="39.9585271440446376800537109375" lon="-0.59311377815902233123779296875">
        <ele>680.79998779296875</ele>
        <time>2021-09-27T07:35:43.000Z</time>
      </trkpt>
      <trkpt lat="39.95853913016617298126220703125" lon="-0.5929175578057765960693359375">
        <ele>680.5999755859375</ele>
        <time>2021-09-27T07:35:45.000Z</time>
      </trkpt>
      <trkpt lat="39.95854952372610569000244140625" lon="-0.59270993806421756744384765625">
        <ele>680</ele>
        <time>2021-09-27T07:35:47.000Z</time>
      </trkpt>
      <trkpt lat="39.95855404995381832122802734375" lon="-0.59250525198876857757568359375">
        <ele>679.5999755859375</ele>
        <time>2021-09-27T07:35:49.000Z</time>
      </trkpt>
      <trkpt lat="39.9585546366870403289794921875" lon="-0.5922926031053066253662109375">
        <ele>679</ele>
        <time>2021-09-27T07:35:51.000Z</time>
      </trkpt>
      <trkpt lat="39.958549439907073974609375" lon="-0.59219210408627986907958984375">
        <ele>678.5999755859375</ele>
        <time>2021-09-27T07:35:52.000Z</time>
      </trkpt>
      <trkpt lat="39.9585454165935516357421875" lon="-0.592083893716335296630859375">
        <ele>678.20001220703125</ele>
        <time>2021-09-27T07:35:53.000Z</time>
      </trkpt>
      <trkpt lat="39.9585398845374584197998046875" lon="-0.59187107719480991363525390625">
        <ele>677.4000244140625</ele>
        <time>2021-09-27T07:35:55.000Z</time>
      </trkpt>
      <trkpt lat="39.95852756313979625701904296875" lon="-0.5916602723300457000732421875">
        <ele>676.5999755859375</ele>
        <time>2021-09-27T07:35:57.000Z</time>
      </trkpt>
      <trkpt lat="39.95850509963929653167724609375" lon="-0.59145323932170867919921875">
        <ele>675.79998779296875</ele>
        <time>2021-09-27T07:35:59.000Z</time>
      </trkpt>
      <trkpt lat="39.958481378853321075439453125" lon="-0.591245703399181365966796875">
        <ele>675</ele>
        <time>2021-09-27T07:36:01.000Z</time>
      </trkpt>
      <trkpt lat="39.958454556763172149658203125" lon="-0.5910368263721466064453125">
        <ele>674.20001220703125</ele>
        <time>2021-09-27T07:36:03.000Z</time>
      </trkpt>
      <trkpt lat="39.9584255553781986236572265625" lon="-0.59081487357616424560546875">
        <ele>673.4000244140625</ele>
        <time>2021-09-27T07:36:05.000Z</time>
      </trkpt>
      <trkpt lat="39.958396889269351959228515625" lon="-0.59059149585664272308349609375">
        <ele>672.79998779296875</ele>
        <time>2021-09-27T07:36:07.000Z</time>
      </trkpt>
      <trkpt lat="39.9583581648766994476318359375" lon="-0.5903687886893749237060546875">
        <ele>672.5999755859375</ele>
        <time>2021-09-27T07:36:09.000Z</time>
      </trkpt>
      <trkpt lat="39.958315752446651458740234375" lon="-0.590150021016597747802734375">
        <ele>672.4000244140625</ele>
        <time>2021-09-27T07:36:11.000Z</time>
      </trkpt>
      <trkpt lat="39.95826772414147853851318359375" lon="-0.58993301354348659515380859375">
        <ele>671.4000244140625</ele>
        <time>2021-09-27T07:36:13.000Z</time>
      </trkpt>
      <trkpt lat="39.95824023149907588958740234375" lon="-0.58982505463063716888427734375">
        <ele>670.5999755859375</ele>
        <time>2021-09-27T07:36:14.000Z</time>
      </trkpt>
      <trkpt lat="39.9582087993621826171875" lon="-0.58971860446035861968994140625">
        <ele>670</ele>
        <time>2021-09-27T07:36:15.000Z</time>
      </trkpt>
      <trkpt lat="39.9581365473568439483642578125" lon="-0.58950654231011867523193359375">
        <ele>669.4000244140625</ele>
        <time>2021-09-27T07:36:17.000Z</time>
      </trkpt>
      <trkpt lat="39.95805767364799976348876953125" lon="-0.5893036164343357086181640625">
        <ele>668.79998779296875</ele>
        <time>2021-09-27T07:36:19.000Z</time>
      </trkpt>
      <trkpt lat="39.9580148421227931976318359375" lon="-0.589205212891101837158203125">
        <ele>668.5999755859375</ele>
        <time>2021-09-27T07:36:20.000Z</time>
      </trkpt>
      <trkpt lat="39.95797033421695232391357421875" lon="-0.58910571970045566558837890625">
        <ele>668.4000244140625</ele>
        <time>2021-09-27T07:36:21.000Z</time>
      </trkpt>
      <trkpt lat="39.95788282714784145355224609375" lon="-0.58891561813652515411376953125">
        <ele>667.79998779296875</ele>
        <time>2021-09-27T07:36:23.000Z</time>
      </trkpt>
      <trkpt lat="39.9577851779758930206298828125" lon="-0.58873238973319530487060546875">
        <ele>667.5999755859375</ele>
        <time>2021-09-27T07:36:25.000Z</time>
      </trkpt>
      <trkpt lat="39.95773362927138805389404296875" lon="-0.5886447988450527191162109375">
        <ele>667.4000244140625</ele>
        <time>2021-09-27T07:36:26.000Z</time>
      </trkpt>
      <trkpt lat="39.957678057253360748291015625" lon="-0.58856324292719364166259765625">
        <ele>667.20001220703125</ele>
        <time>2021-09-27T07:36:27.000Z</time>
      </trkpt>
      <trkpt lat="39.95756364427506923675537109375" lon="-0.58840281330049037933349609375">
        <ele>666.79998779296875</ele>
        <time>2021-09-27T07:36:29.000Z</time>
      </trkpt>
      <trkpt lat="39.9574510753154754638671875" lon="-0.5882454849779605865478515625">
        <ele>666.4000244140625</ele>
        <time>2021-09-27T07:36:31.000Z</time>
      </trkpt>
      <trkpt lat="39.95733213610947132110595703125" lon="-0.58809620328247547149658203125">
        <ele>666</ele>
        <time>2021-09-27T07:36:33.000Z</time>
      </trkpt>
      <trkpt lat="39.9572054855525493621826171875" lon="-0.58795371092855930328369140625">
        <ele>665.5999755859375</ele>
        <time>2021-09-27T07:36:35.000Z</time>
      </trkpt>
      <trkpt lat="39.95708017610013484954833984375" lon="-0.5878176726400852203369140625">
        <ele>666</ele>
        <time>2021-09-27T07:36:37.000Z</time>
      </trkpt>
      <trkpt lat="39.95695495046675205230712890625" lon="-0.58769202791154384613037109375">
        <ele>666.20001220703125</ele>
        <time>2021-09-27T07:36:39.000Z</time>
      </trkpt>
      <trkpt lat="39.9568226002156734466552734375" lon="-0.58757317252457141876220703125">
        <ele>666.5999755859375</ele>
        <time>2021-09-27T07:36:41.000Z</time>
      </trkpt>
      <trkpt lat="39.956756718456745147705078125" lon="-0.58751667849719524383544921875">
        <ele>666.5999755859375</ele>
        <time>2021-09-27T07:36:42.000Z</time>
      </trkpt>
      <trkpt lat="39.95669058524072170257568359375" lon="-0.58746035210788249969482421875">
        <ele>666.4000244140625</ele>
        <time>2021-09-27T07:36:43.000Z</time>
      </trkpt>
      <trkpt lat="39.956551529467105865478515625" lon="-0.58736027218401432037353515625">
        <ele>666</ele>
        <time>2021-09-27T07:36:45.000Z</time>
      </trkpt>
      <trkpt lat="39.95641197077929973602294921875" lon="-0.58726471848785877227783203125">
        <ele>665.5999755859375</ele>
        <time>2021-09-27T07:36:47.000Z</time>
      </trkpt>
      <trkpt lat="39.95634399354457855224609375" lon="-0.58721928857266902923583984375">
        <ele>665.4000244140625</ele>
        <time>2021-09-27T07:36:48.000Z</time>
      </trkpt>
      <trkpt lat="39.9562744237482547760009765625" lon="-0.587176121771335601806640625">
        <ele>665.20001220703125</ele>
        <time>2021-09-27T07:36:49.000Z</time>
      </trkpt>
      <trkpt lat="39.95612933300435543060302734375" lon="-0.58709054253995418548583984375">
        <ele>664.4000244140625</ele>
        <time>2021-09-27T07:36:51.000Z</time>
      </trkpt>
      <trkpt lat="39.95596705935895442962646484375" lon="-0.58701761998236179351806640625">
        <ele>663.4000244140625</ele>
        <time>2021-09-27T07:36:53.000Z</time>
      </trkpt>
      <trkpt lat="39.95578944683074951171875" lon="-0.58696313761174678802490234375">
        <ele>662.20001220703125</ele>
        <time>2021-09-27T07:36:55.000Z</time>
      </trkpt>
      <trkpt lat="39.9556068889796733856201171875" lon="-0.586921311914920806884765625">
        <ele>661.4000244140625</ele>
        <time>2021-09-27T07:36:57.000Z</time>
      </trkpt>
      <trkpt lat="39.95551611296832561492919921875" lon="-0.58690848760306835174560546875">
        <ele>661</ele>
        <time>2021-09-27T07:36:58.000Z</time>
      </trkpt>
      <trkpt lat="39.9554298631846904754638671875" lon="-0.58689172379672527313232421875">
        <ele>660.79998779296875</ele>
        <time>2021-09-27T07:36:59.000Z</time>
      </trkpt>
      <trkpt lat="39.95525099337100982666015625" lon="-0.58686624281108379364013671875">
        <ele>660</ele>
        <time>2021-09-27T07:37:01.000Z</time>
      </trkpt>
      <trkpt lat="39.95507505722343921661376953125" lon="-0.5868473835289478302001953125">
        <ele>659.20001220703125</ele>
        <time>2021-09-27T07:37:03.000Z</time>
      </trkpt>
      <trkpt lat="39.95498838834464550018310546875" lon="-0.58684310875833034515380859375">
        <ele>658.79998779296875</ele>
        <time>2021-09-27T07:37:04.000Z</time>
      </trkpt>
      <trkpt lat="39.954900629818439483642578125" lon="-0.58684109710156917572021484375">
        <ele>658.4000244140625</ele>
        <time>2021-09-27T07:37:05.000Z</time>
      </trkpt>
      <trkpt lat="39.95472771115601062774658203125" lon="-0.586844198405742645263671875">
        <ele>657</ele>
        <time>2021-09-27T07:37:07.000Z</time>
      </trkpt>
      <trkpt lat="39.95455638505518436431884765625" lon="-0.58686054311692714691162109375">
        <ele>656</ele>
        <time>2021-09-27T07:37:09.000Z</time>
      </trkpt>
      <trkpt lat="39.95447206310927867889404296875" lon="-0.5868748761713504791259765625">
        <ele>655.79998779296875</ele>
        <time>2021-09-27T07:37:10.000Z</time>
      </trkpt>
      <trkpt lat="39.954387657344341278076171875" lon="-0.586888454854488372802734375">
        <ele>655.5999755859375</ele>
        <time>2021-09-27T07:37:11.000Z</time>
      </trkpt>
      <trkpt lat="39.9542164988815784454345703125" lon="-0.58692625723779201507568359375">
        <ele>655.20001220703125</ele>
        <time>2021-09-27T07:37:13.000Z</time>
      </trkpt>
      <trkpt lat="39.95404341258108615875244140625" lon="-0.58696012012660503387451171875">
        <ele>654.79998779296875</ele>
        <time>2021-09-27T07:37:15.000Z</time>
      </trkpt>
      <trkpt lat="39.95387577451765537261962890625" lon="-0.586993061006069183349609375">
        <ele>654.20001220703125</ele>
        <time>2021-09-27T07:37:17.000Z</time>
      </trkpt>
      <trkpt lat="39.953710399568080902099609375" lon="-0.58702801354229450225830078125">
        <ele>653.5999755859375</ele>
        <time>2021-09-27T07:37:19.000Z</time>
      </trkpt>
      <trkpt lat="39.95354837737977504730224609375" lon="-0.58706581592559814453125">
        <ele>653.79998779296875</ele>
        <time>2021-09-27T07:37:21.000Z</time>
      </trkpt>
      <trkpt lat="39.95338794775307178497314453125" lon="-0.58710328303277492523193359375">
        <ele>653.79998779296875</ele>
        <time>2021-09-27T07:37:23.000Z</time>
      </trkpt>
      <trkpt lat="39.9532287754118442535400390625" lon="-0.58713597245514392852783203125">
        <ele>653.79998779296875</ele>
        <time>2021-09-27T07:37:25.000Z</time>
      </trkpt>
      <trkpt lat="39.9531499855220317840576171875" lon="-0.5871511436998844146728515625">
        <ele>654</ele>
        <time>2021-09-27T07:37:26.000Z</time>
      </trkpt>
      <trkpt lat="39.9530732072889804840087890625" lon="-0.58716799132525920867919921875">
        <ele>654</ele>
        <time>2021-09-27T07:37:27.000Z</time>
      </trkpt>
      <trkpt lat="39.95291604660451412200927734375" lon="-0.587197579443454742431640625">
        <ele>654</ele>
        <time>2021-09-27T07:37:29.000Z</time>
      </trkpt>
      <trkpt lat="39.9527545273303985595703125" lon="-0.58723102323710918426513671875">
        <ele>653.5999755859375</ele>
        <time>2021-09-27T07:37:31.000Z</time>
      </trkpt>
      <trkpt lat="39.95259602554142475128173828125" lon="-0.5872671492397785186767578125">
        <ele>653.20001220703125</ele>
        <time>2021-09-27T07:37:33.000Z</time>
      </trkpt>
      <trkpt lat="39.9524375237524509429931640625" lon="-0.58730159886181354522705078125">
        <ele>653</ele>
        <time>2021-09-27T07:37:35.000Z</time>
      </trkpt>
      <trkpt lat="39.95228405110538005828857421875" lon="-0.5873348750174045562744140625">
        <ele>652.79998779296875</ele>
        <time>2021-09-27T07:37:37.000Z</time>
      </trkpt>
      <trkpt lat="39.95212890207767486572265625" lon="-0.58736580424010753631591796875">
        <ele>652.4000244140625</ele>
        <time>2021-09-27T07:37:39.000Z</time>
      </trkpt>
      <trkpt lat="39.9519778601825237274169921875" lon="-0.587398745119571685791015625">
        <ele>651.79998779296875</ele>
        <time>2021-09-27T07:37:41.000Z</time>
      </trkpt>
      <trkpt lat="39.9519024230539798736572265625" lon="-0.58741542510688304901123046875">
        <ele>651.4000244140625</ele>
        <time>2021-09-27T07:37:42.000Z</time>
      </trkpt>
      <trkpt lat="39.9518291652202606201171875" lon="-0.5874280817806720733642578125">
        <ele>651</ele>
        <time>2021-09-27T07:37:43.000Z</time>
      </trkpt>
      <trkpt lat="39.9516811408102512359619140625" lon="-0.58745632879436016082763671875">
        <ele>650.5999755859375</ele>
        <time>2021-09-27T07:37:45.000Z</time>
      </trkpt>
      <trkpt lat="39.9515329487621784210205078125" lon="-0.58748834766447544097900390625">
        <ele>650</ele>
        <time>2021-09-27T07:37:47.000Z</time>
      </trkpt>
      <trkpt lat="39.95146078057587146759033203125" lon="-0.58750544674694538116455078125">
        <ele>649.79998779296875</ele>
        <time>2021-09-27T07:37:48.000Z</time>
      </trkpt>
      <trkpt lat="39.951389618217945098876953125" lon="-0.5875226296484470367431640625">
        <ele>649.4000244140625</ele>
        <time>2021-09-27T07:37:49.000Z</time>
      </trkpt>
      <trkpt lat="39.9513177014887332916259765625" lon="-0.58753763325512409210205078125">
        <ele>649.20001220703125</ele>
        <time>2021-09-27T07:37:50.000Z</time>
      </trkpt>
      <trkpt lat="39.9512456171214580535888671875" lon="-0.587550289928913116455078125">
        <ele>649</ele>
        <time>2021-09-27T07:37:51.000Z</time>
      </trkpt>
      <trkpt lat="39.951103292405605316162109375" lon="-0.5875829793512821197509765625">
        <ele>648</ele>
        <time>2021-09-27T07:37:53.000Z</time>
      </trkpt>
      <trkpt lat="39.95102793909609317779541015625" lon="-0.58759865351021289825439453125">
        <ele>647.4000244140625</ele>
        <time>2021-09-27T07:37:54.000Z</time>
      </trkpt>
      <trkpt lat="39.95095417834818363189697265625" lon="-0.58761491440236568450927734375">
        <ele>647</ele>
        <time>2021-09-27T07:37:55.000Z</time>
      </trkpt>
      <trkpt lat="39.950804226100444793701171875" lon="-0.58764743618667125701904296875">
        <ele>645.79998779296875</ele>
        <time>2021-09-27T07:37:57.000Z</time>
      </trkpt>
      <trkpt lat="39.95072468183934688568115234375" lon="-0.58766470290720462799072265625">
        <ele>645.4000244140625</ele>
        <time>2021-09-27T07:37:58.000Z</time>
      </trkpt>
      <trkpt lat="39.95064421556890010833740234375" lon="-0.58768297545611858367919921875">
        <ele>645</ele>
        <time>2021-09-27T07:37:59.000Z</time>
      </trkpt>
      <trkpt lat="39.95056190527975559234619140625" lon="-0.58769890107214450836181640625">
        <ele>644.79998779296875</ele>
        <time>2021-09-27T07:38:00.000Z</time>
      </trkpt>
      <trkpt lat="39.9504795111715793609619140625" lon="-0.587712228298187255859375">
        <ele>644.4000244140625</ele>
        <time>2021-09-27T07:38:01.000Z</time>
      </trkpt>
      <trkpt lat="39.9503963626921176910400390625" lon="-0.58772220276296138763427734375">
        <ele>644.20001220703125</ele>
        <time>2021-09-27T07:38:02.000Z</time>
      </trkpt>
      <trkpt lat="39.95031145401298999786376953125" lon="-0.58772739954292774200439453125">
        <ele>643.5999755859375</ele>
        <time>2021-09-27T07:38:03.000Z</time>
      </trkpt>
      <trkpt lat="39.950224198400974273681640625" lon="-0.5877237953245639801025390625">
        <ele>643.20001220703125</ele>
        <time>2021-09-27T07:38:04.000Z</time>
      </trkpt>
      <trkpt lat="39.9501378647983074188232421875" lon="-0.58771264739334583282470703125">
        <ele>643</ele>
        <time>2021-09-27T07:38:05.000Z</time>
      </trkpt>
      <trkpt lat="39.94996528141200542449951171875" lon="-0.587671659886837005615234375">
        <ele>642.79998779296875</ele>
        <time>2021-09-27T07:38:07.000Z</time>
      </trkpt>
      <trkpt lat="39.94979931972920894622802734375" lon="-0.5876118130981922149658203125">
        <ele>642</ele>
        <time>2021-09-27T07:38:09.000Z</time>
      </trkpt>
      <trkpt lat="39.9496346153318881988525390625" lon="-0.5875387229025363922119140625">
        <ele>641.20001220703125</ele>
        <time>2021-09-27T07:38:11.000Z</time>
      </trkpt>
      <trkpt lat="39.9494713358581066131591796875" lon="-0.587451718747615814208984375">
        <ele>641</ele>
        <time>2021-09-27T07:38:13.000Z</time>
      </trkpt>
      <trkpt lat="39.94931870140135288238525390625" lon="-0.58733948506414890289306640625">
        <ele>640.5999755859375</ele>
        <time>2021-09-27T07:38:15.000Z</time>
      </trkpt>
      <trkpt lat="39.9491746164858341217041015625" lon="-0.58721400797367095947265625">
        <ele>638.79998779296875</ele>
        <time>2021-09-27T07:38:17.000Z</time>
      </trkpt>
      <trkpt lat="39.94903958402574062347412109375" lon="-0.5870636366307735443115234375">
        <ele>637.5999755859375</ele>
        <time>2021-09-27T07:38:19.000Z</time>
      </trkpt>
      <trkpt lat="39.948976300656795501708984375" lon="-0.586983673274517059326171875">
        <ele>637.20001220703125</ele>
        <time>2021-09-27T07:38:20.000Z</time>
      </trkpt>
      <trkpt lat="39.94891603477299213409423828125" lon="-0.58689692057669162750244140625">
        <ele>637.5999755859375</ele>
        <time>2021-09-27T07:38:21.000Z</time>
      </trkpt>
      <trkpt lat="39.948807656764984130859375" lon="-0.5867139436304569244384765625">
        <ele>639</ele>
        <time>2021-09-27T07:38:23.000Z</time>
      </trkpt>
      <trkpt lat="39.94870950467884540557861328125" lon="-0.58652023784816265106201171875">
        <ele>640.5999755859375</ele>
        <time>2021-09-27T07:38:25.000Z</time>
      </trkpt>
      <trkpt lat="39.94862702675163745880126953125" lon="-0.58631907217204570770263671875">
        <ele>641</ele>
        <time>2021-09-27T07:38:27.000Z</time>
      </trkpt>
      <trkpt lat="39.94855821132659912109375" lon="-0.58611002750694751739501953125">
        <ele>639.79998779296875</ele>
        <time>2021-09-27T07:38:29.000Z</time>
      </trkpt>
      <trkpt lat="39.94852979667484760284423828125" lon="-0.586003996431827545166015625">
        <ele>639.20001220703125</ele>
        <time>2021-09-27T07:38:30.000Z</time>
      </trkpt>
      <trkpt lat="39.9485059082508087158203125" lon="-0.5858998931944370269775390625">
        <ele>638.79998779296875</ele>
        <time>2021-09-27T07:38:31.000Z</time>
      </trkpt>
      <trkpt lat="39.94846902787685394287109375" lon="-0.58569990098476409912109375">
        <ele>638.79998779296875</ele>
        <time>2021-09-27T07:38:33.000Z</time>
      </trkpt>
      <trkpt lat="39.94844212196767330169677734375" lon="-0.585497058928012847900390625">
        <ele>639.79998779296875</ele>
        <time>2021-09-27T07:38:35.000Z</time>
      </trkpt>
      <trkpt lat="39.9484308063983917236328125" lon="-0.58528684079647064208984375">
        <ele>638.79998779296875</ele>
        <time>2021-09-27T07:38:37.000Z</time>
      </trkpt>
      <trkpt lat="39.94843256659805774688720703125" lon="-0.58508299291133880615234375">
        <ele>638.20001220703125</ele>
        <time>2021-09-27T07:38:39.000Z</time>
      </trkpt>
      <trkpt lat="39.94843977503478527069091796875" lon="-0.58497964404523372650146484375">
        <ele>637.79998779296875</ele>
        <time>2021-09-27T07:38:40.000Z</time>
      </trkpt>
      <trkpt lat="39.948450587689876556396484375" lon="-0.5848752893507480621337890625">
        <ele>638</ele>
        <time>2021-09-27T07:38:41.000Z</time>
      </trkpt>
      <trkpt lat="39.94848201982676982879638671875" lon="-0.58466867543756961822509765625">
        <ele>638.4000244140625</ele>
        <time>2021-09-27T07:38:43.000Z</time>
      </trkpt>
      <trkpt lat="39.9485305510461330413818359375" lon="-0.58446851558983325958251953125">
        <ele>638</ele>
        <time>2021-09-27T07:38:45.000Z</time>
      </trkpt>
      <trkpt lat="39.94855963625013828277587890625" lon="-0.5843703635036945343017578125">
        <ele>637.79998779296875</ele>
        <time>2021-09-27T07:38:46.000Z</time>
      </trkpt>
      <trkpt lat="39.94859240949153900146484375" lon="-0.584271289408206939697265625">
        <ele>637.5999755859375</ele>
        <time>2021-09-27T07:38:47.000Z</time>
      </trkpt>
      <trkpt lat="39.9486660026013851165771484375" lon="-0.58407657779753208160400390625">
        <ele>637.4000244140625</ele>
        <time>2021-09-27T07:38:49.000Z</time>
      </trkpt>
      <trkpt lat="39.94874604977667331695556640625" lon="-0.58388865552842617034912109375">
        <ele>637.20001220703125</ele>
        <time>2021-09-27T07:38:51.000Z</time>
      </trkpt>
      <trkpt lat="39.94883112609386444091796875" lon="-0.58370836079120635986328125">
        <ele>636.4000244140625</ele>
        <time>2021-09-27T07:38:53.000Z</time>
      </trkpt>
      <trkpt lat="39.9489136040210723876953125" lon="-0.5835459195077419281005859375">
        <ele>635.79998779296875</ele>
        <time>2021-09-27T07:38:55.000Z</time>
      </trkpt>
      <trkpt lat="39.94899214245378971099853515625" lon="-0.583384148776531219482421875">
        <ele>635.20001220703125</ele>
        <time>2021-09-27T07:38:57.000Z</time>
      </trkpt>
      <trkpt lat="39.94906959123909473419189453125" lon="-0.58322480879724025726318359375">
        <ele>634.4000244140625</ele>
        <time>2021-09-27T07:38:59.000Z</time>
      </trkpt>
      <trkpt lat="39.94914469309151172637939453125" lon="-0.58306454680860042572021484375">
        <ele>633.79998779296875</ele>
        <time>2021-09-27T07:39:01.000Z</time>
      </trkpt>
      <trkpt lat="39.9492218904197216033935546875" lon="-0.582910068333148956298828125">
        <ele>634.20001220703125</ele>
        <time>2021-09-27T07:39:03.000Z</time>
      </trkpt>
      <trkpt lat="39.94929623790085315704345703125" lon="-0.58276229538023471832275390625">
        <ele>635</ele>
        <time>2021-09-27T07:39:05.000Z</time>
      </trkpt>
      <trkpt lat="39.94933127425611019134521484375" lon="-0.58269716799259185791015625">
        <ele>635.20001220703125</ele>
        <time>2021-09-27T07:39:06.000Z</time>
      </trkpt>
      <trkpt lat="39.94936329312622547149658203125" lon="-0.58263723738491535186767578125">
        <ele>635.5999755859375</ele>
        <time>2021-09-27T07:39:07.000Z</time>
      </trkpt>
      <trkpt lat="39.94942414574325084686279296875" lon="-0.582516454160213470458984375">
        <ele>636.20001220703125</ele>
        <time>2021-09-27T07:39:09.000Z</time>
      </trkpt>
      <trkpt lat="39.94947376661002635955810546875" lon="-0.58240572921931743621826171875">
        <ele>636.79998779296875</ele>
        <time>2021-09-27T07:39:11.000Z</time>
      </trkpt>
      <trkpt lat="39.94952254928648471832275390625" lon="-0.58230514638125896453857421875">
        <ele>637.4000244140625</ele>
        <time>2021-09-27T07:39:13.000Z</time>
      </trkpt>
      <trkpt lat="39.94956797920167446136474609375" lon="-0.58221680112183094024658203125">
        <ele>637.79998779296875</ele>
        <time>2021-09-27T07:39:15.000Z</time>
      </trkpt>
      <trkpt lat="39.94959480129182338714599609375" lon="-0.58216935954988002777099609375">
        <ele>638.20001220703125</ele>
        <time>2021-09-27T07:39:16.000Z</time>
      </trkpt>
      <trkpt lat="39.949617683887481689453125" lon="-0.58212627656757831573486328125">
        <ele>638.20001220703125</ele>
        <time>2021-09-27T07:39:17.000Z</time>
      </trkpt>
      <trkpt lat="39.94966554455459117889404296875" lon="-0.58204513974487781524658203125">
        <ele>638.5999755859375</ele>
        <time>2021-09-27T07:39:19.000Z</time>
      </trkpt>
      <trkpt lat="39.94970946572721004486083984375" lon="-0.5819640867412090301513671875">
        <ele>638.79998779296875</ele>
        <time>2021-09-27T07:39:21.000Z</time>
      </trkpt>
      <trkpt lat="39.94973410852253437042236328125" lon="-0.581909604370594024658203125">
        <ele>639</ele>
        <time>2021-09-27T07:39:23.000Z</time>
      </trkpt>
      <trkpt lat="39.9497348628938198089599609375" lon="-0.58190398849546909332275390625">
        <ele>639</ele>
        <time>2021-09-27T07:39:24.000Z</time>
      </trkpt>
      <trkpt lat="39.9497583322227001190185546875" lon="-0.581859648227691650390625">
        <ele>639.20001220703125</ele>
        <time>2021-09-27T07:41:13.000Z</time>
      </trkpt>
      <trkpt lat="39.94979127310216426849365234375" lon="-0.581789910793304443359375">
        <ele>639.20001220703125</ele>
        <time>2021-09-27T07:41:15.000Z</time>
      </trkpt>
      <trkpt lat="39.94980342686176300048828125" lon="-0.581760741770267486572265625">
        <ele>639.4000244140625</ele>
        <time>2021-09-27T07:41:16.000Z</time>
      </trkpt>
      <trkpt lat="39.9498183466494083404541015625" lon="-0.58173249475657939910888671875">
        <ele>639.4000244140625</ele>
        <time>2021-09-27T07:41:17.000Z</time>
      </trkpt>
      <trkpt lat="39.9498324282467365264892578125" lon="-0.5817025713622570037841796875">
        <ele>639.5999755859375</ele>
        <time>2021-09-27T07:41:18.000Z</time>
      </trkpt>
      <trkpt lat="39.94984994642436504364013671875" lon="-0.581668876111507415771484375">
        <ele>639.5999755859375</ele>
        <time>2021-09-27T07:41:19.000Z</time>
      </trkpt>
      <trkpt lat="39.94987945072352886199951171875" lon="-0.5815986357629299163818359375">
        <ele>639.79998779296875</ele>
        <time>2021-09-27T07:41:21.000Z</time>
      </trkpt>
      <trkpt lat="39.9499301612377166748046875" lon="-0.58149545453488826751708984375">
        <ele>640.20001220703125</ele>
        <time>2021-09-27T07:41:23.000Z</time>
      </trkpt>
      <trkpt lat="39.94999897666275501251220703125" lon="-0.58137441985309123992919921875">
        <ele>640.5999755859375</ele>
        <time>2021-09-27T07:41:25.000Z</time>
      </trkpt>
      <trkpt lat="39.950059242546558380126953125" lon="-0.58125858195126056671142578125">
        <ele>640</ele>
        <time>2021-09-27T07:41:27.000Z</time>
      </trkpt>
      <trkpt lat="39.95012219063937664031982421875" lon="-0.58113905601203441619873046875">
        <ele>639</ele>
        <time>2021-09-27T07:41:29.000Z</time>
      </trkpt>
      <trkpt lat="39.95018354617059230804443359375" lon="-0.58101676404476165771484375">
        <ele>638</ele>
        <time>2021-09-27T07:41:31.000Z</time>
      </trkpt>
      <trkpt lat="39.9502521939575672149658203125" lon="-0.580885000526905059814453125">
        <ele>637</ele>
        <time>2021-09-27T07:41:33.000Z</time>
      </trkpt>
      <trkpt lat="39.950319416821002960205078125" lon="-0.58074728585779666900634765625">
        <ele>636</ele>
        <time>2021-09-27T07:41:35.000Z</time>
      </trkpt>
      <trkpt lat="39.95039225555956363677978515625" lon="-0.5806102417409420013427734375">
        <ele>635</ele>
        <time>2021-09-27T07:41:37.000Z</time>
      </trkpt>
      <trkpt lat="39.950464926660060882568359375" lon="-0.58047269470989704132080078125">
        <ele>634</ele>
        <time>2021-09-27T07:41:39.000Z</time>
      </trkpt>
      <trkpt lat="39.9505388550460338592529296875" lon="-0.580333136022090911865234375">
        <ele>633.4000244140625</ele>
        <time>2021-09-27T07:41:41.000Z</time>
      </trkpt>
      <trkpt lat="39.95061345398426055908203125" lon="-0.58019139803946018218994140625">
        <ele>632.79998779296875</ele>
        <time>2021-09-27T07:41:43.000Z</time>
      </trkpt>
      <trkpt lat="39.9506883881986141204833984375" lon="-0.58004236780107021331787109375">
        <ele>632.20001220703125</ele>
        <time>2021-09-27T07:41:45.000Z</time>
      </trkpt>
      <trkpt lat="39.95075787417590618133544921875" lon="-0.5798736400902271270751953125">
        <ele>631.4000244140625</ele>
        <time>2021-09-27T07:41:47.000Z</time>
      </trkpt>
      <trkpt lat="39.9508208222687244415283203125" lon="-0.5796969495713710784912109375">
        <ele>630.5999755859375</ele>
        <time>2021-09-27T07:41:49.000Z</time>
      </trkpt>
      <trkpt lat="39.9508751370012760162353515625" lon="-0.57951615191996097564697265625">
        <ele>630</ele>
        <time>2021-09-27T07:41:51.000Z</time>
      </trkpt>
      <trkpt lat="39.95091310702264308929443359375" lon="-0.57932320050895214080810546875">
        <ele>629.5999755859375</ele>
        <time>2021-09-27T07:41:53.000Z</time>
      </trkpt>
      <trkpt lat="39.95094093494117259979248046875" lon="-0.579132176935672760009765625">
        <ele>629</ele>
        <time>2021-09-27T07:41:55.000Z</time>
      </trkpt>
      <trkpt lat="39.95094981975853443145751953125" lon="-0.5790367908775806427001953125">
        <ele>628.4000244140625</ele>
        <time>2021-09-27T07:41:56.000Z</time>
      </trkpt>
      <trkpt lat="39.95095786638557910919189453125" lon="-0.57894282974302768707275390625">
        <ele>627.79998779296875</ele>
        <time>2021-09-27T07:41:57.000Z</time>
      </trkpt>
      <trkpt lat="39.95096541009843349456787109375" lon="-0.5787652172148227691650390625">
        <ele>627.5999755859375</ele>
        <time>2021-09-27T07:41:59.000Z</time>
      </trkpt>
      <trkpt lat="39.9509636498987674713134765625" lon="-0.578672178089618682861328125">
        <ele>627.79998779296875</ele>
        <time>2021-09-27T07:42:00.000Z</time>
      </trkpt>
      <trkpt lat="39.9509576149284839630126953125" lon="-0.57857729494571685791015625">
        <ele>628</ele>
        <time>2021-09-27T07:42:01.000Z</time>
      </trkpt>
      <trkpt lat="39.9509505741298198699951171875" lon="-0.5784787237644195556640625">
        <ele>628.20001220703125</ele>
        <time>2021-09-27T07:42:02.000Z</time>
      </trkpt>
      <trkpt lat="39.9509442038834095001220703125" lon="-0.5783821642398834228515625">
        <ele>628.4000244140625</ele>
        <time>2021-09-27T07:42:03.000Z</time>
      </trkpt>
      <trkpt lat="39.950934983789920806884765625" lon="-0.57828753255307674407958984375">
        <ele>628.4000244140625</ele>
        <time>2021-09-27T07:42:04.000Z</time>
      </trkpt>
      <trkpt lat="39.95092182420194149017333984375" lon="-0.57818812318146228790283203125">
        <ele>628.4000244140625</ele>
        <time>2021-09-27T07:42:05.000Z</time>
      </trkpt>
      <trkpt lat="39.950904808938503265380859375" lon="-0.57809055782854557037353515625">
        <ele>628.4000244140625</ele>
        <time>2021-09-27T07:42:06.000Z</time>
      </trkpt>
      <trkpt lat="39.95088628493249416351318359375" lon="-0.57799500413239002227783203125">
        <ele>628.4000244140625</ele>
        <time>2021-09-27T07:42:07.000Z</time>
      </trkpt>
      <trkpt lat="39.95083699934184551239013671875" lon="-0.57781043462455272674560546875">
        <ele>627.79998779296875</ele>
        <time>2021-09-27T07:42:09.000Z</time>
      </trkpt>
      <trkpt lat="39.95077111758291721343994140625" lon="-0.57762284763157367706298828125">
        <ele>627.20001220703125</ele>
        <time>2021-09-27T07:42:11.000Z</time>
      </trkpt>
      <trkpt lat="39.95070070959627628326416015625" lon="-0.5774355120956897735595703125">
        <ele>626.79998779296875</ele>
        <time>2021-09-27T07:42:13.000Z</time>
      </trkpt>
      <trkpt lat="39.95062828995287418365478515625" lon="-0.57724700309336185455322265625">
        <ele>626.4000244140625</ele>
        <time>2021-09-27T07:42:15.000Z</time>
      </trkpt>
      <trkpt lat="39.950554780662059783935546875" lon="-0.5770586617290973663330078125">
        <ele>626</ele>
        <time>2021-09-27T07:42:17.000Z</time>
      </trkpt>
      <trkpt lat="39.9504791758954524993896484375" lon="-0.5768642015755176544189453125">
        <ele>625.79998779296875</ele>
        <time>2021-09-27T07:42:19.000Z</time>
      </trkpt>
      <trkpt lat="39.9504020623862743377685546875" lon="-0.57667016051709651947021484375">
        <ele>625.5999755859375</ele>
        <time>2021-09-27T07:42:21.000Z</time>
      </trkpt>
      <trkpt lat="39.95032587088644504547119140625" lon="-0.576476119458675384521484375">
        <ele>625.5999755859375</ele>
        <time>2021-09-27T07:42:23.000Z</time>
      </trkpt>
      <trkpt lat="39.95029083453118801116943359375" lon="-0.57637847028672695159912109375">
        <ele>625.5999755859375</ele>
        <time>2021-09-27T07:42:24.000Z</time>
      </trkpt>
      <trkpt lat="39.95025311596691608428955078125" lon="-0.57628132402896881103515625">
        <ele>625.79998779296875</ele>
        <time>2021-09-27T07:42:25.000Z</time>
      </trkpt>
      <trkpt lat="39.95017231442034244537353515625" lon="-0.57608552277088165283203125">
        <ele>626</ele>
        <time>2021-09-27T07:42:27.000Z</time>
      </trkpt>
      <trkpt lat="39.95009402744472026824951171875" lon="-0.57588477618992328643798828125">
        <ele>626.4000244140625</ele>
        <time>2021-09-27T07:42:29.000Z</time>
      </trkpt>
      <trkpt lat="39.950054548680782318115234375" lon="-0.57578369043767452239990234375">
        <ele>626.20001220703125</ele>
        <time>2021-09-27T07:42:30.000Z</time>
      </trkpt>
      <trkpt lat="39.9500171653926372528076171875" lon="-0.5756823532283306121826171875">
        <ele>625.79998779296875</ele>
        <time>2021-09-27T07:42:31.000Z</time>
      </trkpt>
      <trkpt lat="39.94995287619531154632568359375" lon="-0.57547205127775669097900390625">
        <ele>625.20001220703125</ele>
        <time>2021-09-27T07:42:33.000Z</time>
      </trkpt>
      <trkpt lat="39.94990157894790172576904296875" lon="-0.57525663636624813079833984375">
        <ele>625</ele>
        <time>2021-09-27T07:42:35.000Z</time>
      </trkpt>
      <trkpt lat="39.94986318983137607574462890625" lon="-0.575030744075775146484375">
        <ele>624.20001220703125</ele>
        <time>2021-09-27T07:42:37.000Z</time>
      </trkpt>
      <trkpt lat="39.949831925332546234130859375" lon="-0.5748022533953189849853515625">
        <ele>623.4000244140625</ele>
        <time>2021-09-27T07:42:39.000Z</time>
      </trkpt>
      <trkpt lat="39.94981683790683746337890625" lon="-0.5745692364871501922607421875">
        <ele>623</ele>
        <time>2021-09-27T07:42:41.000Z</time>
      </trkpt>
      <trkpt lat="39.9498096294701099395751953125" lon="-0.57433663867413997650146484375">
        <ele>622.5999755859375</ele>
        <time>2021-09-27T07:42:43.000Z</time>
      </trkpt>
      <trkpt lat="39.9498103000223636627197265625" lon="-0.5741028673946857452392578125">
        <ele>622.20001220703125</ele>
        <time>2021-09-27T07:42:45.000Z</time>
      </trkpt>
      <trkpt lat="39.94980384595692157745361328125" lon="-0.5738695152103900909423828125">
        <ele>622</ele>
        <time>2021-09-27T07:42:47.000Z</time>
      </trkpt>
      <trkpt lat="39.9498014152050018310546875" lon="-0.57375325821340084075927734375">
        <ele>622</ele>
        <time>2021-09-27T07:42:48.000Z</time>
      </trkpt>
      <trkpt lat="39.9498014152050018310546875" lon="-0.57363398373126983642578125">
        <ele>622</ele>
        <time>2021-09-27T07:42:49.000Z</time>
      </trkpt>
      <trkpt lat="39.94979999028146266937255859375" lon="-0.57339736260473728179931640625">
        <ele>621.79998779296875</ele>
        <time>2021-09-27T07:42:51.000Z</time>
      </trkpt>
      <trkpt lat="39.94979160837829113006591796875" lon="-0.57316333986818790435791015625">
        <ele>621.79998779296875</ele>
        <time>2021-09-27T07:42:53.000Z</time>
      </trkpt>
      <trkpt lat="39.949787668883800506591796875" lon="-0.5729324184358119964599609375">
        <ele>621.5999755859375</ele>
        <time>2021-09-27T07:42:55.000Z</time>
      </trkpt>
      <trkpt lat="39.94978825561702251434326171875" lon="-0.57281859219074249267578125">
        <ele>621.5999755859375</ele>
        <time>2021-09-27T07:42:56.000Z</time>
      </trkpt>
      <trkpt lat="39.9497880041599273681640625" lon="-0.57270434685051441192626953125">
        <ele>621.5999755859375</ele>
        <time>2021-09-27T07:42:57.000Z</time>
      </trkpt>
      <trkpt lat="39.9497854895889759063720703125" lon="-0.57247132994234561920166015625">
        <ele>621.5999755859375</ele>
        <time>2021-09-27T07:42:59.000Z</time>
      </trkpt>
      <trkpt lat="39.9497828073799610137939453125" lon="-0.5722387321293354034423828125">
        <ele>621.4000244140625</ele>
        <time>2021-09-27T07:43:01.000Z</time>
      </trkpt>
      <trkpt lat="39.94978196918964385986328125" lon="-0.57201166637241840362548828125">
        <ele>621.4000244140625</ele>
        <time>2021-09-27T07:43:03.000Z</time>
      </trkpt>
      <trkpt lat="39.94978004135191440582275390625" lon="-0.57190035469830036163330078125">
        <ele>621.5999755859375</ele>
        <time>2021-09-27T07:43:04.000Z</time>
      </trkpt>
      <trkpt lat="39.94977735914289951324462890625" lon="-0.5717892944812774658203125">
        <ele>621.5999755859375</ele>
        <time>2021-09-27T07:43:05.000Z</time>
      </trkpt>
      <trkpt lat="39.94977124035358428955078125" lon="-0.5715748853981494903564453125">
        <ele>622</ele>
        <time>2021-09-27T07:43:07.000Z</time>
      </trkpt>
      <trkpt lat="39.949766881763935089111328125" lon="-0.5713646672666072845458984375">
        <ele>622.20001220703125</ele>
        <time>2021-09-27T07:43:09.000Z</time>
      </trkpt>
      <trkpt lat="39.94975657202303409576416015625" lon="-0.57116291485726833343505859375">
        <ele>622</ele>
        <time>2021-09-27T07:43:11.000Z</time>
      </trkpt>
      <trkpt lat="39.94974802248179912567138671875" lon="-0.5709687061607837677001953125">
        <ele>622.79998779296875</ele>
        <time>2021-09-27T07:43:13.000Z</time>
      </trkpt>
      <trkpt lat="39.9497405625879764556884765625" lon="-0.57077969424426555633544921875">
        <ele>623.4000244140625</ele>
        <time>2021-09-27T07:43:15.000Z</time>
      </trkpt>
      <trkpt lat="39.94973595254123210906982421875" lon="-0.57058699429035186767578125">
        <ele>624.20001220703125</ele>
        <time>2021-09-27T07:43:17.000Z</time>
      </trkpt>
      <trkpt lat="39.94973025284707546234130859375" lon="-0.5703973956406116485595703125">
        <ele>625</ele>
        <time>2021-09-27T07:43:19.000Z</time>
      </trkpt>
      <trkpt lat="39.94971734471619129180908203125" lon="-0.570213161408901214599609375">
        <ele>626.4000244140625</ele>
        <time>2021-09-27T07:43:21.000Z</time>
      </trkpt>
      <trkpt lat="39.94969622232019901275634765625" lon="-0.57012372650206089019775390625">
        <ele>627</ele>
        <time>2021-09-27T07:43:22.000Z</time>
      </trkpt>
      <trkpt lat="39.9496748484671115875244140625" lon="-0.57003856636583805084228515625">
        <ele>627.5999755859375</ele>
        <time>2021-09-27T07:43:23.000Z</time>
      </trkpt>
      <trkpt lat="39.94891427457332611083984375" lon="-0.5674409307539463043212890625">
        <ele>627.4000244140625</ele>
        <time>2021-09-27T07:43:55.000Z</time>
      </trkpt>
      <trkpt lat="39.94888301007449626922607421875" lon="-0.56739558465778827667236328125">
        <ele>627</ele>
        <time>2021-09-27T07:43:56.000Z</time>
      </trkpt>
      <trkpt lat="39.9488292820751667022705078125" lon="-0.56732366792857646942138671875">
        <ele>626.4000244140625</ele>
        <time>2021-09-27T07:43:57.000Z</time>
      </trkpt>
      <trkpt lat="39.9487796612083911895751953125" lon="-0.56724269874393939971923828125">
        <ele>625.5999755859375</ele>
        <time>2021-09-27T07:43:58.000Z</time>
      </trkpt>
      <trkpt lat="39.94874152354896068572998046875" lon="-0.56716449558734893798828125">
        <ele>624.79998779296875</ele>
        <time>2021-09-27T07:43:59.000Z</time>
      </trkpt>
      <trkpt lat="39.9486505798995494842529296875" lon="-0.56701068766415119171142578125">
        <ele>624.20001220703125</ele>
        <time>2021-09-27T07:44:01.000Z</time>
      </trkpt>
      <trkpt lat="39.94856500066816806793212890625" lon="-0.56684941984713077545166015625">
        <ele>623.4000244140625</ele>
        <time>2021-09-27T07:44:03.000Z</time>
      </trkpt>
      <trkpt lat="39.9484789185225963592529296875" lon="-0.5666902475059032440185546875">
        <ele>622.5999755859375</ele>
        <time>2021-09-27T07:44:05.000Z</time>
      </trkpt>
      <trkpt lat="39.94843508116900920867919921875" lon="-0.56661053560674190521240234375">
        <ele>622.20001220703125</ele>
        <time>2021-09-27T07:44:06.000Z</time>
      </trkpt>
      <trkpt lat="39.9483950994908809661865234375" lon="-0.56653141044080257415771484375">
        <ele>622</ele>
        <time>2021-09-27T07:44:07.000Z</time>
      </trkpt>
      <trkpt lat="39.94833449833095073699951171875" lon="-0.56640886701643466949462890625">
        <ele>621.79998779296875</ele>
        <time>2021-09-27T07:44:09.000Z</time>
      </trkpt>
      <trkpt lat="39.94829610921442508697509765625" lon="-0.566344745457172393798828125">
        <ele>621.79998779296875</ele>
        <time>2021-09-27T07:44:11.000Z</time>
      </trkpt>
      <trkpt lat="39.94826786220073699951171875" lon="-0.5663063563406467437744140625">
        <ele>622.20001220703125</ele>
        <time>2021-09-27T07:44:12.000Z</time>
      </trkpt>
      <trkpt lat="39.948241710662841796875" lon="-0.5662719905376434326171875">
        <ele>622.5999755859375</ele>
        <time>2021-09-27T07:44:13.000Z</time>
      </trkpt>
      <trkpt lat="39.9481664411723613739013671875" lon="-0.5661688931286334991455078125">
        <ele>623.5999755859375</ele>
        <time>2021-09-27T07:44:15.000Z</time>
      </trkpt>
      <trkpt lat="39.94808144867420196533203125" lon="-0.56602262891829013824462890625">
        <ele>623.4000244140625</ele>
        <time>2021-09-27T07:44:17.000Z</time>
      </trkpt>
      <trkpt lat="39.94803719222545623779296875" lon="-0.5659455992281436920166015625">
        <ele>622.5999755859375</ele>
        <time>2021-09-27T07:44:18.000Z</time>
      </trkpt>
      <trkpt lat="39.94799067266285419464111328125" lon="-0.5658678151667118072509765625">
        <ele>622</ele>
        <time>2021-09-27T07:44:19.000Z</time>
      </trkpt>
      <trkpt lat="39.9479453265666961669921875" lon="-0.56578458286821842193603515625">
        <ele>621.4000244140625</ele>
        <time>2021-09-27T07:44:20.000Z</time>
      </trkpt>
      <trkpt lat="39.94789905846118927001953125" lon="-0.5656993389129638671875">
        <ele>620.5999755859375</ele>
        <time>2021-09-27T07:44:21.000Z</time>
      </trkpt>
      <trkpt lat="39.947796799242496490478515625" lon="-0.5655187927186489105224609375">
        <ele>619.4000244140625</ele>
        <time>2021-09-27T07:44:23.000Z</time>
      </trkpt>
      <trkpt lat="39.94768808595836162567138671875" lon="-0.5653313733637332916259765625">
        <ele>618</ele>
        <time>2021-09-27T07:44:25.000Z</time>
      </trkpt>
      <trkpt lat="39.94758079759776592254638671875" lon="-0.5651414394378662109375">
        <ele>616.5999755859375</ele>
        <time>2021-09-27T07:44:27.000Z</time>
      </trkpt>
      <trkpt lat="39.947525896131992340087890625" lon="-0.56504647247493267059326171875">
        <ele>616</ele>
        <time>2021-09-27T07:44:28.000Z</time>
      </trkpt>
      <trkpt lat="39.94747300632297992706298828125" lon="-0.56495108641684055328369140625">
        <ele>615.5999755859375</ele>
        <time>2021-09-27T07:44:29.000Z</time>
      </trkpt>
      <trkpt lat="39.94736353866755962371826171875" lon="-0.56476098485291004180908203125">
        <ele>614.79998779296875</ele>
        <time>2021-09-27T07:44:31.000Z</time>
      </trkpt>
      <trkpt lat="39.94725038297474384307861328125" lon="-0.56457842700183391571044921875">
        <ele>614.5999755859375</ele>
        <time>2021-09-27T07:44:33.000Z</time>
      </trkpt>
      <trkpt lat="39.9471964873373508453369140625" lon="-0.564487315714359283447265625">
        <ele>614.4000244140625</ele>
        <time>2021-09-27T07:44:34.000Z</time>
      </trkpt>
      <trkpt lat="39.94714259169995784759521484375" lon="-0.56439645588397979736328125">
        <ele>613.79998779296875</ele>
        <time>2021-09-27T07:44:35.000Z</time>
      </trkpt>
      <trkpt lat="39.947034381330013275146484375" lon="-0.56421339511871337890625">
        <ele>612.4000244140625</ele>
        <time>2021-09-27T07:44:37.000Z</time>
      </trkpt>
      <trkpt lat="39.94693203829228878021240234375" lon="-0.56403947062790393829345703125">
        <ele>610.20001220703125</ele>
        <time>2021-09-27T07:44:39.000Z</time>
      </trkpt>
      <trkpt lat="39.94683816097676753997802734375" lon="-0.563861019909381866455078125">
        <ele>609.4000244140625</ele>
        <time>2021-09-27T07:44:41.000Z</time>
      </trkpt>
      <trkpt lat="39.94674579240381717681884765625" lon="-0.5636943876743316650390625">
        <ele>608.4000244140625</ele>
        <time>2021-09-27T07:44:43.000Z</time>
      </trkpt>
      <trkpt lat="39.94665258564054965972900390625" lon="-0.5635238997638225555419921875">
        <ele>607.4000244140625</ele>
        <time>2021-09-27T07:44:45.000Z</time>
      </trkpt>
      <trkpt lat="39.9466040544211864471435546875" lon="-0.56343345902860164642333984375">
        <ele>607</ele>
        <time>2021-09-27T07:44:46.000Z</time>
      </trkpt>
      <trkpt lat="39.94655552320182323455810546875" lon="-0.56334972381591796875">
        <ele>607</ele>
        <time>2021-09-27T07:44:47.000Z</time>
      </trkpt>
      <trkpt lat="39.94645259343087673187255859375" lon="-0.563190467655658721923828125">
        <ele>607</ele>
        <time>2021-09-27T07:44:49.000Z</time>
      </trkpt>
      <trkpt lat="39.94633541442453861236572265625" lon="-0.56304537691175937652587890625">
        <ele>607</ele>
        <time>2021-09-27T07:44:51.000Z</time>
      </trkpt>
      <trkpt lat="39.946200884878635406494140625" lon="-0.56291059590876102447509765625">
        <ele>606.20001220703125</ele>
        <time>2021-09-27T07:44:53.000Z</time>
      </trkpt>
      <trkpt lat="39.94606836698949337005615234375" lon="-0.56278520263731479644775390625">
        <ele>604.5999755859375</ele>
        <time>2021-09-27T07:44:55.000Z</time>
      </trkpt>
      <trkpt lat="39.9459331668913364410400390625" lon="-0.56268193759024143218994140625">
        <ele>603.20001220703125</ele>
        <time>2021-09-27T07:44:57.000Z</time>
      </trkpt>
      <trkpt lat="39.945795536041259765625" lon="-0.562597699463367462158203125">
        <ele>601.79998779296875</ele>
        <time>2021-09-27T07:44:59.000Z</time>
      </trkpt>
      <trkpt lat="39.945654384791851043701171875" lon="-0.562537349760532379150390625">
        <ele>601</ele>
        <time>2021-09-27T07:45:01.000Z</time>
      </trkpt>
      <trkpt lat="39.94558204896748065948486328125" lon="-0.5625140480697154998779296875">
        <ele>600.4000244140625</ele>
        <time>2021-09-27T07:45:02.000Z</time>
      </trkpt>
      <trkpt lat="39.94550711475312709808349609375" lon="-0.56249535642564296722412109375">
        <ele>600</ele>
        <time>2021-09-27T07:45:03.000Z</time>
      </trkpt>
      <trkpt lat="39.94535188190639019012451171875" lon="-0.56246853433549404144287109375">
        <ele>599.20001220703125</ele>
        <time>2021-09-27T07:45:05.000Z</time>
      </trkpt>
      <trkpt lat="39.9451915360987186431884765625" lon="-0.56244623847305774688720703125">
        <ele>598.20001220703125</ele>
        <time>2021-09-27T07:45:07.000Z</time>
      </trkpt>
      <trkpt lat="39.94510956108570098876953125" lon="-0.56243550963699817657470703125">
        <ele>598</ele>
        <time>2021-09-27T07:45:08.000Z</time>
      </trkpt>
      <trkpt lat="39.94502549059689044952392578125" lon="-0.56242578662931919097900390625">
        <ele>597.5999755859375</ele>
        <time>2021-09-27T07:45:09.000Z</time>
      </trkpt>
      <trkpt lat="39.94484947063028812408447265625" lon="-0.5623943544924259185791015625">
        <ele>597.20001220703125</ele>
        <time>2021-09-27T07:45:11.000Z</time>
      </trkpt>
      <trkpt lat="39.94466456584632396697998046875" lon="-0.562360994517803192138671875">
        <ele>596.5999755859375</ele>
        <time>2021-09-27T07:45:13.000Z</time>
      </trkpt>
      <trkpt lat="39.94456850923597812652587890625" lon="-0.56234381161630153656005859375">
        <ele>596.4000244140625</ele>
        <time>2021-09-27T07:45:14.000Z</time>
      </trkpt>
      <trkpt lat="39.9444706924259662628173828125" lon="-0.562327802181243896484375">
        <ele>596.20001220703125</ele>
        <time>2021-09-27T07:45:15.000Z</time>
      </trkpt>
      <trkpt lat="39.94437203742563724517822265625" lon="-0.56231279857456684112548828125">
        <ele>595.79998779296875</ele>
        <time>2021-09-27T07:45:16.000Z</time>
      </trkpt>
      <trkpt lat="39.94427363388240337371826171875" lon="-0.56230039335787296295166015625">
        <ele>595.4000244140625</ele>
        <time>2021-09-27T07:45:17.000Z</time>
      </trkpt>
      <trkpt lat="39.9441736377775669097900390625" lon="-0.5622850544750690460205078125">
        <ele>594.79998779296875</ele>
        <time>2021-09-27T07:45:18.000Z</time>
      </trkpt>
      <trkpt lat="39.94407313875854015350341796875" lon="-0.56226971559226512908935546875">
        <ele>594.20001220703125</ele>
        <time>2021-09-27T07:45:19.000Z</time>
      </trkpt>
      <trkpt lat="39.94386769831180572509765625" lon="-0.562243647873401641845703125">
        <ele>593</ele>
        <time>2021-09-27T07:45:21.000Z</time>
      </trkpt>
      <trkpt lat="39.94366225786507129669189453125" lon="-0.56220819242298603057861328125">
        <ele>592.20001220703125</ele>
        <time>2021-09-27T07:45:23.000Z</time>
      </trkpt>
      <trkpt lat="39.94345589540898799896240234375" lon="-0.56217248551547527313232421875">
        <ele>591.5999755859375</ele>
        <time>2021-09-27T07:45:25.000Z</time>
      </trkpt>
      <trkpt lat="39.9432526342570781707763671875" lon="-0.5621408857405185699462890625">
        <ele>591.4000244140625</ele>
        <time>2021-09-27T07:45:27.000Z</time>
      </trkpt>
      <trkpt lat="39.9431507103145122528076171875" lon="-0.5621231161057949066162109375">
        <ele>591.20001220703125</ele>
        <time>2021-09-27T07:45:28.000Z</time>
      </trkpt>
      <trkpt lat="39.9430497922003269195556640625" lon="-0.5621006526052951812744140625">
        <ele>591.20001220703125</ele>
        <time>2021-09-27T07:45:29.000Z</time>
      </trkpt>
      <trkpt lat="39.9428529851138591766357421875" lon="-0.56203636340796947479248046875">
        <ele>590.5999755859375</ele>
        <time>2021-09-27T07:45:31.000Z</time>
      </trkpt>
      <trkpt lat="39.9427570961415767669677734375" lon="-0.56199344806373119354248046875">
        <ele>590.79998779296875</ele>
        <time>2021-09-27T07:45:32.000Z</time>
      </trkpt>
      <trkpt lat="39.9426612071692943572998046875" lon="-0.56194148026406764984130859375">
        <ele>591</ele>
        <time>2021-09-27T07:45:33.000Z</time>
      </trkpt>
      <trkpt lat="39.94247755967080593109130859375" lon="-0.561812482774257659912109375">
        <ele>591.4000244140625</ele>
        <time>2021-09-27T07:45:35.000Z</time>
      </trkpt>
      <trkpt lat="39.9423899687826633453369140625" lon="-0.56173838675022125244140625">
        <ele>591.20001220703125</ele>
        <time>2021-09-27T07:45:36.000Z</time>
      </trkpt>
      <trkpt lat="39.94230472482740879058837890625" lon="-0.56165649555623531341552734375">
        <ele>591</ele>
        <time>2021-09-27T07:45:37.000Z</time>
      </trkpt>
      <trkpt lat="39.94214228354394435882568359375" lon="-0.56147695519030094146728515625">
        <ele>590.5999755859375</ele>
        <time>2021-09-27T07:45:39.000Z</time>
      </trkpt>
      <trkpt lat="39.94199174456298351287841796875" lon="-0.5612790584564208984375">
        <ele>590</ele>
        <time>2021-09-27T07:45:41.000Z</time>
      </trkpt>
      <trkpt lat="39.9418424628674983978271484375" lon="-0.5610847659409046173095703125">
        <ele>589.4000244140625</ele>
        <time>2021-09-27T07:45:43.000Z</time>
      </trkpt>
      <trkpt lat="39.94169552810490131378173828125" lon="-0.56089038960635662078857421875">
        <ele>589</ele>
        <time>2021-09-27T07:45:45.000Z</time>
      </trkpt>
      <trkpt lat="39.941549263894557952880859375" lon="-0.56068830192089080810546875">
        <ele>589.5999755859375</ele>
        <time>2021-09-27T07:45:47.000Z</time>
      </trkpt>
      <trkpt lat="39.94140048511326313018798828125" lon="-0.560496188700199127197265625">
        <ele>590.20001220703125</ele>
        <time>2021-09-27T07:45:49.000Z</time>
      </trkpt>
      <trkpt lat="39.94125497527420520782470703125" lon="-0.5602982081472873687744140625">
        <ele>590.5999755859375</ele>
        <time>2021-09-27T07:45:51.000Z</time>
      </trkpt>
      <trkpt lat="39.941108040511608123779296875" lon="-0.5601000599563121795654296875">
        <ele>591</ele>
        <time>2021-09-27T07:45:53.000Z</time>
      </trkpt>
      <trkpt lat="39.94095892645418643951416015625" lon="-0.55990937165915966033935546875">
        <ele>591.5999755859375</ele>
        <time>2021-09-27T07:45:55.000Z</time>
      </trkpt>
      <trkpt lat="39.940811656415462493896484375" lon="-0.55972136557102203369140625">
        <ele>592.79998779296875</ele>
        <time>2021-09-27T07:45:57.000Z</time>
      </trkpt>
      <trkpt lat="39.94066002778708934783935546875" lon="-0.55953553877770900726318359375">
        <ele>592.5999755859375</ele>
        <time>2021-09-27T07:45:59.000Z</time>
      </trkpt>
      <trkpt lat="39.94058358483016490936279296875" lon="-0.5594459362328052520751953125">
        <ele>592.4000244140625</ele>
        <time>2021-09-27T07:46:00.000Z</time>
      </trkpt>
      <trkpt lat="39.94050563313066959381103515625" lon="-0.5593564175069332122802734375">
        <ele>592</ele>
        <time>2021-09-27T07:46:01.000Z</time>
      </trkpt>
      <trkpt lat="39.94035006500780582427978515625" lon="-0.55917846970260143280029296875">
        <ele>590.5999755859375</ele>
        <time>2021-09-27T07:46:03.000Z</time>
      </trkpt>
      <trkpt lat="39.94019164703786373138427734375" lon="-0.559007227420806884765625">
        <ele>588.20001220703125</ele>
        <time>2021-09-27T07:46:05.000Z</time>
      </trkpt>
      <trkpt lat="39.94003138504922389984130859375" lon="-0.5588476359844207763671875">
        <ele>587.79998779296875</ele>
        <time>2021-09-27T07:46:07.000Z</time>
      </trkpt>
      <trkpt lat="39.9398653395473957061767578125" lon="-0.558687709271907806396484375">
        <ele>586.20001220703125</ele>
        <time>2021-09-27T07:46:09.000Z</time>
      </trkpt>
      <trkpt lat="39.9397003836929798126220703125" lon="-0.55853582918643951416015625">
        <ele>586.20001220703125</ele>
        <time>2021-09-27T07:46:11.000Z</time>
      </trkpt>
      <trkpt lat="39.93953333236277103424072265625" lon="-0.5583867989480495452880859375">
        <ele>586.5999755859375</ele>
        <time>2021-09-27T07:46:13.000Z</time>
      </trkpt>
      <trkpt lat="39.939446412026882171630859375" lon="-0.55831815116107463836669921875">
        <ele>585.5999755859375</ele>
        <time>2021-09-27T07:46:14.000Z</time>
      </trkpt>
      <trkpt lat="39.9393590725958347320556640625" lon="-0.55824958719313144683837890625">
        <ele>584.79998779296875</ele>
        <time>2021-09-27T07:46:15.000Z</time>
      </trkpt>
      <trkpt lat="39.93918833322823047637939453125" lon="-0.5581112019717693328857421875">
        <ele>585</ele>
        <time>2021-09-27T07:46:17.000Z</time>
      </trkpt>
      <trkpt lat="39.93901717476546764373779296875" lon="-0.55797382257878780364990234375">
        <ele>585</ele>
        <time>2021-09-27T07:46:19.000Z</time>
      </trkpt>
      <trkpt lat="39.93884249590337276458740234375" lon="-0.5578490160405635833740234375">
        <ele>584.4000244140625</ele>
        <time>2021-09-27T07:46:21.000Z</time>
      </trkpt>
      <trkpt lat="39.9386714212596416473388671875" lon="-0.55771951563656330108642578125">
        <ele>583.79998779296875</ele>
        <time>2021-09-27T07:46:23.000Z</time>
      </trkpt>
      <trkpt lat="39.938501603901386260986328125" lon="-0.55757962167263031005859375">
        <ele>582.5999755859375</ele>
        <time>2021-09-27T07:46:25.000Z</time>
      </trkpt>
      <trkpt lat="39.93832918815314769744873046875" lon="-0.5574416555464267730712890625">
        <ele>581.20001220703125</ele>
        <time>2021-09-27T07:46:27.000Z</time>
      </trkpt>
      <trkpt lat="39.938240759074687957763671875" lon="-0.5573756061494350433349609375">
        <ele>580.4000244140625</ele>
        <time>2021-09-27T07:46:28.000Z</time>
      </trkpt>
      <trkpt lat="39.93815585039556026458740234375" lon="-0.55730964057147502899169921875">
        <ele>579.79998779296875</ele>
        <time>2021-09-27T07:46:29.000Z</time>
      </trkpt>
      <trkpt lat="39.93799307383596897125244140625" lon="-0.55716983042657375335693359375">
        <ele>578.20001220703125</ele>
        <time>2021-09-27T07:46:31.000Z</time>
      </trkpt>
      <trkpt lat="39.9378298781812191009521484375" lon="-0.557034127414226531982421875">
        <ele>578</ele>
        <time>2021-09-27T07:46:33.000Z</time>
      </trkpt>
      <trkpt lat="39.93774731643497943878173828125" lon="-0.5569648928940296173095703125">
        <ele>578.20001220703125</ele>
        <time>2021-09-27T07:46:34.000Z</time>
      </trkpt>
      <trkpt lat="39.9376632459461688995361328125" lon="-0.5568975023925304412841796875">
        <ele>578.20001220703125</ele>
        <time>2021-09-27T07:46:35.000Z</time>
      </trkpt>
      <trkpt lat="39.9375009723007678985595703125" lon="-0.55676045827567577362060546875">
        <ele>578.4000244140625</ele>
        <time>2021-09-27T07:46:37.000Z</time>
      </trkpt>
      <trkpt lat="39.93734381161630153656005859375" lon="-0.55661536753177642822265625">
        <ele>577</ele>
        <time>2021-09-27T07:46:39.000Z</time>
      </trkpt>
      <trkpt lat="39.937269128859043121337890625" lon="-0.5565390922129154205322265625">
        <ele>576.20001220703125</ele>
        <time>2021-09-27T07:46:40.000Z</time>
      </trkpt>
      <trkpt lat="39.9371962063014507293701171875" lon="-0.5564582906663417816162109375">
        <ele>575.20001220703125</ele>
        <time>2021-09-27T07:46:41.000Z</time>
      </trkpt>
      <trkpt lat="39.937054552137851715087890625" lon="-0.5562943406403064727783203125">
        <ele>574.20001220703125</ele>
        <time>2021-09-27T07:46:43.000Z</time>
      </trkpt>
      <trkpt lat="39.9369155801832675933837890625" lon="-0.55612661875784397125244140625">
        <ele>576.20001220703125</ele>
        <time>2021-09-27T07:46:45.000Z</time>
      </trkpt>
      <trkpt lat="39.93678306229412555694580078125" lon="-0.555953867733478546142578125">
        <ele>578.20001220703125</ele>
        <time>2021-09-27T07:46:47.000Z</time>
      </trkpt>
      <trkpt lat="39.93671902455389499664306640625" lon="-0.5558665283024311065673828125">
        <ele>579</ele>
        <time>2021-09-27T07:46:48.000Z</time>
      </trkpt>
      <trkpt lat="39.9366587586700916290283203125" lon="-0.55577944032847881317138671875">
        <ele>579.4000244140625</ele>
        <time>2021-09-27T07:46:49.000Z</time>
      </trkpt>
      <trkpt lat="39.93654065765440464019775390625" lon="-0.55560425855219364166259765625">
        <ele>580</ele>
        <time>2021-09-27T07:46:51.000Z</time>
      </trkpt>
      <trkpt lat="39.9364307709038257598876953125" lon="-0.5554293282330036163330078125">
        <ele>580.4000244140625</ele>
        <time>2021-09-27T07:46:53.000Z</time>
      </trkpt>
      <trkpt lat="39.9363268353044986724853515625" lon="-0.55525121279060840606689453125">
        <ele>579.5999755859375</ele>
        <time>2021-09-27T07:46:55.000Z</time>
      </trkpt>
      <trkpt lat="39.936229102313518524169921875" lon="-0.5550739355385303497314453125">
        <ele>578.4000244140625</ele>
        <time>2021-09-27T07:46:57.000Z</time>
      </trkpt>
      <trkpt lat="39.93613916449248790740966796875" lon="-0.5548922158777713775634765625">
        <ele>578</ele>
        <time>2021-09-27T07:46:59.000Z</time>
      </trkpt>
      <trkpt lat="39.9360535852611064910888671875" lon="-0.554699935019016265869140625">
        <ele>577.20001220703125</ele>
        <time>2021-09-27T07:47:01.000Z</time>
      </trkpt>
      <trkpt lat="39.93595920503139495849609375" lon="-0.5545043013989925384521484375">
        <ele>576.5999755859375</ele>
        <time>2021-09-27T07:47:03.000Z</time>
      </trkpt>
      <trkpt lat="39.935868680477142333984375" lon="-0.5543054826557636260986328125">
        <ele>575.79998779296875</ele>
        <time>2021-09-27T07:47:05.000Z</time>
      </trkpt>
      <trkpt lat="39.93577572517096996307373046875" lon="-0.554102472960948944091796875">
        <ele>574</ele>
        <time>2021-09-27T07:47:07.000Z</time>
      </trkpt>
      <trkpt lat="39.93572962470352649688720703125" lon="-0.5540013872087001800537109375">
        <ele>573</ele>
        <time>2021-09-27T07:47:08.000Z</time>
      </trkpt>
      <trkpt lat="39.935685284435749053955078125" lon="-0.5538964457809925079345703125">
        <ele>571.79998779296875</ele>
        <time>2021-09-27T07:47:09.000Z</time>
      </trkpt>
      <trkpt lat="39.935591407120227813720703125" lon="-0.55368916131556034088134765625">
        <ele>570.4000244140625</ele>
        <time>2021-09-27T07:47:11.000Z</time>
      </trkpt>
      <trkpt lat="39.93549744598567485809326171875" lon="-0.55348078720271587371826171875">
        <ele>569.20001220703125</ele>
        <time>2021-09-27T07:47:13.000Z</time>
      </trkpt>
      <trkpt lat="39.93540465831756591796875" lon="-0.55327476002275943756103515625">
        <ele>567.79998779296875</ele>
        <time>2021-09-27T07:47:15.000Z</time>
      </trkpt>
      <trkpt lat="39.93530935607850551605224609375" lon="-0.55306948721408843994140625">
        <ele>566.5999755859375</ele>
        <time>2021-09-27T07:47:17.000Z</time>
      </trkpt>
      <trkpt lat="39.9352155625820159912109375" lon="-0.55286320857703685760498046875">
        <ele>566.5999755859375</ele>
        <time>2021-09-27T07:47:19.000Z</time>
      </trkpt>
      <trkpt lat="39.93512160144746303558349609375" lon="-0.55265299044549465179443359375">
        <ele>566.79998779296875</ele>
        <time>2021-09-27T07:47:21.000Z</time>
      </trkpt>
      <trkpt lat="39.93502688594162464141845703125" lon="-0.552439503371715545654296875">
        <ele>567.20001220703125</ele>
        <time>2021-09-27T07:47:23.000Z</time>
      </trkpt>
      <trkpt lat="39.93493736721575260162353515625" lon="-0.5522230826318264007568359375">
        <ele>567.79998779296875</ele>
        <time>2021-09-27T07:47:25.000Z</time>
      </trkpt>
      <trkpt lat="39.93489160202443599700927734375" lon="-0.5521126091480255126953125">
        <ele>567.79998779296875</ele>
        <time>2021-09-27T07:47:26.000Z</time>
      </trkpt>
      <trkpt lat="39.93484717793762683868408203125" lon="-0.5520024709403514862060546875">
        <ele>567.79998779296875</ele>
        <time>2021-09-27T07:47:27.000Z</time>
      </trkpt>
      <trkpt lat="39.934767298400402069091796875" lon="-0.5517858825623989105224609375">
        <ele>568.4000244140625</ele>
        <time>2021-09-27T07:47:29.000Z</time>
      </trkpt>
      <trkpt lat="39.9347007460892200469970703125" lon="-0.55156317539513111114501953125">
        <ele>569.20001220703125</ele>
        <time>2021-09-27T07:47:31.000Z</time>
      </trkpt>
      <trkpt lat="39.93466629646718502044677734375" lon="-0.55145069025456905364990234375">
        <ele>569.5999755859375</ele>
        <time>2021-09-27T07:47:32.000Z</time>
      </trkpt>
      <trkpt lat="39.93463310413062572479248046875" lon="-0.551336444914340972900390625">
        <ele>570</ele>
        <time>2021-09-27T07:47:33.000Z</time>
      </trkpt>
      <trkpt lat="39.934566803276538848876953125" lon="-0.551105774939060211181640625">
        <ele>570.79998779296875</ele>
        <time>2021-09-27T07:47:35.000Z</time>
      </trkpt>
      <trkpt lat="39.93450754322111606597900390625" lon="-0.5508734285831451416015625">
        <ele>571.5999755859375</ele>
        <time>2021-09-27T07:47:37.000Z</time>
      </trkpt>
      <trkpt lat="39.934446774423122406005859375" lon="-0.550645776093006134033203125">
        <ele>572.5999755859375</ele>
        <time>2021-09-27T07:47:39.000Z</time>
      </trkpt>
      <trkpt lat="39.9343869276344776153564453125" lon="-0.5504156090319156646728515625">
        <ele>573.4000244140625</ele>
        <time>2021-09-27T07:47:41.000Z</time>
      </trkpt>
      <trkpt lat="39.93432976305484771728515625" lon="-0.55018804036080837249755859375">
        <ele>573</ele>
        <time>2021-09-27T07:47:43.000Z</time>
      </trkpt>
      <trkpt lat="39.9342692457139492034912109375" lon="-0.54996038787066936492919921875">
        <ele>572.5999755859375</ele>
        <time>2021-09-27T07:47:45.000Z</time>
      </trkpt>
      <trkpt lat="39.93420713581144809722900390625" lon="-0.5497346632182598114013671875">
        <ele>571.20001220703125</ele>
        <time>2021-09-27T07:47:47.000Z</time>
      </trkpt>
      <trkpt lat="39.9341748654842376708984375" lon="-0.549621842801570892333984375">
        <ele>570.79998779296875</ele>
        <time>2021-09-27T07:47:48.000Z</time>
      </trkpt>
      <trkpt lat="39.9341398291289806365966796875" lon="-0.549509190022945404052734375">
        <ele>570.79998779296875</ele>
        <time>2021-09-27T07:47:49.000Z</time>
      </trkpt>
      <trkpt lat="39.9340593628585338592529296875" lon="-0.5492910929024219512939453125">
        <ele>570.20001220703125</ele>
        <time>2021-09-27T07:47:51.000Z</time>
      </trkpt>
      <trkpt lat="39.93396171368658542633056640625" lon="-0.54908079095184803009033203125">
        <ele>567.4000244140625</ele>
        <time>2021-09-27T07:47:53.000Z</time>
      </trkpt>
      <trkpt lat="39.93384964764118194580078125" lon="-0.54887895472347736358642578125">
        <ele>564.79998779296875</ele>
        <time>2021-09-27T07:47:55.000Z</time>
      </trkpt>
      <trkpt lat="39.93372433818876743316650390625" lon="-0.54868751205503940582275390625">
        <ele>563.4000244140625</ele>
        <time>2021-09-27T07:47:57.000Z</time>
      </trkpt>
      <trkpt lat="39.93365594185888767242431640625" lon="-0.54859614931046962738037109375">
        <ele>563.20001220703125</ele>
        <time>2021-09-27T07:47:58.000Z</time>
      </trkpt>
      <trkpt lat="39.93358570151031017303466796875" lon="-0.54850839078426361083984375">
        <ele>563.20001220703125</ele>
        <time>2021-09-27T07:47:59.000Z</time>
      </trkpt>
      <trkpt lat="39.93351361714303493499755859375" lon="-0.548426918685436248779296875">
        <ele>563.20001220703125</ele>
        <time>2021-09-27T07:48:00.000Z</time>
      </trkpt>
      <trkpt lat="39.93343801237642765045166015625" lon="-0.54834921844303607940673828125">
        <ele>563.4000244140625</ele>
        <time>2021-09-27T07:48:01.000Z</time>
      </trkpt>
      <trkpt lat="39.93328034877777099609375" lon="-0.5482113361358642578125">
        <ele>562</ele>
        <time>2021-09-27T07:48:03.000Z</time>
      </trkpt>
      <trkpt lat="39.93311338126659393310546875" lon="-0.54808250628411769866943359375">
        <ele>560.20001220703125</ele>
        <time>2021-09-27T07:48:05.000Z</time>
      </trkpt>
      <trkpt lat="39.93294314481317996978759765625" lon="-0.54796096868813037872314453125">
        <ele>559.20001220703125</ele>
        <time>2021-09-27T07:48:07.000Z</time>
      </trkpt>
      <trkpt lat="39.93277114816009998321533203125" lon="-0.54784010164439678192138671875">
        <ele>559.4000244140625</ele>
        <time>2021-09-27T07:48:09.000Z</time>
      </trkpt>
      <trkpt lat="39.93259982205927371978759765625" lon="-0.54771621711552143096923828125">
        <ele>559.4000244140625</ele>
        <time>2021-09-27T07:48:11.000Z</time>
      </trkpt>
      <trkpt lat="39.93243017233908176422119140625" lon="-0.5475922487676143646240234375">
        <ele>559</ele>
        <time>2021-09-27T07:48:13.000Z</time>
      </trkpt>
      <trkpt lat="39.93225800804793834686279296875" lon="-0.54747574031352996826171875">
        <ele>557.79998779296875</ele>
        <time>2021-09-27T07:48:15.000Z</time>
      </trkpt>
      <trkpt lat="39.93208131752908229827880859375" lon="-0.547382198274135589599609375">
        <ele>556.79998779296875</ele>
        <time>2021-09-27T07:48:17.000Z</time>
      </trkpt>
      <trkpt lat="39.9319915473461151123046875" lon="-0.5473428033292293548583984375">
        <ele>556.4000244140625</ele>
        <time>2021-09-27T07:48:18.000Z</time>
      </trkpt>
      <trkpt lat="39.93190060369670391082763671875" lon="-0.54730667732656002044677734375">
        <ele>556</ele>
        <time>2021-09-27T07:48:19.000Z</time>
      </trkpt>
      <trkpt lat="39.931716620922088623046875" lon="-0.54724641144275665283203125">
        <ele>555.4000244140625</ele>
        <time>2021-09-27T07:48:21.000Z</time>
      </trkpt>
      <trkpt lat="39.93152610026299953460693359375" lon="-0.5472148954868316650390625">
        <ele>555.20001220703125</ele>
        <time>2021-09-27T07:48:23.000Z</time>
      </trkpt>
      <trkpt lat="39.93133566342294216156005859375" lon="-0.547203831374645233154296875">
        <ele>555.20001220703125</ele>
        <time>2021-09-27T07:48:25.000Z</time>
      </trkpt>
      <trkpt lat="39.9311466515064239501953125" lon="-0.5472063459455966949462890625">
        <ele>554.20001220703125</ele>
        <time>2021-09-27T07:48:27.000Z</time>
      </trkpt>
      <trkpt lat="39.93095881305634975433349609375" lon="-0.54722839035093784332275390625">
        <ele>552.5999755859375</ele>
        <time>2021-09-27T07:48:29.000Z</time>
      </trkpt>
      <trkpt lat="39.93078514002263545989990234375" lon="-0.54727717302739620208740234375">
        <ele>551.20001220703125</ele>
        <time>2021-09-27T07:48:31.000Z</time>
      </trkpt>
      <trkpt lat="39.9306345172226428985595703125" lon="-0.54733048193156719207763671875">
        <ele>550</ele>
        <time>2021-09-27T07:48:33.000Z</time>
      </trkpt>
      <trkpt lat="39.93048808537423610687255859375" lon="-0.54739669896662235260009765625">
        <ele>548.79998779296875</ele>
        <time>2021-09-27T07:48:35.000Z</time>
      </trkpt>
      <trkpt lat="39.9303500354290008544921875" lon="-0.54747280664741992950439453125">
        <ele>547.5999755859375</ele>
        <time>2021-09-27T07:48:37.000Z</time>
      </trkpt>
      <trkpt lat="39.9302174337208271026611328125" lon="-0.5475557036697864532470703125">
        <ele>545.5999755859375</ele>
        <time>2021-09-27T07:48:39.000Z</time>
      </trkpt>
      <trkpt lat="39.93009849451482295989990234375" lon="-0.5476468987762928009033203125">
        <ele>544.20001220703125</ele>
        <time>2021-09-27T07:48:41.000Z</time>
      </trkpt>
      <trkpt lat="39.92998802103102207183837890625" lon="-0.5477461405098438262939453125">
        <ele>542.79998779296875</ele>
        <time>2021-09-27T07:48:43.000Z</time>
      </trkpt>
      <trkpt lat="39.92988592945039272308349609375" lon="-0.54784915409982204437255859375">
        <ele>541.5999755859375</ele>
        <time>2021-09-27T07:48:45.000Z</time>
      </trkpt>
      <trkpt lat="39.92977696470916271209716796875" lon="-0.54796884767711162567138671875">
        <ele>540.20001220703125</ele>
        <time>2021-09-27T07:48:47.000Z</time>
      </trkpt>
      <trkpt lat="39.9297218956053256988525390625" lon="-0.54803305305540561676025390625">
        <ele>539.79998779296875</ele>
        <time>2021-09-27T07:48:48.000Z</time>
      </trkpt>
      <trkpt lat="39.929667077958583831787109375" lon="-0.54810211993753910064697265625">
        <ele>539.20001220703125</ele>
        <time>2021-09-27T07:48:49.000Z</time>
      </trkpt>
      <trkpt lat="39.9296162836253643035888671875" lon="-0.5481751263141632080078125">
        <ele>539</ele>
        <time>2021-09-27T07:48:50.000Z</time>
      </trkpt>
      <trkpt lat="39.92956859059631824493408203125" lon="-0.54824863560497760772705078125">
        <ele>538.5999755859375</ele>
        <time>2021-09-27T07:48:51.000Z</time>
      </trkpt>
      <trkpt lat="39.929520227015018463134765625" lon="-0.54832474328577518463134765625">
        <ele>538.5999755859375</ele>
        <time>2021-09-27T07:48:52.000Z</time>
      </trkpt>
      <trkpt lat="39.92947387509047985076904296875" lon="-0.54840185679495334625244140625">
        <ele>538.4000244140625</ele>
        <time>2021-09-27T07:48:53.000Z</time>
      </trkpt>
      <trkpt lat="39.92938385345041751861572265625" lon="-0.54855876602232456207275390625">
        <ele>538.20001220703125</ele>
        <time>2021-09-27T07:48:55.000Z</time>
      </trkpt>
      <trkpt lat="39.92933892644941806793212890625" lon="-0.54863688535988330841064453125">
        <ele>538.20001220703125</ele>
        <time>2021-09-27T07:48:56.000Z</time>
      </trkpt>
      <trkpt lat="39.9292954243719577789306640625" lon="-0.548712573945522308349609375">
        <ele>538</ele>
        <time>2021-09-27T07:48:57.000Z</time>
      </trkpt>
      <trkpt lat="39.92920950986444950103759765625" lon="-0.54885632358491420745849609375">
        <ele>537.79998779296875</ele>
        <time>2021-09-27T07:48:59.000Z</time>
      </trkpt>
      <trkpt lat="39.92912099696695804595947265625" lon="-0.5490128137171268463134765625">
        <ele>537.4000244140625</ele>
        <time>2021-09-27T07:49:01.000Z</time>
      </trkpt>
      <trkpt lat="39.92903047241270542144775390625" lon="-0.549175255000591278076171875">
        <ele>536.79998779296875</ele>
        <time>2021-09-27T07:49:03.000Z</time>
      </trkpt>
      <trkpt lat="39.9289879761636257171630859375" lon="-0.54926217533648014068603515625">
        <ele>536.5999755859375</ele>
        <time>2021-09-27T07:49:04.000Z</time>
      </trkpt>
      <trkpt lat="39.92894832976162433624267578125" lon="-0.54935337044298648834228515625">
        <ele>536.4000244140625</ele>
        <time>2021-09-27T07:49:05.000Z</time>
      </trkpt>
      <trkpt lat="39.92887741886079311370849609375" lon="-0.549535341560840606689453125">
        <ele>536.4000244140625</ele>
        <time>2021-09-27T07:49:07.000Z</time>
      </trkpt>
      <trkpt lat="39.92881690151989459991455078125" lon="-0.54972385056316852569580078125">
        <ele>536</ele>
        <time>2021-09-27T07:49:09.000Z</time>
      </trkpt>
      <trkpt lat="39.928764514625072479248046875" lon="-0.5499167181551456451416015625">
        <ele>536.20001220703125</ele>
        <time>2021-09-27T07:49:11.000Z</time>
      </trkpt>
      <trkpt lat="39.9287204258143901824951171875" lon="-0.55010832846164703369140625">
        <ele>536.4000244140625</ele>
        <time>2021-09-27T07:49:13.000Z</time>
      </trkpt>
      <trkpt lat="39.928682707250118255615234375" lon="-0.5502915568649768829345703125">
        <ele>536.79998779296875</ele>
        <time>2021-09-27T07:49:15.000Z</time>
      </trkpt>
      <trkpt lat="39.92865043692290782928466796875" lon="-0.55047838948667049407958984375">
        <ele>537.20001220703125</ele>
        <time>2021-09-27T07:49:17.000Z</time>
      </trkpt>
      <trkpt lat="39.92863585241138935089111328125" lon="-0.55057100951671600341796875">
        <ele>537.20001220703125</ele>
        <time>2021-09-27T07:49:18.000Z</time>
      </trkpt>
      <trkpt lat="39.92862227372825145721435546875" lon="-0.5506647191941738128662109375">
        <ele>537</ele>
        <time>2021-09-27T07:49:19.000Z</time>
      </trkpt>
      <trkpt lat="39.92860048078000545501708984375" lon="-0.55085205473005771636962890625">
        <ele>536.5999755859375</ele>
        <time>2021-09-27T07:49:21.000Z</time>
      </trkpt>
      <trkpt lat="39.9285906739532947540283203125" lon="-0.551041401922702789306640625">
        <ele>536.20001220703125</ele>
        <time>2021-09-27T07:49:23.000Z</time>
      </trkpt>
      <trkpt lat="39.92858505807816982269287109375" lon="-0.5512289889156818389892578125">
        <ele>536</ele>
        <time>2021-09-27T07:49:25.000Z</time>
      </trkpt>
      <trkpt lat="39.92858388461172580718994140625" lon="-0.55142705328762531280517578125">
        <ele>535.79998779296875</ele>
        <time>2021-09-27T07:49:27.000Z</time>
      </trkpt>
      <trkpt lat="39.9285886622965335845947265625" lon="-0.55163182318210601806640625">
        <ele>536</ele>
        <time>2021-09-27T07:49:29.000Z</time>
      </trkpt>
      <trkpt lat="39.928592182695865631103515625" lon="-0.55183759890496730804443359375">
        <ele>536</ele>
        <time>2021-09-27T07:49:31.000Z</time>
      </trkpt>
      <trkpt lat="39.92859746329486370086669921875" lon="-0.5520400218665599822998046875">
        <ele>536</ele>
        <time>2021-09-27T07:49:33.000Z</time>
      </trkpt>
      <trkpt lat="39.92860282771289348602294921875" lon="-0.55213817395269870758056640625">
        <ele>536</ele>
        <time>2021-09-27T07:49:34.000Z</time>
      </trkpt>
      <trkpt lat="39.92860517464578151702880859375" lon="-0.5522364936769008636474609375">
        <ele>535.79998779296875</ele>
        <time>2021-09-27T07:49:35.000Z</time>
      </trkpt>
      <trkpt lat="39.928604252636432647705078125" lon="-0.5523364059627056121826171875">
        <ele>535.5999755859375</ele>
        <time>2021-09-27T07:49:36.000Z</time>
      </trkpt>
      <trkpt lat="39.92860685102641582489013671875" lon="-0.5524306185543537139892578125">
        <ele>535.20001220703125</ele>
        <time>2021-09-27T07:49:37.000Z</time>
      </trkpt>
      <trkpt lat="39.92861238308250904083251953125" lon="-0.55260839872062206268310546875">
        <ele>534.5999755859375</ele>
        <time>2021-09-27T07:49:39.000Z</time>
      </trkpt>
      <trkpt lat="39.92860718630254268646240234375" lon="-0.552785508334636688232421875">
        <ele>534</ele>
        <time>2021-09-27T07:49:41.000Z</time>
      </trkpt>
      <trkpt lat="39.92860718630254268646240234375" lon="-0.55287410505115985870361328125">
        <ele>533.5999755859375</ele>
        <time>2021-09-27T07:49:42.000Z</time>
      </trkpt>
      <trkpt lat="39.9286084435880184173583984375" lon="-0.55296412669122219085693359375">
        <ele>533.4000244140625</ele>
        <time>2021-09-27T07:49:43.000Z</time>
      </trkpt>
      <trkpt lat="39.928610287606716156005859375" lon="-0.553051717579364776611328125">
        <ele>533</ele>
        <time>2021-09-27T07:49:44.000Z</time>
      </trkpt>
      <trkpt lat="39.92860986851155757904052734375" lon="-0.55313922464847564697265625">
        <ele>532.4000244140625</ele>
        <time>2021-09-27T07:49:45.000Z</time>
      </trkpt>
      <trkpt lat="39.9286065995693206787109375" lon="-0.55331314913928508758544921875">
        <ele>532</ele>
        <time>2021-09-27T07:49:47.000Z</time>
      </trkpt>
      <trkpt lat="39.928607605397701263427734375" lon="-0.55340317077934741973876953125">
        <ele>531.79998779296875</ele>
        <time>2021-09-27T07:49:48.000Z</time>
      </trkpt>
      <trkpt lat="39.92860861122608184814453125" lon="-0.55349453352391719818115234375">
        <ele>531.5999755859375</ele>
        <time>2021-09-27T07:49:49.000Z</time>
      </trkpt>
      <trkpt lat="39.9286084435880184173583984375" lon="-0.55367843247950077056884765625">
        <ele>531.20001220703125</ele>
        <time>2021-09-27T07:49:51.000Z</time>
      </trkpt>
      <trkpt lat="39.92861188016831874847412109375" lon="-0.55386199615895748138427734375">
        <ele>530.79998779296875</ele>
        <time>2021-09-27T07:49:53.000Z</time>
      </trkpt>
      <trkpt lat="39.92861255072057247161865234375" lon="-0.55404656566679477691650390625">
        <ele>530.4000244140625</ele>
        <time>2021-09-27T07:49:55.000Z</time>
      </trkpt>
      <trkpt lat="39.9286186695098876953125" lon="-0.5542303808033466339111328125">
        <ele>530</ele>
        <time>2021-09-27T07:49:57.000Z</time>
      </trkpt>
      <trkpt lat="39.928621686995029449462890625" lon="-0.55441503413021564483642578125">
        <ele>529.5999755859375</ele>
        <time>2021-09-27T07:49:59.000Z</time>
      </trkpt>
      <trkpt lat="39.92862277664244174957275390625" lon="-0.55459834635257720947265625">
        <ele>529.20001220703125</ele>
        <time>2021-09-27T07:50:01.000Z</time>
      </trkpt>
      <trkpt lat="39.92862009443342685699462890625" lon="-0.55478936992585659027099609375">
        <ele>529.20001220703125</ele>
        <time>2021-09-27T07:50:03.000Z</time>
      </trkpt>
      <trkpt lat="39.92862277664244174957275390625" lon="-0.554882995784282684326171875">
        <ele>529.4000244140625</ele>
        <time>2021-09-27T07:50:04.000Z</time>
      </trkpt>
      <trkpt lat="39.92862579412758350372314453125" lon="-0.55497645400464534759521484375">
        <ele>529.4000244140625</ele>
        <time>2021-09-27T07:50:05.000Z</time>
      </trkpt>
      <trkpt lat="39.9286285601556301116943359375" lon="-0.55516689084470272064208984375">
        <ele>529.4000244140625</ele>
        <time>2021-09-27T07:50:07.000Z</time>
      </trkpt>
      <trkpt lat="39.928629733622074127197265625" lon="-0.55535338819026947021484375">
        <ele>529.4000244140625</ele>
        <time>2021-09-27T07:50:09.000Z</time>
      </trkpt>
      <trkpt lat="39.928635098040103912353515625" lon="-0.5555406399071216583251953125">
        <ele>529.5999755859375</ele>
        <time>2021-09-27T07:50:11.000Z</time>
      </trkpt>
      <trkpt lat="39.92863736115396022796630859375" lon="-0.55572613142430782318115234375">
        <ele>530.20001220703125</ele>
        <time>2021-09-27T07:50:13.000Z</time>
      </trkpt>
      <trkpt lat="39.928635768592357635498046875" lon="-0.55590726435184478759765625">
        <ele>531</ele>
        <time>2021-09-27T07:50:15.000Z</time>
      </trkpt>
      <trkpt lat="39.92863786406815052032470703125" lon="-0.55608269758522510528564453125">
        <ele>531.5999755859375</ele>
        <time>2021-09-27T07:50:17.000Z</time>
      </trkpt>
      <trkpt lat="39.9286436475813388824462890625" lon="-0.556247569620609283447265625">
        <ele>532.20001220703125</ele>
        <time>2021-09-27T07:50:19.000Z</time>
      </trkpt>
      <trkpt lat="39.92864775471389293670654296875" lon="-0.55640439502894878387451171875">
        <ele>532.5999755859375</ele>
        <time>2021-09-27T07:50:21.000Z</time>
      </trkpt>
      <trkpt lat="39.9286496825516223907470703125" lon="-0.556561388075351715087890625">
        <ele>533.20001220703125</ele>
        <time>2021-09-27T07:50:23.000Z</time>
      </trkpt>
      <trkpt lat="39.9286516942083835601806640625" lon="-0.55670580826699733734130859375">
        <ele>533.5999755859375</ele>
        <time>2021-09-27T07:50:25.000Z</time>
      </trkpt>
      <trkpt lat="39.92865395732223987579345703125" lon="-0.5567694269120693206787109375">
        <ele>534</ele>
        <time>2021-09-27T07:50:26.000Z</time>
      </trkpt>
      <trkpt lat="39.92865529842674732208251953125" lon="-0.5568331293761730194091796875">
        <ele>534.20001220703125</ele>
        <time>2021-09-27T07:50:27.000Z</time>
      </trkpt>
      <trkpt lat="39.92865814827382564544677734375" lon="-0.55696003139019012451171875">
        <ele>534.5999755859375</ele>
        <time>2021-09-27T07:50:29.000Z</time>
      </trkpt>
      <trkpt lat="39.9286587350070476531982421875" lon="-0.5570859275758266448974609375">
        <ele>535.20001220703125</ele>
        <time>2021-09-27T07:50:31.000Z</time>
      </trkpt>
      <trkpt lat="39.9286583997309207916259765625" lon="-0.55714954622089862823486328125">
        <ele>535.4000244140625</ele>
        <time>2021-09-27T07:50:32.000Z</time>
      </trkpt>
      <trkpt lat="39.9286583997309207916259765625" lon="-0.557213835418224334716796875">
        <ele>535.4000244140625</ele>
        <time>2021-09-27T07:50:33.000Z</time>
      </trkpt>
      <trkpt lat="39.9286557175219058990478515625" lon="-0.5573461018502712249755859375">
        <ele>535.79998779296875</ele>
        <time>2021-09-27T07:50:35.000Z</time>
      </trkpt>
      <trkpt lat="39.92865764535963535308837890625" lon="-0.557478033006191253662109375">
        <ele>536.4000244140625</ele>
        <time>2021-09-27T07:50:37.000Z</time>
      </trkpt>
      <trkpt lat="39.92865932174026966094970703125" lon="-0.55754282511770725250244140625">
        <ele>536.5999755859375</ele>
        <time>2021-09-27T07:50:38.000Z</time>
      </trkpt>
      <trkpt lat="39.92866334505379199981689453125" lon="-0.55760786868631839752197265625">
        <ele>536.79998779296875</ele>
        <time>2021-09-27T07:50:39.000Z</time>
      </trkpt>
      <trkpt lat="39.9286682903766632080078125" lon="-0.5577464215457439422607421875">
        <ele>537.4000244140625</ele>
        <time>2021-09-27T07:50:41.000Z</time>
      </trkpt>
      <trkpt lat="39.92867298424243927001953125" lon="-0.55789167992770671844482421875">
        <ele>538</ele>
        <time>2021-09-27T07:50:43.000Z</time>
      </trkpt>
      <trkpt lat="39.92868061177432537078857421875" lon="-0.558041296899318695068359375">
        <ele>538.4000244140625</ele>
        <time>2021-09-27T07:50:45.000Z</time>
      </trkpt>
      <trkpt lat="39.9286885745823383331298828125" lon="-0.55819225497543811798095703125">
        <ele>537.79998779296875</ele>
        <time>2021-09-27T07:50:47.000Z</time>
      </trkpt>
      <trkpt lat="39.92869310081005096435546875" lon="-0.5582682788372039794921875">
        <ele>537.5999755859375</ele>
        <time>2021-09-27T07:50:48.000Z</time>
      </trkpt>
      <trkpt lat="39.92869419045746326446533203125" lon="-0.5583458952605724334716796875">
        <ele>537.4000244140625</ele>
        <time>2021-09-27T07:50:49.000Z</time>
      </trkpt>
      <trkpt lat="39.92869913578033447265625" lon="-0.55850372649729251861572265625">
        <ele>536.79998779296875</ele>
        <time>2021-09-27T07:50:51.000Z</time>
      </trkpt>
      <trkpt lat="39.9287045001983642578125" lon="-0.55867086164653301239013671875">
        <ele>536.20001220703125</ele>
        <time>2021-09-27T07:50:53.000Z</time>
      </trkpt>
      <trkpt lat="39.928707182407379150390625" lon="-0.55884252302348613739013671875">
        <ele>535.79998779296875</ele>
        <time>2021-09-27T07:50:55.000Z</time>
      </trkpt>
      <trkpt lat="39.92870626039803028106689453125" lon="-0.559006221592426300048828125">
        <ele>534.79998779296875</ele>
        <time>2021-09-27T07:50:57.000Z</time>
      </trkpt>
      <trkpt lat="39.928712882101535797119140625" lon="-0.5591720156371593475341796875">
        <ele>533.79998779296875</ele>
        <time>2021-09-27T07:50:59.000Z</time>
      </trkpt>
      <trkpt lat="39.92871749214828014373779296875" lon="-0.55925424210727214813232421875">
        <ele>533.4000244140625</ele>
        <time>2021-09-27T07:51:00.000Z</time>
      </trkpt>
      <trkpt lat="39.9287210963666439056396484375" lon="-0.559336133301258087158203125">
        <ele>533</ele>
        <time>2021-09-27T07:51:01.000Z</time>
      </trkpt>
      <trkpt lat="39.92872662842273712158203125" lon="-0.5594975687563419342041015625">
        <ele>532</ele>
        <time>2021-09-27T07:51:03.000Z</time>
      </trkpt>
      <trkpt lat="39.9287301488220691680908203125" lon="-0.55965992622077465057373046875">
        <ele>531</ele>
        <time>2021-09-27T07:51:05.000Z</time>
      </trkpt>
      <trkpt lat="39.92873023264110088348388671875" lon="-0.55982203222811222076416015625">
        <ele>530</ele>
        <time>2021-09-27T07:51:07.000Z</time>
      </trkpt>
      <trkpt lat="39.92873199284076690673828125" lon="-0.559903420507907867431640625">
        <ele>529.5999755859375</ele>
        <time>2021-09-27T07:51:08.000Z</time>
      </trkpt>
      <trkpt lat="39.92873040027916431427001953125" lon="-0.55998682044446468353271484375">
        <ele>529</ele>
        <time>2021-09-27T07:51:09.000Z</time>
      </trkpt>
      <trkpt lat="39.92872931063175201416015625" lon="-0.56006326340138912200927734375">
        <ele>528.5999755859375</ele>
        <time>2021-09-27T07:51:10.000Z</time>
      </trkpt>
      <trkpt lat="39.92872805334627628326416015625" lon="-0.5601392872631549835205078125">
        <ele>528.20001220703125</ele>
        <time>2021-09-27T07:51:11.000Z</time>
      </trkpt>
      <trkpt lat="39.9287299811840057373046875" lon="-0.5602167360484600067138671875">
        <ele>527.5999755859375</ele>
        <time>2021-09-27T07:51:12.000Z</time>
      </trkpt>
      <trkpt lat="39.928730316460132598876953125" lon="-0.56029628030955791473388671875">
        <ele>527.20001220703125</ele>
        <time>2021-09-27T07:51:13.000Z</time>
      </trkpt>
      <trkpt lat="39.9287278018891811370849609375" lon="-0.5604531057178974151611328125">
        <ele>526.20001220703125</ele>
        <time>2021-09-27T07:51:15.000Z</time>
      </trkpt>
      <trkpt lat="39.92872252129018306732177734375" lon="-0.56061898358166217803955078125">
        <ele>525.5999755859375</ele>
        <time>2021-09-27T07:51:17.000Z</time>
      </trkpt>
      <trkpt lat="39.9287197552621364593505859375" lon="-0.5607833527028560638427734375">
        <ele>525.20001220703125</ele>
        <time>2021-09-27T07:51:19.000Z</time>
      </trkpt>
      <trkpt lat="39.928722269833087921142578125" lon="-0.5609476380050182342529296875">
        <ele>524.79998779296875</ele>
        <time>2021-09-27T07:51:21.000Z</time>
      </trkpt>
      <trkpt lat="39.928725622594356536865234375" lon="-0.5611122585833072662353515625">
        <ele>524.4000244140625</ele>
        <time>2021-09-27T07:51:23.000Z</time>
      </trkpt>
      <trkpt lat="39.92872352711856365203857421875" lon="-0.56127444840967655181884765625">
        <ele>524</ele>
        <time>2021-09-27T07:51:25.000Z</time>
      </trkpt>
      <trkpt lat="39.92872268892824649810791015625" lon="-0.56135424412786960601806640625">
        <ele>524</ele>
        <time>2021-09-27T07:51:26.000Z</time>
      </trkpt>
      <trkpt lat="39.92872268892824649810791015625" lon="-0.561434291303157806396484375">
        <ele>523.79998779296875</ele>
        <time>2021-09-27T07:51:27.000Z</time>
      </trkpt>
      <trkpt lat="39.92872252129018306732177734375" lon="-0.561592876911163330078125">
        <ele>523.5999755859375</ele>
        <time>2021-09-27T07:51:29.000Z</time>
      </trkpt>
      <trkpt lat="39.928713552653789520263671875" lon="-0.56175942532718181610107421875">
        <ele>523.4000244140625</ele>
        <time>2021-09-27T07:51:31.000Z</time>
      </trkpt>
      <trkpt lat="39.9287123791873455047607421875" lon="-0.5618408136069774627685546875">
        <ele>523.4000244140625</ele>
        <time>2021-09-27T07:51:32.000Z</time>
      </trkpt>
      <trkpt lat="39.9287085235118865966796875" lon="-0.56192337535321712493896484375">
        <ele>523.20001220703125</ele>
        <time>2021-09-27T07:51:33.000Z</time>
      </trkpt>
      <trkpt lat="39.92869787849485874176025390625" lon="-0.5620909295976161956787109375">
        <ele>523</ele>
        <time>2021-09-27T07:51:35.000Z</time>
      </trkpt>
      <trkpt lat="39.92867222987115383148193359375" lon="-0.562252700328826904296875">
        <ele>523.5999755859375</ele>
        <time>2021-09-27T07:51:37.000Z</time>
      </trkpt>
      <trkpt lat="39.92865596897900104522705078125" lon="-0.56233090348541736602783203125">
        <ele>523.79998779296875</ele>
        <time>2021-09-27T07:51:38.000Z</time>
      </trkpt>
      <trkpt lat="39.92864004336297512054443359375" lon="-0.56240650825202465057373046875">
        <ele>524.20001220703125</ele>
        <time>2021-09-27T07:51:39.000Z</time>
      </trkpt>
      <trkpt lat="39.92859628982841968536376953125" lon="-0.5625462345778942108154296875">
        <ele>524.79998779296875</ele>
        <time>2021-09-27T07:51:41.000Z</time>
      </trkpt>
      <trkpt lat="39.9285494349896907806396484375" lon="-0.5626873858273029327392578125">
        <ele>525.5999755859375</ele>
        <time>2021-09-27T07:51:43.000Z</time>
      </trkpt>
      <trkpt lat="39.9285259656608104705810546875" lon="-0.56275435723364353179931640625">
        <ele>525.79998779296875</ele>
        <time>2021-09-27T07:51:44.000Z</time>
      </trkpt>
      <trkpt lat="39.92849855683743953704833984375" lon="-0.56282074190676212310791015625">
        <ele>526.20001220703125</ele>
        <time>2021-09-27T07:51:45.000Z</time>
      </trkpt>
      <trkpt lat="39.92846787907183170318603515625" lon="-0.5628878809511661529541015625">
        <ele>526.5999755859375</ele>
        <time>2021-09-27T07:51:46.000Z</time>
      </trkpt>
      <trkpt lat="39.92843351326882839202880859375" lon="-0.56295200251042842864990234375">
        <ele>526.79998779296875</ele>
        <time>2021-09-27T07:51:47.000Z</time>
      </trkpt>
      <trkpt lat="39.92835782468318939208984375" lon="-0.56308175437152385711669921875">
        <ele>527.79998779296875</ele>
        <time>2021-09-27T07:51:49.000Z</time>
      </trkpt>
      <trkpt lat="39.9283214472234249114990234375" lon="-0.56314143352210521697998046875">
        <ele>528.20001220703125</ele>
        <time>2021-09-27T07:51:50.000Z</time>
      </trkpt>
      <trkpt lat="39.92828381247818470001220703125" lon="-0.56320010684430599212646484375">
        <ele>528.79998779296875</ele>
        <time>2021-09-27T07:51:51.000Z</time>
      </trkpt>
      <trkpt lat="39.92820418439805507659912109375" lon="-0.563311167061328887939453125">
        <ele>529.79998779296875</ele>
        <time>2021-09-27T07:51:53.000Z</time>
      </trkpt>
      <trkpt lat="39.92811433039605617523193359375" lon="-0.56342138908803462982177734375">
        <ele>530.79998779296875</ele>
        <time>2021-09-27T07:51:55.000Z</time>
      </trkpt>
      <trkpt lat="39.92801559157669544219970703125" lon="-0.56352046318352222442626953125">
        <ele>531.5999755859375</ele>
        <time>2021-09-27T07:51:57.000Z</time>
      </trkpt>
      <trkpt lat="39.92791400291025638580322265625" lon="-0.5636191181838512420654296875">
        <ele>532.5999755859375</ele>
        <time>2021-09-27T07:51:59.000Z</time>
      </trkpt>
      <trkpt lat="39.92780864238739013671875" lon="-0.56371391750872135162353515625">
        <ele>533</ele>
        <time>2021-09-27T07:52:01.000Z</time>
      </trkpt>
      <trkpt lat="39.927701689302921295166015625" lon="-0.56380310095846652984619140625">
        <ele>533.20001220703125</ele>
        <time>2021-09-27T07:52:03.000Z</time>
      </trkpt>
      <trkpt lat="39.92759448476135730743408203125" lon="-0.56388817727565765380859375">
        <ele>533.5999755859375</ele>
        <time>2021-09-27T07:52:05.000Z</time>
      </trkpt>
      <trkpt lat="39.92749038152396678924560546875" lon="-0.56397023610770702362060546875">
        <ele>534</ele>
        <time>2021-09-27T07:52:07.000Z</time>
      </trkpt>
      <trkpt lat="39.9274379946291446685791015625" lon="-0.564013235270977020263671875">
        <ele>534.20001220703125</ele>
        <time>2021-09-27T07:52:08.000Z</time>
      </trkpt>
      <trkpt lat="39.92738862521946430206298828125" lon="-0.5640516243875026702880859375">
        <ele>534.20001220703125</ele>
        <time>2021-09-27T07:52:09.000Z</time>
      </trkpt>
      <trkpt lat="39.927285611629486083984375" lon="-0.5641342699527740478515625">
        <ele>534.5999755859375</ele>
        <time>2021-09-27T07:52:11.000Z</time>
      </trkpt>
      <trkpt lat="39.92717488668859004974365234375" lon="-0.56422085501253604888916015625">
        <ele>535</ele>
        <time>2021-09-27T07:52:13.000Z</time>
      </trkpt>
      <trkpt lat="39.9270678497850894927978515625" lon="-0.564304925501346588134765625">
        <ele>535.4000244140625</ele>
        <time>2021-09-27T07:52:15.000Z</time>
      </trkpt>
      <trkpt lat="39.92696584202349185943603515625" lon="-0.56438748724758625030517578125">
        <ele>535.4000244140625</ele>
        <time>2021-09-27T07:52:17.000Z</time>
      </trkpt>
      <trkpt lat="39.9269163049757480621337890625" lon="-0.564432330429553985595703125">
        <ele>535.4000244140625</ele>
        <time>2021-09-27T07:52:18.000Z</time>
      </trkpt>
      <trkpt lat="39.9268640018999576568603515625" lon="-0.5644791014492511749267578125">
        <ele>535.5999755859375</ele>
        <time>2021-09-27T07:52:19.000Z</time>
      </trkpt>
      <trkpt lat="39.92680759169161319732666015625" lon="-0.5645240284502506256103515625">
        <ele>535.5999755859375</ele>
        <time>2021-09-27T07:52:20.000Z</time>
      </trkpt>
      <trkpt lat="39.92675520479679107666015625" lon="-0.56457021273672580718994140625">
        <ele>535.79998779296875</ele>
        <time>2021-09-27T07:52:21.000Z</time>
      </trkpt>
      <trkpt lat="39.92665671743452548980712890625" lon="-0.56466124020516872406005859375">
        <ele>535.79998779296875</ele>
        <time>2021-09-27T07:52:23.000Z</time>
      </trkpt>
      <trkpt lat="39.92660324089229106903076171875" lon="-0.56470147334039211273193359375">
        <ele>535.5999755859375</ele>
        <time>2021-09-27T07:52:24.000Z</time>
      </trkpt>
      <trkpt lat="39.9265518598258495330810546875" lon="-0.56474003009498119354248046875">
        <ele>535.20001220703125</ele>
        <time>2021-09-27T07:52:25.000Z</time>
      </trkpt>
      <trkpt lat="39.926450438797473907470703125" lon="-0.564810521900653839111328125">
        <ele>534.5999755859375</ele>
        <time>2021-09-27T07:52:27.000Z</time>
      </trkpt>
      <trkpt lat="39.9263480119407176971435546875" lon="-0.5648827739059925079345703125">
        <ele>533.79998779296875</ele>
        <time>2021-09-27T07:52:29.000Z</time>
      </trkpt>
      <trkpt lat="39.92629813961684703826904296875" lon="-0.56491948664188385009765625">
        <ele>533.4000244140625</ele>
        <time>2021-09-27T07:52:30.000Z</time>
      </trkpt>
      <trkpt lat="39.92624701000750064849853515625" lon="-0.56496483273804187774658203125">
        <ele>533</ele>
        <time>2021-09-27T07:52:31.000Z</time>
      </trkpt>
      <trkpt lat="39.92614408023655414581298828125" lon="-0.56504865176975727081298828125">
        <ele>531.5999755859375</ele>
        <time>2021-09-27T07:52:33.000Z</time>
      </trkpt>
      <trkpt lat="39.92604299448430538177490234375" lon="-0.56513381190598011016845703125">
        <ele>530</ele>
        <time>2021-09-27T07:52:35.000Z</time>
      </trkpt>
      <trkpt lat="39.925933778285980224609375" lon="-0.56522333063185214996337890625">
        <ele>528.4000244140625</ele>
        <time>2021-09-27T07:52:37.000Z</time>
      </trkpt>
      <trkpt lat="39.92583478800952434539794921875" lon="-0.56530882604420185089111328125">
        <ele>526.79998779296875</ele>
        <time>2021-09-27T07:52:39.000Z</time>
      </trkpt>
      <trkpt lat="39.9257827363908290863037109375" lon="-0.565352328121662139892578125">
        <ele>526.20001220703125</ele>
        <time>2021-09-27T07:52:40.000Z</time>
      </trkpt>
      <trkpt lat="39.9257331155240535736083984375" lon="-0.56539281271398067474365234375">
        <ele>525.4000244140625</ele>
        <time>2021-09-27T07:52:41.000Z</time>
      </trkpt>
      <trkpt lat="39.92563244886696338653564453125" lon="-0.56547847576439380645751953125">
        <ele>523.79998779296875</ele>
        <time>2021-09-27T07:52:43.000Z</time>
      </trkpt>
      <trkpt lat="39.92552599869668483734130859375" lon="-0.56556380353868007659912109375">
        <ele>522.20001220703125</ele>
        <time>2021-09-27T07:52:45.000Z</time>
      </trkpt>
      <trkpt lat="39.92542080581188201904296875" lon="-0.56565064005553722381591796875">
        <ele>520.5999755859375</ele>
        <time>2021-09-27T07:52:47.000Z</time>
      </trkpt>
      <trkpt lat="39.9253076501190662384033203125" lon="-0.565735213458538055419921875">
        <ele>521</ele>
        <time>2021-09-27T07:52:49.000Z</time>
      </trkpt>
      <trkpt lat="39.9252033792436122894287109375" lon="-0.56581928394734859466552734375">
        <ele>521.5999755859375</ele>
        <time>2021-09-27T07:52:51.000Z</time>
      </trkpt>
      <trkpt lat="39.92514881305396556854248046875" lon="-0.56586094200611114501953125">
        <ele>521.79998779296875</ele>
        <time>2021-09-27T07:52:52.000Z</time>
      </trkpt>
      <trkpt lat="39.9250917322933673858642578125" lon="-0.56590477935969829559326171875">
        <ele>522.20001220703125</ele>
        <time>2021-09-27T07:52:53.000Z</time>
      </trkpt>
      <trkpt lat="39.9249784089624881744384765625" lon="-0.56599505245685577392578125">
        <ele>522.79998779296875</ele>
        <time>2021-09-27T07:52:55.000Z</time>
      </trkpt>
      <trkpt lat="39.92487304843962192535400390625" lon="-0.56608222424983978271484375">
        <ele>523.4000244140625</ele>
        <time>2021-09-27T07:52:57.000Z</time>
      </trkpt>
      <trkpt lat="39.924818314611911773681640625" lon="-0.566124804317951202392578125">
        <ele>523.79998779296875</ele>
        <time>2021-09-27T07:52:58.000Z</time>
      </trkpt>
      <trkpt lat="39.92476207204163074493408203125" lon="-0.5661712400615215301513671875">
        <ele>524</ele>
        <time>2021-09-27T07:52:59.000Z</time>
      </trkpt>
      <trkpt lat="39.92465428076684474945068359375" lon="-0.56625866331160068511962890625">
        <ele>524.5999755859375</ele>
        <time>2021-09-27T07:53:01.000Z</time>
      </trkpt>
      <trkpt lat="39.92455034516751766204833984375" lon="-0.56634365580976009368896484375">
        <ele>525</ele>
        <time>2021-09-27T07:53:03.000Z</time>
      </trkpt>
      <trkpt lat="39.9244449846446514129638671875" lon="-0.56642764247953891754150390625">
        <ele>525.4000244140625</ele>
        <time>2021-09-27T07:53:05.000Z</time>
      </trkpt>
      <trkpt lat="39.92434297688305377960205078125" lon="-0.566505007445812225341796875">
        <ele>525.79998779296875</ele>
        <time>2021-09-27T07:53:07.000Z</time>
      </trkpt>
      <trkpt lat="39.92424189113080501556396484375" lon="-0.56658740155398845672607421875">
        <ele>526.20001220703125</ele>
        <time>2021-09-27T07:53:09.000Z</time>
      </trkpt>
      <trkpt lat="39.9241304956376552581787109375" lon="-0.5666664429008960723876953125">
        <ele>526.5999755859375</ele>
        <time>2021-09-27T07:53:11.000Z</time>
      </trkpt>
      <trkpt lat="39.92407425306737422943115234375" lon="-0.56670692749321460723876953125">
        <ele>526.79998779296875</ele>
        <time>2021-09-27T07:53:12.000Z</time>
      </trkpt>
      <trkpt lat="39.9240181781351566314697265625" lon="-0.56675168685615062713623046875">
        <ele>527</ele>
        <time>2021-09-27T07:53:13.000Z</time>
      </trkpt>
      <trkpt lat="39.92390862666070461273193359375" lon="-0.56684170849621295928955078125">
        <ele>527.4000244140625</ele>
        <time>2021-09-27T07:53:15.000Z</time>
      </trkpt>
      <trkpt lat="39.92379932664334774017333984375" lon="-0.5669286288321018218994140625">
        <ele>527.79998779296875</ele>
        <time>2021-09-27T07:53:17.000Z</time>
      </trkpt>
      <trkpt lat="39.92369472049176692962646484375" lon="-0.56701236404478549957275390625">
        <ele>528</ele>
        <time>2021-09-27T07:53:19.000Z</time>
      </trkpt>
      <trkpt lat="39.92358324117958545684814453125" lon="-0.56710674427449703216552734375">
        <ele>528</ele>
        <time>2021-09-27T07:53:21.000Z</time>
      </trkpt>
      <trkpt lat="39.92347645573318004608154296875" lon="-0.567198358476161956787109375">
        <ele>527.79998779296875</ele>
        <time>2021-09-27T07:53:23.000Z</time>
      </trkpt>
      <trkpt lat="39.92338023148477077484130859375" lon="-0.567300617694854736328125">
        <ele>528</ele>
        <time>2021-09-27T07:53:25.000Z</time>
      </trkpt>
      <trkpt lat="39.92329339496791362762451171875" lon="-0.5674131028354167938232421875">
        <ele>528.20001220703125</ele>
        <time>2021-09-27T07:53:27.000Z</time>
      </trkpt>
      <trkpt lat="39.923208318650722503662109375" lon="-0.5675353109836578369140625">
        <ele>528.5999755859375</ele>
        <time>2021-09-27T07:53:29.000Z</time>
      </trkpt>
      <trkpt lat="39.92312659509479999542236328125" lon="-0.5676736123859882354736328125">
        <ele>529</ele>
        <time>2021-09-27T07:53:31.000Z</time>
      </trkpt>
      <trkpt lat="39.923086948692798614501953125" lon="-0.5677463673055171966552734375">
        <ele>529.20001220703125</ele>
        <time>2021-09-27T07:53:32.000Z</time>
      </trkpt>
      <trkpt lat="39.923047721385955810546875" lon="-0.567817278206348419189453125">
        <ele>529.5999755859375</ele>
        <time>2021-09-27T07:53:33.000Z</time>
      </trkpt>
      <trkpt lat="39.92300279438495635986328125" lon="-0.567881651222705841064453125">
        <ele>529.79998779296875</ele>
        <time>2021-09-27T07:53:34.000Z</time>
      </trkpt>
      <trkpt lat="39.9229526706039905548095703125" lon="-0.56793521158397197723388671875">
        <ele>529.79998779296875</ele>
        <time>2021-09-27T07:53:35.000Z</time>
      </trkpt>
      <trkpt lat="39.92290464229881763458251953125" lon="-0.56798181496560573577880859375">
        <ele>529.79998779296875</ele>
        <time>2021-09-27T07:53:36.000Z</time>
      </trkpt>
      <trkpt lat="39.9228567816317081451416015625" lon="-0.5680259875953197479248046875">
        <ele>530</ele>
        <time>2021-09-27T07:53:37.000Z</time>
      </trkpt>
      <trkpt lat="39.92273717187345027923583984375" lon="-0.5681302584707736968994140625">
        <ele>530.20001220703125</ele>
        <time>2021-09-27T07:53:39.000Z</time>
      </trkpt>
      <trkpt lat="39.92267967201769351959228515625" lon="-0.56821164675056934356689453125">
        <ele>530.20001220703125</ele>
        <time>2021-09-27T07:53:40.000Z</time>
      </trkpt>
      <trkpt lat="39.9226492457091808319091796875" lon="-0.56831122376024723052978515625">
        <ele>530.20001220703125</ele>
        <time>2021-09-27T07:53:41.000Z</time>
      </trkpt>
      <trkpt lat="39.9225915782153606414794921875" lon="-0.56849864311516284942626953125">
        <ele>530.20001220703125</ele>
        <time>2021-09-27T07:53:43.000Z</time>
      </trkpt>
      <trkpt lat="39.92256685160100460052490234375" lon="-0.56858564727008342742919921875">
        <ele>530.20001220703125</ele>
        <time>2021-09-27T07:53:44.000Z</time>
      </trkpt>
      <trkpt lat="39.92253365926444530487060546875" lon="-0.5686700530350208282470703125">
        <ele>530</ele>
        <time>2021-09-27T07:53:45.000Z</time>
      </trkpt>
      <trkpt lat="39.92246895097196102142333984375" lon="-0.56882989592850208282470703125">
        <ele>530</ele>
        <time>2021-09-27T07:53:47.000Z</time>
      </trkpt>
      <trkpt lat="39.92239032872021198272705078125" lon="-0.56898244656622409820556640625">
        <ele>530.79998779296875</ele>
        <time>2021-09-27T07:53:49.000Z</time>
      </trkpt>
      <trkpt lat="39.92234976030886173248291015625" lon="-0.5690579675137996673583984375">
        <ele>531.4000244140625</ele>
        <time>2021-09-27T07:53:50.000Z</time>
      </trkpt>
      <trkpt lat="39.92231422103941440582275390625" lon="-0.569127537310123443603515625">
        <ele>531.79998779296875</ele>
        <time>2021-09-27T07:53:51.000Z</time>
      </trkpt>
      <trkpt lat="39.91931182332336902618408203125" lon="-0.57459312491118907928466796875">
        <ele>516.20001220703125</ele>
        <time>2021-09-27T07:54:55.000Z</time>
      </trkpt>
      <trkpt lat="39.9191841669380664825439453125" lon="-0.5747144110500812530517578125">
        <ele>515.20001220703125</ele>
        <time>2021-09-27T07:54:57.000Z</time>
      </trkpt>
      <trkpt lat="39.919110573828220367431640625" lon="-0.5747854895889759063720703125">
        <ele>514.79998779296875</ele>
        <time>2021-09-27T07:54:58.000Z</time>
      </trkpt>
      <trkpt lat="39.91903756745159626007080078125" lon="-0.57484324090182781219482421875">
        <ele>514.4000244140625</ele>
        <time>2021-09-27T07:54:59.000Z</time>
      </trkpt>
      <trkpt lat="39.91889390163123607635498046875" lon="-0.57494801469147205352783203125">
        <ele>513.79998779296875</ele>
        <time>2021-09-27T07:55:01.000Z</time>
      </trkpt>
      <trkpt lat="39.9188165366649627685546875" lon="-0.57499763555824756622314453125">
        <ele>513.4000244140625</ele>
        <time>2021-09-27T07:55:02.000Z</time>
      </trkpt>
      <trkpt lat="39.91873783059418201446533203125" lon="-0.57504474185407161712646484375">
        <ele>513</ele>
        <time>2021-09-27T07:55:03.000Z</time>
      </trkpt>
      <trkpt lat="39.918573796749114990234375" lon="-0.5751284770667552947998046875">
        <ele>510</ele>
        <time>2021-09-27T07:55:05.000Z</time>
      </trkpt>
      <trkpt lat="39.9184200726449489593505859375" lon="-0.5751868151128292083740234375">
        <ele>507.399993896484375</ele>
        <time>2021-09-27T07:55:07.000Z</time>
      </trkpt>
      <trkpt lat="39.9182586371898651123046875" lon="-0.57522260583937168121337890625">
        <ele>504.399993896484375</ele>
        <time>2021-09-27T07:55:09.000Z</time>
      </trkpt>
      <trkpt lat="39.918100722134113311767578125" lon="-0.575250349938869476318359375">
        <ele>501.79998779296875</ele>
        <time>2021-09-27T07:55:11.000Z</time>
      </trkpt>
      <trkpt lat="39.91802402772009372711181640625" lon="-0.57525278069078922271728515625">
        <ele>500.79998779296875</ele>
        <time>2021-09-27T07:55:12.000Z</time>
      </trkpt>
      <trkpt lat="39.91794389672577381134033203125" lon="-0.5752531997859477996826171875">
        <ele>499.79998779296875</ele>
        <time>2021-09-27T07:55:13.000Z</time>
      </trkpt>
      <trkpt lat="39.91779369302093982696533203125" lon="-0.57523366995155811309814453125">
        <ele>498.20001220703125</ele>
        <time>2021-09-27T07:55:15.000Z</time>
      </trkpt>
      <trkpt lat="39.9176583252847194671630859375" lon="-0.5751998908817768096923828125">
        <ele>497.20001220703125</ele>
        <time>2021-09-27T07:55:17.000Z</time>
      </trkpt>
      <trkpt lat="39.91752111352980136871337890625" lon="-0.57514834217727184295654296875">
        <ele>496</ele>
        <time>2021-09-27T07:55:19.000Z</time>
      </trkpt>
      <trkpt lat="39.91739622317254543304443359375" lon="-0.57509444653987884521484375">
        <ele>495</ele>
        <time>2021-09-27T07:55:21.000Z</time>
      </trkpt>
      <trkpt lat="39.91729128174483776092529296875" lon="-0.5750382877886295318603515625">
        <ele>494</ele>
        <time>2021-09-27T07:55:23.000Z</time>
      </trkpt>
      <trkpt lat="39.9171949736773967742919921875" lon="-0.5749883316457271575927734375">
        <ele>493.20001220703125</ele>
        <time>2021-09-27T07:55:25.000Z</time>
      </trkpt>
      <trkpt lat="39.91709983907639980316162109375" lon="-0.57491951622068881988525390625">
        <ele>492.399993896484375</ele>
        <time>2021-09-27T07:55:27.000Z</time>
      </trkpt>
      <trkpt lat="39.91700537502765655517578125" lon="-0.57484097778797149658203125">
        <ele>492</ele>
        <time>2021-09-27T07:55:29.000Z</time>
      </trkpt>
      <trkpt lat="39.916957430541515350341796875" lon="-0.57480015791952610015869140625">
        <ele>491.79998779296875</ele>
        <time>2021-09-27T07:55:30.000Z</time>
      </trkpt>
      <trkpt lat="39.9169063009321689605712890625" lon="-0.57476453483104705810546875">
        <ele>491.79998779296875</ele>
        <time>2021-09-27T07:55:31.000Z</time>
      </trkpt>
      <trkpt lat="39.91685450077056884765625" lon="-0.574731342494487762451171875">
        <ele>491.600006103515625</ele>
        <time>2021-09-27T07:55:32.000Z</time>
      </trkpt>
      <trkpt lat="39.9168013595044612884521484375" lon="-0.574693791568279266357421875">
        <ele>491.600006103515625</ele>
        <time>2021-09-27T07:55:33.000Z</time>
      </trkpt>
      <trkpt lat="39.916695244610309600830078125" lon="-0.574612654745578765869140625">
        <ele>492</ele>
        <time>2021-09-27T07:55:35.000Z</time>
      </trkpt>
      <trkpt lat="39.91659499704837799072265625" lon="-0.57453118264675140380859375">
        <ele>492.399993896484375</ele>
        <time>2021-09-27T07:55:37.000Z</time>
      </trkpt>
      <trkpt lat="39.9164975993335247039794921875" lon="-0.574450381100177764892578125">
        <ele>492.79998779296875</ele>
        <time>2021-09-27T07:55:39.000Z</time>
      </trkpt>
      <trkpt lat="39.9163970164954662322998046875" lon="-0.57436631061136722564697265625">
        <ele>492.600006103515625</ele>
        <time>2021-09-27T07:55:41.000Z</time>
      </trkpt>
      <trkpt lat="39.91629324853420257568359375" lon="-0.57428584434092044830322265625">
        <ele>492.399993896484375</ele>
        <time>2021-09-27T07:55:43.000Z</time>
      </trkpt>
      <trkpt lat="39.9162411130964756011962890625" lon="-0.57424846105277538299560546875">
        <ele>492.20001220703125</ele>
        <time>2021-09-27T07:55:44.000Z</time>
      </trkpt>
      <trkpt lat="39.9161891452968120574951171875" lon="-0.5742068029940128326416015625">
        <ele>492</ele>
        <time>2021-09-27T07:55:45.000Z</time>
      </trkpt>
      <trkpt lat="39.91608629934489727020263671875" lon="-0.57412491180002689361572265625">
        <ele>492</ele>
        <time>2021-09-27T07:55:47.000Z</time>
      </trkpt>
      <trkpt lat="39.91599024273455142974853515625" lon="-0.5740423500537872314453125">
        <ele>491.79998779296875</ele>
        <time>2021-09-27T07:55:49.000Z</time>
      </trkpt>
      <trkpt lat="39.91588831879198551177978515625" lon="-0.57395760901272296905517578125">
        <ele>491.600006103515625</ele>
        <time>2021-09-27T07:55:51.000Z</time>
      </trkpt>
      <trkpt lat="39.9157891608774662017822265625" lon="-0.57387563399970531463623046875">
        <ele>491.600006103515625</ele>
        <time>2021-09-27T07:55:53.000Z</time>
      </trkpt>
      <trkpt lat="39.91569134406745433807373046875" lon="-0.57378552854061126708984375">
        <ele>491.399993896484375</ele>
        <time>2021-09-27T07:55:55.000Z</time>
      </trkpt>
      <trkpt lat="39.9155833013355731964111328125" lon="-0.5736978538334369659423828125">
        <ele>491</ele>
        <time>2021-09-27T07:55:57.000Z</time>
      </trkpt>
      <trkpt lat="39.91548146121203899383544921875" lon="-0.57361596263945102691650390625">
        <ele>491.20001220703125</ele>
        <time>2021-09-27T07:55:59.000Z</time>
      </trkpt>
      <trkpt lat="39.9153931997716426849365234375" lon="-0.57353742420673370361328125">
        <ele>491.600006103515625</ele>
        <time>2021-09-27T07:56:01.000Z</time>
      </trkpt>
      <trkpt lat="39.91531516425311565399169921875" lon="-0.57346525602042675018310546875">
        <ele>492</ele>
        <time>2021-09-27T07:56:03.000Z</time>
      </trkpt>
      <trkpt lat="39.91527794860303401947021484375" lon="-0.57342611253261566162109375">
        <ele>492.20001220703125</ele>
        <time>2021-09-27T07:56:04.000Z</time>
      </trkpt>
      <trkpt lat="39.9152423255145549774169921875" lon="-0.57338596321642398834228515625">
        <ele>492.399993896484375</ele>
        <time>2021-09-27T07:56:05.000Z</time>
      </trkpt>
      <trkpt lat="39.91521500051021575927734375" lon="-0.57334832847118377685546875">
        <ele>492.79998779296875</ele>
        <time>2021-09-27T07:56:06.000Z</time>
      </trkpt>
      <trkpt lat="39.9151890166103839874267578125" lon="-0.5733183212578296661376953125">
        <ele>493</ele>
        <time>2021-09-27T07:56:07.000Z</time>
      </trkpt>
      <trkpt lat="39.91515473462641239166259765625" lon="-0.57327146641910076141357421875">
        <ele>493.20001220703125</ele>
        <time>2021-09-27T07:56:09.000Z</time>
      </trkpt>
      <trkpt lat="39.915140569210052490234375" lon="-0.57325202040374279022216796875">
        <ele>493.399993896484375</ele>
        <time>2021-09-27T07:56:10.000Z</time>
      </trkpt>
      <trkpt lat="39.91513185203075408935546875" lon="-0.573240034282207489013671875">
        <ele>493.399993896484375</ele>
        <time>2021-09-27T07:56:11.000Z</time>
      </trkpt>
      <trkpt lat="39.91512992419302463531494140625" lon="-0.57323341257870197296142578125">
        <ele>493.399993896484375</ele>
        <time>2021-09-27T07:56:12.000Z</time>
      </trkpt>
      <trkpt lat="39.9151310138404369354248046875" lon="-0.57323274202644824981689453125">
        <ele>493.399993896484375</ele>
        <time>2021-09-27T07:56:13.000Z</time>
      </trkpt>
      <trkpt lat="39.91512221284210681915283203125" lon="-0.57319100014865398406982421875">
        <ele>493.600006103515625</ele>
        <time>2021-09-27T07:56:30.000Z</time>
      </trkpt>
      <trkpt lat="39.915112741291522979736328125" lon="-0.57316300459206104278564453125">
        <ele>493.79998779296875</ele>
        <time>2021-09-27T07:56:31.000Z</time>
      </trkpt>
      <trkpt lat="39.91508600302040576934814453125" lon="-0.57308656163513660430908203125">
        <ele>494.399993896484375</ele>
        <time>2021-09-27T07:56:33.000Z</time>
      </trkpt>
      <trkpt lat="39.915062449872493743896484375" lon="-0.5730433948338031768798828125">
        <ele>494.600006103515625</ele>
        <time>2021-09-27T07:56:34.000Z</time>
      </trkpt>
      <trkpt lat="39.91503369994461536407470703125" lon="-0.57300140149891376495361328125">
        <ele>494.79998779296875</ele>
        <time>2021-09-27T07:56:35.000Z</time>
      </trkpt>
      <trkpt lat="39.91496781818568706512451171875" lon="-0.57291674427688121795654296875">
        <ele>494.79998779296875</ele>
        <time>2021-09-27T07:56:37.000Z</time>
      </trkpt>
      <trkpt lat="39.9149375595152378082275390625" lon="-0.57286812923848628997802734375">
        <ele>495</ele>
        <time>2021-09-27T07:56:38.000Z</time>
      </trkpt>
      <trkpt lat="39.91490654647350311279296875" lon="-0.5728234536945819854736328125">
        <ele>495.20001220703125</ele>
        <time>2021-09-27T07:56:39.000Z</time>
      </trkpt>
      <trkpt lat="39.91487259976565837860107421875" lon="-0.57278146035969257354736328125">
        <ele>495.20001220703125</ele>
        <time>2021-09-27T07:56:40.000Z</time>
      </trkpt>
      <trkpt lat="39.91484544239938259124755859375" lon="-0.57274558581411838531494140625">
        <ele>495.20001220703125</ele>
        <time>2021-09-27T07:56:41.000Z</time>
      </trkpt>
      <trkpt lat="39.91480068303644657135009765625" lon="-0.5726636946201324462890625">
        <ele>495.20001220703125</ele>
        <time>2021-09-27T07:56:43.000Z</time>
      </trkpt>
      <trkpt lat="39.91478190757334232330322265625" lon="-0.5726154148578643798828125">
        <ele>495.20001220703125</ele>
        <time>2021-09-27T07:56:44.000Z</time>
      </trkpt>
      <trkpt lat="39.914766736328601837158203125" lon="-0.57256671600043773651123046875">
        <ele>495.20001220703125</ele>
        <time>2021-09-27T07:56:45.000Z</time>
      </trkpt>
      <trkpt lat="39.9147350527346134185791015625" lon="-0.57248465716838836669921875">
        <ele>495.20001220703125</ele>
        <time>2021-09-27T07:56:47.000Z</time>
      </trkpt>
      <trkpt lat="39.91472273133695125579833984375" lon="-0.57244484312832355499267578125">
        <ele>495.20001220703125</ele>
        <time>2021-09-27T07:56:49.000Z</time>
      </trkpt>
      <trkpt lat="39.9147149361670017242431640625" lon="-0.57242355309426784515380859375">
        <ele>495.20001220703125</ele>
        <time>2021-09-27T07:56:51.000Z</time>
      </trkpt>
      <trkpt lat="39.91471200250089168548583984375" lon="-0.57241936214268207550048828125">
        <ele>495.20001220703125</ele>
        <time>2021-09-27T07:56:53.000Z</time>
      </trkpt>
      <trkpt lat="39.9146820791065692901611328125" lon="-0.57239748537540435791015625">
        <ele>495.20001220703125</ele>
        <time>2021-09-27T07:57:03.000Z</time>
      </trkpt>
      <trkpt lat="39.9146639741957187652587890625" lon="-0.5723901093006134033203125">
        <ele>495</ele>
        <time>2021-09-27T07:57:04.000Z</time>
      </trkpt>
      <trkpt lat="39.914648048579692840576171875" lon="-0.57238365523517131805419921875">
        <ele>495</ele>
        <time>2021-09-27T07:57:05.000Z</time>
      </trkpt>
      <trkpt lat="39.9146250821650028228759765625" lon="-0.57238583452999591827392578125">
        <ele>494.79998779296875</ele>
        <time>2021-09-27T07:57:06.000Z</time>
      </trkpt>
      <trkpt lat="39.91459432058036327362060546875" lon="-0.5724097229540348052978515625">
        <ele>494.600006103515625</ele>
        <time>2021-09-27T07:57:07.000Z</time>
      </trkpt>
      <trkpt lat="39.914563558995723724365234375" lon="-0.5724345333874225616455078125">
        <ele>494.399993896484375</ele>
        <time>2021-09-27T07:57:08.000Z</time>
      </trkpt>
      <trkpt lat="39.91453866474330425262451171875" lon="-0.57245649397373199462890625">
        <ele>494.20001220703125</ele>
        <time>2021-09-27T07:57:09.000Z</time>
      </trkpt>
      <trkpt lat="39.91445970721542835235595703125" lon="-0.57249479927122592926025390625">
        <ele>493.600006103515625</ele>
        <time>2021-09-27T07:57:11.000Z</time>
      </trkpt>
      <trkpt lat="39.91442450322210788726806640625" lon="-0.5725054442882537841796875">
        <ele>493.399993896484375</ele>
        <time>2021-09-27T07:57:12.000Z</time>
      </trkpt>
      <trkpt lat="39.9143954180181026458740234375" lon="-0.57249329052865505218505859375">
        <ele>493.20001220703125</ele>
        <time>2021-09-27T07:57:13.000Z</time>
      </trkpt>
      <trkpt lat="39.91433582268655300140380859375" lon="-0.5724392272531986236572265625">
        <ele>493</ele>
        <time>2021-09-27T07:57:15.000Z</time>
      </trkpt>
      <trkpt lat="39.91425351239740848541259765625" lon="-0.57237862609326839447021484375">
        <ele>493</ele>
        <time>2021-09-27T07:57:17.000Z</time>
      </trkpt>
      <trkpt lat="39.91416089236736297607421875" lon="-0.57231894694268703460693359375">
        <ele>492.79998779296875</ele>
        <time>2021-09-27T07:57:19.000Z</time>
      </trkpt>
      <trkpt lat="39.9141171388328075408935546875" lon="-0.57228659279644489288330078125">
        <ele>492.79998779296875</ele>
        <time>2021-09-27T07:57:20.000Z</time>
      </trkpt>
      <trkpt lat="39.914074055850505828857421875" lon="-0.57225775904953479766845703125">
        <ele>492.79998779296875</ele>
        <time>2021-09-27T07:57:21.000Z</time>
      </trkpt>
      <trkpt lat="39.91399048827588558197021484375" lon="-0.57218936271965503692626953125">
        <ele>492.79998779296875</ele>
        <time>2021-09-27T07:57:23.000Z</time>
      </trkpt>
      <trkpt lat="39.91389711387455463409423828125" lon="-0.57214778847992420196533203125">
        <ele>492.600006103515625</ele>
        <time>2021-09-27T07:57:25.000Z</time>
      </trkpt>
      <trkpt lat="39.91385369561612606048583984375" lon="-0.57212113402783870697021484375">
        <ele>492.399993896484375</ele>
        <time>2021-09-27T07:57:26.000Z</time>
      </trkpt>
      <trkpt lat="39.91381128318607807159423828125" lon="-0.5721079744398593902587890625">
        <ele>492.20001220703125</ele>
        <time>2021-09-27T07:57:27.000Z</time>
      </trkpt>
      <trkpt lat="39.91374959237873554229736328125" lon="-0.572085678577423095703125">
        <ele>492</ele>
        <time>2021-09-27T07:57:29.000Z</time>
      </trkpt>
      <trkpt lat="39.9136806093156337738037109375" lon="-0.57206631638109683990478515625">
        <ele>492</ele>
        <time>2021-09-27T07:57:31.000Z</time>
      </trkpt>
      <trkpt lat="39.91360911168158054351806640625" lon="-0.57205148041248321533203125">
        <ele>492.20001220703125</ele>
        <time>2021-09-27T07:57:33.000Z</time>
      </trkpt>
      <trkpt lat="39.91352344863116741180419921875" lon="-0.57204418815672397613525390625">
        <ele>492.20001220703125</ele>
        <time>2021-09-27T07:57:35.000Z</time>
      </trkpt>
      <trkpt lat="39.91345521993935108184814453125" lon="-0.5720521509647369384765625">
        <ele>492.399993896484375</ele>
        <time>2021-09-27T07:57:37.000Z</time>
      </trkpt>
      <trkpt lat="39.91338967345654964447021484375" lon="-0.57204754091799259185791015625">
        <ele>492.399993896484375</ele>
        <time>2021-09-27T07:57:39.000Z</time>
      </trkpt>
      <trkpt lat="39.9133527092635631561279296875" lon="-0.57206531055271625518798828125">
        <ele>492.399993896484375</ele>
        <time>2021-09-27T07:57:41.000Z</time>
      </trkpt>
      <trkpt lat="39.9133501946926116943359375" lon="-0.572082996368408203125">
        <ele>492.399993896484375</ele>
        <time>2021-09-27T07:57:42.000Z</time>
      </trkpt>
      <trkpt lat="39.91313218139111995697021484375" lon="-0.57203547097742557525634765625">
        <ele>492.79998779296875</ele>
        <time>2021-09-27T07:57:58.000Z</time>
      </trkpt>
      <trkpt lat="39.91309748031198978424072265625" lon="-0.57205558754503726959228515625">
        <ele>492.79998779296875</ele>
        <time>2021-09-27T07:57:59.000Z</time>
      </trkpt>
      <trkpt lat="39.913030676543712615966796875" lon="-0.57211141102015972137451171875">
        <ele>492.79998779296875</ele>
        <time>2021-09-27T07:58:01.000Z</time>
      </trkpt>
      <trkpt lat="39.91299740038812160491943359375" lon="-0.57213865220546722412109375">
        <ele>492.79998779296875</ele>
        <time>2021-09-27T07:58:02.000Z</time>
      </trkpt>
      <trkpt lat="39.91296018473803997039794921875" lon="-0.57216287590563297271728515625">
        <ele>493</ele>
        <time>2021-09-27T07:58:03.000Z</time>
      </trkpt>
      <trkpt lat="39.9129205383360385894775390625" lon="-0.5721867643296718597412109375">
        <ele>493</ele>
        <time>2021-09-27T07:58:04.000Z</time>
      </trkpt>
      <trkpt lat="39.9128754436969757080078125" lon="-0.5722072161734104156494140625">
        <ele>492.79998779296875</ele>
        <time>2021-09-27T07:58:05.000Z</time>
      </trkpt>
      <trkpt lat="39.91283613257110118865966796875" lon="-0.572228170931339263916015625">
        <ele>492.79998779296875</ele>
        <time>2021-09-27T07:58:06.000Z</time>
      </trkpt>
      <trkpt lat="39.91280377842485904693603515625" lon="-0.57224937714636325836181640625">
        <ele>492.79998779296875</ele>
        <time>2021-09-27T07:58:07.000Z</time>
      </trkpt>
      <trkpt lat="39.9127498827874660491943359375" lon="-0.5722890235483646392822265625">
        <ele>492.600006103515625</ele>
        <time>2021-09-27T07:58:09.000Z</time>
      </trkpt>
      <trkpt lat="39.9127284251153469085693359375" lon="-0.5723034404218196868896484375">
        <ele>492.600006103515625</ele>
        <time>2021-09-27T07:58:10.000Z</time>
      </trkpt>
      <trkpt lat="39.912708140909671783447265625" lon="-0.5723128281533718109130859375">
        <ele>492.600006103515625</ele>
        <time>2021-09-27T07:58:11.000Z</time>
      </trkpt>
      <trkpt lat="39.912669248878955841064453125" lon="-0.57233839295804500579833984375">
        <ele>492.600006103515625</ele>
        <time>2021-09-27T07:58:13.000Z</time>
      </trkpt>
      <trkpt lat="39.9126422591507434844970703125" lon="-0.5723698250949382781982421875">
        <ele>492.20001220703125</ele>
        <time>2021-09-27T07:58:15.000Z</time>
      </trkpt>
      <trkpt lat="39.912620298564434051513671875" lon="-0.572409890592098236083984375">
        <ele>491.79998779296875</ele>
        <time>2021-09-27T07:58:17.000Z</time>
      </trkpt>
      <trkpt lat="39.9125876091420650482177734375" lon="-0.57243503630161285400390625">
        <ele>491.79998779296875</ele>
        <time>2021-09-27T07:58:19.000Z</time>
      </trkpt>
      <trkpt lat="39.912581741809844970703125" lon="-0.57245993055403232574462890625">
        <ele>491.399993896484375</ele>
        <time>2021-09-27T07:58:21.000Z</time>
      </trkpt>
      <trkpt lat="39.912581741809844970703125" lon="-0.57245993055403232574462890625">
        <ele>491.399993896484375</ele>
        <time>2021-09-27T07:58:22.000Z</time>
      </trkpt>
      <trkpt lat="39.9126072227954864501953125" lon="-0.57248977012932300567626953125">
        <ele>490.79998779296875</ele>
        <time>2021-09-27T07:58:52.000Z</time>
      </trkpt>
      <trkpt lat="39.9126072227954864501953125" lon="-0.57248977012932300567626953125">
        <ele>490.79998779296875</ele>
        <time>2021-09-27T07:58:53.000Z</time>
      </trkpt>
      <trkpt lat="39.91432660259306430816650390625" lon="-0.57987841777503490447998046875">
        <ele>498.399993896484375</ele>
        <time>2021-09-27T08:28:20.000Z</time>
      </trkpt>
      <trkpt lat="39.91430380381643772125244140625" lon="-0.57988026179373264312744140625">
        <ele>498.79998779296875</ele>
        <time>2021-09-27T08:28:21.000Z</time>
      </trkpt>
      <trkpt lat="39.9126204662024974822998046875" lon="-0.5723718367516994476318359375">
        <ele>492.399993896484375</ele>
        <time>2021-09-27T08:30:42.000Z</time>
      </trkpt>
      <trkpt lat="39.91260764189064502716064453125" lon="-0.57235264219343662261962890625">
        <ele>492.79998779296875</ele>
        <time>2021-09-27T08:30:43.000Z</time>
      </trkpt>
      <trkpt lat="39.91260252892971038818359375" lon="-0.5723332799971103668212890625">
        <ele>493.20001220703125</ele>
        <time>2021-09-27T08:30:44.000Z</time>
      </trkpt>
      <trkpt lat="39.9126045405864715576171875" lon="-0.57231341488659381866455078125">
        <ele>493.600006103515625</ele>
        <time>2021-09-27T08:30:45.000Z</time>
      </trkpt>
      <trkpt lat="39.91259875707328319549560546875" lon="-0.57229162193834781646728515625">
        <ele>494</ele>
        <time>2021-09-27T08:30:46.000Z</time>
      </trkpt>
      <trkpt lat="39.91259448230266571044921875" lon="-0.57226739823818206787109375">
        <ele>494.399993896484375</ele>
        <time>2021-09-27T08:30:47.000Z</time>
      </trkpt>
      <trkpt lat="39.91258920170366764068603515625" lon="-0.572214089334011077880859375">
        <ele>495.399993896484375</ele>
        <time>2021-09-27T08:30:49.000Z</time>
      </trkpt>
      <trkpt lat="39.912588112056255340576171875" lon="-0.57218533940613269805908203125">
        <ele>495.79998779296875</ele>
        <time>2021-09-27T08:30:50.000Z</time>
      </trkpt>
      <trkpt lat="39.91258509457111358642578125" lon="-0.572157762944698333740234375">
        <ele>496</ele>
        <time>2021-09-27T08:30:51.000Z</time>
      </trkpt>
      <trkpt lat="39.91258232854306697845458984375" lon="-0.57211074046790599822998046875">
        <ele>496</ele>
        <time>2021-09-27T08:30:53.000Z</time>
      </trkpt>
      <trkpt lat="39.91254611872136592864990234375" lon="-0.5720372311770915985107421875">
        <ele>496.399993896484375</ele>
        <time>2021-09-27T08:30:55.000Z</time>
      </trkpt>
      <trkpt lat="39.91252700798213481903076171875" lon="-0.57198098860681056976318359375">
        <ele>496.600006103515625</ele>
        <time>2021-09-27T08:30:57.000Z</time>
      </trkpt>
      <trkpt lat="39.912517704069614410400390625" lon="-0.57195760309696197509765625">
        <ele>496.600006103515625</ele>
        <time>2021-09-27T08:30:58.000Z</time>
      </trkpt>
      <trkpt lat="39.912510327994823455810546875" lon="-0.571938492357730865478515625">
        <ele>496.79998779296875</ele>
        <time>2021-09-27T08:30:59.000Z</time>
      </trkpt>
      <trkpt lat="39.91249985061585903167724609375" lon="-0.5718885362148284912109375">
        <ele>496.79998779296875</ele>
        <time>2021-09-27T08:31:01.000Z</time>
      </trkpt>
      <trkpt lat="39.91248711012303829193115234375" lon="-0.571836568415164947509765625">
        <ele>497</ele>
        <time>2021-09-27T08:31:03.000Z</time>
      </trkpt>
      <trkpt lat="39.9124726094305515289306640625" lon="-0.5717837624251842498779296875">
        <ele>497.20001220703125</ele>
        <time>2021-09-27T08:31:05.000Z</time>
      </trkpt>
      <trkpt lat="39.9124638922512531280517578125" lon="-0.57176121510565280914306640625">
        <ele>497.399993896484375</ele>
        <time>2021-09-27T08:31:06.000Z</time>
      </trkpt>
      <trkpt lat="39.912455342710018157958984375" lon="-0.5717314593493938446044921875">
        <ele>497.79998779296875</ele>
        <time>2021-09-27T08:31:07.000Z</time>
      </trkpt>
      <trkpt lat="39.91243866272270679473876953125" lon="-0.57166331447660923004150390625">
        <ele>498.399993896484375</ele>
        <time>2021-09-27T08:31:09.000Z</time>
      </trkpt>
      <trkpt lat="39.91240806877613067626953125" lon="-0.57157195173203945159912109375">
        <ele>499.600006103515625</ele>
        <time>2021-09-27T08:31:11.000Z</time>
      </trkpt>
      <trkpt lat="39.9123767204582691192626953125" lon="-0.57149249128997325897216796875">
        <ele>500.79998779296875</ele>
        <time>2021-09-27T08:31:13.000Z</time>
      </trkpt>
      <trkpt lat="39.9123602919280529022216796875" lon="-0.57141504250466823577880859375">
        <ele>501.600006103515625</ele>
        <time>2021-09-27T08:31:15.000Z</time>
      </trkpt>
      <trkpt lat="39.912342689931392669677734375" lon="-0.5713505856692790985107421875">
        <ele>502.399993896484375</ele>
        <time>2021-09-27T08:31:17.000Z</time>
      </trkpt>
      <trkpt lat="39.91234059445559978485107421875" lon="-0.57128361426293849945068359375">
        <ele>502</ele>
        <time>2021-09-27T08:31:18.000Z</time>
      </trkpt>
      <trkpt lat="39.9123267643153667449951171875" lon="-0.57123684324324131011962890625">
        <ele>501.79998779296875</ele>
        <time>2021-09-27T08:31:19.000Z</time>
      </trkpt>
      <trkpt lat="39.91231159307062625885009765625" lon="-0.5711779184639453887939453125">
        <ele>501.600006103515625</ele>
        <time>2021-09-27T08:31:21.000Z</time>
      </trkpt>
      <trkpt lat="39.912317879498004913330078125" lon="-0.5711348354816436767578125">
        <ele>501</ele>
        <time>2021-09-27T08:31:22.000Z</time>
      </trkpt>
      <trkpt lat="39.912319220602512359619140625" lon="-0.57110189460217952728271484375">
        <ele>500.79998779296875</ele>
        <time>2021-09-27T08:31:23.000Z</time>
      </trkpt>
      <trkpt lat="39.91231477819383144378662109375" lon="-0.5710692889988422393798828125">
        <ele>500.399993896484375</ele>
        <time>2021-09-27T08:31:24.000Z</time>
      </trkpt>
      <trkpt lat="39.912305809557437896728515625" lon="-0.57104154489934444427490234375">
        <ele>500.399993896484375</ele>
        <time>2021-09-27T08:31:25.000Z</time>
      </trkpt>
      <trkpt lat="39.91227840073406696319580078125" lon="-0.5709904991090297698974609375">
        <ele>500.20001220703125</ele>
        <time>2021-09-27T08:31:27.000Z</time>
      </trkpt>
      <trkpt lat="39.9122469685971736907958984375" lon="-0.57088471949100494384765625">
        <ele>499.399993896484375</ele>
        <time>2021-09-27T08:31:29.000Z</time>
      </trkpt>
      <trkpt lat="39.9122156202793121337890625" lon="-0.5707698874175548553466796875">
        <ele>498.600006103515625</ele>
        <time>2021-09-27T08:31:31.000Z</time>
      </trkpt>
      <trkpt lat="39.912175051867961883544921875" lon="-0.57064357213675975799560546875">
        <ele>497.79998779296875</ele>
        <time>2021-09-27T08:31:33.000Z</time>
      </trkpt>
      <trkpt lat="39.9121507443487644195556640625" lon="-0.5706009082496166229248046875">
        <ele>497.79998779296875</ele>
        <time>2021-09-27T08:31:34.000Z</time>
      </trkpt>
      <trkpt lat="39.91213314235210418701171875" lon="-0.5705526284873485565185546875">
        <ele>497.600006103515625</ele>
        <time>2021-09-27T08:31:35.000Z</time>
      </trkpt>
      <trkpt lat="39.9121108464896678924560546875" lon="-0.57044911198318004608154296875">
        <ele>497</ele>
        <time>2021-09-27T08:31:37.000Z</time>
      </trkpt>
      <trkpt lat="39.9121118523180484771728515625" lon="-0.57031684555113315582275390625">
        <ele>494.399993896484375</ele>
        <time>2021-09-27T08:31:39.000Z</time>
      </trkpt>
      <trkpt lat="39.91210774518549442291259765625" lon="-0.5702783726155757904052734375">
        <ele>493.600006103515625</ele>
        <time>2021-09-27T08:31:40.000Z</time>
      </trkpt>
      <trkpt lat="39.9121071584522724151611328125" lon="-0.5702565796673297882080078125">
        <ele>493.20001220703125</ele>
        <time>2021-09-27T08:31:41.000Z</time>
      </trkpt>
      <trkpt lat="39.91209919564425945281982421875" lon="-0.57021508924663066864013671875">
        <ele>492.399993896484375</ele>
        <time>2021-09-27T08:31:43.000Z</time>
      </trkpt>
      <trkpt lat="39.9120984412729740142822265625" lon="-0.57016479782760143280029296875">
        <ele>491.399993896484375</ele>
        <time>2021-09-27T08:31:45.000Z</time>
      </trkpt>
      <trkpt lat="39.91210087202489376068115234375" lon="-0.57016530074179172515869140625">
        <ele>491.399993896484375</ele>
        <time>2021-09-27T08:31:46.000Z</time>
      </trkpt>
      <trkpt lat="39.9120897240936756134033203125" lon="-0.57009958662092685699462890625">
        <ele>490.20001220703125</ele>
        <time>2021-09-27T08:32:32.000Z</time>
      </trkpt>
      <trkpt lat="39.912069104611873626708984375" lon="-0.57007846422493457794189453125">
        <ele>489.600006103515625</ele>
        <time>2021-09-27T08:32:33.000Z</time>
      </trkpt>
      <trkpt lat="39.9120144546031951904296875" lon="-0.57003789581358432769775390625">
        <ele>489</ele>
        <time>2021-09-27T08:32:35.000Z</time>
      </trkpt>
      <trkpt lat="39.911965169012546539306640625" lon="-0.56999246589839458465576171875">
        <ele>488.20001220703125</ele>
        <time>2021-09-27T08:32:37.000Z</time>
      </trkpt>
      <trkpt lat="39.911907501518726348876953125" lon="-0.56994326412677764892578125">
        <ele>487.20001220703125</ele>
        <time>2021-09-27T08:32:39.000Z</time>
      </trkpt>
      <trkpt lat="39.9118265323340892791748046875" lon="-0.56987889111042022705078125">
        <ele>486.20001220703125</ele>
        <time>2021-09-27T08:32:41.000Z</time>
      </trkpt>
      <trkpt lat="39.91178085096180438995361328125" lon="-0.56983790360391139984130859375">
        <ele>485.600006103515625</ele>
        <time>2021-09-27T08:32:42.000Z</time>
      </trkpt>
      <trkpt lat="39.91173760034143924713134765625" lon="-0.56979029439389705657958984375">
        <ele>484.79998779296875</ele>
        <time>2021-09-27T08:32:43.000Z</time>
      </trkpt>
      <trkpt lat="39.9116951040923595428466796875" lon="-0.56973715312778949737548828125">
        <ele>484</ele>
        <time>2021-09-27T08:32:44.000Z</time>
      </trkpt>
      <trkpt lat="39.91165101528167724609375" lon="-0.56968032382428646087646484375">
        <ele>483</ele>
        <time>2021-09-27T08:32:45.000Z</time>
      </trkpt>
      <trkpt lat="39.9116055853664875030517578125" lon="-0.56962617672979831695556640625">
        <ele>483</ele>
        <time>2021-09-27T08:32:46.000Z</time>
      </trkpt>
      <trkpt lat="39.91155655123293399810791015625" lon="-0.56957177817821502685546875">
        <ele>482.79998779296875</ele>
        <time>2021-09-27T08:32:47.000Z</time>
      </trkpt>
      <trkpt lat="39.9114523641765117645263671875" lon="-0.56947295553982257843017578125">
        <ele>482.79998779296875</ele>
        <time>2021-09-27T08:32:49.000Z</time>
      </trkpt>
      <trkpt lat="39.91135521791875362396240234375" lon="-0.56936549954116344451904296875">
        <ele>481.79998779296875</ele>
        <time>2021-09-27T08:32:51.000Z</time>
      </trkpt>
      <trkpt lat="39.9112594127655029296875" lon="-0.56924731470644474029541015625">
        <ele>481</ele>
        <time>2021-09-27T08:32:53.000Z</time>
      </trkpt>
      <trkpt lat="39.91121607832610607147216796875" lon="-0.56920456700026988983154296875">
        <ele>480.600006103515625</ele>
        <time>2021-09-27T08:32:54.000Z</time>
      </trkpt>
      <trkpt lat="39.9111740849912166595458984375" lon="-0.56916408240795135498046875">
        <ele>480.20001220703125</ele>
        <time>2021-09-27T08:32:55.000Z</time>
      </trkpt>
      <trkpt lat="39.9111365340650081634521484375" lon="-0.56911588646471500396728515625">
        <ele>479.79998779296875</ele>
        <time>2021-09-27T08:32:56.000Z</time>
      </trkpt>
      <trkpt lat="39.9111026711761951446533203125" lon="-0.56905503384768962860107421875">
        <ele>479.20001220703125</ele>
        <time>2021-09-27T08:32:57.000Z</time>
      </trkpt>
      <trkpt lat="39.91107660345733165740966796875" lon="-0.56898429058492183685302734375">
        <ele>478.600006103515625</ele>
        <time>2021-09-27T08:32:58.000Z</time>
      </trkpt>
      <trkpt lat="39.91105313412845134735107421875" lon="-0.5689047463238239288330078125">
        <ele>477.600006103515625</ele>
        <time>2021-09-27T08:32:59.000Z</time>
      </trkpt>
      <trkpt lat="39.91102228872478008270263671875" lon="-0.5688229389488697052001953125">
        <ele>476.600006103515625</ele>
        <time>2021-09-27T08:33:00.000Z</time>
      </trkpt>
      <trkpt lat="39.91098389960825443267822265625" lon="-0.56874289177358150482177734375">
        <ele>475.79998779296875</ele>
        <time>2021-09-27T08:33:01.000Z</time>
      </trkpt>
      <trkpt lat="39.91090075112879276275634765625" lon="-0.56859168224036693572998046875">
        <ele>474.20001220703125</ele>
        <time>2021-09-27T08:33:03.000Z</time>
      </trkpt>
      <trkpt lat="39.910821877419948577880859375" lon="-0.5684360302984714508056640625">
        <ele>472.600006103515625</ele>
        <time>2021-09-27T08:33:05.000Z</time>
      </trkpt>
      <trkpt lat="39.91074417717754840850830078125" lon="-0.56827962398529052734375">
        <ele>471.600006103515625</ele>
        <time>2021-09-27T08:33:07.000Z</time>
      </trkpt>
      <trkpt lat="39.9107117392122745513916015625" lon="-0.568198822438716888427734375">
        <ele>471</ele>
        <time>2021-09-27T08:33:08.000Z</time>
      </trkpt>
      <trkpt lat="39.91068013943731784820556640625" lon="-0.5681253969669342041015625">
        <ele>470.600006103515625</ele>
        <time>2021-09-27T08:33:09.000Z</time>
      </trkpt>
      <trkpt lat="39.910619370639324188232421875" lon="-0.56796622462570667266845703125">
        <ele>469.600006103515625</ele>
        <time>2021-09-27T08:33:11.000Z</time>
      </trkpt>
      <trkpt lat="39.91054334677755832672119140625" lon="-0.5678097344934940338134765625">
        <ele>468.79998779296875</ele>
        <time>2021-09-27T08:33:13.000Z</time>
      </trkpt>
      <trkpt lat="39.9104411713778972625732421875" lon="-0.5676806531846523284912109375">
        <ele>467.600006103515625</ele>
        <time>2021-09-27T08:33:15.000Z</time>
      </trkpt>
      <trkpt lat="39.91031737066805362701416015625" lon="-0.56755903176963329315185546875">
        <ele>466.399993896484375</ele>
        <time>2021-09-27T08:33:17.000Z</time>
      </trkpt>
      <trkpt lat="39.910192899405956268310546875" lon="-0.567447803914546966552734375">
        <ele>465</ele>
        <time>2021-09-27T08:33:19.000Z</time>
      </trkpt>
      <trkpt lat="39.9101022072136402130126953125" lon="-0.56735493242740631103515625">
        <ele>464</ele>
        <time>2021-09-27T08:33:21.000Z</time>
      </trkpt>
      <trkpt lat="39.91004009731113910675048828125" lon="-0.56728695519268512725830078125">
        <ele>463.399993896484375</ele>
        <time>2021-09-27T08:33:23.000Z</time>
      </trkpt>
      <trkpt lat="39.91000891663134098052978515625" lon="-0.5672080814838409423828125">
        <ele>462.79998779296875</ele>
        <time>2021-09-27T08:33:25.000Z</time>
      </trkpt>
      <trkpt lat="39.910013861954212188720703125" lon="-0.5670976080000400543212890625">
        <ele>462.399993896484375</ele>
        <time>2021-09-27T08:33:27.000Z</time>
      </trkpt>
      <trkpt lat="39.91001729853451251983642578125" lon="-0.5670389346778392791748046875">
        <ele>462.20001220703125</ele>
        <time>2021-09-27T08:33:28.000Z</time>
      </trkpt>
      <trkpt lat="39.91002182476222515106201171875" lon="-0.56697933934628963470458984375">
        <ele>462</ele>
        <time>2021-09-27T08:33:29.000Z</time>
      </trkpt>
      <trkpt lat="39.9100274406373500823974609375" lon="-0.56691563688218593597412109375">
        <ele>461.79998779296875</ele>
        <time>2021-09-27T08:33:30.000Z</time>
      </trkpt>
      <trkpt lat="39.910030625760555267333984375" lon="-0.566844642162322998046875">
        <ele>461.600006103515625</ele>
        <time>2021-09-27T08:33:31.000Z</time>
      </trkpt>
      <trkpt lat="39.910032637417316436767578125" lon="-0.5667703785002231597900390625">
        <ele>461.399993896484375</ele>
        <time>2021-09-27T08:33:32.000Z</time>
      </trkpt>
      <trkpt lat="39.9100277759134769439697265625" lon="-0.56669033132493495941162109375">
        <ele>461</ele>
        <time>2021-09-27T08:33:33.000Z</time>
      </trkpt>
      <trkpt lat="39.91000103764235973358154296875" lon="-0.56652638129889965057373046875">
        <ele>460.600006103515625</ele>
        <time>2021-09-27T08:33:35.000Z</time>
      </trkpt>
      <trkpt lat="39.9099670909345149993896484375" lon="-0.56636243127286434173583984375">
        <ele>460</ele>
        <time>2021-09-27T08:33:37.000Z</time>
      </trkpt>
      <trkpt lat="39.90992710925638675689697265625" lon="-0.56619663722813129425048828125">
        <ele>459.600006103515625</ele>
        <time>2021-09-27T08:33:39.000Z</time>
      </trkpt>
      <trkpt lat="39.90989257581532001495361328125" lon="-0.56602363474667072296142578125">
        <ele>459.20001220703125</ele>
        <time>2021-09-27T08:33:41.000Z</time>
      </trkpt>
      <trkpt lat="39.9098477326333522796630859375" lon="-0.56584862060844898223876953125">
        <ele>458.20001220703125</ele>
        <time>2021-09-27T08:33:43.000Z</time>
      </trkpt>
      <trkpt lat="39.90982283838093280792236328125" lon="-0.5657645501196384429931640625">
        <ele>457.79998779296875</ele>
        <time>2021-09-27T08:33:44.000Z</time>
      </trkpt>
      <trkpt lat="39.90980037488043308258056640625" lon="-0.5656814016401767730712890625">
        <ele>457.20001220703125</ele>
        <time>2021-09-27T08:33:45.000Z</time>
      </trkpt>
      <trkpt lat="39.9097796715795993804931640625" lon="-0.56559783406555652618408203125">
        <ele>456.79998779296875</ele>
        <time>2021-09-27T08:33:46.000Z</time>
      </trkpt>
      <trkpt lat="39.90975796245038509368896484375" lon="-0.565512590110301971435546875">
        <ele>456.399993896484375</ele>
        <time>2021-09-27T08:33:47.000Z</time>
      </trkpt>
      <trkpt lat="39.9097122810781002044677734375" lon="-0.5653439462184906005859375">
        <ele>455.399993896484375</ele>
        <time>2021-09-27T08:33:49.000Z</time>
      </trkpt>
      <trkpt lat="39.9096670188009738922119140625" lon="-0.5651670880615711212158203125">
        <ele>455</ele>
        <time>2021-09-27T08:33:51.000Z</time>
      </trkpt>
      <trkpt lat="39.90962150506675243377685546875" lon="-0.5649957619607448577880859375">
        <ele>454.600006103515625</ele>
        <time>2021-09-27T08:33:53.000Z</time>
      </trkpt>
      <trkpt lat="39.9096002988517284393310546875" lon="-0.56491009891033172607421875">
        <ele>454.399993896484375</ele>
        <time>2021-09-27T08:33:54.000Z</time>
      </trkpt>
      <trkpt lat="39.90957892499864101409912109375" lon="-0.564824603497982025146484375">
        <ele>454.20001220703125</ele>
        <time>2021-09-27T08:33:55.000Z</time>
      </trkpt>
      <trkpt lat="39.90953668020665645599365234375" lon="-0.56465051136910915374755859375">
        <ele>453.600006103515625</ele>
        <time>2021-09-27T08:33:57.000Z</time>
      </trkpt>
      <trkpt lat="39.90949041210114955902099609375" lon="-0.5644770897924900054931640625">
        <ele>452.79998779296875</ele>
        <time>2021-09-27T08:33:59.000Z</time>
      </trkpt>
      <trkpt lat="39.90944481454789638519287109375" lon="-0.56430031545460224151611328125">
        <ele>452</ele>
        <time>2021-09-27T08:34:01.000Z</time>
      </trkpt>
      <trkpt lat="39.909422434866428375244140625" lon="-0.5642102099955081939697265625">
        <ele>451.600006103515625</ele>
        <time>2021-09-27T08:34:02.000Z</time>
      </trkpt>
      <trkpt lat="39.90939955227077007293701171875" lon="-0.564122535288333892822265625">
        <ele>451.20001220703125</ele>
        <time>2021-09-27T08:34:03.000Z</time>
      </trkpt>
      <trkpt lat="39.9093505181372165679931640625" lon="-0.5639384686946868896484375">
        <ele>450.399993896484375</ele>
        <time>2021-09-27T08:34:05.000Z</time>
      </trkpt>
      <trkpt lat="39.9093025736510753631591796875" lon="-0.56375448592007160186767578125">
        <ele>449.79998779296875</ele>
        <time>2021-09-27T08:34:07.000Z</time>
      </trkpt>
      <trkpt lat="39.90925437770783901214599609375" lon="-0.56356840766966342926025390625">
        <ele>449.399993896484375</ele>
        <time>2021-09-27T08:34:09.000Z</time>
      </trkpt>
      <trkpt lat="39.90920911543071269989013671875" lon="-0.563382245600223541259765625">
        <ele>449</ele>
        <time>2021-09-27T08:34:11.000Z</time>
      </trkpt>
      <trkpt lat="39.90918598137795925140380859375" lon="-0.5632893741130828857421875">
        <ele>449</ele>
        <time>2021-09-27T08:34:12.000Z</time>
      </trkpt>
      <trkpt lat="39.90916200913488864898681640625" lon="-0.56319574825465679168701171875">
        <ele>448.79998779296875</ele>
        <time>2021-09-27T08:34:13.000Z</time>
      </trkpt>
      <trkpt lat="39.90911473520100116729736328125" lon="-0.56300883181393146514892578125">
        <ele>448.79998779296875</ele>
        <time>2021-09-27T08:34:15.000Z</time>
      </trkpt>
      <trkpt lat="39.9090708978474140167236328125" lon="-0.56281789205968379974365234375">
        <ele>448.600006103515625</ele>
        <time>2021-09-27T08:34:17.000Z</time>
      </trkpt>
      <trkpt lat="39.909028820693492889404296875" lon="-0.562631227076053619384765625">
        <ele>448.399993896484375</ele>
        <time>2021-09-27T08:34:19.000Z</time>
      </trkpt>
      <trkpt lat="39.90898900665342807769775390625" lon="-0.562458224594593048095703125">
        <ele>448.20001220703125</ele>
        <time>2021-09-27T08:34:21.000Z</time>
      </trkpt>
      <trkpt lat="39.908970482647418975830078125" lon="-0.56237733922898769378662109375">
        <ele>448</ele>
        <time>2021-09-27T08:34:22.000Z</time>
      </trkpt>
      <trkpt lat="39.90895380266010761260986328125" lon="-0.562296621501445770263671875">
        <ele>447.79998779296875</ele>
        <time>2021-09-27T08:34:23.000Z</time>
      </trkpt>
      <trkpt lat="39.908922873437404632568359375" lon="-0.56214340031147003173828125">
        <ele>447.600006103515625</ele>
        <time>2021-09-27T08:34:25.000Z</time>
      </trkpt>
      <trkpt lat="39.9088888429105281829833984375" lon="-0.56198783218860626220703125">
        <ele>447.399993896484375</ele>
        <time>2021-09-27T08:34:27.000Z</time>
      </trkpt>
      <trkpt lat="39.90885221399366855621337890625" lon="-0.5618424899876117706298828125">
        <ele>447.20001220703125</ele>
        <time>2021-09-27T08:34:29.000Z</time>
      </trkpt>
      <trkpt lat="39.90881265141069889068603515625" lon="-0.5616969801485538482666015625">
        <ele>447.20001220703125</ele>
        <time>2021-09-27T08:34:31.000Z</time>
      </trkpt>
      <trkpt lat="39.90876705385744571685791015625" lon="-0.56154526770114898681640625">
        <ele>447</ele>
        <time>2021-09-27T08:34:33.000Z</time>
      </trkpt>
      <trkpt lat="39.90874358452856540679931640625" lon="-0.56147024966776371002197265625">
        <ele>447</ele>
        <time>2021-09-27T08:34:34.000Z</time>
      </trkpt>
      <trkpt lat="39.90871994756162166595458984375" lon="-0.56139397434890270233154296875">
        <ele>447</ele>
        <time>2021-09-27T08:34:35.000Z</time>
      </trkpt>
      <trkpt lat="39.90869765169918537139892578125" lon="-0.5613219738006591796875">
        <ele>447</ele>
        <time>2021-09-27T08:34:36.000Z</time>
      </trkpt>
      <trkpt lat="39.908673763275146484375" lon="-0.56125232018530368804931640625">
        <ele>447.20001220703125</ele>
        <time>2021-09-27T08:34:37.000Z</time>
      </trkpt>
      <trkpt lat="39.9086504615843296051025390625" lon="-0.56118057109415531158447265625">
        <ele>447.399993896484375</ele>
        <time>2021-09-27T08:34:38.000Z</time>
      </trkpt>
      <trkpt lat="39.90862573496997356414794921875" lon="-0.561110414564609527587890625">
        <ele>447.600006103515625</ele>
        <time>2021-09-27T08:34:39.000Z</time>
      </trkpt>
      <trkpt lat="39.90857628174126148223876953125" lon="-0.56097202934324741363525390625">
        <ele>448</ele>
        <time>2021-09-27T08:34:41.000Z</time>
      </trkpt>
      <trkpt lat="39.90852213464677333831787109375" lon="-0.560831464827060699462890625">
        <ele>448.399993896484375</ele>
        <time>2021-09-27T08:34:43.000Z</time>
      </trkpt>
      <trkpt lat="39.90846253931522369384765625" lon="-0.56069291196763515472412109375">
        <ele>448.600006103515625</ele>
        <time>2021-09-27T08:34:45.000Z</time>
      </trkpt>
      <trkpt lat="39.90843144245445728302001953125" lon="-0.5606259405612945556640625">
        <ele>448.79998779296875</ele>
        <time>2021-09-27T08:34:46.000Z</time>
      </trkpt>
      <trkpt lat="39.90840042941272258758544921875" lon="-0.56056031025946140289306640625">
        <ele>449</ele>
        <time>2021-09-27T08:34:47.000Z</time>
      </trkpt>
      <trkpt lat="39.908330440521240234375" lon="-0.5604386888444423675537109375">
        <ele>449.20001220703125</ele>
        <time>2021-09-27T08:34:49.000Z</time>
      </trkpt>
      <trkpt lat="39.9082937277853488922119140625" lon="-0.5603904090821743011474609375">
        <ele>449.399993896484375</ele>
        <time>2021-09-27T08:34:50.000Z</time>
      </trkpt>
      <trkpt lat="39.90825240500271320343017578125" lon="-0.56035210378468036651611328125">
        <ele>449.399993896484375</ele>
        <time>2021-09-27T08:34:51.000Z</time>
      </trkpt>
      <trkpt lat="39.9081602878868579864501953125" lon="-0.56027901358902454376220703125">
        <ele>449.399993896484375</ele>
        <time>2021-09-27T08:34:53.000Z</time>
      </trkpt>
      <trkpt lat="39.90811728872358798980712890625" lon="-0.5602341704070568084716796875">
        <ele>449.600006103515625</ele>
        <time>2021-09-27T08:34:54.000Z</time>
      </trkpt>
      <trkpt lat="39.90808174945414066314697265625" lon="-0.56017390452325344085693359375">
        <ele>449.600006103515625</ele>
        <time>2021-09-27T08:34:55.000Z</time>
      </trkpt>
      <trkpt lat="39.90804822184145450592041015625" lon="-0.5601111240684986114501953125">
        <ele>449.79998779296875</ele>
        <time>2021-09-27T08:34:56.000Z</time>
      </trkpt>
      <trkpt lat="39.90801251493394374847412109375" lon="-0.5600474216043949127197265625">
        <ele>450</ele>
        <time>2021-09-27T08:34:57.000Z</time>
      </trkpt>
      <trkpt lat="39.907937832176685333251953125" lon="-0.55992596782743930816650390625">
        <ele>450.20001220703125</ele>
        <time>2021-09-27T08:34:59.000Z</time>
      </trkpt>
      <trkpt lat="39.9078650772571563720703125" lon="-0.5598078668117523193359375">
        <ele>450.399993896484375</ele>
        <time>2021-09-27T08:35:01.000Z</time>
      </trkpt>
      <trkpt lat="39.90779575891792774200439453125" lon="-0.5596960522234439849853515625">
        <ele>450.399993896484375</ele>
        <time>2021-09-27T08:35:03.000Z</time>
      </trkpt>
      <trkpt lat="39.9077631533145904541015625" lon="-0.55964014492928981781005859375">
        <ele>450.600006103515625</ele>
        <time>2021-09-27T08:35:04.000Z</time>
      </trkpt>
      <trkpt lat="39.90773021243512630462646484375" lon="-0.5595906078815460205078125">
        <ele>450.600006103515625</ele>
        <time>2021-09-27T08:35:05.000Z</time>
      </trkpt>
      <trkpt lat="39.90766634233295917510986328125" lon="-0.55949270725250244140625">
        <ele>450.79998779296875</ele>
        <time>2021-09-27T08:35:07.000Z</time>
      </trkpt>
      <trkpt lat="39.9075968563556671142578125" lon="-0.55940084159374237060546875">
        <ele>450.79998779296875</ele>
        <time>2021-09-27T08:35:09.000Z</time>
      </trkpt>
      <trkpt lat="39.9075158871710300445556640625" lon="-0.5593108199536800384521484375">
        <ele>451</ele>
        <time>2021-09-27T08:35:11.000Z</time>
      </trkpt>
      <trkpt lat="39.90742879919707775115966796875" lon="-0.55922515690326690673828125">
        <ele>451</ele>
        <time>2021-09-27T08:35:13.000Z</time>
      </trkpt>
      <trkpt lat="39.90734447725117206573486328125" lon="-0.55915064178407192230224609375">
        <ele>451.20001220703125</ele>
        <time>2021-09-27T08:35:15.000Z</time>
      </trkpt>
      <trkpt lat="39.90726225078105926513671875" lon="-0.5590838380157947540283203125">
        <ele>451.20001220703125</ele>
        <time>2021-09-27T08:35:17.000Z</time>
      </trkpt>
      <trkpt lat="39.90721908397972583770751953125" lon="-0.559056513011455535888671875">
        <ele>451.20001220703125</ele>
        <time>2021-09-27T08:35:18.000Z</time>
      </trkpt>
      <trkpt lat="39.90717767737805843353271484375" lon="-0.5590335465967655181884765625">
        <ele>451.20001220703125</ele>
        <time>2021-09-27T08:35:19.000Z</time>
      </trkpt>
      <trkpt lat="39.90708916448056697845458984375" lon="-0.55899792350828647613525390625">
        <ele>451.20001220703125</ele>
        <time>2021-09-27T08:35:21.000Z</time>
      </trkpt>
      <trkpt lat="39.9070481769740581512451171875" lon="-0.55898183025419712066650390625">
        <ele>451.20001220703125</ele>
        <time>2021-09-27T08:35:22.000Z</time>
      </trkpt>
      <trkpt lat="39.907008446753025054931640625" lon="-0.5589616298675537109375">
        <ele>451.20001220703125</ele>
        <time>2021-09-27T08:35:23.000Z</time>
      </trkpt>
      <trkpt lat="39.90692856721580028533935546875" lon="-0.558929778635501861572265625">
        <ele>451.79998779296875</ele>
        <time>2021-09-27T08:35:25.000Z</time>
      </trkpt>
      <trkpt lat="39.9068493582308292388916015625" lon="-0.55890790186822414398193359375">
        <ele>452.600006103515625</ele>
        <time>2021-09-27T08:35:27.000Z</time>
      </trkpt>
      <trkpt lat="39.9067734181880950927734375" lon="-0.55889415554702281951904296875">
        <ele>453.399993896484375</ele>
        <time>2021-09-27T08:35:29.000Z</time>
      </trkpt>
      <trkpt lat="39.906734861433506011962890625" lon="-0.55888862349092960357666015625">
        <ele>453.79998779296875</ele>
        <time>2021-09-27T08:35:30.000Z</time>
      </trkpt>
      <trkpt lat="39.90669756196439266204833984375" lon="-0.55888795293867588043212890625">
        <ele>454</ele>
        <time>2021-09-27T08:35:31.000Z</time>
      </trkpt>
      <trkpt lat="39.90662162192165851593017578125" lon="-0.5588917247951030731201171875">
        <ele>454.600006103515625</ele>
        <time>2021-09-27T08:35:33.000Z</time>
      </trkpt>
      <trkpt lat="39.9065466038882732391357421875" lon="-0.558902285993099212646484375">
        <ele>454.79998779296875</ele>
        <time>2021-09-27T08:35:35.000Z</time>
      </trkpt>
      <trkpt lat="39.9065113998949527740478515625" lon="-0.55891008116304874420166015625">
        <ele>455</ele>
        <time>2021-09-27T08:35:36.000Z</time>
      </trkpt>
      <trkpt lat="39.90647728554904460906982421875" lon="-0.55891678668558597564697265625">
        <ele>455.20001220703125</ele>
        <time>2021-09-27T08:35:37.000Z</time>
      </trkpt>
      <trkpt lat="39.90640805102884769439697265625" lon="-0.55894159711897373199462890625">
        <ele>455.399993896484375</ele>
        <time>2021-09-27T08:35:39.000Z</time>
      </trkpt>
      <trkpt lat="39.906351305544376373291015625" lon="-0.558976717293262481689453125">
        <ele>455.20001220703125</ele>
        <time>2021-09-27T08:35:41.000Z</time>
      </trkpt>
      <trkpt lat="39.906293638050556182861328125" lon="-0.55902424268424510955810546875">
        <ele>455</ele>
        <time>2021-09-27T08:35:43.000Z</time>
      </trkpt>
      <trkpt lat="39.90623605437576770782470703125" lon="-0.5590650625526905059814453125">
        <ele>454.79998779296875</ele>
        <time>2021-09-27T08:35:45.000Z</time>
      </trkpt>
      <trkpt lat="39.90620638243854045867919921875" lon="-0.55908442474901676177978515625">
        <ele>454.79998779296875</ele>
        <time>2021-09-27T08:35:46.000Z</time>
      </trkpt>
      <trkpt lat="39.90617930889129638671875" lon="-0.55910001508891582489013671875">
        <ele>454.79998779296875</ele>
        <time>2021-09-27T08:35:47.000Z</time>
      </trkpt>
      <trkpt lat="39.90612340159714221954345703125" lon="-0.5591264180839061737060546875">
        <ele>455</ele>
        <time>2021-09-27T08:35:49.000Z</time>
      </trkpt>
      <trkpt lat="39.90606556646525859832763671875" lon="-0.5591569282114505767822265625">
        <ele>455</ele>
        <time>2021-09-27T08:35:51.000Z</time>
      </trkpt>
      <trkpt lat="39.90600789897143840789794921875" lon="-0.55918098427355289459228515625">
        <ele>455.399993896484375</ele>
        <time>2021-09-27T08:35:53.000Z</time>
      </trkpt>
      <trkpt lat="39.90597940050065517425537109375" lon="-0.55919322185218334197998046875">
        <ele>455.399993896484375</ele>
        <time>2021-09-27T08:35:54.000Z</time>
      </trkpt>
      <trkpt lat="39.90594956092536449432373046875" lon="-0.55920814163982868194580078125">
        <ele>455.399993896484375</ele>
        <time>2021-09-27T08:35:55.000Z</time>
      </trkpt>
      <trkpt lat="39.90589306689798831939697265625" lon="-0.5592410825192928314208984375">
        <ele>455.600006103515625</ele>
        <time>2021-09-27T08:35:57.000Z</time>
      </trkpt>
      <trkpt lat="39.9058448709547519683837890625" lon="-0.559262372553348541259765625">
        <ele>455.600006103515625</ele>
        <time>2021-09-27T08:35:59.000Z</time>
      </trkpt>
      <trkpt lat="39.905795417726039886474609375" lon="-0.5592806451022624969482421875">
        <ele>456</ele>
        <time>2021-09-27T08:36:01.000Z</time>
      </trkpt>
      <trkpt lat="39.90573867224156856536865234375" lon="-0.55929849855601787567138671875">
        <ele>456</ele>
        <time>2021-09-27T08:36:03.000Z</time>
      </trkpt>
      <trkpt lat="39.90571000613272190093994140625" lon="-0.5593041144311428070068359375">
        <ele>456.20001220703125</ele>
        <time>2021-09-27T08:36:04.000Z</time>
      </trkpt>
      <trkpt lat="39.905680753290653228759765625" lon="-0.5593047849833965301513671875">
        <ele>456.399993896484375</ele>
        <time>2021-09-27T08:36:05.000Z</time>
      </trkpt>
      <trkpt lat="39.90562467835843563079833984375" lon="-0.55931123904883861541748046875">
        <ele>456.79998779296875</ele>
        <time>2021-09-27T08:36:07.000Z</time>
      </trkpt>
      <trkpt lat="39.90557572804391384124755859375" lon="-0.55931241251528263092041015625">
        <ele>457.20001220703125</ele>
        <time>2021-09-27T08:36:09.000Z</time>
      </trkpt>
      <trkpt lat="39.9055300466716289520263671875" lon="-0.55932565592229366302490234375">
        <ele>457.20001220703125</ele>
        <time>2021-09-27T08:36:11.000Z</time>
      </trkpt>
      <trkpt lat="39.90548193454742431640625" lon="-0.559356249868869781494140625">
        <ele>457.20001220703125</ele>
        <time>2021-09-27T08:36:13.000Z</time>
      </trkpt>
      <trkpt lat="39.90543340332806110382080078125" lon="-0.55939941667020320892333984375">
        <ele>457</ele>
        <time>2021-09-27T08:36:15.000Z</time>
      </trkpt>
      <trkpt lat="39.90541127510368824005126953125" lon="-0.559422969818115234375">
        <ele>457</ele>
        <time>2021-09-27T08:36:16.000Z</time>
      </trkpt>
      <trkpt lat="39.90538679994642734527587890625" lon="-0.55945004336535930633544921875">
        <ele>456.79998779296875</ele>
        <time>2021-09-27T08:36:17.000Z</time>
      </trkpt>
      <trkpt lat="39.9053416214883327484130859375" lon="-0.5595022626221179962158203125">
        <ele>456.600006103515625</ele>
        <time>2021-09-27T08:36:19.000Z</time>
      </trkpt>
      <trkpt lat="39.90530247800052165985107421875" lon="-0.5595599301159381866455078125">
        <ele>456.399993896484375</ele>
        <time>2021-09-27T08:36:21.000Z</time>
      </trkpt>
      <trkpt lat="39.9052635021507740020751953125" lon="-0.55960913188755512237548828125">
        <ele>456.20001220703125</ele>
        <time>2021-09-27T08:36:23.000Z</time>
      </trkpt>
      <trkpt lat="39.90520960651338100433349609375" lon="-0.55964089930057525634765625">
        <ele>456.20001220703125</ele>
        <time>2021-09-27T08:36:25.000Z</time>
      </trkpt>
      <trkpt lat="39.90514925681054592132568359375" lon="-0.55967886932194232940673828125">
        <ele>456.399993896484375</ele>
        <time>2021-09-27T08:36:27.000Z</time>
      </trkpt>
      <trkpt lat="39.9051213450729846954345703125" lon="-0.559700243175029754638671875">
        <ele>456.600006103515625</ele>
        <time>2021-09-27T08:36:28.000Z</time>
      </trkpt>
      <trkpt lat="39.90509561263024806976318359375" lon="-0.559723712503910064697265625">
        <ele>456.600006103515625</ele>
        <time>2021-09-27T08:36:29.000Z</time>
      </trkpt>
      <trkpt lat="39.90504582412540912628173828125" lon="-0.55976905860006809234619140625">
        <ele>456.79998779296875</ele>
        <time>2021-09-27T08:36:31.000Z</time>
      </trkpt>
      <trkpt lat="39.90499771200120449066162109375" lon="-0.55981381796300411224365234375">
        <ele>457</ele>
        <time>2021-09-27T08:36:33.000Z</time>
      </trkpt>
      <trkpt lat="39.9049721471965312957763671875" lon="-0.559837706387042999267578125">
        <ele>457.20001220703125</ele>
        <time>2021-09-27T08:36:34.000Z</time>
      </trkpt>
      <trkpt lat="39.9049439840018749237060546875" lon="-0.559862516820430755615234375">
        <ele>457.20001220703125</ele>
        <time>2021-09-27T08:36:35.000Z</time>
      </trkpt>
      <trkpt lat="39.90488019771873950958251953125" lon="-0.55991490371525287628173828125">
        <ele>457.600006103515625</ele>
        <time>2021-09-27T08:36:37.000Z</time>
      </trkpt>
      <trkpt lat="39.90484692156314849853515625" lon="-0.55994608439505100250244140625">
        <ele>457.600006103515625</ele>
        <time>2021-09-27T08:36:38.000Z</time>
      </trkpt>
      <trkpt lat="39.9048115499317646026611328125" lon="-0.559978522360324859619140625">
        <ele>457.79998779296875</ele>
        <time>2021-09-27T08:36:39.000Z</time>
      </trkpt>
      <trkpt lat="39.9047773517668247222900390625" lon="-0.5600152350962162017822265625">
        <ele>458</ele>
        <time>2021-09-27T08:36:40.000Z</time>
      </trkpt>
      <trkpt lat="39.90474164485931396484375" lon="-0.56005471386015415191650390625">
        <ele>458</ele>
        <time>2021-09-27T08:36:41.000Z</time>
      </trkpt>
      <trkpt lat="39.90467249415814876556396484375" lon="-0.560133419930934906005859375">
        <ele>458.20001220703125</ele>
        <time>2021-09-27T08:36:43.000Z</time>
      </trkpt>
      <trkpt lat="39.904635362327098846435546875" lon="-0.5601728148758411407470703125">
        <ele>458.399993896484375</ele>
        <time>2021-09-27T08:36:44.000Z</time>
      </trkpt>
      <trkpt lat="39.904595129191875457763671875" lon="-0.56021128781139850616455078125">
        <ele>458.600006103515625</ele>
        <time>2021-09-27T08:36:45.000Z</time>
      </trkpt>
      <trkpt lat="39.90455397404730319976806640625" lon="-0.5602492578327655792236328125">
        <ele>458.600006103515625</ele>
        <time>2021-09-27T08:36:46.000Z</time>
      </trkpt>
      <trkpt lat="39.90451323799788951873779296875" lon="-0.560286305844783782958984375">
        <ele>458.20001220703125</ele>
        <time>2021-09-27T08:36:47.000Z</time>
      </trkpt>
      <trkpt lat="39.90443344227969646453857421875" lon="-0.56036383844912052154541015625">
        <ele>457.79998779296875</ele>
        <time>2021-09-27T08:36:49.000Z</time>
      </trkpt>
      <trkpt lat="39.904359094798564910888671875" lon="-0.5604393593966960906982421875">
        <ele>457.20001220703125</ele>
        <time>2021-09-27T08:36:51.000Z</time>
      </trkpt>
      <trkpt lat="39.90432196296751499176025390625" lon="-0.5604769103229045867919921875">
        <ele>457</ele>
        <time>2021-09-27T08:36:52.000Z</time>
      </trkpt>
      <trkpt lat="39.9042843282222747802734375" lon="-0.56051001884043216705322265625">
        <ele>456.600006103515625</ele>
        <time>2021-09-27T08:36:53.000Z</time>
      </trkpt>
      <trkpt lat="39.9042070470750331878662109375" lon="-0.56058344431221485137939453125">
        <ele>456.600006103515625</ele>
        <time>2021-09-27T08:36:55.000Z</time>
      </trkpt>
      <trkpt lat="39.904120378196239471435546875" lon="-0.56066189892590045928955078125">
        <ele>456.399993896484375</ele>
        <time>2021-09-27T08:36:57.000Z</time>
      </trkpt>
      <trkpt lat="39.90407519973814487457275390625" lon="-0.56070112623274326324462890625">
        <ele>456.399993896484375</ele>
        <time>2021-09-27T08:36:58.000Z</time>
      </trkpt>
      <trkpt lat="39.9040249921381473541259765625" lon="-0.56073817424476146697998046875">
        <ele>456.399993896484375</ele>
        <time>2021-09-27T08:36:59.000Z</time>
      </trkpt>
      <trkpt lat="39.903973527252674102783203125" lon="-0.560773797333240509033203125">
        <ele>456.20001220703125</ele>
        <time>2021-09-27T08:37:00.000Z</time>
      </trkpt>
      <trkpt lat="39.90391912870109081268310546875" lon="-0.56080908514559268951416015625">
        <ele>456.20001220703125</ele>
        <time>2021-09-27T08:37:01.000Z</time>
      </trkpt>
      <trkpt lat="39.90380823612213134765625" lon="-0.56087764911353588104248046875">
        <ele>456</ele>
        <time>2021-09-27T08:37:03.000Z</time>
      </trkpt>
      <trkpt lat="39.90369751118123531341552734375" lon="-0.5609359033405780792236328125">
        <ele>456</ele>
        <time>2021-09-27T08:37:05.000Z</time>
      </trkpt>
      <trkpt lat="39.90358150564134120941162109375" lon="-0.5609949119389057159423828125">
        <ele>455.79998779296875</ele>
        <time>2021-09-27T08:37:07.000Z</time>
      </trkpt>
      <trkpt lat="39.90345887839794158935546875" lon="-0.56103489361703395843505859375">
        <ele>455.600006103515625</ele>
        <time>2021-09-27T08:37:09.000Z</time>
      </trkpt>
      <trkpt lat="39.90333373658359050750732421875" lon="-0.56106523610651493072509765625">
        <ele>455.600006103515625</ele>
        <time>2021-09-27T08:37:11.000Z</time>
      </trkpt>
      <trkpt lat="39.903202392160892486572265625" lon="-0.5610864423215389251708984375">
        <ele>455.399993896484375</ele>
        <time>2021-09-27T08:37:13.000Z</time>
      </trkpt>
      <trkpt lat="39.9030617438256740570068359375" lon="-0.5610981769859790802001953125">
        <ele>455.20001220703125</ele>
        <time>2021-09-27T08:37:15.000Z</time>
      </trkpt>
      <trkpt lat="39.90292000584304332733154296875" lon="-0.56110270321369171142578125">
        <ele>455.20001220703125</ele>
        <time>2021-09-27T08:37:17.000Z</time>
      </trkpt>
      <trkpt lat="39.902772568166255950927734375" lon="-0.561093650758266448974609375">
        <ele>454.79998779296875</ele>
        <time>2021-09-27T08:37:19.000Z</time>
      </trkpt>
      <trkpt lat="39.90269503556191921234130859375" lon="-0.56108451448380947113037109375">
        <ele>454.600006103515625</ele>
        <time>2021-09-27T08:37:20.000Z</time>
      </trkpt>
      <trkpt lat="39.902615658938884735107421875" lon="-0.5610743723809719085693359375">
        <ele>454.20001220703125</ele>
        <time>2021-09-27T08:37:21.000Z</time>
      </trkpt>
      <trkpt lat="39.90246319212019443511962890625" lon="-0.56104579009115695953369140625">
        <ele>453.79998779296875</ele>
        <time>2021-09-27T08:37:23.000Z</time>
      </trkpt>
      <trkpt lat="39.90232019685208797454833984375" lon="-0.5610089935362339019775390625">
        <ele>453.399993896484375</ele>
        <time>2021-09-27T08:37:25.000Z</time>
      </trkpt>
      <trkpt lat="39.90217636339366436004638671875" lon="-0.5609563551843166351318359375">
        <ele>452.79998779296875</ele>
        <time>2021-09-27T08:37:27.000Z</time>
      </trkpt>
      <trkpt lat="39.90210578776895999908447265625" lon="-0.5609228275716304779052734375">
        <ele>452.600006103515625</ele>
        <time>2021-09-27T08:37:28.000Z</time>
      </trkpt>
      <trkpt lat="39.902032278478145599365234375" lon="-0.5608839355409145355224609375">
        <ele>452.399993896484375</ele>
        <time>2021-09-27T08:37:29.000Z</time>
      </trkpt>
      <trkpt lat="39.90188417024910449981689453125" lon="-0.56080087088048458099365234375">
        <ele>451.399993896484375</ele>
        <time>2021-09-27T08:37:31.000Z</time>
      </trkpt>
      <trkpt lat="39.90174586884677410125732421875" lon="-0.5607045628130435943603515625">
        <ele>450.79998779296875</ele>
        <time>2021-09-27T08:37:33.000Z</time>
      </trkpt>
      <trkpt lat="39.9016800709068775177001953125" lon="-0.56065343320369720458984375">
        <ele>450.600006103515625</ele>
        <time>2021-09-27T08:37:34.000Z</time>
      </trkpt>
      <trkpt lat="39.901615194976329803466796875" lon="-0.56060054339468479156494140625">
        <ele>450.600006103515625</ele>
        <time>2021-09-27T08:37:35.000Z</time>
      </trkpt>
      <trkpt lat="39.90148837678134441375732421875" lon="-0.5604950152337551116943359375">
        <ele>450.20001220703125</ele>
        <time>2021-09-27T08:37:37.000Z</time>
      </trkpt>
      <trkpt lat="39.90136533044278621673583984375" lon="-0.56038864888250827789306640625">
        <ele>450</ele>
        <time>2021-09-27T08:37:39.000Z</time>
      </trkpt>
      <trkpt lat="39.9012438766658306121826171875" lon="-0.560286305844783782958984375">
        <ele>450.20001220703125</ele>
        <time>2021-09-27T08:37:41.000Z</time>
      </trkpt>
      <trkpt lat="39.901182018220424652099609375" lon="-0.56024230085313320159912109375">
        <ele>449.79998779296875</ele>
        <time>2021-09-27T08:37:42.000Z</time>
      </trkpt>
      <trkpt lat="39.9011261947453022003173828125" lon="-0.560201816260814666748046875">
        <ele>449.600006103515625</ele>
        <time>2021-09-27T08:37:43.000Z</time>
      </trkpt>
      <trkpt lat="39.9010762386023998260498046875" lon="-0.560158230364322662353515625">
        <ele>449.399993896484375</ele>
        <time>2021-09-27T08:37:44.000Z</time>
      </trkpt>
      <trkpt lat="39.90102921612560749053955078125" lon="-0.56010735221207141876220703125">
        <ele>449.20001220703125</ele>
        <time>2021-09-27T08:37:45.000Z</time>
      </trkpt>
      <trkpt lat="39.90097875706851482391357421875" lon="-0.560058653354644775390625">
        <ele>449</ele>
        <time>2021-09-27T08:37:46.000Z</time>
      </trkpt>
      <trkpt lat="39.900926537811756134033203125" lon="-0.56000626645982265472412109375">
        <ele>448.79998779296875</ele>
        <time>2021-09-27T08:37:47.000Z</time>
      </trkpt>
      <trkpt lat="39.90087163634598255157470703125" lon="-0.55995379574596881866455078125">
        <ele>448.79998779296875</ele>
        <time>2021-09-27T08:37:48.000Z</time>
      </trkpt>
      <trkpt lat="39.90081698633730411529541015625" lon="-0.55990375578403472900390625">
        <ele>448.600006103515625</ele>
        <time>2021-09-27T08:37:49.000Z</time>
      </trkpt>
      <trkpt lat="39.900761581957340240478515625" lon="-0.5598563142120838165283203125">
        <ele>448.600006103515625</ele>
        <time>2021-09-27T08:37:50.000Z</time>
      </trkpt>
      <trkpt lat="39.90070215426385402679443359375" lon="-0.55980895645916461944580078125">
        <ele>448.399993896484375</ele>
        <time>2021-09-27T08:37:51.000Z</time>
      </trkpt>
      <trkpt lat="39.90064515732228755950927734375" lon="-0.55976553820073604583740234375">
        <ele>448.20001220703125</ele>
        <time>2021-09-27T08:37:52.000Z</time>
      </trkpt>
      <trkpt lat="39.900589920580387115478515625" lon="-0.5597248859703540802001953125">
        <ele>448</ele>
        <time>2021-09-27T08:37:53.000Z</time>
      </trkpt>
      <trkpt lat="39.90053552202880382537841796875" lon="-0.55967845022678375244140625">
        <ele>448</ele>
        <time>2021-09-27T08:37:54.000Z</time>
      </trkpt>
      <trkpt lat="39.900482632219791412353515625" lon="-0.55963377468287944793701171875">
        <ele>447.79998779296875</ele>
        <time>2021-09-27T08:37:55.000Z</time>
      </trkpt>
      <trkpt lat="39.9004298262298107147216796875" lon="-0.5595904402434825897216796875">
        <ele>447.399993896484375</ele>
        <time>2021-09-27T08:37:56.000Z</time>
      </trkpt>
      <trkpt lat="39.90037593059241771697998046875" lon="-0.55954710580408573150634765625">
        <ele>447</ele>
        <time>2021-09-27T08:37:57.000Z</time>
      </trkpt>
      <trkpt lat="39.90027065388858318328857421875" lon="-0.559457503259181976318359375">
        <ele>446</ele>
        <time>2021-09-27T08:37:59.000Z</time>
      </trkpt>
      <trkpt lat="39.90016906522214412689208984375" lon="-0.55936354212462902069091796875">
        <ele>445</ele>
        <time>2021-09-27T08:38:01.000Z</time>
      </trkpt>
      <trkpt lat="39.90006412379443645477294921875" lon="-0.55927670560777187347412109375">
        <ele>444</ele>
        <time>2021-09-27T08:38:03.000Z</time>
      </trkpt>
      <trkpt lat="39.89996572025120258331298828125" lon="-0.5591928027570247650146484375">
        <ele>443.20001220703125</ele>
        <time>2021-09-27T08:38:05.000Z</time>
      </trkpt>
      <trkpt lat="39.8998705856502056121826171875" lon="-0.55910990573465824127197265625">
        <ele>442.600006103515625</ele>
        <time>2021-09-27T08:38:07.000Z</time>
      </trkpt>
      <trkpt lat="39.8998226411640644073486328125" lon="-0.559071600437164306640625">
        <ele>442.399993896484375</ele>
        <time>2021-09-27T08:38:08.000Z</time>
      </trkpt>
      <trkpt lat="39.899773858487606048583984375" lon="-0.559031032025814056396484375">
        <ele>442</ele>
        <time>2021-09-27T08:38:09.000Z</time>
      </trkpt>
      <trkpt lat="39.8997245728969573974609375" lon="-0.55898702703416347503662109375">
        <ele>441.79998779296875</ele>
        <time>2021-09-27T08:38:10.000Z</time>
      </trkpt>
      <trkpt lat="39.89967268891632556915283203125" lon="-0.5589440278708934783935546875">
        <ele>441.600006103515625</ele>
        <time>2021-09-27T08:38:11.000Z</time>
      </trkpt>
      <trkpt lat="39.89956288598477840423583984375" lon="-0.5588467977941036224365234375">
        <ele>441</ele>
        <time>2021-09-27T08:38:13.000Z</time>
      </trkpt>
      <trkpt lat="39.899508319795131683349609375" lon="-0.5587998591363430023193359375">
        <ele>440.600006103515625</ele>
        <time>2021-09-27T08:38:14.000Z</time>
      </trkpt>
      <trkpt lat="39.8994509875774383544921875" lon="-0.55875736288726329803466796875">
        <ele>440.399993896484375</ele>
        <time>2021-09-27T08:38:15.000Z</time>
      </trkpt>
      <trkpt lat="39.8993918113410472869873046875" lon="-0.5587081611156463623046875">
        <ele>440</ele>
        <time>2021-09-27T08:38:16.000Z</time>
      </trkpt>
      <trkpt lat="39.8993364907801151275634765625" lon="-0.55865862406790256500244140625">
        <ele>439.79998779296875</ele>
        <time>2021-09-27T08:38:17.000Z</time>
      </trkpt>
      <trkpt lat="39.8992818407714366912841796875" lon="-0.55861084721982479095458984375">
        <ele>439.600006103515625</ele>
        <time>2021-09-27T08:38:18.000Z</time>
      </trkpt>
      <trkpt lat="39.89922375418245792388916015625" lon="-0.55856072343885898590087890625">
        <ele>439.20001220703125</ele>
        <time>2021-09-27T08:38:19.000Z</time>
      </trkpt>
      <trkpt lat="39.89911445416510105133056640625" lon="-0.55846248753368854522705078125">
        <ele>438.79998779296875</ele>
        <time>2021-09-27T08:38:21.000Z</time>
      </trkpt>
      <trkpt lat="39.8990028910338878631591796875" lon="-0.558372549712657928466796875">
        <ele>438.399993896484375</ele>
        <time>2021-09-27T08:38:23.000Z</time>
      </trkpt>
      <trkpt lat="39.89889317192137241363525390625" lon="-0.55827909149229526519775390625">
        <ele>438.20001220703125</ele>
        <time>2021-09-27T08:38:25.000Z</time>
      </trkpt>
      <trkpt lat="39.89879325963556766510009765625" lon="-0.5581973679363727569580078125">
        <ele>437.79998779296875</ele>
        <time>2021-09-27T08:38:27.000Z</time>
      </trkpt>
      <trkpt lat="39.898743219673633575439453125" lon="-0.5581561289727687835693359375">
        <ele>437.600006103515625</ele>
        <time>2021-09-27T08:38:28.000Z</time>
      </trkpt>
      <trkpt lat="39.898694269359111785888671875" lon="-0.55811782367527484893798828125">
        <ele>438</ele>
        <time>2021-09-27T08:38:29.000Z</time>
      </trkpt>
      <trkpt lat="39.89859259687364101409912109375" lon="-0.55803366936743259429931640625">
        <ele>437.20001220703125</ele>
        <time>2021-09-27T08:38:31.000Z</time>
      </trkpt>
      <trkpt lat="39.89849067293107509613037109375" lon="-0.55794306099414825439453125">
        <ele>436.600006103515625</ele>
        <time>2021-09-27T08:38:33.000Z</time>
      </trkpt>
      <trkpt lat="39.8984409682452678680419921875" lon="-0.5578936077654361724853515625">
        <ele>436.600006103515625</ele>
        <time>2021-09-27T08:38:34.000Z</time>
      </trkpt>
      <trkpt lat="39.8983936943113803863525390625" lon="-0.5578436516225337982177734375">
        <ele>436.79998779296875</ele>
        <time>2021-09-27T08:38:35.000Z</time>
      </trkpt>
      <trkpt lat="39.89830057136714458465576171875" lon="-0.55774583481252193450927734375">
        <ele>436.79998779296875</ele>
        <time>2021-09-27T08:38:37.000Z</time>
      </trkpt>
      <trkpt lat="39.8982052691280841827392578125" lon="-0.55764265358448028564453125">
        <ele>436.399993896484375</ele>
        <time>2021-09-27T08:38:39.000Z</time>
      </trkpt>
      <trkpt lat="39.89810309372842311859130859375" lon="-0.5575281567871570587158203125">
        <ele>435</ele>
        <time>2021-09-27T08:38:41.000Z</time>
      </trkpt>
      <trkpt lat="39.89800821058452129364013671875" lon="-0.5574004165828227996826171875">
        <ele>433.79998779296875</ele>
        <time>2021-09-27T08:38:43.000Z</time>
      </trkpt>
      <trkpt lat="39.89791852422058582305908203125" lon="-0.55725532583892345428466796875">
        <ele>433</ele>
        <time>2021-09-27T08:38:45.000Z</time>
      </trkpt>
      <trkpt lat="39.89783202297985553741455078125" lon="-0.557101853191852569580078125">
        <ele>433</ele>
        <time>2021-09-27T08:38:47.000Z</time>
      </trkpt>
      <trkpt lat="39.8977907001972198486328125" lon="-0.55702515877783298492431640625">
        <ele>433.399993896484375</ele>
        <time>2021-09-27T08:38:48.000Z</time>
      </trkpt>
      <trkpt lat="39.897749461233615875244140625" lon="-0.55694737471640110015869140625">
        <ele>433.79998779296875</ele>
        <time>2021-09-27T08:38:49.000Z</time>
      </trkpt>
      <trkpt lat="39.89770696498453617095947265625" lon="-0.55686892010271549224853515625">
        <ele>434</ele>
        <time>2021-09-27T08:38:50.000Z</time>
      </trkpt>
      <trkpt lat="39.8976644687354564666748046875" lon="-0.55679080076515674591064453125">
        <ele>434.399993896484375</ele>
        <time>2021-09-27T08:38:51.000Z</time>
      </trkpt>
      <trkpt lat="39.89757922478020191192626953125" lon="-0.556643195450305938720703125">
        <ele>435</ele>
        <time>2021-09-27T08:38:53.000Z</time>
      </trkpt>
      <trkpt lat="39.8975372314453125" lon="-0.55656549520790576934814453125">
        <ele>434.79998779296875</ele>
        <time>2021-09-27T08:38:54.000Z</time>
      </trkpt>
      <trkpt lat="39.89749431610107421875" lon="-0.5564888007938861846923828125">
        <ele>434.399993896484375</ele>
        <time>2021-09-27T08:38:55.000Z</time>
      </trkpt>
      <trkpt lat="39.8974076472222805023193359375" lon="-0.55633951909840106964111328125">
        <ele>434</ele>
        <time>2021-09-27T08:38:57.000Z</time>
      </trkpt>
      <trkpt lat="39.89731938578188419342041015625" lon="-0.55619903840124607086181640625">
        <ele>433.399993896484375</ele>
        <time>2021-09-27T08:38:59.000Z</time>
      </trkpt>
      <trkpt lat="39.89722936414182186126708984375" lon="-0.55605947971343994140625">
        <ele>432.600006103515625</ele>
        <time>2021-09-27T08:39:01.000Z</time>
      </trkpt>
      <trkpt lat="39.89713816903531551361083984375" lon="-0.5559111200273036956787109375">
        <ele>431.600006103515625</ele>
        <time>2021-09-27T08:39:03.000Z</time>
      </trkpt>
      <trkpt lat="39.8970928229391574859619140625" lon="-0.555821768939495086669921875">
        <ele>431.20001220703125</ele>
        <time>2021-09-27T08:39:04.000Z</time>
      </trkpt>
      <trkpt lat="39.8970542661845684051513671875" lon="-0.55571674369275569915771484375">
        <ele>431.20001220703125</ele>
        <time>2021-09-27T08:39:05.000Z</time>
      </trkpt>
      <trkpt lat="39.897011853754520416259765625" lon="-0.55562085472047328948974609375">
        <ele>431.399993896484375</ele>
        <time>2021-09-27T08:39:06.000Z</time>
      </trkpt>
      <trkpt lat="39.896965920925140380859375" lon="-0.55552932433784008026123046875">
        <ele>431</ele>
        <time>2021-09-27T08:39:07.000Z</time>
      </trkpt>
      <trkpt lat="39.8968668468296527862548828125" lon="-0.55534441955387592315673828125">
        <ele>429.79998779296875</ele>
        <time>2021-09-27T08:39:09.000Z</time>
      </trkpt>
      <trkpt lat="39.8968175612390041351318359375" lon="-0.55524618364870548248291015625">
        <ele>429.399993896484375</ele>
        <time>2021-09-27T08:39:10.000Z</time>
      </trkpt>
      <trkpt lat="39.89676768891513347625732421875" lon="-0.55514425970613956451416015625">
        <ele>428.79998779296875</ele>
        <time>2021-09-27T08:39:11.000Z</time>
      </trkpt>
      <trkpt lat="39.89671639166772365570068359375" lon="-0.55504493415355682373046875">
        <ele>428.20001220703125</ele>
        <time>2021-09-27T08:39:12.000Z</time>
      </trkpt>
      <trkpt lat="39.89666475914418697357177734375" lon="-0.5549441836774349212646484375">
        <ele>428</ele>
        <time>2021-09-27T08:39:13.000Z</time>
      </trkpt>
      <trkpt lat="39.89661061204969882965087890625" lon="-0.554845444858074188232421875">
        <ele>427.79998779296875</ele>
        <time>2021-09-27T08:39:14.000Z</time>
      </trkpt>
      <trkpt lat="39.89655629731714725494384765625" lon="-0.55474930442869663238525390625">
        <ele>427.600006103515625</ele>
        <time>2021-09-27T08:39:15.000Z</time>
      </trkpt>
      <trkpt lat="39.8965030722320079803466796875" lon="-0.55465257726609706878662109375">
        <ele>427.399993896484375</ele>
        <time>2021-09-27T08:39:16.000Z</time>
      </trkpt>
      <trkpt lat="39.89645152352750301361083984375" lon="-0.55455652065575122833251953125">
        <ele>427.20001220703125</ele>
        <time>2021-09-27T08:39:17.000Z</time>
      </trkpt>
      <trkpt lat="39.8963396251201629638671875" lon="-0.55437211878597736358642578125">
        <ele>426.600006103515625</ele>
        <time>2021-09-27T08:39:19.000Z</time>
      </trkpt>
      <trkpt lat="39.89628338254988193511962890625" lon="-0.5542771518230438232421875">
        <ele>426.399993896484375</ele>
        <time>2021-09-27T08:39:20.000Z</time>
      </trkpt>
      <trkpt lat="39.896230660378932952880859375" lon="-0.554182939231395721435546875">
        <ele>426.20001220703125</ele>
        <time>2021-09-27T08:39:21.000Z</time>
      </trkpt>
      <trkpt lat="39.896131418645381927490234375" lon="-0.5539923347532749176025390625">
        <ele>427</ele>
        <time>2021-09-27T08:39:23.000Z</time>
      </trkpt>
      <trkpt lat="39.89603050053119659423828125" lon="-0.553803406655788421630859375">
        <ele>426.79998779296875</ele>
        <time>2021-09-27T08:39:25.000Z</time>
      </trkpt>
      <trkpt lat="39.8959347791969776153564453125" lon="-0.55361791513860225677490234375">
        <ele>427.399993896484375</ele>
        <time>2021-09-27T08:39:27.000Z</time>
      </trkpt>
      <trkpt lat="39.89584115333855152130126953125" lon="-0.553441308438777923583984375">
        <ele>428</ele>
        <time>2021-09-27T08:39:29.000Z</time>
      </trkpt>
      <trkpt lat="39.89579387940466403961181640625" lon="-0.55335673503577709197998046875">
        <ele>428.399993896484375</ele>
        <time>2021-09-27T08:39:30.000Z</time>
      </trkpt>
      <trkpt lat="39.89574744366109371185302734375" lon="-0.55327593348920345306396484375">
        <ele>428.79998779296875</ele>
        <time>2021-09-27T08:39:31.000Z</time>
      </trkpt>
      <trkpt lat="39.89565901458263397216796875" lon="-0.553119443356990814208984375">
        <ele>429.399993896484375</ele>
        <time>2021-09-27T08:39:33.000Z</time>
      </trkpt>
      <trkpt lat="39.89557578228414058685302734375" lon="-0.55296764709055423736572265625">
        <ele>430</ele>
        <time>2021-09-27T08:39:35.000Z</time>
      </trkpt>
      <trkpt lat="39.89553630352020263671875" lon="-0.55289321579039096832275390625">
        <ele>429.79998779296875</ele>
        <time>2021-09-27T08:39:36.000Z</time>
      </trkpt>
      <trkpt lat="39.8954947292804718017578125" lon="-0.5528249032795429229736328125">
        <ele>429.79998779296875</ele>
        <time>2021-09-27T08:39:37.000Z</time>
      </trkpt>
      <trkpt lat="39.89541468210518360137939453125" lon="-0.5526807345449924468994140625">
        <ele>430</ele>
        <time>2021-09-27T08:39:39.000Z</time>
      </trkpt>
      <trkpt lat="39.89534025080502033233642578125" lon="-0.5525369010865688323974609375">
        <ele>431</ele>
        <time>2021-09-27T08:39:41.000Z</time>
      </trkpt>
      <trkpt lat="39.89526498131453990936279296875" lon="-0.5523942410945892333984375">
        <ele>432.399993896484375</ele>
        <time>2021-09-27T08:39:43.000Z</time>
      </trkpt>
      <trkpt lat="39.89518820308148860931396484375" lon="-0.5522522516548633575439453125">
        <ele>433.399993896484375</ele>
        <time>2021-09-27T08:39:45.000Z</time>
      </trkpt>
      <trkpt lat="39.89511427469551563262939453125" lon="-0.55211487226188182830810546875">
        <ele>434.600006103515625</ele>
        <time>2021-09-27T08:39:47.000Z</time>
      </trkpt>
      <trkpt lat="39.8950405977666378021240234375" lon="-0.5519753135740756988525390625">
        <ele>436.399993896484375</ele>
        <time>2021-09-27T08:39:49.000Z</time>
      </trkpt>
      <trkpt lat="39.8949663341045379638671875" lon="-0.5518422089517116546630859375">
        <ele>438</ele>
        <time>2021-09-27T08:39:51.000Z</time>
      </trkpt>
      <trkpt lat="39.894932471215724945068359375" lon="-0.55177926085889339447021484375">
        <ele>438.600006103515625</ele>
        <time>2021-09-27T08:39:52.000Z</time>
      </trkpt>
      <trkpt lat="39.894900284707546234130859375" lon="-0.55171421729028224945068359375">
        <ele>438.79998779296875</ele>
        <time>2021-09-27T08:39:53.000Z</time>
      </trkpt>
      <trkpt lat="39.894830882549285888671875" lon="-0.55159133858978748321533203125">
        <ele>439.399993896484375</ele>
        <time>2021-09-27T08:39:55.000Z</time>
      </trkpt>
      <trkpt lat="39.89476709626615047454833984375" lon="-0.55147684179246425628662109375">
        <ele>440</ele>
        <time>2021-09-27T08:39:57.000Z</time>
      </trkpt>
      <trkpt lat="39.89473457448184490203857421875" lon="-0.5514177493751049041748046875">
        <ele>440.20001220703125</ele>
        <time>2021-09-27T08:39:58.000Z</time>
      </trkpt>
      <trkpt lat="39.894702471792697906494140625" lon="-0.5513600818812847137451171875">
        <ele>440.600006103515625</ele>
        <time>2021-09-27T08:39:59.000Z</time>
      </trkpt>
      <trkpt lat="39.89464572630822658538818359375" lon="-0.5512605048716068267822265625">
        <ele>441</ele>
        <time>2021-09-27T08:40:01.000Z</time>
      </trkpt>
      <trkpt lat="39.8945869691669940948486328125" lon="-0.55115380324423313140869140625">
        <ele>442.20001220703125</ele>
        <time>2021-09-27T08:40:03.000Z</time>
      </trkpt>
      <trkpt lat="39.89455570466816425323486328125" lon="-0.55110367946326732635498046875">
        <ele>442.79998779296875</ele>
        <time>2021-09-27T08:40:04.000Z</time>
      </trkpt>
      <trkpt lat="39.8945256136357784271240234375" lon="-0.5510558187961578369140625">
        <ele>443.79998779296875</ele>
        <time>2021-09-27T08:40:05.000Z</time>
      </trkpt>
      <trkpt lat="39.8944719694554805755615234375" lon="-0.55096353404223918914794921875">
        <ele>445.399993896484375</ele>
        <time>2021-09-27T08:40:07.000Z</time>
      </trkpt>
      <trkpt lat="39.89441891200840473175048828125" lon="-0.5508814752101898193359375">
        <ele>447.20001220703125</ele>
        <time>2021-09-27T08:40:09.000Z</time>
      </trkpt>
      <trkpt lat="39.8943744041025638580322265625" lon="-0.5507834069430828094482421875">
        <ele>448.600006103515625</ele>
        <time>2021-09-27T08:40:11.000Z</time>
      </trkpt>
      <trkpt lat="39.894351772964000701904296875" lon="-0.55073722265660762786865234375">
        <ele>449.399993896484375</ele>
        <time>2021-09-27T08:40:12.000Z</time>
      </trkpt>
      <trkpt lat="39.89432754926383495330810546875" lon="-0.55069212801754474639892578125">
        <ele>449.600006103515625</ele>
        <time>2021-09-27T08:40:13.000Z</time>
      </trkpt>
      <trkpt lat="39.894269295036792755126953125" lon="-0.55059053935110569000244140625">
        <ele>450.20001220703125</ele>
        <time>2021-09-27T08:40:15.000Z</time>
      </trkpt>
      <trkpt lat="39.89424238912761211395263671875" lon="-0.55053882300853729248046875">
        <ele>450.399993896484375</ele>
        <time>2021-09-27T08:40:16.000Z</time>
      </trkpt>
      <trkpt lat="39.89421120844781398773193359375" lon="-0.55048643611371517181396484375">
        <ele>450.600006103515625</ele>
        <time>2021-09-27T08:40:17.000Z</time>
      </trkpt>
      <trkpt lat="39.89415471442043781280517578125" lon="-0.5503891222178936004638671875">
        <ele>450.79998779296875</ele>
        <time>2021-09-27T08:40:19.000Z</time>
      </trkpt>
      <trkpt lat="39.894098304212093353271484375" lon="-0.55029549635946750640869140625">
        <ele>451.20001220703125</ele>
        <time>2021-09-27T08:40:21.000Z</time>
      </trkpt>
      <trkpt lat="39.89404658786952495574951171875" lon="-0.55019809864461421966552734375">
        <ele>451.399993896484375</ele>
        <time>2021-09-27T08:40:23.000Z</time>
      </trkpt>
      <trkpt lat="39.89399746991693973541259765625" lon="-0.55008511058986186981201171875">
        <ele>450</ele>
        <time>2021-09-27T08:40:25.000Z</time>
      </trkpt>
      <trkpt lat="39.89394466392695903778076171875" lon="-0.54998989216983318328857421875">
        <ele>449</ele>
        <time>2021-09-27T08:40:27.000Z</time>
      </trkpt>
      <trkpt lat="39.893879704177379608154296875" lon="-0.549868606030941009521484375">
        <ele>447.600006103515625</ele>
        <time>2021-09-27T08:40:29.000Z</time>
      </trkpt>
      <trkpt lat="39.89384542219340801239013671875" lon="-0.54980884306132793426513671875">
        <ele>447</ele>
        <time>2021-09-27T08:40:30.000Z</time>
      </trkpt>
      <trkpt lat="39.89381340332329273223876953125" lon="-0.5497495830059051513671875">
        <ele>446.399993896484375</ele>
        <time>2021-09-27T08:40:31.000Z</time>
      </trkpt>
      <trkpt lat="39.89378356374800205230712890625" lon="-0.5496932566165924072265625">
        <ele>445.79998779296875</ele>
        <time>2021-09-27T08:40:32.000Z</time>
      </trkpt>
      <trkpt lat="39.89375540055334568023681640625" lon="-0.54964003153145313262939453125">
        <ele>445.399993896484375</ele>
        <time>2021-09-27T08:40:33.000Z</time>
      </trkpt>
      <trkpt lat="39.8937256447970867156982421875" lon="-0.54958571679890155792236328125">
        <ele>445.20001220703125</ele>
        <time>2021-09-27T08:40:34.000Z</time>
      </trkpt>
      <trkpt lat="39.89369203336536884307861328125" lon="-0.54953098297119140625">
        <ele>445.20001220703125</ele>
        <time>2021-09-27T08:40:35.000Z</time>
      </trkpt>
      <trkpt lat="39.89365850575268268585205078125" lon="-0.5494773387908935546875">
        <ele>445</ele>
        <time>2021-09-27T08:40:36.000Z</time>
      </trkpt>
      <trkpt lat="39.89362648688256740570068359375" lon="-0.54942310787737369537353515625">
        <ele>444.79998779296875</ele>
        <time>2021-09-27T08:40:37.000Z</time>
      </trkpt>
      <trkpt lat="39.893594719469547271728515625" lon="-0.54936577565968036651611328125">
        <ele>444.600006103515625</ele>
        <time>2021-09-27T08:40:38.000Z</time>
      </trkpt>
      <trkpt lat="39.89356144331395626068115234375" lon="-0.5493128858506679534912109375">
        <ele>444.600006103515625</ele>
        <time>2021-09-27T08:40:39.000Z</time>
      </trkpt>
      <trkpt lat="39.893533028662204742431640625" lon="-0.5492599122226238250732421875">
        <ele>444.399993896484375</ele>
        <time>2021-09-27T08:40:40.000Z</time>
      </trkpt>
      <trkpt lat="39.89350654184818267822265625" lon="-0.54920970462262630462646484375">
        <ele>444.20001220703125</ele>
        <time>2021-09-27T08:40:41.000Z</time>
      </trkpt>
      <trkpt lat="39.89345666952431201934814453125" lon="-0.54911968298256397247314453125">
        <ele>444</ele>
        <time>2021-09-27T08:40:43.000Z</time>
      </trkpt>
      <trkpt lat="39.89342632703483104705810546875" lon="-0.5490763485431671142578125">
        <ele>444</ele>
        <time>2021-09-27T08:40:45.000Z</time>
      </trkpt>
      <trkpt lat="39.89342347718775272369384765625" lon="-0.549066960811614990234375">
        <ele>444</ele>
        <time>2021-09-27T08:40:47.000Z</time>
      </trkpt>
      <trkpt lat="39.893362037837505340576171875" lon="-0.54897115565836429595947265625">
        <ele>444</ele>
        <time>2021-09-27T08:41:38.000Z</time>
      </trkpt>
      <trkpt lat="39.89335156045854091644287109375" lon="-0.54895740933716297149658203125">
        <ele>444</ele>
        <time>2021-09-27T08:41:39.000Z</time>
      </trkpt>
      <trkpt lat="39.8933280073106288909912109375" lon="-0.5489199422299861907958984375">
        <ele>444</ele>
        <time>2021-09-27T08:41:41.000Z</time>
      </trkpt>
      <trkpt lat="39.8933152668178081512451171875" lon="-0.5488961376249790191650390625">
        <ele>444</ele>
        <time>2021-09-27T08:41:42.000Z</time>
      </trkpt>
      <trkpt lat="39.89329892210662364959716796875" lon="-0.548870824277400970458984375">
        <ele>444</ele>
        <time>2021-09-27T08:41:43.000Z</time>
      </trkpt>
      <trkpt lat="39.893260784447193145751953125" lon="-0.54882246069610118865966796875">
        <ele>444</ele>
        <time>2021-09-27T08:41:45.000Z</time>
      </trkpt>
      <trkpt lat="39.89321107976138591766357421875" lon="-0.54877703078091144561767578125">
        <ele>444.399993896484375</ele>
        <time>2021-09-27T08:41:47.000Z</time>
      </trkpt>
      <trkpt lat="39.89315425045788288116455078125" lon="-0.54871768690645694732666015625">
        <ele>444.79998779296875</ele>
        <time>2021-09-27T08:41:49.000Z</time>
      </trkpt>
      <trkpt lat="39.8930953256785869598388671875" lon="-0.54865230806171894073486328125">
        <ele>445</ele>
        <time>2021-09-27T08:41:51.000Z</time>
      </trkpt>
      <trkpt lat="39.8930646479129791259765625" lon="-0.548621378839015960693359375">
        <ele>445</ele>
        <time>2021-09-27T08:41:52.000Z</time>
      </trkpt>
      <trkpt lat="39.89303355105221271514892578125" lon="-0.54858994670212268829345703125">
        <ele>445</ele>
        <time>2021-09-27T08:41:53.000Z</time>
      </trkpt>
      <trkpt lat="39.8929669149219989776611328125" lon="-0.54854468442499637603759765625">
        <ele>445.20001220703125</ele>
        <time>2021-09-27T08:41:55.000Z</time>
      </trkpt>
      <trkpt lat="39.8929360695183277130126953125" lon="-0.5485169403254985809326171875">
        <ele>445.20001220703125</ele>
        <time>2021-09-27T08:41:56.000Z</time>
      </trkpt>
      <trkpt lat="39.89290363155305385589599609375" lon="-0.54848492145538330078125">
        <ele>445.20001220703125</ele>
        <time>2021-09-27T08:41:57.000Z</time>
      </trkpt>
      <trkpt lat="39.89282752387225627899169921875" lon="-0.54842884652316570281982421875">
        <ele>444.600006103515625</ele>
        <time>2021-09-27T08:41:59.000Z</time>
      </trkpt>
      <trkpt lat="39.8927473090589046478271484375" lon="-0.54837754927575588226318359375">
        <ele>444.20001220703125</ele>
        <time>2021-09-27T08:42:01.000Z</time>
      </trkpt>
      <trkpt lat="39.8927057348191738128662109375" lon="-0.54835206829011440277099609375">
        <ele>444</ele>
        <time>2021-09-27T08:42:02.000Z</time>
      </trkpt>
      <trkpt lat="39.89266164600849151611328125" lon="-0.54832625202834606170654296875">
        <ele>443.79998779296875</ele>
        <time>2021-09-27T08:42:03.000Z</time>
      </trkpt>
      <trkpt lat="39.89257070235908031463623046875" lon="-0.5482752062380313873291015625">
        <ele>443.399993896484375</ele>
        <time>2021-09-27T08:42:05.000Z</time>
      </trkpt>
      <trkpt lat="39.89247900433838367462158203125" lon="-0.5482262559235095977783203125">
        <ele>443.399993896484375</ele>
        <time>2021-09-27T08:42:07.000Z</time>
      </trkpt>
      <trkpt lat="39.89238403737545013427734375" lon="-0.54818074218928813934326171875">
        <ele>443.399993896484375</ele>
        <time>2021-09-27T08:42:09.000Z</time>
      </trkpt>
      <trkpt lat="39.8922873102128505706787109375" lon="-0.54814168252050876617431640625">
        <ele>443.399993896484375</ele>
        <time>2021-09-27T08:42:11.000Z</time>
      </trkpt>
      <trkpt lat="39.89219133742153644561767578125" lon="-0.54810832254588603973388671875">
        <ele>443.399993896484375</ele>
        <time>2021-09-27T08:42:13.000Z</time>
      </trkpt>
      <trkpt lat="39.892098717391490936279296875" lon="-0.548080913722515106201171875">
        <ele>443.399993896484375</ele>
        <time>2021-09-27T08:42:15.000Z</time>
      </trkpt>
      <trkpt lat="39.89205144345760345458984375" lon="-0.54806775413453578948974609375">
        <ele>443.399993896484375</ele>
        <time>2021-09-27T08:42:16.000Z</time>
      </trkpt>
      <trkpt lat="39.892003498971462249755859375" lon="-0.54805601947009563446044921875">
        <ele>443</ele>
        <time>2021-09-27T08:42:17.000Z</time>
      </trkpt>
      <trkpt lat="39.89195563830435276031494140625" lon="-0.5480505712330341339111328125">
        <ele>442.79998779296875</ele>
        <time>2021-09-27T08:42:18.000Z</time>
      </trkpt>
      <trkpt lat="39.89190668798983097076416015625" lon="-0.54804411716759204864501953125">
        <ele>442.79998779296875</ele>
        <time>2021-09-27T08:42:19.000Z</time>
      </trkpt>
      <trkpt lat="39.89185790531337261199951171875" lon="-0.5480344779789447784423828125">
        <ele>442.600006103515625</ele>
        <time>2021-09-27T08:42:20.000Z</time>
      </trkpt>
      <trkpt lat="39.89180996082723140716552734375" lon="-0.54802617989480495452880859375">
        <ele>442.399993896484375</ele>
        <time>2021-09-27T08:42:21.000Z</time>
      </trkpt>
      <trkpt lat="39.8917099647223949432373046875" lon="-0.54800991900265216827392578125">
        <ele>442.20001220703125</ele>
        <time>2021-09-27T08:42:23.000Z</time>
      </trkpt>
      <trkpt lat="39.891602508723735809326171875" lon="-0.54799474775791168212890625">
        <ele>441.79998779296875</ele>
        <time>2021-09-27T08:42:25.000Z</time>
      </trkpt>
      <trkpt lat="39.89149563945829868316650390625" lon="-0.54797857068479061126708984375">
        <ele>441.399993896484375</ele>
        <time>2021-09-27T08:42:27.000Z</time>
      </trkpt>
      <trkpt lat="39.89144400693476200103759765625" lon="-0.54796834476292133331298828125">
        <ele>441.20001220703125</ele>
        <time>2021-09-27T08:42:28.000Z</time>
      </trkpt>
      <trkpt lat="39.8913931287825107574462890625" lon="-0.5479578673839569091796875">
        <ele>441</ele>
        <time>2021-09-27T08:42:29.000Z</time>
      </trkpt>
      <trkpt lat="39.89128693006932735443115234375" lon="-0.5479449592530727386474609375">
        <ele>440.600006103515625</ele>
        <time>2021-09-27T08:42:31.000Z</time>
      </trkpt>
      <trkpt lat="39.89118685014545917510986328125" lon="-0.54792827926576137542724609375">
        <ele>440.399993896484375</ele>
        <time>2021-09-27T08:42:33.000Z</time>
      </trkpt>
      <trkpt lat="39.89108526147902011871337890625" lon="-0.547918640077114105224609375">
        <ele>440</ele>
        <time>2021-09-27T08:42:35.000Z</time>
      </trkpt>
      <trkpt lat="39.89103547297418117523193359375" lon="-0.5479110963642597198486328125">
        <ele>439.79998779296875</ele>
        <time>2021-09-27T08:42:36.000Z</time>
      </trkpt>
      <trkpt lat="39.89098501391708850860595703125" lon="-0.54789860732853412628173828125">
        <ele>439.399993896484375</ele>
        <time>2021-09-27T08:42:37.000Z</time>
      </trkpt>
      <trkpt lat="39.89093832671642303466796875" lon="-0.54788150824606418609619140625">
        <ele>439.20001220703125</ele>
        <time>2021-09-27T08:42:38.000Z</time>
      </trkpt>
      <trkpt lat="39.890888370573520660400390625" lon="-0.54786264896392822265625">
        <ele>438.79998779296875</ele>
        <time>2021-09-27T08:42:39.000Z</time>
      </trkpt>
      <trkpt lat="39.89078535698354244232177734375" lon="-0.5478344857692718505859375">
        <ele>438.399993896484375</ele>
        <time>2021-09-27T08:42:41.000Z</time>
      </trkpt>
      <trkpt lat="39.8907333053648471832275390625" lon="-0.5478279478847980499267578125">
        <ele>438.20001220703125</ele>
        <time>2021-09-27T08:42:42.000Z</time>
      </trkpt>
      <trkpt lat="39.89068217575550079345703125" lon="-0.54782568477094173431396484375">
        <ele>438</ele>
        <time>2021-09-27T08:42:43.000Z</time>
      </trkpt>
      <trkpt lat="39.8905804194509983062744140625" lon="-0.54782283492386341094970703125">
        <ele>437.600006103515625</ele>
        <time>2021-09-27T08:42:45.000Z</time>
      </trkpt>
      <trkpt lat="39.890489391982555389404296875" lon="-0.54782216437160968780517578125">
        <ele>437.399993896484375</ele>
        <time>2021-09-27T08:42:47.000Z</time>
      </trkpt>
      <trkpt lat="39.89040096290409564971923828125" lon="-0.54782099090516567230224609375">
        <ele>437.399993896484375</ele>
        <time>2021-09-27T08:42:49.000Z</time>
      </trkpt>
      <trkpt lat="39.89032167010009288787841796875" lon="-0.5478095076978206634521484375">
        <ele>437.600006103515625</ele>
        <time>2021-09-27T08:42:51.000Z</time>
      </trkpt>
      <trkpt lat="39.89023952744901180267333984375" lon="-0.54779760539531707763671875">
        <ele>437.79998779296875</ele>
        <time>2021-09-27T08:42:53.000Z</time>
      </trkpt>
      <trkpt lat="39.89015109837055206298828125" lon="-0.54778494872152805328369140625">
        <ele>438</ele>
        <time>2021-09-27T08:42:55.000Z</time>
      </trkpt>
      <trkpt lat="39.89005998708307743072509765625" lon="-0.547771118581295013427734375">
        <ele>438.399993896484375</ele>
        <time>2021-09-27T08:42:57.000Z</time>
      </trkpt>
      <trkpt lat="39.8899745754897594451904296875" lon="-0.547751002013683319091796875">
        <ele>438.600006103515625</ele>
        <time>2021-09-27T08:42:59.000Z</time>
      </trkpt>
      <trkpt lat="39.88988799042999744415283203125" lon="-0.54772610776126384735107421875">
        <ele>438.79998779296875</ele>
        <time>2021-09-27T08:43:01.000Z</time>
      </trkpt>
      <trkpt lat="39.88979930989444255828857421875" lon="-0.54770163260400295257568359375">
        <ele>439.20001220703125</ele>
        <time>2021-09-27T08:43:03.000Z</time>
      </trkpt>
      <trkpt lat="39.88971146754920482635498046875" lon="-0.547672547399997711181640625">
        <ele>439.399993896484375</ele>
        <time>2021-09-27T08:43:05.000Z</time>
      </trkpt>
      <trkpt lat="39.8896242119371891021728515625" lon="-0.5476448871195316314697265625">
        <ele>439.79998779296875</ele>
        <time>2021-09-27T08:43:07.000Z</time>
      </trkpt>
      <trkpt lat="39.8895346932113170623779296875" lon="-0.54760959930717945098876953125">
        <ele>440.20001220703125</ele>
        <time>2021-09-27T08:43:09.000Z</time>
      </trkpt>
      <trkpt lat="39.88944609649479389190673828125" lon="-0.54756752215325832366943359375">
        <ele>440.20001220703125</ele>
        <time>2021-09-27T08:43:11.000Z</time>
      </trkpt>
      <trkpt lat="39.88935791887342929840087890625" lon="-0.54752259515225887298583984375">
        <ele>440.399993896484375</ele>
        <time>2021-09-27T08:43:13.000Z</time>
      </trkpt>
      <trkpt lat="39.88926420919597148895263671875" lon="-0.54747381247580051422119140625">
        <ele>440.399993896484375</ele>
        <time>2021-09-27T08:43:15.000Z</time>
      </trkpt>
      <trkpt lat="39.88917217589914798736572265625" lon="-0.547423772513866424560546875">
        <ele>440.79998779296875</ele>
        <time>2021-09-27T08:43:17.000Z</time>
      </trkpt>
      <trkpt lat="39.88912724889814853668212890625" lon="-0.54739485494792461395263671875">
        <ele>440.79998779296875</ele>
        <time>2021-09-27T08:43:18.000Z</time>
      </trkpt>
      <trkpt lat="39.8890817351639270782470703125" lon="-0.54736082442104816436767578125">
        <ele>441</ele>
        <time>2021-09-27T08:43:19.000Z</time>
      </trkpt>
      <trkpt lat="39.88899112679064273834228515625" lon="-0.54729611612856388092041015625">
        <ele>441.20001220703125</ele>
        <time>2021-09-27T08:43:21.000Z</time>
      </trkpt>
      <trkpt lat="39.88890194334089756011962890625" lon="-0.547222606837749481201171875">
        <ele>441.399993896484375</ele>
        <time>2021-09-27T08:43:23.000Z</time>
      </trkpt>
      <trkpt lat="39.88885835744440555572509765625" lon="-0.54717935621738433837890625">
        <ele>441.600006103515625</ele>
        <time>2021-09-27T08:43:24.000Z</time>
      </trkpt>
      <trkpt lat="39.88881678320467472076416015625" lon="-0.54713417775928974151611328125">
        <ele>441.399993896484375</ele>
        <time>2021-09-27T08:43:25.000Z</time>
      </trkpt>
      <trkpt lat="39.888732545077800750732421875" lon="-0.54704952053725719451904296875">
        <ele>442</ele>
        <time>2021-09-27T08:43:27.000Z</time>
      </trkpt>
      <trkpt lat="39.888655431568622589111328125" lon="-0.5469622649252414703369140625">
        <ele>442.399993896484375</ele>
        <time>2021-09-27T08:43:29.000Z</time>
      </trkpt>
      <trkpt lat="39.88858376629650592803955078125" lon="-0.546863861382007598876953125">
        <ele>442.79998779296875</ele>
        <time>2021-09-27T08:43:31.000Z</time>
      </trkpt>
      <trkpt lat="39.88854990340769290924072265625" lon="-0.54681323468685150146484375">
        <ele>443</ele>
        <time>2021-09-27T08:43:32.000Z</time>
      </trkpt>
      <trkpt lat="39.88851738162338733673095703125" lon="-0.54676285944879055023193359375">
        <ele>443.20001220703125</ele>
        <time>2021-09-27T08:43:33.000Z</time>
      </trkpt>
      <trkpt lat="39.8884554393589496612548828125" lon="-0.54665842093527317047119140625">
        <ele>443.600006103515625</ele>
        <time>2021-09-27T08:43:35.000Z</time>
      </trkpt>
      <trkpt lat="39.888393245637416839599609375" lon="-0.54654861800372600555419921875">
        <ele>443.600006103515625</ele>
        <time>2021-09-27T08:43:37.000Z</time>
      </trkpt>
      <trkpt lat="39.88833599723875522613525390625" lon="-0.5464375577867031097412109375">
        <ele>443.20001220703125</ele>
        <time>2021-09-27T08:43:39.000Z</time>
      </trkpt>
      <trkpt lat="39.8882810957729816436767578125" lon="-0.54633437655866146087646484375">
        <ele>443</ele>
        <time>2021-09-27T08:43:41.000Z</time>
      </trkpt>
      <trkpt lat="39.8882264457643032073974609375" lon="-0.54623111151158809661865234375">
        <ele>443</ele>
        <time>2021-09-27T08:43:43.000Z</time>
      </trkpt>
      <trkpt lat="39.888196103274822235107421875" lon="-0.54617763496935367584228515625">
        <ele>442.79998779296875</ele>
        <time>2021-09-27T08:43:44.000Z</time>
      </trkpt>
      <trkpt lat="39.8881669342517852783203125" lon="-0.546124912798404693603515625">
        <ele>442.79998779296875</ele>
        <time>2021-09-27T08:43:45.000Z</time>
      </trkpt>
      <trkpt lat="39.88810901530086994171142578125" lon="-0.54602273739874362945556640625">
        <ele>442.399993896484375</ele>
        <time>2021-09-27T08:43:47.000Z</time>
      </trkpt>
      <trkpt lat="39.88805503584444522857666015625" lon="-0.5459165386855602264404296875">
        <ele>441.600006103515625</ele>
        <time>2021-09-27T08:43:49.000Z</time>
      </trkpt>
      <trkpt lat="39.88800625316798686981201171875" lon="-0.54580749012529850006103515625">
        <ele>441</ele>
        <time>2021-09-27T08:43:51.000Z</time>
      </trkpt>
      <trkpt lat="39.88795839250087738037109375" lon="-0.54568142630159854888916015625">
        <ele>440.20001220703125</ele>
        <time>2021-09-27T08:43:53.000Z</time>
      </trkpt>
      <trkpt lat="39.88791991956532001495361328125" lon="-0.54554597474634647369384765625">
        <ele>439.20001220703125</ele>
        <time>2021-09-27T08:43:55.000Z</time>
      </trkpt>
      <trkpt lat="39.8878790996968746185302734375" lon="-0.54541312158107757568359375">
        <ele>439</ele>
        <time>2021-09-27T08:43:57.000Z</time>
      </trkpt>
      <trkpt lat="39.887840040028095245361328125" lon="-0.5452811904251575469970703125">
        <ele>439.20001220703125</ele>
        <time>2021-09-27T08:43:59.000Z</time>
      </trkpt>
      <trkpt lat="39.88781045190989971160888671875" lon="-0.5451651848852634429931640625">
        <ele>439.20001220703125</ele>
        <time>2021-09-27T08:44:01.000Z</time>
      </trkpt>
      <trkpt lat="39.88779871724545955657958984375" lon="-0.545126460492610931396484375">
        <ele>439.20001220703125</ele>
        <time>2021-09-27T08:44:02.000Z</time>
      </trkpt>
      <trkpt lat="39.887789078056812286376953125" lon="-0.545089244842529296875">
        <ele>439.20001220703125</ele>
        <time>2021-09-27T08:44:03.000Z</time>
      </trkpt>
      <trkpt lat="39.88776317797601222991943359375" lon="-0.545012466609477996826171875">
        <ele>439.399993896484375</ele>
        <time>2021-09-27T08:44:05.000Z</time>
      </trkpt>
      <trkpt lat="39.88773300312459468841552734375" lon="-0.54492169059813022613525390625">
        <ele>439.399993896484375</ele>
        <time>2021-09-27T08:44:07.000Z</time>
      </trkpt>
      <trkpt lat="39.88772512413561344146728515625" lon="-0.544866956770420074462890625">
        <ele>439.399993896484375</ele>
        <time>2021-09-27T08:44:08.000Z</time>
      </trkpt>
      <trkpt lat="39.88772177137434482574462890625" lon="-0.5448054336011409759521484375">
        <ele>439.79998779296875</ele>
        <time>2021-09-27T08:44:09.000Z</time>
      </trkpt>
      <trkpt lat="39.8877265490591526031494140625" lon="-0.54473645053803920745849609375">
        <ele>440</ele>
        <time>2021-09-27T08:44:10.000Z</time>
      </trkpt>
      <trkpt lat="39.88774255849421024322509765625" lon="-0.54466637782752513885498046875">
        <ele>440.20001220703125</ele>
        <time>2021-09-27T08:44:11.000Z</time>
      </trkpt>
      <trkpt lat="39.88776753656566143035888671875" lon="-0.54459161125123500823974609375">
        <ele>440</ele>
        <time>2021-09-27T08:44:12.000Z</time>
      </trkpt>
      <trkpt lat="39.887798465788364410400390625" lon="-0.54451114498078823089599609375">
        <ele>439.600006103515625</ele>
        <time>2021-09-27T08:44:13.000Z</time>
      </trkpt>
      <trkpt lat="39.88785504363477230072021484375" lon="-0.54434115998446941375732421875">
        <ele>439</ele>
        <time>2021-09-27T08:44:15.000Z</time>
      </trkpt>
      <trkpt lat="39.887931905686855316162109375" lon="-0.54392005316913127899169921875">
        <ele>438.600006103515625</ele>
        <time>2021-09-27T08:44:21.000Z</time>
      </trkpt>
      <trkpt lat="39.88785185851156711578369140625" lon="-0.543863140046596527099609375">
        <ele>439.600006103515625</ele>
        <time>2021-09-27T08:44:23.000Z</time>
      </trkpt>
      <trkpt lat="39.8878050036728382110595703125" lon="-0.5438522435724735260009765625">
        <ele>440.20001220703125</ele>
        <time>2021-09-27T08:44:24.000Z</time>
      </trkpt>
      <trkpt lat="39.88775865174829959869384765625" lon="-0.5438395030796527862548828125">
        <ele>440.600006103515625</ele>
        <time>2021-09-27T08:44:25.000Z</time>
      </trkpt>
      <trkpt lat="39.88766259513795375823974609375" lon="-0.54380941204726696014404296875">
        <ele>441.600006103515625</ele>
        <time>2021-09-27T08:44:27.000Z</time>
      </trkpt>
      <trkpt lat="39.88756771199405193328857421875" lon="-0.543775968253612518310546875">
        <ele>442.600006103515625</ele>
        <time>2021-09-27T08:44:29.000Z</time>
      </trkpt>
      <trkpt lat="39.88751842640340328216552734375" lon="-0.54375794716179370880126953125">
        <ele>443</ele>
        <time>2021-09-27T08:44:30.000Z</time>
      </trkpt>
      <trkpt lat="39.88747282885015010833740234375" lon="-0.5437402613461017608642578125">
        <ele>443.600006103515625</ele>
        <time>2021-09-27T08:44:31.000Z</time>
      </trkpt>
      <trkpt lat="39.88742572255432605743408203125" lon="-0.54372190497815608978271484375">
        <ele>444</ele>
        <time>2021-09-27T08:44:32.000Z</time>
      </trkpt>
      <trkpt lat="39.8873778618872165679931640625" lon="-0.54369877092540264129638671875">
        <ele>444.399993896484375</ele>
        <time>2021-09-27T08:44:33.000Z</time>
      </trkpt>
      <trkpt lat="39.88733134232461452484130859375" lon="-0.54367647506296634674072265625">
        <ele>444.79998779296875</ele>
        <time>2021-09-27T08:44:34.000Z</time>
      </trkpt>
      <trkpt lat="39.88728742115199565887451171875" lon="-0.5436544306576251983642578125">
        <ele>445.20001220703125</ele>
        <time>2021-09-27T08:44:35.000Z</time>
      </trkpt>
      <trkpt lat="39.887241236865520477294921875" lon="-0.54362953640520572662353515625">
        <ele>445.399993896484375</ele>
        <time>2021-09-27T08:44:36.000Z</time>
      </trkpt>
      <trkpt lat="39.8871978186070919036865234375" lon="-0.54360036738216876983642578125">
        <ele>445.399993896484375</ele>
        <time>2021-09-27T08:44:37.000Z</time>
      </trkpt>
      <trkpt lat="39.88711408339440822601318359375" lon="-0.5435322225093841552734375">
        <ele>445</ele>
        <time>2021-09-27T08:44:39.000Z</time>
      </trkpt>
      <trkpt lat="39.88702238537371158599853515625" lon="-0.54346592165529727935791015625">
        <ele>444.600006103515625</ele>
        <time>2021-09-27T08:44:41.000Z</time>
      </trkpt>
      <trkpt lat="39.88692716695368289947509765625" lon="-0.54341060109436511993408203125">
        <ele>444.399993896484375</ele>
        <time>2021-09-27T08:44:43.000Z</time>
      </trkpt>
      <trkpt lat="39.88683949224650859832763671875" lon="-0.54335528053343296051025390625">
        <ele>444</ele>
        <time>2021-09-27T08:44:45.000Z</time>
      </trkpt>
      <trkpt lat="39.88677562214434146881103515625" lon="-0.543313287198543548583984375">
        <ele>443.79998779296875</ele>
        <time>2021-09-27T08:44:47.000Z</time>
      </trkpt>
      <trkpt lat="39.8867223970592021942138671875" lon="-0.5432760715484619140625">
        <ele>443.399993896484375</ele>
        <time>2021-09-27T08:44:49.000Z</time>
      </trkpt>
      <trkpt lat="39.8866610415279865264892578125" lon="-0.54324614815413951873779296875">
        <ele>443.399993896484375</ele>
        <time>2021-09-27T08:44:51.000Z</time>
      </trkpt>
      <trkpt lat="39.886596165597438812255859375" lon="-0.54321060888469219207763671875">
        <ele>443.20001220703125</ele>
        <time>2021-09-27T08:44:53.000Z</time>
      </trkpt>
      <trkpt lat="39.8865242488682270050048828125" lon="-0.5431696213781833648681640625">
        <ele>443</ele>
        <time>2021-09-27T08:44:55.000Z</time>
      </trkpt>
      <trkpt lat="39.88644897937774658203125" lon="-0.5431263707578182220458984375">
        <ele>442.600006103515625</ele>
        <time>2021-09-27T08:44:57.000Z</time>
      </trkpt>
      <trkpt lat="39.88636826165020465850830078125" lon="-0.5430757440626621246337890625">
        <ele>442.399993896484375</ele>
        <time>2021-09-27T08:44:59.000Z</time>
      </trkpt>
      <trkpt lat="39.88632434047758579254150390625" lon="-0.54304766468703746795654296875">
        <ele>442.20001220703125</ele>
        <time>2021-09-27T08:45:00.000Z</time>
      </trkpt>
      <trkpt lat="39.88627958111464977264404296875" lon="-0.5430177412927150726318359375">
        <ele>442</ele>
        <time>2021-09-27T08:45:01.000Z</time>
      </trkpt>
      <trkpt lat="39.8861874639987945556640625" lon="-0.54295144043862819671630859375">
        <ele>442</ele>
        <time>2021-09-27T08:45:03.000Z</time>
      </trkpt>
      <trkpt lat="39.8860944248735904693603515625" lon="-0.54288513958454132080078125">
        <ele>442.600006103515625</ele>
        <time>2021-09-27T08:45:05.000Z</time>
      </trkpt>
      <trkpt lat="39.88600482232868671417236328125" lon="-0.54281967692077159881591796875">
        <ele>443.20001220703125</ele>
        <time>2021-09-27T08:45:07.000Z</time>
      </trkpt>
      <trkpt lat="39.8859237693250179290771484375" lon="-0.542739965021610260009765625">
        <ele>443.600006103515625</ele>
        <time>2021-09-27T08:45:09.000Z</time>
      </trkpt>
      <trkpt lat="39.885832406580448150634765625" lon="-0.54265321232378482818603515625">
        <ele>444</ele>
        <time>2021-09-27T08:45:11.000Z</time>
      </trkpt>
      <trkpt lat="39.88574020564556121826171875" lon="-0.5425651185214519500732421875">
        <ele>444.20001220703125</ele>
        <time>2021-09-27T08:45:13.000Z</time>
      </trkpt>
      <trkpt lat="39.88565010018646717071533203125" lon="-0.54247534833848476409912109375">
        <ele>444.600006103515625</ele>
        <time>2021-09-27T08:45:15.000Z</time>
      </trkpt>
      <trkpt lat="39.88556058146059513092041015625" lon="-0.54238381795585155487060546875">
        <ele>445</ele>
        <time>2021-09-27T08:45:17.000Z</time>
      </trkpt>
      <trkpt lat="39.8854724876582622528076171875" lon="-0.542291700839996337890625">
        <ele>445.20001220703125</ele>
        <time>2021-09-27T08:45:19.000Z</time>
      </trkpt>
      <trkpt lat="39.885430075228214263916015625" lon="-0.5422462709248065948486328125">
        <ele>445.399993896484375</ele>
        <time>2021-09-27T08:45:20.000Z</time>
      </trkpt>
      <trkpt lat="39.8853881657123565673828125" lon="-0.54220511578023433685302734375">
        <ele>445.399993896484375</ele>
        <time>2021-09-27T08:45:21.000Z</time>
      </trkpt>
      <trkpt lat="39.88530275411903858184814453125" lon="-0.54212498478591442108154296875">
        <ele>445</ele>
        <time>2021-09-27T08:45:23.000Z</time>
      </trkpt>
      <trkpt lat="39.88521340303122997283935546875" lon="-0.54204150103032588958740234375">
        <ele>444.399993896484375</ele>
        <time>2021-09-27T08:45:25.000Z</time>
      </trkpt>
      <trkpt lat="39.88512706942856311798095703125" lon="-0.54195214994251728057861328125">
        <ele>443.79998779296875</ele>
        <time>2021-09-27T08:45:27.000Z</time>
      </trkpt>
      <trkpt lat="39.88504325039684772491455078125" lon="-0.54186112247407436370849609375">
        <ele>443.20001220703125</ele>
        <time>2021-09-27T08:45:29.000Z</time>
      </trkpt>
      <trkpt lat="39.88495834171772003173828125" lon="-0.5417671613395214080810546875">
        <ele>442.399993896484375</ele>
        <time>2021-09-27T08:45:31.000Z</time>
      </trkpt>
      <trkpt lat="39.88491266034543514251708984375" lon="-0.54172047413885593414306640625">
        <ele>442.20001220703125</ele>
        <time>2021-09-27T08:45:32.000Z</time>
      </trkpt>
      <trkpt lat="39.8848678171634674072265625" lon="-0.54167504422366619110107421875">
        <ele>442</ele>
        <time>2021-09-27T08:45:33.000Z</time>
      </trkpt>
      <trkpt lat="39.8848264105618000030517578125" lon="-0.54162290878593921661376953125">
        <ele>441.600006103515625</ele>
        <time>2021-09-27T08:45:34.000Z</time>
      </trkpt>
      <trkpt lat="39.8847846686840057373046875" lon="-0.54156825877726078033447265625">
        <ele>441.20001220703125</ele>
        <time>2021-09-27T08:45:35.000Z</time>
      </trkpt>
      <trkpt lat="39.8847057111561298370361328125" lon="-0.54147371090948581695556640625">
        <ele>440.600006103515625</ele>
        <time>2021-09-27T08:45:37.000Z</time>
      </trkpt>
      <trkpt lat="39.88462666980922222137451171875" lon="-0.54137681610882282257080078125">
        <ele>440</ele>
        <time>2021-09-27T08:45:39.000Z</time>
      </trkpt>
      <trkpt lat="39.88455324433743953704833984375" lon="-0.54127405397593975067138671875">
        <ele>439.79998779296875</ele>
        <time>2021-09-27T08:45:41.000Z</time>
      </trkpt>
      <trkpt lat="39.88448518328368663787841796875" lon="-0.54115955717861652374267578125">
        <ele>440.20001220703125</ele>
        <time>2021-09-27T08:45:43.000Z</time>
      </trkpt>
      <trkpt lat="39.88441896624863147735595703125" lon="-0.5410439707338809967041015625">
        <ele>440.399993896484375</ele>
        <time>2021-09-27T08:45:45.000Z</time>
      </trkpt>
      <trkpt lat="39.88435358740389347076416015625" lon="-0.540927462279796600341796875">
        <ele>440.79998779296875</ele>
        <time>2021-09-27T08:45:47.000Z</time>
      </trkpt>
      <trkpt lat="39.88432408310472965240478515625" lon="-0.54086786694824695587158203125">
        <ele>441</ele>
        <time>2021-09-27T08:45:48.000Z</time>
      </trkpt>
      <trkpt lat="39.8842956684529781341552734375" lon="-0.5408072657883167266845703125">
        <ele>441</ele>
        <time>2021-09-27T08:45:49.000Z</time>
      </trkpt>
      <trkpt lat="39.88424277864396572113037109375" lon="-0.54068304598331451416015625">
        <ele>441.20001220703125</ele>
        <time>2021-09-27T08:45:51.000Z</time>
      </trkpt>
      <trkpt lat="39.88419265486299991607666015625" lon="-0.54055404849350452423095703125">
        <ele>441.600006103515625</ele>
        <time>2021-09-27T08:45:53.000Z</time>
      </trkpt>
      <trkpt lat="39.8841481469571590423583984375" lon="-0.540420524775981903076171875">
        <ele>442.600006103515625</ele>
        <time>2021-09-27T08:45:55.000Z</time>
      </trkpt>
      <trkpt lat="39.88410883583128452301025390625" lon="-0.540285743772983551025390625">
        <ele>444.20001220703125</ele>
        <time>2021-09-27T08:45:57.000Z</time>
      </trkpt>
      <trkpt lat="39.88408620469272136688232421875" lon="-0.5402212031185626983642578125">
        <ele>445</ele>
        <time>2021-09-27T08:45:58.000Z</time>
      </trkpt>
      <trkpt lat="39.88406122662127017974853515625" lon="-0.54015724919736385345458984375">
        <ele>445.79998779296875</ele>
        <time>2021-09-27T08:45:59.000Z</time>
      </trkpt>
      <trkpt lat="39.88403926603496074676513671875" lon="-0.5400917865335941314697265625">
        <ele>446.399993896484375</ele>
        <time>2021-09-27T08:46:00.000Z</time>
      </trkpt>
      <trkpt lat="39.8840207420289516448974609375" lon="-0.54002716206014156341552734375">
        <ele>447</ele>
        <time>2021-09-27T08:46:01.000Z</time>
      </trkpt>
      <trkpt lat="39.8839912377297878265380859375" lon="-0.5398969911038875579833984375">
        <ele>448.20001220703125</ele>
        <time>2021-09-27T08:46:03.000Z</time>
      </trkpt>
      <trkpt lat="39.88396047614514827728271484375" lon="-0.53975994698703289031982421875">
        <ele>449.399993896484375</ele>
        <time>2021-09-27T08:46:05.000Z</time>
      </trkpt>
      <trkpt lat="39.88394907675683498382568359375" lon="-0.53969196975231170654296875">
        <ele>450</ele>
        <time>2021-09-27T08:46:06.000Z</time>
      </trkpt>
      <trkpt lat="39.8839409463107585906982421875" lon="-0.53962332196533679962158203125">
        <ele>450.20001220703125</ele>
        <time>2021-09-27T08:46:07.000Z</time>
      </trkpt>
      <trkpt lat="39.88393030129373073577880859375" lon="-0.5394778959453105926513671875">
        <ele>450.600006103515625</ele>
        <time>2021-09-27T08:46:09.000Z</time>
      </trkpt>
      <trkpt lat="39.88391454331576824188232421875" lon="-0.539330877363681793212890625">
        <ele>450</ele>
        <time>2021-09-27T08:46:11.000Z</time>
      </trkpt>
      <trkpt lat="39.88390414975583553314208984375" lon="-0.53918846882879734039306640625">
        <ele>449.399993896484375</ele>
        <time>2021-09-27T08:46:13.000Z</time>
      </trkpt>
      <trkpt lat="39.883898533880710601806640625" lon="-0.5391171388328075408935546875">
        <ele>449.20001220703125</ele>
        <time>2021-09-27T08:46:14.000Z</time>
      </trkpt>
      <trkpt lat="39.8838916607201099395751953125" lon="-0.53904748521745204925537109375">
        <ele>448.79998779296875</ele>
        <time>2021-09-27T08:46:15.000Z</time>
      </trkpt>
      <trkpt lat="39.883882440626621246337890625" lon="-0.538921169936656951904296875">
        <ele>448.399993896484375</ele>
        <time>2021-09-27T08:46:17.000Z</time>
      </trkpt>
      <trkpt lat="39.88387875258922576904296875" lon="-0.53884816356003284454345703125">
        <ele>448</ele>
        <time>2021-09-27T08:46:18.000Z</time>
      </trkpt>
      <trkpt lat="39.88387263379991054534912109375" lon="-0.5387731455266475677490234375">
        <ele>447.600006103515625</ele>
        <time>2021-09-27T08:46:19.000Z</time>
      </trkpt>
      <trkpt lat="39.88385855220258235931396484375" lon="-0.5386313237249851226806640625">
        <ele>447.20001220703125</ele>
        <time>2021-09-27T08:46:21.000Z</time>
      </trkpt>
      <trkpt lat="39.88384329713881015777587890625" lon="-0.5384911783039569854736328125">
        <ele>446.79998779296875</ele>
        <time>2021-09-27T08:46:23.000Z</time>
      </trkpt>
      <trkpt lat="39.8838298022747039794921875" lon="-0.53835245780646800994873046875">
        <ele>446.399993896484375</ele>
        <time>2021-09-27T08:46:25.000Z</time>
      </trkpt>
      <trkpt lat="39.8838111944496631622314453125" lon="-0.53823108784854412078857421875">
        <ele>446.20001220703125</ele>
        <time>2021-09-27T08:46:27.000Z</time>
      </trkpt>
      <trkpt lat="39.88380189053714275360107421875" lon="-0.538091361522674560546875">
        <ele>445.79998779296875</ele>
        <time>2021-09-27T08:46:29.000Z</time>
      </trkpt>
      <trkpt lat="39.88378982059657573699951171875" lon="-0.53794962354004383087158203125">
        <ele>445.20001220703125</ele>
        <time>2021-09-27T08:46:31.000Z</time>
      </trkpt>
      <trkpt lat="39.8837723024189472198486328125" lon="-0.53780344314873218536376953125">
        <ele>444.20001220703125</ele>
        <time>2021-09-27T08:46:33.000Z</time>
      </trkpt>
      <trkpt lat="39.88375679589807987213134765625" lon="-0.53765642456710338592529296875">
        <ele>443</ele>
        <time>2021-09-27T08:46:35.000Z</time>
      </trkpt>
      <trkpt lat="39.883734919130802154541015625" lon="-0.5375115014612674713134765625">
        <ele>441.79998779296875</ele>
        <time>2021-09-27T08:46:37.000Z</time>
      </trkpt>
      <trkpt lat="39.88371773622930049896240234375" lon="-0.537365488708019256591796875">
        <ele>440.600006103515625</ele>
        <time>2021-09-27T08:46:39.000Z</time>
      </trkpt>
      <trkpt lat="39.88371253944933414459228515625" lon="-0.5372895486652851104736328125">
        <ele>440</ele>
        <time>2021-09-27T08:46:40.000Z</time>
      </trkpt>
      <trkpt lat="39.88370616920292377471923828125" lon="-0.537213943898677825927734375">
        <ele>439.399993896484375</ele>
        <time>2021-09-27T08:46:41.000Z</time>
      </trkpt>
      <trkpt lat="39.88369694910943508148193359375" lon="-0.53713984787464141845703125">
        <ele>439.399993896484375</ele>
        <time>2021-09-27T08:46:42.000Z</time>
      </trkpt>
      <trkpt lat="39.8836904950439929962158203125" lon="-0.53706617094576358795166015625">
        <ele>439.79998779296875</ele>
        <time>2021-09-27T08:46:43.000Z</time>
      </trkpt>
      <trkpt lat="39.883683957159519195556640625" lon="-0.5369177274405956268310546875">
        <ele>440.600006103515625</ele>
        <time>2021-09-27T08:46:45.000Z</time>
      </trkpt>
      <trkpt lat="39.88367733545601367950439453125" lon="-0.53677506744861602783203125">
        <ele>441.20001220703125</ele>
        <time>2021-09-27T08:46:47.000Z</time>
      </trkpt>
      <trkpt lat="39.88366685807704925537109375" lon="-0.5366458185017108917236328125">
        <ele>442</ele>
        <time>2021-09-27T08:46:49.000Z</time>
      </trkpt>
      <trkpt lat="39.88366090692579746246337890625" lon="-0.53652034141123294830322265625">
        <ele>442.600006103515625</ele>
        <time>2021-09-27T08:46:51.000Z</time>
      </trkpt>
      <trkpt lat="39.883655123412609100341796875" lon="-0.536455214023590087890625">
        <ele>443</ele>
        <time>2021-09-27T08:46:52.000Z</time>
      </trkpt>
      <trkpt lat="39.883646070957183837890625" lon="-0.536390505731105804443359375">
        <ele>443.20001220703125</ele>
        <time>2021-09-27T08:46:53.000Z</time>
      </trkpt>
      <trkpt lat="39.883640371263027191162109375" lon="-0.5363246239721775054931640625">
        <ele>443.399993896484375</ele>
        <time>2021-09-27T08:46:54.000Z</time>
      </trkpt>
      <trkpt lat="39.88363777287304401397705078125" lon="-0.53625815548002719879150390625">
        <ele>443.79998779296875</ele>
        <time>2021-09-27T08:46:55.000Z</time>
      </trkpt>
      <trkpt lat="39.88363861106336116790771484375" lon="-0.5361190997064113616943359375">
        <ele>444.399993896484375</ele>
        <time>2021-09-27T08:46:57.000Z</time>
      </trkpt>
      <trkpt lat="39.8836381919682025909423828125" lon="-0.5360456742346286773681640625">
        <ele>444.79998779296875</ele>
        <time>2021-09-27T08:46:58.000Z</time>
      </trkpt>
      <trkpt lat="39.8836385272443294525146484375" lon="-0.5359762720763683319091796875">
        <ele>445</ele>
        <time>2021-09-27T08:46:59.000Z</time>
      </trkpt>
      <trkpt lat="39.883654452860355377197265625" lon="-0.53581592626869678497314453125">
        <ele>445.79998779296875</ele>
        <time>2021-09-27T08:47:01.000Z</time>
      </trkpt>
      <trkpt lat="39.88365747034549713134765625" lon="-0.535752139985561370849609375">
        <ele>446</ele>
        <time>2021-09-27T08:47:02.000Z</time>
      </trkpt>
      <trkpt lat="39.88365671597421169281005859375" lon="-0.53568986244499683380126953125">
        <ele>446.399993896484375</ele>
        <time>2021-09-27T08:47:03.000Z</time>
      </trkpt>
      <trkpt lat="39.88364799879491329193115234375" lon="-0.535555668175220489501953125">
        <ele>447.20001220703125</ele>
        <time>2021-09-27T08:47:05.000Z</time>
      </trkpt>
      <trkpt lat="39.88365252502262592315673828125" lon="-0.535418875515460968017578125">
        <ele>447.399993896484375</ele>
        <time>2021-09-27T08:47:07.000Z</time>
      </trkpt>
      <trkpt lat="39.8836599849164485931396484375" lon="-0.5353566817939281463623046875">
        <ele>447.399993896484375</ele>
        <time>2021-09-27T08:47:08.000Z</time>
      </trkpt>
      <trkpt lat="39.883665852248668670654296875" lon="-0.53527303040027618408203125">
        <ele>447.399993896484375</ele>
        <time>2021-09-27T08:47:09.000Z</time>
      </trkpt>
      <trkpt lat="39.8836713843047618865966796875" lon="-0.535104386508464813232421875">
        <ele>447.399993896484375</ele>
        <time>2021-09-27T08:47:11.000Z</time>
      </trkpt>
      <trkpt lat="39.88368026912212371826171875" lon="-0.5349379219114780426025390625">
        <ele>447.399993896484375</ele>
        <time>2021-09-27T08:47:13.000Z</time>
      </trkpt>
      <trkpt lat="39.88369041122496128082275390625" lon="-0.5347712896764278411865234375">
        <ele>447.20001220703125</ele>
        <time>2021-09-27T08:47:15.000Z</time>
      </trkpt>
      <trkpt lat="39.88369627855718135833740234375" lon="-0.5346160568296909332275390625">
        <ele>447.20001220703125</ele>
        <time>2021-09-27T08:47:17.000Z</time>
      </trkpt>
      <trkpt lat="39.88370398990809917449951171875" lon="-0.53445856086909770965576171875">
        <ele>446.79998779296875</ele>
        <time>2021-09-27T08:47:19.000Z</time>
      </trkpt>
      <trkpt lat="39.883705079555511474609375" lon="-0.5343820340931415557861328125">
        <ele>446.600006103515625</ele>
        <time>2021-09-27T08:47:20.000Z</time>
      </trkpt>
      <trkpt lat="39.88370843231678009033203125" lon="-0.53430651314556598663330078125">
        <ele>446.399993896484375</ele>
        <time>2021-09-27T08:47:21.000Z</time>
      </trkpt>
      <trkpt lat="39.8837092705070972442626953125" lon="-0.534160919487476348876953125">
        <ele>446</ele>
        <time>2021-09-27T08:47:23.000Z</time>
      </trkpt>
      <trkpt lat="39.8837132938206195831298828125" lon="-0.53402756340801715850830078125">
        <ele>445.600006103515625</ele>
        <time>2021-09-27T08:47:25.000Z</time>
      </trkpt>
      <trkpt lat="39.88371111452579498291015625" lon="-0.5339646153151988983154296875">
        <ele>445.399993896484375</ele>
        <time>2021-09-27T08:47:26.000Z</time>
      </trkpt>
      <trkpt lat="39.8837042413651943206787109375" lon="-0.5338942073285579681396484375">
        <ele>445.399993896484375</ele>
        <time>2021-09-27T08:47:27.000Z</time>
      </trkpt>
      <trkpt lat="39.8837072588503360748291015625" lon="-0.533759258687496185302734375">
        <ele>445</ele>
        <time>2021-09-27T08:47:29.000Z</time>
      </trkpt>
      <trkpt lat="39.8837156407535076141357421875" lon="-0.53362439386546611785888671875">
        <ele>444.600006103515625</ele>
        <time>2021-09-27T08:47:31.000Z</time>
      </trkpt>
      <trkpt lat="39.88371782004833221435546875" lon="-0.53355381824076175689697265625">
        <ele>444.399993896484375</ele>
        <time>2021-09-27T08:47:32.000Z</time>
      </trkpt>
      <trkpt lat="39.883718825876712799072265625" lon="-0.53348131477832794189453125">
        <ele>444.20001220703125</ele>
        <time>2021-09-27T08:47:33.000Z</time>
      </trkpt>
      <trkpt lat="39.8837171494960784912109375" lon="-0.53340931423008441925048828125">
        <ele>444</ele>
        <time>2021-09-27T08:47:34.000Z</time>
      </trkpt>
      <trkpt lat="39.88371605984866619110107421875" lon="-0.5333399958908557891845703125">
        <ele>444</ele>
        <time>2021-09-27T08:47:35.000Z</time>
      </trkpt>
      <trkpt lat="39.883722849190235137939453125" lon="-0.5332065559923648834228515625">
        <ele>443.600006103515625</ele>
        <time>2021-09-27T08:47:37.000Z</time>
      </trkpt>
      <trkpt lat="39.88373332656919956207275390625" lon="-0.53306263871490955352783203125">
        <ele>443.20001220703125</ele>
        <time>2021-09-27T08:47:39.000Z</time>
      </trkpt>
      <trkpt lat="39.8837501741945743560791015625" lon="-0.5329131893813610076904296875">
        <ele>442.600006103515625</ele>
        <time>2021-09-27T08:47:41.000Z</time>
      </trkpt>
      <trkpt lat="39.8837552033364772796630859375" lon="-0.5328441224992275238037109375">
        <ele>442.20001220703125</ele>
        <time>2021-09-27T08:47:42.000Z</time>
      </trkpt>
      <trkpt lat="39.8837592266499996185302734375" lon="-0.53277480415999889373779296875">
        <ele>442</ele>
        <time>2021-09-27T08:47:43.000Z</time>
      </trkpt>
      <trkpt lat="39.8837707936763763427734375" lon="-0.5326335690915584564208984375">
        <ele>441.399993896484375</ele>
        <time>2021-09-27T08:47:45.000Z</time>
      </trkpt>
      <trkpt lat="39.88378160633146762847900390625" lon="-0.53248931653797626495361328125">
        <ele>440.79998779296875</ele>
        <time>2021-09-27T08:47:47.000Z</time>
      </trkpt>
      <trkpt lat="39.883797280490398406982421875" lon="-0.53233710117638111114501953125">
        <ele>440.20001220703125</ele>
        <time>2021-09-27T08:47:49.000Z</time>
      </trkpt>
      <trkpt lat="39.88381815142929553985595703125" lon="-0.5321812815964221954345703125">
        <ele>439.399993896484375</ele>
        <time>2021-09-27T08:47:51.000Z</time>
      </trkpt>
      <trkpt lat="39.88384715281426906585693359375" lon="-0.5320320837199687957763671875">
        <ele>438.79998779296875</ele>
        <time>2021-09-27T08:47:53.000Z</time>
      </trkpt>
      <trkpt lat="39.88388009369373321533203125" lon="-0.53188246674835681915283203125">
        <ele>438</ele>
        <time>2021-09-27T08:47:55.000Z</time>
      </trkpt>
      <trkpt lat="39.88389526493847370147705078125" lon="-0.5318067781627178192138671875">
        <ele>437.600006103515625</ele>
        <time>2021-09-27T08:47:56.000Z</time>
      </trkpt>
      <trkpt lat="39.883908927440643310546875" lon="-0.5317333526909351348876953125">
        <ele>437.399993896484375</ele>
        <time>2021-09-27T08:47:57.000Z</time>
      </trkpt>
      <trkpt lat="39.88394052721560001373291015625" lon="-0.5315888486802577972412109375">
        <ele>436.600006103515625</ele>
        <time>2021-09-27T08:47:59.000Z</time>
      </trkpt>
      <trkpt lat="39.883975647389888763427734375" lon="-0.53143789060413837432861328125">
        <ele>435.79998779296875</ele>
        <time>2021-09-27T08:48:01.000Z</time>
      </trkpt>
      <trkpt lat="39.88401529379189014434814453125" lon="-0.53129439242184162139892578125">
        <ele>435.399993896484375</ele>
        <time>2021-09-27T08:48:03.000Z</time>
      </trkpt>
      <trkpt lat="39.88403792493045330047607421875" lon="-0.53122767247259616851806640625">
        <ele>435.20001220703125</ele>
        <time>2021-09-27T08:48:04.000Z</time>
      </trkpt>
      <trkpt lat="39.88406156189739704132080078125" lon="-0.5311580188572406768798828125">
        <ele>435.20001220703125</ele>
        <time>2021-09-27T08:48:05.000Z</time>
      </trkpt>
      <trkpt lat="39.88410967402160167694091796875" lon="-0.53102013655006885528564453125">
        <ele>435.20001220703125</ele>
        <time>2021-09-27T08:48:07.000Z</time>
      </trkpt>
      <trkpt lat="39.88416172564029693603515625" lon="-0.5308817513287067413330078125">
        <ele>435</ele>
        <time>2021-09-27T08:48:09.000Z</time>
      </trkpt>
      <trkpt lat="39.8842162080109119415283203125" lon="-0.53074336610734462738037109375">
        <ele>435.399993896484375</ele>
        <time>2021-09-27T08:48:11.000Z</time>
      </trkpt>
      <trkpt lat="39.88427161239087581634521484375" lon="-0.53060338832437992095947265625">
        <ele>435.600006103515625</ele>
        <time>2021-09-27T08:48:13.000Z</time>
      </trkpt>
      <trkpt lat="39.88429491408169269561767578125" lon="-0.5305390991270542144775390625">
        <ele>435.600006103515625</ele>
        <time>2021-09-27T08:48:14.000Z</time>
      </trkpt>
      <trkpt lat="39.8843179643154144287109375" lon="-0.53047564812004566192626953125">
        <ele>435.79998779296875</ele>
        <time>2021-09-27T08:48:15.000Z</time>
      </trkpt>
      <trkpt lat="39.88436532206833362579345703125" lon="-0.53035846911370754241943359375">
        <ele>435.600006103515625</ele>
        <time>2021-09-27T08:48:17.000Z</time>
      </trkpt>
      <trkpt lat="39.88440957851707935333251953125" lon="-0.5302547849714756011962890625">
        <ele>435.600006103515625</ele>
        <time>2021-09-27T08:48:19.000Z</time>
      </trkpt>
      <trkpt lat="39.88442860543727874755859375" lon="-0.53020273335278034210205078125">
        <ele>435.600006103515625</ele>
        <time>2021-09-27T08:48:20.000Z</time>
      </trkpt>
      <trkpt lat="39.88444930873811244964599609375" lon="-0.53015395067632198333740234375">
        <ele>435.600006103515625</ele>
        <time>2021-09-27T08:48:21.000Z</time>
      </trkpt>
      <trkpt lat="39.88447328098118305206298828125" lon="-0.530107431113719940185546875">
        <ele>435.399993896484375</ele>
        <time>2021-09-27T08:48:22.000Z</time>
      </trkpt>
      <trkpt lat="39.8844976723194122314453125" lon="-0.53005923517048358917236328125">
        <ele>435.399993896484375</ele>
        <time>2021-09-27T08:48:23.000Z</time>
      </trkpt>
      <trkpt lat="39.88453924655914306640625" lon="-0.529948174953460693359375">
        <ele>435.20001220703125</ele>
        <time>2021-09-27T08:48:25.000Z</time>
      </trkpt>
      <trkpt lat="39.88458375446498394012451171875" lon="-0.52983158268034458160400390625">
        <ele>435.399993896484375</ele>
        <time>2021-09-27T08:48:27.000Z</time>
      </trkpt>
      <trkpt lat="39.88462935201823711395263671875" lon="-0.52970903925597667694091796875">
        <ele>435.79998779296875</ele>
        <time>2021-09-27T08:48:29.000Z</time>
      </trkpt>
      <trkpt lat="39.88467805087566375732421875" lon="-0.52958381362259387969970703125">
        <ele>435.79998779296875</ele>
        <time>2021-09-27T08:48:31.000Z</time>
      </trkpt>
      <trkpt lat="39.88472138531506061553955078125" lon="-0.52945976145565509796142578125">
        <ele>436.20001220703125</ele>
        <time>2021-09-27T08:48:33.000Z</time>
      </trkpt>
      <trkpt lat="39.88477268256247043609619140625" lon="-0.52933302707970142364501953125">
        <ele>436.600006103515625</ele>
        <time>2021-09-27T08:48:35.000Z</time>
      </trkpt>
      <trkpt lat="39.88482364453375339508056640625" lon="-0.52919958718121051788330078125">
        <ele>437.20001220703125</ele>
        <time>2021-09-27T08:48:37.000Z</time>
      </trkpt>
      <trkpt lat="39.8848756961524486541748046875" lon="-0.5290665663778781890869140625">
        <ele>437.79998779296875</ele>
        <time>2021-09-27T08:48:39.000Z</time>
      </trkpt>
      <trkpt lat="39.88492690958082675933837890625" lon="-0.5289361439645290374755859375">
        <ele>438.20001220703125</ele>
        <time>2021-09-27T08:48:41.000Z</time>
      </trkpt>
      <trkpt lat="39.884980805218219757080078125" lon="-0.52880714647471904754638671875">
        <ele>438.79998779296875</ele>
        <time>2021-09-27T08:48:43.000Z</time>
      </trkpt>
      <trkpt lat="39.88503570668399333953857421875" lon="-0.5286786518990993499755859375">
        <ele>439.20001220703125</ele>
        <time>2021-09-27T08:48:45.000Z</time>
      </trkpt>
      <trkpt lat="39.885090775787830352783203125" lon="-0.52854613400995731353759765625">
        <ele>439.600006103515625</ele>
        <time>2021-09-27T08:48:47.000Z</time>
      </trkpt>
      <trkpt lat="39.88511751405894756317138671875" lon="-0.528469942510128021240234375">
        <ele>440</ele>
        <time>2021-09-27T08:48:48.000Z</time>
      </trkpt>
      <trkpt lat="39.88514534197747707366943359375" lon="-0.52839559502899646759033203125">
        <ele>440.399993896484375</ele>
        <time>2021-09-27T08:48:49.000Z</time>
      </trkpt>
      <trkpt lat="39.8852002434432506561279296875" lon="-0.528249330818653106689453125">
        <ele>440.79998779296875</ele>
        <time>2021-09-27T08:48:51.000Z</time>
      </trkpt>
      <trkpt lat="39.88525246270000934600830078125" lon="-0.52810206077992916107177734375">
        <ele>441.600006103515625</ele>
        <time>2021-09-27T08:48:53.000Z</time>
      </trkpt>
      <trkpt lat="39.88530375994741916656494140625" lon="-0.527967028319835662841796875">
        <ele>442.20001220703125</ele>
        <time>2021-09-27T08:48:55.000Z</time>
      </trkpt>
      <trkpt lat="39.885357320308685302734375" lon="-0.52783870138227939605712890625">
        <ele>442.399993896484375</ele>
        <time>2021-09-27T08:48:57.000Z</time>
      </trkpt>
      <trkpt lat="39.88540534861385822296142578125" lon="-0.527700483798980712890625">
        <ele>442.79998779296875</ele>
        <time>2021-09-27T08:48:59.000Z</time>
      </trkpt>
      <trkpt lat="39.88543041050434112548828125" lon="-0.527630746364593505859375">
        <ele>442.79998779296875</ele>
        <time>2021-09-27T08:49:00.000Z</time>
      </trkpt>
      <trkpt lat="39.8854553885757923126220703125" lon="-0.527559332549571990966796875">
        <ele>442.79998779296875</ele>
        <time>2021-09-27T08:49:01.000Z</time>
      </trkpt>
      <trkpt lat="39.885511212050914764404296875" lon="-0.52742111496627330780029296875">
        <ele>442.79998779296875</ele>
        <time>2021-09-27T08:49:03.000Z</time>
      </trkpt>
      <trkpt lat="39.88556921482086181640625" lon="-0.52728482522070407867431640625">
        <ele>442.79998779296875</ele>
        <time>2021-09-27T08:49:05.000Z</time>
      </trkpt>
      <trkpt lat="39.88559394143521785736083984375" lon="-0.52721575833857059478759765625">
        <ele>443</ele>
        <time>2021-09-27T08:49:06.000Z</time>
      </trkpt>
      <trkpt lat="39.88561690784990787506103515625" lon="-0.52714803256094455718994140625">
        <ele>443</ele>
        <time>2021-09-27T08:49:07.000Z</time>
      </trkpt>
      <trkpt lat="39.88566434942185878753662109375" lon="-0.52700704894959926605224609375">
        <ele>443.79998779296875</ele>
        <time>2021-09-27T08:49:09.000Z</time>
      </trkpt>
      <trkpt lat="39.88571531139314174652099609375" lon="-0.5268705077469348907470703125">
        <ele>444.399993896484375</ele>
        <time>2021-09-27T08:49:11.000Z</time>
      </trkpt>
      <trkpt lat="39.88576459698379039764404296875" lon="-0.5267290212213993072509765625">
        <ele>444.399993896484375</ele>
        <time>2021-09-27T08:49:13.000Z</time>
      </trkpt>
      <trkpt lat="39.8858188278973102569580078125" lon="-0.52658669650554656982421875">
        <ele>444.399993896484375</ele>
        <time>2021-09-27T08:49:15.000Z</time>
      </trkpt>
      <trkpt lat="39.88587439991533756256103515625" lon="-0.52644646726548671722412109375">
        <ele>444.399993896484375</ele>
        <time>2021-09-27T08:49:17.000Z</time>
      </trkpt>
      <trkpt lat="39.8859026469290256500244140625" lon="-0.52637840621173381805419921875">
        <ele>444.20001220703125</ele>
        <time>2021-09-27T08:49:18.000Z</time>
      </trkpt>
      <trkpt lat="39.88592938520014286041259765625" lon="-0.5263089202344417572021484375">
        <ele>444.399993896484375</ele>
        <time>2021-09-27T08:49:19.000Z</time>
      </trkpt>
      <trkpt lat="39.88598571158945560455322265625" lon="-0.52617740817368030548095703125">
        <ele>445.20001220703125</ele>
        <time>2021-09-27T08:49:21.000Z</time>
      </trkpt>
      <trkpt lat="39.88604472018778324127197265625" lon="-0.52604891359806060791015625">
        <ele>445.79998779296875</ele>
        <time>2021-09-27T08:49:23.000Z</time>
      </trkpt>
      <trkpt lat="39.8860702849924564361572265625" lon="-0.52598630078136920928955078125">
        <ele>446.20001220703125</ele>
        <time>2021-09-27T08:49:24.000Z</time>
      </trkpt>
      <trkpt lat="39.886094592511653900146484375" lon="-0.52591421641409397125244140625">
        <ele>446.600006103515625</ele>
        <time>2021-09-27T08:49:25.000Z</time>
      </trkpt>
      <trkpt lat="39.88614161498844623565673828125" lon="-0.5257867276668548583984375">
        <ele>447.20001220703125</ele>
        <time>2021-09-27T08:49:27.000Z</time>
      </trkpt>
      <trkpt lat="39.88660094328224658966064453125" lon="-0.52441536448895931243896484375">
        <ele>454</ele>
        <time>2021-09-27T08:49:46.000Z</time>
      </trkpt>
      <trkpt lat="39.88660312257707118988037109375" lon="-0.52433741278946399688720703125">
        <ele>452.79998779296875</ele>
        <time>2021-09-27T08:49:47.000Z</time>
      </trkpt>
      <trkpt lat="39.88660991191864013671875" lon="-0.52426583133637905120849609375">
        <ele>452</ele>
        <time>2021-09-27T08:49:48.000Z</time>
      </trkpt>
      <trkpt lat="39.88660882227122783660888671875" lon="-0.52419374696910381317138671875">
        <ele>452.600006103515625</ele>
        <time>2021-09-27T08:49:49.000Z</time>
      </trkpt>
      <trkpt lat="39.88661200739443302154541015625" lon="-0.52410791628062725067138671875">
        <ele>453</ele>
        <time>2021-09-27T08:49:50.000Z</time>
      </trkpt>
      <trkpt lat="39.8866151086986064910888671875" lon="-0.524030216038227081298828125">
        <ele>453.399993896484375</ele>
        <time>2021-09-27T08:49:51.000Z</time>
      </trkpt>
      <trkpt lat="39.88662055693566799163818359375" lon="-0.52385578863322734832763671875">
        <ele>454.20001220703125</ele>
        <time>2021-09-27T08:49:53.000Z</time>
      </trkpt>
      <trkpt lat="39.88662265241146087646484375" lon="-0.52377046085894107818603515625">
        <ele>453.20001220703125</ele>
        <time>2021-09-27T08:49:54.000Z</time>
      </trkpt>
      <trkpt lat="39.886623658239841461181640625" lon="-0.52368630655109882354736328125">
        <ele>451.79998779296875</ele>
        <time>2021-09-27T08:49:55.000Z</time>
      </trkpt>
      <trkpt lat="39.88661653362214565277099609375" lon="-0.52359729073941707611083984375">
        <ele>450.79998779296875</ele>
        <time>2021-09-27T08:49:56.000Z</time>
      </trkpt>
      <trkpt lat="39.88660295493900775909423828125" lon="-0.5235107056796550750732421875">
        <ele>449.79998779296875</ele>
        <time>2021-09-27T08:49:57.000Z</time>
      </trkpt>
      <trkpt lat="39.88656775094568729400634765625" lon="-0.5233427323400974273681640625">
        <ele>448.79998779296875</ele>
        <time>2021-09-27T08:49:59.000Z</time>
      </trkpt>
      <trkpt lat="39.886524416506290435791015625" lon="-0.5231797881424427032470703125">
        <ele>448.20001220703125</ele>
        <time>2021-09-27T08:50:01.000Z</time>
      </trkpt>
      <trkpt lat="39.8864957503974437713623046875" lon="-0.52301877178251743316650390625">
        <ele>447.20001220703125</ele>
        <time>2021-09-27T08:50:03.000Z</time>
      </trkpt>
      <trkpt lat="39.8864702694118022918701171875" lon="-0.52286219783127307891845703125">
        <ele>446.399993896484375</ele>
        <time>2021-09-27T08:50:05.000Z</time>
      </trkpt>
      <trkpt lat="39.88645794801414012908935546875" lon="-0.52278508432209491729736328125">
        <ele>446</ele>
        <time>2021-09-27T08:50:06.000Z</time>
      </trkpt>
      <trkpt lat="39.8864441178739070892333984375" lon="-0.52271299995481967926025390625">
        <ele>445.600006103515625</ele>
        <time>2021-09-27T08:50:07.000Z</time>
      </trkpt>
      <trkpt lat="39.8864229954779148101806640625" lon="-0.522566400468349456787109375">
        <ele>444.600006103515625</ele>
        <time>2021-09-27T08:50:09.000Z</time>
      </trkpt>
      <trkpt lat="39.88641017116606235504150390625" lon="-0.52249590866267681121826171875">
        <ele>444.20001220703125</ele>
        <time>2021-09-27T08:50:10.000Z</time>
      </trkpt>
      <trkpt lat="39.88639608956873416900634765625" lon="-0.5224247463047504425048828125">
        <ele>443.79998779296875</ele>
        <time>2021-09-27T08:50:11.000Z</time>
      </trkpt>
      <trkpt lat="39.88637882284820079803466796875" lon="-0.52228434942662715911865234375">
        <ele>442.600006103515625</ele>
        <time>2021-09-27T08:50:13.000Z</time>
      </trkpt>
      <trkpt lat="39.88636256195604801177978515625" lon="-0.52221947349607944488525390625">
        <ele>442.399993896484375</ele>
        <time>2021-09-27T08:50:14.000Z</time>
      </trkpt>
      <trkpt lat="39.88634948618710041046142578125" lon="-0.52216214127838611602783203125">
        <ele>442.20001220703125</ele>
        <time>2021-09-27T08:50:15.000Z</time>
      </trkpt>
      <trkpt lat="39.88634596578776836395263671875" lon="-0.5221255123615264892578125">
        <ele>442.20001220703125</ele>
        <time>2021-09-27T08:50:16.000Z</time>
      </trkpt>
      <trkpt lat="39.8863475583493709564208984375" lon="-0.52210330031812191009521484375">
        <ele>442.20001220703125</ele>
        <time>2021-09-27T08:50:17.000Z</time>
      </trkpt>
      <trkpt lat="39.886355102062225341796875" lon="-0.52209793590009212493896484375">
        <ele>441.79998779296875</ele>
        <time>2021-09-27T08:50:19.000Z</time>
      </trkpt>
      <trkpt lat="39.88633967936038970947265625" lon="-0.52200925536453723907470703125">
        <ele>442.399993896484375</ele>
        <time>2021-09-27T08:50:28.000Z</time>
      </trkpt>
      <trkpt lat="39.8863371647894382476806640625" lon="-0.521986372768878936767578125">
        <ele>442.600006103515625</ele>
        <time>2021-09-27T08:50:29.000Z</time>
      </trkpt>
      <trkpt lat="39.88633087836205959320068359375" lon="-0.52192904055118560791015625">
        <ele>443</ele>
        <time>2021-09-27T08:50:31.000Z</time>
      </trkpt>
      <trkpt lat="39.88632224500179290771484375" lon="-0.5218333192169666290283203125">
        <ele>443.600006103515625</ele>
        <time>2021-09-27T08:50:33.000Z</time>
      </trkpt>
      <trkpt lat="39.88630690611898899078369140625" lon="-0.52173550240695476531982421875">
        <ele>444.399993896484375</ele>
        <time>2021-09-27T08:50:35.000Z</time>
      </trkpt>
      <trkpt lat="39.88630623556673526763916015625" lon="-0.52164698950946331024169921875">
        <ele>444.600006103515625</ele>
        <time>2021-09-27T08:50:37.000Z</time>
      </trkpt>
      <trkpt lat="39.886321239173412322998046875" lon="-0.52159401588141918182373046875">
        <ele>444.20001220703125</ele>
        <time>2021-09-27T08:50:39.000Z</time>
      </trkpt>
      <trkpt lat="39.8863210715353488922119140625" lon="-0.52159099839627742767333984375">
        <ele>444.20001220703125</ele>
        <time>2021-09-27T08:50:40.000Z</time>
      </trkpt>
      <trkpt lat="39.88627673126757144927978515625" lon="-0.52158278413116931915283203125">
        <ele>445.79998779296875</ele>
        <time>2021-09-27T08:56:59.000Z</time>
      </trkpt>
      <trkpt lat="39.88626935519278049468994140625" lon="-0.52155277691781520843505859375">
        <ele>446.20001220703125</ele>
        <time>2021-09-27T08:57:00.000Z</time>
      </trkpt>
      <trkpt lat="39.88626181147992610931396484375" lon="-0.5215117894113063812255859375">
        <ele>446.399993896484375</ele>
        <time>2021-09-27T08:57:01.000Z</time>
      </trkpt>
      <trkpt lat="39.88625359721481800079345703125" lon="-0.5214625038206577301025390625">
        <ele>446.79998779296875</ele>
        <time>2021-09-27T08:57:02.000Z</time>
      </trkpt>
      <trkpt lat="39.88624437712132930755615234375" lon="-0.52141296677291393280029296875">
        <ele>447.399993896484375</ele>
        <time>2021-09-27T08:57:03.000Z</time>
      </trkpt>
      <trkpt lat="39.88623197190463542938232421875" lon="-0.52136418409645557403564453125">
        <ele>448</ele>
        <time>2021-09-27T08:57:04.000Z</time>
      </trkpt>
      <trkpt lat="39.88621688447892665863037109375" lon="-0.5213139764964580535888671875">
        <ele>447.600006103515625</ele>
        <time>2021-09-27T08:57:05.000Z</time>
      </trkpt>
      <trkpt lat="39.88617983646690845489501953125" lon="-0.52121448330581188201904296875">
        <ele>446</ele>
        <time>2021-09-27T08:57:07.000Z</time>
      </trkpt>
      <trkpt lat="39.88613692112267017364501953125" lon="-0.52110702730715274810791015625">
        <ele>444.20001220703125</ele>
        <time>2021-09-27T08:57:09.000Z</time>
      </trkpt>
      <trkpt lat="39.88611596636474132537841796875" lon="-0.52105170674622058868408203125">
        <ele>443.20001220703125</ele>
        <time>2021-09-27T08:57:10.000Z</time>
      </trkpt>
      <trkpt lat="39.88609434105455875396728515625" lon="-0.5209947936236858367919921875">
        <ele>442.399993896484375</ele>
        <time>2021-09-27T08:57:11.000Z</time>
      </trkpt>
      <trkpt lat="39.88604254089295864105224609375" lon="-0.52088473923504352569580078125">
        <ele>440.600006103515625</ele>
        <time>2021-09-27T08:57:13.000Z</time>
      </trkpt>
      <trkpt lat="39.88598571158945560455322265625" lon="-0.520775355398654937744140625">
        <ele>438.79998779296875</ele>
        <time>2021-09-27T08:57:15.000Z</time>
      </trkpt>
      <trkpt lat="39.88595184870064258575439453125" lon="-0.52071140147745609283447265625">
        <ele>438.399993896484375</ele>
        <time>2021-09-27T08:57:16.000Z</time>
      </trkpt>
      <trkpt lat="39.88591714762151241302490234375" lon="-0.52065365016460418701171875">
        <ele>438.20001220703125</ele>
        <time>2021-09-27T08:57:17.000Z</time>
      </trkpt>
      <trkpt lat="39.88583852536976337432861328125" lon="-0.52054158411920070648193359375">
        <ele>438</ele>
        <time>2021-09-27T08:57:19.000Z</time>
      </trkpt>
      <trkpt lat="39.88574900664389133453369140625" lon="-0.52042909897863864898681640625">
        <ele>438.600006103515625</ele>
        <time>2021-09-27T08:57:21.000Z</time>
      </trkpt>
      <trkpt lat="39.88566636107861995697021484375" lon="-0.520316697657108306884765625">
        <ele>439.20001220703125</ele>
        <time>2021-09-27T08:57:23.000Z</time>
      </trkpt>
      <trkpt lat="39.88558069802820682525634765625" lon="-0.52020815201103687286376953125">
        <ele>440.600006103515625</ele>
        <time>2021-09-27T08:57:25.000Z</time>
      </trkpt>
      <trkpt lat="39.8854912631213665008544921875" lon="-0.5200992710888385772705078125">
        <ele>442.600006103515625</ele>
        <time>2021-09-27T08:57:27.000Z</time>
      </trkpt>
      <trkpt lat="39.8854054324328899383544921875" lon="-0.5199970118701457977294921875">
        <ele>444.600006103515625</ele>
        <time>2021-09-27T08:57:29.000Z</time>
      </trkpt>
      <trkpt lat="39.88532303832471370697021484375" lon="-0.51989349536597728729248046875">
        <ele>447.399993896484375</ele>
        <time>2021-09-27T08:57:31.000Z</time>
      </trkpt>
      <trkpt lat="39.88525078631937503814697265625" lon="-0.51979676820337772369384765625">
        <ele>449.79998779296875</ele>
        <time>2021-09-27T08:57:33.000Z</time>
      </trkpt>
      <trkpt lat="39.8852146603167057037353515625" lon="-0.5197525955736637115478515625">
        <ele>451</ele>
        <time>2021-09-27T08:57:34.000Z</time>
      </trkpt>
      <trkpt lat="39.88517886959016323089599609375" lon="-0.5197116918861865997314453125">
        <ele>452.20001220703125</ele>
        <time>2021-09-27T08:57:35.000Z</time>
      </trkpt>
      <trkpt lat="39.88510728813707828521728515625" lon="-0.51961454562842845916748046875">
        <ele>454.600006103515625</ele>
        <time>2021-09-27T08:57:37.000Z</time>
      </trkpt>
      <trkpt lat="39.8850651271641254425048828125" lon="-0.5195608176290988922119140625">
        <ele>456</ele>
        <time>2021-09-27T08:57:38.000Z</time>
      </trkpt>
      <trkpt lat="39.8850282467901706695556640625" lon="-0.519519746303558349609375">
        <ele>457.399993896484375</ele>
        <time>2021-09-27T08:57:39.000Z</time>
      </trkpt>
      <trkpt lat="39.88499446772038936614990234375" lon="-0.5194773338735103607177734375">
        <ele>458.600006103515625</ele>
        <time>2021-09-27T08:57:40.000Z</time>
      </trkpt>
      <trkpt lat="39.88387363962829113006591796875" lon="-0.5183809809386730194091796875">
        <ele>447</ele>
        <time>2021-09-27T08:58:02.000Z</time>
      </trkpt>
      <trkpt lat="39.88381161354482173919677734375" lon="-0.51835239864885807037353515625">
        <ele>446.20001220703125</ele>
        <time>2021-09-27T08:58:03.000Z</time>
      </trkpt>
      <trkpt lat="39.8837324045598506927490234375" lon="-0.5183464474976062774658203125">
        <ele>445.79998779296875</ele>
        <time>2021-09-27T08:58:04.000Z</time>
      </trkpt>
      <trkpt lat="39.88367230631411075592041015625" lon="-0.51833747886121273040771484375">
        <ele>446.20001220703125</ele>
        <time>2021-09-27T08:58:05.000Z</time>
      </trkpt>
      <trkpt lat="39.883556552231311798095703125" lon="-0.518276877701282501220703125">
        <ele>445.79998779296875</ele>
        <time>2021-09-27T08:58:07.000Z</time>
      </trkpt>
      <trkpt lat="39.88343241624534130096435546875" lon="-0.51823471672832965850830078125">
        <ele>445.20001220703125</ele>
        <time>2021-09-27T08:58:09.000Z</time>
      </trkpt>
      <trkpt lat="39.88331942819058895111083984375" lon="-0.518184341490268707275390625">
        <ele>443.600006103515625</ele>
        <time>2021-09-27T08:58:11.000Z</time>
      </trkpt>
      <trkpt lat="39.88319923169910907745361328125" lon="-0.51814980804920196533203125">
        <ele>442.600006103515625</ele>
        <time>2021-09-27T08:58:13.000Z</time>
      </trkpt>
      <trkpt lat="39.88308037631213665008544921875" lon="-0.51810152828693389892578125">
        <ele>441</ele>
        <time>2021-09-27T08:58:15.000Z</time>
      </trkpt>
      <trkpt lat="39.882961772382259368896484375" lon="-0.51804863847792148590087890625">
        <ele>439.399993896484375</ele>
        <time>2021-09-27T08:58:17.000Z</time>
      </trkpt>
      <trkpt lat="39.8828422464430332183837890625" lon="-0.51800102926790714263916015625">
        <ele>438.399993896484375</ele>
        <time>2021-09-27T08:58:19.000Z</time>
      </trkpt>
      <trkpt lat="39.8827292583882808685302734375" lon="-0.51795157603919506072998046875">
        <ele>438.399993896484375</ele>
        <time>2021-09-27T08:58:21.000Z</time>
      </trkpt>
      <trkpt lat="39.882623814046382904052734375" lon="-0.51791184581816196441650390625">
        <ele>438.600006103515625</ele>
        <time>2021-09-27T08:58:23.000Z</time>
      </trkpt>
      <trkpt lat="39.88254477269947528839111328125" lon="-0.51788250915706157684326171875">
        <ele>438.600006103515625</ele>
        <time>2021-09-27T08:58:25.000Z</time>
      </trkpt>
      <trkpt lat="39.8825166933238506317138671875" lon="-0.51787127740681171417236328125">
        <ele>438.79998779296875</ele>
        <time>2021-09-27T08:58:26.000Z</time>
      </trkpt>
      <trkpt lat="39.88248668611049652099609375" lon="-0.517857111990451812744140625">
        <ele>438.79998779296875</ele>
        <time>2021-09-27T08:58:27.000Z</time>
      </trkpt>
      <trkpt lat="39.88242809660732746124267578125" lon="-0.51782081834971904754638671875">
        <ele>438.600006103515625</ele>
        <time>2021-09-27T08:58:29.000Z</time>
      </trkpt>
      <trkpt lat="39.88239071331918239593505859375" lon="-0.51780271343886852264404296875">
        <ele>438.600006103515625</ele>
        <time>2021-09-27T08:58:30.000Z</time>
      </trkpt>
      <trkpt lat="39.88234855234622955322265625" lon="-0.51778896711766719818115234375">
        <ele>438.79998779296875</ele>
        <time>2021-09-27T08:58:31.000Z</time>
      </trkpt>
      <trkpt lat="39.88225710578262805938720703125" lon="-0.51775242201983928680419921875">
        <ele>438.20001220703125</ele>
        <time>2021-09-27T08:58:33.000Z</time>
      </trkpt>
      <trkpt lat="39.88216356374323368072509765625" lon="-0.5177157931029796600341796875">
        <ele>437</ele>
        <time>2021-09-27T08:58:35.000Z</time>
      </trkpt>
      <trkpt lat="39.88206281326711177825927734375" lon="-0.51767815835773944854736328125">
        <ele>435.600006103515625</ele>
        <time>2021-09-27T08:58:37.000Z</time>
      </trkpt>
      <trkpt lat="39.881959296762943267822265625" lon="-0.5176346562802791595458984375">
        <ele>436.20001220703125</ele>
        <time>2021-09-27T08:58:39.000Z</time>
      </trkpt>
      <trkpt lat="39.8819064907729625701904296875" lon="-0.51761345006525516510009765625">
        <ele>436.399993896484375</ele>
        <time>2021-09-27T08:58:40.000Z</time>
      </trkpt>
      <trkpt lat="39.88185360096395015716552734375" lon="-0.5175897292792797088623046875">
        <ele>436.600006103515625</ele>
        <time>2021-09-27T08:58:41.000Z</time>
      </trkpt>
      <trkpt lat="39.88174631260335445404052734375" lon="-0.517541952431201934814453125">
        <ele>437</ele>
        <time>2021-09-27T08:58:43.000Z</time>
      </trkpt>
      <trkpt lat="39.88163768313825130462646484375" lon="-0.51749912090599536895751953125">
        <ele>437.79998779296875</ele>
        <time>2021-09-27T08:58:45.000Z</time>
      </trkpt>
      <trkpt lat="39.8815839551389217376708984375" lon="-0.51747967489063739776611328125">
        <ele>438.20001220703125</ele>
        <time>2021-09-27T08:58:46.000Z</time>
      </trkpt>
      <trkpt lat="39.88153341226279735565185546875" lon="-0.51745989359915256500244140625">
        <ele>438.600006103515625</ele>
        <time>2021-09-27T08:58:47.000Z</time>
      </trkpt>
      <trkpt lat="39.8814243637025356292724609375" lon="-0.5174155533313751220703125">
        <ele>439.20001220703125</ele>
        <time>2021-09-27T08:58:49.000Z</time>
      </trkpt>
      <trkpt lat="39.88130911253392696380615234375" lon="-0.51737121306359767913818359375">
        <ele>440.20001220703125</ele>
        <time>2021-09-27T08:58:51.000Z</time>
      </trkpt>
      <trkpt lat="39.88125245086848735809326171875" lon="-0.517346821725368499755859375">
        <ele>440.399993896484375</ele>
        <time>2021-09-27T08:58:52.000Z</time>
      </trkpt>
      <trkpt lat="39.88119461573660373687744140625" lon="-0.5173225142061710357666015625">
        <ele>441.399993896484375</ele>
        <time>2021-09-27T08:58:53.000Z</time>
      </trkpt>
      <trkpt lat="39.88107441924512386322021484375" lon="-0.517272390425205230712890625">
        <ele>443.600006103515625</ele>
        <time>2021-09-27T08:58:55.000Z</time>
      </trkpt>
      <trkpt lat="39.880958832800388336181640625" lon="-0.51722981035709381103515625">
        <ele>445</ele>
        <time>2021-09-27T08:58:57.000Z</time>
      </trkpt>
      <trkpt lat="39.8809030093252658843994140625" lon="-0.51720960997045040130615234375">
        <ele>445.600006103515625</ele>
        <time>2021-09-27T08:58:58.000Z</time>
      </trkpt>
      <trkpt lat="39.88084794022142887115478515625" lon="-0.51718496717512607574462890625">
        <ele>446.20001220703125</ele>
        <time>2021-09-27T08:58:59.000Z</time>
      </trkpt>
      <trkpt lat="39.88074249587953090667724609375" lon="-0.5171364359557628631591796875">
        <ele>447.79998779296875</ele>
        <time>2021-09-27T08:59:01.000Z</time>
      </trkpt>
      <trkpt lat="39.88063822500407695770263671875" lon="-0.51709511317312717437744140625">
        <ele>449.600006103515625</ele>
        <time>2021-09-27T08:59:03.000Z</time>
      </trkpt>
      <trkpt lat="39.88053378649055957794189453125" lon="-0.5170561373233795166015625">
        <ele>451.600006103515625</ele>
        <time>2021-09-27T08:59:05.000Z</time>
      </trkpt>
      <trkpt lat="39.880424402654170989990234375" lon="-0.5170261301100254058837890625">
        <ele>452.20001220703125</ele>
        <time>2021-09-27T08:59:07.000Z</time>
      </trkpt>
      <trkpt lat="39.88031937740743160247802734375" lon="-0.51698212511837482452392578125">
        <ele>451.79998779296875</ele>
        <time>2021-09-27T08:59:09.000Z</time>
      </trkpt>
      <trkpt lat="39.88021058030426502227783203125" lon="-0.51694323308765888214111328125">
        <ele>451.20001220703125</ele>
        <time>2021-09-27T08:59:11.000Z</time>
      </trkpt>
      <trkpt lat="39.88010111264884471893310546875" lon="-0.5169064365327358245849609375">
        <ele>450.79998779296875</ele>
        <time>2021-09-27T08:59:13.000Z</time>
      </trkpt>
      <trkpt lat="39.8799888789653778076171875" lon="-0.516869723796844482421875">
        <ele>450.20001220703125</ele>
        <time>2021-09-27T08:59:15.000Z</time>
      </trkpt>
      <trkpt lat="39.87993481568992137908935546875" lon="-0.51684466190636157989501953125">
        <ele>449.79998779296875</ele>
        <time>2021-09-27T08:59:16.000Z</time>
      </trkpt>
      <trkpt lat="39.8798784054815769195556640625" lon="-0.5168216116726398468017578125">
        <ele>449.20001220703125</ele>
        <time>2021-09-27T08:59:17.000Z</time>
      </trkpt>
      <trkpt lat="39.87977002747356891632080078125" lon="-0.51677794195711612701416015625">
        <ele>447.20001220703125</ele>
        <time>2021-09-27T08:59:19.000Z</time>
      </trkpt>
      <trkpt lat="39.879663325846195220947265625" lon="-0.5167270638048648834228515625">
        <ele>444.79998779296875</ele>
        <time>2021-09-27T08:59:21.000Z</time>
      </trkpt>
      <trkpt lat="39.87954757176339626312255859375" lon="-0.5166794545948505401611328125">
        <ele>442.600006103515625</ele>
        <time>2021-09-27T08:59:23.000Z</time>
      </trkpt>
      <trkpt lat="39.87948797643184661865234375" lon="-0.51665673963725566864013671875">
        <ele>442.20001220703125</ele>
        <time>2021-09-27T08:59:24.000Z</time>
      </trkpt>
      <trkpt lat="39.8794309794902801513671875" lon="-0.51663511432707309722900390625">
        <ele>441.79998779296875</ele>
        <time>2021-09-27T08:59:25.000Z</time>
      </trkpt>
      <trkpt lat="39.87931924872100353240966796875" lon="-0.51658314652740955352783203125">
        <ele>440.79998779296875</ele>
        <time>2021-09-27T08:59:27.000Z</time>
      </trkpt>
      <trkpt lat="39.879214726388454437255859375" lon="-0.51653109490871429443359375">
        <ele>441.20001220703125</ele>
        <time>2021-09-27T08:59:29.000Z</time>
      </trkpt>
      <trkpt lat="39.87910970114171504974365234375" lon="-0.51647636108100414276123046875">
        <ele>441.399993896484375</ele>
        <time>2021-09-27T08:59:31.000Z</time>
      </trkpt>
      <trkpt lat="39.879002831876277923583984375" lon="-0.516411401331424713134765625">
        <ele>441.600006103515625</ele>
        <time>2021-09-27T08:59:33.000Z</time>
      </trkpt>
      <trkpt lat="39.87889478914439678192138671875" lon="-0.5163398198783397674560546875">
        <ele>441.600006103515625</ele>
        <time>2021-09-27T08:59:35.000Z</time>
      </trkpt>
      <trkpt lat="39.8787931166589260101318359375" lon="-0.5162608623504638671875">
        <ele>441.600006103515625</ele>
        <time>2021-09-27T08:59:37.000Z</time>
      </trkpt>
      <trkpt lat="39.8787448368966579437255859375" lon="-0.516216941177845001220703125">
        <ele>442</ele>
        <time>2021-09-27T08:59:38.000Z</time>
      </trkpt>
      <trkpt lat="39.87869647331535816192626953125" lon="-0.51617570221424102783203125">
        <ele>443.20001220703125</ele>
        <time>2021-09-27T08:59:39.000Z</time>
      </trkpt>
      <trkpt lat="39.8786077089607715606689453125" lon="-0.516093559563159942626953125">
        <ele>445.79998779296875</ele>
        <time>2021-09-27T08:59:41.000Z</time>
      </trkpt>
      <trkpt lat="39.87852732650935649871826171875" lon="-0.51601569168269634246826171875">
        <ele>448</ele>
        <time>2021-09-27T08:59:43.000Z</time>
      </trkpt>
      <trkpt lat="39.8784873448312282562255859375" lon="-0.51597545854747295379638671875">
        <ele>449.20001220703125</ele>
        <time>2021-09-27T08:59:44.000Z</time>
      </trkpt>
      <trkpt lat="39.87844853661954402923583984375" lon="-0.51593103446066379547119140625">
        <ele>450.20001220703125</ele>
        <time>2021-09-27T08:59:45.000Z</time>
      </trkpt>
      <trkpt lat="39.878411404788494110107421875" lon="-0.5158788152039051055908203125">
        <ele>451</ele>
        <time>2021-09-27T08:59:46.000Z</time>
      </trkpt>
      <trkpt lat="39.87837594933807849884033203125" lon="-0.5158228240907192230224609375">
        <ele>451.600006103515625</ele>
        <time>2021-09-27T08:59:47.000Z</time>
      </trkpt>
      <trkpt lat="39.87830185331404209136962890625" lon="-0.51571075804531574249267578125">
        <ele>452.600006103515625</ele>
        <time>2021-09-27T08:59:49.000Z</time>
      </trkpt>
      <trkpt lat="39.87826145254075527191162109375" lon="-0.51565309055149555206298828125">
        <ele>453.399993896484375</ele>
        <time>2021-09-27T08:59:50.000Z</time>
      </trkpt>
      <trkpt lat="39.8782184533774852752685546875" lon="-0.51559810526669025421142578125">
        <ele>454.20001220703125</ele>
        <time>2021-09-27T08:59:51.000Z</time>
      </trkpt>
      <trkpt lat="39.8781301081180572509765625" lon="-0.5154870450496673583984375">
        <ele>455.79998779296875</ele>
        <time>2021-09-27T08:59:53.000Z</time>
      </trkpt>
      <trkpt lat="39.87804084084928035736083984375" lon="-0.51537967287003993988037109375">
        <ele>457.79998779296875</ele>
        <time>2021-09-27T08:59:55.000Z</time>
      </trkpt>
      <trkpt lat="39.87795886583626270294189453125" lon="-0.51527179777622222900390625">
        <ele>458.399993896484375</ele>
        <time>2021-09-27T08:59:57.000Z</time>
      </trkpt>
      <trkpt lat="39.8778815008699893951416015625" lon="-0.51515646278858184814453125">
        <ele>458.399993896484375</ele>
        <time>2021-09-27T08:59:59.000Z</time>
      </trkpt>
      <trkpt lat="39.87784168682992458343505859375" lon="-0.51509988494217395782470703125">
        <ele>458.79998779296875</ele>
        <time>2021-09-27T09:00:00.000Z</time>
      </trkpt>
      <trkpt lat="39.87780245952308177947998046875" lon="-0.51504188217222690582275390625">
        <ele>459</ele>
        <time>2021-09-27T09:00:01.000Z</time>
      </trkpt>
      <trkpt lat="39.87776155583560466766357421875" lon="-0.5149879865348339080810546875">
        <ele>459.399993896484375</ele>
        <time>2021-09-27T09:00:02.000Z</time>
      </trkpt>
      <trkpt lat="39.8777215741574764251708984375" lon="-0.51493844948709011077880859375">
        <ele>459.79998779296875</ele>
        <time>2021-09-27T09:00:03.000Z</time>
      </trkpt>
      <trkpt lat="39.8776833526790142059326171875" lon="-0.5148875713348388671875">
        <ele>460.20001220703125</ele>
        <time>2021-09-27T09:00:04.000Z</time>
      </trkpt>
      <trkpt lat="39.87764035351574420928955078125" lon="-0.51483451388776302337646484375">
        <ele>459.20001220703125</ele>
        <time>2021-09-27T09:00:05.000Z</time>
      </trkpt>
      <trkpt lat="39.8775529302656650543212890625" lon="-0.51472596824169158935546875">
        <ele>457</ele>
        <time>2021-09-27T09:00:07.000Z</time>
      </trkpt>
      <trkpt lat="39.87746031023561954498291015625" lon="-0.51462697796523571014404296875">
        <ele>455.600006103515625</ele>
        <time>2021-09-27T09:00:09.000Z</time>
      </trkpt>
      <trkpt lat="39.87741135992109775543212890625" lon="-0.51458037458360195159912109375">
        <ele>455.399993896484375</ele>
        <time>2021-09-27T09:00:10.000Z</time>
      </trkpt>
      <trkpt lat="39.877360649406909942626953125" lon="-0.514541231095790863037109375">
        <ele>455.20001220703125</ele>
        <time>2021-09-27T09:00:11.000Z</time>
      </trkpt>
      <trkpt lat="39.8772525228559970855712890625" lon="-0.51445531658828258514404296875">
        <ele>454.79998779296875</ele>
        <time>2021-09-27T09:00:13.000Z</time>
      </trkpt>
      <trkpt lat="39.87714263610541820526123046875" lon="-0.51438038237392902374267578125">
        <ele>453.79998779296875</ele>
        <time>2021-09-27T09:00:15.000Z</time>
      </trkpt>
      <trkpt lat="39.877086393535137176513671875" lon="-0.5143511295318603515625">
        <ele>453.600006103515625</ele>
        <time>2021-09-27T09:00:16.000Z</time>
      </trkpt>
      <trkpt lat="39.87702839076519012451171875" lon="-0.51432087086141109466552734375">
        <ele>453.600006103515625</ele>
        <time>2021-09-27T09:00:17.000Z</time>
      </trkpt>
      <trkpt lat="39.87691649235785007476806640625" lon="-0.5142634548246860504150390625">
        <ele>453.600006103515625</ele>
        <time>2021-09-27T09:00:19.000Z</time>
      </trkpt>
      <trkpt lat="39.87680735997855663299560546875" lon="-0.5142134986817836761474609375">
        <ele>453.79998779296875</ele>
        <time>2021-09-27T09:00:21.000Z</time>
      </trkpt>
      <trkpt lat="39.8766926117241382598876953125" lon="-0.514174439013004302978515625">
        <ele>454.20001220703125</ele>
        <time>2021-09-27T09:00:23.000Z</time>
      </trkpt>
      <trkpt lat="39.876582138240337371826171875" lon="-0.51413529552519321441650390625">
        <ele>453.79998779296875</ele>
        <time>2021-09-27T09:00:25.000Z</time>
      </trkpt>
      <trkpt lat="39.87647158093750476837158203125" lon="-0.5140924639999866485595703125">
        <ele>453.20001220703125</ele>
        <time>2021-09-27T09:00:27.000Z</time>
      </trkpt>
      <trkpt lat="39.8763576708734035491943359375" lon="-0.51404946483671665191650390625">
        <ele>452.600006103515625</ele>
        <time>2021-09-27T09:00:29.000Z</time>
      </trkpt>
      <trkpt lat="39.8762456886470317840576171875" lon="-0.51399196498095989227294921875">
        <ele>451.399993896484375</ele>
        <time>2021-09-27T09:00:31.000Z</time>
      </trkpt>
      <trkpt lat="39.8761323653161525726318359375" lon="-0.51393899135291576385498046875">
        <ele>451.600006103515625</ele>
        <time>2021-09-27T09:00:33.000Z</time>
      </trkpt>
      <trkpt lat="39.87601585686206817626953125" lon="-0.51388333551585674285888671875">
        <ele>451.600006103515625</ele>
        <time>2021-09-27T09:00:35.000Z</time>
      </trkpt>
      <trkpt lat="39.8759013600647449493408203125" lon="-0.51383237354457378387451171875">
        <ele>452</ele>
        <time>2021-09-27T09:00:37.000Z</time>
      </trkpt>
      <trkpt lat="39.87578250467777252197265625" lon="-0.5137796513736248016357421875">
        <ele>453.20001220703125</ele>
        <time>2021-09-27T09:00:39.000Z</time>
      </trkpt>
      <trkpt lat="39.8756656609475612640380859375" lon="-0.51372173242270946502685546875">
        <ele>454.20001220703125</ele>
        <time>2021-09-27T09:00:41.000Z</time>
      </trkpt>
      <trkpt lat="39.8755499906837940216064453125" lon="-0.51366205327212810516357421875">
        <ele>455</ele>
        <time>2021-09-27T09:00:43.000Z</time>
      </trkpt>
      <trkpt lat="39.87544395960867404937744140625" lon="-0.51358678378164768218994140625">
        <ele>454.399993896484375</ele>
        <time>2021-09-27T09:00:45.000Z</time>
      </trkpt>
      <trkpt lat="39.87539316527545452117919921875" lon="-0.51354504190385341644287109375">
        <ele>454</ele>
        <time>2021-09-27T09:00:46.000Z</time>
      </trkpt>
      <trkpt lat="39.8753407783806324005126953125" lon="-0.51350128836929798126220703125">
        <ele>454</ele>
        <time>2021-09-27T09:00:47.000Z</time>
      </trkpt>
      <trkpt lat="39.87523860298097133636474609375" lon="-0.51341093145310878753662109375">
        <ele>453.79998779296875</ele>
        <time>2021-09-27T09:00:49.000Z</time>
      </trkpt>
      <trkpt lat="39.8751439712941646575927734375" lon="-0.5133156292140483856201171875">
        <ele>453.20001220703125</ele>
        <time>2021-09-27T09:00:51.000Z</time>
      </trkpt>
      <trkpt lat="39.8750973679125308990478515625" lon="-0.513265840709209442138671875">
        <ele>452.600006103515625</ele>
        <time>2021-09-27T09:00:52.000Z</time>
      </trkpt>
      <trkpt lat="39.875053949654102325439453125" lon="-0.51320976577699184417724609375">
        <ele>451.20001220703125</ele>
        <time>2021-09-27T09:00:53.000Z</time>
      </trkpt>
      <trkpt lat="39.87496870569884777069091796875" lon="-0.51309023983776569366455078125">
        <ele>448</ele>
        <time>2021-09-27T09:00:55.000Z</time>
      </trkpt>
      <trkpt lat="39.874889664351940155029296875" lon="-0.51296853460371494293212890625">
        <ele>445.399993896484375</ele>
        <time>2021-09-27T09:00:57.000Z</time>
      </trkpt>
      <trkpt lat="39.87485202960669994354248046875" lon="-0.51290818490087985992431640625">
        <ele>445</ele>
        <time>2021-09-27T09:00:58.000Z</time>
      </trkpt>
      <trkpt lat="39.874816238880157470703125" lon="-0.512845404446125030517578125">
        <ele>444.399993896484375</ele>
        <time>2021-09-27T09:00:59.000Z</time>
      </trkpt>
      <trkpt lat="39.8747433163225650787353515625" lon="-0.5127218551933765411376953125">
        <ele>443.399993896484375</ele>
        <time>2021-09-27T09:01:01.000Z</time>
      </trkpt>
      <trkpt lat="39.8746759258210659027099609375" lon="-0.51259822212159633636474609375">
        <ele>442.600006103515625</ele>
        <time>2021-09-27T09:01:03.000Z</time>
      </trkpt>
      <trkpt lat="39.8746061883866786956787109375" lon="-0.51249168813228607177734375">
        <ele>442</ele>
        <time>2021-09-27T09:01:05.000Z</time>
      </trkpt>
      <trkpt lat="39.87457282841205596923828125" lon="-0.512444414198398590087890625">
        <ele>441.79998779296875</ele>
        <time>2021-09-27T09:01:06.000Z</time>
      </trkpt>
      <trkpt lat="39.87454039044678211212158203125" lon="-0.5123956315219402313232421875">
        <ele>441.399993896484375</ele>
        <time>2021-09-27T09:01:07.000Z</time>
      </trkpt>
      <trkpt lat="39.874477945268154144287109375" lon="-0.51230066455900669097900390625">
        <ele>440.20001220703125</ele>
        <time>2021-09-27T09:01:09.000Z</time>
      </trkpt>
      <trkpt lat="39.874420277774333953857421875" lon="-0.5122068710625171661376953125">
        <ele>440.399993896484375</ele>
        <time>2021-09-27T09:01:11.000Z</time>
      </trkpt>
      <trkpt lat="39.87436939962208271026611328125" lon="-0.51211827434599399566650390625">
        <ele>440.600006103515625</ele>
        <time>2021-09-27T09:01:13.000Z</time>
      </trkpt>
      <trkpt lat="39.87434844486415386199951171875" lon="-0.51208038814365863800048828125">
        <ele>440.399993896484375</ele>
        <time>2021-09-27T09:01:14.000Z</time>
      </trkpt>
      <trkpt lat="39.8743279092013835906982421875" lon="-0.5120536498725414276123046875">
        <ele>440.600006103515625</ele>
        <time>2021-09-27T09:01:15.000Z</time>
      </trkpt>
      <trkpt lat="39.8742910288274288177490234375" lon="-0.51199723966419696807861328125">
        <ele>440.600006103515625</ele>
        <time>2021-09-27T09:01:17.000Z</time>
      </trkpt>
      <trkpt lat="39.87427049316465854644775390625" lon="-0.51195834763348102569580078125">
        <ele>440.600006103515625</ele>
        <time>2021-09-27T09:01:19.000Z</time>
      </trkpt>
      <trkpt lat="39.8742598481476306915283203125" lon="-0.511945188045501708984375">
        <ele>440.600006103515625</ele>
        <time>2021-09-27T09:01:21.000Z</time>
      </trkpt>
      <trkpt lat="39.8742598481476306915283203125" lon="-0.511945188045501708984375">
        <ele>440.600006103515625</ele>
        <time>2021-09-27T09:01:22.000Z</time>
      </trkpt>
      <trkpt lat="39.8742088861763477325439453125" lon="-0.51183194853365421295166015625">
        <ele>440.20001220703125</ele>
        <time>2021-09-27T09:01:54.000Z</time>
      </trkpt>
      <trkpt lat="39.87418432720005512237548828125" lon="-0.51180772483348846435546875">
        <ele>440.399993896484375</ele>
        <time>2021-09-27T09:01:55.000Z</time>
      </trkpt>
      <trkpt lat="39.87416018731892108917236328125" lon="-0.51177679561078548431396484375">
        <ele>440.600006103515625</ele>
        <time>2021-09-27T09:01:56.000Z</time>
      </trkpt>
      <trkpt lat="39.874137975275516510009765625" lon="-0.51173932850360870361328125">
        <ele>440.600006103515625</ele>
        <time>2021-09-27T09:01:57.000Z</time>
      </trkpt>
      <trkpt lat="39.87411408685147762298583984375" lon="-0.511705465614795684814453125">
        <ele>441.20001220703125</ele>
        <time>2021-09-27T09:01:58.000Z</time>
      </trkpt>
      <trkpt lat="39.87408600747585296630859375" lon="-0.511666573584079742431640625">
        <ele>441.79998779296875</ele>
        <time>2021-09-27T09:01:59.000Z</time>
      </trkpt>
      <trkpt lat="39.8740570060908794403076171875" lon="-0.51162173040211200714111328125">
        <ele>442.600006103515625</ele>
        <time>2021-09-27T09:02:00.000Z</time>
      </trkpt>
      <trkpt lat="39.87402498722076416015625" lon="-0.51157562993466854095458984375">
        <ele>443.20001220703125</ele>
        <time>2021-09-27T09:02:01.000Z</time>
      </trkpt>
      <trkpt lat="39.8739946447312831878662109375" lon="-0.511524416506290435791015625">
        <ele>444</ele>
        <time>2021-09-27T09:02:02.000Z</time>
      </trkpt>
      <trkpt lat="39.87396203912794589996337890625" lon="-0.51147521473467350006103515625">
        <ele>444.600006103515625</ele>
        <time>2021-09-27T09:02:03.000Z</time>
      </trkpt>
      <trkpt lat="39.8739004321396350860595703125" lon="-0.51136340014636516571044921875">
        <ele>446</ele>
        <time>2021-09-27T09:02:05.000Z</time>
      </trkpt>
      <trkpt lat="39.873834885656833648681640625" lon="-0.51125862635672092437744140625">
        <ele>447.600006103515625</ele>
        <time>2021-09-27T09:02:07.000Z</time>
      </trkpt>
      <trkpt lat="39.8737673275172710418701171875" lon="-0.511142201721668243408203125">
        <ele>448.79998779296875</ele>
        <time>2021-09-27T09:02:09.000Z</time>
      </trkpt>
      <trkpt lat="39.8737307824194431304931640625" lon="-0.511087216436862945556640625">
        <ele>449.399993896484375</ele>
        <time>2021-09-27T09:02:10.000Z</time>
      </trkpt>
      <trkpt lat="39.87369113601744174957275390625" lon="-0.51103834994137287139892578125">
        <ele>449.20001220703125</ele>
        <time>2021-09-27T09:02:11.000Z</time>
      </trkpt>
      <trkpt lat="39.87361930310726165771484375" lon="-0.5109479092061519622802734375">
        <ele>448.79998779296875</ele>
        <time>2021-09-27T09:02:13.000Z</time>
      </trkpt>
      <trkpt lat="39.8735453747212886810302734375" lon="-0.5108533613383769989013671875">
        <ele>448.399993896484375</ele>
        <time>2021-09-27T09:02:15.000Z</time>
      </trkpt>
      <trkpt lat="39.87346884794533252716064453125" lon="-0.51077029667794704437255859375">
        <ele>448</ele>
        <time>2021-09-27T09:02:17.000Z</time>
      </trkpt>
      <trkpt lat="39.8733898065984249114990234375" lon="-0.510695613920688629150390625">
        <ele>447.20001220703125</ele>
        <time>2021-09-27T09:02:19.000Z</time>
      </trkpt>
      <trkpt lat="39.87330657429993152618408203125" lon="-0.51063249818980693817138671875">
        <ele>446.600006103515625</ele>
        <time>2021-09-27T09:02:21.000Z</time>
      </trkpt>
      <trkpt lat="39.873217977583408355712890625" lon="-0.51056359894573688507080078125">
        <ele>446</ele>
        <time>2021-09-27T09:02:23.000Z</time>
      </trkpt>
      <trkpt lat="39.87313021905720233917236328125" lon="-0.5105026625096797943115234375">
        <ele>445.20001220703125</ele>
        <time>2021-09-27T09:02:25.000Z</time>
      </trkpt>
      <trkpt lat="39.87303868867456912994384765625" lon="-0.5104520358145236968994140625">
        <ele>444.399993896484375</ele>
        <time>2021-09-27T09:02:27.000Z</time>
      </trkpt>
      <trkpt lat="39.87299837172031402587890625" lon="-0.510432086884975433349609375">
        <ele>444</ele>
        <time>2021-09-27T09:02:28.000Z</time>
      </trkpt>
      <trkpt lat="39.87295453436672687530517578125" lon="-0.5104094557464122772216796875">
        <ele>443.600006103515625</ele>
        <time>2021-09-27T09:02:29.000Z</time>
      </trkpt>
      <trkpt lat="39.872905500233173370361328125" lon="-0.51039193756878376007080078125">
        <ele>443.399993896484375</ele>
        <time>2021-09-27T09:02:30.000Z</time>
      </trkpt>
      <trkpt lat="39.87285294570028781890869140625" lon="-0.51037718541920185089111328125">
        <ele>442.600006103515625</ele>
        <time>2021-09-27T09:02:31.000Z</time>
      </trkpt>
      <trkpt lat="39.87274465151131153106689453125" lon="-0.5103444121778011322021484375">
        <ele>440.79998779296875</ele>
        <time>2021-09-27T09:02:33.000Z</time>
      </trkpt>
      <trkpt lat="39.87263702787458896636962890625" lon="-0.51032169722020626068115234375">
        <ele>439</ele>
        <time>2021-09-27T09:02:35.000Z</time>
      </trkpt>
      <trkpt lat="39.872581623494625091552734375" lon="-0.51031566224992275238037109375">
        <ele>438.399993896484375</ele>
        <time>2021-09-27T09:02:36.000Z</time>
      </trkpt>
      <trkpt lat="39.87252906896173954010009765625" lon="-0.51031298004090785980224609375">
        <ele>437.600006103515625</ele>
        <time>2021-09-27T09:02:37.000Z</time>
      </trkpt>
      <trkpt lat="39.87242395989596843719482421875" lon="-0.51030627451837062835693359375">
        <ele>436.399993896484375</ele>
        <time>2021-09-27T09:02:39.000Z</time>
      </trkpt>
      <trkpt lat="39.87237283028662204742431640625" lon="-0.51030568778514862060546875">
        <ele>435.600006103515625</ele>
        <time>2021-09-27T09:02:40.000Z</time>
      </trkpt>
      <trkpt lat="39.872321449220180511474609375" lon="-0.51030862145125865936279296875">
        <ele>435.20001220703125</ele>
        <time>2021-09-27T09:02:41.000Z</time>
      </trkpt>
      <trkpt lat="39.8722092993557453155517578125" lon="-0.510318093001842498779296875">
        <ele>434</ele>
        <time>2021-09-27T09:02:43.000Z</time>
      </trkpt>
      <trkpt lat="39.87208985723555088043212890625" lon="-0.5103306658565998077392578125">
        <ele>433.20001220703125</ele>
        <time>2021-09-27T09:02:45.000Z</time>
      </trkpt>
      <trkpt lat="39.87197083421051502227783203125" lon="-0.51036193035542964935302734375">
        <ele>432.600006103515625</ele>
        <time>2021-09-27T09:02:47.000Z</time>
      </trkpt>
      <trkpt lat="39.87184929661452770233154296875" lon="-0.51040015183389186859130859375">
        <ele>432</ele>
        <time>2021-09-27T09:02:49.000Z</time>
      </trkpt>
      <trkpt lat="39.87172164022922515869140625" lon="-0.510448180139064788818359375">
        <ele>431.600006103515625</ele>
        <time>2021-09-27T09:02:51.000Z</time>
      </trkpt>
      <trkpt lat="39.87159431912004947662353515625" lon="-0.51049956120550632476806640625">
        <ele>431</ele>
        <time>2021-09-27T09:02:53.000Z</time>
      </trkpt>
      <trkpt lat="39.87147160805761814117431640625" lon="-0.51056561060249805450439453125">
        <ele>430.399993896484375</ele>
        <time>2021-09-27T09:02:55.000Z</time>
      </trkpt>
      <trkpt lat="39.8713533394038677215576171875" lon="-0.5106518603861331939697265625">
        <ele>429.79998779296875</ele>
        <time>2021-09-27T09:02:57.000Z</time>
      </trkpt>
      <trkpt lat="39.87129709683358669281005859375" lon="-0.51069058477878570556640625">
        <ele>429.399993896484375</ele>
        <time>2021-09-27T09:02:58.000Z</time>
      </trkpt>
      <trkpt lat="39.87124093808233737945556640625" lon="-0.51073861308395862579345703125">
        <ele>429.20001220703125</ele>
        <time>2021-09-27T09:02:59.000Z</time>
      </trkpt>
      <trkpt lat="39.8711263574659824371337890625" lon="-0.5108335800468921661376953125">
        <ele>429.399993896484375</ele>
        <time>2021-09-27T09:03:01.000Z</time>
      </trkpt>
      <trkpt lat="39.87100875936448574066162109375" lon="-0.51092485897243022918701171875">
        <ele>429.600006103515625</ele>
        <time>2021-09-27T09:03:03.000Z</time>
      </trkpt>
      <trkpt lat="39.8708873055875301361083984375" lon="-0.5110149644315242767333984375">
        <ele>429.600006103515625</ele>
        <time>2021-09-27T09:03:05.000Z</time>
      </trkpt>
      <trkpt lat="39.87082687206566333770751953125" lon="-0.51105779595673084259033203125">
        <ele>429.79998779296875</ele>
        <time>2021-09-27T09:03:06.000Z</time>
      </trkpt>
      <trkpt lat="39.8707629181444644927978515625" lon="-0.51110087893903255462646484375">
        <ele>429.79998779296875</ele>
        <time>2021-09-27T09:03:07.000Z</time>
      </trkpt>
      <trkpt lat="39.8706338368356227874755859375" lon="-0.511189140379428863525390625">
        <ele>429.79998779296875</ele>
        <time>2021-09-27T09:03:09.000Z</time>
      </trkpt>
      <trkpt lat="39.87051255069673061370849609375" lon="-0.5112774856388568878173828125">
        <ele>430</ele>
        <time>2021-09-27T09:03:11.000Z</time>
      </trkpt>
      <trkpt lat="39.870387576520442962646484375" lon="-0.51137211732566356658935546875">
        <ele>430</ele>
        <time>2021-09-27T09:03:13.000Z</time>
      </trkpt>
      <trkpt lat="39.87025849521160125732421875" lon="-0.51147169433534145355224609375">
        <ele>430.20001220703125</ele>
        <time>2021-09-27T09:03:15.000Z</time>
      </trkpt>
      <trkpt lat="39.87019336782395839691162109375" lon="-0.5115185491740703582763671875">
        <ele>430.20001220703125</ele>
        <time>2021-09-27T09:03:16.000Z</time>
      </trkpt>
      <trkpt lat="39.87013109028339385986328125" lon="-0.51156439818441867828369140625">
        <ele>430.20001220703125</ele>
        <time>2021-09-27T09:03:17.000Z</time>
      </trkpt>
      <trkpt lat="39.87000477500259876251220703125" lon="-0.51165349781513214111328125">
        <ele>430.20001220703125</ele>
        <time>2021-09-27T09:03:19.000Z</time>
      </trkpt>
      <trkpt lat="39.86988365650177001953125" lon="-0.511736981570720672607421875">
        <ele>430.20001220703125</ele>
        <time>2021-09-27T09:03:21.000Z</time>
      </trkpt>
      <trkpt lat="39.86982263624668121337890625" lon="-0.5117780528962612152099609375">
        <ele>430.20001220703125</ele>
        <time>2021-09-27T09:03:22.000Z</time>
      </trkpt>
      <trkpt lat="39.8697594366967678070068359375" lon="-0.51181484945118427276611328125">
        <ele>430.20001220703125</ele>
        <time>2021-09-27T09:03:23.000Z</time>
      </trkpt>
      <trkpt lat="39.86963110975921154022216796875" lon="-0.51189280115067958831787109375">
        <ele>430.20001220703125</ele>
        <time>2021-09-27T09:03:25.000Z</time>
      </trkpt>
      <trkpt lat="39.8694995976984500885009765625" lon="-0.51196186803281307220458984375">
        <ele>430</ele>
        <time>2021-09-27T09:03:27.000Z</time>
      </trkpt>
      <trkpt lat="39.86936959438025951385498046875" lon="-0.5120217986404895782470703125">
        <ele>429.79998779296875</ele>
        <time>2021-09-27T09:03:29.000Z</time>
      </trkpt>
      <trkpt lat="39.869240261614322662353515625" lon="-0.5120720900595188140869140625">
        <ele>429.399993896484375</ele>
        <time>2021-09-27T09:03:31.000Z</time>
      </trkpt>
      <trkpt lat="39.8691234178841114044189453125" lon="-0.5121180228888988494873046875">
        <ele>429.20001220703125</ele>
        <time>2021-09-27T09:03:33.000Z</time>
      </trkpt>
      <trkpt lat="39.8690159618854522705078125" lon="-0.51214794628322124481201171875">
        <ele>429</ele>
        <time>2021-09-27T09:03:35.000Z</time>
      </trkpt>
      <trkpt lat="39.86894010566174983978271484375" lon="-0.512168817222118377685546875">
        <ele>428.79998779296875</ele>
        <time>2021-09-27T09:03:37.000Z</time>
      </trkpt>
      <trkpt lat="39.8689135350286960601806640625" lon="-0.51217443309724330902099609375">
        <ele>428.600006103515625</ele>
        <time>2021-09-27T09:03:38.000Z</time>
      </trkpt>
      <trkpt lat="39.86889651976525783538818359375" lon="-0.51217711530625820159912109375">
        <ele>428.600006103515625</ele>
        <time>2021-09-27T09:03:39.000Z</time>
      </trkpt>
      <trkpt lat="39.86886349506676197052001953125" lon="-0.512184239923954010009765625">
        <ele>428.600006103515625</ele>
        <time>2021-09-27T09:03:41.000Z</time>
      </trkpt>
      <trkpt lat="39.86879535019397735595703125" lon="-0.51219941116869449615478515625">
        <ele>428.399993896484375</ele>
        <time>2021-09-27T09:03:43.000Z</time>
      </trkpt>
      <trkpt lat="39.8687566258013248443603515625" lon="-0.51220410503447055816650390625">
        <ele>428.20001220703125</ele>
        <time>2021-09-27T09:03:44.000Z</time>
      </trkpt>
      <trkpt lat="39.868711531162261962890625" lon="-0.5122078768908977508544921875">
        <ele>428.20001220703125</ele>
        <time>2021-09-27T09:03:45.000Z</time>
      </trkpt>
      <trkpt lat="39.868601895868778228759765625" lon="-0.51222212612628936767578125">
        <ele>427.79998779296875</ele>
        <time>2021-09-27T09:03:47.000Z</time>
      </trkpt>
      <trkpt lat="39.86854531802237033843994140625" lon="-0.51222707144916057586669921875">
        <ele>427.79998779296875</ele>
        <time>2021-09-27T09:03:48.000Z</time>
      </trkpt>
      <trkpt lat="39.86848480068147182464599609375" lon="-0.5122330226004123687744140625">
        <ele>427.600006103515625</ele>
        <time>2021-09-27T09:03:49.000Z</time>
      </trkpt>
      <trkpt lat="39.868363179266452789306640625" lon="-0.5122447572648525238037109375">
        <ele>427.399993896484375</ele>
        <time>2021-09-27T09:03:51.000Z</time>
      </trkpt>
      <trkpt lat="39.86823803745210170745849609375" lon="-0.5122588388621807098388671875">
        <ele>427</ele>
        <time>2021-09-27T09:03:53.000Z</time>
      </trkpt>
      <trkpt lat="39.86817173659801483154296875" lon="-0.512262023985385894775390625">
        <ele>426.79998779296875</ele>
        <time>2021-09-27T09:03:54.000Z</time>
      </trkpt>
      <trkpt lat="39.86810526810586452484130859375" lon="-0.51226562820374965667724609375">
        <ele>426.79998779296875</ele>
        <time>2021-09-27T09:03:55.000Z</time>
      </trkpt>
      <trkpt lat="39.86797719262540340423583984375" lon="-0.51227283664047718048095703125">
        <ele>426.399993896484375</ele>
        <time>2021-09-27T09:03:57.000Z</time>
      </trkpt>
      <trkpt lat="39.86785121262073516845703125" lon="-0.5122839845716953277587890625">
        <ele>426.399993896484375</ele>
        <time>2021-09-27T09:03:59.000Z</time>
      </trkpt>
      <trkpt lat="39.86771576106548309326171875" lon="-0.512295551598072052001953125">
        <ele>427</ele>
        <time>2021-09-27T09:04:01.000Z</time>
      </trkpt>
      <trkpt lat="39.8675855062901973724365234375" lon="-0.5123047716915607452392578125">
        <ele>427.399993896484375</ele>
        <time>2021-09-27T09:04:03.000Z</time>
      </trkpt>
      <trkpt lat="39.86745424568653106689453125" lon="-0.5123108066618442535400390625">
        <ele>428</ele>
        <time>2021-09-27T09:04:05.000Z</time>
      </trkpt>
      <trkpt lat="39.86738995648920536041259765625" lon="-0.51231273449957370758056640625">
        <ele>428.20001220703125</ele>
        <time>2021-09-27T09:04:06.000Z</time>
      </trkpt>
      <trkpt lat="39.86732407473027706146240234375" lon="-0.51231239922344684600830078125">
        <ele>428.399993896484375</ele>
        <time>2021-09-27T09:04:07.000Z</time>
      </trkpt>
      <trkpt lat="39.86719348467886447906494140625" lon="-0.5123044364154338836669921875">
        <ele>428.79998779296875</ele>
        <time>2021-09-27T09:04:09.000Z</time>
      </trkpt>
      <trkpt lat="39.867058284580707550048828125" lon="-0.51230502314865589141845703125">
        <ele>429.399993896484375</ele>
        <time>2021-09-27T09:04:11.000Z</time>
      </trkpt>
      <trkpt lat="39.86693180166184902191162109375" lon="-0.512313656508922576904296875">
        <ele>429.600006103515625</ele>
        <time>2021-09-27T09:04:13.000Z</time>
      </trkpt>
      <trkpt lat="39.86680188216269016265869140625" lon="-0.51232027821242809295654296875">
        <ele>430</ele>
        <time>2021-09-27T09:04:15.000Z</time>
      </trkpt>
      <trkpt lat="39.866675399243831634521484375" lon="-0.512321703135967254638671875">
        <ele>430.20001220703125</ele>
        <time>2021-09-27T09:04:17.000Z</time>
      </trkpt>
      <trkpt lat="39.8666121996939182281494140625" lon="-0.5123233795166015625">
        <ele>430.399993896484375</ele>
        <time>2021-09-27T09:04:18.000Z</time>
      </trkpt>
      <trkpt lat="39.8665481619536876678466796875" lon="-0.51232346333563327789306640625">
        <ele>430.600006103515625</ele>
        <time>2021-09-27T09:04:19.000Z</time>
      </trkpt>
      <trkpt lat="39.86648320220410823822021484375" lon="-0.51232379861176013946533203125">
        <ele>430.79998779296875</ele>
        <time>2021-09-27T09:04:20.000Z</time>
      </trkpt>
      <trkpt lat="39.86641664989292621612548828125" lon="-0.512323044240474700927734375">
        <ele>431</ele>
        <time>2021-09-27T09:04:21.000Z</time>
      </trkpt>
      <trkpt lat="39.86628346145153045654296875" lon="-0.51232882775366306304931640625">
        <ele>431.20001220703125</ele>
        <time>2021-09-27T09:04:23.000Z</time>
      </trkpt>
      <trkpt lat="39.8661505244672298431396484375" lon="-0.5123434960842132568359375">
        <ele>431.399993896484375</ele>
        <time>2021-09-27T09:04:25.000Z</time>
      </trkpt>
      <trkpt lat="39.86602437682449817657470703125" lon="-0.5123542249202728271484375">
        <ele>431.20001220703125</ele>
        <time>2021-09-27T09:04:27.000Z</time>
      </trkpt>
      <trkpt lat="39.8659688048064708709716796875" lon="-0.5123595893383026123046875">
        <ele>431</ele>
        <time>2021-09-27T09:04:28.000Z</time>
      </trkpt>
      <trkpt lat="39.8659099638462066650390625" lon="-0.512364618480205535888671875">
        <ele>431</ele>
        <time>2021-09-27T09:04:29.000Z</time>
      </trkpt>
      <trkpt lat="39.86585103906691074371337890625" lon="-0.5123667977750301361083984375">
        <ele>430.79998779296875</ele>
        <time>2021-09-27T09:04:30.000Z</time>
      </trkpt>
      <trkpt lat="39.8657924495637416839599609375" lon="-0.5123721621930599212646484375">
        <ele>430.600006103515625</ele>
        <time>2021-09-27T09:04:31.000Z</time>
      </trkpt>
      <trkpt lat="39.865730591118335723876953125" lon="-0.5123765207827091217041015625">
        <ele>430.600006103515625</ele>
        <time>2021-09-27T09:04:32.000Z</time>
      </trkpt>
      <trkpt lat="39.86566496081650257110595703125" lon="-0.51238398067653179168701171875">
        <ele>430.399993896484375</ele>
        <time>2021-09-27T09:04:33.000Z</time>
      </trkpt>
      <trkpt lat="39.86559740267693996429443359375" lon="-0.5123932845890522003173828125">
        <ele>430.20001220703125</ele>
        <time>2021-09-27T09:04:34.000Z</time>
      </trkpt>
      <trkpt lat="39.865525066852569580078125" lon="-0.51239990629255771636962890625">
        <ele>430.20001220703125</ele>
        <time>2021-09-27T09:04:35.000Z</time>
      </trkpt>
      <trkpt lat="39.86540897749364376068115234375" lon="-0.512405522167682647705078125">
        <ele>429.79998779296875</ele>
        <time>2021-09-27T09:04:37.000Z</time>
      </trkpt>
      <trkpt lat="39.86534963361918926239013671875" lon="-0.51241113804280757904052734375">
        <ele>430</ele>
        <time>2021-09-27T09:04:38.000Z</time>
      </trkpt>
      <trkpt lat="39.86528459005057811737060546875" lon="-0.5124164186418056488037109375">
        <ele>430.20001220703125</ele>
        <time>2021-09-27T09:04:39.000Z</time>
      </trkpt>
      <trkpt lat="39.864849485456943511962890625" lon="-0.51244231872260570526123046875">
        <ele>430.600006103515625</ele>
        <time>2021-09-27T09:04:45.000Z</time>
      </trkpt>
      <trkpt lat="39.86473381519317626953125" lon="-0.5124764330685138702392578125">
        <ele>430.79998779296875</ele>
        <time>2021-09-27T09:04:47.000Z</time>
      </trkpt>
      <trkpt lat="39.86460305750370025634765625" lon="-0.512504093348979949951171875">
        <ele>431</ele>
        <time>2021-09-27T09:04:49.000Z</time>
      </trkpt>
      <trkpt lat="39.8644835315644741058349609375" lon="-0.51252312026917934417724609375">
        <ele>431.399993896484375</ele>
        <time>2021-09-27T09:04:51.000Z</time>
      </trkpt>
      <trkpt lat="39.864421002566814422607421875" lon="-0.51253032870590686798095703125">
        <ele>431.600006103515625</ele>
        <time>2021-09-27T09:04:52.000Z</time>
      </trkpt>
      <trkpt lat="39.8643651790916919708251953125" lon="-0.51253519020974636077880859375">
        <ele>432</ele>
        <time>2021-09-27T09:04:53.000Z</time>
      </trkpt>
      <trkpt lat="39.86430508084595203399658203125" lon="-0.5125394649803638458251953125">
        <ele>432.20001220703125</ele>
        <time>2021-09-27T09:04:54.000Z</time>
      </trkpt>
      <trkpt lat="39.8642461560666561126708984375" lon="-0.51253904588520526885986328125">
        <ele>432.399993896484375</ele>
        <time>2021-09-27T09:04:55.000Z</time>
      </trkpt>
      <trkpt lat="39.86413358710706233978271484375" lon="-0.51254172809422016143798828125">
        <ele>432.79998779296875</ele>
        <time>2021-09-27T09:04:57.000Z</time>
      </trkpt>
      <trkpt lat="39.86407793127000331878662109375" lon="-0.5125424824655055999755859375">
        <ele>432.79998779296875</ele>
        <time>2021-09-27T09:04:58.000Z</time>
      </trkpt>
      <trkpt lat="39.8640238679945468902587890625" lon="-0.51254642195999622344970703125">
        <ele>433</ele>
        <time>2021-09-27T09:04:59.000Z</time>
      </trkpt>
      <trkpt lat="39.8639742471277713775634765625" lon="-0.51254893653094768524169921875">
        <ele>433.20001220703125</ele>
        <time>2021-09-27T09:05:00.000Z</time>
      </trkpt>
      <trkpt lat="39.86392487771809101104736328125" lon="-0.512553043663501739501953125">
        <ele>433.20001220703125</ele>
        <time>2021-09-27T09:05:01.000Z</time>
      </trkpt>
      <trkpt lat="39.8638227023184299468994140625" lon="-0.51255815662443637847900390625">
        <ele>433.600006103515625</ele>
        <time>2021-09-27T09:05:03.000Z</time>
      </trkpt>
      <trkpt lat="39.8637207783758640289306640625" lon="-0.51255228929221630096435546875">
        <ele>433.79998779296875</ele>
        <time>2021-09-27T09:05:05.000Z</time>
      </trkpt>
      <trkpt lat="39.86366654746234416961669921875" lon="-0.51255111582577228546142578125">
        <ele>433.600006103515625</ele>
        <time>2021-09-27T09:05:06.000Z</time>
      </trkpt>
      <trkpt lat="39.86361198127269744873046875" lon="-0.512546002864837646484375">
        <ele>433.399993896484375</ele>
        <time>2021-09-27T09:05:07.000Z</time>
      </trkpt>
      <trkpt lat="39.86350578255951404571533203125" lon="-0.51254038698971271514892578125">
        <ele>433.20001220703125</ele>
        <time>2021-09-27T09:05:09.000Z</time>
      </trkpt>
      <trkpt lat="39.86340050585567951202392578125" lon="-0.5125366151332855224609375">
        <ele>432.79998779296875</ele>
        <time>2021-09-27T09:05:11.000Z</time>
      </trkpt>
      <trkpt lat="39.86329740844666957855224609375" lon="-0.51253016106784343719482421875">
        <ele>432.600006103515625</ele>
        <time>2021-09-27T09:05:13.000Z</time>
      </trkpt>
      <trkpt lat="39.863193891942501068115234375" lon="-0.51252446137368679046630859375">
        <ele>432.399993896484375</ele>
        <time>2021-09-27T09:05:15.000Z</time>
      </trkpt>
      <trkpt lat="39.86308450810611248016357421875" lon="-0.512511469423770904541015625">
        <ele>432.20001220703125</ele>
        <time>2021-09-27T09:05:17.000Z</time>
      </trkpt>
      <trkpt lat="39.8629741184413433074951171875" lon="-0.51249495707452297210693359375">
        <ele>432</ele>
        <time>2021-09-27T09:05:19.000Z</time>
      </trkpt>
      <trkpt lat="39.86291770823299884796142578125" lon="-0.5124848149716854095458984375">
        <ele>432</ele>
        <time>2021-09-27T09:05:20.000Z</time>
      </trkpt>
      <trkpt lat="39.86286238767206668853759765625" lon="-0.51247416995465755462646484375">
        <ele>431.600006103515625</ele>
        <time>2021-09-27T09:05:21.000Z</time>
      </trkpt>
      <trkpt lat="39.86274738796055316925048828125" lon="-0.51244248636066913604736328125">
        <ele>431</ele>
        <time>2021-09-27T09:05:23.000Z</time>
      </trkpt>
      <trkpt lat="39.8626376688480377197265625" lon="-0.5124197714030742645263671875">
        <ele>430.20001220703125</ele>
        <time>2021-09-27T09:05:25.000Z</time>
      </trkpt>
      <trkpt lat="39.86251990310847759246826171875" lon="-0.51238716579973697662353515625">
        <ele>429.79998779296875</ele>
        <time>2021-09-27T09:05:27.000Z</time>
      </trkpt>
      <trkpt lat="39.86240255646407604217529296875" lon="-0.51235162653028964996337890625">
        <ele>429.399993896484375</ele>
        <time>2021-09-27T09:05:29.000Z</time>
      </trkpt>
      <trkpt lat="39.86227733083069324493408203125" lon="-0.5123406462371349334716796875">
        <ele>429.20001220703125</ele>
        <time>2021-09-27T09:05:31.000Z</time>
      </trkpt>
      <trkpt lat="39.86221723258495330810546875" lon="-0.51235430873930454254150390625">
        <ele>429</ele>
        <time>2021-09-27T09:05:32.000Z</time>
      </trkpt>
      <trkpt lat="39.86216065473854541778564453125" lon="-0.51238574087619781494140625">
        <ele>429</ele>
        <time>2021-09-27T09:05:33.000Z</time>
      </trkpt>
      <trkpt lat="39.8620557971298694610595703125" lon="-0.5124418996274471282958984375">
        <ele>429</ele>
        <time>2021-09-27T09:05:35.000Z</time>
      </trkpt>
      <trkpt lat="39.86194456927478313446044921875" lon="-0.51248137839138507843017578125">
        <ele>428.20001220703125</ele>
        <time>2021-09-27T09:05:37.000Z</time>
      </trkpt>
      <trkpt lat="39.86168573610484600067138671875" lon="-0.512400828301906585693359375">
        <ele>426.399993896484375</ele>
        <time>2021-09-27T09:05:45.000Z</time>
      </trkpt>
      <trkpt lat="39.86164391040802001953125" lon="-0.51256000064313411712646484375">
        <ele>426.399993896484375</ele>
        <time>2021-09-27T09:05:46.000Z</time>
      </trkpt>
      <trkpt lat="39.861524887382984161376953125" lon="-0.51267382688820362091064453125">
        <ele>426</ele>
        <time>2021-09-27T09:05:47.000Z</time>
      </trkpt>
      <trkpt lat="39.8613262362778186798095703125" lon="-0.51287884823977947235107421875">
        <ele>425.399993896484375</ele>
        <time>2021-09-27T09:05:48.000Z</time>
      </trkpt>
      <trkpt lat="39.86126915551722049713134765625" lon="-0.5129471607506275177001953125">
        <ele>425.20001220703125</ele>
        <time>2021-09-27T09:05:49.000Z</time>
      </trkpt>
      <trkpt lat="39.86116086132824420928955078125" lon="-0.51307967863976955413818359375">
        <ele>424.600006103515625</ele>
        <time>2021-09-27T09:05:51.000Z</time>
      </trkpt>
      <trkpt lat="39.861094392836093902587890625" lon="-0.51316634751856327056884765625">
        <ele>424.399993896484375</ele>
        <time>2021-09-27T09:05:53.000Z</time>
      </trkpt>
      <trkpt lat="39.86103303730487823486328125" lon="-0.51327162422239780426025390625">
        <ele>424</ele>
        <time>2021-09-27T09:05:55.000Z</time>
      </trkpt>
      <trkpt lat="39.860966987907886505126953125" lon="-0.51338327117264270782470703125">
        <ele>423.600006103515625</ele>
        <time>2021-09-27T09:05:57.000Z</time>
      </trkpt>
      <trkpt lat="39.86090295016765594482421875" lon="-0.5135007016360759735107421875">
        <ele>423.20001220703125</ele>
        <time>2021-09-27T09:05:59.000Z</time>
      </trkpt>
      <trkpt lat="39.86084151081740856170654296875" lon="-0.51363238133490085601806640625">
        <ele>422.79998779296875</ele>
        <time>2021-09-27T09:06:01.000Z</time>
      </trkpt>
      <trkpt lat="39.860775880515575408935546875" lon="-0.51376079209148883819580078125">
        <ele>422.399993896484375</ele>
        <time>2021-09-27T09:06:03.000Z</time>
      </trkpt>
      <trkpt lat="39.86071251332759857177734375" lon="-0.51389121450483798980712890625">
        <ele>422</ele>
        <time>2021-09-27T09:06:05.000Z</time>
      </trkpt>
      <trkpt lat="39.86067856661975383758544921875" lon="-0.51396212540566921234130859375">
        <ele>421.600006103515625</ele>
        <time>2021-09-27T09:06:06.000Z</time>
      </trkpt>
      <trkpt lat="39.86064705066382884979248046875" lon="-0.514034964144229888916015625">
        <ele>421.20001220703125</ele>
        <time>2021-09-27T09:06:07.000Z</time>
      </trkpt>
      <trkpt lat="39.86058066599071025848388671875" lon="-0.5141729302704334259033203125">
        <ele>420.399993896484375</ele>
        <time>2021-09-27T09:06:09.000Z</time>
      </trkpt>
      <trkpt lat="39.86051629297435283660888671875" lon="-0.5143100582063198089599609375">
        <ele>419.79998779296875</ele>
        <time>2021-09-27T09:06:11.000Z</time>
      </trkpt>
      <trkpt lat="39.86048360355198383331298828125" lon="-0.5143792927265167236328125">
        <ele>419.399993896484375</ele>
        <time>2021-09-27T09:06:12.000Z</time>
      </trkpt>
      <trkpt lat="39.86044923774898052215576171875" lon="-0.51444433629512786865234375">
        <ele>419</ele>
        <time>2021-09-27T09:06:13.000Z</time>
      </trkpt>
      <trkpt lat="39.8603820987045764923095703125" lon="-0.5145752616226673126220703125">
        <ele>418.20001220703125</ele>
        <time>2021-09-27T09:06:15.000Z</time>
      </trkpt>
      <trkpt lat="39.86032099463045597076416015625" lon="-0.51470987498760223388671875">
        <ele>418</ele>
        <time>2021-09-27T09:06:17.000Z</time>
      </trkpt>
      <trkpt lat="39.86025494523346424102783203125" lon="-0.51483954302966594696044921875">
        <ele>418.79998779296875</ele>
        <time>2021-09-27T09:06:19.000Z</time>
      </trkpt>
      <trkpt lat="39.860218651592731475830078125" lon="-0.51490441896021366119384765625">
        <ele>419</ele>
        <time>2021-09-27T09:06:20.000Z</time>
      </trkpt>
      <trkpt lat="39.86018118448555469512939453125" lon="-0.51496761851012706756591796875">
        <ele>419.399993896484375</ele>
        <time>2021-09-27T09:06:21.000Z</time>
      </trkpt>
      <trkpt lat="39.8600994609296321868896484375" lon="-0.515093095600605010986328125">
        <ele>420</ele>
        <time>2021-09-27T09:06:23.000Z</time>
      </trkpt>
      <trkpt lat="39.86001379787921905517578125" lon="-0.51521186716854572296142578125">
        <ele>420.600006103515625</ele>
        <time>2021-09-27T09:06:25.000Z</time>
      </trkpt>
      <trkpt lat="39.85992201603949069976806640625" lon="-0.51532921381294727325439453125">
        <ele>421</ele>
        <time>2021-09-27T09:06:27.000Z</time>
      </trkpt>
      <trkpt lat="39.85982713289558887481689453125" lon="-0.51545209251344203948974609375">
        <ele>421.600006103515625</ele>
        <time>2021-09-27T09:06:29.000Z</time>
      </trkpt>
      <trkpt lat="39.8597262986004352569580078125" lon="-0.5155690200626850128173828125">
        <ele>422</ele>
        <time>2021-09-27T09:06:31.000Z</time>
      </trkpt>
      <trkpt lat="39.85962211154401302337646484375" lon="-0.5156815052032470703125">
        <ele>422.600006103515625</ele>
        <time>2021-09-27T09:06:33.000Z</time>
      </trkpt>
      <trkpt lat="39.85956712625920772552490234375" lon="-0.51573607139289379119873046875">
        <ele>422.79998779296875</ele>
        <time>2021-09-27T09:06:34.000Z</time>
      </trkpt>
      <trkpt lat="39.85950711183249950408935546875" lon="-0.5157923139631748199462890625">
        <ele>422.79998779296875</ele>
        <time>2021-09-27T09:06:35.000Z</time>
      </trkpt>
      <trkpt lat="39.8593866638839244842529296875" lon="-0.5158905498683452606201171875">
        <ele>423.20001220703125</ele>
        <time>2021-09-27T09:06:37.000Z</time>
      </trkpt>
      <trkpt lat="39.8592673055827617645263671875" lon="-0.5159844271838665008544921875">
        <ele>423.399993896484375</ele>
        <time>2021-09-27T09:06:39.000Z</time>
      </trkpt>
      <trkpt lat="39.85914316959679126739501953125" lon="-0.51606816239655017852783203125">
        <ele>423.600006103515625</ele>
        <time>2021-09-27T09:06:41.000Z</time>
      </trkpt>
      <trkpt lat="39.8590098135173320770263671875" lon="-0.51614443771541118621826171875">
        <ele>423.600006103515625</ele>
        <time>2021-09-27T09:06:43.000Z</time>
      </trkpt>
      <trkpt lat="39.85886690206825733184814453125" lon="-0.51620897836983203887939453125">
        <ele>423.600006103515625</ele>
        <time>2021-09-27T09:06:45.000Z</time>
      </trkpt>
      <trkpt lat="39.85879247076809406280517578125" lon="-0.5162382312119007110595703125">
        <ele>423.600006103515625</ele>
        <time>2021-09-27T09:06:46.000Z</time>
      </trkpt>
      <trkpt lat="39.85871694982051849365234375" lon="-0.516265891492366790771484375">
        <ele>423.600006103515625</ele>
        <time>2021-09-27T09:06:47.000Z</time>
      </trkpt>
      <trkpt lat="39.85856615938246250152587890625" lon="-0.516316853463649749755859375">
        <ele>422.399993896484375</ele>
        <time>2021-09-27T09:06:49.000Z</time>
      </trkpt>
      <trkpt lat="39.85841360874474048614501953125" lon="-0.51634778268635272979736328125">
        <ele>421</ele>
        <time>2021-09-27T09:06:51.000Z</time>
      </trkpt>
      <trkpt lat="39.85833800397813320159912109375" lon="-0.5163599364459514617919921875">
        <ele>420.399993896484375</ele>
        <time>2021-09-27T09:06:52.000Z</time>
      </trkpt>
      <trkpt lat="39.85826055519282817840576171875" lon="-0.51637644879519939422607421875">
        <ele>419.600006103515625</ele>
        <time>2021-09-27T09:06:53.000Z</time>
      </trkpt>
      <trkpt lat="39.85810582526028156280517578125" lon="-0.51640947349369525909423828125">
        <ele>418.20001220703125</ele>
        <time>2021-09-27T09:06:55.000Z</time>
      </trkpt>
      <trkpt lat="39.8579520173370838165283203125" lon="-0.51643327809870243072509765625">
        <ele>416.79998779296875</ele>
        <time>2021-09-27T09:06:57.000Z</time>
      </trkpt>
      <trkpt lat="39.857870377600193023681640625" lon="-0.51644585095345973968505859375">
        <ele>416.399993896484375</ele>
        <time>2021-09-27T09:06:58.000Z</time>
      </trkpt>
      <trkpt lat="39.8577887378633022308349609375" lon="-0.516457669436931610107421875">
        <ele>416.600006103515625</ele>
        <time>2021-09-27T09:06:59.000Z</time>
      </trkpt>
      <trkpt lat="39.85762503929436206817626953125" lon="-0.5164906941354274749755859375">
        <ele>416.79998779296875</ele>
        <time>2021-09-27T09:07:01.000Z</time>
      </trkpt>
      <trkpt lat="39.857455305755138397216796875" lon="-0.51652279682457447052001953125">
        <ele>417.20001220703125</ele>
        <time>2021-09-27T09:07:03.000Z</time>
      </trkpt>
      <trkpt lat="39.8572901822626590728759765625" lon="-0.51654978655278682708740234375">
        <ele>417.399993896484375</ele>
        <time>2021-09-27T09:07:05.000Z</time>
      </trkpt>
      <trkpt lat="39.85720644704997539520263671875" lon="-0.51656336523592472076416015625">
        <ele>417.600006103515625</ele>
        <time>2021-09-27T09:07:06.000Z</time>
      </trkpt>
      <trkpt lat="39.8571248911321163177490234375" lon="-0.51657778210937976837158203125">
        <ele>417.79998779296875</ele>
        <time>2021-09-27T09:07:07.000Z</time>
      </trkpt>
      <trkpt lat="39.8569532297551631927490234375" lon="-0.5166050232946872711181640625">
        <ele>417.20001220703125</ele>
        <time>2021-09-27T09:07:09.000Z</time>
      </trkpt>
      <trkpt lat="39.85678148455917835235595703125" lon="-0.5166341923177242279052734375">
        <ele>416</ele>
        <time>2021-09-27T09:07:11.000Z</time>
      </trkpt>
      <trkpt lat="39.856613092124462127685546875" lon="-0.51666730083525180816650390625">
        <ele>415.600006103515625</ele>
        <time>2021-09-27T09:07:13.000Z</time>
      </trkpt>
      <trkpt lat="39.85652960836887359619140625" lon="-0.5166797898709774017333984375">
        <ele>415.399993896484375</ele>
        <time>2021-09-27T09:07:14.000Z</time>
      </trkpt>
      <trkpt lat="39.8564466275274753570556640625" lon="-0.51669412292540073394775390625">
        <ele>415</ele>
        <time>2021-09-27T09:07:15.000Z</time>
      </trkpt>
      <trkpt lat="39.8562836833298206329345703125" lon="-0.516725890338420867919921875">
        <ele>414.600006103515625</ele>
        <time>2021-09-27T09:07:17.000Z</time>
      </trkpt>
      <trkpt lat="39.85611923038959503173828125" lon="-0.5167605914175510406494140625">
        <ele>414.79998779296875</ele>
        <time>2021-09-27T09:07:19.000Z</time>
      </trkpt>
      <trkpt lat="39.855957292020320892333984375" lon="-0.51679403521120548248291015625">
        <ele>415</ele>
        <time>2021-09-27T09:07:21.000Z</time>
      </trkpt>
      <trkpt lat="39.85579141415655612945556640625" lon="-0.51682773046195507049560546875">
        <ele>415.399993896484375</ele>
        <time>2021-09-27T09:07:23.000Z</time>
      </trkpt>
      <trkpt lat="39.85562411136925220489501953125" lon="-0.51685388199985027313232421875">
        <ele>415</ele>
        <time>2021-09-27T09:07:25.000Z</time>
      </trkpt>
      <trkpt lat="39.85545462928712368011474609375" lon="-0.51688003353774547576904296875">
        <ele>414</ele>
        <time>2021-09-27T09:07:27.000Z</time>
      </trkpt>
      <trkpt lat="39.85528313554823398590087890625" lon="-0.51690769381821155548095703125">
        <ele>414.399993896484375</ele>
        <time>2021-09-27T09:07:29.000Z</time>
      </trkpt>
      <trkpt lat="39.85519562847912311553955078125" lon="-0.51692177541553974151611328125">
        <ele>415.20001220703125</ele>
        <time>2021-09-27T09:07:30.000Z</time>
      </trkpt>
      <trkpt lat="39.85510963015258312225341796875" lon="-0.5169376172125339508056640625">
        <ele>415.79998779296875</ele>
        <time>2021-09-27T09:07:31.000Z</time>
      </trkpt>
      <trkpt lat="39.854942746460437774658203125" lon="-0.5169689655303955078125">
        <ele>417</ele>
        <time>2021-09-27T09:07:33.000Z</time>
      </trkpt>
      <trkpt lat="39.85478214919567108154296875" lon="-0.517000816762447357177734375">
        <ele>418.20001220703125</ele>
        <time>2021-09-27T09:07:35.000Z</time>
      </trkpt>
      <trkpt lat="39.8546287603676319122314453125" lon="-0.5170331709086894989013671875">
        <ele>419.600006103515625</ele>
        <time>2021-09-27T09:07:37.000Z</time>
      </trkpt>
      <trkpt lat="39.85455340705811977386474609375" lon="-0.51704633049666881561279296875">
        <ele>420.20001220703125</ele>
        <time>2021-09-27T09:07:38.000Z</time>
      </trkpt>
      <trkpt lat="39.8544798977673053741455078125" lon="-0.51705873571336269378662109375">
        <ele>420.20001220703125</ele>
        <time>2021-09-27T09:07:39.000Z</time>
      </trkpt>
      <trkpt lat="39.85433346591889858245849609375" lon="-0.5170878209173679351806640625">
        <ele>420.20001220703125</ele>
        <time>2021-09-27T09:07:41.000Z</time>
      </trkpt>
      <trkpt lat="39.85418192110955715179443359375" lon="-0.51711992360651493072509765625">
        <ele>420.20001220703125</ele>
        <time>2021-09-27T09:07:43.000Z</time>
      </trkpt>
      <trkpt lat="39.854108579456806182861328125" lon="-0.5171267129480838775634765625">
        <ele>420.20001220703125</ele>
        <time>2021-09-27T09:07:44.000Z</time>
      </trkpt>
      <trkpt lat="39.85403154976665973663330078125" lon="-0.517132915556430816650390625">
        <ele>420.20001220703125</ele>
        <time>2021-09-27T09:07:45.000Z</time>
      </trkpt>
      <trkpt lat="39.8539555259048938751220703125" lon="-0.51714892499148845672607421875">
        <ele>420.20001220703125</ele>
        <time>2021-09-27T09:07:46.000Z</time>
      </trkpt>
      <trkpt lat="39.85387631691992282867431640625" lon="-0.51717423833906650543212890625">
        <ele>420.20001220703125</ele>
        <time>2021-09-27T09:07:47.000Z</time>
      </trkpt>
      <trkpt lat="39.85371655784547328948974609375" lon="-0.517207346856594085693359375">
        <ele>420.20001220703125</ele>
        <time>2021-09-27T09:07:49.000Z</time>
      </trkpt>
      <trkpt lat="39.8535555414855480194091796875" lon="-0.51724531687796115875244140625">
        <ele>419</ele>
        <time>2021-09-27T09:07:51.000Z</time>
      </trkpt>
      <trkpt lat="39.8534740693867206573486328125" lon="-0.51726392470300197601318359375">
        <ele>418.399993896484375</ele>
        <time>2021-09-27T09:07:52.000Z</time>
      </trkpt>
      <trkpt lat="39.85339276492595672607421875" lon="-0.517294518649578094482421875">
        <ele>418</ele>
        <time>2021-09-27T09:07:53.000Z</time>
      </trkpt>
      <trkpt lat="39.85323091037571430206298828125" lon="-0.51734522916376590728759765625">
        <ele>417</ele>
        <time>2021-09-27T09:07:55.000Z</time>
      </trkpt>
      <trkpt lat="39.85315245576202869415283203125" lon="-0.5173657648265361785888671875">
        <ele>416.399993896484375</ele>
        <time>2021-09-27T09:07:56.000Z</time>
      </trkpt>
      <trkpt lat="39.85307224094867706298828125" lon="-0.5173848755657672882080078125">
        <ele>415.79998779296875</ele>
        <time>2021-09-27T09:07:57.000Z</time>
      </trkpt>
      <trkpt lat="39.852913655340671539306640625" lon="-0.5174157209694385528564453125">
        <ele>414.600006103515625</ele>
        <time>2021-09-27T09:07:59.000Z</time>
      </trkpt>
      <trkpt lat="39.85275984741747379302978515625" lon="-0.5174509249627590179443359375">
        <ele>414.399993896484375</ele>
        <time>2021-09-27T09:08:01.000Z</time>
      </trkpt>
      <trkpt lat="39.85261048190295696258544921875" lon="-0.517468862235546112060546875">
        <ele>414.20001220703125</ele>
        <time>2021-09-27T09:08:03.000Z</time>
      </trkpt>
      <trkpt lat="39.85246203839778900146484375" lon="-0.517465174198150634765625">
        <ele>413.79998779296875</ele>
        <time>2021-09-27T09:08:05.000Z</time>
      </trkpt>
      <trkpt lat="39.85231996513903141021728515625" lon="-0.517488978803157806396484375">
        <ele>413.600006103515625</ele>
        <time>2021-09-27T09:08:07.000Z</time>
      </trkpt>
      <trkpt lat="39.8522607050836086273193359375" lon="-0.51750264130532741546630859375">
        <ele>413.600006103515625</ele>
        <time>2021-09-27T09:08:08.000Z</time>
      </trkpt>
      <trkpt lat="39.85221032984554767608642578125" lon="-0.51750984974205493927001953125">
        <ele>413.600006103515625</ele>
        <time>2021-09-27T09:08:09.000Z</time>
      </trkpt>
      <trkpt lat="39.85214159823954105377197265625" lon="-0.517508424818515777587890625">
        <ele>413.399993896484375</ele>
        <time>2021-09-27T09:08:11.000Z</time>
      </trkpt>
      <trkpt lat="39.8521014489233493804931640625" lon="-0.5175146274268627166748046875">
        <ele>413.399993896484375</ele>
        <time>2021-09-27T09:08:13.000Z</time>
      </trkpt>
      <trkpt lat="39.85205308534204959869384765625" lon="-0.517523847520351409912109375">
        <ele>413.399993896484375</ele>
        <time>2021-09-27T09:08:15.000Z</time>
      </trkpt>
      <trkpt lat="39.85198284499347209930419921875" lon="-0.51752694882452487945556640625">
        <ele>412.79998779296875</ele>
        <time>2021-09-27T09:08:17.000Z</time>
      </trkpt>
      <trkpt lat="39.8518885485827922821044921875" lon="-0.51752728410065174102783203125">
        <ele>412</ele>
        <time>2021-09-27T09:08:19.000Z</time>
      </trkpt>
      <trkpt lat="39.85183482058346271514892578125" lon="-0.51753147505223751068115234375">
        <ele>411.600006103515625</ele>
        <time>2021-09-27T09:08:20.000Z</time>
      </trkpt>
      <trkpt lat="39.85178134404122829437255859375" lon="-0.5175354145467281341552734375">
        <ele>411.20001220703125</ele>
        <time>2021-09-27T09:08:21.000Z</time>
      </trkpt>
      <trkpt lat="39.851676486432552337646484375" lon="-0.51754371263086795806884765625">
        <ele>410.399993896484375</ele>
        <time>2021-09-27T09:08:23.000Z</time>
      </trkpt>
      <trkpt lat="39.85157699324190616607666015625" lon="-0.51755435764789581298828125">
        <ele>410</ele>
        <time>2021-09-27T09:08:25.000Z</time>
      </trkpt>
      <trkpt lat="39.8514751531183719635009765625" lon="-0.5175702832639217376708984375">
        <ele>409.600006103515625</ele>
        <time>2021-09-27T09:08:27.000Z</time>
      </trkpt>
      <trkpt lat="39.8513799346983432769775390625" lon="-0.51758788526058197021484375">
        <ele>409.20001220703125</ele>
        <time>2021-09-27T09:08:29.000Z</time>
      </trkpt>
      <trkpt lat="39.85128379426896572113037109375" lon="-0.51760473288595676422119140625">
        <ele>408.79998779296875</ele>
        <time>2021-09-27T09:08:31.000Z</time>
      </trkpt>
      <trkpt lat="39.85117415897548198699951171875" lon="-0.517619736492633819580078125">
        <ele>408.600006103515625</ele>
        <time>2021-09-27T09:08:33.000Z</time>
      </trkpt>
      <trkpt lat="39.85111967660486698150634765625" lon="-0.517631471157073974609375">
        <ele>408.399993896484375</ele>
        <time>2021-09-27T09:08:34.000Z</time>
      </trkpt>
      <trkpt lat="39.8510585725307464599609375" lon="-0.5176386795938014984130859375">
        <ele>408.20001220703125</ele>
        <time>2021-09-27T09:08:35.000Z</time>
      </trkpt>
      <trkpt lat="39.85092923976480960845947265625" lon="-0.5176440440118312835693359375">
        <ele>407.79998779296875</ele>
        <time>2021-09-27T09:08:37.000Z</time>
      </trkpt>
      <trkpt lat="39.8508652858436107635498046875" lon="-0.51763591356575489044189453125">
        <ele>407.600006103515625</ele>
        <time>2021-09-27T09:08:38.000Z</time>
      </trkpt>
      <trkpt lat="39.8508035950362682342529296875" lon="-0.5176266096532344818115234375">
        <ele>407.20001220703125</ele>
        <time>2021-09-27T09:08:39.000Z</time>
      </trkpt>
      <trkpt lat="39.85067627392709255218505859375" lon="-0.51761747337877750396728515625">
        <ele>406.79998779296875</ele>
        <time>2021-09-27T09:08:41.000Z</time>
      </trkpt>
      <trkpt lat="39.850544594228267669677734375" lon="-0.5176222510635852813720703125">
        <ele>406.600006103515625</ele>
        <time>2021-09-27T09:08:43.000Z</time>
      </trkpt>
      <trkpt lat="39.85041291452944278717041015625" lon="-0.51760724745690822601318359375">
        <ele>406.20001220703125</ele>
        <time>2021-09-27T09:08:45.000Z</time>
      </trkpt>
      <trkpt lat="39.8502872698009014129638671875" lon="-0.51758109591901302337646484375">
        <ele>405.79998779296875</ele>
        <time>2021-09-27T09:08:47.000Z</time>
      </trkpt>
      <trkpt lat="39.85017922706902027130126953125" lon="-0.51755360327661037445068359375">
        <ele>405.600006103515625</ele>
        <time>2021-09-27T09:08:49.000Z</time>
      </trkpt>
      <trkpt lat="39.850132875144481658935546875" lon="-0.51753968931734561920166015625">
        <ele>405.399993896484375</ele>
        <time>2021-09-27T09:08:50.000Z</time>
      </trkpt>
      <trkpt lat="39.8500835895538330078125" lon="-0.51752963103353977203369140625">
        <ele>405.399993896484375</ele>
        <time>2021-09-27T09:08:51.000Z</time>
      </trkpt>
      <trkpt lat="39.84997085295617580413818359375" lon="-0.51749610342085361480712890625">
        <ele>405</ele>
        <time>2021-09-27T09:08:53.000Z</time>
      </trkpt>
      <trkpt lat="39.8499124310910701751708984375" lon="-0.51747095771133899688720703125">
        <ele>404.600006103515625</ele>
        <time>2021-09-27T09:08:54.000Z</time>
      </trkpt>
      <trkpt lat="39.84985786490142345428466796875" lon="-0.517446734011173248291015625">
        <ele>404.399993896484375</ele>
        <time>2021-09-27T09:08:55.000Z</time>
      </trkpt>
      <trkpt lat="39.8497414402663707733154296875" lon="-0.51738596521317958831787109375">
        <ele>403.79998779296875</ele>
        <time>2021-09-27T09:08:57.000Z</time>
      </trkpt>
      <trkpt lat="39.8496240936219692230224609375" lon="-0.5172993801534175872802734375">
        <ele>403</ele>
        <time>2021-09-27T09:08:59.000Z</time>
      </trkpt>
      <trkpt lat="39.84950582496821880340576171875" lon="-0.51722084172070026397705078125">
        <ele>402.79998779296875</ele>
        <time>2021-09-27T09:09:01.000Z</time>
      </trkpt>
      <trkpt lat="39.849388562142848968505859375" lon="-0.5171464942395687103271484375">
        <ele>404</ele>
        <time>2021-09-27T09:09:03.000Z</time>
      </trkpt>
      <trkpt lat="39.849277250468730926513671875" lon="-0.517066530883312225341796875">
        <ele>404.79998779296875</ele>
        <time>2021-09-27T09:09:05.000Z</time>
      </trkpt>
      <trkpt lat="39.84922570176422595977783203125" lon="-0.517017580568790435791015625">
        <ele>405.20001220703125</ele>
        <time>2021-09-27T09:09:06.000Z</time>
      </trkpt>
      <trkpt lat="39.84917490743100643157958984375" lon="-0.5169714801013469696044921875">
        <ele>405.600006103515625</ele>
        <time>2021-09-27T09:09:07.000Z</time>
      </trkpt>
      <trkpt lat="39.8490712232887744903564453125" lon="-0.51689025945961475372314453125">
        <ele>406.600006103515625</ele>
        <time>2021-09-27T09:09:09.000Z</time>
      </trkpt>
      <trkpt lat="39.84896183945238590240478515625" lon="-0.5168152414262294769287109375">
        <ele>407.20001220703125</ele>
        <time>2021-09-27T09:09:11.000Z</time>
      </trkpt>
      <trkpt lat="39.84884440898895263671875" lon="-0.51673100329935550689697265625">
        <ele>407.600006103515625</ele>
        <time>2021-09-27T09:09:13.000Z</time>
      </trkpt>
      <trkpt lat="39.8487875796854496002197265625" lon="-0.51668674685060977935791015625">
        <ele>408</ele>
        <time>2021-09-27T09:09:14.000Z</time>
      </trkpt>
      <trkpt lat="39.8487399704754352569580078125" lon="-0.51663461141288280487060546875">
        <ele>408</ele>
        <time>2021-09-27T09:09:15.000Z</time>
      </trkpt>
      <trkpt lat="39.848705269396305084228515625" lon="-0.51658230833709239959716796875">
        <ele>407.79998779296875</ele>
        <time>2021-09-27T09:09:16.000Z</time>
      </trkpt>
      <trkpt lat="39.8486796207726001739501953125" lon="-0.51653453148901462554931640625">
        <ele>407.399993896484375</ele>
        <time>2021-09-27T09:09:17.000Z</time>
      </trkpt>
      <trkpt lat="39.848659336566925048828125" lon="-0.51649815402925014495849609375">
        <ele>407</ele>
        <time>2021-09-27T09:09:18.000Z</time>
      </trkpt>
      <trkpt lat="39.8486377112567424774169921875" lon="-0.5164672248065471649169921875">
        <ele>406.79998779296875</ele>
        <time>2021-09-27T09:09:19.000Z</time>
      </trkpt>
      <trkpt lat="39.8486108891665935516357421875" lon="-0.51643897779285907745361328125">
        <ele>406.600006103515625</ele>
        <time>2021-09-27T09:09:20.000Z</time>
      </trkpt>
      <trkpt lat="39.8485803790390491485595703125" lon="-0.51641953177750110626220703125">
        <ele>406.79998779296875</ele>
        <time>2021-09-27T09:09:21.000Z</time>
      </trkpt>
      <trkpt lat="39.84852145425975322723388671875" lon="-0.51638164557516574859619140625">
        <ele>407.20001220703125</ele>
        <time>2021-09-27T09:09:23.000Z</time>
      </trkpt>
      <trkpt lat="39.8484586738049983978271484375" lon="-0.51633889786899089813232421875">
        <ele>407.600006103515625</ele>
        <time>2021-09-27T09:09:25.000Z</time>
      </trkpt>
      <trkpt lat="39.84842707403004169464111328125" lon="-0.5163176916539669036865234375">
        <ele>407.79998779296875</ele>
        <time>2021-09-27T09:09:26.000Z</time>
      </trkpt>
      <trkpt lat="39.84839673154056072235107421875" lon="-0.51629841327667236328125">
        <ele>407.79998779296875</ele>
        <time>2021-09-27T09:09:27.000Z</time>
      </trkpt>
      <trkpt lat="39.84835180453956127166748046875" lon="-0.516273938119411468505859375">
        <ele>408</ele>
        <time>2021-09-27T09:09:29.000Z</time>
      </trkpt>
      <trkpt lat="39.8483334481716156005859375" lon="-0.516275949776172637939453125">
        <ele>408</ele>
        <time>2021-09-27T09:09:30.000Z</time>
      </trkpt>
      <trkpt lat="39.84831710346043109893798828125" lon="-0.51628491841256618499755859375">
        <ele>408.20001220703125</ele>
        <time>2021-09-27T09:09:31.000Z</time>
      </trkpt>
      <trkpt lat="39.84826966188848018646240234375" lon="-0.51630989648401737213134765625">
        <ele>408.600006103515625</ele>
        <time>2021-09-27T09:09:33.000Z</time>
      </trkpt>
      <trkpt lat="39.8482370562851428985595703125" lon="-0.51632012240588665008544921875">
        <ele>408.79998779296875</ele>
        <time>2021-09-27T09:09:34.000Z</time>
      </trkpt>
      <trkpt lat="39.8481938056647777557373046875" lon="-0.51633261144161224365234375">
        <ele>409.20001220703125</ele>
        <time>2021-09-27T09:09:35.000Z</time>
      </trkpt>
      <trkpt lat="39.84808743931353092193603515625" lon="-0.51629950292408466339111328125">
        <ele>409.600006103515625</ele>
        <time>2021-09-27T09:09:37.000Z</time>
      </trkpt>
      <trkpt lat="39.84797964803874492645263671875" lon="-0.51622322760522365570068359375">
        <ele>410</ele>
        <time>2021-09-27T09:09:39.000Z</time>
      </trkpt>
      <trkpt lat="39.8479222320020198822021484375" lon="-0.51618508994579315185546875">
        <ele>410.20001220703125</ele>
        <time>2021-09-27T09:09:40.000Z</time>
      </trkpt>
      <trkpt lat="39.8478595353662967681884765625" lon="-0.5161534063518047332763671875">
        <ele>410.399993896484375</ele>
        <time>2021-09-27T09:09:41.000Z</time>
      </trkpt>
      <trkpt lat="39.84773891977965831756591796875" lon="-0.51609448157250881195068359375">
        <ele>410</ele>
        <time>2021-09-27T09:09:43.000Z</time>
      </trkpt>
      <trkpt lat="39.84762643463909626007080078125" lon="-0.5160370655357837677001953125">
        <ele>409.600006103515625</ele>
        <time>2021-09-27T09:09:45.000Z</time>
      </trkpt>
      <trkpt lat="39.84751562587916851043701171875" lon="-0.51599389873445034027099609375">
        <ele>409.399993896484375</ele>
        <time>2021-09-27T09:09:47.000Z</time>
      </trkpt>
      <trkpt lat="39.84742342494428157806396484375" lon="-0.51596020348370075225830078125">
        <ele>409</ele>
        <time>2021-09-27T09:09:49.000Z</time>
      </trkpt>
      <trkpt lat="39.8473354987800121307373046875" lon="-0.51593589596450328826904296875">
        <ele>408.79998779296875</ele>
        <time>2021-09-27T09:09:51.000Z</time>
      </trkpt>
      <trkpt lat="39.847248829901218414306640625" lon="-0.515914857387542724609375">
        <ele>408.79998779296875</ele>
        <time>2021-09-27T09:09:53.000Z</time>
      </trkpt>
      <trkpt lat="39.84719962812960147857666015625" lon="-0.5159093253314495086669921875">
        <ele>408.600006103515625</ele>
        <time>2021-09-27T09:09:54.000Z</time>
      </trkpt>
      <trkpt lat="39.847143553197383880615234375" lon="-0.51590639166533946990966796875">
        <ele>408.600006103515625</ele>
        <time>2021-09-27T09:09:55.000Z</time>
      </trkpt>
      <trkpt lat="39.847027547657489776611328125" lon="-0.515907816588878631591796875">
        <ele>408.20001220703125</ele>
        <time>2021-09-27T09:09:57.000Z</time>
      </trkpt>
      <trkpt lat="39.84691212885081768035888671875" lon="-0.515911839902400970458984375">
        <ele>407.399993896484375</ele>
        <time>2021-09-27T09:09:59.000Z</time>
      </trkpt>
      <trkpt lat="39.84680232591927051544189453125" lon="-0.51592265255749225616455078125">
        <ele>406.600006103515625</ele>
        <time>2021-09-27T09:10:01.000Z</time>
      </trkpt>
      <trkpt lat="39.84669889323413372039794921875" lon="-0.5159331299364566802978515625">
        <ele>406</ele>
        <time>2021-09-27T09:10:03.000Z</time>
      </trkpt>
      <trkpt lat="39.846648015081882476806640625" lon="-0.51594595424830913543701171875">
        <ele>405.600006103515625</ele>
        <time>2021-09-27T09:10:04.000Z</time>
      </trkpt>
      <trkpt lat="39.84659831039607524871826171875" lon="-0.5159606225788593292236328125">
        <ele>405.399993896484375</ele>
        <time>2021-09-27T09:10:05.000Z</time>
      </trkpt>
      <trkpt lat="39.846545420587062835693359375" lon="-0.51597512327134609222412109375">
        <ele>405</ele>
        <time>2021-09-27T09:10:06.000Z</time>
      </trkpt>
      <trkpt lat="39.846490435302257537841796875" lon="-0.51599456928670406341552734375">
        <ele>404.600006103515625</ele>
        <time>2021-09-27T09:10:07.000Z</time>
      </trkpt>
      <trkpt lat="39.84637719579041004180908203125" lon="-0.5160370655357837677001953125">
        <ele>404</ele>
        <time>2021-09-27T09:10:09.000Z</time>
      </trkpt>
      <trkpt lat="39.84626135788857936859130859375" lon="-0.51609515212476253509521484375">
        <ele>403.399993896484375</ele>
        <time>2021-09-27T09:10:11.000Z</time>
      </trkpt>
      <trkpt lat="39.8461445979773998260498046875" lon="-0.5161614529788494110107421875">
        <ele>402.399993896484375</ele>
        <time>2021-09-27T09:10:13.000Z</time>
      </trkpt>
      <trkpt lat="39.84603152610361576080322265625" lon="-0.5162224732339382171630859375">
        <ele>401</ele>
        <time>2021-09-27T09:10:15.000Z</time>
      </trkpt>
      <trkpt lat="39.845923148095607757568359375" lon="-0.51626882515847682952880859375">
        <ele>399.79998779296875</ele>
        <time>2021-09-27T09:10:17.000Z</time>
      </trkpt>
      <trkpt lat="39.84582030214369297027587890625" lon="-0.51633219234645366668701171875">
        <ele>398.600006103515625</ele>
        <time>2021-09-27T09:10:19.000Z</time>
      </trkpt>
      <trkpt lat="39.8457075655460357666015625" lon="-0.5164021812379360198974609375">
        <ele>397.399993896484375</ele>
        <time>2021-09-27T09:10:21.000Z</time>
      </trkpt>
      <trkpt lat="39.845596253871917724609375" lon="-0.5164702422916889190673828125">
        <ele>396.20001220703125</ele>
        <time>2021-09-27T09:10:23.000Z</time>
      </trkpt>
      <trkpt lat="39.84554504044353961944580078125" lon="-0.51650988869369029998779296875">
        <ele>395.600006103515625</ele>
        <time>2021-09-27T09:10:24.000Z</time>
      </trkpt>
      <trkpt lat="39.8455012030899524688720703125" lon="-0.51654593087732791900634765625">
        <ele>395.20001220703125</ele>
        <time>2021-09-27T09:10:25.000Z</time>
      </trkpt>
      <trkpt lat="39.84545753337442874908447265625" lon="-0.5165698193013668060302734375">
        <ele>394.79998779296875</ele>
        <time>2021-09-27T09:10:26.000Z</time>
      </trkpt>
      <trkpt lat="39.8454125225543975830078125" lon="-0.5165899358689785003662109375">
        <ele>394.20001220703125</ele>
        <time>2021-09-27T09:10:27.000Z</time>
      </trkpt>
      <trkpt lat="39.8453188128769397735595703125" lon="-0.516633354127407073974609375">
        <ele>393.79998779296875</ele>
        <time>2021-09-27T09:10:29.000Z</time>
      </trkpt>
      <trkpt lat="39.8452341556549072265625" lon="-0.5166901834309101104736328125">
        <ele>393.600006103515625</ele>
        <time>2021-09-27T09:10:31.000Z</time>
      </trkpt>
      <trkpt lat="39.84519056975841522216796875" lon="-0.51672823727130889892578125">
        <ele>393.399993896484375</ele>
        <time>2021-09-27T09:10:32.000Z</time>
      </trkpt>
      <trkpt lat="39.84514254145324230194091796875" lon="-0.516776852309703826904296875">
        <ele>393.399993896484375</ele>
        <time>2021-09-27T09:10:33.000Z</time>
      </trkpt>
      <trkpt lat="39.84508906491100788116455078125" lon="-0.51682270132005214691162109375">
        <ele>393.399993896484375</ele>
        <time>2021-09-27T09:10:34.000Z</time>
      </trkpt>
      <trkpt lat="39.8450289666652679443359375" lon="-0.5168662033975124359130859375">
        <ele>393.20001220703125</ele>
        <time>2021-09-27T09:10:35.000Z</time>
      </trkpt>
      <trkpt lat="39.8449002206325531005859375" lon="-0.5169426463544368743896484375">
        <ele>392.79998779296875</ele>
        <time>2021-09-27T09:10:37.000Z</time>
      </trkpt>
      <trkpt lat="39.84483593143522739410400390625" lon="-0.5169788561761379241943359375">
        <ele>392.600006103515625</ele>
        <time>2021-09-27T09:10:38.000Z</time>
      </trkpt>
      <trkpt lat="39.844770468771457672119140625" lon="-0.51701967604458332061767578125">
        <ele>392.399993896484375</ele>
        <time>2021-09-27T09:10:39.000Z</time>
      </trkpt>
      <trkpt lat="39.84463870525360107421875" lon="-0.51710374653339385986328125">
        <ele>392.20001220703125</ele>
        <time>2021-09-27T09:10:41.000Z</time>
      </trkpt>
      <trkpt lat="39.84450266696512699127197265625" lon="-0.51718890666961669921875">
        <ele>392.20001220703125</ele>
        <time>2021-09-27T09:10:43.000Z</time>
      </trkpt>
      <trkpt lat="39.84436520375311374664306640625" lon="-0.51727700047194957733154296875">
        <ele>393.20001220703125</ele>
        <time>2021-09-27T09:10:45.000Z</time>
      </trkpt>
      <trkpt lat="39.844297058880329132080078125" lon="-0.51731966435909271240234375">
        <ele>393.79998779296875</ele>
        <time>2021-09-27T09:10:46.000Z</time>
      </trkpt>
      <trkpt lat="39.8442301712930202484130859375" lon="-0.51736433990299701690673828125">
        <ele>394.20001220703125</ele>
        <time>2021-09-27T09:10:47.000Z</time>
      </trkpt>
      <trkpt lat="39.844101928174495697021484375" lon="-0.5174579657614231109619140625">
        <ele>395.20001220703125</ele>
        <time>2021-09-27T09:10:49.000Z</time>
      </trkpt>
      <trkpt lat="39.84397360123693943023681640625" lon="-0.51754295825958251953125">
        <ele>396</ele>
        <time>2021-09-27T09:10:51.000Z</time>
      </trkpt>
      <trkpt lat="39.843911491334438323974609375" lon="-0.5175843648612499237060546875">
        <ele>396.600006103515625</ele>
        <time>2021-09-27T09:10:52.000Z</time>
      </trkpt>
      <trkpt lat="39.843851141631603240966796875" lon="-0.5176245979964733123779296875">
        <ele>397</ele>
        <time>2021-09-27T09:10:53.000Z</time>
      </trkpt>
      <trkpt lat="39.8437359742820262908935546875" lon="-0.51769995130598545074462890625">
        <ele>397.79998779296875</ele>
        <time>2021-09-27T09:10:55.000Z</time>
      </trkpt>
      <trkpt lat="39.84362550079822540283203125" lon="-0.5177811719477176666259765625">
        <ele>398.20001220703125</ele>
        <time>2021-09-27T09:10:57.000Z</time>
      </trkpt>
      <trkpt lat="39.8435153625905513763427734375" lon="-0.51786088384687900543212890625">
        <ele>398.79998779296875</ele>
        <time>2021-09-27T09:10:59.000Z</time>
      </trkpt>
      <trkpt lat="39.84346196986734867095947265625" lon="-0.5178955011069774627685546875">
        <ele>399</ele>
        <time>2021-09-27T09:11:00.000Z</time>
      </trkpt>
      <trkpt lat="39.8434090800583362579345703125" lon="-0.51792827434837818145751953125">
        <ele>399</ele>
        <time>2021-09-27T09:11:01.000Z</time>
      </trkpt>
      <trkpt lat="39.8433101736009120941162109375" lon="-0.5179964192211627960205078125">
        <ele>399.399993896484375</ele>
        <time>2021-09-27T09:11:03.000Z</time>
      </trkpt>
      <trkpt lat="39.84320967458188533782958984375" lon="-0.51806322298943996429443359375">
        <ele>399.79998779296875</ele>
        <time>2021-09-27T09:11:05.000Z</time>
      </trkpt>
      <trkpt lat="39.84310775063931941986083984375" lon="-0.51812692545354366302490234375">
        <ele>400.399993896484375</ele>
        <time>2021-09-27T09:11:07.000Z</time>
      </trkpt>
      <trkpt lat="39.84306030906736850738525390625" lon="-0.51815508864820003509521484375">
        <ele>400.399993896484375</ele>
        <time>2021-09-27T09:11:08.000Z</time>
      </trkpt>
      <trkpt lat="39.84301169402897357940673828125" lon="-0.51818090490996837615966796875">
        <ele>400.600006103515625</ele>
        <time>2021-09-27T09:11:09.000Z</time>
      </trkpt>
      <trkpt lat="39.84291748143732547760009765625" lon="-0.51823941059410572052001953125">
        <ele>401</ele>
        <time>2021-09-27T09:11:11.000Z</time>
      </trkpt>
      <trkpt lat="39.84282947145402431488037109375" lon="-0.5182926356792449951171875">
        <ele>401.399993896484375</ele>
        <time>2021-09-27T09:11:13.000Z</time>
      </trkpt>
      <trkpt lat="39.8427432216703891754150390625" lon="-0.518339574337005615234375">
        <ele>401.79998779296875</ele>
        <time>2021-09-27T09:11:15.000Z</time>
      </trkpt>
      <trkpt lat="39.8426540382206439971923828125" lon="-0.51838307641446590423583984375">
        <ele>402.20001220703125</ele>
        <time>2021-09-27T09:11:17.000Z</time>
      </trkpt>
      <trkpt lat="39.84256728552281856536865234375" lon="-0.51841576583683490753173828125">
        <ele>402.399993896484375</ele>
        <time>2021-09-27T09:11:19.000Z</time>
      </trkpt>
      <trkpt lat="39.8424820415675640106201171875" lon="-0.51843990571796894073486328125">
        <ele>402.600006103515625</ele>
        <time>2021-09-27T09:11:21.000Z</time>
      </trkpt>
      <trkpt lat="39.842438958585262298583984375" lon="-0.5184535682201385498046875">
        <ele>402.79998779296875</ele>
        <time>2021-09-27T09:11:22.000Z</time>
      </trkpt>
      <trkpt lat="39.8423962108790874481201171875" lon="-0.51846890710294246673583984375">
        <ele>403</ele>
        <time>2021-09-27T09:11:23.000Z</time>
      </trkpt>
      <trkpt lat="39.8423224501311779022216796875" lon="-0.51849522627890110015869140625">
        <ele>403.399993896484375</ele>
        <time>2021-09-27T09:11:25.000Z</time>
      </trkpt>
      <trkpt lat="39.84224625863134860992431640625" lon="-0.51851014606654644012451171875">
        <ele>404</ele>
        <time>2021-09-27T09:11:27.000Z</time>
      </trkpt>
      <trkpt lat="39.84217367134988307952880859375" lon="-0.51851668395102024078369140625">
        <ele>404.20001220703125</ele>
        <time>2021-09-27T09:11:29.000Z</time>
      </trkpt>
      <trkpt lat="39.84211675822734832763671875" lon="-0.51852825097739696502685546875">
        <ele>404.600006103515625</ele>
        <time>2021-09-27T09:11:31.000Z</time>
      </trkpt>
      <trkpt lat="39.84205917455255985260009765625" lon="-0.518527328968048095703125">
        <ele>404.79998779296875</ele>
        <time>2021-09-27T09:11:33.000Z</time>
      </trkpt>
      <trkpt lat="39.84196764416992664337158203125" lon="-0.51852439530193805694580078125">
        <ele>404.399993896484375</ele>
        <time>2021-09-27T09:11:35.000Z</time>
      </trkpt>
      <trkpt lat="39.8418520577251911163330078125" lon="-0.51850654184818267822265625">
        <ele>403.600006103515625</ele>
        <time>2021-09-27T09:11:37.000Z</time>
      </trkpt>
      <trkpt lat="39.84171568416059017181396484375" lon="-0.51849137060344219207763671875">
        <ele>402.79998779296875</ele>
        <time>2021-09-27T09:11:39.000Z</time>
      </trkpt>
      <trkpt lat="39.841556511819362640380859375" lon="-0.51846630871295928955078125">
        <ele>401.600006103515625</ele>
        <time>2021-09-27T09:11:41.000Z</time>
      </trkpt>
      <trkpt lat="39.84138962812721729278564453125" lon="-0.5184393189847469329833984375">
        <ele>400</ele>
        <time>2021-09-27T09:11:43.000Z</time>
      </trkpt>
      <trkpt lat="39.841205812990665435791015625" lon="-0.51840436644852161407470703125">
        <ele>398.399993896484375</ele>
        <time>2021-09-27T09:11:45.000Z</time>
      </trkpt>
      <trkpt lat="39.84100607223808765411376953125" lon="-0.51837050355970859527587890625">
        <ele>397</ele>
        <time>2021-09-27T09:11:47.000Z</time>
      </trkpt>
      <trkpt lat="39.8409049026668071746826171875" lon="-0.51835491321980953216552734375">
        <ele>396.20001220703125</ele>
        <time>2021-09-27T09:11:48.000Z</time>
      </trkpt>
      <trkpt lat="39.840802140533924102783203125" lon="-0.5183377303183078765869140625">
        <ele>395.399993896484375</ele>
        <time>2021-09-27T09:11:49.000Z</time>
      </trkpt>
      <trkpt lat="39.84059938229620456695556640625" lon="-0.51830361597239971160888671875">
        <ele>394</ele>
        <time>2021-09-27T09:11:51.000Z</time>
      </trkpt>
      <trkpt lat="39.84039771370589733123779296875" lon="-0.51825986243784427642822265625">
        <ele>392.600006103515625</ele>
        <time>2021-09-27T09:11:53.000Z</time>
      </trkpt>
      <trkpt lat="39.84019755385816097259521484375" lon="-0.5182059668004512786865234375">
        <ele>391.600006103515625</ele>
        <time>2021-09-27T09:11:55.000Z</time>
      </trkpt>
      <trkpt lat="39.8399999924004077911376953125" lon="-0.518156178295612335205078125">
        <ele>390.20001220703125</ele>
        <time>2021-09-27T09:11:57.000Z</time>
      </trkpt>
      <trkpt lat="39.83981810510158538818359375" lon="-0.5181184597313404083251953125">
        <ele>389</ele>
        <time>2021-09-27T09:11:59.000Z</time>
      </trkpt>
      <trkpt lat="39.839735291898250579833984375" lon="-0.51809775643050670623779296875">
        <ele>388.600006103515625</ele>
        <time>2021-09-27T09:12:00.000Z</time>
      </trkpt>
      <trkpt lat="39.83965717256069183349609375" lon="-0.51807713694870471954345703125">
        <ele>388</ele>
        <time>2021-09-27T09:12:01.000Z</time>
      </trkpt>
      <trkpt lat="39.8395235650241374969482421875" lon="-0.518040172755718231201171875">
        <ele>387.399993896484375</ele>
        <time>2021-09-27T09:12:03.000Z</time>
      </trkpt>
      <trkpt lat="39.839459694921970367431640625" lon="-0.51802164874970912933349609375">
        <ele>387.600006103515625</ele>
        <time>2021-09-27T09:12:04.000Z</time>
      </trkpt>
      <trkpt lat="39.8393907956779003143310546875" lon="-0.51799499429762363433837890625">
        <ele>387.79998779296875</ele>
        <time>2021-09-27T09:12:05.000Z</time>
      </trkpt>
      <trkpt lat="39.8392419330775737762451171875" lon="-0.5179407633841037750244140625">
        <ele>388.20001220703125</ele>
        <time>2021-09-27T09:12:07.000Z</time>
      </trkpt>
      <trkpt lat="39.83907991088926792144775390625" lon="-0.51789365708827972412109375">
        <ele>388.79998779296875</ele>
        <time>2021-09-27T09:12:09.000Z</time>
      </trkpt>
      <trkpt lat="39.83891646377742290496826171875" lon="-0.51784059964120388031005859375">
        <ele>389.399993896484375</ele>
        <time>2021-09-27T09:12:11.000Z</time>
      </trkpt>
      <trkpt lat="39.83875435777008533477783203125" lon="-0.517785362899303436279296875">
        <ele>388.600006103515625</ele>
        <time>2021-09-27T09:12:13.000Z</time>
      </trkpt>
      <trkpt lat="39.8385901562869548797607421875" lon="-0.51772492937743663787841796875">
        <ele>388.399993896484375</ele>
        <time>2021-09-27T09:12:15.000Z</time>
      </trkpt>
      <trkpt lat="39.83842746354639530181884765625" lon="-0.51767061464488506317138671875">
        <ele>388.79998779296875</ele>
        <time>2021-09-27T09:12:17.000Z</time>
      </trkpt>
      <trkpt lat="39.83826778829097747802734375" lon="-0.5176091752946376800537109375">
        <ele>389</ele>
        <time>2021-09-27T09:12:19.000Z</time>
      </trkpt>
      <trkpt lat="39.83810819685459136962890625" lon="-0.51754388026893138885498046875">
        <ele>389.79998779296875</ele>
        <time>2021-09-27T09:12:21.000Z</time>
      </trkpt>
      <trkpt lat="39.83794466592371463775634765625" lon="-0.5174740590155124664306640625">
        <ele>390.399993896484375</ele>
        <time>2021-09-27T09:12:23.000Z</time>
      </trkpt>
      <trkpt lat="39.837779961526393890380859375" lon="-0.51739870570600032806396484375">
        <ele>391.600006103515625</ele>
        <time>2021-09-27T09:12:25.000Z</time>
      </trkpt>
      <trkpt lat="39.83761810697615146636962890625" lon="-0.5173231847584247589111328125">
        <ele>392.79998779296875</ele>
        <time>2021-09-27T09:12:27.000Z</time>
      </trkpt>
      <trkpt lat="39.83746002428233623504638671875" lon="-0.517250597476959228515625">
        <ele>394</ele>
        <time>2021-09-27T09:12:29.000Z</time>
      </trkpt>
      <trkpt lat="39.8373114131391048431396484375" lon="-0.517179183661937713623046875">
        <ele>395</ele>
        <time>2021-09-27T09:12:31.000Z</time>
      </trkpt>
      <trkpt lat="39.83716003596782684326171875" lon="-0.5171116255223751068115234375">
        <ele>396</ele>
        <time>2021-09-27T09:12:33.000Z</time>
      </trkpt>
      <trkpt lat="39.83700740151107311248779296875" lon="-0.5170395411550998687744140625">
        <ele>394.79998779296875</ele>
        <time>2021-09-27T09:12:35.000Z</time>
      </trkpt>
      <trkpt lat="39.83685535378754138946533203125" lon="-0.51696167327463626861572265625">
        <ele>391.79998779296875</ele>
        <time>2021-09-27T09:12:37.000Z</time>
      </trkpt>
      <trkpt lat="39.83677656389772891998291015625" lon="-0.5169215239584445953369140625">
        <ele>390.399993896484375</ele>
        <time>2021-09-27T09:12:38.000Z</time>
      </trkpt>
      <trkpt lat="39.83669810928404331207275390625" lon="-0.51688154228031635284423828125">
        <ele>388.79998779296875</ele>
        <time>2021-09-27T09:12:39.000Z</time>
      </trkpt>
      <trkpt lat="39.83653910458087921142578125" lon="-0.51679889671504497528076171875">
        <ele>386</ele>
        <time>2021-09-27T09:12:41.000Z</time>
      </trkpt>
      <trkpt lat="39.83638026751577854156494140625" lon="-0.51671222783625125885009765625">
        <ele>384.20001220703125</ele>
        <time>2021-09-27T09:12:43.000Z</time>
      </trkpt>
      <trkpt lat="39.836220927536487579345703125" lon="-0.51663964055478572845458984375">
        <ele>382.79998779296875</ele>
        <time>2021-09-27T09:12:45.000Z</time>
      </trkpt>
      <trkpt lat="39.8360717296600341796875" lon="-0.51655045710504055023193359375">
        <ele>381.20001220703125</ele>
        <time>2021-09-27T09:12:47.000Z</time>
      </trkpt>
      <trkpt lat="39.83592487871646881103515625" lon="-0.51644836552441120147705078125">
        <ele>380.79998779296875</ele>
        <time>2021-09-27T09:12:49.000Z</time>
      </trkpt>
      <trkpt lat="39.83585380017757415771484375" lon="-0.5163877643644809722900390625">
        <ele>380.600006103515625</ele>
        <time>2021-09-27T09:12:50.000Z</time>
      </trkpt>
      <trkpt lat="39.83578464947640895843505859375" lon="-0.51631987094879150390625">
        <ele>380.399993896484375</ele>
        <time>2021-09-27T09:12:51.000Z</time>
      </trkpt>
      <trkpt lat="39.8356517963111400604248046875" lon="-0.51617427729070186614990234375">
        <ele>379.399993896484375</ele>
        <time>2021-09-27T09:12:53.000Z</time>
      </trkpt>
      <trkpt lat="39.83552925288677215576171875" lon="-0.51600865088403224945068359375">
        <ele>379.600006103515625</ele>
        <time>2021-09-27T09:12:55.000Z</time>
      </trkpt>
      <trkpt lat="39.8354221321642398834228515625" lon="-0.51583112217485904693603515625">
        <ele>380.20001220703125</ele>
        <time>2021-09-27T09:12:57.000Z</time>
      </trkpt>
      <trkpt lat="39.8353265784680843353271484375" lon="-0.51565309055149555206298828125">
        <ele>380.399993896484375</ele>
        <time>2021-09-27T09:12:59.000Z</time>
      </trkpt>
      <trkpt lat="39.8352846689522266387939453125" lon="-0.51556290127336978912353515625">
        <ele>380.399993896484375</ele>
        <time>2021-09-27T09:13:00.000Z</time>
      </trkpt>
      <trkpt lat="39.83524854294955730438232421875" lon="-0.51547019742429256439208984375">
        <ele>380.20001220703125</ele>
        <time>2021-09-27T09:13:01.000Z</time>
      </trkpt>
      <trkpt lat="39.83519020490348339080810546875" lon="-0.51527540199458599090576171875">
        <ele>381</ele>
        <time>2021-09-27T09:13:03.000Z</time>
      </trkpt>
      <trkpt lat="39.83514846302568912506103515625" lon="-0.51507909782230854034423828125">
        <ele>381.600006103515625</ele>
        <time>2021-09-27T09:13:05.000Z</time>
      </trkpt>
      <trkpt lat="39.83511325903236865997314453125" lon="-0.51488153636455535888671875">
        <ele>381.600006103515625</ele>
        <time>2021-09-27T09:13:07.000Z</time>
      </trkpt>
      <trkpt lat="39.835090376436710357666015625" lon="-0.5146704800426959991455078125">
        <ele>380.79998779296875</ele>
        <time>2021-09-27T09:13:09.000Z</time>
      </trkpt>
      <trkpt lat="39.8350858502089977264404296875" lon="-0.51456637680530548095703125">
        <ele>380.79998779296875</ele>
        <time>2021-09-27T09:13:10.000Z</time>
      </trkpt>
      <trkpt lat="39.83508593402802944183349609375" lon="-0.514459423720836639404296875">
        <ele>380.79998779296875</ele>
        <time>2021-09-27T09:13:11.000Z</time>
      </trkpt>
      <trkpt lat="39.83509582467377185821533203125" lon="-0.514236800372600555419921875">
        <ele>380.79998779296875</ele>
        <time>2021-09-27T09:13:13.000Z</time>
      </trkpt>
      <trkpt lat="39.8351208865642547607421875" lon="-0.514010488986968994140625">
        <ele>380.399993896484375</ele>
        <time>2021-09-27T09:13:15.000Z</time>
      </trkpt>
      <trkpt lat="39.8351626284420490264892578125" lon="-0.513779819011688232421875">
        <ele>380</ele>
        <time>2021-09-27T09:13:17.000Z</time>
      </trkpt>
      <trkpt lat="39.83520604670047760009765625" lon="-0.51354940049350261688232421875">
        <ele>379.600006103515625</ele>
        <time>2021-09-27T09:13:19.000Z</time>
      </trkpt>
      <trkpt lat="39.83524804003536701202392578125" lon="-0.5133211612701416015625">
        <ele>379.399993896484375</ele>
        <time>2021-09-27T09:13:21.000Z</time>
      </trkpt>
      <trkpt lat="39.83528894372284412384033203125" lon="-0.513103567063808441162109375">
        <ele>379.20001220703125</ele>
        <time>2021-09-27T09:13:23.000Z</time>
      </trkpt>
      <trkpt lat="39.835337139666080474853515625" lon="-0.51289209164679050445556640625">
        <ele>378.600006103515625</ele>
        <time>2021-09-27T09:13:25.000Z</time>
      </trkpt>
      <trkpt lat="39.83535985462367534637451171875" lon="-0.51279016770422458648681640625">
        <ele>378.399993896484375</ele>
        <time>2021-09-27T09:13:26.000Z</time>
      </trkpt>
      <trkpt lat="39.835383407771587371826171875" lon="-0.51268891431391239166259765625">
        <ele>378.20001220703125</ele>
        <time>2021-09-27T09:13:27.000Z</time>
      </trkpt>
      <trkpt lat="39.83543881215155124664306640625" lon="-0.51248288713395595550537109375">
        <ele>377.399993896484375</ele>
        <time>2021-09-27T09:13:29.000Z</time>
      </trkpt>
      <trkpt lat="39.8354985751211643218994140625" lon="-0.51228406839072704315185546875">
        <ele>376.399993896484375</ele>
        <time>2021-09-27T09:13:31.000Z</time>
      </trkpt>
      <trkpt lat="39.83555766753852367401123046875" lon="-0.51209212280809879302978515625">
        <ele>375.79998779296875</ele>
        <time>2021-09-27T09:13:33.000Z</time>
      </trkpt>
      <trkpt lat="39.83562237583100795745849609375" lon="-0.51190973259508609771728515625">
        <ele>375.20001220703125</ele>
        <time>2021-09-27T09:13:35.000Z</time>
      </trkpt>
      <trkpt lat="39.83569311909377574920654296875" lon="-0.5117426812648773193359375">
        <ele>374</ele>
        <time>2021-09-27T09:13:37.000Z</time>
      </trkpt>
      <trkpt lat="39.835730753839015960693359375" lon="-0.51166162826120853424072265625">
        <ele>373.600006103515625</ele>
        <time>2021-09-27T09:13:38.000Z</time>
      </trkpt>
      <trkpt lat="39.83576922677457332611083984375" lon="-0.5115849338471889495849609375">
        <ele>373</ele>
        <time>2021-09-27T09:13:39.000Z</time>
      </trkpt>
      <trkpt lat="39.8358422331511974334716796875" lon="-0.5114422738552093505859375">
        <ele>372.20001220703125</ele>
        <time>2021-09-27T09:13:41.000Z</time>
      </trkpt>
      <trkpt lat="39.8359002359211444854736328125" lon="-0.511299781501293182373046875">
        <ele>371.399993896484375</ele>
        <time>2021-09-27T09:13:43.000Z</time>
      </trkpt>
      <trkpt lat="39.83592730946838855743408203125" lon="-0.5112318880856037139892578125">
        <ele>371.20001220703125</ele>
        <time>2021-09-27T09:13:44.000Z</time>
      </trkpt>
      <trkpt lat="39.83595396392047405242919921875" lon="-0.51116625778377056121826171875">
        <ele>371.20001220703125</ele>
        <time>2021-09-27T09:13:45.000Z</time>
      </trkpt>
      <trkpt lat="39.83598363585770130157470703125" lon="-0.511103309690952301025390625">
        <ele>371</ele>
        <time>2021-09-27T09:13:46.000Z</time>
      </trkpt>
      <trkpt lat="39.83601414598524570465087890625" lon="-0.511037595570087432861328125">
        <ele>370.79998779296875</ele>
        <time>2021-09-27T09:13:47.000Z</time>
      </trkpt>
      <trkpt lat="39.8360729031264781951904296875" lon="-0.5109006352722644805908203125">
        <ele>370.600006103515625</ele>
        <time>2021-09-27T09:13:49.000Z</time>
      </trkpt>
      <trkpt lat="39.83612738549709320068359375" lon="-0.51076744683086872100830078125">
        <ele>370.399993896484375</ele>
        <time>2021-09-27T09:13:51.000Z</time>
      </trkpt>
      <trkpt lat="39.8361741565167903900146484375" lon="-0.51065261475741863250732421875">
        <ele>370.20001220703125</ele>
        <time>2021-09-27T09:13:53.000Z</time>
      </trkpt>
      <trkpt lat="39.83621983788907527923583984375" lon="-0.5105492658913135528564453125">
        <ele>370</ele>
        <time>2021-09-27T09:13:55.000Z</time>
      </trkpt>
      <trkpt lat="39.83627230860292911529541015625" lon="-0.51044046878814697265625">
        <ele>370.20001220703125</ele>
        <time>2021-09-27T09:13:57.000Z</time>
      </trkpt>
      <trkpt lat="39.8363233543932437896728515625" lon="-0.51032655872404575347900390625">
        <ele>370.399993896484375</ele>
        <time>2021-09-27T09:13:59.000Z</time>
      </trkpt>
      <trkpt lat="39.83637557365000247955322265625" lon="-0.51021357066929340362548828125">
        <ele>370.600006103515625</ele>
        <time>2021-09-27T09:14:01.000Z</time>
      </trkpt>
      <trkpt lat="39.8363991267979145050048828125" lon="-0.51015774719417095184326171875">
        <ele>370.600006103515625</ele>
        <time>2021-09-27T09:14:02.000Z</time>
      </trkpt>
      <trkpt lat="39.83642402105033397674560546875" lon="-0.5100969783961772918701171875">
        <ele>370.79998779296875</ele>
        <time>2021-09-27T09:14:03.000Z</time>
      </trkpt>
      <trkpt lat="39.836477078497409820556640625" lon="-0.50997384823858737945556640625">
        <ele>371</ele>
        <time>2021-09-27T09:14:05.000Z</time>
      </trkpt>
      <trkpt lat="39.83652837574481964111328125" lon="-0.5098482035100460052490234375">
        <ele>371.20001220703125</ele>
        <time>2021-09-27T09:14:07.000Z</time>
      </trkpt>
      <trkpt lat="39.83658059500157833099365234375" lon="-0.50972767174243927001953125">
        <ele>371.399993896484375</ele>
        <time>2021-09-27T09:14:09.000Z</time>
      </trkpt>
      <trkpt lat="39.8366121947765350341796875" lon="-0.5096668191254138946533203125">
        <ele>371.399993896484375</ele>
        <time>2021-09-27T09:14:10.000Z</time>
      </trkpt>
      <trkpt lat="39.83663960359990596771240234375" lon="-0.5096064694225788116455078125">
        <ele>371.600006103515625</ele>
        <time>2021-09-27T09:14:11.000Z</time>
      </trkpt>
      <trkpt lat="39.83665703795850276947021484375" lon="-0.50954486243426799774169921875">
        <ele>371.79998779296875</ele>
        <time>2021-09-27T09:14:12.000Z</time>
      </trkpt>
      <trkpt lat="39.83667966909706592559814453125" lon="-0.50948468036949634552001953125">
        <ele>372</ele>
        <time>2021-09-27T09:14:13.000Z</time>
      </trkpt>
      <trkpt lat="39.83674387447535991668701171875" lon="-0.50934277474880218505859375">
        <ele>372.399993896484375</ele>
        <time>2021-09-27T09:14:15.000Z</time>
      </trkpt>
      <trkpt lat="39.836808331310749053955078125" lon="-0.5092175491154193878173828125">
        <ele>372.79998779296875</ele>
        <time>2021-09-27T09:14:17.000Z</time>
      </trkpt>
      <trkpt lat="39.8368346504867076873779296875" lon="-0.50916147418320178985595703125">
        <ele>373</ele>
        <time>2021-09-27T09:14:18.000Z</time>
      </trkpt>
      <trkpt lat="39.83685962855815887451171875" lon="-0.509102381765842437744140625">
        <ele>373.20001220703125</ele>
        <time>2021-09-27T09:14:19.000Z</time>
      </trkpt>
      <trkpt lat="39.83691385947167873382568359375" lon="-0.50897673703730106353759765625">
        <ele>373.399993896484375</ele>
        <time>2021-09-27T09:14:21.000Z</time>
      </trkpt>
      <trkpt lat="39.836940430104732513427734375" lon="-0.50891202874481678009033203125">
        <ele>374</ele>
        <time>2021-09-27T09:14:22.000Z</time>
      </trkpt>
      <trkpt lat="39.8369697667658329010009765625" lon="-0.50884254276752471923828125">
        <ele>374.399993896484375</ele>
        <time>2021-09-27T09:14:23.000Z</time>
      </trkpt>
      <trkpt lat="39.83699977397918701171875" lon="-0.50877238623797893524169921875">
        <ele>374.399993896484375</ele>
        <time>2021-09-27T09:14:24.000Z</time>
      </trkpt>
      <trkpt lat="39.837025590240955352783203125" lon="-0.5087096057832241058349609375">
        <ele>374.20001220703125</ele>
        <time>2021-09-27T09:14:25.000Z</time>
      </trkpt>
      <trkpt lat="39.837069846689701080322265625" lon="-0.5085791833698749542236328125">
        <ele>374.399993896484375</ele>
        <time>2021-09-27T09:14:27.000Z</time>
      </trkpt>
      <trkpt lat="39.837114103138446807861328125" lon="-0.50844063051044940948486328125">
        <ele>374.399993896484375</ele>
        <time>2021-09-27T09:14:29.000Z</time>
      </trkpt>
      <trkpt lat="39.837131202220916748046875" lon="-0.50837642513215541839599609375">
        <ele>374.600006103515625</ele>
        <time>2021-09-27T09:14:30.000Z</time>
      </trkpt>
      <trkpt lat="39.8371471278369426727294921875" lon="-0.508315153419971466064453125">
        <ele>374.600006103515625</ele>
        <time>2021-09-27T09:14:31.000Z</time>
      </trkpt>
      <trkpt lat="39.83718015253543853759765625" lon="-0.50818950869143009185791015625">
        <ele>374.79998779296875</ele>
        <time>2021-09-27T09:14:33.000Z</time>
      </trkpt>
      <trkpt lat="39.837217368185520172119140625" lon="-0.50805305130779743194580078125">
        <ele>375</ele>
        <time>2021-09-27T09:14:35.000Z</time>
      </trkpt>
      <trkpt lat="39.8372493870556354522705078125" lon="-0.5079042725265026092529296875">
        <ele>374.600006103515625</ele>
        <time>2021-09-27T09:14:37.000Z</time>
      </trkpt>
      <trkpt lat="39.837282411754131317138671875" lon="-0.50774074159562587738037109375">
        <ele>374.20001220703125</ele>
        <time>2021-09-27T09:14:39.000Z</time>
      </trkpt>
      <trkpt lat="39.8373124189674854278564453125" lon="-0.5075777135789394378662109375">
        <ele>373.79998779296875</ele>
        <time>2021-09-27T09:14:41.000Z</time>
      </trkpt>
      <trkpt lat="39.8373372294008731842041015625" lon="-0.5074055492877960205078125">
        <ele>373.600006103515625</ele>
        <time>2021-09-27T09:14:43.000Z</time>
      </trkpt>
      <trkpt lat="39.83734779059886932373046875" lon="-0.50722525455057621002197265625">
        <ele>373.399993896484375</ele>
        <time>2021-09-27T09:14:45.000Z</time>
      </trkpt>
      <trkpt lat="39.8373471200466156005859375" lon="-0.50713439472019672393798828125">
        <ele>373.20001220703125</ele>
        <time>2021-09-27T09:14:46.000Z</time>
      </trkpt>
      <trkpt lat="39.83734502457082271575927734375" lon="-0.507052503526210784912109375">
        <ele>372.79998779296875</ele>
        <time>2021-09-27T09:14:47.000Z</time>
      </trkpt>
      <trkpt lat="39.83734686858952045440673828125" lon="-0.50689199008047580718994140625">
        <ele>372.399993896484375</ele>
        <time>2021-09-27T09:14:49.000Z</time>
      </trkpt>
      <trkpt lat="39.83734938316047191619873046875" lon="-0.50680967979133129119873046875">
        <ele>372.20001220703125</ele>
        <time>2021-09-27T09:14:50.000Z</time>
      </trkpt>
      <trkpt lat="39.83735038898885250091552734375" lon="-0.50672485493123531341552734375">
        <ele>372</ele>
        <time>2021-09-27T09:14:51.000Z</time>
      </trkpt>
      <trkpt lat="39.83734787441790103912353515625" lon="-0.506552942097187042236328125">
        <ele>371.79998779296875</ele>
        <time>2021-09-27T09:14:53.000Z</time>
      </trkpt>
      <trkpt lat="39.83734217472374439239501953125" lon="-0.5063717253506183624267578125">
        <ele>371.600006103515625</ele>
        <time>2021-09-27T09:14:55.000Z</time>
      </trkpt>
      <trkpt lat="39.83733228407800197601318359375" lon="-0.506184808909893035888671875">
        <ele>371.399993896484375</ele>
        <time>2021-09-27T09:14:57.000Z</time>
      </trkpt>
      <trkpt lat="39.8373130895197391510009765625" lon="-0.50599629990756511688232421875">
        <ele>370.600006103515625</ele>
        <time>2021-09-27T09:14:59.000Z</time>
      </trkpt>
      <trkpt lat="39.83729121275246143341064453125" lon="-0.505801923573017120361328125">
        <ele>369.600006103515625</ele>
        <time>2021-09-27T09:15:01.000Z</time>
      </trkpt>
      <trkpt lat="39.8372612893581390380859375" lon="-0.50561157055199146270751953125">
        <ele>368.399993896484375</ele>
        <time>2021-09-27T09:15:03.000Z</time>
      </trkpt>
      <trkpt lat="39.83721904456615447998046875" lon="-0.505421049892902374267578125">
        <ele>367.79998779296875</ele>
        <time>2021-09-27T09:15:05.000Z</time>
      </trkpt>
      <trkpt lat="39.8371749557554721832275390625" lon="-0.50523086450994014739990234375">
        <ele>367.79998779296875</ele>
        <time>2021-09-27T09:15:07.000Z</time>
      </trkpt>
      <trkpt lat="39.8371256701648235321044921875" lon="-0.50504453480243682861328125">
        <ele>368</ele>
        <time>2021-09-27T09:15:09.000Z</time>
      </trkpt>
      <trkpt lat="39.837070517241954803466796875" lon="-0.50486843101680278778076171875">
        <ele>368</ele>
        <time>2021-09-27T09:15:11.000Z</time>
      </trkpt>
      <trkpt lat="39.8370415158569812774658203125" lon="-0.50478662364184856414794921875">
        <ele>368.20001220703125</ele>
        <time>2021-09-27T09:15:12.000Z</time>
      </trkpt>
      <trkpt lat="39.83701377175748348236083984375" lon="-0.5047104321420192718505859375">
        <ele>368.399993896484375</ele>
        <time>2021-09-27T09:15:13.000Z</time>
      </trkpt>
      <trkpt lat="39.8369560204446315765380859375" lon="-0.50455377437174320220947265625">
        <ele>368.399993896484375</ele>
        <time>2021-09-27T09:15:15.000Z</time>
      </trkpt>
      <trkpt lat="39.8368846066296100616455078125" lon="-0.5043962784111499786376953125">
        <ele>368.79998779296875</ele>
        <time>2021-09-27T09:15:17.000Z</time>
      </trkpt>
      <trkpt lat="39.83681000769138336181640625" lon="-0.50423182547092437744140625">
        <ele>369</ele>
        <time>2021-09-27T09:15:19.000Z</time>
      </trkpt>
      <trkpt lat="39.8367328941822052001953125" lon="-0.50406418740749359130859375">
        <ele>368.79998779296875</ele>
        <time>2021-09-27T09:15:21.000Z</time>
      </trkpt>
      <trkpt lat="39.83665603213012218475341796875" lon="-0.5038947053253650665283203125">
        <ele>368.20001220703125</ele>
        <time>2021-09-27T09:15:23.000Z</time>
      </trkpt>
      <trkpt lat="39.8365805111825466156005859375" lon="-0.50373025238513946533203125">
        <ele>367.79998779296875</ele>
        <time>2021-09-27T09:15:25.000Z</time>
      </trkpt>
      <trkpt lat="39.83650851063430309295654296875" lon="-0.50356873311102390289306640625">
        <ele>367.399993896484375</ele>
        <time>2021-09-27T09:15:27.000Z</time>
      </trkpt>
      <trkpt lat="39.836437515914440155029296875" lon="-0.5034092254936695098876953125">
        <ele>366.20001220703125</ele>
        <time>2021-09-27T09:15:29.000Z</time>
      </trkpt>
      <trkpt lat="39.836365766823291778564453125" lon="-0.50325256772339344024658203125">
        <ele>365</ele>
        <time>2021-09-27T09:15:31.000Z</time>
      </trkpt>
      <trkpt lat="39.8363297246396541595458984375" lon="-0.5031708441674709320068359375">
        <ele>364.399993896484375</ele>
        <time>2021-09-27T09:15:32.000Z</time>
      </trkpt>
      <trkpt lat="39.8362921737134456634521484375" lon="-0.5030883662402629852294921875">
        <ele>363.79998779296875</ele>
        <time>2021-09-27T09:15:33.000Z</time>
      </trkpt>
      <trkpt lat="39.83621899969875812530517578125" lon="-0.50292215310037136077880859375">
        <ele>363</ele>
        <time>2021-09-27T09:15:35.000Z</time>
      </trkpt>
      <trkpt lat="39.83613970689475536346435546875" lon="-0.502750240266323089599609375">
        <ele>363.20001220703125</ele>
        <time>2021-09-27T09:15:37.000Z</time>
      </trkpt>
      <trkpt lat="39.83605857007205486297607421875" lon="-0.502574555575847625732421875">
        <ele>363.600006103515625</ele>
        <time>2021-09-27T09:15:39.000Z</time>
      </trkpt>
      <trkpt lat="39.83597558923065662384033203125" lon="-0.5023993737995624542236328125">
        <ele>364</ele>
        <time>2021-09-27T09:15:41.000Z</time>
      </trkpt>
      <trkpt lat="39.835893698036670684814453125" lon="-0.502217821776866912841796875">
        <ele>364.399993896484375</ele>
        <time>2021-09-27T09:15:43.000Z</time>
      </trkpt>
      <trkpt lat="39.8358123935759067535400390625" lon="-0.50204473547637462615966796875">
        <ele>364.79998779296875</ele>
        <time>2021-09-27T09:15:45.000Z</time>
      </trkpt>
      <trkpt lat="39.83573184348642826080322265625" lon="-0.5018713138997554779052734375">
        <ele>365.20001220703125</ele>
        <time>2021-09-27T09:15:47.000Z</time>
      </trkpt>
      <trkpt lat="39.8356524668633937835693359375" lon="-0.5016999877989292144775390625">
        <ele>365.399993896484375</ele>
        <time>2021-09-27T09:15:49.000Z</time>
      </trkpt>
      <trkpt lat="39.83561240136623382568359375" lon="-0.5016148276627063751220703125">
        <ele>365.399993896484375</ele>
        <time>2021-09-27T09:15:50.000Z</time>
      </trkpt>
      <trkpt lat="39.83557191677391529083251953125" lon="-0.5015293322503566741943359375">
        <ele>365.399993896484375</ele>
        <time>2021-09-27T09:15:51.000Z</time>
      </trkpt>
      <trkpt lat="39.83550050295889377593994140625" lon="-0.50136446021497249603271484375">
        <ele>365.399993896484375</ele>
        <time>2021-09-27T09:15:53.000Z</time>
      </trkpt>
      <trkpt lat="39.8354261554777622222900390625" lon="-0.50120151601731777191162109375">
        <ele>365.600006103515625</ele>
        <time>2021-09-27T09:15:55.000Z</time>
      </trkpt>
      <trkpt lat="39.83535247854888439178466796875" lon="-0.50104142166674137115478515625">
        <ele>365.600006103515625</ele>
        <time>2021-09-27T09:15:57.000Z</time>
      </trkpt>
      <trkpt lat="39.83527804724872112274169921875" lon="-0.5008856020867824554443359375">
        <ele>365.79998779296875</ele>
        <time>2021-09-27T09:15:59.000Z</time>
      </trkpt>
      <trkpt lat="39.83520210720598697662353515625" lon="-0.5007243342697620391845703125">
        <ele>365.79998779296875</ele>
        <time>2021-09-27T09:16:01.000Z</time>
      </trkpt>
      <trkpt lat="39.83512801118195056915283203125" lon="-0.50055812112987041473388671875">
        <ele>365.600006103515625</ele>
        <time>2021-09-27T09:16:03.000Z</time>
      </trkpt>
      <trkpt lat="39.8350902087986469268798828125" lon="-0.50046860240399837493896484375">
        <ele>365.399993896484375</ele>
        <time>2021-09-27T09:16:04.000Z</time>
      </trkpt>
      <trkpt lat="39.8350536637008190155029296875" lon="-0.5003816820681095123291015625">
        <ele>365.20001220703125</ele>
        <time>2021-09-27T09:16:05.000Z</time>
      </trkpt>
      <trkpt lat="39.83502156101167201995849609375" lon="-0.5002978630363941192626953125">
        <ele>365</ele>
        <time>2021-09-27T09:16:06.000Z</time>
      </trkpt>
      <trkpt lat="39.83498610556125640869140625" lon="-0.5002096854150295257568359375">
        <ele>364.79998779296875</ele>
        <time>2021-09-27T09:16:07.000Z</time>
      </trkpt>
      <trkpt lat="39.83494578860700130462646484375" lon="-0.50011756829917430877685546875">
        <ele>364.79998779296875</ele>
        <time>2021-09-27T09:16:08.000Z</time>
      </trkpt>
      <trkpt lat="39.83490169979631900787353515625" lon="-0.50002855248749256134033203125">
        <ele>364.600006103515625</ele>
        <time>2021-09-27T09:16:09.000Z</time>
      </trkpt>
      <trkpt lat="39.834816120564937591552734375" lon="-0.499853789806365966796875">
        <ele>364.399993896484375</ele>
        <time>2021-09-27T09:16:11.000Z</time>
      </trkpt>
      <trkpt lat="39.83477530069649219512939453125" lon="-0.4997691325843334197998046875">
        <ele>364.399993896484375</ele>
        <time>2021-09-27T09:16:12.000Z</time>
      </trkpt>
      <trkpt lat="39.83473154716193675994873046875" lon="-0.49968020059168338775634765625">
        <ele>364.20001220703125</ele>
        <time>2021-09-27T09:16:13.000Z</time>
      </trkpt>
      <trkpt lat="39.83465845696628093719482421875" lon="-0.49952144734561443328857421875">
        <ele>363.600006103515625</ele>
        <time>2021-09-27T09:16:15.000Z</time>
      </trkpt>
      <trkpt lat="39.83462342061102390289306640625" lon="-0.49943871796131134033203125">
        <ele>363.399993896484375</ele>
        <time>2021-09-27T09:16:16.000Z</time>
      </trkpt>
      <trkpt lat="39.834588132798671722412109375" lon="-0.49935665912926197052001953125">
        <ele>363.20001220703125</ele>
        <time>2021-09-27T09:16:17.000Z</time>
      </trkpt>
      <trkpt lat="39.83451328240334987640380859375" lon="-0.4991827346384525299072265625">
        <ele>363.399993896484375</ele>
        <time>2021-09-27T09:16:19.000Z</time>
      </trkpt>
      <trkpt lat="39.8344769887626171112060546875" lon="-0.499097406864166259765625">
        <ele>363.79998779296875</ele>
        <time>2021-09-27T09:16:20.000Z</time>
      </trkpt>
      <trkpt lat="39.83443382196128368377685546875" lon="-0.499011576175689697265625">
        <ele>364.20001220703125</ele>
        <time>2021-09-27T09:16:21.000Z</time>
      </trkpt>
      <trkpt lat="39.83434815891087055206298828125" lon="-0.498836897313594818115234375">
        <ele>363.79998779296875</ele>
        <time>2021-09-27T09:16:23.000Z</time>
      </trkpt>
      <trkpt lat="39.83427037484943866729736328125" lon="-0.49866355955600738525390625">
        <ele>363.600006103515625</ele>
        <time>2021-09-27T09:16:25.000Z</time>
      </trkpt>
      <trkpt lat="39.83423399738967418670654296875" lon="-0.4985783994197845458984375">
        <ele>363.399993896484375</ele>
        <time>2021-09-27T09:16:26.000Z</time>
      </trkpt>
      <trkpt lat="39.83419946394860744476318359375" lon="-0.4984944127500057220458984375">
        <ele>363.20001220703125</ele>
        <time>2021-09-27T09:16:27.000Z</time>
      </trkpt>
      <trkpt lat="39.83413123525679111480712890625" lon="-0.498332642018795013427734375">
        <ele>362.600006103515625</ele>
        <time>2021-09-27T09:16:29.000Z</time>
      </trkpt>
      <trkpt lat="39.83406367711722850799560546875" lon="-0.49816877581179141998291015625">
        <ele>361.20001220703125</ele>
        <time>2021-09-27T09:16:31.000Z</time>
      </trkpt>
      <trkpt lat="39.83399963937699794769287109375" lon="-0.497997365891933441162109375">
        <ele>359.600006103515625</ele>
        <time>2021-09-27T09:16:33.000Z</time>
      </trkpt>
      <trkpt lat="39.83393157832324504852294921875" lon="-0.4978246986865997314453125">
        <ele>359.79998779296875</ele>
        <time>2021-09-27T09:16:35.000Z</time>
      </trkpt>
      <trkpt lat="39.833869636058807373046875" lon="-0.497649013996124267578125">
        <ele>360.20001220703125</ele>
        <time>2021-09-27T09:16:37.000Z</time>
      </trkpt>
      <trkpt lat="39.8338020779192447662353515625" lon="-0.4974758438766002655029296875">
        <ele>360.600006103515625</ele>
        <time>2021-09-27T09:16:39.000Z</time>
      </trkpt>
      <trkpt lat="39.833733849227428436279296875" lon="-0.4973092116415500640869140625">
        <ele>361</ele>
        <time>2021-09-27T09:16:41.000Z</time>
      </trkpt>
      <trkpt lat="39.83366310596466064453125" lon="-0.49714006483554840087890625">
        <ele>362.600006103515625</ele>
        <time>2021-09-27T09:16:43.000Z</time>
      </trkpt>
      <trkpt lat="39.8335968889296054840087890625" lon="-0.4969652183353900909423828125">
        <ele>363.79998779296875</ele>
        <time>2021-09-27T09:16:45.000Z</time>
      </trkpt>
      <trkpt lat="39.83353075571358203887939453125" lon="-0.496796071529388427734375">
        <ele>365.20001220703125</ele>
        <time>2021-09-27T09:16:47.000Z</time>
      </trkpt>
      <trkpt lat="39.833498485386371612548828125" lon="-0.49671216867864131927490234375">
        <ele>365.79998779296875</ele>
        <time>2021-09-27T09:16:48.000Z</time>
      </trkpt>
      <trkpt lat="39.8334661312401294708251953125" lon="-0.4966282658278942108154296875">
        <ele>366.399993896484375</ele>
        <time>2021-09-27T09:16:49.000Z</time>
      </trkpt>
      <trkpt lat="39.833400584757328033447265625" lon="-0.4964502342045307159423828125">
        <ele>368.79998779296875</ele>
        <time>2021-09-27T09:16:51.000Z</time>
      </trkpt>
      <trkpt lat="39.833340235054492950439453125" lon="-0.49627446569502353668212890625">
        <ele>370.20001220703125</ele>
        <time>2021-09-27T09:16:53.000Z</time>
      </trkpt>
      <trkpt lat="39.83330880291759967803955078125" lon="-0.496188886463642120361328125">
        <ele>370.20001220703125</ele>
        <time>2021-09-27T09:16:54.000Z</time>
      </trkpt>
      <trkpt lat="39.83327619731426239013671875" lon="-0.49610414542257785797119140625">
        <ele>370.20001220703125</ele>
        <time>2021-09-27T09:16:55.000Z</time>
      </trkpt>
      <trkpt lat="39.83321475796401500701904296875" lon="-0.4959362559020519256591796875">
        <ele>369.600006103515625</ele>
        <time>2021-09-27T09:16:57.000Z</time>
      </trkpt>
      <trkpt lat="39.833155833184719085693359375" lon="-0.49577004276216030120849609375">
        <ele>368.20001220703125</ele>
        <time>2021-09-27T09:16:59.000Z</time>
      </trkpt>
      <trkpt lat="39.8331226408481597900390625" lon="-0.4956896603107452392578125">
        <ele>367.600006103515625</ele>
        <time>2021-09-27T09:17:00.000Z</time>
      </trkpt>
      <trkpt lat="39.833092130720615386962890625" lon="-0.49561045132577419281005859375">
        <ele>366.79998779296875</ele>
        <time>2021-09-27T09:17:01.000Z</time>
      </trkpt>
      <trkpt lat="39.8330624587833881378173828125" lon="-0.49553132615983486175537109375">
        <ele>366.20001220703125</ele>
        <time>2021-09-27T09:17:02.000Z</time>
      </trkpt>
      <trkpt lat="39.83303320594131946563720703125" lon="-0.49545153044164180755615234375">
        <ele>366.20001220703125</ele>
        <time>2021-09-27T09:17:03.000Z</time>
      </trkpt>
      <trkpt lat="39.83296279795467853546142578125" lon="-0.49529294483363628387451171875">
        <ele>365.600006103515625</ele>
        <time>2021-09-27T09:17:05.000Z</time>
      </trkpt>
      <trkpt lat="39.832930862903594970703125" lon="-0.4952194355428218841552734375">
        <ele>364.79998779296875</ele>
        <time>2021-09-27T09:17:06.000Z</time>
      </trkpt>
      <trkpt lat="39.8328975029289722442626953125" lon="-0.4951466806232929229736328125">
        <ele>364</ele>
        <time>2021-09-27T09:17:07.000Z</time>
      </trkpt>
      <trkpt lat="39.83283002860844135284423828125" lon="-0.495004355907440185546875">
        <ele>362.399993896484375</ele>
        <time>2021-09-27T09:17:09.000Z</time>
      </trkpt>
      <trkpt lat="39.8327942378818988800048828125" lon="-0.49494006671011447906494140625">
        <ele>361.79998779296875</ele>
        <time>2021-09-27T09:17:10.000Z</time>
      </trkpt>
      <trkpt lat="39.83275911770761013031005859375" lon="-0.49488457851111888885498046875">
        <ele>361.399993896484375</ele>
        <time>2021-09-27T09:17:11.000Z</time>
      </trkpt>
      <trkpt lat="39.83272768557071685791015625" lon="-0.4948342032730579376220703125">
        <ele>361</ele>
        <time>2021-09-27T09:17:12.000Z</time>
      </trkpt>
      <trkpt lat="39.83270061202347278594970703125" lon="-0.49479044973850250244140625">
        <ele>360.79998779296875</ele>
        <time>2021-09-27T09:17:13.000Z</time>
      </trkpt>
      <trkpt lat="39.8326507396996021270751953125" lon="-0.49472012557089328765869140625">
        <ele>361</ele>
        <time>2021-09-27T09:17:15.000Z</time>
      </trkpt>
      <trkpt lat="39.83262307941913604736328125" lon="-0.49468316137790679931640625">
        <ele>361</ele>
        <time>2021-09-27T09:17:16.000Z</time>
      </trkpt>
      <trkpt lat="39.832587540149688720703125" lon="-0.49464502371847629547119140625">
        <ele>361.20001220703125</ele>
        <time>2021-09-27T09:17:17.000Z</time>
      </trkpt>
      <trkpt lat="39.8325491510331630706787109375" lon="-0.49460177309811115264892578125">
        <ele>361.600006103515625</ele>
        <time>2021-09-27T09:17:18.000Z</time>
      </trkpt>
      <trkpt lat="39.8325164616107940673828125" lon="-0.4945582710206508636474609375">
        <ele>361.600006103515625</ele>
        <time>2021-09-27T09:17:19.000Z</time>
      </trkpt>
      <trkpt lat="39.8324535973370075225830078125" lon="-0.49446783028542995452880859375">
        <ele>362</ele>
        <time>2021-09-27T09:17:21.000Z</time>
      </trkpt>
      <trkpt lat="39.83241881243884563446044921875" lon="-0.49442005343735218048095703125">
        <ele>362.20001220703125</ele>
        <time>2021-09-27T09:17:22.000Z</time>
      </trkpt>
      <trkpt lat="39.83238511718809604644775390625" lon="-0.4943700134754180908203125">
        <ele>362.20001220703125</ele>
        <time>2021-09-27T09:17:23.000Z</time>
      </trkpt>
      <trkpt lat="39.8323117755353450775146484375" lon="-0.49426163546741008758544921875">
        <ele>362.600006103515625</ele>
        <time>2021-09-27T09:17:25.000Z</time>
      </trkpt>
      <trkpt lat="39.8322289623320102691650390625" lon="-0.49415283836424350738525390625">
        <ele>363</ele>
        <time>2021-09-27T09:17:27.000Z</time>
      </trkpt>
      <trkpt lat="39.832139946520328521728515625" lon="-0.49404253251850605010986328125">
        <ele>363.600006103515625</ele>
        <time>2021-09-27T09:17:29.000Z</time>
      </trkpt>
      <trkpt lat="39.832040704786777496337890625" lon="-0.49392007291316986083984375">
        <ele>364.399993896484375</ele>
        <time>2021-09-27T09:17:31.000Z</time>
      </trkpt>
      <trkpt lat="39.831945486366748809814453125" lon="-0.49379224888980388641357421875">
        <ele>364.79998779296875</ele>
        <time>2021-09-27T09:17:33.000Z</time>
      </trkpt>
      <trkpt lat="39.83184180222451686859130859375" lon="-0.49365855753421783447265625">
        <ele>364.79998779296875</ele>
        <time>2021-09-27T09:17:35.000Z</time>
      </trkpt>
      <trkpt lat="39.8317324183881282806396484375" lon="-0.493526794016361236572265625">
        <ele>364.79998779296875</ele>
        <time>2021-09-27T09:17:37.000Z</time>
      </trkpt>
      <trkpt lat="39.8316232860088348388671875" lon="-0.4933921806514263153076171875">
        <ele>364.600006103515625</ele>
        <time>2021-09-27T09:17:39.000Z</time>
      </trkpt>
      <trkpt lat="39.83151130378246307373046875" lon="-0.49325848929584026336669921875">
        <ele>362.600006103515625</ele>
        <time>2021-09-27T09:17:41.000Z</time>
      </trkpt>
      <trkpt lat="39.8314065299928188323974609375" lon="-0.4931216128170490264892578125">
        <ele>360.600006103515625</ele>
        <time>2021-09-27T09:17:43.000Z</time>
      </trkpt>
      <trkpt lat="39.83130066655576229095458984375" lon="-0.49297484569251537322998046875">
        <ele>358.399993896484375</ele>
        <time>2021-09-27T09:17:45.000Z</time>
      </trkpt>
      <trkpt lat="39.83119002543389797210693359375" lon="-0.49283470027148723602294921875">
        <ele>357.20001220703125</ele>
        <time>2021-09-27T09:17:47.000Z</time>
      </trkpt>
      <trkpt lat="39.8310796357691287994384765625" lon="-0.49269757233560085296630859375">
        <ele>354.399993896484375</ele>
        <time>2021-09-27T09:17:49.000Z</time>
      </trkpt>
      <trkpt lat="39.830965809524059295654296875" lon="-0.49254678189754486083984375">
        <ele>351.399993896484375</ele>
        <time>2021-09-27T09:17:51.000Z</time>
      </trkpt>
      <trkpt lat="39.83091451227664947509765625" lon="-0.49246556125581264495849609375">
        <ele>350</ele>
        <time>2021-09-27T09:17:52.000Z</time>
      </trkpt>
      <trkpt lat="39.83086950145661830902099609375" lon="-0.49238056875765323638916015625">
        <ele>350.399993896484375</ele>
        <time>2021-09-27T09:17:53.000Z</time>
      </trkpt>
      <trkpt lat="39.83079037629067897796630859375" lon="-0.49220555461943149566650390625">
        <ele>351.20001220703125</ele>
        <time>2021-09-27T09:17:55.000Z</time>
      </trkpt>
      <trkpt lat="39.83072139322757720947265625" lon="-0.49202484078705310821533203125">
        <ele>351.600006103515625</ele>
        <time>2021-09-27T09:17:57.000Z</time>
      </trkpt>
      <trkpt lat="39.83066565357148647308349609375" lon="-0.49184404313564300537109375">
        <ele>352.399993896484375</ele>
        <time>2021-09-27T09:17:59.000Z</time>
      </trkpt>
      <trkpt lat="39.83061653561890125274658203125" lon="-0.491661988198757171630859375">
        <ele>356.399993896484375</ele>
        <time>2021-09-27T09:18:01.000Z</time>
      </trkpt>
      <trkpt lat="39.8305933177471160888671875" lon="-0.49157582223415374755859375">
        <ele>358.399993896484375</ele>
        <time>2021-09-27T09:18:02.000Z</time>
      </trkpt>
      <trkpt lat="39.8305767215788364410400390625" lon="-0.4914831183850765228271484375">
        <ele>360.20001220703125</ele>
        <time>2021-09-27T09:18:03.000Z</time>
      </trkpt>
      <trkpt lat="39.83054763637483119964599609375" lon="-0.491290502250194549560546875">
        <ele>363</ele>
        <time>2021-09-27T09:18:05.000Z</time>
      </trkpt>
      <trkpt lat="39.8305217362940311431884765625" lon="-0.4910896718502044677734375">
        <ele>363.79998779296875</ele>
        <time>2021-09-27T09:18:07.000Z</time>
      </trkpt>
      <trkpt lat="39.8304927349090576171875" lon="-0.49088381230831146240234375">
        <ele>366.399993896484375</ele>
        <time>2021-09-27T09:18:09.000Z</time>
      </trkpt>
      <trkpt lat="39.8304600454866886138916015625" lon="-0.49067485146224498748779296875">
        <ele>369</ele>
        <time>2021-09-27T09:18:11.000Z</time>
      </trkpt>
      <trkpt lat="39.8304278589785099029541015625" lon="-0.49046513624489307403564453125">
        <ele>371.20001220703125</ele>
        <time>2021-09-27T09:18:13.000Z</time>
      </trkpt>
      <trkpt lat="39.83039977960288524627685546875" lon="-0.490259192883968353271484375">
        <ele>368.399993896484375</ele>
        <time>2021-09-27T09:18:15.000Z</time>
      </trkpt>
      <trkpt lat="39.8303665034472942352294921875" lon="-0.490050651133060455322265625">
        <ele>365.600006103515625</ele>
        <time>2021-09-27T09:18:17.000Z</time>
      </trkpt>
      <trkpt lat="39.830330125987529754638671875" lon="-0.48983666114509105682373046875">
        <ele>363</ele>
        <time>2021-09-27T09:18:19.000Z</time>
      </trkpt>
      <trkpt lat="39.830289222300052642822265625" lon="-0.48963231034576892852783203125">
        <ele>361.79998779296875</ele>
        <time>2021-09-27T09:18:21.000Z</time>
      </trkpt>
      <trkpt lat="39.8302714526653289794921875" lon="-0.48953440971672534942626953125">
        <ele>361.600006103515625</ele>
        <time>2021-09-27T09:18:22.000Z</time>
      </trkpt>
      <trkpt lat="39.83025108464062213897705078125" lon="-0.48943231813609600067138671875">
        <ele>361.20001220703125</ele>
        <time>2021-09-27T09:18:23.000Z</time>
      </trkpt>
      <trkpt lat="39.83021152205765247344970703125" lon="-0.4892456531524658203125">
        <ele>361</ele>
        <time>2021-09-27T09:18:25.000Z</time>
      </trkpt>
      <trkpt lat="39.8301784135401248931884765625" lon="-0.48906167037785053253173828125">
        <ele>360.399993896484375</ele>
        <time>2021-09-27T09:18:27.000Z</time>
      </trkpt>
      <trkpt lat="39.8301385156810283660888671875" lon="-0.4888659529387950897216796875">
        <ele>358.79998779296875</ele>
        <time>2021-09-27T09:18:29.000Z</time>
      </trkpt>
      <trkpt lat="39.83011663891375064849853515625" lon="-0.488763861358165740966796875">
        <ele>358.600006103515625</ele>
        <time>2021-09-27T09:18:30.000Z</time>
      </trkpt>
      <trkpt lat="39.8300935886800289154052734375" lon="-0.48865833319723606109619140625">
        <ele>358.600006103515625</ele>
        <time>2021-09-27T09:18:31.000Z</time>
      </trkpt>
      <trkpt lat="39.83005620539188385009765625" lon="-0.48844358883798122406005859375">
        <ele>358.20001220703125</ele>
        <time>2021-09-27T09:18:33.000Z</time>
      </trkpt>
      <trkpt lat="39.830027036368846893310546875" lon="-0.48823270015418529510498046875">
        <ele>358.20001220703125</ele>
        <time>2021-09-27T09:18:35.000Z</time>
      </trkpt>
      <trkpt lat="39.83000247739255428314208984375" lon="-0.4880327917635440826416015625">
        <ele>358.79998779296875</ele>
        <time>2021-09-27T09:18:37.000Z</time>
      </trkpt>
      <trkpt lat="39.8299846239387989044189453125" lon="-0.48783757723867893218994140625">
        <ele>359</ele>
        <time>2021-09-27T09:18:39.000Z</time>
      </trkpt>
      <trkpt lat="39.8299765773117542266845703125" lon="-0.4877411015331745147705078125">
        <ele>359.20001220703125</ele>
        <time>2021-09-27T09:18:40.000Z</time>
      </trkpt>
      <trkpt lat="39.82997112907469272613525390625" lon="-0.4876465536653995513916015625">
        <ele>359.20001220703125</ele>
        <time>2021-09-27T09:18:41.000Z</time>
      </trkpt>
      <trkpt lat="39.82996140606701374053955078125" lon="-0.4874601401388645172119140625">
        <ele>358.600006103515625</ele>
        <time>2021-09-27T09:18:43.000Z</time>
      </trkpt>
      <trkpt lat="39.82995570637285709381103515625" lon="-0.4872821085155010223388671875">
        <ele>357.399993896484375</ele>
        <time>2021-09-27T09:18:45.000Z</time>
      </trkpt>
      <trkpt lat="39.82996056787669658660888671875" lon="-0.4871882311999797821044921875">
        <ele>356.600006103515625</ele>
        <time>2021-09-27T09:18:46.000Z</time>
      </trkpt>
      <trkpt lat="39.82996501028537750244140625" lon="-0.48709309659898281097412109375">
        <ele>356</ele>
        <time>2021-09-27T09:18:47.000Z</time>
      </trkpt>
      <trkpt lat="39.8299759067595005035400390625" lon="-0.48690701834857463836669921875">
        <ele>355.20001220703125</ele>
        <time>2021-09-27T09:18:49.000Z</time>
      </trkpt>
      <trkpt lat="39.82999996282160282135009765625" lon="-0.4867362789809703826904296875">
        <ele>353.79998779296875</ele>
        <time>2021-09-27T09:18:51.000Z</time>
      </trkpt>
      <trkpt lat="39.8300327360630035400390625" lon="-0.4865629412233829498291015625">
        <ele>349.79998779296875</ele>
        <time>2021-09-27T09:18:53.000Z</time>
      </trkpt>
      <trkpt lat="39.8300707899034023284912109375" lon="-0.48638046719133853912353515625">
        <ele>345.20001220703125</ele>
        <time>2021-09-27T09:18:55.000Z</time>
      </trkpt>
      <trkpt lat="39.83011119067668914794921875" lon="-0.48619371838867664337158203125">
        <ele>343.399993896484375</ele>
        <time>2021-09-27T09:18:57.000Z</time>
      </trkpt>
      <trkpt lat="39.8301556147634983062744140625" lon="-0.48601333983242511749267578125">
        <ele>342.79998779296875</ele>
        <time>2021-09-27T09:18:59.000Z</time>
      </trkpt>
      <trkpt lat="39.83017665334045886993408203125" lon="-0.4859222285449504852294921875">
        <ele>342.600006103515625</ele>
        <time>2021-09-27T09:19:00.000Z</time>
      </trkpt>
      <trkpt lat="39.83019576407968997955322265625" lon="-0.48582659102976322174072265625">
        <ele>342.399993896484375</ele>
        <time>2021-09-27T09:19:01.000Z</time>
      </trkpt>
      <trkpt lat="39.83023264445364475250244140625" lon="-0.4856422729790210723876953125">
        <ele>341.79998779296875</ele>
        <time>2021-09-27T09:19:03.000Z</time>
      </trkpt>
      <trkpt lat="39.83027237467467784881591796875" lon="-0.48545912839472293853759765625">
        <ele>340.79998779296875</ele>
        <time>2021-09-27T09:19:05.000Z</time>
      </trkpt>
      <trkpt lat="39.8303121887147426605224609375" lon="-0.48527170903980731964111328125">
        <ele>341.399993896484375</ele>
        <time>2021-09-27T09:19:07.000Z</time>
      </trkpt>
      <trkpt lat="39.83035066165030002593994140625" lon="-0.4850870557129383087158203125">
        <ele>342</ele>
        <time>2021-09-27T09:19:09.000Z</time>
      </trkpt>
      <trkpt lat="39.83038871549069881439208984375" lon="-0.48490692861378192901611328125">
        <ele>342.600006103515625</ele>
        <time>2021-09-27T09:19:11.000Z</time>
      </trkpt>
      <trkpt lat="39.83042676933109760284423828125" lon="-0.48472638241946697235107421875">
        <ele>343.399993896484375</ele>
        <time>2021-09-27T09:19:13.000Z</time>
      </trkpt>
      <trkpt lat="39.83044571243226528167724609375" lon="-0.484634935855865478515625">
        <ele>343.600006103515625</ele>
        <time>2021-09-27T09:19:14.000Z</time>
      </trkpt>
      <trkpt lat="39.83046985231339931488037109375" lon="-0.48454575240612030029296875">
        <ele>343.399993896484375</ele>
        <time>2021-09-27T09:19:15.000Z</time>
      </trkpt>
      <trkpt lat="39.83051142655313014984130859375" lon="-0.48436529003083705902099609375">
        <ele>343.20001220703125</ele>
        <time>2021-09-27T09:19:17.000Z</time>
      </trkpt>
      <trkpt lat="39.83055375516414642333984375" lon="-0.48417351208627223968505859375">
        <ele>342.79998779296875</ele>
        <time>2021-09-27T09:19:19.000Z</time>
      </trkpt>
      <trkpt lat="39.83057412318885326385498046875" lon="-0.48407678492367267608642578125">
        <ele>342.600006103515625</ele>
        <time>2021-09-27T09:19:20.000Z</time>
      </trkpt>
      <trkpt lat="39.8305934853851795196533203125" lon="-0.48397754319012165069580078125">
        <ele>342.600006103515625</ele>
        <time>2021-09-27T09:19:21.000Z</time>
      </trkpt>
      <trkpt lat="39.830634556710720062255859375" lon="-0.48377973027527332305908203125">
        <ele>342</ele>
        <time>2021-09-27T09:19:23.000Z</time>
      </trkpt>
      <trkpt lat="39.8306796513497829437255859375" lon="-0.48358242027461528778076171875">
        <ele>341</ele>
        <time>2021-09-27T09:19:25.000Z</time>
      </trkpt>
      <trkpt lat="39.830726087093353271484375" lon="-0.48338544555008411407470703125">
        <ele>340.399993896484375</ele>
        <time>2021-09-27T09:19:27.000Z</time>
      </trkpt>
      <trkpt lat="39.8307705111801624298095703125" lon="-0.48318511806428432464599609375">
        <ele>339.79998779296875</ele>
        <time>2021-09-27T09:19:29.000Z</time>
      </trkpt>
      <trkpt lat="39.8308107443153858184814453125" lon="-0.48298445530235767364501953125">
        <ele>339.399993896484375</ele>
        <time>2021-09-27T09:19:31.000Z</time>
      </trkpt>
      <trkpt lat="39.83085072599351406097412109375" lon="-0.4827920906245708465576171875">
        <ele>338.600006103515625</ele>
        <time>2021-09-27T09:19:33.000Z</time>
      </trkpt>
      <trkpt lat="39.830869920551776885986328125" lon="-0.482696704566478729248046875">
        <ele>338</ele>
        <time>2021-09-27T09:19:34.000Z</time>
      </trkpt>
      <trkpt lat="39.8308902047574520111083984375" lon="-0.48260374926030635833740234375">
        <ele>337.600006103515625</ele>
        <time>2021-09-27T09:19:35.000Z</time>
      </trkpt>
      <trkpt lat="39.83093437738716602325439453125" lon="-0.48242052085697650909423828125">
        <ele>336.79998779296875</ele>
        <time>2021-09-27T09:19:37.000Z</time>
      </trkpt>
      <trkpt lat="39.8309787176549434661865234375" lon="-0.4822278209030628204345703125">
        <ele>336.600006103515625</ele>
        <time>2021-09-27T09:19:39.000Z</time>
      </trkpt>
      <trkpt lat="39.83102406375110149383544921875" lon="-0.48203176818788051605224609375">
        <ele>336</ele>
        <time>2021-09-27T09:19:41.000Z</time>
      </trkpt>
      <trkpt lat="39.83106966130435466766357421875" lon="-0.4818352125585079193115234375">
        <ele>335.399993896484375</ele>
        <time>2021-09-27T09:19:43.000Z</time>
      </trkpt>
      <trkpt lat="39.8311161808669567108154296875" lon="-0.4816357232630252838134765625">
        <ele>334.600006103515625</ele>
        <time>2021-09-27T09:19:45.000Z</time>
      </trkpt>
      <trkpt lat="39.83115918003022670745849609375" lon="-0.48143832944333553314208984375">
        <ele>334</ele>
        <time>2021-09-27T09:19:47.000Z</time>
      </trkpt>
      <trkpt lat="39.831195808947086334228515625" lon="-0.48124001361429691314697265625">
        <ele>333.600006103515625</ele>
        <time>2021-09-27T09:19:49.000Z</time>
      </trkpt>
      <trkpt lat="39.83123562298715114593505859375" lon="-0.481037087738513946533203125">
        <ele>333.600006103515625</ele>
        <time>2021-09-27T09:19:51.000Z</time>
      </trkpt>
      <trkpt lat="39.83127099461853504180908203125" lon="-0.48083215020596981048583984375">
        <ele>333.79998779296875</ele>
        <time>2021-09-27T09:19:53.000Z</time>
      </trkpt>
      <trkpt lat="39.83129982836544513702392578125" lon="-0.480630733072757720947265625">
        <ele>334</ele>
        <time>2021-09-27T09:19:55.000Z</time>
      </trkpt>
      <trkpt lat="39.83132162131369113922119140625" lon="-0.4804265499114990234375">
        <ele>333.79998779296875</ele>
        <time>2021-09-27T09:19:57.000Z</time>
      </trkpt>
      <trkpt lat="39.8313253931701183319091796875" lon="-0.480324290692806243896484375">
        <ele>333.79998779296875</ele>
        <time>2021-09-27T09:19:58.000Z</time>
      </trkpt>
      <trkpt lat="39.83132698573172092437744140625" lon="-0.48022228293120861053466796875">
        <ele>333.79998779296875</ele>
        <time>2021-09-27T09:19:59.000Z</time>
      </trkpt>
      <trkpt lat="39.8313300870358943939208984375" lon="-0.48001340590417385101318359375">
        <ele>334</ele>
        <time>2021-09-27T09:20:01.000Z</time>
      </trkpt>
      <trkpt lat="39.8313260637223720550537109375" lon="-0.4797994159162044525146484375">
        <ele>334.399993896484375</ele>
        <time>2021-09-27T09:20:03.000Z</time>
      </trkpt>
      <trkpt lat="39.8313186876475811004638671875" lon="-0.47958408482372760772705078125">
        <ele>334.600006103515625</ele>
        <time>2021-09-27T09:20:05.000Z</time>
      </trkpt>
      <trkpt lat="39.83131407760083675384521484375" lon="-0.47947629354894161224365234375">
        <ele>334.600006103515625</ele>
        <time>2021-09-27T09:20:06.000Z</time>
      </trkpt>
      <trkpt lat="39.83130904845893383026123046875" lon="-0.47936950810253620147705078125">
        <ele>334.79998779296875</ele>
        <time>2021-09-27T09:20:07.000Z</time>
      </trkpt>
      <trkpt lat="39.83130284585058689117431640625" lon="-0.47915543429553508758544921875">
        <ele>335.20001220703125</ele>
        <time>2021-09-27T09:20:09.000Z</time>
      </trkpt>
      <trkpt lat="39.83129479922354221343994140625" lon="-0.47894823364913463592529296875">
        <ele>335.600006103515625</ele>
        <time>2021-09-27T09:20:11.000Z</time>
      </trkpt>
      <trkpt lat="39.83128893189132213592529296875" lon="-0.47875427640974521636962890625">
        <ele>336.20001220703125</ele>
        <time>2021-09-27T09:20:13.000Z</time>
      </trkpt>
      <trkpt lat="39.8312868364155292510986328125" lon="-0.4786604829132556915283203125">
        <ele>336</ele>
        <time>2021-09-27T09:20:14.000Z</time>
      </trkpt>
      <trkpt lat="39.8312866687774658203125" lon="-0.47856509685516357421875">
        <ele>336</ele>
        <time>2021-09-27T09:20:15.000Z</time>
      </trkpt>
      <trkpt lat="39.831285662949085235595703125" lon="-0.47836753539741039276123046875">
        <ele>335.600006103515625</ele>
        <time>2021-09-27T09:20:17.000Z</time>
      </trkpt>
      <trkpt lat="39.8312826454639434814453125" lon="-0.47816821373999118804931640625">
        <ele>335.399993896484375</ele>
        <time>2021-09-27T09:20:19.000Z</time>
      </trkpt>
      <trkpt lat="39.83127920888364315032958984375" lon="-0.4779688082635402679443359375">
        <ele>335.20001220703125</ele>
        <time>2021-09-27T09:20:21.000Z</time>
      </trkpt>
      <trkpt lat="39.83127795159816741943359375" lon="-0.47787166200578212738037109375">
        <ele>334.79998779296875</ele>
        <time>2021-09-27T09:20:22.000Z</time>
      </trkpt>
      <trkpt lat="39.83127552084624767303466796875" lon="-0.47777258791029453277587890625">
        <ele>334.20001220703125</ele>
        <time>2021-09-27T09:20:23.000Z</time>
      </trkpt>
      <trkpt lat="39.83127032406628131866455078125" lon="-0.4775748588144779205322265625">
        <ele>333.20001220703125</ele>
        <time>2021-09-27T09:20:25.000Z</time>
      </trkpt>
      <trkpt lat="39.831266887485980987548828125" lon="-0.47737109474837779998779296875">
        <ele>332</ele>
        <time>2021-09-27T09:20:27.000Z</time>
      </trkpt>
      <trkpt lat="39.831258840858936309814453125" lon="-0.47717059962451457977294921875">
        <ele>330.79998779296875</ele>
        <time>2021-09-27T09:20:29.000Z</time>
      </trkpt>
      <trkpt lat="39.8312338627874851226806640625" lon="-0.476970188319683074951171875">
        <ele>330.399993896484375</ele>
        <time>2021-09-27T09:20:31.000Z</time>
      </trkpt>
      <trkpt lat="39.8312048614025115966796875" lon="-0.47677078284323215484619140625">
        <ele>330.20001220703125</ele>
        <time>2021-09-27T09:20:33.000Z</time>
      </trkpt>
      <trkpt lat="39.83118885196745395660400390625" lon="-0.47666986472904682159423828125">
        <ele>330.20001220703125</ele>
        <time>2021-09-27T09:20:34.000Z</time>
      </trkpt>
      <trkpt lat="39.83117091469466686248779296875" lon="-0.4765723831951618194580078125">
        <ele>330.20001220703125</ele>
        <time>2021-09-27T09:20:35.000Z</time>
      </trkpt>
      <trkpt lat="39.83112900517880916595458984375" lon="-0.4763806052505970001220703125">
        <ele>330</ele>
        <time>2021-09-27T09:20:37.000Z</time>
      </trkpt>
      <trkpt lat="39.8310749419033527374267578125" lon="-0.47619008459150791168212890625">
        <ele>329.399993896484375</ele>
        <time>2021-09-27T09:20:39.000Z</time>
      </trkpt>
      <trkpt lat="39.8310447670519351959228515625" lon="-0.47609386034309864044189453125">
        <ele>329</ele>
        <time>2021-09-27T09:20:40.000Z</time>
      </trkpt>
      <trkpt lat="39.83101333491504192352294921875" lon="-0.47599621117115020751953125">
        <ele>328.79998779296875</ele>
        <time>2021-09-27T09:20:41.000Z</time>
      </trkpt>
      <trkpt lat="39.83095130883157253265380859375" lon="-0.47580367885529994964599609375">
        <ele>328.20001220703125</ele>
        <time>2021-09-27T09:20:43.000Z</time>
      </trkpt>
      <trkpt lat="39.83088693581521511077880859375" lon="-0.47560636885464191436767578125">
        <ele>327.79998779296875</ele>
        <time>2021-09-27T09:20:45.000Z</time>
      </trkpt>
      <trkpt lat="39.8308181203901767730712890625" lon="-0.47540612518787384033203125">
        <ele>327.600006103515625</ele>
        <time>2021-09-27T09:20:47.000Z</time>
      </trkpt>
      <trkpt lat="39.8307510651648044586181640625" lon="-0.4751947335898876190185546875">
        <ele>327.399993896484375</ele>
        <time>2021-09-27T09:20:49.000Z</time>
      </trkpt>
      <trkpt lat="39.83067990280687808990478515625" lon="-0.47498275525867938995361328125">
        <ele>326.600006103515625</ele>
        <time>2021-09-27T09:20:51.000Z</time>
      </trkpt>
      <trkpt lat="39.83061133883893489837646484375" lon="-0.47477270476520061492919921875">
        <ele>325.399993896484375</ele>
        <time>2021-09-27T09:20:53.000Z</time>
      </trkpt>
      <trkpt lat="39.8305450379848480224609375" lon="-0.47456366010010242462158203125">
        <ele>324.399993896484375</ele>
        <time>2021-09-27T09:20:55.000Z</time>
      </trkpt>
      <trkpt lat="39.83047588728368282318115234375" lon="-0.4743562079966068267822265625">
        <ele>324.20001220703125</ele>
        <time>2021-09-27T09:20:57.000Z</time>
      </trkpt>
      <trkpt lat="39.83041335828602313995361328125" lon="-0.47417591325938701629638671875">
        <ele>324</ele>
        <time>2021-09-27T09:20:59.000Z</time>
      </trkpt>
      <trkpt lat="39.83039642684161663055419921875" lon="-0.474116317927837371826171875">
        <ele>324</ele>
        <time>2021-09-27T09:21:00.000Z</time>
      </trkpt>
      <trkpt lat="39.8303849436342716217041015625" lon="-0.47407063655555248260498046875">
        <ele>324</ele>
        <time>2021-09-27T09:21:01.000Z</time>
      </trkpt>
      <trkpt lat="39.830365665256977081298828125" lon="-0.47402688302099704742431640625">
        <ele>324</ele>
        <time>2021-09-27T09:21:02.000Z</time>
      </trkpt>
      <trkpt lat="39.8303369991481304168701171875" lon="-0.47399318777024745941162109375">
        <ele>324</ele>
        <time>2021-09-27T09:21:03.000Z</time>
      </trkpt>
      <trkpt lat="39.83030104078352451324462890625" lon="-0.47396452166140079498291015625">
        <ele>324.20001220703125</ele>
        <time>2021-09-27T09:21:04.000Z</time>
      </trkpt>
      <trkpt lat="39.830275140702724456787109375" lon="-0.473924539983272552490234375">
        <ele>324.20001220703125</ele>
        <time>2021-09-27T09:21:05.000Z</time>
      </trkpt>
      <trkpt lat="39.830242954194545745849609375" lon="-0.473819263279438018798828125">
        <ele>323.399993896484375</ele>
        <time>2021-09-27T09:21:07.000Z</time>
      </trkpt>
      <trkpt lat="39.830218143761157989501953125" lon="-0.47370828688144683837890625">
        <ele>323</ele>
        <time>2021-09-27T09:21:09.000Z</time>
      </trkpt>
      <trkpt lat="39.83019593171775341033935546875" lon="-0.473590604960918426513671875">
        <ele>322.600006103515625</ele>
        <time>2021-09-27T09:21:11.000Z</time>
      </trkpt>
      <trkpt lat="39.830182604491710662841796875" lon="-0.473524220287799835205078125">
        <ele>322.20001220703125</ele>
        <time>2021-09-27T09:21:12.000Z</time>
      </trkpt>
      <trkpt lat="39.83016810379922389984130859375" lon="-0.47345708124339580535888671875">
        <ele>322</ele>
        <time>2021-09-27T09:21:13.000Z</time>
      </trkpt>
      <trkpt lat="39.830127619206905364990234375" lon="-0.47331224195659160614013671875">
        <ele>321.399993896484375</ele>
        <time>2021-09-27T09:21:15.000Z</time>
      </trkpt>
      <trkpt lat="39.83010155148804187774658203125" lon="-0.47324032522737979888916015625">
        <ele>321</ele>
        <time>2021-09-27T09:21:16.000Z</time>
      </trkpt>
      <trkpt lat="39.83007439412176609039306640625" lon="-0.4731659777462482452392578125">
        <ele>320.399993896484375</ele>
        <time>2021-09-27T09:21:17.000Z</time>
      </trkpt>
      <trkpt lat="39.83002535998821258544921875" lon="-0.47300931997597217559814453125">
        <ele>319.20001220703125</ele>
        <time>2021-09-27T09:21:19.000Z</time>
      </trkpt>
      <trkpt lat="39.82999979518353939056396484375" lon="-0.47292818315327167510986328125">
        <ele>319</ele>
        <time>2021-09-27T09:21:20.000Z</time>
      </trkpt>
      <trkpt lat="39.8299732245504856109619140625" lon="-0.47284821979701519012451171875">
        <ele>318.79998779296875</ele>
        <time>2021-09-27T09:21:21.000Z</time>
      </trkpt>
      <trkpt lat="39.8299185745418071746826171875" lon="-0.472686029970645904541015625">
        <ele>318.600006103515625</ele>
        <time>2021-09-27T09:21:23.000Z</time>
      </trkpt>
      <trkpt lat="39.82986836694180965423583984375" lon="-0.472522415220737457275390625">
        <ele>318.600006103515625</ele>
        <time>2021-09-27T09:21:25.000Z</time>
      </trkpt>
      <trkpt lat="39.8298143036663532257080078125" lon="-0.47236139886081218719482421875">
        <ele>318.600006103515625</ele>
        <time>2021-09-27T09:21:27.000Z</time>
      </trkpt>
      <trkpt lat="39.82978790067136287689208984375" lon="-0.472283028066158294677734375">
        <ele>318.79998779296875</ele>
        <time>2021-09-27T09:21:28.000Z</time>
      </trkpt>
      <trkpt lat="39.82976384460926055908203125" lon="-0.47220398671925067901611328125">
        <ele>318.79998779296875</ele>
        <time>2021-09-27T09:21:29.000Z</time>
      </trkpt>
      <trkpt lat="39.82971615158021450042724609375" lon="-0.4720508493483066558837890625">
        <ele>318.600006103515625</ele>
        <time>2021-09-27T09:21:31.000Z</time>
      </trkpt>
      <trkpt lat="39.82966636307537555694580078125" lon="-0.47189888544380664825439453125">
        <ele>320.399993896484375</ele>
        <time>2021-09-27T09:21:33.000Z</time>
      </trkpt>
      <trkpt lat="39.8296117968857288360595703125" lon="-0.47174382023513317108154296875">
        <ele>322.79998779296875</ele>
        <time>2021-09-27T09:21:35.000Z</time>
      </trkpt>
      <trkpt lat="39.8295604996383190155029296875" lon="-0.4715871624648571014404296875">
        <ele>325.20001220703125</ele>
        <time>2021-09-27T09:21:37.000Z</time>
      </trkpt>
      <trkpt lat="39.8295071907341480255126953125" lon="-0.47142983414232730865478515625">
        <ele>327.399993896484375</ele>
        <time>2021-09-27T09:21:39.000Z</time>
      </trkpt>
      <trkpt lat="39.82945463620126247406005859375" lon="-0.471269153058528900146484375">
        <ele>329.79998779296875</ele>
        <time>2021-09-27T09:21:41.000Z</time>
      </trkpt>
      <trkpt lat="39.829398058354854583740234375" lon="-0.47111366875469684600830078125">
        <ele>330.600006103515625</ele>
        <time>2021-09-27T09:21:43.000Z</time>
      </trkpt>
      <trkpt lat="39.82934382744133472442626953125" lon="-0.47095458023250102996826171875">
        <ele>331.399993896484375</ele>
        <time>2021-09-27T09:21:45.000Z</time>
      </trkpt>
      <trkpt lat="39.8292946256697177886962890625" lon="-0.47080102376639842987060546875">
        <ele>332</ele>
        <time>2021-09-27T09:21:47.000Z</time>
      </trkpt>
      <trkpt lat="39.82923947274684906005859375" lon="-0.470644198358058929443359375">
        <ele>333</ele>
        <time>2021-09-27T09:21:49.000Z</time>
      </trkpt>
      <trkpt lat="39.82918406836688518524169921875" lon="-0.4704924859106540679931640625">
        <ele>334</ele>
        <time>2021-09-27T09:21:51.000Z</time>
      </trkpt>
      <trkpt lat="39.82913109473884105682373046875" lon="-0.470338426530361175537109375">
        <ele>333</ele>
        <time>2021-09-27T09:21:53.000Z</time>
      </trkpt>
      <trkpt lat="39.82910444028675556182861328125" lon="-0.4702618159353733062744140625">
        <ele>332.600006103515625</ele>
        <time>2021-09-27T09:21:54.000Z</time>
      </trkpt>
      <trkpt lat="39.8290751874446868896484375" lon="-0.47018629498779773712158203125">
        <ele>332.20001220703125</ele>
        <time>2021-09-27T09:21:55.000Z</time>
      </trkpt>
      <trkpt lat="39.82900871895253658294677734375" lon="-0.47004564665257930755615234375">
        <ele>331</ele>
        <time>2021-09-27T09:21:57.000Z</time>
      </trkpt>
      <trkpt lat="39.82897133566439151763916015625" lon="-0.469977669417858123779296875">
        <ele>330.399993896484375</ele>
        <time>2021-09-27T09:21:58.000Z</time>
      </trkpt>
      <trkpt lat="39.82893026433885097503662109375" lon="-0.46991371549665927886962890625">
        <ele>330</ele>
        <time>2021-09-27T09:21:59.000Z</time>
      </trkpt>
      <trkpt lat="39.82885180972516536712646484375" lon="-0.46979636885225772857666015625">
        <ele>329.20001220703125</ele>
        <time>2021-09-27T09:22:01.000Z</time>
      </trkpt>
      <trkpt lat="39.82878492213785648345947265625" lon="-0.46969578601419925689697265625">
        <ele>328.600006103515625</ele>
        <time>2021-09-27T09:22:03.000Z</time>
      </trkpt>
      <trkpt lat="39.82870965264737606048583984375" lon="-0.46958975493907928466796875">
        <ele>328.20001220703125</ele>
        <time>2021-09-27T09:22:05.000Z</time>
      </trkpt>
      <trkpt lat="39.82863555662333965301513671875" lon="-0.46949227340519428253173828125">
        <ele>328.399993896484375</ele>
        <time>2021-09-27T09:22:07.000Z</time>
      </trkpt>
      <trkpt lat="39.82855140231549739837646484375" lon="-0.4693924449384212493896484375">
        <ele>328.79998779296875</ele>
        <time>2021-09-27T09:22:09.000Z</time>
      </trkpt>
      <trkpt lat="39.828449226915836334228515625" lon="-0.4692807979881763458251953125">
        <ele>329.20001220703125</ele>
        <time>2021-09-27T09:22:11.000Z</time>
      </trkpt>
      <trkpt lat="39.8284004442393779754638671875" lon="-0.46923025511205196380615234375">
        <ele>329.399993896484375</ele>
        <time>2021-09-27T09:22:12.000Z</time>
      </trkpt>
      <trkpt lat="39.8283514939248561859130859375" lon="-0.4691827297210693359375">
        <ele>329.600006103515625</ele>
        <time>2021-09-27T09:22:13.000Z</time>
      </trkpt>
      <trkpt lat="39.82825552113354206085205078125" lon="-0.46908340416848659515380859375">
        <ele>328.79998779296875</ele>
        <time>2021-09-27T09:22:15.000Z</time>
      </trkpt>
      <trkpt lat="39.8281605541706085205078125" lon="-0.4689860902726650238037109375">
        <ele>328</ele>
        <time>2021-09-27T09:22:17.000Z</time>
      </trkpt>
      <trkpt lat="39.8280671797692775726318359375" lon="-0.4688791371881961822509765625">
        <ele>327</ele>
        <time>2021-09-27T09:22:19.000Z</time>
      </trkpt>
      <trkpt lat="39.82797405682504177093505859375" lon="-0.46876556240022182464599609375">
        <ele>326.600006103515625</ele>
        <time>2021-09-27T09:22:21.000Z</time>
      </trkpt>
      <trkpt lat="39.8278807662427425384521484375" lon="-0.468649975955486297607421875">
        <ele>325.79998779296875</ele>
        <time>2021-09-27T09:22:23.000Z</time>
      </trkpt>
      <trkpt lat="39.8278333246707916259765625" lon="-0.46859775669872760772705078125">
        <ele>325.600006103515625</ele>
        <time>2021-09-27T09:22:24.000Z</time>
      </trkpt>
      <trkpt lat="39.8277862183749675750732421875" lon="-0.4685465432703495025634765625">
        <ele>325.600006103515625</ele>
        <time>2021-09-27T09:22:25.000Z</time>
      </trkpt>
      <trkpt lat="39.8276930116117000579833984375" lon="-0.46843632124364376068115234375">
        <ele>325.399993896484375</ele>
        <time>2021-09-27T09:22:27.000Z</time>
      </trkpt>
      <trkpt lat="39.82760475017130374908447265625" lon="-0.46832400374114513397216796875">
        <ele>325</ele>
        <time>2021-09-27T09:22:29.000Z</time>
      </trkpt>
      <trkpt lat="39.82751556672155857086181640625" lon="-0.46820933930575847625732421875">
        <ele>324.20001220703125</ele>
        <time>2021-09-27T09:22:31.000Z</time>
      </trkpt>
      <trkpt lat="39.82747013680636882781982421875" lon="-0.46814982779324054718017578125">
        <ele>323.600006103515625</ele>
        <time>2021-09-27T09:22:32.000Z</time>
      </trkpt>
      <trkpt lat="39.82742588035762310028076171875" lon="-0.46809132210910320281982421875">
        <ele>323</ele>
        <time>2021-09-27T09:22:33.000Z</time>
      </trkpt>
      <trkpt lat="39.827335774898529052734375" lon="-0.4679802618920803070068359375">
        <ele>322.20001220703125</ele>
        <time>2021-09-27T09:22:35.000Z</time>
      </trkpt>
      <trkpt lat="39.8272432386875152587890625" lon="-0.467866770923137664794921875">
        <ele>322.600006103515625</ele>
        <time>2021-09-27T09:22:37.000Z</time>
      </trkpt>
      <trkpt lat="39.82719554565846920013427734375" lon="-0.46781254000961780548095703125">
        <ele>322.600006103515625</ele>
        <time>2021-09-27T09:22:38.000Z</time>
      </trkpt>
      <trkpt lat="39.82714676298201084136962890625" lon="-0.4677616618573665618896484375">
        <ele>322.399993896484375</ele>
        <time>2021-09-27T09:22:39.000Z</time>
      </trkpt>
      <trkpt lat="39.82705204747617244720458984375" lon="-0.4676526971161365509033203125">
        <ele>322.20001220703125</ele>
        <time>2021-09-27T09:22:41.000Z</time>
      </trkpt>
      <trkpt lat="39.82696370221674442291259765625" lon="-0.4675353504717350006103515625">
        <ele>323.79998779296875</ele>
        <time>2021-09-27T09:22:43.000Z</time>
      </trkpt>
      <trkpt lat="39.82688223011791706085205078125" lon="-0.46741037629544734954833984375">
        <ele>325</ele>
        <time>2021-09-27T09:22:45.000Z</time>
      </trkpt>
      <trkpt lat="39.82681073248386383056640625" lon="-0.467280037701129913330078125">
        <ele>325.20001220703125</ele>
        <time>2021-09-27T09:22:47.000Z</time>
      </trkpt>
      <trkpt lat="39.8267458565533161163330078125" lon="-0.46714064665138721466064453125">
        <ele>325</ele>
        <time>2021-09-27T09:22:49.000Z</time>
      </trkpt>
      <trkpt lat="39.826689697802066802978515625" lon="-0.4670015908777713775634765625">
        <ele>325.79998779296875</ele>
        <time>2021-09-27T09:22:51.000Z</time>
      </trkpt>
      <trkpt lat="39.8266368918120861053466796875" lon="-0.466858930885791778564453125">
        <ele>326.399993896484375</ele>
        <time>2021-09-27T09:22:53.000Z</time>
      </trkpt>
      <trkpt lat="39.82660260982811450958251953125" lon="-0.46670562587678432464599609375">
        <ele>325.79998779296875</ele>
        <time>2021-09-27T09:22:55.000Z</time>
      </trkpt>
      <trkpt lat="39.8265842534601688385009765625" lon="-0.466628260910511016845703125">
        <ele>324.79998779296875</ele>
        <time>2021-09-27T09:22:56.000Z</time>
      </trkpt>
      <trkpt lat="39.82656656764447689056396484375" lon="-0.4665499739348888397216796875">
        <ele>323.79998779296875</ele>
        <time>2021-09-27T09:22:57.000Z</time>
      </trkpt>
      <trkpt lat="39.82653706334531307220458984375" lon="-0.46639013104140758514404296875">
        <ele>321.600006103515625</ele>
        <time>2021-09-27T09:22:59.000Z</time>
      </trkpt>
      <trkpt lat="39.8265171982347965240478515625" lon="-0.4662254266440868377685546875">
        <ele>320.79998779296875</ele>
        <time>2021-09-27T09:23:01.000Z</time>
      </trkpt>
      <trkpt lat="39.8265114985406398773193359375" lon="-0.466143786907196044921875">
        <ele>320.79998779296875</ele>
        <time>2021-09-27T09:23:02.000Z</time>
      </trkpt>
      <trkpt lat="39.8265083134174346923828125" lon="-0.46606256626546382904052734375">
        <ele>320.79998779296875</ele>
        <time>2021-09-27T09:23:03.000Z</time>
      </trkpt>
      <trkpt lat="39.8265002667903900146484375" lon="-0.46589769423007965087890625">
        <ele>320.399993896484375</ele>
        <time>2021-09-27T09:23:05.000Z</time>
      </trkpt>
      <trkpt lat="39.8264964111149311065673828125" lon="-0.4657305590808391571044921875">
        <ele>319.79998779296875</ele>
        <time>2021-09-27T09:23:07.000Z</time>
      </trkpt>
      <trkpt lat="39.8264920525252819061279296875" lon="-0.46556702814996242523193359375">
        <ele>319.399993896484375</ele>
        <time>2021-09-27T09:23:09.000Z</time>
      </trkpt>
      <trkpt lat="39.826488196849822998046875" lon="-0.4654040001332759857177734375">
        <ele>319.20001220703125</ele>
        <time>2021-09-27T09:23:11.000Z</time>
      </trkpt>
      <trkpt lat="39.82648358680307865142822265625" lon="-0.4652383737266063690185546875">
        <ele>319.399993896484375</ele>
        <time>2021-09-27T09:23:13.000Z</time>
      </trkpt>
      <trkpt lat="39.8264799825847148895263671875" lon="-0.46507668681442737579345703125">
        <ele>319.79998779296875</ele>
        <time>2021-09-27T09:23:15.000Z</time>
      </trkpt>
      <trkpt lat="39.82647285796701908111572265625" lon="-0.46491726301610469818115234375">
        <ele>320.20001220703125</ele>
        <time>2021-09-27T09:23:17.000Z</time>
      </trkpt>
      <trkpt lat="39.8264702595770359039306640625" lon="-0.46475565992295742034912109375">
        <ele>320.600006103515625</ele>
        <time>2021-09-27T09:23:19.000Z</time>
      </trkpt>
      <trkpt lat="39.8264659009873867034912109375" lon="-0.4646761156618595123291015625">
        <ele>321</ele>
        <time>2021-09-27T09:23:20.000Z</time>
      </trkpt>
      <trkpt lat="39.82646112330257892608642578125" lon="-0.46459472738206386566162109375">
        <ele>321.20001220703125</ele>
        <time>2021-09-27T09:23:21.000Z</time>
      </trkpt>
      <trkpt lat="39.8264561779797077178955078125" lon="-0.46442725695669651031494140625">
        <ele>321.600006103515625</ele>
        <time>2021-09-27T09:23:23.000Z</time>
      </trkpt>
      <trkpt lat="39.82645056210458278656005859375" lon="-0.4642622172832489013671875">
        <ele>322.399993896484375</ele>
        <time>2021-09-27T09:23:25.000Z</time>
      </trkpt>
      <trkpt lat="39.826447963714599609375" lon="-0.4641789011657238006591796875">
        <ele>322.79998779296875</ele>
        <time>2021-09-27T09:23:26.000Z</time>
      </trkpt>
      <trkpt lat="39.8264431022107601165771484375" lon="-0.46409734524786472320556640625">
        <ele>323.399993896484375</ele>
        <time>2021-09-27T09:23:27.000Z</time>
      </trkpt>
      <trkpt lat="39.82643027789890766143798828125" lon="-0.4639294557273387908935546875">
        <ele>324.20001220703125</ele>
        <time>2021-09-27T09:23:29.000Z</time>
      </trkpt>
      <trkpt lat="39.82640496455132961273193359375" lon="-0.46376659534871578216552734375">
        <ele>324.79998779296875</ele>
        <time>2021-09-27T09:23:31.000Z</time>
      </trkpt>
      <trkpt lat="39.826371856033802032470703125" lon="-0.4636072553694248199462890625">
        <ele>324.79998779296875</ele>
        <time>2021-09-27T09:23:33.000Z</time>
      </trkpt>
      <trkpt lat="39.8263366520404815673828125" lon="-0.46345747075974941253662109375">
        <ele>324.600006103515625</ele>
        <time>2021-09-27T09:23:35.000Z</time>
      </trkpt>
      <trkpt lat="39.82628636062145233154296875" lon="-0.46331196092069149017333984375">
        <ele>324.600006103515625</ele>
        <time>2021-09-27T09:23:37.000Z</time>
      </trkpt>
      <trkpt lat="39.8262308724224567413330078125" lon="-0.463162176311016082763671875">
        <ele>324.600006103515625</ele>
        <time>2021-09-27T09:23:39.000Z</time>
      </trkpt>
      <trkpt lat="39.826172031462192535400390625" lon="-0.46301557682454586029052734375">
        <ele>324.399993896484375</ele>
        <time>2021-09-27T09:23:41.000Z</time>
      </trkpt>
      <trkpt lat="39.82610958628356456756591796875" lon="-0.46287124045193195343017578125">
        <ele>324.20001220703125</ele>
        <time>2021-09-27T09:23:43.000Z</time>
      </trkpt>
      <trkpt lat="39.82604152522981166839599609375" lon="-0.4627284966409206390380859375">
        <ele>323.79998779296875</ele>
        <time>2021-09-27T09:23:45.000Z</time>
      </trkpt>
      <trkpt lat="39.825978912413120269775390625" lon="-0.46259061433374881744384765625">
        <ele>323.399993896484375</ele>
        <time>2021-09-27T09:23:47.000Z</time>
      </trkpt>
      <trkpt lat="39.8259100131690502166748046875" lon="-0.46245616860687732696533203125">
        <ele>323.20001220703125</ele>
        <time>2021-09-27T09:23:49.000Z</time>
      </trkpt>
      <trkpt lat="39.825844466686248779296875" lon="-0.46231920830905437469482421875">
        <ele>323.20001220703125</ele>
        <time>2021-09-27T09:23:51.000Z</time>
      </trkpt>
      <trkpt lat="39.8257822729647159576416015625" lon="-0.46218107454478740692138671875">
        <ele>323.399993896484375</ele>
        <time>2021-09-27T09:23:53.000Z</time>
      </trkpt>
      <trkpt lat="39.82571932487189769744873046875" lon="-0.46204176731407642364501953125">
        <ele>323.79998779296875</ele>
        <time>2021-09-27T09:23:55.000Z</time>
      </trkpt>
      <trkpt lat="39.82565931044518947601318359375" lon="-0.46190430410206317901611328125">
        <ele>324.20001220703125</ele>
        <time>2021-09-27T09:23:57.000Z</time>
      </trkpt>
      <trkpt lat="39.825598038733005523681640625" lon="-0.46176902018487453460693359375">
        <ele>324.399993896484375</ele>
        <time>2021-09-27T09:23:59.000Z</time>
      </trkpt>
      <trkpt lat="39.8255351744592189788818359375" lon="-0.4616287909448146820068359375">
        <ele>324.399993896484375</ele>
        <time>2021-09-27T09:24:01.000Z</time>
      </trkpt>
      <trkpt lat="39.82546803541481494903564453125" lon="-0.46148604713380336761474609375">
        <ele>324.79998779296875</ele>
        <time>2021-09-27T09:24:03.000Z</time>
      </trkpt>
      <trkpt lat="39.82539813034236431121826171875" lon="-0.46134338714182376861572265625">
        <ele>325</ele>
        <time>2021-09-27T09:24:05.000Z</time>
      </trkpt>
      <trkpt lat="39.82533015310764312744140625" lon="-0.461200810968875885009765625">
        <ele>325.20001220703125</ele>
        <time>2021-09-27T09:24:07.000Z</time>
      </trkpt>
      <trkpt lat="39.82526418752968311309814453125" lon="-0.461059324443340301513671875">
        <ele>325.399993896484375</ele>
        <time>2021-09-27T09:24:09.000Z</time>
      </trkpt>
      <trkpt lat="39.82519864104688167572021484375" lon="-0.46091549098491668701171875">
        <ele>325.600006103515625</ele>
        <time>2021-09-27T09:24:11.000Z</time>
      </trkpt>
      <trkpt lat="39.8251358605921268463134765625" lon="-0.46076905913650989532470703125">
        <ele>325.600006103515625</ele>
        <time>2021-09-27T09:24:13.000Z</time>
      </trkpt>
      <trkpt lat="39.825106523931026458740234375" lon="-0.46069881878793239593505859375">
        <ele>326</ele>
        <time>2021-09-27T09:24:14.000Z</time>
      </trkpt>
      <trkpt lat="39.825074672698974609375" lon="-0.460629500448703765869140625">
        <ele>326.399993896484375</ele>
        <time>2021-09-27T09:24:15.000Z</time>
      </trkpt>
      <trkpt lat="39.825009293854236602783203125" lon="-0.46048876829445362091064453125">
        <ele>327.399993896484375</ele>
        <time>2021-09-27T09:24:17.000Z</time>
      </trkpt>
      <trkpt lat="39.82494416646659374237060546875" lon="-0.46034895814955234527587890625">
        <ele>328.20001220703125</ele>
        <time>2021-09-27T09:24:19.000Z</time>
      </trkpt>
      <trkpt lat="39.82488046400249004364013671875" lon="-0.46020931564271450042724609375">
        <ele>329.20001220703125</ele>
        <time>2021-09-27T09:24:21.000Z</time>
      </trkpt>
      <trkpt lat="39.8248190246522426605224609375" lon="-0.460081994533538818359375">
        <ele>328.399993896484375</ele>
        <time>2021-09-27T09:24:23.000Z</time>
      </trkpt>
      <trkpt lat="39.8247573338449001312255859375" lon="-0.45995668508112430572509765625">
        <ele>327.399993896484375</ele>
        <time>2021-09-27T09:24:25.000Z</time>
      </trkpt>
      <trkpt lat="39.82468902133405208587646484375" lon="-0.45981603674590587615966796875">
        <ele>326</ele>
        <time>2021-09-27T09:24:27.000Z</time>
      </trkpt>
      <trkpt lat="39.82465415261685848236083984375" lon="-0.45974378474056720733642578125">
        <ele>325.399993896484375</ele>
        <time>2021-09-27T09:24:28.000Z</time>
      </trkpt>
      <trkpt lat="39.82461894862353801727294921875" lon="-0.45966901816427707672119140625">
        <ele>324.79998779296875</ele>
        <time>2021-09-27T09:24:29.000Z</time>
      </trkpt>
      <trkpt lat="39.8245514743030071258544921875" lon="-0.459515042603015899658203125">
        <ele>323.79998779296875</ele>
        <time>2021-09-27T09:24:31.000Z</time>
      </trkpt>
      <trkpt lat="39.82448282651603221893310546875" lon="-0.4593562893569469451904296875">
        <ele>322.79998779296875</ele>
        <time>2021-09-27T09:24:33.000Z</time>
      </trkpt>
      <trkpt lat="39.82441015541553497314453125" lon="-0.45919644646346569061279296875">
        <ele>321.600006103515625</ele>
        <time>2021-09-27T09:24:35.000Z</time>
      </trkpt>
      <trkpt lat="39.82433371245861053466796875" lon="-0.45903786085546016693115234375">
        <ele>320.600006103515625</ele>
        <time>2021-09-27T09:24:37.000Z</time>
      </trkpt>
      <trkpt lat="39.82425768859684467315673828125" lon="-0.458873324096202850341796875">
        <ele>320.600006103515625</ele>
        <time>2021-09-27T09:24:39.000Z</time>
      </trkpt>
      <trkpt lat="39.824182502925395965576171875" lon="-0.4587041772902011871337890625">
        <ele>320.79998779296875</ele>
        <time>2021-09-27T09:24:41.000Z</time>
      </trkpt>
      <trkpt lat="39.8241058923304080963134765625" lon="-0.45853503048419952392578125">
        <ele>321</ele>
        <time>2021-09-27T09:24:43.000Z</time>
      </trkpt>
      <trkpt lat="39.8240287788212299346923828125" lon="-0.458363033831119537353515625">
        <ele>320.79998779296875</ele>
        <time>2021-09-27T09:24:45.000Z</time>
      </trkpt>
      <trkpt lat="39.82394873164594173431396484375" lon="-0.45818709768354892730712890625">
        <ele>320</ele>
        <time>2021-09-27T09:24:47.000Z</time>
      </trkpt>
      <trkpt lat="39.82386306859552860260009765625" lon="-0.45800705440342426300048828125">
        <ele>319.399993896484375</ele>
        <time>2021-09-27T09:24:49.000Z</time>
      </trkpt>
      <trkpt lat="39.823780842125415802001953125" lon="-0.457825250923633575439453125">
        <ele>319</ele>
        <time>2021-09-27T09:24:51.000Z</time>
      </trkpt>
      <trkpt lat="39.82369710691273212432861328125" lon="-0.45764143578708171844482421875">
        <ele>318.20001220703125</ele>
        <time>2021-09-27T09:24:53.000Z</time>
      </trkpt>
      <trkpt lat="39.823610521852970123291015625" lon="-0.457461811602115631103515625">
        <ele>317.79998779296875</ele>
        <time>2021-09-27T09:24:55.000Z</time>
      </trkpt>
      <trkpt lat="39.8235681094229221343994140625" lon="-0.4573721252381801605224609375">
        <ele>317.79998779296875</ele>
        <time>2021-09-27T09:24:56.000Z</time>
      </trkpt>
      <trkpt lat="39.82352561317384243011474609375" lon="-0.45728453435003757476806640625">
        <ele>317.600006103515625</ele>
        <time>2021-09-27T09:24:57.000Z</time>
      </trkpt>
      <trkpt lat="39.82344321906566619873046875" lon="-0.45710742473602294921875">
        <ele>317.20001220703125</ele>
        <time>2021-09-27T09:24:59.000Z</time>
      </trkpt>
      <trkpt lat="39.82336484827101230621337890625" lon="-0.45693836174905300140380859375">
        <ele>317.399993896484375</ele>
        <time>2021-09-27T09:25:01.000Z</time>
      </trkpt>
      <trkpt lat="39.8232858069241046905517578125" lon="-0.45676871202886104583740234375">
        <ele>317.79998779296875</ele>
        <time>2021-09-27T09:25:03.000Z</time>
      </trkpt>
      <trkpt lat="39.82324616052210330963134765625" lon="-0.45668832957744598388671875">
        <ele>317.20001220703125</ele>
        <time>2021-09-27T09:25:04.000Z</time>
      </trkpt>
      <trkpt lat="39.82320609502494335174560546875" lon="-0.4566046781837940216064453125">
        <ele>316.600006103515625</ele>
        <time>2021-09-27T09:25:05.000Z</time>
      </trkpt>
      <trkpt lat="39.8231238685548305511474609375" lon="-0.456435866653919219970703125">
        <ele>315.399993896484375</ele>
        <time>2021-09-27T09:25:07.000Z</time>
      </trkpt>
      <trkpt lat="39.823037199676036834716796875" lon="-0.45626395381987094879150390625">
        <ele>314.399993896484375</ele>
        <time>2021-09-27T09:25:09.000Z</time>
      </trkpt>
      <trkpt lat="39.8229424841701984405517578125" lon="-0.45609530992805957794189453125">
        <ele>313.79998779296875</ele>
        <time>2021-09-27T09:25:11.000Z</time>
      </trkpt>
      <trkpt lat="39.82284081168472766876220703125" lon="-0.4559301026165485382080078125">
        <ele>313.399993896484375</ele>
        <time>2021-09-27T09:25:13.000Z</time>
      </trkpt>
      <trkpt lat="39.8227289132773876190185546875" lon="-0.45577906072139739990234375">
        <ele>313.600006103515625</ele>
        <time>2021-09-27T09:25:15.000Z</time>
      </trkpt>
      <trkpt lat="39.82260511256754398345947265625" lon="-0.45563447289168834686279296875">
        <ele>313.79998779296875</ele>
        <time>2021-09-27T09:25:17.000Z</time>
      </trkpt>
      <trkpt lat="39.822468571364879608154296875" lon="-0.4555002786219120025634765625">
        <ele>314.600006103515625</ele>
        <time>2021-09-27T09:25:19.000Z</time>
      </trkpt>
      <trkpt lat="39.8223242349922657012939453125" lon="-0.455375052988529205322265625">
        <ele>315.399993896484375</ele>
        <time>2021-09-27T09:25:21.000Z</time>
      </trkpt>
      <trkpt lat="39.822174198925495147705078125" lon="-0.4552548564970493316650390625">
        <ele>315.79998779296875</ele>
        <time>2021-09-27T09:25:23.000Z</time>
      </trkpt>
      <trkpt lat="39.82202189974486827850341796875" lon="-0.4551321454346179962158203125">
        <ele>315.399993896484375</ele>
        <time>2021-09-27T09:25:25.000Z</time>
      </trkpt>
      <trkpt lat="39.8218655772507190704345703125" lon="-0.45501588843762874603271484375">
        <ele>314.79998779296875</ele>
        <time>2021-09-27T09:25:27.000Z</time>
      </trkpt>
      <trkpt lat="39.82178603298962116241455078125" lon="-0.45495755039155483245849609375">
        <ele>314.399993896484375</ele>
        <time>2021-09-27T09:25:28.000Z</time>
      </trkpt>
      <trkpt lat="39.82170690782368183135986328125" lon="-0.4548994638025760650634765625">
        <ele>314.20001220703125</ele>
        <time>2021-09-27T09:25:29.000Z</time>
      </trkpt>
      <trkpt lat="39.82154865749180316925048828125" lon="-0.4547801055014133453369140625">
        <ele>314</ele>
        <time>2021-09-27T09:25:31.000Z</time>
      </trkpt>
      <trkpt lat="39.82138856314122676849365234375" lon="-0.45466150157153606414794921875">
        <ele>313.600006103515625</ele>
        <time>2021-09-27T09:25:33.000Z</time>
      </trkpt>
      <trkpt lat="39.82122042216360569000244140625" lon="-0.45454197563230991363525390625">
        <ele>313.399993896484375</ele>
        <time>2021-09-27T09:25:35.000Z</time>
      </trkpt>
      <trkpt lat="39.82113517820835113525390625" lon="-0.45448296703398227691650390625">
        <ele>312.600006103515625</ele>
        <time>2021-09-27T09:25:36.000Z</time>
      </trkpt>
      <trkpt lat="39.82105194590985774993896484375" lon="-0.45442454516887664794921875">
        <ele>312</ele>
        <time>2021-09-27T09:25:37.000Z</time>
      </trkpt>
      <trkpt lat="39.82088841497898101806640625" lon="-0.4543006606400012969970703125">
        <ele>310.600006103515625</ele>
        <time>2021-09-27T09:25:39.000Z</time>
      </trkpt>
      <trkpt lat="39.820723794400691986083984375" lon="-0.45417618937790393829345703125">
        <ele>309.399993896484375</ele>
        <time>2021-09-27T09:25:41.000Z</time>
      </trkpt>
      <trkpt lat="39.8206424899399280548095703125" lon="-0.454115755856037139892578125">
        <ele>309</ele>
        <time>2021-09-27T09:25:42.000Z</time>
      </trkpt>
      <trkpt lat="39.82056043110787868499755859375" lon="-0.45405364595353603363037109375">
        <ele>308.600006103515625</ele>
        <time>2021-09-27T09:25:43.000Z</time>
      </trkpt>
      <trkpt lat="39.82040670700371265411376953125" lon="-0.45392858795821666717529296875">
        <ele>307.600006103515625</ele>
        <time>2021-09-27T09:25:45.000Z</time>
      </trkpt>
      <trkpt lat="39.82024594210088253021240234375" lon="-0.4538074694573879241943359375">
        <ele>306.20001220703125</ele>
        <time>2021-09-27T09:25:47.000Z</time>
      </trkpt>
      <trkpt lat="39.82016296125948429107666015625" lon="-0.45374737121164798736572265625">
        <ele>305.399993896484375</ele>
        <time>2021-09-27T09:25:48.000Z</time>
      </trkpt>
      <trkpt lat="39.8200805671513080596923828125" lon="-0.45368425548076629638671875">
        <ele>304.600006103515625</ele>
        <time>2021-09-27T09:25:49.000Z</time>
      </trkpt>
      <trkpt lat="39.8199162818491458892822265625" lon="-0.453561879694461822509765625">
        <ele>303.20001220703125</ele>
        <time>2021-09-27T09:25:51.000Z</time>
      </trkpt>
      <trkpt lat="39.81975459493696689605712890625" lon="-0.4534346424043178558349609375">
        <ele>301.79998779296875</ele>
        <time>2021-09-27T09:25:53.000Z</time>
      </trkpt>
      <trkpt lat="39.8195883817970752716064453125" lon="-0.4533146135509014129638671875">
        <ele>300.600006103515625</ele>
        <time>2021-09-27T09:25:55.000Z</time>
      </trkpt>
      <trkpt lat="39.81942568905651569366455078125" lon="-0.453195087611675262451171875">
        <ele>299.79998779296875</ele>
        <time>2021-09-27T09:25:57.000Z</time>
      </trkpt>
      <trkpt lat="39.81926609762012958526611328125" lon="-0.45307933352887630462646484375">
        <ele>300.600006103515625</ele>
        <time>2021-09-27T09:25:59.000Z</time>
      </trkpt>
      <trkpt lat="39.81910935603082180023193359375" lon="-0.4529558680951595306396484375">
        <ele>301.600006103515625</ele>
        <time>2021-09-27T09:26:01.000Z</time>
      </trkpt>
      <trkpt lat="39.81896066106855869293212890625" lon="-0.45282133854925632476806640625">
        <ele>302</ele>
        <time>2021-09-27T09:26:03.000Z</time>
      </trkpt>
      <trkpt lat="39.81888941489160060882568359375" lon="-0.45274422504007816314697265625">
        <ele>302.399993896484375</ele>
        <time>2021-09-27T09:26:04.000Z</time>
      </trkpt>
      <trkpt lat="39.81881917454302310943603515625" lon="-0.4526655189692974090576171875">
        <ele>303.399993896484375</ele>
        <time>2021-09-27T09:26:05.000Z</time>
      </trkpt>
      <trkpt lat="39.8186896741390228271484375" lon="-0.45249830000102519989013671875">
        <ele>304.600006103515625</ele>
        <time>2021-09-27T09:26:07.000Z</time>
      </trkpt>
      <trkpt lat="39.8185798712074756622314453125" lon="-0.45231557451188564300537109375">
        <ele>304.399993896484375</ele>
        <time>2021-09-27T09:26:09.000Z</time>
      </trkpt>
      <trkpt lat="39.81848917901515960693359375" lon="-0.45212128199636936187744140625">
        <ele>304.399993896484375</ele>
        <time>2021-09-27T09:26:11.000Z</time>
      </trkpt>
      <trkpt lat="39.8184108920395374298095703125" lon="-0.45191559009253978729248046875">
        <ele>302.399993896484375</ele>
        <time>2021-09-27T09:26:13.000Z</time>
      </trkpt>
      <trkpt lat="39.8183753527700901031494140625" lon="-0.45180880464613437652587890625">
        <ele>301.20001220703125</ele>
        <time>2021-09-27T09:26:14.000Z</time>
      </trkpt>
      <trkpt lat="39.81834509409964084625244140625" lon="-0.451699085533618927001953125">
        <ele>300.20001220703125</ele>
        <time>2021-09-27T09:26:15.000Z</time>
      </trkpt>
      <trkpt lat="39.81829547323286533355712890625" lon="-0.4514762945473194122314453125">
        <ele>298.600006103515625</ele>
        <time>2021-09-27T09:26:17.000Z</time>
      </trkpt>
      <trkpt lat="39.8182650469243526458740234375" lon="-0.4512489773333072662353515625">
        <ele>297</ele>
        <time>2021-09-27T09:26:19.000Z</time>
      </trkpt>
      <trkpt lat="39.81824333779513835906982421875" lon="-0.451021157205104827880859375">
        <ele>295</ele>
        <time>2021-09-27T09:26:21.000Z</time>
      </trkpt>
      <trkpt lat="39.81822707690298557281494140625" lon="-0.4507936723530292510986328125">
        <ele>293.20001220703125</ele>
        <time>2021-09-27T09:26:23.000Z</time>
      </trkpt>
      <trkpt lat="39.81820763088762760162353515625" lon="-0.45056610368192195892333984375">
        <ele>291.20001220703125</ele>
        <time>2021-09-27T09:26:25.000Z</time>
      </trkpt>
      <trkpt lat="39.81818717904388904571533203125" lon="-0.45034431852400302886962890625">
        <ele>290.399993896484375</ele>
        <time>2021-09-27T09:26:27.000Z</time>
      </trkpt>
      <trkpt lat="39.8181746900081634521484375" lon="-0.4502320848405361175537109375">
        <ele>290.399993896484375</ele>
        <time>2021-09-27T09:26:28.000Z</time>
      </trkpt>
      <trkpt lat="39.81816404499113559722900390625" lon="-0.4501201026141643524169921875">
        <ele>290</ele>
        <time>2021-09-27T09:26:29.000Z</time>
      </trkpt>
      <trkpt lat="39.81814493425190448760986328125" lon="-0.44989965856075286865234375">
        <ele>289.20001220703125</ele>
        <time>2021-09-27T09:26:31.000Z</time>
      </trkpt>
      <trkpt lat="39.818123392760753631591796875" lon="-0.44967812485992908477783203125">
        <ele>288.399993896484375</ele>
        <time>2021-09-27T09:26:33.000Z</time>
      </trkpt>
      <trkpt lat="39.81810201890766620635986328125" lon="-0.44946187175810337066650390625">
        <ele>288.79998779296875</ele>
        <time>2021-09-27T09:26:35.000Z</time>
      </trkpt>
      <trkpt lat="39.81808290816843509674072265625" lon="-0.44924846850335597991943359375">
        <ele>291</ele>
        <time>2021-09-27T09:26:37.000Z</time>
      </trkpt>
      <trkpt lat="39.8180625401437282562255859375" lon="-0.44903875328600406646728515625">
        <ele>293.399993896484375</ele>
        <time>2021-09-27T09:26:39.000Z</time>
      </trkpt>
      <trkpt lat="39.818038903176784515380859375" lon="-0.44883289374411106109619140625">
        <ele>295.79998779296875</ele>
        <time>2021-09-27T09:26:41.000Z</time>
      </trkpt>
      <trkpt lat="39.81801518239080905914306640625" lon="-0.44862854294478893280029296875">
        <ele>296.600006103515625</ele>
        <time>2021-09-27T09:26:43.000Z</time>
      </trkpt>
      <trkpt lat="39.81798366643488407135009765625" lon="-0.448430813848972320556640625">
        <ele>297.20001220703125</ele>
        <time>2021-09-27T09:26:45.000Z</time>
      </trkpt>
      <trkpt lat="39.8179438523948192596435546875" lon="-0.4482361860573291778564453125">
        <ele>298</ele>
        <time>2021-09-27T09:26:47.000Z</time>
      </trkpt>
      <trkpt lat="39.8179059661924839019775390625" lon="-0.44804315082728862762451171875">
        <ele>298.79998779296875</ele>
        <time>2021-09-27T09:26:49.000Z</time>
      </trkpt>
      <trkpt lat="39.8178581893444061279296875" lon="-0.4478593356907367706298828125">
        <ele>299.600006103515625</ele>
        <time>2021-09-27T09:26:51.000Z</time>
      </trkpt>
      <trkpt lat="39.81780144385993480682373046875" lon="-0.447683818638324737548828125">
        <ele>300.600006103515625</ele>
        <time>2021-09-27T09:26:53.000Z</time>
      </trkpt>
      <trkpt lat="39.81773992069065570831298828125" lon="-0.4475203715264797210693359375">
        <ele>301.79998779296875</ele>
        <time>2021-09-27T09:26:55.000Z</time>
      </trkpt>
      <trkpt lat="39.8176784813404083251953125" lon="-0.44736270792782306671142578125">
        <ele>303</ele>
        <time>2021-09-27T09:26:57.000Z</time>
      </trkpt>
      <trkpt lat="39.81761276721954345703125" lon="-0.447211079299449920654296875">
        <ele>305.79998779296875</ele>
        <time>2021-09-27T09:26:59.000Z</time>
      </trkpt>
      <trkpt lat="39.81754294596612453460693359375" lon="-0.4470630548894405364990234375">
        <ele>307.600006103515625</ele>
        <time>2021-09-27T09:27:01.000Z</time>
      </trkpt>
      <trkpt lat="39.8174717836081981658935546875" lon="-0.44691762886941432952880859375">
        <ele>308.79998779296875</ele>
        <time>2021-09-27T09:27:03.000Z</time>
      </trkpt>
      <trkpt lat="39.8173966817557811737060546875" lon="-0.44677044264972209930419921875">
        <ele>310.20001220703125</ele>
        <time>2021-09-27T09:27:05.000Z</time>
      </trkpt>
      <trkpt lat="39.81732401065528392791748046875" lon="-0.44662158004939556121826171875">
        <ele>311.600006103515625</ele>
        <time>2021-09-27T09:27:07.000Z</time>
      </trkpt>
      <trkpt lat="39.81725293211638927459716796875" lon="-0.44647372327744960784912109375">
        <ele>312.79998779296875</ele>
        <time>2021-09-27T09:27:09.000Z</time>
      </trkpt>
      <trkpt lat="39.817180596292018890380859375" lon="-0.4463291354477405548095703125">
        <ele>314.20001220703125</ele>
        <time>2021-09-27T09:27:11.000Z</time>
      </trkpt>
      <trkpt lat="39.81710650026798248291015625" lon="-0.4461836256086826324462890625">
        <ele>314</ele>
        <time>2021-09-27T09:27:13.000Z</time>
      </trkpt>
      <trkpt lat="39.8170365951955318450927734375" lon="-0.4460419714450836181640625">
        <ele>312.79998779296875</ele>
        <time>2021-09-27T09:27:15.000Z</time>
      </trkpt>
      <trkpt lat="39.81696568429470062255859375" lon="-0.4458996467292308807373046875">
        <ele>312</ele>
        <time>2021-09-27T09:27:17.000Z</time>
      </trkpt>
      <trkpt lat="39.81692872010171413421630859375" lon="-0.44582462869584560394287109375">
        <ele>311.399993896484375</ele>
        <time>2021-09-27T09:27:18.000Z</time>
      </trkpt>
      <trkpt lat="39.8168941028416156768798828125" lon="-0.4457514546811580657958984375">
        <ele>311</ele>
        <time>2021-09-27T09:27:19.000Z</time>
      </trkpt>
      <trkpt lat="39.8168297298252582550048828125" lon="-0.4456079564988613128662109375">
        <ele>309</ele>
        <time>2021-09-27T09:27:21.000Z</time>
      </trkpt>
      <trkpt lat="39.81676527298986911773681640625" lon="-0.445469655096530914306640625">
        <ele>306.600006103515625</ele>
        <time>2021-09-27T09:27:23.000Z</time>
      </trkpt>
      <trkpt lat="39.81673358939588069915771484375" lon="-0.4454017616808414459228515625">
        <ele>306.20001220703125</ele>
        <time>2021-09-27T09:27:24.000Z</time>
      </trkpt>
      <trkpt lat="39.8166999779641628265380859375" lon="-0.44533529318869113922119140625">
        <ele>305.79998779296875</ele>
        <time>2021-09-27T09:27:25.000Z</time>
      </trkpt>
      <trkpt lat="39.8166324198246002197265625" lon="-0.44520042836666107177734375">
        <ele>305.20001220703125</ele>
        <time>2021-09-27T09:27:27.000Z</time>
      </trkpt>
      <trkpt lat="39.81656176038086414337158203125" lon="-0.4450658150017261505126953125">
        <ele>305</ele>
        <time>2021-09-27T09:27:29.000Z</time>
      </trkpt>
      <trkpt lat="39.8164957948029041290283203125" lon="-0.44493019580841064453125">
        <ele>305</ele>
        <time>2021-09-27T09:27:31.000Z</time>
      </trkpt>
      <trkpt lat="39.81643217615783214569091796875" lon="-0.4447996057569980621337890625">
        <ele>305</ele>
        <time>2021-09-27T09:27:33.000Z</time>
      </trkpt>
      <trkpt lat="39.8163690604269504547119140625" lon="-0.44466977007687091827392578125">
        <ele>305.20001220703125</ele>
        <time>2021-09-27T09:27:35.000Z</time>
      </trkpt>
      <trkpt lat="39.81630720198154449462890625" lon="-0.44454555027186870574951171875">
        <ele>305.600006103515625</ele>
        <time>2021-09-27T09:27:37.000Z</time>
      </trkpt>
      <trkpt lat="39.81624676845967769622802734375" lon="-0.44441998936235904693603515625">
        <ele>306.79998779296875</ele>
        <time>2021-09-27T09:27:39.000Z</time>
      </trkpt>
      <trkpt lat="39.8161896876990795135498046875" lon="-0.44429719448089599609375">
        <ele>307.79998779296875</ele>
        <time>2021-09-27T09:27:41.000Z</time>
      </trkpt>
      <trkpt lat="39.8161326907575130462646484375" lon="-0.44417289085686206817626953125">
        <ele>309</ele>
        <time>2021-09-27T09:27:43.000Z</time>
      </trkpt>
      <trkpt lat="39.81607477180659770965576171875" lon="-0.444046072661876678466796875">
        <ele>310</ele>
        <time>2021-09-27T09:27:45.000Z</time>
      </trkpt>
      <trkpt lat="39.81601710431277751922607421875" lon="-0.443922691047191619873046875">
        <ele>312</ele>
        <time>2021-09-27T09:27:47.000Z</time>
      </trkpt>
      <trkpt lat="39.8159580118954181671142578125" lon="-0.44380174018442630767822265625">
        <ele>314.399993896484375</ele>
        <time>2021-09-27T09:27:49.000Z</time>
      </trkpt>
      <trkpt lat="39.81589456088840961456298828125" lon="-0.44368766248226165771484375">
        <ele>315</ele>
        <time>2021-09-27T09:27:51.000Z</time>
      </trkpt>
      <trkpt lat="39.8158277571201324462890625" lon="-0.4435688070952892303466796875">
        <ele>315.79998779296875</ele>
        <time>2021-09-27T09:27:53.000Z</time>
      </trkpt>
      <trkpt lat="39.8157669045031070709228515625" lon="-0.44344902969896793365478515625">
        <ele>316.20001220703125</ele>
        <time>2021-09-27T09:27:55.000Z</time>
      </trkpt>
      <trkpt lat="39.81570295058190822601318359375" lon="-0.4433186911046504974365234375">
        <ele>316.600006103515625</ele>
        <time>2021-09-27T09:27:57.000Z</time>
      </trkpt>
      <trkpt lat="39.81567017734050750732421875" lon="-0.44324853457510471343994140625">
        <ele>316.600006103515625</ele>
        <time>2021-09-27T09:27:58.000Z</time>
      </trkpt>
      <trkpt lat="39.81563941575586795806884765625" lon="-0.44317812658846378326416015625">
        <ele>316.79998779296875</ele>
        <time>2021-09-27T09:27:59.000Z</time>
      </trkpt>
      <trkpt lat="39.81557688675820827484130859375" lon="-0.44303731061518192291259765625">
        <ele>316.79998779296875</ele>
        <time>2021-09-27T09:28:01.000Z</time>
      </trkpt>
      <trkpt lat="39.81551167555153369903564453125" lon="-0.44289716519415378570556640625">
        <ele>317</ele>
        <time>2021-09-27T09:28:03.000Z</time>
      </trkpt>
      <trkpt lat="39.81544747017323970794677734375" lon="-0.44275953434407711029052734375">
        <ele>317.399993896484375</ele>
        <time>2021-09-27T09:28:05.000Z</time>
      </trkpt>
      <trkpt lat="39.81538427062332630157470703125" lon="-0.4426263459026813507080078125">
        <ele>317.600006103515625</ele>
        <time>2021-09-27T09:28:07.000Z</time>
      </trkpt>
      <trkpt lat="39.81532056815922260284423828125" lon="-0.442488379776477813720703125">
        <ele>316.79998779296875</ele>
        <time>2021-09-27T09:28:09.000Z</time>
      </trkpt>
      <trkpt lat="39.8152519203722476959228515625" lon="-0.4423497430980205535888671875">
        <ele>316.399993896484375</ele>
        <time>2021-09-27T09:28:11.000Z</time>
      </trkpt>
      <trkpt lat="39.8151868768036365509033203125" lon="-0.44220951385796070098876953125">
        <ele>315.79998779296875</ele>
        <time>2021-09-27T09:28:13.000Z</time>
      </trkpt>
      <trkpt lat="39.81511906720697879791259765625" lon="-0.44206920079886913299560546875">
        <ele>315</ele>
        <time>2021-09-27T09:28:15.000Z</time>
      </trkpt>
      <trkpt lat="39.8150527663528919219970703125" lon="-0.441932491958141326904296875">
        <ele>313.79998779296875</ele>
        <time>2021-09-27T09:28:17.000Z</time>
      </trkpt>
      <trkpt lat="39.81498353183269500732421875" lon="-0.44179075397551059722900390625">
        <ele>312.600006103515625</ele>
        <time>2021-09-27T09:28:19.000Z</time>
      </trkpt>
      <trkpt lat="39.8149146325886249542236328125" lon="-0.44164926744997501373291015625">
        <ele>312.20001220703125</ele>
        <time>2021-09-27T09:28:21.000Z</time>
      </trkpt>
      <trkpt lat="39.81484598480165004730224609375" lon="-0.44151046313345432281494140625">
        <ele>312.20001220703125</ele>
        <time>2021-09-27T09:28:23.000Z</time>
      </trkpt>
      <trkpt lat="39.81477725319564342498779296875" lon="-0.4413693957030773162841796875">
        <ele>312.399993896484375</ele>
        <time>2021-09-27T09:28:25.000Z</time>
      </trkpt>
      <trkpt lat="39.8147419653832912445068359375" lon="-0.44129974208772182464599609375">
        <ele>312.399993896484375</ele>
        <time>2021-09-27T09:28:26.000Z</time>
      </trkpt>
      <trkpt lat="39.8147065937519073486328125" lon="-0.4412305913865566253662109375">
        <ele>312.600006103515625</ele>
        <time>2021-09-27T09:28:27.000Z</time>
      </trkpt>
      <trkpt lat="39.81463752686977386474609375" lon="-0.4410914517939090728759765625">
        <ele>312.20001220703125</ele>
        <time>2021-09-27T09:28:29.000Z</time>
      </trkpt>
      <trkpt lat="39.8145671188831329345703125" lon="-0.4409546591341495513916015625">
        <ele>311.79998779296875</ele>
        <time>2021-09-27T09:28:31.000Z</time>
      </trkpt>
      <trkpt lat="39.81449536979198455810546875" lon="-0.44081560336053371429443359375">
        <ele>311</ele>
        <time>2021-09-27T09:28:33.000Z</time>
      </trkpt>
      <trkpt lat="39.81442697346210479736328125" lon="-0.4406736977398395538330078125">
        <ele>310.20001220703125</ele>
        <time>2021-09-27T09:28:35.000Z</time>
      </trkpt>
      <trkpt lat="39.81435949914157390594482421875" lon="-0.4405332170426845550537109375">
        <ele>311</ele>
        <time>2021-09-27T09:28:37.000Z</time>
      </trkpt>
      <trkpt lat="39.81428883969783782958984375" lon="-0.4403944127261638641357421875">
        <ele>311.79998779296875</ele>
        <time>2021-09-27T09:28:39.000Z</time>
      </trkpt>
      <trkpt lat="39.8142199404537677764892578125" lon="-0.44025301001965999603271484375">
        <ele>312.399993896484375</ele>
        <time>2021-09-27T09:28:41.000Z</time>
      </trkpt>
      <trkpt lat="39.81415045447647571563720703125" lon="-0.44011093676090240478515625">
        <ele>313</ele>
        <time>2021-09-27T09:28:43.000Z</time>
      </trkpt>
      <trkpt lat="39.81411717832088470458984375" lon="-0.4400396905839443206787109375">
        <ele>313</ele>
        <time>2021-09-27T09:28:44.000Z</time>
      </trkpt>
      <trkpt lat="39.81408365070819854736328125" lon="-0.43996936641633510589599609375">
        <ele>312.600006103515625</ele>
        <time>2021-09-27T09:28:45.000Z</time>
      </trkpt>
      <trkpt lat="39.8140214569866657257080078125" lon="-0.43982787989079952239990234375">
        <ele>312.20001220703125</ele>
        <time>2021-09-27T09:28:47.000Z</time>
      </trkpt>
      <trkpt lat="39.8139590956270694732666015625" lon="-0.439688153564929962158203125">
        <ele>311.600006103515625</ele>
        <time>2021-09-27T09:28:49.000Z</time>
      </trkpt>
      <trkpt lat="39.8138984106481075286865234375" lon="-0.4395475052297115325927734375">
        <ele>311.79998779296875</ele>
        <time>2021-09-27T09:28:51.000Z</time>
      </trkpt>
      <trkpt lat="39.8138357140123844146728515625" lon="-0.43940660543739795684814453125">
        <ele>311</ele>
        <time>2021-09-27T09:28:53.000Z</time>
      </trkpt>
      <trkpt lat="39.813805036246776580810546875" lon="-0.43933452107012271881103515625">
        <ele>310.20001220703125</ele>
        <time>2021-09-27T09:28:54.000Z</time>
      </trkpt>
      <trkpt lat="39.8137758672237396240234375" lon="-0.439263693988323211669921875">
        <ele>309.399993896484375</ele>
        <time>2021-09-27T09:28:55.000Z</time>
      </trkpt>
      <trkpt lat="39.8137190379202365875244140625" lon="-0.4391218721866607666015625">
        <ele>308</ele>
        <time>2021-09-27T09:28:57.000Z</time>
      </trkpt>
      <trkpt lat="39.81366799212992191314697265625" lon="-0.4389778710901737213134765625">
        <ele>306.399993896484375</ele>
        <time>2021-09-27T09:28:59.000Z</time>
      </trkpt>
      <trkpt lat="39.81361485086381435394287109375" lon="-0.43883881531655788421630859375">
        <ele>304.79998779296875</ele>
        <time>2021-09-27T09:29:01.000Z</time>
      </trkpt>
      <trkpt lat="39.81359054334461688995361328125" lon="-0.4387703351676464080810546875">
        <ele>304.399993896484375</ele>
        <time>2021-09-27T09:29:02.000Z</time>
      </trkpt>
      <trkpt lat="39.8135674931108951568603515625" lon="-0.438701771199703216552734375">
        <ele>304.20001220703125</ele>
        <time>2021-09-27T09:29:03.000Z</time>
      </trkpt>
      <trkpt lat="39.8135265894234180450439453125" lon="-0.43857160024344921112060546875">
        <ele>303.600006103515625</ele>
        <time>2021-09-27T09:29:05.000Z</time>
      </trkpt>
      <trkpt lat="39.813484512269496917724609375" lon="-0.43844955973327159881591796875">
        <ele>303.20001220703125</ele>
        <time>2021-09-27T09:29:07.000Z</time>
      </trkpt>
      <trkpt lat="39.81346682645380496978759765625" lon="-0.43838803656399250030517578125">
        <ele>303</ele>
        <time>2021-09-27T09:29:08.000Z</time>
      </trkpt>
      <trkpt lat="39.81345056556165218353271484375" lon="-0.43832835741341114044189453125">
        <ele>302.600006103515625</ele>
        <time>2021-09-27T09:29:09.000Z</time>
      </trkpt>
      <trkpt lat="39.813410080969333648681640625" lon="-0.43821453116834163665771484375">
        <ele>302.20001220703125</ele>
        <time>2021-09-27T09:29:11.000Z</time>
      </trkpt>
      <trkpt lat="39.813369847834110260009765625" lon="-0.43809534050524234771728515625">
        <ele>301.79998779296875</ele>
        <time>2021-09-27T09:29:13.000Z</time>
      </trkpt>
      <trkpt lat="39.81334981508553028106689453125" lon="-0.4380360804498195648193359375">
        <ele>301.399993896484375</ele>
        <time>2021-09-27T09:29:14.000Z</time>
      </trkpt>
      <trkpt lat="39.813333638012409210205078125" lon="-0.437976904213428497314453125">
        <ele>301.399993896484375</ele>
        <time>2021-09-27T09:29:15.000Z</time>
      </trkpt>
      <trkpt lat="39.81331779621541500091552734375" lon="-0.43791781179606914520263671875">
        <ele>301.399993896484375</ele>
        <time>2021-09-27T09:29:16.000Z</time>
      </trkpt>
      <trkpt lat="39.813301451504230499267578125" lon="-0.43786190450191497802734375">
        <ele>301.600006103515625</ele>
        <time>2021-09-27T09:29:17.000Z</time>
      </trkpt>
      <trkpt lat="39.8132694326341152191162109375" lon="-0.4377574659883975982666015625">
        <ele>301.600006103515625</ele>
        <time>2021-09-27T09:29:19.000Z</time>
      </trkpt>
      <trkpt lat="39.8132395930588245391845703125" lon="-0.437659062445163726806640625">
        <ele>301.79998779296875</ele>
        <time>2021-09-27T09:29:21.000Z</time>
      </trkpt>
      <trkpt lat="39.813210926949977874755859375" lon="-0.437557809054851531982421875">
        <ele>303.20001220703125</ele>
        <time>2021-09-27T09:29:23.000Z</time>
      </trkpt>
      <trkpt lat="39.81318837963044643402099609375" lon="-0.4374510236084461212158203125">
        <ele>304.79998779296875</ele>
        <time>2021-09-27T09:29:25.000Z</time>
      </trkpt>
      <trkpt lat="39.8131638206541538238525390625" lon="-0.4373457469046115875244140625">
        <ele>306.20001220703125</ele>
        <time>2021-09-27T09:29:27.000Z</time>
      </trkpt>
      <trkpt lat="39.8131348192691802978515625" lon="-0.43723158538341522216796875">
        <ele>308</ele>
        <time>2021-09-27T09:29:29.000Z</time>
      </trkpt>
      <trkpt lat="39.81312132440507411956787109375" lon="-0.4371717385947704315185546875">
        <ele>308.79998779296875</ele>
        <time>2021-09-27T09:29:30.000Z</time>
      </trkpt>
      <trkpt lat="39.81310942210257053375244140625" lon="-0.43711180798709392547607421875">
        <ele>309.20001220703125</ele>
        <time>2021-09-27T09:29:31.000Z</time>
      </trkpt>
      <trkpt lat="39.81308544985949993133544921875" lon="-0.43698876164853572845458984375">
        <ele>309.20001220703125</ele>
        <time>2021-09-27T09:29:33.000Z</time>
      </trkpt>
      <trkpt lat="39.813065417110919952392578125" lon="-0.43686278164386749267578125">
        <ele>309.20001220703125</ele>
        <time>2021-09-27T09:29:35.000Z</time>
      </trkpt>
      <trkpt lat="39.81304186396300792694091796875" lon="-0.4367388971149921417236328125">
        <ele>309.399993896484375</ele>
        <time>2021-09-27T09:29:37.000Z</time>
      </trkpt>
      <trkpt lat="39.8130166344344615936279296875" lon="-0.43661467730998992919921875">
        <ele>309.399993896484375</ele>
        <time>2021-09-27T09:29:39.000Z</time>
      </trkpt>
      <trkpt lat="39.812985956668853759765625" lon="-0.43648199178278446197509765625">
        <ele>309.600006103515625</ele>
        <time>2021-09-27T09:29:41.000Z</time>
      </trkpt>
      <trkpt lat="39.81296139769256114959716796875" lon="-0.4363446123898029327392578125">
        <ele>309.79998779296875</ele>
        <time>2021-09-27T09:29:43.000Z</time>
      </trkpt>
      <trkpt lat="39.8129354976117610931396484375" lon="-0.436207316815853118896484375">
        <ele>309.600006103515625</ele>
        <time>2021-09-27T09:29:45.000Z</time>
      </trkpt>
      <trkpt lat="39.81291060335934162139892578125" lon="-0.43606926687061786651611328125">
        <ele>309.20001220703125</ele>
        <time>2021-09-27T09:29:47.000Z</time>
      </trkpt>
      <trkpt lat="39.81288830749690532684326171875" lon="-0.4359261877834796905517578125">
        <ele>308.600006103515625</ele>
        <time>2021-09-27T09:29:49.000Z</time>
      </trkpt>
      <trkpt lat="39.81287120841443538665771484375" lon="-0.435784198343753814697265625">
        <ele>308.20001220703125</ele>
        <time>2021-09-27T09:29:51.000Z</time>
      </trkpt>
      <trkpt lat="39.8128583841025829315185546875" lon="-0.43564128689467906951904296875">
        <ele>307.600006103515625</ele>
        <time>2021-09-27T09:29:53.000Z</time>
      </trkpt>
      <trkpt lat="39.81284421868622303009033203125" lon="-0.43549611233174800872802734375">
        <ele>306.79998779296875</ele>
        <time>2021-09-27T09:29:55.000Z</time>
      </trkpt>
      <trkpt lat="39.81282996945083141326904296875" lon="-0.43534490279853343963623046875">
        <ele>306.399993896484375</ele>
        <time>2021-09-27T09:29:57.000Z</time>
      </trkpt>
      <trkpt lat="39.8128188215196132659912109375" lon="-0.43519168160855770111083984375">
        <ele>306.20001220703125</ele>
        <time>2021-09-27T09:29:59.000Z</time>
      </trkpt>
      <trkpt lat="39.81280650012195110321044921875" lon="-0.4350368678569793701171875">
        <ele>305.79998779296875</ele>
        <time>2021-09-27T09:30:01.000Z</time>
      </trkpt>
      <trkpt lat="39.8127913288772106170654296875" lon="-0.4348885081708431243896484375">
        <ele>305.600006103515625</ele>
        <time>2021-09-27T09:30:03.000Z</time>
      </trkpt>
      <trkpt lat="39.81278286315500736236572265625" lon="-0.4348164238035678863525390625">
        <ele>305.399993896484375</ele>
        <time>2021-09-27T09:30:04.000Z</time>
      </trkpt>
      <trkpt lat="39.8127775825560092926025390625" lon="-0.43474475853145122528076171875">
        <ele>305.20001220703125</ele>
        <time>2021-09-27T09:30:05.000Z</time>
      </trkpt>
      <trkpt lat="39.8127655126154422760009765625" lon="-0.43459086678922176361083984375">
        <ele>304.600006103515625</ele>
        <time>2021-09-27T09:30:07.000Z</time>
      </trkpt>
      <trkpt lat="39.8127423785626888275146484375" lon="-0.43441132642328739166259765625">
        <ele>303.600006103515625</ele>
        <time>2021-09-27T09:30:09.000Z</time>
      </trkpt>
      <trkpt lat="39.81268513016402721405029296875" lon="-0.43424435891211032867431640625">
        <ele>303.399993896484375</ele>
        <time>2021-09-27T09:30:11.000Z</time>
      </trkpt>
      <trkpt lat="39.8126454837620258331298828125" lon="-0.43417126871645450592041015625">
        <ele>303.600006103515625</ele>
        <time>2021-09-27T09:30:12.000Z</time>
      </trkpt>
      <trkpt lat="39.812605082988739013671875" lon="-0.43410438112914562225341796875">
        <ele>303.79998779296875</ele>
        <time>2021-09-27T09:30:13.000Z</time>
      </trkpt>
      <trkpt lat="39.8125241138041019439697265625" lon="-0.43398183770477771759033203125">
        <ele>304</ele>
        <time>2021-09-27T09:30:15.000Z</time>
      </trkpt>
      <trkpt lat="39.81243451125919818878173828125" lon="-0.433868430554866790771484375">
        <ele>304.399993896484375</ele>
        <time>2021-09-27T09:30:17.000Z</time>
      </trkpt>
      <trkpt lat="39.81234834529459476470947265625" lon="-0.43377153575420379638671875">
        <ele>305.20001220703125</ele>
        <time>2021-09-27T09:30:19.000Z</time>
      </trkpt>
      <trkpt lat="39.8122686333954334259033203125" lon="-0.43368394486606121063232421875">
        <ele>306.20001220703125</ele>
        <time>2021-09-27T09:30:21.000Z</time>
      </trkpt>
      <trkpt lat="39.81219311244785785675048828125" lon="-0.43360121548175811767578125">
        <ele>306.79998779296875</ele>
        <time>2021-09-27T09:30:23.000Z</time>
      </trkpt>
      <trkpt lat="39.8121263086795806884765625" lon="-0.43351965956389904022216796875">
        <ele>306.79998779296875</ele>
        <time>2021-09-27T09:30:25.000Z</time>
      </trkpt>
      <trkpt lat="39.81205749325454235076904296875" lon="-0.433431901037693023681640625">
        <ele>306.600006103515625</ele>
        <time>2021-09-27T09:30:27.000Z</time>
      </trkpt>
      <trkpt lat="39.811984486877918243408203125" lon="-0.4333390295505523681640625">
        <ele>307</ele>
        <time>2021-09-27T09:30:29.000Z</time>
      </trkpt>
      <trkpt lat="39.81190946884453296661376953125" lon="-0.43324640952050685882568359375">
        <ele>307.20001220703125</ele>
        <time>2021-09-27T09:30:31.000Z</time>
      </trkpt>
      <trkpt lat="39.81183151714503765106201171875" lon="-0.4331552982330322265625">
        <ele>307.79998779296875</ele>
        <time>2021-09-27T09:30:33.000Z</time>
      </trkpt>
      <trkpt lat="39.81175071559846401214599609375" lon="-0.43306536041200160980224609375">
        <ele>308.600006103515625</ele>
        <time>2021-09-27T09:30:35.000Z</time>
      </trkpt>
      <trkpt lat="39.81166538782417774200439453125" lon="-0.4329801164567470550537109375">
        <ele>309.399993896484375</ele>
        <time>2021-09-27T09:30:37.000Z</time>
      </trkpt>
      <trkpt lat="39.81161928735673427581787109375" lon="-0.4329375363886356353759765625">
        <ele>310.20001220703125</ele>
        <time>2021-09-27T09:30:38.000Z</time>
      </trkpt>
      <trkpt lat="39.81157419271767139434814453125" lon="-0.43289571069180965423583984375">
        <ele>310.79998779296875</ele>
        <time>2021-09-27T09:30:39.000Z</time>
      </trkpt>
      <trkpt lat="39.81148702092468738555908203125" lon="-0.4328205250203609466552734375">
        <ele>312</ele>
        <time>2021-09-27T09:30:41.000Z</time>
      </trkpt>
      <trkpt lat="39.81140286661684513092041015625" lon="-0.43274600990116596221923828125">
        <ele>313</ele>
        <time>2021-09-27T09:30:43.000Z</time>
      </trkpt>
      <trkpt lat="39.8113216459751129150390625" lon="-0.432672835886478424072265625">
        <ele>313.20001220703125</ele>
        <time>2021-09-27T09:30:45.000Z</time>
      </trkpt>
      <trkpt lat="39.811239503324031829833984375" lon="-0.43260469101369380950927734375">
        <ele>313.600006103515625</ele>
        <time>2021-09-27T09:30:47.000Z</time>
      </trkpt>
      <trkpt lat="39.81115208007395267486572265625" lon="-0.43253839015960693359375">
        <ele>313.600006103515625</ele>
        <time>2021-09-27T09:30:49.000Z</time>
      </trkpt>
      <trkpt lat="39.8110636509954929351806640625" lon="-0.43247795663774013519287109375">
        <ele>313.79998779296875</ele>
        <time>2021-09-27T09:30:51.000Z</time>
      </trkpt>
      <trkpt lat="39.8109734617173671722412109375" lon="-0.43242062442004680633544921875">
        <ele>314</ele>
        <time>2021-09-27T09:30:53.000Z</time>
      </trkpt>
      <trkpt lat="39.81088268570601940155029296875" lon="-0.4323655553162097930908203125">
        <ele>313.79998779296875</ele>
        <time>2021-09-27T09:30:55.000Z</time>
      </trkpt>
      <trkpt lat="39.81079853139817714691162109375" lon="-0.43230763636529445648193359375">
        <ele>313.399993896484375</ele>
        <time>2021-09-27T09:30:57.000Z</time>
      </trkpt>
      <trkpt lat="39.81070943176746368408203125" lon="-0.432249717414379119873046875">
        <ele>313</ele>
        <time>2021-09-27T09:30:59.000Z</time>
      </trkpt>
      <trkpt lat="39.810620248317718505859375" lon="-0.4321902059018611907958984375">
        <ele>312.600006103515625</ele>
        <time>2021-09-27T09:31:01.000Z</time>
      </trkpt>
      <trkpt lat="39.81052704155445098876953125" lon="-0.43213136494159698486328125">
        <ele>312.20001220703125</ele>
        <time>2021-09-27T09:31:03.000Z</time>
      </trkpt>
      <trkpt lat="39.8104313202202320098876953125" lon="-0.43207914568483829498291015625">
        <ele>311.79998779296875</ele>
        <time>2021-09-27T09:31:05.000Z</time>
      </trkpt>
      <trkpt lat="39.810333251953125" lon="-0.43203270994126796722412109375">
        <ele>311.600006103515625</ele>
        <time>2021-09-27T09:31:07.000Z</time>
      </trkpt>
      <trkpt lat="39.8102345131337642669677734375" lon="-0.43199197389185428619384765625">
        <ele>311.20001220703125</ele>
        <time>2021-09-27T09:31:09.000Z</time>
      </trkpt>
      <trkpt lat="39.81013971380889415740966796875" lon="-0.43195593170821666717529296875">
        <ele>311</ele>
        <time>2021-09-27T09:31:11.000Z</time>
      </trkpt>
      <trkpt lat="39.8100475966930389404296875" lon="-0.43192441575229167938232421875">
        <ele>310.79998779296875</ele>
        <time>2021-09-27T09:31:13.000Z</time>
      </trkpt>
      <trkpt lat="39.8099495284259319305419921875" lon="-0.43189642019569873809814453125">
        <ele>310.600006103515625</ele>
        <time>2021-09-27T09:31:15.000Z</time>
      </trkpt>
      <trkpt lat="39.80984215624630451202392578125" lon="-0.43186993338167667388916015625">
        <ele>310.600006103515625</ele>
        <time>2021-09-27T09:31:17.000Z</time>
      </trkpt>
      <trkpt lat="39.809732101857662200927734375" lon="-0.4318445362150669097900390625">
        <ele>311</ele>
        <time>2021-09-27T09:31:19.000Z</time>
      </trkpt>
      <trkpt lat="39.8096243105828762054443359375" lon="-0.43181578628718852996826171875">
        <ele>311.600006103515625</ele>
        <time>2021-09-27T09:31:21.000Z</time>
      </trkpt>
      <trkpt lat="39.80952213518321514129638671875" lon="-0.43178209103643894195556640625">
        <ele>312</ele>
        <time>2021-09-27T09:31:23.000Z</time>
      </trkpt>
      <trkpt lat="39.8094254918396472930908203125" lon="-0.43173867277801036834716796875">
        <ele>311.79998779296875</ele>
        <time>2021-09-27T09:31:25.000Z</time>
      </trkpt>
      <trkpt lat="39.8093332909047603607177734375" lon="-0.43169676326215267181396484375">
        <ele>311.600006103515625</ele>
        <time>2021-09-27T09:31:27.000Z</time>
      </trkpt>
      <trkpt lat="39.80923958122730255126953125" lon="-0.43166206218302249908447265625">
        <ele>311.600006103515625</ele>
        <time>2021-09-27T09:31:29.000Z</time>
      </trkpt>
      <trkpt lat="39.80914981104433536529541015625" lon="-0.43164722621440887451171875">
        <ele>312</ele>
        <time>2021-09-27T09:31:31.000Z</time>
      </trkpt>
      <trkpt lat="39.80907152406871318817138671875" lon="-0.43165183626115322113037109375">
        <ele>312.399993896484375</ele>
        <time>2021-09-27T09:31:33.000Z</time>
      </trkpt>
      <trkpt lat="39.808996506035327911376953125" lon="-0.431647561490535736083984375">
        <ele>312.79998779296875</ele>
        <time>2021-09-27T09:31:35.000Z</time>
      </trkpt>
      <trkpt lat="39.80896155349910259246826171875" lon="-0.4316406883299350738525390625">
        <ele>313</ele>
        <time>2021-09-27T09:31:36.000Z</time>
      </trkpt>
      <trkpt lat="39.80892567895352840423583984375" lon="-0.43163406662642955780029296875">
        <ele>313.20001220703125</ele>
        <time>2021-09-27T09:31:37.000Z</time>
      </trkpt>
      <trkpt lat="39.80885460041463375091552734375" lon="-0.43162333779036998748779296875">
        <ele>313.600006103515625</ele>
        <time>2021-09-27T09:31:39.000Z</time>
      </trkpt>
      <trkpt lat="39.8087747208774089813232421875" lon="-0.43160724453628063201904296875">
        <ele>314</ele>
        <time>2021-09-27T09:31:41.000Z</time>
      </trkpt>
      <trkpt lat="39.808733649551868438720703125" lon="-0.43159819208085536956787109375">
        <ele>314.20001220703125</ele>
        <time>2021-09-27T09:31:42.000Z</time>
      </trkpt>
      <trkpt lat="39.80869249440729618072509765625" lon="-0.4315887205302715301513671875">
        <ele>314.399993896484375</ele>
        <time>2021-09-27T09:31:43.000Z</time>
      </trkpt>
      <trkpt lat="39.8086157999932765960693359375" lon="-0.43156684376299381256103515625">
        <ele>314.600006103515625</ele>
        <time>2021-09-27T09:31:45.000Z</time>
      </trkpt>
      <trkpt lat="39.808541871607303619384765625" lon="-0.4315458051860332489013671875">
        <ele>315</ele>
        <time>2021-09-27T09:31:47.000Z</time>
      </trkpt>
      <trkpt lat="39.8084679432213306427001953125" lon="-0.4315266944468021392822265625">
        <ele>315.20001220703125</ele>
        <time>2021-09-27T09:31:49.000Z</time>
      </trkpt>
      <trkpt lat="39.80843466706573963165283203125" lon="-0.4315149597823619842529296875">
        <ele>315.600006103515625</ele>
        <time>2021-09-27T09:31:50.000Z</time>
      </trkpt>
      <trkpt lat="39.8084035702049732208251953125" lon="-0.43150180019438266754150390625">
        <ele>315.600006103515625</ele>
        <time>2021-09-27T09:31:51.000Z</time>
      </trkpt>
      <trkpt lat="39.80833995155990123748779296875" lon="-0.4314777441322803497314453125">
        <ele>316</ele>
        <time>2021-09-27T09:31:53.000Z</time>
      </trkpt>
      <trkpt lat="39.80827708728611469268798828125" lon="-0.431455112993717193603515625">
        <ele>316.399993896484375</ele>
        <time>2021-09-27T09:31:55.000Z</time>
      </trkpt>
      <trkpt lat="39.80824708007276058197021484375" lon="-0.4314386844635009765625">
        <ele>316.600006103515625</ele>
        <time>2021-09-27T09:31:56.000Z</time>
      </trkpt>
      <trkpt lat="39.80821522884070873260498046875" lon="-0.43142049573361873626708984375">
        <ele>316.79998779296875</ele>
        <time>2021-09-27T09:31:57.000Z</time>
      </trkpt>
      <trkpt lat="39.8081501014530658721923828125" lon="-0.43138126842677593231201171875">
        <ele>317.20001220703125</ele>
        <time>2021-09-27T09:31:59.000Z</time>
      </trkpt>
      <trkpt lat="39.808114059269428253173828125" lon="-0.4313587211072444915771484375">
        <ele>317.399993896484375</ele>
        <time>2021-09-27T09:32:00.000Z</time>
      </trkpt>
      <trkpt lat="39.80807893909513950347900390625" lon="-0.4313332401216030120849609375">
        <ele>317.600006103515625</ele>
        <time>2021-09-27T09:32:01.000Z</time>
      </trkpt>
      <trkpt lat="39.80804859660565853118896484375" lon="-0.431316979229450225830078125">
        <ele>317.79998779296875</ele>
        <time>2021-09-27T09:32:02.000Z</time>
      </trkpt>
      <trkpt lat="39.80802965350449085235595703125" lon="-0.4313085973262786865234375">
        <ele>317.600006103515625</ele>
        <time>2021-09-27T09:32:03.000Z</time>
      </trkpt>
      <trkpt lat="39.80801942758262157440185546875" lon="-0.4313013888895511627197265625">
        <ele>317.600006103515625</ele>
        <time>2021-09-27T09:32:05.000Z</time>
      </trkpt>
      <trkpt lat="39.80798070318996906280517578125" lon="-0.431268028914928436279296875">
        <ele>317</ele>
        <time>2021-09-27T09:35:29.000Z</time>
      </trkpt>
      <trkpt lat="39.80793979950249195098876953125" lon="-0.43124045245349407196044921875">
        <ele>316.600006103515625</ele>
        <time>2021-09-27T09:35:31.000Z</time>
      </trkpt>
      <trkpt lat="39.80792923830449581146240234375" lon="-0.43123592622578144073486328125">
        <ele>316.600006103515625</ele>
        <time>2021-09-27T09:35:33.000Z</time>
      </trkpt>
      <trkpt lat="39.80790375731885433197021484375" lon="-0.43121564202010631561279296875">
        <ele>316.600006103515625</ele>
        <time>2021-09-27T09:36:41.000Z</time>
      </trkpt>
      <trkpt lat="39.80787475593388080596923828125" lon="-0.43119267560541629791259765625">
        <ele>316.20001220703125</ele>
        <time>2021-09-27T09:36:42.000Z</time>
      </trkpt>
      <trkpt lat="39.80783469043672084808349609375" lon="-0.43116333894431591033935546875">
        <ele>315</ele>
        <time>2021-09-27T09:36:43.000Z</time>
      </trkpt>
      <trkpt lat="39.80778356082737445831298828125" lon="-0.43113148771226406097412109375">
        <ele>313.600006103515625</ele>
        <time>2021-09-27T09:36:44.000Z</time>
      </trkpt>
      <trkpt lat="39.80772706679999828338623046875" lon="-0.43109335005283355712890625">
        <ele>312.20001220703125</ele>
        <time>2021-09-27T09:36:45.000Z</time>
      </trkpt>
      <trkpt lat="39.80766780674457550048828125" lon="-0.43104766868054866790771484375">
        <ele>310.399993896484375</ele>
        <time>2021-09-27T09:36:46.000Z</time>
      </trkpt>
      <trkpt lat="39.80760921724140644073486328125" lon="-0.43099285103380680084228515625">
        <ele>308.600006103515625</ele>
        <time>2021-09-27T09:36:47.000Z</time>
      </trkpt>
      <trkpt lat="39.807489104568958282470703125" lon="-0.43087047524750232696533203125">
        <ele>304.600006103515625</ele>
        <time>2021-09-27T09:36:49.000Z</time>
      </trkpt>
      <trkpt lat="39.8074232228100299835205078125" lon="-0.43080543167889118194580078125">
        <ele>303.79998779296875</ele>
        <time>2021-09-27T09:36:50.000Z</time>
      </trkpt>
      <trkpt lat="39.807356335222721099853515625" lon="-0.43073418550193309783935546875">
        <ele>302.600006103515625</ele>
        <time>2021-09-27T09:36:51.000Z</time>
      </trkpt>
      <trkpt lat="39.80721426196396350860595703125" lon="-0.43057593517005443572998046875">
        <ele>300.399993896484375</ele>
        <time>2021-09-27T09:36:53.000Z</time>
      </trkpt>
      <trkpt lat="39.8071382381021976470947265625" lon="-0.43048985302448272705078125">
        <ele>299.20001220703125</ele>
        <time>2021-09-27T09:36:54.000Z</time>
      </trkpt>
      <trkpt lat="39.80706028640270233154296875" lon="-0.4303934611380100250244140625">
        <ele>297.79998779296875</ele>
        <time>2021-09-27T09:36:55.000Z</time>
      </trkpt>
      <trkpt lat="39.8068981803953647613525390625" lon="-0.43018215335905551910400390625">
        <ele>294.20001220703125</ele>
        <time>2021-09-27T09:36:57.000Z</time>
      </trkpt>
      <trkpt lat="39.80681327171623706817626953125" lon="-0.4300665669143199920654296875">
        <ele>292.20001220703125</ele>
        <time>2021-09-27T09:36:58.000Z</time>
      </trkpt>
      <trkpt lat="39.80672827921807765960693359375" lon="-0.4299512319266796112060546875">
        <ele>290.600006103515625</ele>
        <time>2021-09-27T09:36:59.000Z</time>
      </trkpt>
      <trkpt lat="39.80657053180038928985595703125" lon="-0.4297121800482273101806640625">
        <ele>289</ele>
        <time>2021-09-27T09:37:01.000Z</time>
      </trkpt>
      <trkpt lat="39.80642996728420257568359375" lon="-0.4294359125196933746337890625">
        <ele>287.600006103515625</ele>
        <time>2021-09-27T09:37:03.000Z</time>
      </trkpt>
      <trkpt lat="39.8063020594418048858642578125" lon="-0.4291628301143646240234375">
        <ele>286</ele>
        <time>2021-09-27T09:37:05.000Z</time>
      </trkpt>
      <trkpt lat="39.80624749325215816497802734375" lon="-0.429048836231231689453125">
        <ele>285.399993896484375</ele>
        <time>2021-09-27T09:37:06.000Z</time>
      </trkpt>
      <trkpt lat="39.80619938112795352935791015625" lon="-0.42895269580185413360595703125">
        <ele>284.79998779296875</ele>
        <time>2021-09-27T09:37:07.000Z</time>
      </trkpt>
      <trkpt lat="39.8061250336468219757080078125" lon="-0.428795702755451202392578125">
        <ele>283.399993896484375</ele>
        <time>2021-09-27T09:37:09.000Z</time>
      </trkpt>
      <trkpt lat="39.8060683719813823699951171875" lon="-0.4286693036556243896484375">
        <ele>282.20001220703125</ele>
        <time>2021-09-27T09:37:11.000Z</time>
      </trkpt>
      <trkpt lat="39.8060428909957408905029296875" lon="-0.4286195151507854461669921875">
        <ele>281.600006103515625</ele>
        <time>2021-09-27T09:37:12.000Z</time>
      </trkpt>
      <trkpt lat="39.8060120455920696258544921875" lon="-0.428569726645946502685546875">
        <ele>281.20001220703125</ele>
        <time>2021-09-27T09:37:13.000Z</time>
      </trkpt>
      <trkpt lat="39.8059438169002532958984375" lon="-0.4284693114459514617919921875">
        <ele>280</ele>
        <time>2021-09-27T09:37:15.000Z</time>
      </trkpt>
      <trkpt lat="39.80587399564683437347412109375" lon="-0.428335033357143402099609375">
        <ele>278.600006103515625</ele>
        <time>2021-09-27T09:37:17.000Z</time>
      </trkpt>
      <trkpt lat="39.80584767647087574005126953125" lon="-0.42827208526432514190673828125">
        <ele>278</ele>
        <time>2021-09-27T09:37:18.000Z</time>
      </trkpt>
      <trkpt lat="39.8058242909610271453857421875" lon="-0.4282289184629917144775390625">
        <ele>277.399993896484375</ele>
        <time>2021-09-27T09:37:19.000Z</time>
      </trkpt>
      <trkpt lat="39.80579637922346591949462890625" lon="-0.4282004199922084808349609375">
        <ele>277</ele>
        <time>2021-09-27T09:37:20.000Z</time>
      </trkpt>
      <trkpt lat="39.80576653964817523956298828125" lon="-0.42819161899387836456298828125">
        <ele>276.79998779296875</ele>
        <time>2021-09-27T09:37:21.000Z</time>
      </trkpt>
      <trkpt lat="39.80570686049759387969970703125" lon="-0.4282248951494693756103515625">
        <ele>276.79998779296875</ele>
        <time>2021-09-27T09:37:23.000Z</time>
      </trkpt>
      <trkpt lat="39.80568121187388896942138671875" lon="-0.42824509553611278533935546875">
        <ele>276.79998779296875</ele>
        <time>2021-09-27T09:37:24.000Z</time>
      </trkpt>
      <trkpt lat="39.805655144155025482177734375" lon="-0.428256578743457794189453125">
        <ele>276.79998779296875</ele>
        <time>2021-09-27T09:37:25.000Z</time>
      </trkpt>
      <trkpt lat="39.80557970702648162841796875" lon="-0.42821936309337615966796875">
        <ele>276.20001220703125</ele>
        <time>2021-09-27T09:37:27.000Z</time>
      </trkpt>
      <trkpt lat="39.80547778308391571044921875" lon="-0.42816161178052425384521484375">
        <ele>275.20001220703125</ele>
        <time>2021-09-27T09:37:29.000Z</time>
      </trkpt>
      <trkpt lat="39.80535230599343776702880859375" lon="-0.4281194508075714111328125">
        <ele>273.600006103515625</ele>
        <time>2021-09-27T09:37:31.000Z</time>
      </trkpt>
      <trkpt lat="39.80528608895838260650634765625" lon="-0.4280944727361202239990234375">
        <ele>272.20001220703125</ele>
        <time>2021-09-27T09:37:32.000Z</time>
      </trkpt>
      <trkpt lat="39.8052201233804225921630859375" lon="-0.42807142250239849090576171875">
        <ele>271.399993896484375</ele>
        <time>2021-09-27T09:37:33.000Z</time>
      </trkpt>
      <trkpt lat="39.80515399016439914703369140625" lon="-0.428052060306072235107421875">
        <ele>270.600006103515625</ele>
        <time>2021-09-27T09:37:34.000Z</time>
      </trkpt>
      <trkpt lat="39.80508794076740741729736328125" lon="-0.4280324466526508331298828125">
        <ele>270</ele>
        <time>2021-09-27T09:37:35.000Z</time>
      </trkpt>
      <trkpt lat="39.80496606789529323577880859375" lon="-0.4279962368309497833251953125">
        <ele>268.600006103515625</ele>
        <time>2021-09-27T09:37:37.000Z</time>
      </trkpt>
      <trkpt lat="39.80490990914404392242431640625" lon="-0.42798089794814586639404296875">
        <ele>267.79998779296875</ele>
        <time>2021-09-27T09:37:38.000Z</time>
      </trkpt>
      <trkpt lat="39.8048553429543972015380859375" lon="-0.427964217960834503173828125">
        <ele>267.399993896484375</ele>
        <time>2021-09-27T09:37:39.000Z</time>
      </trkpt>
      <trkpt lat="39.80480446480214595794677734375" lon="-0.4279410839080810546875">
        <ele>266.79998779296875</ele>
        <time>2021-09-27T09:37:40.000Z</time>
      </trkpt>
      <trkpt lat="39.80475492775440216064453125" lon="-0.4279067181050777435302734375">
        <ele>266.399993896484375</ele>
        <time>2021-09-27T09:37:41.000Z</time>
      </trkpt>
      <trkpt lat="39.8047054745256900787353515625" lon="-0.4278684966266155242919921875">
        <ele>265.79998779296875</ele>
        <time>2021-09-27T09:37:42.000Z</time>
      </trkpt>
      <trkpt lat="39.804654680192470550537109375" lon="-0.42783337645232677459716796875">
        <ele>265.600006103515625</ele>
        <time>2021-09-27T09:37:43.000Z</time>
      </trkpt>
      <trkpt lat="39.8045571148395538330078125" lon="-0.4277868568897247314453125">
        <ele>265.79998779296875</ele>
        <time>2021-09-27T09:37:45.000Z</time>
      </trkpt>
      <trkpt lat="39.8045100085437297821044921875" lon="-0.4277709312736988067626953125">
        <ele>265.600006103515625</ele>
        <time>2021-09-27T09:37:46.000Z</time>
      </trkpt>
      <trkpt lat="39.80446784757077693939208984375" lon="-0.4277548380196094512939453125">
        <ele>265.399993896484375</ele>
        <time>2021-09-27T09:37:47.000Z</time>
      </trkpt>
      <trkpt lat="39.80437212623655796051025390625" lon="-0.42771779000759124755859375">
        <ele>265.20001220703125</ele>
        <time>2021-09-27T09:37:49.000Z</time>
      </trkpt>
      <trkpt lat="39.804275818169116973876953125" lon="-0.4276770539581775665283203125">
        <ele>265</ele>
        <time>2021-09-27T09:37:51.000Z</time>
      </trkpt>
      <trkpt lat="39.80417531915009021759033203125" lon="-0.42763371951878070831298828125">
        <ele>264.79998779296875</ele>
        <time>2021-09-27T09:37:53.000Z</time>
      </trkpt>
      <trkpt lat="39.8040741495788097381591796875" lon="-0.42759415693581104278564453125">
        <ele>264.600006103515625</ele>
        <time>2021-09-27T09:37:55.000Z</time>
      </trkpt>
      <trkpt lat="39.8039735667407512664794921875" lon="-0.4275496490299701690673828125">
        <ele>264.79998779296875</ele>
        <time>2021-09-27T09:37:57.000Z</time>
      </trkpt>
      <trkpt lat="39.803868122398853302001953125" lon="-0.42750698514282703399658203125">
        <ele>265.20001220703125</ele>
        <time>2021-09-27T09:37:59.000Z</time>
      </trkpt>
      <trkpt lat="39.80380953289568424224853515625" lon="-0.427490808069705963134765625">
        <ele>265.20001220703125</ele>
        <time>2021-09-27T09:38:00.000Z</time>
      </trkpt>
      <trkpt lat="39.8037482611835002899169921875" lon="-0.427480079233646392822265625">
        <ele>265.20001220703125</ele>
        <time>2021-09-27T09:38:01.000Z</time>
      </trkpt>
      <trkpt lat="39.80362261645495891571044921875" lon="-0.42745761573314666748046875">
        <ele>265.399993896484375</ele>
        <time>2021-09-27T09:38:03.000Z</time>
      </trkpt>
      <trkpt lat="39.80350443162024021148681640625" lon="-0.42738628573715686798095703125">
        <ele>266.399993896484375</ele>
        <time>2021-09-27T09:38:05.000Z</time>
      </trkpt>
      <trkpt lat="39.8033975623548030853271484375" lon="-0.427289307117462158203125">
        <ele>265.79998779296875</ele>
        <time>2021-09-27T09:38:07.000Z</time>
      </trkpt>
      <trkpt lat="39.803294800221920013427734375" lon="-0.4272103495895862579345703125">
        <ele>264.79998779296875</ele>
        <time>2021-09-27T09:38:09.000Z</time>
      </trkpt>
      <trkpt lat="39.80324543081223964691162109375" lon="-0.427178330719470977783203125">
        <ele>264.399993896484375</ele>
        <time>2021-09-27T09:38:10.000Z</time>
      </trkpt>
      <trkpt lat="39.80319933034479618072509765625" lon="-0.42714522220194339752197265625">
        <ele>264</ele>
        <time>2021-09-27T09:38:11.000Z</time>
      </trkpt>
      <trkpt lat="39.80310696177184581756591796875" lon="-0.42707431130111217498779296875">
        <ele>262.79998779296875</ele>
        <time>2021-09-27T09:38:13.000Z</time>
      </trkpt>
      <trkpt lat="39.8030223883688449859619140625" lon="-0.42699669487774372100830078125">
        <ele>261.79998779296875</ele>
        <time>2021-09-27T09:38:15.000Z</time>
      </trkpt>
      <trkpt lat="39.80298341251909732818603515625" lon="-0.42696232907474040985107421875">
        <ele>261.79998779296875</ele>
        <time>2021-09-27T09:38:16.000Z</time>
      </trkpt>
      <trkpt lat="39.802943430840969085693359375" lon="-0.4269280470907688140869140625">
        <ele>261.79998779296875</ele>
        <time>2021-09-27T09:38:17.000Z</time>
      </trkpt>
      <trkpt lat="39.80285835452377796173095703125" lon="-0.42686459608376026153564453125">
        <ele>262</ele>
        <time>2021-09-27T09:38:19.000Z</time>
      </trkpt>
      <trkpt lat="39.80277084745466709136962890625" lon="-0.426801145076751708984375">
        <ele>262.399993896484375</ele>
        <time>2021-09-27T09:38:21.000Z</time>
      </trkpt>
      <trkpt lat="39.802670516073703765869140625" lon="-0.426731072366237640380859375">
        <ele>262.79998779296875</ele>
        <time>2021-09-27T09:38:23.000Z</time>
      </trkpt>
      <trkpt lat="39.80255819857120513916015625" lon="-0.4266564734280109405517578125">
        <ele>263.20001220703125</ele>
        <time>2021-09-27T09:38:25.000Z</time>
      </trkpt>
      <trkpt lat="39.80243347585201263427734375" lon="-0.4265562258660793304443359375">
        <ele>262.20001220703125</ele>
        <time>2021-09-27T09:38:27.000Z</time>
      </trkpt>
      <trkpt lat="39.80231101624667644500732421875" lon="-0.426447428762912750244140625">
        <ele>261</ele>
        <time>2021-09-27T09:38:29.000Z</time>
      </trkpt>
      <trkpt lat="39.80219299905002117156982421875" lon="-0.42633066885173320770263671875">
        <ele>259.79998779296875</ele>
        <time>2021-09-27T09:38:31.000Z</time>
      </trkpt>
      <trkpt lat="39.8020792566239833831787109375" lon="-0.4262132383882999420166015625">
        <ele>259.399993896484375</ele>
        <time>2021-09-27T09:38:33.000Z</time>
      </trkpt>
      <trkpt lat="39.80196819640696048736572265625" lon="-0.42609916068613529205322265625">
        <ele>260.600006103515625</ele>
        <time>2021-09-27T09:38:35.000Z</time>
      </trkpt>
      <trkpt lat="39.80185587890446186065673828125" lon="-0.42598801665008068084716796875">
        <ele>262</ele>
        <time>2021-09-27T09:38:37.000Z</time>
      </trkpt>
      <trkpt lat="39.80179904960095882415771484375" lon="-0.42593219317495822906494140625">
        <ele>262.600006103515625</ele>
        <time>2021-09-27T09:38:38.000Z</time>
      </trkpt>
      <trkpt lat="39.80174607597291469573974609375" lon="-0.42587502859532833099365234375">
        <ele>263.399993896484375</ele>
        <time>2021-09-27T09:38:39.000Z</time>
      </trkpt>
      <trkpt lat="39.80169184505939483642578125" lon="-0.4258132539689540863037109375">
        <ele>263.399993896484375</ele>
        <time>2021-09-27T09:38:40.000Z</time>
      </trkpt>
      <trkpt lat="39.80163727886974811553955078125" lon="-0.4257485456764698028564453125">
        <ele>262</ele>
        <time>2021-09-27T09:38:41.000Z</time>
      </trkpt>
      <trkpt lat="39.8015391267836093902587890625" lon="-0.42560613714158535003662109375">
        <ele>259</ele>
        <time>2021-09-27T09:38:43.000Z</time>
      </trkpt>
      <trkpt lat="39.80143426917493343353271484375" lon="-0.42546666227281093597412109375">
        <ele>256.399993896484375</ele>
        <time>2021-09-27T09:38:45.000Z</time>
      </trkpt>
      <trkpt lat="39.80131809599697589874267578125" lon="-0.4253314621746540069580078125">
        <ele>255.600006103515625</ele>
        <time>2021-09-27T09:38:47.000Z</time>
      </trkpt>
      <trkpt lat="39.80120544321835041046142578125" lon="-0.42519710026681423187255859375">
        <ele>255.8000030517578125</ele>
        <time>2021-09-27T09:38:49.000Z</time>
      </trkpt>
      <trkpt lat="39.80110402218997478485107421875" lon="-0.42504672892391681671142578125">
        <ele>257.399993896484375</ele>
        <time>2021-09-27T09:38:51.000Z</time>
      </trkpt>
      <trkpt lat="39.8010600171983242034912109375" lon="-0.4249670170247554779052734375">
        <ele>258</ele>
        <time>2021-09-27T09:38:52.000Z</time>
      </trkpt>
      <trkpt lat="39.80101433582603931427001953125" lon="-0.42488914914429187774658203125">
        <ele>258.79998779296875</ele>
        <time>2021-09-27T09:38:53.000Z</time>
      </trkpt>
      <trkpt lat="39.8009228892624378204345703125" lon="-0.4247420467436313629150390625">
        <ele>259.20001220703125</ele>
        <time>2021-09-27T09:38:55.000Z</time>
      </trkpt>
      <trkpt lat="39.8008326999843120574951171875" lon="-0.4246012307703495025634765625">
        <ele>260</ele>
        <time>2021-09-27T09:38:57.000Z</time>
      </trkpt>
      <trkpt lat="39.80074075050652027130126953125" lon="-0.4244684614241123199462890625">
        <ele>261.20001220703125</ele>
        <time>2021-09-27T09:38:59.000Z</time>
      </trkpt>
      <trkpt lat="39.80064201168715953826904296875" lon="-0.4243467561900615692138671875">
        <ele>262.20001220703125</ele>
        <time>2021-09-27T09:39:01.000Z</time>
      </trkpt>
      <trkpt lat="39.80055266059935092926025390625" lon="-0.4242210276424884796142578125">
        <ele>263.399993896484375</ele>
        <time>2021-09-27T09:39:03.000Z</time>
      </trkpt>
      <trkpt lat="39.8005123436450958251953125" lon="-0.42415221221745014190673828125">
        <ele>264</ele>
        <time>2021-09-27T09:39:04.000Z</time>
      </trkpt>
      <trkpt lat="39.8004732839763164520263671875" lon="-0.42407937347888946533203125">
        <ele>264.79998779296875</ele>
        <time>2021-09-27T09:39:05.000Z</time>
      </trkpt>
      <trkpt lat="39.800396673381328582763671875" lon="-0.42393025942146778106689453125">
        <ele>266</ele>
        <time>2021-09-27T09:39:07.000Z</time>
      </trkpt>
      <trkpt lat="39.80032232590019702911376953125" lon="-0.4237744398415088653564453125">
        <ele>267.20001220703125</ele>
        <time>2021-09-27T09:39:09.000Z</time>
      </trkpt>
      <trkpt lat="39.8002459667623043060302734375" lon="-0.4236228950321674346923828125">
        <ele>267.600006103515625</ele>
        <time>2021-09-27T09:39:11.000Z</time>
      </trkpt>
      <trkpt lat="39.80020900256931781768798828125" lon="-0.42354670353233814239501953125">
        <ele>267.79998779296875</ele>
        <time>2021-09-27T09:39:12.000Z</time>
      </trkpt>
      <trkpt lat="39.800170361995697021484375" lon="-0.4234685003757476806640625">
        <ele>268</ele>
        <time>2021-09-27T09:39:13.000Z</time>
      </trkpt>
      <trkpt lat="39.8000937514007091522216796875" lon="-0.42330957949161529541015625">
        <ele>268.399993896484375</ele>
        <time>2021-09-27T09:39:15.000Z</time>
      </trkpt>
      <trkpt lat="39.8000152967870235443115234375" lon="-0.423148311674594879150390625">
        <ele>269.20001220703125</ele>
        <time>2021-09-27T09:39:17.000Z</time>
      </trkpt>
      <trkpt lat="39.79993860237300395965576171875" lon="-0.42298813350498676300048828125">
        <ele>270.20001220703125</ele>
        <time>2021-09-27T09:39:19.000Z</time>
      </trkpt>
      <trkpt lat="39.7998573817312717437744140625" lon="-0.42283642105758190155029296875">
        <ele>270.399993896484375</ele>
        <time>2021-09-27T09:39:21.000Z</time>
      </trkpt>
      <trkpt lat="39.7997812740504741668701171875" lon="-0.4226918332278728485107421875">
        <ele>270.600006103515625</ele>
        <time>2021-09-27T09:39:23.000Z</time>
      </trkpt>
      <trkpt lat="39.7997125424444675445556640625" lon="-0.422556884586811065673828125">
        <ele>270.399993896484375</ele>
        <time>2021-09-27T09:39:25.000Z</time>
      </trkpt>
      <trkpt lat="39.7996803559362888336181640625" lon="-0.42249142192304134368896484375">
        <ele>270.399993896484375</ele>
        <time>2021-09-27T09:39:26.000Z</time>
      </trkpt>
      <trkpt lat="39.7996478341519832611083984375" lon="-0.42242956347763538360595703125">
        <ele>270.399993896484375</ele>
        <time>2021-09-27T09:39:27.000Z</time>
      </trkpt>
      <trkpt lat="39.799587987363338470458984375" lon="-0.42230634950101375579833984375">
        <ele>270.399993896484375</ele>
        <time>2021-09-27T09:39:29.000Z</time>
      </trkpt>
      <trkpt lat="39.79952973313629627227783203125" lon="-0.42218171060085296630859375">
        <ele>270.20001220703125</ele>
        <time>2021-09-27T09:39:31.000Z</time>
      </trkpt>
      <trkpt lat="39.79949511587619781494140625" lon="-0.4221175052225589752197265625">
        <ele>270.20001220703125</ele>
        <time>2021-09-27T09:39:32.000Z</time>
      </trkpt>
      <trkpt lat="39.7994610853493213653564453125" lon="-0.4220511205494403839111328125">
        <ele>270.20001220703125</ele>
        <time>2021-09-27T09:39:33.000Z</time>
      </trkpt>
      <trkpt lat="39.79938975535333156585693359375" lon="-0.42191390879452228546142578125">
        <ele>270</ele>
        <time>2021-09-27T09:39:35.000Z</time>
      </trkpt>
      <trkpt lat="39.79931482113897800445556640625" lon="-0.42177342809736728668212890625">
        <ele>270</ele>
        <time>2021-09-27T09:39:37.000Z</time>
      </trkpt>
      <trkpt lat="39.79923519305884838104248046875" lon="-0.42161886580288410186767578125">
        <ele>270</ele>
        <time>2021-09-27T09:39:39.000Z</time>
      </trkpt>
      <trkpt lat="39.7991578280925750732421875" lon="-0.4214513115584850311279296875">
        <ele>270.399993896484375</ele>
        <time>2021-09-27T09:39:41.000Z</time>
      </trkpt>
      <trkpt lat="39.79907945729792118072509765625" lon="-0.421284176409244537353515625">
        <ele>270.600006103515625</ele>
        <time>2021-09-27T09:39:43.000Z</time>
      </trkpt>
      <trkpt lat="39.79900619946420192718505859375" lon="-0.421134643256664276123046875">
        <ele>270.20001220703125</ele>
        <time>2021-09-27T09:39:45.000Z</time>
      </trkpt>
      <trkpt lat="39.79896982200443744659423828125" lon="-0.42106415145099163055419921875">
        <ele>270</ele>
        <time>2021-09-27T09:39:46.000Z</time>
      </trkpt>
      <trkpt lat="39.79893595911562442779541015625" lon="-0.420999862253665924072265625">
        <ele>269.79998779296875</ele>
        <time>2021-09-27T09:39:47.000Z</time>
      </trkpt>
      <trkpt lat="39.79886747896671295166015625" lon="-0.4208721220493316650390625">
        <ele>269.600006103515625</ele>
        <time>2021-09-27T09:39:49.000Z</time>
      </trkpt>
      <trkpt lat="39.79880855418741703033447265625" lon="-0.42074966244399547576904296875">
        <ele>269.20001220703125</ele>
        <time>2021-09-27T09:39:51.000Z</time>
      </trkpt>
      <trkpt lat="39.79874677956104278564453125" lon="-0.4206369258463382720947265625">
        <ele>268.79998779296875</ele>
        <time>2021-09-27T09:39:53.000Z</time>
      </trkpt>
      <trkpt lat="39.7986805625259876251220703125" lon="-0.420529805123805999755859375">
        <ele>268.399993896484375</ele>
        <time>2021-09-27T09:39:55.000Z</time>
      </trkpt>
      <trkpt lat="39.798613004386425018310546875" lon="-0.42042897082865238189697265625">
        <ele>268.20001220703125</ele>
        <time>2021-09-27T09:39:57.000Z</time>
      </trkpt>
      <trkpt lat="39.79854167439043521881103515625" lon="-0.4203418828547000885009765625">
        <ele>268.20001220703125</ele>
        <time>2021-09-27T09:39:59.000Z</time>
      </trkpt>
      <trkpt lat="39.79850227944552898406982421875" lon="-0.4203103668987751007080078125">
        <ele>268.20001220703125</ele>
        <time>2021-09-27T09:40:00.000Z</time>
      </trkpt>
      <trkpt lat="39.79845978319644927978515625" lon="-0.42029435746371746063232421875">
        <ele>268.399993896484375</ele>
        <time>2021-09-27T09:40:01.000Z</time>
      </trkpt>
      <trkpt lat="39.79838074184954166412353515625" lon="-0.420303158462047576904296875">
        <ele>269</ele>
        <time>2021-09-27T09:40:03.000Z</time>
      </trkpt>
      <trkpt lat="39.79833145625889301300048828125" lon="-0.4203395359218120574951171875">
        <ele>269.399993896484375</ele>
        <time>2021-09-27T09:40:05.000Z</time>
      </trkpt>
      <trkpt lat="39.79828468523919582366943359375" lon="-0.42036979459226131439208984375">
        <ele>269.79998779296875</ele>
        <time>2021-09-27T09:40:07.000Z</time>
      </trkpt>
      <trkpt lat="39.79826171882450580596923828125" lon="-0.42038370855152606964111328125">
        <ele>270.20001220703125</ele>
        <time>2021-09-27T09:40:08.000Z</time>
      </trkpt>
      <trkpt lat="39.7982396744191646575927734375" lon="-0.42039963416755199432373046875">
        <ele>270.399993896484375</ele>
        <time>2021-09-27T09:40:09.000Z</time>
      </trkpt>
      <trkpt lat="39.7981940768659114837646484375" lon="-0.42043131776154041290283203125">
        <ele>270.79998779296875</ele>
        <time>2021-09-27T09:40:11.000Z</time>
      </trkpt>
      <trkpt lat="39.798168428242206573486328125" lon="-0.4204287193715572357177734375">
        <ele>271</ele>
        <time>2021-09-27T09:40:12.000Z</time>
      </trkpt>
      <trkpt lat="39.79814328253269195556640625" lon="-0.42041991837322711944580078125">
        <ele>271</ele>
        <time>2021-09-27T09:40:13.000Z</time>
      </trkpt>
      <trkpt lat="39.79809056036174297332763671875" lon="-0.42038136161863803863525390625">
        <ele>271.20001220703125</ele>
        <time>2021-09-27T09:40:15.000Z</time>
      </trkpt>
      <trkpt lat="39.79806709103286266326904296875" lon="-0.42034816928207874298095703125">
        <ele>271</ele>
        <time>2021-09-27T09:40:16.000Z</time>
      </trkpt>
      <trkpt lat="39.79804337024688720703125" lon="-0.42031078599393367767333984375">
        <ele>271</ele>
        <time>2021-09-27T09:40:17.000Z</time>
      </trkpt>
      <trkpt lat="39.797990731894969940185546875" lon="-0.420227386057376861572265625">
        <ele>270.600006103515625</ele>
        <time>2021-09-27T09:40:19.000Z</time>
      </trkpt>
      <trkpt lat="39.79796583764255046844482421875" lon="-0.42019126005470752716064453125">
        <ele>270.399993896484375</ele>
        <time>2021-09-27T09:40:20.000Z</time>
      </trkpt>
      <trkpt lat="39.7979374229907989501953125" lon="-0.4201521165668964385986328125">
        <ele>270.399993896484375</ele>
        <time>2021-09-27T09:40:21.000Z</time>
      </trkpt>
      <trkpt lat="39.79790858924388885498046875" lon="-0.4201078601181507110595703125">
        <ele>270.20001220703125</ele>
        <time>2021-09-27T09:40:22.000Z</time>
      </trkpt>
      <trkpt lat="39.79787900112569332122802734375" lon="-0.42005932889878749847412109375">
        <ele>270</ele>
        <time>2021-09-27T09:40:23.000Z</time>
      </trkpt>
      <trkpt lat="39.79781311936676502227783203125" lon="-0.41996913962066173553466796875">
        <ele>269.600006103515625</ele>
        <time>2021-09-27T09:40:25.000Z</time>
      </trkpt>
      <trkpt lat="39.7977515123784542083740234375" lon="-0.4198775254189968109130859375">
        <ele>269</ele>
        <time>2021-09-27T09:40:27.000Z</time>
      </trkpt>
      <trkpt lat="39.79768462479114532470703125" lon="-0.41978440247476100921630859375">
        <ele>268.79998779296875</ele>
        <time>2021-09-27T09:40:29.000Z</time>
      </trkpt>
      <trkpt lat="39.79761111550033092498779296875" lon="-0.41968298144638538360595703125">
        <ele>268.79998779296875</ele>
        <time>2021-09-27T09:40:31.000Z</time>
      </trkpt>
      <trkpt lat="39.79757088236510753631591796875" lon="-0.41962548159062862396240234375">
        <ele>268.79998779296875</ele>
        <time>2021-09-27T09:40:32.000Z</time>
      </trkpt>
      <trkpt lat="39.79753173887729644775390625" lon="-0.41957083158195018768310546875">
        <ele>268.79998779296875</ele>
        <time>2021-09-27T09:40:33.000Z</time>
      </trkpt>
      <trkpt lat="39.797452948987483978271484375" lon="-0.41945432312786579132080078125">
        <ele>268.79998779296875</ele>
        <time>2021-09-27T09:40:35.000Z</time>
      </trkpt>
      <trkpt lat="39.79737089015543460845947265625" lon="-0.4193390719592571258544921875">
        <ele>269</ele>
        <time>2021-09-27T09:40:37.000Z</time>
      </trkpt>
      <trkpt lat="39.7972941957414150238037109375" lon="-0.41922667063772678375244140625">
        <ele>268.600006103515625</ele>
        <time>2021-09-27T09:40:39.000Z</time>
      </trkpt>
      <trkpt lat="39.797257483005523681640625" lon="-0.4191727750003337860107421875">
        <ele>268.399993896484375</ele>
        <time>2021-09-27T09:40:40.000Z</time>
      </trkpt>
      <trkpt lat="39.7972231172025203704833984375" lon="-0.419116951525211334228515625">
        <ele>268.20001220703125</ele>
        <time>2021-09-27T09:40:41.000Z</time>
      </trkpt>
      <trkpt lat="39.7971493564546108245849609375" lon="-0.4190058074891567230224609375">
        <ele>267.79998779296875</ele>
        <time>2021-09-27T09:40:43.000Z</time>
      </trkpt>
      <trkpt lat="39.797068722546100616455078125" lon="-0.41888502426445484161376953125">
        <ele>267.399993896484375</ele>
        <time>2021-09-27T09:40:45.000Z</time>
      </trkpt>
      <trkpt lat="39.7970279864966869354248046875" lon="-0.4188230820000171661376953125">
        <ele>267.20001220703125</ele>
        <time>2021-09-27T09:40:46.000Z</time>
      </trkpt>
      <trkpt lat="39.7969844006001949310302734375" lon="-0.41876055300235748291015625">
        <ele>267</ele>
        <time>2021-09-27T09:40:47.000Z</time>
      </trkpt>
      <trkpt lat="39.7968978993594646453857421875" lon="-0.4186359979212284088134765625">
        <ele>266.600006103515625</ele>
        <time>2021-09-27T09:40:49.000Z</time>
      </trkpt>
      <trkpt lat="39.7968053631484508514404296875" lon="-0.418512783944606781005859375">
        <ele>266.20001220703125</ele>
        <time>2021-09-27T09:40:51.000Z</time>
      </trkpt>
      <trkpt lat="39.79671659879386425018310546875" lon="-0.4183899052441120147705078125">
        <ele>266</ele>
        <time>2021-09-27T09:40:53.000Z</time>
      </trkpt>
      <trkpt lat="39.79663453996181488037109375" lon="-0.41827113367617130279541015625">
        <ele>265.79998779296875</ele>
        <time>2021-09-27T09:40:55.000Z</time>
      </trkpt>
      <trkpt lat="39.79659254662692546844482421875" lon="-0.41821363382041454315185546875">
        <ele>266</ele>
        <time>2021-09-27T09:40:56.000Z</time>
      </trkpt>
      <trkpt lat="39.79655164293944835662841796875" lon="-0.41815194301307201385498046875">
        <ele>266</ele>
        <time>2021-09-27T09:40:57.000Z</time>
      </trkpt>
      <trkpt lat="39.79646514169871807098388671875" lon="-0.41802420280873775482177734375">
        <ele>266</ele>
        <time>2021-09-27T09:40:59.000Z</time>
      </trkpt>
      <trkpt lat="39.79637436568737030029296875" lon="-0.417885817587375640869140625">
        <ele>266.399993896484375</ele>
        <time>2021-09-27T09:41:01.000Z</time>
      </trkpt>
      <trkpt lat="39.79628291912376880645751953125" lon="-0.41774793528020381927490234375">
        <ele>266.20001220703125</ele>
        <time>2021-09-27T09:41:03.000Z</time>
      </trkpt>
      <trkpt lat="39.79619239456951618194580078125" lon="-0.41761114262044429779052734375">
        <ele>266</ele>
        <time>2021-09-27T09:41:05.000Z</time>
      </trkpt>
      <trkpt lat="39.79610438458621501922607421875" lon="-0.41748038493096828460693359375">
        <ele>266</ele>
        <time>2021-09-27T09:41:07.000Z</time>
      </trkpt>
      <trkpt lat="39.7960221581161022186279296875" lon="-0.41735700331628322601318359375">
        <ele>266</ele>
        <time>2021-09-27T09:41:09.000Z</time>
      </trkpt>
      <trkpt lat="39.79598167352378368377685546875" lon="-0.41729338467121124267578125">
        <ele>266</ele>
        <time>2021-09-27T09:41:10.000Z</time>
      </trkpt>
      <trkpt lat="39.7959440387785434722900390625" lon="-0.41722993366420269012451171875">
        <ele>266</ele>
        <time>2021-09-27T09:41:11.000Z</time>
      </trkpt>
      <trkpt lat="39.7958625666797161102294921875" lon="-0.4171044565737247467041015625">
        <ele>266.20001220703125</ele>
        <time>2021-09-27T09:41:13.000Z</time>
      </trkpt>
      <trkpt lat="39.79578067548573017120361328125" lon="-0.41697931475937366485595703125">
        <ele>266.399993896484375</ele>
        <time>2021-09-27T09:41:15.000Z</time>
      </trkpt>
      <trkpt lat="39.79569132439792156219482421875" lon="-0.41684889234602451324462890625">
        <ele>266.600006103515625</ele>
        <time>2021-09-27T09:41:17.000Z</time>
      </trkpt>
      <trkpt lat="39.7955983690917491912841796875" lon="-0.41671545244753360748291015625">
        <ele>266.600006103515625</ele>
        <time>2021-09-27T09:41:19.000Z</time>
      </trkpt>
      <trkpt lat="39.7955081798136234283447265625" lon="-0.41658251546323299407958984375">
        <ele>266.600006103515625</ele>
        <time>2021-09-27T09:41:21.000Z</time>
      </trkpt>
      <trkpt lat="39.795402400195598602294921875" lon="-0.41644186712801456451416015625">
        <ele>266.600006103515625</ele>
        <time>2021-09-27T09:41:23.000Z</time>
      </trkpt>
      <trkpt lat="39.79530424810945987701416015625" lon="-0.41629887185990810394287109375">
        <ele>265.600006103515625</ele>
        <time>2021-09-27T09:41:25.000Z</time>
      </trkpt>
      <trkpt lat="39.79520567692816257476806640625" lon="-0.41615855880081653594970703125">
        <ele>264.20001220703125</ele>
        <time>2021-09-27T09:41:27.000Z</time>
      </trkpt>
      <trkpt lat="39.7951078601181507110595703125" lon="-0.41602143086493015289306640625">
        <ele>262.79998779296875</ele>
        <time>2021-09-27T09:41:29.000Z</time>
      </trkpt>
      <trkpt lat="39.79501247406005859375" lon="-0.4158827103674411773681640625">
        <ele>261.399993896484375</ele>
        <time>2021-09-27T09:41:31.000Z</time>
      </trkpt>
      <trkpt lat="39.79491968639194965362548828125" lon="-0.41575036011636257171630859375">
        <ele>260.79998779296875</ele>
        <time>2021-09-27T09:41:33.000Z</time>
      </trkpt>
      <trkpt lat="39.794825725257396697998046875" lon="-0.41561323218047618865966796875">
        <ele>260.20001220703125</ele>
        <time>2021-09-27T09:41:35.000Z</time>
      </trkpt>
      <trkpt lat="39.7947249747812747955322265625" lon="-0.41546721942722797393798828125">
        <ele>259.600006103515625</ele>
        <time>2021-09-27T09:41:37.000Z</time>
      </trkpt>
      <trkpt lat="39.794618524610996246337890625" lon="-0.4153199493885040283203125">
        <ele>259</ele>
        <time>2021-09-27T09:41:39.000Z</time>
      </trkpt>
      <trkpt lat="39.79456412605941295623779296875" lon="-0.41524375788867473602294921875">
        <ele>259</ele>
        <time>2021-09-27T09:41:40.000Z</time>
      </trkpt>
      <trkpt lat="39.7945147566497325897216796875" lon="-0.41516932658851146697998046875">
        <ele>259</ele>
        <time>2021-09-27T09:41:41.000Z</time>
      </trkpt>
      <trkpt lat="39.79441392235457897186279296875" lon="-0.4150195419788360595703125">
        <ele>259.20001220703125</ele>
        <time>2021-09-27T09:41:43.000Z</time>
      </trkpt>
      <trkpt lat="39.7943645529448986053466796875" lon="-0.414947457611560821533203125">
        <ele>259.20001220703125</ele>
        <time>2021-09-27T09:41:44.000Z</time>
      </trkpt>
      <trkpt lat="39.794317446649074554443359375" lon="-0.41487612761557102203369140625">
        <ele>259.20001220703125</ele>
        <time>2021-09-27T09:41:45.000Z</time>
      </trkpt>
      <trkpt lat="39.79422130621969699859619140625" lon="-0.41473195888102054595947265625">
        <ele>259</ele>
        <time>2021-09-27T09:41:47.000Z</time>
      </trkpt>
      <trkpt lat="39.79412399232387542724609375" lon="-0.4145868681371212005615234375">
        <ele>259</ele>
        <time>2021-09-27T09:41:49.000Z</time>
      </trkpt>
      <trkpt lat="39.79402148164808750152587890625" lon="-0.4144534282386302947998046875">
        <ele>259.20001220703125</ele>
        <time>2021-09-27T09:41:51.000Z</time>
      </trkpt>
      <trkpt lat="39.79397119022905826568603515625" lon="-0.4143903963267803192138671875">
        <ele>259.399993896484375</ele>
        <time>2021-09-27T09:41:52.000Z</time>
      </trkpt>
      <trkpt lat="39.79392408393323421478271484375" lon="-0.41432686150074005126953125">
        <ele>259.399993896484375</ele>
        <time>2021-09-27T09:41:53.000Z</time>
      </trkpt>
      <trkpt lat="39.793822579085826873779296875" lon="-0.41420004330575466156005859375">
        <ele>259.600006103515625</ele>
        <time>2021-09-27T09:41:55.000Z</time>
      </trkpt>
      <trkpt lat="39.79371772147715091705322265625" lon="-0.41407951153814792633056640625">
        <ele>259.600006103515625</ele>
        <time>2021-09-27T09:41:57.000Z</time>
      </trkpt>
      <trkpt lat="39.79366625659167766571044921875" lon="-0.414022766053676605224609375">
        <ele>259.79998779296875</ele>
        <time>2021-09-27T09:41:58.000Z</time>
      </trkpt>
      <trkpt lat="39.7936125285923480987548828125" lon="-0.41396819986402988433837890625">
        <ele>260</ele>
        <time>2021-09-27T09:41:59.000Z</time>
      </trkpt>
      <trkpt lat="39.7935059107840061187744140625" lon="-0.4138539545238018035888671875">
        <ele>259.79998779296875</ele>
        <time>2021-09-27T09:42:01.000Z</time>
      </trkpt>
      <trkpt lat="39.7933962754905223846435546875" lon="-0.4137379489839076995849609375">
        <ele>259.20001220703125</ele>
        <time>2021-09-27T09:42:03.000Z</time>
      </trkpt>
      <trkpt lat="39.79333852417767047882080078125" lon="-0.4136829636991024017333984375">
        <ele>259</ele>
        <time>2021-09-27T09:42:04.000Z</time>
      </trkpt>
      <trkpt lat="39.793278761208057403564453125" lon="-0.41362722404301166534423828125">
        <ele>259</ele>
        <time>2021-09-27T09:42:05.000Z</time>
      </trkpt>
      <trkpt lat="39.79315361939370632171630859375" lon="-0.41351708583533763885498046875">
        <ele>258.600006103515625</ele>
        <time>2021-09-27T09:42:07.000Z</time>
      </trkpt>
      <trkpt lat="39.793026633560657501220703125" lon="-0.41341382078826427459716796875">
        <ele>258</ele>
        <time>2021-09-27T09:42:09.000Z</time>
      </trkpt>
      <trkpt lat="39.7929672896862030029296875" lon="-0.41336394846439361572265625">
        <ele>257.600006103515625</ele>
        <time>2021-09-27T09:42:10.000Z</time>
      </trkpt>
      <trkpt lat="39.79290886782109737396240234375" lon="-0.41331608779728412628173828125">
        <ele>257.399993896484375</ele>
        <time>2021-09-27T09:42:11.000Z</time>
      </trkpt>
      <trkpt lat="39.79278716258704662322998046875" lon="-0.41323226876556873321533203125">
        <ele>256.79998779296875</ele>
        <time>2021-09-27T09:42:13.000Z</time>
      </trkpt>
      <trkpt lat="39.792726226150989532470703125" lon="-0.41319496929645538330078125">
        <ele>256.600006103515625</ele>
        <time>2021-09-27T09:42:14.000Z</time>
      </trkpt>
      <trkpt lat="39.79266294278204441070556640625" lon="-0.41315699927508831024169921875">
        <ele>256.399993896484375</ele>
        <time>2021-09-27T09:42:15.000Z</time>
      </trkpt>
      <trkpt lat="39.7925379686057567596435546875" lon="-0.41307318024337291717529296875">
        <ele>256.600006103515625</ele>
        <time>2021-09-27T09:42:17.000Z</time>
      </trkpt>
      <trkpt lat="39.7924162633717060089111328125" lon="-0.41298885829746723175048828125">
        <ele>256.600006103515625</ele>
        <time>2021-09-27T09:42:19.000Z</time>
      </trkpt>
      <trkpt lat="39.79229346849024295806884765625" lon="-0.41290604509413242340087890625">
        <ele>257</ele>
        <time>2021-09-27T09:42:21.000Z</time>
      </trkpt>
      <trkpt lat="39.79223127476871013641357421875" lon="-0.41286447085440158843994140625">
        <ele>257</ele>
        <time>2021-09-27T09:42:22.000Z</time>
      </trkpt>
      <trkpt lat="39.792168997228145599365234375" lon="-0.4128229804337024688720703125">
        <ele>257.20001220703125</ele>
        <time>2021-09-27T09:42:23.000Z</time>
      </trkpt>
      <trkpt lat="39.79204595088958740234375" lon="-0.41274460963904857635498046875">
        <ele>257.20001220703125</ele>
        <time>2021-09-27T09:42:25.000Z</time>
      </trkpt>
      <trkpt lat="39.79193388484418392181396484375" lon="-0.4126699268817901611328125">
        <ele>256.600006103515625</ele>
        <time>2021-09-27T09:42:27.000Z</time>
      </trkpt>
      <trkpt lat="39.79187889955937862396240234375" lon="-0.412631370127201080322265625">
        <ele>256.399993896484375</ele>
        <time>2021-09-27T09:42:28.000Z</time>
      </trkpt>
      <trkpt lat="39.79182274080812931060791015625" lon="-0.41259407065808773040771484375">
        <ele>256</ele>
        <time>2021-09-27T09:42:29.000Z</time>
      </trkpt>
      <trkpt lat="39.79170623235404491424560546875" lon="-0.41251813061535358428955078125">
        <ele>255.399993896484375</ele>
        <time>2021-09-27T09:42:31.000Z</time>
      </trkpt>
      <trkpt lat="39.7915824316442012786865234375" lon="-0.4124414362013339996337890625">
        <ele>254.600006103515625</ele>
        <time>2021-09-27T09:42:33.000Z</time>
      </trkpt>
      <trkpt lat="39.7914600558578968048095703125" lon="-0.4123609699308872222900390625">
        <ele>253.399993896484375</ele>
        <time>2021-09-27T09:42:35.000Z</time>
      </trkpt>
      <trkpt lat="39.791334830224514007568359375" lon="-0.4122805036604404449462890625">
        <ele>252.399993896484375</ele>
        <time>2021-09-27T09:42:37.000Z</time>
      </trkpt>
      <trkpt lat="39.79127146303653717041015625" lon="-0.41223943233489990234375">
        <ele>251.8000030517578125</ele>
        <time>2021-09-27T09:42:38.000Z</time>
      </trkpt>
      <trkpt lat="39.7912079282104969024658203125" lon="-0.41219894774258136749267578125">
        <ele>251.1999969482421875</ele>
        <time>2021-09-27T09:42:39.000Z</time>
      </trkpt>
      <trkpt lat="39.7910870611667633056640625" lon="-0.41211135685443878173828125">
        <ele>251</ele>
        <time>2021-09-27T09:42:41.000Z</time>
      </trkpt>
      <trkpt lat="39.79096007533371448516845703125" lon="-0.4120327346026897430419921875">
        <ele>251</ele>
        <time>2021-09-27T09:42:43.000Z</time>
      </trkpt>
      <trkpt lat="39.79089519940316677093505859375" lon="-0.411993004381656646728515625">
        <ele>251</ele>
        <time>2021-09-27T09:42:44.000Z</time>
      </trkpt>
      <trkpt lat="39.79082982055842876434326171875" lon="-0.4119515977799892425537109375">
        <ele>251</ele>
        <time>2021-09-27T09:42:45.000Z</time>
      </trkpt>
      <trkpt lat="39.79070526547729969024658203125" lon="-0.411870293319225311279296875">
        <ele>251</ele>
        <time>2021-09-27T09:42:47.000Z</time>
      </trkpt>
      <trkpt lat="39.79058389551937580108642578125" lon="-0.41178924031555652618408203125">
        <ele>250.8000030517578125</ele>
        <time>2021-09-27T09:42:49.000Z</time>
      </trkpt>
      <trkpt lat="39.79046101681888103485107421875" lon="-0.411707349121570587158203125">
        <ele>250.8000030517578125</ele>
        <time>2021-09-27T09:42:51.000Z</time>
      </trkpt>
      <trkpt lat="39.790401421487331390380859375" lon="-0.41166502051055431365966796875">
        <ele>250.8000030517578125</ele>
        <time>2021-09-27T09:42:52.000Z</time>
      </trkpt>
      <trkpt lat="39.79034082032740116119384765625" lon="-0.41162185370922088623046875">
        <ele>251</ele>
        <time>2021-09-27T09:42:53.000Z</time>
      </trkpt>
      <trkpt lat="39.790218360722064971923828125" lon="-0.41153526864945888519287109375">
        <ele>251.600006103515625</ele>
        <time>2021-09-27T09:42:55.000Z</time>
      </trkpt>
      <trkpt lat="39.79009103961288928985595703125" lon="-0.41145564056932926177978515625">
        <ele>252.8000030517578125</ele>
        <time>2021-09-27T09:42:57.000Z</time>
      </trkpt>
      <trkpt lat="39.7899670712649822235107421875" lon="-0.4113755933940410614013671875">
        <ele>254</ele>
        <time>2021-09-27T09:42:59.000Z</time>
      </trkpt>
      <trkpt lat="39.78990362025797367095947265625" lon="-0.41133494116365909576416015625">
        <ele>254.600006103515625</ele>
        <time>2021-09-27T09:43:00.000Z</time>
      </trkpt>
      <trkpt lat="39.789836816489696502685546875" lon="-0.4112937860190868377685546875">
        <ele>255.1999969482421875</ele>
        <time>2021-09-27T09:43:01.000Z</time>
      </trkpt>
      <trkpt lat="39.78977537713944911956787109375" lon="-0.41125263087451457977294921875">
        <ele>255.600006103515625</ele>
        <time>2021-09-27T09:43:02.000Z</time>
      </trkpt>
      <trkpt lat="39.78971687145531177520751953125" lon="-0.41120921261608600616455078125">
        <ele>256</ele>
        <time>2021-09-27T09:43:03.000Z</time>
      </trkpt>
      <trkpt lat="39.789651073515415191650390625" lon="-0.41116881184279918670654296875">
        <ele>256.399993896484375</ele>
        <time>2021-09-27T09:43:04.000Z</time>
      </trkpt>
      <trkpt lat="39.78958569467067718505859375" lon="-0.4111276566982269287109375">
        <ele>257</ele>
        <time>2021-09-27T09:43:05.000Z</time>
      </trkpt>
      <trkpt lat="39.789451919496059417724609375" lon="-0.4110486991703510284423828125">
        <ele>257.20001220703125</ele>
        <time>2021-09-27T09:43:07.000Z</time>
      </trkpt>
      <trkpt lat="39.78931881487369537353515625" lon="-0.4109702445566654205322265625">
        <ele>257</ele>
        <time>2021-09-27T09:43:09.000Z</time>
      </trkpt>
      <trkpt lat="39.7891899012029170989990234375" lon="-0.41089975275099277496337890625">
        <ele>257</ele>
        <time>2021-09-27T09:43:11.000Z</time>
      </trkpt>
      <trkpt lat="39.78906936943531036376953125" lon="-0.410822890698909759521484375">
        <ele>256.600006103515625</ele>
        <time>2021-09-27T09:43:13.000Z</time>
      </trkpt>
      <trkpt lat="39.7889518551528453826904296875" lon="-0.41074669919908046722412109375">
        <ele>256.20001220703125</ele>
        <time>2021-09-27T09:43:15.000Z</time>
      </trkpt>
      <trkpt lat="39.78889142163097858428955078125" lon="-0.41070546023547649383544921875">
        <ele>256</ele>
        <time>2021-09-27T09:43:16.000Z</time>
      </trkpt>
      <trkpt lat="39.788830988109111785888671875" lon="-0.410663969814777374267578125">
        <ele>255.8000030517578125</ele>
        <time>2021-09-27T09:43:17.000Z</time>
      </trkpt>
      <trkpt lat="39.7887067683041095733642578125" lon="-0.41058056987822055816650390625">
        <ele>255.399993896484375</ele>
        <time>2021-09-27T09:43:19.000Z</time>
      </trkpt>
      <trkpt lat="39.78858279995620250701904296875" lon="-0.41049800813198089599609375">
        <ele>254.1999969482421875</ele>
        <time>2021-09-27T09:43:21.000Z</time>
      </trkpt>
      <trkpt lat="39.78846629150211811065673828125" lon="-0.41041360236704349517822265625">
        <ele>253.399993896484375</ele>
        <time>2021-09-27T09:43:23.000Z</time>
      </trkpt>
      <trkpt lat="39.788406193256378173828125" lon="-0.410372279584407806396484375">
        <ele>253</ele>
        <time>2021-09-27T09:43:24.000Z</time>
      </trkpt>
      <trkpt lat="39.78834508918225765228271484375" lon="-0.4103298671543598175048828125">
        <ele>252.600006103515625</ele>
        <time>2021-09-27T09:43:25.000Z</time>
      </trkpt>
      <trkpt lat="39.78822120465338230133056640625" lon="-0.41024722158908843994140625">
        <ele>251.8000030517578125</ele>
        <time>2021-09-27T09:43:27.000Z</time>
      </trkpt>
      <trkpt lat="39.78809396736323833465576171875" lon="-0.41016449220478534698486328125">
        <ele>250.8000030517578125</ele>
        <time>2021-09-27T09:43:29.000Z</time>
      </trkpt>
      <trkpt lat="39.7879644669592380523681640625" lon="-0.41008092463016510009765625">
        <ele>249.600006103515625</ele>
        <time>2021-09-27T09:43:31.000Z</time>
      </trkpt>
      <trkpt lat="39.787837900221347808837890625" lon="-0.4099949263036251068115234375">
        <ele>248.600006103515625</ele>
        <time>2021-09-27T09:43:33.000Z</time>
      </trkpt>
      <trkpt lat="39.7877103276550769805908203125" lon="-0.40991135872900485992431640625">
        <ele>247.600006103515625</ele>
        <time>2021-09-27T09:43:35.000Z</time>
      </trkpt>
      <trkpt lat="39.78758719749748706817626953125" lon="-0.40982837788760662078857421875">
        <ele>246.8000030517578125</ele>
        <time>2021-09-27T09:43:37.000Z</time>
      </trkpt>
      <trkpt lat="39.78746465407311916351318359375" lon="-0.4097441397607326507568359375">
        <ele>246.1999969482421875</ele>
        <time>2021-09-27T09:43:39.000Z</time>
      </trkpt>
      <trkpt lat="39.78734713979065418243408203125" lon="-0.40964640676975250244140625">
        <ele>245.399993896484375</ele>
        <time>2021-09-27T09:43:41.000Z</time>
      </trkpt>
      <trkpt lat="39.78723348118364810943603515625" lon="-0.4095317423343658447265625">
        <ele>244.600006103515625</ele>
        <time>2021-09-27T09:43:43.000Z</time>
      </trkpt>
      <trkpt lat="39.7871313057839870452880859375" lon="-0.40941028855741024017333984375">
        <ele>244</ele>
        <time>2021-09-27T09:43:45.000Z</time>
      </trkpt>
      <trkpt lat="39.78703432716429233551025390625" lon="-0.40928640402853488922119140625">
        <ele>243.600006103515625</ele>
        <time>2021-09-27T09:43:47.000Z</time>
      </trkpt>
      <trkpt lat="39.78694682009518146514892578125" lon="-0.4091510362923145294189453125">
        <ele>244.1999969482421875</ele>
        <time>2021-09-27T09:43:49.000Z</time>
      </trkpt>
      <trkpt lat="39.786870963871479034423828125" lon="-0.4090058617293834686279296875">
        <ele>244.8000030517578125</ele>
        <time>2021-09-27T09:43:51.000Z</time>
      </trkpt>
      <trkpt lat="39.78679955005645751953125" lon="-0.40885138325393199920654296875">
        <ele>245.600006103515625</ele>
        <time>2021-09-27T09:43:53.000Z</time>
      </trkpt>
      <trkpt lat="39.78674096055328845977783203125" lon="-0.4086895287036895751953125">
        <ele>246.1999969482421875</ele>
        <time>2021-09-27T09:43:55.000Z</time>
      </trkpt>
      <trkpt lat="39.7866887412965297698974609375" lon="-0.40851853787899017333984375">
        <ele>246.600006103515625</ele>
        <time>2021-09-27T09:43:57.000Z</time>
      </trkpt>
      <trkpt lat="39.78664373047649860382080078125" lon="-0.40834612213075160980224609375">
        <ele>246.8000030517578125</ele>
        <time>2021-09-27T09:43:59.000Z</time>
      </trkpt>
      <trkpt lat="39.78660617955029010772705078125" lon="-0.408171527087688446044921875">
        <ele>247.600006103515625</ele>
        <time>2021-09-27T09:44:01.000Z</time>
      </trkpt>
      <trkpt lat="39.78657382540404796600341796875" lon="-0.4079966805875301361083984375">
        <ele>248.1999969482421875</ele>
        <time>2021-09-27T09:44:03.000Z</time>
      </trkpt>
      <trkpt lat="39.78653795085847377777099609375" lon="-0.40782728232443332672119140625">
        <ele>248.8000030517578125</ele>
        <time>2021-09-27T09:44:05.000Z</time>
      </trkpt>
      <trkpt lat="39.7865219414234161376953125" lon="-0.407739020884037017822265625">
        <ele>249</ele>
        <time>2021-09-27T09:44:06.000Z</time>
      </trkpt>
      <trkpt lat="39.78650878183543682098388671875" lon="-0.40765327401459217071533203125">
        <ele>249.1999969482421875</ele>
        <time>2021-09-27T09:44:07.000Z</time>
      </trkpt>
      <trkpt lat="39.78647273965179920196533203125" lon="-0.40748194791376590728759765625">
        <ele>249.600006103515625</ele>
        <time>2021-09-27T09:44:09.000Z</time>
      </trkpt>
      <trkpt lat="39.78645622730255126953125" lon="-0.4073938541114330291748046875">
        <ele>249.8000030517578125</ele>
        <time>2021-09-27T09:44:10.000Z</time>
      </trkpt>
      <trkpt lat="39.78643946349620819091796875" lon="-0.40730358101427555084228515625">
        <ele>250</ele>
        <time>2021-09-27T09:44:11.000Z</time>
      </trkpt>
      <trkpt lat="39.786397553980350494384765625" lon="-0.4071229510009288787841796875">
        <ele>250.600006103515625</ele>
        <time>2021-09-27T09:44:13.000Z</time>
      </trkpt>
      <trkpt lat="39.7863611765205860137939453125" lon="-0.406957156956195831298828125">
        <ele>251</ele>
        <time>2021-09-27T09:44:15.000Z</time>
      </trkpt>
      <trkpt lat="39.78633041493594646453857421875" lon="-0.40680686943233013153076171875">
        <ele>251.399993896484375</ele>
        <time>2021-09-27T09:44:17.000Z</time>
      </trkpt>
      <trkpt lat="39.78631180711090564727783203125" lon="-0.406667478382587432861328125">
        <ele>251.8000030517578125</ele>
        <time>2021-09-27T09:44:19.000Z</time>
      </trkpt>
      <trkpt lat="39.78630057536065578460693359375" lon="-0.4066022671759128570556640625">
        <ele>251.8000030517578125</ele>
        <time>2021-09-27T09:44:20.000Z</time>
      </trkpt>
      <trkpt lat="39.7862833924591541290283203125" lon="-0.406545102596282958984375">
        <ele>252</ele>
        <time>2021-09-27T09:44:21.000Z</time>
      </trkpt>
      <trkpt lat="39.7862666286528110504150390625" lon="-0.40648953057825565338134765625">
        <ele>252.399993896484375</ele>
        <time>2021-09-27T09:44:22.000Z</time>
      </trkpt>
      <trkpt lat="39.78625263087451457977294921875" lon="-0.40643353946506977081298828125">
        <ele>252.399993896484375</ele>
        <time>2021-09-27T09:44:23.000Z</time>
      </trkpt>
      <trkpt lat="39.786231927573680877685546875" lon="-0.40630613453686237335205078125">
        <ele>252.8000030517578125</ele>
        <time>2021-09-27T09:44:25.000Z</time>
      </trkpt>
      <trkpt lat="39.78621256537735462188720703125" lon="-0.406169928610324859619140625">
        <ele>252.600006103515625</ele>
        <time>2021-09-27T09:44:27.000Z</time>
      </trkpt>
      <trkpt lat="39.78618993423879146575927734375" lon="-0.40603104047477245330810546875">
        <ele>252.8000030517578125</ele>
        <time>2021-09-27T09:44:29.000Z</time>
      </trkpt>
      <trkpt lat="39.78616612963378429412841796875" lon="-0.4059015400707721710205078125">
        <ele>253</ele>
        <time>2021-09-27T09:44:31.000Z</time>
      </trkpt>
      <trkpt lat="39.7861402295529842376708984375" lon="-0.40576684288680553436279296875">
        <ele>253.1999969482421875</ele>
        <time>2021-09-27T09:44:33.000Z</time>
      </trkpt>
      <trkpt lat="39.78611449711024761199951171875" lon="-0.4056266136467456817626953125">
        <ele>253.600006103515625</ele>
        <time>2021-09-27T09:44:35.000Z</time>
      </trkpt>
      <trkpt lat="39.78608801029622554779052734375" lon="-0.40548470802605152130126953125">
        <ele>252.8000030517578125</ele>
        <time>2021-09-27T09:44:37.000Z</time>
      </trkpt>
      <trkpt lat="39.78607359342277050018310546875" lon="-0.40541396476328372955322265625">
        <ele>253.1999969482421875</ele>
        <time>2021-09-27T09:44:38.000Z</time>
      </trkpt>
      <trkpt lat="39.78605884127318859100341796875" lon="-0.40534355677664279937744140625">
        <ele>253.600006103515625</ele>
        <time>2021-09-27T09:44:39.000Z</time>
      </trkpt>
      <trkpt lat="39.78604308329522609710693359375" lon="-0.40527440607547760009765625">
        <ele>254</ele>
        <time>2021-09-27T09:44:40.000Z</time>
      </trkpt>
      <trkpt lat="39.7860218770802021026611328125" lon="-0.40520626120269298553466796875">
        <ele>254.399993896484375</ele>
        <time>2021-09-27T09:44:41.000Z</time>
      </trkpt>
      <trkpt lat="39.78597586043179035186767578125" lon="-0.40507433004677295684814453125">
        <ele>255.399993896484375</ele>
        <time>2021-09-27T09:44:43.000Z</time>
      </trkpt>
      <trkpt lat="39.78594685904681682586669921875" lon="-0.4050130583345890045166015625">
        <ele>256</ele>
        <time>2021-09-27T09:44:44.000Z</time>
      </trkpt>
      <trkpt lat="39.785927832126617431640625" lon="-0.40494508109986782073974609375">
        <ele>256.399993896484375</ele>
        <time>2021-09-27T09:44:45.000Z</time>
      </trkpt>
      <trkpt lat="39.78590176440775394439697265625" lon="-0.4048035107553005218505859375">
        <ele>255.1999969482421875</ele>
        <time>2021-09-27T09:44:47.000Z</time>
      </trkpt>
      <trkpt lat="39.78589086793363094329833984375" lon="-0.40473259985446929931640625">
        <ele>254.600006103515625</ele>
        <time>2021-09-27T09:44:48.000Z</time>
      </trkpt>
      <trkpt lat="39.78587360121309757232666015625" lon="-0.40466143749654293060302734375">
        <ele>254</ele>
        <time>2021-09-27T09:44:49.000Z</time>
      </trkpt>
      <trkpt lat="39.78585666976869106292724609375" lon="-0.40459119714796543121337890625">
        <ele>253.399993896484375</ele>
        <time>2021-09-27T09:44:50.000Z</time>
      </trkpt>
      <trkpt lat="39.785846360027790069580078125" lon="-0.4045178554952144622802734375">
        <ele>253</ele>
        <time>2021-09-27T09:44:51.000Z</time>
      </trkpt>
      <trkpt lat="39.78584208525717258453369140625" lon="-0.40435633622109889984130859375">
        <ele>251.8000030517578125</ele>
        <time>2021-09-27T09:44:53.000Z</time>
      </trkpt>
      <trkpt lat="39.78583638556301593780517578125" lon="-0.4042771272361278533935546875">
        <ele>251.1999969482421875</ele>
        <time>2021-09-27T09:44:54.000Z</time>
      </trkpt>
      <trkpt lat="39.78582582436501979827880859375" lon="-0.40419825352728366851806640625">
        <ele>250.600006103515625</ele>
        <time>2021-09-27T09:44:55.000Z</time>
      </trkpt>
      <trkpt lat="39.78580051101744174957275390625" lon="-0.4040457867085933685302734375">
        <ele>249.1999969482421875</ele>
        <time>2021-09-27T09:44:57.000Z</time>
      </trkpt>
      <trkpt lat="39.78577385656535625457763671875" lon="-0.403892062604427337646484375">
        <ele>247.8000030517578125</ele>
        <time>2021-09-27T09:44:59.000Z</time>
      </trkpt>
      <trkpt lat="39.78574167005717754364013671875" lon="-0.40373892523348331451416015625">
        <ele>246.1999969482421875</ele>
        <time>2021-09-27T09:45:01.000Z</time>
      </trkpt>
      <trkpt lat="39.78570831008255481719970703125" lon="-0.40358670987188816070556640625">
        <ele>244.600006103515625</ele>
        <time>2021-09-27T09:45:03.000Z</time>
      </trkpt>
      <trkpt lat="39.7856795601546764373779296875" lon="-0.40342770516872406005859375">
        <ele>243.600006103515625</ele>
        <time>2021-09-27T09:45:05.000Z</time>
      </trkpt>
      <trkpt lat="39.7856527380645275115966796875" lon="-0.40327079594135284423828125">
        <ele>243.8000030517578125</ele>
        <time>2021-09-27T09:45:07.000Z</time>
      </trkpt>
      <trkpt lat="39.7856406681239604949951171875" lon="-0.40319410152733325958251953125">
        <ele>243.8000030517578125</ele>
        <time>2021-09-27T09:45:08.000Z</time>
      </trkpt>
      <trkpt lat="39.78563010692596435546875" lon="-0.40311715565621852874755859375">
        <ele>243.8000030517578125</ele>
        <time>2021-09-27T09:45:09.000Z</time>
      </trkpt>
      <trkpt lat="39.7856128402054309844970703125" lon="-0.40296209044754505157470703125">
        <ele>243.8000030517578125</ele>
        <time>2021-09-27T09:45:11.000Z</time>
      </trkpt>
      <trkpt lat="39.785602279007434844970703125" lon="-0.40281138382852077484130859375">
        <ele>244</ele>
        <time>2021-09-27T09:45:13.000Z</time>
      </trkpt>
      <trkpt lat="39.78559699840843677520751953125" lon="-0.40273745544254779815673828125">
        <ele>244.1999969482421875</ele>
        <time>2021-09-27T09:45:14.000Z</time>
      </trkpt>
      <trkpt lat="39.78559481911361217498779296875" lon="-0.4026626050472259521484375">
        <ele>244.399993896484375</ele>
        <time>2021-09-27T09:45:15.000Z</time>
      </trkpt>
      <trkpt lat="39.7855977527797222137451171875" lon="-0.40251173079013824462890625">
        <ele>244.399993896484375</ele>
        <time>2021-09-27T09:45:17.000Z</time>
      </trkpt>
      <trkpt lat="39.785610325634479522705078125" lon="-0.40235708467662334442138671875">
        <ele>244.600006103515625</ele>
        <time>2021-09-27T09:45:19.000Z</time>
      </trkpt>
      <trkpt lat="39.7856182046234607696533203125" lon="-0.40228013880550861358642578125">
        <ele>244.600006103515625</ele>
        <time>2021-09-27T09:45:20.000Z</time>
      </trkpt>
      <trkpt lat="39.7856262512505054473876953125" lon="-0.40220235474407672882080078125">
        <ele>244.600006103515625</ele>
        <time>2021-09-27T09:45:21.000Z</time>
      </trkpt>
      <trkpt lat="39.7856456972658634185791015625" lon="-0.4020502232015132904052734375">
        <ele>245.1999969482421875</ele>
        <time>2021-09-27T09:45:23.000Z</time>
      </trkpt>
      <trkpt lat="39.78567243553698062896728515625" lon="-0.4018986783921718597412109375">
        <ele>246</ele>
        <time>2021-09-27T09:45:25.000Z</time>
      </trkpt>
      <trkpt lat="39.7857043705880641937255859375" lon="-0.40175828151404857635498046875">
        <ele>245.8000030517578125</ele>
        <time>2021-09-27T09:45:27.000Z</time>
      </trkpt>
      <trkpt lat="39.78573613800108432769775390625" lon="-0.40162215940654277801513671875">
        <ele>245.1999969482421875</ele>
        <time>2021-09-27T09:45:29.000Z</time>
      </trkpt>
      <trkpt lat="39.78576748631894588470458984375" lon="-0.4014916531741619110107421875">
        <ele>244.399993896484375</ele>
        <time>2021-09-27T09:45:31.000Z</time>
      </trkpt>
      <trkpt lat="39.7857915423810482025146484375" lon="-0.40137036703526973724365234375">
        <ele>243.8000030517578125</ele>
        <time>2021-09-27T09:45:33.000Z</time>
      </trkpt>
      <trkpt lat="39.7858066298067569732666015625" lon="-0.40131638757884502410888671875">
        <ele>243.600006103515625</ele>
        <time>2021-09-27T09:45:34.000Z</time>
      </trkpt>
      <trkpt lat="39.78581727482378482818603515625" lon="-0.401258803904056549072265625">
        <ele>244</ele>
        <time>2021-09-27T09:45:35.000Z</time>
      </trkpt>
      <trkpt lat="39.78581224568188190460205078125" lon="-0.40120683610439300537109375">
        <ele>244.399993896484375</ele>
        <time>2021-09-27T09:45:36.000Z</time>
      </trkpt>
      <trkpt lat="39.78581341914832592010498046875" lon="-0.40115478448569774627685546875">
        <ele>244.8000030517578125</ele>
        <time>2021-09-27T09:45:37.000Z</time>
      </trkpt>
      <trkpt lat="39.78583856485784053802490234375" lon="-0.40103056468069553375244140625">
        <ele>245.8000030517578125</ele>
        <time>2021-09-27T09:45:39.000Z</time>
      </trkpt>
      <trkpt lat="39.78585247881710529327392578125" lon="-0.4009719751775264739990234375">
        <ele>246.1999969482421875</ele>
        <time>2021-09-27T09:45:40.000Z</time>
      </trkpt>
      <trkpt lat="39.785864464938640594482421875" lon="-0.40091891773045063018798828125">
        <ele>246.600006103515625</ele>
        <time>2021-09-27T09:45:41.000Z</time>
      </trkpt>
      <trkpt lat="39.78588332422077655792236328125" lon="-0.40081146173179149627685546875">
        <ele>247.399993896484375</ele>
        <time>2021-09-27T09:45:43.000Z</time>
      </trkpt>
      <trkpt lat="39.78589455597102642059326171875" lon="-0.40069344453513622283935546875">
        <ele>248</ele>
        <time>2021-09-27T09:45:45.000Z</time>
      </trkpt>
      <trkpt lat="39.78590545244514942169189453125" lon="-0.40063175372779369354248046875">
        <ele>248.399993896484375</ele>
        <time>2021-09-27T09:45:46.000Z</time>
      </trkpt>
      <trkpt lat="39.785916768014430999755859375" lon="-0.4005703143775463104248046875">
        <ele>248.8000030517578125</ele>
        <time>2021-09-27T09:45:47.000Z</time>
      </trkpt>
      <trkpt lat="39.78594233281910419464111328125" lon="-0.4004482738673686981201171875">
        <ele>249.600006103515625</ele>
        <time>2021-09-27T09:45:49.000Z</time>
      </trkpt>
      <trkpt lat="39.78595658205449581146240234375" lon="-0.40038851089775562286376953125">
        <ele>250.1999969482421875</ele>
        <time>2021-09-27T09:45:50.000Z</time>
      </trkpt>
      <trkpt lat="39.78598206304013729095458984375" lon="-0.40032480843365192413330078125">
        <ele>251</ele>
        <time>2021-09-27T09:45:51.000Z</time>
      </trkpt>
      <trkpt lat="39.78601307608187198638916015625" lon="-0.400202013552188873291015625">
        <ele>252.1999969482421875</ele>
        <time>2021-09-27T09:45:53.000Z</time>
      </trkpt>
      <trkpt lat="39.78603369556367397308349609375" lon="-0.4000850021839141845703125">
        <ele>253.1999969482421875</ele>
        <time>2021-09-27T09:45:55.000Z</time>
      </trkpt>
      <trkpt lat="39.78605381213128566741943359375" lon="-0.39995902217924594879150390625">
        <ele>254.399993896484375</ele>
        <time>2021-09-27T09:45:57.000Z</time>
      </trkpt>
      <trkpt lat="39.78606554679572582244873046875" lon="-0.39983488619327545166015625">
        <ele>255.600006103515625</ele>
        <time>2021-09-27T09:45:59.000Z</time>
      </trkpt>
      <trkpt lat="39.78607602417469024658203125" lon="-0.39976875297725200653076171875">
        <ele>256.20001220703125</ele>
        <time>2021-09-27T09:46:00.000Z</time>
      </trkpt>
      <trkpt lat="39.78608750738203525543212890625" lon="-0.39970320649445056915283203125">
        <ele>256.79998779296875</ele>
        <time>2021-09-27T09:46:01.000Z</time>
      </trkpt>
      <trkpt lat="39.78610552847385406494140625" lon="-0.39957596920430660247802734375">
        <ele>257.600006103515625</ele>
        <time>2021-09-27T09:46:03.000Z</time>
      </trkpt>
      <trkpt lat="39.78612723760306835174560546875" lon="-0.3994421102106571197509765625">
        <ele>258.20001220703125</ele>
        <time>2021-09-27T09:46:05.000Z</time>
      </trkpt>
      <trkpt lat="39.7861539758741855621337890625" lon="-0.39930188097059726715087890625">
        <ele>258.79998779296875</ele>
        <time>2021-09-27T09:46:07.000Z</time>
      </trkpt>
      <trkpt lat="39.78618389926850795745849609375" lon="-0.399152599275112152099609375">
        <ele>259.600006103515625</ele>
        <time>2021-09-27T09:46:09.000Z</time>
      </trkpt>
      <trkpt lat="39.78619806468486785888671875" lon="-0.39907925762236118316650390625">
        <ele>260</ele>
        <time>2021-09-27T09:46:10.000Z</time>
      </trkpt>
      <trkpt lat="39.786206781864166259765625" lon="-0.39901119656860828399658203125">
        <ele>260.20001220703125</ele>
        <time>2021-09-27T09:46:11.000Z</time>
      </trkpt>
      <trkpt lat="39.78624768555164337158203125" lon="-0.3988697938621044158935546875">
        <ele>260.399993896484375</ele>
        <time>2021-09-27T09:46:13.000Z</time>
      </trkpt>
      <trkpt lat="39.78628096170723438262939453125" lon="-0.3987343423068523406982421875">
        <ele>260.20001220703125</ele>
        <time>2021-09-27T09:46:15.000Z</time>
      </trkpt>
      <trkpt lat="39.78629286400973796844482421875" lon="-0.3986634314060211181640625">
        <ele>260.20001220703125</ele>
        <time>2021-09-27T09:46:16.000Z</time>
      </trkpt>
      <trkpt lat="39.78630174882709980010986328125" lon="-0.398596040904521942138671875">
        <ele>260</ele>
        <time>2021-09-27T09:46:17.000Z</time>
      </trkpt>
      <trkpt lat="39.78631331585347652435302734375" lon="-0.39852588437497615814208984375">
        <ele>260</ele>
        <time>2021-09-27T09:46:18.000Z</time>
      </trkpt>
      <trkpt lat="39.78632924146950244903564453125" lon="-0.398451201617717742919921875">
        <ele>259.79998779296875</ele>
        <time>2021-09-27T09:46:19.000Z</time>
      </trkpt>
      <trkpt lat="39.78636461310088634490966796875" lon="-0.39830242283642292022705078125">
        <ele>259.399993896484375</ele>
        <time>2021-09-27T09:46:21.000Z</time>
      </trkpt>
      <trkpt lat="39.78638204745948314666748046875" lon="-0.3982274048030376434326171875">
        <ele>259.20001220703125</ele>
        <time>2021-09-27T09:46:22.000Z</time>
      </trkpt>
      <trkpt lat="39.78639529086649417877197265625" lon="-0.39815657772123813629150390625">
        <ele>259</ele>
        <time>2021-09-27T09:46:23.000Z</time>
      </trkpt>
      <trkpt lat="39.7864258848130702972412109375" lon="-0.398025400936603546142578125">
        <ele>258.79998779296875</ele>
        <time>2021-09-27T09:46:25.000Z</time>
      </trkpt>
      <trkpt lat="39.786445833742618560791015625" lon="-0.39795641787350177764892578125">
        <ele>258.399993896484375</ele>
        <time>2021-09-27T09:46:26.000Z</time>
      </trkpt>
      <trkpt lat="39.7864550538361072540283203125" lon="-0.397893302142620086669921875">
        <ele>258.20001220703125</ele>
        <time>2021-09-27T09:46:27.000Z</time>
      </trkpt>
      <trkpt lat="39.786468632519245147705078125" lon="-0.39783270098268985748291015625">
        <ele>257.79998779296875</ele>
        <time>2021-09-27T09:46:28.000Z</time>
      </trkpt>
      <trkpt lat="39.7864778526127338409423828125" lon="-0.39777335710823535919189453125">
        <ele>257.600006103515625</ele>
        <time>2021-09-27T09:46:29.000Z</time>
      </trkpt>
      <trkpt lat="39.78651523590087890625" lon="-0.3976463712751865386962890625">
        <ele>257</ele>
        <time>2021-09-27T09:46:31.000Z</time>
      </trkpt>
      <trkpt lat="39.78658572770655155181884765625" lon="-0.3975152783095836639404296875">
        <ele>255.8000030517578125</ele>
        <time>2021-09-27T09:46:33.000Z</time>
      </trkpt>
      <trkpt lat="39.7866426408290863037109375" lon="-0.39740438573062419891357421875">
        <ele>254.8000030517578125</ele>
        <time>2021-09-27T09:46:35.000Z</time>
      </trkpt>
      <trkpt lat="39.78668195195496082305908203125" lon="-0.397286452353000640869140625">
        <ele>254</ele>
        <time>2021-09-27T09:46:37.000Z</time>
      </trkpt>
      <trkpt lat="39.7867034934461116790771484375" lon="-0.39722819812595844268798828125">
        <ele>253.600006103515625</ele>
        <time>2021-09-27T09:46:38.000Z</time>
      </trkpt>
      <trkpt lat="39.78672453202307224273681640625" lon="-0.3971766494214534759521484375">
        <ele>253.1999969482421875</ele>
        <time>2021-09-27T09:46:39.000Z</time>
      </trkpt>
      <trkpt lat="39.78676778264343738555908203125" lon="-0.3970961831510066986083984375">
        <ele>252.8000030517578125</ele>
        <time>2021-09-27T09:46:41.000Z</time>
      </trkpt>
      <trkpt lat="39.7868268750607967376708984375" lon="-0.397061146795749664306640625">
        <ele>252.399993896484375</ele>
        <time>2021-09-27T09:46:43.000Z</time>
      </trkpt>
      <trkpt lat="39.78691530413925647735595703125" lon="-0.39707799442112445831298828125">
        <ele>251.399993896484375</ele>
        <time>2021-09-27T09:46:45.000Z</time>
      </trkpt>
      <trkpt lat="39.78696844540536403656005859375" lon="-0.3970978595316410064697265625">
        <ele>250.8000030517578125</ele>
        <time>2021-09-27T09:46:46.000Z</time>
      </trkpt>
      <trkpt lat="39.78702150285243988037109375" lon="-0.39711604826152324676513671875">
        <ele>250.399993896484375</ele>
        <time>2021-09-27T09:46:47.000Z</time>
      </trkpt>
      <trkpt lat="39.787139855325222015380859375" lon="-0.39714018814265727996826171875">
        <ele>249.600006103515625</ele>
        <time>2021-09-27T09:46:49.000Z</time>
      </trkpt>
      <trkpt lat="39.78726231493055820465087890625" lon="-0.397138260304927825927734375">
        <ele>249</ele>
        <time>2021-09-27T09:46:51.000Z</time>
      </trkpt>
      <trkpt lat="39.7873507440090179443359375" lon="-0.39709442295134067535400390625">
        <ele>248.600006103515625</ele>
        <time>2021-09-27T09:46:53.000Z</time>
      </trkpt>
      <trkpt lat="39.7873857803642749786376953125" lon="-0.39708134718239307403564453125">
        <ele>248.600006103515625</ele>
        <time>2021-09-27T09:46:54.000Z</time>
      </trkpt>
      <trkpt lat="39.78741712868213653564453125" lon="-0.39707933552563190460205078125">
        <ele>248.399993896484375</ele>
        <time>2021-09-27T09:46:55.000Z</time>
      </trkpt>
      <trkpt lat="39.787445627152919769287109375" lon="-0.39707045070827007293701171875">
        <ele>248.1999969482421875</ele>
        <time>2021-09-27T09:46:56.000Z</time>
      </trkpt>
      <trkpt lat="39.78746817447245121002197265625" lon="-0.39704832248389720916748046875">
        <ele>248.1999969482421875</ele>
        <time>2021-09-27T09:46:57.000Z</time>
      </trkpt>
      <trkpt lat="39.7874846868216991424560546875" lon="-0.39701077155768871307373046875">
        <ele>248.1999969482421875</ele>
        <time>2021-09-27T09:46:58.000Z</time>
      </trkpt>
      <trkpt lat="39.7874917276203632354736328125" lon="-0.39696986787021160125732421875">
        <ele>248.1999969482421875</ele>
        <time>2021-09-27T09:46:59.000Z</time>
      </trkpt>
      <trkpt lat="39.7874967567622661590576171875" lon="-0.3969204984605312347412109375">
        <ele>248.399993896484375</ele>
        <time>2021-09-27T09:47:00.000Z</time>
      </trkpt>
      <trkpt lat="39.7875011153519153594970703125" lon="-0.39687934331595897674560546875">
        <ele>248.399993896484375</ele>
        <time>2021-09-27T09:47:01.000Z</time>
      </trkpt>
      <trkpt lat="39.7875034622848033905029296875" lon="-0.39678362198173999786376953125">
        <ele>248.600006103515625</ele>
        <time>2021-09-27T09:47:03.000Z</time>
      </trkpt>
      <trkpt lat="39.787500612437725067138671875" lon="-0.3967243619263172149658203125">
        <ele>248.8000030517578125</ele>
        <time>2021-09-27T09:47:04.000Z</time>
      </trkpt>
      <trkpt lat="39.78750706650316715240478515625" lon="-0.39666451513767242431640625">
        <ele>249</ele>
        <time>2021-09-27T09:47:05.000Z</time>
      </trkpt>
      <trkpt lat="39.78750119917094707489013671875" lon="-0.39654624648392200469970703125">
        <ele>249.1999969482421875</ele>
        <time>2021-09-27T09:47:07.000Z</time>
      </trkpt>
      <trkpt lat="39.787504971027374267578125" lon="-0.3964801132678985595703125">
        <ele>249.399993896484375</ele>
        <time>2021-09-27T09:47:08.000Z</time>
      </trkpt>
      <trkpt lat="39.7875172086060047149658203125" lon="-0.39641096256673336029052734375">
        <ele>249.600006103515625</ele>
        <time>2021-09-27T09:47:09.000Z</time>
      </trkpt>
      <trkpt lat="39.787526428699493408203125" lon="-0.39627467282116413116455078125">
        <ele>249.8000030517578125</ele>
        <time>2021-09-27T09:47:11.000Z</time>
      </trkpt>
      <trkpt lat="39.78751838207244873046875" lon="-0.3961389698088169097900390625">
        <ele>249.8000030517578125</ele>
        <time>2021-09-27T09:47:13.000Z</time>
      </trkpt>
      <trkpt lat="39.78750991635024547576904296875" lon="-0.396010391414165496826171875">
        <ele>249.8000030517578125</ele>
        <time>2021-09-27T09:47:15.000Z</time>
      </trkpt>
      <trkpt lat="39.787505306303501129150390625" lon="-0.39594677276909351348876953125">
        <ele>249.8000030517578125</ele>
        <time>2021-09-27T09:47:16.000Z</time>
      </trkpt>
      <trkpt lat="39.78749935515224933624267578125" lon="-0.39588608779013156890869140625">
        <ele>249.8000030517578125</ele>
        <time>2021-09-27T09:47:17.000Z</time>
      </trkpt>
      <trkpt lat="39.78749767877161502838134765625" lon="-0.3958254866302013397216796875">
        <ele>249.8000030517578125</ele>
        <time>2021-09-27T09:47:18.000Z</time>
      </trkpt>
      <trkpt lat="39.78749834932386875152587890625" lon="-0.39576203562319278717041015625">
        <ele>250</ele>
        <time>2021-09-27T09:47:19.000Z</time>
      </trkpt>
      <trkpt lat="39.78748552501201629638671875" lon="-0.3956417553126811981201171875">
        <ele>250.1999969482421875</ele>
        <time>2021-09-27T09:47:21.000Z</time>
      </trkpt>
      <trkpt lat="39.787460379302501678466796875" lon="-0.39553019218146800994873046875">
        <ele>250.399993896484375</ele>
        <time>2021-09-27T09:47:23.000Z</time>
      </trkpt>
      <trkpt lat="39.7874531708657741546630859375" lon="-0.39547034539282321929931640625">
        <ele>250.600006103515625</ele>
        <time>2021-09-27T09:47:24.000Z</time>
      </trkpt>
      <trkpt lat="39.78745006956160068511962890625" lon="-0.3954114206135272979736328125">
        <ele>250.600006103515625</ele>
        <time>2021-09-27T09:47:25.000Z</time>
      </trkpt>
      <trkpt lat="39.7874494828283786773681640625" lon="-0.395348556339740753173828125">
        <ele>250.600006103515625</ele>
        <time>2021-09-27T09:47:26.000Z</time>
      </trkpt>
      <trkpt lat="39.7874521650373935699462890625" lon="-0.39528292603790760040283203125">
        <ele>250.600006103515625</ele>
        <time>2021-09-27T09:47:27.000Z</time>
      </trkpt>
      <trkpt lat="39.78746599517762660980224609375" lon="-0.39515116252005100250244140625">
        <ele>250.399993896484375</ele>
        <time>2021-09-27T09:47:29.000Z</time>
      </trkpt>
      <trkpt lat="39.7874796576797962188720703125" lon="-0.3950251825153827667236328125">
        <ele>250.399993896484375</ele>
        <time>2021-09-27T09:47:31.000Z</time>
      </trkpt>
      <trkpt lat="39.78748661465942859649658203125" lon="-0.39496558718383312225341796875">
        <ele>250.1999969482421875</ele>
        <time>2021-09-27T09:47:32.000Z</time>
      </trkpt>
      <trkpt lat="39.78749214671552181243896484375" lon="-0.3949041478335857391357421875">
        <ele>250</ele>
        <time>2021-09-27T09:47:33.000Z</time>
      </trkpt>
      <trkpt lat="39.78749767877161502838134765625" lon="-0.3947797603905200958251953125">
        <ele>249.600006103515625</ele>
        <time>2021-09-27T09:47:35.000Z</time>
      </trkpt>
      <trkpt lat="39.78748661465942859649658203125" lon="-0.39467490278184413909912109375">
        <ele>249.399993896484375</ele>
        <time>2021-09-27T09:47:37.000Z</time>
      </trkpt>
      <trkpt lat="39.787478148937225341796875" lon="-0.3946372680366039276123046875">
        <ele>249.399993896484375</ele>
        <time>2021-09-27T09:47:38.000Z</time>
      </trkpt>
      <trkpt lat="39.7874722816050052642822265625" lon="-0.3945966996252536773681640625">
        <ele>249.600006103515625</ele>
        <time>2021-09-27T09:47:39.000Z</time>
      </trkpt>
      <trkpt lat="39.78746716864407062530517578125" lon="-0.39450240321457386016845703125">
        <ele>249.600006103515625</ele>
        <time>2021-09-27T09:47:41.000Z</time>
      </trkpt>
      <trkpt lat="39.78746448643505573272705078125" lon="-0.39444825612008571624755859375">
        <ele>249.8000030517578125</ele>
        <time>2021-09-27T09:47:42.000Z</time>
      </trkpt>
      <trkpt lat="39.7874592058360576629638671875" lon="-0.39438857696950435638427734375">
        <ele>249.8000030517578125</ele>
        <time>2021-09-27T09:47:43.000Z</time>
      </trkpt>
      <trkpt lat="39.78744001127779483795166015625" lon="-0.39428279735147953033447265625">
        <ele>250</ele>
        <time>2021-09-27T09:47:45.000Z</time>
      </trkpt>
      <trkpt lat="39.7874005325138568878173828125" lon="-0.39418791420757770538330078125">
        <ele>250.399993896484375</ele>
        <time>2021-09-27T09:47:47.000Z</time>
      </trkpt>
      <trkpt lat="39.7873784042894840240478515625" lon="-0.39414768107235431671142578125">
        <ele>250.600006103515625</ele>
        <time>2021-09-27T09:47:48.000Z</time>
      </trkpt>
      <trkpt lat="39.78735133074223995208740234375" lon="-0.39411515928804874420166015625">
        <ele>250.8000030517578125</ele>
        <time>2021-09-27T09:47:49.000Z</time>
      </trkpt>
      <trkpt lat="39.7872902266681194305419921875" lon="-0.39405631832778453826904296875">
        <ele>251.1999969482421875</ele>
        <time>2021-09-27T09:47:51.000Z</time>
      </trkpt>
      <trkpt lat="39.78722761385142803192138671875" lon="-0.394017510116100311279296875">
        <ele>251.600006103515625</ele>
        <time>2021-09-27T09:47:53.000Z</time>
      </trkpt>
      <trkpt lat="39.78716039098799228668212890625" lon="-0.39399035274982452392578125">
        <ele>252</ele>
        <time>2021-09-27T09:47:55.000Z</time>
      </trkpt>
      <trkpt lat="39.78711479343473911285400390625" lon="-0.39395070634782314300537109375">
        <ele>252.399993896484375</ele>
        <time>2021-09-27T09:47:57.000Z</time>
      </trkpt>
      <trkpt lat="39.78707724250853061676025390625" lon="-0.3938771970570087432861328125">
        <ele>252.8000030517578125</ele>
        <time>2021-09-27T09:47:59.000Z</time>
      </trkpt>
      <trkpt lat="39.78703466244041919708251953125" lon="-0.393763370811939239501953125">
        <ele>253.1999969482421875</ele>
        <time>2021-09-27T09:48:01.000Z</time>
      </trkpt>
      <trkpt lat="39.786996357142925262451171875" lon="-0.39361341856420040130615234375">
        <ele>253.8000030517578125</ele>
        <time>2021-09-27T09:48:03.000Z</time>
      </trkpt>
      <trkpt lat="39.78696383535861968994140625" lon="-0.393457598984241485595703125">
        <ele>254.1999969482421875</ele>
        <time>2021-09-27T09:48:05.000Z</time>
      </trkpt>
      <trkpt lat="39.78694581426680088043212890625" lon="-0.3933863528072834014892578125">
        <ele>254.399993896484375</ele>
        <time>2021-09-27T09:48:06.000Z</time>
      </trkpt>
      <trkpt lat="39.78692955337464809417724609375" lon="-0.39331804029643535614013671875">
        <ele>254.8000030517578125</ele>
        <time>2021-09-27T09:48:07.000Z</time>
      </trkpt>
      <trkpt lat="39.78689275681972503662109375" lon="-0.39319130592048168182373046875">
        <ele>255.1999969482421875</ele>
        <time>2021-09-27T09:48:09.000Z</time>
      </trkpt>
      <trkpt lat="39.7868815250694751739501953125" lon="-0.393127687275409698486328125">
        <ele>255.399993896484375</ele>
        <time>2021-09-27T09:48:10.000Z</time>
      </trkpt>
      <trkpt lat="39.78686870075762271881103515625" lon="-0.393068678677082061767578125">
        <ele>255.600006103515625</ele>
        <time>2021-09-27T09:48:11.000Z</time>
      </trkpt>
      <trkpt lat="39.7868332453072071075439453125" lon="-0.39296264760196208953857421875">
        <ele>256</ele>
        <time>2021-09-27T09:48:13.000Z</time>
      </trkpt>
      <trkpt lat="39.786802232265472412109375" lon="-0.39286918938159942626953125">
        <ele>256</ele>
        <time>2021-09-27T09:48:15.000Z</time>
      </trkpt>
      <trkpt lat="39.78677314706146717071533203125" lon="-0.3928395174443721771240234375">
        <ele>256.20001220703125</ele>
        <time>2021-09-27T09:48:16.000Z</time>
      </trkpt>
      <trkpt lat="39.78673006407916545867919921875" lon="-0.3928215801715850830078125">
        <ele>256.399993896484375</ele>
        <time>2021-09-27T09:48:17.000Z</time>
      </trkpt>
      <trkpt lat="39.78668279014527797698974609375" lon="-0.39280137978494167327880859375">
        <ele>256.79998779296875</ele>
        <time>2021-09-27T09:48:18.000Z</time>
      </trkpt>
      <trkpt lat="39.7866319119930267333984375" lon="-0.39277791045606136322021484375">
        <ele>257.20001220703125</ele>
        <time>2021-09-27T09:48:19.000Z</time>
      </trkpt>
      <trkpt lat="39.78660433553159236907958984375" lon="-0.39273985661566257476806640625">
        <ele>257.399993896484375</ele>
        <time>2021-09-27T09:48:20.000Z</time>
      </trkpt>
      <trkpt lat="39.7866304032504558563232421875" lon="-0.392678417265415191650390625">
        <ele>257</ele>
        <time>2021-09-27T09:48:21.000Z</time>
      </trkpt>
      <trkpt lat="39.78661875240504741668701171875" lon="-0.39257959462702274322509765625">
        <ele>256.600006103515625</ele>
        <time>2021-09-27T09:48:23.000Z</time>
      </trkpt>
      <trkpt lat="39.786594025790691375732421875" lon="-0.392480604350566864013671875">
        <ele>257</ele>
        <time>2021-09-27T09:48:25.000Z</time>
      </trkpt>
      <trkpt lat="39.786560833454132080078125" lon="-0.39239401929080486297607421875">
        <ele>257.399993896484375</ele>
        <time>2021-09-27T09:48:27.000Z</time>
      </trkpt>
      <trkpt lat="39.78653292171657085418701171875" lon="-0.3923151455819606781005859375">
        <ele>257.79998779296875</ele>
        <time>2021-09-27T09:48:29.000Z</time>
      </trkpt>
      <trkpt lat="39.78650475852191448211669921875" lon="-0.39224934764206409454345703125">
        <ele>258.20001220703125</ele>
        <time>2021-09-27T09:48:31.000Z</time>
      </trkpt>
      <trkpt lat="39.786497466266155242919921875" lon="-0.39222135208547115325927734375">
        <ele>258.20001220703125</ele>
        <time>2021-09-27T09:48:32.000Z</time>
      </trkpt>
      <trkpt lat="39.7864817082881927490234375" lon="-0.39218916557729244232177734375">
        <ele>258.399993896484375</ele>
        <time>2021-09-27T09:48:33.000Z</time>
      </trkpt>
      <trkpt lat="39.78644373826682567596435546875" lon="-0.39212948642671108245849609375">
        <ele>259</ele>
        <time>2021-09-27T09:48:35.000Z</time>
      </trkpt>
      <trkpt lat="39.7864235378801822662353515625" lon="-0.39209805428981781005859375">
        <ele>259.20001220703125</ele>
        <time>2021-09-27T09:48:36.000Z</time>
      </trkpt>
      <trkpt lat="39.7863993979990482330322265625" lon="-0.39206544868648052215576171875">
        <ele>259.399993896484375</ele>
        <time>2021-09-27T09:48:37.000Z</time>
      </trkpt>
      <trkpt lat="39.78637165389955043792724609375" lon="-0.39203074760735034942626953125">
        <ele>259.79998779296875</ele>
        <time>2021-09-27T09:48:38.000Z</time>
      </trkpt>
      <trkpt lat="39.78634667582809925079345703125" lon="-0.3919939510524272918701171875">
        <ele>260</ele>
        <time>2021-09-27T09:48:39.000Z</time>
      </trkpt>
      <trkpt lat="39.7863242961466312408447265625" lon="-0.39194726385176181793212890625">
        <ele>259.79998779296875</ele>
        <time>2021-09-27T09:48:40.000Z</time>
      </trkpt>
      <trkpt lat="39.78630241937935352325439453125" lon="-0.3918994031846523284912109375">
        <ele>259.600006103515625</ele>
        <time>2021-09-27T09:48:41.000Z</time>
      </trkpt>
      <trkpt lat="39.78625413961708545684814453125" lon="-0.39180980063974857330322265625">
        <ele>259.20001220703125</ele>
        <time>2021-09-27T09:48:43.000Z</time>
      </trkpt>
      <trkpt lat="39.786200411617755889892578125" lon="-0.3917139954864978790283203125">
        <ele>259</ele>
        <time>2021-09-27T09:48:45.000Z</time>
      </trkpt>
      <trkpt lat="39.78615120984613895416259765625" lon="-0.39162204600870609283447265625">
        <ele>258.79998779296875</ele>
        <time>2021-09-27T09:48:47.000Z</time>
      </trkpt>
      <trkpt lat="39.78612522594630718231201171875" lon="-0.3915761969983577728271484375">
        <ele>258.600006103515625</ele>
        <time>2021-09-27T09:48:48.000Z</time>
      </trkpt>
      <trkpt lat="39.78609605692327022552490234375" lon="-0.391532443463802337646484375">
        <ele>258.600006103515625</ele>
        <time>2021-09-27T09:48:49.000Z</time>
      </trkpt>
      <trkpt lat="39.78606873191893100738525390625" lon="-0.39148692972958087921142578125">
        <ele>258.399993896484375</ele>
        <time>2021-09-27T09:48:50.000Z</time>
      </trkpt>
      <trkpt lat="39.78603956289589405059814453125" lon="-0.391444601118564605712890625">
        <ele>258.600006103515625</ele>
        <time>2021-09-27T09:48:51.000Z</time>
      </trkpt>
      <trkpt lat="39.78596513159573078155517578125" lon="-0.39135751314461231231689453125">
        <ele>259.20001220703125</ele>
        <time>2021-09-27T09:48:53.000Z</time>
      </trkpt>
      <trkpt lat="39.78592825122177600860595703125" lon="-0.39131350815296173095703125">
        <ele>259.399993896484375</ele>
        <time>2021-09-27T09:48:54.000Z</time>
      </trkpt>
      <trkpt lat="39.7858931310474872589111328125" lon="-0.391270928084850311279296875">
        <ele>259.79998779296875</ele>
        <time>2021-09-27T09:48:55.000Z</time>
      </trkpt>
      <trkpt lat="39.785831272602081298828125" lon="-0.39117981679737567901611328125">
        <ele>260.20001220703125</ele>
        <time>2021-09-27T09:48:57.000Z</time>
      </trkpt>
      <trkpt lat="39.7857952304184436798095703125" lon="-0.391136147081851959228515625">
        <ele>260.600006103515625</ele>
        <time>2021-09-27T09:48:58.000Z</time>
      </trkpt>
      <trkpt lat="39.78576027788221836090087890625" lon="-0.39109348319470882415771484375">
        <ele>261</ele>
        <time>2021-09-27T09:48:59.000Z</time>
      </trkpt>
      <trkpt lat="39.7857306897640228271484375" lon="-0.39105065166950225830078125">
        <ele>261.20001220703125</ele>
        <time>2021-09-27T09:49:00.000Z</time>
      </trkpt>
      <trkpt lat="39.78569624014198780059814453125" lon="-0.3910045512020587921142578125">
        <ele>261.399993896484375</ele>
        <time>2021-09-27T09:49:01.000Z</time>
      </trkpt>
      <trkpt lat="39.78562750853598117828369140625" lon="-0.39091075770556926727294921875">
        <ele>261.79998779296875</ele>
        <time>2021-09-27T09:49:03.000Z</time>
      </trkpt>
      <trkpt lat="39.7855930589139461517333984375" lon="-0.3908674232661724090576171875">
        <ele>262</ele>
        <time>2021-09-27T09:49:04.000Z</time>
      </trkpt>
      <trkpt lat="39.7855581901967525482177734375" lon="-0.39082442410290241241455078125">
        <ele>262.399993896484375</ele>
        <time>2021-09-27T09:49:05.000Z</time>
      </trkpt>
      <trkpt lat="39.78548635728657245635986328125" lon="-0.39073205552995204925537109375">
        <ele>262.79998779296875</ele>
        <time>2021-09-27T09:49:07.000Z</time>
      </trkpt>
      <trkpt lat="39.785419888794422149658203125" lon="-0.39063868112862110137939453125">
        <ele>263.20001220703125</ele>
        <time>2021-09-27T09:49:09.000Z</time>
      </trkpt>
      <trkpt lat="39.785346798598766326904296875" lon="-0.39054899476468563079833984375">
        <ele>263.20001220703125</ele>
        <time>2021-09-27T09:49:11.000Z</time>
      </trkpt>
      <trkpt lat="39.78526624850928783416748046875" lon="-0.39047171361744403839111328125">
        <ele>263</ele>
        <time>2021-09-27T09:49:13.000Z</time>
      </trkpt>
      <trkpt lat="39.7852027975022792816162109375" lon="-0.39038135670125484466552734375">
        <ele>262.399993896484375</ele>
        <time>2021-09-27T09:49:15.000Z</time>
      </trkpt>
      <trkpt lat="39.785142280161380767822265625" lon="-0.39029435254633426666259765625">
        <ele>261.79998779296875</ele>
        <time>2021-09-27T09:49:17.000Z</time>
      </trkpt>
      <trkpt lat="39.7850723750889301300048828125" lon="-0.390210784971714019775390625">
        <ele>261</ele>
        <time>2021-09-27T09:49:19.000Z</time>
      </trkpt>
      <trkpt lat="39.78500037454068660736083984375" lon="-0.39012528955936431884765625">
        <ele>260.399993896484375</ele>
        <time>2021-09-27T09:49:21.000Z</time>
      </trkpt>
      <trkpt lat="39.78493600152432918548583984375" lon="-0.39003116078674793243408203125">
        <ele>260</ele>
        <time>2021-09-27T09:49:23.000Z</time>
      </trkpt>
      <trkpt lat="39.78486844338476657867431640625" lon="-0.38993996568024158477783203125">
        <ele>260.20001220703125</ele>
        <time>2021-09-27T09:49:25.000Z</time>
      </trkpt>
      <trkpt lat="39.78479971177875995635986328125" lon="-0.389851033687591552734375">
        <ele>260.20001220703125</ele>
        <time>2021-09-27T09:49:27.000Z</time>
      </trkpt>
      <trkpt lat="39.78471991606056690216064453125" lon="-0.3897693939507007598876953125">
        <ele>260.399993896484375</ele>
        <time>2021-09-27T09:49:29.000Z</time>
      </trkpt>
      <trkpt lat="39.78467633016407489776611328125" lon="-0.38973075337707996368408203125">
        <ele>260.600006103515625</ele>
        <time>2021-09-27T09:49:30.000Z</time>
      </trkpt>
      <trkpt lat="39.784640036523342132568359375" lon="-0.3896832279860973358154296875">
        <ele>260.600006103515625</ele>
        <time>2021-09-27T09:49:31.000Z</time>
      </trkpt>
      <trkpt lat="39.78456401266157627105712890625" lon="-0.38958440534770488739013671875">
        <ele>260.600006103515625</ele>
        <time>2021-09-27T09:49:33.000Z</time>
      </trkpt>
      <trkpt lat="39.78450081311166286468505859375" lon="-0.389483906328678131103515625">
        <ele>259.399993896484375</ele>
        <time>2021-09-27T09:49:35.000Z</time>
      </trkpt>
      <trkpt lat="39.784476421773433685302734375" lon="-0.38943269290030002593994140625">
        <ele>258.79998779296875</ele>
        <time>2021-09-27T09:49:36.000Z</time>
      </trkpt>
      <trkpt lat="39.78444255888462066650390625" lon="-0.38938106037676334381103515625">
        <ele>258</ele>
        <time>2021-09-27T09:49:37.000Z</time>
      </trkpt>
      <trkpt lat="39.784369803965091705322265625" lon="-0.38928517140448093414306640625">
        <ele>256.600006103515625</ele>
        <time>2021-09-27T09:49:39.000Z</time>
      </trkpt>
      <trkpt lat="39.784292690455913543701171875" lon="-0.389192216098308563232421875">
        <ele>255.1999969482421875</ele>
        <time>2021-09-27T09:49:41.000Z</time>
      </trkpt>
      <trkpt lat="39.78420652449131011962890625" lon="-0.38909188471734523773193359375">
        <ele>254</ele>
        <time>2021-09-27T09:49:43.000Z</time>
      </trkpt>
      <trkpt lat="39.78411130607128143310546875" lon="-0.38898979313671588897705078125">
        <ele>253</ele>
        <time>2021-09-27T09:49:45.000Z</time>
      </trkpt>
      <trkpt lat="39.78405640460550785064697265625" lon="-0.38894184865057468414306640625">
        <ele>252.600006103515625</ele>
        <time>2021-09-27T09:49:46.000Z</time>
      </trkpt>
      <trkpt lat="39.78400946594774723052978515625" lon="-0.3888842649757862091064453125">
        <ele>252</ele>
        <time>2021-09-27T09:49:47.000Z</time>
      </trkpt>
      <trkpt lat="39.7839099727571010589599609375" lon="-0.38875945843756198883056640625">
        <ele>250.8000030517578125</ele>
        <time>2021-09-27T09:49:49.000Z</time>
      </trkpt>
      <trkpt lat="39.7838046960532665252685546875" lon="-0.38862836547195911407470703125">
        <ele>249.600006103515625</ele>
        <time>2021-09-27T09:49:51.000Z</time>
      </trkpt>
      <trkpt lat="39.7836987487971782684326171875" lon="-0.3884953446686267852783203125">
        <ele>249.1999969482421875</ele>
        <time>2021-09-27T09:49:53.000Z</time>
      </trkpt>
      <trkpt lat="39.7835876047611236572265625" lon="-0.388363413512706756591796875">
        <ele>248.1999969482421875</ele>
        <time>2021-09-27T09:49:55.000Z</time>
      </trkpt>
      <trkpt lat="39.78347352705895900726318359375" lon="-0.38822620175778865814208984375">
        <ele>247.1999969482421875</ele>
        <time>2021-09-27T09:49:57.000Z</time>
      </trkpt>
      <trkpt lat="39.7834181226789951324462890625" lon="-0.38816191256046295166015625">
        <ele>247</ele>
        <time>2021-09-27T09:49:58.000Z</time>
      </trkpt>
      <trkpt lat="39.783363640308380126953125" lon="-0.3880977071821689605712890625">
        <ele>246.8000030517578125</ele>
        <time>2021-09-27T09:49:59.000Z</time>
      </trkpt>
      <trkpt lat="39.78326163254678249359130859375" lon="-0.387957729399204254150390625">
        <ele>246.1999969482421875</ele>
        <time>2021-09-27T09:50:01.000Z</time>
      </trkpt>
      <trkpt lat="39.7831629775464534759521484375" lon="-0.38782353512942790985107421875">
        <ele>245.399993896484375</ele>
        <time>2021-09-27T09:50:03.000Z</time>
      </trkpt>
      <trkpt lat="39.78305392898619174957275390625" lon="-0.38769646547734737396240234375">
        <ele>244.600006103515625</ele>
        <time>2021-09-27T09:50:05.000Z</time>
      </trkpt>
      <trkpt lat="39.78294052183628082275390625" lon="-0.38756486959755420684814453125">
        <ele>243.8000030517578125</ele>
        <time>2021-09-27T09:50:07.000Z</time>
      </trkpt>
      <trkpt lat="39.78282795287668704986572265625" lon="-0.38742925040423870086669921875">
        <ele>243</ele>
        <time>2021-09-27T09:50:09.000Z</time>
      </trkpt>
      <trkpt lat="39.782713539898395538330078125" lon="-0.3872908651828765869140625">
        <ele>242.8000030517578125</ele>
        <time>2021-09-27T09:50:11.000Z</time>
      </trkpt>
      <trkpt lat="39.78265696205198764801025390625" lon="-0.38721936754882335662841796875">
        <ele>243.399993896484375</ele>
        <time>2021-09-27T09:50:12.000Z</time>
      </trkpt>
      <trkpt lat="39.782599546015262603759765625" lon="-0.3871451877057552337646484375">
        <ele>244</ele>
        <time>2021-09-27T09:50:13.000Z</time>
      </trkpt>
      <trkpt lat="39.78248655796051025390625" lon="-0.38700093515217304229736328125">
        <ele>244.600006103515625</ele>
        <time>2021-09-27T09:50:15.000Z</time>
      </trkpt>
      <trkpt lat="39.7823770903050899505615234375" lon="-0.38685676641762256622314453125">
        <ele>245.1999969482421875</ele>
        <time>2021-09-27T09:50:17.000Z</time>
      </trkpt>
      <trkpt lat="39.78226502425968647003173828125" lon="-0.3867120109498500823974609375">
        <ele>246.600006103515625</ele>
        <time>2021-09-27T09:50:19.000Z</time>
      </trkpt>
      <trkpt lat="39.78221506811678409576416015625" lon="-0.38664319552481174468994140625">
        <ele>247.399993896484375</ele>
        <time>2021-09-27T09:50:20.000Z</time>
      </trkpt>
      <trkpt lat="39.7821672074496746063232421875" lon="-0.38657530210912227630615234375">
        <ele>248</ele>
        <time>2021-09-27T09:50:21.000Z</time>
      </trkpt>
      <trkpt lat="39.782118760049343109130859375" lon="-0.38651159964501857757568359375">
        <ele>248.8000030517578125</ele>
        <time>2021-09-27T09:50:22.000Z</time>
      </trkpt>
      <trkpt lat="39.78206369094550609588623046875" lon="-0.386449657380580902099609375">
        <ele>249.399993896484375</ele>
        <time>2021-09-27T09:50:23.000Z</time>
      </trkpt>
      <trkpt lat="39.78195908479392528533935546875" lon="-0.386310182511806488037109375">
        <ele>250.8000030517578125</ele>
        <time>2021-09-27T09:50:25.000Z</time>
      </trkpt>
      <trkpt lat="39.7818651236593723297119140625" lon="-0.3861628286540508270263671875">
        <ele>250.600006103515625</ele>
        <time>2021-09-27T09:50:27.000Z</time>
      </trkpt>
      <trkpt lat="39.781775437295436859130859375" lon="-0.38601120002567768096923828125">
        <ele>250.399993896484375</ele>
        <time>2021-09-27T09:50:29.000Z</time>
      </trkpt>
      <trkpt lat="39.78168885223567485809326171875" lon="-0.38585789501667022705078125">
        <ele>250.1999969482421875</ele>
        <time>2021-09-27T09:50:31.000Z</time>
      </trkpt>
      <trkpt lat="39.78164442814886569976806640625" lon="-0.3857772611081600189208984375">
        <ele>250.399993896484375</ele>
        <time>2021-09-27T09:50:32.000Z</time>
      </trkpt>
      <trkpt lat="39.7816046141088008880615234375" lon="-0.38569704629480838775634765625">
        <ele>250.600006103515625</ele>
        <time>2021-09-27T09:50:33.000Z</time>
      </trkpt>
      <trkpt lat="39.78157200850546360015869140625" lon="-0.38561238907277584075927734375">
        <ele>250.600006103515625</ele>
        <time>2021-09-27T09:50:34.000Z</time>
      </trkpt>
      <trkpt lat="39.7815523110330104827880859375" lon="-0.38551851175725460052490234375">
        <ele>250.399993896484375</ele>
        <time>2021-09-27T09:50:35.000Z</time>
      </trkpt>
      <trkpt lat="39.7815419174730777740478515625" lon="-0.3854195214807987213134765625">
        <ele>250.1999969482421875</ele>
        <time>2021-09-27T09:50:36.000Z</time>
      </trkpt>
      <trkpt lat="39.78153848089277744293212890625" lon="-0.385316424071788787841796875">
        <ele>250</ele>
        <time>2021-09-27T09:50:37.000Z</time>
      </trkpt>
      <trkpt lat="39.78154753334820270538330078125" lon="-0.38509941659867763519287109375">
        <ele>249.1999969482421875</ele>
        <time>2021-09-27T09:50:39.000Z</time>
      </trkpt>
      <trkpt lat="39.78156094439327716827392578125" lon="-0.38498525507748126983642578125">
        <ele>248.8000030517578125</ele>
        <time>2021-09-27T09:50:40.000Z</time>
      </trkpt>
      <trkpt lat="39.7815814800560474395751953125" lon="-0.384865812957286834716796875">
        <ele>248.399993896484375</ele>
        <time>2021-09-27T09:50:41.000Z</time>
      </trkpt>
      <trkpt lat="39.781619869172573089599609375" lon="-0.38460538722574710845947265625">
        <ele>247.399993896484375</ele>
        <time>2021-09-27T09:50:43.000Z</time>
      </trkpt>
      <trkpt lat="39.78164442814886569976806640625" lon="-0.38447261787950992584228515625">
        <ele>246.1999969482421875</ele>
        <time>2021-09-27T09:50:44.000Z</time>
      </trkpt>
      <trkpt lat="39.78167175315320491790771484375" lon="-0.3843395970761775970458984375">
        <ele>245.1999969482421875</ele>
        <time>2021-09-27T09:50:45.000Z</time>
      </trkpt>
      <trkpt lat="39.7817279957234859466552734375" lon="-0.38406022824347019195556640625">
        <ele>243</ele>
        <time>2021-09-27T09:50:47.000Z</time>
      </trkpt>
      <trkpt lat="39.78176345117390155792236328125" lon="-0.38376702927052974700927734375">
        <ele>241.8000030517578125</ele>
        <time>2021-09-27T09:50:49.000Z</time>
      </trkpt>
      <trkpt lat="39.781766720116138458251953125" lon="-0.38362629711627960205078125">
        <ele>242</ele>
        <time>2021-09-27T09:50:50.000Z</time>
      </trkpt>
      <trkpt lat="39.781759679317474365234375" lon="-0.38349009118974208831787109375">
        <ele>242.1999969482421875</ele>
        <time>2021-09-27T09:50:51.000Z</time>
      </trkpt>
      <trkpt lat="39.7817380540072917938232421875" lon="-0.38320577703416347503662109375">
        <ele>242.8000030517578125</ele>
        <time>2021-09-27T09:50:53.000Z</time>
      </trkpt>
      <trkpt lat="39.78172254748642444610595703125" lon="-0.3829351253807544708251953125">
        <ele>243.1999969482421875</ele>
        <time>2021-09-27T09:50:55.000Z</time>
      </trkpt>
      <trkpt lat="39.78171785362064838409423828125" lon="-0.3828251548111438751220703125">
        <ele>243.399993896484375</ele>
        <time>2021-09-27T09:50:56.000Z</time>
      </trkpt>
      <trkpt lat="39.78171366266906261444091796875" lon="-0.38273018784821033477783203125">
        <ele>243.399993896484375</ele>
        <time>2021-09-27T09:50:57.000Z</time>
      </trkpt>
      <trkpt lat="39.7817072086036205291748046875" lon="-0.38259104825556278228759765625">
        <ele>243.8000030517578125</ele>
        <time>2021-09-27T09:50:59.000Z</time>
      </trkpt>
      <trkpt lat="39.78170712478458881378173828125" lon="-0.3824915550649166107177734375">
        <ele>243.8000030517578125</ele>
        <time>2021-09-27T09:51:01.000Z</time>
      </trkpt>
      <trkpt lat="39.7817095555365085601806640625" lon="-0.38245576433837413787841796875">
        <ele>244</ele>
        <time>2021-09-27T09:51:02.000Z</time>
      </trkpt>
      <trkpt lat="39.78171207010746002197265625" lon="-0.3824211470782756805419921875">
        <ele>244</ele>
        <time>2021-09-27T09:51:03.000Z</time>
      </trkpt>
      <trkpt lat="39.7817095555365085601806640625" lon="-0.38238334469497203826904296875">
        <ele>244.1999969482421875</ele>
        <time>2021-09-27T09:51:04.000Z</time>
      </trkpt>
      <trkpt lat="39.7817072086036205291748046875" lon="-0.38234277628362178802490234375">
        <ele>244.1999969482421875</ele>
        <time>2021-09-27T09:51:05.000Z</time>
      </trkpt>
      <trkpt lat="39.78170008398592472076416015625" lon="-0.382298268377780914306640625">
        <ele>244.399993896484375</ele>
        <time>2021-09-27T09:51:06.000Z</time>
      </trkpt>
      <trkpt lat="39.78169103153049945831298828125" lon="-0.38225728087127208709716796875">
        <ele>244.8000030517578125</ele>
        <time>2021-09-27T09:51:07.000Z</time>
      </trkpt>
      <trkpt lat="39.7816880978643894195556640625" lon="-0.38221235387027263641357421875">
        <ele>244.8000030517578125</ele>
        <time>2021-09-27T09:51:08.000Z</time>
      </trkpt>
      <trkpt lat="39.781684242188930511474609375" lon="-0.38216055370867252349853515625">
        <ele>245</ele>
        <time>2021-09-27T09:51:09.000Z</time>
      </trkpt>
      <trkpt lat="39.78168717585504055023193359375" lon="-0.3821026347577571868896484375">
        <ele>245.1999969482421875</ele>
        <time>2021-09-27T09:51:10.000Z</time>
      </trkpt>
      <trkpt lat="39.781696982681751251220703125" lon="-0.3820416145026683807373046875">
        <ele>245.1999969482421875</ele>
        <time>2021-09-27T09:51:11.000Z</time>
      </trkpt>
      <trkpt lat="39.78171030990779399871826171875" lon="-0.3819762356579303741455078125">
        <ele>245</ele>
        <time>2021-09-27T09:51:12.000Z</time>
      </trkpt>
      <trkpt lat="39.781728498637676239013671875" lon="-0.38190641440451145172119140625">
        <ele>245</ele>
        <time>2021-09-27T09:51:13.000Z</time>
      </trkpt>
      <trkpt lat="39.7817618586122989654541015625" lon="-0.381759814918041229248046875">
        <ele>244.8000030517578125</ele>
        <time>2021-09-27T09:51:15.000Z</time>
      </trkpt>
      <trkpt lat="39.7817958891391754150390625" lon="-0.3816141374409198760986328125">
        <ele>244.399993896484375</ele>
        <time>2021-09-27T09:51:17.000Z</time>
      </trkpt>
      <trkpt lat="39.781831763684749603271484375" lon="-0.3814743272960186004638671875">
        <ele>244</ele>
        <time>2021-09-27T09:51:19.000Z</time>
      </trkpt>
      <trkpt lat="39.78186286054551601409912109375" lon="-0.3813328407704830169677734375">
        <ele>243.600006103515625</ele>
        <time>2021-09-27T09:51:21.000Z</time>
      </trkpt>
      <trkpt lat="39.78187995962798595428466796875" lon="-0.38126058876514434814453125">
        <ele>243.600006103515625</ele>
        <time>2021-09-27T09:51:22.000Z</time>
      </trkpt>
      <trkpt lat="39.7818993218243122100830078125" lon="-0.3811916895210742950439453125">
        <ele>243.600006103515625</ele>
        <time>2021-09-27T09:51:23.000Z</time>
      </trkpt>
      <trkpt lat="39.781935699284076690673828125" lon="-0.38105917163193225860595703125">
        <ele>243.600006103515625</ele>
        <time>2021-09-27T09:51:25.000Z</time>
      </trkpt>
      <trkpt lat="39.7819482721388339996337890625" lon="-0.38099496625363826751708984375">
        <ele>243.600006103515625</ele>
        <time>2021-09-27T09:51:26.000Z</time>
      </trkpt>
      <trkpt lat="39.7819590009748935699462890625" lon="-0.380928330123424530029296875">
        <ele>243.600006103515625</ele>
        <time>2021-09-27T09:51:27.000Z</time>
      </trkpt>
      <trkpt lat="39.78197400458157062530517578125" lon="-0.38086370564997196197509765625">
        <ele>243.600006103515625</ele>
        <time>2021-09-27T09:51:28.000Z</time>
      </trkpt>
      <trkpt lat="39.78199026547372341156005859375" lon="-0.38079631514847278594970703125">
        <ele>243.600006103515625</ele>
        <time>2021-09-27T09:51:29.000Z</time>
      </trkpt>
      <trkpt lat="39.78201624937355518341064453125" lon="-0.380661450326442718505859375">
        <ele>243.8000030517578125</ele>
        <time>2021-09-27T09:51:31.000Z</time>
      </trkpt>
      <trkpt lat="39.782036952674388885498046875" lon="-0.3805358894169330596923828125">
        <ele>244</ele>
        <time>2021-09-27T09:51:33.000Z</time>
      </trkpt>
      <trkpt lat="39.78204776532948017120361328125" lon="-0.38046942092478275299072265625">
        <ele>244</ele>
        <time>2021-09-27T09:51:34.000Z</time>
      </trkpt>
      <trkpt lat="39.7820562310516834259033203125" lon="-0.38039800710976123809814453125">
        <ele>244</ele>
        <time>2021-09-27T09:51:35.000Z</time>
      </trkpt>
      <trkpt lat="39.7820716537535190582275390625" lon="-0.38024461828172206878662109375">
        <ele>244.1999969482421875</ele>
        <time>2021-09-27T09:51:37.000Z</time>
      </trkpt>
      <trkpt lat="39.78207827545702457427978515625" lon="-0.3800936602056026458740234375">
        <ele>244.1999969482421875</ele>
        <time>2021-09-27T09:51:39.000Z</time>
      </trkpt>
      <trkpt lat="39.78207693435251712799072265625" lon="-0.3799397684633731842041015625">
        <ele>244.399993896484375</ele>
        <time>2021-09-27T09:51:41.000Z</time>
      </trkpt>
      <trkpt lat="39.78207458741962909698486328125" lon="-0.379864163696765899658203125">
        <ele>244.600006103515625</ele>
        <time>2021-09-27T09:51:42.000Z</time>
      </trkpt>
      <trkpt lat="39.7820672951638698577880859375" lon="-0.3797895647585391998291015625">
        <ele>244.8000030517578125</ele>
        <time>2021-09-27T09:51:43.000Z</time>
      </trkpt>
      <trkpt lat="39.78205882944166660308837890625" lon="-0.3796385228633880615234375">
        <ele>245</ele>
        <time>2021-09-27T09:51:45.000Z</time>
      </trkpt>
      <trkpt lat="39.782048352062702178955078125" lon="-0.37948454730212688446044921875">
        <ele>244.399993896484375</ele>
        <time>2021-09-27T09:51:47.000Z</time>
      </trkpt>
      <trkpt lat="39.782042317092418670654296875" lon="-0.37940341047942638397216796875">
        <ele>244.1999969482421875</ele>
        <time>2021-09-27T09:51:48.000Z</time>
      </trkpt>
      <trkpt lat="39.78202815167605876922607421875" lon="-0.3793164901435375213623046875">
        <ele>243.8000030517578125</ele>
        <time>2021-09-27T09:51:49.000Z</time>
      </trkpt>
      <trkpt lat="39.7820139862596988677978515625" lon="-0.3792330063879489898681640625">
        <ele>243.600006103515625</ele>
        <time>2021-09-27T09:51:50.000Z</time>
      </trkpt>
      <trkpt lat="39.78199864737689495086669921875" lon="-0.37915731780230998992919921875">
        <ele>243.1999969482421875</ele>
        <time>2021-09-27T09:51:51.000Z</time>
      </trkpt>
      <trkpt lat="39.7819797880947589874267578125" lon="-0.37908003665506839752197265625">
        <ele>243</ele>
        <time>2021-09-27T09:51:52.000Z</time>
      </trkpt>
      <trkpt lat="39.7819606773555278778076171875" lon="-0.37900082767009735107421875">
        <ele>242.600006103515625</ele>
        <time>2021-09-27T09:51:53.000Z</time>
      </trkpt>
      <trkpt lat="39.78192119859158992767333984375" lon="-0.37884056568145751953125">
        <ele>242.1999969482421875</ele>
        <time>2021-09-27T09:51:55.000Z</time>
      </trkpt>
      <trkpt lat="39.78190309368073940277099609375" lon="-0.37875850684940814971923828125">
        <ele>241.8000030517578125</ele>
        <time>2021-09-27T09:51:56.000Z</time>
      </trkpt>
      <trkpt lat="39.7818882577121257781982421875" lon="-0.3786742687225341796875">
        <ele>241.399993896484375</ele>
        <time>2021-09-27T09:51:57.000Z</time>
      </trkpt>
      <trkpt lat="39.7818450070917606353759765625" lon="-0.37850855849683284759521484375">
        <ele>240.399993896484375</ele>
        <time>2021-09-27T09:51:59.000Z</time>
      </trkpt>
      <trkpt lat="39.78178893215954303741455078125" lon="-0.37835307419300079345703125">
        <ele>239.600006103515625</ele>
        <time>2021-09-27T09:52:01.000Z</time>
      </trkpt>
      <trkpt lat="39.781729169189929962158203125" lon="-0.37820362485945224761962890625">
        <ele>239</ele>
        <time>2021-09-27T09:52:03.000Z</time>
      </trkpt>
      <trkpt lat="39.7817005030810832977294921875" lon="-0.3781312890350818634033203125">
        <ele>238.8000030517578125</ele>
        <time>2021-09-27T09:52:04.000Z</time>
      </trkpt>
      <trkpt lat="39.7816725075244903564453125" lon="-0.37806297652423381805419921875">
        <ele>238.600006103515625</ele>
        <time>2021-09-27T09:52:05.000Z</time>
      </trkpt>
      <trkpt lat="39.7816445119678974151611328125" lon="-0.37799097597599029541015625">
        <ele>238.399993896484375</ele>
        <time>2021-09-27T09:52:06.000Z</time>
      </trkpt>
      <trkpt lat="39.7816170193254947662353515625" lon="-0.3779177181422710418701171875">
        <ele>238.399993896484375</ele>
        <time>2021-09-27T09:52:07.000Z</time>
      </trkpt>
      <trkpt lat="39.78159044869244098663330078125" lon="-0.377850495278835296630859375">
        <ele>238.1999969482421875</ele>
        <time>2021-09-27T09:52:08.000Z</time>
      </trkpt>
      <trkpt lat="39.78155608288943767547607421875" lon="-0.37779676727950572967529296875">
        <ele>238.1999969482421875</ele>
        <time>2021-09-27T09:52:09.000Z</time>
      </trkpt>
      <trkpt lat="39.7814901173114776611328125" lon="-0.37767774425446987152099609375">
        <ele>237.8000030517578125</ele>
        <time>2021-09-27T09:52:11.000Z</time>
      </trkpt>
      <trkpt lat="39.78141761384904384613037109375" lon="-0.37754313088953495025634765625">
        <ele>236.8000030517578125</ele>
        <time>2021-09-27T09:52:13.000Z</time>
      </trkpt>
      <trkpt lat="39.7813759557902812957763671875" lon="-0.37747540511190891265869140625">
        <ele>236.399993896484375</ele>
        <time>2021-09-27T09:52:14.000Z</time>
      </trkpt>
      <trkpt lat="39.7813303582370281219482421875" lon="-0.37740717642009258270263671875">
        <ele>235.8000030517578125</ele>
        <time>2021-09-27T09:52:15.000Z</time>
      </trkpt>
      <trkpt lat="39.78123706765472888946533203125" lon="-0.3772659413516521453857421875">
        <ele>234.8000030517578125</ele>
        <time>2021-09-27T09:52:17.000Z</time>
      </trkpt>
      <trkpt lat="39.781143777072429656982421875" lon="-0.37711515091359615325927734375">
        <ele>233.8000030517578125</ele>
        <time>2021-09-27T09:52:19.000Z</time>
      </trkpt>
      <trkpt lat="39.78109650313854217529296875" lon="-0.377037785947322845458984375">
        <ele>233.1999969482421875</ele>
        <time>2021-09-27T09:52:20.000Z</time>
      </trkpt>
      <trkpt lat="39.78104663081467151641845703125" lon="-0.3769628517329692840576171875">
        <ele>232.600006103515625</ele>
        <time>2021-09-27T09:52:21.000Z</time>
      </trkpt>
      <trkpt lat="39.78094168938696384429931640625" lon="-0.37681792862713336944580078125">
        <ele>231.600006103515625</ele>
        <time>2021-09-27T09:52:23.000Z</time>
      </trkpt>
      <trkpt lat="39.780884943902492523193359375" lon="-0.3767476044595241546630859375">
        <ele>231.1999969482421875</ele>
        <time>2021-09-27T09:52:24.000Z</time>
      </trkpt>
      <trkpt lat="39.78083222173154354095458984375" lon="-0.37667610682547092437744140625">
        <ele>230.600006103515625</ele>
        <time>2021-09-27T09:52:25.000Z</time>
      </trkpt>
      <trkpt lat="39.78072635829448699951171875" lon="-0.37653529085218906402587890625">
        <ele>230</ele>
        <time>2021-09-27T09:52:27.000Z</time>
      </trkpt>
      <trkpt lat="39.78061529807746410369873046875" lon="-0.3763975761830806732177734375">
        <ele>229.1999969482421875</ele>
        <time>2021-09-27T09:52:29.000Z</time>
      </trkpt>
      <trkpt lat="39.7805582173168659210205078125" lon="-0.3763261623680591583251953125">
        <ele>228.8000030517578125</ele>
        <time>2021-09-27T09:52:30.000Z</time>
      </trkpt>
      <trkpt lat="39.78050163947045803070068359375" lon="-0.3762564249336719512939453125">
        <ele>229</ele>
        <time>2021-09-27T09:52:31.000Z</time>
      </trkpt>
      <trkpt lat="39.78038915432989597320556640625" lon="-0.37610915489494800567626953125">
        <ele>228.600006103515625</ele>
        <time>2021-09-27T09:52:33.000Z</time>
      </trkpt>
      <trkpt lat="39.78027532808482646942138671875" lon="-0.37596079520881175994873046875">
        <ele>228.8000030517578125</ele>
        <time>2021-09-27T09:52:35.000Z</time>
      </trkpt>
      <trkpt lat="39.7801615856587886810302734375" lon="-0.37582199089229106903076171875">
        <ele>229.1999969482421875</ele>
        <time>2021-09-27T09:52:37.000Z</time>
      </trkpt>
      <trkpt lat="39.780048429965972900390625" lon="-0.37569022737443447113037109375">
        <ele>229</ele>
        <time>2021-09-27T09:52:39.000Z</time>
      </trkpt>
      <trkpt lat="39.779934100806713104248046875" lon="-0.37556902505457401275634765625">
        <ele>228.600006103515625</ele>
        <time>2021-09-27T09:52:41.000Z</time>
      </trkpt>
      <trkpt lat="39.77981231175363063812255859375" lon="-0.37543290294706821441650390625">
        <ele>228.1999969482421875</ele>
        <time>2021-09-27T09:52:43.000Z</time>
      </trkpt>
      <trkpt lat="39.779705107212066650390625" lon="-0.375296361744403839111328125">
        <ele>228</ele>
        <time>2021-09-27T09:52:45.000Z</time>
      </trkpt>
      <trkpt lat="39.77959807030856609344482421875" lon="-0.37515931762754917144775390625">
        <ele>226.8000030517578125</ele>
        <time>2021-09-27T09:52:47.000Z</time>
      </trkpt>
      <trkpt lat="39.77949120104312896728515625" lon="-0.37502135150134563446044921875">
        <ele>225.8000030517578125</ele>
        <time>2021-09-27T09:52:49.000Z</time>
      </trkpt>
      <trkpt lat="39.77937846444547176361083984375" lon="-0.37489444948732852935791015625">
        <ele>225</ele>
        <time>2021-09-27T09:52:51.000Z</time>
      </trkpt>
      <trkpt lat="39.779269583523273468017578125" lon="-0.37476830184459686279296875">
        <ele>224.399993896484375</ele>
        <time>2021-09-27T09:52:53.000Z</time>
      </trkpt>
      <trkpt lat="39.77915416471660137176513671875" lon="-0.37463930435478687286376953125">
        <ele>224</ele>
        <time>2021-09-27T09:52:55.000Z</time>
      </trkpt>
      <trkpt lat="39.77903078310191631317138671875" lon="-0.37450385279953479766845703125">
        <ele>223.8000030517578125</ele>
        <time>2021-09-27T09:52:57.000Z</time>
      </trkpt>
      <trkpt lat="39.77896892465651035308837890625" lon="-0.37443545646965503692626953125">
        <ele>223.8000030517578125</ele>
        <time>2021-09-27T09:52:58.000Z</time>
      </trkpt>
      <trkpt lat="39.77890706621110439300537109375" lon="-0.374368317425251007080078125">
        <ele>223.8000030517578125</ele>
        <time>2021-09-27T09:52:59.000Z</time>
      </trkpt>
      <trkpt lat="39.77878418751060962677001953125" lon="-0.37423479370772838592529296875">
        <ele>223.399993896484375</ele>
        <time>2021-09-27T09:53:01.000Z</time>
      </trkpt>
      <trkpt lat="39.77866047061979770660400390625" lon="-0.37410956807434558868408203125">
        <ele>223.1999969482421875</ele>
        <time>2021-09-27T09:53:03.000Z</time>
      </trkpt>
      <trkpt lat="39.77854094468057155609130859375" lon="-0.37398107349872589111328125">
        <ele>223</ele>
        <time>2021-09-27T09:53:05.000Z</time>
      </trkpt>
      <trkpt lat="39.7784848697483539581298828125" lon="-0.37391745485365390777587890625">
        <ele>223.399993896484375</ele>
        <time>2021-09-27T09:53:06.000Z</time>
      </trkpt>
      <trkpt lat="39.77842879481613636016845703125" lon="-0.37385526113212108612060546875">
        <ele>223.8000030517578125</ele>
        <time>2021-09-27T09:53:07.000Z</time>
      </trkpt>
      <trkpt lat="39.77833625860512256622314453125" lon="-0.37375434301793575286865234375">
        <ele>224</ele>
        <time>2021-09-27T09:53:09.000Z</time>
      </trkpt>
      <trkpt lat="39.77829870767891407012939453125" lon="-0.37372919730842113494873046875">
        <ele>224</ele>
        <time>2021-09-27T09:53:10.000Z</time>
      </trkpt>
      <trkpt lat="39.778261743485927581787109375" lon="-0.37372534163296222686767578125">
        <ele>224.1999969482421875</ele>
        <time>2021-09-27T09:53:11.000Z</time>
      </trkpt>
      <trkpt lat="39.77820499800145626068115234375" lon="-0.37377898581326007843017578125">
        <ele>224.8000030517578125</ele>
        <time>2021-09-27T09:53:13.000Z</time>
      </trkpt>
      <trkpt lat="39.7781824506819248199462890625" lon="-0.37388744764029979705810546875">
        <ele>225.1999969482421875</ele>
        <time>2021-09-27T09:53:15.000Z</time>
      </trkpt>
      <trkpt lat="39.77816124446690082550048828125" lon="-0.374004207551479339599609375">
        <ele>225.399993896484375</ele>
        <time>2021-09-27T09:53:17.000Z</time>
      </trkpt>
      <trkpt lat="39.77814741432666778564453125" lon="-0.37406195886433124542236328125">
        <ele>225.399993896484375</ele>
        <time>2021-09-27T09:53:18.000Z</time>
      </trkpt>
      <trkpt lat="39.77812327444553375244140625" lon="-0.37410638295114040374755859375">
        <ele>225.600006103515625</ele>
        <time>2021-09-27T09:53:19.000Z</time>
      </trkpt>
      <trkpt lat="39.7780768387019634246826171875" lon="-0.37412163801491260528564453125">
        <ele>225.8000030517578125</ele>
        <time>2021-09-27T09:53:20.000Z</time>
      </trkpt>
      <trkpt lat="39.77803769521415233612060546875" lon="-0.3741160221397876739501953125">
        <ele>226</ele>
        <time>2021-09-27T09:53:21.000Z</time>
      </trkpt>
      <trkpt lat="39.77800919674336910247802734375" lon="-0.374100096523761749267578125">
        <ele>226.1999969482421875</ele>
        <time>2021-09-27T09:53:22.000Z</time>
      </trkpt>
      <trkpt lat="39.77798740379512310028076171875" lon="-0.37408006377518177032470703125">
        <ele>226.399993896484375</ele>
        <time>2021-09-27T09:53:23.000Z</time>
      </trkpt>
      <trkpt lat="39.77796527557075023651123046875" lon="-0.37405525334179401397705078125">
        <ele>226.399993896484375</ele>
        <time>2021-09-27T09:53:24.000Z</time>
      </trkpt>
      <trkpt lat="39.77793962694704532623291015625" lon="-0.374031364917755126953125">
        <ele>226.600006103515625</ele>
        <time>2021-09-27T09:53:25.000Z</time>
      </trkpt>
      <trkpt lat="39.7779081948101520538330078125" lon="-0.374009571969509124755859375">
        <ele>226.8000030517578125</ele>
        <time>2021-09-27T09:53:26.000Z</time>
      </trkpt>
      <trkpt lat="39.77787273935973644256591796875" lon="-0.373986773192882537841796875">
        <ele>227</ele>
        <time>2021-09-27T09:53:27.000Z</time>
      </trkpt>
      <trkpt lat="39.77783585898578166961669921875" lon="-0.3739591129124164581298828125">
        <ele>227</ele>
        <time>2021-09-27T09:53:28.000Z</time>
      </trkpt>
      <trkpt lat="39.777797721326351165771484375" lon="-0.373929440975189208984375">
        <ele>227</ele>
        <time>2021-09-27T09:53:29.000Z</time>
      </trkpt>
      <trkpt lat="39.7777189314365386962890625" lon="-0.3738736175000667572021484375">
        <ele>226.8000030517578125</ele>
        <time>2021-09-27T09:53:31.000Z</time>
      </trkpt>
      <trkpt lat="39.77764584124088287353515625" lon="-0.37381611764430999755859375">
        <ele>226.399993896484375</ele>
        <time>2021-09-27T09:53:33.000Z</time>
      </trkpt>
      <trkpt lat="39.7775692306458950042724609375" lon="-0.3737529180943965911865234375">
        <ele>226</ele>
        <time>2021-09-27T09:53:35.000Z</time>
      </trkpt>
      <trkpt lat="39.7775293327867984771728515625" lon="-0.373719893395900726318359375">
        <ele>225.600006103515625</ele>
        <time>2021-09-27T09:53:36.000Z</time>
      </trkpt>
      <trkpt lat="39.77748918347060680389404296875" lon="-0.37368577904999256134033203125">
        <ele>225.399993896484375</ele>
        <time>2021-09-27T09:53:37.000Z</time>
      </trkpt>
      <trkpt lat="39.777410142123699188232421875" lon="-0.3736121021211147308349609375">
        <ele>224.600006103515625</ele>
        <time>2021-09-27T09:53:39.000Z</time>
      </trkpt>
      <trkpt lat="39.77732825092971324920654296875" lon="-0.3735376708209514617919921875">
        <ele>224</ele>
        <time>2021-09-27T09:53:41.000Z</time>
      </trkpt>
      <trkpt lat="39.7772825695574283599853515625" lon="-0.37350439466536045074462890625">
        <ele>223.8000030517578125</ele>
        <time>2021-09-27T09:53:42.000Z</time>
      </trkpt>
      <trkpt lat="39.7772359661757946014404296875" lon="-0.37346650846302509307861328125">
        <ele>223.600006103515625</ele>
        <time>2021-09-27T09:53:43.000Z</time>
      </trkpt>
      <trkpt lat="39.7771447710692882537841796875" lon="-0.3733827732503414154052734375">
        <ele>223</ele>
        <time>2021-09-27T09:53:45.000Z</time>
      </trkpt>
      <trkpt lat="39.77704561315476894378662109375" lon="-0.3733026422560214996337890625">
        <ele>222.600006103515625</ele>
        <time>2021-09-27T09:53:47.000Z</time>
      </trkpt>
      <trkpt lat="39.7769962437450885772705078125" lon="-0.37326182238757610321044921875">
        <ele>222.399993896484375</ele>
        <time>2021-09-27T09:53:48.000Z</time>
      </trkpt>
      <trkpt lat="39.7769469581544399261474609375" lon="-0.373218320310115814208984375">
        <ele>222</ele>
        <time>2021-09-27T09:53:49.000Z</time>
      </trkpt>
      <trkpt lat="39.77685266174376010894775390625" lon="-0.37313290871679782867431640625">
        <ele>221.600006103515625</ele>
        <time>2021-09-27T09:53:51.000Z</time>
      </trkpt>
      <trkpt lat="39.7767545096576213836669921875" lon="-0.373049341142177581787109375">
        <ele>221.1999969482421875</ele>
        <time>2021-09-27T09:53:53.000Z</time>
      </trkpt>
      <trkpt lat="39.7767058946192264556884765625" lon="-0.3730054199695587158203125">
        <ele>221</ele>
        <time>2021-09-27T09:53:54.000Z</time>
      </trkpt>
      <trkpt lat="39.77665878832340240478515625" lon="-0.37296074442565441131591796875">
        <ele>220.8000030517578125</ele>
        <time>2021-09-27T09:53:55.000Z</time>
      </trkpt>
      <trkpt lat="39.77655954658985137939453125" lon="-0.37287273444235324859619140625">
        <ele>220.1999969482421875</ele>
        <time>2021-09-27T09:53:57.000Z</time>
      </trkpt>
      <trkpt lat="39.7764634899795055389404296875" lon="-0.372782461345195770263671875">
        <ele>219.600006103515625</ele>
        <time>2021-09-27T09:53:59.000Z</time>
      </trkpt>
      <trkpt lat="39.77636634372174739837646484375" lon="-0.372693948447704315185546875">
        <ele>219.399993896484375</ele>
        <time>2021-09-27T09:54:01.000Z</time>
      </trkpt>
      <trkpt lat="39.77627095766365528106689453125" lon="-0.3726079501211643218994140625">
        <ele>219.399993896484375</ele>
        <time>2021-09-27T09:54:03.000Z</time>
      </trkpt>
      <trkpt lat="39.7761667706072330474853515625" lon="-0.3725237958133220672607421875">
        <ele>219.600006103515625</ele>
        <time>2021-09-27T09:54:05.000Z</time>
      </trkpt>
      <trkpt lat="39.77605705149471759796142578125" lon="-0.3724314272403717041015625">
        <ele>219.8000030517578125</ele>
        <time>2021-09-27T09:54:07.000Z</time>
      </trkpt>
      <trkpt lat="39.77600189857184886932373046875" lon="-0.37238758988678455352783203125">
        <ele>219.8000030517578125</ele>
        <time>2021-09-27T09:54:08.000Z</time>
      </trkpt>
      <trkpt lat="39.7759444825351238250732421875" lon="-0.3723491169512271881103515625">
        <ele>220</ele>
        <time>2021-09-27T09:54:09.000Z</time>
      </trkpt>
      <trkpt lat="39.77583291940391063690185546875" lon="-0.37226219661533832550048828125">
        <ele>220.600006103515625</ele>
        <time>2021-09-27T09:54:11.000Z</time>
      </trkpt>
      <trkpt lat="39.775780700147151947021484375" lon="-0.3722133301198482513427734375">
        <ele>220.8000030517578125</ele>
        <time>2021-09-27T09:54:12.000Z</time>
      </trkpt>
      <trkpt lat="39.775728397071361541748046875" lon="-0.37216546945273876190185546875">
        <ele>221</ele>
        <time>2021-09-27T09:54:13.000Z</time>
      </trkpt>
      <trkpt lat="39.775622449815273284912109375" lon="-0.37206740118563175201416015625">
        <ele>221.1999969482421875</ele>
        <time>2021-09-27T09:54:15.000Z</time>
      </trkpt>
      <trkpt lat="39.77550954557955265045166015625" lon="-0.37196245975792407989501953125">
        <ele>221.399993896484375</ele>
        <time>2021-09-27T09:54:17.000Z</time>
      </trkpt>
      <trkpt lat="39.775387756526470184326171875" lon="-0.37185768596827983856201171875">
        <ele>221.600006103515625</ele>
        <time>2021-09-27T09:54:19.000Z</time>
      </trkpt>
      <trkpt lat="39.775264374911785125732421875" lon="-0.37175827659666538238525390625">
        <ele>221.1999969482421875</ele>
        <time>2021-09-27T09:54:21.000Z</time>
      </trkpt>
      <trkpt lat="39.7751361317932605743408203125" lon="-0.37166289053857326507568359375">
        <ele>221</ele>
        <time>2021-09-27T09:54:23.000Z</time>
      </trkpt>
      <trkpt lat="39.77507066912949085235595703125" lon="-0.3716162033379077911376953125">
        <ele>220.8000030517578125</ele>
        <time>2021-09-27T09:54:24.000Z</time>
      </trkpt>
      <trkpt lat="39.77500529028475284576416015625" lon="-0.37157286889851093292236328125">
        <ele>220.8000030517578125</ele>
        <time>2021-09-27T09:54:25.000Z</time>
      </trkpt>
      <trkpt lat="39.7748796455562114715576171875" lon="-0.3714911453425884246826171875">
        <ele>220.8000030517578125</ele>
        <time>2021-09-27T09:54:27.000Z</time>
      </trkpt>
      <trkpt lat="39.7747524082660675048828125" lon="-0.3714240901172161102294921875">
        <ele>221</ele>
        <time>2021-09-27T09:54:29.000Z</time>
      </trkpt>
      <trkpt lat="39.77462701499462127685546875" lon="-0.37135544233024120330810546875">
        <ele>221</ele>
        <time>2021-09-27T09:54:31.000Z</time>
      </trkpt>
      <trkpt lat="39.7745004482567310333251953125" lon="-0.3712886385619640350341796875">
        <ele>220.8000030517578125</ele>
        <time>2021-09-27T09:54:33.000Z</time>
      </trkpt>
      <trkpt lat="39.7743730433285236358642578125" lon="-0.3712259419262409210205078125">
        <ele>220</ele>
        <time>2021-09-27T09:54:35.000Z</time>
      </trkpt>
      <trkpt lat="39.77423231117427349090576171875" lon="-0.37117271684110164642333984375">
        <ele>219.1999969482421875</ele>
        <time>2021-09-27T09:54:37.000Z</time>
      </trkpt>
      <trkpt lat="39.77409266866743564605712890625" lon="-0.3711317293345928192138671875">
        <ele>218.600006103515625</ele>
        <time>2021-09-27T09:54:39.000Z</time>
      </trkpt>
      <trkpt lat="39.77401890791952610015869140625" lon="-0.3711116127669811248779296875">
        <ele>218.1999969482421875</ele>
        <time>2021-09-27T09:54:40.000Z</time>
      </trkpt>
      <trkpt lat="39.773946739733219146728515625" lon="-0.371091328561305999755859375">
        <ele>218</ele>
        <time>2021-09-27T09:54:41.000Z</time>
      </trkpt>
      <trkpt lat="39.77380332536995410919189453125" lon="-0.37104916758835315704345703125">
        <ele>217.8000030517578125</ele>
        <time>2021-09-27T09:54:43.000Z</time>
      </trkpt>
      <trkpt lat="39.77364658378064632415771484375" lon="-0.3710113652050495147705078125">
        <ele>217.399993896484375</ele>
        <time>2021-09-27T09:54:45.000Z</time>
      </trkpt>
      <trkpt lat="39.77356863208115100860595703125" lon="-0.37099049426615238189697265625">
        <ele>217.1999969482421875</ele>
        <time>2021-09-27T09:54:46.000Z</time>
      </trkpt>
      <trkpt lat="39.7734859026968479156494140625" lon="-0.37097029387950897216796875">
        <ele>217</ele>
        <time>2021-09-27T09:54:47.000Z</time>
      </trkpt>
      <trkpt lat="39.7733201086521148681640625" lon="-0.37092964164912700653076171875">
        <ele>216.600006103515625</ele>
        <time>2021-09-27T09:54:49.000Z</time>
      </trkpt>
      <trkpt lat="39.77323503233492374420166015625" lon="-0.3709107823669910430908203125">
        <ele>216.600006103515625</ele>
        <time>2021-09-27T09:54:50.000Z</time>
      </trkpt>
      <trkpt lat="39.7731492854654788970947265625" lon="-0.370890162885189056396484375">
        <ele>216.399993896484375</ele>
        <time>2021-09-27T09:54:51.000Z</time>
      </trkpt>
      <trkpt lat="39.772975109517574310302734375" lon="-0.3708487562835216522216796875">
        <ele>215.8000030517578125</ele>
        <time>2021-09-27T09:54:53.000Z</time>
      </trkpt>
      <trkpt lat="39.7727942280471324920654296875" lon="-0.37081045098602771759033203125">
        <ele>214</ele>
        <time>2021-09-27T09:54:55.000Z</time>
      </trkpt>
      <trkpt lat="39.77261158637702465057373046875" lon="-0.37076837383210659027099609375">
        <ele>210.1999969482421875</ele>
        <time>2021-09-27T09:54:57.000Z</time>
      </trkpt>
      <trkpt lat="39.77243355475366115570068359375" lon="-0.370724536478519439697265625">
        <ele>207.8000030517578125</ele>
        <time>2021-09-27T09:54:59.000Z</time>
      </trkpt>
      <trkpt lat="39.77225870825350284576416015625" lon="-0.3706770949065685272216796875">
        <ele>205.600006103515625</ele>
        <time>2021-09-27T09:55:01.000Z</time>
      </trkpt>
      <trkpt lat="39.772081263363361358642578125" lon="-0.37063233554363250732421875">
        <ele>203.1999969482421875</ele>
        <time>2021-09-27T09:55:03.000Z</time>
      </trkpt>
      <trkpt lat="39.77190432138741016387939453125" lon="-0.37058615125715732574462890625">
        <ele>202</ele>
        <time>2021-09-27T09:55:05.000Z</time>
      </trkpt>
      <trkpt lat="39.77181337773799896240234375" lon="-0.37056871689856052398681640625">
        <ele>201.1999969482421875</ele>
        <time>2021-09-27T09:55:06.000Z</time>
      </trkpt>
      <trkpt lat="39.7717206738889217376708984375" lon="-0.370560251176357269287109375">
        <ele>200.399993896484375</ele>
        <time>2021-09-27T09:55:07.000Z</time>
      </trkpt>
      <trkpt lat="39.77153736166656017303466796875" lon="-0.3705485165119171142578125">
        <ele>198.8000030517578125</ele>
        <time>2021-09-27T09:55:09.000Z</time>
      </trkpt>
      <trkpt lat="39.7713565640151500701904296875" lon="-0.37054994143545627593994140625">
        <ele>197.399993896484375</ele>
        <time>2021-09-27T09:55:11.000Z</time>
      </trkpt>
      <trkpt lat="39.771267212927341461181640625" lon="-0.3705570660531520843505859375">
        <ele>196.600006103515625</ele>
        <time>2021-09-27T09:55:12.000Z</time>
      </trkpt>
      <trkpt lat="39.77118046022951602935791015625" lon="-0.3705694712698459625244140625">
        <ele>196.1999969482421875</ele>
        <time>2021-09-27T09:55:13.000Z</time>
      </trkpt>
      <trkpt lat="39.7710065357387065887451171875" lon="-0.37060827948153018951416015625">
        <ele>196.600006103515625</ele>
        <time>2021-09-27T09:55:15.000Z</time>
      </trkpt>
      <trkpt lat="39.7708310186862945556640625" lon="-0.3706653602421283721923828125">
        <ele>197.1999969482421875</ele>
        <time>2021-09-27T09:55:17.000Z</time>
      </trkpt>
      <trkpt lat="39.770746529102325439453125" lon="-0.3706945292651653289794921875">
        <ele>197.399993896484375</ele>
        <time>2021-09-27T09:55:18.000Z</time>
      </trkpt>
      <trkpt lat="39.7706632129848003387451171875" lon="-0.37072177045047283172607421875">
        <ele>197.600006103515625</ele>
        <time>2021-09-27T09:55:19.000Z</time>
      </trkpt>
      <trkpt lat="39.77049699984490871429443359375" lon="-0.37077524699270725250244140625">
        <ele>198</ele>
        <time>2021-09-27T09:55:21.000Z</time>
      </trkpt>
      <trkpt lat="39.77033145725727081298828125" lon="-0.37082553841173648834228515625">
        <ele>198.8000030517578125</ele>
        <time>2021-09-27T09:55:23.000Z</time>
      </trkpt>
      <trkpt lat="39.7701817564666271209716796875" lon="-0.37086904048919677734375">
        <ele>199.8000030517578125</ele>
        <time>2021-09-27T09:55:25.000Z</time>
      </trkpt>
      <trkpt lat="39.77003918029367923736572265625" lon="-0.37091170437633991241455078125">
        <ele>201</ele>
        <time>2021-09-27T09:55:27.000Z</time>
      </trkpt>
      <trkpt lat="39.769901968538761138916015625" lon="-0.3709557093679904937744140625">
        <ele>202</ele>
        <time>2021-09-27T09:55:29.000Z</time>
      </trkpt>
      <trkpt lat="39.76976861245930194854736328125" lon="-0.37099937908351421356201171875">
        <ele>202.8000030517578125</ele>
        <time>2021-09-27T09:55:31.000Z</time>
      </trkpt>
      <trkpt lat="39.7696382738649845123291015625" lon="-0.37104212678968906402587890625">
        <ele>203.600006103515625</ele>
        <time>2021-09-27T09:55:33.000Z</time>
      </trkpt>
      <trkpt lat="39.76950257085263729095458984375" lon="-0.37108638323843479156494140625">
        <ele>204.399993896484375</ele>
        <time>2021-09-27T09:55:35.000Z</time>
      </trkpt>
      <trkpt lat="39.76936913095414638519287109375" lon="-0.37113131023943424224853515625">
        <ele>205.1999969482421875</ele>
        <time>2021-09-27T09:55:37.000Z</time>
      </trkpt>
      <trkpt lat="39.7692386247217655181884765625" lon="-0.371173806488513946533203125">
        <ele>206</ele>
        <time>2021-09-27T09:55:39.000Z</time>
      </trkpt>
      <trkpt lat="39.769105352461338043212890625" lon="-0.37120976485311985015869140625">
        <ele>206.8000030517578125</ele>
        <time>2021-09-27T09:55:41.000Z</time>
      </trkpt>
      <trkpt lat="39.76903854869306087493896484375" lon="-0.3712269477546215057373046875">
        <ele>207.1999969482421875</ele>
        <time>2021-09-27T09:55:42.000Z</time>
      </trkpt>
      <trkpt lat="39.7689695656299591064453125" lon="-0.37124027498066425323486328125">
        <ele>207.600006103515625</ele>
        <time>2021-09-27T09:55:43.000Z</time>
      </trkpt>
      <trkpt lat="39.768831767141819000244140625" lon="-0.37126190029084682464599609375">
        <ele>208.1999969482421875</ele>
        <time>2021-09-27T09:55:45.000Z</time>
      </trkpt>
      <trkpt lat="39.76869639940559864044189453125" lon="-0.37128067575395107269287109375">
        <ele>208.8000030517578125</ele>
        <time>2021-09-27T09:55:47.000Z</time>
      </trkpt>
      <trkpt lat="39.76863269694149494171142578125" lon="-0.37128604017198085784912109375">
        <ele>209.1999969482421875</ele>
        <time>2021-09-27T09:55:48.000Z</time>
      </trkpt>
      <trkpt lat="39.768564887344837188720703125" lon="-0.37128637544810771942138671875">
        <ele>209.600006103515625</ele>
        <time>2021-09-27T09:55:49.000Z</time>
      </trkpt>
      <trkpt lat="39.768433459103107452392578125" lon="-0.37127497605979442596435546875">
        <ele>210.1999969482421875</ele>
        <time>2021-09-27T09:55:51.000Z</time>
      </trkpt>
      <trkpt lat="39.76830370724201202392578125" lon="-0.37124765105545520782470703125">
        <ele>210.600006103515625</ele>
        <time>2021-09-27T09:55:53.000Z</time>
      </trkpt>
      <trkpt lat="39.76824059151113033294677734375" lon="-0.3712292946875095367431640625">
        <ele>210.8000030517578125</ele>
        <time>2021-09-27T09:55:54.000Z</time>
      </trkpt>
      <trkpt lat="39.76817940361797809600830078125" lon="-0.371207334101200103759765625">
        <ele>211</ele>
        <time>2021-09-27T09:55:55.000Z</time>
      </trkpt>
      <trkpt lat="39.76805887185037136077880859375" lon="-0.371159724891185760498046875">
        <ele>211.1999969482421875</ele>
        <time>2021-09-27T09:55:57.000Z</time>
      </trkpt>
      <trkpt lat="39.7679390944540500640869140625" lon="-0.3711037337779998779296875">
        <ele>211.1999969482421875</ele>
        <time>2021-09-27T09:55:59.000Z</time>
      </trkpt>
      <trkpt lat="39.76782434619963169097900390625" lon="-0.37103307433426380157470703125">
        <ele>211.399993896484375</ele>
        <time>2021-09-27T09:56:01.000Z</time>
      </trkpt>
      <trkpt lat="39.76771387271583080291748046875" lon="-0.37095361389219760894775390625">
        <ele>211.399993896484375</ele>
        <time>2021-09-27T09:56:03.000Z</time>
      </trkpt>
      <trkpt lat="39.7676101885735988616943359375" lon="-0.3708665259182453155517578125">
        <ele>211.399993896484375</ele>
        <time>2021-09-27T09:56:05.000Z</time>
      </trkpt>
      <trkpt lat="39.7675099410116672515869140625" lon="-0.370770134031772613525390625">
        <ele>211.399993896484375</ele>
        <time>2021-09-27T09:56:07.000Z</time>
      </trkpt>
      <trkpt lat="39.76746149361133575439453125" lon="-0.370717830955982208251953125">
        <ele>211.399993896484375</ele>
        <time>2021-09-27T09:56:08.000Z</time>
      </trkpt>
      <trkpt lat="39.76741631515324115753173828125" lon="-0.37066427059471607208251953125">
        <ele>211.399993896484375</ele>
        <time>2021-09-27T09:56:09.000Z</time>
      </trkpt>
      <trkpt lat="39.7673298977315425872802734375" lon="-0.3705560602247714996337890625">
        <ele>211.399993896484375</ele>
        <time>2021-09-27T09:56:11.000Z</time>
      </trkpt>
      <trkpt lat="39.7672502696514129638671875" lon="-0.37044801749289035797119140625">
        <ele>211.399993896484375</ele>
        <time>2021-09-27T09:56:13.000Z</time>
      </trkpt>
      <trkpt lat="39.76718262769281864166259765625" lon="-0.37034324370324611663818359375">
        <ele>211.1999969482421875</ele>
        <time>2021-09-27T09:56:15.000Z</time>
      </trkpt>
      <trkpt lat="39.7671215236186981201171875" lon="-0.37024341523647308349609375">
        <ele>211</ele>
        <time>2021-09-27T09:56:17.000Z</time>
      </trkpt>
      <trkpt lat="39.7670687176287174224853515625" lon="-0.3701533935964107513427734375">
        <ele>210.8000030517578125</ele>
        <time>2021-09-27T09:56:19.000Z</time>
      </trkpt>
      <trkpt lat="39.767018593847751617431640625" lon="-0.37007267586886882781982421875">
        <ele>210.8000030517578125</ele>
        <time>2021-09-27T09:56:21.000Z</time>
      </trkpt>
      <trkpt lat="39.76696553640067577362060546875" lon="-0.369982235133647918701171875">
        <ele>210.600006103515625</ele>
        <time>2021-09-27T09:56:23.000Z</time>
      </trkpt>
      <trkpt lat="39.766893871128559112548828125" lon="-0.36988559179008007049560546875">
        <ele>210.8000030517578125</ele>
        <time>2021-09-27T09:56:25.000Z</time>
      </trkpt>
      <trkpt lat="39.76685992442071437835693359375" lon="-0.3698321990668773651123046875">
        <ele>210.600006103515625</ele>
        <time>2021-09-27T09:56:26.000Z</time>
      </trkpt>
      <trkpt lat="39.76682606153190135955810546875" lon="-0.369780398905277252197265625">
        <ele>210.399993896484375</ele>
        <time>2021-09-27T09:56:27.000Z</time>
      </trkpt>
      <trkpt lat="39.7667555697262287139892578125" lon="-0.36967721767723560333251953125">
        <ele>209.8000030517578125</ele>
        <time>2021-09-27T09:56:29.000Z</time>
      </trkpt>
      <trkpt lat="39.7666843235492706298828125" lon="-0.36957177333533763885498046875">
        <ele>209.1999969482421875</ele>
        <time>2021-09-27T09:56:31.000Z</time>
      </trkpt>
      <trkpt lat="39.76661265827715396881103515625" lon="-0.36947119049727916717529296875">
        <ele>209</ele>
        <time>2021-09-27T09:56:33.000Z</time>
      </trkpt>
      <trkpt lat="39.76654258556663990020751953125" lon="-0.36936993710696697235107421875">
        <ele>208.8000030517578125</ele>
        <time>2021-09-27T09:56:35.000Z</time>
      </trkpt>
      <trkpt lat="39.766478799283504486083984375" lon="-0.36927781999111175537109375">
        <ele>208.8000030517578125</ele>
        <time>2021-09-27T09:56:37.000Z</time>
      </trkpt>
      <trkpt lat="39.76641719229519367218017578125" lon="-0.3691874630749225616455078125">
        <ele>209.1999969482421875</ele>
        <time>2021-09-27T09:56:39.000Z</time>
      </trkpt>
      <trkpt lat="39.76636053062975406646728515625" lon="-0.36910104565322399139404296875">
        <ele>209.399993896484375</ele>
        <time>2021-09-27T09:56:41.000Z</time>
      </trkpt>
      <trkpt lat="39.76633437909185886383056640625" lon="-0.3690597228705883026123046875">
        <ele>209.600006103515625</ele>
        <time>2021-09-27T09:56:42.000Z</time>
      </trkpt>
      <trkpt lat="39.7663088142871856689453125" lon="-0.36902242340147495269775390625">
        <ele>209.600006103515625</ele>
        <time>2021-09-27T09:56:43.000Z</time>
      </trkpt>
      <trkpt lat="39.76625927723944187164306640625" lon="-0.36895268596708774566650390625">
        <ele>210</ele>
        <time>2021-09-27T09:56:45.000Z</time>
      </trkpt>
      <trkpt lat="39.7662104107439517974853515625" lon="-0.36888345144689083099365234375">
        <ele>210.1999969482421875</ele>
        <time>2021-09-27T09:56:47.000Z</time>
      </trkpt>
      <trkpt lat="39.76615936495363712310791015625" lon="-0.368808098137378692626953125">
        <ele>210.8000030517578125</ele>
        <time>2021-09-27T09:56:49.000Z</time>
      </trkpt>
      <trkpt lat="39.7661044634878635406494140625" lon="-0.368729643523693084716796875">
        <ele>211.8000030517578125</ele>
        <time>2021-09-27T09:56:51.000Z</time>
      </trkpt>
      <trkpt lat="39.76605392061173915863037109375" lon="-0.3686506859958171844482421875">
        <ele>212.8000030517578125</ele>
        <time>2021-09-27T09:56:53.000Z</time>
      </trkpt>
      <trkpt lat="39.76600111462175846099853515625" lon="-0.36857885308563709259033203125">
        <ele>213.8000030517578125</ele>
        <time>2021-09-27T09:56:55.000Z</time>
      </trkpt>
      <trkpt lat="39.76597613655030727386474609375" lon="-0.368544571101665496826171875">
        <ele>214.1999969482421875</ele>
        <time>2021-09-27T09:56:56.000Z</time>
      </trkpt>
      <trkpt lat="39.76595015265047550201416015625" lon="-0.36851339042186737060546875">
        <ele>214.8000030517578125</ele>
        <time>2021-09-27T09:56:57.000Z</time>
      </trkpt>
      <trkpt lat="39.7658957540988922119140625" lon="-0.36844759248197078704833984375">
        <ele>215.8000030517578125</ele>
        <time>2021-09-27T09:56:59.000Z</time>
      </trkpt>
      <trkpt lat="39.7658689320087432861328125" lon="-0.36840870045125484466552734375">
        <ele>216.1999969482421875</ele>
        <time>2021-09-27T09:57:00.000Z</time>
      </trkpt>
      <trkpt lat="39.76584135554730892181396484375" lon="-0.3683673776686191558837890625">
        <ele>216.8000030517578125</ele>
        <time>2021-09-27T09:57:01.000Z</time>
      </trkpt>
      <trkpt lat="39.76580791175365447998046875" lon="-0.36832756362855434417724609375">
        <ele>217</ele>
        <time>2021-09-27T09:57:02.000Z</time>
      </trkpt>
      <trkpt lat="39.7657723724842071533203125" lon="-0.3682859055697917938232421875">
        <ele>217</ele>
        <time>2021-09-27T09:57:03.000Z</time>
      </trkpt>
      <trkpt lat="39.76573909632861614227294921875" lon="-0.3682376258075237274169921875">
        <ele>216.8000030517578125</ele>
        <time>2021-09-27T09:57:04.000Z</time>
      </trkpt>
      <trkpt lat="39.7657071612775325775146484375" lon="-0.36819227971136569976806640625">
        <ele>216.8000030517578125</ele>
        <time>2021-09-27T09:57:05.000Z</time>
      </trkpt>
      <trkpt lat="39.76564538665115833282470703125" lon="-0.36809974350035190582275390625">
        <ele>216.600006103515625</ele>
        <time>2021-09-27T09:57:07.000Z</time>
      </trkpt>
      <trkpt lat="39.76561487652361392974853515625" lon="-0.36805045790970325469970703125">
        <ele>216.600006103515625</ele>
        <time>2021-09-27T09:57:08.000Z</time>
      </trkpt>
      <trkpt lat="39.76558352820575237274169921875" lon="-0.36799916066229343414306640625">
        <ele>216.399993896484375</ele>
        <time>2021-09-27T09:57:09.000Z</time>
      </trkpt>
      <trkpt lat="39.765516221523284912109375" lon="-0.36790075711905956268310546875">
        <ele>216.399993896484375</ele>
        <time>2021-09-27T09:57:11.000Z</time>
      </trkpt>
      <trkpt lat="39.765450172126293182373046875" lon="-0.367805622518062591552734375">
        <ele>216.600006103515625</ele>
        <time>2021-09-27T09:57:13.000Z</time>
      </trkpt>
      <trkpt lat="39.7653819434344768524169921875" lon="-0.3677093982696533203125">
        <ele>216.600006103515625</ele>
        <time>2021-09-27T09:57:15.000Z</time>
      </trkpt>
      <trkpt lat="39.76531170308589935302734375" lon="-0.3676143474876880645751953125">
        <ele>217.399993896484375</ele>
        <time>2021-09-27T09:57:17.000Z</time>
      </trkpt>
      <trkpt lat="39.7652780078351497650146484375" lon="-0.3675664030015468597412109375">
        <ele>217.600006103515625</ele>
        <time>2021-09-27T09:57:18.000Z</time>
      </trkpt>
      <trkpt lat="39.76524607278406620025634765625" lon="-0.3675176203250885009765625">
        <ele>218</ele>
        <time>2021-09-27T09:57:19.000Z</time>
      </trkpt>
      <trkpt lat="39.7652166523039340972900390625" lon="-0.3674666583538055419921875">
        <ele>218.1999969482421875</ele>
        <time>2021-09-27T09:57:20.000Z</time>
      </trkpt>
      <trkpt lat="39.76519091986119747161865234375" lon="-0.367417037487030029296875">
        <ele>218.399993896484375</ele>
        <time>2021-09-27T09:57:21.000Z</time>
      </trkpt>
      <trkpt lat="39.7651278041303157806396484375" lon="-0.3673125989735126495361328125">
        <ele>218.399993896484375</ele>
        <time>2021-09-27T09:57:23.000Z</time>
      </trkpt>
      <trkpt lat="39.7650979645550251007080078125" lon="-0.3672582842409610748291015625">
        <ele>217.8000030517578125</ele>
        <time>2021-09-27T09:57:24.000Z</time>
      </trkpt>
      <trkpt lat="39.76506971754133701324462890625" lon="-0.36720723845064640045166015625">
        <ele>217.399993896484375</ele>
        <time>2021-09-27T09:57:25.000Z</time>
      </trkpt>
      <trkpt lat="39.76501674391329288482666015625" lon="-0.36711168475449085235595703125">
        <ele>216.8000030517578125</ele>
        <time>2021-09-27T09:57:27.000Z</time>
      </trkpt>
      <trkpt lat="39.76498690433800220489501953125" lon="-0.36706943996250629425048828125">
        <ele>216.600006103515625</ele>
        <time>2021-09-27T09:57:28.000Z</time>
      </trkpt>
      <trkpt lat="39.76495563983917236328125" lon="-0.3670252673327922821044921875">
        <ele>216.399993896484375</ele>
        <time>2021-09-27T09:57:29.000Z</time>
      </trkpt>
      <trkpt lat="39.76488816551864147186279296875" lon="-0.36693465895950794219970703125">
        <ele>216.1999969482421875</ele>
        <time>2021-09-27T09:57:31.000Z</time>
      </trkpt>
      <trkpt lat="39.76485329680144786834716796875" lon="-0.3668901510536670684814453125">
        <ele>216</ele>
        <time>2021-09-27T09:57:32.000Z</time>
      </trkpt>
      <trkpt lat="39.764815159142017364501953125" lon="-0.36685134284198284149169921875">
        <ele>215.8000030517578125</ele>
        <time>2021-09-27T09:57:33.000Z</time>
      </trkpt>
      <trkpt lat="39.76477668620645999908447265625" lon="-0.36681228317320346832275390625">
        <ele>215.8000030517578125</ele>
        <time>2021-09-27T09:57:34.000Z</time>
      </trkpt>
      <trkpt lat="39.7647519595921039581298828125" lon="-0.36676467396318912506103515625">
        <ele>215.399993896484375</ele>
        <time>2021-09-27T09:57:35.000Z</time>
      </trkpt>
      <trkpt lat="39.76472807116806507110595703125" lon="-0.3667174838483333587646484375">
        <ele>215</ele>
        <time>2021-09-27T09:57:36.000Z</time>
      </trkpt>
      <trkpt lat="39.76468934677541255950927734375" lon="-0.36667599342763423919677734375">
        <ele>215</ele>
        <time>2021-09-27T09:57:37.000Z</time>
      </trkpt>
      <trkpt lat="39.76464961655437946319580078125" lon="-0.3666373528540134429931640625">
        <ele>214.8000030517578125</ele>
        <time>2021-09-27T09:57:38.000Z</time>
      </trkpt>
      <trkpt lat="39.76461038924753665924072265625" lon="-0.36660122685134410858154296875">
        <ele>214.600006103515625</ele>
        <time>2021-09-27T09:57:39.000Z</time>
      </trkpt>
      <trkpt lat="39.76452891714870929718017578125" lon="-0.3665317408740520477294921875">
        <ele>214.399993896484375</ele>
        <time>2021-09-27T09:57:41.000Z</time>
      </trkpt>
      <trkpt lat="39.764436297118663787841796875" lon="-0.366469211876392364501953125">
        <ele>214.1999969482421875</ele>
        <time>2021-09-27T09:57:43.000Z</time>
      </trkpt>
      <trkpt lat="39.76438877172768115997314453125" lon="-0.36643794737756252288818359375">
        <ele>214.1999969482421875</ele>
        <time>2021-09-27T09:57:44.000Z</time>
      </trkpt>
      <trkpt lat="39.7643405757844448089599609375" lon="-0.36640743725001811981201171875">
        <ele>214</ele>
        <time>2021-09-27T09:57:45.000Z</time>
      </trkpt>
      <trkpt lat="39.7642527334392070770263671875" lon="-0.3663443215191364288330078125">
        <ele>213.8000030517578125</ele>
        <time>2021-09-27T09:57:47.000Z</time>
      </trkpt>
      <trkpt lat="39.76416765712201595306396484375" lon="-0.36627517081797122955322265625">
        <ele>213.600006103515625</ele>
        <time>2021-09-27T09:57:49.000Z</time>
      </trkpt>
      <trkpt lat="39.7641241550445556640625" lon="-0.36623644642531871795654296875">
        <ele>213.399993896484375</ele>
        <time>2021-09-27T09:57:50.000Z</time>
      </trkpt>
      <trkpt lat="39.76408056914806365966796875" lon="-0.36620124243199825286865234375">
        <ele>213.399993896484375</ele>
        <time>2021-09-27T09:57:51.000Z</time>
      </trkpt>
      <trkpt lat="39.76399146951735019683837890625" lon="-0.36613368429243564605712890625">
        <ele>213.1999969482421875</ele>
        <time>2021-09-27T09:57:53.000Z</time>
      </trkpt>
      <trkpt lat="39.76390094496309757232666015625" lon="-0.36607383750379085540771484375">
        <ele>213</ele>
        <time>2021-09-27T09:57:55.000Z</time>
      </trkpt>
      <trkpt lat="39.76381058804690837860107421875" lon="-0.3660160861909389495849609375">
        <ele>212.600006103515625</ele>
        <time>2021-09-27T09:57:57.000Z</time>
      </trkpt>
      <trkpt lat="39.76376415230333805084228515625" lon="-0.365989767014980316162109375">
        <ele>212.399993896484375</ele>
        <time>2021-09-27T09:57:58.000Z</time>
      </trkpt>
      <trkpt lat="39.76371570490300655364990234375" lon="-0.36596571095287799835205078125">
        <ele>212.1999969482421875</ele>
        <time>2021-09-27T09:57:59.000Z</time>
      </trkpt>
      <trkpt lat="39.763619899749755859375" lon="-0.365918017923831939697265625">
        <ele>212</ele>
        <time>2021-09-27T09:58:01.000Z</time>
      </trkpt>
      <trkpt lat="39.76352803409099578857421875" lon="-0.365872085094451904296875">
        <ele>212</ele>
        <time>2021-09-27T09:58:03.000Z</time>
      </trkpt>
      <trkpt lat="39.7634292952716350555419921875" lon="-0.3658370487391948699951171875">
        <ele>211.8000030517578125</ele>
        <time>2021-09-27T09:58:05.000Z</time>
      </trkpt>
      <trkpt lat="39.76332561112940311431884765625" lon="-0.36580662243068218231201171875">
        <ele>212</ele>
        <time>2021-09-27T09:58:07.000Z</time>
      </trkpt>
      <trkpt lat="39.76322502829134464263916015625" lon="-0.36577544175088405609130859375">
        <ele>212.1999969482421875</ele>
        <time>2021-09-27T09:58:09.000Z</time>
      </trkpt>
      <trkpt lat="39.76312126033008098602294921875" lon="-0.365749038755893707275390625">
        <ele>212.399993896484375</ele>
        <time>2021-09-27T09:58:11.000Z</time>
      </trkpt>
      <trkpt lat="39.76302034221589565277099609375" lon="-0.36571995355188846588134765625">
        <ele>212.600006103515625</ele>
        <time>2021-09-27T09:58:13.000Z</time>
      </trkpt>
      <trkpt lat="39.76292026229202747344970703125" lon="-0.36568944342434406280517578125">
        <ele>212.8000030517578125</ele>
        <time>2021-09-27T09:58:15.000Z</time>
      </trkpt>
      <trkpt lat="39.76287047378718852996826171875" lon="-0.36567837931215763092041015625">
        <ele>213</ele>
        <time>2021-09-27T09:58:16.000Z</time>
      </trkpt>
      <trkpt lat="39.7628207691013813018798828125" lon="-0.36567066796123981475830078125">
        <ele>213</ele>
        <time>2021-09-27T09:58:17.000Z</time>
      </trkpt>
      <trkpt lat="39.762721695005893707275390625" lon="-0.3656502999365329742431640625">
        <ele>212.8000030517578125</ele>
        <time>2021-09-27T09:58:19.000Z</time>
      </trkpt>
      <trkpt lat="39.76261834613978862762451171875" lon="-0.36562875844538211822509765625">
        <ele>212.8000030517578125</ele>
        <time>2021-09-27T09:58:21.000Z</time>
      </trkpt>
      <trkpt lat="39.76251994259655475616455078125" lon="-0.36560562439262866973876953125">
        <ele>212.600006103515625</ele>
        <time>2021-09-27T09:58:23.000Z</time>
      </trkpt>
      <trkpt lat="39.76242170669138431549072265625" lon="-0.3655864298343658447265625">
        <ele>212.600006103515625</ele>
        <time>2021-09-27T09:58:25.000Z</time>
      </trkpt>
      <trkpt lat="39.762318693101406097412109375" lon="-0.36556287668645381927490234375">
        <ele>212.399993896484375</ele>
        <time>2021-09-27T09:58:27.000Z</time>
      </trkpt>
      <trkpt lat="39.7622668929398059844970703125" lon="-0.36554896272718906402587890625">
        <ele>212.399993896484375</ele>
        <time>2021-09-27T09:58:28.000Z</time>
      </trkpt>
      <trkpt lat="39.7622192837297916412353515625" lon="-0.36553345620632171630859375">
        <ele>212.399993896484375</ele>
        <time>2021-09-27T09:58:29.000Z</time>
      </trkpt>
      <trkpt lat="39.76211995817720890045166015625" lon="-0.36550520919263362884521484375">
        <ele>212.1999969482421875</ele>
        <time>2021-09-27T09:58:31.000Z</time>
      </trkpt>
      <trkpt lat="39.76201987825334072113037109375" lon="-0.3654871881008148193359375">
        <ele>212.1999969482421875</ele>
        <time>2021-09-27T09:58:33.000Z</time>
      </trkpt>
      <trkpt lat="39.76197101175785064697265625" lon="-0.36547578871250152587890625">
        <ele>212.1999969482421875</ele>
        <time>2021-09-27T09:58:34.000Z</time>
      </trkpt>
      <trkpt lat="39.7619208879768848419189453125" lon="-0.36546447314321994781494140625">
        <ele>212.1999969482421875</ele>
        <time>2021-09-27T09:58:35.000Z</time>
      </trkpt>
      <trkpt lat="39.76181988604366779327392578125" lon="-0.3654414229094982147216796875">
        <ele>212.399993896484375</ele>
        <time>2021-09-27T09:58:37.000Z</time>
      </trkpt>
      <trkpt lat="39.7617683373391628265380859375" lon="-0.3654270060360431671142578125">
        <ele>212.399993896484375</ele>
        <time>2021-09-27T09:58:38.000Z</time>
      </trkpt>
      <trkpt lat="39.76171829737722873687744140625" lon="-0.36541300825774669647216796875">
        <ele>212.399993896484375</ele>
        <time>2021-09-27T09:58:39.000Z</time>
      </trkpt>
      <trkpt lat="39.7616134397685527801513671875" lon="-0.365388281643390655517578125">
        <ele>212.600006103515625</ele>
        <time>2021-09-27T09:58:41.000Z</time>
      </trkpt>
      <trkpt lat="39.76150589995086193084716796875" lon="-0.36536523140966892242431640625">
        <ele>212.8000030517578125</ele>
        <time>2021-09-27T09:58:43.000Z</time>
      </trkpt>
      <trkpt lat="39.76139760576188564300537109375" lon="-0.36534394137561321258544921875">
        <ele>213</ele>
        <time>2021-09-27T09:58:45.000Z</time>
      </trkpt>
      <trkpt lat="39.76128243841230869293212890625" lon="-0.365321226418018341064453125">
        <ele>212.8000030517578125</ele>
        <time>2021-09-27T09:58:47.000Z</time>
      </trkpt>
      <trkpt lat="39.76117129437625408172607421875" lon="-0.3652969188988208770751953125">
        <ele>212.600006103515625</ele>
        <time>2021-09-27T09:58:49.000Z</time>
      </trkpt>
      <trkpt lat="39.7610585577785968780517578125" lon="-0.3652761317789554595947265625">
        <ele>212.1999969482421875</ele>
        <time>2021-09-27T09:58:51.000Z</time>
      </trkpt>
      <trkpt lat="39.7609462402760982513427734375" lon="-0.365253500640392303466796875">
        <ele>211.8000030517578125</ele>
        <time>2021-09-27T09:58:53.000Z</time>
      </trkpt>
      <trkpt lat="39.76089217700064182281494140625" lon="-0.36524285562336444854736328125">
        <ele>211.600006103515625</ele>
        <time>2021-09-27T09:58:54.000Z</time>
      </trkpt>
      <trkpt lat="39.76083802990615367889404296875" lon="-0.36523061804473400115966796875">
        <ele>211.399993896484375</ele>
        <time>2021-09-27T09:58:55.000Z</time>
      </trkpt>
      <trkpt lat="39.760731160640716552734375" lon="-0.36520580761134624481201171875">
        <ele>210.8000030517578125</ele>
        <time>2021-09-27T09:58:57.000Z</time>
      </trkpt>
      <trkpt lat="39.76062278263270854949951171875" lon="-0.3651805780827999114990234375">
        <ele>210.600006103515625</ele>
        <time>2021-09-27T09:58:59.000Z</time>
      </trkpt>
      <trkpt lat="39.76051859557628631591796875" lon="-0.36515685729682445526123046875">
        <ele>210.1999969482421875</ele>
        <time>2021-09-27T09:59:01.000Z</time>
      </trkpt>
      <trkpt lat="39.76041357032954692840576171875" lon="-0.36512978374958038330078125">
        <ele>210</ele>
        <time>2021-09-27T09:59:03.000Z</time>
      </trkpt>
      <trkpt lat="39.7603112272918224334716796875" lon="-0.36508946679532527923583984375">
        <ele>210</ele>
        <time>2021-09-27T09:59:05.000Z</time>
      </trkpt>
      <trkpt lat="39.76021106354892253875732421875" lon="-0.36504303105175495147705078125">
        <ele>210.1999969482421875</ele>
        <time>2021-09-27T09:59:07.000Z</time>
      </trkpt>
      <trkpt lat="39.76010528393089771270751953125" lon="-0.36499299108982086181640625">
        <ele>210.399993896484375</ele>
        <time>2021-09-27T09:59:09.000Z</time>
      </trkpt>
      <trkpt lat="39.76000017486512660980224609375" lon="-0.36493976600468158721923828125">
        <ele>210.1999969482421875</ele>
        <time>2021-09-27T09:59:11.000Z</time>
      </trkpt>
      <trkpt lat="39.75989364087581634521484375" lon="-0.36488025449216365814208984375">
        <ele>209.8000030517578125</ele>
        <time>2021-09-27T09:59:13.000Z</time>
      </trkpt>
      <trkpt lat="39.75979615934193134307861328125" lon="-0.36481194198131561279296875">
        <ele>209.399993896484375</ele>
        <time>2021-09-27T09:59:15.000Z</time>
      </trkpt>
      <trkpt lat="39.75974704138934612274169921875" lon="-0.3647742234170436859130859375">
        <ele>209</ele>
        <time>2021-09-27T09:59:16.000Z</time>
      </trkpt>
      <trkpt lat="39.759698174893856048583984375" lon="-0.36473692394793033599853515625">
        <ele>208.8000030517578125</ele>
        <time>2021-09-27T09:59:17.000Z</time>
      </trkpt>
      <trkpt lat="39.75960991345345973968505859375" lon="-0.3646624088287353515625">
        <ele>208.1999969482421875</ele>
        <time>2021-09-27T09:59:19.000Z</time>
      </trkpt>
      <trkpt lat="39.7595229931175708770751953125" lon="-0.3645827807486057281494140625">
        <ele>208</ele>
        <time>2021-09-27T09:59:21.000Z</time>
      </trkpt>
      <trkpt lat="39.75943028926849365234375" lon="-0.3644966147840023040771484375">
        <ele>209</ele>
        <time>2021-09-27T09:59:23.000Z</time>
      </trkpt>
      <trkpt lat="39.7593432851135730743408203125" lon="-0.36440935917198657989501953125">
        <ele>210</ele>
        <time>2021-09-27T09:59:25.000Z</time>
      </trkpt>
      <trkpt lat="39.7592675127089023590087890625" lon="-0.3643299825489521026611328125">
        <ele>210.8000030517578125</ele>
        <time>2021-09-27T09:59:27.000Z</time>
      </trkpt>
      <trkpt lat="39.759197272360324859619140625" lon="-0.3642501868307590484619140625">
        <ele>211.399993896484375</ele>
        <time>2021-09-27T09:59:29.000Z</time>
      </trkpt>
      <trkpt lat="39.7591602243483066558837890625" lon="-0.36420852877199649810791015625">
        <ele>211.8000030517578125</ele>
        <time>2021-09-27T09:59:30.000Z</time>
      </trkpt>
      <trkpt lat="39.75911873392760753631591796875" lon="-0.36416645161807537078857421875">
        <ele>212.1999969482421875</ele>
        <time>2021-09-27T09:59:31.000Z</time>
      </trkpt>
      <trkpt lat="39.7590328194200992584228515625" lon="-0.36407743580639362335205078125">
        <ele>213.399993896484375</ele>
        <time>2021-09-27T09:59:33.000Z</time>
      </trkpt>
      <trkpt lat="39.75894874893128871917724609375" lon="-0.36398523487150669097900390625">
        <ele>214.399993896484375</ele>
        <time>2021-09-27T09:59:35.000Z</time>
      </trkpt>
      <trkpt lat="39.75886275060474872589111328125" lon="-0.36389789544045925140380859375">
        <ele>215.600006103515625</ele>
        <time>2021-09-27T09:59:37.000Z</time>
      </trkpt>
      <trkpt lat="39.75877407006919384002685546875" lon="-0.36381256766617298126220703125">
        <ele>216.8000030517578125</ele>
        <time>2021-09-27T09:59:39.000Z</time>
      </trkpt>
      <trkpt lat="39.75868589244782924652099609375" lon="-0.363721959292888641357421875">
        <ele>218.399993896484375</ele>
        <time>2021-09-27T09:59:41.000Z</time>
      </trkpt>
      <trkpt lat="39.7585976310074329376220703125" lon="-0.3636364638805389404296875">
        <ele>220</ele>
        <time>2021-09-27T09:59:43.000Z</time>
      </trkpt>
      <trkpt lat="39.75851221941411495208740234375" lon="-0.3635479509830474853515625">
        <ele>221.600006103515625</ele>
        <time>2021-09-27T09:59:45.000Z</time>
      </trkpt>
      <trkpt lat="39.7584682144224643707275390625" lon="-0.36350679583847522735595703125">
        <ele>222.399993896484375</ele>
        <time>2021-09-27T09:59:46.000Z</time>
      </trkpt>
      <trkpt lat="39.75842337124049663543701171875" lon="-0.3634642995893955230712890625">
        <ele>223.399993896484375</ele>
        <time>2021-09-27T09:59:47.000Z</time>
      </trkpt>
      <trkpt lat="39.75833267904818058013916015625" lon="-0.3633814863860607147216796875">
        <ele>225.1999969482421875</ele>
        <time>2021-09-27T09:59:49.000Z</time>
      </trkpt>
      <trkpt lat="39.75823461078107357025146484375" lon="-0.36331283859908580780029296875">
        <ele>225.399993896484375</ele>
        <time>2021-09-27T09:59:51.000Z</time>
      </trkpt>
      <trkpt lat="39.75818750448524951934814453125" lon="-0.36328132264316082000732421875">
        <ele>225.399993896484375</ele>
        <time>2021-09-27T09:59:52.000Z</time>
      </trkpt>
      <trkpt lat="39.75814123637974262237548828125" lon="-0.36325282417237758636474609375">
        <ele>225.399993896484375</ele>
        <time>2021-09-27T09:59:53.000Z</time>
      </trkpt>
      <trkpt lat="39.7580913640558719635009765625" lon="-0.36322985775768756866455078125">
        <ele>225.600006103515625</ele>
        <time>2021-09-27T09:59:54.000Z</time>
      </trkpt>
      <trkpt lat="39.75804115645587444305419921875" lon="-0.36321326158940792083740234375">
        <ele>225.8000030517578125</ele>
        <time>2021-09-27T09:59:55.000Z</time>
      </trkpt>
      <trkpt lat="39.75794426165521144866943359375" lon="-0.36317084915935993194580078125">
        <ele>226.1999969482421875</ele>
        <time>2021-09-27T09:59:57.000Z</time>
      </trkpt>
      <trkpt lat="39.75784401409327983856201171875" lon="-0.36312189884483814239501953125">
        <ele>225.600006103515625</ele>
        <time>2021-09-27T09:59:59.000Z</time>
      </trkpt>
      <trkpt lat="39.75774108432233333587646484375" lon="-0.363077223300933837890625">
        <ele>223.1999969482421875</ele>
        <time>2021-09-27T10:00:01.000Z</time>
      </trkpt>
      <trkpt lat="39.75768777541816234588623046875" lon="-0.3630586154758930206298828125">
        <ele>221.8000030517578125</ele>
        <time>2021-09-27T10:00:02.000Z</time>
      </trkpt>
      <trkpt lat="39.757633544504642486572265625" lon="-0.36304411478340625762939453125">
        <ele>220.600006103515625</ele>
        <time>2021-09-27T10:00:03.000Z</time>
      </trkpt>
      <trkpt lat="39.7575203888118267059326171875" lon="-0.36302416585385799407958984375">
        <ele>218.399993896484375</ele>
        <time>2021-09-27T10:00:05.000Z</time>
      </trkpt>
      <trkpt lat="39.75739675574004650115966796875" lon="-0.36301662214100360870361328125">
        <ele>216</ele>
        <time>2021-09-27T10:00:07.000Z</time>
      </trkpt>
      <trkpt lat="39.7572689317166805267333984375" lon="-0.36301511339843273162841796875">
        <ele>213.600006103515625</ele>
        <time>2021-09-27T10:00:09.000Z</time>
      </trkpt>
      <trkpt lat="39.75715418346226215362548828125" lon="-0.3630277700722217559814453125">
        <ele>211.8000030517578125</ele>
        <time>2021-09-27T10:00:11.000Z</time>
      </trkpt>
      <trkpt lat="39.75709735415875911712646484375" lon="-0.36304042674601078033447265625">
        <ele>211</ele>
        <time>2021-09-27T10:00:12.000Z</time>
      </trkpt>
      <trkpt lat="39.757035411894321441650390625" lon="-0.36305383779108524322509765625">
        <ele>210</ele>
        <time>2021-09-27T10:00:13.000Z</time>
      </trkpt>
      <trkpt lat="39.7569165565073490142822265625" lon="-0.36308920942246913909912109375">
        <ele>207.8000030517578125</ele>
        <time>2021-09-27T10:00:15.000Z</time>
      </trkpt>
      <trkpt lat="39.756802730262279510498046875" lon="-0.363137908279895782470703125">
        <ele>206.399993896484375</ele>
        <time>2021-09-27T10:00:17.000Z</time>
      </trkpt>
      <trkpt lat="39.75668982602655887603759765625" lon="-0.363192893564701080322265625">
        <ele>205</ele>
        <time>2021-09-27T10:00:19.000Z</time>
      </trkpt>
      <trkpt lat="39.75657683797180652618408203125" lon="-0.36324729211628437042236328125">
        <ele>203.600006103515625</ele>
        <time>2021-09-27T10:00:21.000Z</time>
      </trkpt>
      <trkpt lat="39.75646443665027618408203125" lon="-0.3633092343807220458984375">
        <ele>202.399993896484375</ele>
        <time>2021-09-27T10:00:23.000Z</time>
      </trkpt>
      <trkpt lat="39.7564099542796611785888671875" lon="-0.36334100179374217987060546875">
        <ele>201.8000030517578125</ele>
        <time>2021-09-27T10:00:24.000Z</time>
      </trkpt>
      <trkpt lat="39.75636075250804424285888671875" lon="-0.36338022910058498382568359375">
        <ele>201.1999969482421875</ele>
        <time>2021-09-27T10:00:25.000Z</time>
      </trkpt>
      <trkpt lat="39.756263606250286102294921875" lon="-0.36346639506518840789794921875">
        <ele>200.399993896484375</ele>
        <time>2021-09-27T10:00:27.000Z</time>
      </trkpt>
      <trkpt lat="39.75617299787700176239013671875" lon="-0.363565050065517425537109375">
        <ele>199.8000030517578125</ele>
        <time>2021-09-27T10:00:29.000Z</time>
      </trkpt>
      <trkpt lat="39.75612974725663661956787109375" lon="-0.36361810751259326934814453125">
        <ele>199.600006103515625</ele>
        <time>2021-09-27T10:00:30.000Z</time>
      </trkpt>
      <trkpt lat="39.75609186105430126190185546875" lon="-0.36366932094097137451171875">
        <ele>199.399993896484375</ele>
        <time>2021-09-27T10:00:31.000Z</time>
      </trkpt>
      <trkpt lat="39.75605347193777561187744140625" lon="-0.363721959292888641357421875">
        <ele>199.399993896484375</ele>
        <time>2021-09-27T10:00:32.000Z</time>
      </trkpt>
      <trkpt lat="39.75601441226899623870849609375" lon="-0.3637787885963916778564453125">
        <ele>199.1999969482421875</ele>
        <time>2021-09-27T10:00:33.000Z</time>
      </trkpt>
      <trkpt lat="39.755974598228931427001953125" lon="-0.3638341091573238372802734375">
        <ele>199</ele>
        <time>2021-09-27T10:00:34.000Z</time>
      </trkpt>
      <trkpt lat="39.75593612529337406158447265625" lon="-0.36389085464179515838623046875">
        <ele>199</ele>
        <time>2021-09-27T10:00:35.000Z</time>
      </trkpt>
      <trkpt lat="39.75586286745965480804443359375" lon="-0.36400702781975269317626953125">
        <ele>198.8000030517578125</ele>
        <time>2021-09-27T10:00:37.000Z</time>
      </trkpt>
      <trkpt lat="39.75579028017818927764892578125" lon="-0.36412772722542285919189453125">
        <ele>198.8000030517578125</ele>
        <time>2021-09-27T10:00:39.000Z</time>
      </trkpt>
      <trkpt lat="39.75571869872510433197021484375" lon="-0.364247001707553863525390625">
        <ele>198.600006103515625</ele>
        <time>2021-09-27T10:00:41.000Z</time>
      </trkpt>
      <trkpt lat="39.75564141757786273956298828125" lon="-0.3643685393035411834716796875">
        <ele>198.600006103515625</ele>
        <time>2021-09-27T10:00:43.000Z</time>
      </trkpt>
      <trkpt lat="39.7555707581341266632080078125" lon="-0.36448798142373561859130859375">
        <ele>198.399993896484375</ele>
        <time>2021-09-27T10:00:45.000Z</time>
      </trkpt>
      <trkpt lat="39.75553572177886962890625" lon="-0.3645475767552852630615234375">
        <ele>198.399993896484375</ele>
        <time>2021-09-27T10:00:46.000Z</time>
      </trkpt>
      <trkpt lat="39.7554969973862171173095703125" lon="-0.364605076611042022705078125">
        <ele>198.1999969482421875</ele>
        <time>2021-09-27T10:00:47.000Z</time>
      </trkpt>
      <trkpt lat="39.75545818917453289031982421875" lon="-0.3646637499332427978515625">
        <ele>198.1999969482421875</ele>
        <time>2021-09-27T10:00:48.000Z</time>
      </trkpt>
      <trkpt lat="39.75542231462895870208740234375" lon="-0.3647212497889995574951171875">
        <ele>198</ele>
        <time>2021-09-27T10:00:49.000Z</time>
      </trkpt>
      <trkpt lat="39.75535023026168346405029296875" lon="-0.36484069190919399261474609375">
        <ele>198</ele>
        <time>2021-09-27T10:00:51.000Z</time>
      </trkpt>
      <trkpt lat="39.75527797825634479522705078125" lon="-0.36496340297162532806396484375">
        <ele>198</ele>
        <time>2021-09-27T10:00:53.000Z</time>
      </trkpt>
      <trkpt lat="39.75520120002329349517822265625" lon="-0.36509030498564243316650390625">
        <ele>198.1999969482421875</ele>
        <time>2021-09-27T10:00:55.000Z</time>
      </trkpt>
      <trkpt lat="39.75512358359992504119873046875" lon="-0.36522005684673786163330078125">
        <ele>198.399993896484375</ele>
        <time>2021-09-27T10:00:57.000Z</time>
      </trkpt>
      <trkpt lat="39.755084775388240814208984375" lon="-0.36528669297695159912109375">
        <ele>198.399993896484375</ele>
        <time>2021-09-27T10:00:58.000Z</time>
      </trkpt>
      <trkpt lat="39.75504730828106403350830078125" lon="-0.365349389612674713134765625">
        <ele>198.399993896484375</ele>
        <time>2021-09-27T10:00:59.000Z</time>
      </trkpt>
      <trkpt lat="39.75497715175151824951171875" lon="-0.3654789738357067108154296875">
        <ele>198.600006103515625</ele>
        <time>2021-09-27T10:01:01.000Z</time>
      </trkpt>
      <trkpt lat="39.75490582175552845001220703125" lon="-0.36560411565005779266357421875">
        <ele>198.600006103515625</ele>
        <time>2021-09-27T10:01:03.000Z</time>
      </trkpt>
      <trkpt lat="39.7548271156847476959228515625" lon="-0.36573596298694610595703125">
        <ele>198.399993896484375</ele>
        <time>2021-09-27T10:01:05.000Z</time>
      </trkpt>
      <trkpt lat="39.75474488921463489532470703125" lon="-0.365871749818325042724609375">
        <ele>198.1999969482421875</ele>
        <time>2021-09-27T10:01:07.000Z</time>
      </trkpt>
      <trkpt lat="39.75465989671647548675537109375" lon="-0.36600460298359394073486328125">
        <ele>197.8000030517578125</ele>
        <time>2021-09-27T10:01:09.000Z</time>
      </trkpt>
      <trkpt lat="39.75461530499160289764404296875" lon="-0.36607484333217144012451171875">
        <ele>197.8000030517578125</ele>
        <time>2021-09-27T10:01:10.000Z</time>
      </trkpt>
      <trkpt lat="39.75457012653350830078125" lon="-0.36614374257624149322509765625">
        <ele>197.600006103515625</ele>
        <time>2021-09-27T10:01:11.000Z</time>
      </trkpt>
      <trkpt lat="39.75448320619761943817138671875" lon="-0.3662812896072864532470703125">
        <ele>197.600006103515625</ele>
        <time>2021-09-27T10:01:13.000Z</time>
      </trkpt>
      <trkpt lat="39.75443802773952484130859375" lon="-0.3663483448326587677001953125">
        <ele>197.600006103515625</ele>
        <time>2021-09-27T10:01:14.000Z</time>
      </trkpt>
      <trkpt lat="39.75439402274787425994873046875" lon="-0.366409532725811004638671875">
        <ele>197.8000030517578125</ele>
        <time>2021-09-27T10:01:15.000Z</time>
      </trkpt>
      <trkpt lat="39.754307270050048828125" lon="-0.36652495153248310089111328125">
        <ele>197.8000030517578125</ele>
        <time>2021-09-27T10:01:17.000Z</time>
      </trkpt>
      <trkpt lat="39.75422437302768230438232421875" lon="-0.3666427172720432281494140625">
        <ele>198.1999969482421875</ele>
        <time>2021-09-27T10:01:19.000Z</time>
      </trkpt>
      <trkpt lat="39.7541391290724277496337890625" lon="-0.3667677752673625946044921875">
        <ele>198.399993896484375</ele>
        <time>2021-09-27T10:01:21.000Z</time>
      </trkpt>
      <trkpt lat="39.7540472634136676788330078125" lon="-0.36688839085400104522705078125">
        <ele>198.600006103515625</ele>
        <time>2021-09-27T10:01:23.000Z</time>
      </trkpt>
      <trkpt lat="39.75399554707109928131103515625" lon="-0.3669484890997409820556640625">
        <ele>198.600006103515625</ele>
        <time>2021-09-27T10:01:24.000Z</time>
      </trkpt>
      <trkpt lat="39.75394475273787975311279296875" lon="-0.3670064918696880340576171875">
        <ele>198.8000030517578125</ele>
        <time>2021-09-27T10:01:25.000Z</time>
      </trkpt>
      <trkpt lat="39.75384484045207500457763671875" lon="-0.367125682532787322998046875">
        <ele>198.8000030517578125</ele>
        <time>2021-09-27T10:01:27.000Z</time>
      </trkpt>
      <trkpt lat="39.75379371084272861480712890625" lon="-0.36718904972076416015625">
        <ele>199</ele>
        <time>2021-09-27T10:01:28.000Z</time>
      </trkpt>
      <trkpt lat="39.75374274887144565582275390625" lon="-0.367253087460994720458984375">
        <ele>199</ele>
        <time>2021-09-27T10:01:29.000Z</time>
      </trkpt>
      <trkpt lat="39.7536378912627696990966796875" lon="-0.36737504415214061737060546875">
        <ele>199</ele>
        <time>2021-09-27T10:01:31.000Z</time>
      </trkpt>
      <trkpt lat="39.75353387184441089630126953125" lon="-0.367487110197544097900390625">
        <ele>199</ele>
        <time>2021-09-27T10:01:33.000Z</time>
      </trkpt>
      <trkpt lat="39.7534303553402423858642578125" lon="-0.3675954043865203857421875">
        <ele>199</ele>
        <time>2021-09-27T10:01:35.000Z</time>
      </trkpt>
      <trkpt lat="39.75337629206478595733642578125" lon="-0.36765382625162601470947265625">
        <ele>198.8000030517578125</ele>
        <time>2021-09-27T10:01:36.000Z</time>
      </trkpt>
      <trkpt lat="39.753321893513202667236328125" lon="-0.36771199665963649749755859375">
        <ele>198.8000030517578125</ele>
        <time>2021-09-27T10:01:37.000Z</time>
      </trkpt>
      <trkpt lat="39.75320630706846714019775390625" lon="-0.36782565526664257049560546875">
        <ele>198.600006103515625</ele>
        <time>2021-09-27T10:01:39.000Z</time>
      </trkpt>
      <trkpt lat="39.753086529672145843505859375" lon="-0.3679372183978557586669921875">
        <ele>198.399993896484375</ele>
        <time>2021-09-27T10:01:41.000Z</time>
      </trkpt>
      <trkpt lat="39.7529666684567928314208984375" lon="-0.368050038814544677734375">
        <ele>198.399993896484375</ele>
        <time>2021-09-27T10:01:43.000Z</time>
      </trkpt>
      <trkpt lat="39.75290724076330661773681640625" lon="-0.36810678429901599884033203125">
        <ele>198.399993896484375</ele>
        <time>2021-09-27T10:01:44.000Z</time>
      </trkpt>
      <trkpt lat="39.75284689106047153472900390625" lon="-0.3681628592312335968017578125">
        <ele>198.1999969482421875</ele>
        <time>2021-09-27T10:01:45.000Z</time>
      </trkpt>
      <trkpt lat="39.75272384472191333770751953125" lon="-0.3682788647711277008056640625">
        <ele>198</ele>
        <time>2021-09-27T10:01:47.000Z</time>
      </trkpt>
      <trkpt lat="39.75259895436465740203857421875" lon="-0.3683925233781337738037109375">
        <ele>197.8000030517578125</ele>
        <time>2021-09-27T10:01:49.000Z</time>
      </trkpt>
      <trkpt lat="39.75247993133962154388427734375" lon="-0.3685065172612667083740234375">
        <ele>197.600006103515625</ele>
        <time>2021-09-27T10:01:51.000Z</time>
      </trkpt>
      <trkpt lat="39.75235856138169765472412109375" lon="-0.36861539818346500396728515625">
        <ele>197.399993896484375</ele>
        <time>2021-09-27T10:01:53.000Z</time>
      </trkpt>
      <trkpt lat="39.75224674679338932037353515625" lon="-0.36871849559247493743896484375">
        <ele>197.1999969482421875</ele>
        <time>2021-09-27T10:01:55.000Z</time>
      </trkpt>
      <trkpt lat="39.75213107652962207794189453125" lon="-0.36881907843053340911865234375">
        <ele>197</ele>
        <time>2021-09-27T10:01:57.000Z</time>
      </trkpt>
      <trkpt lat="39.7520262189209461212158203125" lon="-0.36891949363052845001220703125">
        <ele>196.399993896484375</ele>
        <time>2021-09-27T10:01:59.000Z</time>
      </trkpt>
      <trkpt lat="39.75191834382712841033935546875" lon="-0.36901487968862056732177734375">
        <ele>196</ele>
        <time>2021-09-27T10:02:01.000Z</time>
      </trkpt>
      <trkpt lat="39.75181625224649906158447265625" lon="-0.3691137023270130157470703125">
        <ele>195.600006103515625</ele>
        <time>2021-09-27T10:02:03.000Z</time>
      </trkpt>
      <trkpt lat="39.75176713429391384124755859375" lon="-0.3691623173654079437255859375">
        <ele>195.399993896484375</ele>
        <time>2021-09-27T10:02:04.000Z</time>
      </trkpt>
      <trkpt lat="39.751714579761028289794921875" lon="-0.369208753108978271484375">
        <ele>195.1999969482421875</ele>
        <time>2021-09-27T10:02:05.000Z</time>
      </trkpt>
      <trkpt lat="39.75161894224584102630615234375" lon="-0.3692934103310108184814453125">
        <ele>194.8000030517578125</ele>
        <time>2021-09-27T10:02:07.000Z</time>
      </trkpt>
      <trkpt lat="39.75152456201612949371337890625" lon="-0.3693805821239948272705078125">
        <ele>194.399993896484375</ele>
        <time>2021-09-27T10:02:09.000Z</time>
      </trkpt>
      <trkpt lat="39.751475192606449127197265625" lon="-0.36942626349627971649169921875">
        <ele>194.1999969482421875</ele>
        <time>2021-09-27T10:02:10.000Z</time>
      </trkpt>
      <trkpt lat="39.7514230571687221527099609375" lon="-0.36947119049727916717529296875">
        <ele>194</ele>
        <time>2021-09-27T10:02:11.000Z</time>
      </trkpt>
      <trkpt lat="39.7513694129884243011474609375" lon="-0.36951662041246891021728515625">
        <ele>193.8000030517578125</ele>
        <time>2021-09-27T10:02:12.000Z</time>
      </trkpt>
      <trkpt lat="39.7513191215693950653076171875" lon="-0.36956372670829296112060546875">
        <ele>193.600006103515625</ele>
        <time>2021-09-27T10:02:13.000Z</time>
      </trkpt>
      <trkpt lat="39.75121946074068546295166015625" lon="-0.3696575202047824859619140625">
        <ele>193.1999969482421875</ele>
        <time>2021-09-27T10:02:15.000Z</time>
      </trkpt>
      <trkpt lat="39.7511709295213222503662109375" lon="-0.36970026791095733642578125">
        <ele>193</ele>
        <time>2021-09-27T10:02:16.000Z</time>
      </trkpt>
      <trkpt lat="39.7511226497590541839599609375" lon="-0.3697433508932590484619140625">
        <ele>192.8000030517578125</ele>
        <time>2021-09-27T10:02:17.000Z</time>
      </trkpt>
      <trkpt lat="39.751077555119991302490234375" lon="-0.36978542804718017578125">
        <ele>192.600006103515625</ele>
        <time>2021-09-27T10:02:18.000Z</time>
      </trkpt>
      <trkpt lat="39.751032292842864990234375" lon="-0.36982608027756214141845703125">
        <ele>192.399993896484375</ele>
        <time>2021-09-27T10:02:19.000Z</time>
      </trkpt>
      <trkpt lat="39.750939421355724334716796875" lon="-0.36991216242313385009765625">
        <ele>192</ele>
        <time>2021-09-27T10:02:21.000Z</time>
      </trkpt>
      <trkpt lat="39.75085199810564517974853515625" lon="-0.3699948079884052276611328125">
        <ele>191.8000030517578125</ele>
        <time>2021-09-27T10:02:23.000Z</time>
      </trkpt>
      <trkpt lat="39.75078980438411235809326171875" lon="-0.37005859427154064178466796875">
        <ele>191.399993896484375</ele>
        <time>2021-09-27T10:02:25.000Z</time>
      </trkpt>
      <trkpt lat="39.75074571557343006134033203125" lon="-0.37010033614933490753173828125">
        <ele>191.399993896484375</ele>
        <time>2021-09-27T10:02:27.000Z</time>
      </trkpt>
      <trkpt lat="39.75073046050965785980224609375" lon="-0.3701118193566799163818359375">
        <ele>191.1999969482421875</ele>
        <time>2021-09-27T10:02:28.000Z</time>
      </trkpt>
      <trkpt lat="39.75071704946458339691162109375" lon="-0.37011374719440937042236328125">
        <ele>191.1999969482421875</ele>
        <time>2021-09-27T10:02:29.000Z</time>
      </trkpt>
      <trkpt lat="39.7507010400295257568359375" lon="-0.3701195307075977325439453125">
        <ele>191</ele>
        <time>2021-09-27T10:02:31.000Z</time>
      </trkpt>
      <trkpt lat="39.75070464424788951873779296875" lon="-0.37011642940342426300048828125">
        <ele>191.1999969482421875</ele>
        <time>2021-09-27T10:02:32.000Z</time>
      </trkpt>
      <trkpt lat="39.7506307996809482574462890625" lon="-0.3701899386942386627197265625">
        <ele>190.8000030517578125</ele>
        <time>2021-09-27T10:06:01.000Z</time>
      </trkpt>
      <trkpt lat="39.7505821846425533294677734375" lon="-0.37023360840976238250732421875">
        <ele>190.600006103515625</ele>
        <time>2021-09-27T10:06:03.000Z</time>
      </trkpt>
      <trkpt lat="39.7505213320255279541015625" lon="-0.37029379047453403472900390625">
        <ele>190.399993896484375</ele>
        <time>2021-09-27T10:06:05.000Z</time>
      </trkpt>
      <trkpt lat="39.7504862956702709197998046875" lon="-0.370326228439807891845703125">
        <ele>190.399993896484375</ele>
        <time>2021-09-27T10:06:06.000Z</time>
      </trkpt>
      <trkpt lat="39.75045084021985530853271484375" lon="-0.37035682238638401031494140625">
        <ele>190.1999969482421875</ele>
        <time>2021-09-27T10:06:07.000Z</time>
      </trkpt>
      <trkpt lat="39.75041471421718597412109375" lon="-0.3703880868852138519287109375">
        <ele>190</ele>
        <time>2021-09-27T10:06:08.000Z</time>
      </trkpt>
      <trkpt lat="39.75038009695708751678466796875" lon="-0.37041700445115566253662109375">
        <ele>189.8000030517578125</ele>
        <time>2021-09-27T10:06:09.000Z</time>
      </trkpt>
      <trkpt lat="39.75031203590333461761474609375" lon="-0.37047869525849819183349609375">
        <ele>189.8000030517578125</ele>
        <time>2021-09-27T10:06:11.000Z</time>
      </trkpt>
      <trkpt lat="39.75024380721151828765869140625" lon="-0.37053435109555721282958984375">
        <ele>189.8000030517578125</ele>
        <time>2021-09-27T10:06:13.000Z</time>
      </trkpt>
      <trkpt lat="39.7501806914806365966796875" lon="-0.370591767132282257080078125">
        <ele>189.8000030517578125</ele>
        <time>2021-09-27T10:06:15.000Z</time>
      </trkpt>
      <trkpt lat="39.75014808587729930877685546875" lon="-0.37062101997435092926025390625">
        <ele>189.8000030517578125</ele>
        <time>2021-09-27T10:06:16.000Z</time>
      </trkpt>
      <trkpt lat="39.75011338479816913604736328125" lon="-0.3706492669880390167236328125">
        <ele>189.8000030517578125</ele>
        <time>2021-09-27T10:06:17.000Z</time>
      </trkpt>
      <trkpt lat="39.75003643892705440521240234375" lon="-0.37071590311825275421142578125">
        <ele>189.8000030517578125</ele>
        <time>2021-09-27T10:06:19.000Z</time>
      </trkpt>
      <trkpt lat="39.74995580501854419708251953125" lon="-0.370792932808399200439453125">
        <ele>189.8000030517578125</ele>
        <time>2021-09-27T10:06:21.000Z</time>
      </trkpt>
      <trkpt lat="39.74991708062589168548583984375" lon="-0.37083023227751255035400390625">
        <ele>189.8000030517578125</ele>
        <time>2021-09-27T10:06:22.000Z</time>
      </trkpt>
      <trkpt lat="39.7498787753283977508544921875" lon="-0.3708676993846893310546875">
        <ele>189.8000030517578125</ele>
        <time>2021-09-27T10:06:23.000Z</time>
      </trkpt>
      <trkpt lat="39.74980090744793415069580078125" lon="-0.37094003520905971527099609375">
        <ele>189.8000030517578125</ele>
        <time>2021-09-27T10:06:25.000Z</time>
      </trkpt>
      <trkpt lat="39.749718345701694488525390625" lon="-0.3710140474140644073486328125">
        <ele>189.8000030517578125</ele>
        <time>2021-09-27T10:06:27.000Z</time>
      </trkpt>
      <trkpt lat="39.7496310062706470489501953125" lon="-0.37109501659870147705078125">
        <ele>189.600006103515625</ele>
        <time>2021-09-27T10:06:29.000Z</time>
      </trkpt>
      <trkpt lat="39.74958649836480617523193359375" lon="-0.37113533355295658111572265625">
        <ele>189.600006103515625</ele>
        <time>2021-09-27T10:06:30.000Z</time>
      </trkpt>
      <trkpt lat="39.749541319906711578369140625" lon="-0.37117472849786281585693359375">
        <ele>189.600006103515625</ele>
        <time>2021-09-27T10:06:31.000Z</time>
      </trkpt>
      <trkpt lat="39.7494506277143955230712890625" lon="-0.37125888280570507049560546875">
        <ele>190</ele>
        <time>2021-09-27T10:06:33.000Z</time>
      </trkpt>
      <trkpt lat="39.7493557445704936981201171875" lon="-0.371338762342929840087890625">
        <ele>190.1999969482421875</ele>
        <time>2021-09-27T10:06:35.000Z</time>
      </trkpt>
      <trkpt lat="39.74925273098051548004150390625" lon="-0.3714103437960147857666015625">
        <ele>190.399993896484375</ele>
        <time>2021-09-27T10:06:37.000Z</time>
      </trkpt>
      <trkpt lat="39.74919891916215419769287109375" lon="-0.37143909372389316558837890625">
        <ele>190.600006103515625</ele>
        <time>2021-09-27T10:06:38.000Z</time>
      </trkpt>
      <trkpt lat="39.74914544261991977691650390625" lon="-0.37147044204175472259521484375">
        <ele>190.600006103515625</ele>
        <time>2021-09-27T10:06:39.000Z</time>
      </trkpt>
      <trkpt lat="39.749043770134449005126953125" lon="-0.37152417004108428955078125">
        <ele>190.8000030517578125</ele>
        <time>2021-09-27T10:06:41.000Z</time>
      </trkpt>
      <trkpt lat="39.74894008599221706390380859375" lon="-0.37156398408114910125732421875">
        <ele>191</ele>
        <time>2021-09-27T10:06:43.000Z</time>
      </trkpt>
      <trkpt lat="39.74883933551609516143798828125" lon="-0.3715991042554378509521484375">
        <ele>191.1999969482421875</ele>
        <time>2021-09-27T10:06:45.000Z</time>
      </trkpt>
      <trkpt lat="39.748735316097736358642578125" lon="-0.37162148393690586090087890625">
        <ele>191.399993896484375</ele>
        <time>2021-09-27T10:06:47.000Z</time>
      </trkpt>
      <trkpt lat="39.74862635135650634765625" lon="-0.3716269321739673614501953125">
        <ele>191.600006103515625</ele>
        <time>2021-09-27T10:06:49.000Z</time>
      </trkpt>
      <trkpt lat="39.7485222481191158294677734375" lon="-0.37162617780268192291259765625">
        <ele>191.8000030517578125</ele>
        <time>2021-09-27T10:06:51.000Z</time>
      </trkpt>
      <trkpt lat="39.7484394349157810211181640625" lon="-0.37162165157496929168701171875">
        <ele>192</ele>
        <time>2021-09-27T10:06:53.000Z</time>
      </trkpt>
      <trkpt lat="39.74839425645768642425537109375" lon="-0.37162047810852527618408203125">
        <ele>192.1999969482421875</ele>
        <time>2021-09-27T10:06:55.000Z</time>
      </trkpt>
      <trkpt lat="39.74837933667004108428955078125" lon="-0.3716202266514301300048828125">
        <ele>192</ele>
        <time>2021-09-27T10:06:56.000Z</time>
      </trkpt>
      <trkpt lat="39.74836257286369800567626953125" lon="-0.3716225735843181610107421875">
        <ele>192</ele>
        <time>2021-09-27T10:06:57.000Z</time>
      </trkpt>
      <trkpt lat="39.7483167238533496856689453125" lon="-0.3716208972036838531494140625">
        <ele>192</ele>
        <time>2021-09-27T10:06:59.000Z</time>
      </trkpt>
      <trkpt lat="39.74828428588807582855224609375" lon="-0.37161846645176410675048828125">
        <ele>191.8000030517578125</ele>
        <time>2021-09-27T10:07:00.000Z</time>
      </trkpt>
      <trkpt lat="39.74824539385735988616943359375" lon="-0.37161544896662235260009765625">
        <ele>191.8000030517578125</ele>
        <time>2021-09-27T10:07:01.000Z</time>
      </trkpt>
      <trkpt lat="39.74815235473215579986572265625" lon="-0.37160790525376796722412109375">
        <ele>191.399993896484375</ele>
        <time>2021-09-27T10:07:03.000Z</time>
      </trkpt>
      <trkpt lat="39.74810340441763401031494140625" lon="-0.37159432657063007354736328125">
        <ele>191.1999969482421875</ele>
        <time>2021-09-27T10:07:04.000Z</time>
      </trkpt>
      <trkpt lat="39.7480523586273193359375" lon="-0.37158192135393619537353515625">
        <ele>191</ele>
        <time>2021-09-27T10:07:05.000Z</time>
      </trkpt>
      <trkpt lat="39.747950099408626556396484375" lon="-0.37154688499867916107177734375">
        <ele>190.600006103515625</ele>
        <time>2021-09-27T10:07:07.000Z</time>
      </trkpt>
      <trkpt lat="39.74784658290445804595947265625" lon="-0.3715005330741405487060546875">
        <ele>190</ele>
        <time>2021-09-27T10:07:09.000Z</time>
      </trkpt>
      <trkpt lat="39.74779947660863399505615234375" lon="-0.37147446535527706146240234375">
        <ele>189.600006103515625</ele>
        <time>2021-09-27T10:07:10.000Z</time>
      </trkpt>
      <trkpt lat="39.74775371141731739044189453125" lon="-0.37144663743674755096435546875">
        <ele>189</ele>
        <time>2021-09-27T10:07:11.000Z</time>
      </trkpt>
      <trkpt lat="39.7476649470627307891845703125" lon="-0.37138595245778560638427734375">
        <ele>189.399993896484375</ele>
        <time>2021-09-27T10:07:13.000Z</time>
      </trkpt>
      <trkpt lat="39.74756889045238494873046875" lon="-0.37132040597498416900634765625">
        <ele>189.8000030517578125</ele>
        <time>2021-09-27T10:07:15.000Z</time>
      </trkpt>
      <trkpt lat="39.74747627042233943939208984375" lon="-0.37125351838767528533935546875">
        <ele>189.600006103515625</ele>
        <time>2021-09-27T10:07:17.000Z</time>
      </trkpt>
      <trkpt lat="39.74738658405840396881103515625" lon="-0.37118160165846347808837890625">
        <ele>189.1999969482421875</ele>
        <time>2021-09-27T10:07:19.000Z</time>
      </trkpt>
      <trkpt lat="39.7472974844276905059814453125" lon="-0.37110784091055393218994140625">
        <ele>189</ele>
        <time>2021-09-27T10:07:21.000Z</time>
      </trkpt>
      <trkpt lat="39.74721140228211879730224609375" lon="-0.3710277937352657318115234375">
        <ele>188.600006103515625</ele>
        <time>2021-09-27T10:07:23.000Z</time>
      </trkpt>
      <trkpt lat="39.74716999568045139312744140625" lon="-0.3709882311522960662841796875">
        <ele>188.399993896484375</ele>
        <time>2021-09-27T10:07:24.000Z</time>
      </trkpt>
      <trkpt lat="39.7471271641552448272705078125" lon="-0.3709453158080577850341796875">
        <ele>188.1999969482421875</ele>
        <time>2021-09-27T10:07:25.000Z</time>
      </trkpt>
      <trkpt lat="39.7470413334667682647705078125" lon="-0.37085889838635921478271484375">
        <ele>187.8000030517578125</ele>
        <time>2021-09-27T10:07:27.000Z</time>
      </trkpt>
      <trkpt lat="39.74695625714957714080810546875" lon="-0.370766781270503997802734375">
        <ele>187.1999969482421875</ele>
        <time>2021-09-27T10:07:29.000Z</time>
      </trkpt>
      <trkpt lat="39.74687017500400543212890625" lon="-0.37067617289721965789794921875">
        <ele>186.600006103515625</ele>
        <time>2021-09-27T10:07:31.000Z</time>
      </trkpt>
      <trkpt lat="39.74678074009716510772705078125" lon="-0.37058732472360134124755859375">
        <ele>186.8000030517578125</ele>
        <time>2021-09-27T10:07:33.000Z</time>
      </trkpt>
      <trkpt lat="39.74669205956161022186279296875" lon="-0.370496213436126708984375">
        <ele>187.1999969482421875</ele>
        <time>2021-09-27T10:07:35.000Z</time>
      </trkpt>
      <trkpt lat="39.74664981476962566375732421875" lon="-0.37044919095933437347412109375">
        <ele>187.399993896484375</ele>
        <time>2021-09-27T10:07:36.000Z</time>
      </trkpt>
      <trkpt lat="39.74661125801503658294677734375" lon="-0.370396636426448822021484375">
        <ele>187.399993896484375</ele>
        <time>2021-09-27T10:07:37.000Z</time>
      </trkpt>
      <trkpt lat="39.74657739512622356414794921875" lon="-0.37034089677035808563232421875">
        <ele>187.600006103515625</ele>
        <time>2021-09-27T10:07:38.000Z</time>
      </trkpt>
      <trkpt lat="39.7465471364557743072509765625" lon="-0.3702848218381404876708984375">
        <ele>187.8000030517578125</ele>
        <time>2021-09-27T10:07:39.000Z</time>
      </trkpt>
      <trkpt lat="39.74652609787881374359130859375" lon="-0.37023126147687435150146484375">
        <ele>187.8000030517578125</ele>
        <time>2021-09-27T10:07:40.000Z</time>
      </trkpt>
      <trkpt lat="39.7465141117572784423828125" lon="-0.3701768629252910614013671875">
        <ele>187.8000030517578125</ele>
        <time>2021-09-27T10:07:41.000Z</time>
      </trkpt>
      <trkpt lat="39.74650966934859752655029296875" lon="-0.37012464366853237152099609375">
        <ele>187.8000030517578125</ele>
        <time>2021-09-27T10:07:42.000Z</time>
      </trkpt>
      <trkpt lat="39.7465074062347412109375" lon="-0.3700772859156131744384765625">
        <ele>187.600006103515625</ele>
        <time>2021-09-27T10:07:43.000Z</time>
      </trkpt>
      <trkpt lat="39.746506400406360626220703125" lon="-0.37004149518907070159912109375">
        <ele>187.600006103515625</ele>
        <time>2021-09-27T10:07:44.000Z</time>
      </trkpt>
      <trkpt lat="39.74650296382606029510498046875" lon="-0.3700166009366512298583984375">
        <ele>187.399993896484375</ele>
        <time>2021-09-27T10:07:45.000Z</time>
      </trkpt>
      <trkpt lat="39.7464961744844913482666015625" lon="-0.36999522708356380462646484375">
        <ele>187.399993896484375</ele>
        <time>2021-09-27T10:07:46.000Z</time>
      </trkpt>
      <trkpt lat="39.7464827634394168853759765625" lon="-0.36998282186686992645263671875">
        <ele>187.399993896484375</ele>
        <time>2021-09-27T10:07:47.000Z</time>
      </trkpt>
      <trkpt lat="39.74643255583941936492919921875" lon="-0.3699881024658679962158203125">
        <ele>187.8000030517578125</ele>
        <time>2021-09-27T10:07:49.000Z</time>
      </trkpt>
      <trkpt lat="39.74638259969651699066162109375" lon="-0.37003579549491405487060546875">
        <ele>188</ele>
        <time>2021-09-27T10:07:51.000Z</time>
      </trkpt>
      <trkpt lat="39.746343456208705902099609375" lon="-0.3701161779463291168212890625">
        <ele>188.399993896484375</ele>
        <time>2021-09-27T10:07:53.000Z</time>
      </trkpt>
      <trkpt lat="39.74631135351955890655517578125" lon="-0.37021047435700893402099609375">
        <ele>188.8000030517578125</ele>
        <time>2021-09-27T10:07:55.000Z</time>
      </trkpt>
      <trkpt lat="39.74627338349819183349609375" lon="-0.37029362283647060394287109375">
        <ele>189.1999969482421875</ele>
        <time>2021-09-27T10:07:57.000Z</time>
      </trkpt>
      <trkpt lat="39.746258966624736785888671875" lon="-0.3703377954661846160888671875">
        <ele>189.399993896484375</ele>
        <time>2021-09-27T10:07:58.000Z</time>
      </trkpt>
      <trkpt lat="39.7462539374828338623046875" lon="-0.37038129754364490509033203125">
        <ele>189.600006103515625</ele>
        <time>2021-09-27T10:07:59.000Z</time>
      </trkpt>
      <trkpt lat="39.74627044983208179473876953125" lon="-0.37047408521175384521484375">
        <ele>189.600006103515625</ele>
        <time>2021-09-27T10:08:01.000Z</time>
      </trkpt>
      <trkpt lat="39.7462856210768222808837890625" lon="-0.370525382459163665771484375">
        <ele>189.600006103515625</ele>
        <time>2021-09-27T10:08:02.000Z</time>
      </trkpt>
      <trkpt lat="39.74629752337932586669921875" lon="-0.3705812059342861175537109375">
        <ele>189.8000030517578125</ele>
        <time>2021-09-27T10:08:03.000Z</time>
      </trkpt>
      <trkpt lat="39.746315293014049530029296875" lon="-0.37068463861942291259765625">
        <ele>189.8000030517578125</ele>
        <time>2021-09-27T10:08:05.000Z</time>
      </trkpt>
      <trkpt lat="39.74632124416530132293701171875" lon="-0.37078396417200565338134765625">
        <ele>190</ele>
        <time>2021-09-27T10:08:07.000Z</time>
      </trkpt>
      <trkpt lat="39.74630095995962619781494140625" lon="-0.3709017299115657806396484375">
        <ele>190.399993896484375</ele>
        <time>2021-09-27T10:08:09.000Z</time>
      </trkpt>
      <trkpt lat="39.746261648833751678466796875" lon="-0.371027290821075439453125">
        <ele>191</ele>
        <time>2021-09-27T10:08:11.000Z</time>
      </trkpt>
      <trkpt lat="39.74622954614460468292236328125" lon="-0.3711198270320892333984375">
        <ele>191.399993896484375</ele>
        <time>2021-09-27T10:08:13.000Z</time>
      </trkpt>
      <trkpt lat="39.74621026776731014251708984375" lon="-0.371159724891185760498046875">
        <ele>191.600006103515625</ele>
        <time>2021-09-27T10:08:14.000Z</time>
      </trkpt>
      <trkpt lat="39.7461907379329204559326171875" lon="-0.371209681034088134765625">
        <ele>192</ele>
        <time>2021-09-27T10:08:15.000Z</time>
      </trkpt>
      <trkpt lat="39.746110774576663970947265625" lon="-0.37132057361304759979248046875">
        <ele>193</ele>
        <time>2021-09-27T10:08:17.000Z</time>
      </trkpt>
      <trkpt lat="39.74602720700204372406005859375" lon="-0.37133130244910717010498046875">
        <ele>193.8000030517578125</ele>
        <time>2021-09-27T10:08:19.000Z</time>
      </trkpt>
      <trkpt lat="39.74599334411323070526123046875" lon="-0.37131587974727153778076171875">
        <ele>194</ele>
        <time>2021-09-27T10:08:20.000Z</time>
      </trkpt>
      <trkpt lat="39.74596300162374973297119140625" lon="-0.371290147304534912109375">
        <ele>194.1999969482421875</ele>
        <time>2021-09-27T10:08:21.000Z</time>
      </trkpt>
      <trkpt lat="39.7459159791469573974609375" lon="-0.3712376765906810760498046875">
        <ele>194.600006103515625</ele>
        <time>2021-09-27T10:08:23.000Z</time>
      </trkpt>
      <trkpt lat="39.745897538959980010986328125" lon="-0.3712182305753231048583984375">
        <ele>194.8000030517578125</ele>
        <time>2021-09-27T10:08:24.000Z</time>
      </trkpt>
      <trkpt lat="39.74588186480104923248291015625" lon="-0.371195934712886810302734375">
        <ele>194.8000030517578125</ele>
        <time>2021-09-27T10:08:25.000Z</time>
      </trkpt>
      <trkpt lat="39.74585923366248607635498046875" lon="-0.37114807404577732086181640625">
        <ele>195</ele>
        <time>2021-09-27T10:08:27.000Z</time>
      </trkpt>
      <trkpt lat="39.745825789868831634521484375" lon="-0.371091999113559722900390625">
        <ele>195.1999969482421875</ele>
        <time>2021-09-27T10:08:29.000Z</time>
      </trkpt>
      <trkpt lat="39.745782874524593353271484375" lon="-0.3710401989519596099853515625">
        <ele>195.399993896484375</ele>
        <time>2021-09-27T10:08:31.000Z</time>
      </trkpt>
      <trkpt lat="39.74574339576065540313720703125" lon="-0.37098730914294719696044921875">
        <ele>195.600006103515625</ele>
        <time>2021-09-27T10:08:33.000Z</time>
      </trkpt>
      <trkpt lat="39.7457015700638294219970703125" lon="-0.3709335811436176300048828125">
        <ele>195.8000030517578125</ele>
        <time>2021-09-27T10:08:35.000Z</time>
      </trkpt>
      <trkpt lat="39.745656140148639678955078125" lon="-0.37088924087584018707275390625">
        <ele>196.1999969482421875</ele>
        <time>2021-09-27T10:08:37.000Z</time>
      </trkpt>
      <trkpt lat="39.74561632610857486724853515625" lon="-0.3708410449326038360595703125">
        <ele>196.1999969482421875</ele>
        <time>2021-09-27T10:08:39.000Z</time>
      </trkpt>
      <trkpt lat="39.74557466804981231689453125" lon="-0.3707890771329402923583984375">
        <ele>196.399993896484375</ele>
        <time>2021-09-27T10:08:41.000Z</time>
      </trkpt>
      <trkpt lat="39.74553233943879604339599609375" lon="-0.3707438148558139801025390625">
        <ele>196.600006103515625</ele>
        <time>2021-09-27T10:08:43.000Z</time>
      </trkpt>
      <trkpt lat="39.7454868257045745849609375" lon="-0.37070131860673427581787109375">
        <ele>196.8000030517578125</ele>
        <time>2021-09-27T10:08:45.000Z</time>
      </trkpt>
      <trkpt lat="39.74543879739940166473388671875" lon="-0.3706593252718448638916015625">
        <ele>197.1999969482421875</ele>
        <time>2021-09-27T10:08:47.000Z</time>
      </trkpt>
      <trkpt lat="39.74539018236100673675537109375" lon="-0.37062454037368297576904296875">
        <ele>197.399993896484375</ele>
        <time>2021-09-27T10:08:49.000Z</time>
      </trkpt>
      <trkpt lat="39.7453438304364681243896484375" lon="-0.37058673799037933349609375">
        <ele>198</ele>
        <time>2021-09-27T10:08:51.000Z</time>
      </trkpt>
      <trkpt lat="39.74531943909823894500732421875" lon="-0.37056921981275081634521484375">
        <ele>198.600006103515625</ele>
        <time>2021-09-27T10:08:52.000Z</time>
      </trkpt>
      <trkpt lat="39.74529379047453403472900390625" lon="-0.370550863444805145263671875">
        <ele>199</ele>
        <time>2021-09-27T10:08:53.000Z</time>
      </trkpt>
      <trkpt lat="39.74524400196969509124755859375" lon="-0.37051674909889698028564453125">
        <ele>199.600006103515625</ele>
        <time>2021-09-27T10:08:55.000Z</time>
      </trkpt>
      <trkpt lat="39.74519270472228527069091796875" lon="-0.3704849816858768463134765625">
        <ele>200.1999969482421875</ele>
        <time>2021-09-27T10:08:57.000Z</time>
      </trkpt>
      <trkpt lat="39.7451436705887317657470703125" lon="-0.370448939502239227294921875">
        <ele>200.600006103515625</ele>
        <time>2021-09-27T10:08:59.000Z</time>
      </trkpt>
      <trkpt lat="39.745121039450168609619140625" lon="-0.3704323433339595794677734375">
        <ele>201</ele>
        <time>2021-09-27T10:09:00.000Z</time>
      </trkpt>
      <trkpt lat="39.745098240673542022705078125" lon="-0.37041566334664821624755859375">
        <ele>201.1999969482421875</ele>
        <time>2021-09-27T10:09:01.000Z</time>
      </trkpt>
      <trkpt lat="39.7450497932732105255126953125" lon="-0.37038632668554782867431640625">
        <ele>202</ele>
        <time>2021-09-27T10:09:03.000Z</time>
      </trkpt>
      <trkpt lat="39.74499623291194438934326171875" lon="-0.37036017514765262603759765625">
        <ele>202.600006103515625</ele>
        <time>2021-09-27T10:09:05.000Z</time>
      </trkpt>
      <trkpt lat="39.744946025311946868896484375" lon="-0.37032832391560077667236328125">
        <ele>203.1999969482421875</ele>
        <time>2021-09-27T10:09:07.000Z</time>
      </trkpt>
      <trkpt lat="39.744895398616790771484375" lon="-0.3702942095696926116943359375">
        <ele>204</ele>
        <time>2021-09-27T10:09:09.000Z</time>
      </trkpt>
      <trkpt lat="39.744847118854522705078125" lon="-0.370262525975704193115234375">
        <ele>204.600006103515625</ele>
        <time>2021-09-27T10:09:11.000Z</time>
      </trkpt>
      <trkpt lat="39.74479791708290576934814453125" lon="-0.37022673524916172027587890625">
        <ele>205.1999969482421875</ele>
        <time>2021-09-27T10:09:13.000Z</time>
      </trkpt>
      <trkpt lat="39.7447752021253108978271484375" lon="-0.37020913325250148773193359375">
        <ele>205.1999969482421875</ele>
        <time>2021-09-27T10:09:14.000Z</time>
      </trkpt>
      <trkpt lat="39.744750559329986572265625" lon="-0.37019102834165096282958984375">
        <ele>205.1999969482421875</ele>
        <time>2021-09-27T10:09:15.000Z</time>
      </trkpt>
      <trkpt lat="39.74469783715903759002685546875" lon="-0.3701557405292987823486328125">
        <ele>205.399993896484375</ele>
        <time>2021-09-27T10:09:17.000Z</time>
      </trkpt>
      <trkpt lat="39.7446446120738983154296875" lon="-0.37011877633631229400634765625">
        <ele>205.600006103515625</ele>
        <time>2021-09-27T10:09:19.000Z</time>
      </trkpt>
      <trkpt lat="39.74459256045520305633544921875" lon="-0.37008893676102161407470703125">
        <ele>205.8000030517578125</ele>
        <time>2021-09-27T10:09:21.000Z</time>
      </trkpt>
      <trkpt lat="39.74454260431230068206787109375" lon="-0.37005641497671604156494140625">
        <ele>206</ele>
        <time>2021-09-27T10:09:23.000Z</time>
      </trkpt>
      <trkpt lat="39.74448812194168567657470703125" lon="-0.3700256533920764923095703125">
        <ele>206.399993896484375</ele>
        <time>2021-09-27T10:09:25.000Z</time>
      </trkpt>
      <trkpt lat="39.744439423084259033203125" lon="-0.36999237723648548126220703125">
        <ele>206.8000030517578125</ele>
        <time>2021-09-27T10:09:27.000Z</time>
      </trkpt>
      <trkpt lat="39.74439340643584728240966796875" lon="-0.369957424700260162353515625">
        <ele>207</ele>
        <time>2021-09-27T10:09:29.000Z</time>
      </trkpt>
      <trkpt lat="39.74434462375938892364501953125" lon="-0.36992557346820831298828125">
        <ele>207.399993896484375</ele>
        <time>2021-09-27T10:09:31.000Z</time>
      </trkpt>
      <trkpt lat="39.74429399706423282623291015625" lon="-0.3698995895683765411376953125">
        <ele>208</ele>
        <time>2021-09-27T10:09:33.000Z</time>
      </trkpt>
      <trkpt lat="39.74424890242516994476318359375" lon="-0.3698699176311492919921875">
        <ele>208</ele>
        <time>2021-09-27T10:09:35.000Z</time>
      </trkpt>
      <trkpt lat="39.74419995211064815521240234375" lon="-0.3698452748358249664306640625">
        <ele>208</ele>
        <time>2021-09-27T10:09:37.000Z</time>
      </trkpt>
      <trkpt lat="39.74417631514370441436767578125" lon="-0.36983169615268707275390625">
        <ele>208</ele>
        <time>2021-09-27T10:09:38.000Z</time>
      </trkpt>
      <trkpt lat="39.74415200762450695037841796875" lon="-0.36981736309826374053955078125">
        <ele>208.1999969482421875</ele>
        <time>2021-09-27T10:09:39.000Z</time>
      </trkpt>
      <trkpt lat="39.7441002912819385528564453125" lon="-0.369789786636829376220703125">
        <ele>208.1999969482421875</ele>
        <time>2021-09-27T10:09:41.000Z</time>
      </trkpt>
      <trkpt lat="39.74405226297676563262939453125" lon="-0.36977000534534454345703125">
        <ele>208.399993896484375</ele>
        <time>2021-09-27T10:09:43.000Z</time>
      </trkpt>
      <trkpt lat="39.74402879364788532257080078125" lon="-0.36975684575736522674560546875">
        <ele>208.399993896484375</ele>
        <time>2021-09-27T10:09:44.000Z</time>
      </trkpt>
      <trkpt lat="39.74400691688060760498046875" lon="-0.36973941139876842498779296875">
        <ele>208.399993896484375</ele>
        <time>2021-09-27T10:09:45.000Z</time>
      </trkpt>
      <trkpt lat="39.74395888857543468475341796875" lon="-0.3697074763476848602294921875">
        <ele>208.399993896484375</ele>
        <time>2021-09-27T10:09:47.000Z</time>
      </trkpt>
      <trkpt lat="39.74390407092869281768798828125" lon="-0.369685180485248565673828125">
        <ele>208.600006103515625</ele>
        <time>2021-09-27T10:09:49.000Z</time>
      </trkpt>
      <trkpt lat="39.74385277368128299713134765625" lon="-0.36966145969927310943603515625">
        <ele>208.8000030517578125</ele>
        <time>2021-09-27T10:09:51.000Z</time>
      </trkpt>
      <trkpt lat="39.7438035719096660614013671875" lon="-0.36963882856070995330810546875">
        <ele>209</ele>
        <time>2021-09-27T10:09:53.000Z</time>
      </trkpt>
      <trkpt lat="39.74375001154839992523193359375" lon="-0.3696135990321636199951171875">
        <ele>209.399993896484375</ele>
        <time>2021-09-27T10:09:55.000Z</time>
      </trkpt>
      <trkpt lat="39.7436996363103389739990234375" lon="-0.369585268199443817138671875">
        <ele>209.1999969482421875</ele>
        <time>2021-09-27T10:09:57.000Z</time>
      </trkpt>
      <trkpt lat="39.74365018308162689208984375" lon="-0.36955920048058032989501953125">
        <ele>208.8000030517578125</ele>
        <time>2021-09-27T10:09:59.000Z</time>
      </trkpt>
      <trkpt lat="39.7435916773974895477294921875" lon="-0.3695374913513660430908203125">
        <ele>208.399993896484375</ele>
        <time>2021-09-27T10:10:01.000Z</time>
      </trkpt>
      <trkpt lat="39.74354146979749202728271484375" lon="-0.36951511166989803314208984375">
        <ele>208</ele>
        <time>2021-09-27T10:10:03.000Z</time>
      </trkpt>
      <trkpt lat="39.74352068267762660980224609375" lon="-0.36950580775737762451171875">
        <ele>208</ele>
        <time>2021-09-27T10:10:04.000Z</time>
      </trkpt>
      <trkpt lat="39.74350257776677608489990234375" lon="-0.36949248053133487701416015625">
        <ele>207.8000030517578125</ele>
        <time>2021-09-27T10:10:05.000Z</time>
      </trkpt>
      <trkpt lat="39.74346033297479152679443359375" lon="-0.36946264095604419708251953125">
        <ele>207.399993896484375</ele>
        <time>2021-09-27T10:10:07.000Z</time>
      </trkpt>
      <trkpt lat="39.743409454822540283203125" lon="-0.36944135092198848724365234375">
        <ele>207</ele>
        <time>2021-09-27T10:10:09.000Z</time>
      </trkpt>
      <trkpt lat="39.74335472099483013153076171875" lon="-0.36941335536539554595947265625">
        <ele>206.600006103515625</ele>
        <time>2021-09-27T10:10:11.000Z</time>
      </trkpt>
      <trkpt lat="39.74329504184424877166748046875" lon="-0.36938510835170745849609375">
        <ele>206</ele>
        <time>2021-09-27T10:10:13.000Z</time>
      </trkpt>
      <trkpt lat="39.74323519505560398101806640625" lon="-0.36934713833034038543701171875">
        <ele>205.600006103515625</ele>
        <time>2021-09-27T10:10:15.000Z</time>
      </trkpt>
      <trkpt lat="39.74316596053540706634521484375" lon="-0.36929852329194545745849609375">
        <ele>204.8000030517578125</ele>
        <time>2021-09-27T10:10:17.000Z</time>
      </trkpt>
      <trkpt lat="39.74312447011470794677734375" lon="-0.36926952190697193145751953125">
        <ele>204.600006103515625</ele>
        <time>2021-09-27T10:10:18.000Z</time>
      </trkpt>
      <trkpt lat="39.7430790401995182037353515625" lon="-0.369241274893283843994140625">
        <ele>204.1999969482421875</ele>
        <time>2021-09-27T10:10:19.000Z</time>
      </trkpt>
      <trkpt lat="39.74296814762055873870849609375" lon="-0.36919626407325267791748046875">
        <ele>203.600006103515625</ele>
        <time>2021-09-27T10:10:21.000Z</time>
      </trkpt>
      <trkpt lat="39.74290452897548675537109375" lon="-0.369178242981433868408203125">
        <ele>203.399993896484375</ele>
        <time>2021-09-27T10:10:22.000Z</time>
      </trkpt>
      <trkpt lat="39.74283571355044841766357421875" lon="-0.3691586293280124664306640625">
        <ele>203</ele>
        <time>2021-09-27T10:10:23.000Z</time>
      </trkpt>
      <trkpt lat="39.7427692450582981109619140625" lon="-0.36912803538143634796142578125">
        <ele>202.1999969482421875</ele>
        <time>2021-09-27T10:10:24.000Z</time>
      </trkpt>
      <trkpt lat="39.74270462058484554290771484375" lon="-0.3690932504832744598388671875">
        <ele>201.399993896484375</ele>
        <time>2021-09-27T10:10:25.000Z</time>
      </trkpt>
      <trkpt lat="39.74263639189302921295166015625" lon="-0.36905176006257534027099609375">
        <ele>200.399993896484375</ele>
        <time>2021-09-27T10:10:26.000Z</time>
      </trkpt>
      <trkpt lat="39.74256095476448535919189453125" lon="-0.36900498904287815093994140625">
        <ele>199.399993896484375</ele>
        <time>2021-09-27T10:10:27.000Z</time>
      </trkpt>
      <trkpt lat="39.7423883713781833648681640625" lon="-0.3689021430909633636474609375">
        <ele>197.1999969482421875</ele>
        <time>2021-09-27T10:10:29.000Z</time>
      </trkpt>
      <trkpt lat="39.74228770472109317779541015625" lon="-0.3688508458435535430908203125">
        <ele>196</ele>
        <time>2021-09-27T10:10:30.000Z</time>
      </trkpt>
      <trkpt lat="39.7421818412840366363525390625" lon="-0.36881069652736186981201171875">
        <ele>194.8000030517578125</ele>
        <time>2021-09-27T10:10:31.000Z</time>
      </trkpt>
      <trkpt lat="39.74196651019155979156494140625" lon="-0.36873861216008663177490234375">
        <ele>193.399993896484375</ele>
        <time>2021-09-27T10:10:33.000Z</time>
      </trkpt>
      <trkpt lat="39.74173684604465961456298828125" lon="-0.36867708899080753326416015625">
        <ele>192.399993896484375</ele>
        <time>2021-09-27T10:10:35.000Z</time>
      </trkpt>
      <trkpt lat="39.74152914248406887054443359375" lon="-0.3686320781707763671875">
        <ele>191.8000030517578125</ele>
        <time>2021-09-27T10:10:37.000Z</time>
      </trkpt>
      <trkpt lat="39.74144314415752887725830078125" lon="-0.36862093023955821990966796875">
        <ele>191.399993896484375</ele>
        <time>2021-09-27T10:10:38.000Z</time>
      </trkpt>
      <trkpt lat="39.74137256853282451629638671875" lon="-0.36861623637378215789794921875">
        <ele>191.399993896484375</ele>
        <time>2021-09-27T10:10:39.000Z</time>
      </trkpt>
      <trkpt lat="39.74125052802264690399169921875" lon="-0.36861891858279705047607421875">
        <ele>191.399993896484375</ele>
        <time>2021-09-27T10:10:41.000Z</time>
      </trkpt>
      <trkpt lat="39.74119453690946102142333984375" lon="-0.3686188347637653350830078125">
        <ele>191.600006103515625</ele>
        <time>2021-09-27T10:10:42.000Z</time>
      </trkpt>
      <trkpt lat="39.74114625714719295501708984375" lon="-0.3686211816966533660888671875">
        <ele>191.600006103515625</ele>
        <time>2021-09-27T10:10:43.000Z</time>
      </trkpt>
      <trkpt lat="39.74110267125070095062255859375" lon="-0.36863383837044239044189453125">
        <ele>191.8000030517578125</ele>
        <time>2021-09-27T10:10:44.000Z</time>
      </trkpt>
      <trkpt lat="39.74106310866773128509521484375" lon="-0.36866133101284503936767578125">
        <ele>192</ele>
        <time>2021-09-27T10:10:45.000Z</time>
      </trkpt>
      <trkpt lat="39.741028659045696258544921875" lon="-0.368696115911006927490234375">
        <ele>192.1999969482421875</ele>
        <time>2021-09-27T10:10:46.000Z</time>
      </trkpt>
      <trkpt lat="39.7410053573548793792724609375" lon="-0.36873626522719860076904296875">
        <ele>192.399993896484375</ele>
        <time>2021-09-27T10:10:47.000Z</time>
      </trkpt>
      <trkpt lat="39.7409833967685699462890625" lon="-0.3688220120966434478759765625">
        <ele>192.600006103515625</ele>
        <time>2021-09-27T10:10:49.000Z</time>
      </trkpt>
      <trkpt lat="39.74095984362065792083740234375" lon="-0.3689018078148365020751953125">
        <ele>193</ele>
        <time>2021-09-27T10:10:51.000Z</time>
      </trkpt>
      <trkpt lat="39.74094777368009090423583984375" lon="-0.36893877200782299041748046875">
        <ele>193.1999969482421875</ele>
        <time>2021-09-27T10:10:52.000Z</time>
      </trkpt>
      <trkpt lat="39.7409329377114772796630859375" lon="-0.36897473037242889404296875">
        <ele>193.399993896484375</ele>
        <time>2021-09-27T10:10:53.000Z</time>
      </trkpt>
      <trkpt lat="39.7409027628600597381591796875" lon="-0.369046144187450408935546875">
        <ele>193.8000030517578125</ele>
        <time>2021-09-27T10:10:55.000Z</time>
      </trkpt>
      <trkpt lat="39.740873761475086212158203125" lon="-0.3691043145954608917236328125">
        <ele>194.1999969482421875</ele>
        <time>2021-09-27T10:10:57.000Z</time>
      </trkpt>
      <trkpt lat="39.7408410720527172088623046875" lon="-0.3691592998802661895751953125">
        <ele>194.600006103515625</ele>
        <time>2021-09-27T10:10:59.000Z</time>
      </trkpt>
      <trkpt lat="39.7408090531826019287109375" lon="-0.3692102618515491485595703125">
        <ele>194.8000030517578125</ele>
        <time>2021-09-27T10:11:01.000Z</time>
      </trkpt>
      <trkpt lat="39.74079354666173458099365234375" lon="-0.36923549138009548187255859375">
        <ele>195</ele>
        <time>2021-09-27T10:11:02.000Z</time>
      </trkpt>
      <trkpt lat="39.7407756932079792022705078125" lon="-0.36925971508026123046875">
        <ele>195.1999969482421875</ele>
        <time>2021-09-27T10:11:03.000Z</time>
      </trkpt>
      <trkpt lat="39.7407435066998004913330078125" lon="-0.36930874921381473541259765625">
        <ele>195.600006103515625</ele>
        <time>2021-09-27T10:11:05.000Z</time>
      </trkpt>
      <trkpt lat="39.74070771597325801849365234375" lon="-0.3693540953099727630615234375">
        <ele>196</ele>
        <time>2021-09-27T10:11:07.000Z</time>
      </trkpt>
      <trkpt lat="39.7406690753996372222900390625" lon="-0.3693986870348453521728515625">
        <ele>196.1999969482421875</ele>
        <time>2021-09-27T10:11:09.000Z</time>
      </trkpt>
      <trkpt lat="39.74065155722200870513916015625" lon="-0.36942156963050365447998046875">
        <ele>196.399993896484375</ele>
        <time>2021-09-27T10:11:10.000Z</time>
      </trkpt>
      <trkpt lat="39.7406347095966339111328125" lon="-0.36944503895938396453857421875">
        <ele>196.600006103515625</ele>
        <time>2021-09-27T10:11:11.000Z</time>
      </trkpt>
      <trkpt lat="39.74060042761266231536865234375" lon="-0.36949180997908115386962890625">
        <ele>197</ele>
        <time>2021-09-27T10:11:13.000Z</time>
      </trkpt>
      <trkpt lat="39.7405688278377056121826171875" lon="-0.36953522823750972747802734375">
        <ele>197.1999969482421875</ele>
        <time>2021-09-27T10:11:15.000Z</time>
      </trkpt>
      <trkpt lat="39.7405349649488925933837890625" lon="-0.36958065815269947052001953125">
        <ele>197.600006103515625</ele>
        <time>2021-09-27T10:11:17.000Z</time>
      </trkpt>
      <trkpt lat="39.74051878787577152252197265625" lon="-0.36960261873900890350341796875">
        <ele>197.600006103515625</ele>
        <time>2021-09-27T10:11:18.000Z</time>
      </trkpt>
      <trkpt lat="39.74050185643136501312255859375" lon="-0.3696213103830814361572265625">
        <ele>197.8000030517578125</ele>
        <time>2021-09-27T10:11:19.000Z</time>
      </trkpt>
      <trkpt lat="39.7404618747532367706298828125" lon="-0.36962374113500118255615234375">
        <ele>197.8000030517578125</ele>
        <time>2021-09-27T10:11:21.000Z</time>
      </trkpt>
      <trkpt lat="39.74043957889080047607421875" lon="-0.36961167119443416595458984375">
        <ele>197.8000030517578125</ele>
        <time>2021-09-27T10:11:22.000Z</time>
      </trkpt>
      <trkpt lat="39.7404182888567447662353515625" lon="-0.36959909833967685699462890625">
        <ele>197.600006103515625</ele>
        <time>2021-09-27T10:11:23.000Z</time>
      </trkpt>
      <trkpt lat="39.74037813954055309295654296875" lon="-0.3695686720311641693115234375">
        <ele>197.600006103515625</ele>
        <time>2021-09-27T10:11:25.000Z</time>
      </trkpt>
      <trkpt lat="39.740335308015346527099609375" lon="-0.36952860653400421142578125">
        <ele>197.1999969482421875</ele>
        <time>2021-09-27T10:11:27.000Z</time>
      </trkpt>
      <trkpt lat="39.74029339849948883056640625" lon="-0.3694731183350086212158203125">
        <ele>196.600006103515625</ele>
        <time>2021-09-27T10:11:29.000Z</time>
      </trkpt>
      <trkpt lat="39.740250818431377410888671875" lon="-0.3694030456244945526123046875">
        <ele>196</ele>
        <time>2021-09-27T10:11:31.000Z</time>
      </trkpt>
      <trkpt lat="39.74020882509648799896240234375" lon="-0.369321741163730621337890625">
        <ele>195.1999969482421875</ele>
        <time>2021-09-27T10:11:33.000Z</time>
      </trkpt>
      <trkpt lat="39.74015601910650730133056640625" lon="-0.3692313842475414276123046875">
        <ele>194.399993896484375</ele>
        <time>2021-09-27T10:11:35.000Z</time>
      </trkpt>
      <trkpt lat="39.740091226994991302490234375" lon="-0.3691269457340240478515625">
        <ele>193.399993896484375</ele>
        <time>2021-09-27T10:11:37.000Z</time>
      </trkpt>
      <trkpt lat="39.74002090282738208770751953125" lon="-0.36901840008795261383056640625">
        <ele>192.8000030517578125</ele>
        <time>2021-09-27T10:11:39.000Z</time>
      </trkpt>
      <trkpt lat="39.7399968467652797698974609375" lon="-0.36897783167660236358642578125">
        <ele>192.600006103515625</ele>
        <time>2021-09-27T10:11:40.000Z</time>
      </trkpt>
      <trkpt lat="39.7399717010557651519775390625" lon="-0.36894547753036022186279296875">
        <ele>192.399993896484375</ele>
        <time>2021-09-27T10:11:41.000Z</time>
      </trkpt>
      <trkpt lat="39.7399078309535980224609375" lon="-0.36892016418278217315673828125">
        <ele>192</ele>
        <time>2021-09-27T10:11:43.000Z</time>
      </trkpt>
      <trkpt lat="39.739875309169292449951171875" lon="-0.36893424578011035919189453125">
        <ele>192</ele>
        <time>2021-09-27T10:11:44.000Z</time>
      </trkpt>
      <trkpt lat="39.7398473136126995086669921875" lon="-0.368957631289958953857421875">
        <ele>191.8000030517578125</ele>
        <time>2021-09-27T10:11:45.000Z</time>
      </trkpt>
      <trkpt lat="39.7397903166711330413818359375" lon="-0.36901487968862056732177734375">
        <ele>191.600006103515625</ele>
        <time>2021-09-27T10:11:47.000Z</time>
      </trkpt>
      <trkpt lat="39.73972954787313938140869140625" lon="-0.3690786659717559814453125">
        <ele>191.600006103515625</ele>
        <time>2021-09-27T10:11:49.000Z</time>
      </trkpt>
      <trkpt lat="39.7396602295339107513427734375" lon="-0.3691432066261768341064453125">
        <ele>191.399993896484375</ele>
        <time>2021-09-27T10:11:51.000Z</time>
      </trkpt>
      <trkpt lat="39.7395837865769863128662109375" lon="-0.36921235732734203338623046875">
        <ele>191.1999969482421875</ele>
        <time>2021-09-27T10:11:53.000Z</time>
      </trkpt>
      <trkpt lat="39.7395043261349201202392578125" lon="-0.3692773170769214630126953125">
        <ele>191</ele>
        <time>2021-09-27T10:11:55.000Z</time>
      </trkpt>
      <trkpt lat="39.73946333862841129302978515625" lon="-0.369307994842529296875">
        <ele>190.8000030517578125</ele>
        <time>2021-09-27T10:11:56.000Z</time>
      </trkpt>
      <trkpt lat="39.73942168056964874267578125" lon="-0.36933523602783679962158203125">
        <ele>190.600006103515625</ele>
        <time>2021-09-27T10:11:57.000Z</time>
      </trkpt>
      <trkpt lat="39.73938002251088619232177734375" lon="-0.36936155520379543304443359375">
        <ele>190.600006103515625</ele>
        <time>2021-09-27T10:11:58.000Z</time>
      </trkpt>
      <trkpt lat="39.73933375440537929534912109375" lon="-0.36937630735337734222412109375">
        <ele>190.399993896484375</ele>
        <time>2021-09-27T10:11:59.000Z</time>
      </trkpt>
      <trkpt lat="39.73928312771022319793701171875" lon="-0.36937697790563106536865234375">
        <ele>190.1999969482421875</ele>
        <time>2021-09-27T10:12:00.000Z</time>
      </trkpt>
      <trkpt lat="39.7392297349870204925537109375" lon="-0.36936474032700061798095703125">
        <ele>189.8000030517578125</ele>
        <time>2021-09-27T10:12:01.000Z</time>
      </trkpt>
      <trkpt lat="39.73912135697901248931884765625" lon="-0.36931679584085941314697265625">
        <ele>189.1999969482421875</ele>
        <time>2021-09-27T10:12:03.000Z</time>
      </trkpt>
      <trkpt lat="39.7390161640942096710205078125" lon="-0.36924672313034534454345703125">
        <ele>188.600006103515625</ele>
        <time>2021-09-27T10:12:05.000Z</time>
      </trkpt>
      <trkpt lat="39.73897031508386135101318359375" lon="-0.3692116029560565948486328125">
        <ele>188.1999969482421875</ele>
        <time>2021-09-27T10:12:06.000Z</time>
      </trkpt>
      <trkpt lat="39.7389246337115764617919921875" lon="-0.36917187273502349853515625">
        <ele>188</ele>
        <time>2021-09-27T10:12:07.000Z</time>
      </trkpt>
      <trkpt lat="39.7388136573135852813720703125" lon="-0.36909920163452625274658203125">
        <ele>187.1999969482421875</ele>
        <time>2021-09-27T10:12:09.000Z</time>
      </trkpt>
      <trkpt lat="39.738674350082874298095703125" lon="-0.3690974414348602294921875">
        <ele>186.600006103515625</ele>
        <time>2021-09-27T10:12:11.000Z</time>
      </trkpt>
      <trkpt lat="39.73860519938170909881591796875" lon="-0.3691274486482143402099609375">
        <ele>186.600006103515625</ele>
        <time>2021-09-27T10:12:12.000Z</time>
      </trkpt>
      <trkpt lat="39.73853596486151218414306640625" lon="-0.36916474811732769012451171875">
        <ele>186.399993896484375</ele>
        <time>2021-09-27T10:12:13.000Z</time>
      </trkpt>
      <trkpt lat="39.73839414305984973907470703125" lon="-0.36922752857208251953125">
        <ele>186.1999969482421875</ele>
        <time>2021-09-27T10:12:15.000Z</time>
      </trkpt>
      <trkpt lat="39.7382544167339801788330078125" lon="-0.3692987747490406036376953125">
        <ele>186</ele>
        <time>2021-09-27T10:12:17.000Z</time>
      </trkpt>
      <trkpt lat="39.7381213121116161346435546875" lon="-0.3693691827356815338134765625">
        <ele>186</ele>
        <time>2021-09-27T10:12:19.000Z</time>
      </trkpt>
      <trkpt lat="39.73799566738307476043701171875" lon="-0.36944235675036907196044921875">
        <ele>185.8000030517578125</ele>
        <time>2021-09-27T10:12:21.000Z</time>
      </trkpt>
      <trkpt lat="39.73787278868257999420166015625" lon="-0.36951410584151744842529296875">
        <ele>185.600006103515625</ele>
        <time>2021-09-27T10:12:23.000Z</time>
      </trkpt>
      <trkpt lat="39.737753681838512420654296875" lon="-0.36959306336939334869384765625">
        <ele>185</ele>
        <time>2021-09-27T10:12:25.000Z</time>
      </trkpt>
      <trkpt lat="39.73769375123083591461181640625" lon="-0.3696320392191410064697265625">
        <ele>184.600006103515625</ele>
        <time>2021-09-27T10:12:26.000Z</time>
      </trkpt>
      <trkpt lat="39.7376358322799205780029296875" lon="-0.3696687519550323486328125">
        <ele>184.399993896484375</ele>
        <time>2021-09-27T10:12:27.000Z</time>
      </trkpt>
      <trkpt lat="39.7375211678445339202880859375" lon="-0.36974695511162281036376953125">
        <ele>183.8000030517578125</ele>
        <time>2021-09-27T10:12:29.000Z</time>
      </trkpt>
      <trkpt lat="39.73740868270397186279296875" lon="-0.36982524208724498748779296875">
        <ele>183.399993896484375</ele>
        <time>2021-09-27T10:12:31.000Z</time>
      </trkpt>
      <trkpt lat="39.7372941859066486358642578125" lon="-0.3699076361954212188720703125">
        <ele>182.8000030517578125</ele>
        <time>2021-09-27T10:12:33.000Z</time>
      </trkpt>
      <trkpt lat="39.73718463443219661712646484375" lon="-0.36999262869358062744140625">
        <ele>182.1999969482421875</ele>
        <time>2021-09-27T10:12:35.000Z</time>
      </trkpt>
      <trkpt lat="39.73706896416842937469482421875" lon="-0.37007820792496204376220703125">
        <ele>181.8000030517578125</ele>
        <time>2021-09-27T10:12:37.000Z</time>
      </trkpt>
      <trkpt lat="39.7370088659226894378662109375" lon="-0.3701218776404857635498046875">
        <ele>181.600006103515625</ele>
        <time>2021-09-27T10:12:38.000Z</time>
      </trkpt>
      <trkpt lat="39.7369495220482349395751953125" lon="-0.3701684810221195220947265625">
        <ele>181.399993896484375</ele>
        <time>2021-09-27T10:12:39.000Z</time>
      </trkpt>
      <trkpt lat="39.7368315048515796661376953125" lon="-0.3702630288898944854736328125">
        <ele>181.1999969482421875</ele>
        <time>2021-09-27T10:12:41.000Z</time>
      </trkpt>
      <trkpt lat="39.7367124818265438079833984375" lon="-0.370355062186717987060546875">
        <ele>181</ele>
        <time>2021-09-27T10:12:43.000Z</time>
      </trkpt>
      <trkpt lat="39.736594296991825103759765625" lon="-0.3704427368938922882080078125">
        <ele>180.8000030517578125</ele>
        <time>2021-09-27T10:12:45.000Z</time>
      </trkpt>
      <trkpt lat="39.73653369583189487457275390625" lon="-0.37048439495265483856201171875">
        <ele>180.600006103515625</ele>
        <time>2021-09-27T10:12:46.000Z</time>
      </trkpt>
      <trkpt lat="39.736476279795169830322265625" lon="-0.37052731029689311981201171875">
        <ele>180.399993896484375</ele>
        <time>2021-09-27T10:12:47.000Z</time>
      </trkpt>
      <trkpt lat="39.7363621182739734649658203125" lon="-0.3706046752631664276123046875">
        <ele>180</ele>
        <time>2021-09-27T10:12:49.000Z</time>
      </trkpt>
      <trkpt lat="39.73624921403825283050537109375" lon="-0.37068723700940608978271484375">
        <ele>179.399993896484375</ele>
        <time>2021-09-27T10:12:51.000Z</time>
      </trkpt>
      <trkpt lat="39.7361287660896778106689453125" lon="-0.3707800246775150299072265625">
        <ele>179</ele>
        <time>2021-09-27T10:12:53.000Z</time>
      </trkpt>
      <trkpt lat="39.735999517142772674560546875" lon="-0.3708785958588123321533203125">
        <ele>178.8000030517578125</ele>
        <time>2021-09-27T10:12:55.000Z</time>
      </trkpt>
      <trkpt lat="39.735872447490692138671875" lon="-0.37098110653460025787353515625">
        <ele>178.399993896484375</ele>
        <time>2021-09-27T10:12:57.000Z</time>
      </trkpt>
      <trkpt lat="39.73574177362024784088134765625" lon="-0.3710841201245784759521484375">
        <ele>178</ele>
        <time>2021-09-27T10:12:59.000Z</time>
      </trkpt>
      <trkpt lat="39.735608585178852081298828125" lon="-0.37118478678166866302490234375">
        <ele>177.600006103515625</ele>
        <time>2021-09-27T10:13:01.000Z</time>
      </trkpt>
      <trkpt lat="39.73547640256583690643310546875" lon="-0.37129425443708896636962890625">
        <ele>177.399993896484375</ele>
        <time>2021-09-27T10:13:03.000Z</time>
      </trkpt>
      <trkpt lat="39.7354122810065746307373046875" lon="-0.3713476471602916717529296875">
        <ele>177.1999969482421875</ele>
        <time>2021-09-27T10:13:04.000Z</time>
      </trkpt>
      <trkpt lat="39.73534799180924892425537109375" lon="-0.37139819003641605377197265625">
        <ele>177.1999969482421875</ele>
        <time>2021-09-27T10:13:05.000Z</time>
      </trkpt>
      <trkpt lat="39.73528328351676464080810546875" lon="-0.37144714035093784332275390625">
        <ele>177.1999969482421875</ele>
        <time>2021-09-27T10:13:06.000Z</time>
      </trkpt>
      <trkpt lat="39.7352206707000732421875" lon="-0.371495671570301055908203125">
        <ele>177</ele>
        <time>2021-09-27T10:13:07.000Z</time>
      </trkpt>
      <trkpt lat="39.7351576387882232666015625" lon="-0.3715444542467594146728515625">
        <ele>177</ele>
        <time>2021-09-27T10:13:08.000Z</time>
      </trkpt>
      <trkpt lat="39.73509452305734157562255859375" lon="-0.3715913929045200347900390625">
        <ele>177</ele>
        <time>2021-09-27T10:13:09.000Z</time>
      </trkpt>
      <trkpt lat="39.73496661521494388580322265625" lon="-0.3716879524290561676025390625">
        <ele>177</ele>
        <time>2021-09-27T10:13:11.000Z</time>
      </trkpt>
      <trkpt lat="39.7348399646580219268798828125" lon="-0.37178057245910167694091796875">
        <ele>177</ele>
        <time>2021-09-27T10:13:13.000Z</time>
      </trkpt>
      <trkpt lat="39.73471147008240222930908203125" lon="-0.37186405621469020843505859375">
        <ele>176.8000030517578125</ele>
        <time>2021-09-27T10:13:15.000Z</time>
      </trkpt>
      <trkpt lat="39.734651707112789154052734375" lon="-0.3719082288444042205810546875">
        <ele>176.8000030517578125</ele>
        <time>2021-09-27T10:13:16.000Z</time>
      </trkpt>
      <trkpt lat="39.73459127359092235565185546875" lon="-0.37195441313087940216064453125">
        <ele>176.8000030517578125</ele>
        <time>2021-09-27T10:13:17.000Z</time>
      </trkpt>
      <trkpt lat="39.7344721667468547821044921875" lon="-0.372044853866100311279296875">
        <ele>176.8000030517578125</ele>
        <time>2021-09-27T10:13:19.000Z</time>
      </trkpt>
      <trkpt lat="39.7343444265425205230712890625" lon="-0.37213169038295745849609375">
        <ele>176.600006103515625</ele>
        <time>2021-09-27T10:13:21.000Z</time>
      </trkpt>
      <trkpt lat="39.73421014845371246337890625" lon="-0.37222565151751041412353515625">
        <ele>176.399993896484375</ele>
        <time>2021-09-27T10:13:23.000Z</time>
      </trkpt>
      <trkpt lat="39.734141416847705841064453125" lon="-0.372274182736873626708984375">
        <ele>176.399993896484375</ele>
        <time>2021-09-27T10:13:24.000Z</time>
      </trkpt>
      <trkpt lat="39.73407209850847721099853515625" lon="-0.37232237868010997772216796875">
        <ele>176.399993896484375</ele>
        <time>2021-09-27T10:13:25.000Z</time>
      </trkpt>
      <trkpt lat="39.73392742685973644256591796875" lon="-0.3724158369004726409912109375">
        <ele>176.1999969482421875</ele>
        <time>2021-09-27T10:13:27.000Z</time>
      </trkpt>
      <trkpt lat="39.7337828390300273895263671875" lon="-0.3725134022533893585205078125">
        <ele>176</ele>
        <time>2021-09-27T10:13:29.000Z</time>
      </trkpt>
      <trkpt lat="39.73363590426743030548095703125" lon="-0.37260484881699085235595703125">
        <ele>175.8000030517578125</ele>
        <time>2021-09-27T10:13:31.000Z</time>
      </trkpt>
      <trkpt lat="39.73348855040967464447021484375" lon="-0.3726867400109767913818359375">
        <ele>175.1999969482421875</ele>
        <time>2021-09-27T10:13:33.000Z</time>
      </trkpt>
      <trkpt lat="39.73334605805575847625732421875" lon="-0.3727626800537109375">
        <ele>174.8000030517578125</ele>
        <time>2021-09-27T10:13:35.000Z</time>
      </trkpt>
      <trkpt lat="39.73320641554892063140869140625" lon="-0.372836776077747344970703125">
        <ele>174.1999969482421875</ele>
        <time>2021-09-27T10:13:37.000Z</time>
      </trkpt>
      <trkpt lat="39.73306995816528797149658203125" lon="-0.37290626205503940582275390625">
        <ele>173.8000030517578125</ele>
        <time>2021-09-27T10:13:39.000Z</time>
      </trkpt>
      <trkpt lat="39.73294079303741455078125" lon="-0.3729754127562046051025390625">
        <ele>173.399993896484375</ele>
        <time>2021-09-27T10:13:41.000Z</time>
      </trkpt>
      <trkpt lat="39.73287642002105712890625" lon="-0.37300567142665386199951171875">
        <ele>173</ele>
        <time>2021-09-27T10:13:42.000Z</time>
      </trkpt>
      <trkpt lat="39.73281397484242916107177734375" lon="-0.37303668446838855743408203125">
        <ele>173.1999969482421875</ele>
        <time>2021-09-27T10:13:43.000Z</time>
      </trkpt>
      <trkpt lat="39.73268874920904636383056640625" lon="-0.373102985322475433349609375">
        <ele>173.1999969482421875</ele>
        <time>2021-09-27T10:13:45.000Z</time>
      </trkpt>
      <trkpt lat="39.73256084136664867401123046875" lon="-0.37317029200494289398193359375">
        <ele>173.399993896484375</ele>
        <time>2021-09-27T10:13:47.000Z</time>
      </trkpt>
      <trkpt lat="39.73242245614528656005859375" lon="-0.37322695367038249969482421875">
        <ele>173.399993896484375</ele>
        <time>2021-09-27T10:13:49.000Z</time>
      </trkpt>
      <trkpt lat="39.73235003650188446044921875" lon="-0.3732483275234699249267578125">
        <ele>173.399993896484375</ele>
        <time>2021-09-27T10:13:50.000Z</time>
      </trkpt>
      <trkpt lat="39.7322777844965457916259765625" lon="-0.37326349876821041107177734375">
        <ele>173.399993896484375</ele>
        <time>2021-09-27T10:13:51.000Z</time>
      </trkpt>
      <trkpt lat="39.7322057001292705535888671875" lon="-0.37327724508941173553466796875">
        <ele>173.1999969482421875</ele>
        <time>2021-09-27T10:13:52.000Z</time>
      </trkpt>
      <trkpt lat="39.732137806713581085205078125" lon="-0.37328998558223247528076171875">
        <ele>173.1999969482421875</ele>
        <time>2021-09-27T10:13:53.000Z</time>
      </trkpt>
      <trkpt lat="39.73201534710824489593505859375" lon="-0.373302809894084930419921875">
        <ele>173.1999969482421875</ele>
        <time>2021-09-27T10:13:55.000Z</time>
      </trkpt>
      <trkpt lat="39.73195818252861499786376953125" lon="-0.3733093477785587310791015625">
        <ele>173.1999969482421875</ele>
        <time>2021-09-27T10:13:56.000Z</time>
      </trkpt>
      <trkpt lat="39.73190185613930225372314453125" lon="-0.37331094034016132354736328125">
        <ele>173.399993896484375</ele>
        <time>2021-09-27T10:13:57.000Z</time>
      </trkpt>
      <trkpt lat="39.73180110566318035125732421875" lon="-0.37329199723899364471435546875">
        <ele>173.399993896484375</ele>
        <time>2021-09-27T10:13:59.000Z</time>
      </trkpt>
      <trkpt lat="39.7317527420818805694580078125" lon="-0.37326266057789325714111328125">
        <ele>173.399993896484375</ele>
        <time>2021-09-27T10:14:00.000Z</time>
      </trkpt>
      <trkpt lat="39.7317118383944034576416015625" lon="-0.373208932578563690185546875">
        <ele>173.1999969482421875</ele>
        <time>2021-09-27T10:14:01.000Z</time>
      </trkpt>
      <trkpt lat="39.73166297189891338348388671875" lon="-0.3730483353137969970703125">
        <ele>172.8000030517578125</ele>
        <time>2021-09-27T10:14:03.000Z</time>
      </trkpt>
      <trkpt lat="39.73164402879774570465087890625" lon="-0.3728949464857578277587890625">
        <ele>172.399993896484375</ele>
        <time>2021-09-27T10:14:05.000Z</time>
      </trkpt>
      <trkpt lat="39.73162709735333919525146484375" lon="-0.3728377819061279296875">
        <ele>172.399993896484375</ele>
        <time>2021-09-27T10:14:06.000Z</time>
      </trkpt>
      <trkpt lat="39.731595329940319061279296875" lon="-0.37280065007507801055908203125">
        <ele>172.600006103515625</ele>
        <time>2021-09-27T10:14:07.000Z</time>
      </trkpt>
      <trkpt lat="39.7315286099910736083984375" lon="-0.37277651019394397735595703125">
        <ele>172.600006103515625</ele>
        <time>2021-09-27T10:14:09.000Z</time>
      </trkpt>
      <trkpt lat="39.731504134833812713623046875" lon="-0.37277349270880222320556640625">
        <ele>172.600006103515625</ele>
        <time>2021-09-27T10:14:10.000Z</time>
      </trkpt>
      <trkpt lat="39.7314801625907421112060546875" lon="-0.372773073613643646240234375">
        <ele>172.600006103515625</ele>
        <time>2021-09-27T10:14:11.000Z</time>
      </trkpt>
      <trkpt lat="39.73145124502480030059814453125" lon="-0.37277600727975368499755859375">
        <ele>172.8000030517578125</ele>
        <time>2021-09-27T10:14:12.000Z</time>
      </trkpt>
      <trkpt lat="39.73142291419208049774169921875" lon="-0.37277785129845142364501953125">
        <ele>172.8000030517578125</ele>
        <time>2021-09-27T10:14:13.000Z</time>
      </trkpt>
      <trkpt lat="39.73139475099742412567138671875" lon="-0.37277600727975368499755859375">
        <ele>172.8000030517578125</ele>
        <time>2021-09-27T10:14:14.000Z</time>
      </trkpt>
      <trkpt lat="39.731361977756023406982421875" lon="-0.3727779351174831390380859375">
        <ele>172.600006103515625</ele>
        <time>2021-09-27T10:14:15.000Z</time>
      </trkpt>
      <trkpt lat="39.73128846846520900726318359375" lon="-0.37278640083968639373779296875">
        <ele>172.399993896484375</ele>
        <time>2021-09-27T10:14:17.000Z</time>
      </trkpt>
      <trkpt lat="39.73124722950160503387451171875" lon="-0.372784473001956939697265625">
        <ele>172.1999969482421875</ele>
        <time>2021-09-27T10:14:18.000Z</time>
      </trkpt>
      <trkpt lat="39.73120330832898616790771484375" lon="-0.37278120405972003936767578125">
        <ele>172</ele>
        <time>2021-09-27T10:14:19.000Z</time>
      </trkpt>
      <trkpt lat="39.731156118214130401611328125" lon="-0.37277684547007083892822265625">
        <ele>172</ele>
        <time>2021-09-27T10:14:20.000Z</time>
      </trkpt>
      <trkpt lat="39.731102474033832550048828125" lon="-0.37277332507073879241943359375">
        <ele>171.8000030517578125</ele>
        <time>2021-09-27T10:14:21.000Z</time>
      </trkpt>
      <trkpt lat="39.7309946827590465545654296875" lon="-0.37276200950145721435546875">
        <ele>171.8000030517578125</ele>
        <time>2021-09-27T10:14:23.000Z</time>
      </trkpt>
      <trkpt lat="39.730895943939685821533203125" lon="-0.3727548010647296905517578125">
        <ele>171.600006103515625</ele>
        <time>2021-09-27T10:14:25.000Z</time>
      </trkpt>
      <trkpt lat="39.73079628311097621917724609375" lon="-0.3727437369525432586669921875">
        <ele>171.399993896484375</ele>
        <time>2021-09-27T10:14:27.000Z</time>
      </trkpt>
      <trkpt lat="39.73070609383285045623779296875" lon="-0.37273091264069080352783203125">
        <ele>171.1999969482421875</ele>
        <time>2021-09-27T10:14:29.000Z</time>
      </trkpt>
      <trkpt lat="39.730619005858898162841796875" lon="-0.37271372973918914794921875">
        <ele>171</ele>
        <time>2021-09-27T10:14:31.000Z</time>
      </trkpt>
      <trkpt lat="39.73057919181883335113525390625" lon="-0.37270308472216129302978515625">
        <ele>171</ele>
        <time>2021-09-27T10:14:32.000Z</time>
      </trkpt>
      <trkpt lat="39.7305417247116565704345703125" lon="-0.372692607343196868896484375">
        <ele>171</ele>
        <time>2021-09-27T10:14:33.000Z</time>
      </trkpt>
      <trkpt lat="39.730467461049556732177734375" lon="-0.37267324514687061309814453125">
        <ele>171</ele>
        <time>2021-09-27T10:14:35.000Z</time>
      </trkpt>
      <trkpt lat="39.73038372583687305450439453125" lon="-0.37265530787408351898193359375">
        <ele>170.8000030517578125</ele>
        <time>2021-09-27T10:14:37.000Z</time>
      </trkpt>
      <trkpt lat="39.73033972084522247314453125" lon="-0.37264809943735599517822265625">
        <ele>170.8000030517578125</ele>
        <time>2021-09-27T10:14:38.000Z</time>
      </trkpt>
      <trkpt lat="39.73029370419681072235107421875" lon="-0.37263703532516956329345703125">
        <ele>170.8000030517578125</ele>
        <time>2021-09-27T10:14:39.000Z</time>
      </trkpt>
      <trkpt lat="39.73020301200449466705322265625" lon="-0.37261071614921092987060546875">
        <ele>170.8000030517578125</ele>
        <time>2021-09-27T10:14:41.000Z</time>
      </trkpt>
      <trkpt lat="39.7301043570041656494140625" lon="-0.3725851513445377349853515625">
        <ele>171</ele>
        <time>2021-09-27T10:14:43.000Z</time>
      </trkpt>
      <trkpt lat="39.730000756680965423583984375" lon="-0.37255388684570789337158203125">
        <ele>171</ele>
        <time>2021-09-27T10:14:45.000Z</time>
      </trkpt>
      <trkpt lat="39.7299003414809703826904296875" lon="-0.372515581548213958740234375">
        <ele>171</ele>
        <time>2021-09-27T10:14:47.000Z</time>
      </trkpt>
      <trkpt lat="39.72980369813740253448486328125" lon="-0.3724823892116546630859375">
        <ele>170.8000030517578125</ele>
        <time>2021-09-27T10:14:49.000Z</time>
      </trkpt>
      <trkpt lat="39.72970630042254924774169921875" lon="-0.37244995124638080596923828125">
        <ele>170.8000030517578125</ele>
        <time>2021-09-27T10:14:51.000Z</time>
      </trkpt>
      <trkpt lat="39.729601442813873291015625" lon="-0.3724126517772674560546875">
        <ele>170.8000030517578125</ele>
        <time>2021-09-27T10:14:53.000Z</time>
      </trkpt>
      <trkpt lat="39.72949750721454620361328125" lon="-0.37236680276691913604736328125">
        <ele>170.8000030517578125</ele>
        <time>2021-09-27T10:14:55.000Z</time>
      </trkpt>
      <trkpt lat="39.72939130850136280059814453125" lon="-0.37232346832752227783203125">
        <ele>170.8000030517578125</ele>
        <time>2021-09-27T10:14:57.000Z</time>
      </trkpt>
      <trkpt lat="39.72928217612206935882568359375" lon="-0.3722785413265228271484375">
        <ele>170.600006103515625</ele>
        <time>2021-09-27T10:14:59.000Z</time>
      </trkpt>
      <trkpt lat="39.72922660410404205322265625" lon="-0.3722490370273590087890625">
        <ele>170.600006103515625</ele>
        <time>2021-09-27T10:15:00.000Z</time>
      </trkpt>
      <trkpt lat="39.729171283543109893798828125" lon="-0.37222045473754405975341796875">
        <ele>170.399993896484375</ele>
        <time>2021-09-27T10:15:01.000Z</time>
      </trkpt>
      <trkpt lat="39.7290591336786746978759765625" lon="-0.372170917689800262451171875">
        <ele>170.1999969482421875</ele>
        <time>2021-09-27T10:15:03.000Z</time>
      </trkpt>
      <trkpt lat="39.72900331020355224609375" lon="-0.37214334122836589813232421875">
        <ele>170</ele>
        <time>2021-09-27T10:15:04.000Z</time>
      </trkpt>
      <trkpt lat="39.72894824109971523284912109375" lon="-0.3721137531101703643798828125">
        <ele>169.8000030517578125</ele>
        <time>2021-09-27T10:15:05.000Z</time>
      </trkpt>
      <trkpt lat="39.72884112037718296051025390625" lon="-0.3720490448176860809326171875">
        <ele>169.600006103515625</ele>
        <time>2021-09-27T10:15:07.000Z</time>
      </trkpt>
      <trkpt lat="39.7287288866937160491943359375" lon="-0.37198089994490146636962890625">
        <ele>169.1999969482421875</ele>
        <time>2021-09-27T10:15:09.000Z</time>
      </trkpt>
      <trkpt lat="39.72866845317184925079345703125" lon="-0.37193999625742435455322265625">
        <ele>169</ele>
        <time>2021-09-27T10:15:10.000Z</time>
      </trkpt>
      <trkpt lat="39.72860977984964847564697265625" lon="-0.37190244533121585845947265625">
        <ele>168.8000030517578125</ele>
        <time>2021-09-27T10:15:11.000Z</time>
      </trkpt>
      <trkpt lat="39.72849075682461261749267578125" lon="-0.3718341328203678131103515625">
        <ele>168.1999969482421875</ele>
        <time>2021-09-27T10:15:13.000Z</time>
      </trkpt>
      <trkpt lat="39.72842956893146038055419921875" lon="-0.37179901264607906341552734375">
        <ele>168</ele>
        <time>2021-09-27T10:15:14.000Z</time>
      </trkpt>
      <trkpt lat="39.728371314704418182373046875" lon="-0.3717637248337268829345703125">
        <ele>167.8000030517578125</ele>
        <time>2021-09-27T10:15:15.000Z</time>
      </trkpt>
      <trkpt lat="39.7282484360039234161376953125" lon="-0.371692813932895660400390625">
        <ele>167.399993896484375</ele>
        <time>2021-09-27T10:15:17.000Z</time>
      </trkpt>
      <trkpt lat="39.72812497057020664215087890625" lon="-0.37162383086979389190673828125">
        <ele>167.1999969482421875</ele>
        <time>2021-09-27T10:15:19.000Z</time>
      </trkpt>
      <trkpt lat="39.72798583097755908966064453125" lon="-0.37157320417463779449462890625">
        <ele>167</ele>
        <time>2021-09-27T10:15:21.000Z</time>
      </trkpt>
      <trkpt lat="39.72783411853015422821044921875" lon="-0.3715166263282299041748046875">
        <ele>166.8000030517578125</ele>
        <time>2021-09-27T10:15:23.000Z</time>
      </trkpt>
      <trkpt lat="39.72767896950244903564453125" lon="-0.37142534740269184112548828125">
        <ele>166.600006103515625</ele>
        <time>2021-09-27T10:15:25.000Z</time>
      </trkpt>
      <trkpt lat="39.7275302745401859283447265625" lon="-0.37132526747882366180419921875">
        <ele>167.1999969482421875</ele>
        <time>2021-09-27T10:15:27.000Z</time>
      </trkpt>
      <trkpt lat="39.72745961509644985198974609375" lon="-0.3712779097259044647216796875">
        <ele>167.399993896484375</ele>
        <time>2021-09-27T10:15:28.000Z</time>
      </trkpt>
      <trkpt lat="39.7273886203765869140625" lon="-0.3712316416203975677490234375">
        <ele>167.600006103515625</ele>
        <time>2021-09-27T10:15:29.000Z</time>
      </trkpt>
      <trkpt lat="39.7272459603846073150634765625" lon="-0.371132902801036834716796875">
        <ele>167.8000030517578125</ele>
        <time>2021-09-27T10:15:31.000Z</time>
      </trkpt>
      <trkpt lat="39.72711545415222644805908203125" lon="-0.37103592418134212493896484375">
        <ele>167.600006103515625</ele>
        <time>2021-09-27T10:15:33.000Z</time>
      </trkpt>
      <trkpt lat="39.72706549800932407379150390625" lon="-0.370972640812397003173828125">
        <ele>167.399993896484375</ele>
        <time>2021-09-27T10:15:34.000Z</time>
      </trkpt>
      <trkpt lat="39.72702585160732269287109375" lon="-0.370906256139278411865234375">
        <ele>167.1999969482421875</ele>
        <time>2021-09-27T10:15:35.000Z</time>
      </trkpt>
      <trkpt lat="39.7269613109529018402099609375" lon="-0.370788909494876861572265625">
        <ele>167</ele>
        <time>2021-09-27T10:15:37.000Z</time>
      </trkpt>
      <trkpt lat="39.72693121992051601409912109375" lon="-0.37074188701808452606201171875">
        <ele>167</ele>
        <time>2021-09-27T10:15:38.000Z</time>
      </trkpt>
      <trkpt lat="39.72690138034522533416748046875" lon="-0.37070475518703460693359375">
        <ele>167</ele>
        <time>2021-09-27T10:15:39.000Z</time>
      </trkpt>
      <trkpt lat="39.726843796670436859130859375" lon="-0.37063258700072765350341796875">
        <ele>167</ele>
        <time>2021-09-27T10:15:41.000Z</time>
      </trkpt>
      <trkpt lat="39.7268158011138439178466796875" lon="-0.3706155717372894287109375">
        <ele>166.8000030517578125</ele>
        <time>2021-09-27T10:15:42.000Z</time>
      </trkpt>
      <trkpt lat="39.7267891466617584228515625" lon="-0.37060542963445186614990234375">
        <ele>166.8000030517578125</ele>
        <time>2021-09-27T10:15:43.000Z</time>
      </trkpt>
      <trkpt lat="39.726751931011676788330078125" lon="-0.370585061609745025634765625">
        <ele>166.8000030517578125</ele>
        <time>2021-09-27T10:15:45.000Z</time>
      </trkpt>
      <trkpt lat="39.72674690186977386474609375" lon="-0.37058631889522075653076171875">
        <ele>166.8000030517578125</ele>
        <time>2021-09-27T10:15:47.000Z</time>
      </trkpt>
      <trkpt lat="39.72670541144907474517822265625" lon="-0.37053644657135009765625">
        <ele>166.399993896484375</ele>
        <time>2021-09-27T10:19:47.000Z</time>
      </trkpt>
      <trkpt lat="39.72669082693755626678466796875" lon="-0.37052747793495655059814453125">
        <ele>166.399993896484375</ele>
        <time>2021-09-27T10:19:48.000Z</time>
      </trkpt>
      <trkpt lat="39.72667456604540348052978515625" lon="-0.37051574327051639556884765625">
        <ele>166.1999969482421875</ele>
        <time>2021-09-27T10:19:49.000Z</time>
      </trkpt>
      <trkpt lat="39.7266538627445697784423828125" lon="-0.37050400860607624053955078125">
        <ele>166.1999969482421875</ele>
        <time>2021-09-27T10:19:50.000Z</time>
      </trkpt>
      <trkpt lat="39.72663198597729206085205078125" lon="-0.3704923577606678009033203125">
        <ele>166.1999969482421875</ele>
        <time>2021-09-27T10:19:51.000Z</time>
      </trkpt>
      <trkpt lat="39.72658705897629261016845703125" lon="-0.370473749935626983642578125">
        <ele>166</ele>
        <time>2021-09-27T10:19:53.000Z</time>
      </trkpt>
      <trkpt lat="39.726537354290485382080078125" lon="-0.370459668338298797607421875">
        <ele>166.1999969482421875</ele>
        <time>2021-09-27T10:19:55.000Z</time>
      </trkpt>
      <trkpt lat="39.72647021524608135223388671875" lon="-0.3704440779983997344970703125">
        <ele>166.1999969482421875</ele>
        <time>2021-09-27T10:19:57.000Z</time>
      </trkpt>
      <trkpt lat="39.72643375396728515625" lon="-0.37043091841042041778564453125">
        <ele>166.1999969482421875</ele>
        <time>2021-09-27T10:19:58.000Z</time>
      </trkpt>
      <trkpt lat="39.726401232182979583740234375" lon="-0.3704159148037433624267578125">
        <ele>166.399993896484375</ele>
        <time>2021-09-27T10:19:59.000Z</time>
      </trkpt>
      <trkpt lat="39.72633157856762409210205078125" lon="-0.370383560657501220703125">
        <ele>166.399993896484375</ele>
        <time>2021-09-27T10:20:01.000Z</time>
      </trkpt>
      <trkpt lat="39.72624775953590869903564453125" lon="-0.37035070359706878662109375">
        <ele>165.8000030517578125</ele>
        <time>2021-09-27T10:20:03.000Z</time>
      </trkpt>
      <trkpt lat="39.7262005694210529327392578125" lon="-0.3703344427049160003662109375">
        <ele>165.399993896484375</ele>
        <time>2021-09-27T10:20:04.000Z</time>
      </trkpt>
      <trkpt lat="39.726149104535579681396484375" lon="-0.3703156672418117523193359375">
        <ele>165.1999969482421875</ele>
        <time>2021-09-27T10:20:05.000Z</time>
      </trkpt>
      <trkpt lat="39.7260366193950176239013671875" lon="-0.37027015350759029388427734375">
        <ele>164.600006103515625</ele>
        <time>2021-09-27T10:20:07.000Z</time>
      </trkpt>
      <trkpt lat="39.72591516561806201934814453125" lon="-0.3702211193740367889404296875">
        <ele>163.8000030517578125</ele>
        <time>2021-09-27T10:20:09.000Z</time>
      </trkpt>
      <trkpt lat="39.7257942147552967071533203125" lon="-0.37017610855400562286376953125">
        <ele>163.1999969482421875</ele>
        <time>2021-09-27T10:20:11.000Z</time>
      </trkpt>
      <trkpt lat="39.7256792150437831878662109375" lon="-0.37012816406786441802978515625">
        <ele>162.8000030517578125</ele>
        <time>2021-09-27T10:20:13.000Z</time>
      </trkpt>
      <trkpt lat="39.7256242297589778900146484375" lon="-0.37009983323514461517333984375">
        <ele>162.600006103515625</ele>
        <time>2021-09-27T10:20:14.000Z</time>
      </trkpt>
      <trkpt lat="39.72556765191256999969482421875" lon="-0.37006563507020473480224609375">
        <ele>162.600006103515625</ele>
        <time>2021-09-27T10:20:15.000Z</time>
      </trkpt>
      <trkpt lat="39.7254552505910396575927734375" lon="-0.36999371834099292755126953125">
        <ele>162.399993896484375</ele>
        <time>2021-09-27T10:20:17.000Z</time>
      </trkpt>
      <trkpt lat="39.7253402508795261383056640625" lon="-0.3699197061359882354736328125">
        <ele>162.1999969482421875</ele>
        <time>2021-09-27T10:20:19.000Z</time>
      </trkpt>
      <trkpt lat="39.7252835892140865325927734375" lon="-0.36988089792430400848388671875">
        <ele>162.1999969482421875</ele>
        <time>2021-09-27T10:20:20.000Z</time>
      </trkpt>
      <trkpt lat="39.7252269275486469268798828125" lon="-0.369844101369380950927734375">
        <ele>162.399993896484375</ele>
        <time>2021-09-27T10:20:21.000Z</time>
      </trkpt>
      <trkpt lat="39.725109748542308807373046875" lon="-0.3697715140879154205322265625">
        <ele>162.399993896484375</ele>
        <time>2021-09-27T10:20:23.000Z</time>
      </trkpt>
      <trkpt lat="39.72500371746718883514404296875" lon="-0.36969481967389583587646484375">
        <ele>162.600006103515625</ele>
        <time>2021-09-27T10:20:25.000Z</time>
      </trkpt>
      <trkpt lat="39.7249518334865570068359375" lon="-0.369655005633831024169921875">
        <ele>162.600006103515625</ele>
        <time>2021-09-27T10:20:26.000Z</time>
      </trkpt>
      <trkpt lat="39.724893830716609954833984375" lon="-0.3696179576218128204345703125">
        <ele>162.8000030517578125</ele>
        <time>2021-09-27T10:20:27.000Z</time>
      </trkpt>
      <trkpt lat="39.7248380072414875030517578125" lon="-0.3695767186582088470458984375">
        <ele>163</ele>
        <time>2021-09-27T10:20:28.000Z</time>
      </trkpt>
      <trkpt lat="39.7247882187366485595703125" lon="-0.36953807808458805084228515625">
        <ele>163.1999969482421875</ele>
        <time>2021-09-27T10:20:29.000Z</time>
      </trkpt>
      <trkpt lat="39.724694006145000457763671875" lon="-0.36945828236639499664306640625">
        <ele>163.600006103515625</ele>
        <time>2021-09-27T10:20:31.000Z</time>
      </trkpt>
      <trkpt lat="39.7245956026017665863037109375" lon="-0.36938284523785114288330078125">
        <ele>163.600006103515625</ele>
        <time>2021-09-27T10:20:33.000Z</time>
      </trkpt>
      <trkpt lat="39.72454371862113475799560546875" lon="-0.36934697069227695465087890625">
        <ele>163.600006103515625</ele>
        <time>2021-09-27T10:20:34.000Z</time>
      </trkpt>
      <trkpt lat="39.72449342720210552215576171875" lon="-0.3693074919283390045166015625">
        <ele>163.399993896484375</ele>
        <time>2021-09-27T10:20:35.000Z</time>
      </trkpt>
      <trkpt lat="39.72444288432598114013671875" lon="-0.3692679293453693389892578125">
        <ele>163.1999969482421875</ele>
        <time>2021-09-27T10:20:36.000Z</time>
      </trkpt>
      <trkpt lat="39.72439016215503215789794921875" lon="-0.36922878585755825042724609375">
        <ele>163</ele>
        <time>2021-09-27T10:20:37.000Z</time>
      </trkpt>
      <trkpt lat="39.7242881543934345245361328125" lon="-0.3691505827009677886962890625">
        <ele>162.600006103515625</ele>
        <time>2021-09-27T10:20:39.000Z</time>
      </trkpt>
      <trkpt lat="39.72418145276606082916259765625" lon="-0.36907891742885112762451171875">
        <ele>162.1999969482421875</ele>
        <time>2021-09-27T10:20:41.000Z</time>
      </trkpt>
      <trkpt lat="39.72412998788058757781982421875" lon="-0.36904941312968730926513671875">
        <ele>162</ele>
        <time>2021-09-27T10:20:42.000Z</time>
      </trkpt>
      <trkpt lat="39.7240809537470340728759765625" lon="-0.36901270039379596710205078125">
        <ele>161.600006103515625</ele>
        <time>2021-09-27T10:20:43.000Z</time>
      </trkpt>
      <trkpt lat="39.72399017773568630218505859375" lon="-0.368934161961078643798828125">
        <ele>161</ele>
        <time>2021-09-27T10:20:45.000Z</time>
      </trkpt>
      <trkpt lat="39.723901413381099700927734375" lon="-0.368858389556407928466796875">
        <ele>160.600006103515625</ele>
        <time>2021-09-27T10:20:47.000Z</time>
      </trkpt>
      <trkpt lat="39.72380896098911762237548828125" lon="-0.368782617151737213134765625">
        <ele>160</ele>
        <time>2021-09-27T10:20:49.000Z</time>
      </trkpt>
      <trkpt lat="39.72370821051299571990966796875" lon="-0.36871380172669887542724609375">
        <ele>159.600006103515625</ele>
        <time>2021-09-27T10:20:51.000Z</time>
      </trkpt>
      <trkpt lat="39.7236065380275249481201171875" lon="-0.368652530014514923095703125">
        <ele>159.600006103515625</ele>
        <time>2021-09-27T10:20:53.000Z</time>
      </trkpt>
      <trkpt lat="39.7235599346458911895751953125" lon="-0.3686215169727802276611328125">
        <ele>159.600006103515625</ele>
        <time>2021-09-27T10:20:54.000Z</time>
      </trkpt>
      <trkpt lat="39.7235168516635894775390625" lon="-0.368588827550411224365234375">
        <ele>159.600006103515625</ele>
        <time>2021-09-27T10:20:55.000Z</time>
      </trkpt>
      <trkpt lat="39.7234358824789524078369140625" lon="-0.368502996861934661865234375">
        <ele>159.600006103515625</ele>
        <time>2021-09-27T10:20:57.000Z</time>
      </trkpt>
      <trkpt lat="39.72336773760616779327392578125" lon="-0.36838036961853504180908203125">
        <ele>159.1999969482421875</ele>
        <time>2021-09-27T10:20:59.000Z</time>
      </trkpt>
      <trkpt lat="39.7233031131327152252197265625" lon="-0.3682418167591094970703125">
        <ele>159</ele>
        <time>2021-09-27T10:21:01.000Z</time>
      </trkpt>
      <trkpt lat="39.72323765046894550323486328125" lon="-0.368092618882656097412109375">
        <ele>159</ele>
        <time>2021-09-27T10:21:03.000Z</time>
      </trkpt>
      <trkpt lat="39.72318903543055057525634765625" lon="-0.3679603524506092071533203125">
        <ele>158.8000030517578125</ele>
        <time>2021-09-27T10:21:05.000Z</time>
      </trkpt>
      <trkpt lat="39.72318685613572597503662109375" lon="-0.3678775392472743988037109375">
        <ele>158.600006103515625</ele>
        <time>2021-09-27T10:21:07.000Z</time>
      </trkpt>
      <trkpt lat="39.72320445813238620758056640625" lon="-0.36785080097615718841552734375">
        <ele>158.399993896484375</ele>
        <time>2021-09-27T10:21:08.000Z</time>
      </trkpt>
      <trkpt lat="39.723229520022869110107421875" lon="-0.36783839575946331024169921875">
        <ele>158.399993896484375</ele>
        <time>2021-09-27T10:21:09.000Z</time>
      </trkpt>
      <trkpt lat="39.723277799785137176513671875" lon="-0.36784476600587368011474609375">
        <ele>158.1999969482421875</ele>
        <time>2021-09-27T10:21:11.000Z</time>
      </trkpt>
      <trkpt lat="39.72332532517611980438232421875" lon="-0.3678560815751552581787109375">
        <ele>158</ele>
        <time>2021-09-27T10:21:13.000Z</time>
      </trkpt>
      <trkpt lat="39.72338014282286167144775390625" lon="-0.36789572797715663909912109375">
        <ele>158</ele>
        <time>2021-09-27T10:21:15.000Z</time>
      </trkpt>
      <trkpt lat="39.723408222198486328125" lon="-0.3679172694683074951171875">
        <ele>158</ele>
        <time>2021-09-27T10:21:16.000Z</time>
      </trkpt>
      <trkpt lat="39.72343713976442813873291015625" lon="-0.36793981678783893585205078125">
        <ele>157.8000030517578125</ele>
        <time>2021-09-27T10:21:17.000Z</time>
      </trkpt>
      <trkpt lat="39.7234925441443920135498046875" lon="-0.3679925389587879180908203125">
        <ele>157.8000030517578125</ele>
        <time>2021-09-27T10:21:19.000Z</time>
      </trkpt>
      <trkpt lat="39.72352313809096813201904296875" lon="-0.3680183552205562591552734375">
        <ele>157.8000030517578125</ele>
        <time>2021-09-27T10:21:20.000Z</time>
      </trkpt>
      <trkpt lat="39.72355213947594165802001953125" lon="-0.36804693751037120819091796875">
        <ele>157.8000030517578125</ele>
        <time>2021-09-27T10:21:21.000Z</time>
      </trkpt>
      <trkpt lat="39.72358030267059803009033203125" lon="-0.3680726699531078338623046875">
        <ele>157.600006103515625</ele>
        <time>2021-09-27T10:21:22.000Z</time>
      </trkpt>
      <trkpt lat="39.7236085496842861175537109375" lon="-0.36809773184359073638916015625">
        <ele>157.600006103515625</ele>
        <time>2021-09-27T10:21:23.000Z</time>
      </trkpt>
      <trkpt lat="39.72363662905991077423095703125" lon="-0.368121452629566192626953125">
        <ele>157.600006103515625</ele>
        <time>2021-09-27T10:21:24.000Z</time>
      </trkpt>
      <trkpt lat="39.72366395406424999237060546875" lon="-0.36814668215811252593994140625">
        <ele>157.8000030517578125</ele>
        <time>2021-09-27T10:21:25.000Z</time>
      </trkpt>
      <trkpt lat="39.723722375929355621337890625" lon="-0.368190519511699676513671875">
        <ele>157.8000030517578125</ele>
        <time>2021-09-27T10:21:27.000Z</time>
      </trkpt>
      <trkpt lat="39.7237500362098217010498046875" lon="-0.368211306631565093994140625">
        <ele>157.8000030517578125</ele>
        <time>2021-09-27T10:21:28.000Z</time>
      </trkpt>
      <trkpt lat="39.72377769649028778076171875" lon="-0.36823821254074573516845703125">
        <ele>158</ele>
        <time>2021-09-27T10:21:29.000Z</time>
      </trkpt>
      <trkpt lat="39.72383008338510990142822265625" lon="-0.36829235963523387908935546875">
        <ele>158.1999969482421875</ele>
        <time>2021-09-27T10:21:31.000Z</time>
      </trkpt>
      <trkpt lat="39.723883308470249176025390625" lon="-0.368345081806182861328125">
        <ele>158.399993896484375</ele>
        <time>2021-09-27T10:21:33.000Z</time>
      </trkpt>
      <trkpt lat="39.7239424847066402435302734375" lon="-0.36838690750300884246826171875">
        <ele>158.399993896484375</ele>
        <time>2021-09-27T10:21:35.000Z</time>
      </trkpt>
      <trkpt lat="39.723969809710979461669921875" lon="-0.36841071210801601409912109375">
        <ele>158.600006103515625</ele>
        <time>2021-09-27T10:21:36.000Z</time>
      </trkpt>
      <trkpt lat="39.7239961288869380950927734375" lon="-0.3684349358081817626953125">
        <ele>158.600006103515625</ele>
        <time>2021-09-27T10:21:37.000Z</time>
      </trkpt>
      <trkpt lat="39.72404868341982364654541015625" lon="-0.36848681978881359100341796875">
        <ele>158.8000030517578125</ele>
        <time>2021-09-27T10:21:39.000Z</time>
      </trkpt>
      <trkpt lat="39.72409880720078945159912109375" lon="-0.3685387037694454193115234375">
        <ele>159.1999969482421875</ele>
        <time>2021-09-27T10:21:41.000Z</time>
      </trkpt>
      <trkpt lat="39.724144153296947479248046875" lon="-0.3685910068452358245849609375">
        <ele>159.399993896484375</ele>
        <time>2021-09-27T10:21:43.000Z</time>
      </trkpt>
      <trkpt lat="39.724164269864559173583984375" lon="-0.3686181642115116119384765625">
        <ele>159.600006103515625</ele>
        <time>2021-09-27T10:21:44.000Z</time>
      </trkpt>
      <trkpt lat="39.72418312914669513702392578125" lon="-0.368650853633880615234375">
        <ele>159.8000030517578125</ele>
        <time>2021-09-27T10:21:45.000Z</time>
      </trkpt>
      <trkpt lat="39.724211879074573516845703125" lon="-0.36872553639113903045654296875">
        <ele>160.1999969482421875</ele>
        <time>2021-09-27T10:21:47.000Z</time>
      </trkpt>
      <trkpt lat="39.72422830760478973388671875" lon="-0.36879879422485828399658203125">
        <ele>160.600006103515625</ele>
        <time>2021-09-27T10:21:49.000Z</time>
      </trkpt>
      <trkpt lat="39.72422822378575801849365234375" lon="-0.36883768625557422637939453125">
        <ele>160.8000030517578125</ele>
        <time>2021-09-27T10:21:50.000Z</time>
      </trkpt>
      <trkpt lat="39.72422118298709392547607421875" lon="-0.36887506954371929168701171875">
        <ele>161</ele>
        <time>2021-09-27T10:21:51.000Z</time>
      </trkpt>
      <trkpt lat="39.72420140169560909271240234375" lon="-0.36895218305289745330810546875">
        <ele>161.399993896484375</ele>
        <time>2021-09-27T10:21:53.000Z</time>
      </trkpt>
      <trkpt lat="39.72417877055704593658447265625" lon="-0.369026027619838714599609375">
        <ele>161.8000030517578125</ele>
        <time>2021-09-27T10:21:55.000Z</time>
      </trkpt>
      <trkpt lat="39.7241540439426898956298828125" lon="-0.3691009618341922760009765625">
        <ele>162.1999969482421875</ele>
        <time>2021-09-27T10:21:57.000Z</time>
      </trkpt>
      <trkpt lat="39.7241270542144775390625" lon="-0.369170196354389190673828125">
        <ele>162.600006103515625</ele>
        <time>2021-09-27T10:21:59.000Z</time>
      </trkpt>
      <trkpt lat="39.72409553825855255126953125" lon="-0.36924320273101329803466796875">
        <ele>163</ele>
        <time>2021-09-27T10:22:01.000Z</time>
      </trkpt>
      <trkpt lat="39.72407751716673374176025390625" lon="-0.3692779876291751861572265625">
        <ele>163.1999969482421875</ele>
        <time>2021-09-27T10:22:02.000Z</time>
      </trkpt>
      <trkpt lat="39.72405798733234405517578125" lon="-0.36931402981281280517578125">
        <ele>163.399993896484375</ele>
        <time>2021-09-27T10:22:03.000Z</time>
      </trkpt>
      <trkpt lat="39.7240246273577213287353515625" lon="-0.369389466941356658935546875">
        <ele>163.8000030517578125</ele>
        <time>2021-09-27T10:22:05.000Z</time>
      </trkpt>
      <trkpt lat="39.72399923019111156463623046875" lon="-0.36946834065020084381103515625">
        <ele>164.1999969482421875</ele>
        <time>2021-09-27T10:22:07.000Z</time>
      </trkpt>
      <trkpt lat="39.72397140227258205413818359375" lon="-0.36954914219677448272705078125">
        <ele>164.600006103515625</ele>
        <time>2021-09-27T10:22:09.000Z</time>
      </trkpt>
      <trkpt lat="39.72395606338977813720703125" lon="-0.36958971060812473297119140625">
        <ele>164.8000030517578125</ele>
        <time>2021-09-27T10:22:10.000Z</time>
      </trkpt>
      <trkpt lat="39.723940305411815643310546875" lon="-0.36962726153433322906494140625">
        <ele>165</ele>
        <time>2021-09-27T10:22:11.000Z</time>
      </trkpt>
      <trkpt lat="39.72390568815171718597412109375" lon="-0.36970504559576511383056640625">
        <ele>165.8000030517578125</ele>
        <time>2021-09-27T10:22:13.000Z</time>
      </trkpt>
      <trkpt lat="39.72386998124420642852783203125" lon="-0.36978400312364101409912109375">
        <ele>166.8000030517578125</ele>
        <time>2021-09-27T10:22:15.000Z</time>
      </trkpt>
      <trkpt lat="39.7238402254879474639892578125" lon="-0.36987033672630786895751953125">
        <ele>168</ele>
        <time>2021-09-27T10:22:17.000Z</time>
      </trkpt>
      <trkpt lat="39.7238305024802684783935546875" lon="-0.3699160180985927581787109375">
        <ele>168.600006103515625</ele>
        <time>2021-09-27T10:22:18.000Z</time>
      </trkpt>
      <trkpt lat="39.72382136620581150054931640625" lon="-0.36996220238506793975830078125">
        <ele>169.1999969482421875</ele>
        <time>2021-09-27T10:22:19.000Z</time>
      </trkpt>
      <trkpt lat="39.72380778752267360687255859375" lon="-0.37005825899541378021240234375">
        <ele>170.399993896484375</ele>
        <time>2021-09-27T10:22:21.000Z</time>
      </trkpt>
      <trkpt lat="39.72381046973168849945068359375" lon="-0.3701104782521724700927734375">
        <ele>171.1999969482421875</ele>
        <time>2021-09-27T10:22:22.000Z</time>
      </trkpt>
      <trkpt lat="39.72381667234003543853759765625" lon="-0.37016252987086772918701171875">
        <ele>171.8000030517578125</ele>
        <time>2021-09-27T10:22:23.000Z</time>
      </trkpt>
      <trkpt lat="39.72384299151599407196044921875" lon="-0.370265543460845947265625">
        <ele>173.1999969482421875</ele>
        <time>2021-09-27T10:22:25.000Z</time>
      </trkpt>
      <trkpt lat="39.72387819550931453704833984375" lon="-0.37036922760307788848876953125">
        <ele>174.1999969482421875</ele>
        <time>2021-09-27T10:22:27.000Z</time>
      </trkpt>
      <trkpt lat="39.7238985635340213775634765625" lon="-0.3704170882701873779296875">
        <ele>174.399993896484375</ele>
        <time>2021-09-27T10:22:28.000Z</time>
      </trkpt>
      <trkpt lat="39.72392111085355281829833984375" lon="-0.37046310491859912872314453125">
        <ele>174.600006103515625</ele>
        <time>2021-09-27T10:22:29.000Z</time>
      </trkpt>
      <trkpt lat="39.72396679222583770751953125" lon="-0.37054248154163360595703125">
        <ele>175</ele>
        <time>2021-09-27T10:22:31.000Z</time>
      </trkpt>
      <trkpt lat="39.723989926278591156005859375" lon="-0.37061733193695545196533203125">
        <ele>175.399993896484375</ele>
        <time>2021-09-27T10:22:33.000Z</time>
      </trkpt>
      <trkpt lat="39.72395815886557102203369140625" lon="-0.37067952565848827362060546875">
        <ele>176.1999969482421875</ele>
        <time>2021-09-27T10:22:35.000Z</time>
      </trkpt>
      <trkpt lat="39.7239290736615657806396484375" lon="-0.37067382596433162689208984375">
        <ele>176.1999969482421875</ele>
        <time>2021-09-27T10:22:36.000Z</time>
      </trkpt>
      <trkpt lat="39.72389680333435535430908203125" lon="-0.37064842879772186279296875">
        <ele>176.1999969482421875</ele>
        <time>2021-09-27T10:22:37.000Z</time>
      </trkpt>
      <trkpt lat="39.72385908477008342742919921875" lon="-0.37061330862343311309814453125">
        <ele>176.1999969482421875</ele>
        <time>2021-09-27T10:22:38.000Z</time>
      </trkpt>
      <trkpt lat="39.72382052801549434661865234375" lon="-0.37057039327919483184814453125">
        <ele>176</ele>
        <time>2021-09-27T10:22:39.000Z</time>
      </trkpt>
      <trkpt lat="39.7237865813076496124267578125" lon="-0.3705178387463092803955078125">
        <ele>175.8000030517578125</ele>
        <time>2021-09-27T10:22:40.000Z</time>
      </trkpt>
      <trkpt lat="39.72375598736107349395751953125" lon="-0.370456315577030181884765625">
        <ele>175.600006103515625</ele>
        <time>2021-09-27T10:22:41.000Z</time>
      </trkpt>
      <trkpt lat="39.72372715361416339874267578125" lon="-0.370389260351657867431640625">
        <ele>174.8000030517578125</ele>
        <time>2021-09-27T10:22:42.000Z</time>
      </trkpt>
      <trkpt lat="39.7236997447907924652099609375" lon="-0.3703129850327968597412109375">
        <ele>173.8000030517578125</ele>
        <time>2021-09-27T10:22:43.000Z</time>
      </trkpt>
      <trkpt lat="39.72363998182117938995361328125" lon="-0.37014911882579326629638671875">
        <ele>171.399993896484375</ele>
        <time>2021-09-27T10:22:45.000Z</time>
      </trkpt>
      <trkpt lat="39.7236025147140026092529296875" lon="-0.37006370723247528076171875">
        <ele>170.1999969482421875</ele>
        <time>2021-09-27T10:22:46.000Z</time>
      </trkpt>
      <trkpt lat="39.7235589288175106048583984375" lon="-0.36998516879975795745849609375">
        <ele>169</ele>
        <time>2021-09-27T10:22:47.000Z</time>
      </trkpt>
      <trkpt lat="39.723505787551403045654296875" lon="-0.3699193708598613739013671875">
        <ele>168</ele>
        <time>2021-09-27T10:22:48.000Z</time>
      </trkpt>
      <trkpt lat="39.72344351001083850860595703125" lon="-0.3698734380304813385009765625">
        <ele>167.1999969482421875</ele>
        <time>2021-09-27T10:22:49.000Z</time>
      </trkpt>
      <trkpt lat="39.72337796352803707122802734375" lon="-0.36984971724450588226318359375">
        <ele>167.1999969482421875</ele>
        <time>2021-09-27T10:22:50.000Z</time>
      </trkpt>
      <trkpt lat="39.72330696880817413330078125" lon="-0.369844101369380950927734375">
        <ele>167.399993896484375</ele>
        <time>2021-09-27T10:22:51.000Z</time>
      </trkpt>
      <trkpt lat="39.72324033267796039581298828125" lon="-0.369849465787410736083984375">
        <ele>167.600006103515625</ele>
        <time>2021-09-27T10:22:52.000Z</time>
      </trkpt>
      <trkpt lat="39.723174870014190673828125" lon="-0.36985985934734344482421875">
        <ele>167.8000030517578125</ele>
        <time>2021-09-27T10:22:53.000Z</time>
      </trkpt>
      <trkpt lat="39.72310848534107208251953125" lon="-0.3698700852692127227783203125">
        <ele>168</ele>
        <time>2021-09-27T10:22:54.000Z</time>
      </trkpt>
      <trkpt lat="39.72304218448698520660400390625" lon="-0.36988441832363605499267578125">
        <ele>168.399993896484375</ele>
        <time>2021-09-27T10:22:55.000Z</time>
      </trkpt>
      <trkpt lat="39.7229172103106975555419921875" lon="-0.36991828121244907379150390625">
        <ele>168.8000030517578125</ele>
        <time>2021-09-27T10:22:57.000Z</time>
      </trkpt>
      <trkpt lat="39.72280003130435943603515625" lon="-0.36994929425418376922607421875">
        <ele>169</ele>
        <time>2021-09-27T10:22:59.000Z</time>
      </trkpt>
      <trkpt lat="39.72274345345795154571533203125" lon="-0.36996044218540191650390625">
        <ele>169</ele>
        <time>2021-09-27T10:23:00.000Z</time>
      </trkpt>
      <trkpt lat="39.722686707973480224609375" lon="-0.36997611634433269500732421875">
        <ele>169</ele>
        <time>2021-09-27T10:23:01.000Z</time>
      </trkpt>
      <trkpt lat="39.7225700318813323974609375" lon="-0.3700031898915767669677734375">
        <ele>168.8000030517578125</ele>
        <time>2021-09-27T10:23:03.000Z</time>
      </trkpt>
      <trkpt lat="39.7224562056362628936767578125" lon="-0.3700132481753826141357421875">
        <ele>168.8000030517578125</ele>
        <time>2021-09-27T10:23:05.000Z</time>
      </trkpt>
      <trkpt lat="39.7223958559334278106689453125" lon="-0.37001148797571659088134765625">
        <ele>168.600006103515625</ele>
        <time>2021-09-27T10:23:06.000Z</time>
      </trkpt>
      <trkpt lat="39.722335003316402435302734375" lon="-0.3699944727122783660888671875">
        <ele>168.399993896484375</ele>
        <time>2021-09-27T10:23:07.000Z</time>
      </trkpt>
      <trkpt lat="39.7222027368843555450439453125" lon="-0.36995801143348217010498046875">
        <ele>168</ele>
        <time>2021-09-27T10:23:09.000Z</time>
      </trkpt>
      <trkpt lat="39.72206636331975460052490234375" lon="-0.36998734809458255767822265625">
        <ele>168</ele>
        <time>2021-09-27T10:23:11.000Z</time>
      </trkpt>
      <trkpt lat="39.72200400196015834808349609375" lon="-0.3700313530862331390380859375">
        <ele>168.399993896484375</ele>
        <time>2021-09-27T10:23:12.000Z</time>
      </trkpt>
      <trkpt lat="39.7219462506473064422607421875" lon="-0.3700819797813892364501953125">
        <ele>168.8000030517578125</ele>
        <time>2021-09-27T10:23:13.000Z</time>
      </trkpt>
      <trkpt lat="39.72183150239288806915283203125" lon="-0.37018801085650920867919921875">
        <ele>169.600006103515625</ele>
        <time>2021-09-27T10:23:15.000Z</time>
      </trkpt>
      <trkpt lat="39.7217722423374652862548828125" lon="-0.37023846991360187530517578125">
        <ele>169.8000030517578125</ele>
        <time>2021-09-27T10:23:16.000Z</time>
      </trkpt>
      <trkpt lat="39.7217152453958988189697265625" lon="-0.37027752958238124847412109375">
        <ele>170.1999969482421875</ele>
        <time>2021-09-27T10:23:17.000Z</time>
      </trkpt>
      <trkpt lat="39.72165967337787151336669921875" lon="-0.37030954845249652862548828125">
        <ele>170.399993896484375</ele>
        <time>2021-09-27T10:23:18.000Z</time>
      </trkpt>
      <trkpt lat="39.72160502336919307708740234375" lon="-0.370331592857837677001953125">
        <ele>170.600006103515625</ele>
        <time>2021-09-27T10:23:19.000Z</time>
      </trkpt>
      <trkpt lat="39.72149974666535854339599609375" lon="-0.37035715766251087188720703125">
        <ele>171</ele>
        <time>2021-09-27T10:23:21.000Z</time>
      </trkpt>
      <trkpt lat="39.721404276788234710693359375" lon="-0.37037408910691738128662109375">
        <ele>171.1999969482421875</ele>
        <time>2021-09-27T10:23:23.000Z</time>
      </trkpt>
      <trkpt lat="39.7213132493197917938232421875" lon="-0.370373167097568511962890625">
        <ele>171.1999969482421875</ele>
        <time>2021-09-27T10:23:25.000Z</time>
      </trkpt>
      <trkpt lat="39.72122632898390293121337890625" lon="-0.37035564891993999481201171875">
        <ele>171</ele>
        <time>2021-09-27T10:23:27.000Z</time>
      </trkpt>
      <trkpt lat="39.72112759016454219818115234375" lon="-0.37032899446785449981689453125">
        <ele>170.8000030517578125</ele>
        <time>2021-09-27T10:23:29.000Z</time>
      </trkpt>
      <trkpt lat="39.7210232354700565338134765625" lon="-0.37029881961643695831298828125">
        <ele>170.399993896484375</ele>
        <time>2021-09-27T10:23:31.000Z</time>
      </trkpt>
      <trkpt lat="39.7209204733371734619140625" lon="-0.37027115933597087860107421875">
        <ele>170.1999969482421875</ele>
        <time>2021-09-27T10:23:33.000Z</time>
      </trkpt>
      <trkpt lat="39.7208130173385143280029296875" lon="-0.37023411132395267486572265625">
        <ele>170</ele>
        <time>2021-09-27T10:23:35.000Z</time>
      </trkpt>
      <trkpt lat="39.7206950001418590545654296875" lon="-0.37019421346485614776611328125">
        <ele>169.600006103515625</ele>
        <time>2021-09-27T10:23:37.000Z</time>
      </trkpt>
      <trkpt lat="39.7205696068704128265380859375" lon="-0.3701617754995822906494140625">
        <ele>169.600006103515625</ele>
        <time>2021-09-27T10:23:39.000Z</time>
      </trkpt>
      <trkpt lat="39.720440022647380828857421875" lon="-0.37014660425484180450439453125">
        <ele>169.8000030517578125</ele>
        <time>2021-09-27T10:23:41.000Z</time>
      </trkpt>
      <trkpt lat="39.7203067503869533538818359375" lon="-0.370143838226795196533203125">
        <ele>170</ele>
        <time>2021-09-27T10:23:43.000Z</time>
      </trkpt>
      <trkpt lat="39.72017222084105014801025390625" lon="-0.37013269029557704925537109375">
        <ele>170.1999969482421875</ele>
        <time>2021-09-27T10:23:45.000Z</time>
      </trkpt>
      <trkpt lat="39.720045737922191619873046875" lon="-0.370122380554676055908203125">
        <ele>170.1999969482421875</ele>
        <time>2021-09-27T10:23:47.000Z</time>
      </trkpt>
      <trkpt lat="39.71993166022002696990966796875" lon="-0.37012615241110324859619140625">
        <ele>170.399993896484375</ele>
        <time>2021-09-27T10:23:49.000Z</time>
      </trkpt>
      <trkpt lat="39.7198762558400630950927734375" lon="-0.37013118155300617218017578125">
        <ele>170.600006103515625</ele>
        <time>2021-09-27T10:23:50.000Z</time>
      </trkpt>
      <trkpt lat="39.719825796782970428466796875" lon="-0.3701326064765453338623046875">
        <ele>170.600006103515625</ele>
        <time>2021-09-27T10:23:51.000Z</time>
      </trkpt>
      <trkpt lat="39.71972286701202392578125" lon="-0.370126068592071533203125">
        <ele>170.399993896484375</ele>
        <time>2021-09-27T10:23:53.000Z</time>
      </trkpt>
      <trkpt lat="39.71962421201169490814208984375" lon="-0.37013118155300617218017578125">
        <ele>170.600006103515625</ele>
        <time>2021-09-27T10:23:55.000Z</time>
      </trkpt>
      <trkpt lat="39.71952815540134906768798828125" lon="-0.37013621069490909576416015625">
        <ele>170.600006103515625</ele>
        <time>2021-09-27T10:23:57.000Z</time>
      </trkpt>
      <trkpt lat="39.71942472271621227264404296875" lon="-0.37014610134065151214599609375">
        <ele>170.600006103515625</ele>
        <time>2021-09-27T10:23:59.000Z</time>
      </trkpt>
      <trkpt lat="39.71931844018399715423583984375" lon="-0.3701530583202838897705078125">
        <ele>170.600006103515625</ele>
        <time>2021-09-27T10:24:01.000Z</time>
      </trkpt>
      <trkpt lat="39.71921525895595550537109375" lon="-0.37015624344348907470703125">
        <ele>170.600006103515625</ele>
        <time>2021-09-27T10:24:03.000Z</time>
      </trkpt>
      <trkpt lat="39.719163961708545684814453125" lon="-0.37015750072896480560302734375">
        <ele>170.600006103515625</ele>
        <time>2021-09-27T10:24:04.000Z</time>
      </trkpt>
      <trkpt lat="39.71911559812724590301513671875" lon="-0.370159260928630828857421875">
        <ele>170.8000030517578125</ele>
        <time>2021-09-27T10:24:05.000Z</time>
      </trkpt>
      <trkpt lat="39.719021134078502655029296875" lon="-0.37015599198639392852783203125">
        <ele>170.600006103515625</ele>
        <time>2021-09-27T10:24:07.000Z</time>
      </trkpt>
      <trkpt lat="39.718928597867488861083984375" lon="-0.37014819681644439697265625">
        <ele>170.600006103515625</ele>
        <time>2021-09-27T10:24:09.000Z</time>
      </trkpt>
      <trkpt lat="39.718885682523250579833984375" lon="-0.3701342828571796417236328125">
        <ele>170.600006103515625</ele>
        <time>2021-09-27T10:24:10.000Z</time>
      </trkpt>
      <trkpt lat="39.718846119940280914306640625" lon="-0.37010184489190578460693359375">
        <ele>170.1999969482421875</ele>
        <time>2021-09-27T10:24:11.000Z</time>
      </trkpt>
      <trkpt lat="39.71881418488919734954833984375" lon="-0.37004719488322734832763671875">
        <ele>169.8000030517578125</ele>
        <time>2021-09-27T10:24:12.000Z</time>
      </trkpt>
      <trkpt lat="39.71879557706415653228759765625" lon="-0.369973517954349517822265625">
        <ele>169.399993896484375</ele>
        <time>2021-09-27T10:24:13.000Z</time>
      </trkpt>
      <trkpt lat="39.71878853626549243927001953125" lon="-0.36988710053265094757080078125">
        <ele>168.8000030517578125</ele>
        <time>2021-09-27T10:24:14.000Z</time>
      </trkpt>
      <trkpt lat="39.71878434531390666961669921875" lon="-0.3698028624057769775390625">
        <ele>168.1999969482421875</ele>
        <time>2021-09-27T10:24:15.000Z</time>
      </trkpt>
      <trkpt lat="39.7187701798975467681884765625" lon="-0.3697420097887516021728515625">
        <ele>167.8000030517578125</ele>
        <time>2021-09-27T10:24:16.000Z</time>
      </trkpt>
      <trkpt lat="39.71874461509287357330322265625" lon="-0.3696977533400058746337890625">
        <ele>167.399993896484375</ele>
        <time>2021-09-27T10:24:17.000Z</time>
      </trkpt>
      <trkpt lat="39.7187094949185848236083984375" lon="-0.3696714341640472412109375">
        <ele>167.1999969482421875</ele>
        <time>2021-09-27T10:24:18.000Z</time>
      </trkpt>
      <trkpt lat="39.71866733394563198089599609375" lon="-0.3696605376899242401123046875">
        <ele>166.8000030517578125</ele>
        <time>2021-09-27T10:24:19.000Z</time>
      </trkpt>
      <trkpt lat="39.718618132174015045166015625" lon="-0.369661040604114532470703125">
        <ele>166.1999969482421875</ele>
        <time>2021-09-27T10:24:20.000Z</time>
      </trkpt>
      <trkpt lat="39.71856415271759033203125" lon="-0.36967210471630096435546875">
        <ele>165.8000030517578125</ele>
        <time>2021-09-27T10:24:21.000Z</time>
      </trkpt>
      <trkpt lat="39.7184473089873790740966796875" lon="-0.369699262082576751708984375">
        <ele>164.8000030517578125</ele>
        <time>2021-09-27T10:24:23.000Z</time>
      </trkpt>
      <trkpt lat="39.718329124152660369873046875" lon="-0.3697235696017742156982421875">
        <ele>163.8000030517578125</ele>
        <time>2021-09-27T10:24:25.000Z</time>
      </trkpt>
      <trkpt lat="39.7182119451463222503662109375" lon="-0.36974854767322540283203125">
        <ele>162.600006103515625</ele>
        <time>2021-09-27T10:24:27.000Z</time>
      </trkpt>
      <trkpt lat="39.71808630041778087615966796875" lon="-0.36977075971662998199462890625">
        <ele>161.600006103515625</ele>
        <time>2021-09-27T10:24:29.000Z</time>
      </trkpt>
      <trkpt lat="39.71794699318706989288330078125" lon="-0.36979573778808116912841796875">
        <ele>160.1999969482421875</ele>
        <time>2021-09-27T10:24:31.000Z</time>
      </trkpt>
      <trkpt lat="39.717790000140666961669921875" lon="-0.3698338754475116729736328125">
        <ele>159.8000030517578125</ele>
        <time>2021-09-27T10:24:33.000Z</time>
      </trkpt>
      <trkpt lat="39.7177009843289852142333984375" lon="-0.36985047161579132080078125">
        <ele>160</ele>
        <time>2021-09-27T10:24:34.000Z</time>
      </trkpt>
      <trkpt lat="39.71761121414601802825927734375" lon="-0.36987016908824443817138671875">
        <ele>160.399993896484375</ele>
        <time>2021-09-27T10:24:35.000Z</time>
      </trkpt>
      <trkpt lat="39.71752856858074665069580078125" lon="-0.3698955662548542022705078125">
        <ele>161.1999969482421875</ele>
        <time>2021-09-27T10:24:36.000Z</time>
      </trkpt>
      <trkpt lat="39.7174565680325031280517578125" lon="-0.369933284819126129150390625">
        <ele>161.8000030517578125</ele>
        <time>2021-09-27T10:24:37.000Z</time>
      </trkpt>
      <trkpt lat="39.7173975594341754913330078125" lon="-0.3699857555329799652099609375">
        <ele>162.399993896484375</ele>
        <time>2021-09-27T10:24:38.000Z</time>
      </trkpt>
      <trkpt lat="39.717352800071239471435546875" lon="-0.3700496256351470947265625">
        <ele>162.8000030517578125</ele>
        <time>2021-09-27T10:24:39.000Z</time>
      </trkpt>
      <trkpt lat="39.7173264808952808380126953125" lon="-0.37013118155300617218017578125">
        <ele>163.1999969482421875</ele>
        <time>2021-09-27T10:24:40.000Z</time>
      </trkpt>
      <trkpt lat="39.71731566824018955230712890625" lon="-0.3702184371650218963623046875">
        <ele>163.600006103515625</ele>
        <time>2021-09-27T10:24:41.000Z</time>
      </trkpt>
      <trkpt lat="39.7173087112605571746826171875" lon="-0.3702935390174388885498046875">
        <ele>164.1999969482421875</ele>
        <time>2021-09-27T10:24:42.000Z</time>
      </trkpt>
      <trkpt lat="39.717287085950374603271484375" lon="-0.37034173496067523956298828125">
        <ele>164.600006103515625</ele>
        <time>2021-09-27T10:24:43.000Z</time>
      </trkpt>
      <trkpt lat="39.71724894829094409942626953125" lon="-0.3703646175563335418701171875">
        <ele>165</ele>
        <time>2021-09-27T10:24:44.000Z</time>
      </trkpt>
      <trkpt lat="39.7171957232058048248291015625" lon="-0.3703607618808746337890625">
        <ele>164.8000030517578125</ele>
        <time>2021-09-27T10:24:45.000Z</time>
      </trkpt>
      <trkpt lat="39.7171363793313503265380859375" lon="-0.370335616171360015869140625">
        <ele>165</ele>
        <time>2021-09-27T10:24:46.000Z</time>
      </trkpt>
      <trkpt lat="39.717083908617496490478515625" lon="-0.37030150182545185089111328125">
        <ele>165.399993896484375</ele>
        <time>2021-09-27T10:24:47.000Z</time>
      </trkpt>
      <trkpt lat="39.71704401075839996337890625" lon="-0.37026177160441875457763671875">
        <ele>165.600006103515625</ele>
        <time>2021-09-27T10:24:48.000Z</time>
      </trkpt>
      <trkpt lat="39.71701241098344326019287109375" lon="-0.37022103555500507354736328125">
        <ele>166.1999969482421875</ele>
        <time>2021-09-27T10:24:49.000Z</time>
      </trkpt>
      <trkpt lat="39.71696027554571628570556640625" lon="-0.37014610134065151214599609375">
        <ele>167</ele>
        <time>2021-09-27T10:24:51.000Z</time>
      </trkpt>
      <trkpt lat="39.716910235583782196044921875" lon="-0.37008918821811676025390625">
        <ele>168</ele>
        <time>2021-09-27T10:24:53.000Z</time>
      </trkpt>
      <trkpt lat="39.716866314411163330078125" lon="-0.37002875469624996185302734375">
        <ele>168.8000030517578125</ele>
        <time>2021-09-27T10:24:55.000Z</time>
      </trkpt>
      <trkpt lat="39.7168218903243541717529296875" lon="-0.3699716739356517791748046875">
        <ele>169.600006103515625</ele>
        <time>2021-09-27T10:24:57.000Z</time>
      </trkpt>
      <trkpt lat="39.71678408794105052947998046875" lon="-0.36991526372730731964111328125">
        <ele>170.1999969482421875</ele>
        <time>2021-09-27T10:24:59.000Z</time>
      </trkpt>
      <trkpt lat="39.716756679117679595947265625" lon="-0.369862876832485198974609375">
        <ele>170.8000030517578125</ele>
        <time>2021-09-27T10:25:01.000Z</time>
      </trkpt>
      <trkpt lat="39.7167337127029895782470703125" lon="-0.36980764009058475494384765625">
        <ele>171.600006103515625</ele>
        <time>2021-09-27T10:25:03.000Z</time>
      </trkpt>
      <trkpt lat="39.71670479513704776763916015625" lon="-0.36974695511162281036376953125">
        <ele>172.399993896484375</ele>
        <time>2021-09-27T10:25:05.000Z</time>
      </trkpt>
      <trkpt lat="39.716679565608501434326171875" lon="-0.369695238769054412841796875">
        <ele>173</ele>
        <time>2021-09-27T10:25:07.000Z</time>
      </trkpt>
      <trkpt lat="39.7166636399924755096435546875" lon="-0.369627177715301513671875">
        <ele>173.399993896484375</ele>
        <time>2021-09-27T10:25:09.000Z</time>
      </trkpt>
      <trkpt lat="39.71665131859481334686279296875" lon="-0.369562804698944091796875">
        <ele>173.600006103515625</ele>
        <time>2021-09-27T10:25:11.000Z</time>
      </trkpt>
      <trkpt lat="39.7166401706635951995849609375" lon="-0.369527600705623626708984375">
        <ele>173.8000030517578125</ele>
        <time>2021-09-27T10:25:12.000Z</time>
      </trkpt>
      <trkpt lat="39.716627933084964752197265625" lon="-0.3694932349026203155517578125">
        <ele>174.1999969482421875</ele>
        <time>2021-09-27T10:25:13.000Z</time>
      </trkpt>
      <trkpt lat="39.716606475412845611572265625" lon="-0.36942659877240657806396484375">
        <ele>174.600006103515625</ele>
        <time>2021-09-27T10:25:15.000Z</time>
      </trkpt>
      <trkpt lat="39.716588370501995086669921875" lon="-0.3693554364144802093505859375">
        <ele>174.8000030517578125</ele>
        <time>2021-09-27T10:25:17.000Z</time>
      </trkpt>
      <trkpt lat="39.7165768034756183624267578125" lon="-0.36928192712366580963134765625">
        <ele>175</ele>
        <time>2021-09-27T10:25:19.000Z</time>
      </trkpt>
      <trkpt lat="39.7165677510201930999755859375" lon="-0.36920632235705852508544921875">
        <ele>174.399993896484375</ele>
        <time>2021-09-27T10:25:21.000Z</time>
      </trkpt>
      <trkpt lat="39.71656464971601963043212890625" lon="-0.36912635900080204010009765625">
        <ele>173.600006103515625</ele>
        <time>2021-09-27T10:25:23.000Z</time>
      </trkpt>
      <trkpt lat="39.71657001413404941558837890625" lon="-0.36903700791299343109130859375">
        <ele>172.600006103515625</ele>
        <time>2021-09-27T10:25:25.000Z</time>
      </trkpt>
      <trkpt lat="39.7165737859904766082763671875" lon="-0.36894363351166248321533203125">
        <ele>171.600006103515625</ele>
        <time>2021-09-27T10:25:27.000Z</time>
      </trkpt>
      <trkpt lat="39.7165855206549167633056640625" lon="-0.368822515010833740234375">
        <ele>170</ele>
        <time>2021-09-27T10:25:29.000Z</time>
      </trkpt>
      <trkpt lat="39.71660144627094268798828125" lon="-0.36875705234706401824951171875">
        <ele>169.600006103515625</ele>
        <time>2021-09-27T10:25:30.000Z</time>
      </trkpt>
      <trkpt lat="39.716625250875949859619140625" lon="-0.36868647672235965728759765625">
        <ele>169.1999969482421875</ele>
        <time>2021-09-27T10:25:31.000Z</time>
      </trkpt>
      <trkpt lat="39.71669473685324192047119140625" lon="-0.36853627301752567291259765625">
        <ele>167.8000030517578125</ele>
        <time>2021-09-27T10:25:33.000Z</time>
      </trkpt>
      <trkpt lat="39.716741256415843963623046875" lon="-0.3684555552899837493896484375">
        <ele>167</ele>
        <time>2021-09-27T10:25:34.000Z</time>
      </trkpt>
      <trkpt lat="39.71679364331066608428955078125" lon="-0.368374921381473541259765625">
        <ele>166.1999969482421875</ele>
        <time>2021-09-27T10:25:35.000Z</time>
      </trkpt>
      <trkpt lat="39.7169000096619129180908203125" lon="-0.3682203590869903564453125">
        <ele>164.399993896484375</ele>
        <time>2021-09-27T10:25:37.000Z</time>
      </trkpt>
      <trkpt lat="39.7169811464846134185791015625" lon="-0.368073172867298126220703125">
        <ele>163</ele>
        <time>2021-09-27T10:25:39.000Z</time>
      </trkpt>
      <trkpt lat="39.71701861359179019927978515625" lon="-0.36790628917515277862548828125">
        <ele>162</ele>
        <time>2021-09-27T10:25:41.000Z</time>
      </trkpt>
      <trkpt lat="39.717014841735363006591796875" lon="-0.36781241185963153839111328125">
        <ele>161.8000030517578125</ele>
        <time>2021-09-27T10:25:42.000Z</time>
      </trkpt>
      <trkpt lat="39.71700034104287624359130859375" lon="-0.36771945655345916748046875">
        <ele>161.600006103515625</ele>
        <time>2021-09-27T10:25:43.000Z</time>
      </trkpt>
      <trkpt lat="39.71695809625089168548583984375" lon="-0.36753094755113124847412109375">
        <ele>161.399993896484375</ele>
        <time>2021-09-27T10:25:45.000Z</time>
      </trkpt>
      <trkpt lat="39.71689959056675434112548828125" lon="-0.36734998226165771484375">
        <ele>161.399993896484375</ele>
        <time>2021-09-27T10:25:47.000Z</time>
      </trkpt>
      <trkpt lat="39.71680923365056514739990234375" lon="-0.36720992065966129302978515625">
        <ele>160.8000030517578125</ele>
        <time>2021-09-27T10:25:49.000Z</time>
      </trkpt>
      <trkpt lat="39.7167474590241909027099609375" lon="-0.3671526722609996795654296875">
        <ele>160.399993896484375</ele>
        <time>2021-09-27T10:25:50.000Z</time>
      </trkpt>
      <trkpt lat="39.7166760452091693878173828125" lon="-0.36710120737552642822265625">
        <ele>160.1999969482421875</ele>
        <time>2021-09-27T10:25:51.000Z</time>
      </trkpt>
      <trkpt lat="39.71652274020016193389892578125" lon="-0.36701076664030551910400390625">
        <ele>159.8000030517578125</ele>
        <time>2021-09-27T10:25:53.000Z</time>
      </trkpt>
      <trkpt lat="39.71636231057345867156982421875" lon="-0.3669248521327972412109375">
        <ele>159.399993896484375</ele>
        <time>2021-09-27T10:25:55.000Z</time>
      </trkpt>
      <trkpt lat="39.71628385595977306365966796875" lon="-0.36689409054815769195556640625">
        <ele>159.399993896484375</ele>
        <time>2021-09-27T10:25:56.000Z</time>
      </trkpt>
      <trkpt lat="39.7162078320980072021484375" lon="-0.36688302643597126007080078125">
        <ele>159.399993896484375</ele>
        <time>2021-09-27T10:25:57.000Z</time>
      </trkpt>
      <trkpt lat="39.716133065521717071533203125" lon="-0.366891659796237945556640625">
        <ele>160</ele>
        <time>2021-09-27T10:25:58.000Z</time>
      </trkpt>
      <trkpt lat="39.71606240607798099517822265625" lon="-0.366923511028289794921875">
        <ele>160.600006103515625</ele>
        <time>2021-09-27T10:25:59.000Z</time>
      </trkpt>
      <trkpt lat="39.71599702723324298858642578125" lon="-0.36696801893413066864013671875">
        <ele>161.1999969482421875</ele>
        <time>2021-09-27T10:26:00.000Z</time>
      </trkpt>
      <trkpt lat="39.71593466587364673614501953125" lon="-0.36701671779155731201171875">
        <ele>161.8000030517578125</ele>
        <time>2021-09-27T10:26:01.000Z</time>
      </trkpt>
      <trkpt lat="39.71587431617081165313720703125" lon="-0.36706089042127132415771484375">
        <ele>162.399993896484375</ele>
        <time>2021-09-27T10:26:02.000Z</time>
      </trkpt>
      <trkpt lat="39.71581346355378627777099609375" lon="-0.36709374748170375823974609375">
        <ele>163</ele>
        <time>2021-09-27T10:26:03.000Z</time>
      </trkpt>
      <trkpt lat="39.71575328148901462554931640625" lon="-0.36711537279188632965087890625">
        <ele>163.600006103515625</ele>
        <time>2021-09-27T10:26:04.000Z</time>
      </trkpt>
      <trkpt lat="39.71568957902491092681884765625" lon="-0.367121659219264984130859375">
        <ele>164</ele>
        <time>2021-09-27T10:26:05.000Z</time>
      </trkpt>
      <trkpt lat="39.71562705002725124359130859375" lon="-0.36710816435515880584716796875">
        <ele>164.1999969482421875</ele>
        <time>2021-09-27T10:26:06.000Z</time>
      </trkpt>
      <trkpt lat="39.71557080745697021484375" lon="-0.36707036197185516357421875">
        <ele>164.399993896484375</ele>
        <time>2021-09-27T10:26:07.000Z</time>
      </trkpt>
      <trkpt lat="39.71552730537950992584228515625" lon="-0.36700665950775146484375">
        <ele>164.1999969482421875</ele>
        <time>2021-09-27T10:26:08.000Z</time>
      </trkpt>
      <trkpt lat="39.7155032493174076080322265625" lon="-0.3669253550469875335693359375">
        <ele>164</ele>
        <time>2021-09-27T10:26:09.000Z</time>
      </trkpt>
      <trkpt lat="39.7154978848993778228759765625" lon="-0.36683692596852779388427734375">
        <ele>163.8000030517578125</ele>
        <time>2021-09-27T10:26:10.000Z</time>
      </trkpt>
      <trkpt lat="39.7155092842876911163330078125" lon="-0.36675226874649524688720703125">
        <ele>163.399993896484375</ele>
        <time>2021-09-27T10:26:11.000Z</time>
      </trkpt>
      <trkpt lat="39.71553283743560314178466796875" lon="-0.36666912026703357696533203125">
        <ele>163</ele>
        <time>2021-09-27T10:26:12.000Z</time>
      </trkpt>
      <trkpt lat="39.71556183882057666778564453125" lon="-0.36659133620560169219970703125">
        <ele>162.399993896484375</ele>
        <time>2021-09-27T10:26:13.000Z</time>
      </trkpt>
      <trkpt lat="39.7156165726482868194580078125" lon="-0.366456471383571624755859375">
        <ele>161.399993896484375</ele>
        <time>2021-09-27T10:26:15.000Z</time>
      </trkpt>
      <trkpt lat="39.71563543193042278289794921875" lon="-0.36633007228374481201171875">
        <ele>160.8000030517578125</ele>
        <time>2021-09-27T10:26:17.000Z</time>
      </trkpt>
      <trkpt lat="39.7156204283237457275390625" lon="-0.36626628600060939788818359375">
        <ele>160.8000030517578125</ele>
        <time>2021-09-27T10:26:18.000Z</time>
      </trkpt>
      <trkpt lat="39.7155920974910259246826171875" lon="-0.36620493046939373016357421875">
        <ele>160.8000030517578125</ele>
        <time>2021-09-27T10:26:19.000Z</time>
      </trkpt>
      <trkpt lat="39.71550283022224903106689453125" lon="-0.36609160713851451873779296875">
        <ele>160.600006103515625</ele>
        <time>2021-09-27T10:26:21.000Z</time>
      </trkpt>
      <trkpt lat="39.715401493012905120849609375" lon="-0.3659785352647304534912109375">
        <ele>159.8000030517578125</ele>
        <time>2021-09-27T10:26:23.000Z</time>
      </trkpt>
      <trkpt lat="39.71529814414680004119873046875" lon="-0.36587535403668880462646484375">
        <ele>159.399993896484375</ele>
        <time>2021-09-27T10:26:25.000Z</time>
      </trkpt>
      <trkpt lat="39.71520074643194675445556640625" lon="-0.36577041260898113250732421875">
        <ele>159.1999969482421875</ele>
        <time>2021-09-27T10:26:27.000Z</time>
      </trkpt>
      <trkpt lat="39.71514961682260036468505859375" lon="-0.3657197020947933197021484375">
        <ele>159.1999969482421875</ele>
        <time>2021-09-27T10:26:28.000Z</time>
      </trkpt>
      <trkpt lat="39.7150975652039051055908203125" lon="-0.3656714223325252532958984375">
        <ele>159.600006103515625</ele>
        <time>2021-09-27T10:26:29.000Z</time>
      </trkpt>
      <trkpt lat="39.7150062024593353271484375" lon="-0.36556857638061046600341796875">
        <ele>160.1999969482421875</ele>
        <time>2021-09-27T10:26:31.000Z</time>
      </trkpt>
      <trkpt lat="39.7149178571999073028564453125" lon="-0.36546866409480571746826171875">
        <ele>160.8000030517578125</ele>
        <time>2021-09-27T10:26:33.000Z</time>
      </trkpt>
      <trkpt lat="39.7148729301989078521728515625" lon="-0.365418456494808197021484375">
        <ele>161.1999969482421875</ele>
        <time>2021-09-27T10:26:34.000Z</time>
      </trkpt>
      <trkpt lat="39.71482741646468639373779296875" lon="-0.365368835628032684326171875">
        <ele>161.399993896484375</ele>
        <time>2021-09-27T10:26:35.000Z</time>
      </trkpt>
      <trkpt lat="39.714731611311435699462890625" lon="-0.3652694262564182281494140625">
        <ele>162</ele>
        <time>2021-09-27T10:26:37.000Z</time>
      </trkpt>
      <trkpt lat="39.7146402485668659210205078125" lon="-0.3651711903512477874755859375">
        <ele>162.600006103515625</ele>
        <time>2021-09-27T10:26:39.000Z</time>
      </trkpt>
      <trkpt lat="39.71454276703298091888427734375" lon="-0.36507169716060161590576171875">
        <ele>163.399993896484375</ele>
        <time>2021-09-27T10:26:41.000Z</time>
      </trkpt>
      <trkpt lat="39.71444302238523960113525390625" lon="-0.36496608518064022064208984375">
        <ele>164.399993896484375</ele>
        <time>2021-09-27T10:26:43.000Z</time>
      </trkpt>
      <trkpt lat="39.7143482230603694915771484375" lon="-0.36485259421169757843017578125">
        <ele>165.1999969482421875</ele>
        <time>2021-09-27T10:26:45.000Z</time>
      </trkpt>
      <trkpt lat="39.71425476484000682830810546875" lon="-0.36473407410085201263427734375">
        <ele>165.600006103515625</ele>
        <time>2021-09-27T10:26:47.000Z</time>
      </trkpt>
      <trkpt lat="39.7141577862203121185302734375" lon="-0.36462091840803623199462890625">
        <ele>166.1999969482421875</ele>
        <time>2021-09-27T10:26:49.000Z</time>
      </trkpt>
      <trkpt lat="39.71405862830579280853271484375" lon="-0.3645073436200618743896484375">
        <ele>166.600006103515625</ele>
        <time>2021-09-27T10:26:51.000Z</time>
      </trkpt>
      <trkpt lat="39.71395804546773433685302734375" lon="-0.3643848001956939697265625">
        <ele>166.8000030517578125</ele>
        <time>2021-09-27T10:26:53.000Z</time>
      </trkpt>
      <trkpt lat="39.71385352313518524169921875" lon="-0.3642602451145648956298828125">
        <ele>166.600006103515625</ele>
        <time>2021-09-27T10:26:55.000Z</time>
      </trkpt>
      <trkpt lat="39.71375235356390476226806640625" lon="-0.36411666311323642730712890625">
        <ele>166</ele>
        <time>2021-09-27T10:26:57.000Z</time>
      </trkpt>
      <trkpt lat="39.713702984154224395751953125" lon="-0.36403720267117023468017578125">
        <ele>165.8000030517578125</ele>
        <time>2021-09-27T10:26:58.000Z</time>
      </trkpt>
      <trkpt lat="39.713652692735195159912109375" lon="-0.3639527969062328338623046875">
        <ele>166</ele>
        <time>2021-09-27T10:26:59.000Z</time>
      </trkpt>
      <trkpt lat="39.71354582346975803375244140625" lon="-0.3637794591486454010009765625">
        <ele>165.1999969482421875</ele>
        <time>2021-09-27T10:27:01.000Z</time>
      </trkpt>
      <trkpt lat="39.71343643963336944580078125" lon="-0.36360486410558223724365234375">
        <ele>164.8000030517578125</ele>
        <time>2021-09-27T10:27:03.000Z</time>
      </trkpt>
      <trkpt lat="39.713332168757915496826171875" lon="-0.36341476254165172576904296875">
        <ele>164</ele>
        <time>2021-09-27T10:27:05.000Z</time>
      </trkpt>
      <trkpt lat="39.713237620890140533447265625" lon="-0.36320169456303119659423828125">
        <ele>160.399993896484375</ele>
        <time>2021-09-27T10:27:07.000Z</time>
      </trkpt>
      <trkpt lat="39.71314634196460247039794921875" lon="-0.36297404207289218902587890625">
        <ele>156</ele>
        <time>2021-09-27T10:27:09.000Z</time>
      </trkpt>
      <trkpt lat="39.71310292370617389678955078125" lon="-0.36285937763750553131103515625">
        <ele>155</ele>
        <time>2021-09-27T10:27:10.000Z</time>
      </trkpt>
      <trkpt lat="39.71305950544774532318115234375" lon="-0.3627454675734043121337890625">
        <ele>154.1999969482421875</ele>
        <time>2021-09-27T10:27:11.000Z</time>
      </trkpt>
      <trkpt lat="39.71295154653489589691162109375" lon="-0.3625329025089740753173828125">
        <ele>152.600006103515625</ele>
        <time>2021-09-27T10:27:13.000Z</time>
      </trkpt>
      <trkpt lat="39.712886922061443328857421875" lon="-0.362439863383769989013671875">
        <ele>152</ele>
        <time>2021-09-27T10:27:14.000Z</time>
      </trkpt>
      <trkpt lat="39.712817184627056121826171875" lon="-0.36235897801816463470458984375">
        <ele>151.600006103515625</ele>
        <time>2021-09-27T10:27:15.000Z</time>
      </trkpt>
      <trkpt lat="39.712675027549266815185546875" lon="-0.36220994777977466583251953125">
        <ele>151.399993896484375</ele>
        <time>2021-09-27T10:27:17.000Z</time>
      </trkpt>
      <trkpt lat="39.71260604448616504669189453125" lon="-0.36213953979313373565673828125">
        <ele>151.399993896484375</ele>
        <time>2021-09-27T10:27:18.000Z</time>
      </trkpt>
      <trkpt lat="39.7125390730798244476318359375" lon="-0.3620673716068267822265625">
        <ele>151.399993896484375</ele>
        <time>2021-09-27T10:27:19.000Z</time>
      </trkpt>
      <trkpt lat="39.71247277222573757171630859375" lon="-0.36199470050632953643798828125">
        <ele>151.399993896484375</ele>
        <time>2021-09-27T10:27:20.000Z</time>
      </trkpt>
      <trkpt lat="39.7124073095619678497314453125" lon="-0.361923873424530029296875">
        <ele>151.399993896484375</ele>
        <time>2021-09-27T10:27:21.000Z</time>
      </trkpt>
      <trkpt lat="39.71227378584444522857666015625" lon="-0.3617872484028339385986328125">
        <ele>152.399993896484375</ele>
        <time>2021-09-27T10:27:23.000Z</time>
      </trkpt>
      <trkpt lat="39.71214436925947666168212890625" lon="-0.3616534732282161712646484375">
        <ele>155</ele>
        <time>2021-09-27T10:27:25.000Z</time>
      </trkpt>
      <trkpt lat="39.71202266402542591094970703125" lon="-0.361519195139408111572265625">
        <ele>157.399993896484375</ele>
        <time>2021-09-27T10:27:27.000Z</time>
      </trkpt>
      <trkpt lat="39.7118929959833621978759765625" lon="-0.36139078438282012939453125">
        <ele>160.600006103515625</ele>
        <time>2021-09-27T10:27:29.000Z</time>
      </trkpt>
      <trkpt lat="39.7117739729583263397216796875" lon="-0.36126363091170787811279296875">
        <ele>163</ele>
        <time>2021-09-27T10:27:31.000Z</time>
      </trkpt>
      <trkpt lat="39.711661823093891143798828125" lon="-0.36113387905061244964599609375">
        <ele>164.399993896484375</ele>
        <time>2021-09-27T10:27:33.000Z</time>
      </trkpt>
      <trkpt lat="39.7116066701710224151611328125" lon="-0.36107151769101619720458984375">
        <ele>165</ele>
        <time>2021-09-27T10:27:34.000Z</time>
      </trkpt>
      <trkpt lat="39.7115541994571685791015625" lon="-0.36101686768233776092529296875">
        <ele>165.600006103515625</ele>
        <time>2021-09-27T10:27:35.000Z</time>
      </trkpt>
      <trkpt lat="39.71150667406618595123291015625" lon="-0.36096020601689815521240234375">
        <ele>166.1999969482421875</ele>
        <time>2021-09-27T10:27:36.000Z</time>
      </trkpt>
      <trkpt lat="39.71145831048488616943359375" lon="-0.36089859902858734130859375">
        <ele>167.1999969482421875</ele>
        <time>2021-09-27T10:27:37.000Z</time>
      </trkpt>
      <trkpt lat="39.71136887557804584503173828125" lon="-0.36077898927032947540283203125">
        <ele>168.8000030517578125</ele>
        <time>2021-09-27T10:27:39.000Z</time>
      </trkpt>
      <trkpt lat="39.71125588752329349517822265625" lon="-0.36062442697584629058837890625">
        <ele>170.600006103515625</ele>
        <time>2021-09-27T10:27:41.000Z</time>
      </trkpt>
      <trkpt lat="39.7111708112061023712158203125" lon="-0.36044798791408538818359375">
        <ele>171.399993896484375</ele>
        <time>2021-09-27T10:27:43.000Z</time>
      </trkpt>
      <trkpt lat="39.71111088059842586517333984375" lon="-0.36024673841893672943115234375">
        <ele>170.1999969482421875</ele>
        <time>2021-09-27T10:27:45.000Z</time>
      </trkpt>
      <trkpt lat="39.71109294332563877105712890625" lon="-0.3601494245231151580810546875">
        <ele>169.399993896484375</ele>
        <time>2021-09-27T10:27:46.000Z</time>
      </trkpt>
      <trkpt lat="39.71107886172831058502197265625" lon="-0.360054038465023040771484375">
        <ele>168.600006103515625</ele>
        <time>2021-09-27T10:27:47.000Z</time>
      </trkpt>
      <trkpt lat="39.71104298718273639678955078125" lon="-0.3598706424236297607421875">
        <ele>167.1999969482421875</ele>
        <time>2021-09-27T10:27:49.000Z</time>
      </trkpt>
      <trkpt lat="39.71101214177906513214111328125" lon="-0.3596887551248073577880859375">
        <ele>167.399993896484375</ele>
        <time>2021-09-27T10:27:51.000Z</time>
      </trkpt>
      <trkpt lat="39.71101130358874797821044921875" lon="-0.3594865836203098297119140625">
        <ele>166.8000030517578125</ele>
        <time>2021-09-27T10:27:53.000Z</time>
      </trkpt>
      <trkpt lat="39.71101750619709491729736328125" lon="-0.359286256134510040283203125">
        <ele>166</ele>
        <time>2021-09-27T10:27:55.000Z</time>
      </trkpt>
      <trkpt lat="39.711022786796092987060546875" lon="-0.35909674130380153656005859375">
        <ele>165</ele>
        <time>2021-09-27T10:27:57.000Z</time>
      </trkpt>
      <trkpt lat="39.71102756448090076446533203125" lon="-0.3590096533298492431640625">
        <ele>164.600006103515625</ele>
        <time>2021-09-27T10:27:58.000Z</time>
      </trkpt>
      <trkpt lat="39.71103929914534091949462890625" lon="-0.3589239902794361114501953125">
        <ele>164.1999969482421875</ele>
        <time>2021-09-27T10:27:59.000Z</time>
      </trkpt>
      <trkpt lat="39.7110759280622005462646484375" lon="-0.35875727422535419464111328125">
        <ele>163.399993896484375</ele>
        <time>2021-09-27T10:28:01.000Z</time>
      </trkpt>
      <trkpt lat="39.71110886894166469573974609375" lon="-0.3585867024958133697509765625">
        <ele>163.1999969482421875</ele>
        <time>2021-09-27T10:28:03.000Z</time>
      </trkpt>
      <trkpt lat="39.71113108098506927490234375" lon="-0.35850028507411479949951171875">
        <ele>162.8000030517578125</ele>
        <time>2021-09-27T10:28:04.000Z</time>
      </trkpt>
      <trkpt lat="39.71115865744650363922119140625" lon="-0.35841797478497028350830078125">
        <ele>162.1999969482421875</ele>
        <time>2021-09-27T10:28:05.000Z</time>
      </trkpt>
      <trkpt lat="39.71122336573898792266845703125" lon="-0.35825469531118869781494140625">
        <ele>160.399993896484375</ele>
        <time>2021-09-27T10:28:07.000Z</time>
      </trkpt>
      <trkpt lat="39.7112972103059291839599609375" lon="-0.35809795372188091278076171875">
        <ele>158.1999969482421875</ele>
        <time>2021-09-27T10:28:09.000Z</time>
      </trkpt>
      <trkpt lat="39.71133719198405742645263671875" lon="-0.3580170683562755584716796875">
        <ele>157</ele>
        <time>2021-09-27T10:28:10.000Z</time>
      </trkpt>
      <trkpt lat="39.7113800235092639923095703125" lon="-0.3579369373619556427001953125">
        <ele>155.600006103515625</ele>
        <time>2021-09-27T10:28:11.000Z</time>
      </trkpt>
      <trkpt lat="39.7114692069590091705322265625" lon="-0.3577800281345844268798828125">
        <ele>153.399993896484375</ele>
        <time>2021-09-27T10:28:13.000Z</time>
      </trkpt>
      <trkpt lat="39.71155621111392974853515625" lon="-0.3576258011162281036376953125">
        <ele>151</ele>
        <time>2021-09-27T10:28:15.000Z</time>
      </trkpt>
      <trkpt lat="39.71164246089756488800048828125" lon="-0.3574692271649837493896484375">
        <ele>148.1999969482421875</ele>
        <time>2021-09-27T10:28:17.000Z</time>
      </trkpt>
      <trkpt lat="39.7116824425756931304931640625" lon="-0.35739186219871044158935546875">
        <ele>147</ele>
        <time>2021-09-27T10:28:18.000Z</time>
      </trkpt>
      <trkpt lat="39.71172242425382137298583984375" lon="-0.35731357522308826446533203125">
        <ele>145.600006103515625</ele>
        <time>2021-09-27T10:28:19.000Z</time>
      </trkpt>
      <trkpt lat="39.711797274649143218994140625" lon="-0.35715549252927303314208984375">
        <ele>143.1999969482421875</ele>
        <time>2021-09-27T10:28:21.000Z</time>
      </trkpt>
      <trkpt lat="39.71188302151858806610107421875" lon="-0.356990955770015716552734375">
        <ele>141.600006103515625</ele>
        <time>2021-09-27T10:28:23.000Z</time>
      </trkpt>
      <trkpt lat="39.71192526631057262420654296875" lon="-0.35690453834831714630126953125">
        <ele>140.8000030517578125</ele>
        <time>2021-09-27T10:28:24.000Z</time>
      </trkpt>
      <trkpt lat="39.71196658909320831298828125" lon="-0.35682088695466518402099609375">
        <ele>140</ele>
        <time>2021-09-27T10:28:25.000Z</time>
      </trkpt>
      <trkpt lat="39.712049402296543121337890625" lon="-0.356662385165691375732421875">
        <ele>138.8000030517578125</ele>
        <time>2021-09-27T10:28:27.000Z</time>
      </trkpt>
      <trkpt lat="39.71212483942508697509765625" lon="-0.356488041579723358154296875">
        <ele>139</ele>
        <time>2021-09-27T10:28:29.000Z</time>
      </trkpt>
      <trkpt lat="39.7121585346758365631103515625" lon="-0.35639860667288303375244140625">
        <ele>139.399993896484375</ele>
        <time>2021-09-27T10:28:30.000Z</time>
      </trkpt>
      <trkpt lat="39.71218611113727092742919921875" lon="-0.35631026141345500946044921875">
        <ele>139.600006103515625</ele>
        <time>2021-09-27T10:28:31.000Z</time>
      </trkpt>
      <trkpt lat="39.712237156927585601806640625" lon="-0.35613373853266239166259765625">
        <ele>140.1999969482421875</ele>
        <time>2021-09-27T10:28:33.000Z</time>
      </trkpt>
      <trkpt lat="39.71227772533893585205078125" lon="-0.35595570690929889678955078125">
        <ele>140</ele>
        <time>2021-09-27T10:28:35.000Z</time>
      </trkpt>
      <trkpt lat="39.71229457296431064605712890625" lon="-0.3558661043643951416015625">
        <ele>139.8000030517578125</ele>
        <time>2021-09-27T10:28:36.000Z</time>
      </trkpt>
      <trkpt lat="39.71230697818100452423095703125" lon="-0.35577516071498394012451171875">
        <ele>139.8000030517578125</ele>
        <time>2021-09-27T10:28:37.000Z</time>
      </trkpt>
      <trkpt lat="39.71231938339769840240478515625" lon="-0.35560232587158679962158203125">
        <ele>139.600006103515625</ele>
        <time>2021-09-27T10:28:39.000Z</time>
      </trkpt>
      <trkpt lat="39.71231301315128803253173828125" lon="-0.3555256314575672149658203125">
        <ele>139.600006103515625</ele>
        <time>2021-09-27T10:28:40.000Z</time>
      </trkpt>
      <trkpt lat="39.7122953273355960845947265625" lon="-0.3554582409560680389404296875">
        <ele>139.8000030517578125</ele>
        <time>2021-09-27T10:28:41.000Z</time>
      </trkpt>
      <trkpt lat="39.71225199289619922637939453125" lon="-0.3553479351103305816650390625">
        <ele>139.8000030517578125</ele>
        <time>2021-09-27T10:28:43.000Z</time>
      </trkpt>
      <trkpt lat="39.71222584135830402374267578125" lon="-0.35523201338946819305419921875">
        <ele>140</ele>
        <time>2021-09-27T10:28:45.000Z</time>
      </trkpt>
      <trkpt lat="39.71220606006681919097900390625" lon="-0.35509874112904071807861328125">
        <ele>140.1999969482421875</ele>
        <time>2021-09-27T10:28:47.000Z</time>
      </trkpt>
      <trkpt lat="39.7121957503259181976318359375" lon="-0.35502783022820949554443359375">
        <ele>140.1999969482421875</ele>
        <time>2021-09-27T10:28:48.000Z</time>
      </trkpt>
      <trkpt lat="39.712183177471160888671875" lon="-0.3549553267657756805419921875">
        <ele>140.399993896484375</ele>
        <time>2021-09-27T10:28:49.000Z</time>
      </trkpt>
      <trkpt lat="39.7121638990938663482666015625" lon="-0.3548839129507541656494140625">
        <ele>140.600006103515625</ele>
        <time>2021-09-27T10:28:50.000Z</time>
      </trkpt>
      <trkpt lat="39.71214101649820804595947265625" lon="-0.3548192046582698822021484375">
        <ele>140.8000030517578125</ele>
        <time>2021-09-27T10:28:51.000Z</time>
      </trkpt>
      <trkpt lat="39.71211385913193225860595703125" lon="-0.354758687317371368408203125">
        <ele>141.1999969482421875</ele>
        <time>2021-09-27T10:28:52.000Z</time>
      </trkpt>
      <trkpt lat="39.71208351664245128631591796875" lon="-0.354709066450595855712890625">
        <ele>141.399993896484375</ele>
        <time>2021-09-27T10:28:53.000Z</time>
      </trkpt>
      <trkpt lat="39.71205216832458972930908203125" lon="-0.35466841422021389007568359375">
        <ele>141.8000030517578125</ele>
        <time>2021-09-27T10:28:54.000Z</time>
      </trkpt>
      <trkpt lat="39.71202031709253787994384765625" lon="-0.35463027656078338623046875">
        <ele>142</ele>
        <time>2021-09-27T10:28:55.000Z</time>
      </trkpt>
      <trkpt lat="39.71198947168886661529541015625" lon="-0.35458409227430820465087890625">
        <ele>141.8000030517578125</ele>
        <time>2021-09-27T10:28:56.000Z</time>
      </trkpt>
      <trkpt lat="39.7119573689997196197509765625" lon="-0.3545303642749786376953125">
        <ele>141.600006103515625</ele>
        <time>2021-09-27T10:28:57.000Z</time>
      </trkpt>
      <trkpt lat="39.71192191354930400848388671875" lon="-0.35447713918983936309814453125">
        <ele>141.399993896484375</ele>
        <time>2021-09-27T10:28:58.000Z</time>
      </trkpt>
      <trkpt lat="39.7118846140801906585693359375" lon="-0.35442818887531757354736328125">
        <ele>141.1999969482421875</ele>
        <time>2021-09-27T10:28:59.000Z</time>
      </trkpt>
      <trkpt lat="39.7118111886084079742431640625" lon="-0.35432743839919567108154296875">
        <ele>140.8000030517578125</ele>
        <time>2021-09-27T10:29:01.000Z</time>
      </trkpt>
      <trkpt lat="39.7117365896701812744140625" lon="-0.35422769375145435333251953125">
        <ele>140.399993896484375</ele>
        <time>2021-09-27T10:29:03.000Z</time>
      </trkpt>
      <trkpt lat="39.71169845201075077056884765625" lon="-0.3541808389127254486083984375">
        <ele>140.1999969482421875</ele>
        <time>2021-09-27T10:29:04.000Z</time>
      </trkpt>
      <trkpt lat="39.71166081726551055908203125" lon="-0.35413113422691822052001953125">
        <ele>140</ele>
        <time>2021-09-27T10:29:05.000Z</time>
      </trkpt>
      <trkpt lat="39.71158680506050586700439453125" lon="-0.35403004847466945648193359375">
        <ele>139.399993896484375</ele>
        <time>2021-09-27T10:29:07.000Z</time>
      </trkpt>
      <trkpt lat="39.71150516532361507415771484375" lon="-0.3539307229220867156982421875">
        <ele>139</ele>
        <time>2021-09-27T10:29:09.000Z</time>
      </trkpt>
      <trkpt lat="39.71145940013229846954345703125" lon="-0.35388386808335781097412109375">
        <ele>138.8000030517578125</ele>
        <time>2021-09-27T10:29:10.000Z</time>
      </trkpt>
      <trkpt lat="39.71141195856034755706787109375" lon="-0.35384313203394412994384765625">
        <ele>138.600006103515625</ele>
        <time>2021-09-27T10:29:11.000Z</time>
      </trkpt>
      <trkpt lat="39.71131104044616222381591796875" lon="-0.3537691198289394378662109375">
        <ele>138.399993896484375</ele>
        <time>2021-09-27T10:29:13.000Z</time>
      </trkpt>
      <trkpt lat="39.71120215952396392822265625" lon="-0.35370700992643833160400390625">
        <ele>138.1999969482421875</ele>
        <time>2021-09-27T10:29:15.000Z</time>
      </trkpt>
      <trkpt lat="39.71109042875468730926513671875" lon="-0.3536433912813663482666015625">
        <ele>137.8000030517578125</ele>
        <time>2021-09-27T10:29:17.000Z</time>
      </trkpt>
      <trkpt lat="39.71097878180444240570068359375" lon="-0.35357214510440826416015625">
        <ele>137.1999969482421875</ele>
        <time>2021-09-27T10:29:19.000Z</time>
      </trkpt>
      <trkpt lat="39.71086780540645122528076171875" lon="-0.35350416786968708038330078125">
        <ele>136.8000030517578125</ele>
        <time>2021-09-27T10:29:21.000Z</time>
      </trkpt>
      <trkpt lat="39.71075984649360179901123046875" lon="-0.35344884730875492095947265625">
        <ele>136.600006103515625</ele>
        <time>2021-09-27T10:29:23.000Z</time>
      </trkpt>
      <trkpt lat="39.7107066214084625244140625" lon="-0.35342705436050891876220703125">
        <ele>136.399993896484375</ele>
        <time>2021-09-27T10:29:24.000Z</time>
      </trkpt>
      <trkpt lat="39.71065456978976726531982421875" lon="-0.35340526141226291656494140625">
        <ele>136.600006103515625</ele>
        <time>2021-09-27T10:29:25.000Z</time>
      </trkpt>
      <trkpt lat="39.71058852039277553558349609375" lon="-0.35337776876986026763916015625">
        <ele>136.600006103515625</ele>
        <time>2021-09-27T10:29:27.000Z</time>
      </trkpt>
      <trkpt lat="39.71055574715137481689453125" lon="-0.3533647768199443817138671875">
        <ele>136.600006103515625</ele>
        <time>2021-09-27T10:29:29.000Z</time>
      </trkpt>
      <trkpt lat="39.71053554676473140716552734375" lon="-0.3533061034977436065673828125">
        <ele>136.399993896484375</ele>
        <time>2021-09-27T10:29:31.000Z</time>
      </trkpt>
      <trkpt lat="39.710530936717987060546875" lon="-0.35325069911777973175048828125">
        <ele>136</ele>
        <time>2021-09-27T10:29:32.000Z</time>
      </trkpt>
      <trkpt lat="39.71053294837474822998046875" lon="-0.35318515263497829437255859375">
        <ele>135.600006103515625</ele>
        <time>2021-09-27T10:29:33.000Z</time>
      </trkpt>
      <trkpt lat="39.7105341218411922454833984375" lon="-0.353115499019622802734375">
        <ele>135.1999969482421875</ele>
        <time>2021-09-27T10:29:34.000Z</time>
      </trkpt>
      <trkpt lat="39.71053336746990680694580078125" lon="-0.353035032749176025390625">
        <ele>134.8000030517578125</ele>
        <time>2021-09-27T10:29:35.000Z</time>
      </trkpt>
      <trkpt lat="39.7105213813483715057373046875" lon="-0.35286278463900089263916015625">
        <ele>133.600006103515625</ele>
        <time>2021-09-27T10:29:37.000Z</time>
      </trkpt>
      <trkpt lat="39.7105161845684051513671875" lon="-0.35277527756989002227783203125">
        <ele>133.1999969482421875</ele>
        <time>2021-09-27T10:29:38.000Z</time>
      </trkpt>
      <trkpt lat="39.71052087843418121337890625" lon="-0.35268425010144710540771484375">
        <ele>132.600006103515625</ele>
        <time>2021-09-27T10:29:39.000Z</time>
      </trkpt>
      <trkpt lat="39.7105751931667327880859375" lon="-0.35250085406005382537841796875">
        <ele>131.399993896484375</ele>
        <time>2021-09-27T10:29:41.000Z</time>
      </trkpt>
      <trkpt lat="39.7106165997684001922607421875" lon="-0.35242072306573390960693359375">
        <ele>130.8000030517578125</ele>
        <time>2021-09-27T10:29:42.000Z</time>
      </trkpt>
      <trkpt lat="39.71065842546522617340087890625" lon="-0.3523559309542179107666015625">
        <ele>130.1999969482421875</ele>
        <time>2021-09-27T10:29:43.000Z</time>
      </trkpt>
      <trkpt lat="39.7106920368969440460205078125" lon="-0.35223883576691150665283203125">
        <ele>129.600006103515625</ele>
        <time>2021-09-27T10:29:45.000Z</time>
      </trkpt>
      <trkpt lat="39.7106554917991161346435546875" lon="-0.352133810520172119140625">
        <ele>129.1999969482421875</ele>
        <time>2021-09-27T10:29:47.000Z</time>
      </trkpt>
      <trkpt lat="39.71061877906322479248046875" lon="-0.3520897217094898223876953125">
        <ele>129.1999969482421875</ele>
        <time>2021-09-27T10:29:48.000Z</time>
      </trkpt>
      <trkpt lat="39.71057452261447906494140625" lon="-0.3520488180220127105712890625">
        <ele>129</ele>
        <time>2021-09-27T10:29:49.000Z</time>
      </trkpt>
      <trkpt lat="39.71047167666256427764892578125" lon="-0.35197530873119831085205078125">
        <ele>129.1999969482421875</ele>
        <time>2021-09-27T10:29:51.000Z</time>
      </trkpt>
      <trkpt lat="39.710415266454219818115234375" lon="-0.351939015090465545654296875">
        <ele>129.1999969482421875</ele>
        <time>2021-09-27T10:29:52.000Z</time>
      </trkpt>
      <trkpt lat="39.71035852096974849700927734375" lon="-0.351902134716510772705078125">
        <ele>129.399993896484375</ele>
        <time>2021-09-27T10:29:53.000Z</time>
      </trkpt>
      <trkpt lat="39.7102575190365314483642578125" lon="-0.35182074643671512603759765625">
        <ele>129.600006103515625</ele>
        <time>2021-09-27T10:29:55.000Z</time>
      </trkpt>
      <trkpt lat="39.71018518321216106414794921875" lon="-0.35170666873455047607421875">
        <ele>129.399993896484375</ele>
        <time>2021-09-27T10:29:57.000Z</time>
      </trkpt>
      <trkpt lat="39.7101299464702606201171875" lon="-0.35156493075191974639892578125">
        <ele>128.8000030517578125</ele>
        <time>2021-09-27T10:29:59.000Z</time>
      </trkpt>
      <trkpt lat="39.7101022861897945404052734375" lon="-0.351490080356597900390625">
        <ele>128.399993896484375</ele>
        <time>2021-09-27T10:30:00.000Z</time>
      </trkpt>
      <trkpt lat="39.71007688902318477630615234375" lon="-0.3514168225228786468505859375">
        <ele>127.8000030517578125</ele>
        <time>2021-09-27T10:30:01.000Z</time>
      </trkpt>
      <trkpt lat="39.71005107276141643524169921875" lon="-0.35134448669850826263427734375">
        <ele>127.1999969482421875</ele>
        <time>2021-09-27T10:30:02.000Z</time>
      </trkpt>
      <trkpt lat="39.71002735197544097900390625" lon="-0.3512739948928356170654296875">
        <ele>126.8000030517578125</ele>
        <time>2021-09-27T10:30:03.000Z</time>
      </trkpt>
      <trkpt lat="39.70998938195407390594482421875" lon="-0.35116461105644702911376953125">
        <ele>126.40000152587890625</ele>
        <time>2021-09-27T10:30:05.000Z</time>
      </trkpt>
      <trkpt lat="39.70997630618512630462646484375" lon="-0.35113460384309291839599609375">
        <ele>126.40000152587890625</ele>
        <time>2021-09-27T10:30:06.000Z</time>
      </trkpt>
      <trkpt lat="39.70996725372970104217529296875" lon="-0.35111096687614917755126953125">
        <ele>126.1999969482421875</ele>
        <time>2021-09-27T10:30:07.000Z</time>
      </trkpt>
      <trkpt lat="39.70995987765491008758544921875" lon="-0.351089425384998321533203125">
        <ele>126.1999969482421875</ele>
        <time>2021-09-27T10:30:08.000Z</time>
      </trkpt>
      <trkpt lat="39.7099473886191844940185546875" lon="-0.35107123665511608123779296875">
        <ele>126.1999969482421875</ele>
        <time>2021-09-27T10:30:09.000Z</time>
      </trkpt>
      <trkpt lat="39.7099341452121734619140625" lon="-0.351048521697521209716796875">
        <ele>126</ele>
        <time>2021-09-27T10:30:10.000Z</time>
      </trkpt>
      <trkpt lat="39.70991277135908603668212890625" lon="-0.3510332666337490081787109375">
        <ele>126</ele>
        <time>2021-09-27T10:30:11.000Z</time>
      </trkpt>
      <trkpt lat="39.709864743053913116455078125" lon="-0.35104357637465000152587890625">
        <ele>126.40000152587890625</ele>
        <time>2021-09-27T10:30:13.000Z</time>
      </trkpt>
      <trkpt lat="39.70983984880149364471435546875" lon="-0.35108037292957305908203125">
        <ele>126.8000030517578125</ele>
        <time>2021-09-27T10:30:15.000Z</time>
      </trkpt>
      <trkpt lat="39.709816463291645050048828125" lon="-0.35113728605210781097412109375">
        <ele>127.1999969482421875</ele>
        <time>2021-09-27T10:30:17.000Z</time>
      </trkpt>
      <trkpt lat="39.709798358380794525146484375" lon="-0.3511641919612884521484375">
        <ele>127.59999847412109375</ele>
        <time>2021-09-27T10:30:18.000Z</time>
      </trkpt>
      <trkpt lat="39.709776900708675384521484375" lon="-0.35119210369884967803955078125">
        <ele>127.8000030517578125</ele>
        <time>2021-09-27T10:30:19.000Z</time>
      </trkpt>
      <trkpt lat="39.7097504138946533203125" lon="-0.3512243740260601043701171875">
        <ele>128.1999969482421875</ele>
        <time>2021-09-27T10:30:20.000Z</time>
      </trkpt>
      <trkpt lat="39.70971646718680858612060546875" lon="-0.35124205984175205230712890625">
        <ele>128.600006103515625</ele>
        <time>2021-09-27T10:30:21.000Z</time>
      </trkpt>
      <trkpt lat="39.70967673696577548980712890625" lon="-0.35124138928949832916259765625">
        <ele>128.8000030517578125</ele>
        <time>2021-09-27T10:30:22.000Z</time>
      </trkpt>
      <trkpt lat="39.70963633619248867034912109375" lon="-0.35122797824442386627197265625">
        <ele>129</ele>
        <time>2021-09-27T10:30:23.000Z</time>
      </trkpt>
      <trkpt lat="39.7095494158565998077392578125" lon="-0.35118766129016876220703125">
        <ele>128.600006103515625</ele>
        <time>2021-09-27T10:30:25.000Z</time>
      </trkpt>
      <trkpt lat="39.70950373448431491851806640625" lon="-0.35116444341838359832763671875">
        <ele>128.8000030517578125</ele>
        <time>2021-09-27T10:30:26.000Z</time>
      </trkpt>
      <trkpt lat="39.70945947803556919097900390625" lon="-0.351137034595012664794921875">
        <ele>129</ele>
        <time>2021-09-27T10:30:27.000Z</time>
      </trkpt>
      <trkpt lat="39.7093717195093631744384765625" lon="-0.35107173956930637359619140625">
        <ele>129.600006103515625</ele>
        <time>2021-09-27T10:30:29.000Z</time>
      </trkpt>
      <trkpt lat="39.70927901566028594970703125" lon="-0.35100392997264862060546875">
        <ele>130</ele>
        <time>2021-09-27T10:30:31.000Z</time>
      </trkpt>
      <trkpt lat="39.709178768098354339599609375" lon="-0.35093695856630802154541015625">
        <ele>130.600006103515625</ele>
        <time>2021-09-27T10:30:33.000Z</time>
      </trkpt>
      <trkpt lat="39.7091276384890079498291015625" lon="-0.3509038500487804412841796875">
        <ele>131</ele>
        <time>2021-09-27T10:30:34.000Z</time>
      </trkpt>
      <trkpt lat="39.70907357521355152130126953125" lon="-0.350866802036762237548828125">
        <ele>130.8000030517578125</ele>
        <time>2021-09-27T10:30:35.000Z</time>
      </trkpt>
      <trkpt lat="39.70896393992006778717041015625" lon="-0.3507888503372669219970703125">
        <ele>130.1999969482421875</ele>
        <time>2021-09-27T10:30:37.000Z</time>
      </trkpt>
      <trkpt lat="39.70885078422725200653076171875" lon="-0.35070494748651981353759765625">
        <ele>129.399993896484375</ele>
        <time>2021-09-27T10:30:39.000Z</time>
      </trkpt>
      <trkpt lat="39.70880091190338134765625" lon="-0.350657589733600616455078125">
        <ele>128.8000030517578125</ele>
        <time>2021-09-27T10:30:40.000Z</time>
      </trkpt>
      <trkpt lat="39.7087501175701618194580078125" lon="-0.35060855560004711151123046875">
        <ele>128.1999969482421875</ele>
        <time>2021-09-27T10:30:41.000Z</time>
      </trkpt>
      <trkpt lat="39.70862799324095249176025390625" lon="-0.3505218029022216796875">
        <ele>128.1999969482421875</ele>
        <time>2021-09-27T10:30:43.000Z</time>
      </trkpt>
      <trkpt lat="39.7085006721317768096923828125" lon="-0.350446365773677825927734375">
        <ele>128.8000030517578125</ele>
        <time>2021-09-27T10:30:45.000Z</time>
      </trkpt>
      <trkpt lat="39.708374105393886566162109375" lon="-0.3503650613129138946533203125">
        <ele>129.8000030517578125</ele>
        <time>2021-09-27T10:30:47.000Z</time>
      </trkpt>
      <trkpt lat="39.7082416713237762451171875" lon="-0.35028484649956226348876953125">
        <ele>130.8000030517578125</ele>
        <time>2021-09-27T10:30:49.000Z</time>
      </trkpt>
      <trkpt lat="39.7081060521304607391357421875" lon="-0.35020572133362293243408203125">
        <ele>131.8000030517578125</ele>
        <time>2021-09-27T10:30:51.000Z</time>
      </trkpt>
      <trkpt lat="39.70797051675617694854736328125" lon="-0.35013564862310886383056640625">
        <ele>130.8000030517578125</ele>
        <time>2021-09-27T10:30:53.000Z</time>
      </trkpt>
      <trkpt lat="39.70783322118222713470458984375" lon="-0.3500750474631786346435546875">
        <ele>129.600006103515625</ele>
        <time>2021-09-27T10:30:55.000Z</time>
      </trkpt>
      <trkpt lat="39.7076923213899135589599609375" lon="-0.35001679323613643646240234375">
        <ele>126.8000030517578125</ele>
        <time>2021-09-27T10:30:57.000Z</time>
      </trkpt>
      <trkpt lat="39.70755812712013721466064453125" lon="-0.3499771468341350555419921875">
        <ele>124.59999847412109375</ele>
        <time>2021-09-27T10:30:59.000Z</time>
      </trkpt>
      <trkpt lat="39.70742829144001007080078125" lon="-0.349945463240146636962890625">
        <ele>124.1999969482421875</ele>
        <time>2021-09-27T10:31:01.000Z</time>
      </trkpt>
      <trkpt lat="39.70730717293918132781982421875" lon="-0.3499142825603485107421875">
        <ele>124</ele>
        <time>2021-09-27T10:31:03.000Z</time>
      </trkpt>
      <trkpt lat="39.70719602890312671661376953125" lon="-0.34988603554666042327880859375">
        <ele>123.8000030517578125</ele>
        <time>2021-09-27T10:31:05.000Z</time>
      </trkpt>
      <trkpt lat="39.7070891596376895904541015625" lon="-0.3498611412942409515380859375">
        <ele>123.59999847412109375</ele>
        <time>2021-09-27T10:31:07.000Z</time>
      </trkpt>
      <trkpt lat="39.70698681659996509552001953125" lon="-0.34983448684215545654296875">
        <ele>123.59999847412109375</ele>
        <time>2021-09-27T10:31:09.000Z</time>
      </trkpt>
      <trkpt lat="39.70688941888511180877685546875" lon="-0.3498069941997528076171875">
        <ele>123.59999847412109375</ele>
        <time>2021-09-27T10:31:11.000Z</time>
      </trkpt>
      <trkpt lat="39.70678900368511676788330078125" lon="-0.3497699461877346038818359375">
        <ele>123.40000152587890625</ele>
        <time>2021-09-27T10:31:13.000Z</time>
      </trkpt>
      <trkpt lat="39.70673552714288234710693359375" lon="-0.34975343383848667144775390625">
        <ele>123.40000152587890625</ele>
        <time>2021-09-27T10:31:14.000Z</time>
      </trkpt>
      <trkpt lat="39.70668255351483821868896484375" lon="-0.349738262593746185302734375">
        <ele>123.1999969482421875</ele>
        <time>2021-09-27T10:31:15.000Z</time>
      </trkpt>
      <trkpt lat="39.70657266676425933837890625" lon="-0.3497018851339817047119140625">
        <ele>123</ele>
        <time>2021-09-27T10:31:17.000Z</time>
      </trkpt>
      <trkpt lat="39.7064633667469024658203125" lon="-0.3496599756181240081787109375">
        <ele>122.59999847412109375</ele>
        <time>2021-09-27T10:31:19.000Z</time>
      </trkpt>
      <trkpt lat="39.70635716803371906280517578125" lon="-0.34960960038006305694580078125">
        <ele>122.40000152587890625</ele>
        <time>2021-09-27T10:31:21.000Z</time>
      </trkpt>
      <trkpt lat="39.70624920912086963653564453125" lon="-0.34955461509525775909423828125">
        <ele>122.1999969482421875</ele>
        <time>2021-09-27T10:31:23.000Z</time>
      </trkpt>
      <trkpt lat="39.70613471232354640960693359375" lon="-0.34949812106788158416748046875">
        <ele>121.8000030517578125</ele>
        <time>2021-09-27T10:31:25.000Z</time>
      </trkpt>
      <trkpt lat="39.7060167789459228515625" lon="-0.349439866840839385986328125">
        <ele>121.59999847412109375</ele>
        <time>2021-09-27T10:31:27.000Z</time>
      </trkpt>
      <trkpt lat="39.70589566044509410858154296875" lon="-0.34938295371830463409423828125">
        <ele>121.1999969482421875</ele>
        <time>2021-09-27T10:31:29.000Z</time>
      </trkpt>
      <trkpt lat="39.70576389692723751068115234375" lon="-0.34933232702314853668212890625">
        <ele>121</ele>
        <time>2021-09-27T10:31:31.000Z</time>
      </trkpt>
      <trkpt lat="39.7056300379335880279541015625" lon="-0.34927784465253353118896484375">
        <ele>120.8000030517578125</ele>
        <time>2021-09-27T10:31:33.000Z</time>
      </trkpt>
      <trkpt lat="39.70549886114895343780517578125" lon="-0.34921615384519100189208984375">
        <ele>120.59999847412109375</ele>
        <time>2021-09-27T10:31:35.000Z</time>
      </trkpt>
      <trkpt lat="39.7053705342113971710205078125" lon="-0.34915857017040252685546875">
        <ele>120.40000152587890625</ele>
        <time>2021-09-27T10:31:37.000Z</time>
      </trkpt>
      <trkpt lat="39.7052434645593166351318359375" lon="-0.34910626709461212158203125">
        <ele>120.40000152587890625</ele>
        <time>2021-09-27T10:31:39.000Z</time>
      </trkpt>
      <trkpt lat="39.70518135465681552886962890625" lon="-0.3490792773663997650146484375">
        <ele>120.59999847412109375</ele>
        <time>2021-09-27T10:31:40.000Z</time>
      </trkpt>
      <trkpt lat="39.70511916093528270721435546875" lon="-0.34904734231531620025634765625">
        <ele>120.40000152587890625</ele>
        <time>2021-09-27T10:31:41.000Z</time>
      </trkpt>
      <trkpt lat="39.70499108545482158660888671875" lon="-0.34898347221314907073974609375">
        <ele>120.1999969482421875</ele>
        <time>2021-09-27T10:31:43.000Z</time>
      </trkpt>
      <trkpt lat="39.70486317761242389678955078125" lon="-0.34891222603619098663330078125">
        <ele>120</ele>
        <time>2021-09-27T10:31:45.000Z</time>
      </trkpt>
      <trkpt lat="39.7047360241413116455078125" lon="-0.34884651191532611846923828125">
        <ele>119.59999847412109375</ele>
        <time>2021-09-27T10:31:47.000Z</time>
      </trkpt>
      <trkpt lat="39.70461465418338775634765625" lon="-0.34878130070865154266357421875">
        <ele>119.59999847412109375</ele>
        <time>2021-09-27T10:31:49.000Z</time>
      </trkpt>
      <trkpt lat="39.70449521206319332122802734375" lon="-0.34872497431933879852294921875">
        <ele>119.59999847412109375</ele>
        <time>2021-09-27T10:31:51.000Z</time>
      </trkpt>
      <trkpt lat="39.70443821512162685394287109375" lon="-0.34869513474404811859130859375">
        <ele>119.59999847412109375</ele>
        <time>2021-09-27T10:31:52.000Z</time>
      </trkpt>
      <trkpt lat="39.70438725315034389495849609375" lon="-0.348661355674266815185546875">
        <ele>119.40000152587890625</ele>
        <time>2021-09-27T10:31:53.000Z</time>
      </trkpt>
      <trkpt lat="39.70429278910160064697265625" lon="-0.34858985804021358489990234375">
        <ele>119.1999969482421875</ele>
        <time>2021-09-27T10:31:55.000Z</time>
      </trkpt>
      <trkpt lat="39.704245515167713165283203125" lon="-0.34854962490499019622802734375">
        <ele>119.1999969482421875</ele>
        <time>2021-09-27T10:31:56.000Z</time>
      </trkpt>
      <trkpt lat="39.70420234836637973785400390625" lon="-0.34850805066525936126708984375">
        <ele>119</ele>
        <time>2021-09-27T10:31:57.000Z</time>
      </trkpt>
      <trkpt lat="39.704156331717967987060546875" lon="-0.34846781753003597259521484375">
        <ele>118.8000030517578125</ele>
        <time>2021-09-27T10:31:58.000Z</time>
      </trkpt>
      <trkpt lat="39.70411048270761966705322265625" lon="-0.3484268300235271453857421875">
        <ele>118.59999847412109375</ele>
        <time>2021-09-27T10:31:59.000Z</time>
      </trkpt>
      <trkpt lat="39.704018533229827880859375" lon="-0.348341502249240875244140625">
        <ele>118</ele>
        <time>2021-09-27T10:32:01.000Z</time>
      </trkpt>
      <trkpt lat="39.70396899618208408355712890625" lon="-0.34830026328563690185546875">
        <ele>117.59999847412109375</ele>
        <time>2021-09-27T10:32:02.000Z</time>
      </trkpt>
      <trkpt lat="39.70391920767724514007568359375" lon="-0.34826128743588924407958984375">
        <ele>117.40000152587890625</ele>
        <time>2021-09-27T10:32:03.000Z</time>
      </trkpt>
      <trkpt lat="39.70387193374335765838623046875" lon="-0.34822650253772735595703125">
        <ele>117</ele>
        <time>2021-09-27T10:32:04.000Z</time>
      </trkpt>
      <trkpt lat="39.7038280963897705078125" lon="-0.34819222055375576019287109375">
        <ele>116.8000030517578125</ele>
        <time>2021-09-27T10:32:05.000Z</time>
      </trkpt>
      <trkpt lat="39.703782498836517333984375" lon="-0.34816305153071880340576171875">
        <ele>116.40000152587890625</ele>
        <time>2021-09-27T10:32:06.000Z</time>
      </trkpt>
      <trkpt lat="39.70373757183551788330078125" lon="-0.34814042039215564727783203125">
        <ele>116.1999969482421875</ele>
        <time>2021-09-27T10:32:07.000Z</time>
      </trkpt>
      <trkpt lat="39.70368853770196437835693359375" lon="-0.34811921417713165283203125">
        <ele>116.1999969482421875</ele>
        <time>2021-09-27T10:32:08.000Z</time>
      </trkpt>
      <trkpt lat="39.70363455824553966522216796875" lon="-0.34809934906661510467529296875">
        <ele>116.1999969482421875</ele>
        <time>2021-09-27T10:32:09.000Z</time>
      </trkpt>
      <trkpt lat="39.70351939089596271514892578125" lon="-0.34804771654307842254638671875">
        <ele>116.40000152587890625</ele>
        <time>2021-09-27T10:32:11.000Z</time>
      </trkpt>
      <trkpt lat="39.70341662876307964324951171875" lon="-0.34795937128365039825439453125">
        <ele>116.40000152587890625</ele>
        <time>2021-09-27T10:32:13.000Z</time>
      </trkpt>
      <trkpt lat="39.7033209912478923797607421875" lon="-0.34787571988999843597412109375">
        <ele>116.8000030517578125</ele>
        <time>2021-09-27T10:32:15.000Z</time>
      </trkpt>
      <trkpt lat="39.70321881584823131561279296875" lon="-0.34779039211571216583251953125">
        <ele>117</ele>
        <time>2021-09-27T10:32:17.000Z</time>
      </trkpt>
      <trkpt lat="39.703110940754413604736328125" lon="-0.34770674072206020355224609375">
        <ele>117.40000152587890625</ele>
        <time>2021-09-27T10:32:19.000Z</time>
      </trkpt>
      <trkpt lat="39.70300826244056224822998046875" lon="-0.3476225025951862335205078125">
        <ele>116.8000030517578125</ele>
        <time>2021-09-27T10:32:21.000Z</time>
      </trkpt>
      <trkpt lat="39.70290097407996654510498046875" lon="-0.3475329838693141937255859375">
        <ele>116.40000152587890625</ele>
        <time>2021-09-27T10:32:23.000Z</time>
      </trkpt>
      <trkpt lat="39.7027966193854808807373046875" lon="-0.3474414534866809844970703125">
        <ele>116.1999969482421875</ele>
        <time>2021-09-27T10:32:25.000Z</time>
      </trkpt>
      <trkpt lat="39.70269327051937580108642578125" lon="-0.34734464250504970550537109375">
        <ele>116.1999969482421875</ele>
        <time>2021-09-27T10:32:27.000Z</time>
      </trkpt>
      <trkpt lat="39.70259687863290309906005859375" lon="-0.3472567163407802581787109375">
        <ele>116.1999969482421875</ele>
        <time>2021-09-27T10:32:29.000Z</time>
      </trkpt>
      <trkpt lat="39.70249981619417667388916015625" lon="-0.3471712209284305572509765625">
        <ele>116</ele>
        <time>2021-09-27T10:32:31.000Z</time>
      </trkpt>
      <trkpt lat="39.7024063579738140106201171875" lon="-0.3470760025084018707275390625">
        <ele>116.1999969482421875</ele>
        <time>2021-09-27T10:32:33.000Z</time>
      </trkpt>
      <trkpt lat="39.70236671157181262969970703125" lon="-0.3470156528055667877197265625">
        <ele>116.1999969482421875</ele>
        <time>2021-09-27T10:32:34.000Z</time>
      </trkpt>
      <trkpt lat="39.70233133994042873382568359375" lon="-0.3469477593898773193359375">
        <ele>116.40000152587890625</ele>
        <time>2021-09-27T10:32:35.000Z</time>
      </trkpt>
      <trkpt lat="39.7022615186870098114013671875" lon="-0.34681297838687896728515625">
        <ele>116.1999969482421875</ele>
        <time>2021-09-27T10:32:37.000Z</time>
      </trkpt>
      <trkpt lat="39.70221818424761295318603515625" lon="-0.34675640054047107696533203125">
        <ele>116.1999969482421875</ele>
        <time>2021-09-27T10:32:38.000Z</time>
      </trkpt>
      <trkpt lat="39.70217141322791576385498046875" lon="-0.34670208580791950225830078125">
        <ele>116</ele>
        <time>2021-09-27T10:32:39.000Z</time>
      </trkpt>
      <trkpt lat="39.7020694054663181304931640625" lon="-0.34659764729440212249755859375">
        <ele>116</ele>
        <time>2021-09-27T10:32:41.000Z</time>
      </trkpt>
      <trkpt lat="39.70197209157049655914306640625" lon="-0.3464996628463268280029296875">
        <ele>116.1999969482421875</ele>
        <time>2021-09-27T10:32:43.000Z</time>
      </trkpt>
      <trkpt lat="39.701926410198211669921875" lon="-0.346455909311771392822265625">
        <ele>116.40000152587890625</ele>
        <time>2021-09-27T10:32:44.000Z</time>
      </trkpt>
      <trkpt lat="39.70188005827367305755615234375" lon="-0.34641659818589687347412109375">
        <ele>116.40000152587890625</ele>
        <time>2021-09-27T10:32:45.000Z</time>
      </trkpt>
      <trkpt lat="39.701795317232608795166015625" lon="-0.3463362157344818115234375">
        <ele>116.40000152587890625</ele>
        <time>2021-09-27T10:32:47.000Z</time>
      </trkpt>
      <trkpt lat="39.70170906744897365570068359375" lon="-0.34625130705535411834716796875">
        <ele>116.40000152587890625</ele>
        <time>2021-09-27T10:32:49.000Z</time>
      </trkpt>
      <trkpt lat="39.701663888990879058837890625" lon="-0.3462076373398303985595703125">
        <ele>116.59999847412109375</ele>
        <time>2021-09-27T10:32:50.000Z</time>
      </trkpt>
      <trkpt lat="39.70161820761859416961669921875" lon="-0.3461633808910846710205078125">
        <ele>116.59999847412109375</ele>
        <time>2021-09-27T10:32:51.000Z</time>
      </trkpt>
      <trkpt lat="39.70152583904564380645751953125" lon="-0.34607964567840099334716796875">
        <ele>116.8000030517578125</ele>
        <time>2021-09-27T10:32:53.000Z</time>
      </trkpt>
      <trkpt lat="39.70143221318721771240234375" lon="-0.3459910489618778228759765625">
        <ele>116.8000030517578125</ele>
        <time>2021-09-27T10:32:55.000Z</time>
      </trkpt>
      <trkpt lat="39.70138351432979106903076171875" lon="-0.34594972617924213409423828125">
        <ele>116.40000152587890625</ele>
        <time>2021-09-27T10:32:56.000Z</time>
      </trkpt>
      <trkpt lat="39.70133624039590358734130859375" lon="-0.3459072299301624298095703125">
        <ele>116.1999969482421875</ele>
        <time>2021-09-27T10:32:57.000Z</time>
      </trkpt>
      <trkpt lat="39.70123448409140110015869140625" lon="-0.34581695683300495147705078125">
        <ele>115.40000152587890625</ele>
        <time>2021-09-27T10:32:59.000Z</time>
      </trkpt>
      <trkpt lat="39.70112870447337627410888671875" lon="-0.34573364071547985076904296875">
        <ele>115</ele>
        <time>2021-09-27T10:33:01.000Z</time>
      </trkpt>
      <trkpt lat="39.70107723958790302276611328125" lon="-0.34569558687508106231689453125">
        <ele>114.8000030517578125</ele>
        <time>2021-09-27T10:33:02.000Z</time>
      </trkpt>
      <trkpt lat="39.7010240145027637481689453125" lon="-0.345659293234348297119140625">
        <ele>114.8000030517578125</ele>
        <time>2021-09-27T10:33:03.000Z</time>
      </trkpt>
      <trkpt lat="39.7009157203137874603271484375" lon="-0.34559517167508602142333984375">
        <ele>114.8000030517578125</ele>
        <time>2021-09-27T10:33:05.000Z</time>
      </trkpt>
      <trkpt lat="39.700810611248016357421875" lon="-0.345541276037693023681640625">
        <ele>114.8000030517578125</ele>
        <time>2021-09-27T10:33:07.000Z</time>
      </trkpt>
      <trkpt lat="39.700761325657367706298828125" lon="-0.34551101736724376678466796875">
        <ele>114.8000030517578125</ele>
        <time>2021-09-27T10:33:08.000Z</time>
      </trkpt>
      <trkpt lat="39.70071011222898960113525390625" lon="-0.34548218362033367156982421875">
        <ele>114.8000030517578125</ele>
        <time>2021-09-27T10:33:09.000Z</time>
      </trkpt>
      <trkpt lat="39.70060869120061397552490234375" lon="-0.3454204089939594268798828125">
        <ele>115</ele>
        <time>2021-09-27T10:33:11.000Z</time>
      </trkpt>
      <trkpt lat="39.7005110420286655426025390625" lon="-0.345344133675098419189453125">
        <ele>115</ele>
        <time>2021-09-27T10:33:13.000Z</time>
      </trkpt>
      <trkpt lat="39.70046133734285831451416015625" lon="-0.3453040681779384613037109375">
        <ele>115</ele>
        <time>2021-09-27T10:33:14.000Z</time>
      </trkpt>
      <trkpt lat="39.70040895044803619384765625" lon="-0.34526458941400051116943359375">
        <ele>114.8000030517578125</ele>
        <time>2021-09-27T10:33:15.000Z</time>
      </trkpt>
      <trkpt lat="39.700300656259059906005859375" lon="-0.34518328495323657989501953125">
        <ele>114.8000030517578125</ele>
        <time>2021-09-27T10:33:17.000Z</time>
      </trkpt>
      <trkpt lat="39.70018708147108554840087890625" lon="-0.345079936087131500244140625">
        <ele>114.8000030517578125</ele>
        <time>2021-09-27T10:33:19.000Z</time>
      </trkpt>
      <trkpt lat="39.70006696879863739013671875" lon="-0.34497139044106006622314453125">
        <ele>114.59999847412109375</ele>
        <time>2021-09-27T10:33:21.000Z</time>
      </trkpt>
      <trkpt lat="39.70001240260899066925048828125" lon="-0.34491556696593761444091796875">
        <ele>114.59999847412109375</ele>
        <time>2021-09-27T10:33:22.000Z</time>
      </trkpt>
      <trkpt lat="39.699967391788959503173828125" lon="-0.34484348259866237640380859375">
        <ele>114.40000152587890625</ele>
        <time>2021-09-27T10:33:23.000Z</time>
      </trkpt>
      <trkpt lat="39.69993512146174907684326171875" lon="-0.3447632677853107452392578125">
        <ele>114.1999969482421875</ele>
        <time>2021-09-27T10:33:24.000Z</time>
      </trkpt>
      <trkpt lat="39.69990947283804416656494140625" lon="-0.34467752091586589813232421875">
        <ele>113.8000030517578125</ele>
        <time>2021-09-27T10:33:25.000Z</time>
      </trkpt>
      <trkpt lat="39.69985834322869777679443359375" lon="-0.34450535662472248077392578125">
        <ele>113.40000152587890625</ele>
        <time>2021-09-27T10:33:27.000Z</time>
      </trkpt>
      <trkpt lat="39.6998066268861293792724609375" lon="-0.34433101303875446319580078125">
        <ele>113</ele>
        <time>2021-09-27T10:33:29.000Z</time>
      </trkpt>
      <trkpt lat="39.69977703876793384552001953125" lon="-0.34425473771989345550537109375">
        <ele>112.8000030517578125</ele>
        <time>2021-09-27T10:33:30.000Z</time>
      </trkpt>
      <trkpt lat="39.6997395716607570648193359375" lon="-0.34418734721839427947998046875">
        <ele>112.59999847412109375</ele>
        <time>2021-09-27T10:33:31.000Z</time>
      </trkpt>
      <trkpt lat="39.69969539903104305267333984375" lon="-0.3441299311816692352294921875">
        <ele>112.59999847412109375</ele>
        <time>2021-09-27T10:33:32.000Z</time>
      </trkpt>
      <trkpt lat="39.69965122640132904052734375" lon="-0.344070754945278167724609375">
        <ele>112.59999847412109375</ele>
        <time>2021-09-27T10:33:33.000Z</time>
      </trkpt>
      <trkpt lat="39.69961577095091342926025390625" lon="-0.34400512464344501495361328125">
        <ele>112.40000152587890625</ele>
        <time>2021-09-27T10:33:34.000Z</time>
      </trkpt>
      <trkpt lat="39.69959481619298458099365234375" lon="-0.34392826259136199951171875">
        <ele>112.1999969482421875</ele>
        <time>2021-09-27T10:33:35.000Z</time>
      </trkpt>
      <trkpt lat="39.69958442263305187225341796875" lon="-0.343848131597042083740234375">
        <ele>112</ele>
        <time>2021-09-27T10:33:36.000Z</time>
      </trkpt>
      <trkpt lat="39.69957889057695865631103515625" lon="-0.34376196563243865966796875">
        <ele>111.59999847412109375</ele>
        <time>2021-09-27T10:33:37.000Z</time>
      </trkpt>
      <trkpt lat="39.69956732355058193206787109375" lon="-0.3435800783336162567138671875">
        <ele>110.1999969482421875</ele>
        <time>2021-09-27T10:33:39.000Z</time>
      </trkpt>
      <trkpt lat="39.69956137239933013916015625" lon="-0.34348175860941410064697265625">
        <ele>109.59999847412109375</ele>
        <time>2021-09-27T10:33:40.000Z</time>
      </trkpt>
      <trkpt lat="39.6995461173355579376220703125" lon="-0.34338377416133880615234375">
        <ele>109</ele>
        <time>2021-09-27T10:33:41.000Z</time>
      </trkpt>
      <trkpt lat="39.6994907967746257781982421875" lon="-0.343193672597408294677734375">
        <ele>107.59999847412109375</ele>
        <time>2021-09-27T10:33:43.000Z</time>
      </trkpt>
      <trkpt lat="39.699452407658100128173828125" lon="-0.34310457296669483184814453125">
        <ele>106.8000030517578125</ele>
        <time>2021-09-27T10:33:44.000Z</time>
      </trkpt>
      <trkpt lat="39.699403457343578338623046875" lon="-0.34301974810659885406494140625">
        <ele>106.1999969482421875</ele>
        <time>2021-09-27T10:33:45.000Z</time>
      </trkpt>
      <trkpt lat="39.69934470020234584808349609375" lon="-0.342938862740993499755859375">
        <ele>105.59999847412109375</ele>
        <time>2021-09-27T10:33:46.000Z</time>
      </trkpt>
      <trkpt lat="39.69927898608148097991943359375" lon="-0.34286879003047943115234375">
        <ele>105.1999969482421875</ele>
        <time>2021-09-27T10:33:47.000Z</time>
      </trkpt>
      <trkpt lat="39.69920463860034942626953125" lon="-0.34281187690794467926025390625">
        <ele>104.8000030517578125</ele>
        <time>2021-09-27T10:33:48.000Z</time>
      </trkpt>
      <trkpt lat="39.6991270221769809722900390625" lon="-0.34276342950761318206787109375">
        <ele>104.59999847412109375</ele>
        <time>2021-09-27T10:33:49.000Z</time>
      </trkpt>
      <trkpt lat="39.69896919094026088714599609375" lon="-0.34267835319042205810546875">
        <ele>104</ele>
        <time>2021-09-27T10:33:51.000Z</time>
      </trkpt>
      <trkpt lat="39.6988303028047084808349609375" lon="-0.342606604099273681640625">
        <ele>103.59999847412109375</ele>
        <time>2021-09-27T10:33:53.000Z</time>
      </trkpt>
      <trkpt lat="39.69876986928284168243408203125" lon="-0.342583470046520233154296875">
        <ele>103.59999847412109375</ele>
        <time>2021-09-27T10:33:54.000Z</time>
      </trkpt>
      <trkpt lat="39.69871941022574901580810546875" lon="-0.3425752557814121246337890625">
        <ele>103.59999847412109375</ele>
        <time>2021-09-27T10:33:55.000Z</time>
      </trkpt>
      <trkpt lat="39.6986795961856842041015625" lon="-0.3425725735723972320556640625">
        <ele>103.59999847412109375</ele>
        <time>2021-09-27T10:33:56.000Z</time>
      </trkpt>
      <trkpt lat="39.69864581711590290069580078125" lon="-0.342576764523983001708984375">
        <ele>103.59999847412109375</ele>
        <time>2021-09-27T10:33:57.000Z</time>
      </trkpt>
      <trkpt lat="39.69859167002141475677490234375" lon="-0.3425936959683895111083984375">
        <ele>103.8000030517578125</ele>
        <time>2021-09-27T10:33:59.000Z</time>
      </trkpt>
      <trkpt lat="39.69856954179704189300537109375" lon="-0.34260685555636882781982421875">
        <ele>103.8000030517578125</ele>
        <time>2021-09-27T10:34:00.000Z</time>
      </trkpt>
      <trkpt lat="39.69855193980038166046142578125" lon="-0.34262831322848796844482421875">
        <ele>104</ele>
        <time>2021-09-27T10:34:01.000Z</time>
      </trkpt>
      <trkpt lat="39.6985171549022197723388671875" lon="-0.34268799237906932830810546875">
        <ele>104.1999969482421875</ele>
        <time>2021-09-27T10:34:03.000Z</time>
      </trkpt>
      <trkpt lat="39.6984940208494663238525390625" lon="-0.3427194245159626007080078125">
        <ele>104.40000152587890625</ele>
        <time>2021-09-27T10:34:04.000Z</time>
      </trkpt>
      <trkpt lat="39.6984636783599853515625" lon="-0.342746078968048095703125">
        <ele>104.40000152587890625</ele>
        <time>2021-09-27T10:34:05.000Z</time>
      </trkpt>
      <trkpt lat="39.69838681630790233612060546875" lon="-0.342775918543338775634765625">
        <ele>104.59999847412109375</ele>
        <time>2021-09-27T10:34:07.000Z</time>
      </trkpt>
      <trkpt lat="39.69834943301975727081298828125" lon="-0.34276418387889862060546875">
        <ele>104.59999847412109375</ele>
        <time>2021-09-27T10:34:08.000Z</time>
      </trkpt>
      <trkpt lat="39.6983176656067371368408203125" lon="-0.3427308239042758941650390625">
        <ele>104.59999847412109375</ele>
        <time>2021-09-27T10:34:09.000Z</time>
      </trkpt>
      <trkpt lat="39.698301069438457489013671875" lon="-0.34268380142748355865478515625">
        <ele>104.40000152587890625</ele>
        <time>2021-09-27T10:34:10.000Z</time>
      </trkpt>
      <trkpt lat="39.6982962079346179962158203125" lon="-0.3426278941333293914794921875">
        <ele>104.1999969482421875</ele>
        <time>2021-09-27T10:34:11.000Z</time>
      </trkpt>
      <trkpt lat="39.698309116065502166748046875" lon="-0.342573411762714385986328125">
        <ele>104</ele>
        <time>2021-09-27T10:34:12.000Z</time>
      </trkpt>
      <trkpt lat="39.69833216629922389984130859375" lon="-0.34251901321113109588623046875">
        <ele>103.8000030517578125</ele>
        <time>2021-09-27T10:34:13.000Z</time>
      </trkpt>
      <trkpt lat="39.69836334697902202606201171875" lon="-0.34247391857206821441650390625">
        <ele>103.59999847412109375</ele>
        <time>2021-09-27T10:34:14.000Z</time>
      </trkpt>
      <trkpt lat="39.69839972443878650665283203125" lon="-0.34242580644786357879638671875">
        <ele>103.40000152587890625</ele>
        <time>2021-09-27T10:34:15.000Z</time>
      </trkpt>
      <trkpt lat="39.69843559898436069488525390625" lon="-0.342370569705963134765625">
        <ele>103.1999969482421875</ele>
        <time>2021-09-27T10:34:16.000Z</time>
      </trkpt>
      <trkpt lat="39.6984678693115711212158203125" lon="-0.34230678342282772064208984375">
        <ele>103.1999969482421875</ele>
        <time>2021-09-27T10:34:17.000Z</time>
      </trkpt>
      <trkpt lat="39.69849477522075176239013671875" lon="-0.34223847091197967529296875">
        <ele>103</ele>
        <time>2021-09-27T10:34:18.000Z</time>
      </trkpt>
      <trkpt lat="39.698523022234439849853515625" lon="-0.342167057096958160400390625">
        <ele>102.8000030517578125</ele>
        <time>2021-09-27T10:34:19.000Z</time>
      </trkpt>
      <trkpt lat="39.698586054146289825439453125" lon="-0.34201274625957012176513671875">
        <ele>102</ele>
        <time>2021-09-27T10:34:21.000Z</time>
      </trkpt>
      <trkpt lat="39.69861782155930995941162109375" lon="-0.341929011046886444091796875">
        <ele>101.59999847412109375</ele>
        <time>2021-09-27T10:34:22.000Z</time>
      </trkpt>
      <trkpt lat="39.69864933751523494720458984375" lon="-0.3418436832726001739501953125">
        <ele>101.1999969482421875</ele>
        <time>2021-09-27T10:34:23.000Z</time>
      </trkpt>
      <trkpt lat="39.6986814402043819427490234375" lon="-0.34176380373537540435791015625">
        <ele>100.8000030517578125</ele>
        <time>2021-09-27T10:34:24.000Z</time>
      </trkpt>
      <trkpt lat="39.69871354289352893829345703125" lon="-0.34168459475040435791015625">
        <ele>100.40000152587890625</ele>
        <time>2021-09-27T10:34:25.000Z</time>
      </trkpt>
      <trkpt lat="39.698738940060138702392578125" lon="-0.34161058254539966583251953125">
        <ele>100</ele>
        <time>2021-09-27T10:34:26.000Z</time>
      </trkpt>
      <trkpt lat="39.6987649239599704742431640625" lon="-0.3415431082248687744140625">
        <ele>99.59999847412109375</ele>
        <time>2021-09-27T10:34:27.000Z</time>
      </trkpt>
      <trkpt lat="39.69879426062107086181640625" lon="-0.34147412516176700592041015625">
        <ele>99.1999969482421875</ele>
        <time>2021-09-27T10:34:28.000Z</time>
      </trkpt>
      <trkpt lat="39.6988190710544586181640625" lon="-0.3414078243076801300048828125">
        <ele>99</ele>
        <time>2021-09-27T10:34:29.000Z</time>
      </trkpt>
      <trkpt lat="39.698833487927913665771484375" lon="-0.341275893151760101318359375">
        <ele>98.40000152587890625</ele>
        <time>2021-09-27T10:34:31.000Z</time>
      </trkpt>
      <trkpt lat="39.69880356453359127044677734375" lon="-0.34116701222956180572509765625">
        <ele>98</ele>
        <time>2021-09-27T10:34:33.000Z</time>
      </trkpt>
      <trkpt lat="39.6987847052514553070068359375" lon="-0.34111085347831249237060546875">
        <ele>97.8000030517578125</ele>
        <time>2021-09-27T10:34:34.000Z</time>
      </trkpt>
      <trkpt lat="39.69876886345446109771728515625" lon="-0.34105318598449230194091796875">
        <ele>97.8000030517578125</ele>
        <time>2021-09-27T10:34:35.000Z</time>
      </trkpt>
      <trkpt lat="39.69874790869653224945068359375" lon="-0.34099526703357696533203125">
        <ele>97.59999847412109375</ele>
        <time>2021-09-27T10:34:36.000Z</time>
      </trkpt>
      <trkpt lat="39.6987193264067173004150390625" lon="-0.34094489179551601409912109375">
        <ele>97.59999847412109375</ele>
        <time>2021-09-27T10:34:37.000Z</time>
      </trkpt>
      <trkpt lat="39.6986851282417774200439453125" lon="-0.34089962951838970184326171875">
        <ele>97.59999847412109375</ele>
        <time>2021-09-27T10:34:38.000Z</time>
      </trkpt>
      <trkpt lat="39.69865369610488414764404296875" lon="-0.3408539481461048126220703125">
        <ele>97.59999847412109375</ele>
        <time>2021-09-27T10:34:39.000Z</time>
      </trkpt>
      <trkpt lat="39.69858513213694095611572265625" lon="-0.34080977551639080047607421875">
        <ele>97.59999847412109375</ele>
        <time>2021-09-27T10:34:41.000Z</time>
      </trkpt>
      <trkpt lat="39.6985486708581447601318359375" lon="-0.34082234837114810943603515625">
        <ele>97.8000030517578125</ele>
        <time>2021-09-27T10:34:42.000Z</time>
      </trkpt>
      <trkpt lat="39.6985159814357757568359375" lon="-0.34084900282323360443115234375">
        <ele>98</ele>
        <time>2021-09-27T10:34:43.000Z</time>
      </trkpt>
      <trkpt lat="39.6984494291245937347412109375" lon="-0.34090566448867321014404296875">
        <ele>98.40000152587890625</ele>
        <time>2021-09-27T10:34:45.000Z</time>
      </trkpt>
      <trkpt lat="39.69837441109120845794677734375" lon="-0.3409602306783199310302734375">
        <ele>99</ele>
        <time>2021-09-27T10:34:47.000Z</time>
      </trkpt>
      <trkpt lat="39.69829830341041088104248046875" lon="-0.34103558398783206939697265625">
        <ele>99.40000152587890625</ele>
        <time>2021-09-27T10:34:49.000Z</time>
      </trkpt>
      <trkpt lat="39.698227979242801666259765625" lon="-0.34111353568732738494873046875">
        <ele>100</ele>
        <time>2021-09-27T10:34:51.000Z</time>
      </trkpt>
      <trkpt lat="39.69819470308721065521240234375" lon="-0.34114991314709186553955078125">
        <ele>100.1999969482421875</ele>
        <time>2021-09-27T10:34:52.000Z</time>
      </trkpt>
      <trkpt lat="39.69816033728420734405517578125" lon="-0.34118209965527057647705078125">
        <ele>100.40000152587890625</ele>
        <time>2021-09-27T10:34:53.000Z</time>
      </trkpt>
      <trkpt lat="39.69809546135365962982177734375" lon="-0.341238342225551605224609375">
        <ele>101</ele>
        <time>2021-09-27T10:34:55.000Z</time>
      </trkpt>
      <trkpt lat="39.6980400569736957550048828125" lon="-0.34128603525459766387939453125">
        <ele>101.40000152587890625</ele>
        <time>2021-09-27T10:34:57.000Z</time>
      </trkpt>
      <trkpt lat="39.69801398925483226776123046875" lon="-0.341310091316699981689453125">
        <ele>101.40000152587890625</ele>
        <time>2021-09-27T10:34:58.000Z</time>
      </trkpt>
      <trkpt lat="39.697992615401744842529296875" lon="-0.3413400985300540924072265625">
        <ele>101.8000030517578125</ele>
        <time>2021-09-27T10:34:59.000Z</time>
      </trkpt>
      <trkpt lat="39.69795472919940948486328125" lon="-0.34141310490667819976806640625">
        <ele>102.1999969482421875</ele>
        <time>2021-09-27T10:35:01.000Z</time>
      </trkpt>
      <trkpt lat="39.697932265698909759521484375" lon="-0.3414976783096790313720703125">
        <ele>102.59999847412109375</ele>
        <time>2021-09-27T10:35:03.000Z</time>
      </trkpt>
      <trkpt lat="39.69792379997670650482177734375" lon="-0.34158359281718730926513671875">
        <ele>103.1999969482421875</ele>
        <time>2021-09-27T10:35:05.000Z</time>
      </trkpt>
      <trkpt lat="39.69793469645082950592041015625" lon="-0.341663472354412078857421875">
        <ele>103.40000152587890625</ele>
        <time>2021-09-27T10:35:07.000Z</time>
      </trkpt>
      <trkpt lat="39.69794173724949359893798828125" lon="-0.34170060418546199798583984375">
        <ele>103.59999847412109375</ele>
        <time>2021-09-27T10:35:08.000Z</time>
      </trkpt>
      <trkpt lat="39.6979465149343013763427734375" lon="-0.34173731692135334014892578125">
        <ele>103.8000030517578125</ele>
        <time>2021-09-27T10:35:09.000Z</time>
      </trkpt>
      <trkpt lat="39.69796084798872470855712890625" lon="-0.34181409515440464019775390625">
        <ele>104</ele>
        <time>2021-09-27T10:35:11.000Z</time>
      </trkpt>
      <trkpt lat="39.69797484576702117919921875" lon="-0.34188752062618732452392578125">
        <ele>104.40000152587890625</ele>
        <time>2021-09-27T10:35:13.000Z</time>
      </trkpt>
      <trkpt lat="39.697994627058506011962890625" lon="-0.3419573418796062469482421875">
        <ele>104.59999847412109375</ele>
        <time>2021-09-27T10:35:15.000Z</time>
      </trkpt>
      <trkpt lat="39.697999991476535797119140625" lon="-0.341991372406482696533203125">
        <ele>104.8000030517578125</ele>
        <time>2021-09-27T10:35:16.000Z</time>
      </trkpt>
      <trkpt lat="39.698006026446819305419921875" lon="-0.34202791750431060791015625">
        <ele>105</ele>
        <time>2021-09-27T10:35:17.000Z</time>
      </trkpt>
      <trkpt lat="39.69802069477736949920654296875" lon="-0.342099666595458984375">
        <ele>105.1999969482421875</ele>
        <time>2021-09-27T10:35:19.000Z</time>
      </trkpt>
      <trkpt lat="39.69803343527019023895263671875" lon="-0.34217183478176593780517578125">
        <ele>105.1999969482421875</ele>
        <time>2021-09-27T10:35:21.000Z</time>
      </trkpt>
      <trkpt lat="39.69803779385983943939208984375" lon="-0.34220905043184757232666015625">
        <ele>105.1999969482421875</ele>
        <time>2021-09-27T10:35:22.000Z</time>
      </trkpt>
      <trkpt lat="39.6980417333543300628662109375" lon="-0.34224576316773891448974609375">
        <ele>105.1999969482421875</ele>
        <time>2021-09-27T10:35:23.000Z</time>
      </trkpt>
      <trkpt lat="39.69805422239005565643310546875" lon="-0.34231483004987239837646484375">
        <ele>105</ele>
        <time>2021-09-27T10:35:25.000Z</time>
      </trkpt>
      <trkpt lat="39.6980680525302886962890625" lon="-0.34238976426422595977783203125">
        <ele>105</ele>
        <time>2021-09-27T10:35:27.000Z</time>
      </trkpt>
      <trkpt lat="39.698073081672191619873046875" lon="-0.34242513589560985565185546875">
        <ele>105</ele>
        <time>2021-09-27T10:35:28.000Z</time>
      </trkpt>
      <trkpt lat="39.69807869754731655120849609375" lon="-0.34245950169861316680908203125">
        <ele>105</ele>
        <time>2021-09-27T10:35:29.000Z</time>
      </trkpt>
      <trkpt lat="39.698091857135295867919921875" lon="-0.34252789802849292755126953125">
        <ele>105</ele>
        <time>2021-09-27T10:35:31.000Z</time>
      </trkpt>
      <trkpt lat="39.69810468144714832305908203125" lon="-0.3425943665206432342529296875">
        <ele>104.8000030517578125</ele>
        <time>2021-09-27T10:35:33.000Z</time>
      </trkpt>
      <trkpt lat="39.69811499118804931640625" lon="-0.3426627628505229949951171875">
        <ele>104.8000030517578125</ele>
        <time>2021-09-27T10:35:35.000Z</time>
      </trkpt>
      <trkpt lat="39.69812178052961826324462890625" lon="-0.342698134481906890869140625">
        <ele>104.8000030517578125</ele>
        <time>2021-09-27T10:35:36.000Z</time>
      </trkpt>
      <trkpt lat="39.69812865369021892547607421875" lon="-0.3427328355610370635986328125">
        <ele>104.8000030517578125</ele>
        <time>2021-09-27T10:35:37.000Z</time>
      </trkpt>
      <trkpt lat="39.69813175499439239501953125" lon="-0.34280098043382167816162109375">
        <ele>105</ele>
        <time>2021-09-27T10:35:39.000Z</time>
      </trkpt>
      <trkpt lat="39.6981332637369632720947265625" lon="-0.34286820329725742340087890625">
        <ele>105.40000152587890625</ele>
        <time>2021-09-27T10:35:41.000Z</time>
      </trkpt>
      <trkpt lat="39.69813334755599498748779296875" lon="-0.3429351747035980224609375">
        <ele>105.59999847412109375</ele>
        <time>2021-09-27T10:35:43.000Z</time>
      </trkpt>
      <trkpt lat="39.6981265582144260406494140625" lon="-0.34299912862479686737060546875">
        <ele>105.8000030517578125</ele>
        <time>2021-09-27T10:35:45.000Z</time>
      </trkpt>
      <trkpt lat="39.698117673397064208984375" lon="-0.343057215213775634765625">
        <ele>106</ele>
        <time>2021-09-27T10:35:47.000Z</time>
      </trkpt>
      <trkpt lat="39.69811172224581241607666015625" lon="-0.343085043132305145263671875">
        <ele>106.1999969482421875</ele>
        <time>2021-09-27T10:35:48.000Z</time>
      </trkpt>
      <trkpt lat="39.69810350798070430755615234375" lon="-0.3431100212037563323974609375">
        <ele>106.1999969482421875</ele>
        <time>2021-09-27T10:35:49.000Z</time>
      </trkpt>
      <trkpt lat="39.69809110276401042938232421875" lon="-0.343127958476543426513671875">
        <ele>106.1999969482421875</ele>
        <time>2021-09-27T10:35:50.000Z</time>
      </trkpt>
      <trkpt lat="39.69807366840541362762451171875" lon="-0.34314279444515705108642578125">
        <ele>106.40000152587890625</ele>
        <time>2021-09-27T10:35:51.000Z</time>
      </trkpt>
      <trkpt lat="39.69803377054631710052490234375" lon="-0.34315838478505611419677734375">
        <ele>106.40000152587890625</ele>
        <time>2021-09-27T10:35:53.000Z</time>
      </trkpt>
      <trkpt lat="39.69798817299306392669677734375" lon="-0.34315687604248523712158203125">
        <ele>106.59999847412109375</ele>
        <time>2021-09-27T10:35:55.000Z</time>
      </trkpt>
      <trkpt lat="39.697935618460178375244140625" lon="-0.34313759766519069671630859375">
        <ele>106.59999847412109375</ele>
        <time>2021-09-27T10:35:57.000Z</time>
      </trkpt>
      <trkpt lat="39.6979143284261226654052734375" lon="-0.3431202471256256103515625">
        <ele>106.40000152587890625</ele>
        <time>2021-09-27T10:35:58.000Z</time>
      </trkpt>
      <trkpt lat="39.69789035618305206298828125" lon="-0.34310256130993366241455078125">
        <ele>106.40000152587890625</ele>
        <time>2021-09-27T10:35:59.000Z</time>
      </trkpt>
      <trkpt lat="39.69784400425851345062255859375" lon="-0.34306718967854976654052734375">
        <ele>106.40000152587890625</ele>
        <time>2021-09-27T10:36:01.000Z</time>
      </trkpt>
      <trkpt lat="39.69782237894833087921142578125" lon="-0.343046821653842926025390625">
        <ele>106.1999969482421875</ele>
        <time>2021-09-27T10:36:02.000Z</time>
      </trkpt>
      <trkpt lat="39.69780058600008487701416015625" lon="-0.34302561543881893157958984375">
        <ele>106.1999969482421875</ele>
        <time>2021-09-27T10:36:03.000Z</time>
      </trkpt>
      <trkpt lat="39.697763621807098388671875" lon="-0.34298186190426349639892578125">
        <ele>106.1999969482421875</ele>
        <time>2021-09-27T10:36:05.000Z</time>
      </trkpt>
      <trkpt lat="39.6977312676608562469482421875" lon="-0.34294816665351390838623046875">
        <ele>106.40000152587890625</ele>
        <time>2021-09-27T10:36:07.000Z</time>
      </trkpt>
      <trkpt lat="39.69769455492496490478515625" lon="-0.342915058135986328125">
        <ele>106.40000152587890625</ele>
        <time>2021-09-27T10:36:09.000Z</time>
      </trkpt>
      <trkpt lat="39.69764954410493373870849609375" lon="-0.34288077615201473236083984375">
        <ele>106.59999847412109375</ele>
        <time>2021-09-27T10:36:11.000Z</time>
      </trkpt>
      <trkpt lat="39.69762749969959259033203125" lon="-0.34285940229892730712890625">
        <ele>106.59999847412109375</ele>
        <time>2021-09-27T10:36:12.000Z</time>
      </trkpt>
      <trkpt lat="39.6976072154939174652099609375" lon="-0.34283752553164958953857421875">
        <ele>106.59999847412109375</ele>
        <time>2021-09-27T10:36:13.000Z</time>
      </trkpt>
      <trkpt lat="39.6975710056722164154052734375" lon="-0.34280173480510711669921875">
        <ele>106.8000030517578125</ele>
        <time>2021-09-27T10:36:15.000Z</time>
      </trkpt>
      <trkpt lat="39.69753756187856197357177734375" lon="-0.342773906886577606201171875">
        <ele>106.8000030517578125</ele>
        <time>2021-09-27T10:36:17.000Z</time>
      </trkpt>
      <trkpt lat="39.6975049562752246856689453125" lon="-0.342746078968048095703125">
        <ele>106.8000030517578125</ele>
        <time>2021-09-27T10:36:19.000Z</time>
      </trkpt>
      <trkpt lat="39.69747461378574371337890625" lon="-0.34271028824150562286376953125">
        <ele>107</ele>
        <time>2021-09-27T10:36:21.000Z</time>
      </trkpt>
      <trkpt lat="39.697436057031154632568359375" lon="-0.342670977115631103515625">
        <ele>107</ele>
        <time>2021-09-27T10:36:23.000Z</time>
      </trkpt>
      <trkpt lat="39.6974164433777332305908203125" lon="-0.34264759160578250885009765625">
        <ele>107</ele>
        <time>2021-09-27T10:36:24.000Z</time>
      </trkpt>
      <trkpt lat="39.697392471134662628173828125" lon="-0.34262428991496562957763671875">
        <ele>107.1999969482421875</ele>
        <time>2021-09-27T10:36:25.000Z</time>
      </trkpt>
      <trkpt lat="39.69734477810561656951904296875" lon="-0.3425730764865875244140625">
        <ele>107.59999847412109375</ele>
        <time>2021-09-27T10:36:27.000Z</time>
      </trkpt>
      <trkpt lat="39.6973001025617122650146484375" lon="-0.3425105474889278411865234375">
        <ele>108.1999969482421875</ele>
        <time>2021-09-27T10:36:29.000Z</time>
      </trkpt>
      <trkpt lat="39.69725827686488628387451171875" lon="-0.3424444980919361114501953125">
        <ele>109</ele>
        <time>2021-09-27T10:36:31.000Z</time>
      </trkpt>
      <trkpt lat="39.69721536152064800262451171875" lon="-0.3423787839710712432861328125">
        <ele>109.59999847412109375</ele>
        <time>2021-09-27T10:36:33.000Z</time>
      </trkpt>
      <trkpt lat="39.6971777267754077911376953125" lon="-0.3423113934695720672607421875">
        <ele>110.1999969482421875</ele>
        <time>2021-09-27T10:36:35.000Z</time>
      </trkpt>
      <trkpt lat="39.69713673926889896392822265625" lon="-0.342238806188106536865234375">
        <ele>110.8000030517578125</ele>
        <time>2021-09-27T10:36:37.000Z</time>
      </trkpt>
      <trkpt lat="39.6970965899527072906494140625" lon="-0.3421839885413646697998046875">
        <ele>111.40000152587890625</ele>
        <time>2021-09-27T10:36:39.000Z</time>
      </trkpt>
      <trkpt lat="39.6970717795193195343017578125" lon="-0.34212472848594188690185546875">
        <ele>111.59999847412109375</ele>
        <time>2021-09-27T10:36:41.000Z</time>
      </trkpt>
      <trkpt lat="39.6970610506832599639892578125" lon="-0.34209924750030040740966796875">
        <ele>111.59999847412109375</ele>
        <time>2021-09-27T10:36:42.000Z</time>
      </trkpt>
      <trkpt lat="39.697050154209136962890625" lon="-0.342070162296295166015625">
        <ele>112</ele>
        <time>2021-09-27T10:36:43.000Z</time>
      </trkpt>
      <trkpt lat="39.697022326290607452392578125" lon="-0.34200319088995456695556640625">
        <ele>112.59999847412109375</ele>
        <time>2021-09-27T10:36:45.000Z</time>
      </trkpt>
      <trkpt lat="39.69698779284954071044921875" lon="-0.3419301845133304595947265625">
        <ele>113.40000152587890625</ele>
        <time>2021-09-27T10:36:47.000Z</time>
      </trkpt>
      <trkpt lat="39.69697128050029277801513671875" lon="-0.34189405851066112518310546875">
        <ele>113.8000030517578125</ele>
        <time>2021-09-27T10:36:48.000Z</time>
      </trkpt>
      <trkpt lat="39.6969510801136493682861328125" lon="-0.3418587706983089447021484375">
        <ele>114.1999969482421875</ele>
        <time>2021-09-27T10:36:49.000Z</time>
      </trkpt>
      <trkpt lat="39.69691830687224864959716796875" lon="-0.34177905879914760589599609375">
        <ele>115</ele>
        <time>2021-09-27T10:36:51.000Z</time>
      </trkpt>
      <trkpt lat="39.6968971006572246551513671875" lon="-0.3416964970529079437255859375">
        <ele>115.59999847412109375</ele>
        <time>2021-09-27T10:36:53.000Z</time>
      </trkpt>
      <trkpt lat="39.69688360579311847686767578125" lon="-0.34160320647060871124267578125">
        <ele>116.1999969482421875</ele>
        <time>2021-09-27T10:36:55.000Z</time>
      </trkpt>
      <trkpt lat="39.6968672610819339752197265625" lon="-0.34151184372603893280029296875">
        <ele>116.59999847412109375</ele>
        <time>2021-09-27T10:36:57.000Z</time>
      </trkpt>
      <trkpt lat="39.6968434564769268035888671875" lon="-0.34142701886594295501708984375">
        <ele>117.59999847412109375</ele>
        <time>2021-09-27T10:36:59.000Z</time>
      </trkpt>
      <trkpt lat="39.69682543538510799407958984375" lon="-0.34133833833038806915283203125">
        <ele>118.40000152587890625</ele>
        <time>2021-09-27T10:37:01.000Z</time>
      </trkpt>
      <trkpt lat="39.69681420363485813140869140625" lon="-0.341244041919708251953125">
        <ele>118.40000152587890625</ele>
        <time>2021-09-27T10:37:03.000Z</time>
      </trkpt>
      <trkpt lat="39.69680213369429111480712890625" lon="-0.34114924259483814239501953125">
        <ele>118.40000152587890625</ele>
        <time>2021-09-27T10:37:05.000Z</time>
      </trkpt>
      <trkpt lat="39.696792662143707275390625" lon="-0.341070704162120819091796875">
        <ele>118.40000152587890625</ele>
        <time>2021-09-27T10:37:07.000Z</time>
      </trkpt>
      <trkpt lat="39.69678084366023540496826171875" lon="-0.34099652431905269622802734375">
        <ele>118.40000152587890625</ele>
        <time>2021-09-27T10:37:09.000Z</time>
      </trkpt>
      <trkpt lat="39.69676961190998554229736328125" lon="-0.34091605804860591888427734375">
        <ele>118.1999969482421875</ele>
        <time>2021-09-27T10:37:11.000Z</time>
      </trkpt>
      <trkpt lat="39.6967559494078159332275390625" lon="-0.340840704739093780517578125">
        <ele>118.40000152587890625</ele>
        <time>2021-09-27T10:37:13.000Z</time>
      </trkpt>
      <trkpt lat="39.69674329273402690887451171875" lon="-0.3407657705247402191162109375">
        <ele>118.40000152587890625</ele>
        <time>2021-09-27T10:37:15.000Z</time>
      </trkpt>
      <trkpt lat="39.69673088751733303070068359375" lon="-0.34069678746163845062255859375">
        <ele>118.8000030517578125</ele>
        <time>2021-09-27T10:37:17.000Z</time>
      </trkpt>
      <trkpt lat="39.69672434963285923004150390625" lon="-0.34066594205796718597412109375">
        <ele>119</ele>
        <time>2021-09-27T10:37:18.000Z</time>
      </trkpt>
      <trkpt lat="39.696719907224178314208984375" lon="-0.34063157625496387481689453125">
        <ele>119.1999969482421875</ele>
        <time>2021-09-27T10:37:19.000Z</time>
      </trkpt>
      <trkpt lat="39.69671554863452911376953125" lon="-0.340562425553798675537109375">
        <ele>119.59999847412109375</ele>
        <time>2021-09-27T10:37:21.000Z</time>
      </trkpt>
      <trkpt lat="39.69670808874070644378662109375" lon="-0.34048925153911113739013671875">
        <ele>120</ele>
        <time>2021-09-27T10:37:23.000Z</time>
      </trkpt>
      <trkpt lat="39.696706831455230712890625" lon="-0.34046259708702564239501953125">
        <ele>120</ele>
        <time>2021-09-27T10:37:24.000Z</time>
      </trkpt>
      <trkpt lat="39.69670708291232585906982421875" lon="-0.3404449112713336944580078125">
        <ele>120</ele>
        <time>2021-09-27T10:37:25.000Z</time>
      </trkpt>
      <trkpt lat="39.6967033110558986663818359375" lon="-0.34040107391774654388427734375">
        <ele>120.40000152587890625</ele>
        <time>2021-09-27T10:37:27.000Z</time>
      </trkpt>
      <trkpt lat="39.6966952644288539886474609375" lon="-0.340345837175846099853515625">
        <ele>120.8000030517578125</ele>
        <time>2021-09-27T10:37:29.000Z</time>
      </trkpt>
      <trkpt lat="39.696685373783111572265625" lon="-0.34028188325464725494384765625">
        <ele>121.1999969482421875</ele>
        <time>2021-09-27T10:37:31.000Z</time>
      </trkpt>
      <trkpt lat="39.6966691128909587860107421875" lon="-0.34021113999187946319580078125">
        <ele>122</ele>
        <time>2021-09-27T10:37:33.000Z</time>
      </trkpt>
      <trkpt lat="39.69665779732167720794677734375" lon="-0.34013519994914531707763671875">
        <ele>122.59999847412109375</ele>
        <time>2021-09-27T10:37:35.000Z</time>
      </trkpt>
      <trkpt lat="39.69664908014237880706787109375" lon="-0.34009563736617565155029296875">
        <ele>123</ele>
        <time>2021-09-27T10:37:36.000Z</time>
      </trkpt>
      <trkpt lat="39.69664086587727069854736328125" lon="-0.34005523659288883209228515625">
        <ele>123.40000152587890625</ele>
        <time>2021-09-27T10:37:37.000Z</time>
      </trkpt>
      <trkpt lat="39.69663198105990886688232421875" lon="-0.33997334539890289306640625">
        <ele>123.1999969482421875</ele>
        <time>2021-09-27T10:37:39.000Z</time>
      </trkpt>
      <trkpt lat="39.69662678427994251251220703125" lon="-0.33992917276918888092041015625">
        <ele>123</ele>
        <time>2021-09-27T10:37:40.000Z</time>
      </trkpt>
      <trkpt lat="39.69662192277610301971435546875" lon="-0.33988541923463344573974609375">
        <ele>122.8000030517578125</ele>
        <time>2021-09-27T10:37:41.000Z</time>
      </trkpt>
      <trkpt lat="39.69660482369363307952880859375" lon="-0.33980143256485462188720703125">
        <ele>122.59999847412109375</ele>
        <time>2021-09-27T10:37:43.000Z</time>
      </trkpt>
      <trkpt lat="39.69658537767827510833740234375" lon="-0.33972046338021755218505859375">
        <ele>122.59999847412109375</ele>
        <time>2021-09-27T10:37:45.000Z</time>
      </trkpt>
      <trkpt lat="39.6965752355754375457763671875" lon="-0.3396791405975818634033203125">
        <ele>122.40000152587890625</ele>
        <time>2021-09-27T10:37:46.000Z</time>
      </trkpt>
      <trkpt lat="39.696562997996807098388671875" lon="-0.3396352194249629974365234375">
        <ele>122.40000152587890625</ele>
        <time>2021-09-27T10:37:47.000Z</time>
      </trkpt>
      <trkpt lat="39.69652787782251834869384765625" lon="-0.33955483697354793548583984375">
        <ele>122.59999847412109375</ele>
        <time>2021-09-27T10:37:49.000Z</time>
      </trkpt>
      <trkpt lat="39.69651111401617527008056640625" lon="-0.3395185433328151702880859375">
        <ele>122.59999847412109375</ele>
        <time>2021-09-27T10:37:50.000Z</time>
      </trkpt>
      <trkpt lat="39.69650222919881343841552734375" lon="-0.33947654999792575836181640625">
        <ele>122.59999847412109375</ele>
        <time>2021-09-27T10:37:51.000Z</time>
      </trkpt>
      <trkpt lat="39.69647909514605998992919921875" lon="-0.33940094523131847381591796875">
        <ele>122.59999847412109375</ele>
        <time>2021-09-27T10:37:53.000Z</time>
      </trkpt>
      <trkpt lat="39.6964468248188495635986328125" lon="-0.3393277712166309356689453125">
        <ele>122.59999847412109375</ele>
        <time>2021-09-27T10:37:55.000Z</time>
      </trkpt>
      <trkpt lat="39.69641220755875110626220703125" lon="-0.3392489813268184661865234375">
        <ele>122.59999847412109375</ele>
        <time>2021-09-27T10:37:57.000Z</time>
      </trkpt>
      <trkpt lat="39.69637700356543064117431640625" lon="-0.3391698561608791351318359375">
        <ele>122.59999847412109375</ele>
        <time>2021-09-27T10:37:59.000Z</time>
      </trkpt>
      <trkpt lat="39.69634599052369594573974609375" lon="-0.3390920720994472503662109375">
        <ele>122.59999847412109375</ele>
        <time>2021-09-27T10:38:01.000Z</time>
      </trkpt>
      <trkpt lat="39.6963301487267017364501953125" lon="-0.33905410207808017730712890625">
        <ele>122.59999847412109375</ele>
        <time>2021-09-27T10:38:02.000Z</time>
      </trkpt>
      <trkpt lat="39.6963127143681049346923828125" lon="-0.33901889808475971221923828125">
        <ele>122.59999847412109375</ele>
        <time>2021-09-27T10:38:03.000Z</time>
      </trkpt>
      <trkpt lat="39.69628564082086086273193359375" lon="-0.33895988948643207550048828125">
        <ele>122.59999847412109375</ele>
        <time>2021-09-27T10:38:05.000Z</time>
      </trkpt>
      <trkpt lat="39.6962602436542510986328125" lon="-0.338908173143863677978515625">
        <ele>122.8000030517578125</ele>
        <time>2021-09-27T10:38:07.000Z</time>
      </trkpt>
      <trkpt lat="39.69624524004757404327392578125" lon="-0.33888612873852252960205078125">
        <ele>122.8000030517578125</ele>
        <time>2021-09-27T10:38:08.000Z</time>
      </trkpt>
      <trkpt lat="39.69622931443154811859130859375" lon="-0.3388637490570545196533203125">
        <ele>123</ele>
        <time>2021-09-27T10:38:09.000Z</time>
      </trkpt>
      <trkpt lat="39.69619897194206714630126953125" lon="-0.3388235159218311309814453125">
        <ele>123.1999969482421875</ele>
        <time>2021-09-27T10:38:11.000Z</time>
      </trkpt>
      <trkpt lat="39.69616175629198551177978515625" lon="-0.338785462081432342529296875">
        <ele>123.40000152587890625</ele>
        <time>2021-09-27T10:38:13.000Z</time>
      </trkpt>
      <trkpt lat="39.69612588174641132354736328125" lon="-0.33875830471515655517578125">
        <ele>123.59999847412109375</ele>
        <time>2021-09-27T10:38:15.000Z</time>
      </trkpt>
      <trkpt lat="39.696100316941738128662109375" lon="-0.33873575739562511444091796875">
        <ele>124</ele>
        <time>2021-09-27T10:38:17.000Z</time>
      </trkpt>
      <trkpt lat="39.69607441686093807220458984375" lon="-0.3387249447405338287353515625">
        <ele>124.1999969482421875</ele>
        <time>2021-09-27T10:38:19.000Z</time>
      </trkpt>
      <trkpt lat="39.69606385566294193267822265625" lon="-0.338711030781269073486328125">
        <ele>124.1999969482421875</ele>
        <time>2021-09-27T10:38:20.000Z</time>
      </trkpt>
      <trkpt lat="39.69605145044624805450439453125" lon="-0.3386967815458774566650390625">
        <ele>124.40000152587890625</ele>
        <time>2021-09-27T10:38:21.000Z</time>
      </trkpt>
      <trkpt lat="39.69602697528898715972900390625" lon="-0.33866836689412593841552734375">
        <ele>124.8000030517578125</ele>
        <time>2021-09-27T10:38:23.000Z</time>
      </trkpt>
      <trkpt lat="39.69602211378514766693115234375" lon="-0.33866786397993564605712890625">
        <ele>124.8000030517578125</ele>
        <time>2021-09-27T10:38:24.000Z</time>
      </trkpt>
      <trkpt lat="39.6951653994619846343994140625" lon="-0.3374004364013671875">
        <ele>119.59999847412109375</ele>
        <time>2021-09-27T10:39:26.000Z</time>
      </trkpt>
      <trkpt lat="39.69514570198953151702880859375" lon="-0.33737369813024997711181640625">
        <ele>119.40000152587890625</ele>
        <time>2021-09-27T10:39:27.000Z</time>
      </trkpt>
      <trkpt lat="39.6951234899461269378662109375" lon="-0.33734670840203762054443359375">
        <ele>119.1999969482421875</ele>
        <time>2021-09-27T10:39:28.000Z</time>
      </trkpt>
      <trkpt lat="39.6951027028262615203857421875" lon="-0.337323658168315887451171875">
        <ele>119</ele>
        <time>2021-09-27T10:39:29.000Z</time>
      </trkpt>
      <trkpt lat="39.69507529400289058685302734375" lon="-0.3372892923653125762939453125">
        <ele>118.59999847412109375</ele>
        <time>2021-09-27T10:39:30.000Z</time>
      </trkpt>
      <trkpt lat="39.69502768479287624359130859375" lon="-0.33722416497766971588134765625">
        <ele>118.1999969482421875</ele>
        <time>2021-09-27T10:39:32.000Z</time>
      </trkpt>
      <trkpt lat="39.6949759684503078460693359375" lon="-0.33716700039803981781005859375">
        <ele>117.8000030517578125</ele>
        <time>2021-09-27T10:39:34.000Z</time>
      </trkpt>
      <trkpt lat="39.69492995180189609527587890625" lon="-0.33711855299770832061767578125">
        <ele>117.1999969482421875</ele>
        <time>2021-09-27T10:39:36.000Z</time>
      </trkpt>
      <trkpt lat="39.694906063377857208251953125" lon="-0.33709810115396976470947265625">
        <ele>117</ele>
        <time>2021-09-27T10:39:37.000Z</time>
      </trkpt>
      <trkpt lat="39.69488452188670635223388671875" lon="-0.33706993795931339263916015625">
        <ele>116.59999847412109375</ele>
        <time>2021-09-27T10:39:38.000Z</time>
      </trkpt>
      <trkpt lat="39.69485183246433734893798828125" lon="-0.3370190598070621490478515625">
        <ele>115.8000030517578125</ele>
        <time>2021-09-27T10:39:40.000Z</time>
      </trkpt>
      <trkpt lat="39.694839008152484893798828125" lon="-0.3369952552020549774169921875">
        <ele>115.59999847412109375</ele>
        <time>2021-09-27T10:39:41.000Z</time>
      </trkpt>
      <trkpt lat="39.6948198974132537841796875" lon="-0.336976982653141021728515625">
        <ele>115.1999969482421875</ele>
        <time>2021-09-27T10:39:42.000Z</time>
      </trkpt>
      <trkpt lat="39.69478494487702846527099609375" lon="-0.33693146891891956329345703125">
        <ele>114.59999847412109375</ele>
        <time>2021-09-27T10:39:44.000Z</time>
      </trkpt>
      <trkpt lat="39.694742448627948760986328125" lon="-0.3368747234344482421875">
        <ele>114</ele>
        <time>2021-09-27T10:39:46.000Z</time>
      </trkpt>
      <trkpt lat="39.694714955985546112060546875" lon="-0.33684211783111095428466796875">
        <ele>113.8000030517578125</ele>
        <time>2021-09-27T10:39:47.000Z</time>
      </trkpt>
      <trkpt lat="39.694690145552158355712890625" lon="-0.33679895102977752685546875">
        <ele>113.59999847412109375</ele>
        <time>2021-09-27T10:39:48.000Z</time>
      </trkpt>
      <trkpt lat="39.69464111141860485076904296875" lon="-0.33672292716801166534423828125">
        <ele>113</ele>
        <time>2021-09-27T10:39:50.000Z</time>
      </trkpt>
      <trkpt lat="39.6945840306580066680908203125" lon="-0.336660481989383697509765625">
        <ele>112.59999847412109375</ele>
        <time>2021-09-27T10:39:52.000Z</time>
      </trkpt>
      <trkpt lat="39.69452376477420330047607421875" lon="-0.33657154999673366546630859375">
        <ele>112</ele>
        <time>2021-09-27T10:39:54.000Z</time>
      </trkpt>
      <trkpt lat="39.69445939175784587860107421875" lon="-0.33647331409156322479248046875">
        <ele>111.59999847412109375</ele>
        <time>2021-09-27T10:39:56.000Z</time>
      </trkpt>
      <trkpt lat="39.69439552165567874908447265625" lon="-0.3363800235092639923095703125">
        <ele>111.40000152587890625</ele>
        <time>2021-09-27T10:39:58.000Z</time>
      </trkpt>
      <trkpt lat="39.69432477839291095733642578125" lon="-0.33628664910793304443359375">
        <ele>111.59999847412109375</ele>
        <time>2021-09-27T10:40:00.000Z</time>
      </trkpt>
      <trkpt lat="39.6942564658820629119873046875" lon="-0.3362003155052661895751953125">
        <ele>111.59999847412109375</ele>
        <time>2021-09-27T10:40:02.000Z</time>
      </trkpt>
      <trkpt lat="39.69418982975184917449951171875" lon="-0.33610953949391841888427734375">
        <ele>111.8000030517578125</ele>
        <time>2021-09-27T10:40:04.000Z</time>
      </trkpt>
      <trkpt lat="39.6941600739955902099609375" lon="-0.3360648639500141143798828125">
        <ele>111.59999847412109375</ele>
        <time>2021-09-27T10:40:05.000Z</time>
      </trkpt>
      <trkpt lat="39.69412780366837978363037109375" lon="-0.3360202722251415252685546875">
        <ele>111.59999847412109375</ele>
        <time>2021-09-27T10:40:06.000Z</time>
      </trkpt>
      <trkpt lat="39.69405890442430973052978515625" lon="-0.33592312596738338470458984375">
        <ele>111.8000030517578125</ele>
        <time>2021-09-27T10:40:08.000Z</time>
      </trkpt>
      <trkpt lat="39.6940241195261478424072265625" lon="-0.335868895053863525390625">
        <ele>112</ele>
        <time>2021-09-27T10:40:09.000Z</time>
      </trkpt>
      <trkpt lat="39.69398598186671733856201171875" lon="-0.33581323921680450439453125">
        <ele>112.1999969482421875</ele>
        <time>2021-09-27T10:40:10.000Z</time>
      </trkpt>
      <trkpt lat="39.69391289167106151580810546875" lon="-0.33569413237273693084716796875">
        <ele>112.40000152587890625</ele>
        <time>2021-09-27T10:40:12.000Z</time>
      </trkpt>
      <trkpt lat="39.69387986697256565093994140625" lon="-0.33563177101314067840576171875">
        <ele>112.59999847412109375</ele>
        <time>2021-09-27T10:40:13.000Z</time>
      </trkpt>
      <trkpt lat="39.6938434056937694549560546875" lon="-0.33557116985321044921875">
        <ele>112.8000030517578125</ele>
        <time>2021-09-27T10:40:14.000Z</time>
      </trkpt>
      <trkpt lat="39.69380669295787811279296875" lon="-0.33550989814102649688720703125">
        <ele>113</ele>
        <time>2021-09-27T10:40:15.000Z</time>
      </trkpt>
      <trkpt lat="39.6937693096697330474853515625" lon="-0.33544887788593769073486328125">
        <ele>113.1999969482421875</ele>
        <time>2021-09-27T10:40:16.000Z</time>
      </trkpt>
      <trkpt lat="39.69369261525571346282958984375" lon="-0.3353356383740901947021484375">
        <ele>113</ele>
        <time>2021-09-27T10:40:18.000Z</time>
      </trkpt>
      <trkpt lat="39.6936157532036304473876953125" lon="-0.335230194032192230224609375">
        <ele>112.8000030517578125</ele>
        <time>2021-09-27T10:40:20.000Z</time>
      </trkpt>
      <trkpt lat="39.69357593916356563568115234375" lon="-0.33517797477543354034423828125">
        <ele>112.8000030517578125</ele>
        <time>2021-09-27T10:40:21.000Z</time>
      </trkpt>
      <trkpt lat="39.6935383044183254241943359375" lon="-0.33512927591800689697265625">
        <ele>112.59999847412109375</ele>
        <time>2021-09-27T10:40:22.000Z</time>
      </trkpt>
      <trkpt lat="39.693466387689113616943359375" lon="-0.3350399248301982879638671875">
        <ele>112.59999847412109375</ele>
        <time>2021-09-27T10:40:24.000Z</time>
      </trkpt>
      <trkpt lat="39.69339338131248950958251953125" lon="-0.3349621407687664031982421875">
        <ele>112.59999847412109375</ele>
        <time>2021-09-27T10:40:26.000Z</time>
      </trkpt>
      <trkpt lat="39.69335876405239105224609375" lon="-0.3349198959767818450927734375">
        <ele>112.40000152587890625</ele>
        <time>2021-09-27T10:40:27.000Z</time>
      </trkpt>
      <trkpt lat="39.6933203749358654022216796875" lon="-0.334881506860256195068359375">
        <ele>112.1999969482421875</ele>
        <time>2021-09-27T10:40:28.000Z</time>
      </trkpt>
      <trkpt lat="39.69324183650314807891845703125" lon="-0.33479978330433368682861328125">
        <ele>111.59999847412109375</ele>
        <time>2021-09-27T10:40:30.000Z</time>
      </trkpt>
      <trkpt lat="39.69316690228879451751708984375" lon="-0.33470791764557361602783203125">
        <ele>111</ele>
        <time>2021-09-27T10:40:32.000Z</time>
      </trkpt>
      <trkpt lat="39.69308308325707912445068359375" lon="-0.33461320213973522186279296875">
        <ele>110.59999847412109375</ele>
        <time>2021-09-27T10:40:34.000Z</time>
      </trkpt>
      <trkpt lat="39.69299440272152423858642578125" lon="-0.3344981186091899871826171875">
        <ele>110.40000152587890625</ele>
        <time>2021-09-27T10:40:36.000Z</time>
      </trkpt>
      <trkpt lat="39.692888371646404266357421875" lon="-0.334366522729396820068359375">
        <ele>109.40000152587890625</ele>
        <time>2021-09-27T10:40:38.000Z</time>
      </trkpt>
      <trkpt lat="39.6927762217819690704345703125" lon="-0.33422126434743404388427734375">
        <ele>108.1999969482421875</ele>
        <time>2021-09-27T10:40:40.000Z</time>
      </trkpt>
      <trkpt lat="39.6926535107195377349853515625" lon="-0.33408455550670623779296875">
        <ele>107.1999969482421875</ele>
        <time>2021-09-27T10:40:42.000Z</time>
      </trkpt>
      <trkpt lat="39.69251126982271671295166015625" lon="-0.33396276645362377166748046875">
        <ele>106.1999969482421875</ele>
        <time>2021-09-27T10:40:44.000Z</time>
      </trkpt>
      <trkpt lat="39.69236944802105426788330078125" lon="-0.33384441398084163665771484375">
        <ele>105</ele>
        <time>2021-09-27T10:40:46.000Z</time>
      </trkpt>
      <trkpt lat="39.69222678802907466888427734375" lon="-0.333740897476673126220703125">
        <ele>104</ele>
        <time>2021-09-27T10:40:48.000Z</time>
      </trkpt>
      <trkpt lat="39.6920798532664775848388671875" lon="-0.3336461819708347320556640625">
        <ele>103.8000030517578125</ele>
        <time>2021-09-27T10:40:50.000Z</time>
      </trkpt>
      <trkpt lat="39.69193610362708568572998046875" lon="-0.3335501253604888916015625">
        <ele>103.40000152587890625</ele>
        <time>2021-09-27T10:40:52.000Z</time>
      </trkpt>
      <trkpt lat="39.69179545529186725616455078125" lon="-0.33345499075949192047119140625">
        <ele>102.59999847412109375</ele>
        <time>2021-09-27T10:40:54.000Z</time>
      </trkpt>
      <trkpt lat="39.69172521494328975677490234375" lon="-0.333407633006572723388671875">
        <ele>102.1999969482421875</ele>
        <time>2021-09-27T10:40:55.000Z</time>
      </trkpt>
      <trkpt lat="39.6916563995182514190673828125" lon="-0.3333595208823680877685546875">
        <ele>101.8000030517578125</ele>
        <time>2021-09-27T10:40:56.000Z</time>
      </trkpt>
      <trkpt lat="39.69158909283578395843505859375" lon="-0.33330394886434078216552734375">
        <ele>101.8000030517578125</ele>
        <time>2021-09-27T10:40:57.000Z</time>
      </trkpt>
      <trkpt lat="39.69152907840907573699951171875" lon="-0.333238653838634490966796875">
        <ele>101.8000030517578125</ele>
        <time>2021-09-27T10:40:58.000Z</time>
      </trkpt>
      <trkpt lat="39.69148079864680767059326171875" lon="-0.33316547982394695281982421875">
        <ele>101.8000030517578125</ele>
        <time>2021-09-27T10:40:59.000Z</time>
      </trkpt>
      <trkpt lat="39.69145028851926326751708984375" lon="-0.3330780565738677978515625">
        <ele>101.59999847412109375</ele>
        <time>2021-09-27T10:41:00.000Z</time>
      </trkpt>
      <trkpt lat="39.6914364583790302276611328125" lon="-0.33298208378255367279052734375">
        <ele>101.40000152587890625</ele>
        <time>2021-09-27T10:41:01.000Z</time>
      </trkpt>
      <trkpt lat="39.691427238285541534423828125" lon="-0.33288502134382724761962890625">
        <ele>100.8000030517578125</ele>
        <time>2021-09-27T10:41:02.000Z</time>
      </trkpt>
      <trkpt lat="39.691413156688213348388671875" lon="-0.33279717899858951568603515625">
        <ele>100.1999969482421875</ele>
        <time>2021-09-27T10:41:03.000Z</time>
      </trkpt>
      <trkpt lat="39.6913818083703517913818359375" lon="-0.33272241242229938507080078125">
        <ele>100</ele>
        <time>2021-09-27T10:41:04.000Z</time>
      </trkpt>
      <trkpt lat="39.6913325227797031402587890625" lon="-0.332657955586910247802734375">
        <ele>100</ele>
        <time>2021-09-27T10:41:05.000Z</time>
      </trkpt>
      <trkpt lat="39.6912741847336292266845703125" lon="-0.332614369690418243408203125">
        <ele>100.1999969482421875</ele>
        <time>2021-09-27T10:41:06.000Z</time>
      </trkpt>
      <trkpt lat="39.6912123262882232666015625" lon="-0.3325974382460117340087890625">
        <ele>100.59999847412109375</ele>
        <time>2021-09-27T10:41:07.000Z</time>
      </trkpt>
      <trkpt lat="39.691150300204753875732421875" lon="-0.33260640688240528106689453125">
        <ele>100.8000030517578125</ele>
        <time>2021-09-27T10:41:08.000Z</time>
      </trkpt>
      <trkpt lat="39.69109456054866313934326171875" lon="-0.332637839019298553466796875">
        <ele>101.1999969482421875</ele>
        <time>2021-09-27T10:41:09.000Z</time>
      </trkpt>
      <trkpt lat="39.691050052642822265625" lon="-0.332683436572551727294921875">
        <ele>101.40000152587890625</ele>
        <time>2021-09-27T10:41:10.000Z</time>
      </trkpt>
      <trkpt lat="39.691012836992740631103515625" lon="-0.3327328898012638092041015625">
        <ele>101.8000030517578125</ele>
        <time>2021-09-27T10:41:11.000Z</time>
      </trkpt>
      <trkpt lat="39.6909734420478343963623046875" lon="-0.33277505077421665191650390625">
        <ele>102.1999969482421875</ele>
        <time>2021-09-27T10:41:12.000Z</time>
      </trkpt>
      <trkpt lat="39.6909333765506744384765625" lon="-0.33281008712947368621826171875">
        <ele>102.40000152587890625</ele>
        <time>2021-09-27T10:41:13.000Z</time>
      </trkpt>
      <trkpt lat="39.69089356251060962677001953125" lon="-0.332844369113445281982421875">
        <ele>102.59999847412109375</ele>
        <time>2021-09-27T10:41:14.000Z</time>
      </trkpt>
      <trkpt lat="39.6908594481647014617919921875" lon="-0.33288334496319293975830078125">
        <ele>103</ele>
        <time>2021-09-27T10:41:15.000Z</time>
      </trkpt>
      <trkpt lat="39.69083053059875965118408203125" lon="-0.33292743377387523651123046875">
        <ele>103.1999969482421875</ele>
        <time>2021-09-27T10:41:16.000Z</time>
      </trkpt>
      <trkpt lat="39.69078727997839450836181640625" lon="-0.33301435410976409912109375">
        <ele>103.59999847412109375</ele>
        <time>2021-09-27T10:41:18.000Z</time>
      </trkpt>
      <trkpt lat="39.69076280482113361358642578125" lon="-0.33306129276752471923828125">
        <ele>103.59999847412109375</ele>
        <time>2021-09-27T10:41:19.000Z</time>
      </trkpt>
      <trkpt lat="39.6907410956919193267822265625" lon="-0.33310881815850734710693359375">
        <ele>103.8000030517578125</ele>
        <time>2021-09-27T10:41:20.000Z</time>
      </trkpt>
      <trkpt lat="39.69070429913699626922607421875" lon="-0.333212502300739288330078125">
        <ele>104</ele>
        <time>2021-09-27T10:41:22.000Z</time>
      </trkpt>
      <trkpt lat="39.690660126507282257080078125" lon="-0.33330763690173625946044921875">
        <ele>104.40000152587890625</ele>
        <time>2021-09-27T10:41:24.000Z</time>
      </trkpt>
      <trkpt lat="39.69061553478240966796875" lon="-0.33331115730106830596923828125">
        <ele>104.59999847412109375</ele>
        <time>2021-09-27T10:41:26.000Z</time>
      </trkpt>
      <trkpt lat="39.69060941599309444427490234375" lon="-0.3333112411201000213623046875">
        <ele>104.59999847412109375</ele>
        <time>2021-09-27T10:41:27.000Z</time>
      </trkpt>
      <trkpt lat="39.69060941599309444427490234375" lon="-0.3333112411201000213623046875">
        <ele>104.59999847412109375</ele>
        <time>2021-09-27T10:41:28.000Z</time>
      </trkpt>
      <trkpt lat="39.69058980233967304229736328125" lon="-0.333293639123439788818359375">
        <ele>104.59999847412109375</ele>
        <time>2021-09-27T10:41:31.000Z</time>
      </trkpt>
      <trkpt lat="39.6905791573226451873779296875" lon="-0.3332790546119213104248046875">
        <ele>104.59999847412109375</ele>
        <time>2021-09-27T10:41:32.000Z</time>
      </trkpt>
      <trkpt lat="39.690566919744014739990234375" lon="-0.3332609497010707855224609375">
        <ele>104.59999847412109375</ele>
        <time>2021-09-27T10:41:33.000Z</time>
      </trkpt>
      <trkpt lat="39.69055325724184513092041015625" lon="-0.33323739655315876007080078125">
        <ele>104.59999847412109375</ele>
        <time>2021-09-27T10:41:34.000Z</time>
      </trkpt>
      <trkpt lat="39.69052056781947612762451171875" lon="-0.33319900743663311004638671875">
        <ele>104.8000030517578125</ele>
        <time>2021-09-27T10:41:36.000Z</time>
      </trkpt>
      <trkpt lat="39.6904728747904300689697265625" lon="-0.33317151479423046112060546875">
        <ele>104.8000030517578125</ele>
        <time>2021-09-27T10:41:38.000Z</time>
      </trkpt>
      <trkpt lat="39.69041143544018268585205078125" lon="-0.33313815481960773468017578125">
        <ele>105</ele>
        <time>2021-09-27T10:41:40.000Z</time>
      </trkpt>
      <trkpt lat="39.690349996089935302734375" lon="-0.33309842459857463836669921875">
        <ele>105.1999969482421875</ele>
        <time>2021-09-27T10:41:42.000Z</time>
      </trkpt>
      <trkpt lat="39.69032074324786663055419921875" lon="-0.33307738602161407470703125">
        <ele>105.40000152587890625</ele>
        <time>2021-09-27T10:41:43.000Z</time>
      </trkpt>
      <trkpt lat="39.69028872437775135040283203125" lon="-0.33305601216852664947509765625">
        <ele>105.40000152587890625</ele>
        <time>2021-09-27T10:41:44.000Z</time>
      </trkpt>
      <trkpt lat="39.69021513126790523529052734375" lon="-0.33301242627203464508056640625">
        <ele>105.59999847412109375</ele>
        <time>2021-09-27T10:41:46.000Z</time>
      </trkpt>
      <trkpt lat="39.69013743102550506591796875" lon="-0.332964397966861724853515625">
        <ele>105.59999847412109375</ele>
        <time>2021-09-27T10:41:48.000Z</time>
      </trkpt>
      <trkpt lat="39.69005486927926540374755859375" lon="-0.33291284926235675811767578125">
        <ele>105.40000152587890625</ele>
        <time>2021-09-27T10:41:50.000Z</time>
      </trkpt>
      <trkpt lat="39.6899696253240108489990234375" lon="-0.3328569419682025909423828125">
        <ele>105.40000152587890625</ele>
        <time>2021-09-27T10:41:52.000Z</time>
      </trkpt>
      <trkpt lat="39.6898814477026462554931640625" lon="-0.3327986039221286773681640625">
        <ele>105.40000152587890625</ele>
        <time>2021-09-27T10:41:54.000Z</time>
      </trkpt>
      <trkpt lat="39.6897929348051548004150390625" lon="-0.33274068497121334075927734375">
        <ele>105.1999969482421875</ele>
        <time>2021-09-27T10:41:56.000Z</time>
      </trkpt>
      <trkpt lat="39.689751528203487396240234375" lon="-0.33271118067204952239990234375">
        <ele>105.1999969482421875</ele>
        <time>2021-09-27T10:41:57.000Z</time>
      </trkpt>
      <trkpt lat="39.68971137888729572296142578125" lon="-0.3326789103448390960693359375">
        <ele>105.1999969482421875</ele>
        <time>2021-09-27T10:41:58.000Z</time>
      </trkpt>
      <trkpt lat="39.68967064283788204193115234375" lon="-0.3326462209224700927734375">
        <ele>105.1999969482421875</ele>
        <time>2021-09-27T10:41:59.000Z</time>
      </trkpt>
      <trkpt lat="39.68962378799915313720703125" lon="-0.3326188959181308746337890625">
        <ele>105</ele>
        <time>2021-09-27T10:42:00.000Z</time>
      </trkpt>
      <trkpt lat="39.68953854404389858245849609375" lon="-0.33256315626204013824462890625">
        <ele>105</ele>
        <time>2021-09-27T10:42:02.000Z</time>
      </trkpt>
      <trkpt lat="39.68949479050934314727783203125" lon="-0.33253465779125690460205078125">
        <ele>105</ele>
        <time>2021-09-27T10:42:03.000Z</time>
      </trkpt>
      <trkpt lat="39.6894512884318828582763671875" lon="-0.3325075842440128326416015625">
        <ele>105</ele>
        <time>2021-09-27T10:42:04.000Z</time>
      </trkpt>
      <trkpt lat="39.68936906196177005767822265625" lon="-0.3324556164443492889404296875">
        <ele>105.1999969482421875</ele>
        <time>2021-09-27T10:42:06.000Z</time>
      </trkpt>
      <trkpt lat="39.68928893096745014190673828125" lon="-0.332398451864719390869140625">
        <ele>105.1999969482421875</ele>
        <time>2021-09-27T10:42:08.000Z</time>
      </trkpt>
      <trkpt lat="39.6892008371651172637939453125" lon="-0.33234723843634128570556640625">
        <ele>105</ele>
        <time>2021-09-27T10:42:10.000Z</time>
      </trkpt>
      <trkpt lat="39.6891555748879909515380859375" lon="-0.33231505192816257476806640625">
        <ele>104.8000030517578125</ele>
        <time>2021-09-27T10:42:11.000Z</time>
      </trkpt>
      <trkpt lat="39.68910704366862773895263671875" lon="-0.33228605054318904876708984375">
        <ele>104.59999847412109375</ele>
        <time>2021-09-27T10:42:12.000Z</time>
      </trkpt>
      <trkpt lat="39.689005874097347259521484375" lon="-0.3322222642600536346435546875">
        <ele>104.1999969482421875</ele>
        <time>2021-09-27T10:42:14.000Z</time>
      </trkpt>
      <trkpt lat="39.68890302814543247222900390625" lon="-0.3321578912436962127685546875">
        <ele>103.8000030517578125</ele>
        <time>2021-09-27T10:42:16.000Z</time>
      </trkpt>
      <trkpt lat="39.68885424546897411346435546875" lon="-0.33212763257324695587158203125">
        <ele>103.8000030517578125</ele>
        <time>2021-09-27T10:42:17.000Z</time>
      </trkpt>
      <trkpt lat="39.6888052113354206085205078125" lon="-0.33209695480763912200927734375">
        <ele>103.59999847412109375</ele>
        <time>2021-09-27T10:42:18.000Z</time>
      </trkpt>
      <trkpt lat="39.68871376477181911468505859375" lon="-0.33203207887709140777587890625">
        <ele>103.40000152587890625</ele>
        <time>2021-09-27T10:42:20.000Z</time>
      </trkpt>
      <trkpt lat="39.688622988760471343994140625" lon="-0.33197172917425632476806640625">
        <ele>103.1999969482421875</ele>
        <time>2021-09-27T10:42:22.000Z</time>
      </trkpt>
      <trkpt lat="39.688535146415233612060546875" lon="-0.33191263675689697265625">
        <ele>103</ele>
        <time>2021-09-27T10:42:24.000Z</time>
      </trkpt>
      <trkpt lat="39.68849030323326587677001953125" lon="-0.33188103698194026947021484375">
        <ele>103</ele>
        <time>2021-09-27T10:42:25.000Z</time>
      </trkpt>
      <trkpt lat="39.68844470568001270294189453125" lon="-0.331852622330188751220703125">
        <ele>102.8000030517578125</ele>
        <time>2021-09-27T10:42:26.000Z</time>
      </trkpt>
      <trkpt lat="39.688351415097713470458984375" lon="-0.33179554156959056854248046875">
        <ele>102.8000030517578125</ele>
        <time>2021-09-27T10:42:28.000Z</time>
      </trkpt>
      <trkpt lat="39.68826030381023883819580078125" lon="-0.33173552714288234710693359375">
        <ele>102.59999847412109375</ele>
        <time>2021-09-27T10:42:30.000Z</time>
      </trkpt>
      <trkpt lat="39.6882131136953830718994140625" lon="-0.33170887269079685211181640625">
        <ele>102.40000152587890625</ele>
        <time>2021-09-27T10:42:31.000Z</time>
      </trkpt>
      <trkpt lat="39.6881631575524806976318359375" lon="-0.33168129622936248779296875">
        <ele>102.1999969482421875</ele>
        <time>2021-09-27T10:42:32.000Z</time>
      </trkpt>
      <trkpt lat="39.68806668184697628021240234375" lon="-0.3316194377839565277099609375">
        <ele>101.59999847412109375</ele>
        <time>2021-09-27T10:42:34.000Z</time>
      </trkpt>
      <trkpt lat="39.68797414563596248626708984375" lon="-0.33155850134789943695068359375">
        <ele>101.1999969482421875</ele>
        <time>2021-09-27T10:42:36.000Z</time>
      </trkpt>
      <trkpt lat="39.6878781728446483612060546875" lon="-0.3314994089305400848388671875">
        <ele>100.59999847412109375</ele>
        <time>2021-09-27T10:42:38.000Z</time>
      </trkpt>
      <trkpt lat="39.68778588809072971343994140625" lon="-0.33143989741802215576171875">
        <ele>100.59999847412109375</ele>
        <time>2021-09-27T10:42:40.000Z</time>
      </trkpt>
      <trkpt lat="39.68769201077520847320556640625" lon="-0.33137426711618900299072265625">
        <ele>100.59999847412109375</ele>
        <time>2021-09-27T10:42:42.000Z</time>
      </trkpt>
      <trkpt lat="39.68759561888873577117919921875" lon="-0.3313106484711170196533203125">
        <ele>100.59999847412109375</ele>
        <time>2021-09-27T10:42:44.000Z</time>
      </trkpt>
      <trkpt lat="39.68749344348907470703125" lon="-0.33125088550150394439697265625">
        <ele>101</ele>
        <time>2021-09-27T10:42:46.000Z</time>
      </trkpt>
      <trkpt lat="39.68744172714650630950927734375" lon="-0.33121886663138866424560546875">
        <ele>101</ele>
        <time>2021-09-27T10:42:47.000Z</time>
      </trkpt>
      <trkpt lat="39.68738925643265247344970703125" lon="-0.3311870992183685302734375">
        <ele>101.1999969482421875</ele>
        <time>2021-09-27T10:42:48.000Z</time>
      </trkpt>
      <trkpt lat="39.68729068525135517120361328125" lon="-0.33112951554358005523681640625">
        <ele>101.40000152587890625</ele>
        <time>2021-09-27T10:42:50.000Z</time>
      </trkpt>
      <trkpt lat="39.687196053564548492431640625" lon="-0.3310736082494258880615234375">
        <ele>101.59999847412109375</ele>
        <time>2021-09-27T10:42:52.000Z</time>
      </trkpt>
      <trkpt lat="39.6871482767164707183837890625" lon="-0.331039912998676300048828125">
        <ele>101.59999847412109375</ele>
        <time>2021-09-27T10:42:53.000Z</time>
      </trkpt>
      <trkpt lat="39.6871036849915981292724609375" lon="-0.33100546337664127349853515625">
        <ele>101.40000152587890625</ele>
        <time>2021-09-27T10:42:54.000Z</time>
      </trkpt>
      <trkpt lat="39.68702070415019989013671875" lon="-0.3309508971869945526123046875">
        <ele>101.40000152587890625</ele>
        <time>2021-09-27T10:42:56.000Z</time>
      </trkpt>
      <trkpt lat="39.68694367446005344390869140625" lon="-0.33089851029217243194580078125">
        <ele>101.40000152587890625</ele>
        <time>2021-09-27T10:42:58.000Z</time>
      </trkpt>
      <trkpt lat="39.68690495006740093231201171875" lon="-0.33087185584008693695068359375">
        <ele>101.40000152587890625</ele>
        <time>2021-09-27T10:42:59.000Z</time>
      </trkpt>
      <trkpt lat="39.6868644654750823974609375" lon="-0.33084201626479625701904296875">
        <ele>101.1999969482421875</ele>
        <time>2021-09-27T10:43:00.000Z</time>
      </trkpt>
      <trkpt lat="39.68677704222500324249267578125" lon="-0.330778062343597412109375">
        <ele>101.1999969482421875</ele>
        <time>2021-09-27T10:43:02.000Z</time>
      </trkpt>
      <trkpt lat="39.68669121153652667999267578125" lon="-0.3307192213833332061767578125">
        <ele>101.1999969482421875</ele>
        <time>2021-09-27T10:43:04.000Z</time>
      </trkpt>
      <trkpt lat="39.68665265478193759918212890625" lon="-0.33069030381739139556884765625">
        <ele>101.1999969482421875</ele>
        <time>2021-09-27T10:43:05.000Z</time>
      </trkpt>
      <trkpt lat="39.68661325983703136444091796875" lon="-0.33066331408917903900146484375">
        <ele>101.1999969482421875</ele>
        <time>2021-09-27T10:43:06.000Z</time>
      </trkpt>
      <trkpt lat="39.68653815798461437225341796875" lon="-0.330612100660800933837890625">
        <ele>101.1999969482421875</ele>
        <time>2021-09-27T10:43:08.000Z</time>
      </trkpt>
      <trkpt lat="39.68646791763603687286376953125" lon="-0.33055854029953479766845703125">
        <ele>101.1999969482421875</ele>
        <time>2021-09-27T10:43:10.000Z</time>
      </trkpt>
      <trkpt lat="39.68643338419497013092041015625" lon="-0.3305341489613056182861328125">
        <ele>101.1999969482421875</ele>
        <time>2021-09-27T10:43:11.000Z</time>
      </trkpt>
      <trkpt lat="39.68639868311583995819091796875" lon="-0.330509506165981292724609375">
        <ele>101.1999969482421875</ele>
        <time>2021-09-27T10:43:12.000Z</time>
      </trkpt>
      <trkpt lat="39.6863245032727718353271484375" lon="-0.330457873642444610595703125">
        <ele>101.40000152587890625</ele>
        <time>2021-09-27T10:43:14.000Z</time>
      </trkpt>
      <trkpt lat="39.68624244444072246551513671875" lon="-0.33040096051990985870361328125">
        <ele>101.40000152587890625</ele>
        <time>2021-09-27T10:43:16.000Z</time>
      </trkpt>
      <trkpt lat="39.68619969673454761505126953125" lon="-0.33037313260138034820556640625">
        <ele>101.1999969482421875</ele>
        <time>2021-09-27T10:43:17.000Z</time>
      </trkpt>
      <trkpt lat="39.6861588768661022186279296875" lon="-0.33034614287316799163818359375">
        <ele>100.8000030517578125</ele>
        <time>2021-09-27T10:43:18.000Z</time>
      </trkpt>
      <trkpt lat="39.68607547692954540252685546875" lon="-0.33029191195964813232421875">
        <ele>100.1999969482421875</ele>
        <time>2021-09-27T10:43:20.000Z</time>
      </trkpt>
      <trkpt lat="39.68599467538297176361083984375" lon="-0.3302402794361114501953125">
        <ele>99.59999847412109375</ele>
        <time>2021-09-27T10:43:22.000Z</time>
      </trkpt>
      <trkpt lat="39.6859154663980007171630859375" lon="-0.330176241695880889892578125">
        <ele>98.8000030517578125</ele>
        <time>2021-09-27T10:43:24.000Z</time>
      </trkpt>
      <trkpt lat="39.68587347306311130523681640625" lon="-0.33014246262609958648681640625">
        <ele>98.40000152587890625</ele>
        <time>2021-09-27T10:43:25.000Z</time>
      </trkpt>
      <trkpt lat="39.685832820832729339599609375" lon="-0.3301046602427959442138671875">
        <ele>98</ele>
        <time>2021-09-27T10:43:26.000Z</time>
      </trkpt>
      <trkpt lat="39.68575243838131427764892578125" lon="-0.3300215117633342742919921875">
        <ele>97.40000152587890625</ele>
        <time>2021-09-27T10:43:28.000Z</time>
      </trkpt>
      <trkpt lat="39.6856710501015186309814453125" lon="-0.3299296461045742034912109375">
        <ele>97</ele>
        <time>2021-09-27T10:43:30.000Z</time>
      </trkpt>
      <trkpt lat="39.68559184111654758453369140625" lon="-0.3298327513039112091064453125">
        <ele>96.59999847412109375</ele>
        <time>2021-09-27T10:43:32.000Z</time>
      </trkpt>
      <trkpt lat="39.6855114586651325225830078125" lon="-0.3297341801226139068603515625">
        <ele>96.1999969482421875</ele>
        <time>2021-09-27T10:43:34.000Z</time>
      </trkpt>
      <trkpt lat="39.6854135580360889434814453125" lon="-0.3296232037246227264404296875">
        <ele>95.8000030517578125</ele>
        <time>2021-09-27T10:43:36.000Z</time>
      </trkpt>
      <trkpt lat="39.68531758524477481842041015625" lon="-0.329498313367366790771484375">
        <ele>95.40000152587890625</ele>
        <time>2021-09-27T10:43:38.000Z</time>
      </trkpt>
      <trkpt lat="39.68522228300571441650390625" lon="-0.32936789095401763916015625">
        <ele>94.8000030517578125</ele>
        <time>2021-09-27T10:43:40.000Z</time>
      </trkpt>
      <trkpt lat="39.685126058757305145263671875" lon="-0.32923453487455844879150390625">
        <ele>94</ele>
        <time>2021-09-27T10:43:42.000Z</time>
      </trkpt>
      <trkpt lat="39.68502706848084926605224609375" lon="-0.32910235226154327392578125">
        <ele>93.40000152587890625</ele>
        <time>2021-09-27T10:43:44.000Z</time>
      </trkpt>
      <trkpt lat="39.6849763579666614532470703125" lon="-0.32903990708291530609130859375">
        <ele>93.40000152587890625</ele>
        <time>2021-09-27T10:43:45.000Z</time>
      </trkpt>
      <trkpt lat="39.6849247254431247711181640625" lon="-0.32898106612265110015869140625">
        <ele>93.1999969482421875</ele>
        <time>2021-09-27T10:43:46.000Z</time>
      </trkpt>
      <trkpt lat="39.68486957252025604248046875" lon="-0.32892624847590923309326171875">
        <ele>93</ele>
        <time>2021-09-27T10:43:47.000Z</time>
      </trkpt>
      <trkpt lat="39.68480880372226238250732421875" lon="-0.3288815729320049285888671875">
        <ele>93</ele>
        <time>2021-09-27T10:43:48.000Z</time>
      </trkpt>
      <trkpt lat="39.68468240462243556976318359375" lon="-0.328819714486598968505859375">
        <ele>92.8000030517578125</ele>
        <time>2021-09-27T10:43:50.000Z</time>
      </trkpt>
      <trkpt lat="39.68461870215833187103271484375" lon="-0.32879800535738468170166015625">
        <ele>92.8000030517578125</ele>
        <time>2021-09-27T10:43:51.000Z</time>
      </trkpt>
      <trkpt lat="39.684556759893894195556640625" lon="-0.32878342084586620330810546875">
        <ele>93</ele>
        <time>2021-09-27T10:43:52.000Z</time>
      </trkpt>
      <trkpt lat="39.68449263833463191986083984375" lon="-0.3287726081907749176025390625">
        <ele>92.8000030517578125</ele>
        <time>2021-09-27T10:43:53.000Z</time>
      </trkpt>
      <trkpt lat="39.684425331652164459228515625" lon="-0.32876196317374706268310546875">
        <ele>92.8000030517578125</ele>
        <time>2021-09-27T10:43:54.000Z</time>
      </trkpt>
      <trkpt lat="39.6842903830111026763916015625" lon="-0.32873748801648616790771484375">
        <ele>92.8000030517578125</ele>
        <time>2021-09-27T10:43:56.000Z</time>
      </trkpt>
      <trkpt lat="39.68422274105250835418701171875" lon="-0.32872726209461688995361328125">
        <ele>92.8000030517578125</ele>
        <time>2021-09-27T10:43:57.000Z</time>
      </trkpt>
      <trkpt lat="39.6841562725603580474853515625" lon="-0.32871167175471782684326171875">
        <ele>92.59999847412109375</ele>
        <time>2021-09-27T10:43:58.000Z</time>
      </trkpt>
      <trkpt lat="39.68401771970093250274658203125" lon="-0.32868401147425174713134765625">
        <ele>92.59999847412109375</ele>
        <time>2021-09-27T10:44:00.000Z</time>
      </trkpt>
      <trkpt lat="39.68388277105987071990966796875" lon="-0.328655429184436798095703125">
        <ele>92.40000152587890625</ele>
        <time>2021-09-27T10:44:02.000Z</time>
      </trkpt>
      <trkpt lat="39.68374572694301605224609375" lon="-0.32862835563719272613525390625">
        <ele>92.1999969482421875</ele>
        <time>2021-09-27T10:44:04.000Z</time>
      </trkpt>
      <trkpt lat="39.68367858789861202239990234375" lon="-0.32861553132534027099609375">
        <ele>92.1999969482421875</ele>
        <time>2021-09-27T10:44:05.000Z</time>
      </trkpt>
      <trkpt lat="39.6836091019213199615478515625" lon="-0.32860270701348781585693359375">
        <ele>92.1999969482421875</ele>
        <time>2021-09-27T10:44:06.000Z</time>
      </trkpt>
      <trkpt lat="39.68347708694636821746826171875" lon="-0.32858426682651042938232421875">
        <ele>92.40000152587890625</ele>
        <time>2021-09-27T10:44:08.000Z</time>
      </trkpt>
      <trkpt lat="39.6833512745797634124755859375" lon="-0.32856700010597705841064453125">
        <ele>92.59999847412109375</ele>
        <time>2021-09-27T10:44:10.000Z</time>
      </trkpt>
      <trkpt lat="39.6832949481904506683349609375" lon="-0.3285613842308521270751953125">
        <ele>92.8000030517578125</ele>
        <time>2021-09-27T10:44:11.000Z</time>
      </trkpt>
      <trkpt lat="39.683238454163074493408203125" lon="-0.3285523317754268646240234375">
        <ele>92.8000030517578125</ele>
        <time>2021-09-27T10:44:12.000Z</time>
      </trkpt>
      <trkpt lat="39.68312680721282958984375" lon="-0.3285325504839420318603515625">
        <ele>93</ele>
        <time>2021-09-27T10:44:14.000Z</time>
      </trkpt>
      <trkpt lat="39.68302748166024684906005859375" lon="-0.32851939089596271514892578125">
        <ele>93.1999969482421875</ele>
        <time>2021-09-27T10:44:16.000Z</time>
      </trkpt>
      <trkpt lat="39.682934023439884185791015625" lon="-0.3285094164311885833740234375">
        <ele>93.40000152587890625</ele>
        <time>2021-09-27T10:44:18.000Z</time>
      </trkpt>
      <trkpt lat="39.68284190632402896881103515625" lon="-0.3284986875951290130615234375">
        <ele>93.59999847412109375</ele>
        <time>2021-09-27T10:44:20.000Z</time>
      </trkpt>
      <trkpt lat="39.682743586599826812744140625" lon="-0.3284861147403717041015625">
        <ele>94</ele>
        <time>2021-09-27T10:44:22.000Z</time>
      </trkpt>
      <trkpt lat="39.682643003761768341064453125" lon="-0.32847044058144092559814453125">
        <ele>94.1999969482421875</ele>
        <time>2021-09-27T10:44:24.000Z</time>
      </trkpt>
      <trkpt lat="39.68259430490434169769287109375" lon="-0.32846272923052310943603515625">
        <ele>94.40000152587890625</ele>
        <time>2021-09-27T10:44:25.000Z</time>
      </trkpt>
      <trkpt lat="39.68254853971302509307861328125" lon="-0.32845116220414638519287109375">
        <ele>94.40000152587890625</ele>
        <time>2021-09-27T10:44:26.000Z</time>
      </trkpt>
      <trkpt lat="39.6824627928435802459716796875" lon="-0.3284346498548984527587890625">
        <ele>94.59999847412109375</ele>
        <time>2021-09-27T10:44:28.000Z</time>
      </trkpt>
      <trkpt lat="39.68238173983991146087646484375" lon="-0.32841302454471588134765625">
        <ele>94.8000030517578125</ele>
        <time>2021-09-27T10:44:30.000Z</time>
      </trkpt>
      <trkpt lat="39.68229490332305431365966796875" lon="-0.3283863700926303863525390625">
        <ele>95</ele>
        <time>2021-09-27T10:44:32.000Z</time>
      </trkpt>
      <trkpt lat="39.68221074901521205902099609375" lon="-0.32835845835506916046142578125">
        <ele>95.1999969482421875</ele>
        <time>2021-09-27T10:44:34.000Z</time>
      </trkpt>
      <trkpt lat="39.68213103711605072021484375" lon="-0.3283223323523998260498046875">
        <ele>95.40000152587890625</ele>
        <time>2021-09-27T10:44:36.000Z</time>
      </trkpt>
      <trkpt lat="39.68205249868333339691162109375" lon="-0.32828419469296932220458984375">
        <ele>95.40000152587890625</ele>
        <time>2021-09-27T10:44:38.000Z</time>
      </trkpt>
      <trkpt lat="39.68201561830937862396240234375" lon="-0.3282663412392139434814453125">
        <ele>95.40000152587890625</ele>
        <time>2021-09-27T10:44:39.000Z</time>
      </trkpt>
      <trkpt lat="39.681977815926074981689453125" lon="-0.3282475657761096954345703125">
        <ele>95.1999969482421875</ele>
        <time>2021-09-27T10:44:40.000Z</time>
      </trkpt>
      <trkpt lat="39.681907407939434051513671875" lon="-0.32821588218212127685546875">
        <ele>95</ele>
        <time>2021-09-27T10:44:42.000Z</time>
      </trkpt>
      <trkpt lat="39.68184798024594783782958984375" lon="-0.3281795047223567962646484375">
        <ele>94.8000030517578125</ele>
        <time>2021-09-27T10:44:44.000Z</time>
      </trkpt>
      <trkpt lat="39.68181948177516460418701171875" lon="-0.32816383056342601776123046875">
        <ele>94.59999847412109375</ele>
        <time>2021-09-27T10:44:45.000Z</time>
      </trkpt>
      <trkpt lat="39.6817902289330959320068359375" lon="-0.32815477810800075531005859375">
        <ele>94.59999847412109375</ele>
        <time>2021-09-27T10:44:46.000Z</time>
      </trkpt>
      <trkpt lat="39.6817349083721637725830078125" lon="-0.32813499681651592254638671875">
        <ele>94.40000152587890625</ele>
        <time>2021-09-27T10:44:48.000Z</time>
      </trkpt>
      <trkpt lat="39.681681431829929351806640625" lon="-0.32809644006192684173583984375">
        <ele>94.1999969482421875</ele>
        <time>2021-09-27T10:44:50.000Z</time>
      </trkpt>
      <trkpt lat="39.68163725920021533966064453125" lon="-0.32806106843054294586181640625">
        <ele>94</ele>
        <time>2021-09-27T10:44:52.000Z</time>
      </trkpt>
      <trkpt lat="39.68160993419587612152099609375" lon="-0.32806475646793842315673828125">
        <ele>94</ele>
        <time>2021-09-27T10:44:54.000Z</time>
      </trkpt>
      <trkpt lat="39.68160398304462432861328125" lon="-0.32806542702019214630126953125">
        <ele>94</ele>
        <time>2021-09-27T10:44:55.000Z</time>
      </trkpt>
      <trkpt lat="39.681600965559482574462890625" lon="-0.32806542702019214630126953125">
        <ele>94</ele>
        <time>2021-09-27T10:44:56.000Z</time>
      </trkpt>
      <trkpt lat="39.681600965559482574462890625" lon="-0.32806542702019214630126953125">
        <ele>94</ele>
        <time>2021-09-27T10:44:57.000Z</time>
      </trkpt>
      <trkpt lat="39.6815847046673297882080078125" lon="-0.3280537761747837066650390625">
        <ele>93.8000030517578125</ele>
        <time>2021-09-27T10:45:15.000Z</time>
      </trkpt>
      <trkpt lat="39.68156249262392520904541015625" lon="-0.3280410356819629669189453125">
        <ele>93.8000030517578125</ele>
        <time>2021-09-27T10:45:16.000Z</time>
      </trkpt>
      <trkpt lat="39.68150516040623188018798828125" lon="-0.3280202485620975494384765625">
        <ele>93.59999847412109375</ele>
        <time>2021-09-27T10:45:18.000Z</time>
      </trkpt>
      <trkpt lat="39.6814438886940479278564453125" lon="-0.32800138927996158599853515625">
        <ele>93.40000152587890625</ele>
        <time>2021-09-27T10:45:20.000Z</time>
      </trkpt>
      <trkpt lat="39.68139418400824069976806640625" lon="-0.328005664050579071044921875">
        <ele>93.40000152587890625</ele>
        <time>2021-09-27T10:45:22.000Z</time>
      </trkpt>
      <trkpt lat="39.68134137801826000213623046875" lon="-0.32806299626827239990234375">
        <ele>93.59999847412109375</ele>
        <time>2021-09-27T10:45:24.000Z</time>
      </trkpt>
      <trkpt lat="39.68130902387201786041259765625" lon="-0.328093506395816802978515625">
        <ele>93.8000030517578125</ele>
        <time>2021-09-27T10:45:25.000Z</time>
      </trkpt>
      <trkpt lat="39.681267701089382171630859375" lon="-0.3281134553253650665283203125">
        <ele>93.8000030517578125</ele>
        <time>2021-09-27T10:45:26.000Z</time>
      </trkpt>
      <trkpt lat="39.6811887435615062713623046875" lon="-0.3281111083924770355224609375">
        <ele>93.59999847412109375</ele>
        <time>2021-09-27T10:45:28.000Z</time>
      </trkpt>
      <trkpt lat="39.6811567246913909912109375" lon="-0.328094176948070526123046875">
        <ele>93.59999847412109375</ele>
        <time>2021-09-27T10:45:29.000Z</time>
      </trkpt>
      <trkpt lat="39.6811247058212757110595703125" lon="-0.3280691988766193389892578125">
        <ele>93.40000152587890625</ele>
        <time>2021-09-27T10:45:30.000Z</time>
      </trkpt>
      <trkpt lat="39.681096710264682769775390625" lon="-0.328026115894317626953125">
        <ele>93.1999969482421875</ele>
        <time>2021-09-27T10:45:31.000Z</time>
      </trkpt>
      <trkpt lat="39.6810760907828807830810546875" lon="-0.3279676102101802825927734375">
        <ele>93.1999969482421875</ele>
        <time>2021-09-27T10:45:32.000Z</time>
      </trkpt>
      <trkpt lat="39.6810760907828807830810546875" lon="-0.3278432227671146392822265625">
        <ele>92.59999847412109375</ele>
        <time>2021-09-27T10:45:34.000Z</time>
      </trkpt>
      <trkpt lat="39.68108355067670345306396484375" lon="-0.3277895785868167877197265625">
        <ele>92.1999969482421875</ele>
        <time>2021-09-27T10:45:35.000Z</time>
      </trkpt>
      <trkpt lat="39.6810908429324626922607421875" lon="-0.32774004153907299041748046875">
        <ele>92</ele>
        <time>2021-09-27T10:45:36.000Z</time>
      </trkpt>
      <trkpt lat="39.68108355067670345306396484375" lon="-0.32769620418548583984375">
        <ele>91.8000030517578125</ele>
        <time>2021-09-27T10:45:37.000Z</time>
      </trkpt>
      <trkpt lat="39.68105924315750598907470703125" lon="-0.32766066491603851318359375">
        <ele>91.59999847412109375</ele>
        <time>2021-09-27T10:45:38.000Z</time>
      </trkpt>
      <trkpt lat="39.68102269805967807769775390625" lon="-0.32763275317847728729248046875">
        <ele>91.59999847412109375</ele>
        <time>2021-09-27T10:45:39.000Z</time>
      </trkpt>
      <trkpt lat="39.6809778548777103424072265625" lon="-0.32761179842054843902587890625">
        <ele>91.59999847412109375</ele>
        <time>2021-09-27T10:45:40.000Z</time>
      </trkpt>
      <trkpt lat="39.680884145200252532958984375" lon="-0.32756418921053409576416015625">
        <ele>91.40000152587890625</ele>
        <time>2021-09-27T10:45:42.000Z</time>
      </trkpt>
      <trkpt lat="39.68078247271478176116943359375" lon="-0.3275156579911708831787109375">
        <ele>91.40000152587890625</ele>
        <time>2021-09-27T10:45:44.000Z</time>
      </trkpt>
      <trkpt lat="39.6806801296770572662353515625" lon="-0.32746695913374423980712890625">
        <ele>91.40000152587890625</ele>
        <time>2021-09-27T10:45:46.000Z</time>
      </trkpt>
      <trkpt lat="39.6805711649358272552490234375" lon="-0.32741784118115901947021484375">
        <ele>91.59999847412109375</ele>
        <time>2021-09-27T10:45:48.000Z</time>
      </trkpt>
      <trkpt lat="39.68046362511813640594482421875" lon="-0.32736335881054401397705078125">
        <ele>91.59999847412109375</ele>
        <time>2021-09-27T10:45:50.000Z</time>
      </trkpt>
      <trkpt lat="39.6804109029471874237060546875" lon="-0.32733469270169734954833984375">
        <ele>91.59999847412109375</ele>
        <time>2021-09-27T10:45:51.000Z</time>
      </trkpt>
      <trkpt lat="39.68035809695720672607421875" lon="-0.3273091278970241546630859375">
        <ele>91.59999847412109375</ele>
        <time>2021-09-27T10:45:52.000Z</time>
      </trkpt>
      <trkpt lat="39.6802546642720699310302734375" lon="-0.32725657336413860321044921875">
        <ele>92</ele>
        <time>2021-09-27T10:45:54.000Z</time>
      </trkpt>
      <trkpt lat="39.6801534108817577362060546875" lon="-0.327206365764141082763671875">
        <ele>93.1999969482421875</ele>
        <time>2021-09-27T10:45:56.000Z</time>
      </trkpt>
      <trkpt lat="39.6800543367862701416015625" lon="-0.3271515481173992156982421875">
        <ele>94.59999847412109375</ele>
        <time>2021-09-27T10:45:58.000Z</time>
      </trkpt>
      <trkpt lat="39.68000597320497035980224609375" lon="-0.3271260671317577362060546875">
        <ele>95.40000152587890625</ele>
        <time>2021-09-27T10:45:59.000Z</time>
      </trkpt>
      <trkpt lat="39.67995576560497283935546875" lon="-0.3271012566983699798583984375">
        <ele>96.1999969482421875</ele>
        <time>2021-09-27T10:46:00.000Z</time>
      </trkpt>
      <trkpt lat="39.67990874312818050384521484375" lon="-0.327074937522411346435546875">
        <ele>97</ele>
        <time>2021-09-27T10:46:01.000Z</time>
      </trkpt>
      <trkpt lat="39.67986465431749820709228515625" lon="-0.3270496241748332977294921875">
        <ele>97.8000030517578125</ele>
        <time>2021-09-27T10:46:02.000Z</time>
      </trkpt>
      <trkpt lat="39.67977848835289478302001953125" lon="-0.32700243405997753143310546875">
        <ele>99.1999969482421875</ele>
        <time>2021-09-27T10:46:04.000Z</time>
      </trkpt>
      <trkpt lat="39.6797423623502254486083984375" lon="-0.32698114402592182159423828125">
        <ele>99.8000030517578125</ele>
        <time>2021-09-27T10:46:05.000Z</time>
      </trkpt>
      <trkpt lat="39.6797041408717632293701171875" lon="-0.32696505077183246612548828125">
        <ele>100.40000152587890625</ele>
        <time>2021-09-27T10:46:06.000Z</time>
      </trkpt>
      <trkpt lat="39.67962962575256824493408203125" lon="-0.326959602534770965576171875">
        <ele>100.59999847412109375</ele>
        <time>2021-09-27T10:46:08.000Z</time>
      </trkpt>
      <trkpt lat="39.67959626577794551849365234375" lon="-0.32697460614144802093505859375">
        <ele>100.8000030517578125</ele>
        <time>2021-09-27T10:46:09.000Z</time>
      </trkpt>
      <trkpt lat="39.67956793494522571563720703125" lon="-0.32699882984161376953125">
        <ele>100.8000030517578125</ele>
        <time>2021-09-27T10:46:10.000Z</time>
      </trkpt>
      <trkpt lat="39.6795472316443920135498046875" lon="-0.32703311182558536529541015625">
        <ele>101</ele>
        <time>2021-09-27T10:46:11.000Z</time>
      </trkpt>
      <trkpt lat="39.6795321442186832427978515625" lon="-0.3270724229514598846435546875">
        <ele>101</ele>
        <time>2021-09-27T10:46:12.000Z</time>
      </trkpt>
      <trkpt lat="39.67951931990683078765869140625" lon="-0.32711424864828586578369140625">
        <ele>101.1999969482421875</ele>
        <time>2021-09-27T10:46:13.000Z</time>
      </trkpt>
      <trkpt lat="39.67950339429080486297607421875" lon="-0.32715448178350925445556640625">
        <ele>101.40000152587890625</ele>
        <time>2021-09-27T10:46:14.000Z</time>
      </trkpt>
      <trkpt lat="39.67945276759564876556396484375" lon="-0.327210724353790283203125">
        <ele>102.1999969482421875</ele>
        <time>2021-09-27T10:46:16.000Z</time>
      </trkpt>
      <trkpt lat="39.67942066490650177001953125" lon="-0.32722237519919872283935546875">
        <ele>102.8000030517578125</ele>
        <time>2021-09-27T10:46:17.000Z</time>
      </trkpt>
      <trkpt lat="39.67938738875091075897216796875" lon="-0.32722924835979938507080078125">
        <ele>103.1999969482421875</ele>
        <time>2021-09-27T10:46:18.000Z</time>
      </trkpt>
      <trkpt lat="39.67932368628680706024169921875" lon="-0.327253974974155426025390625">
        <ele>104.1999969482421875</ele>
        <time>2021-09-27T10:46:20.000Z</time>
      </trkpt>
      <trkpt lat="39.679278172552585601806640625" lon="-0.32730217091739177703857421875">
        <ele>105</ele>
        <time>2021-09-27T10:46:22.000Z</time>
      </trkpt>
      <trkpt lat="39.67925009317696094512939453125" lon="-0.327374003827571868896484375">
        <ele>105.40000152587890625</ele>
        <time>2021-09-27T10:46:24.000Z</time>
      </trkpt>
      <trkpt lat="39.67923282645642757415771484375" lon="-0.32746343873441219329833984375">
        <ele>105.59999847412109375</ele>
        <time>2021-09-27T10:46:26.000Z</time>
      </trkpt>
      <trkpt lat="39.67922595329582691192626953125" lon="-0.32750920392572879791259765625">
        <ele>105.40000152587890625</ele>
        <time>2021-09-27T10:46:27.000Z</time>
      </trkpt>
      <trkpt lat="39.679217822849750518798828125" lon="-0.32755295746028423309326171875">
        <ele>105.40000152587890625</ele>
        <time>2021-09-27T10:46:28.000Z</time>
      </trkpt>
      <trkpt lat="39.6791938506066799163818359375" lon="-0.3276397101581096649169921875">
        <ele>105.59999847412109375</ele>
        <time>2021-09-27T10:46:30.000Z</time>
      </trkpt>
      <trkpt lat="39.67917549423873424530029296875" lon="-0.32768337987363338470458984375">
        <ele>105.8000030517578125</ele>
        <time>2021-09-27T10:46:31.000Z</time>
      </trkpt>
      <trkpt lat="39.679154790937900543212890625" lon="-0.3277208469808101654052734375">
        <ele>106.1999969482421875</ele>
        <time>2021-09-27T10:46:32.000Z</time>
      </trkpt>
      <trkpt lat="39.67911497689783573150634765625" lon="-0.32779804430902004241943359375">
        <ele>106.59999847412109375</ele>
        <time>2021-09-27T10:46:34.000Z</time>
      </trkpt>
      <trkpt lat="39.6790868975222110748291015625" lon="-0.32786342315375804901123046875">
        <ele>106.8000030517578125</ele>
        <time>2021-09-27T10:46:36.000Z</time>
      </trkpt>
      <trkpt lat="39.6790694631636142730712890625" lon="-0.32789292745292186737060546875">
        <ele>107.1999969482421875</ele>
        <time>2021-09-27T10:46:37.000Z</time>
      </trkpt>
      <trkpt lat="39.67905244790017604827880859375" lon="-0.327918827533721923828125">
        <ele>107.40000152587890625</ele>
        <time>2021-09-27T10:46:38.000Z</time>
      </trkpt>
      <trkpt lat="39.67902009375393390655517578125" lon="-0.32797741703689098358154296875">
        <ele>107.8000030517578125</ele>
        <time>2021-09-27T10:46:40.000Z</time>
      </trkpt>
      <trkpt lat="39.6789910085499286651611328125" lon="-0.32802821137011051177978515625">
        <ele>107.8000030517578125</ele>
        <time>2021-09-27T10:46:42.000Z</time>
      </trkpt>
      <trkpt lat="39.678980447351932525634765625" lon="-0.32806408591568470001220703125">
        <ele>107.8000030517578125</ele>
        <time>2021-09-27T10:46:44.000Z</time>
      </trkpt>
      <trkpt lat="39.67896468937397003173828125" lon="-0.32809317111968994140625">
        <ele>107.8000030517578125</ele>
        <time>2021-09-27T10:46:46.000Z</time>
      </trkpt>
      <trkpt lat="39.67892319895327091217041015625" lon="-0.32821579836308956146240234375">
        <ele>107.59999847412109375</ele>
        <time>2021-09-27T11:12:42.000Z</time>
      </trkpt>
      <trkpt lat="39.678971730172634124755859375" lon="-0.3281476534903049468994140625">
        <ele>107.1999969482421875</ele>
        <time>2021-09-27T11:12:55.000Z</time>
      </trkpt>
      <trkpt lat="39.67898078262805938720703125" lon="-0.32812695018947124481201171875">
        <ele>107.1999969482421875</ele>
        <time>2021-09-27T11:12:56.000Z</time>
      </trkpt>
      <trkpt lat="39.6789943613111972808837890625" lon="-0.32808889634907245635986328125">
        <ele>107.1999969482421875</ele>
        <time>2021-09-27T11:12:58.000Z</time>
      </trkpt>
      <trkpt lat="39.6789953671395778656005859375" lon="-0.328074730932712554931640625">
        <ele>107.40000152587890625</ele>
        <time>2021-09-27T11:12:59.000Z</time>
      </trkpt>
      <trkpt lat="39.6789960376918315887451171875" lon="-0.32806140370666980743408203125">
        <ele>107.40000152587890625</ele>
        <time>2021-09-27T11:13:00.000Z</time>
      </trkpt>
      <trkpt lat="39.6790015697479248046875" lon="-0.328042209148406982421875">
        <ele>107.59999847412109375</ele>
        <time>2021-09-27T11:13:02.000Z</time>
      </trkpt>
      <trkpt lat="39.67900953255593776702880859375" lon="-0.32802008092403411865234375">
        <ele>107.59999847412109375</ele>
        <time>2021-09-27T11:13:04.000Z</time>
      </trkpt>
      <trkpt lat="39.67901690863072872161865234375" lon="-0.32800172455608844757080078125">
        <ele>107.59999847412109375</ele>
        <time>2021-09-27T11:13:06.000Z</time>
      </trkpt>
      <trkpt lat="39.6790225245058536529541015625" lon="-0.3279981203377246856689453125">
        <ele>107.59999847412109375</ele>
        <time>2021-09-27T11:13:07.000Z</time>
      </trkpt>
      <trkpt lat="39.6790305711328983306884765625" lon="-0.32798864878714084625244140625">
        <ele>107.40000152587890625</ele>
        <time>2021-09-27T11:13:08.000Z</time>
      </trkpt>
      <trkpt lat="39.679045490920543670654296875" lon="-0.32796383835375308990478515625">
        <ele>107.40000152587890625</ele>
        <time>2021-09-27T11:13:10.000Z</time>
      </trkpt>
      <trkpt lat="39.6790511906147003173828125" lon="-0.3279364295303821563720703125">
        <ele>107.40000152587890625</ele>
        <time>2021-09-27T11:13:12.000Z</time>
      </trkpt>
      <trkpt lat="39.67906351201236248016357421875" lon="-0.32791203819215297698974609375">
        <ele>107.1999969482421875</ele>
        <time>2021-09-27T11:13:14.000Z</time>
      </trkpt>
      <trkpt lat="39.67906636185944080352783203125" lon="-0.32789058052003383636474609375">
        <ele>107.1999969482421875</ele>
        <time>2021-09-27T11:13:16.000Z</time>
      </trkpt>
      <trkpt lat="39.67907072044909000396728515625" lon="-0.327881611883640289306640625">
        <ele>107.1999969482421875</ele>
        <time>2021-09-27T11:13:17.000Z</time>
      </trkpt>
      <trkpt lat="39.67907457612454891204833984375" lon="-0.3278676979243755340576171875">
        <ele>107.1999969482421875</ele>
        <time>2021-09-27T11:13:18.000Z</time>
      </trkpt>
      <trkpt lat="39.6790858916938304901123046875" lon="-0.32784682698547840118408203125">
        <ele>107</ele>
        <time>2021-09-27T11:13:20.000Z</time>
      </trkpt>
      <trkpt lat="39.67910106293857097625732421875" lon="-0.327815227210521697998046875">
        <ele>106.8000030517578125</ele>
        <time>2021-09-27T11:13:22.000Z</time>
      </trkpt>
      <trkpt lat="39.67911179177463054656982421875" lon="-0.32779343426227569580078125">
        <ele>106.59999847412109375</ele>
        <time>2021-09-27T11:13:23.000Z</time>
      </trkpt>
      <trkpt lat="39.6791204251348972320556640625" lon="-0.3277734853327274322509765625">
        <ele>106.59999847412109375</ele>
        <time>2021-09-27T11:13:24.000Z</time>
      </trkpt>
      <trkpt lat="39.67913827858865261077880859375" lon="-0.32773031853139400482177734375">
        <ele>106.40000152587890625</ele>
        <time>2021-09-27T11:13:26.000Z</time>
      </trkpt>
      <trkpt lat="39.67914749868214130401611328125" lon="-0.32769151031970977783203125">
        <ele>106.40000152587890625</ele>
        <time>2021-09-27T11:13:28.000Z</time>
      </trkpt>
      <trkpt lat="39.679144062101840972900390625" lon="-0.32765923999249935150146484375">
        <ele>106.59999847412109375</ele>
        <time>2021-09-27T11:13:30.000Z</time>
      </trkpt>
      <trkpt lat="39.67914598993957042694091796875" lon="-0.32765286974608898162841796875">
        <ele>106.59999847412109375</ele>
        <time>2021-09-27T11:13:32.000Z</time>
      </trkpt>
      <trkpt lat="39.67914716340601444244384765625" lon="-0.327590592205524444580078125">
        <ele>106.8000030517578125</ele>
        <time>2021-09-27T11:18:00.000Z</time>
      </trkpt>
      <trkpt lat="39.67916727997362613677978515625" lon="-0.327551364898681640625">
        <ele>106.40000152587890625</ele>
        <time>2021-09-27T11:18:02.000Z</time>
      </trkpt>
      <trkpt lat="39.679186977446079254150390625" lon="-0.3274936974048614501953125">
        <ele>106.40000152587890625</ele>
        <time>2021-09-27T11:18:04.000Z</time>
      </trkpt>
      <trkpt lat="39.6792015619575977325439453125" lon="-0.3274546377360820770263671875">
        <ele>106.1999969482421875</ele>
        <time>2021-09-27T11:18:06.000Z</time>
      </trkpt>
      <trkpt lat="39.67921153642237186431884765625" lon="-0.3274164162576198577880859375">
        <ele>106</ele>
        <time>2021-09-27T11:18:08.000Z</time>
      </trkpt>
      <trkpt lat="39.6792136318981647491455078125" lon="-0.3273944556713104248046875">
        <ele>106</ele>
        <time>2021-09-27T11:18:09.000Z</time>
      </trkpt>
      <trkpt lat="39.6792146377265453338623046875" lon="-0.327371992170810699462890625">
        <ele>106</ele>
        <time>2021-09-27T11:18:10.000Z</time>
      </trkpt>
      <trkpt lat="39.67922209762036800384521484375" lon="-0.3273262269794940948486328125">
        <ele>105.8000030517578125</ele>
        <time>2021-09-27T11:18:12.000Z</time>
      </trkpt>
      <trkpt lat="39.67923986725509166717529296875" lon="-0.32726109959185123443603515625">
        <ele>105.59999847412109375</ele>
        <time>2021-09-27T11:18:14.000Z</time>
      </trkpt>
      <trkpt lat="39.67924824915826320648193359375" lon="-0.32719119451940059661865234375">
        <ele>105.40000152587890625</ele>
        <time>2021-09-27T11:18:16.000Z</time>
      </trkpt>
      <trkpt lat="39.6792367659509181976318359375" lon="-0.3271217085421085357666015625">
        <ele>105.59999847412109375</ele>
        <time>2021-09-27T11:18:18.000Z</time>
      </trkpt>
      <trkpt lat="39.67922545038163661956787109375" lon="-0.3270915336906909942626953125">
        <ele>105.8000030517578125</ele>
        <time>2021-09-27T11:18:19.000Z</time>
      </trkpt>
      <trkpt lat="39.67921505682170391082763671875" lon="-0.32706110738217830657958984375">
        <ele>106</ele>
        <time>2021-09-27T11:18:20.000Z</time>
      </trkpt>
      <trkpt lat="39.6792119555175304412841796875" lon="-0.3269959799945354461669921875">
        <ele>106</ele>
        <time>2021-09-27T11:18:22.000Z</time>
      </trkpt>
      <trkpt lat="39.67921949923038482666015625" lon="-0.32692297361791133880615234375">
        <ele>105.8000030517578125</ele>
        <time>2021-09-27T11:18:24.000Z</time>
      </trkpt>
      <trkpt lat="39.67922092415392398834228515625" lon="-0.32684720121324062347412109375">
        <ele>105.8000030517578125</ele>
        <time>2021-09-27T11:18:26.000Z</time>
      </trkpt>
      <trkpt lat="39.67921438626945018768310546875" lon="-0.326763801276683807373046875">
        <ele>106</ele>
        <time>2021-09-27T11:18:28.000Z</time>
      </trkpt>
      <trkpt lat="39.6792072616517543792724609375" lon="-0.32668073661625385284423828125">
        <ele>106</ele>
        <time>2021-09-27T11:18:30.000Z</time>
      </trkpt>
      <trkpt lat="39.67920483089983463287353515625" lon="-0.3266047127544879913330078125">
        <ele>106</ele>
        <time>2021-09-27T11:18:32.000Z</time>
      </trkpt>
      <trkpt lat="39.67920080758631229400634765625" lon="-0.32653011381626129150390625">
        <ele>105.8000030517578125</ele>
        <time>2021-09-27T11:18:34.000Z</time>
      </trkpt>
      <trkpt lat="39.67920013703405857086181640625" lon="-0.32645459286868572235107421875">
        <ele>105.40000152587890625</ele>
        <time>2021-09-27T11:18:36.000Z</time>
      </trkpt>
      <trkpt lat="39.679199047386646270751953125" lon="-0.3264149464666843414306640625">
        <ele>105.40000152587890625</ele>
        <time>2021-09-27T11:18:37.000Z</time>
      </trkpt>
      <trkpt lat="39.67920063994824886322021484375" lon="-0.32637982629239559173583984375">
        <ele>105.1999969482421875</ele>
        <time>2021-09-27T11:18:38.000Z</time>
      </trkpt>
      <trkpt lat="39.67919812537729740142822265625" lon="-0.326301790773868560791015625">
        <ele>105</ele>
        <time>2021-09-27T11:18:40.000Z</time>
      </trkpt>
      <trkpt lat="39.67918999493122100830078125" lon="-0.32620933838188648223876953125">
        <ele>105.1999969482421875</ele>
        <time>2021-09-27T11:18:42.000Z</time>
      </trkpt>
      <trkpt lat="39.6791847981512546539306640625" lon="-0.3261165507137775421142578125">
        <ele>105.40000152587890625</ele>
        <time>2021-09-27T11:18:44.000Z</time>
      </trkpt>
      <trkpt lat="39.67918370850384235382080078125" lon="-0.3260726295411586761474609375">
        <ele>105.40000152587890625</ele>
        <time>2021-09-27T11:18:45.000Z</time>
      </trkpt>
      <trkpt lat="39.679175578057765960693359375" lon="-0.3260280378162860870361328125">
        <ele>105.59999847412109375</ele>
        <time>2021-09-27T11:18:46.000Z</time>
      </trkpt>
      <trkpt lat="39.679167531430721282958984375" lon="-0.32598436810076236724853515625">
        <ele>105.8000030517578125</ele>
        <time>2021-09-27T11:18:47.000Z</time>
      </trkpt>
      <trkpt lat="39.67916007153689861297607421875" lon="-0.32594002783298492431640625">
        <ele>105.8000030517578125</ele>
        <time>2021-09-27T11:18:48.000Z</time>
      </trkpt>
      <trkpt lat="39.67915336601436138153076171875" lon="-0.32589367590844631195068359375">
        <ele>106</ele>
        <time>2021-09-27T11:18:49.000Z</time>
      </trkpt>
      <trkpt lat="39.67914833687245845794677734375" lon="-0.32584573142230510711669921875">
        <ele>106.1999969482421875</ele>
        <time>2021-09-27T11:18:50.000Z</time>
      </trkpt>
      <trkpt lat="39.6791438944637775421142578125" lon="-0.32579862512648105621337890625">
        <ele>106</ele>
        <time>2021-09-27T11:18:51.000Z</time>
      </trkpt>
      <trkpt lat="39.67914230190217494964599609375" lon="-0.32575051300227642059326171875">
        <ele>106</ele>
        <time>2021-09-27T11:18:52.000Z</time>
      </trkpt>
      <trkpt lat="39.6791392005980014801025390625" lon="-0.32565378583967685699462890625">
        <ele>105.8000030517578125</ele>
        <time>2021-09-27T11:18:54.000Z</time>
      </trkpt>
      <trkpt lat="39.67914062552154064178466796875" lon="-0.3256109543144702911376953125">
        <ele>105.59999847412109375</ele>
        <time>2021-09-27T11:18:55.000Z</time>
      </trkpt>
      <trkpt lat="39.6791397035121917724609375" lon="-0.325563848018646240234375">
        <ele>105.59999847412109375</ele>
        <time>2021-09-27T11:18:56.000Z</time>
      </trkpt>
      <trkpt lat="39.67913568019866943359375" lon="-0.325456559658050537109375">
        <ele>105.40000152587890625</ele>
        <time>2021-09-27T11:18:58.000Z</time>
      </trkpt>
      <trkpt lat="39.6791392005980014801025390625" lon="-0.3253511153161525726318359375">
        <ele>105.1999969482421875</ele>
        <time>2021-09-27T11:19:00.000Z</time>
      </trkpt>
      <trkpt lat="39.67913593165576457977294921875" lon="-0.3252971358597278594970703125">
        <ele>105.40000152587890625</ele>
        <time>2021-09-27T11:19:01.000Z</time>
      </trkpt>
      <trkpt lat="39.6791303157806396484375" lon="-0.32524659298360347747802734375">
        <ele>105.40000152587890625</ele>
        <time>2021-09-27T11:19:02.000Z</time>
      </trkpt>
      <trkpt lat="39.679137356579303741455078125" lon="-0.32514483667910099029541015625">
        <ele>105.1999969482421875</ele>
        <time>2021-09-27T11:19:04.000Z</time>
      </trkpt>
      <trkpt lat="39.6791425533592700958251953125" lon="-0.3250329382717609405517578125">
        <ele>105.1999969482421875</ele>
        <time>2021-09-27T11:19:06.000Z</time>
      </trkpt>
      <trkpt lat="39.67914766632020473480224609375" lon="-0.3249742649495601654052734375">
        <ele>105.1999969482421875</ele>
        <time>2021-09-27T11:19:07.000Z</time>
      </trkpt>
      <trkpt lat="39.67915839515626430511474609375" lon="-0.3249129094183444976806640625">
        <ele>105.1999969482421875</ele>
        <time>2021-09-27T11:19:08.000Z</time>
      </trkpt>
      <trkpt lat="39.67917616479098796844482421875" lon="-0.32484836876392364501953125">
        <ele>105</ele>
        <time>2021-09-27T11:19:09.000Z</time>
      </trkpt>
      <trkpt lat="39.67920348979532718658447265625" lon="-0.32478290610015392303466796875">
        <ele>104.8000030517578125</ele>
        <time>2021-09-27T11:19:10.000Z</time>
      </trkpt>
      <trkpt lat="39.67927557416260242462158203125" lon="-0.32464049756526947021484375">
        <ele>104.1999969482421875</ele>
        <time>2021-09-27T11:19:12.000Z</time>
      </trkpt>
      <trkpt lat="39.67931480146944522857666015625" lon="-0.32456346787512302398681640625">
        <ele>103.40000152587890625</ele>
        <time>2021-09-27T11:19:13.000Z</time>
      </trkpt>
      <trkpt lat="39.6793527714908123016357421875" lon="-0.324481241405010223388671875">
        <ele>102.59999847412109375</ele>
        <time>2021-09-27T11:19:14.000Z</time>
      </trkpt>
      <trkpt lat="39.67939208261668682098388671875" lon="-0.324394069612026214599609375">
        <ele>101.8000030517578125</ele>
        <time>2021-09-27T11:19:15.000Z</time>
      </trkpt>
      <trkpt lat="39.6794332377612590789794921875" lon="-0.32430295832455158233642578125">
        <ele>100.8000030517578125</ele>
        <time>2021-09-27T11:19:16.000Z</time>
      </trkpt>
      <trkpt lat="39.6794758178293704986572265625" lon="-0.3242074884474277496337890625">
        <ele>99.8000030517578125</ele>
        <time>2021-09-27T11:19:17.000Z</time>
      </trkpt>
      <trkpt lat="39.67951898463070392608642578125" lon="-0.324107743799686431884765625">
        <ele>99</ele>
        <time>2021-09-27T11:19:18.000Z</time>
      </trkpt>
      <trkpt lat="39.67960448004305362701416015625" lon="-0.32391470856964588165283203125">
        <ele>98</ele>
        <time>2021-09-27T11:19:20.000Z</time>
      </trkpt>
      <trkpt lat="39.6796766482293605804443359375" lon="-0.3237307257950305938720703125">
        <ele>96.59999847412109375</ele>
        <time>2021-09-27T11:19:22.000Z</time>
      </trkpt>
      <trkpt lat="39.67965728603303432464599609375" lon="-0.32350600697100162506103515625">
        <ele>95</ele>
        <time>2021-09-27T11:19:24.000Z</time>
      </trkpt>
      <trkpt lat="39.6795914880931377410888671875" lon="-0.3232955373823642730712890625">
        <ele>94.1999969482421875</ele>
        <time>2021-09-27T11:19:26.000Z</time>
      </trkpt>
      <trkpt lat="39.67952527105808258056640625" lon="-0.3230883367359638214111328125">
        <ele>93.59999847412109375</ele>
        <time>2021-09-27T11:19:28.000Z</time>
      </trkpt>
      <trkpt lat="39.6794898994266986846923828125" lon="-0.32298901118338108062744140625">
        <ele>93.40000152587890625</ele>
        <time>2021-09-27T11:19:29.000Z</time>
      </trkpt>
      <trkpt lat="39.67945779673755168914794921875" lon="-0.3228910267353057861328125">
        <ele>93.1999969482421875</ele>
        <time>2021-09-27T11:19:30.000Z</time>
      </trkpt>
      <trkpt lat="39.67940297909080982208251953125" lon="-0.32270620577037334442138671875">
        <ele>92.8000030517578125</ele>
        <time>2021-09-27T11:19:32.000Z</time>
      </trkpt>
      <trkpt lat="39.67935134656727313995361328125" lon="-0.3225233964622020721435546875">
        <ele>92.40000152587890625</ele>
        <time>2021-09-27T11:19:34.000Z</time>
      </trkpt>
      <trkpt lat="39.67929191887378692626953125" lon="-0.3223430179059505462646484375">
        <ele>92</ele>
        <time>2021-09-27T11:19:36.000Z</time>
      </trkpt>
      <trkpt lat="39.6792121231555938720703125" lon="-0.32218535430729389190673828125">
        <ele>91.40000152587890625</ele>
        <time>2021-09-27T11:19:38.000Z</time>
      </trkpt>
      <trkpt lat="39.67915973626077175140380859375" lon="-0.32211813144385814666748046875">
        <ele>91.1999969482421875</ele>
        <time>2021-09-27T11:19:39.000Z</time>
      </trkpt>
      <trkpt lat="39.67910039238631725311279296875" lon="-0.322060547769069671630859375">
        <ele>91.1999969482421875</ele>
        <time>2021-09-27T11:19:40.000Z</time>
      </trkpt>
      <trkpt lat="39.67904138378798961639404296875" lon="-0.3220080770552158355712890625">
        <ele>91.1999969482421875</ele>
        <time>2021-09-27T11:19:41.000Z</time>
      </trkpt>
      <trkpt lat="39.67898455448448657989501953125" lon="-0.32195535488426685333251953125">
        <ele>91.40000152587890625</ele>
        <time>2021-09-27T11:19:42.000Z</time>
      </trkpt>
      <trkpt lat="39.6788689680397510528564453125" lon="-0.32185812480747699737548828125">
        <ele>91.40000152587890625</ele>
        <time>2021-09-27T11:19:44.000Z</time>
      </trkpt>
      <trkpt lat="39.67881322838366031646728515625" lon="-0.32181386835873126983642578125">
        <ele>91.40000152587890625</ele>
        <time>2021-09-27T11:19:45.000Z</time>
      </trkpt>
      <trkpt lat="39.67875874601304531097412109375" lon="-0.32177380286157131195068359375">
        <ele>91.40000152587890625</ele>
        <time>2021-09-27T11:19:46.000Z</time>
      </trkpt>
      <trkpt lat="39.67865648679435253143310546875" lon="-0.32168864272534847259521484375">
        <ele>92.59999847412109375</ele>
        <time>2021-09-27T11:19:48.000Z</time>
      </trkpt>
      <trkpt lat="39.67860602773725986480712890625" lon="-0.32164581120014190673828125">
        <ele>93.8000030517578125</ele>
        <time>2021-09-27T11:19:49.000Z</time>
      </trkpt>
      <trkpt lat="39.678554646670818328857421875" lon="-0.321600548923015594482421875">
        <ele>95.1999969482421875</ele>
        <time>2021-09-27T11:19:50.000Z</time>
      </trkpt>
      <trkpt lat="39.67845079489052295684814453125" lon="-0.3215185739099979400634765625">
        <ele>97.59999847412109375</ele>
        <time>2021-09-27T11:19:52.000Z</time>
      </trkpt>
      <trkpt lat="39.6784020960330963134765625" lon="-0.32147859223186969757080078125">
        <ele>97.8000030517578125</ele>
        <time>2021-09-27T11:19:53.000Z</time>
      </trkpt>
      <trkpt lat="39.67835624702274799346923828125" lon="-0.32143634743988513946533203125">
        <ele>98</ele>
        <time>2021-09-27T11:19:54.000Z</time>
      </trkpt>
      <trkpt lat="39.67826454900205135345458984375" lon="-0.3213536180555820465087890625">
        <ele>98.59999847412109375</ele>
        <time>2021-09-27T11:19:56.000Z</time>
      </trkpt>
      <trkpt lat="39.67817754484713077545166015625" lon="-0.321283377707004547119140625">
        <ele>99.1999969482421875</ele>
        <time>2021-09-27T11:19:58.000Z</time>
      </trkpt>
      <trkpt lat="39.67813454568386077880859375" lon="-0.3212523646652698516845703125">
        <ele>99.8000030517578125</ele>
        <time>2021-09-27T11:19:59.000Z</time>
      </trkpt>
      <trkpt lat="39.6780904568731784820556640625" lon="-0.32122336328029632568359375">
        <ele>100.40000152587890625</ele>
        <time>2021-09-27T11:20:00.000Z</time>
      </trkpt>
      <trkpt lat="39.67800588347017765045166015625" lon="-0.32116862945258617401123046875">
        <ele>101.40000152587890625</ele>
        <time>2021-09-27T11:20:02.000Z</time>
      </trkpt>
      <trkpt lat="39.67791854403913021087646484375" lon="-0.32111741602420806884765625">
        <ele>101.1999969482421875</ele>
        <time>2021-09-27T11:20:04.000Z</time>
      </trkpt>
      <trkpt lat="39.67782399617135524749755859375" lon="-0.32106511294841766357421875">
        <ele>100.59999847412109375</ele>
        <time>2021-09-27T11:20:06.000Z</time>
      </trkpt>
      <trkpt lat="39.677728526294231414794921875" lon="-0.3210052661597728729248046875">
        <ele>99.1999969482421875</ele>
        <time>2021-09-27T11:20:08.000Z</time>
      </trkpt>
      <trkpt lat="39.67762500979006290435791015625" lon="-0.32094500027596950531005859375">
        <ele>97.59999847412109375</ele>
        <time>2021-09-27T11:20:10.000Z</time>
      </trkpt>
      <trkpt lat="39.6775235049426555633544921875" lon="-0.320888422429561614990234375">
        <ele>96.40000152587890625</ele>
        <time>2021-09-27T11:20:12.000Z</time>
      </trkpt>
      <trkpt lat="39.67741797678172588348388671875" lon="-0.320824719965457916259765625">
        <ele>95.1999969482421875</ele>
        <time>2021-09-27T11:20:14.000Z</time>
      </trkpt>
      <trkpt lat="39.67731353826820850372314453125" lon="-0.3207631967961788177490234375">
        <ele>94.1999969482421875</ele>
        <time>2021-09-27T11:20:16.000Z</time>
      </trkpt>
      <trkpt lat="39.6772167272865772247314453125" lon="-0.32070435583591461181640625">
        <ele>93.40000152587890625</ele>
        <time>2021-09-27T11:20:18.000Z</time>
      </trkpt>
      <trkpt lat="39.6771322377026081085205078125" lon="-0.320652388036251068115234375">
        <ele>92.59999847412109375</ele>
        <time>2021-09-27T11:20:20.000Z</time>
      </trkpt>
      <trkpt lat="39.67704431153833866119384765625" lon="-0.3205999173223972320556640625">
        <ele>91.8000030517578125</ele>
        <time>2021-09-27T11:20:22.000Z</time>
      </trkpt>
      <trkpt lat="39.67695680446922779083251953125" lon="-0.320546440780162811279296875">
        <ele>91.40000152587890625</ele>
        <time>2021-09-27T11:20:24.000Z</time>
      </trkpt>
      <trkpt lat="39.6768687106668949127197265625" lon="-0.32049556262791156768798828125">
        <ele>91.1999969482421875</ele>
        <time>2021-09-27T11:20:26.000Z</time>
      </trkpt>
      <trkpt lat="39.67678430490195751190185546875" lon="-0.3204443491995334625244140625">
        <ele>91</ele>
        <time>2021-09-27T11:20:28.000Z</time>
      </trkpt>
      <trkpt lat="39.67669310979545116424560546875" lon="-0.32042532227933406829833984375">
        <ele>91.1999969482421875</ele>
        <time>2021-09-27T11:20:30.000Z</time>
      </trkpt>
      <trkpt lat="39.676599316298961639404296875" lon="-0.32043202780187129974365234375">
        <ele>91.8000030517578125</ele>
        <time>2021-09-27T11:20:32.000Z</time>
      </trkpt>
      <trkpt lat="39.6765146590769290924072265625" lon="-0.32043471001088619232177734375">
        <ele>92.1999969482421875</ele>
        <time>2021-09-27T11:20:34.000Z</time>
      </trkpt>
      <trkpt lat="39.67644601128995418548583984375" lon="-0.32040168531239032745361328125">
        <ele>92.40000152587890625</ele>
        <time>2021-09-27T11:20:36.000Z</time>
      </trkpt>
      <trkpt lat="39.67642220668494701385498046875" lon="-0.32036497257649898529052734375">
        <ele>92.1999969482421875</ele>
        <time>2021-09-27T11:20:37.000Z</time>
      </trkpt>
      <trkpt lat="39.67640049755573272705078125" lon="-0.320317111909389495849609375">
        <ele>92</ele>
        <time>2021-09-27T11:20:38.000Z</time>
      </trkpt>
      <trkpt lat="39.6763725019991397857666015625" lon="-0.3202663175761699676513671875">
        <ele>91.59999847412109375</ele>
        <time>2021-09-27T11:20:39.000Z</time>
      </trkpt>
      <trkpt lat="39.67633503489196300506591796875" lon="-0.32021728344261646270751953125">
        <ele>91.59999847412109375</ele>
        <time>2021-09-27T11:20:40.000Z</time>
      </trkpt>
      <trkpt lat="39.67629228718578815460205078125" lon="-0.320172943174839019775390625">
        <ele>91.40000152587890625</ele>
        <time>2021-09-27T11:20:41.000Z</time>
      </trkpt>
      <trkpt lat="39.6762447617948055267333984375" lon="-0.32013312913477420806884765625">
        <ele>91.40000152587890625</ele>
        <time>2021-09-27T11:20:42.000Z</time>
      </trkpt>
      <trkpt lat="39.67613764107227325439453125" lon="-0.32006330788135528564453125">
        <ele>91.1999969482421875</ele>
        <time>2021-09-27T11:20:44.000Z</time>
      </trkpt>
      <trkpt lat="39.67608190141618251800537109375" lon="-0.32003103755414485931396484375">
        <ele>91.1999969482421875</ele>
        <time>2021-09-27T11:20:45.000Z</time>
      </trkpt>
      <trkpt lat="39.676028005778789520263671875" lon="-0.31999834813177585601806640625">
        <ele>91</ele>
        <time>2021-09-27T11:20:46.000Z</time>
      </trkpt>
      <trkpt lat="39.6759158559143543243408203125" lon="-0.3199313767254352569580078125">
        <ele>90.8000030517578125</ele>
        <time>2021-09-27T11:20:48.000Z</time>
      </trkpt>
      <trkpt lat="39.6758139319717884063720703125" lon="-0.3198589570820331573486328125">
        <ele>90.40000152587890625</ele>
        <time>2021-09-27T11:20:50.000Z</time>
      </trkpt>
      <trkpt lat="39.6757716871798038482666015625" lon="-0.31981386244297027587890625">
        <ele>90</ele>
        <time>2021-09-27T11:20:51.000Z</time>
      </trkpt>
      <trkpt lat="39.67573262751102447509765625" lon="-0.3197623975574970245361328125">
        <ele>89.59999847412109375</ele>
        <time>2021-09-27T11:20:52.000Z</time>
      </trkpt>
      <trkpt lat="39.67565693892538547515869140625" lon="-0.31965284608304500579833984375">
        <ele>88.8000030517578125</ele>
        <time>2021-09-27T11:20:54.000Z</time>
      </trkpt>
      <trkpt lat="39.67558032833039760589599609375" lon="-0.31953248195350170135498046875">
        <ele>88.1999969482421875</ele>
        <time>2021-09-27T11:20:56.000Z</time>
      </trkpt>
      <trkpt lat="39.67550103552639484405517578125" lon="-0.319405160844326019287109375">
        <ele>87.59999847412109375</ele>
        <time>2021-09-27T11:20:58.000Z</time>
      </trkpt>
      <trkpt lat="39.67545962892472743988037109375" lon="-0.31934204511344432830810546875">
        <ele>87.40000152587890625</ele>
        <time>2021-09-27T11:20:59.000Z</time>
      </trkpt>
      <trkpt lat="39.675419144332408905029296875" lon="-0.3192769177258014678955078125">
        <ele>87.1999969482421875</ele>
        <time>2021-09-27T11:21:00.000Z</time>
      </trkpt>
      <trkpt lat="39.6753418631851673126220703125" lon="-0.31915496103465557098388671875">
        <ele>86.59999847412109375</ele>
        <time>2021-09-27T11:21:02.000Z</time>
      </trkpt>
      <trkpt lat="39.67526902444660663604736328125" lon="-0.319035686552524566650390625">
        <ele>86.1999969482421875</ele>
        <time>2021-09-27T11:21:04.000Z</time>
      </trkpt>
      <trkpt lat="39.6752050705254077911376953125" lon="-0.31892471015453338623046875">
        <ele>85.59999847412109375</ele>
        <time>2021-09-27T11:21:06.000Z</time>
      </trkpt>
      <trkpt lat="39.675142876803874969482421875" lon="-0.31882144510746002197265625">
        <ele>85.59999847412109375</ele>
        <time>2021-09-27T11:21:08.000Z</time>
      </trkpt>
      <trkpt lat="39.6750761568546295166015625" lon="-0.31871507875621318817138671875">
        <ele>85.59999847412109375</ele>
        <time>2021-09-27T11:21:10.000Z</time>
      </trkpt>
      <trkpt lat="39.675002396106719970703125" lon="-0.318607874214649200439453125">
        <ele>85.8000030517578125</ele>
        <time>2021-09-27T11:21:12.000Z</time>
      </trkpt>
      <trkpt lat="39.6749308146536350250244140625" lon="-0.318494550883769989013671875">
        <ele>86</ele>
        <time>2021-09-27T11:21:14.000Z</time>
      </trkpt>
      <trkpt lat="39.6748959459364414215087890625" lon="-0.31843654811382293701171875">
        <ele>86.1999969482421875</ele>
        <time>2021-09-27T11:21:15.000Z</time>
      </trkpt>
      <trkpt lat="39.67486032284796237945556640625" lon="-0.31838030554354190826416015625">
        <ele>86</ele>
        <time>2021-09-27T11:21:16.000Z</time>
      </trkpt>
      <trkpt lat="39.674788154661655426025390625" lon="-0.31826597638428211212158203125">
        <ele>86</ele>
        <time>2021-09-27T11:21:18.000Z</time>
      </trkpt>
      <trkpt lat="39.67471783049404621124267578125" lon="-0.3181534074246883392333984375">
        <ele>86</ele>
        <time>2021-09-27T11:21:20.000Z</time>
      </trkpt>
      <trkpt lat="39.67461070977151393890380859375" lon="-0.3179747052490711212158203125">
        <ele>86</ele>
        <time>2021-09-27T11:21:22.000Z</time>
      </trkpt>
      <trkpt lat="39.67457466758787631988525390625" lon="-0.31791611574590206146240234375">
        <ele>85.59999847412109375</ele>
        <time>2021-09-27T11:21:24.000Z</time>
      </trkpt>
      <trkpt lat="39.674499817192554473876953125" lon="-0.31779952347278594970703125">
        <ele>85.8000030517578125</ele>
        <time>2021-09-27T11:21:26.000Z</time>
      </trkpt>
      <trkpt lat="39.67446452938020229339599609375" lon="-0.3177413530647754669189453125">
        <ele>85.59999847412109375</ele>
        <time>2021-09-27T11:21:27.000Z</time>
      </trkpt>
      <trkpt lat="39.6744297444820404052734375" lon="-0.31768209300935268402099609375">
        <ele>85.40000152587890625</ele>
        <time>2021-09-27T11:21:28.000Z</time>
      </trkpt>
      <trkpt lat="39.6743652038276195526123046875" lon="-0.3175740502774715423583984375">
        <ele>85.1999969482421875</ele>
        <time>2021-09-27T11:21:30.000Z</time>
      </trkpt>
      <trkpt lat="39.6742956340312957763671875" lon="-0.3174640797078609466552734375">
        <ele>84.8000030517578125</ele>
        <time>2021-09-27T11:21:32.000Z</time>
      </trkpt>
      <trkpt lat="39.67422463931143283843994140625" lon="-0.3173591382801532745361328125">
        <ele>84.59999847412109375</ele>
        <time>2021-09-27T11:21:34.000Z</time>
      </trkpt>
      <trkpt lat="39.67414744198322296142578125" lon="-0.31725092791020870208740234375">
        <ele>84.59999847412109375</ele>
        <time>2021-09-27T11:21:36.000Z</time>
      </trkpt>
      <trkpt lat="39.67410326935350894927978515625" lon="-0.317203067243099212646484375">
        <ele>84.40000152587890625</ele>
        <time>2021-09-27T11:21:37.000Z</time>
      </trkpt>
      <trkpt lat="39.67405767180025577545166015625" lon="-0.3171603195369243621826171875">
        <ele>84.40000152587890625</ele>
        <time>2021-09-27T11:21:38.000Z</time>
      </trkpt>
      <trkpt lat="39.6739618666470050811767578125" lon="-0.31709854491055011749267578125">
        <ele>84.1999969482421875</ele>
        <time>2021-09-27T11:21:40.000Z</time>
      </trkpt>
      <trkpt lat="39.67386321164667606353759765625" lon="-0.31703249551355838775634765625">
        <ele>84</ele>
        <time>2021-09-27T11:21:42.000Z</time>
      </trkpt>
      <trkpt lat="39.67381375841796398162841796875" lon="-0.3169987164437770843505859375">
        <ele>84</ele>
        <time>2021-09-27T11:21:43.000Z</time>
      </trkpt>
      <trkpt lat="39.6737645566463470458984375" lon="-0.31696611084043979644775390625">
        <ele>83.8000030517578125</ele>
        <time>2021-09-27T11:21:44.000Z</time>
      </trkpt>
      <trkpt lat="39.673662967979907989501953125" lon="-0.316900312900543212890625">
        <ele>83.8000030517578125</ele>
        <time>2021-09-27T11:21:46.000Z</time>
      </trkpt>
      <trkpt lat="39.67355743981897830963134765625" lon="-0.31683099456131458282470703125">
        <ele>84.1999969482421875</ele>
        <time>2021-09-27T11:21:48.000Z</time>
      </trkpt>
      <trkpt lat="39.6734502352774143218994140625" lon="-0.31676410697400569915771484375">
        <ele>84.40000152587890625</ele>
        <time>2021-09-27T11:21:50.000Z</time>
      </trkpt>
      <trkpt lat="39.67334554530680179595947265625" lon="-0.3166966326534748077392578125">
        <ele>84.8000030517578125</ele>
        <time>2021-09-27T11:21:52.000Z</time>
      </trkpt>
      <trkpt lat="39.6732946671545505523681640625" lon="-0.3166617639362812042236328125">
        <ele>85.1999969482421875</ele>
        <time>2021-09-27T11:21:53.000Z</time>
      </trkpt>
      <trkpt lat="39.67324429191648960113525390625" lon="-0.31662614084780216217041015625">
        <ele>86</ele>
        <time>2021-09-27T11:21:54.000Z</time>
      </trkpt>
      <trkpt lat="39.67314287088811397552490234375" lon="-0.316556654870510101318359375">
        <ele>87.8000030517578125</ele>
        <time>2021-09-27T11:21:56.000Z</time>
      </trkpt>
      <trkpt lat="39.6730348281562328338623046875" lon="-0.31648767180740833282470703125">
        <ele>89.59999847412109375</ele>
        <time>2021-09-27T11:21:58.000Z</time>
      </trkpt>
      <trkpt lat="39.67298780567944049835205078125" lon="-0.31644592992961406707763671875">
        <ele>90.40000152587890625</ele>
        <time>2021-09-27T11:21:59.000Z</time>
      </trkpt>
      <trkpt lat="39.67294271104037761688232421875" lon="-0.31639806926250457763671875">
        <ele>91.40000152587890625</ele>
        <time>2021-09-27T11:22:00.000Z</time>
      </trkpt>
      <trkpt lat="39.67290532775223255157470703125" lon="-0.3163455985486507415771484375">
        <ele>92.1999969482421875</ele>
        <time>2021-09-27T11:22:01.000Z</time>
      </trkpt>
      <trkpt lat="39.67287515290081501007080078125" lon="-0.3162869252264499664306640625">
        <ele>92.8000030517578125</ele>
        <time>2021-09-27T11:22:02.000Z</time>
      </trkpt>
      <trkpt lat="39.6728504262864589691162109375" lon="-0.31622196547687053680419921875">
        <ele>93</ele>
        <time>2021-09-27T11:22:03.000Z</time>
      </trkpt>
      <trkpt lat="39.67283324338495731353759765625" lon="-0.316152311861515045166015625">
        <ele>93</ele>
        <time>2021-09-27T11:22:04.000Z</time>
      </trkpt>
      <trkpt lat="39.67282067053020000457763671875" lon="-0.3160793893039226531982421875">
        <ele>93</ele>
        <time>2021-09-27T11:22:05.000Z</time>
      </trkpt>
      <trkpt lat="39.67281161807477474212646484375" lon="-0.31600386835634708404541015625">
        <ele>92.8000030517578125</ele>
        <time>2021-09-27T11:22:06.000Z</time>
      </trkpt>
      <trkpt lat="39.67279971577227115631103515625" lon="-0.31584528274834156036376953125">
        <ele>92.59999847412109375</ele>
        <time>2021-09-27T11:22:08.000Z</time>
      </trkpt>
      <trkpt lat="39.67279552482068538665771484375" lon="-0.3157652355730533599853515625">
        <ele>92.59999847412109375</ele>
        <time>2021-09-27T11:22:09.000Z</time>
      </trkpt>
      <trkpt lat="39.672793261706829071044921875" lon="-0.31568435020744800567626953125">
        <ele>92.40000152587890625</ele>
        <time>2021-09-27T11:22:10.000Z</time>
      </trkpt>
      <trkpt lat="39.67278261668980121612548828125" lon="-0.31552492640912532806396484375">
        <ele>92.1999969482421875</ele>
        <time>2021-09-27T11:22:12.000Z</time>
      </trkpt>
      <trkpt lat="39.6727756597101688385009765625" lon="-0.31535980291664600372314453125">
        <ele>92</ele>
        <time>2021-09-27T11:22:14.000Z</time>
      </trkpt>
      <trkpt lat="39.6727676130831241607666015625" lon="-0.3151982836425304412841796875">
        <ele>92</ele>
        <time>2021-09-27T11:22:16.000Z</time>
      </trkpt>
      <trkpt lat="39.6727625839412212371826171875" lon="-0.31503575854003429412841796875">
        <ele>91.8000030517578125</ele>
        <time>2021-09-27T11:22:18.000Z</time>
      </trkpt>
      <trkpt lat="39.67275495640933513641357421875" lon="-0.31488119624555110931396484375">
        <ele>91.8000030517578125</ele>
        <time>2021-09-27T11:22:20.000Z</time>
      </trkpt>
      <trkpt lat="39.67274808324873447418212890625" lon="-0.31473535113036632537841796875">
        <ele>91.59999847412109375</ele>
        <time>2021-09-27T11:22:22.000Z</time>
      </trkpt>
      <trkpt lat="39.6727444790303707122802734375" lon="-0.31465957872569561004638671875">
        <ele>91.59999847412109375</ele>
        <time>2021-09-27T11:22:23.000Z</time>
      </trkpt>
      <trkpt lat="39.67273886315524578094482421875" lon="-0.31458732672035694122314453125">
        <ele>91.8000030517578125</ele>
        <time>2021-09-27T11:22:24.000Z</time>
      </trkpt>
      <trkpt lat="39.67272964306175708770751953125" lon="-0.31443946994841098785400390625">
        <ele>91.59999847412109375</ele>
        <time>2021-09-27T11:22:26.000Z</time>
      </trkpt>
      <trkpt lat="39.672722518444061279296875" lon="-0.3142923675477504730224609375">
        <ele>91.59999847412109375</ele>
        <time>2021-09-27T11:22:28.000Z</time>
      </trkpt>
      <trkpt lat="39.67271489091217517852783203125" lon="-0.3141478635370731353759765625">
        <ele>91.59999847412109375</ele>
        <time>2021-09-27T11:22:30.000Z</time>
      </trkpt>
      <trkpt lat="39.67270969413220882415771484375" lon="-0.31407502479851245880126953125">
        <ele>91.59999847412109375</ele>
        <time>2021-09-27T11:22:31.000Z</time>
      </trkpt>
      <trkpt lat="39.67270650900900363922119140625" lon="-0.3140060417354106903076171875">
        <ele>91.40000152587890625</ele>
        <time>2021-09-27T11:22:32.000Z</time>
      </trkpt>
      <trkpt lat="39.6726972050964832305908203125" lon="-0.31387067399919033050537109375">
        <ele>91.40000152587890625</ele>
        <time>2021-09-27T11:22:34.000Z</time>
      </trkpt>
      <trkpt lat="39.672692008316516876220703125" lon="-0.313740670680999755859375">
        <ele>91.40000152587890625</ele>
        <time>2021-09-27T11:22:36.000Z</time>
      </trkpt>
      <trkpt lat="39.672685302793979644775390625" lon="-0.31360865570604801177978515625">
        <ele>91.59999847412109375</ele>
        <time>2021-09-27T11:22:38.000Z</time>
      </trkpt>
      <trkpt lat="39.672679267823696136474609375" lon="-0.3135430254042148590087890625">
        <ele>91.59999847412109375</ele>
        <time>2021-09-27T11:22:39.000Z</time>
      </trkpt>
      <trkpt lat="39.6726730652153491973876953125" lon="-0.313475131988525390625">
        <ele>91.8000030517578125</ele>
        <time>2021-09-27T11:22:40.000Z</time>
      </trkpt>
      <trkpt lat="39.67266619205474853515625" lon="-0.31334303319454193115234375">
        <ele>91.8000030517578125</ele>
        <time>2021-09-27T11:22:42.000Z</time>
      </trkpt>
      <trkpt lat="39.6726626716554164886474609375" lon="-0.31320800073444843292236328125">
        <ele>91.8000030517578125</ele>
        <time>2021-09-27T11:22:44.000Z</time>
      </trkpt>
      <trkpt lat="39.6726499311625957489013671875" lon="-0.313071794807910919189453125">
        <ele>91.40000152587890625</ele>
        <time>2021-09-27T11:22:46.000Z</time>
      </trkpt>
      <trkpt lat="39.67264381237328052520751953125" lon="-0.3130025602877140045166015625">
        <ele>91</ele>
        <time>2021-09-27T11:22:47.000Z</time>
      </trkpt>
      <trkpt lat="39.67263593338429927825927734375" lon="-0.31293206848204135894775390625">
        <ele>90.8000030517578125</ele>
        <time>2021-09-27T11:22:48.000Z</time>
      </trkpt>
      <trkpt lat="39.67262084595859050750732421875" lon="-0.31278857029974460601806640625">
        <ele>90.40000152587890625</ele>
        <time>2021-09-27T11:22:50.000Z</time>
      </trkpt>
      <trkpt lat="39.67260726727545261383056640625" lon="-0.31264037825167179107666015625">
        <ele>90</ele>
        <time>2021-09-27T11:22:52.000Z</time>
      </trkpt>
      <trkpt lat="39.6725915931165218353271484375" lon="-0.31249411404132843017578125">
        <ele>89.59999847412109375</ele>
        <time>2021-09-27T11:22:54.000Z</time>
      </trkpt>
      <trkpt lat="39.67258312739431858062744140625" lon="-0.31242077238857746124267578125">
        <ele>89.40000152587890625</ele>
        <time>2021-09-27T11:22:55.000Z</time>
      </trkpt>
      <trkpt lat="39.6725768409669399261474609375" lon="-0.31234717927873134613037109375">
        <ele>89.1999969482421875</ele>
        <time>2021-09-27T11:22:56.000Z</time>
      </trkpt>
      <trkpt lat="39.67255513183772563934326171875" lon="-0.31219898723065853118896484375">
        <ele>88.8000030517578125</ele>
        <time>2021-09-27T11:22:58.000Z</time>
      </trkpt>
      <trkpt lat="39.67253451235592365264892578125" lon="-0.31204023398458957672119140625">
        <ele>88.59999847412109375</ele>
        <time>2021-09-27T11:23:00.000Z</time>
      </trkpt>
      <trkpt lat="39.672513306140899658203125" lon="-0.3118740208446979522705078125">
        <ele>88.40000152587890625</ele>
        <time>2021-09-27T11:23:02.000Z</time>
      </trkpt>
      <trkpt lat="39.67248992063105106353759765625" lon="-0.3117026947438716888427734375">
        <ele>88</ele>
        <time>2021-09-27T11:23:04.000Z</time>
      </trkpt>
      <trkpt lat="39.6724688820540904998779296875" lon="-0.3115291893482208251953125">
        <ele>87.8000030517578125</ele>
        <time>2021-09-27T11:23:06.000Z</time>
      </trkpt>
      <trkpt lat="39.67244566418230533599853515625" lon="-0.3113607130944728851318359375">
        <ele>87.59999847412109375</ele>
        <time>2021-09-27T11:23:08.000Z</time>
      </trkpt>
      <trkpt lat="39.67241766862571239471435546875" lon="-0.31118787825107574462890625">
        <ele>87.59999847412109375</ele>
        <time>2021-09-27T11:23:10.000Z</time>
      </trkpt>
      <trkpt lat="39.67238279990851879119873046875" lon="-0.3110251016914844512939453125">
        <ele>87.59999847412109375</ele>
        <time>2021-09-27T11:23:12.000Z</time>
      </trkpt>
      <trkpt lat="39.672362767159938812255859375" lon="-0.310954861342906951904296875">
        <ele>87.8000030517578125</ele>
        <time>2021-09-27T11:23:13.000Z</time>
      </trkpt>
      <trkpt lat="39.67234323732554912567138671875" lon="-0.31088856048882007598876953125">
        <ele>87.8000030517578125</ele>
        <time>2021-09-27T11:23:14.000Z</time>
      </trkpt>
      <trkpt lat="39.6723032556474208831787109375" lon="-0.31076408922672271728515625">
        <ele>88</ele>
        <time>2021-09-27T11:23:16.000Z</time>
      </trkpt>
      <trkpt lat="39.67227450571954250335693359375" lon="-0.31065302900969982147216796875">
        <ele>88.1999969482421875</ele>
        <time>2021-09-27T11:23:18.000Z</time>
      </trkpt>
      <trkpt lat="39.67225807718932628631591796875" lon="-0.3106066770851612091064453125">
        <ele>88.1999969482421875</ele>
        <time>2021-09-27T11:23:19.000Z</time>
      </trkpt>
      <trkpt lat="39.67224366031587123870849609375" lon="-0.31056535430252552032470703125">
        <ele>88.40000152587890625</ele>
        <time>2021-09-27T11:23:20.000Z</time>
      </trkpt>
      <trkpt lat="39.6722177602350711822509765625" lon="-0.31049176119267940521240234375">
        <ele>88.40000152587890625</ele>
        <time>2021-09-27T11:23:22.000Z</time>
      </trkpt>
      <trkpt lat="39.67219672165811061859130859375" lon="-0.31042537651956081390380859375">
        <ele>88.40000152587890625</ele>
        <time>2021-09-27T11:23:24.000Z</time>
      </trkpt>
      <trkpt lat="39.6721852384507656097412109375" lon="-0.3103957884013652801513671875">
        <ele>88.59999847412109375</ele>
        <time>2021-09-27T11:23:26.000Z</time>
      </trkpt>
      <trkpt lat="39.67218113131821155548095703125" lon="-0.3103964589536190032958984375">
        <ele>88.59999847412109375</ele>
        <time>2021-09-27T11:23:28.000Z</time>
      </trkpt>
      <trkpt lat="39.6721768565475940704345703125" lon="-0.31035848893225193023681640625">
        <ele>88.40000152587890625</ele>
        <time>2021-09-27T11:23:33.000Z</time>
      </trkpt>
      <trkpt lat="39.67217828147113323211669921875" lon="-0.31033351086080074310302734375">
        <ele>88.40000152587890625</ele>
        <time>2021-09-27T11:23:34.000Z</time>
      </trkpt>
      <trkpt lat="39.6721882559359073638916015625" lon="-0.3102455846965312957763671875">
        <ele>88.1999969482421875</ele>
        <time>2021-09-27T11:23:36.000Z</time>
      </trkpt>
      <trkpt lat="39.6722077019512653350830078125" lon="-0.31013368628919124603271484375">
        <ele>88</ele>
        <time>2021-09-27T11:23:38.000Z</time>
      </trkpt>
      <trkpt lat="39.67222203500568866729736328125" lon="-0.3100256435573101043701171875">
        <ele>88</ele>
        <time>2021-09-27T11:23:40.000Z</time>
      </trkpt>
      <trkpt lat="39.67222832143306732177734375" lon="-0.30991106294095516204833984375">
        <ele>87.8000030517578125</ele>
        <time>2021-09-27T11:23:42.000Z</time>
      </trkpt>
      <trkpt lat="39.67221817933022975921630859375" lon="-0.3097946383059024810791015625">
        <ele>88</ele>
        <time>2021-09-27T11:23:44.000Z</time>
      </trkpt>
      <trkpt lat="39.6722050197422504425048828125" lon="-0.309674441814422607421875">
        <ele>88</ele>
        <time>2021-09-27T11:23:46.000Z</time>
      </trkpt>
      <trkpt lat="39.67219605110585689544677734375" lon="-0.3095599450170993804931640625">
        <ele>88.59999847412109375</ele>
        <time>2021-09-27T11:23:48.000Z</time>
      </trkpt>
      <trkpt lat="39.67219471000134944915771484375" lon="-0.309441089630126953125">
        <ele>89</ele>
        <time>2021-09-27T11:23:50.000Z</time>
      </trkpt>
      <trkpt lat="39.67218917794525623321533203125" lon="-0.3093235753476619720458984375">
        <ele>89</ele>
        <time>2021-09-27T11:23:52.000Z</time>
      </trkpt>
      <trkpt lat="39.6721875853836536407470703125" lon="-0.3092628903687000274658203125">
        <ele>89</ele>
        <time>2021-09-27T11:23:53.000Z</time>
      </trkpt>
      <trkpt lat="39.672189094126224517822265625" lon="-0.30919860117137432098388671875">
        <ele>89</ele>
        <time>2021-09-27T11:23:54.000Z</time>
      </trkpt>
      <trkpt lat="39.6721847355365753173828125" lon="-0.30907253734767436981201171875">
        <ele>89</ele>
        <time>2021-09-27T11:23:56.000Z</time>
      </trkpt>
      <trkpt lat="39.67218079604208469390869140625" lon="-0.3089408576488494873046875">
        <ele>89</ele>
        <time>2021-09-27T11:23:58.000Z</time>
      </trkpt>
      <trkpt lat="39.67217476107180118560791015625" lon="-0.30880297534167766571044921875">
        <ele>89.1999969482421875</ele>
        <time>2021-09-27T11:24:00.000Z</time>
      </trkpt>
      <trkpt lat="39.67216973192989826202392578125" lon="-0.30873231589794158935546875">
        <ele>89.40000152587890625</ele>
        <time>2021-09-27T11:24:01.000Z</time>
      </trkpt>
      <trkpt lat="39.67216528952121734619140625" lon="-0.3086654283106327056884765625">
        <ele>89.59999847412109375</ele>
        <time>2021-09-27T11:24:02.000Z</time>
      </trkpt>
      <trkpt lat="39.67215950600802898406982421875" lon="-0.30852503143250942230224609375">
        <ele>90</ele>
        <time>2021-09-27T11:24:04.000Z</time>
      </trkpt>
      <trkpt lat="39.672148190438747406005859375" lon="-0.30830156989395618438720703125">
        <ele>91</ele>
        <time>2021-09-27T11:24:06.000Z</time>
      </trkpt>
      <trkpt lat="39.67214559204876422882080078125" lon="-0.30822512693703174591064453125">
        <ele>91.1999969482421875</ele>
        <time>2021-09-27T11:24:08.000Z</time>
      </trkpt>
      <trkpt lat="39.67214391566812992095947265625" lon="-0.30814885161817073822021484375">
        <ele>91.59999847412109375</ele>
        <time>2021-09-27T11:24:09.000Z</time>
      </trkpt>
      <trkpt lat="39.672140814363956451416015625" lon="-0.30807374976575374603271484375">
        <ele>91.8000030517578125</ele>
        <time>2021-09-27T11:24:10.000Z</time>
      </trkpt>
      <trkpt lat="39.672132097184658050537109375" lon="-0.30792186968028545379638671875">
        <ele>92</ele>
        <time>2021-09-27T11:24:12.000Z</time>
      </trkpt>
      <trkpt lat="39.6721215359866619110107421875" lon="-0.3077740967273712158203125">
        <ele>92</ele>
        <time>2021-09-27T11:24:14.000Z</time>
      </trkpt>
      <trkpt lat="39.67207409441471099853515625" lon="-0.3075798042118549346923828125">
        <ele>92.8000030517578125</ele>
        <time>2021-09-27T11:24:16.000Z</time>
      </trkpt>
      <trkpt lat="39.672046937048435211181640625" lon="-0.30752054415643215179443359375">
        <ele>93.1999969482421875</ele>
        <time>2021-09-27T11:24:18.000Z</time>
      </trkpt>
      <trkpt lat="39.67198197729885578155517578125" lon="-0.30740722082555294036865234375">
        <ele>94.59999847412109375</ele>
        <time>2021-09-27T11:24:20.000Z</time>
      </trkpt>
      <trkpt lat="39.67195808887481689453125" lon="-0.3073457814753055572509765625">
        <ele>95.1999969482421875</ele>
        <time>2021-09-27T11:24:21.000Z</time>
      </trkpt>
      <trkpt lat="39.67194627039134502410888671875" lon="-0.3072770498692989349365234375">
        <ele>95.59999847412109375</ele>
        <time>2021-09-27T11:24:22.000Z</time>
      </trkpt>
      <trkpt lat="39.67196035198867321014404296875" lon="-0.30713698826730251312255859375">
        <ele>95.8000030517578125</ele>
        <time>2021-09-27T11:24:24.000Z</time>
      </trkpt>
      <trkpt lat="39.6720063686370849609375" lon="-0.30701075680553913116455078125">
        <ele>94.8000030517578125</ele>
        <time>2021-09-27T11:24:26.000Z</time>
      </trkpt>
      <trkpt lat="39.6720492839813232421875" lon="-0.30689139850437641143798828125">
        <ele>94</ele>
        <time>2021-09-27T11:24:28.000Z</time>
      </trkpt>
      <trkpt lat="39.67206378467381000518798828125" lon="-0.30683389864861965179443359375">
        <ele>93.8000030517578125</ele>
        <time>2021-09-27T11:24:29.000Z</time>
      </trkpt>
      <trkpt lat="39.67208079993724822998046875" lon="-0.3067734651267528533935546875">
        <ele>93.40000152587890625</ele>
        <time>2021-09-27T11:24:30.000Z</time>
      </trkpt>
      <trkpt lat="39.67213176190853118896484375" lon="-0.30659652315080165863037109375">
        <ele>92.8000030517578125</ele>
        <time>2021-09-27T11:24:32.000Z</time>
      </trkpt>
      <trkpt lat="39.6721564047038555145263671875" lon="-0.30653080902993679046630859375">
        <ele>92.40000152587890625</ele>
        <time>2021-09-27T11:24:34.000Z</time>
      </trkpt>
      <trkpt lat="39.67218448407948017120361328125" lon="-0.30646123923361301422119140625">
        <ele>92</ele>
        <time>2021-09-27T11:24:35.000Z</time>
      </trkpt>
      <trkpt lat="39.6722180955111980438232421875" lon="-0.3063833713531494140625">
        <ele>91.40000152587890625</ele>
        <time>2021-09-27T11:24:36.000Z</time>
      </trkpt>
      <trkpt lat="39.67233032919466495513916015625" lon="-0.30613400973379611968994140625">
        <ele>89.8000030517578125</ele>
        <time>2021-09-27T11:24:38.000Z</time>
      </trkpt>
      <trkpt lat="39.6723605878651142120361328125" lon="-0.30604901723563671112060546875">
        <ele>89.40000152587890625</ele>
        <time>2021-09-27T11:24:40.000Z</time>
      </trkpt>
      <trkpt lat="39.67241465114057064056396484375" lon="-0.30586344189941883087158203125">
        <ele>88.40000152587890625</ele>
        <time>2021-09-27T11:24:42.000Z</time>
      </trkpt>
      <trkpt lat="39.67247567139565944671630859375" lon="-0.30556554906070232391357421875">
        <ele>87.1999969482421875</ele>
        <time>2021-09-27T11:24:44.000Z</time>
      </trkpt>
      <trkpt lat="39.67249494977295398712158203125" lon="-0.30545943416655063629150390625">
        <ele>86.59999847412109375</ele>
        <time>2021-09-27T11:24:46.000Z</time>
      </trkpt>
      <trkpt lat="39.67253484763205051422119140625" lon="-0.30524569563567638397216796875">
        <ele>85</ele>
        <time>2021-09-27T11:24:48.000Z</time>
      </trkpt>
      <trkpt lat="39.6725709736347198486328125" lon="-0.30503028072416782379150390625">
        <ele>83.40000152587890625</ele>
        <time>2021-09-27T11:24:50.000Z</time>
      </trkpt>
      <trkpt lat="39.67260248959064483642578125" lon="-0.3048114292323589324951171875">
        <ele>82.1999969482421875</ele>
        <time>2021-09-27T11:24:52.000Z</time>
      </trkpt>
      <trkpt lat="39.67263006605207920074462890625" lon="-0.3045871295034885406494140625">
        <ele>81</ele>
        <time>2021-09-27T11:24:54.000Z</time>
      </trkpt>
      <trkpt lat="39.6726428903639316558837890625" lon="-0.304475314915180206298828125">
        <ele>80.59999847412109375</ele>
        <time>2021-09-27T11:24:55.000Z</time>
      </trkpt>
      <trkpt lat="39.672654457390308380126953125" lon="-0.30436241067945957183837890625">
        <ele>80</ele>
        <time>2021-09-27T11:24:56.000Z</time>
      </trkpt>
      <trkpt lat="39.67266661114990711212158203125" lon="-0.3042511828243732452392578125">
        <ele>79.59999847412109375</ele>
        <time>2021-09-27T11:24:57.000Z</time>
      </trkpt>
      <trkpt lat="39.6726780943572521209716796875" lon="-0.3041395358741283416748046875">
        <ele>79.1999969482421875</ele>
        <time>2021-09-27T11:24:58.000Z</time>
      </trkpt>
      <trkpt lat="39.67271069996058940887451171875" lon="-0.3038062714040279388427734375">
        <ele>76.8000030517578125</ele>
        <time>2021-09-27T11:25:00.000Z</time>
      </trkpt>
      <trkpt lat="39.672722183167934417724609375" lon="-0.30369504354894161224365234375">
        <ele>76.59999847412109375</ele>
        <time>2021-09-27T11:25:02.000Z</time>
      </trkpt>
      <trkpt lat="39.6727461554110050201416015625" lon="-0.30347443185746669769287109375">
        <ele>76.40000152587890625</ele>
        <time>2021-09-27T11:25:04.000Z</time>
      </trkpt>
      <trkpt lat="39.6727565489709377288818359375" lon="-0.30336597003042697906494140625">
        <ele>76.1999969482421875</ele>
        <time>2021-09-27T11:25:05.000Z</time>
      </trkpt>
      <trkpt lat="39.67277037911117076873779296875" lon="-0.3032591007649898529052734375">
        <ele>76.1999969482421875</ele>
        <time>2021-09-27T11:25:06.000Z</time>
      </trkpt>
      <trkpt lat="39.6727951057255268096923828125" lon="-0.30304745770990848541259765625">
        <ele>75.8000030517578125</ele>
        <time>2021-09-27T11:25:08.000Z</time>
      </trkpt>
      <trkpt lat="39.67281882651150226593017578125" lon="-0.3028396703302860260009765625">
        <ele>75</ele>
        <time>2021-09-27T11:25:10.000Z</time>
      </trkpt>
      <trkpt lat="39.67284313403069972991943359375" lon="-0.302633307874202728271484375">
        <ele>74.40000152587890625</ele>
        <time>2021-09-27T11:25:12.000Z</time>
      </trkpt>
      <trkpt lat="39.67285486869513988494873046875" lon="-0.30253046192228794097900390625">
        <ele>74</ele>
        <time>2021-09-27T11:25:13.000Z</time>
      </trkpt>
      <trkpt lat="39.67286559753119945526123046875" lon="-0.30242971144616603851318359375">
        <ele>73.8000030517578125</ele>
        <time>2021-09-27T11:25:14.000Z</time>
      </trkpt>
      <trkpt lat="39.672881774604320526123046875" lon="-0.3022308088839054107666015625">
        <ele>73.1999969482421875</ele>
        <time>2021-09-27T11:25:16.000Z</time>
      </trkpt>
      <trkpt lat="39.67289577238261699676513671875" lon="-0.30202587135136127471923828125">
        <ele>72.8000030517578125</ele>
        <time>2021-09-27T11:25:18.000Z</time>
      </trkpt>
      <trkpt lat="39.67290826141834259033203125" lon="-0.30172445811331272125244140625">
        <ele>72</ele>
        <time>2021-09-27T11:25:20.000Z</time>
      </trkpt>
      <trkpt lat="39.67290826141834259033203125" lon="-0.30172445811331272125244140625">
        <ele>72</ele>
        <time>2021-09-27T11:25:21.000Z</time>
      </trkpt>
      <trkpt lat="39.6729116141796112060546875" lon="-0.30152144841849803924560546875">
        <ele>71.59999847412109375</ele>
        <time>2021-09-27T11:25:22.000Z</time>
      </trkpt>
      <trkpt lat="39.67291186563670635223388671875" lon="-0.301418602466583251953125">
        <ele>71.1999969482421875</ele>
        <time>2021-09-27T11:25:24.000Z</time>
      </trkpt>
      <trkpt lat="39.67291488312184810638427734375" lon="-0.30111274681985378265380859375">
        <ele>71</ele>
        <time>2021-09-27T11:25:26.000Z</time>
      </trkpt>
      <trkpt lat="39.67292091809213161468505859375" lon="-0.30090688727796077728271484375">
        <ele>71</ele>
        <time>2021-09-27T11:25:28.000Z</time>
      </trkpt>
      <trkpt lat="39.67292301356792449951171875" lon="-0.300702117383480072021484375">
        <ele>71</ele>
        <time>2021-09-27T11:25:30.000Z</time>
      </trkpt>
      <trkpt lat="39.672922007739543914794921875" lon="-0.3006023727357387542724609375">
        <ele>71</ele>
        <time>2021-09-27T11:25:32.000Z</time>
      </trkpt>
      <trkpt lat="39.67292527668178081512451171875" lon="-0.300303138792514801025390625">
        <ele>71</ele>
        <time>2021-09-27T11:25:34.000Z</time>
      </trkpt>
      <trkpt lat="39.67293214984238147735595703125" lon="-0.300100632011890411376953125">
        <ele>71.1999969482421875</ele>
        <time>2021-09-27T11:25:36.000Z</time>
      </trkpt>
      <trkpt lat="39.67293432913720607757568359375" lon="-0.29989770613610744476318359375">
        <ele>71.59999847412109375</ele>
        <time>2021-09-27T11:25:38.000Z</time>
      </trkpt>
      <trkpt lat="39.67293516732752323150634765625" lon="-0.2997990511357784271240234375">
        <ele>71.59999847412109375</ele>
        <time>2021-09-27T11:25:40.000Z</time>
      </trkpt>
      <trkpt lat="39.6729308925569057464599609375" lon="-0.2995110489428043365478515625">
        <ele>71.8000030517578125</ele>
        <time>2021-09-27T11:25:42.000Z</time>
      </trkpt>
      <trkpt lat="39.67293131165206432342529296875" lon="-0.299417339265346527099609375">
        <ele>71.8000030517578125</ele>
        <time>2021-09-27T11:25:43.000Z</time>
      </trkpt>
      <trkpt lat="39.672932066023349761962890625" lon="-0.29932471923530101776123046875">
        <ele>71.8000030517578125</ele>
        <time>2021-09-27T11:25:44.000Z</time>
      </trkpt>
      <trkpt lat="39.67293282039463520050048828125" lon="-0.29923168011009693145751953125">
        <ele>71.8000030517578125</ele>
        <time>2021-09-27T11:25:46.000Z</time>
      </trkpt>
      <trkpt lat="39.672940112650394439697265625" lon="-0.2989710867404937744140625">
        <ele>71.8000030517578125</ele>
        <time>2021-09-27T11:25:48.000Z</time>
      </trkpt>
      <trkpt lat="39.6729439683258533477783203125" lon="-0.29882314614951610565185546875">
        <ele>71.8000030517578125</ele>
        <time>2021-09-27T11:25:50.000Z</time>
      </trkpt>
      <trkpt lat="39.67294237576425075531005859375" lon="-0.2987479604780673980712890625">
        <ele>71.8000030517578125</ele>
        <time>2021-09-27T11:25:52.000Z</time>
      </trkpt>
      <trkpt lat="39.67293466441333293914794921875" lon="-0.29854604043066501617431640625">
        <ele>72</ele>
        <time>2021-09-27T11:25:54.000Z</time>
      </trkpt>
      <trkpt lat="39.67292058281600475311279296875" lon="-0.29840975068509578704833984375">
        <ele>72.1999969482421875</ele>
        <time>2021-09-27T11:25:56.000Z</time>
      </trkpt>
      <trkpt lat="39.6729134581983089447021484375" lon="-0.29828368686139583587646484375">
        <ele>72.40000152587890625</ele>
        <time>2021-09-27T11:25:58.000Z</time>
      </trkpt>
      <trkpt lat="39.67289929278194904327392578125" lon="-0.2981588803231716156005859375">
        <ele>72.59999847412109375</ele>
        <time>2021-09-27T11:26:00.000Z</time>
      </trkpt>
      <trkpt lat="39.67288680374622344970703125" lon="-0.298035331070423126220703125">
        <ele>72.8000030517578125</ele>
        <time>2021-09-27T11:26:02.000Z</time>
      </trkpt>
      <trkpt lat="39.672874398529529571533203125" lon="-0.29791295528411865234375">
        <ele>73</ele>
        <time>2021-09-27T11:26:04.000Z</time>
      </trkpt>
      <trkpt lat="39.672858975827693939208984375" lon="-0.29779166914522647857666015625">
        <ele>73.1999969482421875</ele>
        <time>2021-09-27T11:26:06.000Z</time>
      </trkpt>
      <trkpt lat="39.672848917543888092041015625" lon="-0.29772989451885223388671875">
        <ele>73.40000152587890625</ele>
        <time>2021-09-27T11:26:07.000Z</time>
      </trkpt>
      <trkpt lat="39.67283911071717739105224609375" lon="-0.29766778461635112762451171875">
        <ele>73.59999847412109375</ele>
        <time>2021-09-27T11:26:08.000Z</time>
      </trkpt>
      <trkpt lat="39.67282016761600971221923828125" lon="-0.29754222370684146881103515625">
        <ele>73.8000030517578125</ele>
        <time>2021-09-27T11:26:10.000Z</time>
      </trkpt>
      <trkpt lat="39.6728078462183475494384765625" lon="-0.297478102147579193115234375">
        <ele>74</ele>
        <time>2021-09-27T11:26:12.000Z</time>
      </trkpt>
      <trkpt lat="39.67277574352920055389404296875" lon="-0.297286324203014373779296875">
        <ele>74.59999847412109375</ele>
        <time>2021-09-27T11:26:14.000Z</time>
      </trkpt>
      <trkpt lat="39.672749340534210205078125" lon="-0.2971493639051914215087890625">
        <ele>74.8000030517578125</ele>
        <time>2021-09-27T11:26:16.000Z</time>
      </trkpt>
      <trkpt lat="39.6727238595485687255859375" lon="-0.2969934605062007904052734375">
        <ele>74.59999847412109375</ele>
        <time>2021-09-27T11:26:18.000Z</time>
      </trkpt>
      <trkpt lat="39.6726972050964832305908203125" lon="-0.29682892374694347381591796875">
        <ele>74.40000152587890625</ele>
        <time>2021-09-27T11:26:20.000Z</time>
      </trkpt>
      <trkpt lat="39.67266552150249481201171875" lon="-0.29665642417967319488525390625">
        <ele>74.1999969482421875</ele>
        <time>2021-09-27T11:26:22.000Z</time>
      </trkpt>
      <trkpt lat="39.6726328320801258087158203125" lon="-0.29646816663444042205810546875">
        <ele>74.40000152587890625</ele>
        <time>2021-09-27T11:26:24.000Z</time>
      </trkpt>
      <trkpt lat="39.6725962869822978973388671875" lon="-0.2962706051766872406005859375">
        <ele>75.1999969482421875</ele>
        <time>2021-09-27T11:26:26.000Z</time>
      </trkpt>
      <trkpt lat="39.672562591731548309326171875" lon="-0.296070277690887451171875">
        <ele>75</ele>
        <time>2021-09-27T11:26:28.000Z</time>
      </trkpt>
      <trkpt lat="39.67254616320133209228515625" lon="-0.29596826992928981781005859375">
        <ele>75</ele>
        <time>2021-09-27T11:26:29.000Z</time>
      </trkpt>
      <trkpt lat="39.6725268848240375518798828125" lon="-0.2958672679960727691650390625">
        <ele>75</ele>
        <time>2021-09-27T11:26:30.000Z</time>
      </trkpt>
      <trkpt lat="39.67248841188848018646240234375" lon="-0.29566702432930469512939453125">
        <ele>75.1999969482421875</ele>
        <time>2021-09-27T11:26:32.000Z</time>
      </trkpt>
      <trkpt lat="39.6724504418671131134033203125" lon="-0.29547574929893016815185546875">
        <ele>75.40000152587890625</ele>
        <time>2021-09-27T11:26:34.000Z</time>
      </trkpt>
      <trkpt lat="39.67241741716861724853515625" lon="-0.29529252089560031890869140625">
        <ele>75.40000152587890625</ele>
        <time>2021-09-27T11:26:36.000Z</time>
      </trkpt>
      <trkpt lat="39.67239989899098873138427734375" lon="-0.29520191252231597900390625">
        <ele>75.40000152587890625</ele>
        <time>2021-09-27T11:26:37.000Z</time>
      </trkpt>
      <trkpt lat="39.67239989899098873138427734375" lon="-0.29520191252231597900390625">
        <ele>75.40000152587890625</ele>
        <time>2021-09-27T11:26:38.000Z</time>
      </trkpt>
      <trkpt lat="39.672350697219371795654296875" lon="-0.29493503272533416748046875">
        <ele>75.1999969482421875</ele>
        <time>2021-09-27T11:26:40.000Z</time>
      </trkpt>
      <trkpt lat="39.672321192920207977294921875" lon="-0.29476513154804706573486328125">
        <ele>75</ele>
        <time>2021-09-27T11:26:42.000Z</time>
      </trkpt>
      <trkpt lat="39.6722911857068538665771484375" lon="-0.29460486955940723419189453125">
        <ele>74.8000030517578125</ele>
        <time>2021-09-27T11:26:44.000Z</time>
      </trkpt>
      <trkpt lat="39.6722620166838169097900390625" lon="-0.29444460757076740264892578125">
        <ele>75</ele>
        <time>2021-09-27T11:26:46.000Z</time>
      </trkpt>
      <trkpt lat="39.6722318418323993682861328125" lon="-0.29428082518279552459716796875">
        <ele>75.1999969482421875</ele>
        <time>2021-09-27T11:26:48.000Z</time>
      </trkpt>
      <trkpt lat="39.672202505171298980712890625" lon="-0.294112600386142730712890625">
        <ele>75.1999969482421875</ele>
        <time>2021-09-27T11:26:50.000Z</time>
      </trkpt>
      <trkpt lat="39.67217643745243549346923828125" lon="-0.293941609561443328857421875">
        <ele>75.40000152587890625</ele>
        <time>2021-09-27T11:26:52.000Z</time>
      </trkpt>
      <trkpt lat="39.67215648852288722991943359375" lon="-0.2937717922031879425048828125">
        <ele>75.40000152587890625</ele>
        <time>2021-09-27T11:26:54.000Z</time>
      </trkpt>
      <trkpt lat="39.67213310301303863525390625" lon="-0.2936024777591228485107421875">
        <ele>75</ele>
        <time>2021-09-27T11:26:56.000Z</time>
      </trkpt>
      <trkpt lat="39.67211005277931690216064453125" lon="-0.293440036475658416748046875">
        <ele>74.8000030517578125</ele>
        <time>2021-09-27T11:26:58.000Z</time>
      </trkpt>
      <trkpt lat="39.67208390124142169952392578125" lon="-0.29328505508601665496826171875">
        <ele>75</ele>
        <time>2021-09-27T11:27:00.000Z</time>
      </trkpt>
      <trkpt lat="39.67207275331020355224609375" lon="-0.2932071872055530548095703125">
        <ele>74.8000030517578125</ele>
        <time>2021-09-27T11:27:01.000Z</time>
      </trkpt>
      <trkpt lat="39.6720611862838268280029296875" lon="-0.29313032515347003936767578125">
        <ele>74.8000030517578125</ele>
        <time>2021-09-27T11:27:02.000Z</time>
      </trkpt>
      <trkpt lat="39.67203813605010509490966796875" lon="-0.29296855442225933074951171875">
        <ele>74.8000030517578125</ele>
        <time>2021-09-27T11:27:04.000Z</time>
      </trkpt>
      <trkpt lat="39.6720088832080364227294921875" lon="-0.29279999434947967529296875">
        <ele>73.59999847412109375</ele>
        <time>2021-09-27T11:27:06.000Z</time>
      </trkpt>
      <trkpt lat="39.67196973972022533416748046875" lon="-0.2926330268383026123046875">
        <ele>72.8000030517578125</ele>
        <time>2021-09-27T11:27:08.000Z</time>
      </trkpt>
      <trkpt lat="39.6719032712280750274658203125" lon="-0.29247636906802654266357421875">
        <ele>72.8000030517578125</ele>
        <time>2021-09-27T11:27:10.000Z</time>
      </trkpt>
      <trkpt lat="39.6718295104801654815673828125" lon="-0.2923294343054294586181640625">
        <ele>73</ele>
        <time>2021-09-27T11:27:12.000Z</time>
      </trkpt>
      <trkpt lat="39.671792127192020416259765625" lon="-0.29225810430943965911865234375">
        <ele>72.59999847412109375</ele>
        <time>2021-09-27T11:27:13.000Z</time>
      </trkpt>
      <trkpt lat="39.67174828983843326568603515625" lon="-0.29218987561762332916259765625">
        <ele>72.59999847412109375</ele>
        <time>2021-09-27T11:27:14.000Z</time>
      </trkpt>
      <trkpt lat="39.6716536581516265869140625" lon="-0.2920504845678806304931640625">
        <ele>72.8000030517578125</ele>
        <time>2021-09-27T11:27:16.000Z</time>
      </trkpt>
      <trkpt lat="39.6715441904962062835693359375" lon="-0.2919103391468524932861328125">
        <ele>73.40000152587890625</ele>
        <time>2021-09-27T11:27:18.000Z</time>
      </trkpt>
      <trkpt lat="39.671482332050800323486328125" lon="-0.29184387065470218658447265625">
        <ele>74</ele>
        <time>2021-09-27T11:27:19.000Z</time>
      </trkpt>
      <trkpt lat="39.6714201383292675018310546875" lon="-0.29177715070545673370361328125">
        <ele>73.1999969482421875</ele>
        <time>2021-09-27T11:27:20.000Z</time>
      </trkpt>
      <trkpt lat="39.67135467566549777984619140625" lon="-0.29171294532716274261474609375">
        <ele>72.40000152587890625</ele>
        <time>2021-09-27T11:27:21.000Z</time>
      </trkpt>
      <trkpt lat="39.67128745280206203460693359375" lon="-0.29164672829210758209228515625">
        <ele>71.59999847412109375</ele>
        <time>2021-09-27T11:27:22.000Z</time>
      </trkpt>
      <trkpt lat="39.671149738132953643798828125" lon="-0.29151395894587039947509765625">
        <ele>69.59999847412109375</ele>
        <time>2021-09-27T11:27:24.000Z</time>
      </trkpt>
      <trkpt lat="39.67100850306451320648193359375" lon="-0.2913775853812694549560546875">
        <ele>66.8000030517578125</ele>
        <time>2021-09-27T11:27:26.000Z</time>
      </trkpt>
      <trkpt lat="39.6708619035780429840087890625" lon="-0.29123651795089244842529296875">
        <ele>64.8000030517578125</ele>
        <time>2021-09-27T11:27:28.000Z</time>
      </trkpt>
      <trkpt lat="39.67071262188255786895751953125" lon="-0.2910875715315341949462890625">
        <ele>63.40000152587890625</ele>
        <time>2021-09-27T11:27:30.000Z</time>
      </trkpt>
      <trkpt lat="39.6705619990825653076171875" lon="-0.29093745164573192596435546875">
        <ele>62.59999847412109375</ele>
        <time>2021-09-27T11:27:32.000Z</time>
      </trkpt>
      <trkpt lat="39.67040500603616237640380859375" lon="-0.29078967869281768798828125">
        <ele>62.59999847412109375</ele>
        <time>2021-09-27T11:27:34.000Z</time>
      </trkpt>
      <trkpt lat="39.67024943791329860687255859375" lon="-0.2906356193125247955322265625">
        <ele>61.799999237060546875</ele>
        <time>2021-09-27T11:27:36.000Z</time>
      </trkpt>
      <trkpt lat="39.6700957976281642913818359375" lon="-0.2904874272644519805908203125">
        <ele>62</ele>
        <time>2021-09-27T11:27:38.000Z</time>
      </trkpt>
      <trkpt lat="39.67001952230930328369140625" lon="-0.2904113195836544036865234375">
        <ele>62</ele>
        <time>2021-09-27T11:27:39.000Z</time>
      </trkpt>
      <trkpt lat="39.66994115151464939117431640625" lon="-0.2903365530073642730712890625">
        <ele>61.799999237060546875</ele>
        <time>2021-09-27T11:27:40.000Z</time>
      </trkpt>
      <trkpt lat="39.6697823144495487213134765625" lon="-0.2901829965412616729736328125">
        <ele>61.40000152587890625</ele>
        <time>2021-09-27T11:27:42.000Z</time>
      </trkpt>
      <trkpt lat="39.66962364502251148223876953125" lon="-0.2900287695229053497314453125">
        <ele>62.200000762939453125</ele>
        <time>2021-09-27T11:27:44.000Z</time>
      </trkpt>
      <trkpt lat="39.66954418458044528961181640625" lon="-0.28995157219469547271728515625">
        <ele>62.59999847412109375</ele>
        <time>2021-09-27T11:27:45.000Z</time>
      </trkpt>
      <trkpt lat="39.66946841217577457427978515625" lon="-0.28987772762775421142578125">
        <ele>63.200000762939453125</ele>
        <time>2021-09-27T11:27:46.000Z</time>
      </trkpt>
      <trkpt lat="39.66931586153805255889892578125" lon="-0.28972777538001537322998046875">
        <ele>63.799999237060546875</ele>
        <time>2021-09-27T11:27:48.000Z</time>
      </trkpt>
      <trkpt lat="39.66916247271001338958740234375" lon="-0.2895820140838623046875">
        <ele>63.200000762939453125</ele>
        <time>2021-09-27T11:27:50.000Z</time>
      </trkpt>
      <trkpt lat="39.6690165437757968902587890625" lon="-0.2894303016364574432373046875">
        <ele>62.59999847412109375</ele>
        <time>2021-09-27T11:27:52.000Z</time>
      </trkpt>
      <trkpt lat="39.6688867919147014617919921875" lon="-0.28927800245583057403564453125">
        <ele>61.40000152587890625</ele>
        <time>2021-09-27T11:27:54.000Z</time>
      </trkpt>
      <trkpt lat="39.66876382939517498016357421875" lon="-0.28913073241710662841796875">
        <ele>60.40000152587890625</ele>
        <time>2021-09-27T11:27:56.000Z</time>
      </trkpt>
      <trkpt lat="39.66864891350269317626953125" lon="-0.28897608630359172821044921875">
        <ele>60</ele>
        <time>2021-09-27T11:27:58.000Z</time>
      </trkpt>
      <trkpt lat="39.6685288846492767333984375" lon="-0.28881146572530269622802734375">
        <ele>60.799999237060546875</ele>
        <time>2021-09-27T11:28:00.000Z</time>
      </trkpt>
      <trkpt lat="39.6684117056429386138916015625" lon="-0.288642235100269317626953125">
        <ele>62.200000762939453125</ele>
        <time>2021-09-27T11:28:02.000Z</time>
      </trkpt>
      <trkpt lat="39.66835278086364269256591796875" lon="-0.28855581767857074737548828125">
        <ele>63</ele>
        <time>2021-09-27T11:28:03.000Z</time>
      </trkpt>
      <trkpt lat="39.66829125769436359405517578125" lon="-0.288471244275569915771484375">
        <ele>63.799999237060546875</ele>
        <time>2021-09-27T11:28:04.000Z</time>
      </trkpt>
      <trkpt lat="39.66816653497517108917236328125" lon="-0.288296230137348175048828125">
        <ele>63.200000762939453125</ele>
        <time>2021-09-27T11:28:06.000Z</time>
      </trkpt>
      <trkpt lat="39.6680388785898685455322265625" lon="-0.2881119959056377410888671875">
        <ele>61.59999847412109375</ele>
        <time>2021-09-27T11:28:08.000Z</time>
      </trkpt>
      <trkpt lat="39.667912311851978302001953125" lon="-0.2879302762448787689208984375">
        <ele>60.200000762939453125</ele>
        <time>2021-09-27T11:28:10.000Z</time>
      </trkpt>
      <trkpt lat="39.667785577476024627685546875" lon="-0.2877462096512317657470703125">
        <ele>57.200000762939453125</ele>
        <time>2021-09-27T11:28:12.000Z</time>
      </trkpt>
      <trkpt lat="39.66771860606968402862548828125" lon="-0.28767186217010021209716796875">
        <ele>55.799999237060546875</ele>
        <time>2021-09-27T11:28:13.000Z</time>
      </trkpt>
      <trkpt lat="39.66764249838888645172119140625" lon="-0.2876184694468975067138671875">
        <ele>54.59999847412109375</ele>
        <time>2021-09-27T11:28:14.000Z</time>
      </trkpt>
      <trkpt lat="39.6675580926239490509033203125" lon="-0.28759114444255828857421875">
        <ele>53.799999237060546875</ele>
        <time>2021-09-27T11:28:15.000Z</time>
      </trkpt>
      <trkpt lat="39.6674739383161067962646484375" lon="-0.28759391047060489654541015625">
        <ele>53.40000152587890625</ele>
        <time>2021-09-27T11:28:16.000Z</time>
      </trkpt>
      <trkpt lat="39.6673941425979137420654296875" lon="-0.28762140311300754547119140625">
        <ele>53.40000152587890625</ele>
        <time>2021-09-27T11:28:17.000Z</time>
      </trkpt>
      <trkpt lat="39.66731996275484561920166015625" lon="-0.28766834177076816558837890625">
        <ele>53.799999237060546875</ele>
        <time>2021-09-27T11:28:18.000Z</time>
      </trkpt>
      <trkpt lat="39.66725005768239498138427734375" lon="-0.287723578512668609619140625">
        <ele>54.200000762939453125</ele>
        <time>2021-09-27T11:28:19.000Z</time>
      </trkpt>
      <trkpt lat="39.6671795658767223358154296875" lon="-0.287779904901981353759765625">
        <ele>54.799999237060546875</ele>
        <time>2021-09-27T11:28:20.000Z</time>
      </trkpt>
      <trkpt lat="39.667030535638332366943359375" lon="-0.2878873609006404876708984375">
        <ele>55.59999847412109375</ele>
        <time>2021-09-27T11:28:22.000Z</time>
      </trkpt>
      <trkpt lat="39.66695551760494709014892578125" lon="-0.287940166890621185302734375">
        <ele>55.40000152587890625</ele>
        <time>2021-09-27T11:28:23.000Z</time>
      </trkpt>
      <trkpt lat="39.666878990828990936279296875" lon="-0.28799003921449184417724609375">
        <ele>55.200000762939453125</ele>
        <time>2021-09-27T11:28:24.000Z</time>
      </trkpt>
      <trkpt lat="39.6668040566146373748779296875" lon="-0.28803681023418903350830078125">
        <ele>55</ele>
        <time>2021-09-27T11:28:25.000Z</time>
      </trkpt>
      <trkpt lat="39.6667264401912689208984375" lon="-0.2880759537220001220703125">
        <ele>54.59999847412109375</ele>
        <time>2021-09-27T11:28:26.000Z</time>
      </trkpt>
      <trkpt lat="39.66656676493585109710693359375" lon="-0.2881014347076416015625">
        <ele>52.59999847412109375</ele>
        <time>2021-09-27T11:28:28.000Z</time>
      </trkpt>
      <trkpt lat="39.66656676493585109710693359375" lon="-0.2881014347076416015625">
        <ele>52.59999847412109375</ele>
        <time>2021-09-27T11:28:29.000Z</time>
      </trkpt>
      <trkpt lat="39.66641790233552455902099609375" lon="-0.2880311943590641021728515625">
        <ele>48.799999237060546875</ele>
        <time>2021-09-27T11:28:30.000Z</time>
      </trkpt>
      <trkpt lat="39.666355289518833160400390625" lon="-0.2879691682755947113037109375">
        <ele>46.59999847412109375</ele>
        <time>2021-09-27T11:28:31.000Z</time>
      </trkpt>
      <trkpt lat="39.66630290262401103973388671875" lon="-0.28789549134671688079833984375">
        <ele>44.40000152587890625</ele>
        <time>2021-09-27T11:28:32.000Z</time>
      </trkpt>
      <trkpt lat="39.66621170751750469207763671875" lon="-0.2877509035170078277587890625">
        <ele>41.799999237060546875</ele>
        <time>2021-09-27T11:28:34.000Z</time>
      </trkpt>
      <trkpt lat="39.6661583147943019866943359375" lon="-0.28769013471901416778564453125">
        <ele>40.799999237060546875</ele>
        <time>2021-09-27T11:28:35.000Z</time>
      </trkpt>
      <trkpt lat="39.6660952828824520111083984375" lon="-0.2876456268131732940673828125">
        <ele>39.799999237060546875</ele>
        <time>2021-09-27T11:28:36.000Z</time>
      </trkpt>
      <trkpt lat="39.6659450791776180267333984375" lon="-0.28762090019881725311279296875">
        <ele>38.200000762939453125</ele>
        <time>2021-09-27T11:28:38.000Z</time>
      </trkpt>
      <trkpt lat="39.665792025625705718994140625" lon="-0.287677310407161712646484375">
        <ele>37.59999847412109375</ele>
        <time>2021-09-27T11:28:40.000Z</time>
      </trkpt>
      <trkpt lat="39.66571725904941558837890625" lon="-0.2877264283597469329833984375">
        <ele>37.40000152587890625</ele>
        <time>2021-09-27T11:28:41.000Z</time>
      </trkpt>
      <trkpt lat="39.66564224101603031158447265625" lon="-0.28778267093002796173095703125">
        <ele>37.40000152587890625</ele>
        <time>2021-09-27T11:28:42.000Z</time>
      </trkpt>
      <trkpt lat="39.66549371369183063507080078125" lon="-0.28790898621082305908203125">
        <ele>37.59999847412109375</ele>
        <time>2021-09-27T11:28:44.000Z</time>
      </trkpt>
      <trkpt lat="39.66534753330051898956298828125" lon="-0.28803597204387187957763671875">
        <ele>37.40000152587890625</ele>
        <time>2021-09-27T11:28:46.000Z</time>
      </trkpt>
      <trkpt lat="39.66527259908616542816162109375" lon="-0.2880995906889438629150390625">
        <ele>37.40000152587890625</ele>
        <time>2021-09-27T11:28:47.000Z</time>
      </trkpt>
      <trkpt lat="39.665197916328907012939453125" lon="-0.288162119686603546142578125">
        <ele>37.200000762939453125</ele>
        <time>2021-09-27T11:28:48.000Z</time>
      </trkpt>
      <trkpt lat="39.66504679061472415924072265625" lon="-0.2882853336632251739501953125">
        <ele>37</ele>
        <time>2021-09-27T11:28:50.000Z</time>
      </trkpt>
      <trkpt lat="39.66489541344344615936279296875" lon="-0.28840661980211734771728515625">
        <ele>36.799999237060546875</ele>
        <time>2021-09-27T11:28:52.000Z</time>
      </trkpt>
      <trkpt lat="39.664747305214405059814453125" lon="-0.2885240502655506134033203125">
        <ele>36.799999237060546875</ele>
        <time>2021-09-27T11:28:54.000Z</time>
      </trkpt>
      <trkpt lat="39.6646745502948760986328125" lon="-0.2885800413787364959716796875">
        <ele>36.59999847412109375</ele>
        <time>2021-09-27T11:28:55.000Z</time>
      </trkpt>
      <trkpt lat="39.664603136479854583740234375" lon="-0.288635194301605224609375">
        <ele>36.59999847412109375</ele>
        <time>2021-09-27T11:28:56.000Z</time>
      </trkpt>
      <trkpt lat="39.66446022503077983856201171875" lon="-0.28874340467154979705810546875">
        <ele>36.59999847412109375</ele>
        <time>2021-09-27T11:28:58.000Z</time>
      </trkpt>
      <trkpt lat="39.66432108543813228607177734375" lon="-0.28884398750960826873779296875">
        <ele>36.799999237060546875</ele>
        <time>2021-09-27T11:29:00.000Z</time>
      </trkpt>
      <trkpt lat="39.66418705880641937255859375" lon="-0.28893920592963695526123046875">
        <ele>36.799999237060546875</ele>
        <time>2021-09-27T11:29:02.000Z</time>
      </trkpt>
      <trkpt lat="39.66412209905683994293212890625" lon="-0.28898631222546100616455078125">
        <ele>36.799999237060546875</ele>
        <time>2021-09-27T11:29:03.000Z</time>
      </trkpt>
      <trkpt lat="39.66406107880175113677978515625" lon="-0.28903526253998279571533203125">
        <ele>36.799999237060546875</ele>
        <time>2021-09-27T11:29:04.000Z</time>
      </trkpt>
      <trkpt lat="39.6639501862227916717529296875" lon="-0.2891466580331325531005859375">
        <ele>36.799999237060546875</ele>
        <time>2021-09-27T11:29:06.000Z</time>
      </trkpt>
      <trkpt lat="39.66384910047054290771484375" lon="-0.289261825382709503173828125">
        <ele>36.799999237060546875</ele>
        <time>2021-09-27T11:29:08.000Z</time>
      </trkpt>
      <trkpt lat="39.6637510322034358978271484375" lon="-0.28937104158103466033935546875">
        <ele>36.799999237060546875</ele>
        <time>2021-09-27T11:29:10.000Z</time>
      </trkpt>
      <trkpt lat="39.6636524610221385955810546875" lon="-0.2894829399883747100830078125">
        <ele>36.799999237060546875</ele>
        <time>2021-09-27T11:29:12.000Z</time>
      </trkpt>
      <trkpt lat="39.66355749405920505523681640625" lon="-0.2895940840244293212890625">
        <ele>36.59999847412109375</ele>
        <time>2021-09-27T11:29:14.000Z</time>
      </trkpt>
      <trkpt lat="39.6634610183537006378173828125" lon="-0.28969910927116870880126953125">
        <ele>36.59999847412109375</ele>
        <time>2021-09-27T11:29:16.000Z</time>
      </trkpt>
      <trkpt lat="39.66341550461947917938232421875" lon="-0.28974772430956363677978515625">
        <ele>36.40000152587890625</ele>
        <time>2021-09-27T11:29:17.000Z</time>
      </trkpt>
      <trkpt lat="39.66337124817073345184326171875" lon="-0.2897950820624828338623046875">
        <ele>36.40000152587890625</ele>
        <time>2021-09-27T11:29:18.000Z</time>
      </trkpt>
      <trkpt lat="39.6632843278348445892333984375" lon="-0.28989038430154323577880859375">
        <ele>36.40000152587890625</ele>
        <time>2021-09-27T11:29:20.000Z</time>
      </trkpt>
      <trkpt lat="39.6631944738328456878662109375" lon="-0.28998828493058681488037109375">
        <ele>36.200000762939453125</ele>
        <time>2021-09-27T11:29:22.000Z</time>
      </trkpt>
      <trkpt lat="39.66310319490730762481689453125" lon="-0.29008132405579090118408203125">
        <ele>36.200000762939453125</ele>
        <time>2021-09-27T11:29:24.000Z</time>
      </trkpt>
      <trkpt lat="39.66301820240914821624755859375" lon="-0.29016598127782344818115234375">
        <ele>36</ele>
        <time>2021-09-27T11:29:26.000Z</time>
      </trkpt>
      <trkpt lat="39.66293421573936939239501953125" lon="-0.2902565896511077880859375">
        <ele>36</ele>
        <time>2021-09-27T11:29:28.000Z</time>
      </trkpt>
      <trkpt lat="39.66284553520381450653076171875" lon="-0.290356166660785675048828125">
        <ele>35.799999237060546875</ele>
        <time>2021-09-27T11:29:30.000Z</time>
      </trkpt>
      <trkpt lat="39.66275350190699100494384765625" lon="-0.29045633040368556976318359375">
        <ele>35.799999237060546875</ele>
        <time>2021-09-27T11:29:32.000Z</time>
      </trkpt>
      <trkpt lat="39.662657864391803741455078125" lon="-0.29056370258331298828125">
        <ele>35.59999847412109375</ele>
        <time>2021-09-27T11:29:34.000Z</time>
      </trkpt>
      <trkpt lat="39.6625574491918087005615234375" lon="-0.29067560099065303802490234375">
        <ele>35.200000762939453125</ele>
        <time>2021-09-27T11:29:36.000Z</time>
      </trkpt>
      <trkpt lat="39.66245326213538646697998046875" lon="-0.29078833758831024169921875">
        <ele>35</ele>
        <time>2021-09-27T11:29:38.000Z</time>
      </trkpt>
      <trkpt lat="39.6623544394969940185546875" lon="-0.2908954583108425140380859375">
        <ele>34.799999237060546875</ele>
        <time>2021-09-27T11:29:40.000Z</time>
      </trkpt>
      <trkpt lat="39.66230959631502628326416015625" lon="-0.290945582091808319091796875">
        <ele>34.59999847412109375</ele>
        <time>2021-09-27T11:29:41.000Z</time>
      </trkpt>
      <trkpt lat="39.662267267704010009765625" lon="-0.29099084436893463134765625">
        <ele>34.59999847412109375</ele>
        <time>2021-09-27T11:29:42.000Z</time>
      </trkpt>
      <trkpt lat="39.66219023801386356353759765625" lon="-0.29107491485774517059326171875">
        <ele>34.40000152587890625</ele>
        <time>2021-09-27T11:29:44.000Z</time>
      </trkpt>
      <trkpt lat="39.6621353365480899810791015625" lon="-0.2911532856523990631103515625">
        <ele>34.200000762939453125</ele>
        <time>2021-09-27T11:29:46.000Z</time>
      </trkpt>
      <trkpt lat="39.6621135435998439788818359375" lon="-0.291228555142879486083984375">
        <ele>34.200000762939453125</ele>
        <time>2021-09-27T11:29:48.000Z</time>
      </trkpt>
      <trkpt lat="39.66210692189633846282958984375" lon="-0.29125076718628406524658203125">
        <ele>34.40000152587890625</ele>
        <time>2021-09-27T11:29:50.000Z</time>
      </trkpt>
      <trkpt lat="39.66210692189633846282958984375" lon="-0.29125076718628406524658203125">
        <ele>34.40000152587890625</ele>
        <time>2021-09-27T11:29:51.000Z</time>
      </trkpt>
      <trkpt lat="39.6620317362248897552490234375" lon="-0.29126350767910480499267578125">
        <ele>34</ele>
        <time>2021-09-27T11:32:24.000Z</time>
      </trkpt>
      <trkpt lat="39.66201673261821269989013671875" lon="-0.29127960093319416046142578125">
        <ele>34</ele>
        <time>2021-09-27T11:32:25.000Z</time>
      </trkpt>
      <trkpt lat="39.662000052630901336669921875" lon="-0.29129854403436183929443359375">
        <ele>34</ele>
        <time>2021-09-27T11:32:26.000Z</time>
      </trkpt>
      <trkpt lat="39.66196409426629543304443359375" lon="-0.29133324511349201202392578125">
        <ele>34</ele>
        <time>2021-09-27T11:32:28.000Z</time>
      </trkpt>
      <trkpt lat="39.66191933490335941314697265625" lon="-0.29138244688510894775390625">
        <ele>34</ele>
        <time>2021-09-27T11:32:30.000Z</time>
      </trkpt>
      <trkpt lat="39.66189133934676647186279296875" lon="-0.29141320846974849700927734375">
        <ele>34</ele>
        <time>2021-09-27T11:32:31.000Z</time>
      </trkpt>
      <trkpt lat="39.66186133213341236114501953125" lon="-0.29144681990146636962890625">
        <ele>34</ele>
        <time>2021-09-27T11:32:32.000Z</time>
      </trkpt>
      <trkpt lat="39.66179788112640380859375" lon="-0.291513539850711822509765625">
        <ele>34</ele>
        <time>2021-09-27T11:32:34.000Z</time>
      </trkpt>
      <trkpt lat="39.6617346815764904022216796875" lon="-0.29157866723835468292236328125">
        <ele>34</ele>
        <time>2021-09-27T11:32:36.000Z</time>
      </trkpt>
      <trkpt lat="39.66167776845395565032958984375" lon="-0.2916441299021244049072265625">
        <ele>34</ele>
        <time>2021-09-27T11:32:38.000Z</time>
      </trkpt>
      <trkpt lat="39.66165211983025074005126953125" lon="-0.2916753105819225311279296875">
        <ele>34</ele>
        <time>2021-09-27T11:32:39.000Z</time>
      </trkpt>
      <trkpt lat="39.6616257168352603912353515625" lon="-0.29170573689043521881103515625">
        <ele>34</ele>
        <time>2021-09-27T11:32:40.000Z</time>
      </trkpt>
      <trkpt lat="39.6615737490355968475341796875" lon="-0.29176273383200168609619140625">
        <ele>34</ele>
        <time>2021-09-27T11:32:42.000Z</time>
      </trkpt>
      <trkpt lat="39.661550782620906829833984375" lon="-0.2917854487895965576171875">
        <ele>34</ele>
        <time>2021-09-27T11:32:43.000Z</time>
      </trkpt>
      <trkpt lat="39.66152823530137538909912109375" lon="-0.291809923946857452392578125">
        <ele>34</ele>
        <time>2021-09-27T11:32:44.000Z</time>
      </trkpt>
      <trkpt lat="39.6615006588399410247802734375" lon="-0.29183297418057918548583984375">
        <ele>34</ele>
        <time>2021-09-27T11:32:45.000Z</time>
      </trkpt>
      <trkpt lat="39.661470316350460052490234375" lon="-0.29185879044234752655029296875">
        <ele>34</ele>
        <time>2021-09-27T11:32:46.000Z</time>
      </trkpt>
      <trkpt lat="39.66143888421356678009033203125" lon="-0.29189282096922397613525390625">
        <ele>34</ele>
        <time>2021-09-27T11:32:47.000Z</time>
      </trkpt>
      <trkpt lat="39.66140485368669033050537109375" lon="-0.29192919842898845672607421875">
        <ele>34</ele>
        <time>2021-09-27T11:32:48.000Z</time>
      </trkpt>
      <trkpt lat="39.6613440848886966705322265625" lon="-0.2920042164623737335205078125">
        <ele>34</ele>
        <time>2021-09-27T11:32:50.000Z</time>
      </trkpt>
      <trkpt lat="39.661311395466327667236328125" lon="-0.29204051010310649871826171875">
        <ele>34</ele>
        <time>2021-09-27T11:32:51.000Z</time>
      </trkpt>
      <trkpt lat="39.66127560473978519439697265625" lon="-0.292076803743839263916015625">
        <ele>34</ele>
        <time>2021-09-27T11:32:52.000Z</time>
      </trkpt>
      <trkpt lat="39.66123721562325954437255859375" lon="-0.29211393557488918304443359375">
        <ele>34</ele>
        <time>2021-09-27T11:32:53.000Z</time>
      </trkpt>
      <trkpt lat="39.661199748516082763671875" lon="-0.292152576148509979248046875">
        <ele>34.200000762939453125</ele>
        <time>2021-09-27T11:32:54.000Z</time>
      </trkpt>
      <trkpt lat="39.6611174382269382476806640625" lon="-0.2922362275421619415283203125">
        <ele>34</ele>
        <time>2021-09-27T11:32:56.000Z</time>
      </trkpt>
      <trkpt lat="39.66107108630239963531494140625" lon="-0.2922824956476688385009765625">
        <ele>34</ele>
        <time>2021-09-27T11:32:57.000Z</time>
      </trkpt>
      <trkpt lat="39.6610282547771930694580078125" lon="-0.2923411689698696136474609375">
        <ele>34</ele>
        <time>2021-09-27T11:32:58.000Z</time>
      </trkpt>
      <trkpt lat="39.6609494648873805999755859375" lon="-0.2924585156142711639404296875">
        <ele>34.200000762939453125</ele>
        <time>2021-09-27T11:33:00.000Z</time>
      </trkpt>
      <trkpt lat="39.6608646400272846221923828125" lon="-0.292561613023281097412109375">
        <ele>34.200000762939453125</ele>
        <time>2021-09-27T11:33:02.000Z</time>
      </trkpt>
      <trkpt lat="39.66077537275850772857666015625" lon="-0.2926650457084178924560546875">
        <ele>34.200000762939453125</ele>
        <time>2021-09-27T11:33:04.000Z</time>
      </trkpt>
      <trkpt lat="39.66068753041326999664306640625" lon="-0.292774178087711334228515625">
        <ele>34.200000762939453125</ele>
        <time>2021-09-27T11:33:06.000Z</time>
      </trkpt>
      <trkpt lat="39.660639502108097076416015625" lon="-0.29282622970640659332275390625">
        <ele>34.200000762939453125</ele>
        <time>2021-09-27T11:33:07.000Z</time>
      </trkpt>
      <trkpt lat="39.6605866961181163787841796875" lon="-0.29287509620189666748046875">
        <ele>34</ele>
        <time>2021-09-27T11:33:08.000Z</time>
      </trkpt>
      <trkpt lat="39.66047488152980804443359375" lon="-0.2929683029651641845703125">
        <ele>33.799999237060546875</ele>
        <time>2021-09-27T11:33:10.000Z</time>
      </trkpt>
      <trkpt lat="39.6603627316653728485107421875" lon="-0.29305622912943363189697265625">
        <ele>34.200000762939453125</ele>
        <time>2021-09-27T11:33:12.000Z</time>
      </trkpt>
      <trkpt lat="39.66024965979158878326416015625" lon="-0.2931411378085613250732421875">
        <ele>34</ele>
        <time>2021-09-27T11:33:14.000Z</time>
      </trkpt>
      <trkpt lat="39.66013298369944095611572265625" lon="-0.293219089508056640625">
        <ele>33.799999237060546875</ele>
        <time>2021-09-27T11:33:16.000Z</time>
      </trkpt>
      <trkpt lat="39.660013206303119659423828125" lon="-0.2932960353791713714599609375">
        <ele>33.799999237060546875</ele>
        <time>2021-09-27T11:33:18.000Z</time>
      </trkpt>
      <trkpt lat="39.65989284217357635498046875" lon="-0.29337055049836635589599609375">
        <ele>33.799999237060546875</ele>
        <time>2021-09-27T11:33:20.000Z</time>
      </trkpt>
      <trkpt lat="39.659775830805301666259765625" lon="-0.293444059789180755615234375">
        <ele>33.799999237060546875</ele>
        <time>2021-09-27T11:33:22.000Z</time>
      </trkpt>
      <trkpt lat="39.6597190015017986297607421875" lon="-0.2934806048870086669921875">
        <ele>33.799999237060546875</ele>
        <time>2021-09-27T11:33:23.000Z</time>
      </trkpt>
      <trkpt lat="39.6596626751124858856201171875" lon="-0.29351589269936084747314453125">
        <ele>33.799999237060546875</ele>
        <time>2021-09-27T11:33:24.000Z</time>
      </trkpt>
      <trkpt lat="39.6595516987144947052001953125" lon="-0.2935910783708095550537109375">
        <ele>33.799999237060546875</ele>
        <time>2021-09-27T11:33:26.000Z</time>
      </trkpt>
      <trkpt lat="39.65944080613553524017333984375" lon="-0.29365427792072296142578125">
        <ele>34.200000762939453125</ele>
        <time>2021-09-27T11:33:28.000Z</time>
      </trkpt>
      <trkpt lat="39.659321196377277374267578125" lon="-0.29371974058449268341064453125">
        <ele>34.59999847412109375</ele>
        <time>2021-09-27T11:33:30.000Z</time>
      </trkpt>
      <trkpt lat="39.65920074842870235443115234375" lon="-0.29377573169767856597900390625">
        <ele>34.799999237060546875</ele>
        <time>2021-09-27T11:33:32.000Z</time>
      </trkpt>
      <trkpt lat="39.6590756066143512725830078125" lon="-0.29382568784058094024658203125">
        <ele>35</ele>
        <time>2021-09-27T11:33:34.000Z</time>
      </trkpt>
      <trkpt lat="39.658951051533222198486328125" lon="-0.29387681744992733001708984375">
        <ele>35.200000762939453125</ele>
        <time>2021-09-27T11:33:36.000Z</time>
      </trkpt>
      <trkpt lat="39.65882406570017337799072265625" lon="-0.293932892382144927978515625">
        <ele>35.40000152587890625</ele>
        <time>2021-09-27T11:33:38.000Z</time>
      </trkpt>
      <trkpt lat="39.658760614693164825439453125" lon="-0.2939607203006744384765625">
        <ele>35.59999847412109375</ele>
        <time>2021-09-27T11:33:39.000Z</time>
      </trkpt>
      <trkpt lat="39.6586964093148708343505859375" lon="-0.2939870394766330718994140625">
        <ele>35.59999847412109375</ele>
        <time>2021-09-27T11:33:40.000Z</time>
      </trkpt>
      <trkpt lat="39.6585669927299022674560546875" lon="-0.29404210858047008514404296875">
        <ele>35.200000762939453125</ele>
        <time>2021-09-27T11:33:42.000Z</time>
      </trkpt>
      <trkpt lat="39.65843916870653629302978515625" lon="-0.29408904723823070526123046875">
        <ele>34.799999237060546875</ele>
        <time>2021-09-27T11:33:44.000Z</time>
      </trkpt>
      <trkpt lat="39.65830899775028228759765625" lon="-0.2941281907260417938232421875">
        <ele>34.40000152587890625</ele>
        <time>2021-09-27T11:33:46.000Z</time>
      </trkpt>
      <trkpt lat="39.65818167664110660552978515625" lon="-0.29417202807962894439697265625">
        <ele>34</ele>
        <time>2021-09-27T11:33:48.000Z</time>
      </trkpt>
      <trkpt lat="39.65805477462708950042724609375" lon="-0.2942140214145183563232421875">
        <ele>33.59999847412109375</ele>
        <time>2021-09-27T11:33:50.000Z</time>
      </trkpt>
      <trkpt lat="39.65792770497500896453857421875" lon="-0.2942525781691074371337890625">
        <ele>33.40000152587890625</ele>
        <time>2021-09-27T11:33:52.000Z</time>
      </trkpt>
      <trkpt lat="39.6577920019626617431640625" lon="-0.2942810766398906707763671875">
        <ele>33.200000762939453125</ele>
        <time>2021-09-27T11:33:54.000Z</time>
      </trkpt>
      <trkpt lat="39.6576537005603313446044921875" lon="-0.29429608024656772613525390625">
        <ele>33.200000762939453125</ele>
        <time>2021-09-27T11:33:56.000Z</time>
      </trkpt>
      <trkpt lat="39.65751548297703266143798828125" lon="-0.29430312104523181915283203125">
        <ele>33.200000762939453125</ele>
        <time>2021-09-27T11:33:58.000Z</time>
      </trkpt>
      <trkpt lat="39.6573801152408123016357421875" lon="-0.294304378330707550048828125">
        <ele>33.200000762939453125</ele>
        <time>2021-09-27T11:34:00.000Z</time>
      </trkpt>
      <trkpt lat="39.65723938308656215667724609375" lon="-0.29430563561618328094482421875">
        <ele>33.40000152587890625</ele>
        <time>2021-09-27T11:34:02.000Z</time>
      </trkpt>
      <trkpt lat="39.6571035124361515045166015625" lon="-0.294313095510005950927734375">
        <ele>33.799999237060546875</ele>
        <time>2021-09-27T11:34:04.000Z</time>
      </trkpt>
      <trkpt lat="39.656968228518962860107421875" lon="-0.29433966614305973052978515625">
        <ele>34</ele>
        <time>2021-09-27T11:34:06.000Z</time>
      </trkpt>
      <trkpt lat="39.656838811933994293212890625" lon="-0.29438761062920093536376953125">
        <ele>33.799999237060546875</ele>
        <time>2021-09-27T11:34:08.000Z</time>
      </trkpt>
      <trkpt lat="39.6567098982632160186767578125" lon="-0.29443672858178615570068359375">
        <ele>33.59999847412109375</ele>
        <time>2021-09-27T11:34:10.000Z</time>
      </trkpt>
      <trkpt lat="39.65658274479210376739501953125" lon="-0.29448802582919597625732421875">
        <ele>33.40000152587890625</ele>
        <time>2021-09-27T11:34:12.000Z</time>
      </trkpt>
      <trkpt lat="39.65645332820713520050048828125" lon="-0.294533036649227142333984375">
        <ele>33.40000152587890625</ele>
        <time>2021-09-27T11:34:14.000Z</time>
      </trkpt>
      <trkpt lat="39.65632282197475433349609375" lon="-0.29458039440214633941650390625">
        <ele>33.200000762939453125</ele>
        <time>2021-09-27T11:34:16.000Z</time>
      </trkpt>
      <trkpt lat="39.6561908908188343048095703125" lon="-0.29462582431733608245849609375">
        <ele>33</ele>
        <time>2021-09-27T11:34:18.000Z</time>
      </trkpt>
      <trkpt lat="39.6560638211667537689208984375" lon="-0.29466957785189151763916015625">
        <ele>33</ele>
        <time>2021-09-27T11:34:20.000Z</time>
      </trkpt>
      <trkpt lat="39.65593247674405574798583984375" lon="-0.29470947571098804473876953125">
        <ele>33</ele>
        <time>2021-09-27T11:34:22.000Z</time>
      </trkpt>
      <trkpt lat="39.65586743317544460296630859375" lon="-0.29471819289028644561767578125">
        <ele>33</ele>
        <time>2021-09-27T11:34:23.000Z</time>
      </trkpt>
      <trkpt lat="39.6558012999594211578369140625" lon="-0.2947142533957958221435546875">
        <ele>32.799999237060546875</ele>
        <time>2021-09-27T11:34:24.000Z</time>
      </trkpt>
      <trkpt lat="39.6557355858385562896728515625" lon="-0.294692628085613250732421875">
        <ele>32.59999847412109375</ele>
        <time>2021-09-27T11:34:25.000Z</time>
      </trkpt>
      <trkpt lat="39.6556732244789600372314453125" lon="-0.2946575917303562164306640625">
        <ele>32.40000152587890625</ele>
        <time>2021-09-27T11:34:26.000Z</time>
      </trkpt>
      <trkpt lat="39.6555488370358943939208984375" lon="-0.2945875190198421478271484375">
        <ele>32.200000762939453125</ele>
        <time>2021-09-27T11:34:28.000Z</time>
      </trkpt>
      <trkpt lat="39.65541715733706951141357421875" lon="-0.29453747905790805816650390625">
        <ele>32.200000762939453125</ele>
        <time>2021-09-27T11:34:30.000Z</time>
      </trkpt>
      <trkpt lat="39.65528187341988086700439453125" lon="-0.29449691064655780792236328125">
        <ele>32</ele>
        <time>2021-09-27T11:34:32.000Z</time>
      </trkpt>
      <trkpt lat="39.65514541603624820709228515625" lon="-0.29446430504322052001953125">
        <ele>32</ele>
        <time>2021-09-27T11:34:34.000Z</time>
      </trkpt>
      <trkpt lat="39.65507500804960727691650390625" lon="-0.2944544143974781036376953125">
        <ele>32</ele>
        <time>2021-09-27T11:34:35.000Z</time>
      </trkpt>
      <trkpt lat="39.65500853955745697021484375" lon="-0.29445047490298748016357421875">
        <ele>32</ele>
        <time>2021-09-27T11:34:36.000Z</time>
      </trkpt>
      <trkpt lat="39.654939137399196624755859375" lon="-0.29445097781717777252197265625">
        <ele>32</ele>
        <time>2021-09-27T11:34:37.000Z</time>
      </trkpt>
      <trkpt lat="39.6548712439835071563720703125" lon="-0.29445215128362178802490234375">
        <ele>32</ele>
        <time>2021-09-27T11:34:38.000Z</time>
      </trkpt>
      <trkpt lat="39.6547374688088893890380859375" lon="-0.294456593692302703857421875">
        <ele>32</ele>
        <time>2021-09-27T11:34:40.000Z</time>
      </trkpt>
      <trkpt lat="39.65460662730038166046142578125" lon="-0.29445894062519073486328125">
        <ele>32</ele>
        <time>2021-09-27T11:34:42.000Z</time>
      </trkpt>
      <trkpt lat="39.65447369031608104705810546875" lon="-0.2944622933864593505859375">
        <ele>32</ele>
        <time>2021-09-27T11:34:44.000Z</time>
      </trkpt>
      <trkpt lat="39.65434578247368335723876953125" lon="-0.2944644726812839508056640625">
        <ele>32</ele>
        <time>2021-09-27T11:34:46.000Z</time>
      </trkpt>
      <trkpt lat="39.65428191237151622772216796875" lon="-0.294467322528362274169921875">
        <ele>32</ele>
        <time>2021-09-27T11:34:47.000Z</time>
      </trkpt>
      <trkpt lat="39.65422005392611026763916015625" lon="-0.2944768778979778289794921875">
        <ele>32</ele>
        <time>2021-09-27T11:34:48.000Z</time>
      </trkpt>
      <trkpt lat="39.65410195291042327880859375" lon="-0.294514596462249755859375">
        <ele>32</ele>
        <time>2021-09-27T11:34:50.000Z</time>
      </trkpt>
      <trkpt lat="39.6539844386279582977294921875" lon="-0.29455860145390033721923828125">
        <ele>32</ele>
        <time>2021-09-27T11:34:52.000Z</time>
      </trkpt>
      <trkpt lat="39.65385929681360721588134765625" lon="-0.29461056925356388092041015625">
        <ele>32</ele>
        <time>2021-09-27T11:34:54.000Z</time>
      </trkpt>
      <trkpt lat="39.65372652746737003326416015625" lon="-0.294651724398136138916015625">
        <ele>32</ele>
        <time>2021-09-27T11:34:56.000Z</time>
      </trkpt>
      <trkpt lat="39.6535943448543548583984375" lon="-0.29467276297509670257568359375">
        <ele>32</ele>
        <time>2021-09-27T11:34:58.000Z</time>
      </trkpt>
      <trkpt lat="39.65346333570778369903564453125" lon="-0.29467661865055561065673828125">
        <ele>31.799999237060546875</ele>
        <time>2021-09-27T11:35:00.000Z</time>
      </trkpt>
      <trkpt lat="39.65333056636154651641845703125" lon="-0.29467745684087276458740234375">
        <ele>31.6000003814697265625</ele>
        <time>2021-09-27T11:35:02.000Z</time>
      </trkpt>
      <trkpt lat="39.653196036815643310546875" lon="-0.29468080960214138031005859375">
        <ele>31.3999996185302734375</ele>
        <time>2021-09-27T11:35:04.000Z</time>
      </trkpt>
      <trkpt lat="39.653129316866397857666015625" lon="-0.294681899249553680419921875">
        <ele>31.3999996185302734375</ele>
        <time>2021-09-27T11:35:05.000Z</time>
      </trkpt>
      <trkpt lat="39.65306150726974010467529296875" lon="-0.294682569801807403564453125">
        <ele>31.3999996185302734375</ele>
        <time>2021-09-27T11:35:06.000Z</time>
      </trkpt>
      <trkpt lat="39.65292446315288543701171875" lon="-0.29468818567693233489990234375">
        <ele>31.200000762939453125</ele>
        <time>2021-09-27T11:35:08.000Z</time>
      </trkpt>
      <trkpt lat="39.65279127471148967742919921875" lon="-0.29469120316207408905029296875">
        <ele>31.200000762939453125</ele>
        <time>2021-09-27T11:35:10.000Z</time>
      </trkpt>
      <trkpt lat="39.65266252867877483367919921875" lon="-0.294683240354061126708984375">
        <ele>31.200000762939453125</ele>
        <time>2021-09-27T11:35:12.000Z</time>
      </trkpt>
      <trkpt lat="39.65253042988479137420654296875" lon="-0.2946642972528934478759765625">
        <ele>31</ele>
        <time>2021-09-27T11:35:14.000Z</time>
      </trkpt>
      <trkpt lat="39.65240436606109142303466796875" lon="-0.29462657868862152099609375">
        <ele>31</ele>
        <time>2021-09-27T11:35:16.000Z</time>
      </trkpt>
      <trkpt lat="39.65228207409381866455078125" lon="-0.294580645859241485595703125">
        <ele>30.799999237060546875</ele>
        <time>2021-09-27T11:35:18.000Z</time>
      </trkpt>
      <trkpt lat="39.652160368859767913818359375" lon="-0.2945239841938018798828125">
        <ele>30.799999237060546875</ele>
        <time>2021-09-27T11:35:20.000Z</time>
      </trkpt>
      <trkpt lat="39.65209809131920337677001953125" lon="-0.29449305497109889984130859375">
        <ele>30.799999237060546875</ele>
        <time>2021-09-27T11:35:21.000Z</time>
      </trkpt>
      <trkpt lat="39.652036987245082855224609375" lon="-0.29446120373904705047607421875">
        <ele>30.799999237060546875</ele>
        <time>2021-09-27T11:35:22.000Z</time>
      </trkpt>
      <trkpt lat="39.6519174613058567047119140625" lon="-0.29438643716275691986083984375">
        <ele>31</ele>
        <time>2021-09-27T11:35:24.000Z</time>
      </trkpt>
      <trkpt lat="39.65179919265210628509521484375" lon="-0.2943152748048305511474609375">
        <ele>31.200000762939453125</ele>
        <time>2021-09-27T11:35:26.000Z</time>
      </trkpt>
      <trkpt lat="39.651739932596683502197265625" lon="-0.29428954236209392547607421875">
        <ele>31.200000762939453125</ele>
        <time>2021-09-27T11:35:27.000Z</time>
      </trkpt>
      <trkpt lat="39.65167857706546783447265625" lon="-0.2942664921283721923828125">
        <ele>31.3999996185302734375</ele>
        <time>2021-09-27T11:35:28.000Z</time>
      </trkpt>
      <trkpt lat="39.65155343525111675262451171875" lon="-0.2942301146686077117919921875">
        <ele>31.6000003814697265625</ele>
        <time>2021-09-27T11:35:30.000Z</time>
      </trkpt>
      <trkpt lat="39.65142955072224140167236328125" lon="-0.29419935308396816253662109375">
        <ele>31.6000003814697265625</ele>
        <time>2021-09-27T11:35:32.000Z</time>
      </trkpt>
      <trkpt lat="39.6513010561466217041015625" lon="-0.29417102225124835968017578125">
        <ele>31.799999237060546875</ele>
        <time>2021-09-27T11:35:34.000Z</time>
      </trkpt>
      <trkpt lat="39.65123760513961315155029296875" lon="-0.294164903461933135986328125">
        <ele>31.799999237060546875</ele>
        <time>2021-09-27T11:35:35.000Z</time>
      </trkpt>
      <trkpt lat="39.65117239393293857574462890625" lon="-0.29416582547128200531005859375">
        <ele>31.799999237060546875</ele>
        <time>2021-09-27T11:35:36.000Z</time>
      </trkpt>
      <trkpt lat="39.651108272373676300048828125" lon="-0.29417504556477069854736328125">
        <ele>31.799999237060546875</ele>
        <time>2021-09-27T11:35:37.000Z</time>
      </trkpt>
      <trkpt lat="39.651046581566333770751953125" lon="-0.29419113881886005401611328125">
        <ele>31.799999237060546875</ele>
        <time>2021-09-27T11:35:38.000Z</time>
      </trkpt>
      <trkpt lat="39.6509243734180927276611328125" lon="-0.294228605926036834716796875">
        <ele>31.799999237060546875</ele>
        <time>2021-09-27T11:35:40.000Z</time>
      </trkpt>
      <trkpt lat="39.6508013270795345306396484375" lon="-0.29426448047161102294921875">
        <ele>31.6000003814697265625</ele>
        <time>2021-09-27T11:35:42.000Z</time>
      </trkpt>
      <trkpt lat="39.65067853219807147979736328125" lon="-0.29429708607494831085205078125">
        <ele>31.6000003814697265625</ele>
        <time>2021-09-27T11:35:44.000Z</time>
      </trkpt>
      <trkpt lat="39.6505580842494964599609375" lon="-0.29432776384055614471435546875">
        <ele>31.6000003814697265625</ele>
        <time>2021-09-27T11:35:46.000Z</time>
      </trkpt>
      <trkpt lat="39.65043998323380947113037109375" lon="-0.29436598531901836395263671875">
        <ele>31.3999996185302734375</ele>
        <time>2021-09-27T11:35:48.000Z</time>
      </trkpt>
      <trkpt lat="39.65032196603715419769287109375" lon="-0.29439716599881649017333984375">
        <ele>31.3999996185302734375</ele>
        <time>2021-09-27T11:35:50.000Z</time>
      </trkpt>
      <trkpt lat="39.65020026080310344696044921875" lon="-0.29443605802953243255615234375">
        <ele>31</ele>
        <time>2021-09-27T11:35:52.000Z</time>
      </trkpt>
      <trkpt lat="39.65008207596838474273681640625" lon="-0.2944701723754405975341796875">
        <ele>30.6000003814697265625</ele>
        <time>2021-09-27T11:35:54.000Z</time>
      </trkpt>
      <trkpt lat="39.6499587781727313995361328125" lon="-0.29451350681483745574951171875">
        <ele>30.200000762939453125</ele>
        <time>2021-09-27T11:35:56.000Z</time>
      </trkpt>
      <trkpt lat="39.64983095414936542510986328125" lon="-0.29456212185323238372802734375">
        <ele>30</ele>
        <time>2021-09-27T11:35:58.000Z</time>
      </trkpt>
      <trkpt lat="39.64970170520246028900146484375" lon="-0.2946130000054836273193359375">
        <ele>29.6000003814697265625</ele>
        <time>2021-09-27T11:36:00.000Z</time>
      </trkpt>
      <trkpt lat="39.64957128278911113739013671875" lon="-0.2946686558425426483154296875">
        <ele>29.200000762939453125</ele>
        <time>2021-09-27T11:36:02.000Z</time>
      </trkpt>
      <trkpt lat="39.64943951927125453948974609375" lon="-0.2947212941944599151611328125">
        <ele>29.200000762939453125</ele>
        <time>2021-09-27T11:36:04.000Z</time>
      </trkpt>
      <trkpt lat="39.64930926449596881866455078125" lon="-0.294775106012821197509765625">
        <ele>29.200000762939453125</ele>
        <time>2021-09-27T11:36:06.000Z</time>
      </trkpt>
      <trkpt lat="39.6492432989180088043212890625" lon="-0.294801257550716400146484375">
        <ele>29.200000762939453125</ele>
        <time>2021-09-27T11:36:07.000Z</time>
      </trkpt>
      <trkpt lat="39.6491782553493976593017578125" lon="-0.29482414014637470245361328125">
        <ele>29.200000762939453125</ele>
        <time>2021-09-27T11:36:08.000Z</time>
      </trkpt>
      <trkpt lat="39.64905445463955402374267578125" lon="-0.2948748506605625152587890625">
        <ele>29.200000762939453125</ele>
        <time>2021-09-27T11:36:10.000Z</time>
      </trkpt>
      <trkpt lat="39.64893744327127933502197265625" lon="-0.29492405243217945098876953125">
        <ele>29.3999996185302734375</ele>
        <time>2021-09-27T11:36:12.000Z</time>
      </trkpt>
      <trkpt lat="39.6488768421113491058349609375" lon="-0.29494718648493289947509765625">
        <ele>29.3999996185302734375</ele>
        <time>2021-09-27T11:36:13.000Z</time>
      </trkpt>
      <trkpt lat="39.64881774969398975372314453125" lon="-0.2949697338044643402099609375">
        <ele>29.3999996185302734375</ele>
        <time>2021-09-27T11:36:14.000Z</time>
      </trkpt>
      <trkpt lat="39.64876175858080387115478515625" lon="-0.29499462805688381195068359375">
        <ele>29.3999996185302734375</ele>
        <time>2021-09-27T11:36:15.000Z</time>
      </trkpt>
      <trkpt lat="39.648704342544078826904296875" lon="-0.29501742683351039886474609375">
        <ele>29.3999996185302734375</ele>
        <time>2021-09-27T11:36:16.000Z</time>
      </trkpt>
      <trkpt lat="39.6485911868512630462646484375" lon="-0.29505883343517780303955078125">
        <ele>29.200000762939453125</ele>
        <time>2021-09-27T11:36:18.000Z</time>
      </trkpt>
      <trkpt lat="39.64848314411938190460205078125" lon="-0.29510292224586009979248046875">
        <ele>29</ele>
        <time>2021-09-27T11:36:20.000Z</time>
      </trkpt>
      <trkpt lat="39.64837837032973766326904296875" lon="-0.2951541356742382049560546875">
        <ele>28.799999237060546875</ele>
        <time>2021-09-27T11:36:22.000Z</time>
      </trkpt>
      <trkpt lat="39.648274518549442291259765625" lon="-0.29521674849092960357666015625">
        <ele>28.799999237060546875</ele>
        <time>2021-09-27T11:36:24.000Z</time>
      </trkpt>
      <trkpt lat="39.6481730975210666656494140625" lon="-0.295281372964382171630859375">
        <ele>28.6000003814697265625</ele>
        <time>2021-09-27T11:36:26.000Z</time>
      </trkpt>
      <trkpt lat="39.6480708383023738861083984375" lon="-0.2953435666859149932861328125">
        <ele>28.3999996185302734375</ele>
        <time>2021-09-27T11:36:28.000Z</time>
      </trkpt>
      <trkpt lat="39.64796899817883968353271484375" lon="-0.29540299437940120697021484375">
        <ele>28.200000762939453125</ele>
        <time>2021-09-27T11:36:30.000Z</time>
      </trkpt>
      <trkpt lat="39.64791870675981044769287109375" lon="-0.29542763717472553253173828125">
        <ele>28.200000762939453125</ele>
        <time>2021-09-27T11:36:31.000Z</time>
      </trkpt>
      <trkpt lat="39.6478720195591449737548828125" lon="-0.29545429162681102752685546875">
        <ele>28</ele>
        <time>2021-09-27T11:36:32.000Z</time>
      </trkpt>
      <trkpt lat="39.6477768011391162872314453125" lon="-0.29550894163548946380615234375">
        <ele>28</ele>
        <time>2021-09-27T11:36:34.000Z</time>
      </trkpt>
      <trkpt lat="39.64768753387033939361572265625" lon="-0.295563004910945892333984375">
        <ele>28</ele>
        <time>2021-09-27T11:36:36.000Z</time>
      </trkpt>
      <trkpt lat="39.64764327742159366607666015625" lon="-0.2955866418778896331787109375">
        <ele>27.799999237060546875</ele>
        <time>2021-09-27T11:36:37.000Z</time>
      </trkpt>
      <trkpt lat="39.6475982666015625" lon="-0.29560960829257965087890625">
        <ele>27.799999237060546875</ele>
        <time>2021-09-27T11:36:38.000Z</time>
      </trkpt>
      <trkpt lat="39.64751176536083221435546875" lon="-0.2956558763980865478515625">
        <ele>27.799999237060546875</ele>
        <time>2021-09-27T11:36:40.000Z</time>
      </trkpt>
      <trkpt lat="39.64742937125265598297119140625" lon="-0.29570340178906917572021484375">
        <ele>27.799999237060546875</ele>
        <time>2021-09-27T11:36:42.000Z</time>
      </trkpt>
      <trkpt lat="39.647387377917766571044921875" lon="-0.29572653584182262420654296875">
        <ele>27.799999237060546875</ele>
        <time>2021-09-27T11:36:43.000Z</time>
      </trkpt>
      <trkpt lat="39.64734655804932117462158203125" lon="-0.29574883170425891876220703125">
        <ele>27.799999237060546875</ele>
        <time>2021-09-27T11:36:44.000Z</time>
      </trkpt>
      <trkpt lat="39.64727036654949188232421875" lon="-0.2957998774945735931396484375">
        <ele>27.6000003814697265625</ele>
        <time>2021-09-27T11:36:46.000Z</time>
      </trkpt>
      <trkpt lat="39.64723122306168079376220703125" lon="-0.29582091607153415679931640625">
        <ele>27.6000003814697265625</ele>
        <time>2021-09-27T11:36:47.000Z</time>
      </trkpt>
      <trkpt lat="39.6471917442977428436279296875" lon="-0.29584161937236785888671875">
        <ele>27.6000003814697265625</ele>
        <time>2021-09-27T11:36:48.000Z</time>
      </trkpt>
      <trkpt lat="39.64710935018956661224365234375" lon="-0.29590071178972721099853515625">
        <ele>27.6000003814697265625</ele>
        <time>2021-09-27T11:36:50.000Z</time>
      </trkpt>
      <trkpt lat="39.64702167548239231109619140625" lon="-0.29595653526484966278076171875">
        <ele>27.6000003814697265625</ele>
        <time>2021-09-27T11:36:52.000Z</time>
      </trkpt>
      <trkpt lat="39.6469746530055999755859375" lon="-0.29598587192595005035400390625">
        <ele>27.6000003814697265625</ele>
        <time>2021-09-27T11:36:53.000Z</time>
      </trkpt>
      <trkpt lat="39.64692645706236362457275390625" lon="-0.296017639338970184326171875">
        <ele>27.6000003814697265625</ele>
        <time>2021-09-27T11:36:54.000Z</time>
      </trkpt>
      <trkpt lat="39.6468779258430004119873046875" lon="-0.2960503287613391876220703125">
        <ele>27.6000003814697265625</ele>
        <time>2021-09-27T11:36:55.000Z</time>
      </trkpt>
      <trkpt lat="39.64682822115719318389892578125" lon="-0.2960848622024059295654296875">
        <ele>27.6000003814697265625</ele>
        <time>2021-09-27T11:36:56.000Z</time>
      </trkpt>
      <trkpt lat="39.64672478847205638885498046875" lon="-0.29614998959004878997802734375">
        <ele>27.3999996185302734375</ele>
        <time>2021-09-27T11:36:58.000Z</time>
      </trkpt>
      <trkpt lat="39.6466157399117946624755859375" lon="-0.29620279558002948760986328125">
        <ele>27.3999996185302734375</ele>
        <time>2021-09-27T11:37:00.000Z</time>
      </trkpt>
      <trkpt lat="39.6465014107525348663330078125" lon="-0.29625576920807361602783203125">
        <ele>27.3999996185302734375</ele>
        <time>2021-09-27T11:37:02.000Z</time>
      </trkpt>
      <trkpt lat="39.6463800407946109771728515625" lon="-0.29630337841808795928955078125">
        <ele>27.200000762939453125</ele>
        <time>2021-09-27T11:37:04.000Z</time>
      </trkpt>
      <trkpt lat="39.64632011018693447113037109375" lon="-0.2963333018124103546142578125">
        <ele>27.200000762939453125</ele>
        <time>2021-09-27T11:37:05.000Z</time>
      </trkpt>
      <trkpt lat="39.6462586708366870880126953125" lon="-0.296357609331607818603515625">
        <ele>27.200000762939453125</ele>
        <time>2021-09-27T11:37:06.000Z</time>
      </trkpt>
      <trkpt lat="39.64613788761198520660400390625" lon="-0.296409241855144500732421875">
        <ele>27</ele>
        <time>2021-09-27T11:37:08.000Z</time>
      </trkpt>
      <trkpt lat="39.64601643383502960205078125" lon="-0.29646313749253749847412109375">
        <ele>26.6000003814697265625</ele>
        <time>2021-09-27T11:37:10.000Z</time>
      </trkpt>
      <trkpt lat="39.6458923816680908203125" lon="-0.29651485383510589599609375">
        <ele>26.200000762939453125</ele>
        <time>2021-09-27T11:37:12.000Z</time>
      </trkpt>
      <trkpt lat="39.64576740749180316925048828125" lon="-0.29656338505446910858154296875">
        <ele>26</ele>
        <time>2021-09-27T11:37:14.000Z</time>
      </trkpt>
      <trkpt lat="39.645641259849071502685546875" lon="-0.29661837033927440643310546875">
        <ele>25.6000003814697265625</ele>
        <time>2021-09-27T11:37:16.000Z</time>
      </trkpt>
      <trkpt lat="39.64551754295825958251953125" lon="-0.29668056406080722808837890625">
        <ele>25.3999996185302734375</ele>
        <time>2021-09-27T11:37:18.000Z</time>
      </trkpt>
      <trkpt lat="39.6453936584293842315673828125" lon="-0.29674879275262355804443359375">
        <ele>25</ele>
        <time>2021-09-27T11:37:20.000Z</time>
      </trkpt>
      <trkpt lat="39.64527471922338008880615234375" lon="-0.29682674445211887359619140625">
        <ele>25</ele>
        <time>2021-09-27T11:37:22.000Z</time>
      </trkpt>
      <trkpt lat="39.64515184052288532257080078125" lon="-0.296910814940929412841796875">
        <ele>24.799999237060546875</ele>
        <time>2021-09-27T11:37:24.000Z</time>
      </trkpt>
      <trkpt lat="39.64502510614693164825439453125" lon="-0.2969981543719768524169921875">
        <ele>24.6000003814697265625</ele>
        <time>2021-09-27T11:37:26.000Z</time>
      </trkpt>
      <trkpt lat="39.6449024789035320281982421875" lon="-0.2970935404300689697265625">
        <ele>24.3999996185302734375</ele>
        <time>2021-09-27T11:37:28.000Z</time>
      </trkpt>
      <trkpt lat="39.6448448114097118377685546875" lon="-0.29715179465711116790771484375">
        <ele>24.3999996185302734375</ele>
        <time>2021-09-27T11:37:29.000Z</time>
      </trkpt>
      <trkpt lat="39.64479007758200168609619140625" lon="-0.2972150780260562896728515625">
        <ele>24.3999996185302734375</ele>
        <time>2021-09-27T11:37:30.000Z</time>
      </trkpt>
      <trkpt lat="39.64468480087816715240478515625" lon="-0.29733560979366302490234375">
        <ele>24.200000762939453125</ele>
        <time>2021-09-27T11:37:32.000Z</time>
      </trkpt>
      <trkpt lat="39.644585810601711273193359375" lon="-0.29746192507445812225341796875">
        <ele>24</ele>
        <time>2021-09-27T11:37:34.000Z</time>
      </trkpt>
      <trkpt lat="39.64453895576298236846923828125" lon="-0.29752311296761035919189453125">
        <ele>24</ele>
        <time>2021-09-27T11:37:35.000Z</time>
      </trkpt>
      <trkpt lat="39.6444921009242534637451171875" lon="-0.2975838817656040191650390625">
        <ele>24</ele>
        <time>2021-09-27T11:37:36.000Z</time>
      </trkpt>
      <trkpt lat="39.64439813978970050811767578125" lon="-0.29770483262836933135986328125">
        <ele>23.799999237060546875</ele>
        <time>2021-09-27T11:37:38.000Z</time>
      </trkpt>
      <trkpt lat="39.64430652558803558349609375" lon="-0.29782603494822978973388671875">
        <ele>23.799999237060546875</ele>
        <time>2021-09-27T11:37:40.000Z</time>
      </trkpt>
      <trkpt lat="39.6442148275673389434814453125" lon="-0.29794673435389995574951171875">
        <ele>23.6000003814697265625</ele>
        <time>2021-09-27T11:37:42.000Z</time>
      </trkpt>
      <trkpt lat="39.64412203989923000335693359375" lon="-0.2980660088360309600830078125">
        <ele>23.6000003814697265625</ele>
        <time>2021-09-27T11:37:44.000Z</time>
      </trkpt>
      <trkpt lat="39.64407459832727909088134765625" lon="-0.2981243468821048736572265625">
        <ele>23.6000003814697265625</ele>
        <time>2021-09-27T11:37:45.000Z</time>
      </trkpt>
      <trkpt lat="39.64402648620307445526123046875" lon="-0.29818159528076648712158203125">
        <ele>23.6000003814697265625</ele>
        <time>2021-09-27T11:37:46.000Z</time>
      </trkpt>
      <trkpt lat="39.64393009431660175323486328125" lon="-0.29830254614353179931640625">
        <ele>23.6000003814697265625</ele>
        <time>2021-09-27T11:37:48.000Z</time>
      </trkpt>
      <trkpt lat="39.643833450973033905029296875" lon="-0.2984220720827579498291015625">
        <ele>23.799999237060546875</ele>
        <time>2021-09-27T11:37:50.000Z</time>
      </trkpt>
      <trkpt lat="39.64373923838138580322265625" lon="-0.29854369349777698516845703125">
        <ele>23.799999237060546875</ele>
        <time>2021-09-27T11:37:52.000Z</time>
      </trkpt>
      <trkpt lat="39.6436455287039279937744140625" lon="-0.29866372235119342803955078125">
        <ele>23.799999237060546875</ele>
        <time>2021-09-27T11:37:54.000Z</time>
      </trkpt>
      <trkpt lat="39.643554501235485076904296875" lon="-0.29879179783165454864501953125">
        <ele>23.6000003814697265625</ele>
        <time>2021-09-27T11:37:56.000Z</time>
      </trkpt>
      <trkpt lat="39.64346322230994701385498046875" lon="-0.29890880919992923736572265625">
        <ele>23.6000003814697265625</ele>
        <time>2021-09-27T11:37:58.000Z</time>
      </trkpt>
      <trkpt lat="39.6433662436902523040771484375" lon="-0.2990131638944149017333984375">
        <ele>23.3999996185302734375</ele>
        <time>2021-09-27T11:38:00.000Z</time>
      </trkpt>
      <trkpt lat="39.64331804774701595306396484375" lon="-0.29906102456152439117431640625">
        <ele>23.3999996185302734375</ele>
        <time>2021-09-27T11:38:01.000Z</time>
      </trkpt>
      <trkpt lat="39.643269516527652740478515625" lon="-0.299104861915111541748046875">
        <ele>23.3999996185302734375</ele>
        <time>2021-09-27T11:38:02.000Z</time>
      </trkpt>
      <trkpt lat="39.643175303936004638671875" lon="-0.29917971231043338775634765625">
        <ele>23.200000762939453125</ele>
        <time>2021-09-27T11:38:04.000Z</time>
      </trkpt>
      <trkpt lat="39.64308368973433971405029296875" lon="-0.29925347305834293365478515625">
        <ele>23</ele>
        <time>2021-09-27T11:38:06.000Z</time>
      </trkpt>
      <trkpt lat="39.643040187656879425048828125" lon="-0.299292616546154022216796875">
        <ele>23</ele>
        <time>2021-09-27T11:38:07.000Z</time>
      </trkpt>
      <trkpt lat="39.64300322346389293670654296875" lon="-0.29933276586234569549560546875">
        <ele>23</ele>
        <time>2021-09-27T11:38:08.000Z</time>
      </trkpt>
      <trkpt lat="39.6429287083446979522705078125" lon="-0.2994198538362979888916015625">
        <ele>23</ele>
        <time>2021-09-27T11:38:10.000Z</time>
      </trkpt>
      <trkpt lat="39.642895348370075225830078125" lon="-0.2994674630463123321533203125">
        <ele>22.799999237060546875</ele>
        <time>2021-09-27T11:38:11.000Z</time>
      </trkpt>
      <trkpt lat="39.6428683586418628692626953125" lon="-0.29952001757919788360595703125">
        <ele>22.799999237060546875</ele>
        <time>2021-09-27T11:38:12.000Z</time>
      </trkpt>
      <trkpt lat="39.64284195564687252044677734375" lon="-0.29957500286400318145751953125">
        <ele>22.799999237060546875</ele>
        <time>2021-09-27T11:38:13.000Z</time>
      </trkpt>
      <trkpt lat="39.64281697757542133331298828125" lon="-0.29962814413011074066162109375">
        <ele>22.799999237060546875</ele>
        <time>2021-09-27T11:38:14.000Z</time>
      </trkpt>
      <trkpt lat="39.6427852101624011993408203125" lon="-0.299741886556148529052734375">
        <ele>23</ele>
        <time>2021-09-27T11:38:16.000Z</time>
      </trkpt>
      <trkpt lat="39.642760567367076873779296875" lon="-0.299852192401885986328125">
        <ele>23.200000762939453125</ele>
        <time>2021-09-27T11:38:18.000Z</time>
      </trkpt>
      <trkpt lat="39.6427474915981292724609375" lon="-0.29996325261890888214111328125">
        <ele>23.200000762939453125</ele>
        <time>2021-09-27T11:38:20.000Z</time>
      </trkpt>
      <trkpt lat="39.64273600839078426361083984375" lon="-0.3000733070075511932373046875">
        <ele>23.3999996185302734375</ele>
        <time>2021-09-27T11:38:22.000Z</time>
      </trkpt>
      <trkpt lat="39.64272343553602695465087890625" lon="-0.30018411576747894287109375">
        <ele>23.6000003814697265625</ele>
        <time>2021-09-27T11:38:24.000Z</time>
      </trkpt>
      <trkpt lat="39.64271195232868194580078125" lon="-0.30030003748834133148193359375">
        <ele>23.6000003814697265625</ele>
        <time>2021-09-27T11:38:26.000Z</time>
      </trkpt>
      <trkpt lat="39.64270466007292270660400390625" lon="-0.30035820789635181427001953125">
        <ele>23.6000003814697265625</ele>
        <time>2021-09-27T11:38:27.000Z</time>
      </trkpt>
      <trkpt lat="39.6426956914365291595458984375" lon="-0.30041822232306003570556640625">
        <ele>23.799999237060546875</ele>
        <time>2021-09-27T11:38:28.000Z</time>
      </trkpt>
      <trkpt lat="39.642678759992122650146484375" lon="-0.30053950846195220947265625">
        <ele>24</ele>
        <time>2021-09-27T11:38:30.000Z</time>
      </trkpt>
      <trkpt lat="39.6426618285477161407470703125" lon="-0.30066716484725475311279296875">
        <ele>24.200000762939453125</ele>
        <time>2021-09-27T11:38:32.000Z</time>
      </trkpt>
      <trkpt lat="39.6426514349877834320068359375" lon="-0.300737321376800537109375">
        <ele>24.3999996185302734375</ele>
        <time>2021-09-27T11:38:33.000Z</time>
      </trkpt>
      <trkpt lat="39.642638862133026123046875" lon="-0.30080907046794891357421875">
        <ele>24.799999237060546875</ele>
        <time>2021-09-27T11:38:34.000Z</time>
      </trkpt>
      <trkpt lat="39.64261212386190891265869140625" lon="-0.30096187256276607513427734375">
        <ele>25.200000762939453125</ele>
        <time>2021-09-27T11:38:36.000Z</time>
      </trkpt>
      <trkpt lat="39.642570130527019500732421875" lon="-0.3011220507323741912841796875">
        <ele>25.6000003814697265625</ele>
        <time>2021-09-27T11:38:38.000Z</time>
      </trkpt>
      <trkpt lat="39.64249645359814167022705078125" lon="-0.30127443373203277587890625">
        <ele>26</ele>
        <time>2021-09-27T11:38:40.000Z</time>
      </trkpt>
      <trkpt lat="39.6424509398639202117919921875" lon="-0.30134626664221286773681640625">
        <ele>26.200000762939453125</ele>
        <time>2021-09-27T11:38:41.000Z</time>
      </trkpt>
      <trkpt lat="39.64239637367427349090576171875" lon="-0.301412902772426605224609375">
        <ele>26.200000762939453125</ele>
        <time>2021-09-27T11:38:42.000Z</time>
      </trkpt>
      <trkpt lat="39.64233468286693096160888671875" lon="-0.30147417448461055755615234375">
        <ele>26.200000762939453125</ele>
        <time>2021-09-27T11:38:43.000Z</time>
      </trkpt>
      <trkpt lat="39.642267040908336639404296875" lon="-0.30153083615005016326904296875">
        <ele>26.200000762939453125</ele>
        <time>2021-09-27T11:38:44.000Z</time>
      </trkpt>
      <trkpt lat="39.64219294488430023193359375" lon="-0.30158163048326969146728515625">
        <ele>26</ele>
        <time>2021-09-27T11:38:45.000Z</time>
      </trkpt>
      <trkpt lat="39.64211641810834407806396484375" lon="-0.301622785627841949462890625">
        <ele>26</ele>
        <time>2021-09-27T11:38:46.000Z</time>
      </trkpt>
      <trkpt lat="39.64203536510467529296875" lon="-0.30164994299411773681640625">
        <ele>25.799999237060546875</ele>
        <time>2021-09-27T11:38:47.000Z</time>
      </trkpt>
      <trkpt lat="39.64195246808230876922607421875" lon="-0.3016662038862705230712890625">
        <ele>25.6000003814697265625</ele>
        <time>2021-09-27T11:38:48.000Z</time>
      </trkpt>
      <trkpt lat="39.64178181253373622894287109375" lon="-0.30167148448526859283447265625">
        <ele>24.799999237060546875</ele>
        <time>2021-09-27T11:38:50.000Z</time>
      </trkpt>
      <trkpt lat="39.64161484502255916595458984375" lon="-0.301679782569408416748046875">
        <ele>24</ele>
        <time>2021-09-27T11:38:52.000Z</time>
      </trkpt>
      <trkpt lat="39.6414498053491115570068359375" lon="-0.301703922450542449951171875">
        <ele>23.200000762939453125</ele>
        <time>2021-09-27T11:38:54.000Z</time>
      </trkpt>
      <trkpt lat="39.6412882022559642791748046875" lon="-0.301740467548370361328125">
        <ele>22.6000003814697265625</ele>
        <time>2021-09-27T11:38:56.000Z</time>
      </trkpt>
      <trkpt lat="39.6411386691033840179443359375" lon="-0.30179721303284168243408203125">
        <ele>22</ele>
        <time>2021-09-27T11:38:58.000Z</time>
      </trkpt>
      <trkpt lat="39.64099743403494358062744140625" lon="-0.30187382362782955169677734375">
        <ele>21.6000003814697265625</ele>
        <time>2021-09-27T11:39:00.000Z</time>
      </trkpt>
      <trkpt lat="39.64092870242893695831298828125" lon="-0.30191682279109954833984375">
        <ele>21.6000003814697265625</ele>
        <time>2021-09-27T11:39:01.000Z</time>
      </trkpt>
      <trkpt lat="39.64086047373712062835693359375" lon="-0.301964096724987030029296875">
        <ele>21.3999996185302734375</ele>
        <time>2021-09-27T11:39:02.000Z</time>
      </trkpt>
      <trkpt lat="39.640727452933788299560546875" lon="-0.3020712174475193023681640625">
        <ele>21.200000762939453125</ele>
        <time>2021-09-27T11:39:04.000Z</time>
      </trkpt>
      <trkpt lat="39.6405948512256145477294921875" lon="-0.3021790087223052978515625">
        <ele>21</ele>
        <time>2021-09-27T11:39:06.000Z</time>
      </trkpt>
      <trkpt lat="39.64046652428805828094482421875" lon="-0.30229258351027965545654296875">
        <ele>20.799999237060546875</ele>
        <time>2021-09-27T11:39:08.000Z</time>
      </trkpt>
      <trkpt lat="39.6403397060930728912353515625" lon="-0.3024051524698734283447265625">
        <ele>20.6000003814697265625</ele>
        <time>2021-09-27T11:39:10.000Z</time>
      </trkpt>
      <trkpt lat="39.6402210183441638946533203125" lon="-0.30251554213464260101318359375">
        <ele>20.799999237060546875</ele>
        <time>2021-09-27T11:39:12.000Z</time>
      </trkpt>
      <trkpt lat="39.64010358788073062896728515625" lon="-0.30262165702879428863525390625">
        <ele>20.799999237060546875</ele>
        <time>2021-09-27T11:39:14.000Z</time>
      </trkpt>
      <trkpt lat="39.64004692621529102325439453125" lon="-0.30267111025750637054443359375">
        <ele>21</ele>
        <time>2021-09-27T11:39:15.000Z</time>
      </trkpt>
      <trkpt lat="39.63998951017856597900390625" lon="-0.30271989293396472930908203125">
        <ele>21</ele>
        <time>2021-09-27T11:39:16.000Z</time>
      </trkpt>
      <trkpt lat="39.63987224735319614410400390625" lon="-0.30281938612461090087890625">
        <ele>21</ele>
        <time>2021-09-27T11:39:18.000Z</time>
      </trkpt>
      <trkpt lat="39.63976395316421985626220703125" lon="-0.302931368350982666015625">
        <ele>21.200000762939453125</ele>
        <time>2021-09-27T11:39:20.000Z</time>
      </trkpt>
      <trkpt lat="39.63966672308743000030517578125" lon="-0.30305651016533374786376953125">
        <ele>21.6000003814697265625</ele>
        <time>2021-09-27T11:39:22.000Z</time>
      </trkpt>
      <trkpt lat="39.6396205388009548187255859375" lon="-0.3031209670007228851318359375">
        <ele>21.799999237060546875</ele>
        <time>2021-09-27T11:39:23.000Z</time>
      </trkpt>
      <trkpt lat="39.63957318104803562164306640625" lon="-0.30318190343677997589111328125">
        <ele>22</ele>
        <time>2021-09-27T11:39:24.000Z</time>
      </trkpt>
      <trkpt lat="39.63947243057191371917724609375" lon="-0.30330880545079708099365234375">
        <ele>22.3999996185302734375</ele>
        <time>2021-09-27T11:39:26.000Z</time>
      </trkpt>
      <trkpt lat="39.639375619590282440185546875" lon="-0.30343486927449703216552734375">
        <ele>22.799999237060546875</ele>
        <time>2021-09-27T11:39:28.000Z</time>
      </trkpt>
      <trkpt lat="39.6392765454947948455810546875" lon="-0.30354618094861507415771484375">
        <ele>22.799999237060546875</ele>
        <time>2021-09-27T11:39:30.000Z</time>
      </trkpt>
      <trkpt lat="39.63917705230414867401123046875" lon="-0.30365229584276676177978515625">
        <ele>23</ele>
        <time>2021-09-27T11:39:32.000Z</time>
      </trkpt>
      <trkpt lat="39.63907219469547271728515625" lon="-0.30374198220670223236083984375">
        <ele>23</ele>
        <time>2021-09-27T11:39:34.000Z</time>
      </trkpt>
      <trkpt lat="39.6389637328684329986572265625" lon="-0.30382328666746616363525390625">
        <ele>23.200000762939453125</ele>
        <time>2021-09-27T11:39:36.000Z</time>
      </trkpt>
      <trkpt lat="39.63891251944005489349365234375" lon="-0.3038652800023555755615234375">
        <ele>23.200000762939453125</ele>
        <time>2021-09-27T11:39:37.000Z</time>
      </trkpt>
      <trkpt lat="39.638859294354915618896484375" lon="-0.30390475876629352569580078125">
        <ele>23.3999996185302734375</ele>
        <time>2021-09-27T11:39:38.000Z</time>
      </trkpt>
      <trkpt lat="39.638754688203334808349609375" lon="-0.3039782680571079254150390625">
        <ele>23.6000003814697265625</ele>
        <time>2021-09-27T11:39:40.000Z</time>
      </trkpt>
      <trkpt lat="39.6386566199362277984619140625" lon="-0.3040511906147003173828125">
        <ele>23.799999237060546875</ele>
        <time>2021-09-27T11:39:42.000Z</time>
      </trkpt>
      <trkpt lat="39.638558886945247650146484375" lon="-0.30412000603973865509033203125">
        <ele>24</ele>
        <time>2021-09-27T11:39:44.000Z</time>
      </trkpt>
      <trkpt lat="39.63851027190685272216796875" lon="-0.30415738932788372039794921875">
        <ele>24.200000762939453125</ele>
        <time>2021-09-27T11:39:45.000Z</time>
      </trkpt>
      <trkpt lat="39.6384601481258869171142578125" lon="-0.304191000759601593017578125">
        <ele>24.200000762939453125</ele>
        <time>2021-09-27T11:39:46.000Z</time>
      </trkpt>
      <trkpt lat="39.63836031965911388397216796875" lon="-0.30425009317696094512939453125">
        <ele>24.3999996185302734375</ele>
        <time>2021-09-27T11:39:48.000Z</time>
      </trkpt>
      <trkpt lat="39.63825655169785022735595703125" lon="-0.3043004684150218963623046875">
        <ele>24.6000003814697265625</ele>
        <time>2021-09-27T11:39:50.000Z</time>
      </trkpt>
      <trkpt lat="39.63814758695662021636962890625" lon="-0.3043460659682750701904296875">
        <ele>24.6000003814697265625</ele>
        <time>2021-09-27T11:39:52.000Z</time>
      </trkpt>
      <trkpt lat="39.63803225196897983551025390625" lon="-0.30437967739999294281005859375">
        <ele>24.6000003814697265625</ele>
        <time>2021-09-27T11:39:54.000Z</time>
      </trkpt>
      <trkpt lat="39.637912809848785400390625" lon="-0.30439644120633602142333984375">
        <ele>24.3999996185302734375</ele>
        <time>2021-09-27T11:39:56.000Z</time>
      </trkpt>
      <trkpt lat="39.63778984732925891876220703125" lon="-0.304412283003330230712890625">
        <ele>24.200000762939453125</ele>
        <time>2021-09-27T11:39:58.000Z</time>
      </trkpt>
      <trkpt lat="39.637665711343288421630859375" lon="-0.3044255264103412628173828125">
        <ele>24</ele>
        <time>2021-09-27T11:40:00.000Z</time>
      </trkpt>
      <trkpt lat="39.63753889314830303192138671875" lon="-0.3044365905225276947021484375">
        <ele>23.799999237060546875</ele>
        <time>2021-09-27T11:40:02.000Z</time>
      </trkpt>
      <trkpt lat="39.6374093927443027496337890625" lon="-0.30442745424807071685791015625">
        <ele>23.3999996185302734375</ele>
        <time>2021-09-27T11:40:04.000Z</time>
      </trkpt>
      <trkpt lat="39.63734258897602558135986328125" lon="-0.30441521666944026947021484375">
        <ele>23.200000762939453125</ele>
        <time>2021-09-27T11:40:05.000Z</time>
      </trkpt>
      <trkpt lat="39.6372732706367969512939453125" lon="-0.30439794994890689849853515625">
        <ele>23</ele>
        <time>2021-09-27T11:40:06.000Z</time>
      </trkpt>
      <trkpt lat="39.63712834753096103668212890625" lon="-0.30435302294790744781494140625">
        <ele>22.6000003814697265625</ele>
        <time>2021-09-27T11:40:08.000Z</time>
      </trkpt>
      <trkpt lat="39.636973030865192413330078125" lon="-0.30430658720433712005615234375">
        <ele>22.200000762939453125</ele>
        <time>2021-09-27T11:40:10.000Z</time>
      </trkpt>
      <trkpt lat="39.63689248077571392059326171875" lon="-0.30428362078964710235595703125">
        <ele>21.6000003814697265625</ele>
        <time>2021-09-27T11:40:11.000Z</time>
      </trkpt>
      <trkpt lat="39.6368126012384891510009765625" lon="-0.3042578883469104766845703125">
        <ele>21.200000762939453125</ele>
        <time>2021-09-27T11:40:12.000Z</time>
      </trkpt>
      <trkpt lat="39.63665074668824672698974609375" lon="-0.30421053059399127960205078125">
        <ele>20.200000762939453125</ele>
        <time>2021-09-27T11:40:14.000Z</time>
      </trkpt>
      <trkpt lat="39.636485539376735687255859375" lon="-0.30416090972721576690673828125">
        <ele>20</ele>
        <time>2021-09-27T11:40:16.000Z</time>
      </trkpt>
      <trkpt lat="39.636400379240512847900390625" lon="-0.3041361831128597259521484375">
        <ele>20</ele>
        <time>2021-09-27T11:40:17.000Z</time>
      </trkpt>
      <trkpt lat="39.63631563819944858551025390625" lon="-0.30411212705075740814208984375">
        <ele>20</ele>
        <time>2021-09-27T11:40:18.000Z</time>
      </trkpt>
      <trkpt lat="39.63614984415471553802490234375" lon="-0.304068289697170257568359375">
        <ele>20</ele>
        <time>2021-09-27T11:40:20.000Z</time>
      </trkpt>
      <trkpt lat="39.63598539121448993682861328125" lon="-0.3040335886180400848388671875">
        <ele>19.799999237060546875</ele>
        <time>2021-09-27T11:40:22.000Z</time>
      </trkpt>
      <trkpt lat="39.63581054471433162689208984375" lon="-0.3040282242000102996826171875">
        <ele>19.3999996185302734375</ele>
        <time>2021-09-27T11:40:24.000Z</time>
      </trkpt>
      <trkpt lat="39.635634608566761016845703125" lon="-0.3040431439876556396484375">
        <ele>19</ele>
        <time>2021-09-27T11:40:26.000Z</time>
      </trkpt>
      <trkpt lat="39.63546370156109333038330078125" lon="-0.3040744923055171966552734375">
        <ele>18.6000003814697265625</ele>
        <time>2021-09-27T11:40:28.000Z</time>
      </trkpt>
      <trkpt lat="39.63530142791569232940673828125" lon="-0.3041086904704570770263671875">
        <ele>18.200000762939453125</ele>
        <time>2021-09-27T11:40:30.000Z</time>
      </trkpt>
      <trkpt lat="39.63515591807663440704345703125" lon="-0.30415185727179050445556640625">
        <ele>18</ele>
        <time>2021-09-27T11:40:32.000Z</time>
      </trkpt>
      <trkpt lat="39.63502080179750919342041015625" lon="-0.30419896356761455535888671875">
        <ele>17.6000003814697265625</ele>
        <time>2021-09-27T11:40:34.000Z</time>
      </trkpt>
      <trkpt lat="39.63495307601988315582275390625" lon="-0.304215811192989349365234375">
        <ele>17.6000003814697265625</ele>
        <time>2021-09-27T11:40:35.000Z</time>
      </trkpt>
      <trkpt lat="39.6348850987851619720458984375" lon="-0.30422528274357318878173828125">
        <ele>17.6000003814697265625</ele>
        <time>2021-09-27T11:40:36.000Z</time>
      </trkpt>
      <trkpt lat="39.63481728918850421905517578125" lon="-0.30422461219131946563720703125">
        <ele>17.6000003814697265625</ele>
        <time>2021-09-27T11:40:37.000Z</time>
      </trkpt>
      <trkpt lat="39.63475115597248077392578125" lon="-0.3042179904878139495849609375">
        <ele>17.799999237060546875</ele>
        <time>2021-09-27T11:40:38.000Z</time>
      </trkpt>
      <trkpt lat="39.63468317873775959014892578125" lon="-0.3042106144130229949951171875">
        <ele>17.799999237060546875</ele>
        <time>2021-09-27T11:40:39.000Z</time>
      </trkpt>
      <trkpt lat="39.6346121840178966522216796875" lon="-0.30420348979532718658447265625">
        <ele>18</ele>
        <time>2021-09-27T11:40:40.000Z</time>
      </trkpt>
      <trkpt lat="39.6344686858355998992919921875" lon="-0.30418387614190578460693359375">
        <ele>18.200000762939453125</ele>
        <time>2021-09-27T11:40:42.000Z</time>
      </trkpt>
      <trkpt lat="39.63433097116649150848388671875" lon="-0.30416183173656463623046875">
        <ele>18.6000003814697265625</ele>
        <time>2021-09-27T11:40:44.000Z</time>
      </trkpt>
      <trkpt lat="39.63426173664629459381103515625" lon="-0.3041485883295536041259765625">
        <ele>18.799999237060546875</ele>
        <time>2021-09-27T11:40:45.000Z</time>
      </trkpt>
      <trkpt lat="39.6341639198362827301025390625" lon="-0.3041294775903224945068359375">
        <ele>19.200000762939453125</ele>
        <time>2021-09-27T11:40:46.000Z</time>
      </trkpt>
      <trkpt lat="39.63401312939822673797607421875" lon="-0.30412285588681697845458984375">
        <ele>19.6000003814697265625</ele>
        <time>2021-09-27T11:40:48.000Z</time>
      </trkpt>
      <trkpt lat="39.63387717492878437042236328125" lon="-0.30410961247980594635009765625">
        <ele>20.200000762939453125</ele>
        <time>2021-09-27T11:40:50.000Z</time>
      </trkpt>
      <trkpt lat="39.6337451599538326263427734375" lon="-0.30409301631152629852294921875">
        <ele>20.799999237060546875</ele>
        <time>2021-09-27T11:40:52.000Z</time>
      </trkpt>
      <trkpt lat="39.63368841446936130523681640625" lon="-0.30408530496060848236083984375">
        <ele>21</ele>
        <time>2021-09-27T11:40:53.000Z</time>
      </trkpt>
      <trkpt lat="39.6336333453655242919921875" lon="-0.30407600104808807373046875">
        <ele>21.200000762939453125</ele>
        <time>2021-09-27T11:40:54.000Z</time>
      </trkpt>
      <trkpt lat="39.6335165016353130340576171875" lon="-0.30405630357563495635986328125">
        <ele>21.6000003814697265625</ele>
        <time>2021-09-27T11:40:56.000Z</time>
      </trkpt>
      <trkpt lat="39.63338934816420078277587890625" lon="-0.30403216369450092315673828125">
        <ele>22</ele>
        <time>2021-09-27T11:40:58.000Z</time>
      </trkpt>
      <trkpt lat="39.63326227851212024688720703125" lon="-0.30399092473089694976806640625">
        <ele>22</ele>
        <time>2021-09-27T11:41:00.000Z</time>
      </trkpt>
      <trkpt lat="39.6331396512687206268310546875" lon="-0.3039551340043544769287109375">
        <ele>22</ele>
        <time>2021-09-27T11:41:02.000Z</time>
      </trkpt>
      <trkpt lat="39.63301551528275012969970703125" lon="-0.3039145655930042266845703125">
        <ele>22</ele>
        <time>2021-09-27T11:41:04.000Z</time>
      </trkpt>
      <trkpt lat="39.63289515115320682525634765625" lon="-0.30386410653591156005859375">
        <ele>22</ele>
        <time>2021-09-27T11:41:06.000Z</time>
      </trkpt>
      <trkpt lat="39.632782079279422760009765625" lon="-0.3038124740123748779296875">
        <ele>21.6000003814697265625</ele>
        <time>2021-09-27T11:41:08.000Z</time>
      </trkpt>
      <trkpt lat="39.6326823346316814422607421875" lon="-0.30376394279301166534423828125">
        <ele>21</ele>
        <time>2021-09-27T11:41:10.000Z</time>
      </trkpt>
      <trkpt lat="39.63258820585906505584716796875" lon="-0.30371256172657012939453125">
        <ele>20.6000003814697265625</ele>
        <time>2021-09-27T11:41:12.000Z</time>
      </trkpt>
      <trkpt lat="39.63248359970748424530029296875" lon="-0.30366134829819202423095703125">
        <ele>19.799999237060546875</ele>
        <time>2021-09-27T11:41:14.000Z</time>
      </trkpt>
      <trkpt lat="39.63237631134688854217529296875" lon="-0.30361407436430454254150390625">
        <ele>19.200000762939453125</ele>
        <time>2021-09-27T11:41:16.000Z</time>
      </trkpt>
      <trkpt lat="39.6323252655565738677978515625" lon="-0.30360301025211811065673828125">
        <ele>19</ele>
        <time>2021-09-27T11:41:17.000Z</time>
      </trkpt>
      <trkpt lat="39.6322749741375446319580078125" lon="-0.3036222048103809356689453125">
        <ele>18.799999237060546875</ele>
        <time>2021-09-27T11:41:18.000Z</time>
      </trkpt>
      <trkpt lat="39.6322280354797840118408203125" lon="-0.30366654507815837860107421875">
        <ele>18.6000003814697265625</ele>
        <time>2021-09-27T11:41:19.000Z</time>
      </trkpt>
      <trkpt lat="39.632187969982624053955078125" lon="-0.30372689478099346160888671875">
        <ele>18.6000003814697265625</ele>
        <time>2021-09-27T11:41:20.000Z</time>
      </trkpt>
      <trkpt lat="39.6321593038737773895263671875" lon="-0.30379679985344409942626953125">
        <ele>18.6000003814697265625</ele>
        <time>2021-09-27T11:41:21.000Z</time>
      </trkpt>
      <trkpt lat="39.63213625364005565643310546875" lon="-0.30387156642973423004150390625">
        <ele>18.6000003814697265625</ele>
        <time>2021-09-27T11:41:22.000Z</time>
      </trkpt>
      <trkpt lat="39.63210004381835460662841796875" lon="-0.30402428470551967620849609375">
        <ele>18.3999996185302734375</ele>
        <time>2021-09-27T11:41:24.000Z</time>
      </trkpt>
      <trkpt lat="39.6320667676627635955810546875" lon="-0.304176919162273406982421875">
        <ele>18.200000762939453125</ele>
        <time>2021-09-27T11:41:26.000Z</time>
      </trkpt>
      <trkpt lat="39.63205017149448394775390625" lon="-0.3042542003095149993896484375">
        <ele>18.200000762939453125</ele>
        <time>2021-09-27T11:41:27.000Z</time>
      </trkpt>
      <trkpt lat="39.63203449733555316925048828125" lon="-0.30433240346610546112060546875">
        <ele>18</ele>
        <time>2021-09-27T11:41:28.000Z</time>
      </trkpt>
      <trkpt lat="39.63199879042804241180419921875" lon="-0.30448629520833492279052734375">
        <ele>18</ele>
        <time>2021-09-27T11:41:30.000Z</time>
      </trkpt>
      <trkpt lat="39.63195738382637500762939453125" lon="-0.304629541933536529541015625">
        <ele>18</ele>
        <time>2021-09-27T11:41:32.000Z</time>
      </trkpt>
      <trkpt lat="39.631912708282470703125" lon="-0.30477127991616725921630859375">
        <ele>18</ele>
        <time>2021-09-27T11:41:34.000Z</time>
      </trkpt>
      <trkpt lat="39.63189166970551013946533203125" lon="-0.30484311282634735107421875">
        <ele>18</ele>
        <time>2021-09-27T11:41:35.000Z</time>
      </trkpt>
      <trkpt lat="39.6318666078150272369384765625" lon="-0.304911173880100250244140625">
        <ele>18.200000762939453125</ele>
        <time>2021-09-27T11:41:36.000Z</time>
      </trkpt>
      <trkpt lat="39.63179536163806915283203125" lon="-0.30502575449645519256591796875">
        <ele>18.200000762939453125</ele>
        <time>2021-09-27T11:41:38.000Z</time>
      </trkpt>
      <trkpt lat="39.63175018317997455596923828125" lon="-0.305072776973247528076171875">
        <ele>18.200000762939453125</ele>
        <time>2021-09-27T11:41:39.000Z</time>
      </trkpt>
      <trkpt lat="39.631700478494167327880859375" lon="-0.30511326156556606292724609375">
        <ele>18.200000762939453125</ele>
        <time>2021-09-27T11:41:40.000Z</time>
      </trkpt>
      <trkpt lat="39.63159243576228618621826171875" lon="-0.3051819093525409698486328125">
        <ele>18.200000762939453125</ele>
        <time>2021-09-27T11:41:42.000Z</time>
      </trkpt>
      <trkpt lat="39.63148380629718303680419921875" lon="-0.30524183996021747589111328125">
        <ele>18</ele>
        <time>2021-09-27T11:41:44.000Z</time>
      </trkpt>
      <trkpt lat="39.631375260651111602783203125" lon="-0.305296741425991058349609375">
        <ele>18</ele>
        <time>2021-09-27T11:41:46.000Z</time>
      </trkpt>
      <trkpt lat="39.631267301738262176513671875" lon="-0.305352397263050079345703125">
        <ele>18</ele>
        <time>2021-09-27T11:41:48.000Z</time>
      </trkpt>
      <trkpt lat="39.63115925900638103485107421875" lon="-0.30540897510945796966552734375">
        <ele>18</ele>
        <time>2021-09-27T11:41:50.000Z</time>
      </trkpt>
      <trkpt lat="39.63105213828384876251220703125" lon="-0.30546865426003932952880859375">
        <ele>18.3999996185302734375</ele>
        <time>2021-09-27T11:41:52.000Z</time>
      </trkpt>
      <trkpt lat="39.63094384409487247467041015625" lon="-0.305526740849018096923828125">
        <ele>18.6000003814697265625</ele>
        <time>2021-09-27T11:41:54.000Z</time>
      </trkpt>
      <trkpt lat="39.6308889426290988922119140625" lon="-0.3055572509765625">
        <ele>18.6000003814697265625</ele>
        <time>2021-09-27T11:41:55.000Z</time>
      </trkpt>
      <trkpt lat="39.6308339573442935943603515625" lon="-0.30559019185602664947509765625">
        <ele>18.799999237060546875</ele>
        <time>2021-09-27T11:41:56.000Z</time>
      </trkpt>
      <trkpt lat="39.63072708807885646820068359375" lon="-0.30564417131245136260986328125">
        <ele>18.799999237060546875</ele>
        <time>2021-09-27T11:41:58.000Z</time>
      </trkpt>
      <trkpt lat="39.63062516413629055023193359375" lon="-0.30567568726837635040283203125">
        <ele>19.200000762939453125</ele>
        <time>2021-09-27T11:42:00.000Z</time>
      </trkpt>
      <trkpt lat="39.63057638145983219146728515625" lon="-0.305686332285404205322265625">
        <ele>19.200000762939453125</ele>
        <time>2021-09-27T11:42:01.000Z</time>
      </trkpt>
      <trkpt lat="39.6305327117443084716796875" lon="-0.30569748021662235260009765625">
        <ele>19.200000762939453125</ele>
        <time>2021-09-27T11:42:02.000Z</time>
      </trkpt>
      <trkpt lat="39.630448557436466217041015625" lon="-0.30572396703064441680908203125">
        <ele>19.3999996185302734375</ele>
        <time>2021-09-27T11:42:04.000Z</time>
      </trkpt>
      <trkpt lat="39.6303699351847171783447265625" lon="-0.30574542470276355743408203125">
        <ele>19.6000003814697265625</ele>
        <time>2021-09-27T11:42:06.000Z</time>
      </trkpt>
      <trkpt lat="39.63029240258038043975830078125" lon="-0.30576621182262897491455078125">
        <ele>19.799999237060546875</ele>
        <time>2021-09-27T11:42:08.000Z</time>
      </trkpt>
      <trkpt lat="39.63021445088088512420654296875" lon="-0.30578515492379665374755859375">
        <ele>19.799999237060546875</ele>
        <time>2021-09-27T11:42:10.000Z</time>
      </trkpt>
      <trkpt lat="39.63014689274132251739501953125" lon="-0.30580258928239345550537109375">
        <ele>19.799999237060546875</ele>
        <time>2021-09-27T11:42:12.000Z</time>
      </trkpt>
      <trkpt lat="39.6300839446485042572021484375" lon="-0.30581683851778507232666015625">
        <ele>20</ele>
        <time>2021-09-27T11:42:14.000Z</time>
      </trkpt>
      <trkpt lat="39.6300121955573558807373046875" lon="-0.305832512676715850830078125">
        <ele>20</ele>
        <time>2021-09-27T11:42:16.000Z</time>
      </trkpt>
      <trkpt lat="39.6299360878765583038330078125" lon="-0.30584818683564662933349609375">
        <ele>20</ele>
        <time>2021-09-27T11:42:18.000Z</time>
      </trkpt>
      <trkpt lat="39.62986794300377368927001953125" lon="-0.3058605082333087921142578125">
        <ele>19.799999237060546875</ele>
        <time>2021-09-27T11:42:20.000Z</time>
      </trkpt>
      <trkpt lat="39.62979736737906932830810546875" lon="-0.30587567947804927825927734375">
        <ele>19.6000003814697265625</ele>
        <time>2021-09-27T11:42:22.000Z</time>
      </trkpt>
      <trkpt lat="39.62972997687757015228271484375" lon="-0.3058833070099353790283203125">
        <ele>19.3999996185302734375</ele>
        <time>2021-09-27T11:42:24.000Z</time>
      </trkpt>
      <trkpt lat="39.62966811843216419219970703125" lon="-0.30589722096920013427734375">
        <ele>19.3999996185302734375</ele>
        <time>2021-09-27T11:42:26.000Z</time>
      </trkpt>
      <trkpt lat="39.62960223667323589324951171875" lon="-0.3059409745037555694580078125">
        <ele>19.3999996185302734375</ele>
        <time>2021-09-27T11:42:28.000Z</time>
      </trkpt>
      <trkpt lat="39.62952747009694576263427734375" lon="-0.3060026653110980987548828125">
        <ele>19.200000762939453125</ele>
        <time>2021-09-27T11:42:30.000Z</time>
      </trkpt>
      <trkpt lat="39.6294455789029598236083984375" lon="-0.30605790205299854278564453125">
        <ele>19.6000003814697265625</ele>
        <time>2021-09-27T11:42:32.000Z</time>
      </trkpt>
      <trkpt lat="39.62936184369027614593505859375" lon="-0.30608153901994228363037109375">
        <ele>19.6000003814697265625</ele>
        <time>2021-09-27T11:42:34.000Z</time>
      </trkpt>
      <trkpt lat="39.62932169437408447265625" lon="-0.30608640052378177642822265625">
        <ele>19.799999237060546875</ele>
        <time>2021-09-27T11:42:35.000Z</time>
      </trkpt>
      <trkpt lat="39.62927970103919506072998046875" lon="-0.30609075911343097686767578125">
        <ele>19.799999237060546875</ele>
        <time>2021-09-27T11:42:36.000Z</time>
      </trkpt>
      <trkpt lat="39.6291969716548919677734375" lon="-0.3060978837311267852783203125">
        <ele>20</ele>
        <time>2021-09-27T11:42:38.000Z</time>
      </trkpt>
      <trkpt lat="39.6291113086044788360595703125" lon="-0.30610316433012485504150390625">
        <ele>20</ele>
        <time>2021-09-27T11:42:40.000Z</time>
      </trkpt>
      <trkpt lat="39.6290268190205097198486328125" lon="-0.30610500834882259368896484375">
        <ele>20.200000762939453125</ele>
        <time>2021-09-27T11:42:42.000Z</time>
      </trkpt>
      <trkpt lat="39.6289433352649211883544921875" lon="-0.3061072714626789093017578125">
        <ele>20.200000762939453125</ele>
        <time>2021-09-27T11:42:44.000Z</time>
      </trkpt>
      <trkpt lat="39.6288625337183475494384765625" lon="-0.30611540190875530242919921875">
        <ele>20.3999996185302734375</ele>
        <time>2021-09-27T11:42:46.000Z</time>
      </trkpt>
      <trkpt lat="39.6287746913731098175048828125" lon="-0.3061226941645145416259765625">
        <ele>20.3999996185302734375</ele>
        <time>2021-09-27T11:42:48.000Z</time>
      </trkpt>
      <trkpt lat="39.628728926181793212890625" lon="-0.306126214563846588134765625">
        <ele>20.3999996185302734375</ele>
        <time>2021-09-27T11:42:49.000Z</time>
      </trkpt>
      <trkpt lat="39.6286794729530811309814453125" lon="-0.30612965114414691925048828125">
        <ele>20.3999996185302734375</ele>
        <time>2021-09-27T11:42:50.000Z</time>
      </trkpt>
      <trkpt lat="39.6285798959434032440185546875" lon="-0.3061327524483203887939453125">
        <ele>20.200000762939453125</ele>
        <time>2021-09-27T11:42:52.000Z</time>
      </trkpt>
      <trkpt lat="39.6284773014485836029052734375" lon="-0.3061354346573352813720703125">
        <ele>20.200000762939453125</ele>
        <time>2021-09-27T11:42:54.000Z</time>
      </trkpt>
      <trkpt lat="39.628383927047252655029296875" lon="-0.30614138580858707427978515625">
        <ele>20</ele>
        <time>2021-09-27T11:42:56.000Z</time>
      </trkpt>
      <trkpt lat="39.62829641997814178466796875" lon="-0.3061508573591709136962890625">
        <ele>20</ele>
        <time>2021-09-27T11:42:58.000Z</time>
      </trkpt>
      <trkpt lat="39.6282070688903331756591796875" lon="-0.30616083182394504547119140625">
        <ele>20</ele>
        <time>2021-09-27T11:43:00.000Z</time>
      </trkpt>
      <trkpt lat="39.62811511941254138946533203125" lon="-0.30617373995482921600341796875">
        <ele>19.799999237060546875</ele>
        <time>2021-09-27T11:43:02.000Z</time>
      </trkpt>
      <trkpt lat="39.62802275083959102630615234375" lon="-0.30618480406701564788818359375">
        <ele>19.799999237060546875</ele>
        <time>2021-09-27T11:43:04.000Z</time>
      </trkpt>
      <trkpt lat="39.62797455489635467529296875" lon="-0.306191928684711456298828125">
        <ele>19.799999237060546875</ele>
        <time>2021-09-27T11:43:05.000Z</time>
      </trkpt>
      <trkpt lat="39.627923928201198577880859375" lon="-0.30619955621659755706787109375">
        <ele>19.799999237060546875</ele>
        <time>2021-09-27T11:43:06.000Z</time>
      </trkpt>
      <trkpt lat="39.6278746426105499267578125" lon="-0.30621640384197235107421875">
        <ele>20</ele>
        <time>2021-09-27T11:43:07.000Z</time>
      </trkpt>
      <trkpt lat="39.62782812304794788360595703125" lon="-0.30623861588537693023681640625">
        <ele>20.200000762939453125</ele>
        <time>2021-09-27T11:43:08.000Z</time>
      </trkpt>
      <trkpt lat="39.62778336368501186370849609375" lon="-0.3062613308429718017578125">
        <ele>20.200000762939453125</ele>
        <time>2021-09-27T11:43:09.000Z</time>
      </trkpt>
      <trkpt lat="39.6277370117604732513427734375" lon="-0.30627415515482425689697265625">
        <ele>20.200000762939453125</ele>
        <time>2021-09-27T11:43:10.000Z</time>
      </trkpt>
      <trkpt lat="39.62768848054111003875732421875" lon="-0.3062799386680126190185546875">
        <ele>20.200000762939453125</ele>
        <time>2021-09-27T11:43:11.000Z</time>
      </trkpt>
      <trkpt lat="39.6276412904262542724609375" lon="-0.3062720596790313720703125">
        <ele>20.200000762939453125</ele>
        <time>2021-09-27T11:43:12.000Z</time>
      </trkpt>
      <trkpt lat="39.62755017913877964019775390625" lon="-0.30624414794147014617919921875">
        <ele>20.3999996185302734375</ele>
        <time>2021-09-27T11:43:14.000Z</time>
      </trkpt>
      <trkpt lat="39.62750256992876529693603515625" lon="-0.30623274855315685272216796875">
        <ele>20.6000003814697265625</ele>
        <time>2021-09-27T11:43:15.000Z</time>
      </trkpt>
      <trkpt lat="39.6274523623287677764892578125" lon="-0.306226126849651336669921875">
        <ele>20.6000003814697265625</ele>
        <time>2021-09-27T11:43:16.000Z</time>
      </trkpt>
      <trkpt lat="39.62735068984329700469970703125" lon="-0.30622621066868305206298828125">
        <ele>20.6000003814697265625</ele>
        <time>2021-09-27T11:43:18.000Z</time>
      </trkpt>
      <trkpt lat="39.627252705395221710205078125" lon="-0.306232161819934844970703125">
        <ele>20.799999237060546875</ele>
        <time>2021-09-27T11:43:20.000Z</time>
      </trkpt>
      <trkpt lat="39.62715874426066875457763671875" lon="-0.30623610131442546844482421875">
        <ele>21</ele>
        <time>2021-09-27T11:43:22.000Z</time>
      </trkpt>
      <trkpt lat="39.62705723941326141357421875" lon="-0.306235514581203460693359375">
        <ele>21</ele>
        <time>2021-09-27T11:43:24.000Z</time>
      </trkpt>
      <trkpt lat="39.6269534714519977569580078125" lon="-0.30623777769505977630615234375">
        <ele>20.799999237060546875</ele>
        <time>2021-09-27T11:43:26.000Z</time>
      </trkpt>
      <trkpt lat="39.6268473565578460693359375" lon="-0.30624012462794780731201171875">
        <ele>20.6000003814697265625</ele>
        <time>2021-09-27T11:43:28.000Z</time>
      </trkpt>
      <trkpt lat="39.6267425827682018280029296875" lon="-0.3062454052269458770751953125">
        <ele>20.6000003814697265625</ele>
        <time>2021-09-27T11:43:30.000Z</time>
      </trkpt>
      <trkpt lat="39.6266376413404941558837890625" lon="-0.3062500990927219390869140625">
        <ele>20.3999996185302734375</ele>
        <time>2021-09-27T11:43:32.000Z</time>
      </trkpt>
      <trkpt lat="39.6265337057411670684814453125" lon="-0.30625152401626110076904296875">
        <ele>20.200000762939453125</ele>
        <time>2021-09-27T11:43:34.000Z</time>
      </trkpt>
      <trkpt lat="39.62643069215118885040283203125" lon="-0.30625537969172000885009765625">
        <ele>20.200000762939453125</ele>
        <time>2021-09-27T11:43:36.000Z</time>
      </trkpt>
      <trkpt lat="39.6263238228857517242431640625" lon="-0.30626292340457439422607421875">
        <ele>20</ele>
        <time>2021-09-27T11:43:38.000Z</time>
      </trkpt>
      <trkpt lat="39.62627470493316650390625" lon="-0.306283123791217803955078125">
        <ele>20</ele>
        <time>2021-09-27T11:43:39.000Z</time>
      </trkpt>
      <trkpt lat="39.62622986175119876861572265625" lon="-0.306309945881366729736328125">
        <ele>20</ele>
        <time>2021-09-27T11:43:40.000Z</time>
      </trkpt>
      <trkpt lat="39.62612248957157135009765625" lon="-0.3063144721090793609619140625">
        <ele>20</ele>
        <time>2021-09-27T11:43:42.000Z</time>
      </trkpt>
      <trkpt lat="39.626067839562892913818359375" lon="-0.30629687011241912841796875">
        <ele>19.799999237060546875</ele>
        <time>2021-09-27T11:43:43.000Z</time>
      </trkpt>
      <trkpt lat="39.62601277045905590057373046875" lon="-0.3062822856009006500244140625">
        <ele>19.799999237060546875</ele>
        <time>2021-09-27T11:43:44.000Z</time>
      </trkpt>
      <trkpt lat="39.6258973516523838043212890625" lon="-0.30628002248704433441162109375">
        <ele>19.6000003814697265625</ele>
        <time>2021-09-27T11:43:46.000Z</time>
      </trkpt>
      <trkpt lat="39.62583993561565876007080078125" lon="-0.30628748238086700439453125">
        <ele>19.6000003814697265625</ele>
        <time>2021-09-27T11:43:47.000Z</time>
      </trkpt>
      <trkpt lat="39.62578377686440944671630859375" lon="-0.30629226006567478179931640625">
        <ele>19.6000003814697265625</ele>
        <time>2021-09-27T11:43:48.000Z</time>
      </trkpt>
      <trkpt lat="39.6256650052964687347412109375" lon="-0.30630097724497318267822265625">
        <ele>19.3999996185302734375</ele>
        <time>2021-09-27T11:43:50.000Z</time>
      </trkpt>
      <trkpt lat="39.6255523525178432464599609375" lon="-0.30630701221525669097900390625">
        <ele>19.200000762939453125</ele>
        <time>2021-09-27T11:43:52.000Z</time>
      </trkpt>
      <trkpt lat="39.625445567071437835693359375" lon="-0.306316316127777099609375">
        <ele>19.200000762939453125</ele>
        <time>2021-09-27T11:43:54.000Z</time>
      </trkpt>
      <trkpt lat="39.625339619815349578857421875" lon="-0.3063258714973926544189453125">
        <ele>19</ele>
        <time>2021-09-27T11:43:56.000Z</time>
      </trkpt>
      <trkpt lat="39.6252304874360561370849609375" lon="-0.30633484013378620147705078125">
        <ele>19</ele>
        <time>2021-09-27T11:43:58.000Z</time>
      </trkpt>
      <trkpt lat="39.6251268871128559112548828125" lon="-0.30634590424597263336181640625">
        <ele>18.799999237060546875</ele>
        <time>2021-09-27T11:44:00.000Z</time>
      </trkpt>
      <trkpt lat="39.625031836330890655517578125" lon="-0.3063597343862056732177734375">
        <ele>18.799999237060546875</ele>
        <time>2021-09-27T11:44:02.000Z</time>
      </trkpt>
      <trkpt lat="39.6249465085566043853759765625" lon="-0.3063932619988918304443359375">
        <ele>18.799999237060546875</ele>
        <time>2021-09-27T11:44:04.000Z</time>
      </trkpt>
      <trkpt lat="39.6248784475028514862060546875" lon="-0.30645377933979034423828125">
        <ele>19</ele>
        <time>2021-09-27T11:44:06.000Z</time>
      </trkpt>
      <trkpt lat="39.62484684772789478302001953125" lon="-0.30647112987935543060302734375">
        <ele>19</ele>
        <time>2021-09-27T11:44:07.000Z</time>
      </trkpt>
      <trkpt lat="39.62481767870485782623291015625" lon="-0.3064598143100738525390625">
        <ele>19</ele>
        <time>2021-09-27T11:44:08.000Z</time>
      </trkpt>
      <trkpt lat="39.62480041198432445526123046875" lon="-0.30642670579254627227783203125">
        <ele>18.799999237060546875</ele>
        <time>2021-09-27T11:44:09.000Z</time>
      </trkpt>
      <trkpt lat="39.6247939579188823699951171875" lon="-0.3063833713531494140625">
        <ele>18.6000003814697265625</ele>
        <time>2021-09-27T11:44:10.000Z</time>
      </trkpt>
      <trkpt lat="39.62479722686111927032470703125" lon="-0.3062842972576618194580078125">
        <ele>18.3999996185302734375</ele>
        <time>2021-09-27T11:44:12.000Z</time>
      </trkpt>
      <trkpt lat="39.62479370646178722381591796875" lon="-0.30623777769505977630615234375">
        <ele>18.200000762939453125</ele>
        <time>2021-09-27T11:44:13.000Z</time>
      </trkpt>
      <trkpt lat="39.62478800676763057708740234375" lon="-0.30620039440691471099853515625">
        <ele>18.200000762939453125</ele>
        <time>2021-09-27T11:44:14.000Z</time>
      </trkpt>
      <trkpt lat="39.62478331290185451507568359375" lon="-0.30617214739322662353515625">
        <ele>18.200000762939453125</ele>
        <time>2021-09-27T11:44:15.000Z</time>
      </trkpt>
      <trkpt lat="39.6247895993292331695556640625" lon="-0.30614574439823627471923828125">
        <ele>18.200000762939453125</ele>
        <time>2021-09-27T11:44:16.000Z</time>
      </trkpt>
      <trkpt lat="39.624799825251102447509765625" lon="-0.306085981428623199462890625">
        <ele>18</ele>
        <time>2021-09-27T11:44:18.000Z</time>
      </trkpt>
      <trkpt lat="39.6247999928891658782958984375" lon="-0.30600928701460361480712890625">
        <ele>18</ele>
        <time>2021-09-27T11:44:20.000Z</time>
      </trkpt>
      <trkpt lat="39.62480024434626102447509765625" lon="-0.30595958232879638671875">
        <ele>18</ele>
        <time>2021-09-27T11:44:21.000Z</time>
      </trkpt>
      <trkpt lat="39.62480192072689533233642578125" lon="-0.305903591215610504150390625">
        <ele>18</ele>
        <time>2021-09-27T11:44:22.000Z</time>
      </trkpt>
      <trkpt lat="39.62480627931654453277587890625" lon="-0.30577392317354679107666015625">
        <ele>18</ele>
        <time>2021-09-27T11:44:24.000Z</time>
      </trkpt>
      <trkpt lat="39.6248016692698001861572265625" lon="-0.305641405284404754638671875">
        <ele>18</ele>
        <time>2021-09-27T11:44:26.000Z</time>
      </trkpt>
      <trkpt lat="39.62480242364108562469482421875" lon="-0.30551039613783359527587890625">
        <ele>18</ele>
        <time>2021-09-27T11:44:28.000Z</time>
      </trkpt>
      <trkpt lat="39.62480342946946620941162109375" lon="-0.3053699992597103118896484375">
        <ele>17.799999237060546875</ele>
        <time>2021-09-27T11:44:30.000Z</time>
      </trkpt>
      <trkpt lat="39.6248036809265613555908203125" lon="-0.30522608198225498199462890625">
        <ele>17.799999237060546875</ele>
        <time>2021-09-27T11:44:32.000Z</time>
      </trkpt>
      <trkpt lat="39.624798484146595001220703125" lon="-0.30508660711348056793212890625">
        <ele>17.3999996185302734375</ele>
        <time>2021-09-27T11:44:34.000Z</time>
      </trkpt>
      <trkpt lat="39.6247909404337406158447265625" lon="-0.30502005480229854583740234375">
        <ele>17.200000762939453125</ele>
        <time>2021-09-27T11:44:35.000Z</time>
      </trkpt>
      <trkpt lat="39.62478180415928363800048828125" lon="-0.30495978891849517822265625">
        <ele>17</ele>
        <time>2021-09-27T11:44:36.000Z</time>
      </trkpt>
      <trkpt lat="39.62475934065878391265869140625" lon="-0.30484504066407680511474609375">
        <ele>16.799999237060546875</ele>
        <time>2021-09-27T11:44:38.000Z</time>
      </trkpt>
      <trkpt lat="39.6247453428804874420166015625" lon="-0.3047862835228443145751953125">
        <ele>16.6000003814697265625</ele>
        <time>2021-09-27T11:44:39.000Z</time>
      </trkpt>
      <trkpt lat="39.624730087816715240478515625" lon="-0.30472987331449985504150390625">
        <ele>16.3999996185302734375</ele>
        <time>2021-09-27T11:44:40.000Z</time>
      </trkpt>
      <trkpt lat="39.62471022270619869232177734375" lon="-0.30467488802969455718994140625">
        <ele>16.3999996185302734375</ele>
        <time>2021-09-27T11:44:41.000Z</time>
      </trkpt>
      <trkpt lat="39.62468390353024005889892578125" lon="-0.30462509952485561370849609375">
        <ele>16.200000762939453125</ele>
        <time>2021-09-27T11:44:42.000Z</time>
      </trkpt>
      <trkpt lat="39.62462447583675384521484375" lon="-0.304535664618015289306640625">
        <ele>16</ele>
        <time>2021-09-27T11:44:44.000Z</time>
      </trkpt>
      <trkpt lat="39.624574184417724609375" lon="-0.30444187112152576446533203125">
        <ele>15.6000003814697265625</ele>
        <time>2021-09-27T11:44:46.000Z</time>
      </trkpt>
      <trkpt lat="39.624530263245105743408203125" lon="-0.3043440543115139007568359375">
        <ele>15.3999996185302734375</ele>
        <time>2021-09-27T11:44:48.000Z</time>
      </trkpt>
      <trkpt lat="39.6244915388524532318115234375" lon="-0.3042451478540897369384765625">
        <ele>15</ele>
        <time>2021-09-27T11:44:50.000Z</time>
      </trkpt>
      <trkpt lat="39.62445423938333988189697265625" lon="-0.3041450679302215576171875">
        <ele>14.80000019073486328125</ele>
        <time>2021-09-27T11:44:52.000Z</time>
      </trkpt>
      <trkpt lat="39.62441786192357540130615234375" lon="-0.30404943041503429412841796875">
        <ele>14.3999996185302734375</ele>
        <time>2021-09-27T11:44:54.000Z</time>
      </trkpt>
      <trkpt lat="39.6243979968130588531494140625" lon="-0.30400349758565425872802734375">
        <ele>14.3999996185302734375</ele>
        <time>2021-09-27T11:44:55.000Z</time>
      </trkpt>
      <trkpt lat="39.62436740286648273468017578125" lon="-0.3039615042507648468017578125">
        <ele>14.19999980926513671875</ele>
        <time>2021-09-27T11:44:56.000Z</time>
      </trkpt>
      <trkpt lat="39.62433337233960628509521484375" lon="-0.3039242886006832122802734375">
        <ele>14.3999996185302734375</ele>
        <time>2021-09-27T11:44:57.000Z</time>
      </trkpt>
      <trkpt lat="39.62429867126047611236572265625" lon="-0.30388816259801387786865234375">
        <ele>14.3999996185302734375</ele>
        <time>2021-09-27T11:44:58.000Z</time>
      </trkpt>
      <trkpt lat="39.6242648921906948089599609375" lon="-0.30384440906345844268798828125">
        <ele>14.6000003814697265625</ele>
        <time>2021-09-27T11:44:59.000Z</time>
      </trkpt>
      <trkpt lat="39.6242348849773406982421875" lon="-0.3037881664931774139404296875">
        <ele>14.80000019073486328125</ele>
        <time>2021-09-27T11:45:00.000Z</time>
      </trkpt>
      <trkpt lat="39.62421401403844356536865234375" lon="-0.303726308047771453857421875">
        <ele>14.80000019073486328125</ele>
        <time>2021-09-27T11:45:01.000Z</time>
      </trkpt>
      <trkpt lat="39.6242015250027179718017578125" lon="-0.30366067774593830108642578125">
        <ele>15</ele>
        <time>2021-09-27T11:45:02.000Z</time>
      </trkpt>
      <trkpt lat="39.6241934783756732940673828125" lon="-0.30359186232089996337890625">
        <ele>15</ele>
        <time>2021-09-27T11:45:03.000Z</time>
      </trkpt>
      <trkpt lat="39.6241871081292629241943359375" lon="-0.30352002941071987152099609375">
        <ele>15.19999980926513671875</ele>
        <time>2021-09-27T11:45:04.000Z</time>
      </trkpt>
      <trkpt lat="39.6241773851215839385986328125" lon="-0.30345180071890354156494140625">
        <ele>15.19999980926513671875</ele>
        <time>2021-09-27T11:45:05.000Z</time>
      </trkpt>
      <trkpt lat="39.6241622976958751678466796875" lon="-0.30338524840772151947021484375">
        <ele>15.3999996185302734375</ele>
        <time>2021-09-27T11:45:06.000Z</time>
      </trkpt>
      <trkpt lat="39.62414704263210296630859375" lon="-0.30332054011523723602294921875">
        <ele>15.3999996185302734375</ele>
        <time>2021-09-27T11:45:07.000Z</time>
      </trkpt>
      <trkpt lat="39.62412885390222072601318359375" lon="-0.30325516127049922943115234375">
        <ele>15.80000019073486328125</ele>
        <time>2021-09-27T11:45:08.000Z</time>
      </trkpt>
      <trkpt lat="39.62408669292926788330078125" lon="-0.3031286783516407012939453125">
        <ele>16.200000762939453125</ele>
        <time>2021-09-27T11:45:10.000Z</time>
      </trkpt>
      <trkpt lat="39.62404402904212474822998046875" lon="-0.3030109964311122894287109375">
        <ele>16.6000003814697265625</ele>
        <time>2021-09-27T11:45:12.000Z</time>
      </trkpt>
      <trkpt lat="39.62402190081775188446044921875" lon="-0.302951820194721221923828125">
        <ele>16.799999237060546875</ele>
        <time>2021-09-27T11:45:13.000Z</time>
      </trkpt>
      <trkpt lat="39.62399390526115894317626953125" lon="-0.302896834909915924072265625">
        <ele>16.799999237060546875</ele>
        <time>2021-09-27T11:45:14.000Z</time>
      </trkpt>
      <trkpt lat="39.62394185364246368408203125" lon="-0.302770100533962249755859375">
        <ele>17</ele>
        <time>2021-09-27T11:45:16.000Z</time>
      </trkpt>
      <trkpt lat="39.62389491498470306396484375" lon="-0.30264101922512054443359375">
        <ele>16.6000003814697265625</ele>
        <time>2021-09-27T11:45:18.000Z</time>
      </trkpt>
      <trkpt lat="39.62386851198971271514892578125" lon="-0.30257807113230228424072265625">
        <ele>16.3999996185302734375</ele>
        <time>2021-09-27T11:45:19.000Z</time>
      </trkpt>
      <trkpt lat="39.6238340623676776885986328125" lon="-0.30252023600041866302490234375">
        <ele>16</ele>
        <time>2021-09-27T11:45:20.000Z</time>
      </trkpt>
      <trkpt lat="39.6237421967089176177978515625" lon="-0.30245116911828517913818359375">
        <ele>15.6000003814697265625</ele>
        <time>2021-09-27T11:45:22.000Z</time>
      </trkpt>
      <trkpt lat="39.62364119477570056915283203125" lon="-0.30245435424149036407470703125">
        <ele>15.3999996185302734375</ele>
        <time>2021-09-27T11:45:24.000Z</time>
      </trkpt>
      <trkpt lat="39.62358855642378330230712890625" lon="-0.302482433617115020751953125">
        <ele>15.3999996185302734375</ele>
        <time>2021-09-27T11:45:25.000Z</time>
      </trkpt>
      <trkpt lat="39.623531140387058258056640625" lon="-0.30251570977270603179931640625">
        <ele>15.3999996185302734375</ele>
        <time>2021-09-27T11:45:26.000Z</time>
      </trkpt>
      <trkpt lat="39.623418487608432769775390625" lon="-0.30258737504482269287109375">
        <ele>15.6000003814697265625</ele>
        <time>2021-09-27T11:45:28.000Z</time>
      </trkpt>
      <trkpt lat="39.62335922755300998687744140625" lon="-0.302613191306591033935546875">
        <ele>15.6000003814697265625</ele>
        <time>2021-09-27T11:45:29.000Z</time>
      </trkpt>
      <trkpt lat="39.62330440990626811981201171875" lon="-0.30264311470091342926025390625">
        <ele>15.6000003814697265625</ele>
        <time>2021-09-27T11:45:30.000Z</time>
      </trkpt>
      <trkpt lat="39.62324984371662139892578125" lon="-0.30267278663814067840576171875">
        <ele>15.6000003814697265625</ele>
        <time>2021-09-27T11:45:31.000Z</time>
      </trkpt>
      <trkpt lat="39.6231941878795623779296875" lon="-0.3027005307376384735107421875">
        <ele>15.6000003814697265625</ele>
        <time>2021-09-27T11:45:32.000Z</time>
      </trkpt>
      <trkpt lat="39.62307357229292392730712890625" lon="-0.302747301757335662841796875">
        <ele>15.3999996185302734375</ele>
        <time>2021-09-27T11:45:34.000Z</time>
      </trkpt>
      <trkpt lat="39.6229667030274868011474609375" lon="-0.3028048016130924224853515625">
        <ele>15.3999996185302734375</ele>
        <time>2021-09-27T11:45:36.000Z</time>
      </trkpt>
      <trkpt lat="39.62285631336271762847900390625" lon="-0.30286506749689579010009765625">
        <ele>15.6000003814697265625</ele>
        <time>2021-09-27T11:45:38.000Z</time>
      </trkpt>
      <trkpt lat="39.62273745797574520111083984375" lon="-0.302917622029781341552734375">
        <ele>15.3999996185302734375</ele>
        <time>2021-09-27T11:45:40.000Z</time>
      </trkpt>
      <trkpt lat="39.62262866087257862091064453125" lon="-0.3029734455049037933349609375">
        <ele>15.19999980926513671875</ele>
        <time>2021-09-27T11:45:42.000Z</time>
      </trkpt>
      <trkpt lat="39.6225764416158199310302734375" lon="-0.3030029498040676116943359375">
        <ele>15</ele>
        <time>2021-09-27T11:45:43.000Z</time>
      </trkpt>
      <trkpt lat="39.62252338416874408721923828125" lon="-0.3030334599316120147705078125">
        <ele>14.80000019073486328125</ele>
        <time>2021-09-27T11:45:44.000Z</time>
      </trkpt>
      <trkpt lat="39.62241433560848236083984375" lon="-0.3030824102461338043212890625">
        <ele>14.3999996185302734375</ele>
        <time>2021-09-27T11:45:46.000Z</time>
      </trkpt>
      <trkpt lat="39.622310735285282135009765625" lon="-0.30313312076032161712646484375">
        <ele>14</ele>
        <time>2021-09-27T11:45:48.000Z</time>
      </trkpt>
      <trkpt lat="39.62227142415940761566162109375" lon="-0.3031575120985507965087890625">
        <ele>14</ele>
        <time>2021-09-27T11:45:49.000Z</time>
      </trkpt>
      <trkpt lat="39.62223194539546966552734375" lon="-0.30318710021674633026123046875">
        <ele>13.80000019073486328125</ele>
        <time>2021-09-27T11:45:50.000Z</time>
      </trkpt>
      <trkpt lat="39.6221534907817840576171875" lon="-0.3032577596604824066162109375">
        <ele>13.3999996185302734375</ele>
        <time>2021-09-27T11:45:52.000Z</time>
      </trkpt>
      <trkpt lat="39.62207092903554439544677734375" lon="-0.30333864502608776092529296875">
        <ele>13.19999980926513671875</ele>
        <time>2021-09-27T11:45:54.000Z</time>
      </trkpt>
      <trkpt lat="39.622027762234210968017578125" lon="-0.303376615047454833984375">
        <ele>13</ele>
        <time>2021-09-27T11:45:55.000Z</time>
      </trkpt>
      <trkpt lat="39.6219846792519092559814453125" lon="-0.30341626144945621490478515625">
        <ele>13</ele>
        <time>2021-09-27T11:45:56.000Z</time>
      </trkpt>
      <trkpt lat="39.62194520048797130584716796875" lon="-0.30346403829753398895263671875">
        <ele>13</ele>
        <time>2021-09-27T11:45:57.000Z</time>
      </trkpt>
      <trkpt lat="39.62190614081919193267822265625" lon="-0.30351449735462665557861328125">
        <ele>13</ele>
        <time>2021-09-27T11:45:58.000Z</time>
      </trkpt>
      <trkpt lat="39.621821902692317962646484375" lon="-0.30361105687916278839111328125">
        <ele>13</ele>
        <time>2021-09-27T11:46:00.000Z</time>
      </trkpt>
      <trkpt lat="39.6217429451644420623779296875" lon="-0.3037150762975215911865234375">
        <ele>13</ele>
        <time>2021-09-27T11:46:02.000Z</time>
      </trkpt>
      <trkpt lat="39.62170463986694812774658203125" lon="-0.3037670440971851348876953125">
        <ele>13</ele>
        <time>2021-09-27T11:46:03.000Z</time>
      </trkpt>
      <trkpt lat="39.62166130542755126953125" lon="-0.30381574295461177825927734375">
        <ele>13</ele>
        <time>2021-09-27T11:46:04.000Z</time>
      </trkpt>
      <trkpt lat="39.6215766482055187225341796875" lon="-0.30391397885978221893310546875">
        <ele>13</ele>
        <time>2021-09-27T11:46:06.000Z</time>
      </trkpt>
      <trkpt lat="39.6215312182903289794921875" lon="-0.30396108515560626983642578125">
        <ele>13</ele>
        <time>2021-09-27T11:46:07.000Z</time>
      </trkpt>
      <trkpt lat="39.6214837767183780670166015625" lon="-0.304003916680812835693359375">
        <ele>13</ele>
        <time>2021-09-27T11:46:08.000Z</time>
      </trkpt>
      <trkpt lat="39.62140121497213840484619140625" lon="-0.30410475097596645355224609375">
        <ele>13</ele>
        <time>2021-09-27T11:46:10.000Z</time>
      </trkpt>
      <trkpt lat="39.6213590539991855621337890625" lon="-0.3041522763669490814208984375">
        <ele>13</ele>
        <time>2021-09-27T11:46:11.000Z</time>
      </trkpt>
      <trkpt lat="39.62131655775010585784912109375" lon="-0.30419913120567798614501953125">
        <ele>13</ele>
        <time>2021-09-27T11:46:12.000Z</time>
      </trkpt>
      <trkpt lat="39.62123575620353221893310546875" lon="-0.30429770238697528839111328125">
        <ele>13</ele>
        <time>2021-09-27T11:46:14.000Z</time>
      </trkpt>
      <trkpt lat="39.62115813978016376495361328125" lon="-0.30439845286309719085693359375">
        <ele>13</ele>
        <time>2021-09-27T11:46:16.000Z</time>
      </trkpt>
      <trkpt lat="39.6210814453661441802978515625" lon="-0.30450121499598026275634765625">
        <ele>13</ele>
        <time>2021-09-27T11:46:18.000Z</time>
      </trkpt>
      <trkpt lat="39.62100843898952007293701171875" lon="-0.30460481531918048858642578125">
        <ele>13</ele>
        <time>2021-09-27T11:46:20.000Z</time>
      </trkpt>
      <trkpt lat="39.6209677867591381072998046875" lon="-0.30465259216725826263427734375">
        <ele>13</ele>
        <time>2021-09-27T11:46:21.000Z</time>
      </trkpt>
      <trkpt lat="39.6209275536239147186279296875" lon="-0.304701291024684906005859375">
        <ele>13.19999980926513671875</ele>
        <time>2021-09-27T11:46:22.000Z</time>
      </trkpt>
      <trkpt lat="39.620850943028926849365234375" lon="-0.304803550243377685546875">
        <ele>13.6000003814697265625</ele>
        <time>2021-09-27T11:46:24.000Z</time>
      </trkpt>
      <trkpt lat="39.62077693082392215728759765625" lon="-0.3049027919769287109375">
        <ele>14</ele>
        <time>2021-09-27T11:46:26.000Z</time>
      </trkpt>
      <trkpt lat="39.62070451118052005767822265625" lon="-0.305005721747875213623046875">
        <ele>14.3999996185302734375</ele>
        <time>2021-09-27T11:46:28.000Z</time>
      </trkpt>
      <trkpt lat="39.6206630207598209381103515625" lon="-0.30505525879561901092529296875">
        <ele>14.6000003814697265625</ele>
        <time>2021-09-27T11:46:29.000Z</time>
      </trkpt>
      <trkpt lat="39.62062354199588298797607421875" lon="-0.305102951824665069580078125">
        <ele>14.6000003814697265625</ele>
        <time>2021-09-27T11:46:30.000Z</time>
      </trkpt>
      <trkpt lat="39.62054357863962650299072265625" lon="-0.3051996789872646331787109375">
        <ele>15</ele>
        <time>2021-09-27T11:46:32.000Z</time>
      </trkpt>
      <trkpt lat="39.6204638667404651641845703125" lon="-0.30529632233083248138427734375">
        <ele>15.3999996185302734375</ele>
        <time>2021-09-27T11:46:34.000Z</time>
      </trkpt>
      <trkpt lat="39.62038390338420867919921875" lon="-0.30539355240762233734130859375">
        <ele>15.80000019073486328125</ele>
        <time>2021-09-27T11:46:36.000Z</time>
      </trkpt>
      <trkpt lat="39.62030016817152500152587890625" lon="-0.30548122711479663848876953125">
        <ele>16</ele>
        <time>2021-09-27T11:46:38.000Z</time>
      </trkpt>
      <trkpt lat="39.62023043073713779449462890625" lon="-0.30557627789676189422607421875">
        <ele>16.200000762939453125</ele>
        <time>2021-09-27T11:46:40.000Z</time>
      </trkpt>
      <trkpt lat="39.62015767581760883331298828125" lon="-0.30567216686904430389404296875">
        <ele>16.6000003814697265625</ele>
        <time>2021-09-27T11:46:42.000Z</time>
      </trkpt>
      <trkpt lat="39.620060026645660400390625" lon="-0.305720530450344085693359375">
        <ele>16.6000003814697265625</ele>
        <time>2021-09-27T11:46:44.000Z</time>
      </trkpt>
      <trkpt lat="39.62001241743564605712890625" lon="-0.30570753850042819976806640625">
        <ele>16.6000003814697265625</ele>
        <time>2021-09-27T11:46:45.000Z</time>
      </trkpt>
      <trkpt lat="39.61997427977621555328369140625" lon="-0.30566596426069736480712890625">
        <ele>16.3999996185302734375</ele>
        <time>2021-09-27T11:46:46.000Z</time>
      </trkpt>
      <trkpt lat="39.619949050247669219970703125" lon="-0.305538475513458251953125">
        <ele>16.200000762939453125</ele>
        <time>2021-09-27T11:46:48.000Z</time>
      </trkpt>
      <trkpt lat="39.61996614933013916015625" lon="-0.30540042556822299957275390625">
        <ele>15.80000019073486328125</ele>
        <time>2021-09-27T11:46:50.000Z</time>
      </trkpt>
      <trkpt lat="39.61999322287738323211669921875" lon="-0.305260531604290008544921875">
        <ele>15.19999980926513671875</ele>
        <time>2021-09-27T11:46:52.000Z</time>
      </trkpt>
      <trkpt lat="39.62001048959791660308837890625" lon="-0.305115021765232086181640625">
        <ele>14.80000019073486328125</ele>
        <time>2021-09-27T11:46:54.000Z</time>
      </trkpt>
      <trkpt lat="39.6200296841561794281005859375" lon="-0.3049814142286777496337890625">
        <ele>14.19999980926513671875</ele>
        <time>2021-09-27T11:46:56.000Z</time>
      </trkpt>
      <trkpt lat="39.620038904249668121337890625" lon="-0.304916203022003173828125">
        <ele>14</ele>
        <time>2021-09-27T11:46:57.000Z</time>
      </trkpt>
      <trkpt lat="39.62003949098289012908935546875" lon="-0.30485308729112148284912109375">
        <ele>14</ele>
        <time>2021-09-27T11:46:58.000Z</time>
      </trkpt>
      <trkpt lat="39.62002876214683055877685546875" lon="-0.3047939948737621307373046875">
        <ele>14</ele>
        <time>2021-09-27T11:46:59.000Z</time>
      </trkpt>
      <trkpt lat="39.620004035532474517822265625" lon="-0.30474462546408176422119140625">
        <ele>14</ele>
        <time>2021-09-27T11:47:00.000Z</time>
      </trkpt>
      <trkpt lat="39.6199656464159488677978515625" lon="-0.30471059493720531463623046875">
        <ele>14</ele>
        <time>2021-09-27T11:47:01.000Z</time>
      </trkpt>
      <trkpt lat="39.61991929449141025543212890625" lon="-0.30469886027276515960693359375">
        <ele>14.19999980926513671875</ele>
        <time>2021-09-27T11:47:02.000Z</time>
      </trkpt>
      <trkpt lat="39.61987403221428394317626953125" lon="-0.3047058172523975372314453125">
        <ele>14.19999980926513671875</ele>
        <time>2021-09-27T11:47:03.000Z</time>
      </trkpt>
      <trkpt lat="39.6198332123458385467529296875" lon="-0.30473046004772186279296875">
        <ele>14.3999996185302734375</ele>
        <time>2021-09-27T11:47:04.000Z</time>
      </trkpt>
      <trkpt lat="39.61979842744767665863037109375" lon="-0.30476935207843780517578125">
        <ele>14.3999996185302734375</ele>
        <time>2021-09-27T11:47:05.000Z</time>
      </trkpt>
      <trkpt lat="39.61976791732013225555419921875" lon="-0.304815284907817840576171875">
        <ele>14.6000003814697265625</ele>
        <time>2021-09-27T11:47:06.000Z</time>
      </trkpt>
      <trkpt lat="39.61970974691212177276611328125" lon="-0.30490723438560962677001953125">
        <ele>14.80000019073486328125</ele>
        <time>2021-09-27T11:47:08.000Z</time>
      </trkpt>
      <trkpt lat="39.61964503861963748931884765625" lon="-0.30499055050313472747802734375">
        <ele>15.19999980926513671875</ele>
        <time>2021-09-27T11:47:10.000Z</time>
      </trkpt>
      <trkpt lat="39.61958058178424835205078125" lon="-0.30508107505738735198974609375">
        <ele>15.3999996185302734375</ele>
        <time>2021-09-27T11:47:12.000Z</time>
      </trkpt>
      <trkpt lat="39.6195141971111297607421875" lon="-0.3051715157926082611083984375">
        <ele>15.6000003814697265625</ele>
        <time>2021-09-27T11:47:14.000Z</time>
      </trkpt>
      <trkpt lat="39.619440101087093353271484375" lon="-0.30526095069944858551025390625">
        <ele>15.80000019073486328125</ele>
        <time>2021-09-27T11:47:16.000Z</time>
      </trkpt>
      <trkpt lat="39.61936776526272296905517578125" lon="-0.30534468591213226318359375">
        <ele>16</ele>
        <time>2021-09-27T11:47:18.000Z</time>
      </trkpt>
      <trkpt lat="39.61930087767541408538818359375" lon="-0.30542842112481594085693359375">
        <ele>16.200000762939453125</ele>
        <time>2021-09-27T11:47:20.000Z</time>
      </trkpt>
      <trkpt lat="39.61923818103969097137451171875" lon="-0.3055165149271488189697265625">
        <ele>16.3999996185302734375</ele>
        <time>2021-09-27T11:47:22.000Z</time>
      </trkpt>
      <trkpt lat="39.61917783133685588836669921875" lon="-0.30560293234884738922119140625">
        <ele>16.6000003814697265625</ele>
        <time>2021-09-27T11:47:24.000Z</time>
      </trkpt>
      <trkpt lat="39.6191043220460414886474609375" lon="-0.30569245107471942901611328125">
        <ele>16.799999237060546875</ele>
        <time>2021-09-27T11:47:26.000Z</time>
      </trkpt>
      <trkpt lat="39.61902678944170475006103515625" lon="-0.30578188598155975341796875">
        <ele>17</ele>
        <time>2021-09-27T11:47:28.000Z</time>
      </trkpt>
      <trkpt lat="39.6189490891993045806884765625" lon="-0.30588121153414249420166015625">
        <ele>17.200000762939453125</ele>
        <time>2021-09-27T11:47:30.000Z</time>
      </trkpt>
      <trkpt lat="39.61887239478528499603271484375" lon="-0.3059838898479938507080078125">
        <ele>17.3999996185302734375</ele>
        <time>2021-09-27T11:47:32.000Z</time>
      </trkpt>
      <trkpt lat="39.6187884919345378875732421875" lon="-0.3060757555067539215087890625">
        <ele>17.6000003814697265625</ele>
        <time>2021-09-27T11:47:34.000Z</time>
      </trkpt>
      <trkpt lat="39.6187070198357105255126953125" lon="-0.30617306940257549285888671875">
        <ele>17.799999237060546875</ele>
        <time>2021-09-27T11:47:36.000Z</time>
      </trkpt>
      <trkpt lat="39.61862797848880290985107421875" lon="-0.3062698803842067718505859375">
        <ele>18</ele>
        <time>2021-09-27T11:47:38.000Z</time>
      </trkpt>
      <trkpt lat="39.61854767985641956329345703125" lon="-0.30636501498520374298095703125">
        <ele>18.200000762939453125</ele>
        <time>2021-09-27T11:47:40.000Z</time>
      </trkpt>
      <trkpt lat="39.61846956051886081695556640625" lon="-0.3064629994332790374755859375">
        <ele>18.6000003814697265625</ele>
        <time>2021-09-27T11:47:42.000Z</time>
      </trkpt>
      <trkpt lat="39.61839236319065093994140625" lon="-0.30656240880489349365234375">
        <ele>19</ele>
        <time>2021-09-27T11:47:44.000Z</time>
      </trkpt>
      <trkpt lat="39.61830829270184040069580078125" lon="-0.30665368773043155670166015625">
        <ele>19.200000762939453125</ele>
        <time>2021-09-27T11:47:46.000Z</time>
      </trkpt>
      <trkpt lat="39.6182272396981716156005859375" lon="-0.306746475398540496826171875">
        <ele>19.6000003814697265625</ele>
        <time>2021-09-27T11:47:48.000Z</time>
      </trkpt>
      <trkpt lat="39.618188180029392242431640625" lon="-0.306793414056301116943359375">
        <ele>19.799999237060546875</ele>
        <time>2021-09-27T11:47:49.000Z</time>
      </trkpt>
      <trkpt lat="39.61815071292221546173095703125" lon="-0.30684110708534717559814453125">
        <ele>20</ele>
        <time>2021-09-27T11:47:50.000Z</time>
      </trkpt>
      <trkpt lat="39.61807728745043277740478515625" lon="-0.30693733133375644683837890625">
        <ele>20.200000762939453125</ele>
        <time>2021-09-27T11:47:52.000Z</time>
      </trkpt>
      <trkpt lat="39.618001766502857208251953125" lon="-0.30702643096446990966796875">
        <ele>20.6000003814697265625</ele>
        <time>2021-09-27T11:47:54.000Z</time>
      </trkpt>
      <trkpt lat="39.61791819892823696136474609375" lon="-0.3071114234626293182373046875">
        <ele>20.799999237060546875</ele>
        <time>2021-09-27T11:47:56.000Z</time>
      </trkpt>
      <trkpt lat="39.61787830106914043426513671875" lon="-0.307154841721057891845703125">
        <ele>21</ele>
        <time>2021-09-27T11:47:57.000Z</time>
      </trkpt>
      <trkpt lat="39.61783572100102901458740234375" lon="-0.30719515867531299591064453125">
        <ele>21</ele>
        <time>2021-09-27T11:47:58.000Z</time>
      </trkpt>
      <trkpt lat="39.6177541650831699371337890625" lon="-0.30727210454642772674560546875">
        <ele>21</ele>
        <time>2021-09-27T11:48:00.000Z</time>
      </trkpt>
      <trkpt lat="39.61767487227916717529296875" lon="-0.30734066851437091827392578125">
        <ele>21</ele>
        <time>2021-09-27T11:48:02.000Z</time>
      </trkpt>
      <trkpt lat="39.61760513484477996826171875" lon="-0.307425744831562042236328125">
        <ele>21</ele>
        <time>2021-09-27T11:48:04.000Z</time>
      </trkpt>
      <trkpt lat="39.6175700984895229339599609375" lon="-0.30747226439416408538818359375">
        <ele>21</ele>
        <time>2021-09-27T11:48:05.000Z</time>
      </trkpt>
      <trkpt lat="39.617533385753631591796875" lon="-0.30751886777579784393310546875">
        <ele>21</ele>
        <time>2021-09-27T11:48:06.000Z</time>
      </trkpt>
      <trkpt lat="39.6174906380474567413330078125" lon="-0.30756060965359210968017578125">
        <ele>21</ele>
        <time>2021-09-27T11:48:07.000Z</time>
      </trkpt>
      <trkpt lat="39.61744529195129871368408203125" lon="-0.30759849585592746734619140625">
        <ele>21</ele>
        <time>2021-09-27T11:48:08.000Z</time>
      </trkpt>
      <trkpt lat="39.617396928369998931884765625" lon="-0.30763269402086734771728515625">
        <ele>21</ele>
        <time>2021-09-27T11:48:09.000Z</time>
      </trkpt>
      <trkpt lat="39.617347307503223419189453125" lon="-0.30766488052904605865478515625">
        <ele>21</ele>
        <time>2021-09-27T11:48:10.000Z</time>
      </trkpt>
      <trkpt lat="39.617247395217418670654296875" lon="-0.30773545615375041961669921875">
        <ele>21</ele>
        <time>2021-09-27T11:48:12.000Z</time>
      </trkpt>
      <trkpt lat="39.6171979419887065887451171875" lon="-0.30777401290833950042724609375">
        <ele>21</ele>
        <time>2021-09-27T11:48:13.000Z</time>
      </trkpt>
      <trkpt lat="39.6171458065509796142578125" lon="-0.30780569650232791900634765625">
        <ele>21</ele>
        <time>2021-09-27T11:48:14.000Z</time>
      </trkpt>
      <trkpt lat="39.61704363115131855010986328125" lon="-0.3078714944422245025634765625">
        <ele>20.799999237060546875</ele>
        <time>2021-09-27T11:48:16.000Z</time>
      </trkpt>
      <trkpt lat="39.6169894002377986907958984375" lon="-0.30790510587394237518310546875">
        <ele>20.799999237060546875</ele>
        <time>2021-09-27T11:48:17.000Z</time>
      </trkpt>
      <trkpt lat="39.616934247314929962158203125" lon="-0.30793578363955020904541015625">
        <ele>20.799999237060546875</ele>
        <time>2021-09-27T11:48:18.000Z</time>
      </trkpt>
      <trkpt lat="39.61680717766284942626953125" lon="-0.30797995626926422119140625">
        <ele>20.3999996185302734375</ele>
        <time>2021-09-27T11:48:20.000Z</time>
      </trkpt>
      <trkpt lat="39.6166970394551753997802734375" lon="-0.30804676003754138946533203125">
        <ele>20.200000762939453125</ele>
        <time>2021-09-27T11:48:22.000Z</time>
      </trkpt>
      <trkpt lat="39.6165900863707065582275390625" lon="-0.30811700038611888885498046875">
        <ele>20</ele>
        <time>2021-09-27T11:48:24.000Z</time>
      </trkpt>
      <trkpt lat="39.61647600866854190826416015625" lon="-0.30817617662250995635986328125">
        <ele>19.6000003814697265625</ele>
        <time>2021-09-27T11:48:26.000Z</time>
      </trkpt>
      <trkpt lat="39.616363607347011566162109375" lon="-0.30824289657175540924072265625">
        <ele>19.3999996185302734375</ele>
        <time>2021-09-27T11:48:28.000Z</time>
      </trkpt>
      <trkpt lat="39.61625506170094013214111328125" lon="-0.3083086945116519927978515625">
        <ele>19.200000762939453125</ele>
        <time>2021-09-27T11:48:30.000Z</time>
      </trkpt>
      <trkpt lat="39.61615783162415027618408203125" lon="-0.3083757497370243072509765625">
        <ele>19</ele>
        <time>2021-09-27T11:48:32.000Z</time>
      </trkpt>
      <trkpt lat="39.61605993099510669708251953125" lon="-0.30844171531498432159423828125">
        <ele>19</ele>
        <time>2021-09-27T11:48:34.000Z</time>
      </trkpt>
      <trkpt lat="39.61600712500512599945068359375" lon="-0.30846535228192806243896484375">
        <ele>19</ele>
        <time>2021-09-27T11:48:35.000Z</time>
      </trkpt>
      <trkpt lat="39.6159560792148113250732421875" lon="-0.3084853850305080413818359375">
        <ele>19</ele>
        <time>2021-09-27T11:48:36.000Z</time>
      </trkpt>
      <trkpt lat="39.61586547084152698516845703125" lon="-0.30852687545120716094970703125">
        <ele>19</ele>
        <time>2021-09-27T11:48:38.000Z</time>
      </trkpt>
      <trkpt lat="39.6158266626298427581787109375" lon="-0.308542214334011077880859375">
        <ele>19</ele>
        <time>2021-09-27T11:48:39.000Z</time>
      </trkpt>
      <trkpt lat="39.6157939732074737548828125" lon="-0.3085507638752460479736328125">
        <ele>19</ele>
        <time>2021-09-27T11:48:40.000Z</time>
      </trkpt>
      <trkpt lat="39.61574024520814418792724609375" lon="-0.3085671924054622650146484375">
        <ele>19</ele>
        <time>2021-09-27T11:48:42.000Z</time>
      </trkpt>
      <trkpt lat="39.61570520885288715362548828125" lon="-0.30856912024319171905517578125">
        <ele>19</ele>
        <time>2021-09-27T11:48:43.000Z</time>
      </trkpt>
      <trkpt lat="39.6156664006412029266357421875" lon="-0.308569036424160003662109375">
        <ele>19</ele>
        <time>2021-09-27T11:48:44.000Z</time>
      </trkpt>
      <trkpt lat="39.615581072866916656494140625" lon="-0.3085564635694026947021484375">
        <ele>19</ele>
        <time>2021-09-27T11:48:46.000Z</time>
      </trkpt>
      <trkpt lat="39.61549834348261356353759765625" lon="-0.3085573017597198486328125">
        <ele>18.6000003814697265625</ele>
        <time>2021-09-27T11:48:48.000Z</time>
      </trkpt>
      <trkpt lat="39.61542005650699138641357421875" lon="-0.30859124846756458282470703125">
        <ele>18.3999996185302734375</ele>
        <time>2021-09-27T11:48:50.000Z</time>
      </trkpt>
      <trkpt lat="39.61533003486692905426025390625" lon="-0.308623015880584716796875">
        <ele>18.3999996185302734375</ele>
        <time>2021-09-27T11:48:52.000Z</time>
      </trkpt>
      <trkpt lat="39.6152811683714389801025390625" lon="-0.30863709747791290283203125">
        <ele>18.3999996185302734375</ele>
        <time>2021-09-27T11:48:53.000Z</time>
      </trkpt>
      <trkpt lat="39.61523330770432949066162109375" lon="-0.3086520172655582427978515625">
        <ele>18.6000003814697265625</ele>
        <time>2021-09-27T11:48:54.000Z</time>
      </trkpt>
      <trkpt lat="39.61518712341785430908203125" lon="-0.3086714632809162139892578125">
        <ele>18.799999237060546875</ele>
        <time>2021-09-27T11:48:55.000Z</time>
      </trkpt>
      <trkpt lat="39.61514093913137912750244140625" lon="-0.3086932562291622161865234375">
        <ele>18.799999237060546875</ele>
        <time>2021-09-27T11:48:56.000Z</time>
      </trkpt>
      <trkpt lat="39.61509685032069683074951171875" lon="-0.30871890485286712646484375">
        <ele>19</ele>
        <time>2021-09-27T11:48:57.000Z</time>
      </trkpt>
      <trkpt lat="39.61505762301385402679443359375" lon="-0.3087479062378406524658203125">
        <ele>19.200000762939453125</ele>
        <time>2021-09-27T11:48:58.000Z</time>
      </trkpt>
      <trkpt lat="39.61500833742320537567138671875" lon="-0.30876525677740573883056640625">
        <ele>19.200000762939453125</ele>
        <time>2021-09-27T11:48:59.000Z</time>
      </trkpt>
      <trkpt lat="39.61495578289031982421875" lon="-0.3087826073169708251953125">
        <ele>19.3999996185302734375</ele>
        <time>2021-09-27T11:49:00.000Z</time>
      </trkpt>
      <trkpt lat="39.61485025472939014434814453125" lon="-0.30881370417773723602294921875">
        <ele>19.6000003814697265625</ele>
        <time>2021-09-27T11:49:02.000Z</time>
      </trkpt>
      <trkpt lat="39.61474321782588958740234375" lon="-0.30884790234267711639404296875">
        <ele>19.799999237060546875</ele>
        <time>2021-09-27T11:49:04.000Z</time>
      </trkpt>
      <trkpt lat="39.6146384440362453460693359375" lon="-0.30887975357472896575927734375">
        <ele>19.799999237060546875</ele>
        <time>2021-09-27T11:49:06.000Z</time>
      </trkpt>
      <trkpt lat="39.614585302770137786865234375" lon="-0.308898277580738067626953125">
        <ele>20</ele>
        <time>2021-09-27T11:49:07.000Z</time>
      </trkpt>
      <trkpt lat="39.6145331673324108123779296875" lon="-0.30891847796738147735595703125">
        <ele>20</ele>
        <time>2021-09-27T11:49:08.000Z</time>
      </trkpt>
      <trkpt lat="39.61443702690303325653076171875" lon="-0.3089621476829051971435546875">
        <ele>19.3999996185302734375</ele>
        <time>2021-09-27T11:49:10.000Z</time>
      </trkpt>
      <trkpt lat="39.6143353544175624847412109375" lon="-0.30900112353265285491943359375">
        <ele>18.6000003814697265625</ele>
        <time>2021-09-27T11:49:12.000Z</time>
      </trkpt>
      <trkpt lat="39.61428447626531124114990234375" lon="-0.30901889316737651824951171875">
        <ele>18.3999996185302734375</ele>
        <time>2021-09-27T11:49:13.000Z</time>
      </trkpt>
      <trkpt lat="39.61423351429402828216552734375" lon="-0.30903683044016361236572265625">
        <ele>18</ele>
        <time>2021-09-27T11:49:14.000Z</time>
      </trkpt>
      <trkpt lat="39.61413527838885784149169921875" lon="-0.3090741299092769622802734375">
        <ele>17.3999996185302734375</ele>
        <time>2021-09-27T11:49:16.000Z</time>
      </trkpt>
      <trkpt lat="39.6140423230826854705810546875" lon="-0.30910958535969257354736328125">
        <ele>16.799999237060546875</ele>
        <time>2021-09-27T11:49:18.000Z</time>
      </trkpt>
      <trkpt lat="39.613965041935443878173828125" lon="-0.30915367417037487030029296875">
        <ele>16.200000762939453125</ele>
        <time>2021-09-27T11:49:20.000Z</time>
      </trkpt>
      <trkpt lat="39.6138790436089038848876953125" lon="-0.30919876880943775177001953125">
        <ele>15.6000003814697265625</ele>
        <time>2021-09-27T11:49:22.000Z</time>
      </trkpt>
      <trkpt lat="39.61377938278019428253173828125" lon="-0.30922274105250835418701171875">
        <ele>15</ele>
        <time>2021-09-27T11:49:24.000Z</time>
      </trkpt>
      <trkpt lat="39.61368332616984844207763671875" lon="-0.3092488087713718414306640625">
        <ele>14.3999996185302734375</ele>
        <time>2021-09-27T11:49:26.000Z</time>
      </trkpt>
      <trkpt lat="39.61358978413045406341552734375" lon="-0.30928476713597774505615234375">
        <ele>14.6000003814697265625</ele>
        <time>2021-09-27T11:49:28.000Z</time>
      </trkpt>
      <trkpt lat="39.61350294761359691619873046875" lon="-0.3093218989670276641845703125">
        <ele>14.6000003814697265625</ele>
        <time>2021-09-27T11:49:30.000Z</time>
      </trkpt>
      <trkpt lat="39.61342281661927700042724609375" lon="-0.30936355702579021453857421875">
        <ele>14.6000003814697265625</ele>
        <time>2021-09-27T11:49:32.000Z</time>
      </trkpt>
      <trkpt lat="39.61335517466068267822265625" lon="-0.30942566692829132080078125">
        <ele>14.6000003814697265625</ele>
        <time>2021-09-27T11:49:34.000Z</time>
      </trkpt>
      <trkpt lat="39.61329474113881587982177734375" lon="-0.309482999145984649658203125">
        <ele>14.6000003814697265625</ele>
        <time>2021-09-27T11:49:36.000Z</time>
      </trkpt>
      <trkpt lat="39.6132269315421581268310546875" lon="-0.30954636633396148681640625">
        <ele>14.6000003814697265625</ele>
        <time>2021-09-27T11:49:38.000Z</time>
      </trkpt>
      <trkpt lat="39.61318527348339557647705078125" lon="-0.309572517871856689453125">
        <ele>14.6000003814697265625</ele>
        <time>2021-09-27T11:49:39.000Z</time>
      </trkpt>
      <trkpt lat="39.6131412684917449951171875" lon="-0.3095917962491512298583984375">
        <ele>14.80000019073486328125</ele>
        <time>2021-09-27T11:49:40.000Z</time>
      </trkpt>
      <trkpt lat="39.61304982192814350128173828125" lon="-0.30962808988988399505615234375">
        <ele>14.80000019073486328125</ele>
        <time>2021-09-27T11:49:42.000Z</time>
      </trkpt>
      <trkpt lat="39.6129613928496837615966796875" lon="-0.30966731719672679901123046875">
        <ele>15</ele>
        <time>2021-09-27T11:49:44.000Z</time>
      </trkpt>
      <trkpt lat="39.6128735505044460296630859375" lon="-0.3097010962665081024169921875">
        <ele>15</ele>
        <time>2021-09-27T11:49:46.000Z</time>
      </trkpt>
      <trkpt lat="39.61278897710144519805908203125" lon="-0.3097356297075748443603515625">
        <ele>15.19999980926513671875</ele>
        <time>2021-09-27T11:49:48.000Z</time>
      </trkpt>
      <trkpt lat="39.61270482279360294342041015625" lon="-0.3097688220441341400146484375">
        <ele>15.6000003814697265625</ele>
        <time>2021-09-27T11:49:50.000Z</time>
      </trkpt>
      <trkpt lat="39.61261698044836521148681640625" lon="-0.30979639850556850433349609375">
        <ele>15.80000019073486328125</ele>
        <time>2021-09-27T11:49:52.000Z</time>
      </trkpt>
      <trkpt lat="39.6125292219221591949462890625" lon="-0.3098197840154170989990234375">
        <ele>16</ele>
        <time>2021-09-27T11:49:54.000Z</time>
      </trkpt>
      <trkpt lat="39.612438865005970001220703125" lon="-0.30984903685748577117919921875">
        <ele>16.200000762939453125</ele>
        <time>2021-09-27T11:49:56.000Z</time>
      </trkpt>
      <trkpt lat="39.61234238930046558380126953125" lon="-0.30988164246082305908203125">
        <ele>16.6000003814697265625</ele>
        <time>2021-09-27T11:49:58.000Z</time>
      </trkpt>
      <trkpt lat="39.6122534573078155517578125" lon="-0.309929586946964263916015625">
        <ele>16.799999237060546875</ele>
        <time>2021-09-27T11:50:00.000Z</time>
      </trkpt>
      <trkpt lat="39.61220744065940380096435546875" lon="-0.30995406210422515869140625">
        <ele>17</ele>
        <time>2021-09-27T11:50:01.000Z</time>
      </trkpt>
      <trkpt lat="39.61216201074421405792236328125" lon="-0.3099761903285980224609375">
        <ele>17</ele>
        <time>2021-09-27T11:50:02.000Z</time>
      </trkpt>
      <trkpt lat="39.6120702289044857025146484375" lon="-0.3100155852735042572021484375">
        <ele>17.3999996185302734375</ele>
        <time>2021-09-27T11:50:04.000Z</time>
      </trkpt>
      <trkpt lat="39.61197978816926479339599609375" lon="-0.3100558184087276458740234375">
        <ele>17.3999996185302734375</ele>
        <time>2021-09-27T11:50:06.000Z</time>
      </trkpt>
      <trkpt lat="39.61188775487244129180908203125" lon="-0.3100977279245853424072265625">
        <ele>17.3999996185302734375</ele>
        <time>2021-09-27T11:50:08.000Z</time>
      </trkpt>
      <trkpt lat="39.61179220117628574371337890625" lon="-0.310137458145618438720703125">
        <ele>17.3999996185302734375</ele>
        <time>2021-09-27T11:50:10.000Z</time>
      </trkpt>
      <trkpt lat="39.611695893108844757080078125" lon="-0.31017727218568325042724609375">
        <ele>17.200000762939453125</ele>
        <time>2021-09-27T11:50:12.000Z</time>
      </trkpt>
      <trkpt lat="39.61160025559365749359130859375" lon="-0.310217924416065216064453125">
        <ele>17.200000762939453125</ele>
        <time>2021-09-27T11:50:14.000Z</time>
      </trkpt>
      <trkpt lat="39.61150252260267734527587890625" lon="-0.310256481170654296875">
        <ele>17.200000762939453125</ele>
        <time>2021-09-27T11:50:16.000Z</time>
      </trkpt>
      <trkpt lat="39.6114053763449192047119140625" lon="-0.3102948702871799468994140625">
        <ele>17</ele>
        <time>2021-09-27T11:50:18.000Z</time>
      </trkpt>
      <trkpt lat="39.6113088168203830718994140625" lon="-0.3103340975940227508544921875">
        <ele>17</ele>
        <time>2021-09-27T11:50:20.000Z</time>
      </trkpt>
      <trkpt lat="39.61121217347681522369384765625" lon="-0.31037458218634128570556640625">
        <ele>17.200000762939453125</ele>
        <time>2021-09-27T11:50:22.000Z</time>
      </trkpt>
      <trkpt lat="39.6111180447041988372802734375" lon="-0.31041649170219898223876953125">
        <ele>17.200000762939453125</ele>
        <time>2021-09-27T11:50:24.000Z</time>
      </trkpt>
      <trkpt lat="39.61106934584677219390869140625" lon="-0.31043711118400096893310546875">
        <ele>17</ele>
        <time>2021-09-27T11:50:25.000Z</time>
      </trkpt>
      <trkpt lat="39.61102123372256755828857421875" lon="-0.31045773066580295562744140625">
        <ele>17</ele>
        <time>2021-09-27T11:50:26.000Z</time>
      </trkpt>
      <trkpt lat="39.61092215962707996368408203125" lon="-0.31049997545778751373291015625">
        <ele>17</ele>
        <time>2021-09-27T11:50:28.000Z</time>
      </trkpt>
      <trkpt lat="39.61082073859870433807373046875" lon="-0.3105386160314083099365234375">
        <ele>17.200000762939453125</ele>
        <time>2021-09-27T11:50:30.000Z</time>
      </trkpt>
      <trkpt lat="39.610720239579677581787109375" lon="-0.310580693185329437255859375">
        <ele>17.200000762939453125</ele>
        <time>2021-09-27T11:50:32.000Z</time>
      </trkpt>
      <trkpt lat="39.610622338950634002685546875" lon="-0.3106244467198848724365234375">
        <ele>17.3999996185302734375</ele>
        <time>2021-09-27T11:50:34.000Z</time>
      </trkpt>
      <trkpt lat="39.61057372391223907470703125" lon="-0.31064808368682861328125">
        <ele>17.3999996185302734375</ele>
        <time>2021-09-27T11:50:35.000Z</time>
      </trkpt>
      <trkpt lat="39.610525779426097869873046875" lon="-0.31067012809216976165771484375">
        <ele>17.3999996185302734375</ele>
        <time>2021-09-27T11:50:36.000Z</time>
      </trkpt>
      <trkpt lat="39.61042846553027629852294921875" lon="-0.31071119941771030426025390625">
        <ele>17.6000003814697265625</ele>
        <time>2021-09-27T11:50:38.000Z</time>
      </trkpt>
      <trkpt lat="39.61033442057669162750244140625" lon="-0.31074791215360164642333984375">
        <ele>17.6000003814697265625</ele>
        <time>2021-09-27T11:50:40.000Z</time>
      </trkpt>
      <trkpt lat="39.6102391183376312255859375" lon="-0.31078563071787357330322265625">
        <ele>17.799999237060546875</ele>
        <time>2021-09-27T11:50:42.000Z</time>
      </trkpt>
      <trkpt lat="39.61014163680374622344970703125" lon="-0.3108264505863189697265625">
        <ele>18.200000762939453125</ele>
        <time>2021-09-27T11:50:44.000Z</time>
      </trkpt>
      <trkpt lat="39.6100438199937343597412109375" lon="-0.310867018997669219970703125">
        <ele>18.3999996185302734375</ele>
        <time>2021-09-27T11:50:46.000Z</time>
      </trkpt>
      <trkpt lat="39.609945751726627349853515625" lon="-0.3109101019799709320068359375">
        <ele>18.6000003814697265625</ele>
        <time>2021-09-27T11:50:48.000Z</time>
      </trkpt>
      <trkpt lat="39.609848521649837493896484375" lon="-0.3109553642570972442626953125">
        <ele>18.799999237060546875</ele>
        <time>2021-09-27T11:50:50.000Z</time>
      </trkpt>
      <trkpt lat="39.6097992360591888427734375" lon="-0.31097522936761379241943359375">
        <ele>18.799999237060546875</ele>
        <time>2021-09-27T11:50:51.000Z</time>
      </trkpt>
      <trkpt lat="39.60975104011595249176025390625" lon="-0.31099517829716205596923828125">
        <ele>18.799999237060546875</ele>
        <time>2021-09-27T11:50:52.000Z</time>
      </trkpt>
      <trkpt lat="39.60965531878173351287841796875" lon="-0.31103725545108318328857421875">
        <ele>19</ele>
        <time>2021-09-27T11:50:54.000Z</time>
      </trkpt>
      <trkpt lat="39.60956211201846599578857421875" lon="-0.31107614748179912567138671875">
        <ele>19.200000762939453125</ele>
        <time>2021-09-27T11:50:56.000Z</time>
      </trkpt>
      <trkpt lat="39.60947292856872081756591796875" lon="-0.31111202202737331390380859375">
        <ele>19.200000762939453125</ele>
        <time>2021-09-27T11:50:58.000Z</time>
      </trkpt>
      <trkpt lat="39.609390199184417724609375" lon="-0.311145298182964324951171875">
        <ele>19.200000762939453125</ele>
        <time>2021-09-27T11:51:00.000Z</time>
      </trkpt>
      <trkpt lat="39.60930428467690944671630859375" lon="-0.31118209473788738250732421875">
        <ele>19.3999996185302734375</ele>
        <time>2021-09-27T11:51:02.000Z</time>
      </trkpt>
      <trkpt lat="39.609218537807464599609375" lon="-0.31121495179831981658935546875">
        <ele>19.3999996185302734375</ele>
        <time>2021-09-27T11:51:04.000Z</time>
      </trkpt>
      <trkpt lat="39.60917118005454540252685546875" lon="-0.31123288907110691070556640625">
        <ele>19.3999996185302734375</ele>
        <time>2021-09-27T11:51:05.000Z</time>
      </trkpt>
      <trkpt lat="39.60912373848259449005126953125" lon="-0.31125518493354320526123046875">
        <ele>19.3999996185302734375</ele>
        <time>2021-09-27T11:51:06.000Z</time>
      </trkpt>
      <trkpt lat="39.60902952589094638824462890625" lon="-0.31129726208746433258056640625">
        <ele>19.3999996185302734375</ele>
        <time>2021-09-27T11:51:08.000Z</time>
      </trkpt>
      <trkpt lat="39.6089340560138225555419921875" lon="-0.3113362379372119903564453125">
        <ele>19.3999996185302734375</ele>
        <time>2021-09-27T11:51:10.000Z</time>
      </trkpt>
      <trkpt lat="39.60888686589896678924560546875" lon="-0.31135844998061656951904296875">
        <ele>19.3999996185302734375</ele>
        <time>2021-09-27T11:51:11.000Z</time>
      </trkpt>
      <trkpt lat="39.60883967578411102294921875" lon="-0.31137974001467227935791015625">
        <ele>19.200000762939453125</ele>
        <time>2021-09-27T11:51:12.000Z</time>
      </trkpt>
      <trkpt lat="39.60874672047793865203857421875" lon="-0.31142164953052997589111328125">
        <ele>19.200000762939453125</ele>
        <time>2021-09-27T11:51:14.000Z</time>
      </trkpt>
      <trkpt lat="39.60865016095340251922607421875" lon="-0.311460793018341064453125">
        <ele>19.200000762939453125</ele>
        <time>2021-09-27T11:51:16.000Z</time>
      </trkpt>
      <trkpt lat="39.608553349971771240234375" lon="-0.311498343944549560546875">
        <ele>19</ele>
        <time>2021-09-27T11:51:18.000Z</time>
      </trkpt>
      <trkpt lat="39.6084559522569179534912109375" lon="-0.3115380741655826568603515625">
        <ele>19</ele>
        <time>2021-09-27T11:51:20.000Z</time>
      </trkpt>
      <trkpt lat="39.60840557701885700225830078125" lon="-0.31155978329479694366455078125">
        <ele>19</ele>
        <time>2021-09-27T11:51:21.000Z</time>
      </trkpt>
      <trkpt lat="39.6083567105233669281005859375" lon="-0.31158149242401123046875">
        <ele>19</ele>
        <time>2021-09-27T11:51:22.000Z</time>
      </trkpt>
      <trkpt lat="39.6082588098943233489990234375" lon="-0.31162583269178867340087890625">
        <ele>19</ele>
        <time>2021-09-27T11:51:24.000Z</time>
      </trkpt>
      <trkpt lat="39.6081577241420745849609375" lon="-0.311669670045375823974609375">
        <ele>19</ele>
        <time>2021-09-27T11:51:26.000Z</time>
      </trkpt>
      <trkpt lat="39.608059823513031005859375" lon="-0.3117097355425357818603515625">
        <ele>19</ele>
        <time>2021-09-27T11:51:28.000Z</time>
      </trkpt>
      <trkpt lat="39.60801229812204837799072265625" lon="-0.3117321990430355072021484375">
        <ele>19</ele>
        <time>2021-09-27T11:51:29.000Z</time>
      </trkpt>
      <trkpt lat="39.6079634316265583038330078125" lon="-0.31175248324871063232421875">
        <ele>19</ele>
        <time>2021-09-27T11:51:30.000Z</time>
      </trkpt>
      <trkpt lat="39.60786511190235614776611328125" lon="-0.3117922134697437286376953125">
        <ele>19</ele>
        <time>2021-09-27T11:51:32.000Z</time>
      </trkpt>
      <trkpt lat="39.60776536725461483001708984375" lon="-0.3118371404707431793212890625">
        <ele>19.200000762939453125</ele>
        <time>2021-09-27T11:51:34.000Z</time>
      </trkpt>
      <trkpt lat="39.6076677180826663970947265625" lon="-0.31187896616756916046142578125">
        <ele>19.200000762939453125</ele>
        <time>2021-09-27T11:51:36.000Z</time>
      </trkpt>
      <trkpt lat="39.60756487213075160980224609375" lon="-0.31191618181765079498291015625">
        <ele>19.3999996185302734375</ele>
        <time>2021-09-27T11:51:38.000Z</time>
      </trkpt>
      <trkpt lat="39.6074628643691539764404296875" lon="-0.31195901334285736083984375">
        <ele>19.3999996185302734375</ele>
        <time>2021-09-27T11:51:40.000Z</time>
      </trkpt>
      <trkpt lat="39.60736152715981006622314453125" lon="-0.3120024316012859344482421875">
        <ele>19.6000003814697265625</ele>
        <time>2021-09-27T11:51:42.000Z</time>
      </trkpt>
      <trkpt lat="39.6072573401033878326416015625" lon="-0.3120414912700653076171875">
        <ele>19.799999237060546875</ele>
        <time>2021-09-27T11:51:44.000Z</time>
      </trkpt>
      <trkpt lat="39.6071560867130756378173828125" lon="-0.31208398751914501190185546875">
        <ele>19.799999237060546875</ele>
        <time>2021-09-27T11:51:46.000Z</time>
      </trkpt>
      <trkpt lat="39.6070538274943828582763671875" lon="-0.3121227957308292388916015625">
        <ele>20</ele>
        <time>2021-09-27T11:51:48.000Z</time>
      </trkpt>
      <trkpt lat="39.6069539152085781097412109375" lon="-0.3121606819331645965576171875">
        <ele>20.200000762939453125</ele>
        <time>2021-09-27T11:51:50.000Z</time>
      </trkpt>
      <trkpt lat="39.6068560145795345306396484375" lon="-0.31220066361129283905029296875">
        <ele>20.200000762939453125</ele>
        <time>2021-09-27T11:51:52.000Z</time>
      </trkpt>
      <trkpt lat="39.60680748336017131805419921875" lon="-0.312218181788921356201171875">
        <ele>20.3999996185302734375</ele>
        <time>2021-09-27T11:51:53.000Z</time>
      </trkpt>
      <trkpt lat="39.60675903595983982086181640625" lon="-0.31223528087139129638671875">
        <ele>20.3999996185302734375</ele>
        <time>2021-09-27T11:51:54.000Z</time>
      </trkpt>
      <trkpt lat="39.60666666738688945770263671875" lon="-0.3122719936072826385498046875">
        <ele>20.6000003814697265625</ele>
        <time>2021-09-27T11:51:56.000Z</time>
      </trkpt>
      <trkpt lat="39.60657144896686077117919921875" lon="-0.3123108856379985809326171875">
        <ele>20.799999237060546875</ele>
        <time>2021-09-27T11:51:58.000Z</time>
      </trkpt>
      <trkpt lat="39.606477320194244384765625" lon="-0.3123470954596996307373046875">
        <ele>21</ele>
        <time>2021-09-27T11:52:00.000Z</time>
      </trkpt>
      <trkpt lat="39.6063802577555179595947265625" lon="-0.3123853169381618499755859375">
        <ele>21</ele>
        <time>2021-09-27T11:52:02.000Z</time>
      </trkpt>
      <trkpt lat="39.606279842555522918701171875" lon="-0.31242378987371921539306640625">
        <ele>21.200000762939453125</ele>
        <time>2021-09-27T11:52:04.000Z</time>
      </trkpt>
      <trkpt lat="39.606180600821971893310546875" lon="-0.312464945018291473388671875">
        <ele>21.3999996185302734375</ele>
        <time>2021-09-27T11:52:06.000Z</time>
      </trkpt>
      <trkpt lat="39.60608563385903835296630859375" lon="-0.312506854534149169921875">
        <ele>21</ele>
        <time>2021-09-27T11:52:08.000Z</time>
      </trkpt>
      <trkpt lat="39.60598790086805820465087890625" lon="-0.3125457465648651123046875">
        <ele>20.6000003814697265625</ele>
        <time>2021-09-27T11:52:10.000Z</time>
      </trkpt>
      <trkpt lat="39.60589301772415637969970703125" lon="-0.31259067356586456298828125">
        <ele>20.200000762939453125</ele>
        <time>2021-09-27T11:52:12.000Z</time>
      </trkpt>
      <trkpt lat="39.6057978831231594085693359375" lon="-0.312632583081722259521484375">
        <ele>19.799999237060546875</ele>
        <time>2021-09-27T11:52:14.000Z</time>
      </trkpt>
      <trkpt lat="39.605701155960559844970703125" lon="-0.3126736544072628021240234375">
        <ele>19.3999996185302734375</ele>
        <time>2021-09-27T11:52:16.000Z</time>
      </trkpt>
      <trkpt lat="39.60560333915054798126220703125" lon="-0.31271497718989849090576171875">
        <ele>19</ele>
        <time>2021-09-27T11:52:18.000Z</time>
      </trkpt>
      <trkpt lat="39.60555338300764560699462890625" lon="-0.31273559667170047760009765625">
        <ele>18.799999237060546875</ele>
        <time>2021-09-27T11:52:19.000Z</time>
      </trkpt>
      <trkpt lat="39.605503343045711517333984375" lon="-0.312754623591899871826171875">
        <ele>18.6000003814697265625</ele>
        <time>2021-09-27T11:52:20.000Z</time>
      </trkpt>
      <trkpt lat="39.605402760207653045654296875" lon="-0.3127977065742015838623046875">
        <ele>18.200000762939453125</ele>
        <time>2021-09-27T11:52:22.000Z</time>
      </trkpt>
      <trkpt lat="39.60530460812151432037353515625" lon="-0.31283869408071041107177734375">
        <ele>18</ele>
        <time>2021-09-27T11:52:24.000Z</time>
      </trkpt>
      <trkpt lat="39.60520662367343902587890625" lon="-0.3128783404827117919921875">
        <ele>18</ele>
        <time>2021-09-27T11:52:26.000Z</time>
      </trkpt>
      <trkpt lat="39.605157673358917236328125" lon="-0.31289971433579921722412109375">
        <ele>18</ele>
        <time>2021-09-27T11:52:27.000Z</time>
      </trkpt>
      <trkpt lat="39.60510914213955402374267578125" lon="-0.312920920550823211669921875">
        <ele>18</ele>
        <time>2021-09-27T11:52:28.000Z</time>
      </trkpt>
      <trkpt lat="39.6050109900534152984619140625" lon="-0.31296391971409320831298828125">
        <ele>18</ele>
        <time>2021-09-27T11:52:30.000Z</time>
      </trkpt>
      <trkpt lat="39.60490730591118335723876953125" lon="-0.313005745410919189453125">
        <ele>18</ele>
        <time>2021-09-27T11:52:32.000Z</time>
      </trkpt>
      <trkpt lat="39.60480303503572940826416015625" lon="-0.31305134296417236328125">
        <ele>18.200000762939453125</ele>
        <time>2021-09-27T11:52:34.000Z</time>
      </trkpt>
      <trkpt lat="39.604699350893497467041015625" lon="-0.31309601850807666778564453125">
        <ele>18.3999996185302734375</ele>
        <time>2021-09-27T11:52:36.000Z</time>
      </trkpt>
      <trkpt lat="39.6045972593128681182861328125" lon="-0.31313541345298290252685546875">
        <ele>18.3999996185302734375</ele>
        <time>2021-09-27T11:52:38.000Z</time>
      </trkpt>
      <trkpt lat="39.60449743084609508514404296875" lon="-0.31317807734012603759765625">
        <ele>18.3999996185302734375</ele>
        <time>2021-09-27T11:52:40.000Z</time>
      </trkpt>
      <trkpt lat="39.60440053604543209075927734375" lon="-0.31321923248469829559326171875">
        <ele>18.200000762939453125</ele>
        <time>2021-09-27T11:52:42.000Z</time>
      </trkpt>
      <trkpt lat="39.60430162958800792694091796875" lon="-0.31326315365731716156005859375">
        <ele>18</ele>
        <time>2021-09-27T11:52:44.000Z</time>
      </trkpt>
      <trkpt lat="39.60419802926480770111083984375" lon="-0.31330388970673084259033203125">
        <ele>17.6000003814697265625</ele>
        <time>2021-09-27T11:52:46.000Z</time>
      </trkpt>
      <trkpt lat="39.604095853865146636962890625" lon="-0.3133458830416202545166015625">
        <ele>17.3999996185302734375</ele>
        <time>2021-09-27T11:52:48.000Z</time>
      </trkpt>
      <trkpt lat="39.60398999042809009552001953125" lon="-0.31338988803327083587646484375">
        <ele>17.3999996185302734375</ele>
        <time>2021-09-27T11:52:50.000Z</time>
      </trkpt>
      <trkpt lat="39.6038858033716678619384765625" lon="-0.3134354017674922943115234375">
        <ele>17.200000762939453125</ele>
        <time>2021-09-27T11:52:52.000Z</time>
      </trkpt>
      <trkpt lat="39.60377993993461132049560546875" lon="-0.31347840093076229095458984375">
        <ele>17.200000762939453125</ele>
        <time>2021-09-27T11:52:54.000Z</time>
      </trkpt>
      <trkpt lat="39.6036739088594913482666015625" lon="-0.3135219030082225799560546875">
        <ele>17</ele>
        <time>2021-09-27T11:52:56.000Z</time>
      </trkpt>
      <trkpt lat="39.60356771014630794525146484375" lon="-0.31356565654277801513671875">
        <ele>17</ele>
        <time>2021-09-27T11:52:58.000Z</time>
      </trkpt>
      <trkpt lat="39.6034603379666805267333984375" lon="-0.3136077336966991424560546875">
        <ele>17</ele>
        <time>2021-09-27T11:53:00.000Z</time>
      </trkpt>
      <trkpt lat="39.60335858166217803955078125" lon="-0.3136508166790008544921875">
        <ele>17</ele>
        <time>2021-09-27T11:53:02.000Z</time>
      </trkpt>
      <trkpt lat="39.603267721831798553466796875" lon="-0.31369037926197052001953125">
        <ele>17</ele>
        <time>2021-09-27T11:53:04.000Z</time>
      </trkpt>
      <trkpt lat="39.603236205875873565673828125" lon="-0.31370203010737895965576171875">
        <ele>17</ele>
        <time>2021-09-27T11:53:05.000Z</time>
      </trkpt>
      <trkpt lat="39.6032078750431537628173828125" lon="-0.31371242366731166839599609375">
        <ele>17</ele>
        <time>2021-09-27T11:53:06.000Z</time>
      </trkpt>
      <trkpt lat="39.60314693860709667205810546875" lon="-0.31374393962323665618896484375">
        <ele>17</ele>
        <time>2021-09-27T11:53:08.000Z</time>
      </trkpt>
      <trkpt lat="39.60306865163147449493408203125" lon="-0.31377864070236682891845703125">
        <ele>17</ele>
        <time>2021-09-27T11:53:10.000Z</time>
      </trkpt>
      <trkpt lat="39.6029959805309772491455078125" lon="-0.31381451524794101715087890625">
        <ele>17</ele>
        <time>2021-09-27T11:53:12.000Z</time>
      </trkpt>
      <trkpt lat="39.602946527302265167236328125" lon="-0.3138353861868381500244140625">
        <ele>17</ele>
        <time>2021-09-27T11:53:14.000Z</time>
      </trkpt>
      <trkpt lat="39.60293604992330074310302734375" lon="-0.3138414211571216583251953125">
        <ele>17</ele>
        <time>2021-09-27T11:53:15.000Z</time>
      </trkpt>
      <trkpt lat="39.60292967967689037322998046875" lon="-0.313845612108707427978515625">
        <ele>17.200000762939453125</ele>
        <time>2021-09-27T11:53:16.000Z</time>
      </trkpt>
      <trkpt lat="39.602926075458526611328125" lon="-0.313847959041595458984375">
        <ele>17.200000762939453125</ele>
        <time>2021-09-27T11:53:18.000Z</time>
      </trkpt>
      <trkpt lat="39.6028967387974262237548828125" lon="-0.31385793350636959075927734375">
        <ele>17.200000762939453125</ele>
        <time>2021-09-27T11:56:31.000Z</time>
      </trkpt>
      <trkpt lat="39.60287687368690967559814453125" lon="-0.3138638846576213836669921875">
        <ele>17.200000762939453125</ele>
        <time>2021-09-27T11:56:32.000Z</time>
      </trkpt>
      <trkpt lat="39.602825827896595001220703125" lon="-0.313889868557453155517578125">
        <ele>17.200000762939453125</ele>
        <time>2021-09-27T11:56:34.000Z</time>
      </trkpt>
      <trkpt lat="39.6027549169957637786865234375" lon="-0.31391593627631664276123046875">
        <ele>17.200000762939453125</ele>
        <time>2021-09-27T11:56:36.000Z</time>
      </trkpt>
      <trkpt lat="39.60268509574234485626220703125" lon="-0.3139443509280681610107421875">
        <ele>17.200000762939453125</ele>
        <time>2021-09-27T11:56:38.000Z</time>
      </trkpt>
      <trkpt lat="39.60264586843550205230712890625" lon="-0.31395994126796722412109375">
        <ele>17.200000762939453125</ele>
        <time>2021-09-27T11:56:39.000Z</time>
      </trkpt>
      <trkpt lat="39.6026043780148029327392578125" lon="-0.31397645361721515655517578125">
        <ele>17.200000762939453125</ele>
        <time>2021-09-27T11:56:40.000Z</time>
      </trkpt>
      <trkpt lat="39.60256087593734264373779296875" lon="-0.31399372033774852752685546875">
        <ele>17.200000762939453125</ele>
        <time>2021-09-27T11:56:41.000Z</time>
      </trkpt>
      <trkpt lat="39.60251695476472377777099609375" lon="-0.314012579619884490966796875">
        <ele>17.200000762939453125</ele>
        <time>2021-09-27T11:56:42.000Z</time>
      </trkpt>
      <trkpt lat="39.6024714410305023193359375" lon="-0.314029343426227569580078125">
        <ele>17.200000762939453125</ele>
        <time>2021-09-27T11:56:43.000Z</time>
      </trkpt>
      <trkpt lat="39.6024239994585514068603515625" lon="-0.31404769979417324066162109375">
        <ele>17.200000762939453125</ele>
        <time>2021-09-27T11:56:44.000Z</time>
      </trkpt>
      <trkpt lat="39.6023311279714107513427734375" lon="-0.3140908665955066680908203125">
        <ele>17.3999996185302734375</ele>
        <time>2021-09-27T11:56:46.000Z</time>
      </trkpt>
      <trkpt lat="39.60228427313268184661865234375" lon="-0.31410603784024715423583984375">
        <ele>17.3999996185302734375</ele>
        <time>2021-09-27T11:56:47.000Z</time>
      </trkpt>
      <trkpt lat="39.6022349037230014801025390625" lon="-0.3141180239617824554443359375">
        <ele>17.3999996185302734375</ele>
        <time>2021-09-27T11:56:48.000Z</time>
      </trkpt>
      <trkpt lat="39.602187462151050567626953125" lon="-0.3141337819397449493408203125">
        <ele>17.3999996185302734375</ele>
        <time>2021-09-27T11:56:49.000Z</time>
      </trkpt>
      <trkpt lat="39.60213943384587764739990234375" lon="-0.3141497075557708740234375">
        <ele>17.3999996185302734375</ele>
        <time>2021-09-27T11:56:50.000Z</time>
      </trkpt>
      <trkpt lat="39.60204455070197582244873046875" lon="-0.314190275967121124267578125">
        <ele>17.3999996185302734375</ele>
        <time>2021-09-27T11:56:52.000Z</time>
      </trkpt>
      <trkpt lat="39.60195218212902545928955078125" lon="-0.31423159874975681304931640625">
        <ele>17.3999996185302734375</ele>
        <time>2021-09-27T11:56:54.000Z</time>
      </trkpt>
      <trkpt lat="39.60186350159347057342529296875" lon="-0.3142725862562656402587890625">
        <ele>17.3999996185302734375</ele>
        <time>2021-09-27T11:56:56.000Z</time>
      </trkpt>
      <trkpt lat="39.60177700035274028778076171875" lon="-0.314314328134059906005859375">
        <ele>17.3999996185302734375</ele>
        <time>2021-09-27T11:56:58.000Z</time>
      </trkpt>
      <trkpt lat="39.6016909182071685791015625" lon="-0.31435145996510982513427734375">
        <ele>17.200000762939453125</ele>
        <time>2021-09-27T11:57:00.000Z</time>
      </trkpt>
      <trkpt lat="39.60161020047962665557861328125" lon="-0.314388088881969451904296875">
        <ele>17.200000762939453125</ele>
        <time>2021-09-27T11:57:02.000Z</time>
      </trkpt>
      <trkpt lat="39.6015294827520847320556640625" lon="-0.314420945942401885986328125">
        <ele>17.200000762939453125</ele>
        <time>2021-09-27T11:57:04.000Z</time>
      </trkpt>
      <trkpt lat="39.601488746702671051025390625" lon="-0.314439721405506134033203125">
        <ele>17.200000762939453125</ele>
        <time>2021-09-27T11:57:05.000Z</time>
      </trkpt>
      <trkpt lat="39.60144658572971820831298828125" lon="-0.3144589997828006744384765625">
        <ele>17.200000762939453125</ele>
        <time>2021-09-27T11:57:06.000Z</time>
      </trkpt>
      <trkpt lat="39.601350612938404083251953125" lon="-0.314503423869609832763671875">
        <ele>17</ele>
        <time>2021-09-27T11:57:08.000Z</time>
      </trkpt>
      <trkpt lat="39.60125145502388477325439453125" lon="-0.314540974795818328857421875">
        <ele>17</ele>
        <time>2021-09-27T11:57:10.000Z</time>
      </trkpt>
      <trkpt lat="39.60115053690969944000244140625" lon="-0.31458330340683460235595703125">
        <ele>17</ele>
        <time>2021-09-27T11:57:12.000Z</time>
      </trkpt>
      <trkpt lat="39.6010460145771503448486328125" lon="-0.31462873332202434539794921875">
        <ele>16.799999237060546875</ele>
        <time>2021-09-27T11:57:14.000Z</time>
      </trkpt>
      <trkpt lat="39.60094383917748928070068359375" lon="-0.31466913409531116485595703125">
        <ele>16.799999237060546875</ele>
        <time>2021-09-27T11:57:16.000Z</time>
      </trkpt>
      <trkpt lat="39.600839652121067047119140625" lon="-0.31471506692469120025634765625">
        <ele>16.799999237060546875</ele>
        <time>2021-09-27T11:57:18.000Z</time>
      </trkpt>
      <trkpt lat="39.6007360517978668212890625" lon="-0.3147614188492298126220703125">
        <ele>16.799999237060546875</ele>
        <time>2021-09-27T11:57:20.000Z</time>
      </trkpt>
      <trkpt lat="39.6006832458078861236572265625" lon="-0.31478480435907840728759765625">
        <ele>16.799999237060546875</ele>
        <time>2021-09-27T11:57:21.000Z</time>
      </trkpt>
      <trkpt lat="39.60063354112207889556884765625" lon="-0.31480810604989528656005859375">
        <ele>16.799999237060546875</ele>
        <time>2021-09-27T11:57:22.000Z</time>
      </trkpt>
      <trkpt lat="39.6005293540656566619873046875" lon="-0.31485051847994327545166015625">
        <ele>16.799999237060546875</ele>
        <time>2021-09-27T11:57:24.000Z</time>
      </trkpt>
      <trkpt lat="39.60042416118085384368896484375" lon="-0.31489661894738674163818359375">
        <ele>16.799999237060546875</ele>
        <time>2021-09-27T11:57:26.000Z</time>
      </trkpt>
      <trkpt lat="39.60031871683895587921142578125" lon="-0.31494121067225933074951171875">
        <ele>16.6000003814697265625</ele>
        <time>2021-09-27T11:57:28.000Z</time>
      </trkpt>
      <trkpt lat="39.6002141945064067840576171875" lon="-0.314984880387783050537109375">
        <ele>16.6000003814697265625</ele>
        <time>2021-09-27T11:57:30.000Z</time>
      </trkpt>
      <trkpt lat="39.60016214288771152496337890625" lon="-0.315007008612155914306640625">
        <ele>16.6000003814697265625</ele>
        <time>2021-09-27T11:57:31.000Z</time>
      </trkpt>
      <trkpt lat="39.60011067800223827362060546875" lon="-0.31502804718911647796630859375">
        <ele>16.6000003814697265625</ele>
        <time>2021-09-27T11:57:32.000Z</time>
      </trkpt>
      <trkpt lat="39.60000514984130859375" lon="-0.315072052180767059326171875">
        <ele>16.6000003814697265625</ele>
        <time>2021-09-27T11:57:34.000Z</time>
      </trkpt>
      <trkpt lat="39.59989853203296661376953125" lon="-0.3151158057153224945068359375">
        <ele>16.6000003814697265625</ele>
        <time>2021-09-27T11:57:36.000Z</time>
      </trkpt>
      <trkpt lat="39.5997930876910686492919921875" lon="-0.3151620738208293914794921875">
        <ele>16.6000003814697265625</ele>
        <time>2021-09-27T11:57:38.000Z</time>
      </trkpt>
      <trkpt lat="39.5996861346065998077392578125" lon="-0.3152039833366870880126953125">
        <ele>16.799999237060546875</ele>
        <time>2021-09-27T11:57:40.000Z</time>
      </trkpt>
      <trkpt lat="39.599580354988574981689453125" lon="-0.31524966470897197723388671875">
        <ele>17</ele>
        <time>2021-09-27T11:57:42.000Z</time>
      </trkpt>
      <trkpt lat="39.59947449155151844024658203125" lon="-0.315296016633510589599609375">
        <ele>17</ele>
        <time>2021-09-27T11:57:44.000Z</time>
      </trkpt>
      <trkpt lat="39.59937072359025478363037109375" lon="-0.31533851288259029388427734375">
        <ele>17</ele>
        <time>2021-09-27T11:57:46.000Z</time>
      </trkpt>
      <trkpt lat="39.5992693863809108734130859375" lon="-0.3153800033032894134521484375">
        <ele>17</ele>
        <time>2021-09-27T11:57:48.000Z</time>
      </trkpt>
      <trkpt lat="39.5991688035428524017333984375" lon="-0.3154212422668933868408203125">
        <ele>17</ele>
        <time>2021-09-27T11:57:50.000Z</time>
      </trkpt>
      <trkpt lat="39.5990730822086334228515625" lon="-0.315466336905956268310546875">
        <ele>17</ele>
        <time>2021-09-27T11:57:52.000Z</time>
      </trkpt>
      <trkpt lat="39.598972164094448089599609375" lon="-0.31551067717373371124267578125">
        <ele>17.200000762939453125</ele>
        <time>2021-09-27T11:57:54.000Z</time>
      </trkpt>
      <trkpt lat="39.5988710783421993255615234375" lon="-0.31555392779409885406494140625">
        <ele>17.200000762939453125</ele>
        <time>2021-09-27T11:57:56.000Z</time>
      </trkpt>
      <trkpt lat="39.598770327866077423095703125" lon="-0.3155949153006076812744140625">
        <ele>17.3999996185302734375</ele>
        <time>2021-09-27T11:57:58.000Z</time>
      </trkpt>
      <trkpt lat="39.59867435507476329803466796875" lon="-0.31563472934067249298095703125">
        <ele>17.3999996185302734375</ele>
        <time>2021-09-27T11:58:00.000Z</time>
      </trkpt>
      <trkpt lat="39.59862724877893924713134765625" lon="-0.31565652228891849517822265625">
        <ele>17.3999996185302734375</ele>
        <time>2021-09-27T11:58:01.000Z</time>
      </trkpt>
      <trkpt lat="39.59857863374054431915283203125" lon="-0.3156770579516887664794921875">
        <ele>17.3999996185302734375</ele>
        <time>2021-09-27T11:58:02.000Z</time>
      </trkpt>
      <trkpt lat="39.5984764583408832550048828125" lon="-0.31571469269692897796630859375">
        <ele>17.3999996185302734375</ele>
        <time>2021-09-27T11:58:04.000Z</time>
      </trkpt>
      <trkpt lat="39.5983748696744441986083984375" lon="-0.31575727276504039764404296875">
        <ele>17.3999996185302734375</ele>
        <time>2021-09-27T11:58:06.000Z</time>
      </trkpt>
      <trkpt lat="39.5982732810080051422119140625" lon="-0.315800271928310394287109375">
        <ele>17.3999996185302734375</ele>
        <time>2021-09-27T11:58:08.000Z</time>
      </trkpt>
      <trkpt lat="39.5981693454086780548095703125" lon="-0.3158423490822315216064453125">
        <ele>17.200000762939453125</ele>
        <time>2021-09-27T11:58:10.000Z</time>
      </trkpt>
      <trkpt lat="39.5980674214661121368408203125" lon="-0.31588576734066009521484375">
        <ele>17.200000762939453125</ele>
        <time>2021-09-27T11:58:12.000Z</time>
      </trkpt>
      <trkpt lat="39.59796356968581676483154296875" lon="-0.31593077816069126129150390625">
        <ele>17.200000762939453125</ele>
        <time>2021-09-27T11:58:14.000Z</time>
      </trkpt>
      <trkpt lat="39.59786080755293369293212890625" lon="-0.31597025692462921142578125">
        <ele>17.200000762939453125</ele>
        <time>2021-09-27T11:58:16.000Z</time>
      </trkpt>
      <trkpt lat="39.59781353361904621124267578125" lon="-0.31599582172930240631103515625">
        <ele>17</ele>
        <time>2021-09-27T11:58:17.000Z</time>
      </trkpt>
      <trkpt lat="39.597766511142253875732421875" lon="-0.31602121889591217041015625">
        <ele>16.799999237060546875</ele>
        <time>2021-09-27T11:58:18.000Z</time>
      </trkpt>
      <trkpt lat="39.5976702868938446044921875" lon="-0.316065140068531036376953125">
        <ele>16.200000762939453125</ele>
        <time>2021-09-27T11:58:20.000Z</time>
      </trkpt>
      <trkpt lat="39.59758118726313114166259765625" lon="-0.3161038644611835479736328125">
        <ele>15.6000003814697265625</ele>
        <time>2021-09-27T11:58:22.000Z</time>
      </trkpt>
      <trkpt lat="39.5975101925432682037353515625" lon="-0.3161330334842205047607421875">
        <ele>15.19999980926513671875</ele>
        <time>2021-09-27T11:58:24.000Z</time>
      </trkpt>
      <trkpt lat="39.59744003601372241973876953125" lon="-0.31615876592695713043212890625">
        <ele>14.80000019073486328125</ele>
        <time>2021-09-27T11:58:26.000Z</time>
      </trkpt>
      <trkpt lat="39.5973569713532924652099609375" lon="-0.316192544996738433837890625">
        <ele>14.19999980926513671875</ele>
        <time>2021-09-27T11:58:28.000Z</time>
      </trkpt>
      <trkpt lat="39.5972620882093906402587890625" lon="-0.31622967682778835296630859375">
        <ele>13.6000003814697265625</ele>
        <time>2021-09-27T11:58:30.000Z</time>
      </trkpt>
      <trkpt lat="39.597168378531932830810546875" lon="-0.31627175398170948028564453125">
        <ele>13</ele>
        <time>2021-09-27T11:58:32.000Z</time>
      </trkpt>
      <trkpt lat="39.59707550704479217529296875" lon="-0.31630930490791797637939453125">
        <ele>12.3999996185302734375</ele>
        <time>2021-09-27T11:58:34.000Z</time>
      </trkpt>
      <trkpt lat="39.596977271139621734619140625" lon="-0.31635121442377567291259765625">
        <ele>12.19999980926513671875</ele>
        <time>2021-09-27T11:58:36.000Z</time>
      </trkpt>
      <trkpt lat="39.59687710739672183990478515625" lon="-0.316390693187713623046875">
        <ele>12.3999996185302734375</ele>
        <time>2021-09-27T11:58:38.000Z</time>
      </trkpt>
      <trkpt lat="39.5967769436538219451904296875" lon="-0.31643092632293701171875">
        <ele>12.80000019073486328125</ele>
        <time>2021-09-27T11:58:40.000Z</time>
      </trkpt>
      <trkpt lat="39.59667946211993694305419921875" lon="-0.31647526659071445465087890625">
        <ele>13</ele>
        <time>2021-09-27T11:58:42.000Z</time>
      </trkpt>
      <trkpt lat="39.5965771190822124481201171875" lon="-0.3165207803249359130859375">
        <ele>13.3999996185302734375</ele>
        <time>2021-09-27T11:58:44.000Z</time>
      </trkpt>
      <trkpt lat="39.5964715071022510528564453125" lon="-0.316560678184032440185546875">
        <ele>13.6000003814697265625</ele>
        <time>2021-09-27T11:58:46.000Z</time>
      </trkpt>
      <trkpt lat="39.5963665656745433807373046875" lon="-0.31660468317568302154541015625">
        <ele>14</ele>
        <time>2021-09-27T11:58:48.000Z</time>
      </trkpt>
      <trkpt lat="39.59625835530459880828857421875" lon="-0.31665246002376079559326171875">
        <ele>14.19999980926513671875</ele>
        <time>2021-09-27T11:58:50.000Z</time>
      </trkpt>
      <trkpt lat="39.5961499772965908050537109375" lon="-0.3166986443102359771728515625">
        <ele>14.3999996185302734375</ele>
        <time>2021-09-27T11:58:52.000Z</time>
      </trkpt>
      <trkpt lat="39.5960423536598682403564453125" lon="-0.3167435713112354278564453125">
        <ele>14.3999996185302734375</ele>
        <time>2021-09-27T11:58:54.000Z</time>
      </trkpt>
      <trkpt lat="39.59593095816671848297119140625" lon="-0.316790677607059478759765625">
        <ele>14.19999980926513671875</ele>
        <time>2021-09-27T11:58:56.000Z</time>
      </trkpt>
      <trkpt lat="39.59581981413066387176513671875" lon="-0.3168372809886932373046875">
        <ele>14.19999980926513671875</ele>
        <time>2021-09-27T11:58:58.000Z</time>
      </trkpt>
      <trkpt lat="39.5957090891897678375244140625" lon="-0.31688832677900791168212890625">
        <ele>14.19999980926513671875</ele>
        <time>2021-09-27T11:59:00.000Z</time>
      </trkpt>
      <trkpt lat="39.59559970535337924957275390625" lon="-0.31693811528384685516357421875">
        <ele>14</ele>
        <time>2021-09-27T11:59:02.000Z</time>
      </trkpt>
      <trkpt lat="39.59549124352633953094482421875" lon="-0.316983126103878021240234375">
        <ele>14</ele>
        <time>2021-09-27T11:59:04.000Z</time>
      </trkpt>
      <trkpt lat="39.5953781716525554656982421875" lon="-0.31702972948551177978515625">
        <ele>14</ele>
        <time>2021-09-27T11:59:06.000Z</time>
      </trkpt>
      <trkpt lat="39.5952712185680866241455078125" lon="-0.31707800924777984619140625">
        <ele>14.19999980926513671875</ele>
        <time>2021-09-27T11:59:08.000Z</time>
      </trkpt>
      <trkpt lat="39.59516384638845920562744140625" lon="-0.31712436117231845855712890625">
        <ele>14.6000003814697265625</ele>
        <time>2021-09-27T11:59:10.000Z</time>
      </trkpt>
      <trkpt lat="39.59505018778145313262939453125" lon="-0.31717431731522083282470703125">
        <ele>15</ele>
        <time>2021-09-27T11:59:12.000Z</time>
      </trkpt>
      <trkpt lat="39.59494021721184253692626953125" lon="-0.31722444109618663787841796875">
        <ele>15.3999996185302734375</ele>
        <time>2021-09-27T11:59:14.000Z</time>
      </trkpt>
      <trkpt lat="39.59488355554640293121337890625" lon="-0.31724824570119380950927734375">
        <ele>15.6000003814697265625</ele>
        <time>2021-09-27T11:59:15.000Z</time>
      </trkpt>
      <trkpt lat="39.5948286540806293487548828125" lon="-0.3172719664871692657470703125">
        <ele>15.80000019073486328125</ele>
        <time>2021-09-27T11:59:16.000Z</time>
      </trkpt>
      <trkpt lat="39.59471910260617733001708984375" lon="-0.317313037812709808349609375">
        <ele>16</ele>
        <time>2021-09-27T11:59:18.000Z</time>
      </trkpt>
      <trkpt lat="39.59461449645459651947021484375" lon="-0.31735293567180633544921875">
        <ele>16.3999996185302734375</ele>
        <time>2021-09-27T11:59:20.000Z</time>
      </trkpt>
      <trkpt lat="39.594512321054935455322265625" lon="-0.31739316880702972412109375">
        <ele>16.6000003814697265625</ele>
        <time>2021-09-27T11:59:22.000Z</time>
      </trkpt>
      <trkpt lat="39.59442372433841228485107421875" lon="-0.31743264757096767425537109375">
        <ele>16.6000003814697265625</ele>
        <time>2021-09-27T11:59:24.000Z</time>
      </trkpt>
      <trkpt lat="39.59435616619884967803955078125" lon="-0.3174590505659580230712890625">
        <ele>16.3999996185302734375</ele>
        <time>2021-09-27T11:59:26.000Z</time>
      </trkpt>
      <trkpt lat="39.59432624280452728271484375" lon="-0.3174744732677936553955078125">
        <ele>16.3999996185302734375</ele>
        <time>2021-09-27T11:59:27.000Z</time>
      </trkpt>
      <trkpt lat="39.59429204463958740234375" lon="-0.317490734159946441650390625">
        <ele>16.3999996185302734375</ele>
        <time>2021-09-27T11:59:28.000Z</time>
      </trkpt>
      <trkpt lat="39.59421451203525066375732421875" lon="-0.3175217472016811370849609375">
        <ele>16.200000762939453125</ele>
        <time>2021-09-27T11:59:30.000Z</time>
      </trkpt>
      <trkpt lat="39.59412650205194950103759765625" lon="-0.31755636446177959442138671875">
        <ele>16</ele>
        <time>2021-09-27T11:59:32.000Z</time>
      </trkpt>
      <trkpt lat="39.59403413347899913787841796875" lon="-0.31759575940668582916259765625">
        <ele>15.80000019073486328125</ele>
        <time>2021-09-27T11:59:34.000Z</time>
      </trkpt>
      <trkpt lat="39.59393757395446300506591796875" lon="-0.31763481907546520233154296875">
        <ele>15.6000003814697265625</ele>
        <time>2021-09-27T11:59:36.000Z</time>
      </trkpt>
      <trkpt lat="39.593844451010227203369140625" lon="-0.3176746331155300140380859375">
        <ele>15.19999980926513671875</ele>
        <time>2021-09-27T11:59:38.000Z</time>
      </trkpt>
      <trkpt lat="39.59375250153243541717529296875" lon="-0.31771880574524402618408203125">
        <ele>15</ele>
        <time>2021-09-27T11:59:40.000Z</time>
      </trkpt>
      <trkpt lat="39.59365644492208957672119140625" lon="-0.31775887124240398406982421875">
        <ele>14.80000019073486328125</ele>
        <time>2021-09-27T11:59:42.000Z</time>
      </trkpt>
      <trkpt lat="39.59355737082660198211669921875" lon="-0.31780128367245197296142578125">
        <ele>15</ele>
        <time>2021-09-27T11:59:44.000Z</time>
      </trkpt>
      <trkpt lat="39.59345695562660694122314453125" lon="-0.31784419901669025421142578125">
        <ele>15.19999980926513671875</ele>
        <time>2021-09-27T11:59:46.000Z</time>
      </trkpt>
      <trkpt lat="39.59335553459823131561279296875" lon="-0.31788527034223079681396484375">
        <ele>15.19999980926513671875</ele>
        <time>2021-09-27T11:59:48.000Z</time>
      </trkpt>
      <trkpt lat="39.5932508446276187896728515625" lon="-0.317928604781627655029296875">
        <ele>15.3999996185302734375</ele>
        <time>2021-09-27T11:59:50.000Z</time>
      </trkpt>
      <trkpt lat="39.59314498119056224822998046875" lon="-0.31797294504940509796142578125">
        <ele>15.6000003814697265625</ele>
        <time>2021-09-27T11:59:52.000Z</time>
      </trkpt>
      <trkpt lat="39.5930892415344715118408203125" lon="-0.31799557618796825408935546875">
        <ele>15.80000019073486328125</ele>
        <time>2021-09-27T11:59:53.000Z</time>
      </trkpt>
      <trkpt lat="39.5930392853915691375732421875" lon="-0.31801988370716571807861328125">
        <ele>15.80000019073486328125</ele>
        <time>2021-09-27T11:59:54.000Z</time>
      </trkpt>
      <trkpt lat="39.5929326675832271575927734375" lon="-0.31806464307010173797607421875">
        <ele>15.80000019073486328125</ele>
        <time>2021-09-27T11:59:56.000Z</time>
      </trkpt>
      <trkpt lat="39.5928257144987583160400390625" lon="-0.31811107881367206573486328125">
        <ele>16</ele>
        <time>2021-09-27T11:59:58.000Z</time>
      </trkpt>
      <trkpt lat="39.59271633066236972808837890625" lon="-0.3181557543575763702392578125">
        <ele>15.6000003814697265625</ele>
        <time>2021-09-27T12:00:00.000Z</time>
      </trkpt>
      <trkpt lat="39.5926094613969326019287109375" lon="-0.31820110045373439788818359375">
        <ele>15.19999980926513671875</ele>
        <time>2021-09-27T12:00:02.000Z</time>
      </trkpt>
      <trkpt lat="39.59255774505436420440673828125" lon="-0.3182251565158367156982421875">
        <ele>15</ele>
        <time>2021-09-27T12:00:03.000Z</time>
      </trkpt>
      <trkpt lat="39.5925038494169712066650390625" lon="-0.318247117102146148681640625">
        <ele>14.80000019073486328125</ele>
        <time>2021-09-27T12:00:04.000Z</time>
      </trkpt>
      <trkpt lat="39.59239630959928035736083984375" lon="-0.31829481013119220733642578125">
        <ele>14.6000003814697265625</ele>
        <time>2021-09-27T12:00:06.000Z</time>
      </trkpt>
      <trkpt lat="39.592285417020320892333984375" lon="-0.31834392808377742767333984375">
        <ele>14.19999980926513671875</ele>
        <time>2021-09-27T12:00:08.000Z</time>
      </trkpt>
      <trkpt lat="39.59217720665037631988525390625" lon="-0.3183881007134914398193359375">
        <ele>13.80000019073486328125</ele>
        <time>2021-09-27T12:00:10.000Z</time>
      </trkpt>
      <trkpt lat="39.5920663140714168548583984375" lon="-0.318434201180934906005859375">
        <ele>13.6000003814697265625</ele>
        <time>2021-09-27T12:00:12.000Z</time>
      </trkpt>
      <trkpt lat="39.5919590257108211517333984375" lon="-0.31847971491515636444091796875">
        <ele>13.6000003814697265625</ele>
        <time>2021-09-27T12:00:14.000Z</time>
      </trkpt>
      <trkpt lat="39.59190261550247669219970703125" lon="-0.31850201077759265899658203125">
        <ele>13.6000003814697265625</ele>
        <time>2021-09-27T12:00:15.000Z</time>
      </trkpt>
      <trkpt lat="39.5918477140367031097412109375" lon="-0.31852430664002895355224609375">
        <ele>13.80000019073486328125</ele>
        <time>2021-09-27T12:00:16.000Z</time>
      </trkpt>
      <trkpt lat="39.59174017421901226043701171875" lon="-0.318573005497455596923828125">
        <ele>14</ele>
        <time>2021-09-27T12:00:18.000Z</time>
      </trkpt>
      <trkpt lat="39.591631628572940826416015625" lon="-0.3186177648603916168212890625">
        <ele>14.19999980926513671875</ele>
        <time>2021-09-27T12:00:20.000Z</time>
      </trkpt>
      <trkpt lat="39.591521658003330230712890625" lon="-0.31866327859461307525634765625">
        <ele>14.3999996185302734375</ele>
        <time>2021-09-27T12:00:22.000Z</time>
      </trkpt>
      <trkpt lat="39.591466672718524932861328125" lon="-0.31868741847574710845947265625">
        <ele>14.3999996185302734375</ele>
        <time>2021-09-27T12:00:23.000Z</time>
      </trkpt>
      <trkpt lat="39.59141529165208339691162109375" lon="-0.31871206127107143402099609375">
        <ele>14.6000003814697265625</ele>
        <time>2021-09-27T12:00:24.000Z</time>
      </trkpt>
      <trkpt lat="39.59130741655826568603515625" lon="-0.318757407367229461669921875">
        <ele>14.80000019073486328125</ele>
        <time>2021-09-27T12:00:26.000Z</time>
      </trkpt>
      <trkpt lat="39.59119702689349651336669921875" lon="-0.3188025020062923431396484375">
        <ele>15</ele>
        <time>2021-09-27T12:00:28.000Z</time>
      </trkpt>
      <trkpt lat="39.59109275601804256439208984375" lon="-0.318847261369228363037109375">
        <ele>14.80000019073486328125</ele>
        <time>2021-09-27T12:00:30.000Z</time>
      </trkpt>
      <trkpt lat="39.59103894419968128204345703125" lon="-0.3188695572316646575927734375">
        <ele>14.80000019073486328125</ele>
        <time>2021-09-27T12:00:31.000Z</time>
      </trkpt>
      <trkpt lat="39.59098530001938343048095703125" lon="-0.31889042817056179046630859375">
        <ele>14.80000019073486328125</ele>
        <time>2021-09-27T12:00:32.000Z</time>
      </trkpt>
      <trkpt lat="39.59087801165878772735595703125" lon="-0.31893619336187839508056640625">
        <ele>14.6000003814697265625</ele>
        <time>2021-09-27T12:00:34.000Z</time>
      </trkpt>
      <trkpt lat="39.59077298641204833984375" lon="-0.31897927634418010711669921875">
        <ele>14.6000003814697265625</ele>
        <time>2021-09-27T12:00:36.000Z</time>
      </trkpt>
      <trkpt lat="39.59067081101238727569580078125" lon="-0.31901950947940349578857421875">
        <ele>14.3999996185302734375</ele>
        <time>2021-09-27T12:00:38.000Z</time>
      </trkpt>
      <trkpt lat="39.59057793952524662017822265625" lon="-0.31906150281429290771484375">
        <ele>14.3999996185302734375</ele>
        <time>2021-09-27T12:00:40.000Z</time>
      </trkpt>
      <trkpt lat="39.5904807932674884796142578125" lon="-0.319102071225643157958984375">
        <ele>14.19999980926513671875</ele>
        <time>2021-09-27T12:00:42.000Z</time>
      </trkpt>
      <trkpt lat="39.5903778634965419769287109375" lon="-0.3191481716930866241455078125">
        <ele>14.19999980926513671875</ele>
        <time>2021-09-27T12:00:44.000Z</time>
      </trkpt>
      <trkpt lat="39.590276777744293212890625" lon="-0.31919150613248348236083984375">
        <ele>14.19999980926513671875</ele>
        <time>2021-09-27T12:00:46.000Z</time>
      </trkpt>
      <trkpt lat="39.59017929621040821075439453125" lon="-0.31923056580126285552978515625">
        <ele>14.19999980926513671875</ele>
        <time>2021-09-27T12:00:48.000Z</time>
      </trkpt>
      <trkpt lat="39.590130932629108428955078125" lon="-0.3192494250833988189697265625">
        <ele>14.19999980926513671875</ele>
        <time>2021-09-27T12:00:49.000Z</time>
      </trkpt>
      <trkpt lat="39.59008910693228244781494140625" lon="-0.319273732602596282958984375">
        <ele>14.19999980926513671875</ele>
        <time>2021-09-27T12:00:50.000Z</time>
      </trkpt>
      <trkpt lat="39.59005214273929595947265625" lon="-0.31930332072079181671142578125">
        <ele>14.19999980926513671875</ele>
        <time>2021-09-27T12:00:51.000Z</time>
      </trkpt>
      <trkpt lat="39.59001551382243633270263671875" lon="-0.31934288330376148223876953125">
        <ele>14.19999980926513671875</ele>
        <time>2021-09-27T12:00:52.000Z</time>
      </trkpt>
      <trkpt lat="39.5899768732488155364990234375" lon="-0.319387726485729217529296875">
        <ele>14</ele>
        <time>2021-09-27T12:00:53.000Z</time>
      </trkpt>
      <trkpt lat="39.58994351327419281005859375" lon="-0.31944061629474163055419921875">
        <ele>14</ele>
        <time>2021-09-27T12:00:54.000Z</time>
      </trkpt>
      <trkpt lat="39.589913003146648406982421875" lon="-0.31956374645233154296875">
        <ele>13.6000003814697265625</ele>
        <time>2021-09-27T12:00:56.000Z</time>
      </trkpt>
      <trkpt lat="39.5898809842765331268310546875" lon="-0.3196728788316249847412109375">
        <ele>13.6000003814697265625</ele>
        <time>2021-09-27T12:00:58.000Z</time>
      </trkpt>
      <trkpt lat="39.58984720520675182342529296875" lon="-0.319690145552158355712890625">
        <ele>13.6000003814697265625</ele>
        <time>2021-09-27T12:00:59.000Z</time>
      </trkpt>
      <trkpt lat="39.589810073375701904296875" lon="-0.3196903131902217864990234375">
        <ele>13.80000019073486328125</ele>
        <time>2021-09-27T12:01:00.000Z</time>
      </trkpt>
      <trkpt lat="39.5897337980568408966064453125" lon="-0.31966592185199260711669921875">
        <ele>13.80000019073486328125</ele>
        <time>2021-09-27T12:01:02.000Z</time>
      </trkpt>
      <trkpt lat="39.589698426425457000732421875" lon="-0.3196520917117595672607421875">
        <ele>13.80000019073486328125</ele>
        <time>2021-09-27T12:01:03.000Z</time>
      </trkpt>
      <trkpt lat="39.58966531790792942047119140625" lon="-0.31964044086635112762451171875">
        <ele>13.80000019073486328125</ele>
        <time>2021-09-27T12:01:04.000Z</time>
      </trkpt>
      <trkpt lat="39.589598514139652252197265625" lon="-0.319625101983547210693359375">
        <ele>14</ele>
        <time>2021-09-27T12:01:06.000Z</time>
      </trkpt>
      <trkpt lat="39.58953556604683399200439453125" lon="-0.31962610781192779541015625">
        <ele>14</ele>
        <time>2021-09-27T12:01:08.000Z</time>
      </trkpt>
      <trkpt lat="39.5894975960254669189453125" lon="-0.319630466401576995849609375">
        <ele>14</ele>
        <time>2021-09-27T12:01:09.000Z</time>
      </trkpt>
      <trkpt lat="39.58945929072797298431396484375" lon="-0.31963239423930644989013671875">
        <ele>14</ele>
        <time>2021-09-27T12:01:10.000Z</time>
      </trkpt>
      <trkpt lat="39.58936910144984722137451171875" lon="-0.3196339868009090423583984375">
        <ele>14.19999980926513671875</ele>
        <time>2021-09-27T12:01:12.000Z</time>
      </trkpt>
      <trkpt lat="39.5892764814198017120361328125" lon="-0.319651253521442413330078125">
        <ele>14.3999996185302734375</ele>
        <time>2021-09-27T12:01:14.000Z</time>
      </trkpt>
      <trkpt lat="39.58917615003883838653564453125" lon="-0.31966994516551494598388671875">
        <ele>14.6000003814697265625</ele>
        <time>2021-09-27T12:01:16.000Z</time>
      </trkpt>
      <trkpt lat="39.589076824486255645751953125" lon="-0.3196909837424755096435546875">
        <ele>14.80000019073486328125</ele>
        <time>2021-09-27T12:01:18.000Z</time>
      </trkpt>
      <trkpt lat="39.58897791802883148193359375" lon="-0.31972040422260761260986328125">
        <ele>15</ele>
        <time>2021-09-27T12:01:20.000Z</time>
      </trkpt>
      <trkpt lat="39.5888741500675678253173828125" lon="-0.31975225545465946197509765625">
        <ele>15.3999996185302734375</ele>
        <time>2021-09-27T12:01:22.000Z</time>
      </trkpt>
      <trkpt lat="39.58876577205955982208251953125" lon="-0.3197878785431385040283203125">
        <ele>15.6000003814697265625</ele>
        <time>2021-09-27T12:01:24.000Z</time>
      </trkpt>
      <trkpt lat="39.588657058775424957275390625" lon="-0.319829285144805908203125">
        <ele>15.80000019073486328125</ele>
        <time>2021-09-27T12:01:26.000Z</time>
      </trkpt>
      <trkpt lat="39.5885516144335269927978515625" lon="-0.31987044028937816619873046875">
        <ele>15.80000019073486328125</ele>
        <time>2021-09-27T12:01:28.000Z</time>
      </trkpt>
      <trkpt lat="39.58844290114939212799072265625" lon="-0.31991620548069477081298828125">
        <ele>15.80000019073486328125</ele>
        <time>2021-09-27T12:01:30.000Z</time>
      </trkpt>
      <trkpt lat="39.5883367024362087249755859375" lon="-0.31995979137718677520751953125">
        <ele>15.80000019073486328125</ele>
        <time>2021-09-27T12:01:32.000Z</time>
      </trkpt>
      <trkpt lat="39.588241316378116607666015625" lon="-0.320001281797885894775390625">
        <ele>15.80000019073486328125</ele>
        <time>2021-09-27T12:01:34.000Z</time>
      </trkpt>
      <trkpt lat="39.58819027058780193328857421875" lon="-0.32002315856516361236572265625">
        <ele>16</ele>
        <time>2021-09-27T12:01:35.000Z</time>
      </trkpt>
      <trkpt lat="39.58813947625458240509033203125" lon="-0.3200450353324413299560546875">
        <ele>16</ele>
        <time>2021-09-27T12:01:36.000Z</time>
      </trkpt>
      <trkpt lat="39.58804585039615631103515625" lon="-0.3200832568109035491943359375">
        <ele>16</ele>
        <time>2021-09-27T12:01:38.000Z</time>
      </trkpt>
      <trkpt lat="39.58794669248163700103759765625" lon="-0.320129692554473876953125">
        <ele>16.200000762939453125</ele>
        <time>2021-09-27T12:01:40.000Z</time>
      </trkpt>
      <trkpt lat="39.58789623342454433441162109375" lon="-0.3201543353497982025146484375">
        <ele>16.200000762939453125</ele>
        <time>2021-09-27T12:01:41.000Z</time>
      </trkpt>
      <trkpt lat="39.58784158341586589813232421875" lon="-0.32017520628869533538818359375">
        <ele>16.200000762939453125</ele>
        <time>2021-09-27T12:01:42.000Z</time>
      </trkpt>
      <trkpt lat="39.58773714490234851837158203125" lon="-0.3202160261571407318115234375">
        <ele>16.200000762939453125</ele>
        <time>2021-09-27T12:01:44.000Z</time>
      </trkpt>
      <trkpt lat="39.58763136528432369232177734375" lon="-0.32025902532041072845458984375">
        <ele>16</ele>
        <time>2021-09-27T12:01:46.000Z</time>
      </trkpt>
      <trkpt lat="39.587534554302692413330078125" lon="-0.32030177302658557891845703125">
        <ele>15.80000019073486328125</ele>
        <time>2021-09-27T12:01:48.000Z</time>
      </trkpt>
      <trkpt lat="39.5874395035207271575927734375" lon="-0.32034016214311122894287109375">
        <ele>15.80000019073486328125</ele>
        <time>2021-09-27T12:01:50.000Z</time>
      </trkpt>
      <trkpt lat="39.587338753044605255126953125" lon="-0.3203831613063812255859375">
        <ele>15.6000003814697265625</ele>
        <time>2021-09-27T12:01:52.000Z</time>
      </trkpt>
      <trkpt lat="39.58723624236881732940673828125" lon="-0.32042431645095348358154296875">
        <ele>15.3999996185302734375</ele>
        <time>2021-09-27T12:01:54.000Z</time>
      </trkpt>
      <trkpt lat="39.5871828496456146240234375" lon="-0.3204483725130558013916015625">
        <ele>15.3999996185302734375</ele>
        <time>2021-09-27T12:01:55.000Z</time>
      </trkpt>
      <trkpt lat="39.58713029511272907257080078125" lon="-0.32046924345195293426513671875">
        <ele>15.19999980926513671875</ele>
        <time>2021-09-27T12:01:56.000Z</time>
      </trkpt>
      <trkpt lat="39.58702870644629001617431640625" lon="-0.32050914131104946136474609375">
        <ele>15</ele>
        <time>2021-09-27T12:01:58.000Z</time>
      </trkpt>
      <trkpt lat="39.5869392715394496917724609375" lon="-0.3205489553511142730712890625">
        <ele>15</ele>
        <time>2021-09-27T12:02:00.000Z</time>
      </trkpt>
      <trkpt lat="39.58684581331908702850341796875" lon="-0.32058256678283214569091796875">
        <ele>14.80000019073486328125</ele>
        <time>2021-09-27T12:02:02.000Z</time>
      </trkpt>
      <trkpt lat="39.5867632515728473663330078125" lon="-0.32062053680419921875">
        <ele>14.80000019073486328125</ele>
        <time>2021-09-27T12:02:04.000Z</time>
      </trkpt>
      <trkpt lat="39.58671941421926021575927734375" lon="-0.32063805498182773590087890625">
        <ele>14.80000019073486328125</ele>
        <time>2021-09-27T12:02:05.000Z</time>
      </trkpt>
      <trkpt lat="39.58667867816984653472900390625" lon="-0.32066135667264461517333984375">
        <ele>14.80000019073486328125</ele>
        <time>2021-09-27T12:02:06.000Z</time>
      </trkpt>
      <trkpt lat="39.5866093598306179046630859375" lon="-0.320741236209869384765625">
        <ele>14.6000003814697265625</ele>
        <time>2021-09-27T12:02:08.000Z</time>
      </trkpt>
      <trkpt lat="39.586580693721771240234375" lon="-0.32079689204692840576171875">
        <ele>14.6000003814697265625</ele>
        <time>2021-09-27T12:02:09.000Z</time>
      </trkpt>
      <trkpt lat="39.58655496127903461456298828125" lon="-0.32085229642689228057861328125">
        <ele>14.6000003814697265625</ele>
        <time>2021-09-27T12:02:10.000Z</time>
      </trkpt>
      <trkpt lat="39.5865305699408054351806640625" lon="-0.32090476714074611663818359375">
        <ele>14.3999996185302734375</ele>
        <time>2021-09-27T12:02:11.000Z</time>
      </trkpt>
      <trkpt lat="39.586505591869354248046875" lon="-0.3209506161510944366455078125">
        <ele>14.3999996185302734375</ele>
        <time>2021-09-27T12:02:12.000Z</time>
      </trkpt>
      <trkpt lat="39.58648371510207653045654296875" lon="-0.32099847681820392608642578125">
        <ele>14.3999996185302734375</ele>
        <time>2021-09-27T12:02:13.000Z</time>
      </trkpt>
      <trkpt lat="39.58646292798221111297607421875" lon="-0.32104692421853542327880859375">
        <ele>14.3999996185302734375</ele>
        <time>2021-09-27T12:02:14.000Z</time>
      </trkpt>
      <trkpt lat="39.586438201367855072021484375" lon="-0.32108866609632968902587890625">
        <ele>14.3999996185302734375</ele>
        <time>2021-09-27T12:02:15.000Z</time>
      </trkpt>
      <trkpt lat="39.58640257827937602996826171875" lon="-0.3211149014532566070556640625">
        <ele>14.19999980926513671875</ele>
        <time>2021-09-27T12:02:16.000Z</time>
      </trkpt>
      <trkpt lat="39.58636133931577205657958984375" lon="-0.3211306594312191009521484375">
        <ele>14.19999980926513671875</ele>
        <time>2021-09-27T12:02:17.000Z</time>
      </trkpt>
      <trkpt lat="39.58631507121026515960693359375" lon="-0.3211410529911518096923828125">
        <ele>14.19999980926513671875</ele>
        <time>2021-09-27T12:02:18.000Z</time>
      </trkpt>
      <trkpt lat="39.5862682163715362548828125" lon="-0.321142561733722686767578125">
        <ele>14.19999980926513671875</ele>
        <time>2021-09-27T12:02:19.000Z</time>
      </trkpt>
      <trkpt lat="39.5862231217324733734130859375" lon="-0.32113426364958286285400390625">
        <ele>14.19999980926513671875</ele>
        <time>2021-09-27T12:02:20.000Z</time>
      </trkpt>
      <trkpt lat="39.5861825533211231231689453125" lon="-0.3211125545203685760498046875">
        <ele>14.19999980926513671875</ele>
        <time>2021-09-27T12:02:21.000Z</time>
      </trkpt>
      <trkpt lat="39.58614290691912174224853515625" lon="-0.32108028419315814971923828125">
        <ele>14.3999996185302734375</ele>
        <time>2021-09-27T12:02:22.000Z</time>
      </trkpt>
      <trkpt lat="39.58610217086970806121826171875" lon="-0.3210515342652797698974609375">
        <ele>14.3999996185302734375</ele>
        <time>2021-09-27T12:02:23.000Z</time>
      </trkpt>
      <trkpt lat="39.5860605128109455108642578125" lon="-0.32103183679282665252685546875">
        <ele>14.6000003814697265625</ele>
        <time>2021-09-27T12:02:24.000Z</time>
      </trkpt>
      <trkpt lat="39.58596738986670970916748046875" lon="-0.32102496363222599029541015625">
        <ele>14.80000019073486328125</ele>
        <time>2021-09-27T12:02:26.000Z</time>
      </trkpt>
      <trkpt lat="39.5859173499047756195068359375" lon="-0.3210334293544292449951171875">
        <ele>15</ele>
        <time>2021-09-27T12:02:27.000Z</time>
      </trkpt>
      <trkpt lat="39.5858680643141269683837890625" lon="-0.32104876823723316192626953125">
        <ele>15</ele>
        <time>2021-09-27T12:02:28.000Z</time>
      </trkpt>
      <trkpt lat="39.58577108569443225860595703125" lon="-0.3210910968482494354248046875">
        <ele>15.19999980926513671875</ele>
        <time>2021-09-27T12:02:30.000Z</time>
      </trkpt>
      <trkpt lat="39.5856793038547039031982421875" lon="-0.3211340121924877166748046875">
        <ele>15.3999996185302734375</ele>
        <time>2021-09-27T12:02:32.000Z</time>
      </trkpt>
      <trkpt lat="39.5856347121298313140869140625" lon="-0.3211544640362262725830078125">
        <ele>15.3999996185302734375</ele>
        <time>2021-09-27T12:02:33.000Z</time>
      </trkpt>
      <trkpt lat="39.58559305407106876373291015625" lon="-0.32117349095642566680908203125">
        <ele>15.6000003814697265625</ele>
        <time>2021-09-27T12:02:34.000Z</time>
      </trkpt>
      <trkpt lat="39.58551091141998767852783203125" lon="-0.32120584510266780853271484375">
        <ele>15.80000019073486328125</ele>
        <time>2021-09-27T12:02:36.000Z</time>
      </trkpt>
      <trkpt lat="39.58542608655989170074462890625" lon="-0.32123954035341739654541015625">
        <ele>15.80000019073486328125</ele>
        <time>2021-09-27T12:02:38.000Z</time>
      </trkpt>
      <trkpt lat="39.58533690311014652252197265625" lon="-0.32127910293638706207275390625">
        <ele>16.200000762939453125</ele>
        <time>2021-09-27T12:02:40.000Z</time>
      </trkpt>
      <trkpt lat="39.58524671383202075958251953125" lon="-0.3213184140622615814208984375">
        <ele>16.200000762939453125</ele>
        <time>2021-09-27T12:02:42.000Z</time>
      </trkpt>
      <trkpt lat="39.58515082485973834991455078125" lon="-0.32132386229932308197021484375">
        <ele>16.3999996185302734375</ele>
        <time>2021-09-27T12:02:44.000Z</time>
      </trkpt>
      <trkpt lat="39.58510589785873889923095703125" lon="-0.3213217668235301971435546875">
        <ele>16.6000003814697265625</ele>
        <time>2021-09-27T12:02:45.000Z</time>
      </trkpt>
      <trkpt lat="39.58506180904805660247802734375" lon="-0.3213321603834629058837890625">
        <ele>16.6000003814697265625</ele>
        <time>2021-09-27T12:02:46.000Z</time>
      </trkpt>
      <trkpt lat="39.5849735476076602935791015625" lon="-0.32137415371835231781005859375">
        <ele>16.799999237060546875</ele>
        <time>2021-09-27T12:02:48.000Z</time>
      </trkpt>
      <trkpt lat="39.58492652513086795806884765625" lon="-0.3213948570191860198974609375">
        <ele>17</ele>
        <time>2021-09-27T12:02:49.000Z</time>
      </trkpt>
      <trkpt lat="39.58488126285374164581298828125" lon="-0.32142025418579578399658203125">
        <ele>17</ele>
        <time>2021-09-27T12:02:50.000Z</time>
      </trkpt>
      <trkpt lat="39.58478202112019062042236328125" lon="-0.321463085711002349853515625">
        <ele>17.200000762939453125</ele>
        <time>2021-09-27T12:02:52.000Z</time>
      </trkpt>
      <trkpt lat="39.58468344993889331817626953125" lon="-0.3215058334171772003173828125">
        <ele>17.3999996185302734375</ele>
        <time>2021-09-27T12:02:54.000Z</time>
      </trkpt>
      <trkpt lat="39.5845832861959934234619140625" lon="-0.32154883258044719696044921875">
        <ele>17.6000003814697265625</ele>
        <time>2021-09-27T12:02:56.000Z</time>
      </trkpt>
      <trkpt lat="39.5845323242247104644775390625" lon="-0.3215732239186763763427734375">
        <ele>17.6000003814697265625</ele>
        <time>2021-09-27T12:02:57.000Z</time>
      </trkpt>
      <trkpt lat="39.584480859339237213134765625" lon="-0.3215968608856201171875">
        <ele>17.6000003814697265625</ele>
        <time>2021-09-27T12:02:58.000Z</time>
      </trkpt>
      <trkpt lat="39.58438329398632049560546875" lon="-0.32164539210498332977294921875">
        <ele>17.3999996185302734375</ele>
        <time>2021-09-27T12:03:00.000Z</time>
      </trkpt>
      <trkpt lat="39.5842815376818180084228515625" lon="-0.32168813981115818023681640625">
        <ele>17.200000762939453125</ele>
        <time>2021-09-27T12:03:02.000Z</time>
      </trkpt>
      <trkpt lat="39.58417936228215694427490234375" lon="-0.321728624403476715087890625">
        <ele>17</ele>
        <time>2021-09-27T12:03:04.000Z</time>
      </trkpt>
      <trkpt lat="39.584127478301525115966796875" lon="-0.3217519260942935943603515625">
        <ele>17</ele>
        <time>2021-09-27T12:03:05.000Z</time>
      </trkpt>
      <trkpt lat="39.584075845777988433837890625" lon="-0.32177413813769817352294921875">
        <ele>17</ele>
        <time>2021-09-27T12:03:06.000Z</time>
      </trkpt>
      <trkpt lat="39.58397098816931247711181640625" lon="-0.3218156285583972930908203125">
        <ele>16.6000003814697265625</ele>
        <time>2021-09-27T12:03:08.000Z</time>
      </trkpt>
      <trkpt lat="39.5838704891502857208251953125" lon="-0.3218610584735870361328125">
        <ele>16.3999996185302734375</ele>
        <time>2021-09-27T12:03:10.000Z</time>
      </trkpt>
      <trkpt lat="39.58378239534795284271240234375" lon="-0.32190657220780849456787109375">
        <ele>16.200000762939453125</ele>
        <time>2021-09-27T12:03:12.000Z</time>
      </trkpt>
      <trkpt lat="39.5836864225566387176513671875" lon="-0.32194890081882476806640625">
        <ele>16</ele>
        <time>2021-09-27T12:03:14.000Z</time>
      </trkpt>
      <trkpt lat="39.58360201679170131683349609375" lon="-0.32199592329561710357666015625">
        <ele>16</ele>
        <time>2021-09-27T12:03:16.000Z</time>
      </trkpt>
      <trkpt lat="39.5835104025900363922119140625" lon="-0.32203607261180877685546875">
        <ele>16</ele>
        <time>2021-09-27T12:03:18.000Z</time>
      </trkpt>
      <trkpt lat="39.5834161899983882904052734375" lon="-0.32207496464252471923828125">
        <ele>16</ele>
        <time>2021-09-27T12:03:20.000Z</time>
      </trkpt>
      <trkpt lat="39.58336807787418365478515625" lon="-0.322092063724994659423828125">
        <ele>16</ele>
        <time>2021-09-27T12:03:21.000Z</time>
      </trkpt>
      <trkpt lat="39.5833186246454715728759765625" lon="-0.32211075536906719207763671875">
        <ele>16</ele>
        <time>2021-09-27T12:03:22.000Z</time>
      </trkpt>
      <trkpt lat="39.58321946673095226287841796875" lon="-0.32214478589594364166259765625">
        <ele>16</ele>
        <time>2021-09-27T12:03:24.000Z</time>
      </trkpt>
      <trkpt lat="39.583127684891223907470703125" lon="-0.3221757151186466217041015625">
        <ele>16.200000762939453125</ele>
        <time>2021-09-27T12:03:26.000Z</time>
      </trkpt>
      <trkpt lat="39.58303808234632015228271484375" lon="-0.3222028724849224090576171875">
        <ele>16.200000762939453125</ele>
        <time>2021-09-27T12:03:28.000Z</time>
      </trkpt>
      <trkpt lat="39.58294722251594066619873046875" lon="-0.3222384117543697357177734375">
        <ele>16.3999996185302734375</ele>
        <time>2021-09-27T12:03:30.000Z</time>
      </trkpt>
      <trkpt lat="39.582856781780719757080078125" lon="-0.322272442281246185302734375">
        <ele>16.3999996185302734375</ele>
        <time>2021-09-27T12:03:32.000Z</time>
      </trkpt>
      <trkpt lat="39.58278193138539791107177734375" lon="-0.32231234014034271240234375">
        <ele>16.200000762939453125</ele>
        <time>2021-09-27T12:03:34.000Z</time>
      </trkpt>
      <trkpt lat="39.58270867355167865753173828125" lon="-0.322377383708953857421875">
        <ele>16</ele>
        <time>2021-09-27T12:03:36.000Z</time>
      </trkpt>
      <trkpt lat="39.5826645009219646453857421875" lon="-0.32240781001746654510498046875">
        <ele>15.80000019073486328125</ele>
        <time>2021-09-27T12:03:37.000Z</time>
      </trkpt>
      <trkpt lat="39.58261747844517230987548828125" lon="-0.32242826186120510101318359375">
        <ele>15.6000003814697265625</ele>
        <time>2021-09-27T12:03:38.000Z</time>
      </trkpt>
      <trkpt lat="39.58257154561579227447509765625" lon="-0.3224462829530239105224609375">
        <ele>15.3999996185302734375</ele>
        <time>2021-09-27T12:03:39.000Z</time>
      </trkpt>
      <trkpt lat="39.58252728916704654693603515625" lon="-0.32246849499642848968505859375">
        <ele>15.19999980926513671875</ele>
        <time>2021-09-27T12:03:40.000Z</time>
      </trkpt>
      <trkpt lat="39.58244011737406253814697265625" lon="-0.32250990159809589385986328125">
        <ele>15.19999980926513671875</ele>
        <time>2021-09-27T12:03:42.000Z</time>
      </trkpt>
      <trkpt lat="39.58234271965920925140380859375" lon="-0.32256002537906169891357421875">
        <ele>15</ele>
        <time>2021-09-27T12:03:44.000Z</time>
      </trkpt>
      <trkpt lat="39.5822368562221527099609375" lon="-0.32259422354400157928466796875">
        <ele>15</ele>
        <time>2021-09-27T12:03:46.000Z</time>
      </trkpt>
      <trkpt lat="39.58218597806990146636962890625" lon="-0.32261551357805728912353515625">
        <ele>15</ele>
        <time>2021-09-27T12:03:47.000Z</time>
      </trkpt>
      <trkpt lat="39.58213686011731624603271484375" lon="-0.3226360492408275604248046875">
        <ele>15</ele>
        <time>2021-09-27T12:03:48.000Z</time>
      </trkpt>
      <trkpt lat="39.582029990851879119873046875" lon="-0.32267821021378040313720703125">
        <ele>15</ele>
        <time>2021-09-27T12:03:50.000Z</time>
      </trkpt>
      <trkpt lat="39.58193711936473846435546875" lon="-0.32271307893097400665283203125">
        <ele>14.80000019073486328125</ele>
        <time>2021-09-27T12:03:52.000Z</time>
      </trkpt>
      <trkpt lat="39.5818571560084819793701171875" lon="-0.32274954020977020263671875">
        <ele>14.6000003814697265625</ele>
        <time>2021-09-27T12:03:54.000Z</time>
      </trkpt>
      <trkpt lat="39.58176872693002223968505859375" lon="-0.3227875940501689910888671875">
        <ele>14.3999996185302734375</ele>
        <time>2021-09-27T12:03:56.000Z</time>
      </trkpt>
      <trkpt lat="39.58167434670031070709228515625" lon="-0.322826988995075225830078125">
        <ele>14.19999980926513671875</ele>
        <time>2021-09-27T12:03:58.000Z</time>
      </trkpt>
      <trkpt lat="39.58163294009864330291748046875" lon="-0.32285288907587528228759765625">
        <ele>14</ele>
        <time>2021-09-27T12:03:59.000Z</time>
      </trkpt>
      <trkpt lat="39.58159287460148334503173828125" lon="-0.3228802978992462158203125">
        <ele>13.80000019073486328125</ele>
        <time>2021-09-27T12:04:00.000Z</time>
      </trkpt>
      <trkpt lat="39.58155750297009944915771484375" lon="-0.32291173003613948822021484375">
        <ele>13.6000003814697265625</ele>
        <time>2021-09-27T12:04:01.000Z</time>
      </trkpt>
      <trkpt lat="39.581525735557079315185546875" lon="-0.32294458709657192230224609375">
        <ele>13.6000003814697265625</ele>
        <time>2021-09-27T12:04:02.000Z</time>
      </trkpt>
      <trkpt lat="39.581497572362422943115234375" lon="-0.3229808807373046875">
        <ele>13.3999996185302734375</ele>
        <time>2021-09-27T12:04:03.000Z</time>
      </trkpt>
      <trkpt lat="39.5814702473580837249755859375" lon="-0.323022119700908660888671875">
        <ele>13.6000003814697265625</ele>
        <time>2021-09-27T12:04:04.000Z</time>
      </trkpt>
      <trkpt lat="39.58144032396376132965087890625" lon="-0.3231124766170978546142578125">
        <ele>14</ele>
        <time>2021-09-27T12:04:06.000Z</time>
      </trkpt>
      <trkpt lat="39.58143227733671665191650390625" lon="-0.32315195538103580474853515625">
        <ele>14.19999980926513671875</ele>
        <time>2021-09-27T12:04:07.000Z</time>
      </trkpt>
      <trkpt lat="39.5814276672899723052978515625" lon="-0.3231845609843730926513671875">
        <ele>14.3999996185302734375</ele>
        <time>2021-09-27T12:04:08.000Z</time>
      </trkpt>
      <trkpt lat="39.5814293436706066131591796875" lon="-0.32324080355465412139892578125">
        <ele>14.6000003814697265625</ele>
        <time>2021-09-27T12:04:10.000Z</time>
      </trkpt>
      <trkpt lat="39.58142741583287715911865234375" lon="-0.32326142303645610809326171875">
        <ele>14.6000003814697265625</ele>
        <time>2021-09-27T12:04:11.000Z</time>
      </trkpt>
      <trkpt lat="39.58141274750232696533203125" lon="-0.32328086905181407928466796875">
        <ele>14.80000019073486328125</ele>
        <time>2021-09-27T12:04:12.000Z</time>
      </trkpt>
      <trkpt lat="39.581365473568439483642578125" lon="-0.32330073416233062744140625">
        <ele>14.80000019073486328125</ele>
        <time>2021-09-27T12:04:14.000Z</time>
      </trkpt>
      <trkpt lat="39.5813114941120147705078125" lon="-0.3233116306364536285400390625">
        <ele>14.80000019073486328125</ele>
        <time>2021-09-27T12:04:16.000Z</time>
      </trkpt>
      <trkpt lat="39.581234715878963470458984375" lon="-0.32331221736967563629150390625">
        <ele>14.80000019073486328125</ele>
        <time>2021-09-27T12:04:18.000Z</time>
      </trkpt>
      <trkpt lat="39.5811547525227069854736328125" lon="-0.32329134643077850341796875">
        <ele>14.6000003814697265625</ele>
        <time>2021-09-27T12:04:20.000Z</time>
      </trkpt>
      <trkpt lat="39.58110974170267581939697265625" lon="-0.3232770971953868865966796875">
        <ele>14.6000003814697265625</ele>
        <time>2021-09-27T12:04:21.000Z</time>
      </trkpt>
      <trkpt lat="39.58106297068297863006591796875" lon="-0.32327391207218170166015625">
        <ele>14.80000019073486328125</ele>
        <time>2021-09-27T12:04:22.000Z</time>
      </trkpt>
      <trkpt lat="39.58101804368197917938232421875" lon="-0.32327533699572086334228515625">
        <ele>14.80000019073486328125</ele>
        <time>2021-09-27T12:04:23.000Z</time>
      </trkpt>
      <trkpt lat="39.580977223813533782958984375" lon="-0.323276929557323455810546875">
        <ele>15</ele>
        <time>2021-09-27T12:04:24.000Z</time>
      </trkpt>
      <trkpt lat="39.5809118449687957763671875" lon="-0.3232747502624988555908203125">
        <ele>15.19999980926513671875</ele>
        <time>2021-09-27T12:04:26.000Z</time>
      </trkpt>
      <trkpt lat="39.58088301122188568115234375" lon="-0.32327483408153057098388671875">
        <ele>15.19999980926513671875</ele>
        <time>2021-09-27T12:04:27.000Z</time>
      </trkpt>
      <trkpt lat="39.5808543451130390167236328125" lon="-0.32327449880540370941162109375">
        <ele>15.19999980926513671875</ele>
        <time>2021-09-27T12:04:28.000Z</time>
      </trkpt>
      <trkpt lat="39.58079022355377674102783203125" lon="-0.3232817910611629486083984375">
        <ele>15.6000003814697265625</ele>
        <time>2021-09-27T12:04:30.000Z</time>
      </trkpt>
      <trkpt lat="39.58073205314576625823974609375" lon="-0.323303081095218658447265625">
        <ele>16</ele>
        <time>2021-09-27T12:04:32.000Z</time>
      </trkpt>
      <trkpt lat="39.58071277476847171783447265625" lon="-0.323307774960994720458984375">
        <ele>16</ele>
        <time>2021-09-27T12:04:33.000Z</time>
      </trkpt>
      <trkpt lat="39.58068561740219593048095703125" lon="-0.32330903224647045135498046875">
        <ele>16.200000762939453125</ele>
        <time>2021-09-27T12:04:34.000Z</time>
      </trkpt>
      <trkpt lat="39.5805945061147212982177734375" lon="-0.32329679466784000396728515625">
        <ele>16.6000003814697265625</ele>
        <time>2021-09-27T12:04:36.000Z</time>
      </trkpt>
      <trkpt lat="39.5805033110082149505615234375" lon="-0.3233253769576549530029296875">
        <ele>17.200000762939453125</ele>
        <time>2021-09-27T12:04:38.000Z</time>
      </trkpt>
      <trkpt lat="39.580419324338436126708984375" lon="-0.323366113007068634033203125">
        <ele>17.6000003814697265625</ele>
        <time>2021-09-27T12:04:40.000Z</time>
      </trkpt>
      <trkpt lat="39.58032536320388317108154296875" lon="-0.32340726815164089202880859375">
        <ele>18</ele>
        <time>2021-09-27T12:04:42.000Z</time>
      </trkpt>
      <trkpt lat="39.58023601211607456207275390625" lon="-0.32344850711524486541748046875">
        <ele>18</ele>
        <time>2021-09-27T12:04:44.000Z</time>
      </trkpt>
      <trkpt lat="39.58014884032309055328369140625" lon="-0.32348982989788055419921875">
        <ele>18</ele>
        <time>2021-09-27T12:04:46.000Z</time>
      </trkpt>
      <trkpt lat="39.580102823674678802490234375" lon="-0.32351304776966571807861328125">
        <ele>18</ele>
        <time>2021-09-27T12:04:47.000Z</time>
      </trkpt>
      <trkpt lat="39.58005814813077449798583984375" lon="-0.3235352598130702972412109375">
        <ele>18</ele>
        <time>2021-09-27T12:04:48.000Z</time>
      </trkpt>
      <trkpt lat="39.57996443845331668853759765625" lon="-0.32358027063310146331787109375">
        <ele>18</ele>
        <time>2021-09-27T12:04:50.000Z</time>
      </trkpt>
      <trkpt lat="39.57986913621425628662109375" lon="-0.3236232697963714599609375">
        <ele>18</ele>
        <time>2021-09-27T12:04:52.000Z</time>
      </trkpt>
      <trkpt lat="39.579769559204578399658203125" lon="-0.323668532073497772216796875">
        <ele>18</ele>
        <time>2021-09-27T12:04:54.000Z</time>
      </trkpt>
      <trkpt lat="39.5796691440045833587646484375" lon="-0.32371857203543186187744140625">
        <ele>18</ele>
        <time>2021-09-27T12:04:56.000Z</time>
      </trkpt>
      <trkpt lat="39.57956445403397083282470703125" lon="-0.3237681090831756591796875">
        <ele>18</ele>
        <time>2021-09-27T12:04:58.000Z</time>
      </trkpt>
      <trkpt lat="39.5794634521007537841796875" lon="-0.32381999306380748748779296875">
        <ele>17.799999237060546875</ele>
        <time>2021-09-27T12:05:00.000Z</time>
      </trkpt>
      <trkpt lat="39.5794136635959148406982421875" lon="-0.3238437138497829437255859375">
        <ele>17.799999237060546875</ele>
        <time>2021-09-27T12:05:01.000Z</time>
      </trkpt>
      <trkpt lat="39.5793620310723781585693359375" lon="-0.32386307604610919952392578125">
        <ele>17.6000003814697265625</ele>
        <time>2021-09-27T12:05:02.000Z</time>
      </trkpt>
      <trkpt lat="39.57926186732947826385498046875" lon="-0.3238926641643047332763671875">
        <ele>17.3999996185302734375</ele>
        <time>2021-09-27T12:05:04.000Z</time>
      </trkpt>
      <trkpt lat="39.5791685767471790313720703125" lon="-0.32393147237598896026611328125">
        <ele>17</ele>
        <time>2021-09-27T12:05:06.000Z</time>
      </trkpt>
      <trkpt lat="39.5791229791939258575439453125" lon="-0.32395209185779094696044921875">
        <ele>17</ele>
        <time>2021-09-27T12:05:07.000Z</time>
      </trkpt>
      <trkpt lat="39.5790763758122920989990234375" lon="-0.3239714540541172027587890625">
        <ele>16.799999237060546875</ele>
        <time>2021-09-27T12:05:08.000Z</time>
      </trkpt>
      <trkpt lat="39.5789892040193080902099609375" lon="-0.32401344738900661468505859375">
        <ele>16.6000003814697265625</ele>
        <time>2021-09-27T12:05:10.000Z</time>
      </trkpt>
      <trkpt lat="39.5789135992527008056640625" lon="-0.3240817598998546600341796875">
        <ele>16.6000003814697265625</ele>
        <time>2021-09-27T12:05:12.000Z</time>
      </trkpt>
      <trkpt lat="39.5788685046136379241943359375" lon="-0.3241816721856594085693359375">
        <ele>16.6000003814697265625</ele>
        <time>2021-09-27T12:05:14.000Z</time>
      </trkpt>
      <trkpt lat="39.57884059287607669830322265625" lon="-0.324287116527557373046875">
        <ele>16.799999237060546875</ele>
        <time>2021-09-27T12:05:16.000Z</time>
      </trkpt>
      <trkpt lat="39.57881008274853229522705078125" lon="-0.32438258640468120574951171875">
        <ele>16.799999237060546875</ele>
        <time>2021-09-27T12:05:18.000Z</time>
      </trkpt>
      <trkpt lat="39.57877219654619693756103515625" lon="-0.324453078210353851318359375">
        <ele>16.799999237060546875</ele>
        <time>2021-09-27T12:05:20.000Z</time>
      </trkpt>
      <trkpt lat="39.578742943704128265380859375" lon="-0.32447679899632930755615234375">
        <ele>16.799999237060546875</ele>
        <time>2021-09-27T12:05:21.000Z</time>
      </trkpt>
      <trkpt lat="39.5787097513675689697265625" lon="-0.3244936466217041015625">
        <ele>16.799999237060546875</ele>
        <time>2021-09-27T12:05:22.000Z</time>
      </trkpt>
      <trkpt lat="39.578640349209308624267578125" lon="-0.32451602630317211151123046875">
        <ele>16.6000003814697265625</ele>
        <time>2021-09-27T12:05:24.000Z</time>
      </trkpt>
      <trkpt lat="39.578567259013652801513671875" lon="-0.32452809624373912811279296875">
        <ele>16.3999996185302734375</ele>
        <time>2021-09-27T12:05:26.000Z</time>
      </trkpt>
      <trkpt lat="39.5785335637629032135009765625" lon="-0.32452382147312164306640625">
        <ele>16.3999996185302734375</ele>
        <time>2021-09-27T12:05:27.000Z</time>
      </trkpt>
      <trkpt lat="39.578496515750885009765625" lon="-0.32451577484607696533203125">
        <ele>16.200000762939453125</ele>
        <time>2021-09-27T12:05:28.000Z</time>
      </trkpt>
      <trkpt lat="39.57841412164270877838134765625" lon="-0.324490964412689208984375">
        <ele>16</ele>
        <time>2021-09-27T12:05:30.000Z</time>
      </trkpt>
      <trkpt lat="39.57837380468845367431640625" lon="-0.324463136494159698486328125">
        <ele>15.80000019073486328125</ele>
        <time>2021-09-27T12:05:31.000Z</time>
      </trkpt>
      <trkpt lat="39.578329212963581085205078125" lon="-0.324426256120204925537109375">
        <ele>15.6000003814697265625</ele>
        <time>2021-09-27T12:05:32.000Z</time>
      </trkpt>
      <trkpt lat="39.5782804302871227264404296875" lon="-0.32440035603940486907958984375">
        <ele>15.3999996185302734375</ele>
        <time>2021-09-27T12:05:33.000Z</time>
      </trkpt>
      <trkpt lat="39.578231312334537506103515625" lon="-0.3243902139365673065185546875">
        <ele>15.3999996185302734375</ele>
        <time>2021-09-27T12:05:34.000Z</time>
      </trkpt>
      <trkpt lat="39.57818328402936458587646484375" lon="-0.3243952430784702301025390625">
        <ele>15.19999980926513671875</ele>
        <time>2021-09-27T12:05:35.000Z</time>
      </trkpt>
      <trkpt lat="39.5781372673809528350830078125" lon="-0.324415527284145355224609375">
        <ele>15.19999980926513671875</ele>
        <time>2021-09-27T12:05:36.000Z</time>
      </trkpt>
      <trkpt lat="39.5780598185956478118896484375" lon="-0.32445953227579593658447265625">
        <ele>15</ele>
        <time>2021-09-27T12:05:38.000Z</time>
      </trkpt>
      <trkpt lat="39.57802587188780307769775390625" lon="-0.32447780482470989227294921875">
        <ele>15</ele>
        <time>2021-09-27T12:05:39.000Z</time>
      </trkpt>
      <trkpt lat="39.5779914222657680511474609375" lon="-0.32449356280267238616943359375">
        <ele>15</ele>
        <time>2021-09-27T12:05:40.000Z</time>
      </trkpt>
      <trkpt lat="39.57791657187044620513916015625" lon="-0.32454133965075016021728515625">
        <ele>15</ele>
        <time>2021-09-27T12:05:42.000Z</time>
      </trkpt>
      <trkpt lat="39.5778787694871425628662109375" lon="-0.324569754302501678466796875">
        <ele>15</ele>
        <time>2021-09-27T12:05:43.000Z</time>
      </trkpt>
      <trkpt lat="39.5778371952474117279052734375" lon="-0.32459221780300140380859375">
        <ele>14.80000019073486328125</ele>
        <time>2021-09-27T12:05:44.000Z</time>
      </trkpt>
      <trkpt lat="39.57774843089282512664794921875" lon="-0.32463513314723968505859375">
        <ele>15</ele>
        <time>2021-09-27T12:05:46.000Z</time>
      </trkpt>
      <trkpt lat="39.577658660709857940673828125" lon="-0.324675031006336212158203125">
        <ele>15</ele>
        <time>2021-09-27T12:05:48.000Z</time>
      </trkpt>
      <trkpt lat="39.5775662921369075775146484375" lon="-0.3247082233428955078125">
        <ele>15</ele>
        <time>2021-09-27T12:05:50.000Z</time>
      </trkpt>
      <trkpt lat="39.57747501321136951446533203125" lon="-0.324732698500156402587890625">
        <ele>15</ele>
        <time>2021-09-27T12:05:52.000Z</time>
      </trkpt>
      <trkpt lat="39.57737459801137447357177734375" lon="-0.32475306652486324310302734375">
        <ele>15</ele>
        <time>2021-09-27T12:05:54.000Z</time>
      </trkpt>
      <trkpt lat="39.57727418281137943267822265625" lon="-0.3247846662998199462890625">
        <ele>15</ele>
        <time>2021-09-27T12:05:56.000Z</time>
      </trkpt>
      <trkpt lat="39.57717326469719409942626953125" lon="-0.324821881949901580810546875">
        <ele>15</ele>
        <time>2021-09-27T12:05:58.000Z</time>
      </trkpt>
      <trkpt lat="39.5770720951259136199951171875" lon="-0.32486488111317157745361328125">
        <ele>15</ele>
        <time>2021-09-27T12:06:00.000Z</time>
      </trkpt>
      <trkpt lat="39.57697042264044284820556640625" lon="-0.32490494661033153533935546875">
        <ele>15</ele>
        <time>2021-09-27T12:06:02.000Z</time>
      </trkpt>
      <trkpt lat="39.57687587477266788482666015625" lon="-0.3249427489936351776123046875">
        <ele>15.19999980926513671875</ele>
        <time>2021-09-27T12:06:04.000Z</time>
      </trkpt>
      <trkpt lat="39.57678065635263919830322265625" lon="-0.3249856643378734588623046875">
        <ele>15.19999980926513671875</ele>
        <time>2021-09-27T12:06:06.000Z</time>
      </trkpt>
      <trkpt lat="39.5766835100948810577392578125" lon="-0.3250289149582386016845703125">
        <ele>15.3999996185302734375</ele>
        <time>2021-09-27T12:06:08.000Z</time>
      </trkpt>
      <trkpt lat="39.5765953324735164642333984375" lon="-0.32507694326341152191162109375">
        <ele>15.6000003814697265625</ele>
        <time>2021-09-27T12:06:10.000Z</time>
      </trkpt>
      <trkpt lat="39.57649583928287029266357421875" lon="-0.3251184336841106414794921875">
        <ele>15.6000003814697265625</ele>
        <time>2021-09-27T12:06:12.000Z</time>
      </trkpt>
      <trkpt lat="39.57639274187386035919189453125" lon="-0.32515724189579486846923828125">
        <ele>15.6000003814697265625</ele>
        <time>2021-09-27T12:06:14.000Z</time>
      </trkpt>
      <trkpt lat="39.5762952603399753570556640625" lon="-0.32519864849746227264404296875">
        <ele>15.3999996185302734375</ele>
        <time>2021-09-27T12:06:16.000Z</time>
      </trkpt>
      <trkpt lat="39.57619585096836090087890625" lon="-0.325236283242702484130859375">
        <ele>15.3999996185302734375</ele>
        <time>2021-09-27T12:06:18.000Z</time>
      </trkpt>
      <trkpt lat="39.5761028118431568145751953125" lon="-0.3252793662250041961669921875">
        <ele>15.3999996185302734375</ele>
        <time>2021-09-27T12:06:20.000Z</time>
      </trkpt>
      <trkpt lat="39.57605511881411075592041015625" lon="-0.3253018297255039215087890625">
        <ele>15.3999996185302734375</ele>
        <time>2021-09-27T12:06:21.000Z</time>
      </trkpt>
      <trkpt lat="39.5760082639753818511962890625" lon="-0.32532135955989360809326171875">
        <ele>15.3999996185302734375</ele>
        <time>2021-09-27T12:06:22.000Z</time>
      </trkpt>
      <trkpt lat="39.57591011188924312591552734375" lon="-0.32535488717257976531982421875">
        <ele>15.3999996185302734375</ele>
        <time>2021-09-27T12:06:24.000Z</time>
      </trkpt>
      <trkpt lat="39.57580835558474063873291015625" lon="-0.3253893367946147918701171875">
        <ele>15.3999996185302734375</ele>
        <time>2021-09-27T12:06:26.000Z</time>
      </trkpt>
      <trkpt lat="39.575760662555694580078125" lon="-0.32541037537157535552978515625">
        <ele>15.3999996185302734375</ele>
        <time>2021-09-27T12:06:27.000Z</time>
      </trkpt>
      <trkpt lat="39.5757138915359973907470703125" lon="-0.32543032430112361907958984375">
        <ele>15.3999996185302734375</ele>
        <time>2021-09-27T12:06:28.000Z</time>
      </trkpt>
      <trkpt lat="39.575621522963047027587890625" lon="-0.32546955160796642303466796875">
        <ele>15.3999996185302734375</ele>
        <time>2021-09-27T12:06:30.000Z</time>
      </trkpt>
      <trkpt lat="39.57552756182849407196044921875" lon="-0.32551079057157039642333984375">
        <ele>15.19999980926513671875</ele>
        <time>2021-09-27T12:06:32.000Z</time>
      </trkpt>
      <trkpt lat="39.57544189877808094024658203125" lon="-0.3255462460219860076904296875">
        <ele>15</ele>
        <time>2021-09-27T12:06:34.000Z</time>
      </trkpt>
      <trkpt lat="39.57536512054502964019775390625" lon="-0.32557399012148380279541015625">
        <ele>14.80000019073486328125</ele>
        <time>2021-09-27T12:06:36.000Z</time>
      </trkpt>
      <trkpt lat="39.5752911083400249481201171875" lon="-0.32559846527874469757080078125">
        <ele>14.80000019073486328125</ele>
        <time>2021-09-27T12:06:38.000Z</time>
      </trkpt>
      <trkpt lat="39.575245343148708343505859375" lon="-0.32561950385570526123046875">
        <ele>14.80000019073486328125</ele>
        <time>2021-09-27T12:06:39.000Z</time>
      </trkpt>
      <trkpt lat="39.57519480027258396148681640625" lon="-0.3256404586136341094970703125">
        <ele>14.80000019073486328125</ele>
        <time>2021-09-27T12:06:40.000Z</time>
      </trkpt>
      <trkpt lat="39.5750976540148258209228515625" lon="-0.325677506625652313232421875">
        <ele>14.80000019073486328125</ele>
        <time>2021-09-27T12:06:42.000Z</time>
      </trkpt>
      <trkpt lat="39.57501006312668323516845703125" lon="-0.3257179073989391326904296875">
        <ele>14.6000003814697265625</ele>
        <time>2021-09-27T12:06:44.000Z</time>
      </trkpt>
      <trkpt lat="39.57496060989797115325927734375" lon="-0.32574129290878772735595703125">
        <ele>14.6000003814697265625</ele>
        <time>2021-09-27T12:06:45.000Z</time>
      </trkpt>
      <trkpt lat="39.574910737574100494384765625" lon="-0.3257618285715579986572265625">
        <ele>14.3999996185302734375</ele>
        <time>2021-09-27T12:06:46.000Z</time>
      </trkpt>
      <trkpt lat="39.57482281140983104705810546875" lon="-0.3258050791919231414794921875">
        <ele>14.3999996185302734375</ele>
        <time>2021-09-27T12:06:48.000Z</time>
      </trkpt>
      <trkpt lat="39.5747379027307033538818359375" lon="-0.3258419595658779144287109375">
        <ele>14.19999980926513671875</ele>
        <time>2021-09-27T12:06:50.000Z</time>
      </trkpt>
      <trkpt lat="39.5746969990432262420654296875" lon="-0.3258630819618701934814453125">
        <ele>14.19999980926513671875</ele>
        <time>2021-09-27T12:06:51.000Z</time>
      </trkpt>
      <trkpt lat="39.57465349696576595306396484375" lon="-0.32587741501629352569580078125">
        <ele>14.19999980926513671875</ele>
        <time>2021-09-27T12:06:52.000Z</time>
      </trkpt>
      <trkpt lat="39.57457873038947582244873046875" lon="-0.32591412775218486785888671875">
        <ele>14</ele>
        <time>2021-09-27T12:06:54.000Z</time>
      </trkpt>
      <trkpt lat="39.57451938651502132415771484375" lon="-0.32597129233181476593017578125">
        <ele>14</ele>
        <time>2021-09-27T12:06:56.000Z</time>
      </trkpt>
      <trkpt lat="39.5744986832141876220703125" lon="-0.32600264064967632293701171875">
        <ele>14</ele>
        <time>2021-09-27T12:06:57.000Z</time>
      </trkpt>
      <trkpt lat="39.57447948865592479705810546875" lon="-0.32603767700493335723876953125">
        <ele>14</ele>
        <time>2021-09-27T12:06:58.000Z</time>
      </trkpt>
      <trkpt lat="39.5744431950151920318603515625" lon="-0.32611764036118984222412109375">
        <ele>14</ele>
        <time>2021-09-27T12:07:00.000Z</time>
      </trkpt>
      <trkpt lat="39.5744012854993343353271484375" lon="-0.32618955709040164947509765625">
        <ele>14.19999980926513671875</ele>
        <time>2021-09-27T12:07:02.000Z</time>
      </trkpt>
      <trkpt lat="39.57436046563088893890380859375" lon="-0.3262625634670257568359375">
        <ele>14.19999980926513671875</ele>
        <time>2021-09-27T12:07:04.000Z</time>
      </trkpt>
      <trkpt lat="39.57432794384658336639404296875" lon="-0.32634210772812366485595703125">
        <ele>14.19999980926513671875</ele>
        <time>2021-09-27T12:07:06.000Z</time>
      </trkpt>
      <trkpt lat="39.5743114314973354339599609375" lon="-0.326432548463344573974609375">
        <ele>14.19999980926513671875</ele>
        <time>2021-09-27T12:07:08.000Z</time>
      </trkpt>
      <trkpt lat="39.57430849783122539520263671875" lon="-0.326521396636962890625">
        <ele>14.19999980926513671875</ele>
        <time>2021-09-27T12:07:10.000Z</time>
      </trkpt>
      <trkpt lat="39.57430682145059108734130859375" lon="-0.32658375799655914306640625">
        <ele>14.19999980926513671875</ele>
        <time>2021-09-27T12:07:12.000Z</time>
      </trkpt>
      <trkpt lat="39.57426742650568485260009765625" lon="-0.3266087360680103302001953125">
        <ele>14.19999980926513671875</ele>
        <time>2021-09-27T12:07:14.000Z</time>
      </trkpt>
      <trkpt lat="39.5742098428308963775634765625" lon="-0.32660881988704204559326171875">
        <ele>14.3999996185302734375</ele>
        <time>2021-09-27T12:07:16.000Z</time>
      </trkpt>
      <trkpt lat="39.57418628968298435211181640625" lon="-0.32659557648003101348876953125">
        <ele>14.3999996185302734375</ele>
        <time>2021-09-27T12:07:17.000Z</time>
      </trkpt>
      <trkpt lat="39.574172794818878173828125" lon="-0.3265715204179286956787109375">
        <ele>14.3999996185302734375</ele>
        <time>2021-09-27T12:07:18.000Z</time>
      </trkpt>
      <trkpt lat="39.57415862940251827239990234375" lon="-0.3265343047678470611572265625">
        <ele>14.3999996185302734375</ele>
        <time>2021-09-27T12:07:19.000Z</time>
      </trkpt>
      <trkpt lat="39.57414505071938037872314453125" lon="-0.32649314962327480316162109375">
        <ele>14.3999996185302734375</ele>
        <time>2021-09-27T12:07:20.000Z</time>
      </trkpt>
      <trkpt lat="39.5741146244108676910400390625" lon="-0.326415114104747772216796875">
        <ele>14.3999996185302734375</ele>
        <time>2021-09-27T12:07:22.000Z</time>
      </trkpt>
      <trkpt lat="39.5740636624395847320556640625" lon="-0.3263495676219463348388671875">
        <ele>14.6000003814697265625</ele>
        <time>2021-09-27T12:07:24.000Z</time>
      </trkpt>
      <trkpt lat="39.57402803935110569000244140625" lon="-0.326323918998241424560546875">
        <ele>14.6000003814697265625</ele>
        <time>2021-09-27T12:07:25.000Z</time>
      </trkpt>
      <trkpt lat="39.573989398777484893798828125" lon="-0.32630070112645626068115234375">
        <ele>14.6000003814697265625</ele>
        <time>2021-09-27T12:07:26.000Z</time>
      </trkpt>
      <trkpt lat="39.573916308581829071044921875" lon="-0.32626683823764324188232421875">
        <ele>14.80000019073486328125</ele>
        <time>2021-09-27T12:07:28.000Z</time>
      </trkpt>
      <trkpt lat="39.5738752372562885284423828125" lon="-0.3262577019631862640380859375">
        <ele>14.80000019073486328125</ele>
        <time>2021-09-27T12:07:29.000Z</time>
      </trkpt>
      <trkpt lat="39.57383207045495510101318359375" lon="-0.326255857944488525390625">
        <ele>14.80000019073486328125</ele>
        <time>2021-09-27T12:07:30.000Z</time>
      </trkpt>
      <trkpt lat="39.57378454506397247314453125" lon="-0.32626323401927947998046875">
        <ele>14.80000019073486328125</ele>
        <time>2021-09-27T12:07:31.000Z</time>
      </trkpt>
      <trkpt lat="39.5737347565591335296630859375" lon="-0.326274298131465911865234375">
        <ele>15</ele>
        <time>2021-09-27T12:07:32.000Z</time>
      </trkpt>
      <trkpt lat="39.57368873991072177886962890625" lon="-0.32629349268972873687744140625">
        <ele>15</ele>
        <time>2021-09-27T12:07:33.000Z</time>
      </trkpt>
      <trkpt lat="39.57364230416715145111083984375" lon="-0.32631595619022846221923828125">
        <ele>15</ele>
        <time>2021-09-27T12:07:34.000Z</time>
      </trkpt>
      <trkpt lat="39.57359603606164455413818359375" lon="-0.32633473165333271026611328125">
        <ele>15</ele>
        <time>2021-09-27T12:07:35.000Z</time>
      </trkpt>
      <trkpt lat="39.57355060614645481109619140625" lon="-0.32635434530675411224365234375">
        <ele>15.19999980926513671875</ele>
        <time>2021-09-27T12:07:36.000Z</time>
      </trkpt>
      <trkpt lat="39.573462344706058502197265625" lon="-0.326399691402912139892578125">
        <ele>15.19999980926513671875</ele>
        <time>2021-09-27T12:07:38.000Z</time>
      </trkpt>
      <trkpt lat="39.573381207883358001708984375" lon="-0.3264444507658481597900390625">
        <ele>15.3999996185302734375</ele>
        <time>2021-09-27T12:07:40.000Z</time>
      </trkpt>
      <trkpt lat="39.5732916891574859619140625" lon="-0.3264776431024074554443359375">
        <ele>15.3999996185302734375</ele>
        <time>2021-09-27T12:07:42.000Z</time>
      </trkpt>
      <trkpt lat="39.5732472650706768035888671875" lon="-0.32649583183228969573974609375">
        <ele>15.6000003814697265625</ele>
        <time>2021-09-27T12:07:43.000Z</time>
      </trkpt>
      <trkpt lat="39.57320292480289936065673828125" lon="-0.3265131823718547821044921875">
        <ele>15.6000003814697265625</ele>
        <time>2021-09-27T12:07:44.000Z</time>
      </trkpt>
      <trkpt lat="39.5731590874493122100830078125" lon="-0.3265299461781978607177734375">
        <ele>15.6000003814697265625</ele>
        <time>2021-09-27T12:07:45.000Z</time>
      </trkpt>
      <trkpt lat="39.57311592064797878265380859375" lon="-0.32654478214681148529052734375">
        <ele>15.6000003814697265625</ele>
        <time>2021-09-27T12:07:46.000Z</time>
      </trkpt>
      <trkpt lat="39.57302774302661418914794921875" lon="-0.326578058302402496337890625">
        <ele>15.80000019073486328125</ele>
        <time>2021-09-27T12:07:48.000Z</time>
      </trkpt>
      <trkpt lat="39.5729398168623447418212890625" lon="-0.32661904580891132354736328125">
        <ele>15.80000019073486328125</ele>
        <time>2021-09-27T12:07:50.000Z</time>
      </trkpt>
      <trkpt lat="39.5728513039648532867431640625" lon="-0.326655842363834381103515625">
        <ele>16</ele>
        <time>2021-09-27T12:07:52.000Z</time>
      </trkpt>
      <trkpt lat="39.5727591030299663543701171875" lon="-0.3266917169094085693359375">
        <ele>15.6000003814697265625</ele>
        <time>2021-09-27T12:07:54.000Z</time>
      </trkpt>
      <trkpt lat="39.57266329787671566009521484375" lon="-0.32673337496817111968994140625">
        <ele>15.3999996185302734375</ele>
        <time>2021-09-27T12:07:56.000Z</time>
      </trkpt>
      <trkpt lat="39.5726152695715427398681640625" lon="-0.32674695365130901336669921875">
        <ele>15.19999980926513671875</ele>
        <time>2021-09-27T12:07:57.000Z</time>
      </trkpt>
      <trkpt lat="39.572569169104099273681640625" lon="-0.3267632983624935150146484375">
        <ele>15</ele>
        <time>2021-09-27T12:07:58.000Z</time>
      </trkpt>
      <trkpt lat="39.57247755490243434906005859375" lon="-0.3267974965274333953857421875">
        <ele>14.6000003814697265625</ele>
        <time>2021-09-27T12:08:00.000Z</time>
      </trkpt>
      <trkpt lat="39.5724288560450077056884765625" lon="-0.32681652344763278961181640625">
        <ele>14.6000003814697265625</ele>
        <time>2021-09-27T12:08:01.000Z</time>
      </trkpt>
      <trkpt lat="39.572382755577564239501953125" lon="-0.32683647237718105316162109375">
        <ele>14.3999996185302734375</ele>
        <time>2021-09-27T12:08:02.000Z</time>
      </trkpt>
      <trkpt lat="39.57228980027139186859130859375" lon="-0.3268712572753429412841796875">
        <ele>14</ele>
        <time>2021-09-27T12:08:04.000Z</time>
      </trkpt>
      <trkpt lat="39.57220346666872501373291015625" lon="-0.3269088082015514373779296875">
        <ele>13.6000003814697265625</ele>
        <time>2021-09-27T12:08:06.000Z</time>
      </trkpt>
      <trkpt lat="39.57216314971446990966796875" lon="-0.32692850567400455474853515625">
        <ele>13.3999996185302734375</ele>
        <time>2021-09-27T12:08:07.000Z</time>
      </trkpt>
      <trkpt lat="39.57211981527507305145263671875" lon="-0.326951555907726287841796875">
        <ele>13.19999980926513671875</ele>
        <time>2021-09-27T12:08:08.000Z</time>
      </trkpt>
      <trkpt lat="39.5720369182527065277099609375" lon="-0.32699153758585453033447265625">
        <ele>13</ele>
        <time>2021-09-27T12:08:10.000Z</time>
      </trkpt>
      <trkpt lat="39.57194320857524871826171875" lon="-0.32703210599720478057861328125">
        <ele>13.19999980926513671875</ele>
        <time>2021-09-27T12:08:12.000Z</time>
      </trkpt>
      <trkpt lat="39.57185109145939350128173828125" lon="-0.327069573104381561279296875">
        <ele>13.6000003814697265625</ele>
        <time>2021-09-27T12:08:14.000Z</time>
      </trkpt>
      <trkpt lat="39.57175821997225284576416015625" lon="-0.32710838131606578826904296875">
        <ele>14.19999980926513671875</ele>
        <time>2021-09-27T12:08:16.000Z</time>
      </trkpt>
      <trkpt lat="39.57166132517158985137939453125" lon="-0.32714609988033771514892578125">
        <ele>14.6000003814697265625</ele>
        <time>2021-09-27T12:08:18.000Z</time>
      </trkpt>
      <trkpt lat="39.5715648494660854339599609375" lon="-0.327189601957798004150390625">
        <ele>15.19999980926513671875</ele>
        <time>2021-09-27T12:08:20.000Z</time>
      </trkpt>
      <trkpt lat="39.5714605785906314849853515625" lon="-0.3272279910743236541748046875">
        <ele>15.6000003814697265625</ele>
        <time>2021-09-27T12:08:22.000Z</time>
      </trkpt>
      <trkpt lat="39.57141238264739513397216796875" lon="-0.32725204713642597198486328125">
        <ele>15.80000019073486328125</ele>
        <time>2021-09-27T12:08:23.000Z</time>
      </trkpt>
      <trkpt lat="39.57136209122836589813232421875" lon="-0.327270738780498504638671875">
        <ele>16.200000762939453125</ele>
        <time>2021-09-27T12:08:24.000Z</time>
      </trkpt>
      <trkpt lat="39.57126134075224399566650390625" lon="-0.32730837352573871612548828125">
        <ele>16.6000003814697265625</ele>
        <time>2021-09-27T12:08:26.000Z</time>
      </trkpt>
      <trkpt lat="39.5711628533899784088134765625" lon="-0.32734575681388378143310546875">
        <ele>17</ele>
        <time>2021-09-27T12:08:28.000Z</time>
      </trkpt>
      <trkpt lat="39.5711189322173595428466796875" lon="-0.32737241126596927642822265625">
        <ele>17</ele>
        <time>2021-09-27T12:08:29.000Z</time>
      </trkpt>
      <trkpt lat="39.57106872461736202239990234375" lon="-0.3273944556713104248046875">
        <ele>16.799999237060546875</ele>
        <time>2021-09-27T12:08:30.000Z</time>
      </trkpt>
      <trkpt lat="39.5709683932363986968994140625" lon="-0.3274325095117092132568359375">
        <ele>16.799999237060546875</ele>
        <time>2021-09-27T12:08:32.000Z</time>
      </trkpt>
      <trkpt lat="39.5708696544170379638671875" lon="-0.327477268874645233154296875">
        <ele>16.6000003814697265625</ele>
        <time>2021-09-27T12:08:34.000Z</time>
      </trkpt>
      <trkpt lat="39.57076798193156719207763671875" lon="-0.327516831457614898681640625">
        <ele>16.3999996185302734375</ele>
        <time>2021-09-27T12:08:36.000Z</time>
      </trkpt>
      <trkpt lat="39.57071903161704540252685546875" lon="-0.3275404684245586395263671875">
        <ele>16.3999996185302734375</ele>
        <time>2021-09-27T12:08:37.000Z</time>
      </trkpt>
      <trkpt lat="39.5706711709499359130859375" lon="-0.32756066881120204925537109375">
        <ele>16.200000762939453125</ele>
        <time>2021-09-27T12:08:38.000Z</time>
      </trkpt>
      <trkpt lat="39.57057251594960689544677734375" lon="-0.32760492525994777679443359375">
        <ele>16</ele>
        <time>2021-09-27T12:08:40.000Z</time>
      </trkpt>
      <trkpt lat="39.57047226838767528533935546875" lon="-0.32765018753707408905029296875">
        <ele>15.6000003814697265625</ele>
        <time>2021-09-27T12:08:42.000Z</time>
      </trkpt>
      <trkpt lat="39.57036799751222133636474609375" lon="-0.32769762910902500152587890625">
        <ele>15.3999996185302734375</ele>
        <time>2021-09-27T12:08:44.000Z</time>
      </trkpt>
      <trkpt lat="39.5703182928264141082763671875" lon="-0.3277181647717952728271484375">
        <ele>15.3999996185302734375</ele>
        <time>2021-09-27T12:08:45.000Z</time>
      </trkpt>
      <trkpt lat="39.570269174873828887939453125" lon="-0.327736772596836090087890625">
        <ele>15.3999996185302734375</ele>
        <time>2021-09-27T12:08:46.000Z</time>
      </trkpt>
      <trkpt lat="39.57016632892191410064697265625" lon="-0.3277780115604400634765625">
        <ele>15.3999996185302734375</ele>
        <time>2021-09-27T12:08:48.000Z</time>
      </trkpt>
      <trkpt lat="39.5700681768357753753662109375" lon="-0.3278184123337268829345703125">
        <ele>15.3999996185302734375</ele>
        <time>2021-09-27T12:08:50.000Z</time>
      </trkpt>
      <trkpt lat="39.5699672587215900421142578125" lon="-0.3278593160212039947509765625">
        <ele>15.19999980926513671875</ele>
        <time>2021-09-27T12:08:52.000Z</time>
      </trkpt>
      <trkpt lat="39.56992023624479770660400390625" lon="-0.32788253389298915863037109375">
        <ele>15.19999980926513671875</ele>
        <time>2021-09-27T12:08:53.000Z</time>
      </trkpt>
      <trkpt lat="39.56987346522510051727294921875" lon="-0.32790063880383968353271484375">
        <ele>15.19999980926513671875</ele>
        <time>2021-09-27T12:08:54.000Z</time>
      </trkpt>
      <trkpt lat="39.5697781629860401153564453125" lon="-0.32794992439448833465576171875">
        <ele>15.19999980926513671875</ele>
        <time>2021-09-27T12:08:56.000Z</time>
      </trkpt>
      <trkpt lat="39.56967514939606189727783203125" lon="-0.32799116335809230804443359375">
        <ele>15.19999980926513671875</ele>
        <time>2021-09-27T12:08:58.000Z</time>
      </trkpt>
      <trkpt lat="39.5696246065199375152587890625" lon="-0.32800155691802501678466796875">
        <ele>15.19999980926513671875</ele>
        <time>2021-09-27T12:08:59.000Z</time>
      </trkpt>
      <trkpt lat="39.5695803500711917877197265625" lon="-0.32801664434373378753662109375">
        <ele>15.19999980926513671875</ele>
        <time>2021-09-27T12:09:00.000Z</time>
      </trkpt>
      <trkpt lat="39.569489657878875732421875" lon="-0.32805637456476688385009765625">
        <ele>15</ele>
        <time>2021-09-27T12:09:02.000Z</time>
      </trkpt>
      <trkpt lat="39.56939519383013248443603515625" lon="-0.3280963562428951263427734375">
        <ele>14.80000019073486328125</ele>
        <time>2021-09-27T12:09:04.000Z</time>
      </trkpt>
      <trkpt lat="39.56930081360042095184326171875" lon="-0.32814002595841884613037109375">
        <ele>14.3999996185302734375</ele>
        <time>2021-09-27T12:09:06.000Z</time>
      </trkpt>
      <trkpt lat="39.56924968399107456207275390625" lon="-0.3281593881547451019287109375">
        <ele>14.3999996185302734375</ele>
        <time>2021-09-27T12:09:07.000Z</time>
      </trkpt>
      <trkpt lat="39.5691994763910770416259765625" lon="-0.32817573286592960357666015625">
        <ele>14.19999980926513671875</ele>
        <time>2021-09-27T12:09:08.000Z</time>
      </trkpt>
      <trkpt lat="39.56910668872296810150146484375" lon="-0.32821998931467533111572265625">
        <ele>14</ele>
        <time>2021-09-27T12:09:10.000Z</time>
      </trkpt>
      <trkpt lat="39.5690310001373291015625" lon="-0.32829626463353633880615234375">
        <ele>13.80000019073486328125</ele>
        <time>2021-09-27T12:09:12.000Z</time>
      </trkpt>
      <trkpt lat="39.5689802058041095733642578125" lon="-0.3283987753093242645263671875">
        <ele>13.80000019073486328125</ele>
        <time>2021-09-27T12:09:14.000Z</time>
      </trkpt>
      <trkpt lat="39.56893955357372760772705078125" lon="-0.32850396819412708282470703125">
        <ele>13.6000003814697265625</ele>
        <time>2021-09-27T12:09:16.000Z</time>
      </trkpt>
      <trkpt lat="39.56891608424484729766845703125" lon="-0.32855224795639514923095703125">
        <ele>13.6000003814697265625</ele>
        <time>2021-09-27T12:09:17.000Z</time>
      </trkpt>
      <trkpt lat="39.56888171844184398651123046875" lon="-0.3285905532538890838623046875">
        <ele>13.3999996185302734375</ele>
        <time>2021-09-27T12:09:18.000Z</time>
      </trkpt>
      <trkpt lat="39.56884031184017658233642578125" lon="-0.328621901571750640869140625">
        <ele>13.3999996185302734375</ele>
        <time>2021-09-27T12:09:19.000Z</time>
      </trkpt>
      <trkpt lat="39.56879739649593830108642578125" lon="-0.3286462090909481048583984375">
        <ele>13.19999980926513671875</ele>
        <time>2021-09-27T12:09:20.000Z</time>
      </trkpt>
      <trkpt lat="39.5687533915042877197265625" lon="-0.3286666609346866607666015625">
        <ele>13.19999980926513671875</ele>
        <time>2021-09-27T12:09:21.000Z</time>
      </trkpt>
      <trkpt lat="39.56871441565454006195068359375" lon="-0.3286819159984588623046875">
        <ele>13</ele>
        <time>2021-09-27T12:09:22.000Z</time>
      </trkpt>
      <trkpt lat="39.56863428466022014617919921875" lon="-0.32870295457541942596435546875">
        <ele>13</ele>
        <time>2021-09-27T12:09:24.000Z</time>
      </trkpt>
      <trkpt lat="39.56855163909494876861572265625" lon="-0.32868401147425174713134765625">
        <ele>13</ele>
        <time>2021-09-27T12:09:26.000Z</time>
      </trkpt>
      <trkpt lat="39.56848450005054473876953125" lon="-0.328633300960063934326171875">
        <ele>13</ele>
        <time>2021-09-27T12:09:28.000Z</time>
      </trkpt>
      <trkpt lat="39.5684370584785938262939453125" lon="-0.32860756851732730865478515625">
        <ele>13</ele>
        <time>2021-09-27T12:09:29.000Z</time>
      </trkpt>
      <trkpt lat="39.5683834142982959747314453125" lon="-0.3285907208919525146484375">
        <ele>13</ele>
        <time>2021-09-27T12:09:30.000Z</time>
      </trkpt>
      <trkpt lat="39.56828660331666469573974609375" lon="-0.32859633676707744598388671875">
        <ele>13</ele>
        <time>2021-09-27T12:09:32.000Z</time>
      </trkpt>
      <trkpt lat="39.5682365633547306060791015625" lon="-0.3286136873066425323486328125">
        <ele>13</ele>
        <time>2021-09-27T12:09:33.000Z</time>
      </trkpt>
      <trkpt lat="39.56818752922117710113525390625" lon="-0.3286351449787616729736328125">
        <ele>13</ele>
        <time>2021-09-27T12:09:34.000Z</time>
      </trkpt>
      <trkpt lat="39.56808493472635746002197265625" lon="-0.32867588102817535400390625">
        <ele>13</ele>
        <time>2021-09-27T12:09:36.000Z</time>
      </trkpt>
      <trkpt lat="39.56798887811601161956787109375" lon="-0.32872072421014308929443359375">
        <ele>13</ele>
        <time>2021-09-27T12:09:38.000Z</time>
      </trkpt>
      <trkpt lat="39.56789114512503147125244140625" lon="-0.32876598648726940155029296875">
        <ele>13</ele>
        <time>2021-09-27T12:09:40.000Z</time>
      </trkpt>
      <trkpt lat="39.5678426139056682586669921875" lon="-0.3287900425493717193603515625">
        <ele>13</ele>
        <time>2021-09-27T12:09:41.000Z</time>
      </trkpt>
      <trkpt lat="39.5677943341434001922607421875" lon="-0.3288108296692371368408203125">
        <ele>13</ele>
        <time>2021-09-27T12:09:42.000Z</time>
      </trkpt>
      <trkpt lat="39.567703306674957275390625" lon="-0.32884527929127216339111328125">
        <ele>13</ele>
        <time>2021-09-27T12:09:44.000Z</time>
      </trkpt>
      <trkpt lat="39.56761722452938556671142578125" lon="-0.328883416950702667236328125">
        <ele>13.19999980926513671875</ele>
        <time>2021-09-27T12:09:46.000Z</time>
      </trkpt>
      <trkpt lat="39.56753089092671871185302734375" lon="-0.32892423681914806365966796875">
        <ele>13.19999980926513671875</ele>
        <time>2021-09-27T12:09:48.000Z</time>
      </trkpt>
      <trkpt lat="39.56743651069700717926025390625" lon="-0.32896581105887889862060546875">
        <ele>13.3999996185302734375</ele>
        <time>2021-09-27T12:09:50.000Z</time>
      </trkpt>
      <trkpt lat="39.567342214286327362060546875" lon="-0.3290032781660556793212890625">
        <ele>13.3999996185302734375</ele>
        <time>2021-09-27T12:09:52.000Z</time>
      </trkpt>
      <trkpt lat="39.56724707968533039093017578125" lon="-0.3290468640625476837158203125">
        <ele>13.6000003814697265625</ele>
        <time>2021-09-27T12:09:54.000Z</time>
      </trkpt>
      <trkpt lat="39.56714984960854053497314453125" lon="-0.32909053377807140350341796875">
        <ele>13.6000003814697265625</ele>
        <time>2021-09-27T12:09:56.000Z</time>
      </trkpt>
      <trkpt lat="39.56705647520720958709716796875" lon="-0.329136550426483154296875">
        <ele>13.80000019073486328125</ele>
        <time>2021-09-27T12:09:58.000Z</time>
      </trkpt>
      <trkpt lat="39.5669578202068805694580078125" lon="-0.32917787320911884307861328125">
        <ele>13.80000019073486328125</ele>
        <time>2021-09-27T12:10:00.000Z</time>
      </trkpt>
      <trkpt lat="39.5669107139110565185546875" lon="-0.32919681631028652191162109375">
        <ele>13.80000019073486328125</ele>
        <time>2021-09-27T12:10:01.000Z</time>
      </trkpt>
      <trkpt lat="39.5668666251003742218017578125" lon="-0.32921408303081989288330078125">
        <ele>13.80000019073486328125</ele>
        <time>2021-09-27T12:10:02.000Z</time>
      </trkpt>
      <trkpt lat="39.56682563759386539459228515625" lon="-0.3292366303503513336181640625">
        <ele>13.80000019073486328125</ele>
        <time>2021-09-27T12:10:03.000Z</time>
      </trkpt>
      <trkpt lat="39.566785655915737152099609375" lon="-0.3292584232985973358154296875">
        <ele>13.80000019073486328125</ele>
        <time>2021-09-27T12:10:04.000Z</time>
      </trkpt>
      <trkpt lat="39.56670560874044895172119140625" lon="-0.32930041663348674774169921875">
        <ele>13.80000019073486328125</ele>
        <time>2021-09-27T12:10:06.000Z</time>
      </trkpt>
      <trkpt lat="39.5666181854903697967529296875" lon="-0.32933545298874378204345703125">
        <ele>13.80000019073486328125</ele>
        <time>2021-09-27T12:10:08.000Z</time>
      </trkpt>
      <trkpt lat="39.56657837145030498504638671875" lon="-0.32934869639575481414794921875">
        <ele>13.80000019073486328125</ele>
        <time>2021-09-27T12:10:09.000Z</time>
      </trkpt>
      <trkpt lat="39.56653780303895473480224609375" lon="-0.329363532364368438720703125">
        <ele>13.80000019073486328125</ele>
        <time>2021-09-27T12:10:10.000Z</time>
      </trkpt>
      <trkpt lat="39.566471166908740997314453125" lon="-0.32941751182079315185546875">
        <ele>13.80000019073486328125</ele>
        <time>2021-09-27T12:10:12.000Z</time>
      </trkpt>
      <trkpt lat="39.56640872173011302947998046875" lon="-0.32947962172329425811767578125">
        <ele>13.80000019073486328125</ele>
        <time>2021-09-27T12:10:14.000Z</time>
      </trkpt>
      <trkpt lat="39.56632037647068500518798828125" lon="-0.32953091897070407867431640625">
        <ele>14</ele>
        <time>2021-09-27T12:10:16.000Z</time>
      </trkpt>
      <trkpt lat="39.56622566096484661102294921875" lon="-0.32957173883914947509765625">
        <ele>14</ele>
        <time>2021-09-27T12:10:18.000Z</time>
      </trkpt>
      <trkpt lat="39.56613463349640369415283203125" lon="-0.3296126425266265869140625">
        <ele>14</ele>
        <time>2021-09-27T12:10:20.000Z</time>
      </trkpt>
      <trkpt lat="39.5660431869328022003173828125" lon="-0.3296513669192790985107421875">
        <ele>14.3999996185302734375</ele>
        <time>2021-09-27T12:10:22.000Z</time>
      </trkpt>
      <trkpt lat="39.565951488912105560302734375" lon="-0.32969034276902675628662109375">
        <ele>14.3999996185302734375</ele>
        <time>2021-09-27T12:10:24.000Z</time>
      </trkpt>
      <trkpt lat="39.5658581145107746124267578125" lon="-0.32973258756101131439208984375">
        <ele>14.6000003814697265625</ele>
        <time>2021-09-27T12:10:26.000Z</time>
      </trkpt>
      <trkpt lat="39.5657635666429996490478515625" lon="-0.3297680430114269256591796875">
        <ele>14.80000019073486328125</ele>
        <time>2021-09-27T12:10:28.000Z</time>
      </trkpt>
      <trkpt lat="39.56567010842263698577880859375" lon="-0.32980450429022312164306640625">
        <ele>15</ele>
        <time>2021-09-27T12:10:30.000Z</time>
      </trkpt>
      <trkpt lat="39.56557857804000377655029296875" lon="-0.3298454917967319488525390625">
        <ele>15.19999980926513671875</ele>
        <time>2021-09-27T12:10:32.000Z</time>
      </trkpt>
      <trkpt lat="39.5655302144587039947509765625" lon="-0.329864434897899627685546875">
        <ele>15.19999980926513671875</ele>
        <time>2021-09-27T12:10:33.000Z</time>
      </trkpt>
      <trkpt lat="39.56548118032515048980712890625" lon="-0.3298853896558284759521484375">
        <ele>15.3999996185302734375</ele>
        <time>2021-09-27T12:10:34.000Z</time>
      </trkpt>
      <trkpt lat="39.5653870515525341033935546875" lon="-0.3299259580671787261962890625">
        <ele>15.6000003814697265625</ele>
        <time>2021-09-27T12:10:36.000Z</time>
      </trkpt>
      <trkpt lat="39.56529107876121997833251953125" lon="-0.3299722261726856231689453125">
        <ele>15.6000003814697265625</ele>
        <time>2021-09-27T12:10:38.000Z</time>
      </trkpt>
      <trkpt lat="39.56519787199795246124267578125" lon="-0.3300127945840358734130859375">
        <ele>15.80000019073486328125</ele>
        <time>2021-09-27T12:10:40.000Z</time>
      </trkpt>
      <trkpt lat="39.56509578041732311248779296875" lon="-0.3300498425960540771484375">
        <ele>15.80000019073486328125</ele>
        <time>2021-09-27T12:10:42.000Z</time>
      </trkpt>
      <trkpt lat="39.5649954490363597869873046875" lon="-0.3300915844738483428955078125">
        <ele>15.80000019073486328125</ele>
        <time>2021-09-27T12:10:44.000Z</time>
      </trkpt>
      <trkpt lat="39.56489964388310909271240234375" lon="-0.33013374544680118560791015625">
        <ele>16</ele>
        <time>2021-09-27T12:10:46.000Z</time>
      </trkpt>
      <trkpt lat="39.56480995751917362213134765625" lon="-0.33017163164913654327392578125">
        <ele>16</ele>
        <time>2021-09-27T12:10:48.000Z</time>
      </trkpt>
      <trkpt lat="39.5647637732326984405517578125" lon="-0.33019091002643108367919921875">
        <ele>16</ele>
        <time>2021-09-27T12:10:49.000Z</time>
      </trkpt>
      <trkpt lat="39.564721025526523590087890625" lon="-0.33021169714629650115966796875">
        <ele>16</ele>
        <time>2021-09-27T12:10:50.000Z</time>
      </trkpt>
      <trkpt lat="39.5646420679986476898193359375" lon="-0.33025813288986682891845703125">
        <ele>16</ele>
        <time>2021-09-27T12:10:52.000Z</time>
      </trkpt>
      <trkpt lat="39.56455774605274200439453125" lon="-0.330289565026760101318359375">
        <ele>15.80000019073486328125</ele>
        <time>2021-09-27T12:10:54.000Z</time>
      </trkpt>
      <trkpt lat="39.56451592035591602325439453125" lon="-0.33030943013727664947509765625">
        <ele>15.80000019073486328125</ele>
        <time>2021-09-27T12:10:55.000Z</time>
      </trkpt>
      <trkpt lat="39.56447124481201171875" lon="-0.33032518811523914337158203125">
        <ele>15.80000019073486328125</ele>
        <time>2021-09-27T12:10:56.000Z</time>
      </trkpt>
      <trkpt lat="39.56437896005809307098388671875" lon="-0.3303561173379421234130859375">
        <ele>15.80000019073486328125</ele>
        <time>2021-09-27T12:10:58.000Z</time>
      </trkpt>
      <trkpt lat="39.56429178826510906219482421875" lon="-0.330376066267490386962890625">
        <ele>15.6000003814697265625</ele>
        <time>2021-09-27T12:11:00.000Z</time>
      </trkpt>
      <trkpt lat="39.56425675190985202789306640625" lon="-0.33038335852324962615966796875">
        <ele>15.6000003814697265625</ele>
        <time>2021-09-27T12:11:01.000Z</time>
      </trkpt>
      <trkpt lat="39.56422573886811733245849609375" lon="-0.33039157278835773468017578125">
        <ele>15.6000003814697265625</ele>
        <time>2021-09-27T12:11:02.000Z</time>
      </trkpt>
      <trkpt lat="39.56416212022304534912109375" lon="-0.330410264432430267333984375">
        <ele>15.6000003814697265625</ele>
        <time>2021-09-27T12:11:04.000Z</time>
      </trkpt>
      <trkpt lat="39.56409749574959278106689453125" lon="-0.33043809235095977783203125">
        <ele>15.3999996185302734375</ele>
        <time>2021-09-27T12:11:06.000Z</time>
      </trkpt>
      <trkpt lat="39.56401904113590717315673828125" lon="-0.33049534074962139129638671875">
        <ele>15.3999996185302734375</ele>
        <time>2021-09-27T12:11:08.000Z</time>
      </trkpt>
      <trkpt lat="39.56393974833190441131591796875" lon="-0.33055719919502735137939453125">
        <ele>15.19999980926513671875</ele>
        <time>2021-09-27T12:11:10.000Z</time>
      </trkpt>
      <trkpt lat="39.5639054663479328155517578125" lon="-0.330589972436428070068359375">
        <ele>15.19999980926513671875</ele>
        <time>2021-09-27T12:11:11.000Z</time>
      </trkpt>
      <trkpt lat="39.5638729445636272430419921875" lon="-0.330623500049114227294921875">
        <ele>15</ele>
        <time>2021-09-27T12:11:12.000Z</time>
      </trkpt>
      <trkpt lat="39.5638449490070343017578125" lon="-0.33066079951822757720947265625">
        <ele>15</ele>
        <time>2021-09-27T12:11:13.000Z</time>
      </trkpt>
      <trkpt lat="39.56381988711655139923095703125" lon="-0.33070094883441925048828125">
        <ele>14.80000019073486328125</ele>
        <time>2021-09-27T12:11:14.000Z</time>
      </trkpt>
      <trkpt lat="39.563784934580326080322265625" lon="-0.33076942898333072662353515625">
        <ele>14.80000019073486328125</ele>
        <time>2021-09-27T12:11:16.000Z</time>
      </trkpt>
      <trkpt lat="39.56375584937632083892822265625" lon="-0.33080128021538257598876953125">
        <ele>14.6000003814697265625</ele>
        <time>2021-09-27T12:11:18.000Z</time>
      </trkpt>
      <trkpt lat="39.56372483633458614349365234375" lon="-0.33078401349484920501708984375">
        <ele>14.6000003814697265625</ele>
        <time>2021-09-27T12:11:20.000Z</time>
      </trkpt>
      <trkpt lat="39.563693739473819732666015625" lon="-0.3307641483843326568603515625">
        <ele>14.6000003814697265625</ele>
        <time>2021-09-27T12:11:22.000Z</time>
      </trkpt>
      <trkpt lat="39.563672952353954315185546875" lon="-0.33076708205044269561767578125">
        <ele>14.6000003814697265625</ele>
        <time>2021-09-27T12:11:23.000Z</time>
      </trkpt>
      <trkpt lat="39.563653506338596343994140625" lon="-0.33078317530453205108642578125">
        <ele>14.6000003814697265625</ele>
        <time>2021-09-27T12:11:24.000Z</time>
      </trkpt>
      <trkpt lat="39.56363976001739501953125" lon="-0.330809913575649261474609375">
        <ele>14.3999996185302734375</ele>
        <time>2021-09-27T12:11:25.000Z</time>
      </trkpt>
      <trkpt lat="39.563632048666477203369140625" lon="-0.3308402560651302337646484375">
        <ele>14.3999996185302734375</ele>
        <time>2021-09-27T12:11:26.000Z</time>
      </trkpt>
      <trkpt lat="39.563615620136260986328125" lon="-0.33090085722506046295166015625">
        <ele>14.19999980926513671875</ele>
        <time>2021-09-27T12:11:28.000Z</time>
      </trkpt>
      <trkpt lat="39.56358938477933406829833984375" lon="-0.33096221275627613067626953125">
        <ele>14</ele>
        <time>2021-09-27T12:11:30.000Z</time>
      </trkpt>
      <trkpt lat="39.563565663993358612060546875" lon="-0.33101434819400310516357421875">
        <ele>14</ele>
        <time>2021-09-27T12:11:32.000Z</time>
      </trkpt>
      <trkpt lat="39.56354546360671520233154296875" lon="-0.3310477919876575469970703125">
        <ele>13.80000019073486328125</ele>
        <time>2021-09-27T12:11:34.000Z</time>
      </trkpt>
      <trkpt lat="39.56351009197533130645751953125" lon="-0.33107645809650421142578125">
        <ele>13.6000003814697265625</ele>
        <time>2021-09-27T12:11:36.000Z</time>
      </trkpt>
      <trkpt lat="39.5634649135172367095947265625" lon="-0.3311171941459178924560546875">
        <ele>13.3999996185302734375</ele>
        <time>2021-09-27T12:11:38.000Z</time>
      </trkpt>
      <trkpt lat="39.5634132809937000274658203125" lon="-0.3311641328036785125732421875">
        <ele>13.19999980926513671875</ele>
        <time>2021-09-27T12:11:40.000Z</time>
      </trkpt>
      <trkpt lat="39.563343040645122528076171875" lon="-0.331218279898166656494140625">
        <ele>13</ele>
        <time>2021-09-27T12:11:42.000Z</time>
      </trkpt>
      <trkpt lat="39.56330624409019947052001953125" lon="-0.33123160712420940399169921875">
        <ele>12.80000019073486328125</ele>
        <time>2021-09-27T12:11:43.000Z</time>
      </trkpt>
      <trkpt lat="39.5632650889456272125244140625" lon="-0.331231020390987396240234375">
        <ele>12.6000003814697265625</ele>
        <time>2021-09-27T12:11:44.000Z</time>
      </trkpt>
      <trkpt lat="39.5631846226751804351806640625" lon="-0.33120813779532909393310546875">
        <ele>12.3999996185302734375</ele>
        <time>2021-09-27T12:11:46.000Z</time>
      </trkpt>
      <trkpt lat="39.56309921108186244964599609375" lon="-0.33118131570518016815185546875">
        <ele>12</ele>
        <time>2021-09-27T12:11:48.000Z</time>
      </trkpt>
      <trkpt lat="39.56301388330757617950439453125" lon="-0.33115298487246036529541015625">
        <ele>11.80000019073486328125</ele>
        <time>2021-09-27T12:11:50.000Z</time>
      </trkpt>
      <trkpt lat="39.56293425522744655609130859375" lon="-0.33111560158431529998779296875">
        <ele>11.3999996185302734375</ele>
        <time>2021-09-27T12:11:52.000Z</time>
      </trkpt>
      <trkpt lat="39.562863595783710479736328125" lon="-0.33108106814324855804443359375">
        <ele>11</ele>
        <time>2021-09-27T12:11:54.000Z</time>
      </trkpt>
      <trkpt lat="39.56282612867653369903564453125" lon="-0.33106765709817409515380859375">
        <ele>11</ele>
        <time>2021-09-27T12:11:55.000Z</time>
      </trkpt>
      <trkpt lat="39.56278656609356403350830078125" lon="-0.331060029566287994384765625">
        <ele>11</ele>
        <time>2021-09-27T12:11:56.000Z</time>
      </trkpt>
      <trkpt lat="39.5627103745937347412109375" lon="-0.331067740917205810546875">
        <ele>11</ele>
        <time>2021-09-27T12:11:58.000Z</time>
      </trkpt>
      <trkpt lat="39.56267726607620716094970703125" lon="-0.3310811519622802734375">
        <ele>11</ele>
        <time>2021-09-27T12:11:59.000Z</time>
      </trkpt>
      <trkpt lat="39.5626421459019184112548828125" lon="-0.331096239387989044189453125">
        <ele>11</ele>
        <time>2021-09-27T12:12:00.000Z</time>
      </trkpt>
      <trkpt lat="39.562580622732639312744140625" lon="-0.3311302699148654937744140625">
        <ele>11</ele>
        <time>2021-09-27T12:12:02.000Z</time>
      </trkpt>
      <trkpt lat="39.56251901574432849884033203125" lon="-0.3311772085726261138916015625">
        <ele>11</ele>
        <time>2021-09-27T12:12:04.000Z</time>
      </trkpt>
      <trkpt lat="39.56248314119875431060791015625" lon="-0.33120009116828441619873046875">
        <ele>11</ele>
        <time>2021-09-27T12:12:05.000Z</time>
      </trkpt>
      <trkpt lat="39.56244626082479953765869140625" lon="-0.3312271647155284881591796875">
        <ele>11</ele>
        <time>2021-09-27T12:12:06.000Z</time>
      </trkpt>
      <trkpt lat="39.5623628608882427215576171875" lon="-0.331283323466777801513671875">
        <ele>11</ele>
        <time>2021-09-27T12:12:08.000Z</time>
      </trkpt>
      <trkpt lat="39.56227476708590984344482421875" lon="-0.3313418291509151458740234375">
        <ele>11.19999980926513671875</ele>
        <time>2021-09-27T12:12:10.000Z</time>
      </trkpt>
      <trkpt lat="39.56223201937973499298095703125" lon="-0.33137124963104724884033203125">
        <ele>11.3999996185302734375</ele>
        <time>2021-09-27T12:12:11.000Z</time>
      </trkpt>
      <trkpt lat="39.56218843348324298858642578125" lon="-0.33140075393021106719970703125">
        <ele>11.6000003814697265625</ele>
        <time>2021-09-27T12:12:12.000Z</time>
      </trkpt>
      <trkpt lat="39.5620939694344997406005859375" lon="-0.33145607449114322662353515625">
        <ele>12</ele>
        <time>2021-09-27T12:12:14.000Z</time>
      </trkpt>
      <trkpt lat="39.562000595033168792724609375" lon="-0.3315111435949802398681640625">
        <ele>12.19999980926513671875</ele>
        <time>2021-09-27T12:12:16.000Z</time>
      </trkpt>
      <trkpt lat="39.5619057118892669677734375" lon="-0.33155632205307483673095703125">
        <ele>12.19999980926513671875</ele>
        <time>2021-09-27T12:12:18.000Z</time>
      </trkpt>
      <trkpt lat="39.56180739216506481170654296875" lon="-0.3315872512757778167724609375">
        <ele>12.19999980926513671875</ele>
        <time>2021-09-27T12:12:20.000Z</time>
      </trkpt>
      <trkpt lat="39.561712257564067840576171875" lon="-0.33163879998028278350830078125">
        <ele>12.19999980926513671875</ele>
        <time>2021-09-27T12:12:22.000Z</time>
      </trkpt>
      <trkpt lat="39.5616668276488780975341796875" lon="-0.33166679553687572479248046875">
        <ele>12.3999996185302734375</ele>
        <time>2021-09-27T12:12:23.000Z</time>
      </trkpt>
      <trkpt lat="39.56162399612367153167724609375" lon="-0.3316935338079929351806640625">
        <ele>12.3999996185302734375</ele>
        <time>2021-09-27T12:12:24.000Z</time>
      </trkpt>
      <trkpt lat="39.5615350641310214996337890625" lon="-0.3317498601973056793212890625">
        <ele>12.6000003814697265625</ele>
        <time>2021-09-27T12:12:26.000Z</time>
      </trkpt>
      <trkpt lat="39.561454094946384429931640625" lon="-0.3318125568330287933349609375">
        <ele>12.80000019073486328125</ele>
        <time>2021-09-27T12:12:28.000Z</time>
      </trkpt>
      <trkpt lat="39.56136750988662242889404296875" lon="-0.33187039196491241455078125">
        <ele>13</ele>
        <time>2021-09-27T12:12:30.000Z</time>
      </trkpt>
      <trkpt lat="39.561285786330699920654296875" lon="-0.33192797563970088958740234375">
        <ele>13.19999980926513671875</ele>
        <time>2021-09-27T12:12:32.000Z</time>
      </trkpt>
      <trkpt lat="39.561242200434207916259765625" lon="-0.33195178024470806121826171875">
        <ele>13.19999980926513671875</ele>
        <time>2021-09-27T12:12:33.000Z</time>
      </trkpt>
      <trkpt lat="39.56119953654706478118896484375" lon="-0.33197768032550811767578125">
        <ele>13.19999980926513671875</ele>
        <time>2021-09-27T12:12:34.000Z</time>
      </trkpt>
      <trkpt lat="39.56110867671668529510498046875" lon="-0.3320291452109813690185546875">
        <ele>13.3999996185302734375</ele>
        <time>2021-09-27T12:12:36.000Z</time>
      </trkpt>
      <trkpt lat="39.56101731397211551666259765625" lon="-0.33207952044904232025146484375">
        <ele>13.6000003814697265625</ele>
        <time>2021-09-27T12:12:38.000Z</time>
      </trkpt>
      <trkpt lat="39.56093517132103443145751953125" lon="-0.332148335874080657958984375">
        <ele>13.80000019073486328125</ele>
        <time>2021-09-27T12:12:40.000Z</time>
      </trkpt>
      <trkpt lat="39.56086727790534496307373046875" lon="-0.3322232700884342193603515625">
        <ele>14</ele>
        <time>2021-09-27T12:12:42.000Z</time>
      </trkpt>
      <trkpt lat="39.5608363486826419830322265625" lon="-0.33225973136723041534423828125">
        <ele>14</ele>
        <time>2021-09-27T12:12:43.000Z</time>
      </trkpt>
      <trkpt lat="39.5608086884021759033203125" lon="-0.33229879103600978851318359375">
        <ele>14.19999980926513671875</ele>
        <time>2021-09-27T12:12:44.000Z</time>
      </trkpt>
      <trkpt lat="39.56076635979115962982177734375" lon="-0.33237732946872711181640625">
        <ele>14.3999996185302734375</ele>
        <time>2021-09-27T12:12:46.000Z</time>
      </trkpt>
      <trkpt lat="39.56073417328298091888427734375" lon="-0.33245989121496677398681640625">
        <ele>14.6000003814697265625</ele>
        <time>2021-09-27T12:12:48.000Z</time>
      </trkpt>
      <trkpt lat="39.5607156492769718170166015625" lon="-0.332542955875396728515625">
        <ele>15</ele>
        <time>2021-09-27T12:12:50.000Z</time>
      </trkpt>
      <trkpt lat="39.56070869229733943939208984375" lon="-0.3325711190700531005859375">
        <ele>15</ele>
        <time>2021-09-27T12:12:51.000Z</time>
      </trkpt>
      <trkpt lat="39.56069410778582096099853515625" lon="-0.332591235637664794921875">
        <ele>15</ele>
        <time>2021-09-27T12:12:52.000Z</time>
      </trkpt>
      <trkpt lat="39.56064172089099884033203125" lon="-0.33261093311011791229248046875">
        <ele>15</ele>
        <time>2021-09-27T12:12:54.000Z</time>
      </trkpt>
      <trkpt lat="39.56060777418315410614013671875" lon="-0.332621075212955474853515625">
        <ele>15</ele>
        <time>2021-09-27T12:12:55.000Z</time>
      </trkpt>
      <trkpt lat="39.56057407893240451812744140625" lon="-0.33263289369642734527587890625">
        <ele>15</ele>
        <time>2021-09-27T12:12:56.000Z</time>
      </trkpt>
      <trkpt lat="39.5604987256228923797607421875" lon="-0.3326596319675445556640625">
        <ele>15</ele>
        <time>2021-09-27T12:12:58.000Z</time>
      </trkpt>
      <trkpt lat="39.56046058796346187591552734375" lon="-0.33265921287238597869873046875">
        <ele>15</ele>
        <time>2021-09-27T12:12:59.000Z</time>
      </trkpt>
      <trkpt lat="39.560426808893680572509765625" lon="-0.33264814876019954681396484375">
        <ele>15</ele>
        <time>2021-09-27T12:13:00.000Z</time>
      </trkpt>
      <trkpt lat="39.56035447306931018829345703125" lon="-0.33262350596487522125244140625">
        <ele>14.80000019073486328125</ele>
        <time>2021-09-27T12:13:02.000Z</time>
      </trkpt>
      <trkpt lat="39.56027853302657604217529296875" lon="-0.3326028026640415191650390625">
        <ele>14.6000003814697265625</ele>
        <time>2021-09-27T12:13:04.000Z</time>
      </trkpt>
      <trkpt lat="39.560196138918399810791015625" lon="-0.3325979411602020263671875">
        <ele>14.3999996185302734375</ele>
        <time>2021-09-27T12:13:06.000Z</time>
      </trkpt>
      <trkpt lat="39.56015221774578094482421875" lon="-0.33260422758758068084716796875">
        <ele>14.19999980926513671875</ele>
        <time>2021-09-27T12:13:07.000Z</time>
      </trkpt>
      <trkpt lat="39.5601059496402740478515625" lon="-0.33261361531913280487060546875">
        <ele>14.19999980926513671875</ele>
        <time>2021-09-27T12:13:08.000Z</time>
      </trkpt>
      <trkpt lat="39.5600628666579723358154296875" lon="-0.33262970857322216033935546875">
        <ele>14</ele>
        <time>2021-09-27T12:13:09.000Z</time>
      </trkpt>
      <trkpt lat="39.56001869402825832366943359375" lon="-0.33265150152146816253662109375">
        <ele>14</ele>
        <time>2021-09-27T12:13:10.000Z</time>
      </trkpt>
      <trkpt lat="39.559928588569164276123046875" lon="-0.33270279876887798309326171875">
        <ele>14</ele>
        <time>2021-09-27T12:13:12.000Z</time>
      </trkpt>
      <trkpt lat="39.559840075671672821044921875" lon="-0.332753844559192657470703125">
        <ele>14</ele>
        <time>2021-09-27T12:13:14.000Z</time>
      </trkpt>
      <trkpt lat="39.55975055694580078125" lon="-0.33281008712947368621826171875">
        <ele>14</ele>
        <time>2021-09-27T12:13:16.000Z</time>
      </trkpt>
      <trkpt lat="39.55965843982994556427001953125" lon="-0.3328688442707061767578125">
        <ele>14</ele>
        <time>2021-09-27T12:13:18.000Z</time>
      </trkpt>
      <trkpt lat="39.5595649816095829010009765625" lon="-0.33292584121227264404296875">
        <ele>14</ele>
        <time>2021-09-27T12:13:20.000Z</time>
      </trkpt>
      <trkpt lat="39.55947420559823513031005859375" lon="-0.33298359252512454986572265625">
        <ele>14</ele>
        <time>2021-09-27T12:13:22.000Z</time>
      </trkpt>
      <trkpt lat="39.559382759034633636474609375" lon="-0.333036817610263824462890625">
        <ele>14</ele>
        <time>2021-09-27T12:13:24.000Z</time>
      </trkpt>
      <trkpt lat="39.5592959225177764892578125" lon="-0.33309255726635456085205078125">
        <ele>14.19999980926513671875</ele>
        <time>2021-09-27T12:13:26.000Z</time>
      </trkpt>
      <trkpt lat="39.55921403132379055023193359375" lon="-0.33314469270408153533935546875">
        <ele>14.19999980926513671875</ele>
        <time>2021-09-27T12:13:28.000Z</time>
      </trkpt>
      <trkpt lat="39.559133984148502349853515625" lon="-0.33319867216050624847412109375">
        <ele>14.19999980926513671875</ele>
        <time>2021-09-27T12:13:30.000Z</time>
      </trkpt>
      <trkpt lat="39.55905645154416561126708984375" lon="-0.3332535736262798309326171875">
        <ele>14.19999980926513671875</ele>
        <time>2021-09-27T12:13:32.000Z</time>
      </trkpt>
      <trkpt lat="39.55901923589408397674560546875" lon="-0.333283245563507080078125">
        <ele>14.19999980926513671875</ele>
        <time>2021-09-27T12:13:33.000Z</time>
      </trkpt>
      <trkpt lat="39.55898202024400234222412109375" lon="-0.33330864273011684417724609375">
        <ele>14.19999980926513671875</ele>
        <time>2021-09-27T12:13:34.000Z</time>
      </trkpt>
      <trkpt lat="39.558903984725475311279296875" lon="-0.333368740975856781005859375">
        <ele>14.19999980926513671875</ele>
        <time>2021-09-27T12:13:36.000Z</time>
      </trkpt>
      <trkpt lat="39.55880977213382720947265625" lon="-0.33341542817652225494384765625">
        <ele>14.3999996185302734375</ele>
        <time>2021-09-27T12:13:38.000Z</time>
      </trkpt>
      <trkpt lat="39.558719582855701446533203125" lon="-0.33346496522426605224609375">
        <ele>14.3999996185302734375</ele>
        <time>2021-09-27T12:13:40.000Z</time>
      </trkpt>
      <trkpt lat="39.55862796865403652191162109375" lon="-0.33351567573845386505126953125">
        <ele>14.3999996185302734375</ele>
        <time>2021-09-27T12:13:42.000Z</time>
      </trkpt>
      <trkpt lat="39.5585829578340053558349609375" lon="-0.333539061248302459716796875">
        <ele>14.3999996185302734375</ele>
        <time>2021-09-27T12:13:43.000Z</time>
      </trkpt>
      <trkpt lat="39.55853928811848163604736328125" lon="-0.33356663770973682403564453125">
        <ele>14.19999980926513671875</ele>
        <time>2021-09-27T12:13:44.000Z</time>
      </trkpt>
      <trkpt lat="39.55844490788877010345458984375" lon="-0.33362044952809810638427734375">
        <ele>14.19999980926513671875</ele>
        <time>2021-09-27T12:13:46.000Z</time>
      </trkpt>
      <trkpt lat="39.55835320986807346343994140625" lon="-0.33367216587066650390625">
        <ele>14.19999980926513671875</ele>
        <time>2021-09-27T12:13:48.000Z</time>
      </trkpt>
      <trkpt lat="39.55826218239963054656982421875" lon="-0.3337199427187442779541015625">
        <ele>14.19999980926513671875</ele>
        <time>2021-09-27T12:13:50.000Z</time>
      </trkpt>
      <trkpt lat="39.55817702226340770721435546875" lon="-0.33376914449036121368408203125">
        <ele>14</ele>
        <time>2021-09-27T12:13:52.000Z</time>
      </trkpt>
      <trkpt lat="39.558095969259738922119140625" lon="-0.333825051784515380859375">
        <ele>14</ele>
        <time>2021-09-27T12:13:54.000Z</time>
      </trkpt>
      <trkpt lat="39.55800971947610378265380859375" lon="-0.33388062380254268646240234375">
        <ele>14.19999980926513671875</ele>
        <time>2021-09-27T12:13:56.000Z</time>
      </trkpt>
      <trkpt lat="39.55791701562702655792236328125" lon="-0.33394399099051952362060546875">
        <ele>14.3999996185302734375</ele>
        <time>2021-09-27T12:13:58.000Z</time>
      </trkpt>
      <trkpt lat="39.55782783217728137969970703125" lon="-0.3339958749711513519287109375">
        <ele>14.3999996185302734375</ele>
        <time>2021-09-27T12:14:00.000Z</time>
      </trkpt>
      <trkpt lat="39.55774887464940547943115234375" lon="-0.33404926769435405731201171875">
        <ele>14.19999980926513671875</ele>
        <time>2021-09-27T12:14:02.000Z</time>
      </trkpt>
      <trkpt lat="39.557669162750244140625" lon="-0.334092937409877777099609375">
        <ele>14</ele>
        <time>2021-09-27T12:14:04.000Z</time>
      </trkpt>
      <trkpt lat="39.5576284267008304595947265625" lon="-0.3341132216155529022216796875">
        <ele>14</ele>
        <time>2021-09-27T12:14:05.000Z</time>
      </trkpt>
      <trkpt lat="39.55758777447044849395751953125" lon="-0.33413660712540149688720703125">
        <ele>13.80000019073486328125</ele>
        <time>2021-09-27T12:14:06.000Z</time>
      </trkpt>
      <trkpt lat="39.55750043503940105438232421875" lon="-0.3341799415647983551025390625">
        <ele>13.6000003814697265625</ele>
        <time>2021-09-27T12:14:08.000Z</time>
      </trkpt>
      <trkpt lat="39.55740890465676784515380859375" lon="-0.33422528766095638275146484375">
        <ele>13.6000003814697265625</ele>
        <time>2021-09-27T12:14:10.000Z</time>
      </trkpt>
      <trkpt lat="39.55731754191219806671142578125" lon="-0.33427339978516101837158203125">
        <ele>13.6000003814697265625</ele>
        <time>2021-09-27T12:14:12.000Z</time>
      </trkpt>
      <trkpt lat="39.55722768791019916534423828125" lon="-0.33432662487030029296875">
        <ele>13.3999996185302734375</ele>
        <time>2021-09-27T12:14:14.000Z</time>
      </trkpt>
      <trkpt lat="39.5571825094521045684814453125" lon="-0.33435068093240261077880859375">
        <ele>13.3999996185302734375</ele>
        <time>2021-09-27T12:14:15.000Z</time>
      </trkpt>
      <trkpt lat="39.5571355707943439483642578125" lon="-0.3343735635280609130859375">
        <ele>13.3999996185302734375</ele>
        <time>2021-09-27T12:14:16.000Z</time>
      </trkpt>
      <trkpt lat="39.5570463873445987701416015625" lon="-0.33442159183323383331298828125">
        <ele>13.3999996185302734375</ele>
        <time>2021-09-27T12:14:18.000Z</time>
      </trkpt>
      <trkpt lat="39.55696231685578823089599609375" lon="-0.33447674475610256195068359375">
        <ele>13.3999996185302734375</ele>
        <time>2021-09-27T12:14:20.000Z</time>
      </trkpt>
      <trkpt lat="39.55688235349953174591064453125" lon="-0.3345326520502567291259765625">
        <ele>13.3999996185302734375</ele>
        <time>2021-09-27T12:14:22.000Z</time>
      </trkpt>
      <trkpt lat="39.55680523999035358428955078125" lon="-0.33458746969699859619140625">
        <ele>13.3999996185302734375</ele>
        <time>2021-09-27T12:14:24.000Z</time>
      </trkpt>
      <trkpt lat="39.5567721314728260040283203125" lon="-0.3346184827387332916259765625">
        <ele>13.3999996185302734375</ele>
        <time>2021-09-27T12:14:25.000Z</time>
      </trkpt>
      <trkpt lat="39.5567369274795055389404296875" lon="-0.3346503339707851409912109375">
        <ele>13.3999996185302734375</ele>
        <time>2021-09-27T12:14:26.000Z</time>
      </trkpt>
      <trkpt lat="39.55666207708418369293212890625" lon="-0.33469551242887973785400390625">
        <ele>13.3999996185302734375</ele>
        <time>2021-09-27T12:14:28.000Z</time>
      </trkpt>
      <trkpt lat="39.55663156695663928985595703125" lon="-0.33471814356744289398193359375">
        <ele>13.3999996185302734375</ele>
        <time>2021-09-27T12:14:29.000Z</time>
      </trkpt>
      <trkpt lat="39.55659736879169940948486328125" lon="-0.33474379219114780426025390625">
        <ele>13.3999996185302734375</ele>
        <time>2021-09-27T12:14:30.000Z</time>
      </trkpt>
      <trkpt lat="39.55652453005313873291015625" lon="-0.334784947335720062255859375">
        <ele>13.6000003814697265625</ele>
        <time>2021-09-27T12:14:32.000Z</time>
      </trkpt>
      <trkpt lat="39.55646024085581302642822265625" lon="-0.33481839112937450408935546875">
        <ele>13.6000003814697265625</ele>
        <time>2021-09-27T12:14:34.000Z</time>
      </trkpt>
      <trkpt lat="39.55638916231691837310791015625" lon="-0.3348525054752826690673828125">
        <ele>13.80000019073486328125</ele>
        <time>2021-09-27T12:14:36.000Z</time>
      </trkpt>
      <trkpt lat="39.55631976015865802764892578125" lon="-0.334903635084629058837890625">
        <ele>13.80000019073486328125</ele>
        <time>2021-09-27T12:14:38.000Z</time>
      </trkpt>
      <trkpt lat="39.556285478174686431884765625" lon="-0.33492785878479480743408203125">
        <ele>13.80000019073486328125</ele>
        <time>2021-09-27T12:14:39.000Z</time>
      </trkpt>
      <trkpt lat="39.55625806935131549835205078125" lon="-0.334956608712673187255859375">
        <ele>14</ele>
        <time>2021-09-27T12:14:40.000Z</time>
      </trkpt>
      <trkpt lat="39.55621766857802867889404296875" lon="-0.3350228257477283477783203125">
        <ele>14</ele>
        <time>2021-09-27T12:14:42.000Z</time>
      </trkpt>
      <trkpt lat="39.556177519261837005615234375" lon="-0.335118882358074188232421875">
        <ele>14</ele>
        <time>2021-09-27T12:14:44.000Z</time>
      </trkpt>
      <trkpt lat="39.5561381243169307708740234375" lon="-0.33522449433803558349609375">
        <ele>14</ele>
        <time>2021-09-27T12:14:46.000Z</time>
      </trkpt>
      <trkpt lat="39.55609009601175785064697265625" lon="-0.3353014402091503143310546875">
        <ele>13.80000019073486328125</ele>
        <time>2021-09-27T12:14:48.000Z</time>
      </trkpt>
      <trkpt lat="39.55606914125382900238037109375" lon="-0.3353228978812694549560546875">
        <ele>13.80000019073486328125</ele>
        <time>2021-09-27T12:14:49.000Z</time>
      </trkpt>
      <trkpt lat="39.5560496114194393157958984375" lon="-0.3353423438966274261474609375">
        <ele>13.80000019073486328125</ele>
        <time>2021-09-27T12:14:50.000Z</time>
      </trkpt>
      <trkpt lat="39.555992446839809417724609375" lon="-0.3353725187480449676513671875">
        <ele>13.80000019073486328125</ele>
        <time>2021-09-27T12:14:52.000Z</time>
      </trkpt>
      <trkpt lat="39.55592631362378597259521484375" lon="-0.33539758063852787017822265625">
        <ele>13.80000019073486328125</ele>
        <time>2021-09-27T12:14:54.000Z</time>
      </trkpt>
      <trkpt lat="39.55586026422679424285888671875" lon="-0.335433371365070343017578125">
        <ele>13.6000003814697265625</ele>
        <time>2021-09-27T12:14:56.000Z</time>
      </trkpt>
      <trkpt lat="39.555820785462856292724609375" lon="-0.33544720150530338287353515625">
        <ele>13.6000003814697265625</ele>
        <time>2021-09-27T12:14:57.000Z</time>
      </trkpt>
      <trkpt lat="39.555774517357349395751953125" lon="-0.3354464471340179443359375">
        <ele>13.6000003814697265625</ele>
        <time>2021-09-27T12:14:58.000Z</time>
      </trkpt>
      <trkpt lat="39.55572816543281078338623046875" lon="-0.33543311990797519683837890625">
        <ele>13.3999996185302734375</ele>
        <time>2021-09-27T12:14:59.000Z</time>
      </trkpt>
      <trkpt lat="39.5556828193366527557373046875" lon="-0.335411243140697479248046875">
        <ele>13.3999996185302734375</ele>
        <time>2021-09-27T12:15:00.000Z</time>
      </trkpt>
      <trkpt lat="39.55563462339341640472412109375" lon="-0.335391797125339508056640625">
        <ele>13.3999996185302734375</ele>
        <time>2021-09-27T12:15:01.000Z</time>
      </trkpt>
      <trkpt lat="39.55558366142213344573974609375" lon="-0.33537872135639190673828125">
        <ele>13.19999980926513671875</ele>
        <time>2021-09-27T12:15:02.000Z</time>
      </trkpt>
      <trkpt lat="39.55553269945085048675537109375" lon="-0.335372351109981536865234375">
        <ele>13.19999980926513671875</ele>
        <time>2021-09-27T12:15:03.000Z</time>
      </trkpt>
      <trkpt lat="39.5554833300411701202392578125" lon="-0.33537511713802814483642578125">
        <ele>13.19999980926513671875</ele>
        <time>2021-09-27T12:15:04.000Z</time>
      </trkpt>
      <trkpt lat="39.555434882640838623046875" lon="-0.33538467250764369964599609375">
        <ele>13.19999980926513671875</ele>
        <time>2021-09-27T12:15:05.000Z</time>
      </trkpt>
      <trkpt lat="39.5553860999643802642822265625" lon="-0.33540152013301849365234375">
        <ele>13</ele>
        <time>2021-09-27T12:15:06.000Z</time>
      </trkpt>
      <trkpt lat="39.55529113300144672393798828125" lon="-0.33545105718076229095458984375">
        <ele>13</ele>
        <time>2021-09-27T12:15:08.000Z</time>
      </trkpt>
      <trkpt lat="39.55519876442849636077880859375" lon="-0.33550788648426532745361328125">
        <ele>13.19999980926513671875</ele>
        <time>2021-09-27T12:15:10.000Z</time>
      </trkpt>
      <trkpt lat="39.55510337837040424346923828125" lon="-0.3355653025209903717041015625">
        <ele>13.3999996185302734375</ele>
        <time>2021-09-27T12:15:12.000Z</time>
      </trkpt>
      <trkpt lat="39.555006064474582672119140625" lon="-0.33562489785254001617431640625">
        <ele>13.6000003814697265625</ele>
        <time>2021-09-27T12:15:14.000Z</time>
      </trkpt>
      <trkpt lat="39.5549063198268413543701171875" lon="-0.33568357117474079132080078125">
        <ele>13.80000019073486328125</ele>
        <time>2021-09-27T12:15:16.000Z</time>
      </trkpt>
      <trkpt lat="39.5548104308545589447021484375" lon="-0.335735790431499481201171875">
        <ele>14</ele>
        <time>2021-09-27T12:15:18.000Z</time>
      </trkpt>
      <trkpt lat="39.55472216941416263580322265625" lon="-0.33578784205019474029541015625">
        <ele>14.19999980926513671875</ele>
        <time>2021-09-27T12:15:20.000Z</time>
      </trkpt>
      <trkpt lat="39.55463223159313201904296875" lon="-0.33583696000277996063232421875">
        <ele>14.19999980926513671875</ele>
        <time>2021-09-27T12:15:22.000Z</time>
      </trkpt>
      <trkpt lat="39.5545864664018154144287109375" lon="-0.33586244098842144012451171875">
        <ele>14.3999996185302734375</ele>
        <time>2021-09-27T12:15:23.000Z</time>
      </trkpt>
      <trkpt lat="39.554541371762752532958984375" lon="-0.33588834106922149658203125">
        <ele>14.3999996185302734375</ele>
        <time>2021-09-27T12:15:24.000Z</time>
      </trkpt>
      <trkpt lat="39.55444858409464359283447265625" lon="-0.33593955449759960174560546875">
        <ele>14.6000003814697265625</ele>
        <time>2021-09-27T12:15:26.000Z</time>
      </trkpt>
      <trkpt lat="39.55435772426426410675048828125" lon="-0.33599822781980037689208984375">
        <ele>14.80000019073486328125</ele>
        <time>2021-09-27T12:15:28.000Z</time>
      </trkpt>
      <trkpt lat="39.55426736734807491302490234375" lon="-0.33605254255235195159912109375">
        <ele>15</ele>
        <time>2021-09-27T12:15:30.000Z</time>
      </trkpt>
      <trkpt lat="39.55417499877512454986572265625" lon="-0.33610819838941097259521484375">
        <ele>15.19999980926513671875</ele>
        <time>2021-09-27T12:15:32.000Z</time>
      </trkpt>
      <trkpt lat="39.5540828816592693328857421875" lon="-0.3361630998551845550537109375">
        <ele>15.3999996185302734375</ele>
        <time>2021-09-27T12:15:34.000Z</time>
      </trkpt>
      <trkpt lat="39.55399042926728725433349609375" lon="-0.3362133912742137908935546875">
        <ele>15.6000003814697265625</ele>
        <time>2021-09-27T12:15:36.000Z</time>
      </trkpt>
      <trkpt lat="39.55390132963657379150390625" lon="-0.33626653254032135009765625">
        <ele>15.6000003814697265625</ele>
        <time>2021-09-27T12:15:38.000Z</time>
      </trkpt>
      <trkpt lat="39.55381239764392375946044921875" lon="-0.3363200090825557708740234375">
        <ele>15.80000019073486328125</ele>
        <time>2021-09-27T12:15:40.000Z</time>
      </trkpt>
      <trkpt lat="39.5537227950990200042724609375" lon="-0.33637306652963161468505859375">
        <ele>16</ele>
        <time>2021-09-27T12:15:42.000Z</time>
      </trkpt>
      <trkpt lat="39.5536775328218936920166015625" lon="-0.33640039153397083282470703125">
        <ele>16</ele>
        <time>2021-09-27T12:15:43.000Z</time>
      </trkpt>
      <trkpt lat="39.5536315999925136566162109375" lon="-0.33642612397670745849609375">
        <ele>16</ele>
        <time>2021-09-27T12:15:44.000Z</time>
      </trkpt>
      <trkpt lat="39.55354300327599048614501953125" lon="-0.33647884614765644073486328125">
        <ele>16.200000762939453125</ele>
        <time>2021-09-27T12:15:46.000Z</time>
      </trkpt>
      <trkpt lat="39.553455747663974761962890625" lon="-0.33653207123279571533203125">
        <ele>16.200000762939453125</ele>
        <time>2021-09-27T12:15:48.000Z</time>
      </trkpt>
      <trkpt lat="39.55336622893810272216796875" lon="-0.33658705651760101318359375">
        <ele>16.3999996185302734375</ele>
        <time>2021-09-27T12:15:50.000Z</time>
      </trkpt>
      <trkpt lat="39.5532708428800106048583984375" lon="-0.3366452269256114959716796875">
        <ele>16.3999996185302734375</ele>
        <time>2021-09-27T12:15:52.000Z</time>
      </trkpt>
      <trkpt lat="39.55317352898418903350830078125" lon="-0.33670214004814624786376953125">
        <ele>16.3999996185302734375</ele>
        <time>2021-09-27T12:15:54.000Z</time>
      </trkpt>
      <trkpt lat="39.55307814292609691619873046875" lon="-0.3367632441222667694091796875">
        <ele>16.6000003814697265625</ele>
        <time>2021-09-27T12:15:56.000Z</time>
      </trkpt>
      <trkpt lat="39.55298091284930706024169921875" lon="-0.336823426187038421630859375">
        <ele>16.6000003814697265625</ele>
        <time>2021-09-27T12:15:58.000Z</time>
      </trkpt>
      <trkpt lat="39.552884437143802642822265625" lon="-0.33688436262309551239013671875">
        <ele>16.6000003814697265625</ele>
        <time>2021-09-27T12:16:00.000Z</time>
      </trkpt>
      <trkpt lat="39.55278796143829822540283203125" lon="-0.33694135956466197967529296875">
        <ele>16.6000003814697265625</ele>
        <time>2021-09-27T12:16:02.000Z</time>
      </trkpt>
      <trkpt lat="39.55269391648471355438232421875" lon="-0.336992405354976654052734375">
        <ele>16.3999996185302734375</ele>
        <time>2021-09-27T12:16:04.000Z</time>
      </trkpt>
      <trkpt lat="39.552605487406253814697265625" lon="-0.337045378983020782470703125">
        <ele>16.3999996185302734375</ele>
        <time>2021-09-27T12:16:06.000Z</time>
      </trkpt>
      <trkpt lat="39.55252326093614101409912109375" lon="-0.33709759823977947235107421875">
        <ele>16.200000762939453125</ele>
        <time>2021-09-27T12:16:08.000Z</time>
      </trkpt>
      <trkpt lat="39.55247984267771244049072265625" lon="-0.33712442032992839813232421875">
        <ele>16.200000762939453125</ele>
        <time>2021-09-27T12:16:09.000Z</time>
      </trkpt>
      <trkpt lat="39.55243491567671298980712890625" lon="-0.33715174533426761627197265625">
        <ele>16</ele>
        <time>2021-09-27T12:16:10.000Z</time>
      </trkpt>
      <trkpt lat="39.5523463189601898193359375" lon="-0.3372078202664852142333984375">
        <ele>15.80000019073486328125</ele>
        <time>2021-09-27T12:16:12.000Z</time>
      </trkpt>
      <trkpt lat="39.5522522740066051483154296875" lon="-0.33726255409419536590576171875">
        <ele>15.6000003814697265625</ele>
        <time>2021-09-27T12:16:14.000Z</time>
      </trkpt>
      <trkpt lat="39.552158229053020477294921875" lon="-0.3373177908360958099365234375">
        <ele>15.3999996185302734375</ele>
        <time>2021-09-27T12:16:16.000Z</time>
      </trkpt>
      <trkpt lat="39.5520628429949283599853515625" lon="-0.33737319521605968475341796875">
        <ele>15.19999980926513671875</ele>
        <time>2021-09-27T12:16:18.000Z</time>
      </trkpt>
      <trkpt lat="39.55196888186037540435791015625" lon="-0.3374294377863407135009765625">
        <ele>15</ele>
        <time>2021-09-27T12:16:20.000Z</time>
      </trkpt>
      <trkpt lat="39.55187818966805934906005859375" lon="-0.3374850936233997344970703125">
        <ele>15.3999996185302734375</ele>
        <time>2021-09-27T12:16:22.000Z</time>
      </trkpt>
      <trkpt lat="39.5517882518470287322998046875" lon="-0.33753563649952411651611328125">
        <ele>15.6000003814697265625</ele>
        <time>2021-09-27T12:16:24.000Z</time>
      </trkpt>
      <trkpt lat="39.55170334316790103912353515625" lon="-0.337583832442760467529296875">
        <ele>15.80000019073486328125</ele>
        <time>2021-09-27T12:16:26.000Z</time>
      </trkpt>
      <trkpt lat="39.55166210420429706573486328125" lon="-0.33760788850486278533935546875">
        <ele>15.80000019073486328125</ele>
        <time>2021-09-27T12:16:27.000Z</time>
      </trkpt>
      <trkpt lat="39.5516229607164859771728515625" lon="-0.33762909471988677978515625">
        <ele>16</ele>
        <time>2021-09-27T12:16:28.000Z</time>
      </trkpt>
      <trkpt lat="39.551545679569244384765625" lon="-0.337671674787998199462890625">
        <ele>16.200000762939453125</ele>
        <time>2021-09-27T12:16:30.000Z</time>
      </trkpt>
      <trkpt lat="39.5514667220413684844970703125" lon="-0.33771517686545848846435546875">
        <ele>16.3999996185302734375</ele>
        <time>2021-09-27T12:16:32.000Z</time>
      </trkpt>
      <trkpt lat="39.5513872615993022918701171875" lon="-0.33776630647480487823486328125">
        <ele>16.3999996185302734375</ele>
        <time>2021-09-27T12:16:34.000Z</time>
      </trkpt>
      <trkpt lat="39.55134929157793521881103515625" lon="-0.33778826706111431121826171875">
        <ele>16.6000003814697265625</ele>
        <time>2021-09-27T12:16:35.000Z</time>
      </trkpt>
      <trkpt lat="39.55131006427109241485595703125" lon="-0.33780855126678943634033203125">
        <ele>16.6000003814697265625</ele>
        <time>2021-09-27T12:16:36.000Z</time>
      </trkpt>
      <trkpt lat="39.5512263290584087371826171875" lon="-0.33785448409616947174072265625">
        <ele>16.799999237060546875</ele>
        <time>2021-09-27T12:16:38.000Z</time>
      </trkpt>
      <trkpt lat="39.55113865435123443603515625" lon="-0.33790175803005695343017578125">
        <ele>17</ele>
        <time>2021-09-27T12:16:40.000Z</time>
      </trkpt>
      <trkpt lat="39.551059193909168243408203125" lon="-0.33794903196394443511962890625">
        <ele>16.799999237060546875</ele>
        <time>2021-09-27T12:16:42.000Z</time>
      </trkpt>
      <trkpt lat="39.550985433161258697509765625" lon="-0.3379990719258785247802734375">
        <ele>16.6000003814697265625</ele>
        <time>2021-09-27T12:16:44.000Z</time>
      </trkpt>
      <trkpt lat="39.5509041287004947662353515625" lon="-0.33806361258029937744140625">
        <ele>16.6000003814697265625</ele>
        <time>2021-09-27T12:16:46.000Z</time>
      </trkpt>
      <trkpt lat="39.55087185837328433990478515625" lon="-0.33811029978096485137939453125">
        <ele>16.6000003814697265625</ele>
        <time>2021-09-27T12:16:47.000Z</time>
      </trkpt>
      <trkpt lat="39.550843946635723114013671875" lon="-0.33815941773355007171630859375">
        <ele>16.6000003814697265625</ele>
        <time>2021-09-27T12:16:48.000Z</time>
      </trkpt>
      <trkpt lat="39.55081318505108356475830078125" lon="-0.33820317126810550689697265625">
        <ele>16.6000003814697265625</ele>
        <time>2021-09-27T12:16:49.000Z</time>
      </trkpt>
      <trkpt lat="39.55078116618096828460693359375" lon="-0.33824600279331207275390625">
        <ele>16.799999237060546875</ele>
        <time>2021-09-27T12:16:50.000Z</time>
      </trkpt>
      <trkpt lat="39.55075467936694622039794921875" lon="-0.33829302527010440826416015625">
        <ele>16.799999237060546875</ele>
        <time>2021-09-27T12:16:51.000Z</time>
      </trkpt>
      <trkpt lat="39.55073473043739795684814453125" lon="-0.3383447416126728057861328125">
        <ele>16.799999237060546875</ele>
        <time>2021-09-27T12:16:52.000Z</time>
      </trkpt>
      <trkpt lat="39.5507217384874820709228515625" lon="-0.33845043741166591644287109375">
        <ele>17</ele>
        <time>2021-09-27T12:16:54.000Z</time>
      </trkpt>
      <trkpt lat="39.5507079921662807464599609375" lon="-0.33854029141366481781005859375">
        <ele>17</ele>
        <time>2021-09-27T12:16:56.000Z</time>
      </trkpt>
      <trkpt lat="39.55068946816027164459228515625" lon="-0.3385713882744312286376953125">
        <ele>17</ele>
        <time>2021-09-27T12:16:57.000Z</time>
      </trkpt>
      <trkpt lat="39.5506620593369007110595703125" lon="-0.338594019412994384765625">
        <ele>17</ele>
        <time>2021-09-27T12:16:58.000Z</time>
      </trkpt>
      <trkpt lat="39.550630711019039154052734375" lon="-0.3386114537715911865234375">
        <ele>17</ele>
        <time>2021-09-27T12:16:59.000Z</time>
      </trkpt>
      <trkpt lat="39.55060011707246303558349609375" lon="-0.33862553536891937255859375">
        <ele>17</ele>
        <time>2021-09-27T12:17:00.000Z</time>
      </trkpt>
      <trkpt lat="39.55053457058966159820556640625" lon="-0.3386552073061466217041015625">
        <ele>17</ele>
        <time>2021-09-27T12:17:02.000Z</time>
      </trkpt>
      <trkpt lat="39.55046801827847957611083984375" lon="-0.33867088146507740020751953125">
        <ele>17</ele>
        <time>2021-09-27T12:17:04.000Z</time>
      </trkpt>
      <trkpt lat="39.5504401065409183502197265625" lon="-0.3386629186570644378662109375">
        <ele>16.799999237060546875</ele>
        <time>2021-09-27T12:17:05.000Z</time>
      </trkpt>
      <trkpt lat="39.55041537992656230926513671875" lon="-0.33863936550915241241455078125">
        <ele>16.799999237060546875</ele>
        <time>2021-09-27T12:17:06.000Z</time>
      </trkpt>
      <trkpt lat="39.5503856241703033447265625" lon="-0.33861078321933746337890625">
        <ele>16.6000003814697265625</ele>
        <time>2021-09-27T12:17:07.000Z</time>
      </trkpt>
      <trkpt lat="39.55034681595861911773681640625" lon="-0.3385871462523937225341796875">
        <ele>16.3999996185302734375</ele>
        <time>2021-09-27T12:17:08.000Z</time>
      </trkpt>
      <trkpt lat="39.5502483285963535308837890625" lon="-0.33856811933219432830810546875">
        <ele>16.3999996185302734375</ele>
        <time>2021-09-27T12:17:10.000Z</time>
      </trkpt>
      <trkpt lat="39.5501977019011974334716796875" lon="-0.3385712206363677978515625">
        <ele>16.3999996185302734375</ele>
        <time>2021-09-27T12:17:11.000Z</time>
      </trkpt>
      <trkpt lat="39.55015134997665882110595703125" lon="-0.338583290576934814453125">
        <ele>16.3999996185302734375</ele>
        <time>2021-09-27T12:17:12.000Z</time>
      </trkpt>
      <trkpt lat="39.5500575564801692962646484375" lon="-0.33862059004604816436767578125">
        <ele>16.6000003814697265625</ele>
        <time>2021-09-27T12:17:14.000Z</time>
      </trkpt>
      <trkpt lat="39.54996258951723575592041015625" lon="-0.338669456541538238525390625">
        <ele>16.6000003814697265625</ele>
        <time>2021-09-27T12:17:16.000Z</time>
      </trkpt>
      <trkpt lat="39.54986854456365108489990234375" lon="-0.33872745931148529052734375">
        <ele>16.799999237060546875</ele>
        <time>2021-09-27T12:17:18.000Z</time>
      </trkpt>
      <trkpt lat="39.54978003166615962982177734375" lon="-0.33879493363201618194580078125">
        <ele>17</ele>
        <time>2021-09-27T12:17:20.000Z</time>
      </trkpt>
      <trkpt lat="39.54969470389187335968017578125" lon="-0.33886668272316455841064453125">
        <ele>17</ele>
        <time>2021-09-27T12:17:22.000Z</time>
      </trkpt>
      <trkpt lat="39.54965136945247650146484375" lon="-0.33890272490680217742919921875">
        <ele>17</ele>
        <time>2021-09-27T12:17:23.000Z</time>
      </trkpt>
      <trkpt lat="39.5496076159179210662841796875" lon="-0.3389385156333446502685546875">
        <ele>17</ele>
        <time>2021-09-27T12:17:24.000Z</time>
      </trkpt>
      <trkpt lat="39.54952036030590534210205078125" lon="-0.339010097086429595947265625">
        <ele>17</ele>
        <time>2021-09-27T12:17:26.000Z</time>
      </trkpt>
      <trkpt lat="39.54942933283746242523193359375" lon="-0.33907572738826274871826171875">
        <ele>17</ele>
        <time>2021-09-27T12:17:28.000Z</time>
      </trkpt>
      <trkpt lat="39.54933646135032176971435546875" lon="-0.3391416929662227630615234375">
        <ele>16.799999237060546875</ele>
        <time>2021-09-27T12:17:30.000Z</time>
      </trkpt>
      <trkpt lat="39.5492897741496562957763671875" lon="-0.3391732089221477508544921875">
        <ele>16.799999237060546875</ele>
        <time>2021-09-27T12:17:31.000Z</time>
      </trkpt>
      <trkpt lat="39.54924208112061023712158203125" lon="-0.3392027132213115692138671875">
        <ele>16.6000003814697265625</ele>
        <time>2021-09-27T12:17:32.000Z</time>
      </trkpt>
      <trkpt lat="39.549149461090564727783203125" lon="-0.33926314674317836761474609375">
        <ele>16.6000003814697265625</ele>
        <time>2021-09-27T12:17:34.000Z</time>
      </trkpt>
      <trkpt lat="39.54906103201210498809814453125" lon="-0.3393208980560302734375">
        <ele>16.3999996185302734375</ele>
        <time>2021-09-27T12:17:36.000Z</time>
      </trkpt>
      <trkpt lat="39.548977129161357879638671875" lon="-0.33938149921596050262451171875">
        <ele>16.3999996185302734375</ele>
        <time>2021-09-27T12:17:38.000Z</time>
      </trkpt>
      <trkpt lat="39.54893597401678562164306640625" lon="-0.3394082374870777130126953125">
        <ele>16.3999996185302734375</ele>
        <time>2021-09-27T12:17:39.000Z</time>
      </trkpt>
      <trkpt lat="39.54889305867254734039306640625" lon="-0.33943296410143375396728515625">
        <ele>16.200000762939453125</ele>
        <time>2021-09-27T12:17:40.000Z</time>
      </trkpt>
      <trkpt lat="39.5488026179373264312744140625" lon="-0.3394860215485095977783203125">
        <ele>16.200000762939453125</ele>
        <time>2021-09-27T12:17:42.000Z</time>
      </trkpt>
      <trkpt lat="39.54871217720210552215576171875" lon="-0.339539833366870880126953125">
        <ele>16.200000762939453125</ele>
        <time>2021-09-27T12:17:44.000Z</time>
      </trkpt>
      <trkpt lat="39.5486202277243137359619140625" lon="-0.33959791995584964752197265625">
        <ele>16.200000762939453125</ele>
        <time>2021-09-27T12:17:46.000Z</time>
      </trkpt>
      <trkpt lat="39.54857303760945796966552734375" lon="-0.3396281786262989044189453125">
        <ele>16.200000762939453125</ele>
        <time>2021-09-27T12:17:47.000Z</time>
      </trkpt>
      <trkpt lat="39.54852526076138019561767578125" lon="-0.33965743146836757659912109375">
        <ele>16.3999996185302734375</ele>
        <time>2021-09-27T12:17:48.000Z</time>
      </trkpt>
      <trkpt lat="39.54843238927423954010009765625" lon="-0.3397126682102680206298828125">
        <ele>16.3999996185302734375</ele>
        <time>2021-09-27T12:17:50.000Z</time>
      </trkpt>
      <trkpt lat="39.5483442954719066619873046875" lon="-0.3397674858570098876953125">
        <ele>16.3999996185302734375</ele>
        <time>2021-09-27T12:17:52.000Z</time>
      </trkpt>
      <trkpt lat="39.5482611469924449920654296875" lon="-0.33981786109507083892822265625">
        <ele>16.6000003814697265625</ele>
        <time>2021-09-27T12:17:54.000Z</time>
      </trkpt>
      <trkpt lat="39.54822183586657047271728515625" lon="-0.33984350971877574920654296875">
        <ele>16.6000003814697265625</ele>
        <time>2021-09-27T12:17:55.000Z</time>
      </trkpt>
      <trkpt lat="39.54818210564553737640380859375" lon="-0.33986681140959262847900390625">
        <ele>16.6000003814697265625</ele>
        <time>2021-09-27T12:17:56.000Z</time>
      </trkpt>
      <trkpt lat="39.5481008850038051605224609375" lon="-0.3399161808192729949951171875">
        <ele>16.799999237060546875</ele>
        <time>2021-09-27T12:17:58.000Z</time>
      </trkpt>
      <trkpt lat="39.54801656305789947509765625" lon="-0.33996739424765110015869140625">
        <ele>16.799999237060546875</ele>
        <time>2021-09-27T12:18:00.000Z</time>
      </trkpt>
      <trkpt lat="39.5479298941791057586669921875" lon="-0.340020954608917236328125">
        <ele>16.799999237060546875</ele>
        <time>2021-09-27T12:18:02.000Z</time>
      </trkpt>
      <trkpt lat="39.54784490168094635009765625" lon="-0.34006814472377300262451171875">
        <ele>17</ele>
        <time>2021-09-27T12:18:04.000Z</time>
      </trkpt>
      <trkpt lat="39.547766111791133880615234375" lon="-0.34011273644864559173583984375">
        <ele>17.200000762939453125</ele>
        <time>2021-09-27T12:18:06.000Z</time>
      </trkpt>
      <trkpt lat="39.54769075848162174224853515625" lon="-0.3401559032499790191650390625">
        <ele>17.3999996185302734375</ele>
        <time>2021-09-27T12:18:08.000Z</time>
      </trkpt>
      <trkpt lat="39.547618590295314788818359375" lon="-0.34020292572677135467529296875">
        <ele>17.3999996185302734375</ele>
        <time>2021-09-27T12:18:10.000Z</time>
      </trkpt>
      <trkpt lat="39.5475426502525806427001953125" lon="-0.34024466760456562042236328125">
        <ele>17.6000003814697265625</ele>
        <time>2021-09-27T12:18:12.000Z</time>
      </trkpt>
      <trkpt lat="39.54746578820049762725830078125" lon="-0.3402913548052310943603515625">
        <ele>17.799999237060546875</ele>
        <time>2021-09-27T12:18:14.000Z</time>
      </trkpt>
      <trkpt lat="39.54738733358681201934814453125" lon="-0.34033921547234058380126953125">
        <ele>18</ele>
        <time>2021-09-27T12:18:16.000Z</time>
      </trkpt>
      <trkpt lat="39.547310806810855865478515625" lon="-0.34038615413010120391845703125">
        <ele>18.200000762939453125</ele>
        <time>2021-09-27T12:18:18.000Z</time>
      </trkpt>
      <trkpt lat="39.547233693301677703857421875" lon="-0.34043342806398868560791015625">
        <ele>18.200000762939453125</ele>
        <time>2021-09-27T12:18:20.000Z</time>
      </trkpt>
      <trkpt lat="39.54719337634742259979248046875" lon="-0.3404573164880275726318359375">
        <ele>18.3999996185302734375</ele>
        <time>2021-09-27T12:18:21.000Z</time>
      </trkpt>
      <trkpt lat="39.54715230502188205718994140625" lon="-0.3404807858169078826904296875">
        <ele>18.3999996185302734375</ele>
        <time>2021-09-27T12:18:22.000Z</time>
      </trkpt>
      <trkpt lat="39.54707066528499126434326171875" lon="-0.34053199924528598785400390625">
        <ele>18.6000003814697265625</ele>
        <time>2021-09-27T12:18:24.000Z</time>
      </trkpt>
      <trkpt lat="39.54697997309267520904541015625" lon="-0.34058195538818836212158203125">
        <ele>18.799999237060546875</ele>
        <time>2021-09-27T12:18:26.000Z</time>
      </trkpt>
      <trkpt lat="39.54688659869134426116943359375" lon="-0.34063576720654964447021484375">
        <ele>18.3999996185302734375</ele>
        <time>2021-09-27T12:18:28.000Z</time>
      </trkpt>
      <trkpt lat="39.54684041440486907958984375" lon="-0.34066443331539630889892578125">
        <ele>18.3999996185302734375</ele>
        <time>2021-09-27T12:18:29.000Z</time>
      </trkpt>
      <trkpt lat="39.546793140470981597900390625" lon="-0.34069209359586238861083984375">
        <ele>18.200000762939453125</ele>
        <time>2021-09-27T12:18:30.000Z</time>
      </trkpt>
      <trkpt lat="39.5466930605471134185791015625" lon="-0.34074774943292140960693359375">
        <ele>17.799999237060546875</ele>
        <time>2021-09-27T12:18:32.000Z</time>
      </trkpt>
      <trkpt lat="39.54659356735646724700927734375" lon="-0.34080457873642444610595703125">
        <ele>17.3999996185302734375</ele>
        <time>2021-09-27T12:18:34.000Z</time>
      </trkpt>
      <trkpt lat="39.54649717546999454498291015625" lon="-0.34085847437381744384765625">
        <ele>17</ele>
        <time>2021-09-27T12:18:36.000Z</time>
      </trkpt>
      <trkpt lat="39.54644956625998020172119140625" lon="-0.3408841229975223541259765625">
        <ele>16.799999237060546875</ele>
        <time>2021-09-27T12:18:37.000Z</time>
      </trkpt>
      <trkpt lat="39.5464023761451244354248046875" lon="-0.34090851433575153350830078125">
        <ele>16.6000003814697265625</ele>
        <time>2021-09-27T12:18:38.000Z</time>
      </trkpt>
      <trkpt lat="39.54631193540990352630615234375" lon="-0.340961404144763946533203125">
        <ele>16.200000762939453125</ele>
        <time>2021-09-27T12:18:40.000Z</time>
      </trkpt>
      <trkpt lat="39.54626952297985553741455078125" lon="-0.340987555682659149169921875">
        <ele>16</ele>
        <time>2021-09-27T12:18:41.000Z</time>
      </trkpt>
      <trkpt lat="39.54622878693044185638427734375" lon="-0.34101680852472782135009765625">
        <ele>16</ele>
        <time>2021-09-27T12:18:42.000Z</time>
      </trkpt>
      <trkpt lat="39.54618805088102817535400390625" lon="-0.34104580990970134735107421875">
        <ele>15.80000019073486328125</ele>
        <time>2021-09-27T12:18:43.000Z</time>
      </trkpt>
      <trkpt lat="39.54614714719355106353759765625" lon="-0.341073386371135711669921875">
        <ele>15.6000003814697265625</ele>
        <time>2021-09-27T12:18:44.000Z</time>
      </trkpt>
      <trkpt lat="39.54610607586801052093505859375" lon="-0.34110255539417266845703125">
        <ele>15.6000003814697265625</ele>
        <time>2021-09-27T12:18:45.000Z</time>
      </trkpt>
      <trkpt lat="39.546065591275691986083984375" lon="-0.34112946130335330963134765625">
        <ele>15.6000003814697265625</ele>
        <time>2021-09-27T12:18:46.000Z</time>
      </trkpt>
      <trkpt lat="39.54598336480557918548583984375" lon="-0.34117371775209903717041015625">
        <ele>15.6000003814697265625</ele>
        <time>2021-09-27T12:18:48.000Z</time>
      </trkpt>
      <trkpt lat="39.54589853994548320770263671875" lon="-0.34121613018214702606201171875">
        <ele>15.6000003814697265625</ele>
        <time>2021-09-27T12:18:50.000Z</time>
      </trkpt>
      <trkpt lat="39.54585134983062744140625" lon="-0.3412364982068538665771484375">
        <ele>15.6000003814697265625</ele>
        <time>2021-09-27T12:18:51.000Z</time>
      </trkpt>
      <trkpt lat="39.54580382443964481353759765625" lon="-0.341259799897670745849609375">
        <ele>15.3999996185302734375</ele>
        <time>2021-09-27T12:18:52.000Z</time>
      </trkpt>
      <trkpt lat="39.545706845819950103759765625" lon="-0.34130497835576534271240234375">
        <ele>15.3999996185302734375</ele>
        <time>2021-09-27T12:18:54.000Z</time>
      </trkpt>
      <trkpt lat="39.54561053775250911712646484375" lon="-0.341355018317699432373046875">
        <ele>15.3999996185302734375</ele>
        <time>2021-09-27T12:18:56.000Z</time>
      </trkpt>
      <trkpt lat="39.54551498405635356903076171875" lon="-0.34140623174607753753662109375">
        <ele>15.6000003814697265625</ele>
        <time>2021-09-27T12:18:58.000Z</time>
      </trkpt>
      <trkpt lat="39.545419178903102874755859375" lon="-0.3414584510028362274169921875">
        <ele>15.6000003814697265625</ele>
        <time>2021-09-27T12:19:00.000Z</time>
      </trkpt>
      <trkpt lat="39.54532387666404247283935546875" lon="-0.341506898403167724609375">
        <ele>15.80000019073486328125</ele>
        <time>2021-09-27T12:19:02.000Z</time>
      </trkpt>
      <trkpt lat="39.5452262274920940399169921875" lon="-0.3415538370609283447265625">
        <ele>16</ele>
        <time>2021-09-27T12:19:04.000Z</time>
      </trkpt>
      <trkpt lat="39.5451284945011138916015625" lon="-0.341598428785800933837890625">
        <ele>16.3999996185302734375</ele>
        <time>2021-09-27T12:19:06.000Z</time>
      </trkpt>
      <trkpt lat="39.545030929148197174072265625" lon="-0.3416502289474010467529296875">
        <ele>16.6000003814697265625</ele>
        <time>2021-09-27T12:19:08.000Z</time>
      </trkpt>
      <trkpt lat="39.54493244178593158721923828125" lon="-0.34169691614806652069091796875">
        <ele>16.799999237060546875</ele>
        <time>2021-09-27T12:19:10.000Z</time>
      </trkpt>
      <trkpt lat="39.5448312722146511077880859375" lon="-0.34174452535808086395263671875">
        <ele>17.200000762939453125</ele>
        <time>2021-09-27T12:19:12.000Z</time>
      </trkpt>
      <trkpt lat="39.54472792334854602813720703125" lon="-0.3417927213013172149658203125">
        <ele>17.3999996185302734375</ele>
        <time>2021-09-27T12:19:14.000Z</time>
      </trkpt>
      <trkpt lat="39.54462449066340923309326171875" lon="-0.3418399952352046966552734375">
        <ele>17.6000003814697265625</ele>
        <time>2021-09-27T12:19:16.000Z</time>
      </trkpt>
      <trkpt lat="39.5445204712450504302978515625" lon="-0.34188969992101192474365234375">
        <ele>17.799999237060546875</ele>
        <time>2021-09-27T12:19:18.000Z</time>
      </trkpt>
      <trkpt lat="39.5444151945412158966064453125" lon="-0.341936051845550537109375">
        <ele>18</ele>
        <time>2021-09-27T12:19:20.000Z</time>
      </trkpt>
      <trkpt lat="39.54436951316893100738525390625" lon="-0.34196279011666774749755859375">
        <ele>18.200000762939453125</ele>
        <time>2021-09-27T12:19:21.000Z</time>
      </trkpt>
      <trkpt lat="39.5443253405392169952392578125" lon="-0.3419915400445461273193359375">
        <ele>18.200000762939453125</ele>
        <time>2021-09-27T12:19:22.000Z</time>
      </trkpt>
      <trkpt lat="39.54427865333855152130126953125" lon="-0.3420163504779338836669921875">
        <ele>18.3999996185302734375</ele>
        <time>2021-09-27T12:19:23.000Z</time>
      </trkpt>
      <trkpt lat="39.54423037357628345489501953125" lon="-0.34203772433102130889892578125">
        <ele>18.6000003814697265625</ele>
        <time>2021-09-27T12:19:24.000Z</time>
      </trkpt>
      <trkpt lat="39.54412912018597126007080078125" lon="-0.3420743532478809356689453125">
        <ele>18.6000003814697265625</ele>
        <time>2021-09-27T12:19:26.000Z</time>
      </trkpt>
      <trkpt lat="39.5440363325178623199462890625" lon="-0.3421078808605670928955078125">
        <ele>18.799999237060546875</ele>
        <time>2021-09-27T12:19:28.000Z</time>
      </trkpt>
      <trkpt lat="39.5439461432397365570068359375" lon="-0.34214249812066555023193359375">
        <ele>19</ele>
        <time>2021-09-27T12:19:30.000Z</time>
      </trkpt>
      <trkpt lat="39.54385100863873958587646484375" lon="-0.34218189306557178497314453125">
        <ele>19</ele>
        <time>2021-09-27T12:19:32.000Z</time>
      </trkpt>
      <trkpt lat="39.54375864006578922271728515625" lon="-0.34221793524920940399169921875">
        <ele>19</ele>
        <time>2021-09-27T12:19:34.000Z</time>
      </trkpt>
      <trkpt lat="39.54367339611053466796875" lon="-0.342251546680927276611328125">
        <ele>18.799999237060546875</ele>
        <time>2021-09-27T12:19:36.000Z</time>
      </trkpt>
      <trkpt lat="39.5435709692537784576416015625" lon="-0.3422899357974529266357421875">
        <ele>18.799999237060546875</ele>
        <time>2021-09-27T12:19:38.000Z</time>
      </trkpt>
      <trkpt lat="39.543469883501529693603515625" lon="-0.3423343598842620849609375">
        <ele>18.799999237060546875</ele>
        <time>2021-09-27T12:19:40.000Z</time>
      </trkpt>
      <trkpt lat="39.54342235811054706573486328125" lon="-0.34235975705087184906005859375">
        <ele>18.6000003814697265625</ele>
        <time>2021-09-27T12:19:41.000Z</time>
      </trkpt>
      <trkpt lat="39.54337609000504016876220703125" lon="-0.34238825552165508270263671875">
        <ele>18.6000003814697265625</ele>
        <time>2021-09-27T12:19:42.000Z</time>
      </trkpt>
      <trkpt lat="39.5432920195162296295166015625" lon="-0.3424508683383464813232421875">
        <ele>18.3999996185302734375</ele>
        <time>2021-09-27T12:19:44.000Z</time>
      </trkpt>
      <trkpt lat="39.54321951605379581451416015625" lon="-0.3425192646682262420654296875">
        <ele>18.200000762939453125</ele>
        <time>2021-09-27T12:19:46.000Z</time>
      </trkpt>
      <trkpt lat="39.54315212555229663848876953125" lon="-0.3425913490355014801025390625">
        <ele>18.200000762939453125</ele>
        <time>2021-09-27T12:19:48.000Z</time>
      </trkpt>
      <trkpt lat="39.543117843568325042724609375" lon="-0.342633426189422607421875">
        <ele>18.200000762939453125</ele>
        <time>2021-09-27T12:19:49.000Z</time>
      </trkpt>
      <trkpt lat="39.54308398067951202392578125" lon="-0.34267701208591461181640625">
        <ele>18.200000762939453125</ele>
        <time>2021-09-27T12:19:50.000Z</time>
      </trkpt>
      <trkpt lat="39.54301692545413970947265625" lon="-0.34274331294000148773193359375">
        <ele>18</ele>
        <time>2021-09-27T12:19:52.000Z</time>
      </trkpt>
      <trkpt lat="39.54294844530522823333740234375" lon="-0.3427613340318202972412109375">
        <ele>17.799999237060546875</ele>
        <time>2021-09-27T12:19:54.000Z</time>
      </trkpt>
      <trkpt lat="39.54289094544947147369384765625" lon="-0.34276175312697887420654296875">
        <ele>17.6000003814697265625</ele>
        <time>2021-09-27T12:19:56.000Z</time>
      </trkpt>
      <trkpt lat="39.54282338730990886688232421875" lon="-0.34274876117706298828125">
        <ele>17.3999996185302734375</ele>
        <time>2021-09-27T12:19:58.000Z</time>
      </trkpt>
      <trkpt lat="39.54275608062744140625" lon="-0.34273543395102024078369140625">
        <ele>17.6000003814697265625</ele>
        <time>2021-09-27T12:20:00.000Z</time>
      </trkpt>
      <trkpt lat="39.54272397793829441070556640625" lon="-0.3427234478294849395751953125">
        <ele>17.6000003814697265625</ele>
        <time>2021-09-27T12:20:01.000Z</time>
      </trkpt>
      <trkpt lat="39.542693383991718292236328125" lon="-0.34270517528057098388671875">
        <ele>17.6000003814697265625</ele>
        <time>2021-09-27T12:20:02.000Z</time>
      </trkpt>
      <trkpt lat="39.54262993298470973968505859375" lon="-0.34266217611730098724365234375">
        <ele>17.6000003814697265625</ele>
        <time>2021-09-27T12:20:04.000Z</time>
      </trkpt>
      <trkpt lat="39.54258969984948635101318359375" lon="-0.3426481783390045166015625">
        <ele>17.6000003814697265625</ele>
        <time>2021-09-27T12:20:05.000Z</time>
      </trkpt>
      <trkpt lat="39.54254544340074062347412109375" lon="-0.34264356829226016998291015625">
        <ele>17.6000003814697265625</ele>
        <time>2021-09-27T12:20:06.000Z</time>
      </trkpt>
      <trkpt lat="39.542502276599407196044921875" lon="-0.34264792688190937042236328125">
        <ele>17.6000003814697265625</ele>
        <time>2021-09-27T12:20:07.000Z</time>
      </trkpt>
      <trkpt lat="39.54246363602578639984130859375" lon="-0.3426647745072841644287109375">
        <ele>17.799999237060546875</ele>
        <time>2021-09-27T12:20:08.000Z</time>
      </trkpt>
      <trkpt lat="39.54238635487854480743408203125" lon="-0.342710204422473907470703125">
        <ele>18</ele>
        <time>2021-09-27T12:20:10.000Z</time>
      </trkpt>
      <trkpt lat="39.54229348339140415191650390625" lon="-0.34274934791028499603271484375">
        <ele>18.200000762939453125</ele>
        <time>2021-09-27T12:20:12.000Z</time>
      </trkpt>
      <trkpt lat="39.5421946607530117034912109375" lon="-0.34278371371328830718994140625">
        <ele>18.3999996185302734375</ele>
        <time>2021-09-27T12:20:14.000Z</time>
      </trkpt>
      <trkpt lat="39.5420949161052703857421875" lon="-0.34281573258340358734130859375">
        <ele>18.6000003814697265625</ele>
        <time>2021-09-27T12:20:16.000Z</time>
      </trkpt>
      <trkpt lat="39.54204269684851169586181640625" lon="-0.342834256589412689208984375">
        <ele>18.6000003814697265625</ele>
        <time>2021-09-27T12:20:17.000Z</time>
      </trkpt>
      <trkpt lat="39.54198905266821384429931640625" lon="-0.342853367328643798828125">
        <ele>18.6000003814697265625</ele>
        <time>2021-09-27T12:20:18.000Z</time>
      </trkpt>
      <trkpt lat="39.54187790863215923309326171875" lon="-0.34288882277905941009521484375">
        <ele>18.6000003814697265625</ele>
        <time>2021-09-27T12:20:20.000Z</time>
      </trkpt>
      <trkpt lat="39.5417611487209796905517578125" lon="-0.34292109310626983642578125">
        <ele>18.6000003814697265625</ele>
        <time>2021-09-27T12:20:22.000Z</time>
      </trkpt>
      <trkpt lat="39.5416438020765781402587890625" lon="-0.34295252524316310882568359375">
        <ele>18.6000003814697265625</ele>
        <time>2021-09-27T12:20:24.000Z</time>
      </trkpt>
      <trkpt lat="39.541585631668567657470703125" lon="-0.34296627156436443328857421875">
        <ele>18.3999996185302734375</ele>
        <time>2021-09-27T12:20:25.000Z</time>
      </trkpt>
      <trkpt lat="39.54153005965054035186767578125" lon="-0.34298068843781948089599609375">
        <ele>18.3999996185302734375</ele>
        <time>2021-09-27T12:20:26.000Z</time>
      </trkpt>
      <trkpt lat="39.5414241962134838104248046875" lon="-0.3430097736418247222900390625">
        <ele>18.3999996185302734375</ele>
        <time>2021-09-27T12:20:28.000Z</time>
      </trkpt>
      <trkpt lat="39.54132487066090106964111328125" lon="-0.34303265623748302459716796875">
        <ele>18.200000762939453125</ele>
        <time>2021-09-27T12:20:30.000Z</time>
      </trkpt>
      <trkpt lat="39.54122898168861865997314453125" lon="-0.3430553711950778961181640625">
        <ele>18</ele>
        <time>2021-09-27T12:20:32.000Z</time>
      </trkpt>
      <trkpt lat="39.54118170775473117828369140625" lon="-0.34306668676435947418212890625">
        <ele>18</ele>
        <time>2021-09-27T12:20:33.000Z</time>
      </trkpt>
      <trkpt lat="39.541135691106319427490234375" lon="-0.3430788405239582061767578125">
        <ele>18</ele>
        <time>2021-09-27T12:20:34.000Z</time>
      </trkpt>
      <trkpt lat="39.54103552736341953277587890625" lon="-0.3431033156812191009521484375">
        <ele>17.799999237060546875</ele>
        <time>2021-09-27T12:20:36.000Z</time>
      </trkpt>
      <trkpt lat="39.54093460924923419952392578125" lon="-0.34312770701944828033447265625">
        <ele>17.6000003814697265625</ele>
        <time>2021-09-27T12:20:38.000Z</time>
      </trkpt>
      <trkpt lat="39.540829919278621673583984375" lon="-0.34315117634832859039306640625">
        <ele>17.200000762939453125</ele>
        <time>2021-09-27T12:20:40.000Z</time>
      </trkpt>
      <trkpt lat="39.54077853821218013763427734375" lon="-0.3431633301079273223876953125">
        <ele>17</ele>
        <time>2021-09-27T12:20:41.000Z</time>
      </trkpt>
      <trkpt lat="39.540728665888309478759765625" lon="-0.34317615441977977752685546875">
        <ele>16.799999237060546875</ele>
        <time>2021-09-27T12:20:42.000Z</time>
      </trkpt>
      <trkpt lat="39.540630765259265899658203125" lon="-0.3431980311870574951171875">
        <ele>16.6000003814697265625</ele>
        <time>2021-09-27T12:20:44.000Z</time>
      </trkpt>
      <trkpt lat="39.5405397377908229827880859375" lon="-0.34322041086852550506591796875">
        <ele>16.3999996185302734375</ele>
        <time>2021-09-27T12:20:46.000Z</time>
      </trkpt>
      <trkpt lat="39.54045231454074382781982421875" lon="-0.3432397730648517608642578125">
        <ele>16</ele>
        <time>2021-09-27T12:20:48.000Z</time>
      </trkpt>
      <trkpt lat="39.54040839336812496185302734375" lon="-0.34324823878705501556396484375">
        <ele>16</ele>
        <time>2021-09-27T12:20:49.000Z</time>
      </trkpt>
      <trkpt lat="39.54036380164325237274169921875" lon="-0.34325636923313140869140625">
        <ele>15.80000019073486328125</ele>
        <time>2021-09-27T12:20:50.000Z</time>
      </trkpt>
      <trkpt lat="39.54027327708899974822998046875" lon="-0.3432763181626796722412109375">
        <ele>15.6000003814697265625</ele>
        <time>2021-09-27T12:20:52.000Z</time>
      </trkpt>
      <trkpt lat="39.54018258489668369293212890625" lon="-0.34329593181610107421875">
        <ele>15.3999996185302734375</ele>
        <time>2021-09-27T12:20:54.000Z</time>
      </trkpt>
      <trkpt lat="39.54009792767465114593505859375" lon="-0.34331529401242733001708984375">
        <ele>15.19999980926513671875</ele>
        <time>2021-09-27T12:20:56.000Z</time>
      </trkpt>
      <trkpt lat="39.54005719162523746490478515625" lon="-0.34332434646785259246826171875">
        <ele>15.19999980926513671875</ele>
        <time>2021-09-27T12:20:57.000Z</time>
      </trkpt>
      <trkpt lat="39.540017209947109222412109375" lon="-0.34333423711359500885009765625">
        <ele>15</ele>
        <time>2021-09-27T12:20:58.000Z</time>
      </trkpt>
      <trkpt lat="39.53993967734277248382568359375" lon="-0.3433484025299549102783203125">
        <ele>15</ele>
        <time>2021-09-27T12:21:00.000Z</time>
      </trkpt>
      <trkpt lat="39.53986390493810176849365234375" lon="-0.3433631546795368194580078125">
        <ele>14.80000019073486328125</ele>
        <time>2021-09-27T12:21:02.000Z</time>
      </trkpt>
      <trkpt lat="39.53977522440254688262939453125" lon="-0.3433795832097530364990234375">
        <ele>14.80000019073486328125</ele>
        <time>2021-09-27T12:21:04.000Z</time>
      </trkpt>
      <trkpt lat="39.53966374509036540985107421875" lon="-0.34339475445449352264404296875">
        <ele>14.6000003814697265625</ele>
        <time>2021-09-27T12:21:06.000Z</time>
      </trkpt>
      <trkpt lat="39.53953944146633148193359375" lon="-0.343403555452823638916015625">
        <ele>14.6000003814697265625</ele>
        <time>2021-09-27T12:21:08.000Z</time>
      </trkpt>
      <trkpt lat="39.53947699628770351409912109375" lon="-0.34341193735599517822265625">
        <ele>14.3999996185302734375</ele>
        <time>2021-09-27T12:21:09.000Z</time>
      </trkpt>
      <trkpt lat="39.53941513784229755401611328125" lon="-0.3434260189533233642578125">
        <ele>14.19999980926513671875</ele>
        <time>2021-09-27T12:21:10.000Z</time>
      </trkpt>
      <trkpt lat="39.5392888225615024566650390625" lon="-0.34345761872828006744384765625">
        <ele>13.80000019073486328125</ele>
        <time>2021-09-27T12:21:12.000Z</time>
      </trkpt>
      <trkpt lat="39.53916502185165882110595703125" lon="-0.34347672946751117706298828125">
        <ele>13.3999996185302734375</ele>
        <time>2021-09-27T12:21:14.000Z</time>
      </trkpt>
      <trkpt lat="39.53904993832111358642578125" lon="-0.343491397798061370849609375">
        <ele>13</ele>
        <time>2021-09-27T12:21:16.000Z</time>
      </trkpt>
      <trkpt lat="39.53893938101828098297119140625" lon="-0.34350807778537273406982421875">
        <ele>12.6000003814697265625</ele>
        <time>2021-09-27T12:21:18.000Z</time>
      </trkpt>
      <trkpt lat="39.5388388819992542266845703125" lon="-0.343524254858493804931640625">
        <ele>12.6000003814697265625</ele>
        <time>2021-09-27T12:21:20.000Z</time>
      </trkpt>
      <trkpt lat="39.538744501769542694091796875" lon="-0.34354529343545436859130859375">
        <ele>12.3999996185302734375</ele>
        <time>2021-09-27T12:21:22.000Z</time>
      </trkpt>
      <trkpt lat="39.53866059891879558563232421875" lon="-0.34357999451458454132080078125">
        <ele>12.3999996185302734375</ele>
        <time>2021-09-27T12:21:24.000Z</time>
      </trkpt>
      <trkpt lat="39.53858683817088603973388671875" lon="-0.34362710081040859222412109375">
        <ele>12.3999996185302734375</ele>
        <time>2021-09-27T12:21:26.000Z</time>
      </trkpt>
      <trkpt lat="39.53852129168808460235595703125" lon="-0.34368258900940418243408203125">
        <ele>12.6000003814697265625</ele>
        <time>2021-09-27T12:21:28.000Z</time>
      </trkpt>
      <trkpt lat="39.5384600199759006500244140625" lon="-0.3437473811209201812744140625">
        <ele>12.6000003814697265625</ele>
        <time>2021-09-27T12:21:30.000Z</time>
      </trkpt>
      <trkpt lat="39.5384057052433490753173828125" lon="-0.34381720237433910369873046875">
        <ele>12.6000003814697265625</ele>
        <time>2021-09-27T12:21:32.000Z</time>
      </trkpt>
      <trkpt lat="39.53835801221430301666259765625" lon="-0.3438949026167392730712890625">
        <ele>13</ele>
        <time>2021-09-27T12:21:34.000Z</time>
      </trkpt>
      <trkpt lat="39.53831744380295276641845703125" lon="-0.34398132003843784332275390625">
        <ele>13.19999980926513671875</ele>
        <time>2021-09-27T12:21:36.000Z</time>
      </trkpt>
      <trkpt lat="39.5382917113602161407470703125" lon="-0.344016440212726593017578125">
        <ele>13.3999996185302734375</ele>
        <time>2021-09-27T12:21:37.000Z</time>
      </trkpt>
      <trkpt lat="39.5382568426430225372314453125" lon="-0.344033874571323394775390625">
        <ele>13.6000003814697265625</ele>
        <time>2021-09-27T12:21:38.000Z</time>
      </trkpt>
      <trkpt lat="39.53818199224770069122314453125" lon="-0.34401937387883663177490234375">
        <ele>13.6000003814697265625</ele>
        <time>2021-09-27T12:21:40.000Z</time>
      </trkpt>
      <trkpt lat="39.53811225481331348419189453125" lon="-0.343990959227085113525390625">
        <ele>13.80000019073486328125</ele>
        <time>2021-09-27T12:21:42.000Z</time>
      </trkpt>
      <trkpt lat="39.53804285265505313873291015625" lon="-0.3439763747155666351318359375">
        <ele>14</ele>
        <time>2021-09-27T12:21:44.000Z</time>
      </trkpt>
      <trkpt lat="39.5379696786403656005859375" lon="-0.343989618122577667236328125">
        <ele>14.19999980926513671875</ele>
        <time>2021-09-27T12:21:46.000Z</time>
      </trkpt>
      <trkpt lat="39.53793506138026714324951171875" lon="-0.34400663338601589202880859375">
        <ele>14.19999980926513671875</ele>
        <time>2021-09-27T12:21:47.000Z</time>
      </trkpt>
      <trkpt lat="39.5379007793962955474853515625" lon="-0.3440295159816741943359375">
        <ele>14.3999996185302734375</ele>
        <time>2021-09-27T12:21:48.000Z</time>
      </trkpt>
      <trkpt lat="39.53783690929412841796875" lon="-0.344067402184009552001953125">
        <ele>14.6000003814697265625</ele>
        <time>2021-09-27T12:21:50.000Z</time>
      </trkpt>
      <trkpt lat="39.53778393566608428955078125" lon="-0.34410436637699604034423828125">
        <ele>14.6000003814697265625</ele>
        <time>2021-09-27T12:21:52.000Z</time>
      </trkpt>
      <trkpt lat="39.53775116242468357086181640625" lon="-0.3441252373158931732177734375">
        <ele>14.6000003814697265625</ele>
        <time>2021-09-27T12:21:53.000Z</time>
      </trkpt>
      <trkpt lat="39.53771109692752361297607421875" lon="-0.34413638524711132049560546875">
        <ele>14.3999996185302734375</ele>
        <time>2021-09-27T12:21:54.000Z</time>
      </trkpt>
      <trkpt lat="39.5376442931592464447021484375" lon="-0.3440947271883487701416015625">
        <ele>14.19999980926513671875</ele>
        <time>2021-09-27T12:21:56.000Z</time>
      </trkpt>
      <trkpt lat="39.53758352436125278472900390625" lon="-0.34401836805045604705810546875">
        <ele>14</ele>
        <time>2021-09-27T12:21:58.000Z</time>
      </trkpt>
      <trkpt lat="39.537503980100154876708984375" lon="-0.34396313130855560302734375">
        <ele>14.19999980926513671875</ele>
        <time>2021-09-27T12:22:00.000Z</time>
      </trkpt>
      <trkpt lat="39.53746316023170948028564453125" lon="-0.34393589012324810028076171875">
        <ele>14.19999980926513671875</ele>
        <time>2021-09-27T12:22:01.000Z</time>
      </trkpt>
      <trkpt lat="39.53742317855358123779296875" lon="-0.343905128538608551025390625">
        <ele>14.3999996185302734375</ele>
        <time>2021-09-27T12:22:02.000Z</time>
      </trkpt>
      <trkpt lat="39.53735335730016231536865234375" lon="-0.34382625482976436614990234375">
        <ele>14.6000003814697265625</ele>
        <time>2021-09-27T12:22:04.000Z</time>
      </trkpt>
      <trkpt lat="39.53729518689215183258056640625" lon="-0.3437389992177486419677734375">
        <ele>14.6000003814697265625</ele>
        <time>2021-09-27T12:22:06.000Z</time>
      </trkpt>
      <trkpt lat="39.53726199455559253692626953125" lon="-0.34370035864412784576416015625">
        <ele>14.6000003814697265625</ele>
        <time>2021-09-27T12:22:07.000Z</time>
      </trkpt>
      <trkpt lat="39.53722192905843257904052734375" lon="-0.34367873333394527435302734375">
        <ele>14.80000019073486328125</ele>
        <time>2021-09-27T12:22:08.000Z</time>
      </trkpt>
      <trkpt lat="39.53717800788581371307373046875" lon="-0.3436695970594882965087890625">
        <ele>14.80000019073486328125</ele>
        <time>2021-09-27T12:22:09.000Z</time>
      </trkpt>
      <trkpt lat="39.53713257797062397003173828125" lon="-0.34367085434496402740478515625">
        <ele>14.80000019073486328125</ele>
        <time>2021-09-27T12:22:10.000Z</time>
      </trkpt>
      <trkpt lat="39.53703450970351696014404296875" lon="-0.34368778578937053680419921875">
        <ele>15</ele>
        <time>2021-09-27T12:22:12.000Z</time>
      </trkpt>
      <trkpt lat="39.5369314961135387420654296875" lon="-0.34370304085314273834228515625">
        <ele>15</ele>
        <time>2021-09-27T12:22:14.000Z</time>
      </trkpt>
      <trkpt lat="39.53688011504709720611572265625" lon="-0.3437091596424579620361328125">
        <ele>14.80000019073486328125</ele>
        <time>2021-09-27T12:22:15.000Z</time>
      </trkpt>
      <trkpt lat="39.53682898543775081634521484375" lon="-0.3437135182321071624755859375">
        <ele>14.80000019073486328125</ele>
        <time>2021-09-27T12:22:16.000Z</time>
      </trkpt>
      <trkpt lat="39.53673477284610271453857421875" lon="-0.343721397221088409423828125">
        <ele>14.6000003814697265625</ele>
        <time>2021-09-27T12:22:18.000Z</time>
      </trkpt>
      <trkpt lat="39.53664005734026432037353515625" lon="-0.34372709691524505615234375">
        <ele>14.6000003814697265625</ele>
        <time>2021-09-27T12:22:20.000Z</time>
      </trkpt>
      <trkpt lat="39.53654819168150424957275390625" lon="-0.3437379933893680572509765625">
        <ele>14.3999996185302734375</ele>
        <time>2021-09-27T12:22:22.000Z</time>
      </trkpt>
      <trkpt lat="39.536459930241107940673828125" lon="-0.34375081770122051239013671875">
        <ele>14.3999996185302734375</ele>
        <time>2021-09-27T12:22:24.000Z</time>
      </trkpt>
      <trkpt lat="39.53636060468852519989013671875" lon="-0.34375634975731372833251953125">
        <ele>14.19999980926513671875</ele>
        <time>2021-09-27T12:22:26.000Z</time>
      </trkpt>
      <trkpt lat="39.53625239431858062744140625" lon="-0.34377277828752994537353515625">
        <ele>14</ele>
        <time>2021-09-27T12:22:28.000Z</time>
      </trkpt>
      <trkpt lat="39.53614200465381145477294921875" lon="-0.34378610551357269287109375">
        <ele>14</ele>
        <time>2021-09-27T12:22:30.000Z</time>
      </trkpt>
      <trkpt lat="39.53603203408420085906982421875" lon="-0.34379457123577594757080078125">
        <ele>14.19999980926513671875</ele>
        <time>2021-09-27T12:22:32.000Z</time>
      </trkpt>
      <trkpt lat="39.53592726029455661773681640625" lon="-0.34380245022475719451904296875">
        <ele>14.19999980926513671875</ele>
        <time>2021-09-27T12:22:34.000Z</time>
      </trkpt>
      <trkpt lat="39.535831622779369354248046875" lon="-0.343809239566326141357421875">
        <ele>14.3999996185302734375</ele>
        <time>2021-09-27T12:22:36.000Z</time>
      </trkpt>
      <trkpt lat="39.53573799692094326019287109375" lon="-0.34382021985948085784912109375">
        <ele>14.6000003814697265625</ele>
        <time>2021-09-27T12:22:38.000Z</time>
      </trkpt>
      <trkpt lat="39.53564227558672428131103515625" lon="-0.34383111633360385894775390625">
        <ele>14.6000003814697265625</ele>
        <time>2021-09-27T12:22:40.000Z</time>
      </trkpt>
      <trkpt lat="39.5355407707393169403076171875" lon="-0.343842096626758575439453125">
        <ele>14.80000019073486328125</ele>
        <time>2021-09-27T12:22:42.000Z</time>
      </trkpt>
      <trkpt lat="39.53544077463448047637939453125" lon="-0.34385383129119873046875">
        <ele>15</ele>
        <time>2021-09-27T12:22:44.000Z</time>
      </trkpt>
      <trkpt lat="39.53534102998673915863037109375" lon="-0.3438653983175754547119140625">
        <ele>15.19999980926513671875</ele>
        <time>2021-09-27T12:22:46.000Z</time>
      </trkpt>
      <trkpt lat="39.53523625619709491729736328125" lon="-0.34387403167784214019775390625">
        <ele>15</ele>
        <time>2021-09-27T12:22:48.000Z</time>
      </trkpt>
      <trkpt lat="39.535134918987751007080078125" lon="-0.343883670866489410400390625">
        <ele>15</ele>
        <time>2021-09-27T12:22:50.000Z</time>
      </trkpt>
      <trkpt lat="39.5350375212728977203369140625" lon="-0.34389297477900981903076171875">
        <ele>15</ele>
        <time>2021-09-27T12:22:52.000Z</time>
      </trkpt>
      <trkpt lat="39.53493970446288585662841796875" lon="-0.343909822404384613037109375">
        <ele>15</ele>
        <time>2021-09-27T12:22:54.000Z</time>
      </trkpt>
      <trkpt lat="39.53483828343451023101806640625" lon="-0.343919210135936737060546875">
        <ele>15</ele>
        <time>2021-09-27T12:22:56.000Z</time>
      </trkpt>
      <trkpt lat="39.53478782437741756439208984375" lon="-0.34392616711556911468505859375">
        <ele>15</ele>
        <time>2021-09-27T12:22:57.000Z</time>
      </trkpt>
      <trkpt lat="39.53473560512065887451171875" lon="-0.34393052570521831512451171875">
        <ele>15</ele>
        <time>2021-09-27T12:22:58.000Z</time>
      </trkpt>
      <trkpt lat="39.5346308313310146331787109375" lon="-0.343941338360309600830078125">
        <ele>15</ele>
        <time>2021-09-27T12:23:00.000Z</time>
      </trkpt>
      <trkpt lat="39.534528739750385284423828125" lon="-0.34395215101540088653564453125">
        <ele>15</ele>
        <time>2021-09-27T12:23:02.000Z</time>
      </trkpt>
      <trkpt lat="39.53443042002618312835693359375" lon="-0.3439659811556339263916015625">
        <ele>15</ele>
        <time>2021-09-27T12:23:04.000Z</time>
      </trkpt>
      <trkpt lat="39.53432832844555377960205078125" lon="-0.34397830255329608917236328125">
        <ele>14.80000019073486328125</ele>
        <time>2021-09-27T12:23:06.000Z</time>
      </trkpt>
      <trkpt lat="39.53422204591333866119384765625" lon="-0.3439914621412754058837890625">
        <ele>14.3999996185302734375</ele>
        <time>2021-09-27T12:23:08.000Z</time>
      </trkpt>
      <trkpt lat="39.5341131649911403656005859375" lon="-0.3440021909773349761962890625">
        <ele>14</ele>
        <time>2021-09-27T12:23:10.000Z</time>
      </trkpt>
      <trkpt lat="39.5339995063841342926025390625" lon="-0.344013758003711700439453125">
        <ele>13.6000003814697265625</ele>
        <time>2021-09-27T12:23:12.000Z</time>
      </trkpt>
      <trkpt lat="39.533942006528377532958984375" lon="-0.34402021206915378570556640625">
        <ele>13.3999996185302734375</ele>
        <time>2021-09-27T12:23:13.000Z</time>
      </trkpt>
      <trkpt lat="39.5338821597397327423095703125" lon="-0.34402725286781787872314453125">
        <ele>13.19999980926513671875</ele>
        <time>2021-09-27T12:23:14.000Z</time>
      </trkpt>
      <trkpt lat="39.53376456163823604583740234375" lon="-0.3440410830080509185791015625">
        <ele>12.80000019073486328125</ele>
        <time>2021-09-27T12:23:16.000Z</time>
      </trkpt>
      <trkpt lat="39.533648304641246795654296875" lon="-0.344049632549285888671875">
        <ele>12.6000003814697265625</ele>
        <time>2021-09-27T12:23:18.000Z</time>
      </trkpt>
      <trkpt lat="39.53353171236813068389892578125" lon="-0.34405994229018688201904296875">
        <ele>13</ele>
        <time>2021-09-27T12:23:20.000Z</time>
      </trkpt>
      <trkpt lat="39.53341118060052394866943359375" lon="-0.34407285042107105255126953125">
        <ele>13.19999980926513671875</ele>
        <time>2021-09-27T12:23:22.000Z</time>
      </trkpt>
      <trkpt lat="39.53328746370971202850341796875" lon="-0.344087183475494384765625">
        <ele>13.3999996185302734375</ele>
        <time>2021-09-27T12:23:24.000Z</time>
      </trkpt>
      <trkpt lat="39.53316810540854930877685546875" lon="-0.34409900195896625518798828125">
        <ele>13.6000003814697265625</ele>
        <time>2021-09-27T12:23:26.000Z</time>
      </trkpt>
      <trkpt lat="39.53305059112608432769775390625" lon="-0.3441108204424381256103515625">
        <ele>13.80000019073486328125</ele>
        <time>2021-09-27T12:23:28.000Z</time>
      </trkpt>
      <trkpt lat="39.5329930074512958526611328125" lon="-0.34411727450788021087646484375">
        <ele>14</ele>
        <time>2021-09-27T12:23:29.000Z</time>
      </trkpt>
      <trkpt lat="39.5329353399574756622314453125" lon="-0.34412682987749576568603515625">
        <ele>14</ele>
        <time>2021-09-27T12:23:30.000Z</time>
      </trkpt>
      <trkpt lat="39.53281723894178867340087890625" lon="-0.344137810170650482177734375">
        <ele>14.19999980926513671875</ele>
        <time>2021-09-27T12:23:32.000Z</time>
      </trkpt>
      <trkpt lat="39.53269444406032562255859375" lon="-0.34415222704410552978515625">
        <ele>14.3999996185302734375</ele>
        <time>2021-09-27T12:23:34.000Z</time>
      </trkpt>
      <trkpt lat="39.53263250179588794708251953125" lon="-0.34415566362440586090087890625">
        <ele>14.6000003814697265625</ele>
        <time>2021-09-27T12:23:35.000Z</time>
      </trkpt>
      <trkpt lat="39.53257114626467227935791015625" lon="-0.34415801055729389190673828125">
        <ele>14.6000003814697265625</ele>
        <time>2021-09-27T12:23:36.000Z</time>
      </trkpt>
      <trkpt lat="39.53244742937386035919189453125" lon="-0.34417209215462207794189453125">
        <ele>14.80000019073486328125</ele>
        <time>2021-09-27T12:23:38.000Z</time>
      </trkpt>
      <trkpt lat="39.53232069499790668487548828125" lon="-0.34418751485645771026611328125">
        <ele>14.80000019073486328125</ele>
        <time>2021-09-27T12:23:40.000Z</time>
      </trkpt>
      <trkpt lat="39.532260261476039886474609375" lon="-0.34419204108417034149169921875">
        <ele>14.80000019073486328125</ele>
        <time>2021-09-27T12:23:41.000Z</time>
      </trkpt>
      <trkpt lat="39.532197229564189910888671875" lon="-0.34419774077832698822021484375">
        <ele>14.80000019073486328125</ele>
        <time>2021-09-27T12:23:42.000Z</time>
      </trkpt>
      <trkpt lat="39.53207292594015598297119140625" lon="-0.3442100621759891510009765625">
        <ele>15</ele>
        <time>2021-09-27T12:23:44.000Z</time>
      </trkpt>
      <trkpt lat="39.53195205889642238616943359375" lon="-0.3442261554300785064697265625">
        <ele>15</ele>
        <time>2021-09-27T12:23:46.000Z</time>
      </trkpt>
      <trkpt lat="39.5319000072777271270751953125" lon="-0.344232022762298583984375">
        <ele>15</ele>
        <time>2021-09-27T12:23:47.000Z</time>
      </trkpt>
      <trkpt lat="39.5318470336496829986572265625" lon="-0.34424065612256526947021484375">
        <ele>14.80000019073486328125</ele>
        <time>2021-09-27T12:23:48.000Z</time>
      </trkpt>
      <trkpt lat="39.5317340455949306488037109375" lon="-0.344251804053783416748046875">
        <ele>14.80000019073486328125</ele>
        <time>2021-09-27T12:23:50.000Z</time>
      </trkpt>
      <trkpt lat="39.531621895730495452880859375" lon="-0.34426328726112842559814453125">
        <ele>14.80000019073486328125</ele>
        <time>2021-09-27T12:23:52.000Z</time>
      </trkpt>
      <trkpt lat="39.53151670284569263458251953125" lon="-0.34427686594426631927490234375">
        <ele>14.6000003814697265625</ele>
        <time>2021-09-27T12:23:54.000Z</time>
      </trkpt>
      <trkpt lat="39.53140555880963802337646484375" lon="-0.344286002218723297119140625">
        <ele>14.80000019073486328125</ele>
        <time>2021-09-27T12:23:56.000Z</time>
      </trkpt>
      <trkpt lat="39.5312963426113128662109375" lon="-0.3442881815135478973388671875">
        <ele>14.80000019073486328125</ele>
        <time>2021-09-27T12:23:58.000Z</time>
      </trkpt>
      <trkpt lat="39.531191401183605194091796875" lon="-0.344300083816051483154296875">
        <ele>14.80000019073486328125</ele>
        <time>2021-09-27T12:24:00.000Z</time>
      </trkpt>
      <trkpt lat="39.53107933513820171356201171875" lon="-0.34431408159434795379638671875">
        <ele>14.6000003814697265625</ele>
        <time>2021-09-27T12:24:02.000Z</time>
      </trkpt>
      <trkpt lat="39.53096886165440082550048828125" lon="-0.34432950429618358612060546875">
        <ele>14.3999996185302734375</ele>
        <time>2021-09-27T12:24:04.000Z</time>
      </trkpt>
      <trkpt lat="39.53085847198963165283203125" lon="-0.3443460166454315185546875">
        <ele>14.19999980926513671875</ele>
        <time>2021-09-27T12:24:06.000Z</time>
      </trkpt>
      <trkpt lat="39.53075478784739971160888671875" lon="-0.34436671994626522064208984375">
        <ele>14</ele>
        <time>2021-09-27T12:24:08.000Z</time>
      </trkpt>
      <trkpt lat="39.53070466406643390655517578125" lon="-0.344373174011707305908203125">
        <ele>14</ele>
        <time>2021-09-27T12:24:09.000Z</time>
      </trkpt>
      <trkpt lat="39.53065386973321437835693359375" lon="-0.34437526948750019073486328125">
        <ele>13.80000019073486328125</ele>
        <time>2021-09-27T12:24:10.000Z</time>
      </trkpt>
      <trkpt lat="39.5306088589131832122802734375" lon="-0.344384573400020599365234375">
        <ele>13.80000019073486328125</ele>
        <time>2021-09-27T12:24:11.000Z</time>
      </trkpt>
      <trkpt lat="39.53056619502604007720947265625" lon="-0.34439672715961933135986328125">
        <ele>13.80000019073486328125</ele>
        <time>2021-09-27T12:24:12.000Z</time>
      </trkpt>
      <trkpt lat="39.53047533519566059112548828125" lon="-0.3444192744791507720947265625">
        <ele>13.80000019073486328125</ele>
        <time>2021-09-27T12:24:14.000Z</time>
      </trkpt>
      <trkpt lat="39.53043577261269092559814453125" lon="-0.34443251788616180419921875">
        <ele>13.80000019073486328125</ele>
        <time>2021-09-27T12:24:15.000Z</time>
      </trkpt>
      <trkpt lat="39.53038933686912059783935546875" lon="-0.34443712793290615081787109375">
        <ele>14</ele>
        <time>2021-09-27T12:24:16.000Z</time>
      </trkpt>
      <trkpt lat="39.530296884477138519287109375" lon="-0.34444995224475860595703125">
        <ele>14</ele>
        <time>2021-09-27T12:24:18.000Z</time>
      </trkpt>
      <trkpt lat="39.53024198301136493682861328125" lon="-0.3444585017859935760498046875">
        <ele>14.19999980926513671875</ele>
        <time>2021-09-27T12:24:20.000Z</time>
      </trkpt>
      <trkpt lat="39.53022471629083156585693359375" lon="-0.3444574959576129913330078125">
        <ele>14.19999980926513671875</ele>
        <time>2021-09-27T12:24:21.000Z</time>
      </trkpt>
      <trkpt lat="39.5302152447402477264404296875" lon="-0.3444568254053592681884765625">
        <ele>14.19999980926513671875</ele>
        <time>2021-09-27T12:24:22.000Z</time>
      </trkpt>
      <trkpt lat="39.53019286505877971649169921875" lon="-0.34446579404175281524658203125">
        <ele>14.3999996185302734375</ele>
        <time>2021-09-27T12:24:24.000Z</time>
      </trkpt>
      <trkpt lat="39.53013720922172069549560546875" lon="-0.3445004113018512725830078125">
        <ele>14.3999996185302734375</ele>
        <time>2021-09-27T12:24:26.000Z</time>
      </trkpt>
      <trkpt lat="39.530069567263126373291015625" lon="-0.3445557318627834320068359375">
        <ele>14.6000003814697265625</ele>
        <time>2021-09-27T12:24:28.000Z</time>
      </trkpt>
      <trkpt lat="39.529989771544933319091796875" lon="-0.34454491920769214630126953125">
        <ele>14.80000019073486328125</ele>
        <time>2021-09-27T12:24:30.000Z</time>
      </trkpt>
      <trkpt lat="39.52994794584810733795166015625" lon="-0.3445235453546047210693359375">
        <ele>15</ele>
        <time>2021-09-27T12:24:31.000Z</time>
      </trkpt>
      <trkpt lat="39.52990301884710788726806640625" lon="-0.34451960586011409759521484375">
        <ele>15</ele>
        <time>2021-09-27T12:24:32.000Z</time>
      </trkpt>
      <trkpt lat="39.529856331646442413330078125" lon="-0.3445268981158733367919921875">
        <ele>15.19999980926513671875</ele>
        <time>2021-09-27T12:24:33.000Z</time>
      </trkpt>
      <trkpt lat="39.52981165610253810882568359375" lon="-0.344536788761615753173828125">
        <ele>15.19999980926513671875</ele>
        <time>2021-09-27T12:24:34.000Z</time>
      </trkpt>
      <trkpt lat="39.52972012571990489959716796875" lon="-0.3445607610046863555908203125">
        <ele>15.3999996185302734375</ele>
        <time>2021-09-27T12:24:36.000Z</time>
      </trkpt>
      <trkpt lat="39.52962004579603672027587890625" lon="-0.34457375295460224151611328125">
        <ele>15.80000019073486328125</ele>
        <time>2021-09-27T12:24:38.000Z</time>
      </trkpt>
      <trkpt lat="39.52952281571924686431884765625" lon="-0.3445929475128650665283203125">
        <ele>15.80000019073486328125</ele>
        <time>2021-09-27T12:24:40.000Z</time>
      </trkpt>
      <trkpt lat="39.5294296927750110626220703125" lon="-0.34461180679500102996826171875">
        <ele>15.80000019073486328125</ele>
        <time>2021-09-27T12:24:42.000Z</time>
      </trkpt>
      <trkpt lat="39.52933254651725292205810546875" lon="-0.34463812597095966339111328125">
        <ele>15.80000019073486328125</ele>
        <time>2021-09-27T12:24:44.000Z</time>
      </trkpt>
      <trkpt lat="39.52922768890857696533203125" lon="-0.3446651995182037353515625">
        <ele>15.6000003814697265625</ele>
        <time>2021-09-27T12:24:46.000Z</time>
      </trkpt>
      <trkpt lat="39.529178403317928314208984375" lon="-0.34467785619199275970458984375">
        <ele>15.6000003814697265625</ele>
        <time>2021-09-27T12:24:47.000Z</time>
      </trkpt>
      <trkpt lat="39.5291296206414699554443359375" lon="-0.344689674675464630126953125">
        <ele>15.6000003814697265625</ele>
        <time>2021-09-27T12:24:48.000Z</time>
      </trkpt>
      <trkpt lat="39.52903498895466327667236328125" lon="-0.3447134792804718017578125">
        <ele>15.6000003814697265625</ele>
        <time>2021-09-27T12:24:50.000Z</time>
      </trkpt>
      <trkpt lat="39.52893608249723911285400390625" lon="-0.34473828971385955810546875">
        <ele>15.3999996185302734375</ele>
        <time>2021-09-27T12:24:52.000Z</time>
      </trkpt>
      <trkpt lat="39.52888629399240016937255859375" lon="-0.3447515331208705902099609375">
        <ele>15.3999996185302734375</ele>
        <time>2021-09-27T12:24:53.000Z</time>
      </trkpt>
      <trkpt lat="39.52883667312562465667724609375" lon="-0.3447639383375644683837890625">
        <ele>15.3999996185302734375</ele>
        <time>2021-09-27T12:24:54.000Z</time>
      </trkpt>
      <trkpt lat="39.52873977832496166229248046875" lon="-0.3447926044464111328125">
        <ele>15.19999980926513671875</ele>
        <time>2021-09-27T12:24:56.000Z</time>
      </trkpt>
      <trkpt lat="39.528639949858188629150390625" lon="-0.34482353366911411285400390625">
        <ele>15.19999980926513671875</ele>
        <time>2021-09-27T12:24:58.000Z</time>
      </trkpt>
      <trkpt lat="39.52859108336269855499267578125" lon="-0.34483610652387142181396484375">
        <ele>15.3999996185302734375</ele>
        <time>2021-09-27T12:24:59.000Z</time>
      </trkpt>
      <trkpt lat="39.528550766408443450927734375" lon="-0.3448480926454067230224609375">
        <ele>15.6000003814697265625</ele>
        <time>2021-09-27T12:25:00.000Z</time>
      </trkpt>
      <trkpt lat="39.5284746587276458740234375" lon="-0.34487240016460418701171875">
        <ele>15.80000019073486328125</ele>
        <time>2021-09-27T12:25:02.000Z</time>
      </trkpt>
      <trkpt lat="39.52843266539275646209716796875" lon="-0.34487918950617313385009765625">
        <ele>15.80000019073486328125</ele>
        <time>2021-09-27T12:25:03.000Z</time>
      </trkpt>
      <trkpt lat="39.52839226461946964263916015625" lon="-0.34486561082303524017333984375">
        <ele>15.80000019073486328125</ele>
        <time>2021-09-27T12:25:04.000Z</time>
      </trkpt>
      <trkpt lat="39.5283306576311588287353515625" lon="-0.3448393754661083221435546875">
        <ele>15.6000003814697265625</ele>
        <time>2021-09-27T12:25:06.000Z</time>
      </trkpt>
      <trkpt lat="39.52829084359109401702880859375" lon="-0.3448383696377277374267578125">
        <ele>15.3999996185302734375</ele>
        <time>2021-09-27T12:25:07.000Z</time>
      </trkpt>
      <trkpt lat="39.52824977226555347442626953125" lon="-0.344847925007343292236328125">
        <ele>15.3999996185302734375</ele>
        <time>2021-09-27T12:25:08.000Z</time>
      </trkpt>
      <trkpt lat="39.528172910213470458984375" lon="-0.3448770940303802490234375">
        <ele>15.6000003814697265625</ele>
        <time>2021-09-27T12:25:10.000Z</time>
      </trkpt>
      <trkpt lat="39.5280939526855945587158203125" lon="-0.344910956919193267822265625">
        <ele>15.6000003814697265625</ele>
        <time>2021-09-27T12:25:12.000Z</time>
      </trkpt>
      <trkpt lat="39.52801256440579891204833984375" lon="-0.34495077095925807952880859375">
        <ele>15.6000003814697265625</ele>
        <time>2021-09-27T12:25:14.000Z</time>
      </trkpt>
      <trkpt lat="39.5279276557266712188720703125" lon="-0.3449959494173526763916015625">
        <ele>15.80000019073486328125</ele>
        <time>2021-09-27T12:25:16.000Z</time>
      </trkpt>
      <trkpt lat="39.52783805318176746368408203125" lon="-0.34502838738262653350830078125">
        <ele>15.80000019073486328125</ele>
        <time>2021-09-27T12:25:18.000Z</time>
      </trkpt>
      <trkpt lat="39.527754150331020355224609375" lon="-0.345063172280788421630859375">
        <ele>15.80000019073486328125</ele>
        <time>2021-09-27T12:25:20.000Z</time>
      </trkpt>
      <trkpt lat="39.52766588889062404632568359375" lon="-0.345094017684459686279296875">
        <ele>15.6000003814697265625</ele>
        <time>2021-09-27T12:25:22.000Z</time>
      </trkpt>
      <trkpt lat="39.52758559025824069976806640625" lon="-0.34514506347477436065673828125">
        <ele>15.6000003814697265625</ele>
        <time>2021-09-27T12:25:24.000Z</time>
      </trkpt>
      <trkpt lat="39.52754166908562183380126953125" lon="-0.3451645933091640472412109375">
        <ele>15.3999996185302734375</ele>
        <time>2021-09-27T12:25:25.000Z</time>
      </trkpt>
      <trkpt lat="39.527491629123687744140625" lon="-0.34518009983003139495849609375">
        <ele>15.3999996185302734375</ele>
        <time>2021-09-27T12:25:26.000Z</time>
      </trkpt>
      <trkpt lat="39.527401439845561981201171875" lon="-0.34521664492785930633544921875">
        <ele>15.19999980926513671875</ele>
        <time>2021-09-27T12:25:28.000Z</time>
      </trkpt>
      <trkpt lat="39.5273023657500743865966796875" lon="-0.345250256359577178955078125">
        <ele>15</ele>
        <time>2021-09-27T12:25:30.000Z</time>
      </trkpt>
      <trkpt lat="39.52725701965391635894775390625" lon="-0.34527380950748920440673828125">
        <ele>15</ele>
        <time>2021-09-27T12:25:31.000Z</time>
      </trkpt>
      <trkpt lat="39.527215026319026947021484375" lon="-0.34530155360698699951171875">
        <ele>15</ele>
        <time>2021-09-27T12:25:32.000Z</time>
      </trkpt>
      <trkpt lat="39.5271256752312183380126953125" lon="-0.3453510068356990814208984375">
        <ele>14.80000019073486328125</ele>
        <time>2021-09-27T12:25:34.000Z</time>
      </trkpt>
      <trkpt lat="39.52707965858280658721923828125" lon="-0.345370285212993621826171875">
        <ele>14.80000019073486328125</ele>
        <time>2021-09-27T12:25:35.000Z</time>
      </trkpt>
      <trkpt lat="39.52703339047729969024658203125" lon="-0.34538763575255870819091796875">
        <ele>14.80000019073486328125</ele>
        <time>2021-09-27T12:25:36.000Z</time>
      </trkpt>
      <trkpt lat="39.52694236300885677337646484375" lon="-0.34541848115622997283935546875">
        <ele>14.80000019073486328125</ele>
        <time>2021-09-27T12:25:38.000Z</time>
      </trkpt>
      <trkpt lat="39.526854939758777618408203125" lon="-0.34545050002634525299072265625">
        <ele>15</ele>
        <time>2021-09-27T12:25:40.000Z</time>
      </trkpt>
      <trkpt lat="39.526763744652271270751953125" lon="-0.34548972733318805694580078125">
        <ele>15</ele>
        <time>2021-09-27T12:25:42.000Z</time>
      </trkpt>
      <trkpt lat="39.52671688981354236602783203125" lon="-0.3455075807869434356689453125">
        <ele>15</ele>
        <time>2021-09-27T12:25:43.000Z</time>
      </trkpt>
      <trkpt lat="39.5266700349748134613037109375" lon="-0.34552509896457195281982421875">
        <ele>15</ele>
        <time>2021-09-27T12:25:44.000Z</time>
      </trkpt>
      <trkpt lat="39.52657498419284820556640625" lon="-0.34555862657725811004638671875">
        <ele>15</ele>
        <time>2021-09-27T12:25:46.000Z</time>
      </trkpt>
      <trkpt lat="39.5264735631644725799560546875" lon="-0.34559584222733974456787109375">
        <ele>15</ele>
        <time>2021-09-27T12:25:48.000Z</time>
      </trkpt>
      <trkpt lat="39.52637784183025360107421875" lon="-0.34562987275421619415283203125">
        <ele>15</ele>
        <time>2021-09-27T12:25:50.000Z</time>
      </trkpt>
      <trkpt lat="39.52633081935346126556396484375" lon="-0.3456504084169864654541015625">
        <ele>15</ele>
        <time>2021-09-27T12:25:51.000Z</time>
      </trkpt>
      <trkpt lat="39.52628404833376407623291015625" lon="-0.345670692622661590576171875">
        <ele>15</ele>
        <time>2021-09-27T12:25:52.000Z</time>
      </trkpt>
      <trkpt lat="39.52619151212275028228759765625" lon="-0.34570883028209209442138671875">
        <ele>15</ele>
        <time>2021-09-27T12:25:54.000Z</time>
      </trkpt>
      <trkpt lat="39.526097215712070465087890625" lon="-0.34573498181998729705810546875">
        <ele>15</ele>
        <time>2021-09-27T12:25:56.000Z</time>
      </trkpt>
      <trkpt lat="39.52599990181624889373779296875" lon="-0.345770604908466339111328125">
        <ele>14.80000019073486328125</ele>
        <time>2021-09-27T12:25:58.000Z</time>
      </trkpt>
      <trkpt lat="39.5259518735110759735107421875" lon="-0.3457918949425220489501953125">
        <ele>14.80000019073486328125</ele>
        <time>2021-09-27T12:25:59.000Z</time>
      </trkpt>
      <trkpt lat="39.5259052701294422149658203125" lon="-0.34581041894853115081787109375">
        <ele>14.6000003814697265625</ele>
        <time>2021-09-27T12:26:00.000Z</time>
      </trkpt>
      <trkpt lat="39.52581315301358699798583984375" lon="-0.3458462096750736236572265625">
        <ele>14.6000003814697265625</ele>
        <time>2021-09-27T12:26:02.000Z</time>
      </trkpt>
      <trkpt lat="39.52571994625031948089599609375" lon="-0.34588082693517208099365234375">
        <ele>14.3999996185302734375</ele>
        <time>2021-09-27T12:26:04.000Z</time>
      </trkpt>
      <trkpt lat="39.525628499686717987060546875" lon="-0.34591443836688995361328125">
        <ele>14.19999980926513671875</ele>
        <time>2021-09-27T12:26:06.000Z</time>
      </trkpt>
      <trkpt lat="39.52558256685733795166015625" lon="-0.34592877142131328582763671875">
        <ele>14.19999980926513671875</ele>
        <time>2021-09-27T12:26:07.000Z</time>
      </trkpt>
      <trkpt lat="39.52553537674248218536376953125" lon="-0.3459441103041172027587890625">
        <ele>14</ele>
        <time>2021-09-27T12:26:08.000Z</time>
      </trkpt>
      <trkpt lat="39.52544434927403926849365234375" lon="-0.3459783084690570831298828125">
        <ele>13.80000019073486328125</ele>
        <time>2021-09-27T12:26:10.000Z</time>
      </trkpt>
      <trkpt lat="39.525353573262691497802734375" lon="-0.3460098244249820709228515625">
        <ele>13.6000003814697265625</ele>
        <time>2021-09-27T12:26:12.000Z</time>
      </trkpt>
      <trkpt lat="39.5253171958029270172119140625" lon="-0.3460252471268177032470703125">
        <ele>13.6000003814697265625</ele>
        <time>2021-09-27T12:26:13.000Z</time>
      </trkpt>
      <trkpt lat="39.52528056688606739044189453125" lon="-0.34603857435286045074462890625">
        <ele>13.6000003814697265625</ele>
        <time>2021-09-27T12:26:14.000Z</time>
      </trkpt>
      <trkpt lat="39.525211416184902191162109375" lon="-0.34606254659593105316162109375">
        <ele>13.6000003814697265625</ele>
        <time>2021-09-27T12:26:16.000Z</time>
      </trkpt>
      <trkpt lat="39.525146372616291046142578125" lon="-0.34609020687639713287353515625">
        <ele>13.6000003814697265625</ele>
        <time>2021-09-27T12:26:18.000Z</time>
      </trkpt>
      <trkpt lat="39.52507655136287212371826171875" lon="-0.34610998816788196563720703125">
        <ele>13.3999996185302734375</ele>
        <time>2021-09-27T12:26:20.000Z</time>
      </trkpt>
      <trkpt lat="39.52499474398791790008544921875" lon="-0.34611853770911693572998046875">
        <ele>13.3999996185302734375</ele>
        <time>2021-09-27T12:26:22.000Z</time>
      </trkpt>
      <trkpt lat="39.52493037097156047821044921875" lon="-0.34616312943398952484130859375">
        <ele>13.3999996185302734375</ele>
        <time>2021-09-27T12:26:24.000Z</time>
      </trkpt>
      <trkpt lat="39.5248414389789104461669921875" lon="-0.346221216022968292236328125">
        <ele>13.3999996185302734375</ele>
        <time>2021-09-27T12:26:26.000Z</time>
      </trkpt>
      <trkpt lat="39.524745382368564605712890625" lon="-0.34626471810042858123779296875">
        <ele>13.19999980926513671875</ele>
        <time>2021-09-27T12:26:28.000Z</time>
      </trkpt>
      <trkpt lat="39.52464924193918704986572265625" lon="-0.34630545414984226226806640625">
        <ele>13.19999980926513671875</ele>
        <time>2021-09-27T12:26:30.000Z</time>
      </trkpt>
      <trkpt lat="39.5245504193007946014404296875" lon="-0.3463427536189556121826171875">
        <ele>13</ele>
        <time>2021-09-27T12:26:32.000Z</time>
      </trkpt>
      <trkpt lat="39.5244585536420345306396484375" lon="-0.34637955017387866973876953125">
        <ele>12.80000019073486328125</ele>
        <time>2021-09-27T12:26:34.000Z</time>
      </trkpt>
      <trkpt lat="39.52441580593585968017578125" lon="-0.34639664925634860992431640625">
        <ele>12.6000003814697265625</ele>
        <time>2021-09-27T12:26:35.000Z</time>
      </trkpt>
      <trkpt lat="39.52437548898160457611083984375" lon="-0.34641056321561336517333984375">
        <ele>12.6000003814697265625</ele>
        <time>2021-09-27T12:26:36.000Z</time>
      </trkpt>
      <trkpt lat="39.5242962799966335296630859375" lon="-0.34643554128706455230712890625">
        <ele>12.3999996185302734375</ele>
        <time>2021-09-27T12:26:38.000Z</time>
      </trkpt>
      <trkpt lat="39.52421522699296474456787109375" lon="-0.3464668057858943939208984375">
        <ele>12.19999980926513671875</ele>
        <time>2021-09-27T12:26:40.000Z</time>
      </trkpt>
      <trkpt lat="39.52412788756191730499267578125" lon="-0.3465010039508342742919921875">
        <ele>12</ele>
        <time>2021-09-27T12:26:42.000Z</time>
      </trkpt>
      <trkpt lat="39.52403803355991840362548828125" lon="-0.34653629176318645477294921875">
        <ele>11.80000019073486328125</ele>
        <time>2021-09-27T12:26:44.000Z</time>
      </trkpt>
      <trkpt lat="39.52395320869982242584228515625" lon="-0.3465707413852214813232421875">
        <ele>11.80000019073486328125</ele>
        <time>2021-09-27T12:26:46.000Z</time>
      </trkpt>
      <trkpt lat="39.5238520391285419464111328125" lon="-0.346607454121112823486328125">
        <ele>11.3999996185302734375</ele>
        <time>2021-09-27T12:26:48.000Z</time>
      </trkpt>
      <trkpt lat="39.5237450860440731048583984375" lon="-0.34664793871343135833740234375">
        <ele>11.19999980926513671875</ele>
        <time>2021-09-27T12:26:50.000Z</time>
      </trkpt>
      <trkpt lat="39.523645341396331787109375" lon="-0.346686579287052154541015625">
        <ele>11</ele>
        <time>2021-09-27T12:26:52.000Z</time>
      </trkpt>
      <trkpt lat="39.5235496200621128082275390625" lon="-0.34672555513679981231689453125">
        <ele>11</ele>
        <time>2021-09-27T12:26:54.000Z</time>
      </trkpt>
      <trkpt lat="39.5234507136046886444091796875" lon="-0.3467625193297863006591796875">
        <ele>11</ele>
        <time>2021-09-27T12:26:56.000Z</time>
      </trkpt>
      <trkpt lat="39.52334853820502758026123046875" lon="-0.34679797478020191192626953125">
        <ele>10.80000019073486328125</ele>
        <time>2021-09-27T12:26:58.000Z</time>
      </trkpt>
      <trkpt lat="39.52324577607214450836181640625" lon="-0.346833430230617523193359375">
        <ele>10.80000019073486328125</ele>
        <time>2021-09-27T12:27:00.000Z</time>
      </trkpt>
      <trkpt lat="39.523142762482166290283203125" lon="-0.346865952014923095703125">
        <ele>10.6000003814697265625</ele>
        <time>2021-09-27T12:27:02.000Z</time>
      </trkpt>
      <trkpt lat="39.52304477803409099578857421875" lon="-0.34690040163695812225341796875">
        <ele>10.3999996185302734375</ele>
        <time>2021-09-27T12:27:04.000Z</time>
      </trkpt>
      <trkpt lat="39.5229960791766643524169921875" lon="-0.34691548906266689300537109375">
        <ele>10.3999996185302734375</ele>
        <time>2021-09-27T12:27:05.000Z</time>
      </trkpt>
      <trkpt lat="39.52294595539569854736328125" lon="-0.34692537970840930938720703125">
        <ele>10.19999980926513671875</ele>
        <time>2021-09-27T12:27:06.000Z</time>
      </trkpt>
      <trkpt lat="39.52290144748985767364501953125" lon="-0.34693879075348377227783203125">
        <ele>10.19999980926513671875</ele>
        <time>2021-09-27T12:27:07.000Z</time>
      </trkpt>
      <trkpt lat="39.522858448326587677001953125" lon="-0.34695974551141262054443359375">
        <ele>10</ele>
        <time>2021-09-27T12:27:08.000Z</time>
      </trkpt>
      <trkpt lat="39.52277571894228458404541015625" lon="-0.34699260257184505462646484375">
        <ele>10</ele>
        <time>2021-09-27T12:27:10.000Z</time>
      </trkpt>
      <trkpt lat="39.52269776724278926849365234375" lon="-0.34702965058386325836181640625">
        <ele>10</ele>
        <time>2021-09-27T12:27:12.000Z</time>
      </trkpt>
      <trkpt lat="39.52261738479137420654296875" lon="-0.347065441310405731201171875">
        <ele>10</ele>
        <time>2021-09-27T12:27:14.000Z</time>
      </trkpt>
      <trkpt lat="39.5225431211292743682861328125" lon="-0.34709586761891841888427734375">
        <ele>10</ele>
        <time>2021-09-27T12:27:16.000Z</time>
      </trkpt>
      <trkpt lat="39.52245636843144893646240234375" lon="-0.347122438251972198486328125">
        <ele>10</ele>
        <time>2021-09-27T12:27:18.000Z</time>
      </trkpt>
      <trkpt lat="39.52241295017302036285400390625" lon="-0.34713626839220523834228515625">
        <ele>10</ele>
        <time>2021-09-27T12:27:19.000Z</time>
      </trkpt>
      <trkpt lat="39.52237154357135295867919921875" lon="-0.34715303219854831695556640625">
        <ele>10</ele>
        <time>2021-09-27T12:27:20.000Z</time>
      </trkpt>
      <trkpt lat="39.52229057438671588897705078125" lon="-0.3471863083541393280029296875">
        <ele>10</ele>
        <time>2021-09-27T12:27:22.000Z</time>
      </trkpt>
      <trkpt lat="39.52221161685883998870849609375" lon="-0.3472138009965419769287109375">
        <ele>10</ele>
        <time>2021-09-27T12:27:24.000Z</time>
      </trkpt>
      <trkpt lat="39.5221347548067569732666015625" lon="-0.347238443791866302490234375">
        <ele>10</ele>
        <time>2021-09-27T12:27:26.000Z</time>
      </trkpt>
      <trkpt lat="39.5220978744328022003173828125" lon="-0.347252190113067626953125">
        <ele>10</ele>
        <time>2021-09-27T12:27:27.000Z</time>
      </trkpt>
      <trkpt lat="39.522059150040149688720703125" lon="-0.34726501442492008209228515625">
        <ele>10</ele>
        <time>2021-09-27T12:27:28.000Z</time>
      </trkpt>
      <trkpt lat="39.52198144979774951934814453125" lon="-0.347289741039276123046875">
        <ele>10</ele>
        <time>2021-09-27T12:27:30.000Z</time>
      </trkpt>
      <trkpt lat="39.52190215699374675750732421875" lon="-0.34731714986264705657958984375">
        <ele>10</ele>
        <time>2021-09-27T12:27:32.000Z</time>
      </trkpt>
      <trkpt lat="39.52182252891361713409423828125" lon="-0.34734514541923999786376953125">
        <ele>10</ele>
        <time>2021-09-27T12:27:34.000Z</time>
      </trkpt>
      <trkpt lat="39.521782882511615753173828125" lon="-0.3473572991788387298583984375">
        <ele>10</ele>
        <time>2021-09-27T12:27:35.000Z</time>
      </trkpt>
      <trkpt lat="39.521743319928646087646484375" lon="-0.34736928530037403106689453125">
        <ele>10</ele>
        <time>2021-09-27T12:27:36.000Z</time>
      </trkpt>
      <trkpt lat="39.52165673486888408660888671875" lon="-0.34739141352474689483642578125">
        <ele>10.19999980926513671875</ele>
        <time>2021-09-27T12:27:38.000Z</time>
      </trkpt>
      <trkpt lat="39.5215631090104579925537109375" lon="-0.3474189899861812591552734375">
        <ele>10.19999980926513671875</ele>
        <time>2021-09-27T12:27:40.000Z</time>
      </trkpt>
      <trkpt lat="39.52146537601947784423828125" lon="-0.3474370948970317840576171875">
        <ele>10.19999980926513671875</ele>
        <time>2021-09-27T12:27:42.000Z</time>
      </trkpt>
      <trkpt lat="39.52137208543717861175537109375" lon="-0.3474600613117218017578125">
        <ele>10.3999996185302734375</ele>
        <time>2021-09-27T12:27:44.000Z</time>
      </trkpt>
      <trkpt lat="39.52127334661781787872314453125" lon="-0.3474890626966953277587890625">
        <ele>10.3999996185302734375</ele>
        <time>2021-09-27T12:27:46.000Z</time>
      </trkpt>
      <trkpt lat="39.52117142267525196075439453125" lon="-0.34751328639686107635498046875">
        <ele>10.6000003814697265625</ele>
        <time>2021-09-27T12:27:48.000Z</time>
      </trkpt>
      <trkpt lat="39.52111844904720783233642578125" lon="-0.34752451814711093902587890625">
        <ele>10.80000019073486328125</ele>
        <time>2021-09-27T12:27:49.000Z</time>
      </trkpt>
      <trkpt lat="39.52106681652367115020751953125" lon="-0.347534827888011932373046875">
        <ele>10.80000019073486328125</ele>
        <time>2021-09-27T12:27:50.000Z</time>
      </trkpt>
      <trkpt lat="39.5209673233330249786376953125" lon="-0.3475584648549556732177734375">
        <ele>11.19999980926513671875</ele>
        <time>2021-09-27T12:27:52.000Z</time>
      </trkpt>
      <trkpt lat="39.52087302692234516143798828125" lon="-0.3475846163928508758544921875">
        <ele>11.6000003814697265625</ele>
        <time>2021-09-27T12:27:54.000Z</time>
      </trkpt>
      <trkpt lat="39.52077336609363555908203125" lon="-0.34761018119752407073974609375">
        <ele>11.80000019073486328125</ele>
        <time>2021-09-27T12:27:56.000Z</time>
      </trkpt>
      <trkpt lat="39.52066834084689617156982421875" lon="-0.347636751830577850341796875">
        <ele>12.19999980926513671875</ele>
        <time>2021-09-27T12:27:58.000Z</time>
      </trkpt>
      <trkpt lat="39.52056155540049076080322265625" lon="-0.34766189754009246826171875">
        <ele>12.19999980926513671875</ele>
        <time>2021-09-27T12:28:00.000Z</time>
      </trkpt>
      <trkpt lat="39.52045963145792484283447265625" lon="-0.3476851992309093475341796875">
        <ele>12.3999996185302734375</ele>
        <time>2021-09-27T12:28:02.000Z</time>
      </trkpt>
      <trkpt lat="39.5204097591340541839599609375" lon="-0.347694419324398040771484375">
        <ele>12.3999996185302734375</ele>
        <time>2021-09-27T12:28:03.000Z</time>
      </trkpt>
      <trkpt lat="39.52036038972437381744384765625" lon="-0.34770221449434757232666015625">
        <ele>12.3999996185302734375</ele>
        <time>2021-09-27T12:28:04.000Z</time>
      </trkpt>
      <trkpt lat="39.52025947161018848419189453125" lon="-0.34771746955811977386474609375">
        <ele>12.6000003814697265625</ele>
        <time>2021-09-27T12:28:06.000Z</time>
      </trkpt>
      <trkpt lat="39.520154781639575958251953125" lon="-0.34773071296513080596923828125">
        <ele>13</ele>
        <time>2021-09-27T12:28:08.000Z</time>
      </trkpt>
      <trkpt lat="39.52005051076412200927734375" lon="-0.34774479456245899200439453125">
        <ele>13.3999996185302734375</ele>
        <time>2021-09-27T12:28:10.000Z</time>
      </trkpt>
      <trkpt lat="39.519950263202190399169921875" lon="-0.347754769027233123779296875">
        <ele>13.80000019073486328125</ele>
        <time>2021-09-27T12:28:12.000Z</time>
      </trkpt>
      <trkpt lat="39.51985177583992481231689453125" lon="-0.34777195192873477935791015625">
        <ele>14.19999980926513671875</ele>
        <time>2021-09-27T12:28:14.000Z</time>
      </trkpt>
      <trkpt lat="39.5197596587240695953369140625" lon="-0.34778033383190631866455078125">
        <ele>14.6000003814697265625</ele>
        <time>2021-09-27T12:28:16.000Z</time>
      </trkpt>
      <trkpt lat="39.51971179805696010589599609375" lon="-0.34778821282088756561279296875">
        <ele>14.80000019073486328125</ele>
        <time>2021-09-27T12:28:17.000Z</time>
      </trkpt>
      <trkpt lat="39.51965966261923313140869140625" lon="-0.34779508598148822784423828125">
        <ele>15</ele>
        <time>2021-09-27T12:28:18.000Z</time>
      </trkpt>
      <trkpt lat="39.5195511169731616973876953125" lon="-0.34780405461788177490234375">
        <ele>15.19999980926513671875</ele>
        <time>2021-09-27T12:28:20.000Z</time>
      </trkpt>
      <trkpt lat="39.51944005675613880157470703125" lon="-0.3478149510920047760009765625">
        <ele>14.80000019073486328125</ele>
        <time>2021-09-27T12:28:22.000Z</time>
      </trkpt>
      <trkpt lat="39.51932773925364017486572265625" lon="-0.3478290326893329620361328125">
        <ele>14.19999980926513671875</ele>
        <time>2021-09-27T12:28:24.000Z</time>
      </trkpt>
      <trkpt lat="39.51927090995013713836669921875" lon="-0.34783624112606048583984375">
        <ele>14</ele>
        <time>2021-09-27T12:28:25.000Z</time>
      </trkpt>
      <trkpt lat="39.5192165113985538482666015625" lon="-0.34783548675477504730224609375">
        <ele>13.6000003814697265625</ele>
        <time>2021-09-27T12:28:26.000Z</time>
      </trkpt>
      <trkpt lat="39.51910377480089664459228515625" lon="-0.3478400968015193939208984375">
        <ele>13</ele>
        <time>2021-09-27T12:28:28.000Z</time>
      </trkpt>
      <trkpt lat="39.518990032374858856201171875" lon="-0.3478421084582805633544921875">
        <ele>12.19999980926513671875</ele>
        <time>2021-09-27T12:28:30.000Z</time>
      </trkpt>
      <trkpt lat="39.51887729577720165252685546875" lon="-0.34784671850502490997314453125">
        <ele>11.6000003814697265625</ele>
        <time>2021-09-27T12:28:32.000Z</time>
      </trkpt>
      <trkpt lat="39.51882314868271350860595703125" lon="-0.34784722141921520233154296875">
        <ele>11.3999996185302734375</ele>
        <time>2021-09-27T12:28:33.000Z</time>
      </trkpt>
      <trkpt lat="39.5187685824930667877197265625" lon="-0.34784562885761260986328125">
        <ele>11</ele>
        <time>2021-09-27T12:28:34.000Z</time>
      </trkpt>
      <trkpt lat="39.5186639763414859771728515625" lon="-0.3478451259434223175048828125">
        <ele>10.80000019073486328125</ele>
        <time>2021-09-27T12:28:36.000Z</time>
      </trkpt>
      <trkpt lat="39.51856113038957118988037109375" lon="-0.34784470684826374053955078125">
        <ele>10.6000003814697265625</ele>
        <time>2021-09-27T12:28:38.000Z</time>
      </trkpt>
      <trkpt lat="39.5184619724750518798828125" lon="-0.3478434495627880096435546875">
        <ele>10.3999996185302734375</ele>
        <time>2021-09-27T12:28:40.000Z</time>
      </trkpt>
      <trkpt lat="39.51836499385535717010498046875" lon="-0.34784101881086826324462890625">
        <ele>10.19999980926513671875</ele>
        <time>2021-09-27T12:28:42.000Z</time>
      </trkpt>
      <trkpt lat="39.51826927252113819122314453125" lon="-0.347839258611202239990234375">
        <ele>9.80000019073486328125</ele>
        <time>2021-09-27T12:28:44.000Z</time>
      </trkpt>
      <trkpt lat="39.5181607268750667572021484375" lon="-0.3478283621370792388916015625">
        <ele>9.6000003814697265625</ele>
        <time>2021-09-27T12:28:46.000Z</time>
      </trkpt>
      <trkpt lat="39.51804094947874546051025390625" lon="-0.34782073460519313812255859375">
        <ele>9.3999996185302734375</ele>
        <time>2021-09-27T12:28:48.000Z</time>
      </trkpt>
      <trkpt lat="39.5179344154894351959228515625" lon="-0.3478119336068630218505859375">
        <ele>9.19999980926513671875</ele>
        <time>2021-09-27T12:28:50.000Z</time>
      </trkpt>
      <trkpt lat="39.51783592812716960906982421875" lon="-0.347805060446262359619140625">
        <ele>9.19999980926513671875</ele>
        <time>2021-09-27T12:28:52.000Z</time>
      </trkpt>
      <trkpt lat="39.51778513379395008087158203125" lon="-0.34780581481754779815673828125">
        <ele>9.19999980926513671875</ele>
        <time>2021-09-27T12:28:53.000Z</time>
      </trkpt>
      <trkpt lat="39.51773333363234996795654296875" lon="-0.3478032164275646209716796875">
        <ele>9.19999980926513671875</ele>
        <time>2021-09-27T12:28:54.000Z</time>
      </trkpt>
      <trkpt lat="39.517629481852054595947265625" lon="-0.34780003130435943603515625">
        <ele>9.19999980926513671875</ele>
        <time>2021-09-27T12:28:56.000Z</time>
      </trkpt>
      <trkpt lat="39.51753635890781879425048828125" lon="-0.34779357723891735076904296875">
        <ele>9.19999980926513671875</ele>
        <time>2021-09-27T12:28:58.000Z</time>
      </trkpt>
      <trkpt lat="39.51744583435356616973876953125" lon="-0.3477824293076992034912109375">
        <ele>9.19999980926513671875</ele>
        <time>2021-09-27T12:29:00.000Z</time>
      </trkpt>
      <trkpt lat="39.517354555428028106689453125" lon="-0.347770862281322479248046875">
        <ele>9.19999980926513671875</ele>
        <time>2021-09-27T12:29:02.000Z</time>
      </trkpt>
      <trkpt lat="39.517256319522857666015625" lon="-0.3477569483220577239990234375">
        <ele>9.19999980926513671875</ele>
        <time>2021-09-27T12:29:04.000Z</time>
      </trkpt>
      <trkpt lat="39.5171565748751163482666015625" lon="-0.347746051847934722900390625">
        <ele>9.3999996185302734375</ele>
        <time>2021-09-27T12:29:06.000Z</time>
      </trkpt>
      <trkpt lat="39.5171062834560871124267578125" lon="-0.34774026833474636077880859375">
        <ele>9.3999996185302734375</ele>
        <time>2021-09-27T12:29:07.000Z</time>
      </trkpt>
      <trkpt lat="39.51705523766577243804931640625" lon="-0.34773238934576511383056640625">
        <ele>9.6000003814697265625</ele>
        <time>2021-09-27T12:29:08.000Z</time>
      </trkpt>
      <trkpt lat="39.51695633120834827423095703125" lon="-0.34771814011037349700927734375">
        <ele>9.6000003814697265625</ele>
        <time>2021-09-27T12:29:10.000Z</time>
      </trkpt>
      <trkpt lat="39.51686136424541473388671875" lon="-0.34770607016980648040771484375">
        <ele>9.3999996185302734375</ele>
        <time>2021-09-27T12:29:12.000Z</time>
      </trkpt>
      <trkpt lat="39.51676505617797374725341796875" lon="-0.3476972691714763641357421875">
        <ele>9.3999996185302734375</ele>
        <time>2021-09-27T12:29:14.000Z</time>
      </trkpt>
      <trkpt lat="39.516714513301849365234375" lon="-0.34769433550536632537841796875">
        <ele>9.3999996185302734375</ele>
        <time>2021-09-27T12:29:15.000Z</time>
      </trkpt>
      <trkpt lat="39.5166596956551074981689453125" lon="-0.34768796525895595550537109375">
        <ele>9.19999980926513671875</ele>
        <time>2021-09-27T12:29:16.000Z</time>
      </trkpt>
      <trkpt lat="39.51654863543808460235595703125" lon="-0.3476746380329132080078125">
        <ele>9.19999980926513671875</ele>
        <time>2021-09-27T12:29:18.000Z</time>
      </trkpt>
      <trkpt lat="39.51643531210720539093017578125" lon="-0.347662903368473052978515625">
        <ele>9</ele>
        <time>2021-09-27T12:29:20.000Z</time>
      </trkpt>
      <trkpt lat="39.51632165350019931793212890625" lon="-0.3476436249911785125732421875">
        <ele>9</ele>
        <time>2021-09-27T12:29:22.000Z</time>
      </trkpt>
      <trkpt lat="39.51621017418801784515380859375" lon="-0.347624681890010833740234375">
        <ele>8.80000019073486328125</ele>
        <time>2021-09-27T12:29:24.000Z</time>
      </trkpt>
      <trkpt lat="39.516102634370326995849609375" lon="-0.34761093556880950927734375">
        <ele>9</ele>
        <time>2021-09-27T12:29:26.000Z</time>
      </trkpt>
      <trkpt lat="39.51599366962909698486328125" lon="-0.34759593196213245391845703125">
        <ele>9.3999996185302734375</ele>
        <time>2021-09-27T12:29:28.000Z</time>
      </trkpt>
      <trkpt lat="39.5158842019736766815185546875" lon="-0.34758034162223339080810546875">
        <ele>9.6000003814697265625</ele>
        <time>2021-09-27T12:29:30.000Z</time>
      </trkpt>
      <trkpt lat="39.5157742314040660858154296875" lon="-0.34756458364427089691162109375">
        <ele>10</ele>
        <time>2021-09-27T12:29:32.000Z</time>
      </trkpt>
      <trkpt lat="39.51566107571125030517578125" lon="-0.347552932798862457275390625">
        <ele>9.80000019073486328125</ele>
        <time>2021-09-27T12:29:34.000Z</time>
      </trkpt>
      <trkpt lat="39.51555521227419376373291015625" lon="-0.3475403599441051483154296875">
        <ele>9.3999996185302734375</ele>
        <time>2021-09-27T12:29:36.000Z</time>
      </trkpt>
      <trkpt lat="39.51544641517102718353271484375" lon="-0.34752720035612583160400390625">
        <ele>9.19999980926513671875</ele>
        <time>2021-09-27T12:29:38.000Z</time>
      </trkpt>
      <trkpt lat="39.51533527113497257232666015625" lon="-0.34751445986330509185791015625">
        <ele>8.80000019073486328125</ele>
        <time>2021-09-27T12:29:40.000Z</time>
      </trkpt>
      <trkpt lat="39.515225552022457122802734375" lon="-0.34749828279018402099609375">
        <ele>8.80000019073486328125</ele>
        <time>2021-09-27T12:29:42.000Z</time>
      </trkpt>
      <trkpt lat="39.51511734165251255035400390625" lon="-0.3474806807935237884521484375">
        <ele>8.6000003814697265625</ele>
        <time>2021-09-27T12:29:44.000Z</time>
      </trkpt>
      <trkpt lat="39.5150178484618663787841796875" lon="-0.34746986813843250274658203125">
        <ele>8.3999996185302734375</ele>
        <time>2021-09-27T12:29:46.000Z</time>
      </trkpt>
      <trkpt lat="39.514962695538997650146484375" lon="-0.34746182151138782501220703125">
        <ele>8.3999996185302734375</ele>
        <time>2021-09-27T12:29:47.000Z</time>
      </trkpt>
      <trkpt lat="39.51491005718708038330078125" lon="-0.34745343960821628570556640625">
        <ele>8.6000003814697265625</ele>
        <time>2021-09-27T12:29:48.000Z</time>
      </trkpt>
      <trkpt lat="39.51480637304484844207763671875" lon="-0.3474411182105541229248046875">
        <ele>8.6000003814697265625</ele>
        <time>2021-09-27T12:29:50.000Z</time>
      </trkpt>
      <trkpt lat="39.51470277272164821624755859375" lon="-0.34742846153676509857177734375">
        <ele>8.80000019073486328125</ele>
        <time>2021-09-27T12:29:52.000Z</time>
      </trkpt>
      <trkpt lat="39.5146017707884311676025390625" lon="-0.34742024727165699005126953125">
        <ele>8.80000019073486328125</ele>
        <time>2021-09-27T12:29:54.000Z</time>
      </trkpt>
      <trkpt lat="39.5144991762936115264892578125" lon="-0.34740314818918704986572265625">
        <ele>9</ele>
        <time>2021-09-27T12:29:56.000Z</time>
      </trkpt>
      <trkpt lat="39.51439515687525272369384765625" lon="-0.3473844565451145172119140625">
        <ele>8.80000019073486328125</ele>
        <time>2021-09-27T12:29:58.000Z</time>
      </trkpt>
      <trkpt lat="39.51430387794971466064453125" lon="-0.3473795950412750244140625">
        <ele>8.6000003814697265625</ele>
        <time>2021-09-27T12:30:00.000Z</time>
      </trkpt>
      <trkpt lat="39.5142182148993015289306640625" lon="-0.34736928530037403106689453125">
        <ele>8.6000003814697265625</ele>
        <time>2021-09-27T12:30:02.000Z</time>
      </trkpt>
      <trkpt lat="39.514127857983112335205078125" lon="-0.34735570661723613739013671875">
        <ele>8.6000003814697265625</ele>
        <time>2021-09-27T12:30:04.000Z</time>
      </trkpt>
      <trkpt lat="39.51407865621149539947509765625" lon="-0.34734816290438175201416015625">
        <ele>8.80000019073486328125</ele>
        <time>2021-09-27T12:30:05.000Z</time>
      </trkpt>
      <trkpt lat="39.51403205282986164093017578125" lon="-0.3473418764770030975341796875">
        <ele>8.80000019073486328125</ele>
        <time>2021-09-27T12:30:06.000Z</time>
      </trkpt>
      <trkpt lat="39.5139416120946407318115234375" lon="-0.34732989035546779632568359375">
        <ele>9</ele>
        <time>2021-09-27T12:30:08.000Z</time>
      </trkpt>
      <trkpt lat="39.51384295709431171417236328125" lon="-0.34731589257717132568359375">
        <ele>9.19999980926513671875</ele>
        <time>2021-09-27T12:30:10.000Z</time>
      </trkpt>
      <trkpt lat="39.5137391053140163421630859375" lon="-0.34730524756014347076416015625">
        <ele>9.3999996185302734375</ele>
        <time>2021-09-27T12:30:12.000Z</time>
      </trkpt>
      <trkpt lat="39.51364598236978054046630859375" lon="-0.34728881902992725372314453125">
        <ele>9.3999996185302734375</ele>
        <time>2021-09-27T12:30:14.000Z</time>
      </trkpt>
      <trkpt lat="39.51355361379683017730712890625" lon="-0.3472764976322650909423828125">
        <ele>9.6000003814697265625</ele>
        <time>2021-09-27T12:30:16.000Z</time>
      </trkpt>
      <trkpt lat="39.51350516639649868011474609375" lon="-0.34727171994745731353759765625">
        <ele>9.3999996185302734375</ele>
        <time>2021-09-27T12:30:17.000Z</time>
      </trkpt>
      <trkpt lat="39.51346040703356266021728515625" lon="-0.3472640924155712127685546875">
        <ele>9.3999996185302734375</ele>
        <time>2021-09-27T12:30:18.000Z</time>
      </trkpt>
      <trkpt lat="39.51337440870702266693115234375" lon="-0.34725411795079708099365234375">
        <ele>9.19999980926513671875</ele>
        <time>2021-09-27T12:30:20.000Z</time>
      </trkpt>
      <trkpt lat="39.5132901705801486968994140625" lon="-0.34724674187600612640380859375">
        <ele>9</ele>
        <time>2021-09-27T12:30:22.000Z</time>
      </trkpt>
      <trkpt lat="39.5132013224065303802490234375" lon="-0.34723400138318538665771484375">
        <ele>8.80000019073486328125</ele>
        <time>2021-09-27T12:30:24.000Z</time>
      </trkpt>
      <trkpt lat="39.51311188749969005584716796875" lon="-0.34721706993877887725830078125">
        <ele>8.6000003814697265625</ele>
        <time>2021-09-27T12:30:26.000Z</time>
      </trkpt>
      <trkpt lat="39.51301834546029567718505859375" lon="-0.34720684401690959930419921875">
        <ele>8.3999996185302734375</ele>
        <time>2021-09-27T12:30:28.000Z</time>
      </trkpt>
      <trkpt lat="39.512926228344440460205078125" lon="-0.3471906669437885284423828125">
        <ele>8.19999980926513671875</ele>
        <time>2021-09-27T12:30:30.000Z</time>
      </trkpt>
      <trkpt lat="39.51282975263893604278564453125" lon="-0.34717834554612636566162109375">
        <ele>8</ele>
        <time>2021-09-27T12:30:32.000Z</time>
      </trkpt>
      <trkpt lat="39.51273537240922451019287109375" lon="-0.3471685387194156646728515625">
        <ele>7.80000019073486328125</ele>
        <time>2021-09-27T12:30:34.000Z</time>
      </trkpt>
      <trkpt lat="39.512645266950130462646484375" lon="-0.347153283655643463134765625">
        <ele>7.599999904632568359375</ele>
        <time>2021-09-27T12:30:36.000Z</time>
      </trkpt>
      <trkpt lat="39.51255549676716327667236328125" lon="-0.3471423871815204620361328125">
        <ele>7.400000095367431640625</ele>
        <time>2021-09-27T12:30:38.000Z</time>
      </trkpt>
      <trkpt lat="39.5125101506710052490234375" lon="-0.34713543020188808441162109375">
        <ele>7.19999980926513671875</ele>
        <time>2021-09-27T12:30:39.000Z</time>
      </trkpt>
      <trkpt lat="39.5124653913080692291259765625" lon="-0.34712637774646282196044921875">
        <ele>7</ele>
        <time>2021-09-27T12:30:40.000Z</time>
      </trkpt>
      <trkpt lat="39.5123787224292755126953125" lon="-0.34711732529103755950927734375">
        <ele>6.80000019073486328125</ele>
        <time>2021-09-27T12:30:42.000Z</time>
      </trkpt>
      <trkpt lat="39.5122997649013996124267578125" lon="-0.347106344997882843017578125">
        <ele>6.599999904632568359375</ele>
        <time>2021-09-27T12:30:44.000Z</time>
      </trkpt>
      <trkpt lat="39.51222910545766353607177734375" lon="-0.34709385596215724945068359375">
        <ele>6.400000095367431640625</ele>
        <time>2021-09-27T12:30:46.000Z</time>
      </trkpt>
      <trkpt lat="39.51218166388571262359619140625" lon="-0.3470666147768497467041015625">
        <ele>6.400000095367431640625</ele>
        <time>2021-09-27T12:30:48.000Z</time>
      </trkpt>
      <trkpt lat="39.51215207576751708984375" lon="-0.347048006951808929443359375">
        <ele>6.19999980926513671875</ele>
        <time>2021-09-27T12:30:50.000Z</time>
      </trkpt>
      <trkpt lat="39.51209583319723606109619140625" lon="-0.34703853540122509002685546875">
        <ele>6.19999980926513671875</ele>
        <time>2021-09-27T12:30:52.000Z</time>
      </trkpt>
      <trkpt lat="39.512018300592899322509765625" lon="-0.34702780656516551971435546875">
        <ele>6.19999980926513671875</ele>
        <time>2021-09-27T12:30:54.000Z</time>
      </trkpt>
      <trkpt lat="39.5119319669902324676513671875" lon="-0.347011126577854156494140625">
        <ele>6.19999980926513671875</ele>
        <time>2021-09-27T12:30:56.000Z</time>
      </trkpt>
      <trkpt lat="39.51183700002729892730712890625" lon="-0.34700601361691951751708984375">
        <ele>6.19999980926513671875</ele>
        <time>2021-09-27T12:30:58.000Z</time>
      </trkpt>
      <trkpt lat="39.51173993758857250213623046875" lon="-0.347000397741794586181640625">
        <ele>6.19999980926513671875</ele>
        <time>2021-09-27T12:31:00.000Z</time>
      </trkpt>
      <trkpt lat="39.5116375945508480072021484375" lon="-0.3469906747341156005859375">
        <ele>6.19999980926513671875</ele>
        <time>2021-09-27T12:31:02.000Z</time>
      </trkpt>
      <trkpt lat="39.51153843663632869720458984375" lon="-0.34697793424129486083984375">
        <ele>6.19999980926513671875</ele>
        <time>2021-09-27T12:31:04.000Z</time>
      </trkpt>
      <trkpt lat="39.5114397816359996795654296875" lon="-0.34696309827268123626708984375">
        <ele>6.19999980926513671875</ele>
        <time>2021-09-27T12:31:06.000Z</time>
      </trkpt>
      <trkpt lat="39.5113395340740680694580078125" lon="-0.34695119597017765045166015625">
        <ele>6.19999980926513671875</ele>
        <time>2021-09-27T12:31:08.000Z</time>
      </trkpt>
      <trkpt lat="39.51124104671180248260498046875" lon="-0.3469425626099109649658203125">
        <ele>6</ele>
        <time>2021-09-27T12:31:10.000Z</time>
      </trkpt>
      <trkpt lat="39.5111886598169803619384765625" lon="-0.346935354173183441162109375">
        <ele>6</ele>
        <time>2021-09-27T12:31:11.000Z</time>
      </trkpt>
      <trkpt lat="39.5111397095024585723876953125" lon="-0.3469284810125827789306640625">
        <ele>6</ele>
        <time>2021-09-27T12:31:12.000Z</time>
      </trkpt>
      <trkpt lat="39.5110374502837657928466796875" lon="-0.3469128906726837158203125">
        <ele>6.19999980926513671875</ele>
        <time>2021-09-27T12:31:14.000Z</time>
      </trkpt>
      <trkpt lat="39.51093795709311962127685546875" lon="-0.3468989767134189605712890625">
        <ele>6.19999980926513671875</ele>
        <time>2021-09-27T12:31:16.000Z</time>
      </trkpt>
      <trkpt lat="39.51084248721599578857421875" lon="-0.34688003361225128173828125">
        <ele>6.400000095367431640625</ele>
        <time>2021-09-27T12:31:18.000Z</time>
      </trkpt>
      <trkpt lat="39.5107417367398738861083984375" lon="-0.346870981156826019287109375">
        <ele>6.599999904632568359375</ele>
        <time>2021-09-27T12:31:20.000Z</time>
      </trkpt>
      <trkpt lat="39.5106884278357028961181640625" lon="-0.346863269805908203125">
        <ele>6.599999904632568359375</ele>
        <time>2021-09-27T12:31:21.000Z</time>
      </trkpt>
      <trkpt lat="39.51063838787376880645751953125" lon="-0.346858911216259002685546875">
        <ele>6.599999904632568359375</ele>
        <time>2021-09-27T12:31:22.000Z</time>
      </trkpt>
      <trkpt lat="39.5105345360934734344482421875" lon="-0.34684675745666027069091796875">
        <ele>6.80000019073486328125</ele>
        <time>2021-09-27T12:31:24.000Z</time>
      </trkpt>
      <trkpt lat="39.51042800210416316986083984375" lon="-0.3468329273164272308349609375">
        <ele>7.19999980926513671875</ele>
        <time>2021-09-27T12:31:26.000Z</time>
      </trkpt>
      <trkpt lat="39.510325491428375244140625" lon="-0.34681926481425762176513671875">
        <ele>7.400000095367431640625</ele>
        <time>2021-09-27T12:31:28.000Z</time>
      </trkpt>
      <trkpt lat="39.5102217234671115875244140625" lon="-0.34680333919823169708251953125">
        <ele>7.19999980926513671875</ele>
        <time>2021-09-27T12:31:30.000Z</time>
      </trkpt>
      <trkpt lat="39.51012290082871913909912109375" lon="-0.34679596312344074249267578125">
        <ele>7</ele>
        <time>2021-09-27T12:31:32.000Z</time>
      </trkpt>
      <trkpt lat="39.510022066533565521240234375" lon="-0.3467799536883831024169921875">
        <ele>6.599999904632568359375</ele>
        <time>2021-09-27T12:31:34.000Z</time>
      </trkpt>
      <trkpt lat="39.509920813143253326416015625" lon="-0.34676779992878437042236328125">
        <ele>6.400000095367431640625</ele>
        <time>2021-09-27T12:31:36.000Z</time>
      </trkpt>
      <trkpt lat="39.50982391834259033203125" lon="-0.3467551432549953460693359375">
        <ele>6.400000095367431640625</ele>
        <time>2021-09-27T12:31:38.000Z</time>
      </trkpt>
      <trkpt lat="39.509724676609039306640625" lon="-0.34674466587603092193603515625">
        <ele>6.19999980926513671875</ele>
        <time>2021-09-27T12:31:40.000Z</time>
      </trkpt>
      <trkpt lat="39.50962753035128116607666015625" lon="-0.3467278182506561279296875">
        <ele>6.19999980926513671875</ele>
        <time>2021-09-27T12:31:42.000Z</time>
      </trkpt>
      <trkpt lat="39.50952812097966670989990234375" lon="-0.346714071929454803466796875">
        <ele>6</ele>
        <time>2021-09-27T12:31:44.000Z</time>
      </trkpt>
      <trkpt lat="39.509427286684513092041015625" lon="-0.346704013645648956298828125">
        <ele>6.19999980926513671875</ele>
        <time>2021-09-27T12:31:46.000Z</time>
      </trkpt>
      <trkpt lat="39.50931991450488567352294921875" lon="-0.3466890938580036163330078125">
        <ele>6.599999904632568359375</ele>
        <time>2021-09-27T12:31:48.000Z</time>
      </trkpt>
      <trkpt lat="39.50921430252492427825927734375" lon="-0.3466741740703582763671875">
        <ele>6.80000019073486328125</ele>
        <time>2021-09-27T12:31:50.000Z</time>
      </trkpt>
      <trkpt lat="39.509108774363994598388671875" lon="-0.34666067920625209808349609375">
        <ele>7</ele>
        <time>2021-09-27T12:31:52.000Z</time>
      </trkpt>
      <trkpt lat="39.50900106690824031829833984375" lon="-0.3466508723795413970947265625">
        <ele>7</ele>
        <time>2021-09-27T12:31:54.000Z</time>
      </trkpt>
      <trkpt lat="39.50894792564213275909423828125" lon="-0.34664559178054332733154296875">
        <ele>7</ele>
        <time>2021-09-27T12:31:55.000Z</time>
      </trkpt>
      <trkpt lat="39.508893191814422607421875" lon="-0.34663754515349864959716796875">
        <ele>7</ele>
        <time>2021-09-27T12:31:56.000Z</time>
      </trkpt>
      <trkpt lat="39.50878565199673175811767578125" lon="-0.3466217033565044403076171875">
        <ele>7</ele>
        <time>2021-09-27T12:31:58.000Z</time>
      </trkpt>
      <trkpt lat="39.50868121348321437835693359375" lon="-0.346608124673366546630859375">
        <ele>7</ele>
        <time>2021-09-27T12:32:00.000Z</time>
      </trkpt>
      <trkpt lat="39.5085718296468257904052734375" lon="-0.34659345634281635284423828125">
        <ele>7.19999980926513671875</ele>
        <time>2021-09-27T12:32:02.000Z</time>
      </trkpt>
      <trkpt lat="39.5084662176668643951416015625" lon="-0.34657903946936130523681640625">
        <ele>7.19999980926513671875</ele>
        <time>2021-09-27T12:32:04.000Z</time>
      </trkpt>
      <trkpt lat="39.5083629526197910308837890625" lon="-0.34656328149139881134033203125">
        <ele>7.400000095367431640625</ele>
        <time>2021-09-27T12:32:06.000Z</time>
      </trkpt>
      <trkpt lat="39.50826220214366912841796875" lon="-0.34655238501727581024169921875">
        <ele>7.400000095367431640625</ele>
        <time>2021-09-27T12:32:08.000Z</time>
      </trkpt>
      <trkpt lat="39.5081614516675472259521484375" lon="-0.3465398959815502166748046875">
        <ele>7.599999904632568359375</ele>
        <time>2021-09-27T12:32:10.000Z</time>
      </trkpt>
      <trkpt lat="39.50806229375302791595458984375" lon="-0.34652422182261943817138671875">
        <ele>7.80000019073486328125</ele>
        <time>2021-09-27T12:32:12.000Z</time>
      </trkpt>
      <trkpt lat="39.50796355493366718292236328125" lon="-0.34651148132979869842529296875">
        <ele>7.80000019073486328125</ele>
        <time>2021-09-27T12:32:14.000Z</time>
      </trkpt>
      <trkpt lat="39.5079150237143039703369140625" lon="-0.34650385379791259765625">
        <ele>8</ele>
        <time>2021-09-27T12:32:15.000Z</time>
      </trkpt>
      <trkpt lat="39.50786481611430644989013671875" lon="-0.346496812999248504638671875">
        <ele>8</ele>
        <time>2021-09-27T12:32:16.000Z</time>
      </trkpt>
      <trkpt lat="39.5077691785991191864013671875" lon="-0.3464862518012523651123046875">
        <ele>8</ele>
        <time>2021-09-27T12:32:18.000Z</time>
      </trkpt>
      <trkpt lat="39.50767077505588531494140625" lon="-0.3464731760323047637939453125">
        <ele>7.80000019073486328125</ele>
        <time>2021-09-27T12:32:20.000Z</time>
      </trkpt>
      <trkpt lat="39.50762358494102954864501953125" lon="-0.3464647941291332244873046875">
        <ele>7.80000019073486328125</ele>
        <time>2021-09-27T12:32:21.000Z</time>
      </trkpt>
      <trkpt lat="39.5075733773410320281982421875" lon="-0.34645984880626201629638671875">
        <ele>7.599999904632568359375</ele>
        <time>2021-09-27T12:32:22.000Z</time>
      </trkpt>
      <trkpt lat="39.5074774883687496185302734375" lon="-0.34644559957087039947509765625">
        <ele>7.599999904632568359375</ele>
        <time>2021-09-27T12:32:24.000Z</time>
      </trkpt>
      <trkpt lat="39.5073748938739299774169921875" lon="-0.346431098878383636474609375">
        <ele>7.400000095367431640625</ele>
        <time>2021-09-27T12:32:26.000Z</time>
      </trkpt>
      <trkpt lat="39.507274813950061798095703125" lon="-0.346421040594577789306640625">
        <ele>7.400000095367431640625</ele>
        <time>2021-09-27T12:32:28.000Z</time>
      </trkpt>
      <trkpt lat="39.507182277739048004150390625" lon="-0.3464037738740444183349609375">
        <ele>7.19999980926513671875</ele>
        <time>2021-09-27T12:32:30.000Z</time>
      </trkpt>
      <trkpt lat="39.507089741528034210205078125" lon="-0.346393547952175140380859375">
        <ele>7.19999980926513671875</ele>
        <time>2021-09-27T12:32:32.000Z</time>
      </trkpt>
      <trkpt lat="39.5070024020969867706298828125" lon="-0.3463863395154476165771484375">
        <ele>7</ele>
        <time>2021-09-27T12:32:34.000Z</time>
      </trkpt>
      <trkpt lat="39.5069070160388946533203125" lon="-0.34637452103197574615478515625">
        <ele>6.80000019073486328125</ele>
        <time>2021-09-27T12:32:36.000Z</time>
      </trkpt>
      <trkpt lat="39.50681573711335659027099609375" lon="-0.34636379219591617584228515625">
        <ele>6.80000019073486328125</ele>
        <time>2021-09-27T12:32:38.000Z</time>
      </trkpt>
      <trkpt lat="39.5067224465310573577880859375" lon="-0.3463551588356494903564453125">
        <ele>6.599999904632568359375</ele>
        <time>2021-09-27T12:32:40.000Z</time>
      </trkpt>
      <trkpt lat="39.50663183815777301788330078125" lon="-0.34634233452379703521728515625">
        <ele>6.599999904632568359375</ele>
        <time>2021-09-27T12:32:42.000Z</time>
      </trkpt>
      <trkpt lat="39.5065896771848201751708984375" lon="-0.34633219242095947265625">
        <ele>6.400000095367431640625</ele>
        <time>2021-09-27T12:32:43.000Z</time>
      </trkpt>
      <trkpt lat="39.5065474323928356170654296875" lon="-0.3463269956409931182861328125">
        <ele>6.400000095367431640625</ele>
        <time>2021-09-27T12:32:44.000Z</time>
      </trkpt>
      <trkpt lat="39.506468139588832855224609375" lon="-0.34631811082363128662109375">
        <ele>6.400000095367431640625</ele>
        <time>2021-09-27T12:32:46.000Z</time>
      </trkpt>
      <trkpt lat="39.50638960115611553192138671875" lon="-0.34631048329174518585205078125">
        <ele>6.19999980926513671875</ele>
        <time>2021-09-27T12:32:48.000Z</time>
      </trkpt>
      <trkpt lat="39.50629790313541889190673828125" lon="-0.34630260430276393890380859375">
        <ele>6.19999980926513671875</ele>
        <time>2021-09-27T12:32:50.000Z</time>
      </trkpt>
      <trkpt lat="39.5062031038105487823486328125" lon="-0.34628190100193023681640625">
        <ele>6.19999980926513671875</ele>
        <time>2021-09-27T12:32:52.000Z</time>
      </trkpt>
      <trkpt lat="39.50612674467265605926513671875" lon="-0.34627360291779041290283203125">
        <ele>6</ele>
        <time>2021-09-27T12:32:54.000Z</time>
      </trkpt>
      <trkpt lat="39.50605072081089019775390625" lon="-0.34626781940460205078125">
        <ele>6.19999980926513671875</ele>
        <time>2021-09-27T12:32:56.000Z</time>
      </trkpt>
      <trkpt lat="39.50597385875880718231201171875" lon="-0.34626672975718975067138671875">
        <ele>6.400000095367431640625</ele>
        <time>2021-09-27T12:32:58.000Z</time>
      </trkpt>
      <trkpt lat="39.50589640997350215911865234375" lon="-0.34625105559825897216796875">
        <ele>6.599999904632568359375</ele>
        <time>2021-09-27T12:33:00.000Z</time>
      </trkpt>
      <trkpt lat="39.5058275945484638214111328125" lon="-0.34622934646904468536376953125">
        <ele>6.80000019073486328125</ele>
        <time>2021-09-27T12:33:02.000Z</time>
      </trkpt>
      <trkpt lat="39.505780823528766632080078125" lon="-0.34617519937455654144287109375">
        <ele>7</ele>
        <time>2021-09-27T12:33:04.000Z</time>
      </trkpt>
      <trkpt lat="39.50574226677417755126953125" lon="-0.34610831178724765777587890625">
        <ele>7</ele>
        <time>2021-09-27T12:33:06.000Z</time>
      </trkpt>
      <trkpt lat="39.5057256706058979034423828125" lon="-0.34607109613716602325439453125">
        <ele>7</ele>
        <time>2021-09-27T12:33:07.000Z</time>
      </trkpt>
      <trkpt lat="39.50571368448436260223388671875" lon="-0.34603111445903778076171875">
        <ele>7</ele>
        <time>2021-09-27T12:33:08.000Z</time>
      </trkpt>
      <trkpt lat="39.50570144690573215484619140625" lon="-0.34598241560161113739013671875">
        <ele>7.19999980926513671875</ele>
        <time>2021-09-27T12:33:09.000Z</time>
      </trkpt>
      <trkpt lat="39.505688287317752838134765625" lon="-0.345929525792598724365234375">
        <ele>7</ele>
        <time>2021-09-27T12:33:10.000Z</time>
      </trkpt>
      <trkpt lat="39.5056716911494731903076171875" lon="-0.34581930376589298248291015625">
        <ele>6.599999904632568359375</ele>
        <time>2021-09-27T12:33:12.000Z</time>
      </trkpt>
      <trkpt lat="39.505650065839290618896484375" lon="-0.3457074053585529327392578125">
        <ele>6.19999980926513671875</ele>
        <time>2021-09-27T12:33:14.000Z</time>
      </trkpt>
      <trkpt lat="39.5056213997304439544677734375" lon="-0.34559483639895915985107421875">
        <ele>5.80000019073486328125</ele>
        <time>2021-09-27T12:33:16.000Z</time>
      </trkpt>
      <trkpt lat="39.50560136698186397552490234375" lon="-0.34548486582934856414794921875">
        <ele>5.400000095367431640625</ele>
        <time>2021-09-27T12:33:18.000Z</time>
      </trkpt>
      <trkpt lat="39.5055806636810302734375" lon="-0.3453759849071502685546875">
        <ele>5.19999980926513671875</ele>
        <time>2021-09-27T12:33:20.000Z</time>
      </trkpt>
      <trkpt lat="39.5055553503334522247314453125" lon="-0.34526408649981021881103515625">
        <ele>5</ele>
        <time>2021-09-27T12:33:22.000Z</time>
      </trkpt>
      <trkpt lat="39.50553230009973049163818359375" lon="-0.34515461884438991546630859375">
        <ele>4.80000019073486328125</ele>
        <time>2021-09-27T12:33:24.000Z</time>
      </trkpt>
      <trkpt lat="39.505506567656993865966796875" lon="-0.34504431299865245819091796875">
        <ele>4.599999904632568359375</ele>
        <time>2021-09-27T12:33:26.000Z</time>
      </trkpt>
      <trkpt lat="39.505484104156494140625" lon="-0.3449409641325473785400390625">
        <ele>4.599999904632568359375</ele>
        <time>2021-09-27T12:33:28.000Z</time>
      </trkpt>
      <trkpt lat="39.5054574497044086456298828125" lon="-0.34483258612453937530517578125">
        <ele>4.400000095367431640625</ele>
        <time>2021-09-27T12:33:30.000Z</time>
      </trkpt>
      <trkpt lat="39.5054497383534908294677734375" lon="-0.344782210886478424072265625">
        <ele>4.400000095367431640625</ele>
        <time>2021-09-27T12:33:31.000Z</time>
      </trkpt>
      <trkpt lat="39.50543959625065326690673828125" lon="-0.344730913639068603515625">
        <ele>4.19999980926513671875</ele>
        <time>2021-09-27T12:33:32.000Z</time>
      </trkpt>
      <trkpt lat="39.50542015023529529571533203125" lon="-0.34463359974324703216552734375">
        <ele>4.19999980926513671875</ele>
        <time>2021-09-27T12:33:34.000Z</time>
      </trkpt>
      <trkpt lat="39.50540590099990367889404296875" lon="-0.34455665387213230133056640625">
        <ele>4.19999980926513671875</ele>
        <time>2021-09-27T12:33:36.000Z</time>
      </trkpt>
      <trkpt lat="39.50539366342127323150634765625" lon="-0.34452731721103191375732421875">
        <ele>4.19999980926513671875</ele>
        <time>2021-09-27T12:33:37.000Z</time>
      </trkpt>
      <trkpt lat="39.50537069700658321380615234375" lon="-0.3445096313953399658203125">
        <ele>4.19999980926513671875</ele>
        <time>2021-09-27T12:33:38.000Z</time>
      </trkpt>
      <trkpt lat="39.50531554408371448516845703125" lon="-0.34450225532054901123046875">
        <ele>4.400000095367431640625</ele>
        <time>2021-09-27T12:33:40.000Z</time>
      </trkpt>
      <trkpt lat="39.505262486636638641357421875" lon="-0.34452773630619049072265625">
        <ele>4.80000019073486328125</ele>
        <time>2021-09-27T12:33:42.000Z</time>
      </trkpt>
      <trkpt lat="39.5051969401538372039794921875" lon="-0.344562940299510955810546875">
        <ele>5.19999980926513671875</ele>
        <time>2021-09-27T12:33:44.000Z</time>
      </trkpt>
      <trkpt lat="39.50515997596085071563720703125" lon="-0.344586409628391265869140625">
        <ele>5.599999904632568359375</ele>
        <time>2021-09-27T12:33:45.000Z</time>
      </trkpt>
      <trkpt lat="39.5051204971969127655029296875" lon="-0.34461013041436672210693359375">
        <ele>5.80000019073486328125</ele>
        <time>2021-09-27T12:33:46.000Z</time>
      </trkpt>
      <trkpt lat="39.50504346750676631927490234375" lon="-0.344653464853763580322265625">
        <ele>6.400000095367431640625</ele>
        <time>2021-09-27T12:33:48.000Z</time>
      </trkpt>
      <trkpt lat="39.50496635399758815765380859375" lon="-0.34469663165509700775146484375">
        <ele>7</ele>
        <time>2021-09-27T12:33:50.000Z</time>
      </trkpt>
      <trkpt lat="39.5048873126506805419921875" lon="-0.34474373795092105865478515625">
        <ele>7.599999904632568359375</ele>
        <time>2021-09-27T12:33:52.000Z</time>
      </trkpt>
      <trkpt lat="39.5048127137124538421630859375" lon="-0.34478631801903247833251953125">
        <ele>8</ele>
        <time>2021-09-27T12:33:54.000Z</time>
      </trkpt>
      <trkpt lat="39.50475647114217281341552734375" lon="-0.344821102917194366455078125">
        <ele>8.3999996185302734375</ele>
        <time>2021-09-27T12:33:56.000Z</time>
      </trkpt>
      <trkpt lat="39.5047315768897533416748046875" lon="-0.34484348259866237640380859375">
        <ele>8.6000003814697265625</ele>
        <time>2021-09-27T12:33:57.000Z</time>
      </trkpt>
      <trkpt lat="39.5047117955982685089111328125" lon="-0.34487885423004627227783203125">
        <ele>8.6000003814697265625</ele>
        <time>2021-09-27T12:33:58.000Z</time>
      </trkpt>
      <trkpt lat="39.5047076046466827392578125" lon="-0.34496652893722057342529296875">
        <ele>8.3999996185302734375</ele>
        <time>2021-09-27T12:34:00.000Z</time>
      </trkpt>
      <trkpt lat="39.50473132543265819549560546875" lon="-0.3450700454413890838623046875">
        <ele>8</ele>
        <time>2021-09-27T12:34:02.000Z</time>
      </trkpt>
      <trkpt lat="39.504756219685077667236328125" lon="-0.34517825581133365631103515625">
        <ele>7.599999904632568359375</ele>
        <time>2021-09-27T12:34:04.000Z</time>
      </trkpt>
      <trkpt lat="39.50478681363165378570556640625" lon="-0.34530096687376499176025390625">
        <ele>7.400000095367431640625</ele>
        <time>2021-09-27T12:34:06.000Z</time>
      </trkpt>
      <trkpt lat="39.50481866486370563507080078125" lon="-0.34541965462267398834228515625">
        <ele>7.400000095367431640625</ele>
        <time>2021-09-27T12:34:08.000Z</time>
      </trkpt>
      <trkpt lat="39.5048438943922519683837890625" lon="-0.34553163684904575347900390625">
        <ele>7.400000095367431640625</ele>
        <time>2021-09-27T12:34:10.000Z</time>
      </trkpt>
      <trkpt lat="39.50487029738724231719970703125" lon="-0.3456346504390239715576171875">
        <ele>7.599999904632568359375</ele>
        <time>2021-09-27T12:34:12.000Z</time>
      </trkpt>
      <trkpt lat="39.5048851333558559417724609375" lon="-0.3456896357238292694091796875">
        <ele>7.599999904632568359375</ele>
        <time>2021-09-27T12:34:13.000Z</time>
      </trkpt>
      <trkpt lat="39.50489527545869350433349609375" lon="-0.3457419387996196746826171875">
        <ele>7.80000019073486328125</ele>
        <time>2021-09-27T12:34:14.000Z</time>
      </trkpt>
      <trkpt lat="39.5049186609685420989990234375" lon="-0.345839001238346099853515625">
        <ele>7.80000019073486328125</ele>
        <time>2021-09-27T12:34:16.000Z</time>
      </trkpt>
      <trkpt lat="39.50494028627872467041015625" lon="-0.3459337167441844940185546875">
        <ele>8</ele>
        <time>2021-09-27T12:34:18.000Z</time>
      </trkpt>
      <trkpt lat="39.50494707562029361724853515625" lon="-0.34602440893650054931640625">
        <ele>8.3999996185302734375</ele>
        <time>2021-09-27T12:34:20.000Z</time>
      </trkpt>
      <trkpt lat="39.504934586584568023681640625" lon="-0.34606019966304302215576171875">
        <ele>8.6000003814697265625</ele>
        <time>2021-09-27T12:34:21.000Z</time>
      </trkpt>
      <trkpt lat="39.50490851886570453643798828125" lon="-0.34609012305736541748046875">
        <ele>8.80000019073486328125</ele>
        <time>2021-09-27T12:34:22.000Z</time>
      </trkpt>
      <trkpt lat="39.5048740692436695098876953125" lon="-0.34610009752213954925537109375">
        <ele>9</ele>
        <time>2021-09-27T12:34:23.000Z</time>
      </trkpt>
      <trkpt lat="39.50483425520360469818115234375" lon="-0.3460980020463466644287109375">
        <ele>9</ele>
        <time>2021-09-27T12:34:24.000Z</time>
      </trkpt>
      <trkpt lat="39.5047547109425067901611328125" lon="-0.34608551301062107086181640625">
        <ele>9.19999980926513671875</ele>
        <time>2021-09-27T12:34:26.000Z</time>
      </trkpt>
      <trkpt lat="39.50471573509275913238525390625" lon="-0.3460812382400035858154296875">
        <ele>9.3999996185302734375</ele>
        <time>2021-09-27T12:34:27.000Z</time>
      </trkpt>
      <trkpt lat="39.50467416085302829742431640625" lon="-0.3460758738219738006591796875">
        <ele>9.6000003814697265625</ele>
        <time>2021-09-27T12:34:28.000Z</time>
      </trkpt>
      <trkpt lat="39.5045897550880908966064453125" lon="-0.3460674919188022613525390625">
        <ele>10</ele>
        <time>2021-09-27T12:34:30.000Z</time>
      </trkpt>
      <trkpt lat="39.50450149364769458770751953125" lon="-0.34606036730110645294189453125">
        <ele>10.3999996185302734375</ele>
        <time>2021-09-27T12:34:32.000Z</time>
      </trkpt>
      <trkpt lat="39.504410214722156524658203125" lon="-0.3460487164556980133056640625">
        <ele>10</ele>
        <time>2021-09-27T12:34:34.000Z</time>
      </trkpt>
      <trkpt lat="39.5043181814253330230712890625" lon="-0.34603706561028957366943359375">
        <ele>9.6000003814697265625</ele>
        <time>2021-09-27T12:34:36.000Z</time>
      </trkpt>
      <trkpt lat="39.50422681868076324462890625" lon="-0.346028767526149749755859375">
        <ele>9.3999996185302734375</ele>
        <time>2021-09-27T12:34:38.000Z</time>
      </trkpt>
      <trkpt lat="39.5041793771088123321533203125" lon="-0.3460223972797393798828125">
        <ele>9.19999980926513671875</ele>
        <time>2021-09-27T12:34:39.000Z</time>
      </trkpt>
      <trkpt lat="39.50412984006106853485107421875" lon="-0.346018373966217041015625">
        <ele>9</ele>
        <time>2021-09-27T12:34:40.000Z</time>
      </trkpt>
      <trkpt lat="39.50403193943202495574951171875" lon="-0.34601032733917236328125">
        <ele>8.6000003814697265625</ele>
        <time>2021-09-27T12:34:42.000Z</time>
      </trkpt>
      <trkpt lat="39.50393588282167911529541015625" lon="-0.34599934704601764678955078125">
        <ele>8.3999996185302734375</ele>
        <time>2021-09-27T12:34:44.000Z</time>
      </trkpt>
      <trkpt lat="39.50383253395557403564453125" lon="-0.3459893725812435150146484375">
        <ele>8.6000003814697265625</ele>
        <time>2021-09-27T12:34:46.000Z</time>
      </trkpt>
      <trkpt lat="39.50378450565040111541748046875" lon="-0.345983840525150299072265625">
        <ele>8.6000003814697265625</ele>
        <time>2021-09-27T12:34:47.000Z</time>
      </trkpt>
      <trkpt lat="39.50373538769781589508056640625" lon="-0.3459786437451839447021484375">
        <ele>8.80000019073486328125</ele>
        <time>2021-09-27T12:34:48.000Z</time>
      </trkpt>
      <trkpt lat="39.50363681651651859283447265625" lon="-0.34596984274685382843017578125">
        <ele>8.80000019073486328125</ele>
        <time>2021-09-27T12:34:50.000Z</time>
      </trkpt>
      <trkpt lat="39.5035346411168575286865234375" lon="-0.34595961682498455047607421875">
        <ele>8.80000019073486328125</ele>
        <time>2021-09-27T12:34:52.000Z</time>
      </trkpt>
      <trkpt lat="39.503432214260101318359375" lon="-0.34594704397022724151611328125">
        <ele>8.80000019073486328125</ele>
        <time>2021-09-27T12:34:54.000Z</time>
      </trkpt>
      <trkpt lat="39.50338217429816722869873046875" lon="-0.34594117663800716400146484375">
        <ele>8.80000019073486328125</ele>
        <time>2021-09-27T12:34:55.000Z</time>
      </trkpt>
      <trkpt lat="39.5033343136310577392578125" lon="-0.34594151191413402557373046875">
        <ele>8.80000019073486328125</ele>
        <time>2021-09-27T12:34:56.000Z</time>
      </trkpt>
      <trkpt lat="39.5032458007335662841796875" lon="-0.3459427691996097564697265625">
        <ele>8.80000019073486328125</ele>
        <time>2021-09-27T12:34:58.000Z</time>
      </trkpt>
      <trkpt lat="39.50315795838832855224609375" lon="-0.34594503231346607208251953125">
        <ele>8.6000003814697265625</ele>
        <time>2021-09-27T12:35:00.000Z</time>
      </trkpt>
      <trkpt lat="39.5031172223389148712158203125" lon="-0.34595056436955928802490234375">
        <ele>8.6000003814697265625</ele>
        <time>2021-09-27T12:35:01.000Z</time>
      </trkpt>
      <trkpt lat="39.50307355262339115142822265625" lon="-0.34596540033817291259765625">
        <ele>8.3999996185302734375</ele>
        <time>2021-09-27T12:35:02.000Z</time>
      </trkpt>
      <trkpt lat="39.50300063006579875946044921875" lon="-0.3460161946713924407958984375">
        <ele>8.19999980926513671875</ele>
        <time>2021-09-27T12:35:04.000Z</time>
      </trkpt>
      <trkpt lat="39.50293533504009246826171875" lon="-0.34607813693583011627197265625">
        <ele>8</ele>
        <time>2021-09-27T12:35:06.000Z</time>
      </trkpt>
      <trkpt lat="39.50287498533725738525390625" lon="-0.34612826071679592132568359375">
        <ele>7.80000019073486328125</ele>
        <time>2021-09-27T12:35:08.000Z</time>
      </trkpt>
      <trkpt lat="39.502831734716892242431640625" lon="-0.34616229124367237091064453125">
        <ele>7.599999904632568359375</ele>
        <time>2021-09-27T12:35:10.000Z</time>
      </trkpt>
      <trkpt lat="39.502801559865474700927734375" lon="-0.34615776501595973968505859375">
        <ele>7.599999904632568359375</ele>
        <time>2021-09-27T12:35:12.000Z</time>
      </trkpt>
      <trkpt lat="39.50277113355696201324462890625" lon="-0.3461204655468463897705078125">
        <ele>7.400000095367431640625</ele>
        <time>2021-09-27T12:35:14.000Z</time>
      </trkpt>
      <trkpt lat="39.5027380250394344329833984375" lon="-0.346072353422641754150390625">
        <ele>7.400000095367431640625</ele>
        <time>2021-09-27T12:35:15.000Z</time>
      </trkpt>
      <trkpt lat="39.5027039945125579833984375" lon="-0.34603220410645008087158203125">
        <ele>7.19999980926513671875</ele>
        <time>2021-09-27T12:35:16.000Z</time>
      </trkpt>
      <trkpt lat="39.50266334228217601776123046875" lon="-0.34600873477756977081298828125">
        <ele>7</ele>
        <time>2021-09-27T12:35:17.000Z</time>
      </trkpt>
      <trkpt lat="39.50261858291923999786376953125" lon="-0.3460037894546985626220703125">
        <ele>7</ele>
        <time>2021-09-27T12:35:18.000Z</time>
      </trkpt>
      <trkpt lat="39.50253308750689029693603515625" lon="-0.3460118360817432403564453125">
        <ele>7</ele>
        <time>2021-09-27T12:35:20.000Z</time>
      </trkpt>
      <trkpt lat="39.50245982967317104339599609375" lon="-0.3460168652236461639404296875">
        <ele>6.80000019073486328125</ele>
        <time>2021-09-27T12:35:22.000Z</time>
      </trkpt>
      <trkpt lat="39.50238238088786602020263671875" lon="-0.3460239060223102569580078125">
        <ele>6.80000019073486328125</ele>
        <time>2021-09-27T12:35:24.000Z</time>
      </trkpt>
      <trkpt lat="39.50229655019938945770263671875" lon="-0.3460277616977691650390625">
        <ele>6.599999904632568359375</ele>
        <time>2021-09-27T12:35:26.000Z</time>
      </trkpt>
      <trkpt lat="39.5022118091583251953125" lon="-0.34603605978190898895263671875">
        <ele>6.80000019073486328125</ele>
        <time>2021-09-27T12:35:28.000Z</time>
      </trkpt>
      <trkpt lat="39.50213058851659297943115234375" lon="-0.3460363112390041351318359375">
        <ele>6.80000019073486328125</ele>
        <time>2021-09-27T12:35:30.000Z</time>
      </trkpt>
      <trkpt lat="39.5020429976284503936767578125" lon="-0.346037484705448150634765625">
        <ele>7</ele>
        <time>2021-09-27T12:35:32.000Z</time>
      </trkpt>
      <trkpt lat="39.501996897161006927490234375" lon="-0.34604108892381191253662109375">
        <ele>7</ele>
        <time>2021-09-27T12:35:33.000Z</time>
      </trkpt>
      <trkpt lat="39.50195096433162689208984375" lon="-0.3460436873137950897216796875">
        <ele>7.19999980926513671875</ele>
        <time>2021-09-27T12:35:34.000Z</time>
      </trkpt>
      <trkpt lat="39.50185767374932765960693359375" lon="-0.3460497222840785980224609375">
        <ele>7.599999904632568359375</ele>
        <time>2021-09-27T12:35:36.000Z</time>
      </trkpt>
      <trkpt lat="39.501762874424457550048828125" lon="-0.34605349414050579071044921875">
        <ele>7.80000019073486328125</ele>
        <time>2021-09-27T12:35:38.000Z</time>
      </trkpt>
      <trkpt lat="39.50167201459407806396484375" lon="-0.346062295138835906982421875">
        <ele>8.19999980926513671875</ele>
        <time>2021-09-27T12:35:40.000Z</time>
      </trkpt>
      <trkpt lat="39.50158358551561832427978515625" lon="-0.34608081914484500885009765625">
        <ele>8.6000003814697265625</ele>
        <time>2021-09-27T12:35:42.000Z</time>
      </trkpt>
      <trkpt lat="39.50150814838707447052001953125" lon="-0.3461124189198017120361328125">
        <ele>8.80000019073486328125</ele>
        <time>2021-09-27T12:35:44.000Z</time>
      </trkpt>
      <trkpt lat="39.50144846923649311065673828125" lon="-0.34617167897522449493408203125">
        <ele>9</ele>
        <time>2021-09-27T12:35:46.000Z</time>
      </trkpt>
      <trkpt lat="39.50141862966120243072509765625" lon="-0.346219539642333984375">
        <ele>9</ele>
        <time>2021-09-27T12:35:48.000Z</time>
      </trkpt>
      <trkpt lat="39.50138711370527744293212890625" lon="-0.346262790262699127197265625">
        <ele>9.19999980926513671875</ele>
        <time>2021-09-27T12:35:50.000Z</time>
      </trkpt>
      <trkpt lat="39.50137236155569553375244140625" lon="-0.34628416411578655242919921875">
        <ele>9.19999980926513671875</ele>
        <time>2021-09-27T12:35:51.000Z</time>
      </trkpt>
      <trkpt lat="39.5013607107102870941162109375" lon="-0.34630293957889080047607421875">
        <ele>9.3999996185302734375</ele>
        <time>2021-09-27T12:35:52.000Z</time>
      </trkpt>
      <trkpt lat="39.50133732520043849945068359375" lon="-0.34631618298590183258056640625">
        <ele>9.3999996185302734375</ele>
        <time>2021-09-27T12:35:53.000Z</time>
      </trkpt>
      <trkpt lat="39.50130522251129150390625" lon="-0.346319116652011871337890625">
        <ele>9.6000003814697265625</ele>
        <time>2021-09-27T12:35:54.000Z</time>
      </trkpt>
      <trkpt lat="39.50127647258341312408447265625" lon="-0.34630830399692058563232421875">
        <ele>9.6000003814697265625</ele>
        <time>2021-09-27T12:35:55.000Z</time>
      </trkpt>
      <trkpt lat="39.5012457109987735748291015625" lon="-0.3462927974760532379150390625">
        <ele>9.80000019073486328125</ele>
        <time>2021-09-27T12:35:56.000Z</time>
      </trkpt>
      <trkpt lat="39.50117404572665691375732421875" lon="-0.3462720103561878204345703125">
        <ele>9.80000019073486328125</ele>
        <time>2021-09-27T12:35:58.000Z</time>
      </trkpt>
      <trkpt lat="39.5011095888912677764892578125" lon="-0.34624166786670684814453125">
        <ele>9.6000003814697265625</ele>
        <time>2021-09-27T12:36:00.000Z</time>
      </trkpt>
      <trkpt lat="39.501054771244525909423828125" lon="-0.346217863261699676513671875">
        <ele>9.6000003814697265625</ele>
        <time>2021-09-27T12:36:02.000Z</time>
      </trkpt>
      <trkpt lat="39.50099601410329341888427734375" lon="-0.346209816634654998779296875">
        <ele>9.3999996185302734375</ele>
        <time>2021-09-27T12:36:04.000Z</time>
      </trkpt>
      <trkpt lat="39.50098159722983837127685546875" lon="-0.346198417246341705322265625">
        <ele>9.3999996185302734375</ele>
        <time>2021-09-27T12:36:05.000Z</time>
      </trkpt>
      <trkpt lat="39.50097237713634967803955078125" lon="-0.34617369063198566436767578125">
        <ele>9.19999980926513671875</ele>
        <time>2021-09-27T12:36:06.000Z</time>
      </trkpt>
      <trkpt lat="39.50096215121448040008544921875" lon="-0.34614535979926586151123046875">
        <ele>9.19999980926513671875</ele>
        <time>2021-09-27T12:36:07.000Z</time>
      </trkpt>
      <trkpt lat="39.50095058418810367584228515625" lon="-0.34611535258591175079345703125">
        <ele>9</ele>
        <time>2021-09-27T12:36:08.000Z</time>
      </trkpt>
      <trkpt lat="39.5009339042007923126220703125" lon="-0.3460798971354961395263671875">
        <ele>9</ele>
        <time>2021-09-27T12:36:09.000Z</time>
      </trkpt>
      <trkpt lat="39.50090222060680389404296875" lon="-0.346053577959537506103515625">
        <ele>8.80000019073486328125</ele>
        <time>2021-09-27T12:36:10.000Z</time>
      </trkpt>
      <trkpt lat="39.50086257420480251312255859375" lon="-0.34605047665536403656005859375">
        <ele>8.80000019073486328125</ele>
        <time>2021-09-27T12:36:11.000Z</time>
      </trkpt>
      <trkpt lat="39.50082720257341861724853515625" lon="-0.3460614569485187530517578125">
        <ele>8.80000019073486328125</ele>
        <time>2021-09-27T12:36:12.000Z</time>
      </trkpt>
      <trkpt lat="39.5007635839283466339111328125" lon="-0.3461015224456787109375">
        <ele>8.80000019073486328125</ele>
        <time>2021-09-27T12:36:14.000Z</time>
      </trkpt>
      <trkpt lat="39.50069476850330829620361328125" lon="-0.34614108502864837646484375">
        <ele>8.80000019073486328125</ele>
        <time>2021-09-27T12:36:16.000Z</time>
      </trkpt>
      <trkpt lat="39.5006261207163333892822265625" lon="-0.3461583517491817474365234375">
        <ele>8.80000019073486328125</ele>
        <time>2021-09-27T12:36:18.000Z</time>
      </trkpt>
      <trkpt lat="39.5005496777594089508056640625" lon="-0.346175618469715118408203125">
        <ele>8.80000019073486328125</ele>
        <time>2021-09-27T12:36:20.000Z</time>
      </trkpt>
      <trkpt lat="39.50046460144221782684326171875" lon="-0.3462036140263080596923828125">
        <ele>8.80000019073486328125</ele>
        <time>2021-09-27T12:36:22.000Z</time>
      </trkpt>
      <trkpt lat="39.50037726201117038726806640625" lon="-0.34623051993548870086669921875">
        <ele>8.80000019073486328125</ele>
        <time>2021-09-27T12:36:24.000Z</time>
      </trkpt>
      <trkpt lat="39.5002874918282032012939453125" lon="-0.34624996595084667205810546875">
        <ele>9</ele>
        <time>2021-09-27T12:36:26.000Z</time>
      </trkpt>
      <trkpt lat="39.50020015239715576171875" lon="-0.3462746925652027130126953125">
        <ele>9.19999980926513671875</ele>
        <time>2021-09-27T12:36:28.000Z</time>
      </trkpt>
      <trkpt lat="39.50011524371802806854248046875" lon="-0.34629522822797298431396484375">
        <ele>9.19999980926513671875</ele>
        <time>2021-09-27T12:36:30.000Z</time>
      </trkpt>
      <trkpt lat="39.50003477744758129119873046875" lon="-0.34631718881428241729736328125">
        <ele>9.3999996185302734375</ele>
        <time>2021-09-27T12:36:32.000Z</time>
      </trkpt>
      <trkpt lat="39.4999565742909908294677734375" lon="-0.34633914940059185028076171875">
        <ele>9.3999996185302734375</ele>
        <time>2021-09-27T12:36:34.000Z</time>
      </trkpt>
      <trkpt lat="39.499915502965450286865234375" lon="-0.3463497944176197052001953125">
        <ele>9.6000003814697265625</ele>
        <time>2021-09-27T12:36:35.000Z</time>
      </trkpt>
      <trkpt lat="39.49987317435443401336669921875" lon="-0.3463635407388210296630859375">
        <ele>9.6000003814697265625</ele>
        <time>2021-09-27T12:36:36.000Z</time>
      </trkpt>
      <trkpt lat="39.499790780246257781982421875" lon="-0.3463880158960819244384765625">
        <ele>9.6000003814697265625</ele>
        <time>2021-09-27T12:36:38.000Z</time>
      </trkpt>
      <trkpt lat="39.499708302319049835205078125" lon="-0.34641358070075511932373046875">
        <ele>9.80000019073486328125</ele>
        <time>2021-09-27T12:36:40.000Z</time>
      </trkpt>
      <trkpt lat="39.499624483287334442138671875" lon="-0.34643537364900112152099609375">
        <ele>9.80000019073486328125</ele>
        <time>2021-09-27T12:36:42.000Z</time>
      </trkpt>
      <trkpt lat="39.49958181940019130706787109375" lon="-0.34644492901861667633056640625">
        <ele>10</ele>
        <time>2021-09-27T12:36:43.000Z</time>
      </trkpt>
      <trkpt lat="39.49954326264560222625732421875" lon="-0.346459262073040008544921875">
        <ele>10</ele>
        <time>2021-09-27T12:36:44.000Z</time>
      </trkpt>
      <trkpt lat="39.4994746148586273193359375" lon="-0.34648231230676174163818359375">
        <ele>10</ele>
        <time>2021-09-27T12:36:46.000Z</time>
      </trkpt>
      <trkpt lat="39.49939741753041744232177734375" lon="-0.346502177417278289794921875">
        <ele>9.80000019073486328125</ele>
        <time>2021-09-27T12:36:48.000Z</time>
      </trkpt>
      <trkpt lat="39.49932114221155643463134765625" lon="-0.34653210081160068511962890625">
        <ele>9.80000019073486328125</ele>
        <time>2021-09-27T12:36:50.000Z</time>
      </trkpt>
      <trkpt lat="39.4992788136005401611328125" lon="-0.34654651768505573272705078125">
        <ele>9.80000019073486328125</ele>
        <time>2021-09-27T12:36:51.000Z</time>
      </trkpt>
      <trkpt lat="39.49924184940755367279052734375" lon="-0.34656227566301822662353515625">
        <ele>9.6000003814697265625</ele>
        <time>2021-09-27T12:36:52.000Z</time>
      </trkpt>
      <trkpt lat="39.49915434233844280242919921875" lon="-0.346583984792232513427734375">
        <ele>9.3999996185302734375</ele>
        <time>2021-09-27T12:36:54.000Z</time>
      </trkpt>
      <trkpt lat="39.49906817637383937835693359375" lon="-0.346612147986888885498046875">
        <ele>9.19999980926513671875</ele>
        <time>2021-09-27T12:36:56.000Z</time>
      </trkpt>
      <trkpt lat="39.49898536317050457000732421875" lon="-0.3466312587261199951171875">
        <ele>9</ele>
        <time>2021-09-27T12:36:58.000Z</time>
      </trkpt>
      <trkpt lat="39.49891394935548305511474609375" lon="-0.34665078856050968170166015625">
        <ele>8.80000019073486328125</ele>
        <time>2021-09-27T12:37:00.000Z</time>
      </trkpt>
      <trkpt lat="39.4988401047885417938232421875" lon="-0.34666956402361392974853515625">
        <ele>8.3999996185302734375</ele>
        <time>2021-09-27T12:37:02.000Z</time>
      </trkpt>
      <trkpt lat="39.498775564134120941162109375" lon="-0.34668825566768646240234375">
        <ele>8.3999996185302734375</ele>
        <time>2021-09-27T12:37:04.000Z</time>
      </trkpt>
      <trkpt lat="39.49870691634714603424072265625" lon="-0.34670862369239330291748046875">
        <ele>8.19999980926513671875</ele>
        <time>2021-09-27T12:37:06.000Z</time>
      </trkpt>
      <trkpt lat="39.4986392743885517120361328125" lon="-0.3467253036797046661376953125">
        <ele>8</ele>
        <time>2021-09-27T12:37:08.000Z</time>
      </trkpt>
      <trkpt lat="39.49857138097286224365234375" lon="-0.34674097783863544464111328125">
        <ele>8</ele>
        <time>2021-09-27T12:37:10.000Z</time>
      </trkpt>
      <trkpt lat="39.49850474484264850616455078125" lon="-0.34675707109272480010986328125">
        <ele>8</ele>
        <time>2021-09-27T12:37:12.000Z</time>
      </trkpt>
      <trkpt lat="39.4984431378543376922607421875" lon="-0.3467722423374652862548828125">
        <ele>8.19999980926513671875</ele>
        <time>2021-09-27T12:37:14.000Z</time>
      </trkpt>
      <trkpt lat="39.498387984931468963623046875" lon="-0.346790850162506103515625">
        <ele>8.19999980926513671875</ele>
        <time>2021-09-27T12:37:16.000Z</time>
      </trkpt>
      <trkpt lat="39.49832864105701446533203125" lon="-0.34681390039622783660888671875">
        <ele>8.19999980926513671875</ele>
        <time>2021-09-27T12:37:18.000Z</time>
      </trkpt>
      <trkpt lat="39.49825228191912174224853515625" lon="-0.34683133475482463836669921875">
        <ele>8.19999980926513671875</ele>
        <time>2021-09-27T12:37:20.000Z</time>
      </trkpt>
      <trkpt lat="39.49817550368607044219970703125" lon="-0.34686150960624217987060546875">
        <ele>8.3999996185302734375</ele>
        <time>2021-09-27T12:37:22.000Z</time>
      </trkpt>
      <trkpt lat="39.4980914331972599029541015625" lon="-0.34688514657318592071533203125">
        <ele>8.3999996185302734375</ele>
        <time>2021-09-27T12:37:24.000Z</time>
      </trkpt>
      <trkpt lat="39.49800074100494384765625" lon="-0.346906185150146484375">
        <ele>8.3999996185302734375</ele>
        <time>2021-09-27T12:37:26.000Z</time>
      </trkpt>
      <trkpt lat="39.49792153201997280120849609375" lon="-0.34692286513745784759521484375">
        <ele>8.3999996185302734375</ele>
        <time>2021-09-27T12:37:28.000Z</time>
      </trkpt>
      <trkpt lat="39.497842155396938323974609375" lon="-0.3469445742666721343994140625">
        <ele>8.6000003814697265625</ele>
        <time>2021-09-27T12:37:30.000Z</time>
      </trkpt>
      <trkpt lat="39.497766382992267608642578125" lon="-0.34696360118687152862548828125">
        <ele>8.3999996185302734375</ele>
        <time>2021-09-27T12:37:32.000Z</time>
      </trkpt>
      <trkpt lat="39.4976989924907684326171875" lon="-0.34698489122092723846435546875">
        <ele>8.3999996185302734375</ele>
        <time>2021-09-27T12:37:34.000Z</time>
      </trkpt>
      <trkpt lat="39.497662447392940521240234375" lon="-0.34699536859989166259765625">
        <ele>8.19999980926513671875</ele>
        <time>2021-09-27T12:37:35.000Z</time>
      </trkpt>
      <trkpt lat="39.49762632139027118682861328125" lon="-0.34699880518019199371337890625">
        <ele>8.19999980926513671875</ele>
        <time>2021-09-27T12:37:36.000Z</time>
      </trkpt>
      <trkpt lat="39.49756429530680179595947265625" lon="-0.34698237664997577667236328125">
        <ele>8</ele>
        <time>2021-09-27T12:37:38.000Z</time>
      </trkpt>
      <trkpt lat="39.49754334054887294769287109375" lon="-0.3469744138419628143310546875">
        <ele>8</ele>
        <time>2021-09-27T12:37:39.000Z</time>
      </trkpt>
      <trkpt lat="39.49752322398126125335693359375" lon="-0.3469620086252689361572265625">
        <ele>7.80000019073486328125</ele>
        <time>2021-09-27T12:37:40.000Z</time>
      </trkpt>
      <trkpt lat="39.49747410602867603302001953125" lon="-0.3469358570873737335205078125">
        <ele>7.599999904632568359375</ele>
        <time>2021-09-27T12:37:42.000Z</time>
      </trkpt>
      <trkpt lat="39.4974165223538875579833984375" lon="-0.346918590366840362548828125">
        <ele>7.400000095367431640625</ele>
        <time>2021-09-27T12:37:44.000Z</time>
      </trkpt>
      <trkpt lat="39.4973880238831043243408203125" lon="-0.34692236222326755523681640625">
        <ele>7.400000095367431640625</ele>
        <time>2021-09-27T12:37:45.000Z</time>
      </trkpt>
      <trkpt lat="39.4973610341548919677734375" lon="-0.3469341807067394256591796875">
        <ele>7.400000095367431640625</ele>
        <time>2021-09-27T12:37:46.000Z</time>
      </trkpt>
      <trkpt lat="39.49733664281666278839111328125" lon="-0.3469532914459705352783203125">
        <ele>7.400000095367431640625</ele>
        <time>2021-09-27T12:37:47.000Z</time>
      </trkpt>
      <trkpt lat="39.49731769971549510955810546875" lon="-0.3469827957451343536376953125">
        <ele>7.400000095367431640625</ele>
        <time>2021-09-27T12:37:48.000Z</time>
      </trkpt>
      <trkpt lat="39.4972891174256801605224609375" lon="-0.34705731086432933807373046875">
        <ele>7.400000095367431640625</ele>
        <time>2021-09-27T12:37:50.000Z</time>
      </trkpt>
      <trkpt lat="39.497268162667751312255859375" lon="-0.34708480350673198699951171875">
        <ele>7.599999904632568359375</ele>
        <time>2021-09-27T12:37:51.000Z</time>
      </trkpt>
      <trkpt lat="39.4972351379692554473876953125" lon="-0.34710005857050418853759765625">
        <ele>7.400000095367431640625</ele>
        <time>2021-09-27T12:37:52.000Z</time>
      </trkpt>
      <trkpt lat="39.497202448546886444091796875" lon="-0.3471148945391178131103515625">
        <ele>7.400000095367431640625</ele>
        <time>2021-09-27T12:37:53.000Z</time>
      </trkpt>
      <trkpt lat="39.4971667416393756866455078125" lon="-0.34712855704128742218017578125">
        <ele>7.400000095367431640625</ele>
        <time>2021-09-27T12:37:54.000Z</time>
      </trkpt>
      <trkpt lat="39.49710463173687458038330078125" lon="-0.3471542894840240478515625">
        <ele>7.19999980926513671875</ele>
        <time>2021-09-27T12:37:56.000Z</time>
      </trkpt>
      <trkpt lat="39.497041516005992889404296875" lon="-0.34718924202024936676025390625">
        <ele>7.19999980926513671875</ele>
        <time>2021-09-27T12:37:58.000Z</time>
      </trkpt>
      <trkpt lat="39.49696180410683155059814453125" lon="-0.34720650874078273773193359375">
        <ele>7.400000095367431640625</ele>
        <time>2021-09-27T12:38:00.000Z</time>
      </trkpt>
      <trkpt lat="39.49688619934022426605224609375" lon="-0.34722360782325267791748046875">
        <ele>7.80000019073486328125</ele>
        <time>2021-09-27T12:38:02.000Z</time>
      </trkpt>
      <trkpt lat="39.49681327678263187408447265625" lon="-0.3472376056015491485595703125">
        <ele>8</ele>
        <time>2021-09-27T12:38:04.000Z</time>
      </trkpt>
      <trkpt lat="39.4967372529208660125732421875" lon="-0.3472610749304294586181640625">
        <ele>8.3999996185302734375</ele>
        <time>2021-09-27T12:38:06.000Z</time>
      </trkpt>
      <trkpt lat="39.4966936670243740081787109375" lon="-0.34727507270872592926025390625">
        <ele>8.6000003814697265625</ele>
        <time>2021-09-27T12:38:07.000Z</time>
      </trkpt>
      <trkpt lat="39.4966500811278820037841796875" lon="-0.34728781320154666900634765625">
        <ele>8.80000019073486328125</ele>
        <time>2021-09-27T12:38:08.000Z</time>
      </trkpt>
      <trkpt lat="39.496564082801342010498046875" lon="-0.34731245599687099456787109375">
        <ele>9</ele>
        <time>2021-09-27T12:38:10.000Z</time>
      </trkpt>
      <trkpt lat="39.49647917412221431732177734375" lon="-0.34733869135379791259765625">
        <ele>9.3999996185302734375</ele>
        <time>2021-09-27T12:38:12.000Z</time>
      </trkpt>
      <trkpt lat="39.49639032594859600067138671875" lon="-0.34736794419586658477783203125">
        <ele>9.80000019073486328125</ele>
        <time>2021-09-27T12:38:14.000Z</time>
      </trkpt>
      <trkpt lat="39.49629795737564563751220703125" lon="-0.3473908267915248870849609375">
        <ele>10.19999980926513671875</ele>
        <time>2021-09-27T12:38:16.000Z</time>
      </trkpt>
      <trkpt lat="39.496215395629405975341796875" lon="-0.3474189899861812591552734375">
        <ele>10.6000003814697265625</ele>
        <time>2021-09-27T12:38:18.000Z</time>
      </trkpt>
      <trkpt lat="39.496171809732913970947265625" lon="-0.34743198193609714508056640625">
        <ele>10.80000019073486328125</ele>
        <time>2021-09-27T12:38:19.000Z</time>
      </trkpt>
      <trkpt lat="39.496130235493183135986328125" lon="-0.34744405187666416168212890625">
        <ele>10.6000003814697265625</ele>
        <time>2021-09-27T12:38:20.000Z</time>
      </trkpt>
      <trkpt lat="39.49609075672924518585205078125" lon="-0.34746282733976840972900390625">
        <ele>10.6000003814697265625</ele>
        <time>2021-09-27T12:38:21.000Z</time>
      </trkpt>
      <trkpt lat="39.496047087013721466064453125" lon="-0.347479842603206634521484375">
        <ele>10.6000003814697265625</ele>
        <time>2021-09-27T12:38:22.000Z</time>
      </trkpt>
      <trkpt lat="39.496002160012722015380859375" lon="-0.34749249927699565887451171875">
        <ele>10.6000003814697265625</ele>
        <time>2021-09-27T12:38:23.000Z</time>
      </trkpt>
      <trkpt lat="39.49596150778234004974365234375" lon="-0.34750490449368953704833984375">
        <ele>10.3999996185302734375</ele>
        <time>2021-09-27T12:38:24.000Z</time>
      </trkpt>
      <trkpt lat="39.49585690163075923919677734375" lon="-0.34752937965095043182373046875">
        <ele>10.19999980926513671875</ele>
        <time>2021-09-27T12:38:26.000Z</time>
      </trkpt>
      <trkpt lat="39.49575162492692470550537109375" lon="-0.34754455089569091796875">
        <ele>10</ele>
        <time>2021-09-27T12:38:28.000Z</time>
      </trkpt>
      <trkpt lat="39.49565858580172061920166015625" lon="-0.347569696605205535888671875">
        <ele>9.6000003814697265625</ele>
        <time>2021-09-27T12:38:30.000Z</time>
      </trkpt>
      <trkpt lat="39.49557124637067317962646484375" lon="-0.347592495381832122802734375">
        <ele>9.3999996185302734375</ele>
        <time>2021-09-27T12:38:32.000Z</time>
      </trkpt>
      <trkpt lat="39.49548625387251377105712890625" lon="-0.3476171381771564483642578125">
        <ele>9.19999980926513671875</ele>
        <time>2021-09-27T12:38:34.000Z</time>
      </trkpt>
      <trkpt lat="39.495426155626773834228515625" lon="-0.347638092935085296630859375">
        <ele>9</ele>
        <time>2021-09-27T12:38:36.000Z</time>
      </trkpt>
      <trkpt lat="39.495405368506908416748046875" lon="-0.3476464748382568359375">
        <ele>9</ele>
        <time>2021-09-27T12:38:37.000Z</time>
      </trkpt>
      <trkpt lat="39.49538298882544040679931640625" lon="-0.34765711985528469085693359375">
        <ele>9</ele>
        <time>2021-09-27T12:38:38.000Z</time>
      </trkpt>
      <trkpt lat="39.4953317753970623016357421875" lon="-0.34768260084092617034912109375">
        <ele>8.80000019073486328125</ele>
        <time>2021-09-27T12:38:40.000Z</time>
      </trkpt>
      <trkpt lat="39.49528693221509456634521484375" lon="-0.3477029688656330108642578125">
        <ele>9</ele>
        <time>2021-09-27T12:38:42.000Z</time>
      </trkpt>
      <trkpt lat="39.49522071518003940582275390625" lon="-0.34771864302456378936767578125">
        <ele>8.80000019073486328125</ele>
        <time>2021-09-27T12:38:44.000Z</time>
      </trkpt>
      <trkpt lat="39.49514108709990978240966796875" lon="-0.347738675773143768310546875">
        <ele>8.80000019073486328125</ele>
        <time>2021-09-27T12:38:46.000Z</time>
      </trkpt>
      <trkpt lat="39.49509884230792522430419921875" lon="-0.3477472253143787384033203125">
        <ele>8.80000019073486328125</ele>
        <time>2021-09-27T12:38:47.000Z</time>
      </trkpt>
      <trkpt lat="39.4950568489730358123779296875" lon="-0.34775870852172374725341796875">
        <ele>8.80000019073486328125</ele>
        <time>2021-09-27T12:38:48.000Z</time>
      </trkpt>
      <trkpt lat="39.49497110210359096527099609375" lon="-0.34779223613440990447998046875">
        <ele>8.80000019073486328125</ele>
        <time>2021-09-27T12:38:50.000Z</time>
      </trkpt>
      <trkpt lat="39.4948784820735454559326171875" lon="-0.347820483148097991943359375">
        <ele>8.80000019073486328125</ele>
        <time>2021-09-27T12:38:52.000Z</time>
      </trkpt>
      <trkpt lat="39.4947862811386585235595703125" lon="-0.34784973599016666412353515625">
        <ele>8.80000019073486328125</ele>
        <time>2021-09-27T12:38:54.000Z</time>
      </trkpt>
      <trkpt lat="39.4946934096515178680419921875" lon="-0.3478769771754741668701171875">
        <ele>8.80000019073486328125</ele>
        <time>2021-09-27T12:38:56.000Z</time>
      </trkpt>
      <trkpt lat="39.49460380710661411285400390625" lon="-0.34789147786796092987060546875">
        <ele>8.6000003814697265625</ele>
        <time>2021-09-27T12:38:58.000Z</time>
      </trkpt>
      <trkpt lat="39.4945167191326618194580078125" lon="-0.34791679121553897857666015625">
        <ele>8.6000003814697265625</ele>
        <time>2021-09-27T12:39:00.000Z</time>
      </trkpt>
      <trkpt lat="39.49447271414101123809814453125" lon="-0.3479306213557720184326171875">
        <ele>8.6000003814697265625</ele>
        <time>2021-09-27T12:39:01.000Z</time>
      </trkpt>
      <trkpt lat="39.494427032768726348876953125" lon="-0.34794243983924388885498046875">
        <ele>8.6000003814697265625</ele>
        <time>2021-09-27T12:39:02.000Z</time>
      </trkpt>
      <trkpt lat="39.49433885514736175537109375" lon="-0.34795685671269893646240234375">
        <ele>8.3999996185302734375</ele>
        <time>2021-09-27T12:39:04.000Z</time>
      </trkpt>
      <trkpt lat="39.49424942024052143096923828125" lon="-0.34798200242221355438232421875">
        <ele>8.3999996185302734375</ele>
        <time>2021-09-27T12:39:06.000Z</time>
      </trkpt>
      <trkpt lat="39.4941539503633975982666015625" lon="-0.3480124287307262420654296875">
        <ele>8.3999996185302734375</ele>
        <time>2021-09-27T12:39:08.000Z</time>
      </trkpt>
      <trkpt lat="39.49406535364687442779541015625" lon="-0.3480421006679534912109375">
        <ele>8.19999980926513671875</ele>
        <time>2021-09-27T12:39:10.000Z</time>
      </trkpt>
      <trkpt lat="39.49402042664587497711181640625" lon="-0.34805626608431339263916015625">
        <ele>8.19999980926513671875</ele>
        <time>2021-09-27T12:39:11.000Z</time>
      </trkpt>
      <trkpt lat="39.49397482909262180328369140625" lon="-0.34806598909199237823486328125">
        <ele>8</ele>
        <time>2021-09-27T12:39:12.000Z</time>
      </trkpt>
      <trkpt lat="39.49388279579579830169677734375" lon="-0.3480855189263820648193359375">
        <ele>8</ele>
        <time>2021-09-27T12:39:14.000Z</time>
      </trkpt>
      <trkpt lat="39.4937874935567378997802734375" lon="-0.34810848534107208251953125">
        <ele>7.80000019073486328125</ele>
        <time>2021-09-27T12:39:16.000Z</time>
      </trkpt>
      <trkpt lat="39.49369118548929691314697265625" lon="-0.34812985919415950775146484375">
        <ele>7.599999904632568359375</ele>
        <time>2021-09-27T12:39:18.000Z</time>
      </trkpt>
      <trkpt lat="39.4935960508882999420166015625" lon="-0.34815601073205471038818359375">
        <ele>7.400000095367431640625</ele>
        <time>2021-09-27T12:39:20.000Z</time>
      </trkpt>
      <trkpt lat="39.49350326322019100189208984375" lon="-0.34818358719348907470703125">
        <ele>7</ele>
        <time>2021-09-27T12:39:22.000Z</time>
      </trkpt>
      <trkpt lat="39.49341190047562122344970703125" lon="-0.3482119180262088775634765625">
        <ele>6.80000019073486328125</ele>
        <time>2021-09-27T12:39:24.000Z</time>
      </trkpt>
      <trkpt lat="39.4933181069791316986083984375" lon="-0.34823915921151638031005859375">
        <ele>6.80000019073486328125</ele>
        <time>2021-09-27T12:39:26.000Z</time>
      </trkpt>
      <trkpt lat="39.49322381056845188140869140625" lon="-0.34827017225325107574462890625">
        <ele>6.80000019073486328125</ele>
        <time>2021-09-27T12:39:28.000Z</time>
      </trkpt>
      <trkpt lat="39.49312540702521800994873046875" lon="-0.3482984192669391632080078125">
        <ele>6.80000019073486328125</ele>
        <time>2021-09-27T12:39:30.000Z</time>
      </trkpt>
      <trkpt lat="39.49302549473941326141357421875" lon="-0.3483252413570880889892578125">
        <ele>7</ele>
        <time>2021-09-27T12:39:32.000Z</time>
      </trkpt>
      <trkpt lat="39.49292491190135478973388671875" lon="-0.3483530692756175994873046875">
        <ele>7</ele>
        <time>2021-09-27T12:39:34.000Z</time>
      </trkpt>
      <trkpt lat="39.49282877147197723388671875" lon="-0.34838114865124225616455078125">
        <ele>7</ele>
        <time>2021-09-27T12:39:36.000Z</time>
      </trkpt>
      <trkpt lat="39.492732547223567962646484375" lon="-0.348406545817852020263671875">
        <ele>6.80000019073486328125</ele>
        <time>2021-09-27T12:39:38.000Z</time>
      </trkpt>
      <trkpt lat="39.49268602766096591949462890625" lon="-0.34841920249164104461669921875">
        <ele>6.599999904632568359375</ele>
        <time>2021-09-27T12:39:39.000Z</time>
      </trkpt>
      <trkpt lat="39.49263791553676128387451171875" lon="-0.34843303263187408447265625">
        <ele>6.400000095367431640625</ele>
        <time>2021-09-27T12:39:40.000Z</time>
      </trkpt>
      <trkpt lat="39.4925406016409397125244140625" lon="-0.348462201654911041259765625">
        <ele>6.19999980926513671875</ele>
        <time>2021-09-27T12:39:42.000Z</time>
      </trkpt>
      <trkpt lat="39.492445550858974456787109375" lon="-0.3484885208308696746826171875">
        <ele>5.80000019073486328125</ele>
        <time>2021-09-27T12:39:44.000Z</time>
      </trkpt>
      <trkpt lat="39.4923511706292629241943359375" lon="-0.34851559437811374664306640625">
        <ele>5.599999904632568359375</ele>
        <time>2021-09-27T12:39:46.000Z</time>
      </trkpt>
      <trkpt lat="39.4922468997538089752197265625" lon="-0.348542667925357818603515625">
        <ele>5.19999980926513671875</ele>
        <time>2021-09-27T12:39:48.000Z</time>
      </trkpt>
      <trkpt lat="39.49219442903995513916015625" lon="-0.3485572524368762969970703125">
        <ele>5</ele>
        <time>2021-09-27T12:39:49.000Z</time>
      </trkpt>
      <trkpt lat="39.4921419583261013031005859375" lon="-0.34857292659580707550048828125">
        <ele>4.599999904632568359375</ele>
        <time>2021-09-27T12:39:50.000Z</time>
      </trkpt>
      <trkpt lat="39.4920380227267742156982421875" lon="-0.34860176034271717071533203125">
        <ele>4.19999980926513671875</ele>
        <time>2021-09-27T12:39:52.000Z</time>
      </trkpt>
      <trkpt lat="39.4919360987842082977294921875" lon="-0.34863017499446868896484375">
        <ele>4.19999980926513671875</ele>
        <time>2021-09-27T12:39:54.000Z</time>
      </trkpt>
      <trkpt lat="39.491838030517101287841796875" lon="-0.3486621938645839691162109375">
        <ele>4.400000095367431640625</ele>
        <time>2021-09-27T12:39:56.000Z</time>
      </trkpt>
      <trkpt lat="39.491791762411594390869140625" lon="-0.34867803566157817840576171875">
        <ele>4.400000095367431640625</ele>
        <time>2021-09-27T12:39:57.000Z</time>
      </trkpt>
      <trkpt lat="39.4917463324964046478271484375" lon="-0.34869161434471607208251953125">
        <ele>4.599999904632568359375</ele>
        <time>2021-09-27T12:39:58.000Z</time>
      </trkpt>
      <trkpt lat="39.49165371246635913848876953125" lon="-0.348717682063579559326171875">
        <ele>4.80000019073486328125</ele>
        <time>2021-09-27T12:40:00.000Z</time>
      </trkpt>
      <trkpt lat="39.491558074951171875" lon="-0.34874492324888706207275390625">
        <ele>5</ele>
        <time>2021-09-27T12:40:02.000Z</time>
      </trkpt>
      <trkpt lat="39.491468556225299835205078125" lon="-0.34877358935773372650146484375">
        <ele>5.19999980926513671875</ele>
        <time>2021-09-27T12:40:04.000Z</time>
      </trkpt>
      <trkpt lat="39.49137526564300060272216796875" lon="-0.34879839979112148284912109375">
        <ele>5.400000095367431640625</ele>
        <time>2021-09-27T12:40:06.000Z</time>
      </trkpt>
      <trkpt lat="39.491285495460033416748046875" lon="-0.34882865846157073974609375">
        <ele>5.80000019073486328125</ele>
        <time>2021-09-27T12:40:08.000Z</time>
      </trkpt>
      <trkpt lat="39.49120209552347660064697265625" lon="-0.3488566540181636810302734375">
        <ele>6</ele>
        <time>2021-09-27T12:40:10.000Z</time>
      </trkpt>
      <trkpt lat="39.49112431146204471588134765625" lon="-0.348875261843204498291015625">
        <ele>6</ele>
        <time>2021-09-27T12:40:12.000Z</time>
      </trkpt>
      <trkpt lat="39.49104719795286655426025390625" lon="-0.3488975577056407928466796875">
        <ele>6</ele>
        <time>2021-09-27T12:40:14.000Z</time>
      </trkpt>
      <trkpt lat="39.49100512079894542694091796875" lon="-0.34890904091298580169677734375">
        <ele>6</ele>
        <time>2021-09-27T12:40:15.000Z</time>
      </trkpt>
      <trkpt lat="39.49096304364502429962158203125" lon="-0.34892144612967967987060546875">
        <ele>6</ele>
        <time>2021-09-27T12:40:16.000Z</time>
      </trkpt>
      <trkpt lat="39.49088358320295810699462890625" lon="-0.34894910641014575958251953125">
        <ele>6</ele>
        <time>2021-09-27T12:40:18.000Z</time>
      </trkpt>
      <trkpt lat="39.4908112473785877227783203125" lon="-0.34897022880613803863525390625">
        <ele>6</ele>
        <time>2021-09-27T12:40:20.000Z</time>
      </trkpt>
      <trkpt lat="39.49073539115488529205322265625" lon="-0.34899151884019374847412109375">
        <ele>6</ele>
        <time>2021-09-27T12:40:22.000Z</time>
      </trkpt>
      <trkpt lat="39.49065559543669223785400390625" lon="-0.3490095399320125579833984375">
        <ele>6</ele>
        <time>2021-09-27T12:40:24.000Z</time>
      </trkpt>
      <trkpt lat="39.49057663790881633758544921875" lon="-0.3490316681563854217529296875">
        <ele>6</ele>
        <time>2021-09-27T12:40:26.000Z</time>
      </trkpt>
      <trkpt lat="39.49049818329513072967529296875" lon="-0.3490527905523777008056640625">
        <ele>6</ele>
        <time>2021-09-27T12:40:28.000Z</time>
      </trkpt>
      <trkpt lat="39.49041134677827358245849609375" lon="-0.34907835535705089569091796875">
        <ele>6</ele>
        <time>2021-09-27T12:40:30.000Z</time>
      </trkpt>
      <trkpt lat="39.49036792851984500885009765625" lon="-0.3490903414785861968994140625">
        <ele>6</ele>
        <time>2021-09-27T12:40:31.000Z</time>
      </trkpt>
      <trkpt lat="39.49032383970916271209716796875" lon="-0.34910115413367748260498046875">
        <ele>6</ele>
        <time>2021-09-27T12:40:32.000Z</time>
      </trkpt>
      <trkpt lat="39.4902389310300350189208984375" lon="-0.3491265513002872467041015625">
        <ele>5.80000019073486328125</ele>
        <time>2021-09-27T12:40:34.000Z</time>
      </trkpt>
      <trkpt lat="39.4901474006474018096923828125" lon="-0.34915043972432613372802734375">
        <ele>5.80000019073486328125</ele>
        <time>2021-09-27T12:40:36.000Z</time>
      </trkpt>
      <trkpt lat="39.49005595408380031585693359375" lon="-0.3491768427193164825439453125">
        <ele>5.599999904632568359375</ele>
        <time>2021-09-27T12:40:38.000Z</time>
      </trkpt>
      <trkpt lat="39.49000968597829341888427734375" lon="-0.34919033758342266082763671875">
        <ele>5.599999904632568359375</ele>
        <time>2021-09-27T12:40:39.000Z</time>
      </trkpt>
      <trkpt lat="39.48996408842504024505615234375" lon="-0.34920358099043369293212890625">
        <ele>5.599999904632568359375</ele>
        <time>2021-09-27T12:40:40.000Z</time>
      </trkpt>
      <trkpt lat="39.489874653518199920654296875" lon="-0.3492308221757411956787109375">
        <ele>5.400000095367431640625</ele>
        <time>2021-09-27T12:40:42.000Z</time>
      </trkpt>
      <trkpt lat="39.4897822849452495574951171875" lon="-0.3492539562284946441650390625">
        <ele>5.400000095367431640625</ele>
        <time>2021-09-27T12:40:44.000Z</time>
      </trkpt>
      <trkpt lat="39.489693939685821533203125" lon="-0.3492774255573749542236328125">
        <ele>5.19999980926513671875</ele>
        <time>2021-09-27T12:40:46.000Z</time>
      </trkpt>
      <trkpt lat="39.48965043760836124420166015625" lon="-0.3492894954979419708251953125">
        <ele>5.19999980926513671875</ele>
        <time>2021-09-27T12:40:47.000Z</time>
      </trkpt>
      <trkpt lat="39.48960609734058380126953125" lon="-0.3492998890578746795654296875">
        <ele>5.19999980926513671875</ele>
        <time>2021-09-27T12:40:48.000Z</time>
      </trkpt>
      <trkpt lat="39.489519596099853515625" lon="-0.34932478331029415130615234375">
        <ele>5</ele>
        <time>2021-09-27T12:40:50.000Z</time>
      </trkpt>
      <trkpt lat="39.489433430135250091552734375" lon="-0.34935034811496734619140625">
        <ele>5</ele>
        <time>2021-09-27T12:40:52.000Z</time>
      </trkpt>
      <trkpt lat="39.4893465936183929443359375" lon="-0.34937440417706966400146484375">
        <ele>4.80000019073486328125</ele>
        <time>2021-09-27T12:40:54.000Z</time>
      </trkpt>
      <trkpt lat="39.48925883509218692779541015625" lon="-0.3493954427540302276611328125">
        <ele>4.80000019073486328125</ele>
        <time>2021-09-27T12:40:56.000Z</time>
      </trkpt>
      <trkpt lat="39.48917518369853496551513671875" lon="-0.34941463731229305267333984375">
        <ele>4.599999904632568359375</ele>
        <time>2021-09-27T12:40:58.000Z</time>
      </trkpt>
      <trkpt lat="39.48909781873226165771484375" lon="-0.3494353406131267547607421875">
        <ele>4.599999904632568359375</ele>
        <time>2021-09-27T12:41:00.000Z</time>
      </trkpt>
      <trkpt lat="39.489023722708225250244140625" lon="-0.34946434199810028076171875">
        <ele>4.400000095367431640625</ele>
        <time>2021-09-27T12:41:02.000Z</time>
      </trkpt>
      <trkpt lat="39.48894836939871311187744140625" lon="-0.3494812734425067901611328125">
        <ele>4.400000095367431640625</ele>
        <time>2021-09-27T12:41:04.000Z</time>
      </trkpt>
      <trkpt lat="39.4888793863356113433837890625" lon="-0.3494990430772304534912109375">
        <ele>4.19999980926513671875</ele>
        <time>2021-09-27T12:41:06.000Z</time>
      </trkpt>
      <trkpt lat="39.48879883624613285064697265625" lon="-0.34952108748257160186767578125">
        <ele>4.19999980926513671875</ele>
        <time>2021-09-27T12:41:08.000Z</time>
      </trkpt>
      <trkpt lat="39.48873312212526798248291015625" lon="-0.3495360910892486572265625">
        <ele>4.19999980926513671875</ele>
        <time>2021-09-27T12:41:10.000Z</time>
      </trkpt>
      <trkpt lat="39.48871015571057796478271484375" lon="-0.34953885711729526519775390625">
        <ele>4.19999980926513671875</ele>
        <time>2021-09-27T12:41:11.000Z</time>
      </trkpt>
      <trkpt lat="39.4886902906000614166259765625" lon="-0.34954086877405643463134765625">
        <ele>4.19999980926513671875</ele>
        <time>2021-09-27T12:41:12.000Z</time>
      </trkpt>
      <trkpt lat="39.488628096878528594970703125" lon="-0.34955427981913089752197265625">
        <ele>4.19999980926513671875</ele>
        <time>2021-09-27T12:41:14.000Z</time>
      </trkpt>
      <trkpt lat="39.48859046213328838348388671875" lon="-0.3495660983026027679443359375">
        <ele>4.19999980926513671875</ele>
        <time>2021-09-27T12:41:15.000Z</time>
      </trkpt>
      <trkpt lat="39.48855022899806499481201171875" lon="-0.3495768271386623382568359375">
        <ele>4.19999980926513671875</ele>
        <time>2021-09-27T12:41:16.000Z</time>
      </trkpt>
      <trkpt lat="39.48847688734531402587890625" lon="-0.349596105515956878662109375">
        <ele>4.19999980926513671875</ele>
        <time>2021-09-27T12:41:18.000Z</time>
      </trkpt>
      <trkpt lat="39.4883955828845500946044921875" lon="-0.34961714409291744232177734375">
        <ele>4.400000095367431640625</ele>
        <time>2021-09-27T12:41:20.000Z</time>
      </trkpt>
      <trkpt lat="39.4883090816438198089599609375" lon="-0.34964681603014469146728515625">
        <ele>4.400000095367431640625</ele>
        <time>2021-09-27T12:41:22.000Z</time>
      </trkpt>
      <trkpt lat="39.4882675074040889739990234375" lon="-0.3496594727039337158203125">
        <ele>4.400000095367431640625</ele>
        <time>2021-09-27T12:41:23.000Z</time>
      </trkpt>
      <trkpt lat="39.48822584934532642364501953125" lon="-0.3496707044541835784912109375">
        <ele>4.400000095367431640625</ele>
        <time>2021-09-27T12:41:24.000Z</time>
      </trkpt>
      <trkpt lat="39.4881367497146129608154296875" lon="-0.349700711667537689208984375">
        <ele>4.400000095367431640625</ele>
        <time>2021-09-27T12:41:26.000Z</time>
      </trkpt>
      <trkpt lat="39.4880485720932483673095703125" lon="-0.34972895868122577667236328125">
        <ele>4.599999904632568359375</ele>
        <time>2021-09-27T12:41:28.000Z</time>
      </trkpt>
      <trkpt lat="39.4879587180912494659423828125" lon="-0.3497555293142795562744140625">
        <ele>4.599999904632568359375</ele>
        <time>2021-09-27T12:41:30.000Z</time>
      </trkpt>
      <trkpt lat="39.48791362345218658447265625" lon="-0.34976567141711711883544921875">
        <ele>4.599999904632568359375</ele>
        <time>2021-09-27T12:41:31.000Z</time>
      </trkpt>
      <trkpt lat="39.4878725521266460418701171875" lon="-0.3497753106057643890380859375">
        <ele>4.599999904632568359375</ele>
        <time>2021-09-27T12:41:32.000Z</time>
      </trkpt>
      <trkpt lat="39.48779753409326076507568359375" lon="-0.3497962653636932373046875">
        <ele>4.599999904632568359375</ele>
        <time>2021-09-27T12:41:34.000Z</time>
      </trkpt>
      <trkpt lat="39.48772293515503406524658203125" lon="-0.3498165495693683624267578125">
        <ele>4.599999904632568359375</ele>
        <time>2021-09-27T12:41:36.000Z</time>
      </trkpt>
      <trkpt lat="39.48765470646321773529052734375" lon="-0.3498338162899017333984375">
        <ele>4.599999904632568359375</ele>
        <time>2021-09-27T12:41:38.000Z</time>
      </trkpt>
      <trkpt lat="39.4875748269259929656982421875" lon="-0.34985099919140338897705078125">
        <ele>4.400000095367431640625</ele>
        <time>2021-09-27T12:41:40.000Z</time>
      </trkpt>
      <trkpt lat="39.487493522465229034423828125" lon="-0.34987312741577625274658203125">
        <ele>4.19999980926513671875</ele>
        <time>2021-09-27T12:41:42.000Z</time>
      </trkpt>
      <trkpt lat="39.487455300986766815185546875" lon="-0.3498849458992481231689453125">
        <ele>4</ele>
        <time>2021-09-27T12:41:43.000Z</time>
      </trkpt>
      <trkpt lat="39.48741649277508258819580078125" lon="-0.34989525564014911651611328125">
        <ele>4</ele>
        <time>2021-09-27T12:41:44.000Z</time>
      </trkpt>
      <trkpt lat="39.48733267374336719512939453125" lon="-0.34991889260709285736083984375">
        <ele>3.7999999523162841796875</ele>
        <time>2021-09-27T12:41:46.000Z</time>
      </trkpt>
      <trkpt lat="39.48724349029362201690673828125" lon="-0.3499432839453220367431640625">
        <ele>3.599999904632568359375</ele>
        <time>2021-09-27T12:41:48.000Z</time>
      </trkpt>
      <trkpt lat="39.48715388774871826171875" lon="-0.34996516071259975433349609375">
        <ele>3.400000095367431640625</ele>
        <time>2021-09-27T12:41:50.000Z</time>
      </trkpt>
      <trkpt lat="39.487065374851226806640625" lon="-0.3499974310398101806640625">
        <ele>3.2000000476837158203125</ele>
        <time>2021-09-27T12:41:52.000Z</time>
      </trkpt>
      <trkpt lat="39.4869723357260227203369140625" lon="-0.35002802498638629913330078125">
        <ele>3</ele>
        <time>2021-09-27T12:41:54.000Z</time>
      </trkpt>
      <trkpt lat="39.48687569238245487213134765625" lon="-0.3500505723059177398681640625">
        <ele>3.400000095367431640625</ele>
        <time>2021-09-27T12:41:56.000Z</time>
      </trkpt>
      <trkpt lat="39.4868274964392185211181640625" lon="-0.35006155259907245635986328125">
        <ele>3.599999904632568359375</ele>
        <time>2021-09-27T12:41:57.000Z</time>
      </trkpt>
      <trkpt lat="39.48677980341017246246337890625" lon="-0.3500725328922271728515625">
        <ele>3.7999999523162841796875</ele>
        <time>2021-09-27T12:41:58.000Z</time>
      </trkpt>
      <trkpt lat="39.4866930507123470306396484375" lon="-0.3500971756875514984130859375">
        <ele>4</ele>
        <time>2021-09-27T12:42:00.000Z</time>
      </trkpt>
      <trkpt lat="39.48661367408931255340576171875" lon="-0.35011821426451206207275390625">
        <ele>4.400000095367431640625</ele>
        <time>2021-09-27T12:42:02.000Z</time>
      </trkpt>
      <trkpt lat="39.48657277040183544158935546875" lon="-0.35012818872928619384765625">
        <ele>4.599999904632568359375</ele>
        <time>2021-09-27T12:42:03.000Z</time>
      </trkpt>
      <trkpt lat="39.4865317828953266143798828125" lon="-0.35013816319406032562255859375">
        <ele>4.599999904632568359375</ele>
        <time>2021-09-27T12:42:04.000Z</time>
      </trkpt>
      <trkpt lat="39.486448802053928375244140625" lon="-0.35016263835132122039794921875">
        <ele>5</ele>
        <time>2021-09-27T12:42:06.000Z</time>
      </trkpt>
      <trkpt lat="39.48636489920318126678466796875" lon="-0.350189208984375">
        <ele>5.19999980926513671875</ele>
        <time>2021-09-27T12:42:08.000Z</time>
      </trkpt>
      <trkpt lat="39.4862866960465908050537109375" lon="-0.3502141870558261871337890625">
        <ele>5.400000095367431640625</ele>
        <time>2021-09-27T12:42:10.000Z</time>
      </trkpt>
      <trkpt lat="39.486210756003856658935546875" lon="-0.3502396680414676666259765625">
        <ele>5.599999904632568359375</ele>
        <time>2021-09-27T12:42:12.000Z</time>
      </trkpt>
      <trkpt lat="39.48612098582088947296142578125" lon="-0.35026338882744312286376953125">
        <ele>5.80000019073486328125</ele>
        <time>2021-09-27T12:42:14.000Z</time>
      </trkpt>
      <trkpt lat="39.48607572354376316070556640625" lon="-0.35027478821575641632080078125">
        <ele>6</ele>
        <time>2021-09-27T12:42:15.000Z</time>
      </trkpt>
      <trkpt lat="39.48603205382823944091796875" lon="-0.35029004327952861785888671875">
        <ele>6</ele>
        <time>2021-09-27T12:42:16.000Z</time>
      </trkpt>
      <trkpt lat="39.48593893088400363922119140625" lon="-0.350312925875186920166015625">
        <ele>6.400000095367431640625</ele>
        <time>2021-09-27T12:42:18.000Z</time>
      </trkpt>
      <trkpt lat="39.48584505356848239898681640625" lon="-0.3503399156033992767333984375">
        <ele>6.599999904632568359375</ele>
        <time>2021-09-27T12:42:20.000Z</time>
      </trkpt>
      <trkpt lat="39.4857470691204071044921875" lon="-0.350369252264499664306640625">
        <ele>6.80000019073486328125</ele>
        <time>2021-09-27T12:42:22.000Z</time>
      </trkpt>
      <trkpt lat="39.48569820262491703033447265625" lon="-0.350382663309574127197265625">
        <ele>7</ele>
        <time>2021-09-27T12:42:23.000Z</time>
      </trkpt>
      <trkpt lat="39.4856496714055538177490234375" lon="-0.35039716400206089019775390625">
        <ele>7.19999980926513671875</ele>
        <time>2021-09-27T12:42:24.000Z</time>
      </trkpt>
      <trkpt lat="39.48555856011807918548583984375" lon="-0.3504230640828609466552734375">
        <ele>7.400000095367431640625</ele>
        <time>2021-09-27T12:42:26.000Z</time>
      </trkpt>
      <trkpt lat="39.485471807420253753662109375" lon="-0.3504453599452972412109375">
        <ele>7.599999904632568359375</ele>
        <time>2021-09-27T12:42:28.000Z</time>
      </trkpt>
      <trkpt lat="39.48537818156182765960693359375" lon="-0.35046991892158985137939453125">
        <ele>7.80000019073486328125</ele>
        <time>2021-09-27T12:42:30.000Z</time>
      </trkpt>
      <trkpt lat="39.48528732173144817352294921875" lon="-0.35049472935497760772705078125">
        <ele>8</ele>
        <time>2021-09-27T12:42:32.000Z</time>
      </trkpt>
      <trkpt lat="39.4852413050830364227294921875" lon="-0.35050730220973491668701171875">
        <ele>8.19999980926513671875</ele>
        <time>2021-09-27T12:42:33.000Z</time>
      </trkpt>
      <trkpt lat="39.485196880996227264404296875" lon="-0.350514762103557586669921875">
        <ele>8.19999980926513671875</ele>
        <time>2021-09-27T12:42:34.000Z</time>
      </trkpt>
      <trkpt lat="39.4851051829755306243896484375" lon="-0.35052926279604434967041015625">
        <ele>8.3999996185302734375</ele>
        <time>2021-09-27T12:42:36.000Z</time>
      </trkpt>
      <trkpt lat="39.48506285436451435089111328125" lon="-0.3505434282124042510986328125">
        <ele>8.3999996185302734375</ele>
        <time>2021-09-27T12:42:37.000Z</time>
      </trkpt>
      <trkpt lat="39.48502094484865665435791015625" lon="-0.35056002438068389892578125">
        <ele>8.3999996185302734375</ele>
        <time>2021-09-27T12:42:38.000Z</time>
      </trkpt>
      <trkpt lat="39.48493176139891147613525390625" lon="-0.35060369409620761871337890625">
        <ele>8.6000003814697265625</ele>
        <time>2021-09-27T12:42:40.000Z</time>
      </trkpt>
      <trkpt lat="39.484841823577880859375" lon="-0.3506356291472911834716796875">
        <ele>8.80000019073486328125</ele>
        <time>2021-09-27T12:42:42.000Z</time>
      </trkpt>
      <trkpt lat="39.48479496873915195465087890625" lon="-0.35064795054495334625244140625">
        <ele>8.80000019073486328125</ele>
        <time>2021-09-27T12:42:43.000Z</time>
      </trkpt>
      <trkpt lat="39.4847504608333110809326171875" lon="-0.3506607748568058013916015625">
        <ele>9</ele>
        <time>2021-09-27T12:42:44.000Z</time>
      </trkpt>
      <trkpt lat="39.48465876281261444091796875" lon="-0.35068483091890811920166015625">
        <ele>9</ele>
        <time>2021-09-27T12:42:46.000Z</time>
      </trkpt>
      <trkpt lat="39.48456647805869579315185546875" lon="-0.35069908015429973602294921875">
        <ele>9.19999980926513671875</ele>
        <time>2021-09-27T12:42:48.000Z</time>
      </trkpt>
      <trkpt lat="39.48446220718324184417724609375" lon="-0.35071852616965770721435546875">
        <ele>9.3999996185302734375</ele>
        <time>2021-09-27T12:42:50.000Z</time>
      </trkpt>
      <trkpt lat="39.48436371982097625732421875" lon="-0.350742749869823455810546875">
        <ele>9.80000019073486328125</ele>
        <time>2021-09-27T12:42:52.000Z</time>
      </trkpt>
      <trkpt lat="39.48427177034318447113037109375" lon="-0.3507737629115581512451171875">
        <ele>10.19999980926513671875</ele>
        <time>2021-09-27T12:42:54.000Z</time>
      </trkpt>
      <trkpt lat="39.484187029302120208740234375" lon="-0.3507995791733264923095703125">
        <ele>10.6000003814697265625</ele>
        <time>2021-09-27T12:42:56.000Z</time>
      </trkpt>
      <trkpt lat="39.48410396464169025421142578125" lon="-0.350825227797031402587890625">
        <ele>10.80000019073486328125</ele>
        <time>2021-09-27T12:42:58.000Z</time>
      </trkpt>
      <trkpt lat="39.4840168766677379608154296875" lon="-0.3508498705923557281494140625">
        <ele>11</ele>
        <time>2021-09-27T12:43:00.000Z</time>
      </trkpt>
      <trkpt lat="39.48392492718994617462158203125" lon="-0.3508790396153926849365234375">
        <ele>11.3999996185302734375</ele>
        <time>2021-09-27T12:43:02.000Z</time>
      </trkpt>
      <trkpt lat="39.4838311336934566497802734375" lon="-0.35090795718133449554443359375">
        <ele>11.6000003814697265625</ele>
        <time>2021-09-27T12:43:04.000Z</time>
      </trkpt>
      <trkpt lat="39.4837396033108234405517578125" lon="-0.3509316779673099517822265625">
        <ele>12</ele>
        <time>2021-09-27T12:43:06.000Z</time>
      </trkpt>
      <trkpt lat="39.4836541078984737396240234375" lon="-0.35095724277198314666748046875">
        <ele>12</ele>
        <time>2021-09-27T12:43:08.000Z</time>
      </trkpt>
      <trkpt lat="39.4835719652473926544189453125" lon="-0.3509809635579586029052734375">
        <ele>11.3999996185302734375</ele>
        <time>2021-09-27T12:43:10.000Z</time>
      </trkpt>
      <trkpt lat="39.48349074460566043853759765625" lon="-0.35100619308650493621826171875">
        <ele>10.6000003814697265625</ele>
        <time>2021-09-27T12:43:12.000Z</time>
      </trkpt>
      <trkpt lat="39.48341648094356060028076171875" lon="-0.3510299138724803924560546875">
        <ele>10</ele>
        <time>2021-09-27T12:43:14.000Z</time>
      </trkpt>
      <trkpt lat="39.483346827328205108642578125" lon="-0.35104709677398204803466796875">
        <ele>9.3999996185302734375</ele>
        <time>2021-09-27T12:43:16.000Z</time>
      </trkpt>
      <trkpt lat="39.48326476849615573883056640625" lon="-0.35107358358800411224365234375">
        <ele>8.6000003814697265625</ele>
        <time>2021-09-27T12:43:18.000Z</time>
      </trkpt>
      <trkpt lat="39.483186565339565277099609375" lon="-0.35109914839267730712890625">
        <ele>8</ele>
        <time>2021-09-27T12:43:20.000Z</time>
      </trkpt>
      <trkpt lat="39.48311154730618000030517578125" lon="-0.3511197678744792938232421875">
        <ele>7.19999980926513671875</ele>
        <time>2021-09-27T12:43:22.000Z</time>
      </trkpt>
      <trkpt lat="39.483047090470790863037109375" lon="-0.3511361964046955108642578125">
        <ele>6.599999904632568359375</ele>
        <time>2021-09-27T12:43:24.000Z</time>
      </trkpt>
      <trkpt lat="39.48301549069583415985107421875" lon="-0.351145081222057342529296875">
        <ele>6.400000095367431640625</ele>
        <time>2021-09-27T12:43:25.000Z</time>
      </trkpt>
      <trkpt lat="39.48298363946378231048583984375" lon="-0.35115153528749942779541015625">
        <ele>6.19999980926513671875</ele>
        <time>2021-09-27T12:43:26.000Z</time>
      </trkpt>
      <trkpt lat="39.4829245470464229583740234375" lon="-0.35116620361804962158203125">
        <ele>5.80000019073486328125</ele>
        <time>2021-09-27T12:43:28.000Z</time>
      </trkpt>
      <trkpt lat="39.4828755967319011688232421875" lon="-0.35118103958666324615478515625">
        <ele>5.599999904632568359375</ele>
        <time>2021-09-27T12:43:30.000Z</time>
      </trkpt>
      <trkpt lat="39.48285455815494060516357421875" lon="-0.35119662992656230926513671875">
        <ele>5.400000095367431640625</ele>
        <time>2021-09-27T12:43:31.000Z</time>
      </trkpt>
      <trkpt lat="39.48283578269183635711669921875" lon="-0.351228229701519012451171875">
        <ele>5.400000095367431640625</ele>
        <time>2021-09-27T12:43:32.000Z</time>
      </trkpt>
      <trkpt lat="39.4828122295439243316650390625" lon="-0.351302325725555419921875">
        <ele>5</ele>
        <time>2021-09-27T12:43:34.000Z</time>
      </trkpt>
      <trkpt lat="39.482796303927898406982421875" lon="-0.3513239510357379913330078125">
        <ele>5</ele>
        <time>2021-09-27T12:43:35.000Z</time>
      </trkpt>
      <trkpt lat="39.48276956565678119659423828125" lon="-0.35133660770952701568603515625">
        <ele>5</ele>
        <time>2021-09-27T12:43:36.000Z</time>
      </trkpt>
      <trkpt lat="39.4827361218631267547607421875" lon="-0.3513373620808124542236328125">
        <ele>5</ele>
        <time>2021-09-27T12:43:37.000Z</time>
      </trkpt>
      <trkpt lat="39.48270284570753574371337890625" lon="-0.3513259626924991607666015625">
        <ele>5.19999980926513671875</ele>
        <time>2021-09-27T12:43:38.000Z</time>
      </trkpt>
      <trkpt lat="39.48263059370219707489013671875" lon="-0.35130190663039684295654296875">
        <ele>5.19999980926513671875</ele>
        <time>2021-09-27T12:43:40.000Z</time>
      </trkpt>
      <trkpt lat="39.48259052820503711700439453125" lon="-0.35129285417497158050537109375">
        <ele>5.400000095367431640625</ele>
        <time>2021-09-27T12:43:41.000Z</time>
      </trkpt>
      <trkpt lat="39.48254761286079883575439453125" lon="-0.3512850590050220489501953125">
        <ele>5.400000095367431640625</ele>
        <time>2021-09-27T12:43:42.000Z</time>
      </trkpt>
      <trkpt lat="39.482470415532588958740234375" lon="-0.35126770846545696258544921875">
        <ele>5.599999904632568359375</ele>
        <time>2021-09-27T12:43:44.000Z</time>
      </trkpt>
      <trkpt lat="39.48240570724010467529296875" lon="-0.35124742425978183746337890625">
        <ele>5.80000019073486328125</ele>
        <time>2021-09-27T12:43:46.000Z</time>
      </trkpt>
      <trkpt lat="39.48237511329352855682373046875" lon="-0.35122848115861415863037109375">
        <ele>5.80000019073486328125</ele>
        <time>2021-09-27T12:43:47.000Z</time>
      </trkpt>
      <trkpt lat="39.48234225623309612274169921875" lon="-0.351198725402355194091796875">
        <ele>6</ele>
        <time>2021-09-27T12:43:48.000Z</time>
      </trkpt>
      <trkpt lat="39.4822816550731658935546875" lon="-0.3511418960988521575927734375">
        <ele>6.19999980926513671875</ele>
        <time>2021-09-27T12:43:50.000Z</time>
      </trkpt>
      <trkpt lat="39.4822637178003787994384765625" lon="-0.35110861994326114654541015625">
        <ele>6.400000095367431640625</ele>
        <time>2021-09-27T12:43:51.000Z</time>
      </trkpt>
      <trkpt lat="39.4822526536881923675537109375" lon="-0.3510718233883380889892578125">
        <ele>6.599999904632568359375</ele>
        <time>2021-09-27T12:43:52.000Z</time>
      </trkpt>
      <trkpt lat="39.48225223459303379058837890625" lon="-0.3510352782905101776123046875">
        <ele>6.599999904632568359375</ele>
        <time>2021-09-27T12:43:53.000Z</time>
      </trkpt>
      <trkpt lat="39.482259862124919891357421875" lon="-0.35099512897431850433349609375">
        <ele>6.599999904632568359375</ele>
        <time>2021-09-27T12:43:54.000Z</time>
      </trkpt>
      <trkpt lat="39.4822628796100616455078125" lon="-0.35090561024844646453857421875">
        <ele>6.80000019073486328125</ele>
        <time>2021-09-27T12:43:56.000Z</time>
      </trkpt>
      <trkpt lat="39.4821993447840213775634765625" lon="-0.3508237190544605255126953125">
        <ele>6.80000019073486328125</ele>
        <time>2021-09-27T12:43:58.000Z</time>
      </trkpt>
      <trkpt lat="39.4821644760668277740478515625" lon="-0.3507858328521251678466796875">
        <ele>6.80000019073486328125</ele>
        <time>2021-09-27T12:43:59.000Z</time>
      </trkpt>
      <trkpt lat="39.48213337920606136322021484375" lon="-0.35075155086815357208251953125">
        <ele>6.80000019073486328125</ele>
        <time>2021-09-27T12:44:00.000Z</time>
      </trkpt>
      <trkpt lat="39.48206833563745021820068359375" lon="-0.350690782070159912109375">
        <ele>6.80000019073486328125</ele>
        <time>2021-09-27T12:44:02.000Z</time>
      </trkpt>
      <trkpt lat="39.48201133869588375091552734375" lon="-0.3506322763860225677490234375">
        <ele>6.80000019073486328125</ele>
        <time>2021-09-27T12:44:04.000Z</time>
      </trkpt>
      <trkpt lat="39.481958113610744476318359375" lon="-0.35057167522609233856201171875">
        <ele>6.80000019073486328125</ele>
        <time>2021-09-27T12:44:06.000Z</time>
      </trkpt>
      <trkpt lat="39.48189533315598964691162109375" lon="-0.350504033267498016357421875">
        <ele>7.19999980926513671875</ele>
        <time>2021-09-27T12:44:08.000Z</time>
      </trkpt>
      <trkpt lat="39.4818235002458095550537109375" lon="-0.35043119452893733978271484375">
        <ele>7.400000095367431640625</ele>
        <time>2021-09-27T12:44:10.000Z</time>
      </trkpt>
      <trkpt lat="39.48174496181309223175048828125" lon="-0.35035542212426662445068359375">
        <ele>7.80000019073486328125</ele>
        <time>2021-09-27T12:44:12.000Z</time>
      </trkpt>
      <trkpt lat="39.48167220689356327056884765625" lon="-0.350288115441799163818359375">
        <ele>8</ele>
        <time>2021-09-27T12:44:14.000Z</time>
      </trkpt>
      <trkpt lat="39.48163549415767192840576171875" lon="-0.35028199665248394012451171875">
        <ele>8</ele>
        <time>2021-09-27T12:44:15.000Z</time>
      </trkpt>
      <trkpt lat="39.4816030561923980712890625" lon="-0.350288450717926025390625">
        <ele>8.19999980926513671875</ele>
        <time>2021-09-27T12:44:16.000Z</time>
      </trkpt>
      <trkpt lat="39.4815767370164394378662109375" lon="-0.35029440186917781829833984375">
        <ele>8.19999980926513671875</ele>
        <time>2021-09-27T12:44:17.000Z</time>
      </trkpt>
      <trkpt lat="39.48155678808689117431640625" lon="-0.35029490478336811065673828125">
        <ele>8.19999980926513671875</ele>
        <time>2021-09-27T12:44:18.000Z</time>
      </trkpt>
      <trkpt lat="39.48153306730091571807861328125" lon="-0.35029314458370208740234375">
        <ele>8.3999996185302734375</ele>
        <time>2021-09-27T12:44:20.000Z</time>
      </trkpt>
      <trkpt lat="39.48153306730091571807861328125" lon="-0.35029314458370208740234375">
        <ele>8.3999996185302734375</ele>
        <time>2021-09-27T12:44:21.000Z</time>
      </trkpt>
      <trkpt lat="39.48150473646819591522216796875" lon="-0.35029239021241664886474609375">
        <ele>8.3999996185302734375</ele>
        <time>2021-09-27T12:44:34.000Z</time>
      </trkpt>
      <trkpt lat="39.48148160241544246673583984375" lon="-0.35030161030590534210205078125">
        <ele>8.3999996185302734375</ele>
        <time>2021-09-27T12:44:35.000Z</time>
      </trkpt>
      <trkpt lat="39.48145561851561069488525390625" lon="-0.350316278636455535888671875">
        <ele>8.3999996185302734375</ele>
        <time>2021-09-27T12:44:36.000Z</time>
      </trkpt>
      <trkpt lat="39.48139853775501251220703125" lon="-0.35034989006817340850830078125">
        <ele>8.6000003814697265625</ele>
        <time>2021-09-27T12:44:38.000Z</time>
      </trkpt>
      <trkpt lat="39.48133408091962337493896484375" lon="-0.35037604160606861114501953125">
        <ele>8.80000019073486328125</ele>
        <time>2021-09-27T12:44:40.000Z</time>
      </trkpt>
      <trkpt lat="39.48129988275468349456787109375" lon="-0.3503905422985553741455078125">
        <ele>8.80000019073486328125</ele>
        <time>2021-09-27T12:44:41.000Z</time>
      </trkpt>
      <trkpt lat="39.481268115341663360595703125" lon="-0.3504066355526447296142578125">
        <ele>8.80000019073486328125</ele>
        <time>2021-09-27T12:44:42.000Z</time>
      </trkpt>
      <trkpt lat="39.48120852001011371612548828125" lon="-0.350432954728603363037109375">
        <ele>9</ele>
        <time>2021-09-27T12:44:44.000Z</time>
      </trkpt>
      <trkpt lat="39.48118153028190135955810546875" lon="-0.3504399955272674560546875">
        <ele>9</ele>
        <time>2021-09-27T12:44:45.000Z</time>
      </trkpt>
      <trkpt lat="39.481160156428813934326171875" lon="-0.3504467010498046875">
        <ele>8.80000019073486328125</ele>
        <time>2021-09-27T12:44:46.000Z</time>
      </trkpt>
      <trkpt lat="39.481123946607112884521484375" lon="-0.35044510848820209503173828125">
        <ele>8.80000019073486328125</ele>
        <time>2021-09-27T12:44:48.000Z</time>
      </trkpt>
      <trkpt lat="39.4810862280428409576416015625" lon="-0.35041661001741886138916015625">
        <ele>8.6000003814697265625</ele>
        <time>2021-09-27T12:44:50.000Z</time>
      </trkpt>
      <trkpt lat="39.48105311952531337738037109375" lon="-0.35034871660172939300537109375">
        <ele>8.19999980926513671875</ele>
        <time>2021-09-27T12:44:52.000Z</time>
      </trkpt>
      <trkpt lat="39.48102277703583240509033203125" lon="-0.3502576053142547607421875">
        <ele>7.80000019073486328125</ele>
        <time>2021-09-27T12:44:54.000Z</time>
      </trkpt>
      <trkpt lat="39.48099193163216114044189453125" lon="-0.35016783513128757476806640625">
        <ele>7.19999980926513671875</ele>
        <time>2021-09-27T12:44:56.000Z</time>
      </trkpt>
      <trkpt lat="39.4809655286371707916259765625" lon="-0.3500676713883876800537109375">
        <ele>6.80000019073486328125</ele>
        <time>2021-09-27T12:44:58.000Z</time>
      </trkpt>
      <trkpt lat="39.48092889972031116485595703125" lon="-0.3499545156955718994140625">
        <ele>6.19999980926513671875</ele>
        <time>2021-09-27T12:45:00.000Z</time>
      </trkpt>
      <trkpt lat="39.48089788667857646942138671875" lon="-0.3498433716595172882080078125">
        <ele>6</ele>
        <time>2021-09-27T12:45:02.000Z</time>
      </trkpt>
      <trkpt lat="39.480861090123653411865234375" lon="-0.34972317516803741455078125">
        <ele>6</ele>
        <time>2021-09-27T12:45:04.000Z</time>
      </trkpt>
      <trkpt lat="39.4808247126638889312744140625" lon="-0.3495962731540203094482421875">
        <ele>5.80000019073486328125</ele>
        <time>2021-09-27T12:45:06.000Z</time>
      </trkpt>
      <trkpt lat="39.48080417700111865997314453125" lon="-0.34953248687088489532470703125">
        <ele>5.599999904632568359375</ele>
        <time>2021-09-27T12:45:07.000Z</time>
      </trkpt>
      <trkpt lat="39.4807838089764118194580078125" lon="-0.34946828149259090423583984375">
        <ele>5.400000095367431640625</ele>
        <time>2021-09-27T12:45:08.000Z</time>
      </trkpt>
      <trkpt lat="39.48074801824986934661865234375" lon="-0.3493518568575382232666015625">
        <ele>5</ele>
        <time>2021-09-27T12:45:10.000Z</time>
      </trkpt>
      <trkpt lat="39.48071968741714954376220703125" lon="-0.34923979081213474273681640625">
        <ele>4.599999904632568359375</ele>
        <time>2021-09-27T12:45:12.000Z</time>
      </trkpt>
      <trkpt lat="39.48070040903985500335693359375" lon="-0.34918614663183689117431640625">
        <ele>4.400000095367431640625</ele>
        <time>2021-09-27T12:45:13.000Z</time>
      </trkpt>
      <trkpt lat="39.4806838966906070709228515625" lon="-0.34913116134703159332275390625">
        <ele>4.19999980926513671875</ele>
        <time>2021-09-27T12:45:14.000Z</time>
      </trkpt>
      <trkpt lat="39.48065632022917270660400390625" lon="-0.34901238977909088134765625">
        <ele>3.7999999523162841796875</ele>
        <time>2021-09-27T12:45:16.000Z</time>
      </trkpt>
      <trkpt lat="39.4806201942265033721923828125" lon="-0.34889278002083301544189453125">
        <ele>3.400000095367431640625</ele>
        <time>2021-09-27T12:45:18.000Z</time>
      </trkpt>
      <trkpt lat="39.48058675043284893035888671875" lon="-0.34877241589128971099853515625">
        <ele>3.2000000476837158203125</ele>
        <time>2021-09-27T12:45:20.000Z</time>
      </trkpt>
      <trkpt lat="39.48055406101047992706298828125" lon="-0.34866613335907459259033203125">
        <ele>3.599999904632568359375</ele>
        <time>2021-09-27T12:45:22.000Z</time>
      </trkpt>
      <trkpt lat="39.4805189408361911773681640625" lon="-0.34856337122619152069091796875">
        <ele>4</ele>
        <time>2021-09-27T12:45:24.000Z</time>
      </trkpt>
      <trkpt lat="39.48048968799412250518798828125" lon="-0.348469913005828857421875">
        <ele>4</ele>
        <time>2021-09-27T12:45:26.000Z</time>
      </trkpt>
      <trkpt lat="39.48047962971031665802001953125" lon="-0.34842900931835174560546875">
        <ele>4</ele>
        <time>2021-09-27T12:45:27.000Z</time>
      </trkpt>
      <trkpt lat="39.48046873323619365692138671875" lon="-0.34838953055441379547119140625">
        <ele>4</ele>
        <time>2021-09-27T12:45:28.000Z</time>
      </trkpt>
      <trkpt lat="39.48044928722083568572998046875" lon="-0.34831359051167964935302734375">
        <ele>4</ele>
        <time>2021-09-27T12:45:30.000Z</time>
      </trkpt>
      <trkpt lat="39.48041592724621295928955078125" lon="-0.34822558052837848663330078125">
        <ele>4</ele>
        <time>2021-09-27T12:45:32.000Z</time>
      </trkpt>
      <trkpt lat="39.4803905300796031951904296875" lon="-0.34812449477612972259521484375">
        <ele>4</ele>
        <time>2021-09-27T12:45:34.000Z</time>
      </trkpt>
      <trkpt lat="39.48036178015172481536865234375" lon="-0.34803195856511592864990234375">
        <ele>4</ele>
        <time>2021-09-27T12:45:36.000Z</time>
      </trkpt>
      <trkpt lat="39.4803316891193389892578125" lon="-0.34794126637279987335205078125">
        <ele>4</ele>
        <time>2021-09-27T12:45:38.000Z</time>
      </trkpt>
      <trkpt lat="39.4803201220929622650146484375" lon="-0.34789516590535640716552734375">
        <ele>4</ele>
        <time>2021-09-27T12:45:39.000Z</time>
      </trkpt>
      <trkpt lat="39.48030679486691951751708984375" lon="-0.3478447906672954559326171875">
        <ele>4.19999980926513671875</ele>
        <time>2021-09-27T12:45:40.000Z</time>
      </trkpt>
      <trkpt lat="39.4802751950919628143310546875" lon="-0.34773725084960460662841796875">
        <ele>4.19999980926513671875</ele>
        <time>2021-09-27T12:45:42.000Z</time>
      </trkpt>
      <trkpt lat="39.48024393059313297271728515625" lon="-0.34763599745929241180419921875">
        <ele>4.400000095367431640625</ele>
        <time>2021-09-27T12:45:44.000Z</time>
      </trkpt>
      <trkpt lat="39.4802084751427173614501953125" lon="-0.34752435050904750823974609375">
        <ele>4.400000095367431640625</ele>
        <time>2021-09-27T12:45:46.000Z</time>
      </trkpt>
      <trkpt lat="39.4801734387874603271484375" lon="-0.347410775721073150634765625">
        <ele>4.400000095367431640625</ele>
        <time>2021-09-27T12:45:48.000Z</time>
      </trkpt>
      <trkpt lat="39.48013680987060070037841796875" lon="-0.34729300998151302337646484375">
        <ele>4.400000095367431640625</ele>
        <time>2021-09-27T12:45:50.000Z</time>
      </trkpt>
      <trkpt lat="39.48011987842619419097900390625" lon="-0.3472369350492954254150390625">
        <ele>4.400000095367431640625</ele>
        <time>2021-09-27T12:45:51.000Z</time>
      </trkpt>
      <trkpt lat="39.48010160587728023529052734375" lon="-0.34717834554612636566162109375">
        <ele>4.19999980926513671875</ele>
        <time>2021-09-27T12:45:52.000Z</time>
      </trkpt>
      <trkpt lat="39.4800673238933086395263671875" lon="-0.34704423509538173675537109375">
        <ele>4.400000095367431640625</ele>
        <time>2021-09-27T12:45:54.000Z</time>
      </trkpt>
      <trkpt lat="39.48002482764422893524169921875" lon="-0.3469013236463069915771484375">
        <ele>4.80000019073486328125</ele>
        <time>2021-09-27T12:45:56.000Z</time>
      </trkpt>
      <trkpt lat="39.47996783070266246795654296875" lon="-0.346766375005245208740234375">
        <ele>5</ele>
        <time>2021-09-27T12:45:58.000Z</time>
      </trkpt>
      <trkpt lat="39.47991452179849147796630859375" lon="-0.34664542414247989654541015625">
        <ele>5</ele>
        <time>2021-09-27T12:46:00.000Z</time>
      </trkpt>
      <trkpt lat="39.47987110354006290435791015625" lon="-0.34654182381927967071533203125">
        <ele>4.599999904632568359375</ele>
        <time>2021-09-27T12:46:02.000Z</time>
      </trkpt>
      <trkpt lat="39.479857273399829864501953125" lon="-0.3464899398386478424072265625">
        <ele>4.599999904632568359375</ele>
        <time>2021-09-27T12:46:03.000Z</time>
      </trkpt>
      <trkpt lat="39.47984780184924602508544921875" lon="-0.346442162990570068359375">
        <ele>4.599999904632568359375</ele>
        <time>2021-09-27T12:46:04.000Z</time>
      </trkpt>
      <trkpt lat="39.47982315905392169952392578125" lon="-0.34634937532246112823486328125">
        <ele>4.400000095367431640625</ele>
        <time>2021-09-27T12:46:06.000Z</time>
      </trkpt>
      <trkpt lat="39.47980840690433979034423828125" lon="-0.34629539586603641510009765625">
        <ele>4.19999980926513671875</ele>
        <time>2021-09-27T12:46:07.000Z</time>
      </trkpt>
      <trkpt lat="39.4797930680215358734130859375" lon="-0.346240662038326263427734375">
        <ele>4.19999980926513671875</ele>
        <time>2021-09-27T12:46:08.000Z</time>
      </trkpt>
      <trkpt lat="39.479761384427547454833984375" lon="-0.3461305238306522369384765625">
        <ele>4.400000095367431640625</ele>
        <time>2021-09-27T12:46:10.000Z</time>
      </trkpt>
      <trkpt lat="39.47974068112671375274658203125" lon="-0.3460410051047801971435546875">
        <ele>4.599999904632568359375</ele>
        <time>2021-09-27T12:46:12.000Z</time>
      </trkpt>
      <trkpt lat="39.47972911410033702850341796875" lon="-0.34599415026605129241943359375">
        <ele>4.80000019073486328125</ele>
        <time>2021-09-27T12:46:13.000Z</time>
      </trkpt>
      <trkpt lat="39.47971679270267486572265625" lon="-0.34594100899994373321533203125">
        <ele>5.19999980926513671875</ele>
        <time>2021-09-27T12:46:14.000Z</time>
      </trkpt>
      <trkpt lat="39.47969273664057254791259765625" lon="-0.34584260545670986175537109375">
        <ele>5.80000019073486328125</ele>
        <time>2021-09-27T12:46:16.000Z</time>
      </trkpt>
      <trkpt lat="39.47967790067195892333984375" lon="-0.34574554301798343658447265625">
        <ele>6.400000095367431640625</ele>
        <time>2021-09-27T12:46:18.000Z</time>
      </trkpt>
      <trkpt lat="39.47966524399816989898681640625" lon="-0.34570296294987201690673828125">
        <ele>6.80000019073486328125</ele>
        <time>2021-09-27T12:46:19.000Z</time>
      </trkpt>
      <trkpt lat="39.479666166007518768310546875" lon="-0.34566172398626804351806640625">
        <ele>7</ele>
        <time>2021-09-27T12:46:20.000Z</time>
      </trkpt>
      <trkpt lat="39.4796421937644481658935546875" lon="-0.34561042673885822296142578125">
        <ele>7.400000095367431640625</ele>
        <time>2021-09-27T12:46:22.000Z</time>
      </trkpt>
      <trkpt lat="39.47962962090969085693359375" lon="-0.34559500403702259063720703125">
        <ele>7.400000095367431640625</ele>
        <time>2021-09-27T12:46:23.000Z</time>
      </trkpt>
      <trkpt lat="39.4796240888535976409912109375" lon="-0.345589555799961090087890625">
        <ele>7.400000095367431640625</ele>
        <time>2021-09-27T12:46:24.000Z</time>
      </trkpt>
      <trkpt lat="39.4796240888535976409912109375" lon="-0.345589555799961090087890625">
        <ele>7.400000095367431640625</ele>
        <time>2021-09-27T12:46:25.000Z</time>
      </trkpt>
      <trkpt lat="39.4796180538833141326904296875" lon="-0.34554085694253444671630859375">
        <ele>7.80000019073486328125</ele>
        <time>2021-09-27T12:47:42.000Z</time>
      </trkpt>
      <trkpt lat="39.47961009107530117034912109375" lon="-0.345480926334857940673828125">
        <ele>8.19999980926513671875</ele>
        <time>2021-09-27T12:47:44.000Z</time>
      </trkpt>
      <trkpt lat="39.47960305027663707733154296875" lon="-0.34544647671282291412353515625">
        <ele>8.19999980926513671875</ele>
        <time>2021-09-27T12:47:45.000Z</time>
      </trkpt>
      <trkpt lat="39.4795952551066875457763671875" lon="-0.34541211090981960296630859375">
        <ele>8</ele>
        <time>2021-09-27T12:47:46.000Z</time>
      </trkpt>
      <trkpt lat="39.47957220487296581268310546875" lon="-0.34533315338194370269775390625">
        <ele>7.80000019073486328125</ele>
        <time>2021-09-27T12:47:48.000Z</time>
      </trkpt>
      <trkpt lat="39.4795630685985088348388671875" lon="-0.34528520889580249786376953125">
        <ele>7.80000019073486328125</ele>
        <time>2021-09-27T12:47:49.000Z</time>
      </trkpt>
      <trkpt lat="39.47955074720084667205810546875" lon="-0.34523474983870983123779296875">
        <ele>7.80000019073486328125</ele>
        <time>2021-09-27T12:47:50.000Z</time>
      </trkpt>
      <trkpt lat="39.479538090527057647705078125" lon="-0.34518814645707607269287109375">
        <ele>7.599999904632568359375</ele>
        <time>2021-09-27T12:47:51.000Z</time>
      </trkpt>
      <trkpt lat="39.47952325455844402313232421875" lon="-0.34514355473220348358154296875">
        <ele>7.599999904632568359375</ele>
        <time>2021-09-27T12:47:52.000Z</time>
      </trkpt>
      <trkpt lat="39.4795037247240543365478515625" lon="-0.3450407087802886962890625">
        <ele>7.400000095367431640625</ele>
        <time>2021-09-27T12:47:54.000Z</time>
      </trkpt>
      <trkpt lat="39.4794822670519351959228515625" lon="-0.3449409641325473785400390625">
        <ele>7.400000095367431640625</ele>
        <time>2021-09-27T12:47:56.000Z</time>
      </trkpt>
      <trkpt lat="39.4794514216482639312744140625" lon="-0.344841890037059783935546875">
        <ele>7.19999980926513671875</ele>
        <time>2021-09-27T12:47:58.000Z</time>
      </trkpt>
      <trkpt lat="39.47942451573908329010009765625" lon="-0.3447377867996692657470703125">
        <ele>7.19999980926513671875</ele>
        <time>2021-09-27T12:48:00.000Z</time>
      </trkpt>
      <trkpt lat="39.4793950952589511871337890625" lon="-0.34464617259800434112548828125">
        <ele>7</ele>
        <time>2021-09-27T12:48:02.000Z</time>
      </trkpt>
      <trkpt lat="39.47936014272272586822509765625" lon="-0.34454357810318470001220703125">
        <ele>6.599999904632568359375</ele>
        <time>2021-09-27T12:48:04.000Z</time>
      </trkpt>
      <trkpt lat="39.47933197952806949615478515625" lon="-0.3444390557706356048583984375">
        <ele>6</ele>
        <time>2021-09-27T12:48:06.000Z</time>
      </trkpt>
      <trkpt lat="39.47930498979985713958740234375" lon="-0.3443304263055324554443359375">
        <ele>5.599999904632568359375</ele>
        <time>2021-09-27T12:48:08.000Z</time>
      </trkpt>
      <trkpt lat="39.47927649132907390594482421875" lon="-0.34422892145812511444091796875">
        <ele>5</ele>
        <time>2021-09-27T12:48:10.000Z</time>
      </trkpt>
      <trkpt lat="39.47924279607832431793212890625" lon="-0.344120375812053680419921875">
        <ele>4.599999904632568359375</ele>
        <time>2021-09-27T12:48:12.000Z</time>
      </trkpt>
      <trkpt lat="39.4792241044342517852783203125" lon="-0.34406463615596294403076171875">
        <ele>4.400000095367431640625</ele>
        <time>2021-09-27T12:48:13.000Z</time>
      </trkpt>
      <trkpt lat="39.47920717298984527587890625" lon="-0.3440107405185699462890625">
        <ele>4.80000019073486328125</ele>
        <time>2021-09-27T12:48:14.000Z</time>
      </trkpt>
      <trkpt lat="39.47917607612907886505126953125" lon="-0.3439026139676570892333984375">
        <ele>5.599999904632568359375</ele>
        <time>2021-09-27T12:48:16.000Z</time>
      </trkpt>
      <trkpt lat="39.4791496731340885162353515625" lon="-0.3437988460063934326171875">
        <ele>6.400000095367431640625</ele>
        <time>2021-09-27T12:48:18.000Z</time>
      </trkpt>
      <trkpt lat="39.47912109084427356719970703125" lon="-0.343699268996715545654296875">
        <ele>7.19999980926513671875</ele>
        <time>2021-09-27T12:48:20.000Z</time>
      </trkpt>
      <trkpt lat="39.4790886528789997100830078125" lon="-0.34360463730990886688232421875">
        <ele>8.19999980926513671875</ele>
        <time>2021-09-27T12:48:22.000Z</time>
      </trkpt>
      <trkpt lat="39.4790487550199031829833984375" lon="-0.34350774250924587249755859375">
        <ele>9</ele>
        <time>2021-09-27T12:48:24.000Z</time>
      </trkpt>
      <trkpt lat="39.479027129709720611572265625" lon="-0.343463234603404998779296875">
        <ele>9.6000003814697265625</ele>
        <time>2021-09-27T12:48:25.000Z</time>
      </trkpt>
      <trkpt lat="39.47900600731372833251953125" lon="-0.34341302700340747833251953125">
        <ele>9.6000003814697265625</ele>
        <time>2021-09-27T12:48:26.000Z</time>
      </trkpt>
      <trkpt lat="39.4789635948836803436279296875" lon="-0.343306325376033782958984375">
        <ele>9.3999996185302734375</ele>
        <time>2021-09-27T12:48:28.000Z</time>
      </trkpt>
      <trkpt lat="39.47892009280622005462646484375" lon="-0.3432022221386432647705078125">
        <ele>9.19999980926513671875</ele>
        <time>2021-09-27T12:48:30.000Z</time>
      </trkpt>
      <trkpt lat="39.47888120077550411224365234375" lon="-0.34308328293263912200927734375">
        <ele>9</ele>
        <time>2021-09-27T12:48:32.000Z</time>
      </trkpt>
      <trkpt lat="39.47883727960288524627685546875" lon="-0.342979095876216888427734375">
        <ele>8.80000019073486328125</ele>
        <time>2021-09-27T12:48:34.000Z</time>
      </trkpt>
      <trkpt lat="39.47881230153143405914306640625" lon="-0.3429309837520122528076171875">
        <ele>8.80000019073486328125</ele>
        <time>2021-09-27T12:48:35.000Z</time>
      </trkpt>
      <trkpt lat="39.47879143059253692626953125" lon="-0.34287390299141407012939453125">
        <ele>8.80000019073486328125</ele>
        <time>2021-09-27T12:48:36.000Z</time>
      </trkpt>
      <trkpt lat="39.4787590764462947845458984375" lon="-0.342757143080234527587890625">
        <ele>8.3999996185302734375</ele>
        <time>2021-09-27T12:48:38.000Z</time>
      </trkpt>
      <trkpt lat="39.47873133234679698944091796875" lon="-0.34263552166521549224853515625">
        <ele>8.19999980926513671875</ele>
        <time>2021-09-27T12:48:40.000Z</time>
      </trkpt>
      <trkpt lat="39.47871792130172252655029296875" lon="-0.342578776180744171142578125">
        <ele>8</ele>
        <time>2021-09-27T12:48:41.000Z</time>
      </trkpt>
      <trkpt lat="39.4787161611020565032958984375" lon="-0.34251716919243335723876953125">
        <ele>8</ele>
        <time>2021-09-27T12:48:42.000Z</time>
      </trkpt>
      <trkpt lat="39.47871104814112186431884765625" lon="-0.3424523770809173583984375">
        <ele>7.80000019073486328125</ele>
        <time>2021-09-27T12:48:43.000Z</time>
      </trkpt>
      <trkpt lat="39.47869730181992053985595703125" lon="-0.3423905186355113983154296875">
        <ele>7.599999904632568359375</ele>
        <time>2021-09-27T12:48:44.000Z</time>
      </trkpt>
      <trkpt lat="39.47867115028202533721923828125" lon="-0.342265628278255462646484375">
        <ele>7.400000095367431640625</ele>
        <time>2021-09-27T12:48:46.000Z</time>
      </trkpt>
      <trkpt lat="39.47863376699388027191162109375" lon="-0.34214233048260211944580078125">
        <ele>7.19999980926513671875</ele>
        <time>2021-09-27T12:48:48.000Z</time>
      </trkpt>
      <trkpt lat="39.47859965264797210693359375" lon="-0.3420180268585681915283203125">
        <ele>7</ele>
        <time>2021-09-27T12:48:50.000Z</time>
      </trkpt>
      <trkpt lat="39.478568471968173980712890625" lon="-0.3418993391096591949462890625">
        <ele>7</ele>
        <time>2021-09-27T12:48:52.000Z</time>
      </trkpt>
      <trkpt lat="39.478550367057323455810546875" lon="-0.34183907322585582733154296875">
        <ele>7</ele>
        <time>2021-09-27T12:48:53.000Z</time>
      </trkpt>
      <trkpt lat="39.47853318415582180023193359375" lon="-0.3417779691517353057861328125">
        <ele>7</ele>
        <time>2021-09-27T12:48:54.000Z</time>
      </trkpt>
      <trkpt lat="39.478499405086040496826171875" lon="-0.34166514873504638671875">
        <ele>7</ele>
        <time>2021-09-27T12:48:56.000Z</time>
      </trkpt>
      <trkpt lat="39.4784600101411342620849609375" lon="-0.34154788590967655181884765625">
        <ele>7</ele>
        <time>2021-09-27T12:48:58.000Z</time>
      </trkpt>
      <trkpt lat="39.4784419052302837371826171875" lon="-0.34149457700550556182861328125">
        <ele>7</ele>
        <time>2021-09-27T12:48:59.000Z</time>
      </trkpt>
      <trkpt lat="39.478423297405242919921875" lon="-0.3414416871964931488037109375">
        <ele>7.19999980926513671875</ele>
        <time>2021-09-27T12:49:00.000Z</time>
      </trkpt>
      <trkpt lat="39.4783835671842098236083984375" lon="-0.3413313813507556915283203125">
        <ele>7.400000095367431640625</ele>
        <time>2021-09-27T12:49:02.000Z</time>
      </trkpt>
      <trkpt lat="39.47836336679756641387939453125" lon="-0.3412774018943309783935546875">
        <ele>7.400000095367431640625</ele>
        <time>2021-09-27T12:49:03.000Z</time>
      </trkpt>
      <trkpt lat="39.47834190912544727325439453125" lon="-0.34122216515243053436279296875">
        <ele>7.599999904632568359375</ele>
        <time>2021-09-27T12:49:04.000Z</time>
      </trkpt>
      <trkpt lat="39.47831056080758571624755859375" lon="-0.34111487679183483123779296875">
        <ele>7.599999904632568359375</ele>
        <time>2021-09-27T12:49:06.000Z</time>
      </trkpt>
      <trkpt lat="39.47830184362828731536865234375" lon="-0.341011695563793182373046875">
        <ele>7.80000019073486328125</ele>
        <time>2021-09-27T12:49:08.000Z</time>
      </trkpt>
      <trkpt lat="39.4782974012196063995361328125" lon="-0.34095503389835357666015625">
        <ele>7.80000019073486328125</ele>
        <time>2021-09-27T12:49:09.000Z</time>
      </trkpt>
      <trkpt lat="39.47829178534448146820068359375" lon="-0.34089845605194568634033203125">
        <ele>7.80000019073486328125</ele>
        <time>2021-09-27T12:49:10.000Z</time>
      </trkpt>
      <trkpt lat="39.478266723453998565673828125" lon="-0.340783037245273590087890625">
        <ele>7.599999904632568359375</ele>
        <time>2021-09-27T12:49:12.000Z</time>
      </trkpt>
      <trkpt lat="39.4782501272857189178466796875" lon="-0.34067340195178985595703125">
        <ele>7.19999980926513671875</ele>
        <time>2021-09-27T12:49:14.000Z</time>
      </trkpt>
      <trkpt lat="39.47825096547603607177734375" lon="-0.34061330370604991912841796875">
        <ele>7</ele>
        <time>2021-09-27T12:49:15.000Z</time>
      </trkpt>
      <trkpt lat="39.4782476127147674560546875" lon="-0.34055278636515140533447265625">
        <ele>6.80000019073486328125</ele>
        <time>2021-09-27T12:49:16.000Z</time>
      </trkpt>
      <trkpt lat="39.478219449520111083984375" lon="-0.340436361730098724365234375">
        <ele>6.400000095367431640625</ele>
        <time>2021-09-27T12:49:18.000Z</time>
      </trkpt>
      <trkpt lat="39.47819388471543788909912109375" lon="-0.34031691960990428924560546875">
        <ele>6.19999980926513671875</ele>
        <time>2021-09-27T12:49:20.000Z</time>
      </trkpt>
      <trkpt lat="39.4781626202166080474853515625" lon="-0.34020292572677135467529296875">
        <ele>6</ele>
        <time>2021-09-27T12:49:22.000Z</time>
      </trkpt>
      <trkpt lat="39.4781344570219516754150390625" lon="-0.34009546972811222076416015625">
        <ele>5.400000095367431640625</ele>
        <time>2021-09-27T12:49:24.000Z</time>
      </trkpt>
      <trkpt lat="39.4781046174466609954833984375" lon="-0.33999186940491199493408203125">
        <ele>4.599999904632568359375</ele>
        <time>2021-09-27T12:49:26.000Z</time>
      </trkpt>
      <trkpt lat="39.4780734367668628692626953125" lon="-0.3398940525949001312255859375">
        <ele>3.7999999523162841796875</ele>
        <time>2021-09-27T12:49:28.000Z</time>
      </trkpt>
      <trkpt lat="39.4780606962740421295166015625" lon="-0.339856334030628204345703125">
        <ele>3.400000095367431640625</ele>
        <time>2021-09-27T12:49:29.000Z</time>
      </trkpt>
      <trkpt lat="39.47804669849574565887451171875" lon="-0.33981182612478733062744140625">
        <ele>3</ele>
        <time>2021-09-27T12:49:30.000Z</time>
      </trkpt>
      <trkpt lat="39.47802121751010417938232421875" lon="-0.3397083096206188201904296875">
        <ele>2.2000000476837158203125</ele>
        <time>2021-09-27T12:49:32.000Z</time>
      </trkpt>
      <trkpt lat="39.47800763882696628570556640625" lon="-0.33965256996452808380126953125">
        <ele>1.7999999523162841796875</ele>
        <time>2021-09-27T12:49:33.000Z</time>
      </trkpt>
      <trkpt lat="39.47798986919224262237548828125" lon="-0.33959515392780303955078125">
        <ele>1.60000002384185791015625</ele>
        <time>2021-09-27T12:49:34.000Z</time>
      </trkpt>
      <trkpt lat="39.47794812731444835662841796875" lon="-0.33947587944567203521728515625">
        <ele>1.60000002384185791015625</ele>
        <time>2021-09-27T12:49:36.000Z</time>
      </trkpt>
      <trkpt lat="39.47792599909007549285888671875" lon="-0.3394223190844058990478515625">
        <ele>1.60000002384185791015625</ele>
        <time>2021-09-27T12:49:37.000Z</time>
      </trkpt>
      <trkpt lat="39.47790470905601978302001953125" lon="-0.33936490304768085479736328125">
        <ele>1.60000002384185791015625</ele>
        <time>2021-09-27T12:49:38.000Z</time>
      </trkpt>
      <trkpt lat="39.4778659008443355560302734375" lon="-0.33924537710845470428466796875">
        <ele>1.60000002384185791015625</ele>
        <time>2021-09-27T12:49:40.000Z</time>
      </trkpt>
      <trkpt lat="39.477834217250347137451171875" lon="-0.3391262702643871307373046875">
        <ele>1.60000002384185791015625</ele>
        <time>2021-09-27T12:49:42.000Z</time>
      </trkpt>
      <trkpt lat="39.4777998514473438262939453125" lon="-0.3390042297542095184326171875">
        <ele>1.7999999523162841796875</ele>
        <time>2021-09-27T12:49:44.000Z</time>
      </trkpt>
      <trkpt lat="39.47776808403432369232177734375" lon="-0.3388862125575542449951171875">
        <ele>2</ele>
        <time>2021-09-27T12:49:46.000Z</time>
      </trkpt>
      <trkpt lat="39.47773120366036891937255859375" lon="-0.338774062693119049072265625">
        <ele>2.400000095367431640625</ele>
        <time>2021-09-27T12:49:48.000Z</time>
      </trkpt>
      <trkpt lat="39.47771427221596240997314453125" lon="-0.338713712990283966064453125">
        <ele>2.7999999523162841796875</ele>
        <time>2021-09-27T12:49:49.000Z</time>
      </trkpt>
      <trkpt lat="39.47769834659993648529052734375" lon="-0.33865076489746570587158203125">
        <ele>3</ele>
        <time>2021-09-27T12:49:50.000Z</time>
      </trkpt>
      <trkpt lat="39.4776633940637111663818359375" lon="-0.33852285705506801605224609375">
        <ele>3.7999999523162841796875</ele>
        <time>2021-09-27T12:49:52.000Z</time>
      </trkpt>
      <trkpt lat="39.47762659750878810882568359375" lon="-0.33839645795524120330810546875">
        <ele>4.400000095367431640625</ele>
        <time>2021-09-27T12:49:54.000Z</time>
      </trkpt>
      <trkpt lat="39.4775866158306598663330078125" lon="-0.33827550709247589111328125">
        <ele>5.19999980926513671875</ele>
        <time>2021-09-27T12:49:56.000Z</time>
      </trkpt>
      <trkpt lat="39.47754898108541965484619140625" lon="-0.33815237693488597869873046875">
        <ele>6</ele>
        <time>2021-09-27T12:49:58.000Z</time>
      </trkpt>
      <trkpt lat="39.47752919979393482208251953125" lon="-0.33809202723205089569091796875">
        <ele>6.400000095367431640625</ele>
        <time>2021-09-27T12:49:59.000Z</time>
      </trkpt>
      <trkpt lat="39.47750824503600597381591796875" lon="-0.33803184516727924346923828125">
        <ele>6.80000019073486328125</ele>
        <time>2021-09-27T12:50:00.000Z</time>
      </trkpt>
      <trkpt lat="39.477489888668060302734375" lon="-0.33797065727412700653076171875">
        <ele>7.19999980926513671875</ele>
        <time>2021-09-27T12:50:01.000Z</time>
      </trkpt>
      <trkpt lat="39.4774709455668926239013671875" lon="-0.337910391390323638916015625">
        <ele>7.19999980926513671875</ele>
        <time>2021-09-27T12:50:02.000Z</time>
      </trkpt>
      <trkpt lat="39.47743448428809642791748046875" lon="-0.33778793178498744964599609375">
        <ele>7.400000095367431640625</ele>
        <time>2021-09-27T12:50:04.000Z</time>
      </trkpt>
      <trkpt lat="39.47739877738058567047119140625" lon="-0.33766396343708038330078125">
        <ele>7.599999904632568359375</ele>
        <time>2021-09-27T12:50:06.000Z</time>
      </trkpt>
      <trkpt lat="39.47735938243567943572998046875" lon="-0.337540246546268463134765625">
        <ele>7.599999904632568359375</ele>
        <time>2021-09-27T12:50:08.000Z</time>
      </trkpt>
      <trkpt lat="39.47734060697257518768310546875" lon="-0.33748014830052852630615234375">
        <ele>7.599999904632568359375</ele>
        <time>2021-09-27T12:50:09.000Z</time>
      </trkpt>
      <trkpt lat="39.4773217476904392242431640625" lon="-0.3374190442264080047607421875">
        <ele>7.599999904632568359375</ele>
        <time>2021-09-27T12:50:10.000Z</time>
      </trkpt>
      <trkpt lat="39.477285705506801605224609375" lon="-0.33729641698300838470458984375">
        <ele>7.400000095367431640625</ele>
        <time>2021-09-27T12:50:12.000Z</time>
      </trkpt>
      <trkpt lat="39.4772516749799251556396484375" lon="-0.33717404119670391082763671875">
        <ele>7.400000095367431640625</ele>
        <time>2021-09-27T12:50:14.000Z</time>
      </trkpt>
      <trkpt lat="39.4772198237478733062744140625" lon="-0.33705384470522403717041015625">
        <ele>7.19999980926513671875</ele>
        <time>2021-09-27T12:50:16.000Z</time>
      </trkpt>
      <trkpt lat="39.4771842844784259796142578125" lon="-0.33692962490022182464599609375">
        <ele>6.80000019073486328125</ele>
        <time>2021-09-27T12:50:18.000Z</time>
      </trkpt>
      <trkpt lat="39.4771520979702472686767578125" lon="-0.33681144006550312042236328125">
        <ele>5.80000019073486328125</ele>
        <time>2021-09-27T12:50:20.000Z</time>
      </trkpt>
      <trkpt lat="39.47712435387074947357177734375" lon="-0.3367002122104167938232421875">
        <ele>5</ele>
        <time>2021-09-27T12:50:22.000Z</time>
      </trkpt>
      <trkpt lat="39.477098621428012847900390625" lon="-0.33659568987786769866943359375">
        <ele>4.19999980926513671875</ele>
        <time>2021-09-27T12:50:24.000Z</time>
      </trkpt>
      <trkpt lat="39.47708345018327236175537109375" lon="-0.33654154278337955474853515625">
        <ele>3.7999999523162841796875</ele>
        <time>2021-09-27T12:50:25.000Z</time>
      </trkpt>
      <trkpt lat="39.477071128785610198974609375" lon="-0.33649041317403316497802734375">
        <ele>3.400000095367431640625</ele>
        <time>2021-09-27T12:50:26.000Z</time>
      </trkpt>
      <trkpt lat="39.477042295038700103759765625" lon="-0.33638698048889636993408203125">
        <ele>2.599999904632568359375</ele>
        <time>2021-09-27T12:50:28.000Z</time>
      </trkpt>
      <trkpt lat="39.4770230166614055633544921875" lon="-0.33633082173764705657958984375">
        <ele>2.2000000476837158203125</ele>
        <time>2021-09-27T12:50:29.000Z</time>
      </trkpt>
      <trkpt lat="39.47700667195022106170654296875" lon="-0.33627583645284175872802734375">
        <ele>2</ele>
        <time>2021-09-27T12:50:30.000Z</time>
      </trkpt>
      <trkpt lat="39.4769723899662494659423828125" lon="-0.33616972155869007110595703125">
        <ele>2.400000095367431640625</ele>
        <time>2021-09-27T12:50:32.000Z</time>
      </trkpt>
      <trkpt lat="39.47693911381065845489501953125" lon="-0.3360665403306484222412109375">
        <ele>2.7999999523162841796875</ele>
        <time>2021-09-27T12:50:34.000Z</time>
      </trkpt>
      <trkpt lat="39.47691312991082668304443359375" lon="-0.33595531247556209564208984375">
        <ele>3</ele>
        <time>2021-09-27T12:50:36.000Z</time>
      </trkpt>
      <trkpt lat="39.476887397468090057373046875" lon="-0.33584986813366413116455078125">
        <ele>3.400000095367431640625</ele>
        <time>2021-09-27T12:50:38.000Z</time>
      </trkpt>
      <trkpt lat="39.47686954401433467864990234375" lon="-0.3357942961156368255615234375">
        <ele>3.599999904632568359375</ele>
        <time>2021-09-27T12:50:39.000Z</time>
      </trkpt>
      <trkpt lat="39.47685646824538707733154296875" lon="-0.3357339464128017425537109375">
        <ele>3.7999999523162841796875</ele>
        <time>2021-09-27T12:50:40.000Z</time>
      </trkpt>
      <trkpt lat="39.476835429668426513671875" lon="-0.3356678970158100128173828125">
        <ele>4</ele>
        <time>2021-09-27T12:50:41.000Z</time>
      </trkpt>
      <trkpt lat="39.47681221179664134979248046875" lon="-0.3356011770665645599365234375">
        <ele>4</ele>
        <time>2021-09-27T12:50:42.000Z</time>
      </trkpt>
      <trkpt lat="39.47678287513554096221923828125" lon="-0.33547125756740570068359375">
        <ele>3.7999999523162841796875</ele>
        <time>2021-09-27T12:50:44.000Z</time>
      </trkpt>
      <trkpt lat="39.4767482578754425048828125" lon="-0.33535047434270381927490234375">
        <ele>3.599999904632568359375</ele>
        <time>2021-09-27T12:50:46.000Z</time>
      </trkpt>
      <trkpt lat="39.47673191316425800323486328125" lon="-0.3352917172014713287353515625">
        <ele>3.400000095367431640625</ele>
        <time>2021-09-27T12:50:47.000Z</time>
      </trkpt>
      <trkpt lat="39.47671447880566120147705078125" lon="-0.33523480407893657684326171875">
        <ele>3.400000095367431640625</ele>
        <time>2021-09-27T12:50:48.000Z</time>
      </trkpt>
      <trkpt lat="39.47668514214456081390380859375" lon="-0.33513304777443408966064453125">
        <ele>3.2000000476837158203125</ele>
        <time>2021-09-27T12:50:50.000Z</time>
      </trkpt>
      <trkpt lat="39.47665127925574779510498046875" lon="-0.335025675594806671142578125">
        <ele>3</ele>
        <time>2021-09-27T12:50:52.000Z</time>
      </trkpt>
      <trkpt lat="39.476637281477451324462890625" lon="-0.3349732048809528350830078125">
        <ele>3</ele>
        <time>2021-09-27T12:50:53.000Z</time>
      </trkpt>
      <trkpt lat="39.4766220264136791229248046875" lon="-0.33492006361484527587890625">
        <ele>3.2000000476837158203125</ele>
        <time>2021-09-27T12:50:54.000Z</time>
      </trkpt>
      <trkpt lat="39.47658891789615154266357421875" lon="-0.33480850048363208770751953125">
        <ele>3.599999904632568359375</ele>
        <time>2021-09-27T12:50:56.000Z</time>
      </trkpt>
      <trkpt lat="39.47654717601835727691650390625" lon="-0.3346927464008331298828125">
        <ele>4</ele>
        <time>2021-09-27T12:50:58.000Z</time>
      </trkpt>
      <trkpt lat="39.4765123911201953887939453125" lon="-0.33457682467997074127197265625">
        <ele>4</ele>
        <time>2021-09-27T12:51:00.000Z</time>
      </trkpt>
      <trkpt lat="39.47647928260266780853271484375" lon="-0.3344645909965038299560546875">
        <ele>4</ele>
        <time>2021-09-27T12:51:02.000Z</time>
      </trkpt>
      <trkpt lat="39.47644491679966449737548828125" lon="-0.33435487188398838043212890625">
        <ele>4</ele>
        <time>2021-09-27T12:51:04.000Z</time>
      </trkpt>
      <trkpt lat="39.4764151610434055328369140625" lon="-0.334267280995845794677734375">
        <ele>4.19999980926513671875</ele>
        <time>2021-09-27T12:51:06.000Z</time>
      </trkpt>
      <trkpt lat="39.47638926096260547637939453125" lon="-0.3341725654900074005126953125">
        <ele>4.400000095367431640625</ele>
        <time>2021-09-27T12:51:08.000Z</time>
      </trkpt>
      <trkpt lat="39.47636025957763195037841796875" lon="-0.33408866263926029205322265625">
        <ele>4.80000019073486328125</ele>
        <time>2021-09-27T12:51:10.000Z</time>
      </trkpt>
      <trkpt lat="39.4763474352657794952392578125" lon="-0.33404742367565631866455078125">
        <ele>4.80000019073486328125</ele>
        <time>2021-09-27T12:51:11.000Z</time>
      </trkpt>
      <trkpt lat="39.4763326831161975860595703125" lon="-0.3340032510459423065185546875">
        <ele>5</ele>
        <time>2021-09-27T12:51:12.000Z</time>
      </trkpt>
      <trkpt lat="39.47629085741937160491943359375" lon="-0.33392052166163921356201171875">
        <ele>5.19999980926513671875</ele>
        <time>2021-09-27T12:51:14.000Z</time>
      </trkpt>
      <trkpt lat="39.47622681967914104461669921875" lon="-0.3338644467294216156005859375">
        <ele>5.599999904632568359375</ele>
        <time>2021-09-27T12:51:16.000Z</time>
      </trkpt>
      <trkpt lat="39.4761539809405803680419921875" lon="-0.33380091190338134765625">
        <ele>6</ele>
        <time>2021-09-27T12:51:18.000Z</time>
      </trkpt>
      <trkpt lat="39.4760911166667938232421875" lon="-0.3337204456329345703125">
        <ele>5.400000095367431640625</ele>
        <time>2021-09-27T12:51:20.000Z</time>
      </trkpt>
      <trkpt lat="39.4760627858340740203857421875" lon="-0.33368163742125034332275390625">
        <ele>5.19999980926513671875</ele>
        <time>2021-09-27T12:51:21.000Z</time>
      </trkpt>
      <trkpt lat="39.4760369695723056793212890625" lon="-0.33364735543727874755859375">
        <ele>5</ele>
        <time>2021-09-27T12:51:22.000Z</time>
      </trkpt>
      <trkpt lat="39.4760054536163806915283203125" lon="-0.33360720612108707427978515625">
        <ele>4.599999904632568359375</ele>
        <time>2021-09-27T12:51:24.000Z</time>
      </trkpt>
      <trkpt lat="39.4760021008551120758056640625" lon="-0.33359882421791553497314453125">
        <ele>4.599999904632568359375</ele>
        <time>2021-09-27T12:51:25.000Z</time>
      </trkpt>
      <trkpt lat="39.4760021008551120758056640625" lon="-0.33359882421791553497314453125">
        <ele>4.599999904632568359375</ele>
        <time>2021-09-27T12:51:26.000Z</time>
      </trkpt>
      <trkpt lat="39.47599112056195735931396484375" lon="-0.3335677273571491241455078125">
        <ele>4.400000095367431640625</ele>
        <time>2021-09-27T12:52:26.000Z</time>
      </trkpt>
      <trkpt lat="39.4759866781532764434814453125" lon="-0.3335020132362842559814453125">
        <ele>4</ele>
        <time>2021-09-27T12:52:28.000Z</time>
      </trkpt>
      <trkpt lat="39.4759799726307392120361328125" lon="-0.33341802656650543212890625">
        <ele>3.400000095367431640625</ele>
        <time>2021-09-27T12:52:30.000Z</time>
      </trkpt>
      <trkpt lat="39.47597117163240909576416015625" lon="-0.3333682380616664886474609375">
        <ele>3.2000000476837158203125</ele>
        <time>2021-09-27T12:52:31.000Z</time>
      </trkpt>
      <trkpt lat="39.47596882469952106475830078125" lon="-0.3333102352917194366455078125">
        <ele>2.7999999523162841796875</ele>
        <time>2021-09-27T12:52:32.000Z</time>
      </trkpt>
      <trkpt lat="39.47598072700202465057373046875" lon="-0.3332103230059146881103515625">
        <ele>2.2000000476837158203125</ele>
        <time>2021-09-27T12:52:34.000Z</time>
      </trkpt>
      <trkpt lat="39.47599388659000396728515625" lon="-0.3331653960049152374267578125">
        <ele>2</ele>
        <time>2021-09-27T12:52:35.000Z</time>
      </trkpt>
      <trkpt lat="39.476011656224727630615234375" lon="-0.3331164456903934478759765625">
        <ele>1.7999999523162841796875</ele>
        <time>2021-09-27T12:52:36.000Z</time>
      </trkpt>
      <trkpt lat="39.47603655047714710235595703125" lon="-0.33302600495517253875732421875">
        <ele>1.7999999523162841796875</ele>
        <time>2021-09-27T12:52:38.000Z</time>
      </trkpt>
      <trkpt lat="39.4760374724864959716796875" lon="-0.332970432937145233154296875">
        <ele>2</ele>
        <time>2021-09-27T12:52:39.000Z</time>
      </trkpt>
      <trkpt lat="39.47603537701070308685302734375" lon="-0.332914106547832489013671875">
        <ele>2</ele>
        <time>2021-09-27T12:52:40.000Z</time>
      </trkpt>
      <trkpt lat="39.47602850385010242462158203125" lon="-0.33285853452980518341064453125">
        <ele>2</ele>
        <time>2021-09-27T12:52:41.000Z</time>
      </trkpt>
      <trkpt lat="39.476017020642757415771484375" lon="-0.332802124321460723876953125">
        <ele>2</ele>
        <time>2021-09-27T12:52:42.000Z</time>
      </trkpt>
      <trkpt lat="39.47599162347614765167236328125" lon="-0.33268787898123264312744140625">
        <ele>2.2000000476837158203125</ele>
        <time>2021-09-27T12:52:44.000Z</time>
      </trkpt>
      <trkpt lat="39.47596111334860324859619140625" lon="-0.332562737166881561279296875">
        <ele>2.400000095367431640625</ele>
        <time>2021-09-27T12:52:46.000Z</time>
      </trkpt>
      <trkpt lat="39.4759328663349151611328125" lon="-0.3324328176677227020263671875">
        <ele>2.599999904632568359375</ele>
        <time>2021-09-27T12:52:48.000Z</time>
      </trkpt>
      <trkpt lat="39.47590244002640247344970703125" lon="-0.332311950623989105224609375">
        <ele>2.400000095367431640625</ele>
        <time>2021-09-27T12:52:50.000Z</time>
      </trkpt>
      <trkpt lat="39.47588768787682056427001953125" lon="-0.33225604332983493804931640625">
        <ele>2.2000000476837158203125</ele>
        <time>2021-09-27T12:52:51.000Z</time>
      </trkpt>
      <trkpt lat="39.47587427683174610137939453125" lon="-0.3322011418640613555908203125">
        <ele>2</ele>
        <time>2021-09-27T12:52:52.000Z</time>
      </trkpt>
      <trkpt lat="39.4758448563516139984130859375" lon="-0.33210047520697116851806640625">
        <ele>1.7999999523162841796875</ele>
        <time>2021-09-27T12:52:54.000Z</time>
      </trkpt>
      <trkpt lat="39.47581392712891101837158203125" lon="-0.331993438303470611572265625">
        <ele>2</ele>
        <time>2021-09-27T12:52:56.000Z</time>
      </trkpt>
      <trkpt lat="39.4757826626300811767578125" lon="-0.3318883292376995086669921875">
        <ele>2.2000000476837158203125</ele>
        <time>2021-09-27T12:52:58.000Z</time>
      </trkpt>
      <trkpt lat="39.47576648555696010589599609375" lon="-0.33183678053319454193115234375">
        <ele>2.400000095367431640625</ele>
        <time>2021-09-27T12:52:59.000Z</time>
      </trkpt>
      <trkpt lat="39.47575139813125133514404296875" lon="-0.33178481273353099822998046875">
        <ele>2.400000095367431640625</ele>
        <time>2021-09-27T12:53:00.000Z</time>
      </trkpt>
      <trkpt lat="39.47572457604110240936279296875" lon="-0.33168305642902851104736328125">
        <ele>2.400000095367431640625</ele>
        <time>2021-09-27T12:53:02.000Z</time>
      </trkpt>
      <trkpt lat="39.47569549083709716796875" lon="-0.331597141921520233154296875">
        <ele>2.2000000476837158203125</ele>
        <time>2021-09-27T12:53:04.000Z</time>
      </trkpt>
      <trkpt lat="39.47568367235362529754638671875" lon="-0.33156185410916805267333984375">
        <ele>2</ele>
        <time>2021-09-27T12:53:05.000Z</time>
      </trkpt>
      <trkpt lat="39.47567596100270748138427734375" lon="-0.33153318800032138824462890625">
        <ele>2</ele>
        <time>2021-09-27T12:53:06.000Z</time>
      </trkpt>
      <trkpt lat="39.47566640563309192657470703125" lon="-0.3315111435949802398681640625">
        <ele>1.7999999523162841796875</ele>
        <time>2021-09-27T12:53:07.000Z</time>
      </trkpt>
      <trkpt lat="39.4756584428250789642333984375" lon="-0.33149211667478084564208984375">
        <ele>1.7999999523162841796875</ele>
        <time>2021-09-27T12:53:08.000Z</time>
      </trkpt>
      <trkpt lat="39.47564930655062198638916015625" lon="-0.3314688988029956817626953125">
        <ele>1.7999999523162841796875</ele>
        <time>2021-09-27T12:53:10.000Z</time>
      </trkpt>
      <trkpt lat="39.47564930655062198638916015625" lon="-0.3314688988029956817626953125">
        <ele>1.7999999523162841796875</ele>
        <time>2021-09-27T12:53:11.000Z</time>
      </trkpt>
      <trkpt lat="39.47564276866614818572998046875" lon="-0.33140762709081172943115234375">
        <ele>1.60000002384185791015625</ele>
        <time>2021-09-27T12:53:17.000Z</time>
      </trkpt>
      <trkpt lat="39.47563706897199153900146484375" lon="-0.3313829004764556884765625">
        <ele>1.60000002384185791015625</ele>
        <time>2021-09-27T12:53:18.000Z</time>
      </trkpt>
      <trkpt lat="39.47561980225145816802978515625" lon="-0.3313153423368930816650390625">
        <ele>1.39999997615814208984375</ele>
        <time>2021-09-27T12:53:20.000Z</time>
      </trkpt>
      <trkpt lat="39.4755994342267513275146484375" lon="-0.3312395699322223663330078125">
        <ele>1.2000000476837158203125</ele>
        <time>2021-09-27T12:53:22.000Z</time>
      </trkpt>
      <trkpt lat="39.47557621635496616363525390625" lon="-0.3311611153185367584228515625">
        <ele>1.2000000476837158203125</ele>
        <time>2021-09-27T12:53:24.000Z</time>
      </trkpt>
      <trkpt lat="39.47556900791823863983154296875" lon="-0.331127755343914031982421875">
        <ele>1</ele>
        <time>2021-09-27T12:53:25.000Z</time>
      </trkpt>
      <trkpt lat="39.4755608774721622467041015625" lon="-0.3310950659215450286865234375">
        <ele>1</ele>
        <time>2021-09-27T12:53:26.000Z</time>
      </trkpt>
      <trkpt lat="39.47554972954094409942626953125" lon="-0.33105793409049510955810546875">
        <ele>1</ele>
        <time>2021-09-27T12:53:27.000Z</time>
      </trkpt>
      <trkpt lat="39.47553799487650394439697265625" lon="-0.33101267181336879730224609375">
        <ele>1</ele>
        <time>2021-09-27T12:53:28.000Z</time>
      </trkpt>
      <trkpt lat="39.4755283556878566741943359375" lon="-0.3309646435081958770751953125">
        <ele>1.2000000476837158203125</ele>
        <time>2021-09-27T12:53:29.000Z</time>
      </trkpt>
      <trkpt lat="39.47552005760371685028076171875" lon="-0.33092030324041843414306640625">
        <ele>1.2000000476837158203125</ele>
        <time>2021-09-27T12:53:30.000Z</time>
      </trkpt>
      <trkpt lat="39.47550111450254917144775390625" lon="-0.33082994632422924041748046875">
        <ele>1.39999997615814208984375</ele>
        <time>2021-09-27T12:53:32.000Z</time>
      </trkpt>
      <trkpt lat="39.47547630406916141510009765625" lon="-0.33072835765779018402099609375">
        <ele>1.60000002384185791015625</ele>
        <time>2021-09-27T12:53:34.000Z</time>
      </trkpt>
      <trkpt lat="39.47544411756098270416259765625" lon="-0.33061872236430644989013671875">
        <ele>1.60000002384185791015625</ele>
        <time>2021-09-27T12:53:36.000Z</time>
      </trkpt>
      <trkpt lat="39.47541578672826290130615234375" lon="-0.3305210731923580169677734375">
        <ele>1.7999999523162841796875</ele>
        <time>2021-09-27T12:53:38.000Z</time>
      </trkpt>
      <trkpt lat="39.47538879700005054473876953125" lon="-0.33042308874428272247314453125">
        <ele>2</ele>
        <time>2021-09-27T12:53:40.000Z</time>
      </trkpt>
      <trkpt lat="39.475367255508899688720703125" lon="-0.3303349949419498443603515625">
        <ele>2.599999904632568359375</ele>
        <time>2021-09-27T12:53:42.000Z</time>
      </trkpt>
      <trkpt lat="39.47536666877567768096923828125" lon="-0.33025838434696197509765625">
        <ele>2.7999999523162841796875</ele>
        <time>2021-09-27T12:53:44.000Z</time>
      </trkpt>
      <trkpt lat="39.47535795159637928009033203125" lon="-0.33017632551491260528564453125">
        <ele>3.400000095367431640625</ele>
        <time>2021-09-27T12:53:46.000Z</time>
      </trkpt>
      <trkpt lat="39.47534655220806598663330078125" lon="-0.3300959430634975433349609375">
        <ele>3.7999999523162841796875</ele>
        <time>2021-09-27T12:53:48.000Z</time>
      </trkpt>
      <trkpt lat="39.475333727896213531494140625" lon="-0.32999494113028049468994140625">
        <ele>4.19999980926513671875</ele>
        <time>2021-09-27T12:53:50.000Z</time>
      </trkpt>
      <trkpt lat="39.47531419806182384490966796875" lon="-0.3298984654247760772705078125">
        <ele>4.80000019073486328125</ele>
        <time>2021-09-27T12:53:52.000Z</time>
      </trkpt>
      <trkpt lat="39.47529659606516361236572265625" lon="-0.3298032470047473907470703125">
        <ele>5.400000095367431640625</ele>
        <time>2021-09-27T12:53:54.000Z</time>
      </trkpt>
      <trkpt lat="39.4752842746675014495849609375" lon="-0.329713560640811920166015625">
        <ele>6</ele>
        <time>2021-09-27T12:53:56.000Z</time>
      </trkpt>
      <trkpt lat="39.4752732105553150177001953125" lon="-0.3296091221272945404052734375">
        <ele>6</ele>
        <time>2021-09-27T12:53:58.000Z</time>
      </trkpt>
      <trkpt lat="39.4752608053386211395263671875" lon="-0.32948733307421207427978515625">
        <ele>6</ele>
        <time>2021-09-27T12:54:00.000Z</time>
      </trkpt>
      <trkpt lat="39.4752396829426288604736328125" lon="-0.32938037998974323272705078125">
        <ele>6</ele>
        <time>2021-09-27T12:54:02.000Z</time>
      </trkpt>
      <trkpt lat="39.47522216476500034332275390625" lon="-0.32932874746620655059814453125">
        <ele>6</ele>
        <time>2021-09-27T12:54:03.000Z</time>
      </trkpt>
      <trkpt lat="39.4752058200538158416748046875" lon="-0.3292788751423358917236328125">
        <ele>6</ele>
        <time>2021-09-27T12:54:04.000Z</time>
      </trkpt>
      <trkpt lat="39.47516751475632190704345703125" lon="-0.329174101352691650390625">
        <ele>6</ele>
        <time>2021-09-27T12:54:06.000Z</time>
      </trkpt>
      <trkpt lat="39.47514622472226619720458984375" lon="-0.329121463000774383544921875">
        <ele>6</ele>
        <time>2021-09-27T12:54:07.000Z</time>
      </trkpt>
      <trkpt lat="39.47513214312493801116943359375" lon="-0.32906589098274707794189453125">
        <ele>6</ele>
        <time>2021-09-27T12:54:08.000Z</time>
      </trkpt>
      <trkpt lat="39.475119821727275848388671875" lon="-0.3290066309273242950439453125">
        <ele>6</ele>
        <time>2021-09-27T12:54:09.000Z</time>
      </trkpt>
      <trkpt lat="39.4750986993312835693359375" lon="-0.32895558513700962066650390625">
        <ele>6</ele>
        <time>2021-09-27T12:54:10.000Z</time>
      </trkpt>
      <trkpt lat="39.4750391878187656402587890625" lon="-0.32886858098208904266357421875">
        <ele>5.80000019073486328125</ele>
        <time>2021-09-27T12:54:12.000Z</time>
      </trkpt>
      <trkpt lat="39.4749858789145946502685546875" lon="-0.32878744415938854217529296875">
        <ele>5.599999904632568359375</ele>
        <time>2021-09-27T12:54:14.000Z</time>
      </trkpt>
      <trkpt lat="39.47494388557970523834228515625" lon="-0.32874536700546741485595703125">
        <ele>5.400000095367431640625</ele>
        <time>2021-09-27T12:54:15.000Z</time>
      </trkpt>
      <trkpt lat="39.47490532882511615753173828125" lon="-0.32870379276573657989501953125">
        <ele>5.19999980926513671875</ele>
        <time>2021-09-27T12:54:16.000Z</time>
      </trkpt>
      <trkpt lat="39.474852941930294036865234375" lon="-0.32861796207726001739501953125">
        <ele>4.80000019073486328125</ele>
        <time>2021-09-27T12:54:18.000Z</time>
      </trkpt>
      <trkpt lat="39.47483441792428493499755859375" lon="-0.3285751305520534515380859375">
        <ele>4.599999904632568359375</ele>
        <time>2021-09-27T12:54:19.000Z</time>
      </trkpt>
      <trkpt lat="39.4748192466795444488525390625" lon="-0.32853028737008571624755859375">
        <ele>4.400000095367431640625</ele>
        <time>2021-09-27T12:54:20.000Z</time>
      </trkpt>
      <trkpt lat="39.4747863896191120147705078125" lon="-0.32843791879713535308837890625">
        <ele>4.400000095367431640625</ele>
        <time>2021-09-27T12:54:22.000Z</time>
      </trkpt>
      <trkpt lat="39.47475428692996501922607421875" lon="-0.328338928520679473876953125">
        <ele>4.400000095367431640625</ele>
        <time>2021-09-27T12:54:24.000Z</time>
      </trkpt>
      <trkpt lat="39.47470282204449176788330078125" lon="-0.32825837843120098114013671875">
        <ele>4.599999904632568359375</ele>
        <time>2021-09-27T12:54:26.000Z</time>
      </trkpt>
      <trkpt lat="39.47467289865016937255859375" lon="-0.3282247669994831085205078125">
        <ele>4.599999904632568359375</ele>
        <time>2021-09-27T12:54:27.000Z</time>
      </trkpt>
      <trkpt lat="39.47464347817003726959228515625" lon="-0.328191407024860382080078125">
        <ele>4.599999904632568359375</ele>
        <time>2021-09-27T12:54:28.000Z</time>
      </trkpt>
      <trkpt lat="39.4745972938835620880126953125" lon="-0.32811705954372882843017578125">
        <ele>4.80000019073486328125</ele>
        <time>2021-09-27T12:54:30.000Z</time>
      </trkpt>
      <trkpt lat="39.47457944042980670928955078125" lon="-0.32803592272102832794189453125">
        <ele>4.80000019073486328125</ele>
        <time>2021-09-27T12:54:32.000Z</time>
      </trkpt>
      <trkpt lat="39.4745671190321445465087890625" lon="-0.32795495353639125823974609375">
        <ele>4.80000019073486328125</ele>
        <time>2021-09-27T12:54:34.000Z</time>
      </trkpt>
      <trkpt lat="39.47454004548490047454833984375" lon="-0.327889658510684967041015625">
        <ele>4.80000019073486328125</ele>
        <time>2021-09-27T12:54:36.000Z</time>
      </trkpt>
      <trkpt lat="39.47452344931662082672119140625" lon="-0.32787532545626163482666015625">
        <ele>4.80000019073486328125</ele>
        <time>2021-09-27T12:54:37.000Z</time>
      </trkpt>
      <trkpt lat="39.4745044223964214324951171875" lon="-0.32786929048597812652587890625">
        <ele>4.80000019073486328125</ele>
        <time>2021-09-27T12:54:38.000Z</time>
      </trkpt>
      <trkpt lat="39.474475085735321044921875" lon="-0.32785403542220592498779296875">
        <ele>4.80000019073486328125</ele>
        <time>2021-09-27T12:54:40.000Z</time>
      </trkpt>
      <trkpt lat="39.4744765944778919219970703125" lon="-0.32785152085125446319580078125">
        <ele>4.80000019073486328125</ele>
        <time>2021-09-27T12:54:41.000Z</time>
      </trkpt>
      <trkpt lat="39.47445991449058055877685546875" lon="-0.32782017253339290618896484375">
        <ele>4.80000019073486328125</ele>
        <time>2021-09-27T12:54:53.000Z</time>
      </trkpt>
      <trkpt lat="39.4744457490742206573486328125" lon="-0.3277939371764659881591796875">
        <ele>4.80000019073486328125</ele>
        <time>2021-09-27T12:54:54.000Z</time>
      </trkpt>
      <trkpt lat="39.47440844960510730743408203125" lon="-0.32774448394775390625">
        <ele>4.599999904632568359375</ele>
        <time>2021-09-27T12:54:56.000Z</time>
      </trkpt>
      <trkpt lat="39.474384225904941558837890625" lon="-0.32768455334007740020751953125">
        <ele>4.599999904632568359375</ele>
        <time>2021-09-27T12:54:58.000Z</time>
      </trkpt>
      <trkpt lat="39.47437877766788005828857421875" lon="-0.3276465833187103271484375">
        <ele>4.400000095367431640625</ele>
        <time>2021-09-27T12:54:59.000Z</time>
      </trkpt>
      <trkpt lat="39.4743703119456768035888671875" lon="-0.32760509289801120758056640625">
        <ele>4.400000095367431640625</ele>
        <time>2021-09-27T12:55:00.000Z</time>
      </trkpt>
      <trkpt lat="39.4743585772812366485595703125" lon="-0.3275290690362453460693359375">
        <ele>4.400000095367431640625</ele>
        <time>2021-09-27T12:55:02.000Z</time>
      </trkpt>
      <trkpt lat="39.47433602996170520782470703125" lon="-0.327447764575481414794921875">
        <ele>4.19999980926513671875</ele>
        <time>2021-09-27T12:55:04.000Z</time>
      </trkpt>
      <trkpt lat="39.47432680986821651458740234375" lon="-0.3273944556713104248046875">
        <ele>4.19999980926513671875</ele>
        <time>2021-09-27T12:55:06.000Z</time>
      </trkpt>
      <trkpt lat="39.47432018816471099853515625" lon="-0.32738146372139453887939453125">
        <ele>4</ele>
        <time>2021-09-27T12:55:08.000Z</time>
      </trkpt>
      <trkpt lat="39.4743203558027744293212890625" lon="-0.32732228748500347137451171875">
        <ele>4</ele>
        <time>2021-09-27T12:55:17.000Z</time>
      </trkpt>
      <trkpt lat="39.47431742213666439056396484375" lon="-0.3272737562656402587890625">
        <ele>4</ele>
        <time>2021-09-27T12:55:18.000Z</time>
      </trkpt>
      <trkpt lat="39.47431406937539577484130859375" lon="-0.32716420479118824005126953125">
        <ele>3.7999999523162841796875</ele>
        <time>2021-09-27T12:55:20.000Z</time>
      </trkpt>
      <trkpt lat="39.474315829575061798095703125" lon="-0.32705239020287990570068359375">
        <ele>3.599999904632568359375</ele>
        <time>2021-09-27T12:55:22.000Z</time>
      </trkpt>
      <trkpt lat="39.47431289590895175933837890625" lon="-0.326995812356472015380859375">
        <ele>3.599999904632568359375</ele>
        <time>2021-09-27T12:55:23.000Z</time>
      </trkpt>
      <trkpt lat="39.474311135709285736083984375" lon="-0.3269443474709987640380859375">
        <ele>3.599999904632568359375</ele>
        <time>2021-09-27T12:55:24.000Z</time>
      </trkpt>
      <trkpt lat="39.47430954314768314361572265625" lon="-0.326845943927764892578125">
        <ele>3.400000095367431640625</ele>
        <time>2021-09-27T12:55:26.000Z</time>
      </trkpt>
      <trkpt lat="39.4743123091757297515869140625" lon="-0.3267522342503070831298828125">
        <ele>3.400000095367431640625</ele>
        <time>2021-09-27T12:55:28.000Z</time>
      </trkpt>
      <trkpt lat="39.4743200205266475677490234375" lon="-0.32664502970874309539794921875">
        <ele>3.2000000476837158203125</ele>
        <time>2021-09-27T12:55:30.000Z</time>
      </trkpt>
      <trkpt lat="39.47432898916304111480712890625" lon="-0.326539836823940277099609375">
        <ele>3</ele>
        <time>2021-09-27T12:55:32.000Z</time>
      </trkpt>
      <trkpt lat="39.47435916401445865631103515625" lon="-0.32644093036651611328125">
        <ele>3</ele>
        <time>2021-09-27T12:55:34.000Z</time>
      </trkpt>
      <trkpt lat="39.47437609545886516571044921875" lon="-0.32639005221426486968994140625">
        <ele>3</ele>
        <time>2021-09-27T12:55:35.000Z</time>
      </trkpt>
      <trkpt lat="39.474389255046844482421875" lon="-0.3263364918529987335205078125">
        <ele>3</ele>
        <time>2021-09-27T12:55:36.000Z</time>
      </trkpt>
      <trkpt lat="39.474396295845508575439453125" lon="-0.32622559927403926849365234375">
        <ele>3</ele>
        <time>2021-09-27T12:55:38.000Z</time>
      </trkpt>
      <trkpt lat="39.47438850067555904388427734375" lon="-0.32611981965601444244384765625">
        <ele>3</ele>
        <time>2021-09-27T12:55:40.000Z</time>
      </trkpt>
      <trkpt lat="39.47438322007656097412109375" lon="-0.3260131180286407470703125">
        <ele>3.2000000476837158203125</ele>
        <time>2021-09-27T12:55:42.000Z</time>
      </trkpt>
      <trkpt lat="39.4743753410875797271728515625" lon="-0.3258992917835712432861328125">
        <ele>3.400000095367431640625</ele>
        <time>2021-09-27T12:55:44.000Z</time>
      </trkpt>
      <trkpt lat="39.4743672944605350494384765625" lon="-0.3257883153855800628662109375">
        <ele>3.400000095367431640625</ele>
        <time>2021-09-27T12:55:46.000Z</time>
      </trkpt>
      <trkpt lat="39.47436218149960041046142578125" lon="-0.32573458738625049591064453125">
        <ele>3.599999904632568359375</ele>
        <time>2021-09-27T12:55:47.000Z</time>
      </trkpt>
      <trkpt lat="39.47435379959642887115478515625" lon="-0.32568932510912418365478515625">
        <ele>3.599999904632568359375</ele>
        <time>2021-09-27T12:55:48.000Z</time>
      </trkpt>
      <trkpt lat="39.4743434898555278778076171875" lon="-0.32564096152782440185546875">
        <ele>3.599999904632568359375</ele>
        <time>2021-09-27T12:55:50.000Z</time>
      </trkpt>
      <trkpt lat="39.4743401370942592620849609375" lon="-0.325629226863384246826171875">
        <ele>3.599999904632568359375</ele>
        <time>2021-09-27T12:55:51.000Z</time>
      </trkpt>
      <trkpt lat="39.4743396341800689697265625" lon="-0.3256220184266567230224609375">
        <ele>3.599999904632568359375</ele>
        <time>2021-09-27T12:55:52.000Z</time>
      </trkpt>
      <trkpt lat="39.47428624145686626434326171875" lon="-0.3255435638129711151123046875">
        <ele>4</ele>
        <time>2021-09-27T12:56:46.000Z</time>
      </trkpt>
      <trkpt lat="39.47423041798174381256103515625" lon="-0.3255204297602176666259765625">
        <ele>4.19999980926513671875</ele>
        <time>2021-09-27T12:56:48.000Z</time>
      </trkpt>
      <trkpt lat="39.474186412990093231201171875" lon="-0.32551699317991733551025390625">
        <ele>4.19999980926513671875</ele>
        <time>2021-09-27T12:56:49.000Z</time>
      </trkpt>
      <trkpt lat="39.47413570247590541839599609375" lon="-0.325522609055042266845703125">
        <ele>4.19999980926513671875</ele>
        <time>2021-09-27T12:56:50.000Z</time>
      </trkpt>
      <trkpt lat="39.47402958758175373077392578125" lon="-0.32551649026572704315185546875">
        <ele>4.400000095367431640625</ele>
        <time>2021-09-27T12:56:52.000Z</time>
      </trkpt>
      <trkpt lat="39.4739829003810882568359375" lon="-0.3255107067525386810302734375">
        <ele>4.400000095367431640625</ele>
        <time>2021-09-27T12:56:53.000Z</time>
      </trkpt>
      <trkpt lat="39.47393621318042278289794921875" lon="-0.325505174696445465087890625">
        <ele>4.599999904632568359375</ele>
        <time>2021-09-27T12:56:54.000Z</time>
      </trkpt>
      <trkpt lat="39.473888017237186431884765625" lon="-0.3255093656480312347412109375">
        <ele>4.599999904632568359375</ele>
        <time>2021-09-27T12:56:55.000Z</time>
      </trkpt>
      <trkpt lat="39.47384367696940898895263671875" lon="-0.32551531679928302764892578125">
        <ele>4.599999904632568359375</ele>
        <time>2021-09-27T12:56:56.000Z</time>
      </trkpt>
      <trkpt lat="39.47380386292934417724609375" lon="-0.3255147300660610198974609375">
        <ele>4.599999904632568359375</ele>
        <time>2021-09-27T12:56:57.000Z</time>
      </trkpt>
      <trkpt lat="39.473764635622501373291015625" lon="-0.32551079057157039642333984375">
        <ele>4.80000019073486328125</ele>
        <time>2021-09-27T12:56:58.000Z</time>
      </trkpt>
      <trkpt lat="39.47368710301816463470458984375" lon="-0.32552830874919891357421875">
        <ele>4.80000019073486328125</ele>
        <time>2021-09-27T12:57:00.000Z</time>
      </trkpt>
      <trkpt lat="39.47365022264420986175537109375" lon="-0.325537025928497314453125">
        <ele>4.80000019073486328125</ele>
        <time>2021-09-27T12:57:01.000Z</time>
      </trkpt>
      <trkpt lat="39.4736196286976337432861328125" lon="-0.32553476281464099884033203125">
        <ele>4.80000019073486328125</ele>
        <time>2021-09-27T12:57:02.000Z</time>
      </trkpt>
      <trkpt lat="39.473575539886951446533203125" lon="-0.32548296265304088592529296875">
        <ele>4.80000019073486328125</ele>
        <time>2021-09-27T12:57:04.000Z</time>
      </trkpt>
      <trkpt lat="39.47356070391833782196044921875" lon="-0.325438790023326873779296875">
        <ele>4.80000019073486328125</ele>
        <time>2021-09-27T12:57:05.000Z</time>
      </trkpt>
      <trkpt lat="39.473555088043212890625" lon="-0.32538824714720249176025390625">
        <ele>4.80000019073486328125</ele>
        <time>2021-09-27T12:57:06.000Z</time>
      </trkpt>
      <trkpt lat="39.47355835698544979095458984375" lon="-0.32528364099562168121337890625">
        <ele>4.80000019073486328125</ele>
        <time>2021-09-27T12:57:08.000Z</time>
      </trkpt>
      <trkpt lat="39.4735616259276866912841796875" lon="-0.32523536123335361480712890625">
        <ele>4.80000019073486328125</ele>
        <time>2021-09-27T12:57:09.000Z</time>
      </trkpt>
      <trkpt lat="39.47356305085122585296630859375" lon="-0.325188338756561279296875">
        <ele>4.80000019073486328125</ele>
        <time>2021-09-27T12:57:10.000Z</time>
      </trkpt>
      <trkpt lat="39.4735646434128284454345703125" lon="-0.325105190277099609375">
        <ele>4.80000019073486328125</ele>
        <time>2021-09-27T12:57:12.000Z</time>
      </trkpt>
      <trkpt lat="39.47355550713837146759033203125" lon="-0.32502631656825542449951171875">
        <ele>4.80000019073486328125</ele>
        <time>2021-09-27T12:57:14.000Z</time>
      </trkpt>
      <trkpt lat="39.47354829870164394378662109375" lon="-0.32495557330548763275146484375">
        <ele>4.80000019073486328125</ele>
        <time>2021-09-27T12:57:16.000Z</time>
      </trkpt>
      <trkpt lat="39.47354628704488277435302734375" lon="-0.32489438541233539581298828125">
        <ele>4.80000019073486328125</ele>
        <time>2021-09-27T12:57:18.000Z</time>
      </trkpt>
      <trkpt lat="39.47354209609329700469970703125" lon="-0.32484845258295536041259765625">
        <ele>4.80000019073486328125</ele>
        <time>2021-09-27T12:57:20.000Z</time>
      </trkpt>
      <trkpt lat="39.47353706695139408111572265625" lon="-0.3248076327145099639892578125">
        <ele>4.599999904632568359375</ele>
        <time>2021-09-27T12:57:22.000Z</time>
      </trkpt>
      <trkpt lat="39.47353354655206203460693359375" lon="-0.324797071516513824462890625">
        <ele>4.599999904632568359375</ele>
        <time>2021-09-27T12:57:24.000Z</time>
      </trkpt>
      <trkpt lat="39.47353555820882320404052734375" lon="-0.32478156499564647674560546875">
        <ele>4.599999904632568359375</ele>
        <time>2021-09-27T12:57:25.000Z</time>
      </trkpt>
      <trkpt lat="39.4735421799123287200927734375" lon="-0.324759185314178466796875">
        <ele>4.80000019073486328125</ele>
        <time>2021-09-27T12:57:26.000Z</time>
      </trkpt>
      <trkpt lat="39.47356238029897212982177734375" lon="-0.32470646314322948455810546875">
        <ele>4.80000019073486328125</ele>
        <time>2021-09-27T12:57:28.000Z</time>
      </trkpt>
      <trkpt lat="39.47357562370598316192626953125" lon="-0.3246639668941497802734375">
        <ele>5</ele>
        <time>2021-09-27T12:57:30.000Z</time>
      </trkpt>
      <trkpt lat="39.4735783897340297698974609375" lon="-0.32465047203004360198974609375">
        <ele>5</ele>
        <time>2021-09-27T12:57:31.000Z</time>
      </trkpt>
      <trkpt lat="39.47358283214271068572998046875" lon="-0.32463337294757366180419921875">
        <ele>5</ele>
        <time>2021-09-27T12:57:32.000Z</time>
      </trkpt>
      <trkpt lat="39.4735897891223430633544921875" lon="-0.3246094845235347747802734375">
        <ele>5</ele>
        <time>2021-09-27T12:57:33.000Z</time>
      </trkpt>
      <trkpt lat="39.4735988415777683258056640625" lon="-0.32459012232720851898193359375">
        <ele>5</ele>
        <time>2021-09-27T12:57:34.000Z</time>
      </trkpt>
      <trkpt lat="39.47360915131866931915283203125" lon="-0.3245783038437366485595703125">
        <ele>5</ele>
        <time>2021-09-27T12:57:35.000Z</time>
      </trkpt>
      <trkpt lat="39.47361920960247516632080078125" lon="-0.3245789743959903717041015625">
        <ele>5</ele>
        <time>2021-09-27T12:57:36.000Z</time>
      </trkpt>
      <trkpt lat="39.47361920960247516632080078125" lon="-0.3245789743959903717041015625">
        <ele>5</ele>
        <time>2021-09-27T12:57:37.000Z</time>
      </trkpt>
      <trkpt lat="39.473635219037532806396484375" lon="-0.3245870210230350494384765625">
        <ele>5</ele>
        <time>2021-09-27T12:57:38.000Z</time>
      </trkpt>
      <trkpt lat="39.4736516475677490234375" lon="-0.32458953559398651123046875">
        <ele>5</ele>
        <time>2021-09-27T12:57:39.000Z</time>
      </trkpt>
      <trkpt lat="39.47367335669696331024169921875" lon="-0.32459364272654056549072265625">
        <ele>5</ele>
        <time>2021-09-27T12:57:40.000Z</time>
      </trkpt>
      <trkpt lat="39.473719708621501922607421875" lon="-0.3246041201055049896240234375">
        <ele>5</ele>
        <time>2021-09-27T12:57:42.000Z</time>
      </trkpt>
      <trkpt lat="39.47376220487058162689208984375" lon="-0.324602611362934112548828125">
        <ele>5</ele>
        <time>2021-09-27T12:57:44.000Z</time>
      </trkpt>
      <trkpt lat="39.47378508746623992919921875" lon="-0.324603617191314697265625">
        <ele>5</ele>
        <time>2021-09-27T12:57:45.000Z</time>
      </trkpt>
      <trkpt lat="39.47381031699478626251220703125" lon="-0.32460487447679042816162109375">
        <ele>4.80000019073486328125</ele>
        <time>2021-09-27T12:57:46.000Z</time>
      </trkpt>
      <trkpt lat="39.47384677827358245849609375" lon="-0.324575118720531463623046875">
        <ele>5</ele>
        <time>2021-09-27T12:57:48.000Z</time>
      </trkpt>
      <trkpt lat="39.4738724268972873687744140625" lon="-0.3245580196380615234375">
        <ele>5</ele>
        <time>2021-09-27T12:57:49.000Z</time>
      </trkpt>
      <trkpt lat="39.4738989137113094329833984375" lon="-0.324544943869113922119140625">
        <ele>5</ele>
        <time>2021-09-27T12:57:50.000Z</time>
      </trkpt>
      <trkpt lat="39.473955072462558746337890625" lon="-0.32451401464641094207763671875">
        <ele>5</ele>
        <time>2021-09-27T12:57:52.000Z</time>
      </trkpt>
      <trkpt lat="39.47400729171931743621826171875" lon="-0.32448937185108661651611328125">
        <ele>5</ele>
        <time>2021-09-27T12:57:54.000Z</time>
      </trkpt>
      <trkpt lat="39.4740306772291660308837890625" lon="-0.32447612844407558441162109375">
        <ele>5</ele>
        <time>2021-09-27T12:57:55.000Z</time>
      </trkpt>
      <trkpt lat="39.47405464947223663330078125" lon="-0.32446347177028656005859375">
        <ele>5</ele>
        <time>2021-09-27T12:57:56.000Z</time>
      </trkpt>
      <trkpt lat="39.474102593958377838134765625" lon="-0.3244374878704547882080078125">
        <ele>5</ele>
        <time>2021-09-27T12:57:58.000Z</time>
      </trkpt>
      <trkpt lat="39.4741517119109630584716796875" lon="-0.3244190476834774017333984375">
        <ele>5</ele>
        <time>2021-09-27T12:58:00.000Z</time>
      </trkpt>
      <trkpt lat="39.47417375631630420684814453125" lon="-0.32441795803606510162353515625">
        <ele>5</ele>
        <time>2021-09-27T12:58:01.000Z</time>
      </trkpt>
      <trkpt lat="39.4741949625313282012939453125" lon="-0.3244130127131938934326171875">
        <ele>4.80000019073486328125</ele>
        <time>2021-09-27T12:58:02.000Z</time>
      </trkpt>
      <trkpt lat="39.4742358662188053131103515625" lon="-0.3243982605636119842529296875">
        <ele>4.80000019073486328125</ele>
        <time>2021-09-27T12:58:04.000Z</time>
      </trkpt>
      <trkpt lat="39.474276602268218994140625" lon="-0.32438308931887149810791015625">
        <ele>4.80000019073486328125</ele>
        <time>2021-09-27T12:58:06.000Z</time>
      </trkpt>
      <trkpt lat="39.47429428808391094207763671875" lon="-0.32437806017696857452392578125">
        <ele>4.80000019073486328125</ele>
        <time>2021-09-27T12:58:07.000Z</time>
      </trkpt>
      <trkpt lat="39.47431021369993686676025390625" lon="-0.32437269575893878936767578125">
        <ele>4.80000019073486328125</ele>
        <time>2021-09-27T12:58:08.000Z</time>
      </trkpt>
      <trkpt lat="39.4743458367884159088134765625" lon="-0.324369929730892181396484375">
        <ele>4.80000019073486328125</ele>
        <time>2021-09-27T12:58:10.000Z</time>
      </trkpt>
      <trkpt lat="39.47439336217939853668212890625" lon="-0.3243731148540973663330078125">
        <ele>4.80000019073486328125</ele>
        <time>2021-09-27T12:58:12.000Z</time>
      </trkpt>
      <trkpt lat="39.47444985620677471160888671875" lon="-0.324384011328220367431640625">
        <ele>4.599999904632568359375</ele>
        <time>2021-09-27T12:58:14.000Z</time>
      </trkpt>
      <trkpt lat="39.4744782708585262298583984375" lon="-0.32439499162137508392333984375">
        <ele>4.599999904632568359375</ele>
        <time>2021-09-27T12:58:15.000Z</time>
      </trkpt>
      <trkpt lat="39.474513642489910125732421875" lon="-0.3244146890938282012939453125">
        <ele>4.400000095367431640625</ele>
        <time>2021-09-27T12:58:16.000Z</time>
      </trkpt>
      <trkpt lat="39.47459234856069087982177734375" lon="-0.32443053089082241058349609375">
        <ele>3.7999999523162841796875</ele>
        <time>2021-09-27T12:58:18.000Z</time>
      </trkpt>
      <trkpt lat="39.474634341895580291748046875" lon="-0.324436984956264495849609375">
        <ele>3.400000095367431640625</ele>
        <time>2021-09-27T12:58:19.000Z</time>
      </trkpt>
      <trkpt lat="39.47467968799173831939697265625" lon="-0.32444335520267486572265625">
        <ele>3.2000000476837158203125</ele>
        <time>2021-09-27T12:58:20.000Z</time>
      </trkpt>
      <trkpt lat="39.4747300632297992706298828125" lon="-0.3244562633335590362548828125">
        <ele>3</ele>
        <time>2021-09-27T12:58:21.000Z</time>
      </trkpt>
      <trkpt lat="39.474783204495906829833984375" lon="-0.32447730191051959991455078125">
        <ele>3</ele>
        <time>2021-09-27T12:58:22.000Z</time>
      </trkpt>
      <trkpt lat="39.4748390279710292816162109375" lon="-0.32449540682137012481689453125">
        <ele>3</ele>
        <time>2021-09-27T12:58:23.000Z</time>
      </trkpt>
      <trkpt lat="39.47489661164581775665283203125" lon="-0.32450932078063488006591796875">
        <ele>3</ele>
        <time>2021-09-27T12:58:24.000Z</time>
      </trkpt>
      <trkpt lat="39.4749530218541622161865234375" lon="-0.32452088780701160430908203125">
        <ele>3</ele>
        <time>2021-09-27T12:58:25.000Z</time>
      </trkpt>
      <trkpt lat="39.47500641457736492156982421875" lon="-0.32452382147312164306640625">
        <ele>3</ele>
        <time>2021-09-27T12:58:26.000Z</time>
      </trkpt>
      <trkpt lat="39.4750584661960601806640625" lon="-0.3245256654918193817138671875">
        <ele>3</ele>
        <time>2021-09-27T12:58:27.000Z</time>
      </trkpt>
      <trkpt lat="39.47510850615799427032470703125" lon="-0.32452625222504138946533203125">
        <ele>2.7999999523162841796875</ele>
        <time>2021-09-27T12:58:28.000Z</time>
      </trkpt>
      <trkpt lat="39.47515561245381832122802734375" lon="-0.324531532824039459228515625">
        <ele>2.7999999523162841796875</ele>
        <time>2021-09-27T12:58:29.000Z</time>
      </trkpt>
      <trkpt lat="39.4751987792551517486572265625" lon="-0.32454125583171844482421875">
        <ele>2.7999999523162841796875</ele>
        <time>2021-09-27T12:58:30.000Z</time>
      </trkpt>
      <trkpt lat="39.4752487353980541229248046875" lon="-0.32455475069582462310791015625">
        <ele>2.7999999523162841796875</ele>
        <time>2021-09-27T12:58:32.000Z</time>
      </trkpt>
      <trkpt lat="39.4752530939877033233642578125" lon="-0.32455743290483951568603515625">
        <ele>2.7999999523162841796875</ele>
        <time>2021-09-27T12:58:33.000Z</time>
      </trkpt>
    </trkseg>
  </trk>
</gpx>
